<?xml version="1.0" encoding="UTF-8" standalone="no" ?>
<gpx xmlns="http://www.topografix.com/GPX/1/1" xmlns:xsi="http://www.w3.org/2001/XMLSchema-instance" xsi:schemaLocation="http://www.topografix.com/GPX/1/1 http://www.topografix.com/GPX/1/1/gpx.xsd" version="1.1" creator="VisuGPX - https://www.visugpx.com">
  <metadata>
    <name>BARCELONETTE - NICE </name>
  </metadata>
  <trk>
    <name><![CDATA[BARCELONETTE - NICE _1]]></name>
    <trkseg>
      <trkpt lat="46.39337" lon="6.79992">
        <ele>386.6</ele>
        <time>2013-08-23T14:20:01Z</time>
      </trkpt>
      <trkpt lat="46.39346" lon="6.80066">
        <ele>386.1</ele>
        <time>2013-08-23T14:20:11Z</time>
      </trkpt>
      <trkpt lat="46.39343" lon="6.80095">
        <ele>387.6</ele>
        <time>2013-08-23T14:20:15Z</time>
      </trkpt>
      <trkpt lat="46.39341" lon="6.80109">
        <ele>387.1</ele>
        <time>2013-08-23T14:20:17Z</time>
      </trkpt>
      <trkpt lat="46.39339" lon="6.80116">
        <ele>387.6</ele>
        <time>2013-08-23T14:20:18Z</time>
      </trkpt>
      <trkpt lat="46.39333" lon="6.80132">
        <ele>389</ele>
        <time>2013-08-23T14:20:22Z</time>
      </trkpt>
      <trkpt lat="46.39318" lon="6.80158">
        <ele>391.9</ele>
        <time>2013-08-23T14:20:34Z</time>
      </trkpt>
      <trkpt lat="46.39313" lon="6.80168">
        <ele>392.8</ele>
        <time>2013-08-23T14:20:39Z</time>
      </trkpt>
      <trkpt lat="46.39313" lon="6.8017">
        <ele>392.8</ele>
        <time>2013-08-23T14:20:40Z</time>
      </trkpt>
      <trkpt lat="46.39312" lon="6.80172">
        <ele>392.8</ele>
        <time>2013-08-23T14:20:41Z</time>
      </trkpt>
      <trkpt lat="46.39311" lon="6.80174">
        <ele>393.8</ele>
        <time>2013-08-23T14:20:42Z</time>
      </trkpt>
      <trkpt lat="46.3931" lon="6.80176">
        <ele>393.3</ele>
        <time>2013-08-23T14:20:43Z</time>
      </trkpt>
      <trkpt lat="46.39309" lon="6.80178">
        <ele>394.3</ele>
        <time>2013-08-23T14:20:44Z</time>
      </trkpt>
      <trkpt lat="46.39307" lon="6.8018">
        <ele>393.8</ele>
        <time>2013-08-23T14:20:45Z</time>
      </trkpt>
      <trkpt lat="46.39294" lon="6.80206">
        <ele>396.2</ele>
        <time>2013-08-23T14:20:58Z</time>
      </trkpt>
      <trkpt lat="46.39294" lon="6.80207">
        <ele>396.7</ele>
        <time>2013-08-23T14:20:59Z</time>
      </trkpt>
      <trkpt lat="46.39293" lon="6.80209">
        <ele>396.7</ele>
        <time>2013-08-23T14:21:00Z</time>
      </trkpt>
      <trkpt lat="46.39292" lon="6.80211">
        <ele>396.7</ele>
        <time>2013-08-23T14:21:01Z</time>
      </trkpt>
      <trkpt lat="46.39291" lon="6.80213">
        <ele>397.6</ele>
        <time>2013-08-23T14:21:02Z</time>
      </trkpt>
      <trkpt lat="46.39291" lon="6.80215">
        <ele>397.6</ele>
        <time>2013-08-23T14:21:03Z</time>
      </trkpt>
      <trkpt lat="46.3929" lon="6.80217">
        <ele>397.6</ele>
        <time>2013-08-23T14:21:04Z</time>
      </trkpt>
      <trkpt lat="46.39288" lon="6.80219">
        <ele>397.6</ele>
        <time>2013-08-23T14:21:05Z</time>
      </trkpt>
      <trkpt lat="46.39287" lon="6.80221">
        <ele>397.6</ele>
        <time>2013-08-23T14:21:06Z</time>
      </trkpt>
      <trkpt lat="46.39286" lon="6.80223">
        <ele>398.1</ele>
        <time>2013-08-23T14:21:07Z</time>
      </trkpt>
      <trkpt lat="46.3927" lon="6.80246">
        <ele>401.5</ele>
        <time>2013-08-23T14:21:21Z</time>
      </trkpt>
      <trkpt lat="46.39254" lon="6.80252">
        <ele>403.4</ele>
        <time>2013-08-23T14:21:33Z</time>
      </trkpt>
      <trkpt lat="46.3925" lon="6.80255">
        <ele>403.4</ele>
        <time>2013-08-23T14:21:43Z</time>
      </trkpt>
      <trkpt lat="46.39246" lon="6.80251">
        <ele>403.4</ele>
        <time>2013-08-23T14:22:04Z</time>
      </trkpt>
      <trkpt lat="46.39249" lon="6.80253">
        <ele>403.4</ele>
        <time>2013-08-23T14:22:21Z</time>
      </trkpt>
      <trkpt lat="46.39247" lon="6.80255">
        <ele>403.4</ele>
        <time>2013-08-23T14:22:35Z</time>
      </trkpt>
      <trkpt lat="46.39248" lon="6.80256">
        <ele>403.4</ele>
        <time>2013-08-23T14:22:57Z</time>
      </trkpt>
      <trkpt lat="46.39247" lon="6.80256">
        <ele>403.4</ele>
        <time>2013-08-23T14:23:18Z</time>
      </trkpt>
      <trkpt lat="46.39251" lon="6.80259">
        <ele>403.9</ele>
        <time>2013-08-23T14:23:45Z</time>
      </trkpt>
      <trkpt lat="46.3925" lon="6.80263">
        <ele>404.4</ele>
        <time>2013-08-23T14:23:55Z</time>
      </trkpt>
      <trkpt lat="46.3925" lon="6.80264">
        <ele>403.9</ele>
        <time>2013-08-23T14:23:56Z</time>
      </trkpt>
      <trkpt lat="46.39252" lon="6.80264">
        <ele>403.9</ele>
        <time>2013-08-23T14:23:57Z</time>
      </trkpt>
      <trkpt lat="46.39253" lon="6.80263">
        <ele>403.9</ele>
        <time>2013-08-23T14:23:58Z</time>
      </trkpt>
      <trkpt lat="46.39255" lon="6.80263">
        <ele>403.4</ele>
        <time>2013-08-23T14:23:59Z</time>
      </trkpt>
      <trkpt lat="46.39257" lon="6.80262">
        <ele>403.4</ele>
        <time>2013-08-23T14:24:00Z</time>
      </trkpt>
      <trkpt lat="46.39259" lon="6.80259">
        <ele>402.9</ele>
        <time>2013-08-23T14:24:01Z</time>
      </trkpt>
      <trkpt lat="46.3926" lon="6.80256">
        <ele>402.9</ele>
        <time>2013-08-23T14:24:02Z</time>
      </trkpt>
      <trkpt lat="46.3926" lon="6.80254">
        <ele>402.9</ele>
        <time>2013-08-23T14:24:03Z</time>
      </trkpt>
      <trkpt lat="46.39259" lon="6.80252">
        <ele>402.5</ele>
        <time>2013-08-23T14:24:04Z</time>
      </trkpt>
      <trkpt lat="46.39257" lon="6.80252">
        <ele>403.4</ele>
        <time>2013-08-23T14:24:05Z</time>
      </trkpt>
      <trkpt lat="46.39255" lon="6.80253">
        <ele>402.9</ele>
        <time>2013-08-23T14:24:06Z</time>
      </trkpt>
      <trkpt lat="46.39253" lon="6.80253">
        <ele>402.9</ele>
        <time>2013-08-23T14:24:07Z</time>
      </trkpt>
      <trkpt lat="46.3925" lon="6.80256">
        <ele>403.9</ele>
        <time>2013-08-23T14:24:10Z</time>
      </trkpt>
      <trkpt lat="46.39249" lon="6.80258">
        <ele>403.9</ele>
        <time>2013-08-23T14:24:12Z</time>
      </trkpt>
      <trkpt lat="46.39249" lon="6.8026">
        <ele>403.4</ele>
        <time>2013-08-23T14:24:26Z</time>
      </trkpt>
      <trkpt lat="46.3925" lon="6.80259">
        <ele>403.9</ele>
        <time>2013-08-23T14:24:48Z</time>
      </trkpt>
      <trkpt lat="46.39251" lon="6.80257">
        <ele>403.9</ele>
        <time>2013-08-23T14:24:50Z</time>
      </trkpt>
      <trkpt lat="46.39252" lon="6.80255">
        <ele>403.4</ele>
        <time>2013-08-23T14:24:51Z</time>
      </trkpt>
      <trkpt lat="46.39253" lon="6.80254">
        <ele>403.4</ele>
        <time>2013-08-23T14:24:52Z</time>
      </trkpt>
      <trkpt lat="46.39255" lon="6.80253">
        <ele>403.9</ele>
        <time>2013-08-23T14:24:53Z</time>
      </trkpt>
      <trkpt lat="46.39256" lon="6.80254">
        <ele>403.4</ele>
        <time>2013-08-23T14:24:54Z</time>
      </trkpt>
      <trkpt lat="46.39258" lon="6.80256">
        <ele>403.4</ele>
        <time>2013-08-23T14:24:55Z</time>
      </trkpt>
      <trkpt lat="46.39259" lon="6.80259">
        <ele>402.5</ele>
        <time>2013-08-23T14:24:56Z</time>
      </trkpt>
      <trkpt lat="46.39258" lon="6.80261">
        <ele>402.9</ele>
        <time>2013-08-23T14:24:57Z</time>
      </trkpt>
      <trkpt lat="46.39256" lon="6.80263">
        <ele>402.9</ele>
        <time>2013-08-23T14:24:58Z</time>
      </trkpt>
      <trkpt lat="46.39255" lon="6.80263">
        <ele>402.9</ele>
        <time>2013-08-23T14:24:59Z</time>
      </trkpt>
      <trkpt lat="46.39253" lon="6.80262">
        <ele>402.9</ele>
        <time>2013-08-23T14:25:00Z</time>
      </trkpt>
      <trkpt lat="46.39252" lon="6.80261">
        <ele>403.4</ele>
        <time>2013-08-23T14:25:01Z</time>
      </trkpt>
      <trkpt lat="46.39251" lon="6.80259">
        <ele>403.4</ele>
        <time>2013-08-23T14:25:02Z</time>
      </trkpt>
      <trkpt lat="46.39249" lon="6.80259">
        <ele>403.9</ele>
        <time>2013-08-23T14:25:03Z</time>
      </trkpt>
      <trkpt lat="46.39248" lon="6.80259">
        <ele>403.9</ele>
        <time>2013-08-23T14:25:04Z</time>
      </trkpt>
      <trkpt lat="46.39247" lon="6.80259">
        <ele>403.9</ele>
        <time>2013-08-23T14:25:05Z</time>
      </trkpt>
      <trkpt lat="46.39245" lon="6.80258">
        <ele>404.4</ele>
        <time>2013-08-23T14:25:06Z</time>
      </trkpt>
      <trkpt lat="46.39246" lon="6.80263">
        <ele>404.9</ele>
        <time>2013-08-23T14:25:18Z</time>
      </trkpt>
      <trkpt lat="46.39245" lon="6.80264">
        <ele>405.3</ele>
        <time>2013-08-23T14:25:44Z</time>
      </trkpt>
      <trkpt lat="46.39247" lon="6.80263">
        <ele>404.4</ele>
        <time>2013-08-23T14:26:13Z</time>
      </trkpt>
      <trkpt lat="46.39243" lon="6.80263">
        <ele>405.3</ele>
        <time>2013-08-23T14:26:28Z</time>
      </trkpt>
      <trkpt lat="46.39242" lon="6.80264">
        <ele>404.9</ele>
        <time>2013-08-23T14:26:29Z</time>
      </trkpt>
      <trkpt lat="46.39217" lon="6.80267">
        <ele>408.2</ele>
        <time>2013-08-23T14:26:43Z</time>
      </trkpt>
      <trkpt lat="46.39191" lon="6.80265">
        <ele>411.1</ele>
        <time>2013-08-23T14:26:56Z</time>
      </trkpt>
      <trkpt lat="46.3916" lon="6.80273">
        <ele>414.5</ele>
        <time>2013-08-23T14:27:11Z</time>
      </trkpt>
      <trkpt lat="46.39133" lon="6.80273">
        <ele>416.4</ele>
        <time>2013-08-23T14:27:25Z</time>
      </trkpt>
      <trkpt lat="46.39137" lon="6.8024">
        <ele>418.8</ele>
        <time>2013-08-23T14:27:36Z</time>
      </trkpt>
      <trkpt lat="46.39154" lon="6.80185">
        <ele>420.7</ele>
        <time>2013-08-23T14:27:55Z</time>
      </trkpt>
      <trkpt lat="46.3914" lon="6.8014">
        <ele>423.6</ele>
        <time>2013-08-23T14:28:11Z</time>
      </trkpt>
      <trkpt lat="46.39119" lon="6.80083">
        <ele>426</ele>
        <time>2013-08-23T14:28:28Z</time>
      </trkpt>
      <trkpt lat="46.39102" lon="6.8004">
        <ele>428.9</ele>
        <time>2013-08-23T14:28:42Z</time>
      </trkpt>
      <trkpt lat="46.39083" lon="6.79992">
        <ele>432.3</ele>
        <time>2013-08-23T14:28:59Z</time>
      </trkpt>
      <trkpt lat="46.39063" lon="6.79947">
        <ele>434.7</ele>
        <time>2013-08-23T14:29:15Z</time>
      </trkpt>
      <trkpt lat="46.39042" lon="6.79902">
        <ele>437.1</ele>
        <time>2013-08-23T14:29:31Z</time>
      </trkpt>
      <trkpt lat="46.39024" lon="6.79866">
        <ele>440.4</ele>
        <time>2013-08-23T14:29:44Z</time>
      </trkpt>
      <trkpt lat="46.39008" lon="6.79825">
        <ele>443.3</ele>
        <time>2013-08-23T14:29:58Z</time>
      </trkpt>
      <trkpt lat="46.38985" lon="6.79781">
        <ele>445.7</ele>
        <time>2013-08-23T14:30:15Z</time>
      </trkpt>
      <trkpt lat="46.3897" lon="6.79743">
        <ele>448.6</ele>
        <time>2013-08-23T14:30:29Z</time>
      </trkpt>
      <trkpt lat="46.38969" lon="6.79699">
        <ele>449.6</ele>
        <time>2013-08-23T14:30:41Z</time>
      </trkpt>
      <trkpt lat="46.38972" lon="6.79651">
        <ele>452.9</ele>
        <time>2013-08-23T14:30:55Z</time>
      </trkpt>
      <trkpt lat="46.38958" lon="6.79607">
        <ele>454.8</ele>
        <time>2013-08-23T14:31:10Z</time>
      </trkpt>
      <trkpt lat="46.38962" lon="6.7956">
        <ele>458.2</ele>
        <time>2013-08-23T14:31:24Z</time>
      </trkpt>
      <trkpt lat="46.38974" lon="6.79517">
        <ele>461.1</ele>
        <time>2013-08-23T14:31:37Z</time>
      </trkpt>
      <trkpt lat="46.38979" lon="6.79469">
        <ele>463.5</ele>
        <time>2013-08-23T14:31:52Z</time>
      </trkpt>
      <trkpt lat="46.38991" lon="6.79411">
        <ele>466.9</ele>
        <time>2013-08-23T14:32:09Z</time>
      </trkpt>
      <trkpt lat="46.38991" lon="6.79408">
        <ele>466.9</ele>
        <time>2013-08-23T14:32:10Z</time>
      </trkpt>
      <trkpt lat="46.38998" lon="6.79354">
        <ele>469.7</ele>
        <time>2013-08-23T14:32:27Z</time>
      </trkpt>
      <trkpt lat="46.39004" lon="6.79314">
        <ele>472.6</ele>
        <time>2013-08-23T14:32:40Z</time>
      </trkpt>
      <trkpt lat="46.38994" lon="6.79267">
        <ele>475</ele>
        <time>2013-08-23T14:32:55Z</time>
      </trkpt>
      <trkpt lat="46.38993" lon="6.7925">
        <ele>476</ele>
        <time>2013-08-23T14:33:01Z</time>
      </trkpt>
      <trkpt lat="46.38994" lon="6.79248">
        <ele>476.5</ele>
        <time>2013-08-23T14:33:02Z</time>
      </trkpt>
      <trkpt lat="46.38995" lon="6.79246">
        <ele>476</ele>
        <time>2013-08-23T14:33:03Z</time>
      </trkpt>
      <trkpt lat="46.38996" lon="6.79243">
        <ele>476.5</ele>
        <time>2013-08-23T14:33:04Z</time>
      </trkpt>
      <trkpt lat="46.38997" lon="6.79241">
        <ele>476.5</ele>
        <time>2013-08-23T14:33:05Z</time>
      </trkpt>
      <trkpt lat="46.39009" lon="6.79209">
        <ele>479.4</ele>
        <time>2013-08-23T14:33:19Z</time>
      </trkpt>
      <trkpt lat="46.39011" lon="6.79205">
        <ele>479.8</ele>
        <time>2013-08-23T14:33:21Z</time>
      </trkpt>
      <trkpt lat="46.39011" lon="6.79204">
        <ele>479.8</ele>
        <time>2013-08-23T14:33:22Z</time>
      </trkpt>
      <trkpt lat="46.39012" lon="6.79202">
        <ele>479.8</ele>
        <time>2013-08-23T14:33:23Z</time>
      </trkpt>
      <trkpt lat="46.39013" lon="6.79201">
        <ele>479.8</ele>
        <time>2013-08-23T14:33:24Z</time>
      </trkpt>
      <trkpt lat="46.39015" lon="6.79199">
        <ele>479.8</ele>
        <time>2013-08-23T14:33:25Z</time>
      </trkpt>
      <trkpt lat="46.39016" lon="6.79198">
        <ele>479.8</ele>
        <time>2013-08-23T14:33:26Z</time>
      </trkpt>
      <trkpt lat="46.39018" lon="6.79197">
        <ele>480.8</ele>
        <time>2013-08-23T14:33:27Z</time>
      </trkpt>
      <trkpt lat="46.39019" lon="6.79196">
        <ele>480.3</ele>
        <time>2013-08-23T14:33:28Z</time>
      </trkpt>
      <trkpt lat="46.39033" lon="6.79168">
        <ele>482.2</ele>
        <time>2013-08-23T14:33:41Z</time>
      </trkpt>
      <trkpt lat="46.39041" lon="6.79136">
        <ele>484.2</ele>
        <time>2013-08-23T14:33:55Z</time>
      </trkpt>
      <trkpt lat="46.39041" lon="6.79134">
        <ele>484.6</ele>
        <time>2013-08-23T14:33:56Z</time>
      </trkpt>
      <trkpt lat="46.39041" lon="6.79132">
        <ele>484.2</ele>
        <time>2013-08-23T14:33:57Z</time>
      </trkpt>
      <trkpt lat="46.39042" lon="6.7913">
        <ele>484.2</ele>
        <time>2013-08-23T14:33:58Z</time>
      </trkpt>
      <trkpt lat="46.39042" lon="6.79129">
        <ele>484.2</ele>
        <time>2013-08-23T14:33:59Z</time>
      </trkpt>
      <trkpt lat="46.39043" lon="6.79126">
        <ele>484.6</ele>
        <time>2013-08-23T14:34:00Z</time>
      </trkpt>
      <trkpt lat="46.39048" lon="6.79094">
        <ele>487.1</ele>
        <time>2013-08-23T14:34:14Z</time>
      </trkpt>
      <trkpt lat="46.39054" lon="6.79068">
        <ele>488</ele>
        <time>2013-08-23T14:34:24Z</time>
      </trkpt>
      <trkpt lat="46.39053" lon="6.79065">
        <ele>488.5</ele>
        <time>2013-08-23T14:34:25Z</time>
      </trkpt>
      <trkpt lat="46.39053" lon="6.79062">
        <ele>488.5</ele>
        <time>2013-08-23T14:34:26Z</time>
      </trkpt>
      <trkpt lat="46.39053" lon="6.7902">
        <ele>490.4</ele>
        <time>2013-08-23T14:34:41Z</time>
      </trkpt>
      <trkpt lat="46.39053" lon="6.78974">
        <ele>492.8</ele>
        <time>2013-08-23T14:34:54Z</time>
      </trkpt>
      <trkpt lat="46.3907" lon="6.7895">
        <ele>494.7</ele>
        <time>2013-08-23T14:35:03Z</time>
      </trkpt>
      <trkpt lat="46.39071" lon="6.78947">
        <ele>494.7</ele>
        <time>2013-08-23T14:35:04Z</time>
      </trkpt>
      <trkpt lat="46.39077" lon="6.78896">
        <ele>497.1</ele>
        <time>2013-08-23T14:35:19Z</time>
      </trkpt>
      <trkpt lat="46.39082" lon="6.78843">
        <ele>500</ele>
        <time>2013-08-23T14:35:35Z</time>
      </trkpt>
      <trkpt lat="46.39081" lon="6.78837">
        <ele>501</ele>
        <time>2013-08-23T14:35:37Z</time>
      </trkpt>
      <trkpt lat="46.39071" lon="6.78795">
        <ele>503.4</ele>
        <time>2013-08-23T14:35:52Z</time>
      </trkpt>
      <trkpt lat="46.39077" lon="6.78747">
        <ele>505.8</ele>
        <time>2013-08-23T14:36:06Z</time>
      </trkpt>
      <trkpt lat="46.39101" lon="6.7871">
        <ele>508.7</ele>
        <time>2013-08-23T14:36:21Z</time>
      </trkpt>
      <trkpt lat="46.3909" lon="6.78664">
        <ele>512</ele>
        <time>2013-08-23T14:36:36Z</time>
      </trkpt>
      <trkpt lat="46.3907" lon="6.78624">
        <ele>514</ele>
        <time>2013-08-23T14:36:52Z</time>
      </trkpt>
      <trkpt lat="46.39057" lon="6.7859">
        <ele>517.3</ele>
        <time>2013-08-23T14:37:05Z</time>
      </trkpt>
      <trkpt lat="46.39065" lon="6.78558">
        <ele>519.3</ele>
        <time>2013-08-23T14:37:15Z</time>
      </trkpt>
      <trkpt lat="46.39066" lon="6.78556">
        <ele>518.8</ele>
        <time>2013-08-23T14:37:16Z</time>
      </trkpt>
      <trkpt lat="46.39067" lon="6.78554">
        <ele>519.3</ele>
        <time>2013-08-23T14:37:17Z</time>
      </trkpt>
      <trkpt lat="46.39068" lon="6.78551">
        <ele>519.3</ele>
        <time>2013-08-23T14:37:18Z</time>
      </trkpt>
      <trkpt lat="46.3907" lon="6.78548">
        <ele>519.7</ele>
        <time>2013-08-23T14:37:19Z</time>
      </trkpt>
      <trkpt lat="46.3907" lon="6.78545">
        <ele>519.7</ele>
        <time>2013-08-23T14:37:20Z</time>
      </trkpt>
      <trkpt lat="46.39071" lon="6.78542">
        <ele>519.7</ele>
        <time>2013-08-23T14:37:21Z</time>
      </trkpt>
      <trkpt lat="46.39092" lon="6.78502">
        <ele>522.6</ele>
        <time>2013-08-23T14:37:37Z</time>
      </trkpt>
      <trkpt lat="46.39111" lon="6.7849">
        <ele>525</ele>
        <time>2013-08-23T14:37:48Z</time>
      </trkpt>
      <trkpt lat="46.39111" lon="6.78488">
        <ele>524.5</ele>
        <time>2013-08-23T14:37:49Z</time>
      </trkpt>
      <trkpt lat="46.39109" lon="6.78486">
        <ele>525.5</ele>
        <time>2013-08-23T14:37:50Z</time>
      </trkpt>
      <trkpt lat="46.39108" lon="6.78485">
        <ele>525.5</ele>
        <time>2013-08-23T14:37:51Z</time>
      </trkpt>
      <trkpt lat="46.39107" lon="6.78485">
        <ele>525</ele>
        <time>2013-08-23T14:37:52Z</time>
      </trkpt>
      <trkpt lat="46.39105" lon="6.78485">
        <ele>526</ele>
        <time>2013-08-23T14:37:53Z</time>
      </trkpt>
      <trkpt lat="46.39103" lon="6.78485">
        <ele>526</ele>
        <time>2013-08-23T14:37:54Z</time>
      </trkpt>
      <trkpt lat="46.39074" lon="6.78508">
        <ele>529.3</ele>
        <time>2013-08-23T14:38:12Z</time>
      </trkpt>
      <trkpt lat="46.39049" lon="6.78527">
        <ele>532.7</ele>
        <time>2013-08-23T14:38:28Z</time>
      </trkpt>
      <trkpt lat="46.39034" lon="6.78552">
        <ele>534.6</ele>
        <time>2013-08-23T14:38:41Z</time>
      </trkpt>
      <trkpt lat="46.39034" lon="6.78554">
        <ele>535.1</ele>
        <time>2013-08-23T14:38:42Z</time>
      </trkpt>
      <trkpt lat="46.39032" lon="6.78565">
        <ele>535.6</ele>
        <time>2013-08-23T14:38:46Z</time>
      </trkpt>
      <trkpt lat="46.39046" lon="6.78606">
        <ele>538</ele>
        <time>2013-08-23T14:39:01Z</time>
      </trkpt>
      <trkpt lat="46.39054" lon="6.78661">
        <ele>539.9</ele>
        <time>2013-08-23T14:39:17Z</time>
      </trkpt>
      <trkpt lat="46.39046" lon="6.787">
        <ele>542.3</ele>
        <time>2013-08-23T14:39:29Z</time>
      </trkpt>
      <trkpt lat="46.39044" lon="6.78703">
        <ele>542.8</ele>
        <time>2013-08-23T14:39:30Z</time>
      </trkpt>
      <trkpt lat="46.39043" lon="6.78704">
        <ele>543.3</ele>
        <time>2013-08-23T14:39:31Z</time>
      </trkpt>
      <trkpt lat="46.39041" lon="6.78706">
        <ele>543.3</ele>
        <time>2013-08-23T14:39:32Z</time>
      </trkpt>
      <trkpt lat="46.3904" lon="6.78707">
        <ele>543.3</ele>
        <time>2013-08-23T14:39:33Z</time>
      </trkpt>
      <trkpt lat="46.39024" lon="6.78734">
        <ele>545.2</ele>
        <time>2013-08-23T14:39:44Z</time>
      </trkpt>
      <trkpt lat="46.39017" lon="6.78792">
        <ele>547.6</ele>
        <time>2013-08-23T14:40:00Z</time>
      </trkpt>
      <trkpt lat="46.39006" lon="6.78846">
        <ele>550</ele>
        <time>2013-08-23T14:40:16Z</time>
      </trkpt>
      <trkpt lat="46.38994" lon="6.78894">
        <ele>553.4</ele>
        <time>2013-08-23T14:40:31Z</time>
      </trkpt>
      <trkpt lat="46.3898" lon="6.78946">
        <ele>556.3</ele>
        <time>2013-08-23T14:40:47Z</time>
      </trkpt>
      <trkpt lat="46.38968" lon="6.78994">
        <ele>559.1</ele>
        <time>2013-08-23T14:41:02Z</time>
      </trkpt>
      <trkpt lat="46.38953" lon="6.79041">
        <ele>562</ele>
        <time>2013-08-23T14:41:18Z</time>
      </trkpt>
      <trkpt lat="46.38938" lon="6.79086">
        <ele>564.9</ele>
        <time>2013-08-23T14:41:33Z</time>
      </trkpt>
      <trkpt lat="46.38918" lon="6.79123">
        <ele>567.8</ele>
        <time>2013-08-23T14:41:48Z</time>
      </trkpt>
      <trkpt lat="46.38888" lon="6.79132">
        <ele>569.7</ele>
        <time>2013-08-23T14:42:03Z</time>
      </trkpt>
      <trkpt lat="46.3887" lon="6.79132">
        <ele>570.2</ele>
        <time>2013-08-23T14:42:11Z</time>
      </trkpt>
      <trkpt lat="46.38868" lon="6.79134">
        <ele>570.7</ele>
        <time>2013-08-23T14:42:12Z</time>
      </trkpt>
      <trkpt lat="46.38851" lon="6.7917">
        <ele>572.6</ele>
        <time>2013-08-23T14:42:25Z</time>
      </trkpt>
      <trkpt lat="46.38842" lon="6.79204">
        <ele>575</ele>
        <time>2013-08-23T14:42:37Z</time>
      </trkpt>
      <trkpt lat="46.38846" lon="6.79239">
        <ele>576.9</ele>
        <time>2013-08-23T14:42:51Z</time>
      </trkpt>
      <trkpt lat="46.38857" lon="6.79278">
        <ele>579.3</ele>
        <time>2013-08-23T14:43:04Z</time>
      </trkpt>
      <trkpt lat="46.38854" lon="6.79324">
        <ele>582.2</ele>
        <time>2013-08-23T14:43:18Z</time>
      </trkpt>
      <trkpt lat="46.38837" lon="6.79364">
        <ele>585.1</ele>
        <time>2013-08-23T14:43:34Z</time>
      </trkpt>
      <trkpt lat="46.38822" lon="6.79389">
        <ele>587.5</ele>
        <time>2013-08-23T14:43:47Z</time>
      </trkpt>
      <trkpt lat="46.38799" lon="6.7943">
        <ele>590.4</ele>
        <time>2013-08-23T14:44:03Z</time>
      </trkpt>
      <trkpt lat="46.38784" lon="6.79467">
        <ele>592.3</ele>
        <time>2013-08-23T14:44:16Z</time>
      </trkpt>
      <trkpt lat="46.38762" lon="6.79507">
        <ele>595.2</ele>
        <time>2013-08-23T14:44:32Z</time>
      </trkpt>
      <trkpt lat="46.38747" lon="6.79536">
        <ele>597.6</ele>
        <time>2013-08-23T14:44:45Z</time>
      </trkpt>
      <trkpt lat="46.38724" lon="6.7957">
        <ele>600.5</ele>
        <time>2013-08-23T14:45:00Z</time>
      </trkpt>
      <trkpt lat="46.38701" lon="6.79595">
        <ele>602.4</ele>
        <time>2013-08-23T14:45:14Z</time>
      </trkpt>
      <trkpt lat="46.38699" lon="6.79596">
        <ele>602.9</ele>
        <time>2013-08-23T14:45:15Z</time>
      </trkpt>
      <trkpt lat="46.38698" lon="6.79598">
        <ele>603.4</ele>
        <time>2013-08-23T14:45:16Z</time>
      </trkpt>
      <trkpt lat="46.38671" lon="6.79625">
        <ele>605.8</ele>
        <time>2013-08-23T14:45:30Z</time>
      </trkpt>
      <trkpt lat="46.38648" lon="6.79654">
        <ele>608.7</ele>
        <time>2013-08-23T14:45:45Z</time>
      </trkpt>
      <trkpt lat="46.38625" lon="6.79669">
        <ele>611.1</ele>
        <time>2013-08-23T14:45:58Z</time>
      </trkpt>
      <trkpt lat="46.38601" lon="6.79693">
        <ele>613.5</ele>
        <time>2013-08-23T14:46:13Z</time>
      </trkpt>
      <trkpt lat="46.38587" lon="6.79728">
        <ele>615.4</ele>
        <time>2013-08-23T14:46:26Z</time>
      </trkpt>
      <trkpt lat="46.38565" lon="6.79768">
        <ele>618.3</ele>
        <time>2013-08-23T14:46:42Z</time>
      </trkpt>
      <trkpt lat="46.38546" lon="6.79807">
        <ele>621.2</ele>
        <time>2013-08-23T14:46:57Z</time>
      </trkpt>
      <trkpt lat="46.38527" lon="6.79835">
        <ele>623.6</ele>
        <time>2013-08-23T14:47:10Z</time>
      </trkpt>
      <trkpt lat="46.38507" lon="6.79863">
        <ele>626</ele>
        <time>2013-08-23T14:47:24Z</time>
      </trkpt>
      <trkpt lat="46.38505" lon="6.79864">
        <ele>626</ele>
        <time>2013-08-23T14:47:25Z</time>
      </trkpt>
      <trkpt lat="46.38504" lon="6.79866">
        <ele>626</ele>
        <time>2013-08-23T14:47:26Z</time>
      </trkpt>
      <trkpt lat="46.38502" lon="6.79868">
        <ele>626.4</ele>
        <time>2013-08-23T14:47:27Z</time>
      </trkpt>
      <trkpt lat="46.385" lon="6.79869">
        <ele>626</ele>
        <time>2013-08-23T14:47:28Z</time>
      </trkpt>
      <trkpt lat="46.38499" lon="6.79871">
        <ele>626.4</ele>
        <time>2013-08-23T14:47:29Z</time>
      </trkpt>
      <trkpt lat="46.38497" lon="6.79873">
        <ele>627.4</ele>
        <time>2013-08-23T14:47:30Z</time>
      </trkpt>
      <trkpt lat="46.38496" lon="6.79874">
        <ele>626.4</ele>
        <time>2013-08-23T14:47:31Z</time>
      </trkpt>
      <trkpt lat="46.38494" lon="6.79876">
        <ele>626.9</ele>
        <time>2013-08-23T14:47:32Z</time>
      </trkpt>
      <trkpt lat="46.38492" lon="6.79878">
        <ele>627.4</ele>
        <time>2013-08-23T14:47:33Z</time>
      </trkpt>
      <trkpt lat="46.38468" lon="6.79902">
        <ele>629.3</ele>
        <time>2013-08-23T14:47:45Z</time>
      </trkpt>
      <trkpt lat="46.38442" lon="6.79925">
        <ele>631.2</ele>
        <time>2013-08-23T14:47:59Z</time>
      </trkpt>
      <trkpt lat="46.38412" lon="6.7995">
        <ele>633.2</ele>
        <time>2013-08-23T14:48:14Z</time>
      </trkpt>
      <trkpt lat="46.38387" lon="6.79987">
        <ele>636.5</ele>
        <time>2013-08-23T14:48:30Z</time>
      </trkpt>
      <trkpt lat="46.38369" lon="6.80022">
        <ele>638.5</ele>
        <time>2013-08-23T14:48:44Z</time>
      </trkpt>
      <trkpt lat="46.38359" lon="6.80023">
        <ele>639.9</ele>
        <time>2013-08-23T14:48:49Z</time>
      </trkpt>
      <trkpt lat="46.38358" lon="6.80022">
        <ele>639.9</ele>
        <time>2013-08-23T14:48:50Z</time>
      </trkpt>
      <trkpt lat="46.38357" lon="6.80019">
        <ele>640.4</ele>
        <time>2013-08-23T14:48:51Z</time>
      </trkpt>
      <trkpt lat="46.38357" lon="6.80017">
        <ele>640.4</ele>
        <time>2013-08-23T14:48:52Z</time>
      </trkpt>
      <trkpt lat="46.38358" lon="6.80014">
        <ele>640.9</ele>
        <time>2013-08-23T14:48:53Z</time>
      </trkpt>
      <trkpt lat="46.38359" lon="6.80012">
        <ele>640.9</ele>
        <time>2013-08-23T14:48:54Z</time>
      </trkpt>
      <trkpt lat="46.38388" lon="6.79968">
        <ele>643.7</ele>
        <time>2013-08-23T14:49:12Z</time>
      </trkpt>
      <trkpt lat="46.38398" lon="6.7993">
        <ele>646.6</ele>
        <time>2013-08-23T14:49:27Z</time>
      </trkpt>
      <trkpt lat="46.38402" lon="6.79912">
        <ele>648.1</ele>
        <time>2013-08-23T14:49:35Z</time>
      </trkpt>
      <trkpt lat="46.38403" lon="6.79911">
        <ele>648.1</ele>
        <time>2013-08-23T14:49:36Z</time>
      </trkpt>
      <trkpt lat="46.38405" lon="6.79909">
        <ele>648.1</ele>
        <time>2013-08-23T14:49:37Z</time>
      </trkpt>
      <trkpt lat="46.38407" lon="6.79909">
        <ele>648.6</ele>
        <time>2013-08-23T14:49:38Z</time>
      </trkpt>
      <trkpt lat="46.38409" lon="6.79908">
        <ele>648.6</ele>
        <time>2013-08-23T14:49:39Z</time>
      </trkpt>
      <trkpt lat="46.38442" lon="6.79892">
        <ele>651.4</ele>
        <time>2013-08-23T14:49:55Z</time>
      </trkpt>
      <trkpt lat="46.38465" lon="6.79858">
        <ele>653.4</ele>
        <time>2013-08-23T14:50:10Z</time>
      </trkpt>
      <trkpt lat="46.3848" lon="6.79822">
        <ele>656.2</ele>
        <time>2013-08-23T14:50:24Z</time>
      </trkpt>
      <trkpt lat="46.38492" lon="6.79793">
        <ele>658.6</ele>
        <time>2013-08-23T14:50:36Z</time>
      </trkpt>
      <trkpt lat="46.38494" lon="6.79791">
        <ele>658.2</ele>
        <time>2013-08-23T14:50:37Z</time>
      </trkpt>
      <trkpt lat="46.38494" lon="6.79788">
        <ele>658.6</ele>
        <time>2013-08-23T14:50:38Z</time>
      </trkpt>
      <trkpt lat="46.38495" lon="6.79786">
        <ele>659.6</ele>
        <time>2013-08-23T14:50:39Z</time>
      </trkpt>
      <trkpt lat="46.38497" lon="6.79783">
        <ele>659.1</ele>
        <time>2013-08-23T14:50:40Z</time>
      </trkpt>
      <trkpt lat="46.38498" lon="6.79781">
        <ele>659.6</ele>
        <time>2013-08-23T14:50:41Z</time>
      </trkpt>
      <trkpt lat="46.38503" lon="6.79768">
        <ele>660.6</ele>
        <time>2013-08-23T14:50:46Z</time>
      </trkpt>
      <trkpt lat="46.38502" lon="6.79765">
        <ele>661</ele>
        <time>2013-08-23T14:50:47Z</time>
      </trkpt>
      <trkpt lat="46.38502" lon="6.79762">
        <ele>661.5</ele>
        <time>2013-08-23T14:50:48Z</time>
      </trkpt>
      <trkpt lat="46.38503" lon="6.79759">
        <ele>661</ele>
        <time>2013-08-23T14:50:49Z</time>
      </trkpt>
      <trkpt lat="46.38504" lon="6.79757">
        <ele>662</ele>
        <time>2013-08-23T14:50:50Z</time>
      </trkpt>
      <trkpt lat="46.38506" lon="6.79723">
        <ele>663.9</ele>
        <time>2013-08-23T14:51:05Z</time>
      </trkpt>
      <trkpt lat="46.38509" lon="6.79687">
        <ele>666.3</ele>
        <time>2013-08-23T14:51:19Z</time>
      </trkpt>
      <trkpt lat="46.38514" lon="6.7965">
        <ele>669.7</ele>
        <time>2013-08-23T14:51:33Z</time>
      </trkpt>
      <trkpt lat="46.38521" lon="6.79639">
        <ele>670.7</ele>
        <time>2013-08-23T14:51:43Z</time>
      </trkpt>
      <trkpt lat="46.38545" lon="6.79613">
        <ele>673.1</ele>
        <time>2013-08-23T14:51:58Z</time>
      </trkpt>
      <trkpt lat="46.38547" lon="6.79612">
        <ele>673.5</ele>
        <time>2013-08-23T14:51:59Z</time>
      </trkpt>
      <trkpt lat="46.38549" lon="6.7961">
        <ele>673.5</ele>
        <time>2013-08-23T14:52:00Z</time>
      </trkpt>
      <trkpt lat="46.38569" lon="6.79587">
        <ele>675.9</ele>
        <time>2013-08-23T14:52:13Z</time>
      </trkpt>
      <trkpt lat="46.38587" lon="6.79559">
        <ele>677.9</ele>
        <time>2013-08-23T14:52:25Z</time>
      </trkpt>
      <trkpt lat="46.38602" lon="6.79529">
        <ele>680.3</ele>
        <time>2013-08-23T14:52:37Z</time>
      </trkpt>
      <trkpt lat="46.38613" lon="6.79512">
        <ele>681.7</ele>
        <time>2013-08-23T14:52:44Z</time>
      </trkpt>
      <trkpt lat="46.3863" lon="6.79476">
        <ele>684.1</ele>
        <time>2013-08-23T14:52:57Z</time>
      </trkpt>
      <trkpt lat="46.38649" lon="6.7944">
        <ele>686</ele>
        <time>2013-08-23T14:53:11Z</time>
      </trkpt>
      <trkpt lat="46.38653" lon="6.79427">
        <ele>687</ele>
        <time>2013-08-23T14:53:16Z</time>
      </trkpt>
      <trkpt lat="46.38653" lon="6.79424">
        <ele>687</ele>
        <time>2013-08-23T14:53:17Z</time>
      </trkpt>
      <trkpt lat="46.38652" lon="6.79423">
        <ele>687.5</ele>
        <time>2013-08-23T14:53:18Z</time>
      </trkpt>
      <trkpt lat="46.3865" lon="6.79422">
        <ele>687.5</ele>
        <time>2013-08-23T14:53:19Z</time>
      </trkpt>
      <trkpt lat="46.38648" lon="6.79422">
        <ele>688</ele>
        <time>2013-08-23T14:53:20Z</time>
      </trkpt>
      <trkpt lat="46.38646" lon="6.79423">
        <ele>688</ele>
        <time>2013-08-23T14:53:21Z</time>
      </trkpt>
      <trkpt lat="46.38644" lon="6.79425">
        <ele>688.4</ele>
        <time>2013-08-23T14:53:22Z</time>
      </trkpt>
      <trkpt lat="46.38643" lon="6.79427">
        <ele>688.4</ele>
        <time>2013-08-23T14:53:23Z</time>
      </trkpt>
      <trkpt lat="46.38643" lon="6.7943">
        <ele>688.4</ele>
        <time>2013-08-23T14:53:24Z</time>
      </trkpt>
      <trkpt lat="46.38627" lon="6.79465">
        <ele>690.4</ele>
        <time>2013-08-23T14:53:38Z</time>
      </trkpt>
      <trkpt lat="46.38602" lon="6.79501">
        <ele>693.3</ele>
        <time>2013-08-23T14:53:53Z</time>
      </trkpt>
      <trkpt lat="46.38574" lon="6.79532">
        <ele>696.1</ele>
        <time>2013-08-23T14:54:09Z</time>
      </trkpt>
      <trkpt lat="46.3855" lon="6.79556">
        <ele>698.5</ele>
        <time>2013-08-23T14:54:24Z</time>
      </trkpt>
      <trkpt lat="46.38531" lon="6.79572">
        <ele>700</ele>
        <time>2013-08-23T14:54:36Z</time>
      </trkpt>
      <trkpt lat="46.38496" lon="6.79603">
        <ele>702.4</ele>
        <time>2013-08-23T14:54:52Z</time>
      </trkpt>
      <trkpt lat="46.3847" lon="6.79622">
        <ele>705.3</ele>
        <time>2013-08-23T14:55:05Z</time>
      </trkpt>
      <trkpt lat="46.38453" lon="6.79633">
        <ele>705.8</ele>
        <time>2013-08-23T14:55:13Z</time>
      </trkpt>
      <trkpt lat="46.38446" lon="6.79682">
        <ele>707.7</ele>
        <time>2013-08-23T14:55:27Z</time>
      </trkpt>
      <trkpt lat="46.3843" lon="6.79737">
        <ele>710.1</ele>
        <time>2013-08-23T14:55:43Z</time>
      </trkpt>
      <trkpt lat="46.38406" lon="6.79768">
        <ele>713</ele>
        <time>2013-08-23T14:55:58Z</time>
      </trkpt>
      <trkpt lat="46.38398" lon="6.79783">
        <ele>714.4</ele>
        <time>2013-08-23T14:56:05Z</time>
      </trkpt>
      <trkpt lat="46.38395" lon="6.79788">
        <ele>714.4</ele>
        <time>2013-08-23T14:56:08Z</time>
      </trkpt>
      <trkpt lat="46.38394" lon="6.7979">
        <ele>715.4</ele>
        <time>2013-08-23T14:56:09Z</time>
      </trkpt>
      <trkpt lat="46.38392" lon="6.79791">
        <ele>715.4</ele>
        <time>2013-08-23T14:56:10Z</time>
      </trkpt>
      <trkpt lat="46.38389" lon="6.79793">
        <ele>715.8</ele>
        <time>2013-08-23T14:56:11Z</time>
      </trkpt>
      <trkpt lat="46.38386" lon="6.79793">
        <ele>715.4</ele>
        <time>2013-08-23T14:56:12Z</time>
      </trkpt>
      <trkpt lat="46.38383" lon="6.79794">
        <ele>715.8</ele>
        <time>2013-08-23T14:56:13Z</time>
      </trkpt>
      <trkpt lat="46.38351" lon="6.79807">
        <ele>717.8</ele>
        <time>2013-08-23T14:56:27Z</time>
      </trkpt>
      <trkpt lat="46.38333" lon="6.7983">
        <ele>719.2</ele>
        <time>2013-08-23T14:56:40Z</time>
      </trkpt>
      <trkpt lat="46.38311" lon="6.79868">
        <ele>722.1</ele>
        <time>2013-08-23T14:56:56Z</time>
      </trkpt>
      <trkpt lat="46.38287" lon="6.79882">
        <ele>724.5</ele>
        <time>2013-08-23T14:57:08Z</time>
      </trkpt>
      <trkpt lat="46.38264" lon="6.79903">
        <ele>725.9</ele>
        <time>2013-08-23T14:57:20Z</time>
      </trkpt>
      <trkpt lat="46.38254" lon="6.79938">
        <ele>728.8</ele>
        <time>2013-08-23T14:57:33Z</time>
      </trkpt>
      <trkpt lat="46.38236" lon="6.79969">
        <ele>730.3</ele>
        <time>2013-08-23T14:57:45Z</time>
      </trkpt>
      <trkpt lat="46.38211" lon="6.80001">
        <ele>733.1</ele>
        <time>2013-08-23T14:57:59Z</time>
      </trkpt>
      <trkpt lat="46.38205" lon="6.80014">
        <ele>733.1</ele>
        <time>2013-08-23T14:58:03Z</time>
      </trkpt>
      <trkpt lat="46.38203" lon="6.80017">
        <ele>733.6</ele>
        <time>2013-08-23T14:58:04Z</time>
      </trkpt>
      <trkpt lat="46.38201" lon="6.8002">
        <ele>734.1</ele>
        <time>2013-08-23T14:58:05Z</time>
      </trkpt>
      <trkpt lat="46.38182" lon="6.80059">
        <ele>736.5</ele>
        <time>2013-08-23T14:58:19Z</time>
      </trkpt>
      <trkpt lat="46.38177" lon="6.80068">
        <ele>737.5</ele>
        <time>2013-08-23T14:58:25Z</time>
      </trkpt>
      <trkpt lat="46.38177" lon="6.8007">
        <ele>737.5</ele>
        <time>2013-08-23T14:58:26Z</time>
      </trkpt>
      <trkpt lat="46.38182" lon="6.80119">
        <ele>739.9</ele>
        <time>2013-08-23T14:58:38Z</time>
      </trkpt>
      <trkpt lat="46.3819" lon="6.80165">
        <ele>742.3</ele>
        <time>2013-08-23T14:58:52Z</time>
      </trkpt>
      <trkpt lat="46.38195" lon="6.80201">
        <ele>745.6</ele>
        <time>2013-08-23T14:59:05Z</time>
      </trkpt>
      <trkpt lat="46.38196" lon="6.80203">
        <ele>745.6</ele>
        <time>2013-08-23T14:59:06Z</time>
      </trkpt>
      <trkpt lat="46.38195" lon="6.80229">
        <ele>747.1</ele>
        <time>2013-08-23T14:59:16Z</time>
      </trkpt>
      <trkpt lat="46.3818" lon="6.80256">
        <ele>750</ele>
        <time>2013-08-23T14:59:29Z</time>
      </trkpt>
      <trkpt lat="46.38177" lon="6.80258">
        <ele>750.5</ele>
        <time>2013-08-23T14:59:31Z</time>
      </trkpt>
      <trkpt lat="46.38176" lon="6.80259">
        <ele>750</ele>
        <time>2013-08-23T14:59:32Z</time>
      </trkpt>
      <trkpt lat="46.38153" lon="6.80269">
        <ele>753.3</ele>
        <time>2013-08-23T14:59:46Z</time>
      </trkpt>
      <trkpt lat="46.38127" lon="6.80273">
        <ele>756.7</ele>
        <time>2013-08-23T15:00:00Z</time>
      </trkpt>
      <trkpt lat="46.38105" lon="6.80274">
        <ele>758.1</ele>
        <time>2013-08-23T15:00:11Z</time>
      </trkpt>
      <trkpt lat="46.38081" lon="6.80285">
        <ele>759.1</ele>
        <time>2013-08-23T15:00:24Z</time>
      </trkpt>
      <trkpt lat="46.38052" lon="6.80295">
        <ele>762</ele>
        <time>2013-08-23T15:00:38Z</time>
      </trkpt>
      <trkpt lat="46.38016" lon="6.80301">
        <ele>764.4</ele>
        <time>2013-08-23T15:00:54Z</time>
      </trkpt>
      <trkpt lat="46.37987" lon="6.80301">
        <ele>766.8</ele>
        <time>2013-08-23T15:01:07Z</time>
      </trkpt>
      <trkpt lat="46.37957" lon="6.80303">
        <ele>768.7</ele>
        <time>2013-08-23T15:01:20Z</time>
      </trkpt>
      <trkpt lat="46.37922" lon="6.8031">
        <ele>771.6</ele>
        <time>2013-08-23T15:01:36Z</time>
      </trkpt>
      <trkpt lat="46.37894" lon="6.80315">
        <ele>774</ele>
        <time>2013-08-23T15:01:49Z</time>
      </trkpt>
      <trkpt lat="46.37866" lon="6.80309">
        <ele>775.4</ele>
        <time>2013-08-23T15:02:02Z</time>
      </trkpt>
      <trkpt lat="46.37833" lon="6.80296">
        <ele>778.3</ele>
        <time>2013-08-23T15:02:16Z</time>
      </trkpt>
      <trkpt lat="46.37805" lon="6.8029">
        <ele>780.7</ele>
        <time>2013-08-23T15:02:29Z</time>
      </trkpt>
      <trkpt lat="46.3778" lon="6.80283">
        <ele>783.1</ele>
        <time>2013-08-23T15:02:42Z</time>
      </trkpt>
      <trkpt lat="46.37761" lon="6.80271">
        <ele>785.5</ele>
        <time>2013-08-23T15:02:53Z</time>
      </trkpt>
      <trkpt lat="46.37758" lon="6.80267">
        <ele>786</ele>
        <time>2013-08-23T15:02:55Z</time>
      </trkpt>
      <trkpt lat="46.37757" lon="6.80264">
        <ele>786</ele>
        <time>2013-08-23T15:02:56Z</time>
      </trkpt>
      <trkpt lat="46.37756" lon="6.80262">
        <ele>785.5</ele>
        <time>2013-08-23T15:02:57Z</time>
      </trkpt>
      <trkpt lat="46.37752" lon="6.80256">
        <ele>786.5</ele>
        <time>2013-08-23T15:03:00Z</time>
      </trkpt>
      <trkpt lat="46.37734" lon="6.8023">
        <ele>788.4</ele>
        <time>2013-08-23T15:03:11Z</time>
      </trkpt>
      <trkpt lat="46.3772" lon="6.80193">
        <ele>790.8</ele>
        <time>2013-08-23T15:03:24Z</time>
      </trkpt>
      <trkpt lat="46.37707" lon="6.80153">
        <ele>792.7</ele>
        <time>2013-08-23T15:03:37Z</time>
      </trkpt>
      <trkpt lat="46.37703" lon="6.8014">
        <ele>794.2</ele>
        <time>2013-08-23T15:03:43Z</time>
      </trkpt>
      <trkpt lat="46.37701" lon="6.80138">
        <ele>794.2</ele>
        <time>2013-08-23T15:03:44Z</time>
      </trkpt>
      <trkpt lat="46.37699" lon="6.80136">
        <ele>794.7</ele>
        <time>2013-08-23T15:03:45Z</time>
      </trkpt>
      <trkpt lat="46.37697" lon="6.80133">
        <ele>794.7</ele>
        <time>2013-08-23T15:03:46Z</time>
      </trkpt>
      <trkpt lat="46.37695" lon="6.80131">
        <ele>794.7</ele>
        <time>2013-08-23T15:03:47Z</time>
      </trkpt>
      <trkpt lat="46.37693" lon="6.8013">
        <ele>795.2</ele>
        <time>2013-08-23T15:03:48Z</time>
      </trkpt>
      <trkpt lat="46.37691" lon="6.80128">
        <ele>795.2</ele>
        <time>2013-08-23T15:03:49Z</time>
      </trkpt>
      <trkpt lat="46.3769" lon="6.80126">
        <ele>795.6</ele>
        <time>2013-08-23T15:03:50Z</time>
      </trkpt>
      <trkpt lat="46.37688" lon="6.80124">
        <ele>795.2</ele>
        <time>2013-08-23T15:03:51Z</time>
      </trkpt>
      <trkpt lat="46.37686" lon="6.80122">
        <ele>796.1</ele>
        <time>2013-08-23T15:03:52Z</time>
      </trkpt>
      <trkpt lat="46.37669" lon="6.80098">
        <ele>797.6</ele>
        <time>2013-08-23T15:04:04Z</time>
      </trkpt>
      <trkpt lat="46.37646" lon="6.80074">
        <ele>800.4</ele>
        <time>2013-08-23T15:04:18Z</time>
      </trkpt>
      <trkpt lat="46.37621" lon="6.80048">
        <ele>803.3</ele>
        <time>2013-08-23T15:04:34Z</time>
      </trkpt>
      <trkpt lat="46.37595" lon="6.80028">
        <ele>805.2</ele>
        <time>2013-08-23T15:04:48Z</time>
      </trkpt>
      <trkpt lat="46.37571" lon="6.80001">
        <ele>807.2</ele>
        <time>2013-08-23T15:05:01Z</time>
      </trkpt>
      <trkpt lat="46.37543" lon="6.79974">
        <ele>810.5</ele>
        <time>2013-08-23T15:05:16Z</time>
      </trkpt>
      <trkpt lat="46.37518" lon="6.79941">
        <ele>812.5</ele>
        <time>2013-08-23T15:05:31Z</time>
      </trkpt>
      <trkpt lat="46.375" lon="6.79905">
        <ele>815.3</ele>
        <time>2013-08-23T15:05:46Z</time>
      </trkpt>
      <trkpt lat="46.37479" lon="6.79868">
        <ele>818.7</ele>
        <time>2013-08-23T15:06:02Z</time>
      </trkpt>
      <trkpt lat="46.37461" lon="6.79836">
        <ele>822.1</ele>
        <time>2013-08-23T15:06:17Z</time>
      </trkpt>
      <trkpt lat="46.37454" lon="6.79825">
        <ele>823</ele>
        <time>2013-08-23T15:06:22Z</time>
      </trkpt>
      <trkpt lat="46.37452" lon="6.79823">
        <ele>823.5</ele>
        <time>2013-08-23T15:06:23Z</time>
      </trkpt>
      <trkpt lat="46.37451" lon="6.7982">
        <ele>823.5</ele>
        <time>2013-08-23T15:06:24Z</time>
      </trkpt>
      <trkpt lat="46.3745" lon="6.79818">
        <ele>823.5</ele>
        <time>2013-08-23T15:06:25Z</time>
      </trkpt>
      <trkpt lat="46.37448" lon="6.79816">
        <ele>824.5</ele>
        <time>2013-08-23T15:06:26Z</time>
      </trkpt>
      <trkpt lat="46.37429" lon="6.79783">
        <ele>826.9</ele>
        <time>2013-08-23T15:06:40Z</time>
      </trkpt>
      <trkpt lat="46.37397" lon="6.79757">
        <ele>829.8</ele>
        <time>2013-08-23T15:06:56Z</time>
      </trkpt>
      <trkpt lat="46.37379" lon="6.79725">
        <ele>832.6</ele>
        <time>2013-08-23T15:07:08Z</time>
      </trkpt>
      <trkpt lat="46.37361" lon="6.79689">
        <ele>835.5</ele>
        <time>2013-08-23T15:07:23Z</time>
      </trkpt>
      <trkpt lat="46.37352" lon="6.79679">
        <ele>837.5</ele>
        <time>2013-08-23T15:07:27Z</time>
      </trkpt>
      <trkpt lat="46.37324" lon="6.79637">
        <ele>839.9</ele>
        <time>2013-08-23T15:07:44Z</time>
      </trkpt>
      <trkpt lat="46.37296" lon="6.79601">
        <ele>842.7</ele>
        <time>2013-08-23T15:08:01Z</time>
      </trkpt>
      <trkpt lat="46.37264" lon="6.79576">
        <ele>846.1</ele>
        <time>2013-08-23T15:08:18Z</time>
      </trkpt>
      <trkpt lat="46.37238" lon="6.79558">
        <ele>849.5</ele>
        <time>2013-08-23T15:08:32Z</time>
      </trkpt>
      <trkpt lat="46.37209" lon="6.79538">
        <ele>852.4</ele>
        <time>2013-08-23T15:08:46Z</time>
      </trkpt>
      <trkpt lat="46.3718" lon="6.79513">
        <ele>855.7</ele>
        <time>2013-08-23T15:09:02Z</time>
      </trkpt>
      <trkpt lat="46.37154" lon="6.79478">
        <ele>858.6</ele>
        <time>2013-08-23T15:09:19Z</time>
      </trkpt>
      <trkpt lat="46.37131" lon="6.79445">
        <ele>862</ele>
        <time>2013-08-23T15:09:34Z</time>
      </trkpt>
      <trkpt lat="46.37105" lon="6.79408">
        <ele>864.8</ele>
        <time>2013-08-23T15:09:50Z</time>
      </trkpt>
      <trkpt lat="46.37081" lon="6.79378">
        <ele>868.2</ele>
        <time>2013-08-23T15:10:05Z</time>
      </trkpt>
      <trkpt lat="46.37054" lon="6.79367">
        <ele>870.6</ele>
        <time>2013-08-23T15:10:21Z</time>
      </trkpt>
      <trkpt lat="46.37051" lon="6.79365">
        <ele>870.6</ele>
        <time>2013-08-23T15:10:23Z</time>
      </trkpt>
      <trkpt lat="46.37049" lon="6.79365">
        <ele>871.1</ele>
        <time>2013-08-23T15:10:24Z</time>
      </trkpt>
      <trkpt lat="46.37048" lon="6.79364">
        <ele>871.6</ele>
        <time>2013-08-23T15:10:25Z</time>
      </trkpt>
      <trkpt lat="46.3703" lon="6.79333">
        <ele>874</ele>
        <time>2013-08-23T15:10:39Z</time>
      </trkpt>
      <trkpt lat="46.37021" lon="6.79282">
        <ele>876.4</ele>
        <time>2013-08-23T15:10:56Z</time>
      </trkpt>
      <trkpt lat="46.36999" lon="6.79264">
        <ele>879.3</ele>
        <time>2013-08-23T15:11:09Z</time>
      </trkpt>
      <trkpt lat="46.36968" lon="6.79276">
        <ele>881.2</ele>
        <time>2013-08-23T15:11:23Z</time>
      </trkpt>
      <trkpt lat="46.36948" lon="6.79313">
        <ele>884.1</ele>
        <time>2013-08-23T15:11:35Z</time>
      </trkpt>
      <trkpt lat="46.36918" lon="6.79318">
        <ele>886</ele>
        <time>2013-08-23T15:11:48Z</time>
      </trkpt>
      <trkpt lat="46.36899" lon="6.79313">
        <ele>887.4</ele>
        <time>2013-08-23T15:11:56Z</time>
      </trkpt>
      <trkpt lat="46.36869" lon="6.79292">
        <ele>889.8</ele>
        <time>2013-08-23T15:12:09Z</time>
      </trkpt>
      <trkpt lat="46.36833" lon="6.79259">
        <ele>892.7</ele>
        <time>2013-08-23T15:12:25Z</time>
      </trkpt>
      <trkpt lat="46.36809" lon="6.79228">
        <ele>894.6</ele>
        <time>2013-08-23T15:12:38Z</time>
      </trkpt>
      <trkpt lat="46.36783" lon="6.79196">
        <ele>898</ele>
        <time>2013-08-23T15:12:53Z</time>
      </trkpt>
      <trkpt lat="46.36756" lon="6.79158">
        <ele>900.4</ele>
        <time>2013-08-23T15:13:08Z</time>
      </trkpt>
      <trkpt lat="46.36744" lon="6.7911">
        <ele>902.3</ele>
        <time>2013-08-23T15:13:21Z</time>
      </trkpt>
      <trkpt lat="46.36731" lon="6.79055">
        <ele>904.7</ele>
        <time>2013-08-23T15:13:36Z</time>
      </trkpt>
      <trkpt lat="46.36719" lon="6.78994">
        <ele>907.6</ele>
        <time>2013-08-23T15:13:53Z</time>
      </trkpt>
      <trkpt lat="46.36713" lon="6.78957">
        <ele>909.1</ele>
        <time>2013-08-23T15:14:04Z</time>
      </trkpt>
      <trkpt lat="46.36713" lon="6.78904">
        <ele>912</ele>
        <time>2013-08-23T15:14:18Z</time>
      </trkpt>
      <trkpt lat="46.36714" lon="6.78894">
        <ele>913.4</ele>
        <time>2013-08-23T15:14:22Z</time>
      </trkpt>
      <trkpt lat="46.36708" lon="6.78885">
        <ele>914.4</ele>
        <time>2013-08-23T15:14:32Z</time>
      </trkpt>
      <trkpt lat="46.3671" lon="6.78887">
        <ele>913.9</ele>
        <time>2013-08-23T15:14:33Z</time>
      </trkpt>
      <trkpt lat="46.36712" lon="6.78888">
        <ele>913.9</ele>
        <time>2013-08-23T15:14:34Z</time>
      </trkpt>
      <trkpt lat="46.36714" lon="6.78889">
        <ele>913.9</ele>
        <time>2013-08-23T15:14:35Z</time>
      </trkpt>
      <trkpt lat="46.36718" lon="6.7889">
        <ele>913.4</ele>
        <time>2013-08-23T15:14:36Z</time>
      </trkpt>
      <trkpt lat="46.36721" lon="6.7889">
        <ele>913.4</ele>
        <time>2013-08-23T15:14:37Z</time>
      </trkpt>
      <trkpt lat="46.36722" lon="6.78892">
        <ele>913.9</ele>
        <time>2013-08-23T15:14:38Z</time>
      </trkpt>
      <trkpt lat="46.36724" lon="6.78895">
        <ele>914.8</ele>
        <time>2013-08-23T15:14:39Z</time>
      </trkpt>
      <trkpt lat="46.36725" lon="6.78899">
        <ele>914.8</ele>
        <time>2013-08-23T15:14:40Z</time>
      </trkpt>
      <trkpt lat="46.36736" lon="6.78951">
        <ele>917.7</ele>
        <time>2013-08-23T15:14:56Z</time>
      </trkpt>
      <trkpt lat="46.36757" lon="6.78972">
        <ele>920.1</ele>
        <time>2013-08-23T15:15:08Z</time>
      </trkpt>
      <trkpt lat="46.36777" lon="6.79015">
        <ele>923</ele>
        <time>2013-08-23T15:15:23Z</time>
      </trkpt>
      <trkpt lat="46.36788" lon="6.79059">
        <ele>926.4</ele>
        <time>2013-08-23T15:15:37Z</time>
      </trkpt>
      <trkpt lat="46.36797" lon="6.7911">
        <ele>929.7</ele>
        <time>2013-08-23T15:15:55Z</time>
      </trkpt>
      <trkpt lat="46.36823" lon="6.79126">
        <ele>932.6</ele>
        <time>2013-08-23T15:16:09Z</time>
      </trkpt>
      <trkpt lat="46.36866" lon="6.79134">
        <ele>934.5</ele>
        <time>2013-08-23T15:16:27Z</time>
      </trkpt>
      <trkpt lat="46.36905" lon="6.79139">
        <ele>936.9</ele>
        <time>2013-08-23T15:16:43Z</time>
      </trkpt>
      <trkpt lat="46.36925" lon="6.79104">
        <ele>938.4</ele>
        <time>2013-08-23T15:16:56Z</time>
      </trkpt>
      <trkpt lat="46.3693" lon="6.79045">
        <ele>941.3</ele>
        <time>2013-08-23T15:17:13Z</time>
      </trkpt>
      <trkpt lat="46.36928" lon="6.78985">
        <ele>945.1</ele>
        <time>2013-08-23T15:17:31Z</time>
      </trkpt>
      <trkpt lat="46.36934" lon="6.78927">
        <ele>946.6</ele>
        <time>2013-08-23T15:17:48Z</time>
      </trkpt>
      <trkpt lat="46.36942" lon="6.78912">
        <ele>948</ele>
        <time>2013-08-23T15:17:55Z</time>
      </trkpt>
      <trkpt lat="46.36941" lon="6.7891">
        <ele>948.5</ele>
        <time>2013-08-23T15:17:56Z</time>
      </trkpt>
      <trkpt lat="46.3694" lon="6.7891">
        <ele>948.5</ele>
        <time>2013-08-23T15:17:57Z</time>
      </trkpt>
      <trkpt lat="46.36938" lon="6.7891">
        <ele>948.5</ele>
        <time>2013-08-23T15:17:58Z</time>
      </trkpt>
      <trkpt lat="46.36937" lon="6.78912">
        <ele>948.5</ele>
        <time>2013-08-23T15:17:59Z</time>
      </trkpt>
      <trkpt lat="46.36935" lon="6.78913">
        <ele>948.5</ele>
        <time>2013-08-23T15:18:00Z</time>
      </trkpt>
      <trkpt lat="46.36934" lon="6.78914">
        <ele>948.5</ele>
        <time>2013-08-23T15:18:01Z</time>
      </trkpt>
      <trkpt lat="46.36932" lon="6.78916">
        <ele>949</ele>
        <time>2013-08-23T15:18:02Z</time>
      </trkpt>
      <trkpt lat="46.36931" lon="6.78917">
        <ele>948.5</ele>
        <time>2013-08-23T15:18:03Z</time>
      </trkpt>
      <trkpt lat="46.3693" lon="6.78919">
        <ele>949</ele>
        <time>2013-08-23T15:18:04Z</time>
      </trkpt>
      <trkpt lat="46.36928" lon="6.78922">
        <ele>949</ele>
        <time>2013-08-23T15:18:07Z</time>
      </trkpt>
      <trkpt lat="46.36927" lon="6.78924">
        <ele>949</ele>
        <time>2013-08-23T15:18:08Z</time>
      </trkpt>
      <trkpt lat="46.3692" lon="6.78962">
        <ele>950.9</ele>
        <time>2013-08-23T15:18:22Z</time>
      </trkpt>
      <trkpt lat="46.369" lon="6.78994">
        <ele>951.4</ele>
        <time>2013-08-23T15:18:34Z</time>
      </trkpt>
      <trkpt lat="46.36869" lon="6.78978">
        <ele>953.3</ele>
        <time>2013-08-23T15:18:47Z</time>
      </trkpt>
      <trkpt lat="46.3684" lon="6.78945">
        <ele>955.2</ele>
        <time>2013-08-23T15:19:03Z</time>
      </trkpt>
      <trkpt lat="46.36829" lon="6.78913">
        <ele>957.6</ele>
        <time>2013-08-23T15:19:16Z</time>
      </trkpt>
      <trkpt lat="46.36839" lon="6.78882">
        <ele>960.5</ele>
        <time>2013-08-23T15:19:29Z</time>
      </trkpt>
      <trkpt lat="46.36841" lon="6.78883">
        <ele>960.5</ele>
        <time>2013-08-23T15:19:30Z</time>
      </trkpt>
      <trkpt lat="46.36844" lon="6.78884">
        <ele>961.5</ele>
        <time>2013-08-23T15:19:31Z</time>
      </trkpt>
      <trkpt lat="46.36877" lon="6.78911">
        <ele>963.4</ele>
        <time>2013-08-23T15:19:47Z</time>
      </trkpt>
      <trkpt lat="46.36907" lon="6.78902">
        <ele>963.9</ele>
        <time>2013-08-23T15:19:58Z</time>
      </trkpt>
      <trkpt lat="46.36929" lon="6.78862">
        <ele>965.3</ele>
        <time>2013-08-23T15:20:10Z</time>
      </trkpt>
      <trkpt lat="46.36934" lon="6.78808">
        <ele>968.2</ele>
        <time>2013-08-23T15:20:25Z</time>
      </trkpt>
      <trkpt lat="46.36913" lon="6.78815">
        <ele>970.1</ele>
        <time>2013-08-23T15:20:36Z</time>
      </trkpt>
      <trkpt lat="46.36883" lon="6.78825">
        <ele>972.5</ele>
        <time>2013-08-23T15:20:51Z</time>
      </trkpt>
      <trkpt lat="46.36877" lon="6.78821">
        <ele>973</ele>
        <time>2013-08-23T15:21:01Z</time>
      </trkpt>
      <trkpt lat="46.36874" lon="6.78823">
        <ele>973</ele>
        <time>2013-08-23T15:21:14Z</time>
      </trkpt>
      <trkpt lat="46.36875" lon="6.78824">
        <ele>973</ele>
        <time>2013-08-23T15:21:47Z</time>
      </trkpt>
      <trkpt lat="46.36875" lon="6.78826">
        <ele>973</ele>
        <time>2013-08-23T15:22:14Z</time>
      </trkpt>
      <trkpt lat="46.36876" lon="6.78826">
        <ele>973.5</ele>
        <time>2013-08-23T15:22:43Z</time>
      </trkpt>
      <trkpt lat="46.36875" lon="6.78824">
        <ele>974.4</ele>
        <time>2013-08-23T15:23:25Z</time>
      </trkpt>
      <trkpt lat="46.36874" lon="6.78825">
        <ele>974.9</ele>
        <time>2013-08-23T15:24:01Z</time>
      </trkpt>
      <trkpt lat="46.36874" lon="6.78825">
        <ele>974.4</ele>
        <time>2013-08-23T15:24:32Z</time>
      </trkpt>
      <trkpt lat="46.36872" lon="6.78824">
        <ele>975.4</ele>
        <time>2013-08-23T15:25:00Z</time>
      </trkpt>
      <trkpt lat="46.36877" lon="6.78825">
        <ele>975.9</ele>
        <time>2013-08-23T15:25:36Z</time>
      </trkpt>
      <trkpt lat="46.36878" lon="6.78825">
        <ele>975.9</ele>
        <time>2013-08-23T15:26:08Z</time>
      </trkpt>
      <trkpt lat="46.36876" lon="6.78825">
        <ele>975.9</ele>
        <time>2013-08-23T15:26:13Z</time>
      </trkpt>
      <trkpt lat="46.36849" lon="6.78817">
        <ele>977.3</ele>
        <time>2013-08-23T15:26:26Z</time>
      </trkpt>
      <trkpt lat="46.36807" lon="6.78787">
        <ele>978.8</ele>
        <time>2013-08-23T15:26:44Z</time>
      </trkpt>
      <trkpt lat="46.36784" lon="6.78755">
        <ele>980.2</ele>
        <time>2013-08-23T15:26:57Z</time>
      </trkpt>
      <trkpt lat="46.36778" lon="6.78732">
        <ele>983.6</ele>
        <time>2013-08-23T15:27:09Z</time>
      </trkpt>
      <trkpt lat="46.36766" lon="6.7869">
        <ele>986.5</ele>
        <time>2013-08-23T15:27:27Z</time>
      </trkpt>
      <trkpt lat="46.3676" lon="6.78661">
        <ele>989.3</ele>
        <time>2013-08-23T15:27:41Z</time>
      </trkpt>
      <trkpt lat="46.36753" lon="6.78634">
        <ele>992.7</ele>
        <time>2013-08-23T15:27:56Z</time>
      </trkpt>
      <trkpt lat="46.36749" lon="6.78602">
        <ele>995.1</ele>
        <time>2013-08-23T15:28:10Z</time>
      </trkpt>
      <trkpt lat="46.36752" lon="6.78573">
        <ele>997</ele>
        <time>2013-08-23T15:28:22Z</time>
      </trkpt>
      <trkpt lat="46.36752" lon="6.7857">
        <ele>997.5</ele>
        <time>2013-08-23T15:28:23Z</time>
      </trkpt>
      <trkpt lat="46.36752" lon="6.78567">
        <ele>997.5</ele>
        <time>2013-08-23T15:28:24Z</time>
      </trkpt>
      <trkpt lat="46.36752" lon="6.78565">
        <ele>998</ele>
        <time>2013-08-23T15:28:25Z</time>
      </trkpt>
      <trkpt lat="46.36752" lon="6.78562">
        <ele>997.5</ele>
        <time>2013-08-23T15:28:26Z</time>
      </trkpt>
      <trkpt lat="46.36752" lon="6.78559">
        <ele>998.5</ele>
        <time>2013-08-23T15:28:27Z</time>
      </trkpt>
      <trkpt lat="46.36752" lon="6.78517">
        <ele>1001.4</ele>
        <time>2013-08-23T15:28:42Z</time>
      </trkpt>
      <trkpt lat="46.36752" lon="6.78515">
        <ele>1001.4</ele>
        <time>2013-08-23T15:28:43Z</time>
      </trkpt>
      <trkpt lat="46.36745" lon="6.78481">
        <ele>1004.2</ele>
        <time>2013-08-23T15:28:57Z</time>
      </trkpt>
      <trkpt lat="46.3673" lon="6.78448">
        <ele>1007.1</ele>
        <time>2013-08-23T15:29:13Z</time>
      </trkpt>
      <trkpt lat="46.36725" lon="6.78432">
        <ele>1009</ele>
        <time>2013-08-23T15:29:20Z</time>
      </trkpt>
      <trkpt lat="46.36724" lon="6.7843">
        <ele>1009</ele>
        <time>2013-08-23T15:29:21Z</time>
      </trkpt>
      <trkpt lat="46.36724" lon="6.78427">
        <ele>1009.5</ele>
        <time>2013-08-23T15:29:22Z</time>
      </trkpt>
      <trkpt lat="46.36723" lon="6.78425">
        <ele>1009.5</ele>
        <time>2013-08-23T15:29:23Z</time>
      </trkpt>
      <trkpt lat="46.36723" lon="6.78422">
        <ele>1010</ele>
        <time>2013-08-23T15:29:24Z</time>
      </trkpt>
      <trkpt lat="46.36723" lon="6.7842">
        <ele>1010</ele>
        <time>2013-08-23T15:29:25Z</time>
      </trkpt>
      <trkpt lat="46.36724" lon="6.78418">
        <ele>1010.5</ele>
        <time>2013-08-23T15:29:26Z</time>
      </trkpt>
      <trkpt lat="46.36725" lon="6.78416">
        <ele>1010.5</ele>
        <time>2013-08-23T15:29:27Z</time>
      </trkpt>
      <trkpt lat="46.36726" lon="6.78415">
        <ele>1010</ele>
        <time>2013-08-23T15:29:28Z</time>
      </trkpt>
      <trkpt lat="46.36728" lon="6.78415">
        <ele>1011</ele>
        <time>2013-08-23T15:29:29Z</time>
      </trkpt>
      <trkpt lat="46.3673" lon="6.78415">
        <ele>1011</ele>
        <time>2013-08-23T15:29:30Z</time>
      </trkpt>
      <trkpt lat="46.36731" lon="6.78416">
        <ele>1011</ele>
        <time>2013-08-23T15:29:31Z</time>
      </trkpt>
      <trkpt lat="46.36732" lon="6.78418">
        <ele>1011.4</ele>
        <time>2013-08-23T15:29:32Z</time>
      </trkpt>
      <trkpt lat="46.36751" lon="6.78442">
        <ele>1012.4</ele>
        <time>2013-08-23T15:29:45Z</time>
      </trkpt>
      <trkpt lat="46.36767" lon="6.78469">
        <ele>1015.3</ele>
        <time>2013-08-23T15:29:58Z</time>
      </trkpt>
      <trkpt lat="46.36778" lon="6.785">
        <ele>1017.7</ele>
        <time>2013-08-23T15:30:10Z</time>
      </trkpt>
      <trkpt lat="46.36781" lon="6.78504">
        <ele>1017.7</ele>
        <time>2013-08-23T15:30:12Z</time>
      </trkpt>
      <trkpt lat="46.36783" lon="6.78504">
        <ele>1018.2</ele>
        <time>2013-08-23T15:30:13Z</time>
      </trkpt>
      <trkpt lat="46.36785" lon="6.78504">
        <ele>1018.2</ele>
        <time>2013-08-23T15:30:14Z</time>
      </trkpt>
      <trkpt lat="46.36787" lon="6.78502">
        <ele>1018.2</ele>
        <time>2013-08-23T15:30:15Z</time>
      </trkpt>
      <trkpt lat="46.36788" lon="6.785">
        <ele>1018.7</ele>
        <time>2013-08-23T15:30:16Z</time>
      </trkpt>
      <trkpt lat="46.36789" lon="6.78499">
        <ele>1018.7</ele>
        <time>2013-08-23T15:30:17Z</time>
      </trkpt>
      <trkpt lat="46.3679" lon="6.78496">
        <ele>1018.7</ele>
        <time>2013-08-23T15:30:18Z</time>
      </trkpt>
      <trkpt lat="46.3679" lon="6.78493">
        <ele>1018.7</ele>
        <time>2013-08-23T15:30:19Z</time>
      </trkpt>
      <trkpt lat="46.36789" lon="6.78491">
        <ele>1019.1</ele>
        <time>2013-08-23T15:30:20Z</time>
      </trkpt>
      <trkpt lat="46.36789" lon="6.78488">
        <ele>1019.1</ele>
        <time>2013-08-23T15:30:21Z</time>
      </trkpt>
      <trkpt lat="46.36775" lon="6.78453">
        <ele>1022</ele>
        <time>2013-08-23T15:30:35Z</time>
      </trkpt>
      <trkpt lat="46.36762" lon="6.78414">
        <ele>1025.4</ele>
        <time>2013-08-23T15:30:52Z</time>
      </trkpt>
      <trkpt lat="46.36753" lon="6.78378">
        <ele>1027.8</ele>
        <time>2013-08-23T15:31:06Z</time>
      </trkpt>
      <trkpt lat="46.36738" lon="6.78346">
        <ele>1030.2</ele>
        <time>2013-08-23T15:31:21Z</time>
      </trkpt>
      <trkpt lat="46.36723" lon="6.78316">
        <ele>1032.6</ele>
        <time>2013-08-23T15:31:34Z</time>
      </trkpt>
      <trkpt lat="46.36717" lon="6.78281">
        <ele>1035</ele>
        <time>2013-08-23T15:31:47Z</time>
      </trkpt>
      <trkpt lat="46.36713" lon="6.7827">
        <ele>1036</ele>
        <time>2013-08-23T15:31:51Z</time>
      </trkpt>
      <trkpt lat="46.36712" lon="6.78268">
        <ele>1036</ele>
        <time>2013-08-23T15:31:52Z</time>
      </trkpt>
      <trkpt lat="46.36712" lon="6.78264">
        <ele>1036</ele>
        <time>2013-08-23T15:31:53Z</time>
      </trkpt>
      <trkpt lat="46.36704" lon="6.78232">
        <ele>1037.9</ele>
        <time>2013-08-23T15:32:04Z</time>
      </trkpt>
      <trkpt lat="46.36694" lon="6.78194">
        <ele>1041.3</ele>
        <time>2013-08-23T15:32:18Z</time>
      </trkpt>
      <trkpt lat="46.3669" lon="6.78147">
        <ele>1044.1</ele>
        <time>2013-08-23T15:32:35Z</time>
      </trkpt>
      <trkpt lat="46.36691" lon="6.78116">
        <ele>1046.1</ele>
        <time>2013-08-23T15:32:47Z</time>
      </trkpt>
      <trkpt lat="46.36687" lon="6.78087">
        <ele>1048.5</ele>
        <time>2013-08-23T15:32:58Z</time>
      </trkpt>
      <trkpt lat="46.36686" lon="6.78085">
        <ele>1048.5</ele>
        <time>2013-08-23T15:32:59Z</time>
      </trkpt>
      <trkpt lat="46.36684" lon="6.78076">
        <ele>1049.4</ele>
        <time>2013-08-23T15:33:12Z</time>
      </trkpt>
      <trkpt lat="46.36681" lon="6.78069">
        <ele>1049.9</ele>
        <time>2013-08-23T15:33:20Z</time>
      </trkpt>
      <trkpt lat="46.3667" lon="6.78045">
        <ele>1053.3</ele>
        <time>2013-08-23T15:33:33Z</time>
      </trkpt>
      <trkpt lat="46.36657" lon="6.78008">
        <ele>1055.7</ele>
        <time>2013-08-23T15:33:50Z</time>
      </trkpt>
      <trkpt lat="46.36646" lon="6.77981">
        <ele>1058.6</ele>
        <time>2013-08-23T15:34:04Z</time>
      </trkpt>
      <trkpt lat="46.36632" lon="6.7795">
        <ele>1061.4</ele>
        <time>2013-08-23T15:34:20Z</time>
      </trkpt>
      <trkpt lat="46.36619" lon="6.7793">
        <ele>1063.4</ele>
        <time>2013-08-23T15:34:33Z</time>
      </trkpt>
      <trkpt lat="46.36606" lon="6.77913">
        <ele>1065.3</ele>
        <time>2013-08-23T15:34:45Z</time>
      </trkpt>
      <trkpt lat="46.36605" lon="6.77911">
        <ele>1065.8</ele>
        <time>2013-08-23T15:34:46Z</time>
      </trkpt>
      <trkpt lat="46.36604" lon="6.77911">
        <ele>1065.8</ele>
        <time>2013-08-23T15:34:47Z</time>
      </trkpt>
      <trkpt lat="46.36602" lon="6.7791">
        <ele>1065.8</ele>
        <time>2013-08-23T15:34:48Z</time>
      </trkpt>
      <trkpt lat="46.36601" lon="6.77909">
        <ele>1065.8</ele>
        <time>2013-08-23T15:34:49Z</time>
      </trkpt>
      <trkpt lat="46.36598" lon="6.77905">
        <ele>1066.7</ele>
        <time>2013-08-23T15:34:52Z</time>
      </trkpt>
      <trkpt lat="46.36597" lon="6.77904">
        <ele>1066.7</ele>
        <time>2013-08-23T15:34:53Z</time>
      </trkpt>
      <trkpt lat="46.36596" lon="6.77903">
        <ele>1067.2</ele>
        <time>2013-08-23T15:34:54Z</time>
      </trkpt>
      <trkpt lat="46.36595" lon="6.77903">
        <ele>1066.7</ele>
        <time>2013-08-23T15:34:55Z</time>
      </trkpt>
      <trkpt lat="46.36593" lon="6.77902">
        <ele>1066.7</ele>
        <time>2013-08-23T15:34:56Z</time>
      </trkpt>
      <trkpt lat="46.36592" lon="6.77902">
        <ele>1067.2</ele>
        <time>2013-08-23T15:34:57Z</time>
      </trkpt>
      <trkpt lat="46.36591" lon="6.77901">
        <ele>1067.2</ele>
        <time>2013-08-23T15:34:58Z</time>
      </trkpt>
      <trkpt lat="46.3659" lon="6.77901">
        <ele>1067.2</ele>
        <time>2013-08-23T15:34:59Z</time>
      </trkpt>
      <trkpt lat="46.36588" lon="6.779">
        <ele>1067.7</ele>
        <time>2013-08-23T15:35:00Z</time>
      </trkpt>
      <trkpt lat="46.36587" lon="6.77899">
        <ele>1067.7</ele>
        <time>2013-08-23T15:35:01Z</time>
      </trkpt>
      <trkpt lat="46.36586" lon="6.77899">
        <ele>1068.2</ele>
        <time>2013-08-23T15:35:02Z</time>
      </trkpt>
      <trkpt lat="46.36566" lon="6.77896">
        <ele>1070.6</ele>
        <time>2013-08-23T15:35:15Z</time>
      </trkpt>
      <trkpt lat="46.36565" lon="6.77895">
        <ele>1071.1</ele>
        <time>2013-08-23T15:35:16Z</time>
      </trkpt>
      <trkpt lat="46.3656" lon="6.77886">
        <ele>1072</ele>
        <time>2013-08-23T15:35:21Z</time>
      </trkpt>
      <trkpt lat="46.36559" lon="6.77884">
        <ele>1072</ele>
        <time>2013-08-23T15:35:22Z</time>
      </trkpt>
      <trkpt lat="46.36558" lon="6.77882">
        <ele>1072</ele>
        <time>2013-08-23T15:35:23Z</time>
      </trkpt>
      <trkpt lat="46.36559" lon="6.77869">
        <ele>1073</ele>
        <time>2013-08-23T15:35:28Z</time>
      </trkpt>
      <trkpt lat="46.3656" lon="6.77867">
        <ele>1073.5</ele>
        <time>2013-08-23T15:35:29Z</time>
      </trkpt>
      <trkpt lat="46.36561" lon="6.77866">
        <ele>1073.5</ele>
        <time>2013-08-23T15:35:30Z</time>
      </trkpt>
      <trkpt lat="46.36572" lon="6.77848">
        <ele>1074.9</ele>
        <time>2013-08-23T15:35:40Z</time>
      </trkpt>
      <trkpt lat="46.36573" lon="6.77847">
        <ele>1075.9</ele>
        <time>2013-08-23T15:35:41Z</time>
      </trkpt>
      <trkpt lat="46.36574" lon="6.77845">
        <ele>1075.9</ele>
        <time>2013-08-23T15:35:42Z</time>
      </trkpt>
      <trkpt lat="46.36602" lon="6.77827">
        <ele>1079.2</ele>
        <time>2013-08-23T15:35:58Z</time>
      </trkpt>
      <trkpt lat="46.3663" lon="6.7785">
        <ele>1081.1</ele>
        <time>2013-08-23T15:36:14Z</time>
      </trkpt>
      <trkpt lat="46.36649" lon="6.7787">
        <ele>1084.5</ele>
        <time>2013-08-23T15:36:29Z</time>
      </trkpt>
      <trkpt lat="46.36656" lon="6.77874">
        <ele>1085</ele>
        <time>2013-08-23T15:36:33Z</time>
      </trkpt>
      <trkpt lat="46.36658" lon="6.77874">
        <ele>1085.5</ele>
        <time>2013-08-23T15:36:34Z</time>
      </trkpt>
      <trkpt lat="46.36659" lon="6.77873">
        <ele>1086</ele>
        <time>2013-08-23T15:36:35Z</time>
      </trkpt>
      <trkpt lat="46.36661" lon="6.77872">
        <ele>1086</ele>
        <time>2013-08-23T15:36:36Z</time>
      </trkpt>
      <trkpt lat="46.36662" lon="6.7787">
        <ele>1086</ele>
        <time>2013-08-23T15:36:37Z</time>
      </trkpt>
      <trkpt lat="46.36663" lon="6.77868">
        <ele>1086</ele>
        <time>2013-08-23T15:36:38Z</time>
      </trkpt>
      <trkpt lat="46.36664" lon="6.77866">
        <ele>1086.4</ele>
        <time>2013-08-23T15:36:39Z</time>
      </trkpt>
      <trkpt lat="46.36664" lon="6.77864">
        <ele>1086.9</ele>
        <time>2013-08-23T15:36:40Z</time>
      </trkpt>
      <trkpt lat="46.36664" lon="6.77862">
        <ele>1086.4</ele>
        <time>2013-08-23T15:36:41Z</time>
      </trkpt>
      <trkpt lat="46.36664" lon="6.77859">
        <ele>1086.9</ele>
        <time>2013-08-23T15:36:42Z</time>
      </trkpt>
      <trkpt lat="46.36655" lon="6.77821">
        <ele>1089.8</ele>
        <time>2013-08-23T15:36:57Z</time>
      </trkpt>
      <trkpt lat="46.36653" lon="6.77784">
        <ele>1093.2</ele>
        <time>2013-08-23T15:37:12Z</time>
      </trkpt>
      <trkpt lat="46.36645" lon="6.7775">
        <ele>1096.5</ele>
        <time>2013-08-23T15:37:29Z</time>
      </trkpt>
      <trkpt lat="46.36632" lon="6.77718">
        <ele>1099.9</ele>
        <time>2013-08-23T15:37:44Z</time>
      </trkpt>
      <trkpt lat="46.36613" lon="6.77693">
        <ele>1102.3</ele>
        <time>2013-08-23T15:38:00Z</time>
      </trkpt>
      <trkpt lat="46.36597" lon="6.77668">
        <ele>1104.2</ele>
        <time>2013-08-23T15:38:15Z</time>
      </trkpt>
      <trkpt lat="46.36592" lon="6.77661">
        <ele>1104.7</ele>
        <time>2013-08-23T15:38:19Z</time>
      </trkpt>
      <trkpt lat="46.36592" lon="6.77659">
        <ele>1105.2</ele>
        <time>2013-08-23T15:38:20Z</time>
      </trkpt>
      <trkpt lat="46.36576" lon="6.77631">
        <ele>1108.1</ele>
        <time>2013-08-23T15:38:35Z</time>
      </trkpt>
      <trkpt lat="46.36551" lon="6.77606">
        <ele>1110.5</ele>
        <time>2013-08-23T15:38:51Z</time>
      </trkpt>
      <trkpt lat="46.36517" lon="6.77581">
        <ele>1112.9</ele>
        <time>2013-08-23T15:39:10Z</time>
      </trkpt>
      <trkpt lat="46.36487" lon="6.77554">
        <ele>1116.2</ele>
        <time>2013-08-23T15:39:27Z</time>
      </trkpt>
      <trkpt lat="46.36466" lon="6.77528">
        <ele>1118.2</ele>
        <time>2013-08-23T15:39:41Z</time>
      </trkpt>
      <trkpt lat="46.3645" lon="6.77506">
        <ele>1120.6</ele>
        <time>2013-08-23T15:39:54Z</time>
      </trkpt>
      <trkpt lat="46.3645" lon="6.77476">
        <ele>1123</ele>
        <time>2013-08-23T15:40:08Z</time>
      </trkpt>
      <trkpt lat="46.36458" lon="6.77473">
        <ele>1123.9</ele>
        <time>2013-08-23T15:40:12Z</time>
      </trkpt>
      <trkpt lat="46.36493" lon="6.77491">
        <ele>1126.3</ele>
        <time>2013-08-23T15:40:30Z</time>
      </trkpt>
      <trkpt lat="46.3653" lon="6.77498">
        <ele>1129.2</ele>
        <time>2013-08-23T15:40:49Z</time>
      </trkpt>
      <trkpt lat="46.36538" lon="6.77482">
        <ele>1129.7</ele>
        <time>2013-08-23T15:40:57Z</time>
      </trkpt>
      <trkpt lat="46.36538" lon="6.7748">
        <ele>1130.7</ele>
        <time>2013-08-23T15:40:58Z</time>
      </trkpt>
      <trkpt lat="46.36537" lon="6.77477">
        <ele>1130.7</ele>
        <time>2013-08-23T15:40:59Z</time>
      </trkpt>
      <trkpt lat="46.36537" lon="6.77475">
        <ele>1131.1</ele>
        <time>2013-08-23T15:41:00Z</time>
      </trkpt>
      <trkpt lat="46.36536" lon="6.77472">
        <ele>1131.1</ele>
        <time>2013-08-23T15:41:01Z</time>
      </trkpt>
      <trkpt lat="46.36535" lon="6.7747">
        <ele>1131.1</ele>
        <time>2013-08-23T15:41:02Z</time>
      </trkpt>
      <trkpt lat="46.36516" lon="6.77445">
        <ele>1134.5</ele>
        <time>2013-08-23T15:41:17Z</time>
      </trkpt>
      <trkpt lat="46.36494" lon="6.77411">
        <ele>1137.4</ele>
        <time>2013-08-23T15:41:35Z</time>
      </trkpt>
      <trkpt lat="46.36468" lon="6.77384">
        <ele>1139.8</ele>
        <time>2013-08-23T15:41:51Z</time>
      </trkpt>
      <trkpt lat="46.36444" lon="6.7737">
        <ele>1142.2</ele>
        <time>2013-08-23T15:42:06Z</time>
      </trkpt>
      <trkpt lat="46.36415" lon="6.77355">
        <ele>1145.6</ele>
        <time>2013-08-23T15:42:22Z</time>
      </trkpt>
      <trkpt lat="46.36394" lon="6.77335">
        <ele>1148</ele>
        <time>2013-08-23T15:42:36Z</time>
      </trkpt>
      <trkpt lat="46.36381" lon="6.77294">
        <ele>1150.8</ele>
        <time>2013-08-23T15:42:53Z</time>
      </trkpt>
      <trkpt lat="46.36366" lon="6.77257">
        <ele>1153.7</ele>
        <time>2013-08-23T15:43:09Z</time>
      </trkpt>
      <trkpt lat="46.36343" lon="6.77226">
        <ele>1156.6</ele>
        <time>2013-08-23T15:43:25Z</time>
      </trkpt>
      <trkpt lat="46.36319" lon="6.7721">
        <ele>1158.5</ele>
        <time>2013-08-23T15:43:40Z</time>
      </trkpt>
      <trkpt lat="46.36299" lon="6.7718">
        <ele>1161.4</ele>
        <time>2013-08-23T15:43:56Z</time>
      </trkpt>
      <trkpt lat="46.36302" lon="6.77164">
        <ele>1163.3</ele>
        <time>2013-08-23T15:44:04Z</time>
      </trkpt>
      <trkpt lat="46.36306" lon="6.77158">
        <ele>1164.3</ele>
        <time>2013-08-23T15:44:09Z</time>
      </trkpt>
      <trkpt lat="46.36308" lon="6.77157">
        <ele>1164.3</ele>
        <time>2013-08-23T15:44:10Z</time>
      </trkpt>
      <trkpt lat="46.3631" lon="6.77158">
        <ele>1164.8</ele>
        <time>2013-08-23T15:44:12Z</time>
      </trkpt>
      <trkpt lat="46.36312" lon="6.77159">
        <ele>1164.8</ele>
        <time>2013-08-23T15:44:13Z</time>
      </trkpt>
      <trkpt lat="46.36313" lon="6.7716">
        <ele>1164.8</ele>
        <time>2013-08-23T15:44:14Z</time>
      </trkpt>
      <trkpt lat="46.36323" lon="6.77162">
        <ele>1165.7</ele>
        <time>2013-08-23T15:44:21Z</time>
      </trkpt>
      <trkpt lat="46.36351" lon="6.77166">
        <ele>1168.6</ele>
        <time>2013-08-23T15:44:36Z</time>
      </trkpt>
      <trkpt lat="46.36386" lon="6.77168">
        <ele>1171</ele>
        <time>2013-08-23T15:44:54Z</time>
      </trkpt>
      <trkpt lat="46.36422" lon="6.77181">
        <ele>1174.4</ele>
        <time>2013-08-23T15:45:13Z</time>
      </trkpt>
      <trkpt lat="46.36444" lon="6.77196">
        <ele>1175.8</ele>
        <time>2013-08-23T15:45:26Z</time>
      </trkpt>
      <trkpt lat="46.36456" lon="6.77178">
        <ele>1178.7</ele>
        <time>2013-08-23T15:45:38Z</time>
      </trkpt>
      <trkpt lat="46.36455" lon="6.77176">
        <ele>1178.7</ele>
        <time>2013-08-23T15:45:39Z</time>
      </trkpt>
      <trkpt lat="46.36454" lon="6.77175">
        <ele>1178.7</ele>
        <time>2013-08-23T15:45:40Z</time>
      </trkpt>
      <trkpt lat="46.36453" lon="6.77174">
        <ele>1178.7</ele>
        <time>2013-08-23T15:45:41Z</time>
      </trkpt>
      <trkpt lat="46.36452" lon="6.77172">
        <ele>1178.2</ele>
        <time>2013-08-23T15:45:56Z</time>
      </trkpt>
      <trkpt lat="46.3645" lon="6.77173">
        <ele>1178.7</ele>
        <time>2013-08-23T15:46:18Z</time>
      </trkpt>
      <trkpt lat="46.36452" lon="6.77173">
        <ele>1178.7</ele>
        <time>2013-08-23T15:46:34Z</time>
      </trkpt>
      <trkpt lat="46.36455" lon="6.77177">
        <ele>1179.2</ele>
        <time>2013-08-23T15:46:57Z</time>
      </trkpt>
      <trkpt lat="46.36452" lon="6.77172">
        <ele>1179.2</ele>
        <time>2013-08-23T15:47:18Z</time>
      </trkpt>
      <trkpt lat="46.36454" lon="6.77174">
        <ele>1179.2</ele>
        <time>2013-08-23T15:47:48Z</time>
      </trkpt>
      <trkpt lat="46.36453" lon="6.77176">
        <ele>1179.7</ele>
        <time>2013-08-23T15:48:05Z</time>
      </trkpt>
      <trkpt lat="46.36451" lon="6.77176">
        <ele>1179.2</ele>
        <time>2013-08-23T15:48:09Z</time>
      </trkpt>
      <trkpt lat="46.3645" lon="6.77176">
        <ele>1179.2</ele>
        <time>2013-08-23T15:48:10Z</time>
      </trkpt>
      <trkpt lat="46.36449" lon="6.77174">
        <ele>1179.2</ele>
        <time>2013-08-23T15:48:11Z</time>
      </trkpt>
      <trkpt lat="46.3643" lon="6.77157">
        <ele>1182.1</ele>
        <time>2013-08-23T15:48:25Z</time>
      </trkpt>
      <trkpt lat="46.36414" lon="6.77129">
        <ele>1184</ele>
        <time>2013-08-23T15:48:40Z</time>
      </trkpt>
      <trkpt lat="46.36399" lon="6.77103">
        <ele>1187.4</ele>
        <time>2013-08-23T15:48:54Z</time>
      </trkpt>
      <trkpt lat="46.36375" lon="6.7709">
        <ele>1189.3</ele>
        <time>2013-08-23T15:49:09Z</time>
      </trkpt>
      <trkpt lat="46.3635" lon="6.77084">
        <ele>1191.7</ele>
        <time>2013-08-23T15:49:24Z</time>
      </trkpt>
      <trkpt lat="46.36333" lon="6.7706">
        <ele>1194.6</ele>
        <time>2013-08-23T15:49:38Z</time>
      </trkpt>
      <trkpt lat="46.36328" lon="6.77013">
        <ele>1196.5</ele>
        <time>2013-08-23T15:49:53Z</time>
      </trkpt>
      <trkpt lat="46.36312" lon="6.76972">
        <ele>1200.3</ele>
        <time>2013-08-23T15:50:09Z</time>
      </trkpt>
      <trkpt lat="46.36295" lon="6.76938">
        <ele>1202.8</ele>
        <time>2013-08-23T15:50:25Z</time>
      </trkpt>
      <trkpt lat="46.36282" lon="6.76899">
        <ele>1206.6</ele>
        <time>2013-08-23T15:50:42Z</time>
      </trkpt>
      <trkpt lat="46.36266" lon="6.76848">
        <ele>1209.5</ele>
        <time>2013-08-23T15:51:03Z</time>
      </trkpt>
      <trkpt lat="46.36251" lon="6.76807">
        <ele>1210.9</ele>
        <time>2013-08-23T15:51:17Z</time>
      </trkpt>
      <trkpt lat="46.36236" lon="6.76767">
        <ele>1213.3</ele>
        <time>2013-08-23T15:51:33Z</time>
      </trkpt>
      <trkpt lat="46.36236" lon="6.76758">
        <ele>1213.8</ele>
        <time>2013-08-23T15:51:36Z</time>
      </trkpt>
      <trkpt lat="46.36235" lon="6.76756">
        <ele>1214.8</ele>
        <time>2013-08-23T15:51:37Z</time>
      </trkpt>
      <trkpt lat="46.36234" lon="6.76753">
        <ele>1214.3</ele>
        <time>2013-08-23T15:51:38Z</time>
      </trkpt>
      <trkpt lat="46.36232" lon="6.76751">
        <ele>1214.8</ele>
        <time>2013-08-23T15:51:39Z</time>
      </trkpt>
      <trkpt lat="46.36231" lon="6.7675">
        <ele>1214.8</ele>
        <time>2013-08-23T15:51:40Z</time>
      </trkpt>
      <trkpt lat="46.36229" lon="6.76748">
        <ele>1215.2</ele>
        <time>2013-08-23T15:51:41Z</time>
      </trkpt>
      <trkpt lat="46.36228" lon="6.76746">
        <ele>1215.2</ele>
        <time>2013-08-23T15:51:42Z</time>
      </trkpt>
      <trkpt lat="46.36226" lon="6.76745">
        <ele>1215.2</ele>
        <time>2013-08-23T15:51:43Z</time>
      </trkpt>
      <trkpt lat="46.36225" lon="6.76743">
        <ele>1215.2</ele>
        <time>2013-08-23T15:51:44Z</time>
      </trkpt>
      <trkpt lat="46.36224" lon="6.76741">
        <ele>1215.7</ele>
        <time>2013-08-23T15:51:45Z</time>
      </trkpt>
      <trkpt lat="46.36223" lon="6.76739">
        <ele>1216.2</ele>
        <time>2013-08-23T15:51:46Z</time>
      </trkpt>
      <trkpt lat="46.36222" lon="6.76737">
        <ele>1216.2</ele>
        <time>2013-08-23T15:51:47Z</time>
      </trkpt>
      <trkpt lat="46.36221" lon="6.76735">
        <ele>1216.2</ele>
        <time>2013-08-23T15:51:48Z</time>
      </trkpt>
      <trkpt lat="46.3622" lon="6.76733">
        <ele>1217.2</ele>
        <time>2013-08-23T15:51:49Z</time>
      </trkpt>
      <trkpt lat="46.36219" lon="6.76731">
        <ele>1216.7</ele>
        <time>2013-08-23T15:51:50Z</time>
      </trkpt>
      <trkpt lat="46.36219" lon="6.7673">
        <ele>1217.7</ele>
        <time>2013-08-23T15:51:51Z</time>
      </trkpt>
      <trkpt lat="46.36219" lon="6.76727">
        <ele>1217.2</ele>
        <time>2013-08-23T15:51:52Z</time>
      </trkpt>
      <trkpt lat="46.36218" lon="6.76725">
        <ele>1218.1</ele>
        <time>2013-08-23T15:51:53Z</time>
      </trkpt>
      <trkpt lat="46.36219" lon="6.76723">
        <ele>1217.7</ele>
        <time>2013-08-23T15:51:54Z</time>
      </trkpt>
      <trkpt lat="46.36219" lon="6.76721">
        <ele>1218.6</ele>
        <time>2013-08-23T15:51:55Z</time>
      </trkpt>
      <trkpt lat="46.3622" lon="6.76717">
        <ele>1218.6</ele>
        <time>2013-08-23T15:51:57Z</time>
      </trkpt>
      <trkpt lat="46.36221" lon="6.76715">
        <ele>1219.1</ele>
        <time>2013-08-23T15:51:58Z</time>
      </trkpt>
      <trkpt lat="46.36221" lon="6.76712">
        <ele>1219.1</ele>
        <time>2013-08-23T15:51:59Z</time>
      </trkpt>
      <trkpt lat="46.36221" lon="6.7671">
        <ele>1219.1</ele>
        <time>2013-08-23T15:52:00Z</time>
      </trkpt>
      <trkpt lat="46.36221" lon="6.76708">
        <ele>1219.1</ele>
        <time>2013-08-23T15:52:01Z</time>
      </trkpt>
      <trkpt lat="46.3622" lon="6.76705">
        <ele>1220.1</ele>
        <time>2013-08-23T15:52:02Z</time>
      </trkpt>
      <trkpt lat="46.3622" lon="6.76703">
        <ele>1219.6</ele>
        <time>2013-08-23T15:52:03Z</time>
      </trkpt>
      <trkpt lat="46.3622" lon="6.76701">
        <ele>1220.1</ele>
        <time>2013-08-23T15:52:04Z</time>
      </trkpt>
      <trkpt lat="46.36208" lon="6.7667">
        <ele>1222.5</ele>
        <time>2013-08-23T15:52:17Z</time>
      </trkpt>
      <trkpt lat="46.36185" lon="6.76659">
        <ele>1225.3</ele>
        <time>2013-08-23T15:52:32Z</time>
      </trkpt>
      <trkpt lat="46.36163" lon="6.76662">
        <ele>1227.7</ele>
        <time>2013-08-23T15:52:46Z</time>
      </trkpt>
      <trkpt lat="46.36156" lon="6.76658">
        <ele>1229.7</ele>
        <time>2013-08-23T15:52:53Z</time>
      </trkpt>
      <trkpt lat="46.36146" lon="6.76638">
        <ele>1231.6</ele>
        <time>2013-08-23T15:53:05Z</time>
      </trkpt>
      <trkpt lat="46.36132" lon="6.76607">
        <ele>1235</ele>
        <time>2013-08-23T15:53:21Z</time>
      </trkpt>
      <trkpt lat="46.36129" lon="6.76594">
        <ele>1235.9</ele>
        <time>2013-08-23T15:53:28Z</time>
      </trkpt>
      <trkpt lat="46.36129" lon="6.76593">
        <ele>1235.9</ele>
        <time>2013-08-23T15:53:29Z</time>
      </trkpt>
      <trkpt lat="46.36125" lon="6.76559">
        <ele>1239.3</ele>
        <time>2013-08-23T15:53:44Z</time>
      </trkpt>
      <trkpt lat="46.36123" lon="6.76521">
        <ele>1242.2</ele>
        <time>2013-08-23T15:54:00Z</time>
      </trkpt>
      <trkpt lat="46.36121" lon="6.76495">
        <ele>1244.1</ele>
        <time>2013-08-23T15:54:13Z</time>
      </trkpt>
      <trkpt lat="46.3612" lon="6.76476">
        <ele>1246</ele>
        <time>2013-08-23T15:54:22Z</time>
      </trkpt>
      <trkpt lat="46.36123" lon="6.76437">
        <ele>1248.4</ele>
        <time>2013-08-23T15:54:39Z</time>
      </trkpt>
      <trkpt lat="46.3613" lon="6.76418">
        <ele>1249.4</ele>
        <time>2013-08-23T15:54:48Z</time>
      </trkpt>
      <trkpt lat="46.36146" lon="6.76401">
        <ele>1252.7</ele>
        <time>2013-08-23T15:55:02Z</time>
      </trkpt>
      <trkpt lat="46.36147" lon="6.764">
        <ele>1252.7</ele>
        <time>2013-08-23T15:55:03Z</time>
      </trkpt>
      <trkpt lat="46.36147" lon="6.76398">
        <ele>1252.7</ele>
        <time>2013-08-23T15:55:04Z</time>
      </trkpt>
      <trkpt lat="46.36148" lon="6.76396">
        <ele>1253.2</ele>
        <time>2013-08-23T15:55:05Z</time>
      </trkpt>
      <trkpt lat="46.36156" lon="6.76392">
        <ele>1254.2</ele>
        <time>2013-08-23T15:55:12Z</time>
      </trkpt>
      <trkpt lat="46.3616" lon="6.76395">
        <ele>1255.1</ele>
        <time>2013-08-23T15:55:14Z</time>
      </trkpt>
      <trkpt lat="46.36161" lon="6.76397">
        <ele>1255.1</ele>
        <time>2013-08-23T15:55:15Z</time>
      </trkpt>
      <trkpt lat="46.36162" lon="6.76398">
        <ele>1255.6</ele>
        <time>2013-08-23T15:55:16Z</time>
      </trkpt>
      <trkpt lat="46.36164" lon="6.764">
        <ele>1255.6</ele>
        <time>2013-08-23T15:55:17Z</time>
      </trkpt>
      <trkpt lat="46.36165" lon="6.76402">
        <ele>1255.6</ele>
        <time>2013-08-23T15:55:18Z</time>
      </trkpt>
      <trkpt lat="46.36166" lon="6.76403">
        <ele>1256.6</ele>
        <time>2013-08-23T15:55:19Z</time>
      </trkpt>
      <trkpt lat="46.36177" lon="6.76435">
        <ele>1258.5</ele>
        <time>2013-08-23T15:55:35Z</time>
      </trkpt>
      <trkpt lat="46.36185" lon="6.76459">
        <ele>1260.4</ele>
        <time>2013-08-23T15:55:49Z</time>
      </trkpt>
      <trkpt lat="46.36189" lon="6.76463">
        <ele>1261.4</ele>
        <time>2013-08-23T15:55:52Z</time>
      </trkpt>
      <trkpt lat="46.3619" lon="6.76464">
        <ele>1260.9</ele>
        <time>2013-08-23T15:55:53Z</time>
      </trkpt>
      <trkpt lat="46.36192" lon="6.76464">
        <ele>1261.4</ele>
        <time>2013-08-23T15:55:54Z</time>
      </trkpt>
      <trkpt lat="46.36193" lon="6.76465">
        <ele>1261.4</ele>
        <time>2013-08-23T15:55:55Z</time>
      </trkpt>
      <trkpt lat="46.36194" lon="6.76467">
        <ele>1261.4</ele>
        <time>2013-08-23T15:55:56Z</time>
      </trkpt>
      <trkpt lat="46.36195" lon="6.76468">
        <ele>1261.9</ele>
        <time>2013-08-23T15:55:57Z</time>
      </trkpt>
      <trkpt lat="46.36201" lon="6.76477">
        <ele>1262.8</ele>
        <time>2013-08-23T15:56:03Z</time>
      </trkpt>
      <trkpt lat="46.36202" lon="6.76478">
        <ele>1262.8</ele>
        <time>2013-08-23T15:56:04Z</time>
      </trkpt>
      <trkpt lat="46.36203" lon="6.76481">
        <ele>1262.8</ele>
        <time>2013-08-23T15:56:05Z</time>
      </trkpt>
      <trkpt lat="46.36204" lon="6.76483">
        <ele>1263.3</ele>
        <time>2013-08-23T15:56:06Z</time>
      </trkpt>
      <trkpt lat="46.36205" lon="6.76486">
        <ele>1263.3</ele>
        <time>2013-08-23T15:56:07Z</time>
      </trkpt>
      <trkpt lat="46.36207" lon="6.76491">
        <ele>1263.8</ele>
        <time>2013-08-23T15:56:09Z</time>
      </trkpt>
      <trkpt lat="46.36208" lon="6.76493">
        <ele>1264.3</ele>
        <time>2013-08-23T15:56:10Z</time>
      </trkpt>
      <trkpt lat="46.36209" lon="6.76496">
        <ele>1264.3</ele>
        <time>2013-08-23T15:56:11Z</time>
      </trkpt>
      <trkpt lat="46.36209" lon="6.76498">
        <ele>1264.3</ele>
        <time>2013-08-23T15:56:12Z</time>
      </trkpt>
      <trkpt lat="46.3621" lon="6.76499">
        <ele>1264.8</ele>
        <time>2013-08-23T15:56:13Z</time>
      </trkpt>
      <trkpt lat="46.36211" lon="6.76501">
        <ele>1264.3</ele>
        <time>2013-08-23T15:56:14Z</time>
      </trkpt>
      <trkpt lat="46.36212" lon="6.76503">
        <ele>1264.3</ele>
        <time>2013-08-23T15:56:15Z</time>
      </trkpt>
      <trkpt lat="46.36212" lon="6.76505">
        <ele>1265.2</ele>
        <time>2013-08-23T15:56:16Z</time>
      </trkpt>
      <trkpt lat="46.36225" lon="6.7653">
        <ele>1267.6</ele>
        <time>2013-08-23T15:56:30Z</time>
      </trkpt>
      <trkpt lat="46.36238" lon="6.76546">
        <ele>1269.1</ele>
        <time>2013-08-23T15:56:42Z</time>
      </trkpt>
      <trkpt lat="46.36246" lon="6.76555">
        <ele>1270</ele>
        <time>2013-08-23T15:56:50Z</time>
      </trkpt>
      <trkpt lat="46.36265" lon="6.76557">
        <ele>1272.4</ele>
        <time>2013-08-23T15:57:04Z</time>
      </trkpt>
      <trkpt lat="46.36279" lon="6.76555">
        <ele>1275.8</ele>
        <time>2013-08-23T15:57:17Z</time>
      </trkpt>
      <trkpt lat="46.36296" lon="6.76553">
        <ele>1277.3</ele>
        <time>2013-08-23T15:57:30Z</time>
      </trkpt>
      <trkpt lat="46.36308" lon="6.76539">
        <ele>1280.1</ele>
        <time>2013-08-23T15:57:43Z</time>
      </trkpt>
      <trkpt lat="46.36309" lon="6.76538">
        <ele>1279.7</ele>
        <time>2013-08-23T15:57:44Z</time>
      </trkpt>
      <trkpt lat="46.3631" lon="6.76536">
        <ele>1280.6</ele>
        <time>2013-08-23T15:57:45Z</time>
      </trkpt>
      <trkpt lat="46.36311" lon="6.76535">
        <ele>1280.6</ele>
        <time>2013-08-23T15:57:46Z</time>
      </trkpt>
      <trkpt lat="46.36312" lon="6.76534">
        <ele>1280.6</ele>
        <time>2013-08-23T15:57:47Z</time>
      </trkpt>
      <trkpt lat="46.36313" lon="6.76533">
        <ele>1281.1</ele>
        <time>2013-08-23T15:57:48Z</time>
      </trkpt>
      <trkpt lat="46.36315" lon="6.76533">
        <ele>1281.6</ele>
        <time>2013-08-23T15:57:49Z</time>
      </trkpt>
      <trkpt lat="46.36316" lon="6.76532">
        <ele>1280.6</ele>
        <time>2013-08-23T15:57:50Z</time>
      </trkpt>
      <trkpt lat="46.36317" lon="6.76531">
        <ele>1281.6</ele>
        <time>2013-08-23T15:57:51Z</time>
      </trkpt>
      <trkpt lat="46.36338" lon="6.76534">
        <ele>1284.5</ele>
        <time>2013-08-23T15:58:06Z</time>
      </trkpt>
      <trkpt lat="46.36354" lon="6.76548">
        <ele>1286.9</ele>
        <time>2013-08-23T15:58:18Z</time>
      </trkpt>
      <trkpt lat="46.36356" lon="6.76549">
        <ele>1286.4</ele>
        <time>2013-08-23T15:58:19Z</time>
      </trkpt>
      <trkpt lat="46.36357" lon="6.76551">
        <ele>1286.9</ele>
        <time>2013-08-23T15:58:20Z</time>
      </trkpt>
      <trkpt lat="46.36363" lon="6.76554">
        <ele>1287.8</ele>
        <time>2013-08-23T15:58:24Z</time>
      </trkpt>
      <trkpt lat="46.36387" lon="6.76563">
        <ele>1289.3</ele>
        <time>2013-08-23T15:58:40Z</time>
      </trkpt>
      <trkpt lat="46.36411" lon="6.76582">
        <ele>1292.2</ele>
        <time>2013-08-23T15:58:57Z</time>
      </trkpt>
      <trkpt lat="46.36434" lon="6.76604">
        <ele>1294.6</ele>
        <time>2013-08-23T15:59:15Z</time>
      </trkpt>
      <trkpt lat="46.36456" lon="6.76629">
        <ele>1297.4</ele>
        <time>2013-08-23T15:59:33Z</time>
      </trkpt>
      <trkpt lat="46.36475" lon="6.76655">
        <ele>1300.8</ele>
        <time>2013-08-23T15:59:51Z</time>
      </trkpt>
      <trkpt lat="46.36489" lon="6.76659">
        <ele>1302.2</ele>
        <time>2013-08-23T16:00:03Z</time>
      </trkpt>
      <trkpt lat="46.36489" lon="6.76657">
        <ele>1302.2</ele>
        <time>2013-08-23T16:00:04Z</time>
      </trkpt>
      <trkpt lat="46.36489" lon="6.76654">
        <ele>1302.2</ele>
        <time>2013-08-23T16:00:05Z</time>
      </trkpt>
      <trkpt lat="46.36489" lon="6.76652">
        <ele>1302.2</ele>
        <time>2013-08-23T16:00:06Z</time>
      </trkpt>
      <trkpt lat="46.36488" lon="6.76649">
        <ele>1302.2</ele>
        <time>2013-08-23T16:00:07Z</time>
      </trkpt>
      <trkpt lat="46.36487" lon="6.76647">
        <ele>1303.2</ele>
        <time>2013-08-23T16:00:08Z</time>
      </trkpt>
      <trkpt lat="46.36486" lon="6.76645">
        <ele>1303.2</ele>
        <time>2013-08-23T16:00:09Z</time>
      </trkpt>
      <trkpt lat="46.36476" lon="6.76628">
        <ele>1305.1</ele>
        <time>2013-08-23T16:00:19Z</time>
      </trkpt>
      <trkpt lat="46.36458" lon="6.76596">
        <ele>1308</ele>
        <time>2013-08-23T16:00:38Z</time>
      </trkpt>
      <trkpt lat="46.36443" lon="6.76567">
        <ele>1311.4</ele>
        <time>2013-08-23T16:00:56Z</time>
      </trkpt>
      <trkpt lat="46.36429" lon="6.76537">
        <ele>1314.3</ele>
        <time>2013-08-23T16:01:14Z</time>
      </trkpt>
      <trkpt lat="46.36417" lon="6.76507">
        <ele>1317.1</ele>
        <time>2013-08-23T16:01:31Z</time>
      </trkpt>
      <trkpt lat="46.36403" lon="6.76469">
        <ele>1320</ele>
        <time>2013-08-23T16:01:50Z</time>
      </trkpt>
      <trkpt lat="46.36391" lon="6.7644">
        <ele>1322.9</ele>
        <time>2013-08-23T16:02:06Z</time>
      </trkpt>
      <trkpt lat="46.36379" lon="6.76407">
        <ele>1326.3</ele>
        <time>2013-08-23T16:02:23Z</time>
      </trkpt>
      <trkpt lat="46.36369" lon="6.76378">
        <ele>1329.2</ele>
        <time>2013-08-23T16:02:39Z</time>
      </trkpt>
      <trkpt lat="46.36362" lon="6.76345">
        <ele>1332.5</ele>
        <time>2013-08-23T16:02:57Z</time>
      </trkpt>
      <trkpt lat="46.36357" lon="6.76308">
        <ele>1334.9</ele>
        <time>2013-08-23T16:03:16Z</time>
      </trkpt>
      <trkpt lat="46.36345" lon="6.76291">
        <ele>1338.3</ele>
        <time>2013-08-23T16:03:30Z</time>
      </trkpt>
      <trkpt lat="46.36335" lon="6.76275">
        <ele>1341.2</ele>
        <time>2013-08-23T16:03:42Z</time>
      </trkpt>
      <trkpt lat="46.36331" lon="6.76251">
        <ele>1344.5</ele>
        <time>2013-08-23T16:03:56Z</time>
      </trkpt>
      <trkpt lat="46.36333" lon="6.76223">
        <ele>1346.9</ele>
        <time>2013-08-23T16:04:12Z</time>
      </trkpt>
      <trkpt lat="46.36335" lon="6.76186">
        <ele>1349.8</ele>
        <time>2013-08-23T16:04:31Z</time>
      </trkpt>
      <trkpt lat="46.3633" lon="6.76157">
        <ele>1351.3</ele>
        <time>2013-08-23T16:04:48Z</time>
      </trkpt>
      <trkpt lat="46.36329" lon="6.76159">
        <ele>1351.3</ele>
        <time>2013-08-23T16:05:16Z</time>
      </trkpt>
      <trkpt lat="46.36329" lon="6.76159">
        <ele>1352.2</ele>
        <time>2013-08-23T16:05:39Z</time>
      </trkpt>
      <trkpt lat="46.36328" lon="6.76155">
        <ele>1351.3</ele>
        <time>2013-08-23T16:06:05Z</time>
      </trkpt>
      <trkpt lat="46.36328" lon="6.76157">
        <ele>1352.7</ele>
        <time>2013-08-23T16:06:26Z</time>
      </trkpt>
      <trkpt lat="46.3633" lon="6.76157">
        <ele>1351.8</ele>
        <time>2013-08-23T16:06:50Z</time>
      </trkpt>
      <trkpt lat="46.36331" lon="6.76157">
        <ele>1351.8</ele>
        <time>2013-08-23T16:07:21Z</time>
      </trkpt>
      <trkpt lat="46.3633" lon="6.76154">
        <ele>1352.2</ele>
        <time>2013-08-23T16:07:55Z</time>
      </trkpt>
      <trkpt lat="46.36331" lon="6.76161">
        <ele>1352.7</ele>
        <time>2013-08-23T16:08:31Z</time>
      </trkpt>
      <trkpt lat="46.3633" lon="6.76157">
        <ele>1353.2</ele>
        <time>2013-08-23T16:08:49Z</time>
      </trkpt>
      <trkpt lat="46.36328" lon="6.76157">
        <ele>1352.7</ele>
        <time>2013-08-23T16:08:50Z</time>
      </trkpt>
      <trkpt lat="46.36327" lon="6.76156">
        <ele>1352.2</ele>
        <time>2013-08-23T16:08:51Z</time>
      </trkpt>
      <trkpt lat="46.36305" lon="6.76137">
        <ele>1353.7</ele>
        <time>2013-08-23T16:09:06Z</time>
      </trkpt>
      <trkpt lat="46.36284" lon="6.7612">
        <ele>1355.6</ele>
        <time>2013-08-23T16:09:19Z</time>
      </trkpt>
      <trkpt lat="46.36269" lon="6.76097">
        <ele>1353.2</ele>
        <time>2013-08-23T16:09:25Z</time>
      </trkpt>
      <trkpt lat="46.36265" lon="6.76091">
        <ele>1353.2</ele>
        <time>2013-08-23T16:09:26Z</time>
      </trkpt>
      <trkpt lat="46.36262" lon="6.76085">
        <ele>1352.7</ele>
        <time>2013-08-23T16:09:27Z</time>
      </trkpt>
      <trkpt lat="46.36247" lon="6.76057">
        <ele>1349.8</ele>
        <time>2013-08-23T16:09:31Z</time>
      </trkpt>
      <trkpt lat="46.36243" lon="6.7605">
        <ele>1349.8</ele>
        <time>2013-08-23T16:09:32Z</time>
      </trkpt>
      <trkpt lat="46.36233" lon="6.76032">
        <ele>1348.9</ele>
        <time>2013-08-23T16:09:35Z</time>
      </trkpt>
      <trkpt lat="46.3623" lon="6.76027">
        <ele>1347.9</ele>
        <time>2013-08-23T16:09:36Z</time>
      </trkpt>
      <trkpt lat="46.36228" lon="6.76023">
        <ele>1346.9</ele>
        <time>2013-08-23T16:09:37Z</time>
      </trkpt>
      <trkpt lat="46.36227" lon="6.76018">
        <ele>1347.4</ele>
        <time>2013-08-23T16:09:38Z</time>
      </trkpt>
      <trkpt lat="46.36225" lon="6.76014">
        <ele>1346.9</ele>
        <time>2013-08-23T16:09:39Z</time>
      </trkpt>
      <trkpt lat="46.36224" lon="6.7601">
        <ele>1346.9</ele>
        <time>2013-08-23T16:09:40Z</time>
      </trkpt>
      <trkpt lat="46.36223" lon="6.76006">
        <ele>1346.5</ele>
        <time>2013-08-23T16:09:41Z</time>
      </trkpt>
      <trkpt lat="46.36211" lon="6.75965">
        <ele>1346.5</ele>
        <time>2013-08-23T16:09:50Z</time>
      </trkpt>
      <trkpt lat="46.362" lon="6.75939">
        <ele>1345</ele>
        <time>2013-08-23T16:09:54Z</time>
      </trkpt>
      <trkpt lat="46.36196" lon="6.75933">
        <ele>1345</ele>
        <time>2013-08-23T16:09:55Z</time>
      </trkpt>
      <trkpt lat="46.36157" lon="6.75891">
        <ele>1346.5</ele>
        <time>2013-08-23T16:10:07Z</time>
      </trkpt>
      <trkpt lat="46.36143" lon="6.7588">
        <ele>1349.8</ele>
        <time>2013-08-23T16:10:18Z</time>
      </trkpt>
      <trkpt lat="46.36121" lon="6.7587">
        <ele>1353.2</ele>
        <time>2013-08-23T16:10:34Z</time>
      </trkpt>
      <trkpt lat="46.36103" lon="6.75845">
        <ele>1354.6</ele>
        <time>2013-08-23T16:10:48Z</time>
      </trkpt>
      <trkpt lat="46.36081" lon="6.75821">
        <ele>1357</ele>
        <time>2013-08-23T16:11:05Z</time>
      </trkpt>
      <trkpt lat="46.36073" lon="6.75802">
        <ele>1359.9</ele>
        <time>2013-08-23T16:11:17Z</time>
      </trkpt>
      <trkpt lat="46.36059" lon="6.75782">
        <ele>1362.3</ele>
        <time>2013-08-23T16:11:31Z</time>
      </trkpt>
      <trkpt lat="46.36047" lon="6.75756">
        <ele>1364.3</ele>
        <time>2013-08-23T16:11:45Z</time>
      </trkpt>
      <trkpt lat="46.36047" lon="6.75754">
        <ele>1363.8</ele>
        <time>2013-08-23T16:12:15Z</time>
      </trkpt>
      <trkpt lat="46.36038" lon="6.7574">
        <ele>1365.7</ele>
        <time>2013-08-23T16:12:28Z</time>
      </trkpt>
      <trkpt lat="46.36023" lon="6.75715">
        <ele>1367.6</ele>
        <time>2013-08-23T16:12:43Z</time>
      </trkpt>
      <trkpt lat="46.36002" lon="6.75685">
        <ele>1369.5</ele>
        <time>2013-08-23T16:12:58Z</time>
      </trkpt>
      <trkpt lat="46.35983" lon="6.75695">
        <ele>1370.5</ele>
        <time>2013-08-23T16:13:09Z</time>
      </trkpt>
      <trkpt lat="46.35977" lon="6.75706">
        <ele>1371.5</ele>
        <time>2013-08-23T16:13:15Z</time>
      </trkpt>
      <trkpt lat="46.35975" lon="6.75707">
        <ele>1371.9</ele>
        <time>2013-08-23T16:13:16Z</time>
      </trkpt>
      <trkpt lat="46.3594" lon="6.75713">
        <ele>1371.9</ele>
        <time>2013-08-23T16:13:29Z</time>
      </trkpt>
      <trkpt lat="46.359" lon="6.75723">
        <ele>1371.9</ele>
        <time>2013-08-23T16:13:43Z</time>
      </trkpt>
      <trkpt lat="46.35869" lon="6.75744">
        <ele>1374.3</ele>
        <time>2013-08-23T16:13:58Z</time>
      </trkpt>
      <trkpt lat="46.35826" lon="6.75747">
        <ele>1374.3</ele>
        <time>2013-08-23T16:14:13Z</time>
      </trkpt>
      <trkpt lat="46.35812" lon="6.7578">
        <ele>1375.8</ele>
        <time>2013-08-23T16:14:24Z</time>
      </trkpt>
      <trkpt lat="46.35811" lon="6.75821">
        <ele>1378.7</ele>
        <time>2013-08-23T16:14:40Z</time>
      </trkpt>
      <trkpt lat="46.35811" lon="6.75838">
        <ele>1382</ele>
        <time>2013-08-23T16:14:49Z</time>
      </trkpt>
      <trkpt lat="46.35802" lon="6.75863">
        <ele>1384.4</ele>
        <time>2013-08-23T16:15:04Z</time>
      </trkpt>
      <trkpt lat="46.35793" lon="6.75858">
        <ele>1384.9</ele>
        <time>2013-08-23T16:15:10Z</time>
      </trkpt>
      <trkpt lat="46.35781" lon="6.75827">
        <ele>1385.9</ele>
        <time>2013-08-23T16:15:24Z</time>
      </trkpt>
      <trkpt lat="46.35759" lon="6.75825">
        <ele>1386.4</ele>
        <time>2013-08-23T16:15:35Z</time>
      </trkpt>
      <trkpt lat="46.35751" lon="6.75855">
        <ele>1389.2</ele>
        <time>2013-08-23T16:15:48Z</time>
      </trkpt>
      <trkpt lat="46.3575" lon="6.75864">
        <ele>1390.7</ele>
        <time>2013-08-23T16:15:53Z</time>
      </trkpt>
      <trkpt lat="46.35748" lon="6.75866">
        <ele>1390.7</ele>
        <time>2013-08-23T16:15:54Z</time>
      </trkpt>
      <trkpt lat="46.35747" lon="6.75867">
        <ele>1391.2</ele>
        <time>2013-08-23T16:15:55Z</time>
      </trkpt>
      <trkpt lat="46.35747" lon="6.75869">
        <ele>1390.7</ele>
        <time>2013-08-23T16:15:56Z</time>
      </trkpt>
      <trkpt lat="46.35746" lon="6.75872">
        <ele>1390.7</ele>
        <time>2013-08-23T16:15:57Z</time>
      </trkpt>
      <trkpt lat="46.35734" lon="6.75908">
        <ele>1394.1</ele>
        <time>2013-08-23T16:16:15Z</time>
      </trkpt>
      <trkpt lat="46.35723" lon="6.75933">
        <ele>1396</ele>
        <time>2013-08-23T16:16:28Z</time>
      </trkpt>
      <trkpt lat="46.35718" lon="6.75943">
        <ele>1396.9</ele>
        <time>2013-08-23T16:16:33Z</time>
      </trkpt>
      <trkpt lat="46.35717" lon="6.75945">
        <ele>1396.9</ele>
        <time>2013-08-23T16:16:34Z</time>
      </trkpt>
      <trkpt lat="46.35716" lon="6.75947">
        <ele>1397.4</ele>
        <time>2013-08-23T16:16:35Z</time>
      </trkpt>
      <trkpt lat="46.35715" lon="6.75949">
        <ele>1397.4</ele>
        <time>2013-08-23T16:16:36Z</time>
      </trkpt>
      <trkpt lat="46.35714" lon="6.75951">
        <ele>1397.4</ele>
        <time>2013-08-23T16:16:37Z</time>
      </trkpt>
      <trkpt lat="46.35713" lon="6.75953">
        <ele>1397.9</ele>
        <time>2013-08-23T16:16:38Z</time>
      </trkpt>
      <trkpt lat="46.35713" lon="6.75955">
        <ele>1398.4</ele>
        <time>2013-08-23T16:16:39Z</time>
      </trkpt>
      <trkpt lat="46.35711" lon="6.75957">
        <ele>1398.4</ele>
        <time>2013-08-23T16:16:40Z</time>
      </trkpt>
      <trkpt lat="46.3571" lon="6.75959">
        <ele>1397.9</ele>
        <time>2013-08-23T16:16:41Z</time>
      </trkpt>
      <trkpt lat="46.35696" lon="6.75996">
        <ele>1400.3</ele>
        <time>2013-08-23T16:16:57Z</time>
      </trkpt>
      <trkpt lat="46.35689" lon="6.76014">
        <ele>1401.7</ele>
        <time>2013-08-23T16:17:08Z</time>
      </trkpt>
      <trkpt lat="46.35687" lon="6.76028">
        <ele>1404.6</ele>
        <time>2013-08-23T16:17:22Z</time>
      </trkpt>
      <trkpt lat="46.35681" lon="6.76045">
        <ele>1408</ele>
        <time>2013-08-23T16:17:39Z</time>
      </trkpt>
      <trkpt lat="46.35679" lon="6.7606">
        <ele>1409</ele>
        <time>2013-08-23T16:17:53Z</time>
      </trkpt>
      <trkpt lat="46.35675" lon="6.76074">
        <ele>1410.4</ele>
        <time>2013-08-23T16:18:06Z</time>
      </trkpt>
      <trkpt lat="46.35673" lon="6.76085">
        <ele>1411.8</ele>
        <time>2013-08-23T16:18:15Z</time>
      </trkpt>
      <trkpt lat="46.35672" lon="6.76096">
        <ele>1411.8</ele>
        <time>2013-08-23T16:18:26Z</time>
      </trkpt>
      <trkpt lat="46.35658" lon="6.76127">
        <ele>1414.7</ele>
        <time>2013-08-23T16:18:42Z</time>
      </trkpt>
      <trkpt lat="46.35649" lon="6.76144">
        <ele>1417.6</ele>
        <time>2013-08-23T16:18:54Z</time>
      </trkpt>
      <trkpt lat="46.35632" lon="6.76162">
        <ele>1420</ele>
        <time>2013-08-23T16:19:08Z</time>
      </trkpt>
      <trkpt lat="46.3563" lon="6.76167">
        <ele>1420</ele>
        <time>2013-08-23T16:19:11Z</time>
      </trkpt>
      <trkpt lat="46.3563" lon="6.76168">
        <ele>1421</ele>
        <time>2013-08-23T16:19:12Z</time>
      </trkpt>
      <trkpt lat="46.35632" lon="6.76204">
        <ele>1423.4</ele>
        <time>2013-08-23T16:19:28Z</time>
      </trkpt>
      <trkpt lat="46.35638" lon="6.76246">
        <ele>1425.3</ele>
        <time>2013-08-23T16:19:46Z</time>
      </trkpt>
      <trkpt lat="46.35642" lon="6.7628">
        <ele>1426.7</ele>
        <time>2013-08-23T16:19:59Z</time>
      </trkpt>
      <trkpt lat="46.35641" lon="6.76317">
        <ele>1429.6</ele>
        <time>2013-08-23T16:20:14Z</time>
      </trkpt>
      <trkpt lat="46.35641" lon="6.76319">
        <ele>1430.1</ele>
        <time>2013-08-23T16:20:15Z</time>
      </trkpt>
      <trkpt lat="46.3564" lon="6.76321">
        <ele>1429.6</ele>
        <time>2013-08-23T16:20:16Z</time>
      </trkpt>
      <trkpt lat="46.3564" lon="6.76347">
        <ele>1433</ele>
        <time>2013-08-23T16:20:27Z</time>
      </trkpt>
      <trkpt lat="46.35622" lon="6.76375">
        <ele>1433</ele>
        <time>2013-08-23T16:20:41Z</time>
      </trkpt>
      <trkpt lat="46.35617" lon="6.76382">
        <ele>1436.4</ele>
        <time>2013-08-23T16:20:49Z</time>
      </trkpt>
      <trkpt lat="46.3562" lon="6.76382">
        <ele>1434.9</ele>
        <time>2013-08-23T16:21:10Z</time>
      </trkpt>
      <trkpt lat="46.35626" lon="6.7638">
        <ele>1435.4</ele>
        <time>2013-08-23T16:21:47Z</time>
      </trkpt>
      <trkpt lat="46.35623" lon="6.76379">
        <ele>1435.4</ele>
        <time>2013-08-23T16:22:10Z</time>
      </trkpt>
      <trkpt lat="46.35618" lon="6.76382">
        <ele>1435.9</ele>
        <time>2013-08-23T16:22:40Z</time>
      </trkpt>
      <trkpt lat="46.35621" lon="6.76382">
        <ele>1435.9</ele>
        <time>2013-08-23T16:22:59Z</time>
      </trkpt>
      <trkpt lat="46.35619" lon="6.76382">
        <ele>1435.4</ele>
        <time>2013-08-23T16:23:21Z</time>
      </trkpt>
      <trkpt lat="46.35617" lon="6.76382">
        <ele>1435.9</ele>
        <time>2013-08-23T16:23:40Z</time>
      </trkpt>
      <trkpt lat="46.35619" lon="6.76383">
        <ele>1435.9</ele>
        <time>2013-08-23T16:24:00Z</time>
      </trkpt>
      <trkpt lat="46.35624" lon="6.76381">
        <ele>1436.4</ele>
        <time>2013-08-23T16:24:19Z</time>
      </trkpt>
      <trkpt lat="46.35619" lon="6.76391">
        <ele>1437.3</ele>
        <time>2013-08-23T16:24:41Z</time>
      </trkpt>
      <trkpt lat="46.35618" lon="6.76391">
        <ele>1438.3</ele>
        <time>2013-08-23T16:24:43Z</time>
      </trkpt>
      <trkpt lat="46.35612" lon="6.76398">
        <ele>1439.7</ele>
        <time>2013-08-23T16:24:55Z</time>
      </trkpt>
      <trkpt lat="46.35609" lon="6.76413">
        <ele>1440.7</ele>
        <time>2013-08-23T16:25:10Z</time>
      </trkpt>
      <trkpt lat="46.35607" lon="6.76428">
        <ele>1443.6</ele>
        <time>2013-08-23T16:25:25Z</time>
      </trkpt>
      <trkpt lat="46.35602" lon="6.76424">
        <ele>1443.6</ele>
        <time>2013-08-23T16:25:37Z</time>
      </trkpt>
      <trkpt lat="46.35601" lon="6.76415">
        <ele>1444.5</ele>
        <time>2013-08-23T16:25:52Z</time>
      </trkpt>
      <trkpt lat="46.35601" lon="6.76413">
        <ele>1445</ele>
        <time>2013-08-23T16:25:53Z</time>
      </trkpt>
      <trkpt lat="46.35601" lon="6.76411">
        <ele>1443.6</ele>
        <time>2013-08-23T16:25:54Z</time>
      </trkpt>
      <trkpt lat="46.356" lon="6.764">
        <ele>1446.4</ele>
        <time>2013-08-23T16:25:59Z</time>
      </trkpt>
      <trkpt lat="46.35596" lon="6.76364">
        <ele>1448.4</ele>
        <time>2013-08-23T16:26:14Z</time>
      </trkpt>
      <trkpt lat="46.35595" lon="6.76347">
        <ele>1447.9</ele>
        <time>2013-08-23T16:26:21Z</time>
      </trkpt>
      <trkpt lat="46.35595" lon="6.76345">
        <ele>1447.4</ele>
        <time>2013-08-23T16:26:22Z</time>
      </trkpt>
      <trkpt lat="46.35598" lon="6.76309">
        <ele>1450.3</ele>
        <time>2013-08-23T16:26:39Z</time>
      </trkpt>
      <trkpt lat="46.35601" lon="6.76298">
        <ele>1451.3</ele>
        <time>2013-08-23T16:26:45Z</time>
      </trkpt>
      <trkpt lat="46.35601" lon="6.76295">
        <ele>1451.3</ele>
        <time>2013-08-23T16:26:46Z</time>
      </trkpt>
      <trkpt lat="46.35601" lon="6.76293">
        <ele>1452.2</ele>
        <time>2013-08-23T16:26:47Z</time>
      </trkpt>
      <trkpt lat="46.35601" lon="6.76291">
        <ele>1451.7</ele>
        <time>2013-08-23T16:26:48Z</time>
      </trkpt>
      <trkpt lat="46.35601" lon="6.76289">
        <ele>1453.2</ele>
        <time>2013-08-23T16:26:49Z</time>
      </trkpt>
      <trkpt lat="46.35597" lon="6.76255">
        <ele>1456.5</ele>
        <time>2013-08-23T16:27:05Z</time>
      </trkpt>
      <trkpt lat="46.35594" lon="6.76226">
        <ele>1457.5</ele>
        <time>2013-08-23T16:27:19Z</time>
      </trkpt>
      <trkpt lat="46.35587" lon="6.76209">
        <ele>1459.9</ele>
        <time>2013-08-23T16:27:30Z</time>
      </trkpt>
      <trkpt lat="46.35587" lon="6.76207">
        <ele>1459.9</ele>
        <time>2013-08-23T16:27:31Z</time>
      </trkpt>
      <trkpt lat="46.3557" lon="6.76188">
        <ele>1462.3</ele>
        <time>2013-08-23T16:27:45Z</time>
      </trkpt>
      <trkpt lat="46.35559" lon="6.76182">
        <ele>1462.8</ele>
        <time>2013-08-23T16:27:53Z</time>
      </trkpt>
      <trkpt lat="46.35558" lon="6.76182">
        <ele>1464.2</ele>
        <time>2013-08-23T16:27:54Z</time>
      </trkpt>
      <trkpt lat="46.35557" lon="6.76181">
        <ele>1462.3</ele>
        <time>2013-08-23T16:27:55Z</time>
      </trkpt>
      <trkpt lat="46.35548" lon="6.76174">
        <ele>1465.7</ele>
        <time>2013-08-23T16:28:03Z</time>
      </trkpt>
      <trkpt lat="46.35547" lon="6.76173">
        <ele>1465.7</ele>
        <time>2013-08-23T16:28:04Z</time>
      </trkpt>
      <trkpt lat="46.35546" lon="6.76173">
        <ele>1465.7</ele>
        <time>2013-08-23T16:28:05Z</time>
      </trkpt>
      <trkpt lat="46.35542" lon="6.76174">
        <ele>1466.6</ele>
        <time>2013-08-23T16:28:09Z</time>
      </trkpt>
      <trkpt lat="46.35543" lon="6.76181">
        <ele>1467.1</ele>
        <time>2013-08-23T16:28:14Z</time>
      </trkpt>
      <trkpt lat="46.35544" lon="6.76183">
        <ele>1468.1</ele>
        <time>2013-08-23T16:28:15Z</time>
      </trkpt>
      <trkpt lat="46.35547" lon="6.76188">
        <ele>1468.6</ele>
        <time>2013-08-23T16:28:28Z</time>
      </trkpt>
      <trkpt lat="46.35555" lon="6.76195">
        <ele>1471</ele>
        <time>2013-08-23T16:28:41Z</time>
      </trkpt>
      <trkpt lat="46.35561" lon="6.76207">
        <ele>1472.9</ele>
        <time>2013-08-23T16:28:59Z</time>
      </trkpt>
      <trkpt lat="46.35562" lon="6.76218">
        <ele>1475.8</ele>
        <time>2013-08-23T16:29:14Z</time>
      </trkpt>
      <trkpt lat="46.35564" lon="6.76236">
        <ele>1478.2</ele>
        <time>2013-08-23T16:29:31Z</time>
      </trkpt>
      <trkpt lat="46.35565" lon="6.76245">
        <ele>1478.2</ele>
        <time>2013-08-23T16:29:45Z</time>
      </trkpt>
      <trkpt lat="46.35566" lon="6.76246">
        <ele>1478.2</ele>
        <time>2013-08-23T16:30:00Z</time>
      </trkpt>
      <trkpt lat="46.35563" lon="6.76263">
        <ele>1478.7</ele>
        <time>2013-08-23T16:30:15Z</time>
      </trkpt>
      <trkpt lat="46.35563" lon="6.76261">
        <ele>1480.6</ele>
        <time>2013-08-23T16:30:30Z</time>
      </trkpt>
      <trkpt lat="46.3556" lon="6.76265">
        <ele>1481.1</ele>
        <time>2013-08-23T16:30:41Z</time>
      </trkpt>
      <trkpt lat="46.35553" lon="6.76274">
        <ele>1483.5</ele>
        <time>2013-08-23T16:30:53Z</time>
      </trkpt>
      <trkpt lat="46.35546" lon="6.76279">
        <ele>1483.9</ele>
        <time>2013-08-23T16:31:05Z</time>
      </trkpt>
      <trkpt lat="46.35546" lon="6.76281">
        <ele>1484.4</ele>
        <time>2013-08-23T16:31:23Z</time>
      </trkpt>
      <trkpt lat="46.35547" lon="6.76279">
        <ele>1484.9</ele>
        <time>2013-08-23T16:31:43Z</time>
      </trkpt>
      <trkpt lat="46.35548" lon="6.76264">
        <ele>1487.3</ele>
        <time>2013-08-23T16:31:56Z</time>
      </trkpt>
      <trkpt lat="46.35549" lon="6.76248">
        <ele>1489.2</ele>
        <time>2013-08-23T16:32:09Z</time>
      </trkpt>
      <trkpt lat="46.3554" lon="6.76243">
        <ele>1491.1</ele>
        <time>2013-08-23T16:32:21Z</time>
      </trkpt>
      <trkpt lat="46.35528" lon="6.7624">
        <ele>1492.6</ele>
        <time>2013-08-23T16:32:34Z</time>
      </trkpt>
      <trkpt lat="46.35528" lon="6.76245">
        <ele>1494</ele>
        <time>2013-08-23T16:32:44Z</time>
      </trkpt>
      <trkpt lat="46.35525" lon="6.76254">
        <ele>1495.5</ele>
        <time>2013-08-23T16:32:52Z</time>
      </trkpt>
      <trkpt lat="46.35522" lon="6.76266">
        <ele>1496.4</ele>
        <time>2013-08-23T16:33:03Z</time>
      </trkpt>
      <trkpt lat="46.35516" lon="6.76258">
        <ele>1498.4</ele>
        <time>2013-08-23T16:33:14Z</time>
      </trkpt>
      <trkpt lat="46.35507" lon="6.76252">
        <ele>1499.8</ele>
        <time>2013-08-23T16:33:26Z</time>
      </trkpt>
      <trkpt lat="46.35499" lon="6.76262">
        <ele>1501.7</ele>
        <time>2013-08-23T16:33:40Z</time>
      </trkpt>
      <trkpt lat="46.355" lon="6.76273">
        <ele>1504.1</ele>
        <time>2013-08-23T16:33:53Z</time>
      </trkpt>
      <trkpt lat="46.35498" lon="6.7629">
        <ele>1504.6</ele>
        <time>2013-08-23T16:34:09Z</time>
      </trkpt>
      <trkpt lat="46.35501" lon="6.76301">
        <ele>1508</ele>
        <time>2013-08-23T16:34:21Z</time>
      </trkpt>
      <trkpt lat="46.35505" lon="6.7632">
        <ele>1509.9</ele>
        <time>2013-08-23T16:34:36Z</time>
      </trkpt>
      <trkpt lat="46.35505" lon="6.76334">
        <ele>1511.8</ele>
        <time>2013-08-23T16:34:50Z</time>
      </trkpt>
      <trkpt lat="46.35509" lon="6.76345">
        <ele>1512.8</ele>
        <time>2013-08-23T16:35:04Z</time>
      </trkpt>
      <trkpt lat="46.35508" lon="6.76355">
        <ele>1513.7</ele>
        <time>2013-08-23T16:35:14Z</time>
      </trkpt>
      <trkpt lat="46.35504" lon="6.76376">
        <ele>1515.2</ele>
        <time>2013-08-23T16:35:29Z</time>
      </trkpt>
      <trkpt lat="46.35495" lon="6.76375">
        <ele>1517.1</ele>
        <time>2013-08-23T16:35:42Z</time>
      </trkpt>
      <trkpt lat="46.35484" lon="6.76368">
        <ele>1518.5</ele>
        <time>2013-08-23T16:35:56Z</time>
      </trkpt>
      <trkpt lat="46.35473" lon="6.76362">
        <ele>1519.5</ele>
        <time>2013-08-23T16:36:08Z</time>
      </trkpt>
      <trkpt lat="46.35465" lon="6.76357">
        <ele>1521.4</ele>
        <time>2013-08-23T16:36:21Z</time>
      </trkpt>
      <trkpt lat="46.35456" lon="6.76353">
        <ele>1522.9</ele>
        <time>2013-08-23T16:36:34Z</time>
      </trkpt>
      <trkpt lat="46.3545" lon="6.76347">
        <ele>1524.3</ele>
        <time>2013-08-23T16:36:43Z</time>
      </trkpt>
      <trkpt lat="46.35439" lon="6.76343">
        <ele>1525.8</ele>
        <time>2013-08-23T16:36:57Z</time>
      </trkpt>
      <trkpt lat="46.35437" lon="6.76342">
        <ele>1526.7</ele>
        <time>2013-08-23T16:36:59Z</time>
      </trkpt>
      <trkpt lat="46.35431" lon="6.76342">
        <ele>1525.8</ele>
        <time>2013-08-23T16:37:12Z</time>
      </trkpt>
      <trkpt lat="46.35429" lon="6.7634">
        <ele>1526.7</ele>
        <time>2013-08-23T16:37:14Z</time>
      </trkpt>
      <trkpt lat="46.35426" lon="6.76339">
        <ele>1526.2</ele>
        <time>2013-08-23T16:37:17Z</time>
      </trkpt>
      <trkpt lat="46.35417" lon="6.7634">
        <ele>1527.7</ele>
        <time>2013-08-23T16:37:24Z</time>
      </trkpt>
      <trkpt lat="46.35407" lon="6.76338">
        <ele>1528.6</ele>
        <time>2013-08-23T16:37:39Z</time>
      </trkpt>
      <trkpt lat="46.354" lon="6.76342">
        <ele>1529.6</ele>
        <time>2013-08-23T16:37:52Z</time>
      </trkpt>
      <trkpt lat="46.35391" lon="6.76351">
        <ele>1531</ele>
        <time>2013-08-23T16:38:05Z</time>
      </trkpt>
      <trkpt lat="46.35382" lon="6.7636">
        <ele>1532.5</ele>
        <time>2013-08-23T16:38:18Z</time>
      </trkpt>
      <trkpt lat="46.35378" lon="6.76363">
        <ele>1533.4</ele>
        <time>2013-08-23T16:38:23Z</time>
      </trkpt>
      <trkpt lat="46.35376" lon="6.76365">
        <ele>1533.4</ele>
        <time>2013-08-23T16:38:26Z</time>
      </trkpt>
      <trkpt lat="46.35364" lon="6.76375">
        <ele>1533.4</ele>
        <time>2013-08-23T16:38:41Z</time>
      </trkpt>
      <trkpt lat="46.35355" lon="6.76379">
        <ele>1536.8</ele>
        <time>2013-08-23T16:38:54Z</time>
      </trkpt>
      <trkpt lat="46.35351" lon="6.76378">
        <ele>1537.3</ele>
        <time>2013-08-23T16:39:00Z</time>
      </trkpt>
      <trkpt lat="46.35344" lon="6.76376">
        <ele>1539.2</ele>
        <time>2013-08-23T16:39:15Z</time>
      </trkpt>
      <trkpt lat="46.35336" lon="6.76379">
        <ele>1540.2</ele>
        <time>2013-08-23T16:39:27Z</time>
      </trkpt>
      <trkpt lat="46.35329" lon="6.76383">
        <ele>1541.6</ele>
        <time>2013-08-23T16:39:39Z</time>
      </trkpt>
      <trkpt lat="46.35319" lon="6.76386">
        <ele>1543.5</ele>
        <time>2013-08-23T16:39:53Z</time>
      </trkpt>
      <trkpt lat="46.35313" lon="6.76392">
        <ele>1545.5</ele>
        <time>2013-08-23T16:40:05Z</time>
      </trkpt>
      <trkpt lat="46.35308" lon="6.76398">
        <ele>1546.9</ele>
        <time>2013-08-23T16:40:14Z</time>
      </trkpt>
      <trkpt lat="46.35302" lon="6.76402">
        <ele>1548.3</ele>
        <time>2013-08-23T16:40:30Z</time>
      </trkpt>
      <trkpt lat="46.35297" lon="6.76407">
        <ele>1552.2</ele>
        <time>2013-08-23T16:40:42Z</time>
      </trkpt>
      <trkpt lat="46.35295" lon="6.76404">
        <ele>1551.7</ele>
        <time>2013-08-23T16:40:54Z</time>
      </trkpt>
      <trkpt lat="46.35295" lon="6.7641">
        <ele>1554.6</ele>
        <time>2013-08-23T16:41:00Z</time>
      </trkpt>
      <trkpt lat="46.35294" lon="6.76425">
        <ele>1553.6</ele>
        <time>2013-08-23T16:41:15Z</time>
      </trkpt>
      <trkpt lat="46.35294" lon="6.76427">
        <ele>1557</ele>
        <time>2013-08-23T16:41:16Z</time>
      </trkpt>
      <trkpt lat="46.35295" lon="6.76428">
        <ele>1553.6</ele>
        <time>2013-08-23T16:41:17Z</time>
      </trkpt>
      <trkpt lat="46.35295" lon="6.76429">
        <ele>1557</ele>
        <time>2013-08-23T16:41:18Z</time>
      </trkpt>
      <trkpt lat="46.35295" lon="6.76433">
        <ele>1555.6</ele>
        <time>2013-08-23T16:41:21Z</time>
      </trkpt>
      <trkpt lat="46.35291" lon="6.76451">
        <ele>1555.1</ele>
        <time>2013-08-23T16:41:38Z</time>
      </trkpt>
      <trkpt lat="46.3529" lon="6.76453">
        <ele>1559.9</ele>
        <time>2013-08-23T16:41:40Z</time>
      </trkpt>
      <trkpt lat="46.35288" lon="6.76454">
        <ele>1556</ele>
        <time>2013-08-23T16:41:42Z</time>
      </trkpt>
      <trkpt lat="46.35287" lon="6.76455">
        <ele>1560.4</ele>
        <time>2013-08-23T16:41:44Z</time>
      </trkpt>
      <trkpt lat="46.35284" lon="6.76459">
        <ele>1558.4</ele>
        <time>2013-08-23T16:41:50Z</time>
      </trkpt>
      <trkpt lat="46.3528" lon="6.76463">
        <ele>1558.4</ele>
        <time>2013-08-23T16:41:55Z</time>
      </trkpt>
      <trkpt lat="46.35278" lon="6.76466">
        <ele>1559.4</ele>
        <time>2013-08-23T16:41:59Z</time>
      </trkpt>
      <trkpt lat="46.35276" lon="6.76467">
        <ele>1561.8</ele>
        <time>2013-08-23T16:42:02Z</time>
      </trkpt>
      <trkpt lat="46.35275" lon="6.76468">
        <ele>1558</ele>
        <time>2013-08-23T16:42:04Z</time>
      </trkpt>
      <trkpt lat="46.35274" lon="6.7647">
        <ele>1561.3</ele>
        <time>2013-08-23T16:42:07Z</time>
      </trkpt>
      <trkpt lat="46.35272" lon="6.7647">
        <ele>1562.3</ele>
        <time>2013-08-23T16:42:09Z</time>
      </trkpt>
      <trkpt lat="46.35271" lon="6.76471">
        <ele>1560.4</ele>
        <time>2013-08-23T16:42:11Z</time>
      </trkpt>
      <trkpt lat="46.35269" lon="6.76474">
        <ele>1563.7</ele>
        <time>2013-08-23T16:42:15Z</time>
      </trkpt>
      <trkpt lat="46.35268" lon="6.76475">
        <ele>1560.4</ele>
        <time>2013-08-23T16:42:18Z</time>
      </trkpt>
      <trkpt lat="46.35266" lon="6.76477">
        <ele>1561.8</ele>
        <time>2013-08-23T16:42:21Z</time>
      </trkpt>
      <trkpt lat="46.35264" lon="6.76478">
        <ele>1565.6</ele>
        <time>2013-08-23T16:42:27Z</time>
      </trkpt>
      <trkpt lat="46.35264" lon="6.7648">
        <ele>1562.8</ele>
        <time>2013-08-23T16:42:30Z</time>
      </trkpt>
      <trkpt lat="46.35262" lon="6.76482">
        <ele>1566.1</ele>
        <time>2013-08-23T16:42:34Z</time>
      </trkpt>
      <trkpt lat="46.35255" lon="6.76485">
        <ele>1568.5</ele>
        <time>2013-08-23T16:42:46Z</time>
      </trkpt>
      <trkpt lat="46.35249" lon="6.76493">
        <ele>1569</ele>
        <time>2013-08-23T16:43:00Z</time>
      </trkpt>
      <trkpt lat="46.35244" lon="6.76501">
        <ele>1572.4</ele>
        <time>2013-08-23T16:43:12Z</time>
      </trkpt>
      <trkpt lat="46.35241" lon="6.76507">
        <ele>1570</ele>
        <time>2013-08-23T16:43:17Z</time>
      </trkpt>
      <trkpt lat="46.35239" lon="6.76511">
        <ele>1572.9</ele>
        <time>2013-08-23T16:43:21Z</time>
      </trkpt>
      <trkpt lat="46.35238" lon="6.76513">
        <ele>1570</ele>
        <time>2013-08-23T16:43:24Z</time>
      </trkpt>
      <trkpt lat="46.35236" lon="6.76514">
        <ele>1573.3</ele>
        <time>2013-08-23T16:43:27Z</time>
      </trkpt>
      <trkpt lat="46.35232" lon="6.76521">
        <ele>1573.8</ele>
        <time>2013-08-23T16:43:35Z</time>
      </trkpt>
      <trkpt lat="46.35231" lon="6.76522">
        <ele>1571.9</ele>
        <time>2013-08-23T16:43:37Z</time>
      </trkpt>
      <trkpt lat="46.35231" lon="6.76526">
        <ele>1575.3</ele>
        <time>2013-08-23T16:43:40Z</time>
      </trkpt>
      <trkpt lat="46.3523" lon="6.7653">
        <ele>1572.9</ele>
        <time>2013-08-23T16:43:43Z</time>
      </trkpt>
      <trkpt lat="46.3523" lon="6.76533">
        <ele>1574.8</ele>
        <time>2013-08-23T16:43:45Z</time>
      </trkpt>
      <trkpt lat="46.35229" lon="6.76542">
        <ele>1576.2</ele>
        <time>2013-08-23T16:43:53Z</time>
      </trkpt>
      <trkpt lat="46.35231" lon="6.76553">
        <ele>1575.7</ele>
        <time>2013-08-23T16:44:01Z</time>
      </trkpt>
      <trkpt lat="46.3523" lon="6.76559">
        <ele>1577.2</ele>
        <time>2013-08-23T16:44:06Z</time>
      </trkpt>
      <trkpt lat="46.35231" lon="6.76571">
        <ele>1577.7</ele>
        <time>2013-08-23T16:44:21Z</time>
      </trkpt>
      <trkpt lat="46.35232" lon="6.7658">
        <ele>1578.1</ele>
        <time>2013-08-23T16:44:37Z</time>
      </trkpt>
      <trkpt lat="46.35233" lon="6.76585">
        <ele>1581</ele>
        <time>2013-08-23T16:44:47Z</time>
      </trkpt>
      <trkpt lat="46.35231" lon="6.76592">
        <ele>1581.5</ele>
        <time>2013-08-23T16:45:01Z</time>
      </trkpt>
      <trkpt lat="46.35225" lon="6.76607">
        <ele>1583.4</ele>
        <time>2013-08-23T16:45:16Z</time>
      </trkpt>
      <trkpt lat="46.35225" lon="6.76608">
        <ele>1583.4</ele>
        <time>2013-08-23T16:45:17Z</time>
      </trkpt>
      <trkpt lat="46.35225" lon="6.7661">
        <ele>1582</ele>
        <time>2013-08-23T16:45:19Z</time>
      </trkpt>
      <trkpt lat="46.35224" lon="6.76613">
        <ele>1583.4</ele>
        <time>2013-08-23T16:45:21Z</time>
      </trkpt>
      <trkpt lat="46.35223" lon="6.76615">
        <ele>1583</ele>
        <time>2013-08-23T16:45:23Z</time>
      </trkpt>
      <trkpt lat="46.35219" lon="6.76623">
        <ele>1586.3</ele>
        <time>2013-08-23T16:45:32Z</time>
      </trkpt>
      <trkpt lat="46.35217" lon="6.76629">
        <ele>1583.4</ele>
        <time>2013-08-23T16:45:38Z</time>
      </trkpt>
      <trkpt lat="46.35213" lon="6.76642">
        <ele>1586.8</ele>
        <time>2013-08-23T16:45:48Z</time>
      </trkpt>
      <trkpt lat="46.35213" lon="6.76643">
        <ele>1584.4</ele>
        <time>2013-08-23T16:45:49Z</time>
      </trkpt>
      <trkpt lat="46.35213" lon="6.7665">
        <ele>1586.8</ele>
        <time>2013-08-23T16:45:56Z</time>
      </trkpt>
      <trkpt lat="46.35209" lon="6.76665">
        <ele>1588.7</ele>
        <time>2013-08-23T16:46:09Z</time>
      </trkpt>
      <trkpt lat="46.35207" lon="6.76673">
        <ele>1589.2</ele>
        <time>2013-08-23T16:46:17Z</time>
      </trkpt>
      <trkpt lat="46.35205" lon="6.7668">
        <ele>1590.6</ele>
        <time>2013-08-23T16:46:23Z</time>
      </trkpt>
      <trkpt lat="46.35201" lon="6.76691">
        <ele>1592.1</ele>
        <time>2013-08-23T16:46:39Z</time>
      </trkpt>
      <trkpt lat="46.35195" lon="6.76705">
        <ele>1594.5</ele>
        <time>2013-08-23T16:46:53Z</time>
      </trkpt>
      <trkpt lat="46.35197" lon="6.76722">
        <ele>1594.5</ele>
        <time>2013-08-23T16:47:07Z</time>
      </trkpt>
      <trkpt lat="46.35198" lon="6.76729">
        <ele>1597.4</ele>
        <time>2013-08-23T16:47:12Z</time>
      </trkpt>
      <trkpt lat="46.35195" lon="6.76739">
        <ele>1597.4</ele>
        <time>2013-08-23T16:47:25Z</time>
      </trkpt>
      <trkpt lat="46.35191" lon="6.76734">
        <ele>1601.2</ele>
        <time>2013-08-23T16:47:33Z</time>
      </trkpt>
      <trkpt lat="46.35187" lon="6.76731">
        <ele>1602.2</ele>
        <time>2013-08-23T16:47:40Z</time>
      </trkpt>
      <trkpt lat="46.35184" lon="6.76728">
        <ele>1603.1</ele>
        <time>2013-08-23T16:47:48Z</time>
      </trkpt>
      <trkpt lat="46.35178" lon="6.76726">
        <ele>1604.6</ele>
        <time>2013-08-23T16:48:02Z</time>
      </trkpt>
      <trkpt lat="46.35176" lon="6.76727">
        <ele>1607</ele>
        <time>2013-08-23T16:48:08Z</time>
      </trkpt>
      <trkpt lat="46.35181" lon="6.76737">
        <ele>1609.4</ele>
        <time>2013-08-23T16:48:22Z</time>
      </trkpt>
      <trkpt lat="46.3518" lon="6.76742">
        <ele>1610.4</ele>
        <time>2013-08-23T16:48:30Z</time>
      </trkpt>
      <trkpt lat="46.35176" lon="6.76742">
        <ele>1611.8</ele>
        <time>2013-08-23T16:48:43Z</time>
      </trkpt>
      <trkpt lat="46.3517" lon="6.76736">
        <ele>1614.2</ele>
        <time>2013-08-23T16:48:56Z</time>
      </trkpt>
      <trkpt lat="46.35169" lon="6.7674">
        <ele>1615.6</ele>
        <time>2013-08-23T16:49:08Z</time>
      </trkpt>
      <trkpt lat="46.35169" lon="6.76747">
        <ele>1618</ele>
        <time>2013-08-23T16:49:22Z</time>
      </trkpt>
      <trkpt lat="46.35165" lon="6.76753">
        <ele>1620</ele>
        <time>2013-08-23T16:49:36Z</time>
      </trkpt>
      <trkpt lat="46.35161" lon="6.76751">
        <ele>1622.4</ele>
        <time>2013-08-23T16:49:50Z</time>
      </trkpt>
      <trkpt lat="46.35159" lon="6.76755">
        <ele>1624.3</ele>
        <time>2013-08-23T16:50:03Z</time>
      </trkpt>
      <trkpt lat="46.35158" lon="6.76757">
        <ele>1625.7</ele>
        <time>2013-08-23T16:50:16Z</time>
      </trkpt>
      <trkpt lat="46.35158" lon="6.76758">
        <ele>1626.7</ele>
        <time>2013-08-23T16:50:18Z</time>
      </trkpt>
      <trkpt lat="46.35156" lon="6.76759">
        <ele>1627.7</ele>
        <time>2013-08-23T16:50:29Z</time>
      </trkpt>
      <trkpt lat="46.35159" lon="6.76765">
        <ele>1629.1</ele>
        <time>2013-08-23T16:50:42Z</time>
      </trkpt>
      <trkpt lat="46.3516" lon="6.76773">
        <ele>1631.5</ele>
        <time>2013-08-23T16:50:54Z</time>
      </trkpt>
      <trkpt lat="46.35159" lon="6.76777">
        <ele>1633.4</ele>
        <time>2013-08-23T16:51:05Z</time>
      </trkpt>
      <trkpt lat="46.35162" lon="6.76777">
        <ele>1634.9</ele>
        <time>2013-08-23T16:51:16Z</time>
      </trkpt>
      <trkpt lat="46.35168" lon="6.76777">
        <ele>1637.7</ele>
        <time>2013-08-23T16:51:28Z</time>
      </trkpt>
      <trkpt lat="46.35175" lon="6.76781">
        <ele>1640.2</ele>
        <time>2013-08-23T16:51:43Z</time>
      </trkpt>
      <trkpt lat="46.35175" lon="6.76791">
        <ele>1642.1</ele>
        <time>2013-08-23T16:51:56Z</time>
      </trkpt>
      <trkpt lat="46.35179" lon="6.768">
        <ele>1645</ele>
        <time>2013-08-23T16:52:09Z</time>
      </trkpt>
      <trkpt lat="46.35174" lon="6.76801">
        <ele>1646.9</ele>
        <time>2013-08-23T16:52:24Z</time>
      </trkpt>
      <trkpt lat="46.3517" lon="6.76802">
        <ele>1648.8</ele>
        <time>2013-08-23T16:52:39Z</time>
      </trkpt>
      <trkpt lat="46.35168" lon="6.7681">
        <ele>1651.2</ele>
        <time>2013-08-23T16:52:53Z</time>
      </trkpt>
      <trkpt lat="46.35166" lon="6.76816">
        <ele>1653.1</ele>
        <time>2013-08-23T16:53:05Z</time>
      </trkpt>
      <trkpt lat="46.3516" lon="6.76818">
        <ele>1656.5</ele>
        <time>2013-08-23T16:53:17Z</time>
      </trkpt>
      <trkpt lat="46.35161" lon="6.76819">
        <ele>1655.5</ele>
        <time>2013-08-23T16:53:31Z</time>
      </trkpt>
      <trkpt lat="46.35161" lon="6.76817">
        <ele>1655.1</ele>
        <time>2013-08-23T16:53:46Z</time>
      </trkpt>
      <trkpt lat="46.3516" lon="6.76815">
        <ele>1655.5</ele>
        <time>2013-08-23T16:54:01Z</time>
      </trkpt>
      <trkpt lat="46.3513" lon="6.76782">
        <ele>1654.1</ele>
        <time>2013-08-23T16:54:15Z</time>
      </trkpt>
      <trkpt lat="46.35114" lon="6.7676">
        <ele>1656</ele>
        <time>2013-08-23T16:54:27Z</time>
      </trkpt>
      <trkpt lat="46.35114" lon="6.76758">
        <ele>1656.5</ele>
        <time>2013-08-23T16:54:39Z</time>
      </trkpt>
      <trkpt lat="46.35106" lon="6.76749">
        <ele>1657.5</ele>
        <time>2013-08-23T16:54:52Z</time>
      </trkpt>
      <trkpt lat="46.35095" lon="6.76729">
        <ele>1659.9</ele>
        <time>2013-08-23T16:55:10Z</time>
      </trkpt>
      <trkpt lat="46.35086" lon="6.76706">
        <ele>1662.3</ele>
        <time>2013-08-23T16:55:28Z</time>
      </trkpt>
      <trkpt lat="46.35083" lon="6.76692">
        <ele>1662.7</ele>
        <time>2013-08-23T16:55:38Z</time>
      </trkpt>
      <trkpt lat="46.35085" lon="6.76677">
        <ele>1665.1</ele>
        <time>2013-08-23T16:55:53Z</time>
      </trkpt>
      <trkpt lat="46.35087" lon="6.76665">
        <ele>1665.6</ele>
        <time>2013-08-23T16:56:05Z</time>
      </trkpt>
      <trkpt lat="46.35086" lon="6.76651">
        <ele>1667.5</ele>
        <time>2013-08-23T16:56:17Z</time>
      </trkpt>
      <trkpt lat="46.35086" lon="6.7665">
        <ele>1667.1</ele>
        <time>2013-08-23T16:56:18Z</time>
      </trkpt>
      <trkpt lat="46.35083" lon="6.76644">
        <ele>1668</ele>
        <time>2013-08-23T16:56:28Z</time>
      </trkpt>
      <trkpt lat="46.35084" lon="6.76641">
        <ele>1668</ele>
        <time>2013-08-23T16:56:45Z</time>
      </trkpt>
      <trkpt lat="46.35079" lon="6.76612">
        <ele>1669</ele>
        <time>2013-08-23T16:57:03Z</time>
      </trkpt>
      <trkpt lat="46.35078" lon="6.76595">
        <ele>1669.5</ele>
        <time>2013-08-23T16:57:15Z</time>
      </trkpt>
      <trkpt lat="46.35075" lon="6.7657">
        <ele>1671.9</ele>
        <time>2013-08-23T16:57:32Z</time>
      </trkpt>
      <trkpt lat="46.35072" lon="6.76553">
        <ele>1674.8</ele>
        <time>2013-08-23T16:57:50Z</time>
      </trkpt>
      <trkpt lat="46.35071" lon="6.76542">
        <ele>1677.6</ele>
        <time>2013-08-23T16:58:05Z</time>
      </trkpt>
      <trkpt lat="46.35071" lon="6.76535">
        <ele>1679.1</ele>
        <time>2013-08-23T16:58:18Z</time>
      </trkpt>
      <trkpt lat="46.35068" lon="6.76528">
        <ele>1681</ele>
        <time>2013-08-23T16:58:32Z</time>
      </trkpt>
      <trkpt lat="46.35068" lon="6.76522">
        <ele>1682.4</ele>
        <time>2013-08-23T16:58:45Z</time>
      </trkpt>
      <trkpt lat="46.35069" lon="6.76521">
        <ele>1682.9</ele>
        <time>2013-08-23T16:58:57Z</time>
      </trkpt>
      <trkpt lat="46.35071" lon="6.76522">
        <ele>1682.9</ele>
        <time>2013-08-23T16:59:14Z</time>
      </trkpt>
      <trkpt lat="46.3507" lon="6.76521">
        <ele>1683.4</ele>
        <time>2013-08-23T16:59:30Z</time>
      </trkpt>
      <trkpt lat="46.35067" lon="6.76516">
        <ele>1683.9</ele>
        <time>2013-08-23T16:59:42Z</time>
      </trkpt>
      <trkpt lat="46.3506" lon="6.76504">
        <ele>1685.3</ele>
        <time>2013-08-23T16:59:57Z</time>
      </trkpt>
      <trkpt lat="46.35055" lon="6.76493">
        <ele>1688.2</ele>
        <time>2013-08-23T17:00:13Z</time>
      </trkpt>
      <trkpt lat="46.35054" lon="6.76482">
        <ele>1689.7</ele>
        <time>2013-08-23T17:00:28Z</time>
      </trkpt>
      <trkpt lat="46.35052" lon="6.76474">
        <ele>1691.1</ele>
        <time>2013-08-23T17:00:39Z</time>
      </trkpt>
      <trkpt lat="46.35041" lon="6.76457">
        <ele>1693.5</ele>
        <time>2013-08-23T17:00:59Z</time>
      </trkpt>
      <trkpt lat="46.35033" lon="6.76449">
        <ele>1694.9</ele>
        <time>2013-08-23T17:01:14Z</time>
      </trkpt>
      <trkpt lat="46.35029" lon="6.76444">
        <ele>1695.9</ele>
        <time>2013-08-23T17:01:29Z</time>
      </trkpt>
      <trkpt lat="46.3503" lon="6.76444">
        <ele>1696.4</ele>
        <time>2013-08-23T17:01:44Z</time>
      </trkpt>
      <trkpt lat="46.35026" lon="6.76434">
        <ele>1697.8</ele>
        <time>2013-08-23T17:01:58Z</time>
      </trkpt>
      <trkpt lat="46.35023" lon="6.76428">
        <ele>1700.7</ele>
        <time>2013-08-23T17:02:15Z</time>
      </trkpt>
      <trkpt lat="46.35026" lon="6.76422">
        <ele>1701.7</ele>
        <time>2013-08-23T17:02:25Z</time>
      </trkpt>
      <trkpt lat="46.35034" lon="6.76406">
        <ele>1703.6</ele>
        <time>2013-08-23T17:02:40Z</time>
      </trkpt>
      <trkpt lat="46.35049" lon="6.76403">
        <ele>1706.5</ele>
        <time>2013-08-23T17:02:59Z</time>
      </trkpt>
      <trkpt lat="46.35055" lon="6.76406">
        <ele>1707.4</ele>
        <time>2013-08-23T17:03:14Z</time>
      </trkpt>
      <trkpt lat="46.35049" lon="6.76405">
        <ele>1708.4</ele>
        <time>2013-08-23T17:03:26Z</time>
      </trkpt>
      <trkpt lat="46.35042" lon="6.76392">
        <ele>1710.3</ele>
        <time>2013-08-23T17:03:41Z</time>
      </trkpt>
      <trkpt lat="46.35037" lon="6.76383">
        <ele>1712.7</ele>
        <time>2013-08-23T17:03:55Z</time>
      </trkpt>
      <trkpt lat="46.35031" lon="6.76377">
        <ele>1714.7</ele>
        <time>2013-08-23T17:04:06Z</time>
      </trkpt>
      <trkpt lat="46.35021" lon="6.76376">
        <ele>1717.1</ele>
        <time>2013-08-23T17:04:18Z</time>
      </trkpt>
      <trkpt lat="46.35013" lon="6.76374">
        <ele>1718.5</ele>
        <time>2013-08-23T17:04:31Z</time>
      </trkpt>
      <trkpt lat="46.35004" lon="6.76379">
        <ele>1721.4</ele>
        <time>2013-08-23T17:04:45Z</time>
      </trkpt>
      <trkpt lat="46.35003" lon="6.76371">
        <ele>1722.8</ele>
        <time>2013-08-23T17:04:56Z</time>
      </trkpt>
      <trkpt lat="46.34999" lon="6.76362">
        <ele>1725.2</ele>
        <time>2013-08-23T17:05:10Z</time>
      </trkpt>
      <trkpt lat="46.35" lon="6.76354">
        <ele>1727.6</ele>
        <time>2013-08-23T17:05:22Z</time>
      </trkpt>
      <trkpt lat="46.34997" lon="6.76345">
        <ele>1730</ele>
        <time>2013-08-23T17:05:36Z</time>
      </trkpt>
      <trkpt lat="46.34999" lon="6.76339">
        <ele>1732</ele>
        <time>2013-08-23T17:05:50Z</time>
      </trkpt>
      <trkpt lat="46.34998" lon="6.76332">
        <ele>1733.4</ele>
        <time>2013-08-23T17:06:05Z</time>
      </trkpt>
      <trkpt lat="46.34999" lon="6.76323">
        <ele>1735.8</ele>
        <time>2013-08-23T17:06:18Z</time>
      </trkpt>
      <trkpt lat="46.34997" lon="6.76312">
        <ele>1738.2</ele>
        <time>2013-08-23T17:06:33Z</time>
      </trkpt>
      <trkpt lat="46.34997" lon="6.763">
        <ele>1740.1</ele>
        <time>2013-08-23T17:06:48Z</time>
      </trkpt>
      <trkpt lat="46.35003" lon="6.76294">
        <ele>1743</ele>
        <time>2013-08-23T17:07:02Z</time>
      </trkpt>
      <trkpt lat="46.35006" lon="6.76285">
        <ele>1745.4</ele>
        <time>2013-08-23T17:07:17Z</time>
      </trkpt>
      <trkpt lat="46.35007" lon="6.76278">
        <ele>1747.8</ele>
        <time>2013-08-23T17:07:32Z</time>
      </trkpt>
      <trkpt lat="46.35009" lon="6.76272">
        <ele>1750.7</ele>
        <time>2013-08-23T17:07:46Z</time>
      </trkpt>
      <trkpt lat="46.35005" lon="6.7626">
        <ele>1753.1</ele>
        <time>2013-08-23T17:08:01Z</time>
      </trkpt>
      <trkpt lat="46.35001" lon="6.7625">
        <ele>1754.5</ele>
        <time>2013-08-23T17:08:15Z</time>
      </trkpt>
      <trkpt lat="46.34999" lon="6.76238">
        <ele>1757</ele>
        <time>2013-08-23T17:08:29Z</time>
      </trkpt>
      <trkpt lat="46.34996" lon="6.76229">
        <ele>1756</ele>
        <time>2013-08-23T17:08:41Z</time>
      </trkpt>
      <trkpt lat="46.34995" lon="6.76225">
        <ele>1756</ele>
        <time>2013-08-23T17:08:45Z</time>
      </trkpt>
      <trkpt lat="46.34994" lon="6.76223">
        <ele>1756</ele>
        <time>2013-08-23T17:08:46Z</time>
      </trkpt>
      <trkpt lat="46.34992" lon="6.76207">
        <ele>1757</ele>
        <time>2013-08-23T17:09:00Z</time>
      </trkpt>
      <trkpt lat="46.34989" lon="6.76188">
        <ele>1759.8</ele>
        <time>2013-08-23T17:09:18Z</time>
      </trkpt>
      <trkpt lat="46.34989" lon="6.76178">
        <ele>1761.8</ele>
        <time>2013-08-23T17:09:31Z</time>
      </trkpt>
      <trkpt lat="46.34987" lon="6.76168">
        <ele>1764.2</ele>
        <time>2013-08-23T17:09:46Z</time>
      </trkpt>
      <trkpt lat="46.34985" lon="6.76157">
        <ele>1767</ele>
        <time>2013-08-23T17:10:02Z</time>
      </trkpt>
      <trkpt lat="46.34982" lon="6.76148">
        <ele>1768.5</ele>
        <time>2013-08-23T17:10:16Z</time>
      </trkpt>
      <trkpt lat="46.34982" lon="6.76139">
        <ele>1770.9</ele>
        <time>2013-08-23T17:10:31Z</time>
      </trkpt>
      <trkpt lat="46.3498" lon="6.76125">
        <ele>1772.8</ele>
        <time>2013-08-23T17:10:47Z</time>
      </trkpt>
      <trkpt lat="46.34978" lon="6.76111">
        <ele>1774.7</ele>
        <time>2013-08-23T17:11:03Z</time>
      </trkpt>
      <trkpt lat="46.3498" lon="6.76103">
        <ele>1777.1</ele>
        <time>2013-08-23T17:11:17Z</time>
      </trkpt>
      <trkpt lat="46.34978" lon="6.76096">
        <ele>1778.6</ele>
        <time>2013-08-23T17:11:32Z</time>
      </trkpt>
      <trkpt lat="46.34978" lon="6.76081">
        <ele>1778.6</ele>
        <time>2013-08-23T17:11:45Z</time>
      </trkpt>
      <trkpt lat="46.34974" lon="6.76058">
        <ele>1780.5</ele>
        <time>2013-08-23T17:12:03Z</time>
      </trkpt>
      <trkpt lat="46.34972" lon="6.76038">
        <ele>1782.9</ele>
        <time>2013-08-23T17:12:19Z</time>
      </trkpt>
      <trkpt lat="46.3497" lon="6.76019">
        <ele>1785.3</ele>
        <time>2013-08-23T17:12:37Z</time>
      </trkpt>
      <trkpt lat="46.34966" lon="6.76004">
        <ele>1788.7</ele>
        <time>2013-08-23T17:12:55Z</time>
      </trkpt>
      <trkpt lat="46.34965" lon="6.75995">
        <ele>1791.1</ele>
        <time>2013-08-23T17:13:09Z</time>
      </trkpt>
      <trkpt lat="46.34964" lon="6.75982">
        <ele>1793</ele>
        <time>2013-08-23T17:13:25Z</time>
      </trkpt>
      <trkpt lat="46.34958" lon="6.75972">
        <ele>1795.4</ele>
        <time>2013-08-23T17:13:40Z</time>
      </trkpt>
      <trkpt lat="46.34954" lon="6.75962">
        <ele>1797.8</ele>
        <time>2013-08-23T17:13:56Z</time>
      </trkpt>
      <trkpt lat="46.34947" lon="6.75956">
        <ele>1800.7</ele>
        <time>2013-08-23T17:14:10Z</time>
      </trkpt>
      <trkpt lat="46.34937" lon="6.75949">
        <ele>1802.6</ele>
        <time>2013-08-23T17:14:27Z</time>
      </trkpt>
      <trkpt lat="46.34933" lon="6.75944">
        <ele>1804.1</ele>
        <time>2013-08-23T17:14:40Z</time>
      </trkpt>
      <trkpt lat="46.34928" lon="6.75938">
        <ele>1806.9</ele>
        <time>2013-08-23T17:14:55Z</time>
      </trkpt>
      <trkpt lat="46.34924" lon="6.75936">
        <ele>1807.9</ele>
        <time>2013-08-23T17:15:09Z</time>
      </trkpt>
      <trkpt lat="46.34923" lon="6.75936">
        <ele>1808.4</ele>
        <time>2013-08-23T17:15:10Z</time>
      </trkpt>
      <trkpt lat="46.34923" lon="6.75932">
        <ele>1808.4</ele>
        <time>2013-08-23T17:15:23Z</time>
      </trkpt>
      <trkpt lat="46.34922" lon="6.75931">
        <ele>1808.4</ele>
        <time>2013-08-23T17:15:37Z</time>
      </trkpt>
      <trkpt lat="46.34921" lon="6.75925">
        <ele>1808.9</ele>
        <time>2013-08-23T17:15:44Z</time>
      </trkpt>
      <trkpt lat="46.34921" lon="6.75923">
        <ele>1808.9</ele>
        <time>2013-08-23T17:15:45Z</time>
      </trkpt>
      <trkpt lat="46.3492" lon="6.75919">
        <ele>1809.3</ele>
        <time>2013-08-23T17:15:47Z</time>
      </trkpt>
      <trkpt lat="46.3492" lon="6.75917">
        <ele>1809.8</ele>
        <time>2013-08-23T17:15:48Z</time>
      </trkpt>
      <trkpt lat="46.34918" lon="6.75912">
        <ele>1810.8</ele>
        <time>2013-08-23T17:15:58Z</time>
      </trkpt>
      <trkpt lat="46.34912" lon="6.75889">
        <ele>1813.2</ele>
        <time>2013-08-23T17:16:19Z</time>
      </trkpt>
      <trkpt lat="46.34911" lon="6.75888">
        <ele>1813.2</ele>
        <time>2013-08-23T17:16:20Z</time>
      </trkpt>
      <trkpt lat="46.34898" lon="6.75871">
        <ele>1815.1</ele>
        <time>2013-08-23T17:16:40Z</time>
      </trkpt>
      <trkpt lat="46.34892" lon="6.75868">
        <ele>1818</ele>
        <time>2013-08-23T17:16:58Z</time>
      </trkpt>
      <trkpt lat="46.34885" lon="6.75869">
        <ele>1818.5</ele>
        <time>2013-08-23T17:17:11Z</time>
      </trkpt>
      <trkpt lat="46.34876" lon="6.75875">
        <ele>1819.9</ele>
        <time>2013-08-23T17:17:25Z</time>
      </trkpt>
      <trkpt lat="46.34873" lon="6.75878">
        <ele>1820.4</ele>
        <time>2013-08-23T17:17:32Z</time>
      </trkpt>
      <trkpt lat="46.34862" lon="6.75886">
        <ele>1822.8</ele>
        <time>2013-08-23T17:17:49Z</time>
      </trkpt>
      <trkpt lat="46.3486" lon="6.7589">
        <ele>1824.2</ele>
        <time>2013-08-23T17:18:03Z</time>
      </trkpt>
      <trkpt lat="46.3486" lon="6.7589">
        <ele>1824.7</ele>
        <time>2013-08-23T17:18:17Z</time>
      </trkpt>
      <trkpt lat="46.34856" lon="6.75899">
        <ele>1826.2</ele>
        <time>2013-08-23T17:18:33Z</time>
      </trkpt>
      <trkpt lat="46.34847" lon="6.75904">
        <ele>1829.5</ele>
        <time>2013-08-23T17:18:48Z</time>
      </trkpt>
      <trkpt lat="46.34835" lon="6.75912">
        <ele>1831</ele>
        <time>2013-08-23T17:19:02Z</time>
      </trkpt>
      <trkpt lat="46.34822" lon="6.75904">
        <ele>1831.9</ele>
        <time>2013-08-23T17:19:17Z</time>
      </trkpt>
      <trkpt lat="46.3481" lon="6.75897">
        <ele>1832.9</ele>
        <time>2013-08-23T17:19:31Z</time>
      </trkpt>
      <trkpt lat="46.348" lon="6.75899">
        <ele>1835.3</ele>
        <time>2013-08-23T17:19:45Z</time>
      </trkpt>
      <trkpt lat="46.34798" lon="6.75899">
        <ele>1835.8</ele>
        <time>2013-08-23T17:19:48Z</time>
      </trkpt>
      <trkpt lat="46.34791" lon="6.75899">
        <ele>1837.7</ele>
        <time>2013-08-23T17:20:00Z</time>
      </trkpt>
      <trkpt lat="46.34784" lon="6.75905">
        <ele>1839.6</ele>
        <time>2013-08-23T17:20:13Z</time>
      </trkpt>
      <trkpt lat="46.34777" lon="6.75912">
        <ele>1841.1</ele>
        <time>2013-08-23T17:20:28Z</time>
      </trkpt>
      <trkpt lat="46.34771" lon="6.75921">
        <ele>1842.5</ele>
        <time>2013-08-23T17:20:41Z</time>
      </trkpt>
      <trkpt lat="46.34763" lon="6.75924">
        <ele>1844.9</ele>
        <time>2013-08-23T17:20:56Z</time>
      </trkpt>
      <trkpt lat="46.34756" lon="6.75929">
        <ele>1848.3</ele>
        <time>2013-08-23T17:21:11Z</time>
      </trkpt>
      <trkpt lat="46.34751" lon="6.75932">
        <ele>1849.7</ele>
        <time>2013-08-23T17:21:25Z</time>
      </trkpt>
      <trkpt lat="46.34745" lon="6.75937">
        <ele>1852.1</ele>
        <time>2013-08-23T17:21:40Z</time>
      </trkpt>
      <trkpt lat="46.34741" lon="6.75939">
        <ele>1855</ele>
        <time>2013-08-23T17:21:54Z</time>
      </trkpt>
      <trkpt lat="46.34732" lon="6.75942">
        <ele>1856</ele>
        <time>2013-08-23T17:22:08Z</time>
      </trkpt>
      <trkpt lat="46.34724" lon="6.75951">
        <ele>1857.9</ele>
        <time>2013-08-23T17:22:22Z</time>
      </trkpt>
      <trkpt lat="46.34714" lon="6.75965">
        <ele>1859.8</ele>
        <time>2013-08-23T17:22:38Z</time>
      </trkpt>
      <trkpt lat="46.34708" lon="6.75972">
        <ele>1862.2</ele>
        <time>2013-08-23T17:22:52Z</time>
      </trkpt>
      <trkpt lat="46.34705" lon="6.7597">
        <ele>1863.7</ele>
        <time>2013-08-23T17:23:05Z</time>
      </trkpt>
      <trkpt lat="46.34703" lon="6.7597">
        <ele>1864.6</ele>
        <time>2013-08-23T17:23:15Z</time>
      </trkpt>
      <trkpt lat="46.34699" lon="6.75975">
        <ele>1866.1</ele>
        <time>2013-08-23T17:23:31Z</time>
      </trkpt>
      <trkpt lat="46.34688" lon="6.75982">
        <ele>1868.9</ele>
        <time>2013-08-23T17:23:47Z</time>
      </trkpt>
      <trkpt lat="46.34682" lon="6.75982">
        <ele>1870.9</ele>
        <time>2013-08-23T17:24:01Z</time>
      </trkpt>
      <trkpt lat="46.34676" lon="6.75979">
        <ele>1873.3</ele>
        <time>2013-08-23T17:24:15Z</time>
      </trkpt>
      <trkpt lat="46.34668" lon="6.75977">
        <ele>1876.2</ele>
        <time>2013-08-23T17:24:30Z</time>
      </trkpt>
      <trkpt lat="46.34665" lon="6.75975">
        <ele>1878.1</ele>
        <time>2013-08-23T17:24:43Z</time>
      </trkpt>
      <trkpt lat="46.34661" lon="6.75975">
        <ele>1880.5</ele>
        <time>2013-08-23T17:24:57Z</time>
      </trkpt>
      <trkpt lat="46.34651" lon="6.75978">
        <ele>1881</ele>
        <time>2013-08-23T17:25:11Z</time>
      </trkpt>
      <trkpt lat="46.34646" lon="6.75974">
        <ele>1882.9</ele>
        <time>2013-08-23T17:25:25Z</time>
      </trkpt>
      <trkpt lat="46.34641" lon="6.75976">
        <ele>1884.8</ele>
        <time>2013-08-23T17:25:37Z</time>
      </trkpt>
      <trkpt lat="46.34634" lon="6.75976">
        <ele>1886.7</ele>
        <time>2013-08-23T17:25:49Z</time>
      </trkpt>
      <trkpt lat="46.3463" lon="6.75979">
        <ele>1888.2</ele>
        <time>2013-08-23T17:26:01Z</time>
      </trkpt>
      <trkpt lat="46.34626" lon="6.7598">
        <ele>1890.6</ele>
        <time>2013-08-23T17:26:14Z</time>
      </trkpt>
      <trkpt lat="46.34619" lon="6.75982">
        <ele>1891.5</ele>
        <time>2013-08-23T17:26:27Z</time>
      </trkpt>
      <trkpt lat="46.3461" lon="6.75984">
        <ele>1893.9</ele>
        <time>2013-08-23T17:26:44Z</time>
      </trkpt>
      <trkpt lat="46.346" lon="6.75994">
        <ele>1896.8</ele>
        <time>2013-08-23T17:27:01Z</time>
      </trkpt>
      <trkpt lat="46.34593" lon="6.76002">
        <ele>1899.2</ele>
        <time>2013-08-23T17:27:20Z</time>
      </trkpt>
      <trkpt lat="46.34588" lon="6.76006">
        <ele>1901.1</ele>
        <time>2013-08-23T17:27:35Z</time>
      </trkpt>
      <trkpt lat="46.34584" lon="6.76011">
        <ele>1902.6</ele>
        <time>2013-08-23T17:27:51Z</time>
      </trkpt>
      <trkpt lat="46.34576" lon="6.7602">
        <ele>1905</ele>
        <time>2013-08-23T17:28:07Z</time>
      </trkpt>
      <trkpt lat="46.34569" lon="6.76027">
        <ele>1906.4</ele>
        <time>2013-08-23T17:28:21Z</time>
      </trkpt>
      <trkpt lat="46.34563" lon="6.7603">
        <ele>1908.8</ele>
        <time>2013-08-23T17:28:34Z</time>
      </trkpt>
      <trkpt lat="46.34556" lon="6.76031">
        <ele>1910.3</ele>
        <time>2013-08-23T17:28:49Z</time>
      </trkpt>
      <trkpt lat="46.34555" lon="6.76033">
        <ele>1909.8</ele>
        <time>2013-08-23T17:29:08Z</time>
      </trkpt>
      <trkpt lat="46.34557" lon="6.76033">
        <ele>1909.8</ele>
        <time>2013-08-23T17:29:47Z</time>
      </trkpt>
      <trkpt lat="46.34556" lon="6.76032">
        <ele>1910.8</ele>
        <time>2013-08-23T17:30:28Z</time>
      </trkpt>
      <trkpt lat="46.34556" lon="6.76033">
        <ele>1910.3</ele>
        <time>2013-08-23T17:31:18Z</time>
      </trkpt>
      <trkpt lat="46.34557" lon="6.76032">
        <ele>1910.3</ele>
        <time>2013-08-23T17:32:10Z</time>
      </trkpt>
      <trkpt lat="46.34558" lon="6.76033">
        <ele>1910.8</ele>
        <time>2013-08-23T17:32:49Z</time>
      </trkpt>
      <trkpt lat="46.34558" lon="6.76032">
        <ele>1910.8</ele>
        <time>2013-08-23T17:33:02Z</time>
      </trkpt>
      <trkpt lat="46.34551" lon="6.76035">
        <ele>1908.4</ele>
        <time>2013-08-23T17:33:19Z</time>
      </trkpt>
      <trkpt lat="46.34545" lon="6.76033">
        <ele>1906.4</ele>
        <time>2013-08-23T17:33:32Z</time>
      </trkpt>
      <trkpt lat="46.3454" lon="6.7604">
        <ele>1902.6</ele>
        <time>2013-08-23T17:33:42Z</time>
      </trkpt>
      <trkpt lat="46.34538" lon="6.76041">
        <ele>1902.1</ele>
        <time>2013-08-23T17:33:48Z</time>
      </trkpt>
      <trkpt lat="46.34537" lon="6.76042">
        <ele>1902.1</ele>
        <time>2013-08-23T17:33:49Z</time>
      </trkpt>
      <trkpt lat="46.34536" lon="6.76043">
        <ele>1901.1</ele>
        <time>2013-08-23T17:33:50Z</time>
      </trkpt>
      <trkpt lat="46.34534" lon="6.76044">
        <ele>1901.1</ele>
        <time>2013-08-23T17:33:51Z</time>
      </trkpt>
      <trkpt lat="46.34533" lon="6.76045">
        <ele>1899.7</ele>
        <time>2013-08-23T17:33:52Z</time>
      </trkpt>
      <trkpt lat="46.34531" lon="6.76045">
        <ele>1900.2</ele>
        <time>2013-08-23T17:33:53Z</time>
      </trkpt>
      <trkpt lat="46.3453" lon="6.76046">
        <ele>1898.7</ele>
        <time>2013-08-23T17:33:54Z</time>
      </trkpt>
      <trkpt lat="46.34529" lon="6.76047">
        <ele>1898.3</ele>
        <time>2013-08-23T17:34:05Z</time>
      </trkpt>
      <trkpt lat="46.34527" lon="6.76049">
        <ele>1896.8</ele>
        <time>2013-08-23T17:34:21Z</time>
      </trkpt>
      <trkpt lat="46.34522" lon="6.76053">
        <ele>1895.9</ele>
        <time>2013-08-23T17:34:27Z</time>
      </trkpt>
      <trkpt lat="46.3452" lon="6.76054">
        <ele>1895.4</ele>
        <time>2013-08-23T17:34:28Z</time>
      </trkpt>
      <trkpt lat="46.34517" lon="6.76058">
        <ele>1893.5</ele>
        <time>2013-08-23T17:34:32Z</time>
      </trkpt>
      <trkpt lat="46.34514" lon="6.76058">
        <ele>1891.5</ele>
        <time>2013-08-23T17:34:48Z</time>
      </trkpt>
      <trkpt lat="46.34508" lon="6.76056">
        <ele>1888.7</ele>
        <time>2013-08-23T17:35:03Z</time>
      </trkpt>
      <trkpt lat="46.34506" lon="6.76054">
        <ele>1887.2</ele>
        <time>2013-08-23T17:35:15Z</time>
      </trkpt>
      <trkpt lat="46.34501" lon="6.76063">
        <ele>1884.8</ele>
        <time>2013-08-23T17:35:28Z</time>
      </trkpt>
      <trkpt lat="46.34498" lon="6.76064">
        <ele>1883.8</ele>
        <time>2013-08-23T17:35:42Z</time>
      </trkpt>
      <trkpt lat="46.34495" lon="6.76054">
        <ele>1882.4</ele>
        <time>2013-08-23T17:35:55Z</time>
      </trkpt>
      <trkpt lat="46.34495" lon="6.76054">
        <ele>1881</ele>
        <time>2013-08-23T17:36:14Z</time>
      </trkpt>
      <trkpt lat="46.34494" lon="6.7605">
        <ele>1881</ele>
        <time>2013-08-23T17:36:34Z</time>
      </trkpt>
      <trkpt lat="46.34494" lon="6.76048">
        <ele>1880.5</ele>
        <time>2013-08-23T17:36:35Z</time>
      </trkpt>
      <trkpt lat="46.34494" lon="6.76046">
        <ele>1880</ele>
        <time>2013-08-23T17:36:36Z</time>
      </trkpt>
      <trkpt lat="46.34493" lon="6.76039">
        <ele>1879</ele>
        <time>2013-08-23T17:36:39Z</time>
      </trkpt>
      <trkpt lat="46.34493" lon="6.76036">
        <ele>1878.1</ele>
        <time>2013-08-23T17:36:40Z</time>
      </trkpt>
      <trkpt lat="46.34492" lon="6.76033">
        <ele>1877.6</ele>
        <time>2013-08-23T17:36:41Z</time>
      </trkpt>
      <trkpt lat="46.34493" lon="6.76031">
        <ele>1876.6</ele>
        <time>2013-08-23T17:36:42Z</time>
      </trkpt>
      <trkpt lat="46.34493" lon="6.76029">
        <ele>1876.2</ele>
        <time>2013-08-23T17:36:43Z</time>
      </trkpt>
      <trkpt lat="46.34492" lon="6.76027">
        <ele>1876.2</ele>
        <time>2013-08-23T17:36:44Z</time>
      </trkpt>
      <trkpt lat="46.34491" lon="6.76025">
        <ele>1875.2</ele>
        <time>2013-08-23T17:36:46Z</time>
      </trkpt>
      <trkpt lat="46.3449" lon="6.76025">
        <ele>1874.2</ele>
        <time>2013-08-23T17:36:47Z</time>
      </trkpt>
      <trkpt lat="46.34488" lon="6.76025">
        <ele>1874.2</ele>
        <time>2013-08-23T17:36:48Z</time>
      </trkpt>
      <trkpt lat="46.34485" lon="6.76027">
        <ele>1873.3</ele>
        <time>2013-08-23T17:36:59Z</time>
      </trkpt>
      <trkpt lat="46.34483" lon="6.7603">
        <ele>1871.8</ele>
        <time>2013-08-23T17:37:03Z</time>
      </trkpt>
      <trkpt lat="46.34477" lon="6.76036">
        <ele>1868.5</ele>
        <time>2013-08-23T17:37:15Z</time>
      </trkpt>
      <trkpt lat="46.34471" lon="6.76034">
        <ele>1867</ele>
        <time>2013-08-23T17:37:20Z</time>
      </trkpt>
      <trkpt lat="46.3447" lon="6.76031">
        <ele>1866.1</ele>
        <time>2013-08-23T17:37:22Z</time>
      </trkpt>
      <trkpt lat="46.3447" lon="6.76029">
        <ele>1866.1</ele>
        <time>2013-08-23T17:37:23Z</time>
      </trkpt>
      <trkpt lat="46.3447" lon="6.76026">
        <ele>1865.6</ele>
        <time>2013-08-23T17:37:25Z</time>
      </trkpt>
      <trkpt lat="46.34469" lon="6.76025">
        <ele>1865.1</ele>
        <time>2013-08-23T17:37:26Z</time>
      </trkpt>
      <trkpt lat="46.34467" lon="6.76019">
        <ele>1863.2</ele>
        <time>2013-08-23T17:37:38Z</time>
      </trkpt>
      <trkpt lat="46.34464" lon="6.76011">
        <ele>1861.7</ele>
        <time>2013-08-23T17:37:45Z</time>
      </trkpt>
      <trkpt lat="46.34464" lon="6.7601">
        <ele>1861.3</ele>
        <time>2013-08-23T17:37:46Z</time>
      </trkpt>
      <trkpt lat="46.34463" lon="6.76009">
        <ele>1860.8</ele>
        <time>2013-08-23T17:37:47Z</time>
      </trkpt>
      <trkpt lat="46.34459" lon="6.76001">
        <ele>1857.9</ele>
        <time>2013-08-23T17:37:57Z</time>
      </trkpt>
      <trkpt lat="46.34455" lon="6.75994">
        <ele>1855.5</ele>
        <time>2013-08-23T17:38:10Z</time>
      </trkpt>
      <trkpt lat="46.34453" lon="6.75992">
        <ele>1853.1</ele>
        <time>2013-08-23T17:38:15Z</time>
      </trkpt>
      <trkpt lat="46.3445" lon="6.75989">
        <ele>1852.1</ele>
        <time>2013-08-23T17:38:20Z</time>
      </trkpt>
      <trkpt lat="46.34446" lon="6.75998">
        <ele>1849.2</ele>
        <time>2013-08-23T17:38:31Z</time>
      </trkpt>
      <trkpt lat="46.34445" lon="6.75999">
        <ele>1849.2</ele>
        <time>2013-08-23T17:38:32Z</time>
      </trkpt>
      <trkpt lat="46.3444" lon="6.76006">
        <ele>1846.4</ele>
        <time>2013-08-23T17:38:46Z</time>
      </trkpt>
      <trkpt lat="46.34439" lon="6.76007">
        <ele>1846.4</ele>
        <time>2013-08-23T17:38:47Z</time>
      </trkpt>
      <trkpt lat="46.34435" lon="6.76007">
        <ele>1844</ele>
        <time>2013-08-23T17:38:59Z</time>
      </trkpt>
      <trkpt lat="46.34431" lon="6.75999">
        <ele>1842</ele>
        <time>2013-08-23T17:39:10Z</time>
      </trkpt>
      <trkpt lat="46.34431" lon="6.7599">
        <ele>1840.1</ele>
        <time>2013-08-23T17:39:18Z</time>
      </trkpt>
      <trkpt lat="46.34426" lon="6.75984">
        <ele>1838.2</ele>
        <time>2013-08-23T17:39:29Z</time>
      </trkpt>
      <trkpt lat="46.34426" lon="6.75986">
        <ele>1837.2</ele>
        <time>2013-08-23T17:39:32Z</time>
      </trkpt>
      <trkpt lat="46.34425" lon="6.75988">
        <ele>1836.7</ele>
        <time>2013-08-23T17:39:45Z</time>
      </trkpt>
      <trkpt lat="46.34423" lon="6.75995">
        <ele>1835.8</ele>
        <time>2013-08-23T17:39:59Z</time>
      </trkpt>
      <trkpt lat="46.34419" lon="6.76001">
        <ele>1831.5</ele>
        <time>2013-08-23T17:40:09Z</time>
      </trkpt>
      <trkpt lat="46.34418" lon="6.76">
        <ele>1832.4</ele>
        <time>2013-08-23T17:40:10Z</time>
      </trkpt>
      <trkpt lat="46.34414" lon="6.76003">
        <ele>1830.5</ele>
        <time>2013-08-23T17:40:15Z</time>
      </trkpt>
      <trkpt lat="46.34413" lon="6.76004">
        <ele>1830</ele>
        <time>2013-08-23T17:40:16Z</time>
      </trkpt>
      <trkpt lat="46.34411" lon="6.76004">
        <ele>1830.5</ele>
        <time>2013-08-23T17:40:17Z</time>
      </trkpt>
      <trkpt lat="46.3441" lon="6.76005">
        <ele>1829.1</ele>
        <time>2013-08-23T17:40:18Z</time>
      </trkpt>
      <trkpt lat="46.34409" lon="6.76006">
        <ele>1829.1</ele>
        <time>2013-08-23T17:40:19Z</time>
      </trkpt>
      <trkpt lat="46.34408" lon="6.76007">
        <ele>1828.6</ele>
        <time>2013-08-23T17:40:20Z</time>
      </trkpt>
      <trkpt lat="46.34407" lon="6.76008">
        <ele>1828.6</ele>
        <time>2013-08-23T17:40:21Z</time>
      </trkpt>
      <trkpt lat="46.34406" lon="6.7601">
        <ele>1827.6</ele>
        <time>2013-08-23T17:40:22Z</time>
      </trkpt>
      <trkpt lat="46.34399" lon="6.76012">
        <ele>1825.2</ele>
        <time>2013-08-23T17:40:33Z</time>
      </trkpt>
      <trkpt lat="46.34398" lon="6.76008">
        <ele>1824.7</ele>
        <time>2013-08-23T17:40:55Z</time>
      </trkpt>
      <trkpt lat="46.34396" lon="6.76011">
        <ele>1822.8</ele>
        <time>2013-08-23T17:40:59Z</time>
      </trkpt>
      <trkpt lat="46.34396" lon="6.76013">
        <ele>1822.3</ele>
        <time>2013-08-23T17:41:00Z</time>
      </trkpt>
      <trkpt lat="46.34395" lon="6.76014">
        <ele>1822.8</ele>
        <time>2013-08-23T17:41:01Z</time>
      </trkpt>
      <trkpt lat="46.34395" lon="6.76015">
        <ele>1822.3</ele>
        <time>2013-08-23T17:41:02Z</time>
      </trkpt>
      <trkpt lat="46.34395" lon="6.76017">
        <ele>1822.3</ele>
        <time>2013-08-23T17:41:03Z</time>
      </trkpt>
      <trkpt lat="46.34393" lon="6.76021">
        <ele>1820.4</ele>
        <time>2013-08-23T17:41:07Z</time>
      </trkpt>
      <trkpt lat="46.34392" lon="6.76022">
        <ele>1820.4</ele>
        <time>2013-08-23T17:41:08Z</time>
      </trkpt>
      <trkpt lat="46.34386" lon="6.76023">
        <ele>1818</ele>
        <time>2013-08-23T17:41:15Z</time>
      </trkpt>
      <trkpt lat="46.34381" lon="6.76021">
        <ele>1816.6</ele>
        <time>2013-08-23T17:41:21Z</time>
      </trkpt>
      <trkpt lat="46.34378" lon="6.76022">
        <ele>1815.6</ele>
        <time>2013-08-23T17:41:35Z</time>
      </trkpt>
      <trkpt lat="46.34367" lon="6.76024">
        <ele>1813.2</ele>
        <time>2013-08-23T17:41:46Z</time>
      </trkpt>
      <trkpt lat="46.34362" lon="6.76024">
        <ele>1810.8</ele>
        <time>2013-08-23T17:41:50Z</time>
      </trkpt>
      <trkpt lat="46.34353" lon="6.76022">
        <ele>1806.9</ele>
        <time>2013-08-23T17:41:55Z</time>
      </trkpt>
      <trkpt lat="46.34349" lon="6.76022">
        <ele>1806</ele>
        <time>2013-08-23T17:41:57Z</time>
      </trkpt>
      <trkpt lat="46.34347" lon="6.76022">
        <ele>1805.5</ele>
        <time>2013-08-23T17:41:58Z</time>
      </trkpt>
      <trkpt lat="46.34345" lon="6.76023">
        <ele>1804.5</ele>
        <time>2013-08-23T17:41:59Z</time>
      </trkpt>
      <trkpt lat="46.34343" lon="6.76024">
        <ele>1804.5</ele>
        <time>2013-08-23T17:42:00Z</time>
      </trkpt>
      <trkpt lat="46.34341" lon="6.76025">
        <ele>1803.6</ele>
        <time>2013-08-23T17:42:01Z</time>
      </trkpt>
      <trkpt lat="46.34335" lon="6.76028">
        <ele>1801.2</ele>
        <time>2013-08-23T17:42:12Z</time>
      </trkpt>
      <trkpt lat="46.34329" lon="6.76027">
        <ele>1799.7</ele>
        <time>2013-08-23T17:42:19Z</time>
      </trkpt>
      <trkpt lat="46.34328" lon="6.76026">
        <ele>1798.8</ele>
        <time>2013-08-23T17:42:20Z</time>
      </trkpt>
      <trkpt lat="46.34322" lon="6.76028">
        <ele>1796.8</ele>
        <time>2013-08-23T17:42:26Z</time>
      </trkpt>
      <trkpt lat="46.34321" lon="6.76029">
        <ele>1796.8</ele>
        <time>2013-08-23T17:42:27Z</time>
      </trkpt>
      <trkpt lat="46.3432" lon="6.76029">
        <ele>1796.4</ele>
        <time>2013-08-23T17:42:28Z</time>
      </trkpt>
      <trkpt lat="46.34313" lon="6.76032">
        <ele>1795.4</ele>
        <time>2013-08-23T17:42:35Z</time>
      </trkpt>
      <trkpt lat="46.34298" lon="6.76031">
        <ele>1793</ele>
        <time>2013-08-23T17:42:49Z</time>
      </trkpt>
      <trkpt lat="46.34292" lon="6.76032">
        <ele>1791.6</ele>
        <time>2013-08-23T17:42:57Z</time>
      </trkpt>
      <trkpt lat="46.34291" lon="6.76032">
        <ele>1791.1</ele>
        <time>2013-08-23T17:42:58Z</time>
      </trkpt>
      <trkpt lat="46.34285" lon="6.76034">
        <ele>1789.6</ele>
        <time>2013-08-23T17:43:01Z</time>
      </trkpt>
      <trkpt lat="46.34272" lon="6.76035">
        <ele>1786.8</ele>
        <time>2013-08-23T17:43:07Z</time>
      </trkpt>
      <trkpt lat="46.34271" lon="6.76034">
        <ele>1785.8</ele>
        <time>2013-08-23T17:43:08Z</time>
      </trkpt>
      <trkpt lat="46.34269" lon="6.76033">
        <ele>1784.3</ele>
        <time>2013-08-23T17:43:09Z</time>
      </trkpt>
      <trkpt lat="46.34267" lon="6.76033">
        <ele>1784.8</ele>
        <time>2013-08-23T17:43:10Z</time>
      </trkpt>
      <trkpt lat="46.34265" lon="6.76033">
        <ele>1783.4</ele>
        <time>2013-08-23T17:43:11Z</time>
      </trkpt>
      <trkpt lat="46.34264" lon="6.76033">
        <ele>1782.4</ele>
        <time>2013-08-23T17:43:12Z</time>
      </trkpt>
      <trkpt lat="46.34262" lon="6.76033">
        <ele>1782.9</ele>
        <time>2013-08-23T17:43:13Z</time>
      </trkpt>
      <trkpt lat="46.34258" lon="6.76034">
        <ele>1781.5</ele>
        <time>2013-08-23T17:43:24Z</time>
      </trkpt>
      <trkpt lat="46.34253" lon="6.76037">
        <ele>1780.5</ele>
        <time>2013-08-23T17:43:29Z</time>
      </trkpt>
      <trkpt lat="46.34242" lon="6.76036">
        <ele>1778.6</ele>
        <time>2013-08-23T17:43:42Z</time>
      </trkpt>
      <trkpt lat="46.3424" lon="6.76037">
        <ele>1777.1</ele>
        <time>2013-08-23T17:43:45Z</time>
      </trkpt>
      <trkpt lat="46.34232" lon="6.76033">
        <ele>1773.8</ele>
        <time>2013-08-23T17:43:55Z</time>
      </trkpt>
      <trkpt lat="46.34228" lon="6.76033">
        <ele>1772.8</ele>
        <time>2013-08-23T17:44:05Z</time>
      </trkpt>
      <trkpt lat="46.34227" lon="6.76033">
        <ele>1772.8</ele>
        <time>2013-08-23T17:44:06Z</time>
      </trkpt>
      <trkpt lat="46.34222" lon="6.76034">
        <ele>1770.9</ele>
        <time>2013-08-23T17:44:09Z</time>
      </trkpt>
      <trkpt lat="46.34215" lon="6.76036">
        <ele>1769</ele>
        <time>2013-08-23T17:44:12Z</time>
      </trkpt>
      <trkpt lat="46.34205" lon="6.76038">
        <ele>1766.1</ele>
        <time>2013-08-23T17:44:16Z</time>
      </trkpt>
      <trkpt lat="46.342" lon="6.7604">
        <ele>1765.1</ele>
        <time>2013-08-23T17:44:18Z</time>
      </trkpt>
      <trkpt lat="46.34195" lon="6.76039">
        <ele>1763.2</ele>
        <time>2013-08-23T17:44:21Z</time>
      </trkpt>
      <trkpt lat="46.34193" lon="6.76039">
        <ele>1762.2</ele>
        <time>2013-08-23T17:44:22Z</time>
      </trkpt>
      <trkpt lat="46.34191" lon="6.76039">
        <ele>1760.8</ele>
        <time>2013-08-23T17:44:23Z</time>
      </trkpt>
      <trkpt lat="46.34188" lon="6.7604">
        <ele>1760.3</ele>
        <time>2013-08-23T17:44:24Z</time>
      </trkpt>
      <trkpt lat="46.34186" lon="6.76041">
        <ele>1760.3</ele>
        <time>2013-08-23T17:44:25Z</time>
      </trkpt>
      <trkpt lat="46.34183" lon="6.76043">
        <ele>1759.4</ele>
        <time>2013-08-23T17:44:26Z</time>
      </trkpt>
      <trkpt lat="46.34173" lon="6.76047">
        <ele>1756.5</ele>
        <time>2013-08-23T17:44:35Z</time>
      </trkpt>
      <trkpt lat="46.3417" lon="6.76047">
        <ele>1756</ele>
        <time>2013-08-23T17:44:38Z</time>
      </trkpt>
      <trkpt lat="46.34169" lon="6.76047">
        <ele>1755</ele>
        <time>2013-08-23T17:44:39Z</time>
      </trkpt>
      <trkpt lat="46.34163" lon="6.76044">
        <ele>1752.6</ele>
        <time>2013-08-23T17:44:50Z</time>
      </trkpt>
      <trkpt lat="46.34155" lon="6.76033">
        <ele>1749.3</ele>
        <time>2013-08-23T17:45:03Z</time>
      </trkpt>
      <trkpt lat="46.34157" lon="6.76034">
        <ele>1749.7</ele>
        <time>2013-08-23T17:45:17Z</time>
      </trkpt>
      <trkpt lat="46.34154" lon="6.76038">
        <ele>1749.3</ele>
        <time>2013-08-23T17:45:35Z</time>
      </trkpt>
      <trkpt lat="46.34153" lon="6.76039">
        <ele>1749.7</ele>
        <time>2013-08-23T17:45:36Z</time>
      </trkpt>
      <trkpt lat="46.34145" lon="6.76043">
        <ele>1748.3</ele>
        <time>2013-08-23T17:45:42Z</time>
      </trkpt>
      <trkpt lat="46.34143" lon="6.76043">
        <ele>1748.3</ele>
        <time>2013-08-23T17:45:43Z</time>
      </trkpt>
      <trkpt lat="46.34141" lon="6.76043">
        <ele>1748.3</ele>
        <time>2013-08-23T17:45:44Z</time>
      </trkpt>
      <trkpt lat="46.3414" lon="6.76043">
        <ele>1747.8</ele>
        <time>2013-08-23T17:45:45Z</time>
      </trkpt>
      <trkpt lat="46.34138" lon="6.76043">
        <ele>1747.8</ele>
        <time>2013-08-23T17:45:46Z</time>
      </trkpt>
      <trkpt lat="46.34136" lon="6.76043">
        <ele>1747.3</ele>
        <time>2013-08-23T17:45:47Z</time>
      </trkpt>
      <trkpt lat="46.34134" lon="6.76044">
        <ele>1747.3</ele>
        <time>2013-08-23T17:45:48Z</time>
      </trkpt>
      <trkpt lat="46.34132" lon="6.76044">
        <ele>1745.9</ele>
        <time>2013-08-23T17:45:49Z</time>
      </trkpt>
      <trkpt lat="46.34131" lon="6.76044">
        <ele>1745.9</ele>
        <time>2013-08-23T17:45:50Z</time>
      </trkpt>
      <trkpt lat="46.34119" lon="6.76041">
        <ele>1742.5</ele>
        <time>2013-08-23T17:45:56Z</time>
      </trkpt>
      <trkpt lat="46.3411" lon="6.76038">
        <ele>1740.1</ele>
        <time>2013-08-23T17:46:00Z</time>
      </trkpt>
      <trkpt lat="46.34094" lon="6.76023">
        <ele>1736.3</ele>
        <time>2013-08-23T17:46:08Z</time>
      </trkpt>
      <trkpt lat="46.34083" lon="6.76012">
        <ele>1732.9</ele>
        <time>2013-08-23T17:46:14Z</time>
      </trkpt>
      <trkpt lat="46.34083" lon="6.76009">
        <ele>1732.4</ele>
        <time>2013-08-23T17:46:20Z</time>
      </trkpt>
      <trkpt lat="46.34082" lon="6.76008">
        <ele>1732.4</ele>
        <time>2013-08-23T17:46:21Z</time>
      </trkpt>
      <trkpt lat="46.34082" lon="6.76007">
        <ele>1731.5</ele>
        <time>2013-08-23T17:46:22Z</time>
      </trkpt>
      <trkpt lat="46.34081" lon="6.76005">
        <ele>1731</ele>
        <time>2013-08-23T17:46:23Z</time>
      </trkpt>
      <trkpt lat="46.3408" lon="6.76004">
        <ele>1731</ele>
        <time>2013-08-23T17:46:24Z</time>
      </trkpt>
      <trkpt lat="46.34075" lon="6.75999">
        <ele>1728.1</ele>
        <time>2013-08-23T17:46:30Z</time>
      </trkpt>
      <trkpt lat="46.34073" lon="6.76001">
        <ele>1727.6</ele>
        <time>2013-08-23T17:46:44Z</time>
      </trkpt>
      <trkpt lat="46.34073" lon="6.76002">
        <ele>1727.2</ele>
        <time>2013-08-23T17:46:48Z</time>
      </trkpt>
      <trkpt lat="46.34073" lon="6.76004">
        <ele>1727.2</ele>
        <time>2013-08-23T17:46:49Z</time>
      </trkpt>
      <trkpt lat="46.34072" lon="6.76006">
        <ele>1726.7</ele>
        <time>2013-08-23T17:46:50Z</time>
      </trkpt>
      <trkpt lat="46.34071" lon="6.76007">
        <ele>1726.7</ele>
        <time>2013-08-23T17:46:51Z</time>
      </trkpt>
      <trkpt lat="46.3407" lon="6.76009">
        <ele>1725.7</ele>
        <time>2013-08-23T17:46:52Z</time>
      </trkpt>
      <trkpt lat="46.34068" lon="6.7601">
        <ele>1724.7</ele>
        <time>2013-08-23T17:46:53Z</time>
      </trkpt>
      <trkpt lat="46.34066" lon="6.76011">
        <ele>1724.7</ele>
        <time>2013-08-23T17:46:54Z</time>
      </trkpt>
      <trkpt lat="46.34065" lon="6.76011">
        <ele>1723.8</ele>
        <time>2013-08-23T17:46:55Z</time>
      </trkpt>
      <trkpt lat="46.34064" lon="6.76009">
        <ele>1722.8</ele>
        <time>2013-08-23T17:46:56Z</time>
      </trkpt>
      <trkpt lat="46.34062" lon="6.76007">
        <ele>1723.3</ele>
        <time>2013-08-23T17:46:57Z</time>
      </trkpt>
      <trkpt lat="46.3406" lon="6.76006">
        <ele>1722.3</ele>
        <time>2013-08-23T17:46:58Z</time>
      </trkpt>
      <trkpt lat="46.34058" lon="6.76005">
        <ele>1721.4</ele>
        <time>2013-08-23T17:46:59Z</time>
      </trkpt>
      <trkpt lat="46.34056" lon="6.76003">
        <ele>1720.4</ele>
        <time>2013-08-23T17:47:00Z</time>
      </trkpt>
      <trkpt lat="46.34055" lon="6.76001">
        <ele>1719.5</ele>
        <time>2013-08-23T17:47:01Z</time>
      </trkpt>
      <trkpt lat="46.34053" lon="6.76">
        <ele>1719</ele>
        <time>2013-08-23T17:47:02Z</time>
      </trkpt>
      <trkpt lat="46.34051" lon="6.76001">
        <ele>1718.5</ele>
        <time>2013-08-23T17:47:03Z</time>
      </trkpt>
      <trkpt lat="46.3405" lon="6.76002">
        <ele>1718</ele>
        <time>2013-08-23T17:47:04Z</time>
      </trkpt>
      <trkpt lat="46.34049" lon="6.76004">
        <ele>1717.1</ele>
        <time>2013-08-23T17:47:05Z</time>
      </trkpt>
      <trkpt lat="46.34048" lon="6.76006">
        <ele>1717.5</ele>
        <time>2013-08-23T17:47:06Z</time>
      </trkpt>
      <trkpt lat="46.34045" lon="6.76011">
        <ele>1715.1</ele>
        <time>2013-08-23T17:47:18Z</time>
      </trkpt>
      <trkpt lat="46.3404" lon="6.76019">
        <ele>1711.3</ele>
        <time>2013-08-23T17:47:31Z</time>
      </trkpt>
      <trkpt lat="46.34032" lon="6.76025">
        <ele>1707.9</ele>
        <time>2013-08-23T17:47:38Z</time>
      </trkpt>
      <trkpt lat="46.34031" lon="6.76026">
        <ele>1707.9</ele>
        <time>2013-08-23T17:47:39Z</time>
      </trkpt>
      <trkpt lat="46.34026" lon="6.7603">
        <ele>1706</ele>
        <time>2013-08-23T17:47:44Z</time>
      </trkpt>
      <trkpt lat="46.34025" lon="6.76031">
        <ele>1704.6</ele>
        <time>2013-08-23T17:47:47Z</time>
      </trkpt>
      <trkpt lat="46.34023" lon="6.76031">
        <ele>1704.6</ele>
        <time>2013-08-23T17:48:00Z</time>
      </trkpt>
      <trkpt lat="46.34022" lon="6.76025">
        <ele>1702.2</ele>
        <time>2013-08-23T17:48:16Z</time>
      </trkpt>
      <trkpt lat="46.34021" lon="6.76022">
        <ele>1701.7</ele>
        <time>2013-08-23T17:48:34Z</time>
      </trkpt>
      <trkpt lat="46.3402" lon="6.76018">
        <ele>1700.2</ele>
        <time>2013-08-23T17:48:46Z</time>
      </trkpt>
      <trkpt lat="46.3402" lon="6.76014">
        <ele>1698.3</ele>
        <time>2013-08-23T17:48:54Z</time>
      </trkpt>
      <trkpt lat="46.34017" lon="6.76007">
        <ele>1695.4</ele>
        <time>2013-08-23T17:49:06Z</time>
      </trkpt>
      <trkpt lat="46.34015" lon="6.76009">
        <ele>1694.5</ele>
        <time>2013-08-23T17:49:19Z</time>
      </trkpt>
      <trkpt lat="46.34008" lon="6.76018">
        <ele>1692.1</ele>
        <time>2013-08-23T17:49:25Z</time>
      </trkpt>
      <trkpt lat="46.34006" lon="6.7602">
        <ele>1690.6</ele>
        <time>2013-08-23T17:49:37Z</time>
      </trkpt>
      <trkpt lat="46.33997" lon="6.76027">
        <ele>1688.2</ele>
        <time>2013-08-23T17:49:42Z</time>
      </trkpt>
      <trkpt lat="46.33989" lon="6.7603">
        <ele>1685.8</ele>
        <time>2013-08-23T17:49:46Z</time>
      </trkpt>
      <trkpt lat="46.33983" lon="6.76035">
        <ele>1683.9</ele>
        <time>2013-08-23T17:49:49Z</time>
      </trkpt>
      <trkpt lat="46.33979" lon="6.7604">
        <ele>1681.5</ele>
        <time>2013-08-23T17:49:52Z</time>
      </trkpt>
      <trkpt lat="46.33977" lon="6.76043">
        <ele>1680</ele>
        <time>2013-08-23T17:49:53Z</time>
      </trkpt>
      <trkpt lat="46.33973" lon="6.76048">
        <ele>1679.6</ele>
        <time>2013-08-23T17:49:55Z</time>
      </trkpt>
      <trkpt lat="46.33968" lon="6.76054">
        <ele>1677.2</ele>
        <time>2013-08-23T17:49:58Z</time>
      </trkpt>
      <trkpt lat="46.3396" lon="6.76057">
        <ele>1673.8</ele>
        <time>2013-08-23T17:50:02Z</time>
      </trkpt>
      <trkpt lat="46.33958" lon="6.76058">
        <ele>1673.3</ele>
        <time>2013-08-23T17:50:03Z</time>
      </trkpt>
      <trkpt lat="46.33956" lon="6.76059">
        <ele>1672.8</ele>
        <time>2013-08-23T17:50:04Z</time>
      </trkpt>
      <trkpt lat="46.33953" lon="6.76063">
        <ele>1671.4</ele>
        <time>2013-08-23T17:50:06Z</time>
      </trkpt>
      <trkpt lat="46.33943" lon="6.76073">
        <ele>1668</ele>
        <time>2013-08-23T17:50:11Z</time>
      </trkpt>
      <trkpt lat="46.33935" lon="6.76079">
        <ele>1664.2</ele>
        <time>2013-08-23T17:50:15Z</time>
      </trkpt>
      <trkpt lat="46.33926" lon="6.76084">
        <ele>1663.2</ele>
        <time>2013-08-23T17:50:19Z</time>
      </trkpt>
      <trkpt lat="46.33924" lon="6.76084">
        <ele>1662.7</ele>
        <time>2013-08-23T17:50:20Z</time>
      </trkpt>
      <trkpt lat="46.33922" lon="6.76083">
        <ele>1661.8</ele>
        <time>2013-08-23T17:50:21Z</time>
      </trkpt>
      <trkpt lat="46.33921" lon="6.76083">
        <ele>1661.3</ele>
        <time>2013-08-23T17:50:22Z</time>
      </trkpt>
      <trkpt lat="46.33919" lon="6.76083">
        <ele>1660.8</ele>
        <time>2013-08-23T17:50:23Z</time>
      </trkpt>
      <trkpt lat="46.33917" lon="6.76083">
        <ele>1659.4</ele>
        <time>2013-08-23T17:50:24Z</time>
      </trkpt>
      <trkpt lat="46.33909" lon="6.76084">
        <ele>1657</ele>
        <time>2013-08-23T17:50:27Z</time>
      </trkpt>
      <trkpt lat="46.33899" lon="6.7609">
        <ele>1652.6</ele>
        <time>2013-08-23T17:50:31Z</time>
      </trkpt>
      <trkpt lat="46.33889" lon="6.7609">
        <ele>1649.8</ele>
        <time>2013-08-23T17:50:34Z</time>
      </trkpt>
      <trkpt lat="46.33885" lon="6.76091">
        <ele>1648.3</ele>
        <time>2013-08-23T17:50:35Z</time>
      </trkpt>
      <trkpt lat="46.33881" lon="6.76093">
        <ele>1647.4</ele>
        <time>2013-08-23T17:50:36Z</time>
      </trkpt>
      <trkpt lat="46.33873" lon="6.76096">
        <ele>1646.9</ele>
        <time>2013-08-23T17:50:38Z</time>
      </trkpt>
      <trkpt lat="46.33866" lon="6.761">
        <ele>1644.5</ele>
        <time>2013-08-23T17:50:41Z</time>
      </trkpt>
      <trkpt lat="46.33863" lon="6.76099">
        <ele>1643.5</ele>
        <time>2013-08-23T17:50:45Z</time>
      </trkpt>
      <trkpt lat="46.33854" lon="6.76092">
        <ele>1642.6</ele>
        <time>2013-08-23T17:50:50Z</time>
      </trkpt>
      <trkpt lat="46.33844" lon="6.76088">
        <ele>1639.7</ele>
        <time>2013-08-23T17:50:53Z</time>
      </trkpt>
      <trkpt lat="46.33841" lon="6.76089">
        <ele>1639.2</ele>
        <time>2013-08-23T17:50:54Z</time>
      </trkpt>
      <trkpt lat="46.33838" lon="6.76093">
        <ele>1639.2</ele>
        <time>2013-08-23T17:50:55Z</time>
      </trkpt>
      <trkpt lat="46.33835" lon="6.76096">
        <ele>1637.3</ele>
        <time>2013-08-23T17:50:56Z</time>
      </trkpt>
      <trkpt lat="46.33832" lon="6.76099">
        <ele>1637.3</ele>
        <time>2013-08-23T17:50:57Z</time>
      </trkpt>
      <trkpt lat="46.33829" lon="6.76102">
        <ele>1635.8</ele>
        <time>2013-08-23T17:50:58Z</time>
      </trkpt>
      <trkpt lat="46.33826" lon="6.76104">
        <ele>1635.8</ele>
        <time>2013-08-23T17:50:59Z</time>
      </trkpt>
      <trkpt lat="46.33812" lon="6.76117">
        <ele>1632.5</ele>
        <time>2013-08-23T17:51:05Z</time>
      </trkpt>
      <trkpt lat="46.338" lon="6.76125">
        <ele>1627.7</ele>
        <time>2013-08-23T17:51:09Z</time>
      </trkpt>
      <trkpt lat="46.3379" lon="6.7613">
        <ele>1623.3</ele>
        <time>2013-08-23T17:51:13Z</time>
      </trkpt>
      <trkpt lat="46.33785" lon="6.76136">
        <ele>1622.4</ele>
        <time>2013-08-23T17:51:15Z</time>
      </trkpt>
      <trkpt lat="46.3378" lon="6.76143">
        <ele>1620.4</ele>
        <time>2013-08-23T17:51:17Z</time>
      </trkpt>
      <trkpt lat="46.3377" lon="6.76154">
        <ele>1617.6</ele>
        <time>2013-08-23T17:51:21Z</time>
      </trkpt>
      <trkpt lat="46.33761" lon="6.76159">
        <ele>1613.7</ele>
        <time>2013-08-23T17:51:24Z</time>
      </trkpt>
      <trkpt lat="46.33755" lon="6.76159">
        <ele>1611.8</ele>
        <time>2013-08-23T17:51:26Z</time>
      </trkpt>
      <trkpt lat="46.3375" lon="6.76159">
        <ele>1611.3</ele>
        <time>2013-08-23T17:51:28Z</time>
      </trkpt>
      <trkpt lat="46.33747" lon="6.7616">
        <ele>1611.3</ele>
        <time>2013-08-23T17:51:29Z</time>
      </trkpt>
      <trkpt lat="46.33745" lon="6.76163">
        <ele>1610.4</ele>
        <time>2013-08-23T17:51:30Z</time>
      </trkpt>
      <trkpt lat="46.33743" lon="6.76165">
        <ele>1608.4</ele>
        <time>2013-08-23T17:51:31Z</time>
      </trkpt>
      <trkpt lat="46.3374" lon="6.76167">
        <ele>1607.5</ele>
        <time>2013-08-23T17:51:32Z</time>
      </trkpt>
      <trkpt lat="46.33738" lon="6.7617">
        <ele>1606</ele>
        <time>2013-08-23T17:51:33Z</time>
      </trkpt>
      <trkpt lat="46.33737" lon="6.76174">
        <ele>1606</ele>
        <time>2013-08-23T17:51:34Z</time>
      </trkpt>
      <trkpt lat="46.33735" lon="6.76177">
        <ele>1604.6</ele>
        <time>2013-08-23T17:51:35Z</time>
      </trkpt>
      <trkpt lat="46.33733" lon="6.76182">
        <ele>1604.1</ele>
        <time>2013-08-23T17:51:36Z</time>
      </trkpt>
      <trkpt lat="46.3373" lon="6.76186">
        <ele>1603.1</ele>
        <time>2013-08-23T17:51:37Z</time>
      </trkpt>
      <trkpt lat="46.33728" lon="6.76191">
        <ele>1601.7</ele>
        <time>2013-08-23T17:51:38Z</time>
      </trkpt>
      <trkpt lat="46.33725" lon="6.76195">
        <ele>1601.2</ele>
        <time>2013-08-23T17:51:39Z</time>
      </trkpt>
      <trkpt lat="46.33721" lon="6.76198">
        <ele>1599.8</ele>
        <time>2013-08-23T17:51:40Z</time>
      </trkpt>
      <trkpt lat="46.33718" lon="6.76202">
        <ele>1599.3</ele>
        <time>2013-08-23T17:51:41Z</time>
      </trkpt>
      <trkpt lat="46.33715" lon="6.76206">
        <ele>1598.8</ele>
        <time>2013-08-23T17:51:42Z</time>
      </trkpt>
      <trkpt lat="46.33709" lon="6.76214">
        <ele>1596.4</ele>
        <time>2013-08-23T17:51:44Z</time>
      </trkpt>
      <trkpt lat="46.337" lon="6.76228">
        <ele>1594</ele>
        <time>2013-08-23T17:51:47Z</time>
      </trkpt>
      <trkpt lat="46.33691" lon="6.76245">
        <ele>1590.6</ele>
        <time>2013-08-23T17:51:51Z</time>
      </trkpt>
      <trkpt lat="46.33685" lon="6.76261">
        <ele>1587.8</ele>
        <time>2013-08-23T17:51:54Z</time>
      </trkpt>
      <trkpt lat="46.33677" lon="6.7628">
        <ele>1583.9</ele>
        <time>2013-08-23T17:51:58Z</time>
      </trkpt>
      <trkpt lat="46.33671" lon="6.76289">
        <ele>1582</ele>
        <time>2013-08-23T17:52:00Z</time>
      </trkpt>
      <trkpt lat="46.33665" lon="6.76297">
        <ele>1579.1</ele>
        <time>2013-08-23T17:52:02Z</time>
      </trkpt>
      <trkpt lat="46.33662" lon="6.76302">
        <ele>1577.2</ele>
        <time>2013-08-23T17:52:03Z</time>
      </trkpt>
      <trkpt lat="46.3366" lon="6.76308">
        <ele>1577.2</ele>
        <time>2013-08-23T17:52:04Z</time>
      </trkpt>
      <trkpt lat="46.33655" lon="6.7632">
        <ele>1574.8</ele>
        <time>2013-08-23T17:52:06Z</time>
      </trkpt>
      <trkpt lat="46.33653" lon="6.76325">
        <ele>1574.3</ele>
        <time>2013-08-23T17:52:07Z</time>
      </trkpt>
      <trkpt lat="46.33652" lon="6.7633">
        <ele>1572.9</ele>
        <time>2013-08-23T17:52:08Z</time>
      </trkpt>
      <trkpt lat="46.33651" lon="6.76335">
        <ele>1572.9</ele>
        <time>2013-08-23T17:52:09Z</time>
      </trkpt>
      <trkpt lat="46.33651" lon="6.76339">
        <ele>1571.4</ele>
        <time>2013-08-23T17:52:10Z</time>
      </trkpt>
      <trkpt lat="46.33652" lon="6.76346">
        <ele>1570.9</ele>
        <time>2013-08-23T17:52:12Z</time>
      </trkpt>
      <trkpt lat="46.33653" lon="6.76349">
        <ele>1569</ele>
        <time>2013-08-23T17:52:20Z</time>
      </trkpt>
      <trkpt lat="46.3365" lon="6.76363">
        <ele>1566.6</ele>
        <time>2013-08-23T17:52:38Z</time>
      </trkpt>
      <trkpt lat="46.33649" lon="6.76365">
        <ele>1566.1</ele>
        <time>2013-08-23T17:52:39Z</time>
      </trkpt>
      <trkpt lat="46.33632" lon="6.76376">
        <ele>1563.2</ele>
        <time>2013-08-23T17:52:48Z</time>
      </trkpt>
      <trkpt lat="46.33607" lon="6.76403">
        <ele>1560.8</ele>
        <time>2013-08-23T17:52:57Z</time>
      </trkpt>
      <trkpt lat="46.33603" lon="6.76408">
        <ele>1560.4</ele>
        <time>2013-08-23T17:52:58Z</time>
      </trkpt>
      <trkpt lat="46.33599" lon="6.76412">
        <ele>1560.4</ele>
        <time>2013-08-23T17:52:59Z</time>
      </trkpt>
      <trkpt lat="46.3359" lon="6.76421">
        <ele>1559.4</ele>
        <time>2013-08-23T17:53:01Z</time>
      </trkpt>
      <trkpt lat="46.33586" lon="6.76427">
        <ele>1558.9</ele>
        <time>2013-08-23T17:53:02Z</time>
      </trkpt>
      <trkpt lat="46.33582" lon="6.76434">
        <ele>1558.4</ele>
        <time>2013-08-23T17:53:03Z</time>
      </trkpt>
      <trkpt lat="46.33572" lon="6.76448">
        <ele>1556.5</ele>
        <time>2013-08-23T17:53:05Z</time>
      </trkpt>
      <trkpt lat="46.33549" lon="6.76484">
        <ele>1553.6</ele>
        <time>2013-08-23T17:53:10Z</time>
      </trkpt>
      <trkpt lat="46.33546" lon="6.76489">
        <ele>1553.2</ele>
        <time>2013-08-23T17:53:11Z</time>
      </trkpt>
      <trkpt lat="46.33542" lon="6.76496">
        <ele>1552.2</ele>
        <time>2013-08-23T17:53:13Z</time>
      </trkpt>
      <trkpt lat="46.33535" lon="6.76511">
        <ele>1551.7</ele>
        <time>2013-08-23T17:53:19Z</time>
      </trkpt>
      <trkpt lat="46.33534" lon="6.76514">
        <ele>1551.2</ele>
        <time>2013-08-23T17:53:20Z</time>
      </trkpt>
      <trkpt lat="46.33533" lon="6.76517">
        <ele>1551.2</ele>
        <time>2013-08-23T17:53:21Z</time>
      </trkpt>
      <trkpt lat="46.33532" lon="6.76519">
        <ele>1551.7</ele>
        <time>2013-08-23T17:53:22Z</time>
      </trkpt>
      <trkpt lat="46.33531" lon="6.76521">
        <ele>1551.7</ele>
        <time>2013-08-23T17:53:23Z</time>
      </trkpt>
      <trkpt lat="46.33512" lon="6.76544">
        <ele>1555.1</ele>
        <time>2013-08-23T17:53:36Z</time>
      </trkpt>
      <trkpt lat="46.33486" lon="6.76559">
        <ele>1554.6</ele>
        <time>2013-08-23T17:53:49Z</time>
      </trkpt>
      <trkpt lat="46.33454" lon="6.76573">
        <ele>1556</ele>
        <time>2013-08-23T17:54:03Z</time>
      </trkpt>
      <trkpt lat="46.33419" lon="6.76572">
        <ele>1555.6</ele>
        <time>2013-08-23T17:54:16Z</time>
      </trkpt>
      <trkpt lat="46.33416" lon="6.76572">
        <ele>1556</ele>
        <time>2013-08-23T17:54:17Z</time>
      </trkpt>
      <trkpt lat="46.33413" lon="6.76573">
        <ele>1555.1</ele>
        <time>2013-08-23T17:54:18Z</time>
      </trkpt>
      <trkpt lat="46.33411" lon="6.76576">
        <ele>1554.6</ele>
        <time>2013-08-23T17:54:19Z</time>
      </trkpt>
      <trkpt lat="46.33409" lon="6.76578">
        <ele>1554.6</ele>
        <time>2013-08-23T17:54:20Z</time>
      </trkpt>
      <trkpt lat="46.33408" lon="6.7658">
        <ele>1554.1</ele>
        <time>2013-08-23T17:54:21Z</time>
      </trkpt>
      <trkpt lat="46.33405" lon="6.76582">
        <ele>1554.1</ele>
        <time>2013-08-23T17:54:22Z</time>
      </trkpt>
      <trkpt lat="46.33402" lon="6.76583">
        <ele>1553.6</ele>
        <time>2013-08-23T17:54:23Z</time>
      </trkpt>
      <trkpt lat="46.33395" lon="6.76587">
        <ele>1552.7</ele>
        <time>2013-08-23T17:54:25Z</time>
      </trkpt>
      <trkpt lat="46.33386" lon="6.76594">
        <ele>1551.2</ele>
        <time>2013-08-23T17:54:27Z</time>
      </trkpt>
      <trkpt lat="46.33381" lon="6.76598">
        <ele>1551.2</ele>
        <time>2013-08-23T17:54:28Z</time>
      </trkpt>
      <trkpt lat="46.33377" lon="6.76604">
        <ele>1549.3</ele>
        <time>2013-08-23T17:54:29Z</time>
      </trkpt>
      <trkpt lat="46.33372" lon="6.76609">
        <ele>1548.3</ele>
        <time>2013-08-23T17:54:30Z</time>
      </trkpt>
      <trkpt lat="46.33368" lon="6.76613">
        <ele>1547.4</ele>
        <time>2013-08-23T17:54:31Z</time>
      </trkpt>
      <trkpt lat="46.33362" lon="6.76616">
        <ele>1546.9</ele>
        <time>2013-08-23T17:54:32Z</time>
      </trkpt>
      <trkpt lat="46.33357" lon="6.76619">
        <ele>1546.4</ele>
        <time>2013-08-23T17:54:33Z</time>
      </trkpt>
      <trkpt lat="46.33351" lon="6.7662">
        <ele>1545.9</ele>
        <time>2013-08-23T17:54:34Z</time>
      </trkpt>
      <trkpt lat="46.33345" lon="6.7662">
        <ele>1545.9</ele>
        <time>2013-08-23T17:54:35Z</time>
      </trkpt>
      <trkpt lat="46.33339" lon="6.76621">
        <ele>1545.5</ele>
        <time>2013-08-23T17:54:36Z</time>
      </trkpt>
      <trkpt lat="46.33333" lon="6.7662">
        <ele>1544.5</ele>
        <time>2013-08-23T17:54:37Z</time>
      </trkpt>
      <trkpt lat="46.33329" lon="6.7662">
        <ele>1544.5</ele>
        <time>2013-08-23T17:54:38Z</time>
      </trkpt>
      <trkpt lat="46.33324" lon="6.76621">
        <ele>1544.5</ele>
        <time>2013-08-23T17:54:39Z</time>
      </trkpt>
      <trkpt lat="46.3331" lon="6.76626">
        <ele>1543.1</ele>
        <time>2013-08-23T17:54:42Z</time>
      </trkpt>
      <trkpt lat="46.33305" lon="6.76629">
        <ele>1543.1</ele>
        <time>2013-08-23T17:54:43Z</time>
      </trkpt>
      <trkpt lat="46.33299" lon="6.76631">
        <ele>1541.6</ele>
        <time>2013-08-23T17:54:44Z</time>
      </trkpt>
      <trkpt lat="46.33294" lon="6.76633">
        <ele>1541.6</ele>
        <time>2013-08-23T17:54:45Z</time>
      </trkpt>
      <trkpt lat="46.33288" lon="6.76634">
        <ele>1540.7</ele>
        <time>2013-08-23T17:54:46Z</time>
      </trkpt>
      <trkpt lat="46.33282" lon="6.76634">
        <ele>1539.7</ele>
        <time>2013-08-23T17:54:47Z</time>
      </trkpt>
      <trkpt lat="46.33275" lon="6.76634">
        <ele>1539.7</ele>
        <time>2013-08-23T17:54:48Z</time>
      </trkpt>
      <trkpt lat="46.33269" lon="6.76635">
        <ele>1538.3</ele>
        <time>2013-08-23T17:54:49Z</time>
      </trkpt>
      <trkpt lat="46.33263" lon="6.76634">
        <ele>1537.8</ele>
        <time>2013-08-23T17:54:50Z</time>
      </trkpt>
      <trkpt lat="46.33257" lon="6.76633">
        <ele>1536.8</ele>
        <time>2013-08-23T17:54:51Z</time>
      </trkpt>
      <trkpt lat="46.33252" lon="6.7663">
        <ele>1537.3</ele>
        <time>2013-08-23T17:54:52Z</time>
      </trkpt>
      <trkpt lat="46.33247" lon="6.76628">
        <ele>1536.3</ele>
        <time>2013-08-23T17:54:53Z</time>
      </trkpt>
      <trkpt lat="46.33228" lon="6.76618">
        <ele>1533</ele>
        <time>2013-08-23T17:54:57Z</time>
      </trkpt>
      <trkpt lat="46.33214" lon="6.76609">
        <ele>1529.1</ele>
        <time>2013-08-23T17:55:00Z</time>
      </trkpt>
      <trkpt lat="46.33209" lon="6.76606">
        <ele>1528.6</ele>
        <time>2013-08-23T17:55:01Z</time>
      </trkpt>
      <trkpt lat="46.33204" lon="6.76601">
        <ele>1527.2</ele>
        <time>2013-08-23T17:55:02Z</time>
      </trkpt>
      <trkpt lat="46.33186" lon="6.76585">
        <ele>1524.3</ele>
        <time>2013-08-23T17:55:05Z</time>
      </trkpt>
      <trkpt lat="46.33174" lon="6.76574">
        <ele>1522.4</ele>
        <time>2013-08-23T17:55:07Z</time>
      </trkpt>
      <trkpt lat="46.33168" lon="6.7657">
        <ele>1521.4</ele>
        <time>2013-08-23T17:55:08Z</time>
      </trkpt>
      <trkpt lat="46.33162" lon="6.76566">
        <ele>1520.9</ele>
        <time>2013-08-23T17:55:09Z</time>
      </trkpt>
      <trkpt lat="46.33149" lon="6.76559">
        <ele>1518.5</ele>
        <time>2013-08-23T17:55:11Z</time>
      </trkpt>
      <trkpt lat="46.33143" lon="6.76556">
        <ele>1517.6</ele>
        <time>2013-08-23T17:55:12Z</time>
      </trkpt>
      <trkpt lat="46.33135" lon="6.76554">
        <ele>1516.1</ele>
        <time>2013-08-23T17:55:13Z</time>
      </trkpt>
      <trkpt lat="46.3312" lon="6.76551">
        <ele>1513.7</ele>
        <time>2013-08-23T17:55:15Z</time>
      </trkpt>
      <trkpt lat="46.33113" lon="6.76551">
        <ele>1513.3</ele>
        <time>2013-08-23T17:55:16Z</time>
      </trkpt>
      <trkpt lat="46.33107" lon="6.76553">
        <ele>1513.3</ele>
        <time>2013-08-23T17:55:17Z</time>
      </trkpt>
      <trkpt lat="46.33101" lon="6.76555">
        <ele>1512.3</ele>
        <time>2013-08-23T17:55:18Z</time>
      </trkpt>
      <trkpt lat="46.33097" lon="6.76558">
        <ele>1511.8</ele>
        <time>2013-08-23T17:55:19Z</time>
      </trkpt>
      <trkpt lat="46.33093" lon="6.7656">
        <ele>1511.8</ele>
        <time>2013-08-23T17:55:20Z</time>
      </trkpt>
      <trkpt lat="46.33089" lon="6.76562">
        <ele>1511.3</ele>
        <time>2013-08-23T17:55:21Z</time>
      </trkpt>
      <trkpt lat="46.33086" lon="6.76561">
        <ele>1511.3</ele>
        <time>2013-08-23T17:55:22Z</time>
      </trkpt>
      <trkpt lat="46.33084" lon="6.76559">
        <ele>1511.8</ele>
        <time>2013-08-23T17:55:23Z</time>
      </trkpt>
      <trkpt lat="46.33081" lon="6.76558">
        <ele>1511.3</ele>
        <time>2013-08-23T17:55:25Z</time>
      </trkpt>
      <trkpt lat="46.33079" lon="6.76559">
        <ele>1511.3</ele>
        <time>2013-08-23T17:55:26Z</time>
      </trkpt>
      <trkpt lat="46.33077" lon="6.7656">
        <ele>1511.3</ele>
        <time>2013-08-23T17:55:27Z</time>
      </trkpt>
      <trkpt lat="46.33075" lon="6.76561">
        <ele>1511.3</ele>
        <time>2013-08-23T17:55:28Z</time>
      </trkpt>
      <trkpt lat="46.33073" lon="6.76561">
        <ele>1511.8</ele>
        <time>2013-08-23T17:55:29Z</time>
      </trkpt>
      <trkpt lat="46.33071" lon="6.7656">
        <ele>1511.8</ele>
        <time>2013-08-23T17:55:30Z</time>
      </trkpt>
      <trkpt lat="46.33049" lon="6.76555">
        <ele>1510.4</ele>
        <time>2013-08-23T17:55:44Z</time>
      </trkpt>
      <trkpt lat="46.33048" lon="6.76554">
        <ele>1510.4</ele>
        <time>2013-08-23T17:56:21Z</time>
      </trkpt>
      <trkpt lat="46.33046" lon="6.76552">
        <ele>1510.4</ele>
        <time>2013-08-23T17:56:23Z</time>
      </trkpt>
      <trkpt lat="46.33045" lon="6.76551">
        <ele>1510.4</ele>
        <time>2013-08-23T17:56:24Z</time>
      </trkpt>
      <trkpt lat="46.3303" lon="6.76515">
        <ele>1510.4</ele>
        <time>2013-08-23T17:56:37Z</time>
      </trkpt>
      <trkpt lat="46.33019" lon="6.76468">
        <ele>1508.5</ele>
        <time>2013-08-23T17:56:51Z</time>
      </trkpt>
      <trkpt lat="46.33016" lon="6.76455">
        <ele>1509.4</ele>
        <time>2013-08-23T17:56:57Z</time>
      </trkpt>
      <trkpt lat="46.33017" lon="6.76452">
        <ele>1509.4</ele>
        <time>2013-08-23T17:56:58Z</time>
      </trkpt>
      <trkpt lat="46.33019" lon="6.76446">
        <ele>1509.4</ele>
        <time>2013-08-23T17:57:09Z</time>
      </trkpt>
      <trkpt lat="46.33019" lon="6.76447">
        <ele>1506.5</ele>
        <time>2013-08-23T17:57:23Z</time>
      </trkpt>
      <trkpt lat="46.32989" lon="6.76635">
        <ele>1476.7</ele>
        <time>2013-08-24T06:41:44Z</time>
      </trkpt>
      <trkpt lat="46.32995" lon="6.76647">
        <ele>1477.2</ele>
        <time>2013-08-24T06:41:56Z</time>
      </trkpt>
      <trkpt lat="46.32999" lon="6.76657">
        <ele>1479.6</ele>
        <time>2013-08-24T06:42:05Z</time>
      </trkpt>
      <trkpt lat="46.32999" lon="6.76659">
        <ele>1478.2</ele>
        <time>2013-08-24T06:42:06Z</time>
      </trkpt>
      <trkpt lat="46.32999" lon="6.76666">
        <ele>1479.1</ele>
        <time>2013-08-24T06:42:10Z</time>
      </trkpt>
      <trkpt lat="46.33007" lon="6.76675">
        <ele>1479.6</ele>
        <time>2013-08-24T06:42:17Z</time>
      </trkpt>
      <trkpt lat="46.3303" lon="6.76688">
        <ele>1480.6</ele>
        <time>2013-08-24T06:42:30Z</time>
      </trkpt>
      <trkpt lat="46.33088" lon="6.76676">
        <ele>1479.6</ele>
        <time>2013-08-24T06:42:41Z</time>
      </trkpt>
      <trkpt lat="46.33099" lon="6.76673">
        <ele>1479.6</ele>
        <time>2013-08-24T06:42:54Z</time>
      </trkpt>
      <trkpt lat="46.3311" lon="6.76677">
        <ele>1480.1</ele>
        <time>2013-08-24T06:43:03Z</time>
      </trkpt>
      <trkpt lat="46.33107" lon="6.76689">
        <ele>1483</ele>
        <time>2013-08-24T06:43:13Z</time>
      </trkpt>
      <trkpt lat="46.33106" lon="6.76694">
        <ele>1485.9</ele>
        <time>2013-08-24T06:43:17Z</time>
      </trkpt>
      <trkpt lat="46.33101" lon="6.76698">
        <ele>1489.7</ele>
        <time>2013-08-24T06:43:23Z</time>
      </trkpt>
      <trkpt lat="46.33101" lon="6.76698">
        <ele>1489.7</ele>
        <time>2013-08-24T06:43:24Z</time>
      </trkpt>
      <trkpt lat="46.331" lon="6.76701">
        <ele>1492.1</ele>
        <time>2013-08-24T06:43:29Z</time>
      </trkpt>
      <trkpt lat="46.33098" lon="6.76702">
        <ele>1495</ele>
        <time>2013-08-24T06:43:35Z</time>
      </trkpt>
      <trkpt lat="46.33092" lon="6.76719">
        <ele>1498.4</ele>
        <time>2013-08-24T06:43:43Z</time>
      </trkpt>
      <trkpt lat="46.3309" lon="6.7672">
        <ele>1498.8</ele>
        <time>2013-08-24T06:43:44Z</time>
      </trkpt>
      <trkpt lat="46.33082" lon="6.76728">
        <ele>1499.8</ele>
        <time>2013-08-24T06:43:49Z</time>
      </trkpt>
      <trkpt lat="46.33072" lon="6.7675">
        <ele>1503.2</ele>
        <time>2013-08-24T06:44:01Z</time>
      </trkpt>
      <trkpt lat="46.33067" lon="6.76752">
        <ele>1505.1</ele>
        <time>2013-08-24T06:44:05Z</time>
      </trkpt>
      <trkpt lat="46.33064" lon="6.76756">
        <ele>1507.5</ele>
        <time>2013-08-24T06:44:08Z</time>
      </trkpt>
      <trkpt lat="46.33059" lon="6.76765">
        <ele>1511.3</ele>
        <time>2013-08-24T06:44:15Z</time>
      </trkpt>
      <trkpt lat="46.33054" lon="6.76773">
        <ele>1513.3</ele>
        <time>2013-08-24T06:44:20Z</time>
      </trkpt>
      <trkpt lat="46.33048" lon="6.76782">
        <ele>1516.6</ele>
        <time>2013-08-24T06:44:27Z</time>
      </trkpt>
      <trkpt lat="46.33047" lon="6.76783">
        <ele>1516.6</ele>
        <time>2013-08-24T06:44:28Z</time>
      </trkpt>
      <trkpt lat="46.33042" lon="6.7679">
        <ele>1518.5</ele>
        <time>2013-08-24T06:44:34Z</time>
      </trkpt>
      <trkpt lat="46.33032" lon="6.76807">
        <ele>1522.4</ele>
        <time>2013-08-24T06:44:45Z</time>
      </trkpt>
      <trkpt lat="46.33029" lon="6.76812">
        <ele>1523.4</ele>
        <time>2013-08-24T06:44:57Z</time>
      </trkpt>
      <trkpt lat="46.33026" lon="6.76818">
        <ele>1526.7</ele>
        <time>2013-08-24T06:45:06Z</time>
      </trkpt>
      <trkpt lat="46.33019" lon="6.76828">
        <ele>1529.1</ele>
        <time>2013-08-24T06:45:22Z</time>
      </trkpt>
      <trkpt lat="46.33012" lon="6.7684">
        <ele>1531</ele>
        <time>2013-08-24T06:45:39Z</time>
      </trkpt>
      <trkpt lat="46.33004" lon="6.76842">
        <ele>1534.9</ele>
        <time>2013-08-24T06:45:53Z</time>
      </trkpt>
      <trkpt lat="46.33004" lon="6.76841">
        <ele>1531.5</ele>
        <time>2013-08-24T06:45:54Z</time>
      </trkpt>
      <trkpt lat="46.33" lon="6.76834">
        <ele>1535.4</ele>
        <time>2013-08-24T06:46:01Z</time>
      </trkpt>
      <trkpt lat="46.33" lon="6.76833">
        <ele>1531.5</ele>
        <time>2013-08-24T06:46:03Z</time>
      </trkpt>
      <trkpt lat="46.33" lon="6.76833">
        <ele>1534.4</ele>
        <time>2013-08-24T06:46:04Z</time>
      </trkpt>
      <trkpt lat="46.33" lon="6.76833">
        <ele>1531</ele>
        <time>2013-08-24T06:46:06Z</time>
      </trkpt>
      <trkpt lat="46.32999" lon="6.76833">
        <ele>1533.9</ele>
        <time>2013-08-24T06:46:07Z</time>
      </trkpt>
      <trkpt lat="46.32996" lon="6.76828">
        <ele>1531.5</ele>
        <time>2013-08-24T06:46:10Z</time>
      </trkpt>
      <trkpt lat="46.32995" lon="6.76826">
        <ele>1535.4</ele>
        <time>2013-08-24T06:46:11Z</time>
      </trkpt>
      <trkpt lat="46.3299" lon="6.76819">
        <ele>1535.4</ele>
        <time>2013-08-24T06:46:15Z</time>
      </trkpt>
      <trkpt lat="46.32988" lon="6.76815">
        <ele>1535.8</ele>
        <time>2013-08-24T06:46:17Z</time>
      </trkpt>
      <trkpt lat="46.32987" lon="6.76813">
        <ele>1536.8</ele>
        <time>2013-08-24T06:46:21Z</time>
      </trkpt>
      <trkpt lat="46.32987" lon="6.76823">
        <ele>1539.2</ele>
        <time>2013-08-24T06:46:35Z</time>
      </trkpt>
      <trkpt lat="46.32987" lon="6.76827">
        <ele>1535.8</ele>
        <time>2013-08-24T06:46:38Z</time>
      </trkpt>
      <trkpt lat="46.32987" lon="6.7683">
        <ele>1539.7</ele>
        <time>2013-08-24T06:46:40Z</time>
      </trkpt>
      <trkpt lat="46.32987" lon="6.76832">
        <ele>1536.3</ele>
        <time>2013-08-24T06:46:42Z</time>
      </trkpt>
      <trkpt lat="46.32987" lon="6.76832">
        <ele>1536.8</ele>
        <time>2013-08-24T06:46:43Z</time>
      </trkpt>
      <trkpt lat="46.32987" lon="6.76834">
        <ele>1541.1</ele>
        <time>2013-08-24T06:46:45Z</time>
      </trkpt>
      <trkpt lat="46.32987" lon="6.76835">
        <ele>1539.7</ele>
        <time>2013-08-24T06:46:46Z</time>
      </trkpt>
      <trkpt lat="46.32988" lon="6.76836">
        <ele>1537.8</ele>
        <time>2013-08-24T06:46:48Z</time>
      </trkpt>
      <trkpt lat="46.32988" lon="6.76838">
        <ele>1542.1</ele>
        <time>2013-08-24T06:46:50Z</time>
      </trkpt>
      <trkpt lat="46.32988" lon="6.76841">
        <ele>1538.3</ele>
        <time>2013-08-24T06:46:52Z</time>
      </trkpt>
      <trkpt lat="46.32988" lon="6.76844">
        <ele>1542.1</ele>
        <time>2013-08-24T06:46:54Z</time>
      </trkpt>
      <trkpt lat="46.32989" lon="6.76845">
        <ele>1540.2</ele>
        <time>2013-08-24T06:46:55Z</time>
      </trkpt>
      <trkpt lat="46.32989" lon="6.76846">
        <ele>1543.5</ele>
        <time>2013-08-24T06:47:02Z</time>
      </trkpt>
      <trkpt lat="46.32989" lon="6.76845">
        <ele>1539.2</ele>
        <time>2013-08-24T06:47:04Z</time>
      </trkpt>
      <trkpt lat="46.32989" lon="6.76846">
        <ele>1543.1</ele>
        <time>2013-08-24T06:47:06Z</time>
      </trkpt>
      <trkpt lat="46.32989" lon="6.76846">
        <ele>1542.6</ele>
        <time>2013-08-24T06:47:07Z</time>
      </trkpt>
      <trkpt lat="46.32989" lon="6.76847">
        <ele>1541.6</ele>
        <time>2013-08-24T06:47:11Z</time>
      </trkpt>
      <trkpt lat="46.3299" lon="6.76848">
        <ele>1539.2</ele>
        <time>2013-08-24T06:47:13Z</time>
      </trkpt>
      <trkpt lat="46.3299" lon="6.76849">
        <ele>1543.1</ele>
        <time>2013-08-24T06:47:15Z</time>
      </trkpt>
      <trkpt lat="46.32991" lon="6.7685">
        <ele>1539.7</ele>
        <time>2013-08-24T06:47:18Z</time>
      </trkpt>
      <trkpt lat="46.32991" lon="6.76853">
        <ele>1543.1</ele>
        <time>2013-08-24T06:47:21Z</time>
      </trkpt>
      <trkpt lat="46.32991" lon="6.76855">
        <ele>1540.7</ele>
        <time>2013-08-24T06:47:24Z</time>
      </trkpt>
      <trkpt lat="46.32991" lon="6.76857">
        <ele>1544.5</ele>
        <time>2013-08-24T06:47:26Z</time>
      </trkpt>
      <trkpt lat="46.32991" lon="6.76858">
        <ele>1544.5</ele>
        <time>2013-08-24T06:47:27Z</time>
      </trkpt>
      <trkpt lat="46.32989" lon="6.76858">
        <ele>1545.5</ele>
        <time>2013-08-24T06:47:38Z</time>
      </trkpt>
      <trkpt lat="46.32988" lon="6.76858">
        <ele>1542.6</ele>
        <time>2013-08-24T06:47:46Z</time>
      </trkpt>
      <trkpt lat="46.32991" lon="6.76865">
        <ele>1546.4</ele>
        <time>2013-08-24T06:47:55Z</time>
      </trkpt>
      <trkpt lat="46.3299" lon="6.76866">
        <ele>1545.5</ele>
        <time>2013-08-24T06:47:56Z</time>
      </trkpt>
      <trkpt lat="46.3299" lon="6.76869">
        <ele>1543.5</ele>
        <time>2013-08-24T06:47:59Z</time>
      </trkpt>
      <trkpt lat="46.32987" lon="6.76867">
        <ele>1546.4</ele>
        <time>2013-08-24T06:48:02Z</time>
      </trkpt>
      <trkpt lat="46.32986" lon="6.76865">
        <ele>1546.4</ele>
        <time>2013-08-24T06:48:03Z</time>
      </trkpt>
      <trkpt lat="46.3298" lon="6.76853">
        <ele>1548.8</ele>
        <time>2013-08-24T06:48:15Z</time>
      </trkpt>
      <trkpt lat="46.3298" lon="6.76864">
        <ele>1549.8</ele>
        <time>2013-08-24T06:48:27Z</time>
      </trkpt>
      <trkpt lat="46.3298" lon="6.76867">
        <ele>1547.4</ele>
        <time>2013-08-24T06:48:30Z</time>
      </trkpt>
      <trkpt lat="46.3298" lon="6.7687">
        <ele>1550.7</ele>
        <time>2013-08-24T06:48:32Z</time>
      </trkpt>
      <trkpt lat="46.32979" lon="6.76871">
        <ele>1550.7</ele>
        <time>2013-08-24T06:48:33Z</time>
      </trkpt>
      <trkpt lat="46.32978" lon="6.76875">
        <ele>1548.3</ele>
        <time>2013-08-24T06:48:38Z</time>
      </trkpt>
      <trkpt lat="46.32978" lon="6.76877">
        <ele>1551.7</ele>
        <time>2013-08-24T06:48:40Z</time>
      </trkpt>
      <trkpt lat="46.32978" lon="6.7688">
        <ele>1548.8</ele>
        <time>2013-08-24T06:48:44Z</time>
      </trkpt>
      <trkpt lat="46.32977" lon="6.76882">
        <ele>1552.7</ele>
        <time>2013-08-24T06:48:46Z</time>
      </trkpt>
      <trkpt lat="46.32977" lon="6.76883">
        <ele>1552.7</ele>
        <time>2013-08-24T06:48:47Z</time>
      </trkpt>
      <trkpt lat="46.32977" lon="6.76885">
        <ele>1550.3</ele>
        <time>2013-08-24T06:48:50Z</time>
      </trkpt>
      <trkpt lat="46.32977" lon="6.76886">
        <ele>1553.2</ele>
        <time>2013-08-24T06:48:51Z</time>
      </trkpt>
      <trkpt lat="46.32977" lon="6.76887">
        <ele>1552.7</ele>
        <time>2013-08-24T06:48:52Z</time>
      </trkpt>
      <trkpt lat="46.32977" lon="6.76889">
        <ele>1550.7</ele>
        <time>2013-08-24T06:48:54Z</time>
      </trkpt>
      <trkpt lat="46.32977" lon="6.76889">
        <ele>1551.7</ele>
        <time>2013-08-24T06:48:55Z</time>
      </trkpt>
      <trkpt lat="46.32975" lon="6.76892">
        <ele>1553.6</ele>
        <time>2013-08-24T06:49:00Z</time>
      </trkpt>
      <trkpt lat="46.32972" lon="6.76897">
        <ele>1556.5</ele>
        <time>2013-08-24T06:49:08Z</time>
      </trkpt>
      <trkpt lat="46.32972" lon="6.76897">
        <ele>1553.6</ele>
        <time>2013-08-24T06:49:09Z</time>
      </trkpt>
      <trkpt lat="46.32973" lon="6.76898">
        <ele>1553.2</ele>
        <time>2013-08-24T06:49:17Z</time>
      </trkpt>
      <trkpt lat="46.3297" lon="6.76898">
        <ele>1554.6</ele>
        <time>2013-08-24T06:49:22Z</time>
      </trkpt>
      <trkpt lat="46.32968" lon="6.76904">
        <ele>1556.5</ele>
        <time>2013-08-24T06:49:29Z</time>
      </trkpt>
      <trkpt lat="46.32967" lon="6.76908">
        <ele>1557</ele>
        <time>2013-08-24T06:49:35Z</time>
      </trkpt>
      <trkpt lat="46.32967" lon="6.7691">
        <ele>1555.6</ele>
        <time>2013-08-24T06:49:37Z</time>
      </trkpt>
      <trkpt lat="46.32967" lon="6.76913">
        <ele>1558</ele>
        <time>2013-08-24T06:49:41Z</time>
      </trkpt>
      <trkpt lat="46.32967" lon="6.76915">
        <ele>1556</ele>
        <time>2013-08-24T06:49:43Z</time>
      </trkpt>
      <trkpt lat="46.32967" lon="6.76915">
        <ele>1559.4</ele>
        <time>2013-08-24T06:49:44Z</time>
      </trkpt>
      <trkpt lat="46.32967" lon="6.76916">
        <ele>1558.9</ele>
        <time>2013-08-24T06:49:45Z</time>
      </trkpt>
      <trkpt lat="46.32967" lon="6.76917">
        <ele>1556</ele>
        <time>2013-08-24T06:49:46Z</time>
      </trkpt>
      <trkpt lat="46.32967" lon="6.76918">
        <ele>1558</ele>
        <time>2013-08-24T06:49:47Z</time>
      </trkpt>
      <trkpt lat="46.32967" lon="6.7692">
        <ele>1558.9</ele>
        <time>2013-08-24T06:49:49Z</time>
      </trkpt>
      <trkpt lat="46.32969" lon="6.76923">
        <ele>1558.4</ele>
        <time>2013-08-24T06:49:55Z</time>
      </trkpt>
      <trkpt lat="46.32971" lon="6.76924">
        <ele>1561.3</ele>
        <time>2013-08-24T06:49:58Z</time>
      </trkpt>
      <trkpt lat="46.32972" lon="6.76927">
        <ele>1560.4</ele>
        <time>2013-08-24T06:50:01Z</time>
      </trkpt>
      <trkpt lat="46.32974" lon="6.7694">
        <ele>1561.3</ele>
        <time>2013-08-24T06:50:10Z</time>
      </trkpt>
      <trkpt lat="46.32971" lon="6.76953">
        <ele>1560.4</ele>
        <time>2013-08-24T06:50:22Z</time>
      </trkpt>
      <trkpt lat="46.32971" lon="6.76954">
        <ele>1563.7</ele>
        <time>2013-08-24T06:50:23Z</time>
      </trkpt>
      <trkpt lat="46.32971" lon="6.76954">
        <ele>1563.2</ele>
        <time>2013-08-24T06:50:24Z</time>
      </trkpt>
      <trkpt lat="46.32971" lon="6.76957">
        <ele>1562.3</ele>
        <time>2013-08-24T06:50:26Z</time>
      </trkpt>
      <trkpt lat="46.32971" lon="6.76958">
        <ele>1562.8</ele>
        <time>2013-08-24T06:50:28Z</time>
      </trkpt>
      <trkpt lat="46.32965" lon="6.76972">
        <ele>1564.7</ele>
        <time>2013-08-24T06:50:43Z</time>
      </trkpt>
      <trkpt lat="46.32959" lon="6.76984">
        <ele>1567.6</ele>
        <time>2013-08-24T06:50:59Z</time>
      </trkpt>
      <trkpt lat="46.32957" lon="6.76985">
        <ele>1567.1</ele>
        <time>2013-08-24T06:51:01Z</time>
      </trkpt>
      <trkpt lat="46.32954" lon="6.76992">
        <ele>1568.1</ele>
        <time>2013-08-24T06:51:12Z</time>
      </trkpt>
      <trkpt lat="46.32953" lon="6.76994">
        <ele>1571.4</ele>
        <time>2013-08-24T06:51:15Z</time>
      </trkpt>
      <trkpt lat="46.32953" lon="6.76996">
        <ele>1570.9</ele>
        <time>2013-08-24T06:51:16Z</time>
      </trkpt>
      <trkpt lat="46.32953" lon="6.76998">
        <ele>1570.5</ele>
        <time>2013-08-24T06:51:18Z</time>
      </trkpt>
      <trkpt lat="46.32949" lon="6.77">
        <ele>1573.3</ele>
        <time>2013-08-24T06:51:25Z</time>
      </trkpt>
      <trkpt lat="46.32947" lon="6.77011">
        <ele>1573.8</ele>
        <time>2013-08-24T06:51:38Z</time>
      </trkpt>
      <trkpt lat="46.32944" lon="6.77014">
        <ele>1573.8</ele>
        <time>2013-08-24T06:51:45Z</time>
      </trkpt>
      <trkpt lat="46.32945" lon="6.77016">
        <ele>1576.7</ele>
        <time>2013-08-24T06:51:48Z</time>
      </trkpt>
      <trkpt lat="46.32944" lon="6.7702">
        <ele>1577.2</ele>
        <time>2013-08-24T06:51:54Z</time>
      </trkpt>
      <trkpt lat="46.32944" lon="6.77024">
        <ele>1577.2</ele>
        <time>2013-08-24T06:51:58Z</time>
      </trkpt>
      <trkpt lat="46.32945" lon="6.77032">
        <ele>1578.1</ele>
        <time>2013-08-24T06:52:10Z</time>
      </trkpt>
      <trkpt lat="46.32945" lon="6.77034">
        <ele>1580.1</ele>
        <time>2013-08-24T06:52:13Z</time>
      </trkpt>
      <trkpt lat="46.32944" lon="6.77038">
        <ele>1580.5</ele>
        <time>2013-08-24T06:52:18Z</time>
      </trkpt>
      <trkpt lat="46.32939" lon="6.77037">
        <ele>1580.1</ele>
        <time>2013-08-24T06:52:29Z</time>
      </trkpt>
      <trkpt lat="46.32938" lon="6.77039">
        <ele>1582.5</ele>
        <time>2013-08-24T06:52:31Z</time>
      </trkpt>
      <trkpt lat="46.32939" lon="6.7704">
        <ele>1581</ele>
        <time>2013-08-24T06:52:47Z</time>
      </trkpt>
      <trkpt lat="46.32938" lon="6.7704">
        <ele>1583.4</ele>
        <time>2013-08-24T06:52:49Z</time>
      </trkpt>
      <trkpt lat="46.32937" lon="6.77045">
        <ele>1583.9</ele>
        <time>2013-08-24T06:53:01Z</time>
      </trkpt>
      <trkpt lat="46.32937" lon="6.77048">
        <ele>1584.9</ele>
        <time>2013-08-24T06:53:05Z</time>
      </trkpt>
      <trkpt lat="46.32935" lon="6.77051">
        <ele>1585.8</ele>
        <time>2013-08-24T06:53:14Z</time>
      </trkpt>
      <trkpt lat="46.3293" lon="6.77053">
        <ele>1587.8</ele>
        <time>2013-08-24T06:53:28Z</time>
      </trkpt>
      <trkpt lat="46.32928" lon="6.7706">
        <ele>1590.2</ele>
        <time>2013-08-24T06:53:43Z</time>
      </trkpt>
      <trkpt lat="46.32928" lon="6.77065">
        <ele>1593.5</ele>
        <time>2013-08-24T06:53:52Z</time>
      </trkpt>
      <trkpt lat="46.32925" lon="6.77065">
        <ele>1593</ele>
        <time>2013-08-24T06:54:05Z</time>
      </trkpt>
      <trkpt lat="46.32925" lon="6.77067">
        <ele>1594.5</ele>
        <time>2013-08-24T06:54:07Z</time>
      </trkpt>
      <trkpt lat="46.32925" lon="6.77074">
        <ele>1596.9</ele>
        <time>2013-08-24T06:54:19Z</time>
      </trkpt>
      <trkpt lat="46.3292" lon="6.77073">
        <ele>1598.3</ele>
        <time>2013-08-24T06:54:38Z</time>
      </trkpt>
      <trkpt lat="46.32917" lon="6.77077">
        <ele>1599.3</ele>
        <time>2013-08-24T06:54:50Z</time>
      </trkpt>
      <trkpt lat="46.32911" lon="6.77071">
        <ele>1602.7</ele>
        <time>2013-08-24T06:55:04Z</time>
      </trkpt>
      <trkpt lat="46.32912" lon="6.7708">
        <ele>1604.1</ele>
        <time>2013-08-24T06:55:17Z</time>
      </trkpt>
      <trkpt lat="46.3291" lon="6.77086">
        <ele>1607</ele>
        <time>2013-08-24T06:55:31Z</time>
      </trkpt>
      <trkpt lat="46.32909" lon="6.77091">
        <ele>1607.5</ele>
        <time>2013-08-24T06:55:42Z</time>
      </trkpt>
      <trkpt lat="46.32902" lon="6.77089">
        <ele>1610.4</ele>
        <time>2013-08-24T06:55:54Z</time>
      </trkpt>
      <trkpt lat="46.32899" lon="6.7709">
        <ele>1612.3</ele>
        <time>2013-08-24T06:56:07Z</time>
      </trkpt>
      <trkpt lat="46.32894" lon="6.77093">
        <ele>1613.7</ele>
        <time>2013-08-24T06:56:21Z</time>
      </trkpt>
      <trkpt lat="46.32889" lon="6.77093">
        <ele>1616.1</ele>
        <time>2013-08-24T06:56:36Z</time>
      </trkpt>
      <trkpt lat="46.32888" lon="6.77099">
        <ele>1617.6</ele>
        <time>2013-08-24T06:56:46Z</time>
      </trkpt>
      <trkpt lat="46.32883" lon="6.77101">
        <ele>1620</ele>
        <time>2013-08-24T06:56:58Z</time>
      </trkpt>
      <trkpt lat="46.32881" lon="6.77106">
        <ele>1620.9</ele>
        <time>2013-08-24T06:57:08Z</time>
      </trkpt>
      <trkpt lat="46.32879" lon="6.77112">
        <ele>1622.8</ele>
        <time>2013-08-24T06:57:21Z</time>
      </trkpt>
      <trkpt lat="46.32877" lon="6.77117">
        <ele>1624.8</ele>
        <time>2013-08-24T06:57:30Z</time>
      </trkpt>
      <trkpt lat="46.3287" lon="6.77124">
        <ele>1626.7</ele>
        <time>2013-08-24T06:57:46Z</time>
      </trkpt>
      <trkpt lat="46.32863" lon="6.77129">
        <ele>1628.6</ele>
        <time>2013-08-24T06:58:02Z</time>
      </trkpt>
      <trkpt lat="46.32859" lon="6.77135">
        <ele>1630.5</ele>
        <time>2013-08-24T06:58:15Z</time>
      </trkpt>
      <trkpt lat="46.32853" lon="6.77141">
        <ele>1632.5</ele>
        <time>2013-08-24T06:58:30Z</time>
      </trkpt>
      <trkpt lat="46.32847" lon="6.77141">
        <ele>1632.9</ele>
        <time>2013-08-24T06:58:46Z</time>
      </trkpt>
      <trkpt lat="46.32843" lon="6.77144">
        <ele>1636.3</ele>
        <time>2013-08-24T06:58:58Z</time>
      </trkpt>
      <trkpt lat="46.32837" lon="6.77147">
        <ele>1637.7</ele>
        <time>2013-08-24T06:59:13Z</time>
      </trkpt>
      <trkpt lat="46.32833" lon="6.77153">
        <ele>1640.2</ele>
        <time>2013-08-24T06:59:27Z</time>
      </trkpt>
      <trkpt lat="46.32826" lon="6.77155">
        <ele>1642.1</ele>
        <time>2013-08-24T06:59:42Z</time>
      </trkpt>
      <trkpt lat="46.32819" lon="6.77161">
        <ele>1645</ele>
        <time>2013-08-24T06:59:57Z</time>
      </trkpt>
      <trkpt lat="46.32817" lon="6.7717">
        <ele>1646.4</ele>
        <time>2013-08-24T07:00:12Z</time>
      </trkpt>
      <trkpt lat="46.32808" lon="6.77172">
        <ele>1649.8</ele>
        <time>2013-08-24T07:00:28Z</time>
      </trkpt>
      <trkpt lat="46.32806" lon="6.77175">
        <ele>1651.2</ele>
        <time>2013-08-24T07:00:43Z</time>
      </trkpt>
      <trkpt lat="46.32804" lon="6.77181">
        <ele>1653.1</ele>
        <time>2013-08-24T07:00:58Z</time>
      </trkpt>
      <trkpt lat="46.32801" lon="6.77186">
        <ele>1655.5</ele>
        <time>2013-08-24T07:01:11Z</time>
      </trkpt>
      <trkpt lat="46.32796" lon="6.77185">
        <ele>1657</ele>
        <time>2013-08-24T07:01:21Z</time>
      </trkpt>
      <trkpt lat="46.32794" lon="6.77194">
        <ele>1658.9</ele>
        <time>2013-08-24T07:01:37Z</time>
      </trkpt>
      <trkpt lat="46.3279" lon="6.77196">
        <ele>1660.8</ele>
        <time>2013-08-24T07:01:51Z</time>
      </trkpt>
      <trkpt lat="46.32787" lon="6.77202">
        <ele>1663.7</ele>
        <time>2013-08-24T07:02:05Z</time>
      </trkpt>
      <trkpt lat="46.32783" lon="6.77207">
        <ele>1666.1</ele>
        <time>2013-08-24T07:02:21Z</time>
      </trkpt>
      <trkpt lat="46.32779" lon="6.77213">
        <ele>1668.5</ele>
        <time>2013-08-24T07:02:37Z</time>
      </trkpt>
      <trkpt lat="46.32773" lon="6.77218">
        <ele>1670.4</ele>
        <time>2013-08-24T07:02:52Z</time>
      </trkpt>
      <trkpt lat="46.32768" lon="6.77227">
        <ele>1673.3</ele>
        <time>2013-08-24T07:03:07Z</time>
      </trkpt>
      <trkpt lat="46.32764" lon="6.77233">
        <ele>1675.2</ele>
        <time>2013-08-24T07:03:22Z</time>
      </trkpt>
      <trkpt lat="46.3276" lon="6.77239">
        <ele>1677.6</ele>
        <time>2013-08-24T07:03:38Z</time>
      </trkpt>
      <trkpt lat="46.32755" lon="6.77248">
        <ele>1680</ele>
        <time>2013-08-24T07:03:54Z</time>
      </trkpt>
      <trkpt lat="46.32753" lon="6.77253">
        <ele>1682.4</ele>
        <time>2013-08-24T07:04:07Z</time>
      </trkpt>
      <trkpt lat="46.32752" lon="6.77259">
        <ele>1683.9</ele>
        <time>2013-08-24T07:04:21Z</time>
      </trkpt>
      <trkpt lat="46.3275" lon="6.77264">
        <ele>1686.3</ele>
        <time>2013-08-24T07:04:35Z</time>
      </trkpt>
      <trkpt lat="46.32747" lon="6.77272">
        <ele>1688.7</ele>
        <time>2013-08-24T07:04:49Z</time>
      </trkpt>
      <trkpt lat="46.32748" lon="6.77279">
        <ele>1690.1</ele>
        <time>2013-08-24T07:05:04Z</time>
      </trkpt>
      <trkpt lat="46.32746" lon="6.77282">
        <ele>1690.6</ele>
        <time>2013-08-24T07:05:23Z</time>
      </trkpt>
      <trkpt lat="46.32745" lon="6.77289">
        <ele>1692.5</ele>
        <time>2013-08-24T07:05:35Z</time>
      </trkpt>
      <trkpt lat="46.32743" lon="6.77295">
        <ele>1694.9</ele>
        <time>2013-08-24T07:05:49Z</time>
      </trkpt>
      <trkpt lat="46.32744" lon="6.77301">
        <ele>1697.3</ele>
        <time>2013-08-24T07:06:02Z</time>
      </trkpt>
      <trkpt lat="46.32743" lon="6.77307">
        <ele>1698.8</ele>
        <time>2013-08-24T07:06:13Z</time>
      </trkpt>
      <trkpt lat="46.32746" lon="6.77313">
        <ele>1699.8</ele>
        <time>2013-08-24T07:06:25Z</time>
      </trkpt>
      <trkpt lat="46.32748" lon="6.77321">
        <ele>1702.6</ele>
        <time>2013-08-24T07:06:39Z</time>
      </trkpt>
      <trkpt lat="46.32747" lon="6.77325">
        <ele>1703.6</ele>
        <time>2013-08-24T07:06:55Z</time>
      </trkpt>
      <trkpt lat="46.32752" lon="6.77333">
        <ele>1706.5</ele>
        <time>2013-08-24T07:07:09Z</time>
      </trkpt>
      <trkpt lat="46.32753" lon="6.77338">
        <ele>1708.4</ele>
        <time>2013-08-24T07:07:25Z</time>
      </trkpt>
      <trkpt lat="46.32756" lon="6.77344">
        <ele>1710.8</ele>
        <time>2013-08-24T07:07:39Z</time>
      </trkpt>
      <trkpt lat="46.32755" lon="6.7735">
        <ele>1712.3</ele>
        <time>2013-08-24T07:07:52Z</time>
      </trkpt>
      <trkpt lat="46.32761" lon="6.77355">
        <ele>1713.7</ele>
        <time>2013-08-24T07:08:06Z</time>
      </trkpt>
      <trkpt lat="46.32763" lon="6.7736">
        <ele>1716.1</ele>
        <time>2013-08-24T07:08:20Z</time>
      </trkpt>
      <trkpt lat="46.32766" lon="6.77366">
        <ele>1719</ele>
        <time>2013-08-24T07:08:35Z</time>
      </trkpt>
      <trkpt lat="46.32765" lon="6.77373">
        <ele>1720.9</ele>
        <time>2013-08-24T07:08:51Z</time>
      </trkpt>
      <trkpt lat="46.32763" lon="6.77379">
        <ele>1722.8</ele>
        <time>2013-08-24T07:09:07Z</time>
      </trkpt>
      <trkpt lat="46.32762" lon="6.77386">
        <ele>1725.2</ele>
        <time>2013-08-24T07:09:23Z</time>
      </trkpt>
      <trkpt lat="46.32762" lon="6.77385">
        <ele>1725.2</ele>
        <time>2013-08-24T07:09:40Z</time>
      </trkpt>
      <trkpt lat="46.32762" lon="6.77388">
        <ele>1726.2</ele>
        <time>2013-08-24T07:09:58Z</time>
      </trkpt>
      <trkpt lat="46.32762" lon="6.77386">
        <ele>1726.2</ele>
        <time>2013-08-24T07:10:11Z</time>
      </trkpt>
      <trkpt lat="46.32761" lon="6.77388">
        <ele>1728.1</ele>
        <time>2013-08-24T07:10:18Z</time>
      </trkpt>
      <trkpt lat="46.32761" lon="6.77396">
        <ele>1730</ele>
        <time>2013-08-24T07:10:32Z</time>
      </trkpt>
      <trkpt lat="46.32764" lon="6.77403">
        <ele>1732.4</ele>
        <time>2013-08-24T07:10:46Z</time>
      </trkpt>
      <trkpt lat="46.3277" lon="6.77404">
        <ele>1733.4</ele>
        <time>2013-08-24T07:10:59Z</time>
      </trkpt>
      <trkpt lat="46.32774" lon="6.77408">
        <ele>1734.8</ele>
        <time>2013-08-24T07:11:14Z</time>
      </trkpt>
      <trkpt lat="46.32777" lon="6.77409">
        <ele>1736.8</ele>
        <time>2013-08-24T07:11:28Z</time>
      </trkpt>
      <trkpt lat="46.32778" lon="6.77412">
        <ele>1738.2</ele>
        <time>2013-08-24T07:11:36Z</time>
      </trkpt>
      <trkpt lat="46.3278" lon="6.7742">
        <ele>1740.1</ele>
        <time>2013-08-24T07:11:50Z</time>
      </trkpt>
      <trkpt lat="46.32778" lon="6.77424">
        <ele>1742.1</ele>
        <time>2013-08-24T07:12:05Z</time>
      </trkpt>
      <trkpt lat="46.32775" lon="6.77431">
        <ele>1744</ele>
        <time>2013-08-24T07:12:21Z</time>
      </trkpt>
      <trkpt lat="46.32771" lon="6.77433">
        <ele>1746.4</ele>
        <time>2013-08-24T07:12:35Z</time>
      </trkpt>
      <trkpt lat="46.32769" lon="6.77438">
        <ele>1747.3</ele>
        <time>2013-08-24T07:12:49Z</time>
      </trkpt>
      <trkpt lat="46.32766" lon="6.7744">
        <ele>1749.3</ele>
        <time>2013-08-24T07:13:03Z</time>
      </trkpt>
      <trkpt lat="46.32755" lon="6.77442">
        <ele>1749.3</ele>
        <time>2013-08-24T07:13:18Z</time>
      </trkpt>
      <trkpt lat="46.32745" lon="6.77443">
        <ele>1751.2</ele>
        <time>2013-08-24T07:13:34Z</time>
      </trkpt>
      <trkpt lat="46.32739" lon="6.77445">
        <ele>1753.1</ele>
        <time>2013-08-24T07:13:47Z</time>
      </trkpt>
      <trkpt lat="46.32733" lon="6.77448">
        <ele>1754.5</ele>
        <time>2013-08-24T07:14:01Z</time>
      </trkpt>
      <trkpt lat="46.3273" lon="6.7745">
        <ele>1756.5</ele>
        <time>2013-08-24T07:14:14Z</time>
      </trkpt>
      <trkpt lat="46.32725" lon="6.77451">
        <ele>1758.4</ele>
        <time>2013-08-24T07:14:28Z</time>
      </trkpt>
      <trkpt lat="46.32722" lon="6.77454">
        <ele>1761.3</ele>
        <time>2013-08-24T07:14:41Z</time>
      </trkpt>
      <trkpt lat="46.32718" lon="6.77458">
        <ele>1763.2</ele>
        <time>2013-08-24T07:14:57Z</time>
      </trkpt>
      <trkpt lat="46.32713" lon="6.77461">
        <ele>1765.1</ele>
        <time>2013-08-24T07:15:11Z</time>
      </trkpt>
      <trkpt lat="46.32706" lon="6.77459">
        <ele>1767</ele>
        <time>2013-08-24T07:15:23Z</time>
      </trkpt>
      <trkpt lat="46.32699" lon="6.77462">
        <ele>1769</ele>
        <time>2013-08-24T07:15:37Z</time>
      </trkpt>
      <trkpt lat="46.32694" lon="6.77463">
        <ele>1771.4</ele>
        <time>2013-08-24T07:15:51Z</time>
      </trkpt>
      <trkpt lat="46.32689" lon="6.77461">
        <ele>1772.8</ele>
        <time>2013-08-24T07:16:00Z</time>
      </trkpt>
      <trkpt lat="46.32684" lon="6.77459">
        <ele>1774.3</ele>
        <time>2013-08-24T07:16:13Z</time>
      </trkpt>
      <trkpt lat="46.32685" lon="6.77456">
        <ele>1774.3</ele>
        <time>2013-08-24T07:16:16Z</time>
      </trkpt>
      <trkpt lat="46.32686" lon="6.77447">
        <ele>1774.7</ele>
        <time>2013-08-24T07:16:21Z</time>
      </trkpt>
      <trkpt lat="46.3268" lon="6.77438">
        <ele>1775.7</ele>
        <time>2013-08-24T07:16:32Z</time>
      </trkpt>
      <trkpt lat="46.32679" lon="6.77432">
        <ele>1775.2</ele>
        <time>2013-08-24T07:16:37Z</time>
      </trkpt>
      <trkpt lat="46.32672" lon="6.77428">
        <ele>1777.6</ele>
        <time>2013-08-24T07:16:51Z</time>
      </trkpt>
      <trkpt lat="46.32664" lon="6.77426">
        <ele>1779.5</ele>
        <time>2013-08-24T07:17:04Z</time>
      </trkpt>
      <trkpt lat="46.32656" lon="6.77422">
        <ele>1780.5</ele>
        <time>2013-08-24T07:17:15Z</time>
      </trkpt>
      <trkpt lat="46.32648" lon="6.77412">
        <ele>1781.5</ele>
        <time>2013-08-24T07:17:29Z</time>
      </trkpt>
      <trkpt lat="46.32642" lon="6.77408">
        <ele>1781.9</ele>
        <time>2013-08-24T07:17:36Z</time>
      </trkpt>
      <trkpt lat="46.32638" lon="6.77399">
        <ele>1781.9</ele>
        <time>2013-08-24T07:17:50Z</time>
      </trkpt>
      <trkpt lat="46.32633" lon="6.77394">
        <ele>1783.4</ele>
        <time>2013-08-24T07:17:57Z</time>
      </trkpt>
      <trkpt lat="46.32629" lon="6.7739">
        <ele>1785.3</ele>
        <time>2013-08-24T07:18:05Z</time>
      </trkpt>
      <trkpt lat="46.32625" lon="6.77379">
        <ele>1787.7</ele>
        <time>2013-08-24T07:18:19Z</time>
      </trkpt>
      <trkpt lat="46.32619" lon="6.77376">
        <ele>1789.2</ele>
        <time>2013-08-24T07:18:34Z</time>
      </trkpt>
      <trkpt lat="46.32612" lon="6.77382">
        <ele>1791.6</ele>
        <time>2013-08-24T07:18:48Z</time>
      </trkpt>
      <trkpt lat="46.32605" lon="6.77387">
        <ele>1792.5</ele>
        <time>2013-08-24T07:19:02Z</time>
      </trkpt>
      <trkpt lat="46.32602" lon="6.77388">
        <ele>1794</ele>
        <time>2013-08-24T07:19:08Z</time>
      </trkpt>
      <trkpt lat="46.32595" lon="6.77394">
        <ele>1796.4</ele>
        <time>2013-08-24T07:19:26Z</time>
      </trkpt>
      <trkpt lat="46.32592" lon="6.77398">
        <ele>1797.3</ele>
        <time>2013-08-24T07:19:33Z</time>
      </trkpt>
      <trkpt lat="46.32588" lon="6.77405">
        <ele>1799.2</ele>
        <time>2013-08-24T07:19:46Z</time>
      </trkpt>
      <trkpt lat="46.32585" lon="6.77412">
        <ele>1802.1</ele>
        <time>2013-08-24T07:19:59Z</time>
      </trkpt>
      <trkpt lat="46.32584" lon="6.77417">
        <ele>1804.1</ele>
        <time>2013-08-24T07:20:13Z</time>
      </trkpt>
      <trkpt lat="46.32579" lon="6.77423">
        <ele>1806</ele>
        <time>2013-08-24T07:20:31Z</time>
      </trkpt>
      <trkpt lat="46.32575" lon="6.77424">
        <ele>1808.9</ele>
        <time>2013-08-24T07:20:47Z</time>
      </trkpt>
      <trkpt lat="46.32572" lon="6.77425">
        <ele>1810.8</ele>
        <time>2013-08-24T07:20:59Z</time>
      </trkpt>
      <trkpt lat="46.32568" lon="6.77428">
        <ele>1812.2</ele>
        <time>2013-08-24T07:21:13Z</time>
      </trkpt>
      <trkpt lat="46.32565" lon="6.77431">
        <ele>1814.6</ele>
        <time>2013-08-24T07:21:28Z</time>
      </trkpt>
      <trkpt lat="46.32563" lon="6.77433">
        <ele>1814.6</ele>
        <time>2013-08-24T07:21:45Z</time>
      </trkpt>
      <trkpt lat="46.32561" lon="6.77435">
        <ele>1814.6</ele>
        <time>2013-08-24T07:21:58Z</time>
      </trkpt>
      <trkpt lat="46.32558" lon="6.77437">
        <ele>1816.1</ele>
        <time>2013-08-24T07:22:12Z</time>
      </trkpt>
      <trkpt lat="46.32559" lon="6.77437">
        <ele>1816.1</ele>
        <time>2013-08-24T07:22:25Z</time>
      </trkpt>
      <trkpt lat="46.32555" lon="6.77435">
        <ele>1816.6</ele>
        <time>2013-08-24T07:22:48Z</time>
      </trkpt>
      <trkpt lat="46.32557" lon="6.77437">
        <ele>1816.6</ele>
        <time>2013-08-24T07:23:23Z</time>
      </trkpt>
      <trkpt lat="46.32558" lon="6.77435">
        <ele>1812.2</ele>
        <time>2013-08-24T07:23:33Z</time>
      </trkpt>
      <trkpt lat="46.32558" lon="6.77435">
        <ele>1812.2</ele>
        <time>2013-08-24T07:23:34Z</time>
      </trkpt>
      <trkpt lat="46.32558" lon="6.77436">
        <ele>1810.8</ele>
        <time>2013-08-24T07:24:24Z</time>
      </trkpt>
      <trkpt lat="46.32556" lon="6.77438">
        <ele>1810.3</ele>
        <time>2013-08-24T07:24:25Z</time>
      </trkpt>
      <trkpt lat="46.32558" lon="6.77437">
        <ele>1807.4</ele>
        <time>2013-08-24T07:24:39Z</time>
      </trkpt>
      <trkpt lat="46.32558" lon="6.77437">
        <ele>1813.7</ele>
        <time>2013-08-24T07:24:41Z</time>
      </trkpt>
      <trkpt lat="46.32557" lon="6.77437">
        <ele>1811.3</ele>
        <time>2013-08-24T07:24:42Z</time>
      </trkpt>
      <trkpt lat="46.32557" lon="6.77437">
        <ele>1817</ele>
        <time>2013-08-24T07:24:43Z</time>
      </trkpt>
      <trkpt lat="46.32557" lon="6.77437">
        <ele>1811.3</ele>
        <time>2013-08-24T07:24:44Z</time>
      </trkpt>
      <trkpt lat="46.32557" lon="6.77437">
        <ele>1815.1</ele>
        <time>2013-08-24T07:24:46Z</time>
      </trkpt>
      <trkpt lat="46.32556" lon="6.77437">
        <ele>1811.3</ele>
        <time>2013-08-24T07:24:48Z</time>
      </trkpt>
      <trkpt lat="46.32557" lon="6.77436">
        <ele>1812.7</ele>
        <time>2013-08-24T07:24:52Z</time>
      </trkpt>
      <trkpt lat="46.32557" lon="6.77436">
        <ele>1811.3</ele>
        <time>2013-08-24T07:24:54Z</time>
      </trkpt>
      <trkpt lat="46.32557" lon="6.77436">
        <ele>1811.3</ele>
        <time>2013-08-24T07:25:20Z</time>
      </trkpt>
      <trkpt lat="46.32554" lon="6.77435">
        <ele>1810.3</ele>
        <time>2013-08-24T07:25:35Z</time>
      </trkpt>
      <trkpt lat="46.32547" lon="6.77437">
        <ele>1808.4</ele>
        <time>2013-08-24T07:25:44Z</time>
      </trkpt>
      <trkpt lat="46.32542" lon="6.77435">
        <ele>1808.4</ele>
        <time>2013-08-24T07:25:59Z</time>
      </trkpt>
      <trkpt lat="46.32531" lon="6.77437">
        <ele>1808.4</ele>
        <time>2013-08-24T07:26:08Z</time>
      </trkpt>
      <trkpt lat="46.32525" lon="6.77438">
        <ele>1808.4</ele>
        <time>2013-08-24T07:26:23Z</time>
      </trkpt>
      <trkpt lat="46.32519" lon="6.7744">
        <ele>1807.4</ele>
        <time>2013-08-24T07:26:36Z</time>
      </trkpt>
      <trkpt lat="46.32519" lon="6.77441">
        <ele>1806.9</ele>
        <time>2013-08-24T07:26:37Z</time>
      </trkpt>
      <trkpt lat="46.32518" lon="6.77442">
        <ele>1806.9</ele>
        <time>2013-08-24T07:26:38Z</time>
      </trkpt>
      <trkpt lat="46.32508" lon="6.7745">
        <ele>1805</ele>
        <time>2013-08-24T07:26:52Z</time>
      </trkpt>
      <trkpt lat="46.32498" lon="6.77449">
        <ele>1804.1</ele>
        <time>2013-08-24T07:27:04Z</time>
      </trkpt>
      <trkpt lat="46.32492" lon="6.77456">
        <ele>1803.6</ele>
        <time>2013-08-24T07:27:25Z</time>
      </trkpt>
      <trkpt lat="46.32491" lon="6.77457">
        <ele>1802.6</ele>
        <time>2013-08-24T07:27:26Z</time>
      </trkpt>
      <trkpt lat="46.3249" lon="6.77458">
        <ele>1802.1</ele>
        <time>2013-08-24T07:27:27Z</time>
      </trkpt>
      <trkpt lat="46.32485" lon="6.7746">
        <ele>1801.2</ele>
        <time>2013-08-24T07:27:34Z</time>
      </trkpt>
      <trkpt lat="46.32478" lon="6.77462">
        <ele>1798.8</ele>
        <time>2013-08-24T07:27:49Z</time>
      </trkpt>
      <trkpt lat="46.32478" lon="6.77461">
        <ele>1801.7</ele>
        <time>2013-08-24T07:28:06Z</time>
      </trkpt>
      <trkpt lat="46.32474" lon="6.7746">
        <ele>1801.7</ele>
        <time>2013-08-24T07:28:29Z</time>
      </trkpt>
      <trkpt lat="46.32474" lon="6.77464">
        <ele>1801.7</ele>
        <time>2013-08-24T07:28:55Z</time>
      </trkpt>
      <trkpt lat="46.32469" lon="6.77467">
        <ele>1801.7</ele>
        <time>2013-08-24T07:29:24Z</time>
      </trkpt>
      <trkpt lat="46.32468" lon="6.77465">
        <ele>1802.6</ele>
        <time>2013-08-24T07:29:49Z</time>
      </trkpt>
      <trkpt lat="46.32466" lon="6.77464">
        <ele>1802.6</ele>
        <time>2013-08-24T07:30:12Z</time>
      </trkpt>
      <trkpt lat="46.32468" lon="6.77464">
        <ele>1802.6</ele>
        <time>2013-08-24T07:30:32Z</time>
      </trkpt>
      <trkpt lat="46.32466" lon="6.77464">
        <ele>1803.6</ele>
        <time>2013-08-24T07:30:51Z</time>
      </trkpt>
      <trkpt lat="46.32461" lon="6.77463">
        <ele>1802.6</ele>
        <time>2013-08-24T07:31:05Z</time>
      </trkpt>
      <trkpt lat="46.32449" lon="6.77464">
        <ele>1800.2</ele>
        <time>2013-08-24T07:31:19Z</time>
      </trkpt>
      <trkpt lat="46.32444" lon="6.77465">
        <ele>1799.7</ele>
        <time>2013-08-24T07:31:21Z</time>
      </trkpt>
      <trkpt lat="46.32438" lon="6.77466">
        <ele>1799.7</ele>
        <time>2013-08-24T07:31:32Z</time>
      </trkpt>
      <trkpt lat="46.32433" lon="6.77469">
        <ele>1798.3</ele>
        <time>2013-08-24T07:31:39Z</time>
      </trkpt>
      <trkpt lat="46.32422" lon="6.77472">
        <ele>1796.8</ele>
        <time>2013-08-24T07:31:51Z</time>
      </trkpt>
      <trkpt lat="46.32421" lon="6.77473">
        <ele>1796.8</ele>
        <time>2013-08-24T07:31:52Z</time>
      </trkpt>
      <trkpt lat="46.3242" lon="6.77473">
        <ele>1796.4</ele>
        <time>2013-08-24T07:31:53Z</time>
      </trkpt>
      <trkpt lat="46.32406" lon="6.77481">
        <ele>1794.9</ele>
        <time>2013-08-24T07:32:07Z</time>
      </trkpt>
      <trkpt lat="46.32402" lon="6.77483">
        <ele>1793</ele>
        <time>2013-08-24T07:32:16Z</time>
      </trkpt>
      <trkpt lat="46.3239" lon="6.77486">
        <ele>1790.1</ele>
        <time>2013-08-24T07:32:26Z</time>
      </trkpt>
      <trkpt lat="46.32381" lon="6.77486">
        <ele>1787.7</ele>
        <time>2013-08-24T07:32:35Z</time>
      </trkpt>
      <trkpt lat="46.32381" lon="6.77486">
        <ele>1788.2</ele>
        <time>2013-08-24T07:32:50Z</time>
      </trkpt>
      <trkpt lat="46.3238" lon="6.77488">
        <ele>1787.2</ele>
        <time>2013-08-24T07:32:56Z</time>
      </trkpt>
      <trkpt lat="46.32362" lon="6.77493">
        <ele>1784.3</ele>
        <time>2013-08-24T07:33:02Z</time>
      </trkpt>
      <trkpt lat="46.32348" lon="6.775">
        <ele>1782.4</ele>
        <time>2013-08-24T07:33:08Z</time>
      </trkpt>
      <trkpt lat="46.32341" lon="6.77499">
        <ele>1781.5</ele>
        <time>2013-08-24T07:33:13Z</time>
      </trkpt>
      <trkpt lat="46.32339" lon="6.77501">
        <ele>1779.5</ele>
        <time>2013-08-24T07:33:15Z</time>
      </trkpt>
      <trkpt lat="46.32335" lon="6.77505">
        <ele>1778.6</ele>
        <time>2013-08-24T07:33:18Z</time>
      </trkpt>
      <trkpt lat="46.32326" lon="6.77515">
        <ele>1776.2</ele>
        <time>2013-08-24T07:33:24Z</time>
      </trkpt>
      <trkpt lat="46.32322" lon="6.77517">
        <ele>1775.7</ele>
        <time>2013-08-24T07:33:31Z</time>
      </trkpt>
      <trkpt lat="46.32314" lon="6.7752">
        <ele>1773.8</ele>
        <time>2013-08-24T07:33:43Z</time>
      </trkpt>
      <trkpt lat="46.32313" lon="6.77522">
        <ele>1772.8</ele>
        <time>2013-08-24T07:33:45Z</time>
      </trkpt>
      <trkpt lat="46.32313" lon="6.77524">
        <ele>1773.3</ele>
        <time>2013-08-24T07:33:46Z</time>
      </trkpt>
      <trkpt lat="46.3231" lon="6.77527">
        <ele>1771.9</ele>
        <time>2013-08-24T07:33:52Z</time>
      </trkpt>
      <trkpt lat="46.32303" lon="6.7753">
        <ele>1769.9</ele>
        <time>2013-08-24T07:33:55Z</time>
      </trkpt>
      <trkpt lat="46.32288" lon="6.77536">
        <ele>1767</ele>
        <time>2013-08-24T07:34:00Z</time>
      </trkpt>
      <trkpt lat="46.32283" lon="6.77541">
        <ele>1766.1</ele>
        <time>2013-08-24T07:34:02Z</time>
      </trkpt>
      <trkpt lat="46.32262" lon="6.77552">
        <ele>1765.6</ele>
        <time>2013-08-24T07:34:11Z</time>
      </trkpt>
      <trkpt lat="46.32259" lon="6.77553">
        <ele>1766.1</ele>
        <time>2013-08-24T07:34:22Z</time>
      </trkpt>
      <trkpt lat="46.32295" lon="6.7756">
        <ele>1766.1</ele>
        <time>2013-08-24T07:34:41Z</time>
      </trkpt>
      <trkpt lat="46.32297" lon="6.77559">
        <ele>1766.1</ele>
        <time>2013-08-24T07:34:53Z</time>
      </trkpt>
      <trkpt lat="46.32297" lon="6.77562">
        <ele>1765.6</ele>
        <time>2013-08-24T07:34:54Z</time>
      </trkpt>
      <trkpt lat="46.32296" lon="6.77564">
        <ele>1765.1</ele>
        <time>2013-08-24T07:34:55Z</time>
      </trkpt>
      <trkpt lat="46.32296" lon="6.77567">
        <ele>1765.1</ele>
        <time>2013-08-24T07:34:56Z</time>
      </trkpt>
      <trkpt lat="46.32296" lon="6.77569">
        <ele>1764.2</ele>
        <time>2013-08-24T07:34:57Z</time>
      </trkpt>
      <trkpt lat="46.32297" lon="6.77571">
        <ele>1763.7</ele>
        <time>2013-08-24T07:34:58Z</time>
      </trkpt>
      <trkpt lat="46.32297" lon="6.77575">
        <ele>1762.7</ele>
        <time>2013-08-24T07:35:09Z</time>
      </trkpt>
      <trkpt lat="46.32296" lon="6.77576">
        <ele>1761.8</ele>
        <time>2013-08-24T07:35:10Z</time>
      </trkpt>
      <trkpt lat="46.32296" lon="6.77578">
        <ele>1761.3</ele>
        <time>2013-08-24T07:35:12Z</time>
      </trkpt>
      <trkpt lat="46.32295" lon="6.77582">
        <ele>1759.8</ele>
        <time>2013-08-24T07:35:23Z</time>
      </trkpt>
      <trkpt lat="46.32287" lon="6.77594">
        <ele>1756</ele>
        <time>2013-08-24T07:35:31Z</time>
      </trkpt>
      <trkpt lat="46.32285" lon="6.77595">
        <ele>1756</ele>
        <time>2013-08-24T07:35:32Z</time>
      </trkpt>
      <trkpt lat="46.32277" lon="6.77601">
        <ele>1752.6</ele>
        <time>2013-08-24T07:35:37Z</time>
      </trkpt>
      <trkpt lat="46.32275" lon="6.77602">
        <ele>1751.7</ele>
        <time>2013-08-24T07:35:38Z</time>
      </trkpt>
      <trkpt lat="46.32274" lon="6.77603">
        <ele>1750.7</ele>
        <time>2013-08-24T07:35:39Z</time>
      </trkpt>
      <trkpt lat="46.32273" lon="6.77605">
        <ele>1750.2</ele>
        <time>2013-08-24T07:35:41Z</time>
      </trkpt>
      <trkpt lat="46.32273" lon="6.77603">
        <ele>1749.3</ele>
        <time>2013-08-24T07:35:51Z</time>
      </trkpt>
      <trkpt lat="46.3227" lon="6.77608">
        <ele>1748.3</ele>
        <time>2013-08-24T07:36:00Z</time>
      </trkpt>
      <trkpt lat="46.32263" lon="6.77613">
        <ele>1746.4</ele>
        <time>2013-08-24T07:36:07Z</time>
      </trkpt>
      <trkpt lat="46.32262" lon="6.77614">
        <ele>1746.4</ele>
        <time>2013-08-24T07:36:08Z</time>
      </trkpt>
      <trkpt lat="46.32261" lon="6.77614">
        <ele>1745.9</ele>
        <time>2013-08-24T07:36:09Z</time>
      </trkpt>
      <trkpt lat="46.32259" lon="6.77615">
        <ele>1745.4</ele>
        <time>2013-08-24T07:36:10Z</time>
      </trkpt>
      <trkpt lat="46.32257" lon="6.77614">
        <ele>1744.9</ele>
        <time>2013-08-24T07:36:11Z</time>
      </trkpt>
      <trkpt lat="46.32255" lon="6.77614">
        <ele>1744.5</ele>
        <time>2013-08-24T07:36:12Z</time>
      </trkpt>
      <trkpt lat="46.32253" lon="6.77613">
        <ele>1744.5</ele>
        <time>2013-08-24T07:36:13Z</time>
      </trkpt>
      <trkpt lat="46.32251" lon="6.77613">
        <ele>1743.5</ele>
        <time>2013-08-24T07:36:14Z</time>
      </trkpt>
      <trkpt lat="46.32249" lon="6.77613">
        <ele>1743</ele>
        <time>2013-08-24T07:36:15Z</time>
      </trkpt>
      <trkpt lat="46.32247" lon="6.77612">
        <ele>1742.5</ele>
        <time>2013-08-24T07:36:16Z</time>
      </trkpt>
      <trkpt lat="46.3224" lon="6.77613">
        <ele>1740.6</ele>
        <time>2013-08-24T07:36:20Z</time>
      </trkpt>
      <trkpt lat="46.32232" lon="6.77621">
        <ele>1737.7</ele>
        <time>2013-08-24T07:36:28Z</time>
      </trkpt>
      <trkpt lat="46.32232" lon="6.77625">
        <ele>1737.2</ele>
        <time>2013-08-24T07:36:30Z</time>
      </trkpt>
      <trkpt lat="46.32233" lon="6.77628">
        <ele>1736.3</ele>
        <time>2013-08-24T07:36:31Z</time>
      </trkpt>
      <trkpt lat="46.32237" lon="6.77637">
        <ele>1734.4</ele>
        <time>2013-08-24T07:36:39Z</time>
      </trkpt>
      <trkpt lat="46.32237" lon="6.77645">
        <ele>1732.9</ele>
        <time>2013-08-24T07:36:51Z</time>
      </trkpt>
      <trkpt lat="46.32237" lon="6.77646">
        <ele>1733.4</ele>
        <time>2013-08-24T07:36:52Z</time>
      </trkpt>
      <trkpt lat="46.32232" lon="6.7765">
        <ele>1732</ele>
        <time>2013-08-24T07:36:57Z</time>
      </trkpt>
      <trkpt lat="46.3223" lon="6.77654">
        <ele>1731</ele>
        <time>2013-08-24T07:37:05Z</time>
      </trkpt>
      <trkpt lat="46.32229" lon="6.77656">
        <ele>1731.5</ele>
        <time>2013-08-24T07:37:06Z</time>
      </trkpt>
      <trkpt lat="46.32218" lon="6.77676">
        <ele>1727.2</ele>
        <time>2013-08-24T07:37:13Z</time>
      </trkpt>
      <trkpt lat="46.32216" lon="6.77678">
        <ele>1727.2</ele>
        <time>2013-08-24T07:37:14Z</time>
      </trkpt>
      <trkpt lat="46.32211" lon="6.77688">
        <ele>1725.7</ele>
        <time>2013-08-24T07:37:18Z</time>
      </trkpt>
      <trkpt lat="46.32211" lon="6.77689">
        <ele>1725.2</ele>
        <time>2013-08-24T07:37:19Z</time>
      </trkpt>
      <trkpt lat="46.32206" lon="6.77691">
        <ele>1724.3</ele>
        <time>2013-08-24T07:37:32Z</time>
      </trkpt>
      <trkpt lat="46.32204" lon="6.77693">
        <ele>1722.3</ele>
        <time>2013-08-24T07:37:36Z</time>
      </trkpt>
      <trkpt lat="46.32198" lon="6.77695">
        <ele>1720.4</ele>
        <time>2013-08-24T07:37:46Z</time>
      </trkpt>
      <trkpt lat="46.32191" lon="6.77706">
        <ele>1718</ele>
        <time>2013-08-24T07:37:59Z</time>
      </trkpt>
      <trkpt lat="46.32187" lon="6.77713">
        <ele>1714.7</ele>
        <time>2013-08-24T07:38:08Z</time>
      </trkpt>
      <trkpt lat="46.32187" lon="6.77715">
        <ele>1714.2</ele>
        <time>2013-08-24T07:38:11Z</time>
      </trkpt>
      <trkpt lat="46.32192" lon="6.77725">
        <ele>1712.3</ele>
        <time>2013-08-24T07:38:22Z</time>
      </trkpt>
      <trkpt lat="46.32192" lon="6.77731">
        <ele>1709.4</ele>
        <time>2013-08-24T07:38:34Z</time>
      </trkpt>
      <trkpt lat="46.32188" lon="6.77731">
        <ele>1708.4</ele>
        <time>2013-08-24T07:38:38Z</time>
      </trkpt>
      <trkpt lat="46.32187" lon="6.77732">
        <ele>1708.4</ele>
        <time>2013-08-24T07:38:39Z</time>
      </trkpt>
      <trkpt lat="46.32188" lon="6.7774">
        <ele>1706</ele>
        <time>2013-08-24T07:38:51Z</time>
      </trkpt>
      <trkpt lat="46.32187" lon="6.77747">
        <ele>1705</ele>
        <time>2013-08-24T07:39:01Z</time>
      </trkpt>
      <trkpt lat="46.32187" lon="6.77749">
        <ele>1704.1</ele>
        <time>2013-08-24T07:39:02Z</time>
      </trkpt>
      <trkpt lat="46.32187" lon="6.77751">
        <ele>1703.6</ele>
        <time>2013-08-24T07:39:03Z</time>
      </trkpt>
      <trkpt lat="46.32186" lon="6.77753">
        <ele>1703.1</ele>
        <time>2013-08-24T07:39:04Z</time>
      </trkpt>
      <trkpt lat="46.32186" lon="6.77755">
        <ele>1702.6</ele>
        <time>2013-08-24T07:39:05Z</time>
      </trkpt>
      <trkpt lat="46.32185" lon="6.77758">
        <ele>1702.2</ele>
        <time>2013-08-24T07:39:06Z</time>
      </trkpt>
      <trkpt lat="46.32183" lon="6.77765">
        <ele>1701.2</ele>
        <time>2013-08-24T07:39:08Z</time>
      </trkpt>
      <trkpt lat="46.32184" lon="6.77767">
        <ele>1701.2</ele>
        <time>2013-08-24T07:39:09Z</time>
      </trkpt>
      <trkpt lat="46.3218" lon="6.77774">
        <ele>1699.8</ele>
        <time>2013-08-24T07:39:20Z</time>
      </trkpt>
      <trkpt lat="46.3218" lon="6.77776">
        <ele>1699.3</ele>
        <time>2013-08-24T07:39:21Z</time>
      </trkpt>
      <trkpt lat="46.32172" lon="6.77789">
        <ele>1696.4</ele>
        <time>2013-08-24T07:39:31Z</time>
      </trkpt>
      <trkpt lat="46.32168" lon="6.77793">
        <ele>1694</ele>
        <time>2013-08-24T07:39:42Z</time>
      </trkpt>
      <trkpt lat="46.32167" lon="6.77789">
        <ele>1693.5</ele>
        <time>2013-08-24T07:39:51Z</time>
      </trkpt>
      <trkpt lat="46.32167" lon="6.77786">
        <ele>1693.5</ele>
        <time>2013-08-24T07:39:52Z</time>
      </trkpt>
      <trkpt lat="46.32164" lon="6.77773">
        <ele>1690.1</ele>
        <time>2013-08-24T07:39:57Z</time>
      </trkpt>
      <trkpt lat="46.3216" lon="6.77769">
        <ele>1688.7</ele>
        <time>2013-08-24T07:40:00Z</time>
      </trkpt>
      <trkpt lat="46.32159" lon="6.77767">
        <ele>1687.7</ele>
        <time>2013-08-24T07:40:01Z</time>
      </trkpt>
      <trkpt lat="46.32159" lon="6.77765">
        <ele>1687.7</ele>
        <time>2013-08-24T07:40:02Z</time>
      </trkpt>
      <trkpt lat="46.32158" lon="6.77763">
        <ele>1686.8</ele>
        <time>2013-08-24T07:40:03Z</time>
      </trkpt>
      <trkpt lat="46.32155" lon="6.77767">
        <ele>1685.3</ele>
        <time>2013-08-24T07:40:12Z</time>
      </trkpt>
      <trkpt lat="46.32151" lon="6.77781">
        <ele>1682.4</ele>
        <time>2013-08-24T07:40:18Z</time>
      </trkpt>
      <trkpt lat="46.3215" lon="6.77781">
        <ele>1682.4</ele>
        <time>2013-08-24T07:40:19Z</time>
      </trkpt>
      <trkpt lat="46.32146" lon="6.77784">
        <ele>1680</ele>
        <time>2013-08-24T07:40:28Z</time>
      </trkpt>
      <trkpt lat="46.32138" lon="6.77792">
        <ele>1676.7</ele>
        <time>2013-08-24T07:40:35Z</time>
      </trkpt>
      <trkpt lat="46.32137" lon="6.77797">
        <ele>1676.7</ele>
        <time>2013-08-24T07:40:37Z</time>
      </trkpt>
      <trkpt lat="46.32138" lon="6.77799">
        <ele>1675.2</ele>
        <time>2013-08-24T07:40:40Z</time>
      </trkpt>
      <trkpt lat="46.32136" lon="6.77801">
        <ele>1674.3</ele>
        <time>2013-08-24T07:40:55Z</time>
      </trkpt>
      <trkpt lat="46.32134" lon="6.77803">
        <ele>1674.3</ele>
        <time>2013-08-24T07:40:56Z</time>
      </trkpt>
      <trkpt lat="46.32133" lon="6.77806">
        <ele>1673.3</ele>
        <time>2013-08-24T07:40:57Z</time>
      </trkpt>
      <trkpt lat="46.32133" lon="6.77809">
        <ele>1673.3</ele>
        <time>2013-08-24T07:40:58Z</time>
      </trkpt>
      <trkpt lat="46.32132" lon="6.77812">
        <ele>1672.4</ele>
        <time>2013-08-24T07:40:59Z</time>
      </trkpt>
      <trkpt lat="46.32132" lon="6.77814">
        <ele>1671.4</ele>
        <time>2013-08-24T07:41:00Z</time>
      </trkpt>
      <trkpt lat="46.3213" lon="6.77815">
        <ele>1671.9</ele>
        <time>2013-08-24T07:41:01Z</time>
      </trkpt>
      <trkpt lat="46.32129" lon="6.77816">
        <ele>1670.9</ele>
        <time>2013-08-24T07:41:02Z</time>
      </trkpt>
      <trkpt lat="46.32128" lon="6.77817">
        <ele>1670.9</ele>
        <time>2013-08-24T07:41:03Z</time>
      </trkpt>
      <trkpt lat="46.32128" lon="6.77819">
        <ele>1670.4</ele>
        <time>2013-08-24T07:41:04Z</time>
      </trkpt>
      <trkpt lat="46.32126" lon="6.77821">
        <ele>1669.5</ele>
        <time>2013-08-24T07:41:05Z</time>
      </trkpt>
      <trkpt lat="46.32124" lon="6.77823">
        <ele>1669</ele>
        <time>2013-08-24T07:41:06Z</time>
      </trkpt>
      <trkpt lat="46.32123" lon="6.77826">
        <ele>1669.5</ele>
        <time>2013-08-24T07:41:07Z</time>
      </trkpt>
      <trkpt lat="46.32121" lon="6.77829">
        <ele>1667.5</ele>
        <time>2013-08-24T07:41:08Z</time>
      </trkpt>
      <trkpt lat="46.3212" lon="6.77831">
        <ele>1667.1</ele>
        <time>2013-08-24T07:41:09Z</time>
      </trkpt>
      <trkpt lat="46.32119" lon="6.77834">
        <ele>1667.1</ele>
        <time>2013-08-24T07:41:10Z</time>
      </trkpt>
      <trkpt lat="46.32119" lon="6.77836">
        <ele>1665.6</ele>
        <time>2013-08-24T07:41:11Z</time>
      </trkpt>
      <trkpt lat="46.32118" lon="6.77839">
        <ele>1665.6</ele>
        <time>2013-08-24T07:41:12Z</time>
      </trkpt>
      <trkpt lat="46.32117" lon="6.77842">
        <ele>1664.7</ele>
        <time>2013-08-24T07:41:13Z</time>
      </trkpt>
      <trkpt lat="46.32116" lon="6.77844">
        <ele>1664.2</ele>
        <time>2013-08-24T07:41:14Z</time>
      </trkpt>
      <trkpt lat="46.32114" lon="6.77844">
        <ele>1664.2</ele>
        <time>2013-08-24T07:41:15Z</time>
      </trkpt>
      <trkpt lat="46.32112" lon="6.77846">
        <ele>1662.7</ele>
        <time>2013-08-24T07:41:16Z</time>
      </trkpt>
      <trkpt lat="46.3211" lon="6.77849">
        <ele>1662.7</ele>
        <time>2013-08-24T07:41:17Z</time>
      </trkpt>
      <trkpt lat="46.32108" lon="6.77851">
        <ele>1661.8</ele>
        <time>2013-08-24T07:41:18Z</time>
      </trkpt>
      <trkpt lat="46.32106" lon="6.77853">
        <ele>1660.8</ele>
        <time>2013-08-24T07:41:19Z</time>
      </trkpt>
      <trkpt lat="46.32105" lon="6.77855">
        <ele>1660.8</ele>
        <time>2013-08-24T07:41:20Z</time>
      </trkpt>
      <trkpt lat="46.32103" lon="6.77858">
        <ele>1660.3</ele>
        <time>2013-08-24T07:41:21Z</time>
      </trkpt>
      <trkpt lat="46.32102" lon="6.77859">
        <ele>1659.4</ele>
        <time>2013-08-24T07:41:22Z</time>
      </trkpt>
      <trkpt lat="46.32102" lon="6.77862">
        <ele>1658.9</ele>
        <time>2013-08-24T07:41:23Z</time>
      </trkpt>
      <trkpt lat="46.32099" lon="6.77866">
        <ele>1657.9</ele>
        <time>2013-08-24T07:41:29Z</time>
      </trkpt>
      <trkpt lat="46.32094" lon="6.77869">
        <ele>1656</ele>
        <time>2013-08-24T07:41:32Z</time>
      </trkpt>
      <trkpt lat="46.32091" lon="6.77874">
        <ele>1655.1</ele>
        <time>2013-08-24T07:41:34Z</time>
      </trkpt>
      <trkpt lat="46.32089" lon="6.77877">
        <ele>1654.1</ele>
        <time>2013-08-24T07:41:35Z</time>
      </trkpt>
      <trkpt lat="46.32088" lon="6.77878">
        <ele>1653.6</ele>
        <time>2013-08-24T07:41:36Z</time>
      </trkpt>
      <trkpt lat="46.32087" lon="6.77879">
        <ele>1652.6</ele>
        <time>2013-08-24T07:41:37Z</time>
      </trkpt>
      <trkpt lat="46.32086" lon="6.77881">
        <ele>1652.2</ele>
        <time>2013-08-24T07:41:38Z</time>
      </trkpt>
      <trkpt lat="46.32085" lon="6.77882">
        <ele>1652.6</ele>
        <time>2013-08-24T07:41:39Z</time>
      </trkpt>
      <trkpt lat="46.32084" lon="6.77884">
        <ele>1651.7</ele>
        <time>2013-08-24T07:41:40Z</time>
      </trkpt>
      <trkpt lat="46.32082" lon="6.77886">
        <ele>1651.2</ele>
        <time>2013-08-24T07:41:41Z</time>
      </trkpt>
      <trkpt lat="46.3208" lon="6.7789">
        <ele>1650.7</ele>
        <time>2013-08-24T07:41:42Z</time>
      </trkpt>
      <trkpt lat="46.32078" lon="6.77893">
        <ele>1649.8</ele>
        <time>2013-08-24T07:41:43Z</time>
      </trkpt>
      <trkpt lat="46.32076" lon="6.77896">
        <ele>1649.3</ele>
        <time>2013-08-24T07:41:44Z</time>
      </trkpt>
      <trkpt lat="46.32075" lon="6.77899">
        <ele>1648.8</ele>
        <time>2013-08-24T07:41:45Z</time>
      </trkpt>
      <trkpt lat="46.32074" lon="6.77901">
        <ele>1647.8</ele>
        <time>2013-08-24T07:41:46Z</time>
      </trkpt>
      <trkpt lat="46.32073" lon="6.77903">
        <ele>1647.8</ele>
        <time>2013-08-24T07:41:47Z</time>
      </trkpt>
      <trkpt lat="46.32071" lon="6.77904">
        <ele>1647.4</ele>
        <time>2013-08-24T07:41:48Z</time>
      </trkpt>
      <trkpt lat="46.32068" lon="6.77906">
        <ele>1646.4</ele>
        <time>2013-08-24T07:41:50Z</time>
      </trkpt>
      <trkpt lat="46.32067" lon="6.77907">
        <ele>1645.9</ele>
        <time>2013-08-24T07:41:51Z</time>
      </trkpt>
      <trkpt lat="46.32067" lon="6.77908">
        <ele>1645.4</ele>
        <time>2013-08-24T07:42:03Z</time>
      </trkpt>
      <trkpt lat="46.32061" lon="6.77912">
        <ele>1644.5</ele>
        <time>2013-08-24T07:42:14Z</time>
      </trkpt>
      <trkpt lat="46.32058" lon="6.77916">
        <ele>1644</ele>
        <time>2013-08-24T07:42:22Z</time>
      </trkpt>
      <trkpt lat="46.32056" lon="6.77917">
        <ele>1643.5</ele>
        <time>2013-08-24T07:42:23Z</time>
      </trkpt>
      <trkpt lat="46.32053" lon="6.77916">
        <ele>1641.6</ele>
        <time>2013-08-24T07:42:32Z</time>
      </trkpt>
      <trkpt lat="46.32051" lon="6.77915">
        <ele>1641.1</ele>
        <time>2013-08-24T07:42:34Z</time>
      </trkpt>
      <trkpt lat="46.3205" lon="6.77915">
        <ele>1640.6</ele>
        <time>2013-08-24T07:42:35Z</time>
      </trkpt>
      <trkpt lat="46.32048" lon="6.77915">
        <ele>1640.2</ele>
        <time>2013-08-24T07:42:37Z</time>
      </trkpt>
      <trkpt lat="46.32048" lon="6.77914">
        <ele>1639.7</ele>
        <time>2013-08-24T07:42:38Z</time>
      </trkpt>
      <trkpt lat="46.32047" lon="6.77912">
        <ele>1639.7</ele>
        <time>2013-08-24T07:42:39Z</time>
      </trkpt>
      <trkpt lat="46.32044" lon="6.77911">
        <ele>1639.2</ele>
        <time>2013-08-24T07:42:42Z</time>
      </trkpt>
      <trkpt lat="46.32041" lon="6.77912">
        <ele>1637.7</ele>
        <time>2013-08-24T07:42:46Z</time>
      </trkpt>
      <trkpt lat="46.32039" lon="6.77916">
        <ele>1636.3</ele>
        <time>2013-08-24T07:42:52Z</time>
      </trkpt>
      <trkpt lat="46.32038" lon="6.77917">
        <ele>1636.8</ele>
        <time>2013-08-24T07:42:53Z</time>
      </trkpt>
      <trkpt lat="46.32036" lon="6.77918">
        <ele>1636.3</ele>
        <time>2013-08-24T07:42:54Z</time>
      </trkpt>
      <trkpt lat="46.32035" lon="6.77915">
        <ele>1635.3</ele>
        <time>2013-08-24T07:42:58Z</time>
      </trkpt>
      <trkpt lat="46.32033" lon="6.77915">
        <ele>1635.8</ele>
        <time>2013-08-24T07:42:59Z</time>
      </trkpt>
      <trkpt lat="46.32032" lon="6.77915">
        <ele>1634.9</ele>
        <time>2013-08-24T07:43:00Z</time>
      </trkpt>
      <trkpt lat="46.3203" lon="6.77915">
        <ele>1633.9</ele>
        <time>2013-08-24T07:43:01Z</time>
      </trkpt>
      <trkpt lat="46.32028" lon="6.77915">
        <ele>1633.4</ele>
        <time>2013-08-24T07:43:02Z</time>
      </trkpt>
      <trkpt lat="46.32026" lon="6.77916">
        <ele>1632.9</ele>
        <time>2013-08-24T07:43:03Z</time>
      </trkpt>
      <trkpt lat="46.32024" lon="6.77918">
        <ele>1632</ele>
        <time>2013-08-24T07:43:04Z</time>
      </trkpt>
      <trkpt lat="46.32023" lon="6.7792">
        <ele>1632</ele>
        <time>2013-08-24T07:43:05Z</time>
      </trkpt>
      <trkpt lat="46.3202" lon="6.77923">
        <ele>1630.5</ele>
        <time>2013-08-24T07:43:07Z</time>
      </trkpt>
      <trkpt lat="46.32019" lon="6.77924">
        <ele>1629.6</ele>
        <time>2013-08-24T07:43:08Z</time>
      </trkpt>
      <trkpt lat="46.32017" lon="6.77926">
        <ele>1629.1</ele>
        <time>2013-08-24T07:43:09Z</time>
      </trkpt>
      <trkpt lat="46.32016" lon="6.77928">
        <ele>1628.1</ele>
        <time>2013-08-24T07:43:10Z</time>
      </trkpt>
      <trkpt lat="46.32015" lon="6.77931">
        <ele>1628.6</ele>
        <time>2013-08-24T07:43:11Z</time>
      </trkpt>
      <trkpt lat="46.32014" lon="6.77933">
        <ele>1627.7</ele>
        <time>2013-08-24T07:43:12Z</time>
      </trkpt>
      <trkpt lat="46.32013" lon="6.77935">
        <ele>1627.2</ele>
        <time>2013-08-24T07:43:13Z</time>
      </trkpt>
      <trkpt lat="46.32011" lon="6.77936">
        <ele>1626.7</ele>
        <time>2013-08-24T07:43:14Z</time>
      </trkpt>
      <trkpt lat="46.3201" lon="6.77938">
        <ele>1626.2</ele>
        <time>2013-08-24T07:43:15Z</time>
      </trkpt>
      <trkpt lat="46.32008" lon="6.7794">
        <ele>1625.3</ele>
        <time>2013-08-24T07:43:16Z</time>
      </trkpt>
      <trkpt lat="46.32006" lon="6.77941">
        <ele>1624.3</ele>
        <time>2013-08-24T07:43:17Z</time>
      </trkpt>
      <trkpt lat="46.32005" lon="6.77943">
        <ele>1623.8</ele>
        <time>2013-08-24T07:43:18Z</time>
      </trkpt>
      <trkpt lat="46.32002" lon="6.77944">
        <ele>1622.8</ele>
        <time>2013-08-24T07:43:22Z</time>
      </trkpt>
      <trkpt lat="46.32" lon="6.77944">
        <ele>1622.8</ele>
        <time>2013-08-24T07:43:23Z</time>
      </trkpt>
      <trkpt lat="46.31998" lon="6.77944">
        <ele>1621.9</ele>
        <time>2013-08-24T07:43:24Z</time>
      </trkpt>
      <trkpt lat="46.31997" lon="6.77946">
        <ele>1620.9</ele>
        <time>2013-08-24T07:43:25Z</time>
      </trkpt>
      <trkpt lat="46.31995" lon="6.77947">
        <ele>1620.9</ele>
        <time>2013-08-24T07:43:26Z</time>
      </trkpt>
      <trkpt lat="46.31993" lon="6.77948">
        <ele>1620.4</ele>
        <time>2013-08-24T07:43:27Z</time>
      </trkpt>
      <trkpt lat="46.31992" lon="6.7795">
        <ele>1620.4</ele>
        <time>2013-08-24T07:43:28Z</time>
      </trkpt>
      <trkpt lat="46.31991" lon="6.77952">
        <ele>1619</ele>
        <time>2013-08-24T07:43:29Z</time>
      </trkpt>
      <trkpt lat="46.3199" lon="6.77953">
        <ele>1619</ele>
        <time>2013-08-24T07:43:30Z</time>
      </trkpt>
      <trkpt lat="46.31989" lon="6.77951">
        <ele>1618</ele>
        <time>2013-08-24T07:43:43Z</time>
      </trkpt>
      <trkpt lat="46.31989" lon="6.77951">
        <ele>1618</ele>
        <time>2013-08-24T07:43:44Z</time>
      </trkpt>
      <trkpt lat="46.31987" lon="6.77956">
        <ele>1617.1</ele>
        <time>2013-08-24T07:43:51Z</time>
      </trkpt>
      <trkpt lat="46.31986" lon="6.77964">
        <ele>1615.2</ele>
        <time>2013-08-24T07:43:58Z</time>
      </trkpt>
      <trkpt lat="46.31982" lon="6.77963">
        <ele>1614.7</ele>
        <time>2013-08-24T07:44:05Z</time>
      </trkpt>
      <trkpt lat="46.31981" lon="6.77962">
        <ele>1614.7</ele>
        <time>2013-08-24T07:44:06Z</time>
      </trkpt>
      <trkpt lat="46.31978" lon="6.77963">
        <ele>1613.7</ele>
        <time>2013-08-24T07:44:08Z</time>
      </trkpt>
      <trkpt lat="46.31971" lon="6.77962">
        <ele>1611.8</ele>
        <time>2013-08-24T07:44:11Z</time>
      </trkpt>
      <trkpt lat="46.31966" lon="6.77963">
        <ele>1610.4</ele>
        <time>2013-08-24T07:44:21Z</time>
      </trkpt>
      <trkpt lat="46.3196" lon="6.77966">
        <ele>1608.9</ele>
        <time>2013-08-24T07:44:31Z</time>
      </trkpt>
      <trkpt lat="46.31957" lon="6.77971">
        <ele>1607.5</ele>
        <time>2013-08-24T07:44:39Z</time>
      </trkpt>
      <trkpt lat="46.31957" lon="6.77972">
        <ele>1607</ele>
        <time>2013-08-24T07:44:40Z</time>
      </trkpt>
      <trkpt lat="46.31957" lon="6.77975">
        <ele>1606</ele>
        <time>2013-08-24T07:44:42Z</time>
      </trkpt>
      <trkpt lat="46.31955" lon="6.77979">
        <ele>1603.6</ele>
        <time>2013-08-24T07:44:53Z</time>
      </trkpt>
      <trkpt lat="46.31954" lon="6.77987">
        <ele>1602.7</ele>
        <time>2013-08-24T07:44:57Z</time>
      </trkpt>
      <trkpt lat="46.31953" lon="6.7799">
        <ele>1602.7</ele>
        <time>2013-08-24T07:44:58Z</time>
      </trkpt>
      <trkpt lat="46.31952" lon="6.77992">
        <ele>1602.2</ele>
        <time>2013-08-24T07:44:59Z</time>
      </trkpt>
      <trkpt lat="46.3195" lon="6.77994">
        <ele>1601.2</ele>
        <time>2013-08-24T07:45:00Z</time>
      </trkpt>
      <trkpt lat="46.31949" lon="6.77996">
        <ele>1601.2</ele>
        <time>2013-08-24T07:45:01Z</time>
      </trkpt>
      <trkpt lat="46.31948" lon="6.77999">
        <ele>1600.7</ele>
        <time>2013-08-24T07:45:11Z</time>
      </trkpt>
      <trkpt lat="46.31946" lon="6.77999">
        <ele>1600.7</ele>
        <time>2013-08-24T07:45:36Z</time>
      </trkpt>
      <trkpt lat="46.31948" lon="6.77998">
        <ele>1601.2</ele>
        <time>2013-08-24T07:46:03Z</time>
      </trkpt>
      <trkpt lat="46.31948" lon="6.78">
        <ele>1600.3</ele>
        <time>2013-08-24T07:46:05Z</time>
      </trkpt>
      <trkpt lat="46.31948" lon="6.78002">
        <ele>1600.7</ele>
        <time>2013-08-24T07:46:06Z</time>
      </trkpt>
      <trkpt lat="46.31948" lon="6.78005">
        <ele>1600.7</ele>
        <time>2013-08-24T07:46:07Z</time>
      </trkpt>
      <trkpt lat="46.31949" lon="6.78018">
        <ele>1597.4</ele>
        <time>2013-08-24T07:46:11Z</time>
      </trkpt>
      <trkpt lat="46.31948" lon="6.78021">
        <ele>1596.9</ele>
        <time>2013-08-24T07:46:12Z</time>
      </trkpt>
      <trkpt lat="46.31947" lon="6.78024">
        <ele>1596.4</ele>
        <time>2013-08-24T07:46:13Z</time>
      </trkpt>
      <trkpt lat="46.31946" lon="6.78028">
        <ele>1595</ele>
        <time>2013-08-24T07:46:14Z</time>
      </trkpt>
      <trkpt lat="46.31944" lon="6.78032">
        <ele>1594.5</ele>
        <time>2013-08-24T07:46:15Z</time>
      </trkpt>
      <trkpt lat="46.31941" lon="6.78036">
        <ele>1594</ele>
        <time>2013-08-24T07:46:16Z</time>
      </trkpt>
      <trkpt lat="46.31938" lon="6.78038">
        <ele>1593</ele>
        <time>2013-08-24T07:46:17Z</time>
      </trkpt>
      <trkpt lat="46.31935" lon="6.7804">
        <ele>1592.1</ele>
        <time>2013-08-24T07:46:18Z</time>
      </trkpt>
      <trkpt lat="46.31932" lon="6.78042">
        <ele>1590.6</ele>
        <time>2013-08-24T07:46:19Z</time>
      </trkpt>
      <trkpt lat="46.31929" lon="6.78044">
        <ele>1589.2</ele>
        <time>2013-08-24T07:46:20Z</time>
      </trkpt>
      <trkpt lat="46.31926" lon="6.78047">
        <ele>1588.2</ele>
        <time>2013-08-24T07:46:21Z</time>
      </trkpt>
      <trkpt lat="46.31923" lon="6.78049">
        <ele>1587.8</ele>
        <time>2013-08-24T07:46:22Z</time>
      </trkpt>
      <trkpt lat="46.31919" lon="6.78052">
        <ele>1586.3</ele>
        <time>2013-08-24T07:46:23Z</time>
      </trkpt>
      <trkpt lat="46.31909" lon="6.78062">
        <ele>1582</ele>
        <time>2013-08-24T07:46:26Z</time>
      </trkpt>
      <trkpt lat="46.31906" lon="6.78065">
        <ele>1582</ele>
        <time>2013-08-24T07:46:27Z</time>
      </trkpt>
      <trkpt lat="46.31893" lon="6.78069">
        <ele>1578.1</ele>
        <time>2013-08-24T07:46:31Z</time>
      </trkpt>
      <trkpt lat="46.3189" lon="6.78071">
        <ele>1576.7</ele>
        <time>2013-08-24T07:46:32Z</time>
      </trkpt>
      <trkpt lat="46.31886" lon="6.78074">
        <ele>1575.7</ele>
        <time>2013-08-24T07:46:33Z</time>
      </trkpt>
      <trkpt lat="46.31882" lon="6.78078">
        <ele>1575.3</ele>
        <time>2013-08-24T07:46:34Z</time>
      </trkpt>
      <trkpt lat="46.31875" lon="6.78084">
        <ele>1571.9</ele>
        <time>2013-08-24T07:46:36Z</time>
      </trkpt>
      <trkpt lat="46.31869" lon="6.78092">
        <ele>1569</ele>
        <time>2013-08-24T07:46:38Z</time>
      </trkpt>
      <trkpt lat="46.31865" lon="6.78096">
        <ele>1568.5</ele>
        <time>2013-08-24T07:46:39Z</time>
      </trkpt>
      <trkpt lat="46.31861" lon="6.781">
        <ele>1567.1</ele>
        <time>2013-08-24T07:46:40Z</time>
      </trkpt>
      <trkpt lat="46.31857" lon="6.78104">
        <ele>1566.1</ele>
        <time>2013-08-24T07:46:41Z</time>
      </trkpt>
      <trkpt lat="46.31854" lon="6.78108">
        <ele>1564.7</ele>
        <time>2013-08-24T07:46:42Z</time>
      </trkpt>
      <trkpt lat="46.3185" lon="6.78112">
        <ele>1563.2</ele>
        <time>2013-08-24T07:46:43Z</time>
      </trkpt>
      <trkpt lat="46.31846" lon="6.78115">
        <ele>1562.3</ele>
        <time>2013-08-24T07:46:44Z</time>
      </trkpt>
      <trkpt lat="46.31843" lon="6.78117">
        <ele>1561.3</ele>
        <time>2013-08-24T07:46:45Z</time>
      </trkpt>
      <trkpt lat="46.31833" lon="6.78123">
        <ele>1558</ele>
        <time>2013-08-24T07:46:48Z</time>
      </trkpt>
      <trkpt lat="46.31818" lon="6.78136">
        <ele>1554.6</ele>
        <time>2013-08-24T07:46:53Z</time>
      </trkpt>
      <trkpt lat="46.31812" lon="6.78143">
        <ele>1552.7</ele>
        <time>2013-08-24T07:46:55Z</time>
      </trkpt>
      <trkpt lat="46.31809" lon="6.78146">
        <ele>1551.7</ele>
        <time>2013-08-24T07:46:56Z</time>
      </trkpt>
      <trkpt lat="46.31806" lon="6.78149">
        <ele>1550.3</ele>
        <time>2013-08-24T07:46:57Z</time>
      </trkpt>
      <trkpt lat="46.31796" lon="6.78159">
        <ele>1546.9</ele>
        <time>2013-08-24T07:47:00Z</time>
      </trkpt>
      <trkpt lat="46.31788" lon="6.78169">
        <ele>1543.5</ele>
        <time>2013-08-24T07:47:03Z</time>
      </trkpt>
      <trkpt lat="46.3178" lon="6.78181">
        <ele>1539.7</ele>
        <time>2013-08-24T07:47:07Z</time>
      </trkpt>
      <trkpt lat="46.31779" lon="6.78184">
        <ele>1539.7</ele>
        <time>2013-08-24T07:47:08Z</time>
      </trkpt>
      <trkpt lat="46.31782" lon="6.78186">
        <ele>1538.3</ele>
        <time>2013-08-24T07:47:19Z</time>
      </trkpt>
      <trkpt lat="46.31779" lon="6.78188">
        <ele>1538.3</ele>
        <time>2013-08-24T07:47:47Z</time>
      </trkpt>
      <trkpt lat="46.31779" lon="6.78189">
        <ele>1537.3</ele>
        <time>2013-08-24T07:48:11Z</time>
      </trkpt>
      <trkpt lat="46.3177" lon="6.782">
        <ele>1533.9</ele>
        <time>2013-08-24T07:48:35Z</time>
      </trkpt>
      <trkpt lat="46.31764" lon="6.78214">
        <ele>1530.6</ele>
        <time>2013-08-24T07:48:40Z</time>
      </trkpt>
      <trkpt lat="46.31764" lon="6.78229">
        <ele>1527.7</ele>
        <time>2013-08-24T07:48:45Z</time>
      </trkpt>
      <trkpt lat="46.31762" lon="6.78242">
        <ele>1524.3</ele>
        <time>2013-08-24T07:48:49Z</time>
      </trkpt>
      <trkpt lat="46.31762" lon="6.78248">
        <ele>1523.4</ele>
        <time>2013-08-24T07:48:51Z</time>
      </trkpt>
      <trkpt lat="46.3176" lon="6.78264">
        <ele>1519.5</ele>
        <time>2013-08-24T07:48:55Z</time>
      </trkpt>
      <trkpt lat="46.31756" lon="6.78279">
        <ele>1515.7</ele>
        <time>2013-08-24T07:48:59Z</time>
      </trkpt>
      <trkpt lat="46.31752" lon="6.78294">
        <ele>1512.3</ele>
        <time>2013-08-24T07:49:03Z</time>
      </trkpt>
      <trkpt lat="46.31746" lon="6.78315">
        <ele>1508.5</ele>
        <time>2013-08-24T07:49:08Z</time>
      </trkpt>
      <trkpt lat="46.31744" lon="6.78325">
        <ele>1506.5</ele>
        <time>2013-08-24T07:49:10Z</time>
      </trkpt>
      <trkpt lat="46.31743" lon="6.78331">
        <ele>1506</ele>
        <time>2013-08-24T07:49:11Z</time>
      </trkpt>
      <trkpt lat="46.3174" lon="6.78337">
        <ele>1505.1</ele>
        <time>2013-08-24T07:49:12Z</time>
      </trkpt>
      <trkpt lat="46.31736" lon="6.78342">
        <ele>1503.6</ele>
        <time>2013-08-24T07:49:13Z</time>
      </trkpt>
      <trkpt lat="46.31732" lon="6.78345">
        <ele>1502.7</ele>
        <time>2013-08-24T07:49:14Z</time>
      </trkpt>
      <trkpt lat="46.31728" lon="6.78347">
        <ele>1502.7</ele>
        <time>2013-08-24T07:49:15Z</time>
      </trkpt>
      <trkpt lat="46.31724" lon="6.78349">
        <ele>1502.2</ele>
        <time>2013-08-24T07:49:16Z</time>
      </trkpt>
      <trkpt lat="46.3172" lon="6.78352">
        <ele>1502.2</ele>
        <time>2013-08-24T07:49:17Z</time>
      </trkpt>
      <trkpt lat="46.31716" lon="6.78355">
        <ele>1501.2</ele>
        <time>2013-08-24T07:49:18Z</time>
      </trkpt>
      <trkpt lat="46.31707" lon="6.78364">
        <ele>1499.3</ele>
        <time>2013-08-24T07:49:21Z</time>
      </trkpt>
      <trkpt lat="46.31704" lon="6.78368">
        <ele>1498.8</ele>
        <time>2013-08-24T07:49:22Z</time>
      </trkpt>
      <trkpt lat="46.31701" lon="6.78371">
        <ele>1498.4</ele>
        <time>2013-08-24T07:49:23Z</time>
      </trkpt>
      <trkpt lat="46.31698" lon="6.78373">
        <ele>1497.4</ele>
        <time>2013-08-24T07:49:24Z</time>
      </trkpt>
      <trkpt lat="46.31694" lon="6.78374">
        <ele>1496.9</ele>
        <time>2013-08-24T07:49:25Z</time>
      </trkpt>
      <trkpt lat="46.3169" lon="6.78374">
        <ele>1496</ele>
        <time>2013-08-24T07:49:26Z</time>
      </trkpt>
      <trkpt lat="46.31683" lon="6.78377">
        <ele>1494.5</ele>
        <time>2013-08-24T07:49:28Z</time>
      </trkpt>
      <trkpt lat="46.31667" lon="6.78389">
        <ele>1491.1</ele>
        <time>2013-08-24T07:49:32Z</time>
      </trkpt>
      <trkpt lat="46.31661" lon="6.78396">
        <ele>1490.2</ele>
        <time>2013-08-24T07:49:34Z</time>
      </trkpt>
      <trkpt lat="46.31673" lon="6.78423">
        <ele>1485.4</ele>
        <time>2013-08-24T07:49:42Z</time>
      </trkpt>
      <trkpt lat="46.31676" lon="6.78427">
        <ele>1485.4</ele>
        <time>2013-08-24T07:49:43Z</time>
      </trkpt>
      <trkpt lat="46.31697" lon="6.78443">
        <ele>1483</ele>
        <time>2013-08-24T07:49:49Z</time>
      </trkpt>
      <trkpt lat="46.31707" lon="6.78451">
        <ele>1481.5</ele>
        <time>2013-08-24T07:49:52Z</time>
      </trkpt>
      <trkpt lat="46.3171" lon="6.78454">
        <ele>1480.6</ele>
        <time>2013-08-24T07:49:53Z</time>
      </trkpt>
      <trkpt lat="46.31728" lon="6.78479">
        <ele>1477.7</ele>
        <time>2013-08-24T07:49:59Z</time>
      </trkpt>
      <trkpt lat="46.31737" lon="6.78515">
        <ele>1473.4</ele>
        <time>2013-08-24T07:50:06Z</time>
      </trkpt>
      <trkpt lat="46.31738" lon="6.78548">
        <ele>1469.5</ele>
        <time>2013-08-24T07:50:13Z</time>
      </trkpt>
      <trkpt lat="46.3174" lon="6.78563">
        <ele>1467.1</ele>
        <time>2013-08-24T07:50:17Z</time>
      </trkpt>
      <trkpt lat="46.31739" lon="6.78566">
        <ele>1466.6</ele>
        <time>2013-08-24T07:50:24Z</time>
      </trkpt>
      <trkpt lat="46.31735" lon="6.78566">
        <ele>1465.2</ele>
        <time>2013-08-24T07:50:37Z</time>
      </trkpt>
      <trkpt lat="46.31734" lon="6.78567">
        <ele>1465.7</ele>
        <time>2013-08-24T07:51:06Z</time>
      </trkpt>
      <trkpt lat="46.31734" lon="6.78566">
        <ele>1465.2</ele>
        <time>2013-08-24T07:51:07Z</time>
      </trkpt>
      <trkpt lat="46.31721" lon="6.78541">
        <ele>1463.7</ele>
        <time>2013-08-24T07:51:15Z</time>
      </trkpt>
      <trkpt lat="46.31718" lon="6.78537">
        <ele>1464.2</ele>
        <time>2013-08-24T07:51:16Z</time>
      </trkpt>
      <trkpt lat="46.31706" lon="6.78525">
        <ele>1461.3</ele>
        <time>2013-08-24T07:51:19Z</time>
      </trkpt>
      <trkpt lat="46.31691" lon="6.78517">
        <ele>1458.5</ele>
        <time>2013-08-24T07:51:23Z</time>
      </trkpt>
      <trkpt lat="46.31686" lon="6.78515">
        <ele>1457</ele>
        <time>2013-08-24T07:51:25Z</time>
      </trkpt>
      <trkpt lat="46.31676" lon="6.78516">
        <ele>1453.2</ele>
        <time>2013-08-24T07:51:29Z</time>
      </trkpt>
      <trkpt lat="46.31673" lon="6.78518">
        <ele>1453.7</ele>
        <time>2013-08-24T07:51:30Z</time>
      </trkpt>
      <trkpt lat="46.31668" lon="6.78523">
        <ele>1450.3</ele>
        <time>2013-08-24T07:51:32Z</time>
      </trkpt>
      <trkpt lat="46.31665" lon="6.78526">
        <ele>1450.3</ele>
        <time>2013-08-24T07:51:33Z</time>
      </trkpt>
      <trkpt lat="46.31661" lon="6.78532">
        <ele>1448.4</ele>
        <time>2013-08-24T07:51:35Z</time>
      </trkpt>
      <trkpt lat="46.31658" lon="6.78539">
        <ele>1446.4</ele>
        <time>2013-08-24T07:51:37Z</time>
      </trkpt>
      <trkpt lat="46.31658" lon="6.78543">
        <ele>1446.9</ele>
        <time>2013-08-24T07:51:38Z</time>
      </trkpt>
      <trkpt lat="46.31659" lon="6.78545">
        <ele>1446.4</ele>
        <time>2013-08-24T07:51:39Z</time>
      </trkpt>
      <trkpt lat="46.31661" lon="6.78546">
        <ele>1446.4</ele>
        <time>2013-08-24T07:51:40Z</time>
      </trkpt>
      <trkpt lat="46.31664" lon="6.78547">
        <ele>1446</ele>
        <time>2013-08-24T07:51:41Z</time>
      </trkpt>
      <trkpt lat="46.31667" lon="6.78548">
        <ele>1445.5</ele>
        <time>2013-08-24T07:51:42Z</time>
      </trkpt>
      <trkpt lat="46.31671" lon="6.78552">
        <ele>1444</ele>
        <time>2013-08-24T07:51:43Z</time>
      </trkpt>
      <trkpt lat="46.31674" lon="6.78557">
        <ele>1443.1</ele>
        <time>2013-08-24T07:51:44Z</time>
      </trkpt>
      <trkpt lat="46.31676" lon="6.78562">
        <ele>1442.1</ele>
        <time>2013-08-24T07:51:45Z</time>
      </trkpt>
      <trkpt lat="46.31677" lon="6.78567">
        <ele>1441.6</ele>
        <time>2013-08-24T07:51:46Z</time>
      </trkpt>
      <trkpt lat="46.31678" lon="6.78573">
        <ele>1440.7</ele>
        <time>2013-08-24T07:51:47Z</time>
      </trkpt>
      <trkpt lat="46.31677" lon="6.78578">
        <ele>1439.2</ele>
        <time>2013-08-24T07:51:48Z</time>
      </trkpt>
      <trkpt lat="46.31676" lon="6.78584">
        <ele>1438.3</ele>
        <time>2013-08-24T07:51:49Z</time>
      </trkpt>
      <trkpt lat="46.31675" lon="6.7859">
        <ele>1436.4</ele>
        <time>2013-08-24T07:51:50Z</time>
      </trkpt>
      <trkpt lat="46.31673" lon="6.78595">
        <ele>1434.9</ele>
        <time>2013-08-24T07:51:51Z</time>
      </trkpt>
      <trkpt lat="46.31671" lon="6.786">
        <ele>1434.9</ele>
        <time>2013-08-24T07:51:52Z</time>
      </trkpt>
      <trkpt lat="46.31664" lon="6.78615">
        <ele>1430.1</ele>
        <time>2013-08-24T07:51:55Z</time>
      </trkpt>
      <trkpt lat="46.31661" lon="6.78619">
        <ele>1430.6</ele>
        <time>2013-08-24T07:51:56Z</time>
      </trkpt>
      <trkpt lat="46.31656" lon="6.78625">
        <ele>1427.2</ele>
        <time>2013-08-24T07:51:58Z</time>
      </trkpt>
      <trkpt lat="46.31648" lon="6.7863">
        <ele>1424.3</ele>
        <time>2013-08-24T07:52:01Z</time>
      </trkpt>
      <trkpt lat="46.31646" lon="6.78632">
        <ele>1423.4</ele>
        <time>2013-08-24T07:52:02Z</time>
      </trkpt>
      <trkpt lat="46.31644" lon="6.78635">
        <ele>1423.4</ele>
        <time>2013-08-24T07:52:03Z</time>
      </trkpt>
      <trkpt lat="46.31643" lon="6.78638">
        <ele>1422.4</ele>
        <time>2013-08-24T07:52:04Z</time>
      </trkpt>
      <trkpt lat="46.31643" lon="6.78642">
        <ele>1422.4</ele>
        <time>2013-08-24T07:52:05Z</time>
      </trkpt>
      <trkpt lat="46.31645" lon="6.78644">
        <ele>1421</ele>
        <time>2013-08-24T07:52:06Z</time>
      </trkpt>
      <trkpt lat="46.31646" lon="6.78646">
        <ele>1420</ele>
        <time>2013-08-24T07:52:07Z</time>
      </trkpt>
      <trkpt lat="46.31648" lon="6.78649">
        <ele>1419.5</ele>
        <time>2013-08-24T07:52:08Z</time>
      </trkpt>
      <trkpt lat="46.3165" lon="6.78652">
        <ele>1420</ele>
        <time>2013-08-24T07:52:09Z</time>
      </trkpt>
      <trkpt lat="46.31651" lon="6.78655">
        <ele>1418.6</ele>
        <time>2013-08-24T07:52:10Z</time>
      </trkpt>
      <trkpt lat="46.31654" lon="6.78657">
        <ele>1416.6</ele>
        <time>2013-08-24T07:52:11Z</time>
      </trkpt>
      <trkpt lat="46.31656" lon="6.78659">
        <ele>1416.6</ele>
        <time>2013-08-24T07:52:12Z</time>
      </trkpt>
      <trkpt lat="46.31658" lon="6.78662">
        <ele>1415.7</ele>
        <time>2013-08-24T07:52:13Z</time>
      </trkpt>
      <trkpt lat="46.31667" lon="6.78675">
        <ele>1411.4</ele>
        <time>2013-08-24T07:52:16Z</time>
      </trkpt>
      <trkpt lat="46.31677" lon="6.78692">
        <ele>1408</ele>
        <time>2013-08-24T07:52:19Z</time>
      </trkpt>
      <trkpt lat="46.31679" lon="6.78697">
        <ele>1407</ele>
        <time>2013-08-24T07:52:20Z</time>
      </trkpt>
      <trkpt lat="46.31678" lon="6.78702">
        <ele>1407.5</ele>
        <time>2013-08-24T07:52:21Z</time>
      </trkpt>
      <trkpt lat="46.31675" lon="6.78707">
        <ele>1406.6</ele>
        <time>2013-08-24T07:52:22Z</time>
      </trkpt>
      <trkpt lat="46.31674" lon="6.78711">
        <ele>1406.1</ele>
        <time>2013-08-24T07:52:23Z</time>
      </trkpt>
      <trkpt lat="46.31672" lon="6.78716">
        <ele>1405.1</ele>
        <time>2013-08-24T07:52:24Z</time>
      </trkpt>
      <trkpt lat="46.3167" lon="6.78721">
        <ele>1403.7</ele>
        <time>2013-08-24T07:52:25Z</time>
      </trkpt>
      <trkpt lat="46.31667" lon="6.78731">
        <ele>1402.7</ele>
        <time>2013-08-24T07:52:27Z</time>
      </trkpt>
      <trkpt lat="46.3166" lon="6.78742">
        <ele>1398.4</ele>
        <time>2013-08-24T07:52:30Z</time>
      </trkpt>
      <trkpt lat="46.31657" lon="6.78745">
        <ele>1397.9</ele>
        <time>2013-08-24T07:52:31Z</time>
      </trkpt>
      <trkpt lat="46.31652" lon="6.7875">
        <ele>1395</ele>
        <time>2013-08-24T07:52:35Z</time>
      </trkpt>
      <trkpt lat="46.31655" lon="6.7876">
        <ele>1394.5</ele>
        <time>2013-08-24T07:53:11Z</time>
      </trkpt>
      <trkpt lat="46.31654" lon="6.78759">
        <ele>1394.1</ele>
        <time>2013-08-24T07:53:16Z</time>
      </trkpt>
      <trkpt lat="46.31654" lon="6.78756">
        <ele>1393.6</ele>
        <time>2013-08-24T07:53:17Z</time>
      </trkpt>
      <trkpt lat="46.31653" lon="6.78753">
        <ele>1393.1</ele>
        <time>2013-08-24T07:53:18Z</time>
      </trkpt>
      <trkpt lat="46.31652" lon="6.78749">
        <ele>1393.1</ele>
        <time>2013-08-24T07:53:19Z</time>
      </trkpt>
      <trkpt lat="46.3165" lon="6.78746">
        <ele>1391.2</ele>
        <time>2013-08-24T07:53:20Z</time>
      </trkpt>
      <trkpt lat="46.31648" lon="6.78744">
        <ele>1391.2</ele>
        <time>2013-08-24T07:53:21Z</time>
      </trkpt>
      <trkpt lat="46.31643" lon="6.78737">
        <ele>1388.3</ele>
        <time>2013-08-24T07:53:24Z</time>
      </trkpt>
      <trkpt lat="46.31642" lon="6.78736">
        <ele>1388.3</ele>
        <time>2013-08-24T07:53:25Z</time>
      </trkpt>
      <trkpt lat="46.31634" lon="6.78732">
        <ele>1385.4</ele>
        <time>2013-08-24T07:53:39Z</time>
      </trkpt>
      <trkpt lat="46.31624" lon="6.78725">
        <ele>1382</ele>
        <time>2013-08-24T07:53:52Z</time>
      </trkpt>
      <trkpt lat="46.31616" lon="6.78721">
        <ele>1380.1</ele>
        <time>2013-08-24T07:54:03Z</time>
      </trkpt>
      <trkpt lat="46.31615" lon="6.78719">
        <ele>1380.1</ele>
        <time>2013-08-24T07:54:04Z</time>
      </trkpt>
      <trkpt lat="46.31614" lon="6.78717">
        <ele>1378.7</ele>
        <time>2013-08-24T07:54:06Z</time>
      </trkpt>
      <trkpt lat="46.31603" lon="6.78705">
        <ele>1375.3</ele>
        <time>2013-08-24T07:54:21Z</time>
      </trkpt>
      <trkpt lat="46.31597" lon="6.78702">
        <ele>1372.9</ele>
        <time>2013-08-24T07:54:33Z</time>
      </trkpt>
      <trkpt lat="46.31596" lon="6.78701">
        <ele>1372.9</ele>
        <time>2013-08-24T07:54:36Z</time>
      </trkpt>
      <trkpt lat="46.31594" lon="6.787">
        <ele>1372.4</ele>
        <time>2013-08-24T07:54:37Z</time>
      </trkpt>
      <trkpt lat="46.31592" lon="6.78699">
        <ele>1371.9</ele>
        <time>2013-08-24T07:54:38Z</time>
      </trkpt>
      <trkpt lat="46.3158" lon="6.78692">
        <ele>1368.1</ele>
        <time>2013-08-24T07:54:42Z</time>
      </trkpt>
      <trkpt lat="46.31577" lon="6.7869">
        <ele>1368.1</ele>
        <time>2013-08-24T07:54:43Z</time>
      </trkpt>
      <trkpt lat="46.3157" lon="6.78686">
        <ele>1367.1</ele>
        <time>2013-08-24T07:54:45Z</time>
      </trkpt>
      <trkpt lat="46.31566" lon="6.78683">
        <ele>1366.7</ele>
        <time>2013-08-24T07:54:46Z</time>
      </trkpt>
      <trkpt lat="46.31562" lon="6.78679">
        <ele>1365.2</ele>
        <time>2013-08-24T07:54:47Z</time>
      </trkpt>
      <trkpt lat="46.31552" lon="6.78673">
        <ele>1361.8</ele>
        <time>2013-08-24T07:54:49Z</time>
      </trkpt>
      <trkpt lat="46.31538" lon="6.78664">
        <ele>1359</ele>
        <time>2013-08-24T07:54:52Z</time>
      </trkpt>
      <trkpt lat="46.31532" lon="6.78659">
        <ele>1357.5</ele>
        <time>2013-08-24T07:54:53Z</time>
      </trkpt>
      <trkpt lat="46.3153" lon="6.78657">
        <ele>1357</ele>
        <time>2013-08-24T07:54:54Z</time>
      </trkpt>
      <trkpt lat="46.31519" lon="6.78645">
        <ele>1354.2</ele>
        <time>2013-08-24T07:54:57Z</time>
      </trkpt>
      <trkpt lat="46.31509" lon="6.78638">
        <ele>1350.3</ele>
        <time>2013-08-24T07:55:00Z</time>
      </trkpt>
      <trkpt lat="46.31498" lon="6.78632">
        <ele>1347.9</ele>
        <time>2013-08-24T07:55:03Z</time>
      </trkpt>
      <trkpt lat="46.31494" lon="6.78629">
        <ele>1346.5</ele>
        <time>2013-08-24T07:55:04Z</time>
      </trkpt>
      <trkpt lat="46.31483" lon="6.7862">
        <ele>1344.1</ele>
        <time>2013-08-24T07:55:07Z</time>
      </trkpt>
      <trkpt lat="46.31479" lon="6.78618">
        <ele>1342.6</ele>
        <time>2013-08-24T07:55:08Z</time>
      </trkpt>
      <trkpt lat="46.31464" lon="6.7861">
        <ele>1338.3</ele>
        <time>2013-08-24T07:55:12Z</time>
      </trkpt>
      <trkpt lat="46.31448" lon="6.78608">
        <ele>1334.9</ele>
        <time>2013-08-24T07:55:16Z</time>
      </trkpt>
      <trkpt lat="46.31436" lon="6.78609">
        <ele>1333.5</ele>
        <time>2013-08-24T07:55:19Z</time>
      </trkpt>
      <trkpt lat="46.31431" lon="6.78608">
        <ele>1333</ele>
        <time>2013-08-24T07:55:20Z</time>
      </trkpt>
      <trkpt lat="46.31418" lon="6.78602">
        <ele>1329.2</ele>
        <time>2013-08-24T07:55:23Z</time>
      </trkpt>
      <trkpt lat="46.31401" lon="6.78594">
        <ele>1325.3</ele>
        <time>2013-08-24T07:55:27Z</time>
      </trkpt>
      <trkpt lat="46.31389" lon="6.78592">
        <ele>1323.4</ele>
        <time>2013-08-24T07:55:31Z</time>
      </trkpt>
      <trkpt lat="46.31387" lon="6.78594">
        <ele>1322</ele>
        <time>2013-08-24T07:55:39Z</time>
      </trkpt>
      <trkpt lat="46.31388" lon="6.78594">
        <ele>1322</ele>
        <time>2013-08-24T07:56:01Z</time>
      </trkpt>
      <trkpt lat="46.31379" lon="6.78589">
        <ele>1320</ele>
        <time>2013-08-24T07:56:13Z</time>
      </trkpt>
      <trkpt lat="46.31372" lon="6.78588">
        <ele>1318.6</ele>
        <time>2013-08-24T07:56:15Z</time>
      </trkpt>
      <trkpt lat="46.31368" lon="6.78587">
        <ele>1317.1</ele>
        <time>2013-08-24T07:56:16Z</time>
      </trkpt>
      <trkpt lat="46.31364" lon="6.78586">
        <ele>1315.7</ele>
        <time>2013-08-24T07:56:17Z</time>
      </trkpt>
      <trkpt lat="46.31352" lon="6.78581">
        <ele>1312.8</ele>
        <time>2013-08-24T07:56:20Z</time>
      </trkpt>
      <trkpt lat="46.31331" lon="6.78575">
        <ele>1309</ele>
        <time>2013-08-24T07:56:25Z</time>
      </trkpt>
      <trkpt lat="46.31315" lon="6.78572">
        <ele>1306.1</ele>
        <time>2013-08-24T07:56:29Z</time>
      </trkpt>
      <trkpt lat="46.31304" lon="6.78571">
        <ele>1303.7</ele>
        <time>2013-08-24T07:56:32Z</time>
      </trkpt>
      <trkpt lat="46.31296" lon="6.7857">
        <ele>1302.2</ele>
        <time>2013-08-24T07:56:34Z</time>
      </trkpt>
      <trkpt lat="46.31276" lon="6.78568">
        <ele>1298.9</ele>
        <time>2013-08-24T07:56:40Z</time>
      </trkpt>
      <trkpt lat="46.31274" lon="6.78568">
        <ele>1297.4</ele>
        <time>2013-08-24T07:56:41Z</time>
      </trkpt>
      <trkpt lat="46.31258" lon="6.78567">
        <ele>1295</ele>
        <time>2013-08-24T07:56:47Z</time>
      </trkpt>
      <trkpt lat="46.31242" lon="6.78577">
        <ele>1291.2</ele>
        <time>2013-08-24T07:56:55Z</time>
      </trkpt>
      <trkpt lat="46.3124" lon="6.78575">
        <ele>1291.2</ele>
        <time>2013-08-24T07:56:56Z</time>
      </trkpt>
      <trkpt lat="46.31243" lon="6.78574">
        <ele>1291.2</ele>
        <time>2013-08-24T07:57:09Z</time>
      </trkpt>
      <trkpt lat="46.31243" lon="6.78574">
        <ele>1288.8</ele>
        <time>2013-08-24T07:57:11Z</time>
      </trkpt>
      <trkpt lat="46.31243" lon="6.78575">
        <ele>1293.6</ele>
        <time>2013-08-24T07:57:12Z</time>
      </trkpt>
      <trkpt lat="46.31243" lon="6.78575">
        <ele>1291.7</ele>
        <time>2013-08-24T07:57:13Z</time>
      </trkpt>
      <trkpt lat="46.31242" lon="6.78573">
        <ele>1291.7</ele>
        <time>2013-08-24T07:57:28Z</time>
      </trkpt>
      <trkpt lat="46.31242" lon="6.78573">
        <ele>1291.7</ele>
        <time>2013-08-24T07:57:35Z</time>
      </trkpt>
      <trkpt lat="46.31241" lon="6.78573">
        <ele>1291.7</ele>
        <time>2013-08-24T07:57:36Z</time>
      </trkpt>
      <trkpt lat="46.31221" lon="6.78564">
        <ele>1288.3</ele>
        <time>2013-08-24T07:57:42Z</time>
      </trkpt>
      <trkpt lat="46.31208" lon="6.78559">
        <ele>1285.9</ele>
        <time>2013-08-24T07:57:45Z</time>
      </trkpt>
      <trkpt lat="46.312" lon="6.78557">
        <ele>1284.9</ele>
        <time>2013-08-24T07:57:47Z</time>
      </trkpt>
      <trkpt lat="46.31196" lon="6.78557">
        <ele>1283.5</ele>
        <time>2013-08-24T07:57:48Z</time>
      </trkpt>
      <trkpt lat="46.31186" lon="6.78556">
        <ele>1281.6</ele>
        <time>2013-08-24T07:57:50Z</time>
      </trkpt>
      <trkpt lat="46.31181" lon="6.78555">
        <ele>1280.1</ele>
        <time>2013-08-24T07:57:51Z</time>
      </trkpt>
      <trkpt lat="46.31166" lon="6.78552">
        <ele>1277.7</ele>
        <time>2013-08-24T07:57:54Z</time>
      </trkpt>
      <trkpt lat="46.31156" lon="6.7855">
        <ele>1276.3</ele>
        <time>2013-08-24T07:57:56Z</time>
      </trkpt>
      <trkpt lat="46.31152" lon="6.78549">
        <ele>1275.8</ele>
        <time>2013-08-24T07:57:57Z</time>
      </trkpt>
      <trkpt lat="46.31147" lon="6.78547">
        <ele>1274.4</ele>
        <time>2013-08-24T07:57:58Z</time>
      </trkpt>
      <trkpt lat="46.31129" lon="6.78538">
        <ele>1270</ele>
        <time>2013-08-24T07:58:02Z</time>
      </trkpt>
      <trkpt lat="46.31125" lon="6.78536">
        <ele>1269.6</ele>
        <time>2013-08-24T07:58:03Z</time>
      </trkpt>
      <trkpt lat="46.3112" lon="6.78535">
        <ele>1269.6</ele>
        <time>2013-08-24T07:58:04Z</time>
      </trkpt>
      <trkpt lat="46.31116" lon="6.78535">
        <ele>1268.6</ele>
        <time>2013-08-24T07:58:05Z</time>
      </trkpt>
      <trkpt lat="46.31104" lon="6.78536">
        <ele>1265.2</ele>
        <time>2013-08-24T07:58:09Z</time>
      </trkpt>
      <trkpt lat="46.31101" lon="6.78537">
        <ele>1264.3</ele>
        <time>2013-08-24T07:58:10Z</time>
      </trkpt>
      <trkpt lat="46.3109" lon="6.78542">
        <ele>1261.4</ele>
        <time>2013-08-24T07:58:13Z</time>
      </trkpt>
      <trkpt lat="46.31073" lon="6.78548">
        <ele>1259</ele>
        <time>2013-08-24T07:58:16Z</time>
      </trkpt>
      <trkpt lat="46.31059" lon="6.78549">
        <ele>1257.5</ele>
        <time>2013-08-24T07:58:18Z</time>
      </trkpt>
      <trkpt lat="46.31045" lon="6.7855">
        <ele>1255.1</ele>
        <time>2013-08-24T07:58:20Z</time>
      </trkpt>
      <trkpt lat="46.31031" lon="6.78549">
        <ele>1253.7</ele>
        <time>2013-08-24T07:58:22Z</time>
      </trkpt>
      <trkpt lat="46.31024" lon="6.78549">
        <ele>1252.3</ele>
        <time>2013-08-24T07:58:23Z</time>
      </trkpt>
      <trkpt lat="46.31012" lon="6.78551">
        <ele>1250.3</ele>
        <time>2013-08-24T07:58:25Z</time>
      </trkpt>
      <trkpt lat="46.31006" lon="6.78554">
        <ele>1248.9</ele>
        <time>2013-08-24T07:58:26Z</time>
      </trkpt>
      <trkpt lat="46.30999" lon="6.78556">
        <ele>1248.4</ele>
        <time>2013-08-24T07:58:27Z</time>
      </trkpt>
      <trkpt lat="46.30992" lon="6.78556">
        <ele>1247.5</ele>
        <time>2013-08-24T07:58:28Z</time>
      </trkpt>
      <trkpt lat="46.30985" lon="6.78554">
        <ele>1245.5</ele>
        <time>2013-08-24T07:58:29Z</time>
      </trkpt>
      <trkpt lat="46.30967" lon="6.78546">
        <ele>1242.6</ele>
        <time>2013-08-24T07:58:32Z</time>
      </trkpt>
      <trkpt lat="46.30955" lon="6.78543">
        <ele>1240.2</ele>
        <time>2013-08-24T07:58:34Z</time>
      </trkpt>
      <trkpt lat="46.30949" lon="6.78543">
        <ele>1240.2</ele>
        <time>2013-08-24T07:58:35Z</time>
      </trkpt>
      <trkpt lat="46.30945" lon="6.78545">
        <ele>1238.8</ele>
        <time>2013-08-24T07:58:36Z</time>
      </trkpt>
      <trkpt lat="46.30938" lon="6.78585">
        <ele>1236.9</ele>
        <time>2013-08-24T07:58:45Z</time>
      </trkpt>
      <trkpt lat="46.30941" lon="6.78638">
        <ele>1233</ele>
        <time>2013-08-24T07:58:51Z</time>
      </trkpt>
      <trkpt lat="46.30939" lon="6.78671">
        <ele>1229.7</ele>
        <time>2013-08-24T07:58:54Z</time>
      </trkpt>
      <trkpt lat="46.30938" lon="6.78687">
        <ele>1227.7</ele>
        <time>2013-08-24T07:58:56Z</time>
      </trkpt>
      <trkpt lat="46.30937" lon="6.78694">
        <ele>1226.8</ele>
        <time>2013-08-24T07:58:57Z</time>
      </trkpt>
      <trkpt lat="46.30934" lon="6.787">
        <ele>1226.3</ele>
        <time>2013-08-24T07:58:58Z</time>
      </trkpt>
      <trkpt lat="46.30927" lon="6.78704">
        <ele>1224.4</ele>
        <time>2013-08-24T07:58:59Z</time>
      </trkpt>
      <trkpt lat="46.30902" lon="6.78724">
        <ele>1220.1</ele>
        <time>2013-08-24T07:59:02Z</time>
      </trkpt>
      <trkpt lat="46.30883" lon="6.78744">
        <ele>1215.7</ele>
        <time>2013-08-24T07:59:05Z</time>
      </trkpt>
      <trkpt lat="46.30857" lon="6.78764">
        <ele>1212.8</ele>
        <time>2013-08-24T07:59:07Z</time>
      </trkpt>
      <trkpt lat="46.30821" lon="6.78791">
        <ele>1209</ele>
        <time>2013-08-24T07:59:10Z</time>
      </trkpt>
      <trkpt lat="46.30789" lon="6.78809">
        <ele>1205.6</ele>
        <time>2013-08-24T07:59:12Z</time>
      </trkpt>
      <trkpt lat="46.30763" lon="6.78821">
        <ele>1203.7</ele>
        <time>2013-08-24T07:59:14Z</time>
      </trkpt>
      <trkpt lat="46.30729" lon="6.78831">
        <ele>1199.9</ele>
        <time>2013-08-24T07:59:18Z</time>
      </trkpt>
      <trkpt lat="46.30711" lon="6.78828">
        <ele>1197.9</ele>
        <time>2013-08-24T07:59:25Z</time>
      </trkpt>
      <trkpt lat="46.30711" lon="6.78828">
        <ele>1201.8</ele>
        <time>2013-08-24T07:59:26Z</time>
      </trkpt>
      <trkpt lat="46.30711" lon="6.78827">
        <ele>1200.3</ele>
        <time>2013-08-24T07:59:27Z</time>
      </trkpt>
      <trkpt lat="46.30714" lon="6.78828">
        <ele>1200.8</ele>
        <time>2013-08-24T07:59:44Z</time>
      </trkpt>
      <trkpt lat="46.30678" lon="6.78839">
        <ele>1197.5</ele>
        <time>2013-08-24T07:59:53Z</time>
      </trkpt>
      <trkpt lat="46.30668" lon="6.78839">
        <ele>1196</ele>
        <time>2013-08-24T07:59:54Z</time>
      </trkpt>
      <trkpt lat="46.30634" lon="6.78843">
        <ele>1192.7</ele>
        <time>2013-08-24T07:59:59Z</time>
      </trkpt>
      <trkpt lat="46.30623" lon="6.78846">
        <ele>1191.2</ele>
        <time>2013-08-24T08:00:00Z</time>
      </trkpt>
      <trkpt lat="46.30587" lon="6.78865">
        <ele>1187.4</ele>
        <time>2013-08-24T08:00:04Z</time>
      </trkpt>
      <trkpt lat="46.30565" lon="6.7888">
        <ele>1184</ele>
        <time>2013-08-24T08:00:06Z</time>
      </trkpt>
      <trkpt lat="46.30532" lon="6.78904">
        <ele>1180.2</ele>
        <time>2013-08-24T08:00:09Z</time>
      </trkpt>
      <trkpt lat="46.30511" lon="6.78915">
        <ele>1177.3</ele>
        <time>2013-08-24T08:00:11Z</time>
      </trkpt>
      <trkpt lat="46.305" lon="6.78917">
        <ele>1175.8</ele>
        <time>2013-08-24T08:00:12Z</time>
      </trkpt>
      <trkpt lat="46.30489" lon="6.78914">
        <ele>1174.4</ele>
        <time>2013-08-24T08:00:13Z</time>
      </trkpt>
      <trkpt lat="46.30478" lon="6.78909">
        <ele>1173.9</ele>
        <time>2013-08-24T08:00:14Z</time>
      </trkpt>
      <trkpt lat="46.30427" lon="6.78885">
        <ele>1170.1</ele>
        <time>2013-08-24T08:00:19Z</time>
      </trkpt>
      <trkpt lat="46.304" lon="6.78889">
        <ele>1167.2</ele>
        <time>2013-08-24T08:00:22Z</time>
      </trkpt>
      <trkpt lat="46.30379" lon="6.78887">
        <ele>1164.3</ele>
        <time>2013-08-24T08:00:24Z</time>
      </trkpt>
      <trkpt lat="46.30366" lon="6.78884">
        <ele>1162.9</ele>
        <time>2013-08-24T08:00:26Z</time>
      </trkpt>
      <trkpt lat="46.3036" lon="6.78885">
        <ele>1161.9</ele>
        <time>2013-08-24T08:00:27Z</time>
      </trkpt>
      <trkpt lat="46.30354" lon="6.78887">
        <ele>1161.4</ele>
        <time>2013-08-24T08:00:28Z</time>
      </trkpt>
      <trkpt lat="46.30347" lon="6.7889">
        <ele>1160.5</ele>
        <time>2013-08-24T08:00:29Z</time>
      </trkpt>
      <trkpt lat="46.30331" lon="6.78896">
        <ele>1158.1</ele>
        <time>2013-08-24T08:00:31Z</time>
      </trkpt>
      <trkpt lat="46.30308" lon="6.78902">
        <ele>1155.6</ele>
        <time>2013-08-24T08:00:34Z</time>
      </trkpt>
      <trkpt lat="46.3029" lon="6.78901">
        <ele>1152.3</ele>
        <time>2013-08-24T08:00:38Z</time>
      </trkpt>
      <trkpt lat="46.30286" lon="6.78893">
        <ele>1152.8</ele>
        <time>2013-08-24T08:00:49Z</time>
      </trkpt>
      <trkpt lat="46.30283" lon="6.78891">
        <ele>1152.8</ele>
        <time>2013-08-24T08:00:56Z</time>
      </trkpt>
      <trkpt lat="46.30272" lon="6.7889">
        <ele>1151.3</ele>
        <time>2013-08-24T08:00:59Z</time>
      </trkpt>
      <trkpt lat="46.30252" lon="6.78888">
        <ele>1150.4</ele>
        <time>2013-08-24T08:01:02Z</time>
      </trkpt>
      <trkpt lat="46.30244" lon="6.78887">
        <ele>1148.4</ele>
        <time>2013-08-24T08:01:03Z</time>
      </trkpt>
      <trkpt lat="46.30218" lon="6.78883">
        <ele>1146</ele>
        <time>2013-08-24T08:01:06Z</time>
      </trkpt>
      <trkpt lat="46.30209" lon="6.78884">
        <ele>1145.6</ele>
        <time>2013-08-24T08:01:07Z</time>
      </trkpt>
      <trkpt lat="46.30175" lon="6.78895">
        <ele>1141.7</ele>
        <time>2013-08-24T08:01:11Z</time>
      </trkpt>
      <trkpt lat="46.3015" lon="6.78899">
        <ele>1139.3</ele>
        <time>2013-08-24T08:01:13Z</time>
      </trkpt>
      <trkpt lat="46.30139" lon="6.78899">
        <ele>1137.9</ele>
        <time>2013-08-24T08:01:14Z</time>
      </trkpt>
      <trkpt lat="46.30127" lon="6.78899">
        <ele>1136.4</ele>
        <time>2013-08-24T08:01:15Z</time>
      </trkpt>
      <trkpt lat="46.30117" lon="6.78901">
        <ele>1134.5</ele>
        <time>2013-08-24T08:01:16Z</time>
      </trkpt>
      <trkpt lat="46.30106" lon="6.78903">
        <ele>1134</ele>
        <time>2013-08-24T08:01:17Z</time>
      </trkpt>
      <trkpt lat="46.30095" lon="6.78907">
        <ele>1132.6</ele>
        <time>2013-08-24T08:01:18Z</time>
      </trkpt>
      <trkpt lat="46.30073" lon="6.78916">
        <ele>1130.2</ele>
        <time>2013-08-24T08:01:20Z</time>
      </trkpt>
      <trkpt lat="46.30052" lon="6.78927">
        <ele>1127.3</ele>
        <time>2013-08-24T08:01:22Z</time>
      </trkpt>
      <trkpt lat="46.30031" lon="6.7894">
        <ele>1123.9</ele>
        <time>2013-08-24T08:01:24Z</time>
      </trkpt>
      <trkpt lat="46.30023" lon="6.78944">
        <ele>1123</ele>
        <time>2013-08-24T08:01:25Z</time>
      </trkpt>
      <trkpt lat="46.30012" lon="6.78948">
        <ele>1121.5</ele>
        <time>2013-08-24T08:01:26Z</time>
      </trkpt>
      <trkpt lat="46.29988" lon="6.78953">
        <ele>1118.6</ele>
        <time>2013-08-24T08:01:28Z</time>
      </trkpt>
      <trkpt lat="46.29977" lon="6.78954">
        <ele>1117.7</ele>
        <time>2013-08-24T08:01:29Z</time>
      </trkpt>
      <trkpt lat="46.29947" lon="6.78955">
        <ele>1114.8</ele>
        <time>2013-08-24T08:01:32Z</time>
      </trkpt>
      <trkpt lat="46.29927" lon="6.78953">
        <ele>1111.9</ele>
        <time>2013-08-24T08:01:34Z</time>
      </trkpt>
      <trkpt lat="46.29899" lon="6.78949">
        <ele>1108.1</ele>
        <time>2013-08-24T08:01:36Z</time>
      </trkpt>
      <trkpt lat="46.29881" lon="6.78948">
        <ele>1106.6</ele>
        <time>2013-08-24T08:01:37Z</time>
      </trkpt>
      <trkpt lat="46.29868" lon="6.78945">
        <ele>1103.7</ele>
        <time>2013-08-24T08:01:38Z</time>
      </trkpt>
      <trkpt lat="46.29856" lon="6.78942">
        <ele>1102.3</ele>
        <time>2013-08-24T08:01:39Z</time>
      </trkpt>
      <trkpt lat="46.29831" lon="6.78934">
        <ele>1099.9</ele>
        <time>2013-08-24T08:01:41Z</time>
      </trkpt>
      <trkpt lat="46.29797" lon="6.78925">
        <ele>1095.6</ele>
        <time>2013-08-24T08:01:44Z</time>
      </trkpt>
      <trkpt lat="46.29775" lon="6.78919">
        <ele>1093.2</ele>
        <time>2013-08-24T08:01:46Z</time>
      </trkpt>
      <trkpt lat="46.29766" lon="6.78916">
        <ele>1091.7</ele>
        <time>2013-08-24T08:01:47Z</time>
      </trkpt>
      <trkpt lat="46.29758" lon="6.78912">
        <ele>1090.8</ele>
        <time>2013-08-24T08:01:48Z</time>
      </trkpt>
      <trkpt lat="46.29752" lon="6.7891">
        <ele>1089.3</ele>
        <time>2013-08-24T08:01:49Z</time>
      </trkpt>
      <trkpt lat="46.29744" lon="6.78908">
        <ele>1088.4</ele>
        <time>2013-08-24T08:01:55Z</time>
      </trkpt>
      <trkpt lat="46.29743" lon="6.7891">
        <ele>1088.4</ele>
        <time>2013-08-24T08:02:00Z</time>
      </trkpt>
      <trkpt lat="46.29739" lon="6.78915">
        <ele>1088.8</ele>
        <time>2013-08-24T08:02:02Z</time>
      </trkpt>
      <trkpt lat="46.29735" lon="6.78915">
        <ele>1087.9</ele>
        <time>2013-08-24T08:02:03Z</time>
      </trkpt>
      <trkpt lat="46.29718" lon="6.78904">
        <ele>1086</ele>
        <time>2013-08-24T08:02:06Z</time>
      </trkpt>
      <trkpt lat="46.29713" lon="6.78903">
        <ele>1085.5</ele>
        <time>2013-08-24T08:02:07Z</time>
      </trkpt>
      <trkpt lat="46.29708" lon="6.78903">
        <ele>1085</ele>
        <time>2013-08-24T08:02:08Z</time>
      </trkpt>
      <trkpt lat="46.29696" lon="6.78907">
        <ele>1084</ele>
        <time>2013-08-24T08:02:10Z</time>
      </trkpt>
      <trkpt lat="46.29683" lon="6.78915">
        <ele>1081.1</ele>
        <time>2013-08-24T08:02:12Z</time>
      </trkpt>
      <trkpt lat="46.29668" lon="6.78922">
        <ele>1079.7</ele>
        <time>2013-08-24T08:02:14Z</time>
      </trkpt>
      <trkpt lat="46.29661" lon="6.78923">
        <ele>1078.3</ele>
        <time>2013-08-24T08:02:15Z</time>
      </trkpt>
      <trkpt lat="46.29654" lon="6.78922">
        <ele>1077.8</ele>
        <time>2013-08-24T08:02:16Z</time>
      </trkpt>
      <trkpt lat="46.29648" lon="6.7892">
        <ele>1076.8</ele>
        <time>2013-08-24T08:02:17Z</time>
      </trkpt>
      <trkpt lat="46.29642" lon="6.78916">
        <ele>1076.3</ele>
        <time>2013-08-24T08:02:18Z</time>
      </trkpt>
      <trkpt lat="46.29636" lon="6.78911">
        <ele>1075.9</ele>
        <time>2013-08-24T08:02:19Z</time>
      </trkpt>
      <trkpt lat="46.29629" lon="6.78904">
        <ele>1074.9</ele>
        <time>2013-08-24T08:02:20Z</time>
      </trkpt>
      <trkpt lat="46.29609" lon="6.78881">
        <ele>1072</ele>
        <time>2013-08-24T08:02:25Z</time>
      </trkpt>
      <trkpt lat="46.29636" lon="6.78885">
        <ele>1071.1</ele>
        <time>2013-08-24T08:02:28Z</time>
      </trkpt>
      <trkpt lat="46.29642" lon="6.78887">
        <ele>1071.5</ele>
        <time>2013-08-24T08:02:29Z</time>
      </trkpt>
      <trkpt lat="46.29634" lon="6.78887">
        <ele>1071.5</ele>
        <time>2013-08-24T08:02:34Z</time>
      </trkpt>
      <trkpt lat="46.29631" lon="6.78886">
        <ele>1071.1</ele>
        <time>2013-08-24T08:02:35Z</time>
      </trkpt>
      <trkpt lat="46.29605" lon="6.78873">
        <ele>1067.7</ele>
        <time>2013-08-24T08:02:40Z</time>
      </trkpt>
      <trkpt lat="46.29602" lon="6.78872">
        <ele>1067.7</ele>
        <time>2013-08-24T08:02:41Z</time>
      </trkpt>
      <trkpt lat="46.29587" lon="6.78866">
        <ele>1065.3</ele>
        <time>2013-08-24T08:02:46Z</time>
      </trkpt>
      <trkpt lat="46.29596" lon="6.7887">
        <ele>1061.9</ele>
        <time>2013-08-24T08:02:56Z</time>
      </trkpt>
      <trkpt lat="46.29559" lon="6.7885">
        <ele>1058.6</ele>
        <time>2013-08-24T08:03:05Z</time>
      </trkpt>
      <trkpt lat="46.29555" lon="6.78847">
        <ele>1058.6</ele>
        <time>2013-08-24T08:03:06Z</time>
      </trkpt>
      <trkpt lat="46.29533" lon="6.78833">
        <ele>1055.2</ele>
        <time>2013-08-24T08:03:14Z</time>
      </trkpt>
      <trkpt lat="46.29531" lon="6.78837">
        <ele>1054.7</ele>
        <time>2013-08-24T08:03:23Z</time>
      </trkpt>
      <trkpt lat="46.29528" lon="6.7884">
        <ele>1055.2</ele>
        <time>2013-08-24T08:03:25Z</time>
      </trkpt>
      <trkpt lat="46.29527" lon="6.78887">
        <ele>1054.7</ele>
        <time>2013-08-24T08:03:40Z</time>
      </trkpt>
      <trkpt lat="46.29517" lon="6.78945">
        <ele>1055.7</ele>
        <time>2013-08-24T08:03:54Z</time>
      </trkpt>
      <trkpt lat="46.29504" lon="6.79002">
        <ele>1055.7</ele>
        <time>2013-08-24T08:04:09Z</time>
      </trkpt>
      <trkpt lat="46.29501" lon="6.79001">
        <ele>1055.2</ele>
        <time>2013-08-24T08:04:22Z</time>
      </trkpt>
      <trkpt lat="46.29501" lon="6.79003">
        <ele>1054.7</ele>
        <time>2013-08-24T08:04:46Z</time>
      </trkpt>
      <trkpt lat="46.295" lon="6.79002">
        <ele>1054.7</ele>
        <time>2013-08-24T08:05:04Z</time>
      </trkpt>
      <trkpt lat="46.295" lon="6.79016">
        <ele>1054.7</ele>
        <time>2013-08-24T08:05:12Z</time>
      </trkpt>
      <trkpt lat="46.29501" lon="6.79019">
        <ele>1054.7</ele>
        <time>2013-08-24T08:05:13Z</time>
      </trkpt>
      <trkpt lat="46.29503" lon="6.79023">
        <ele>1054.7</ele>
        <time>2013-08-24T08:05:14Z</time>
      </trkpt>
      <trkpt lat="46.29502" lon="6.79027">
        <ele>1054.7</ele>
        <time>2013-08-24T08:05:15Z</time>
      </trkpt>
      <trkpt lat="46.29501" lon="6.79031">
        <ele>1054.7</ele>
        <time>2013-08-24T08:05:16Z</time>
      </trkpt>
      <trkpt lat="46.29489" lon="6.7911">
        <ele>1054.2</ele>
        <time>2013-08-24T08:05:31Z</time>
      </trkpt>
      <trkpt lat="46.29485" lon="6.7912">
        <ele>1053.3</ele>
        <time>2013-08-24T08:05:33Z</time>
      </trkpt>
      <trkpt lat="46.29476" lon="6.79139">
        <ele>1053.7</ele>
        <time>2013-08-24T08:05:37Z</time>
      </trkpt>
      <trkpt lat="46.29474" lon="6.79145">
        <ele>1053.3</ele>
        <time>2013-08-24T08:05:38Z</time>
      </trkpt>
      <trkpt lat="46.29473" lon="6.79151">
        <ele>1053.7</ele>
        <time>2013-08-24T08:05:39Z</time>
      </trkpt>
      <trkpt lat="46.29451" lon="6.79223">
        <ele>1053.7</ele>
        <time>2013-08-24T08:05:53Z</time>
      </trkpt>
      <trkpt lat="46.29418" lon="6.7928">
        <ele>1053.7</ele>
        <time>2013-08-24T08:06:05Z</time>
      </trkpt>
      <trkpt lat="46.29416" lon="6.79285">
        <ele>1053.7</ele>
        <time>2013-08-24T08:06:06Z</time>
      </trkpt>
      <trkpt lat="46.29359" lon="6.7939">
        <ele>1053.7</ele>
        <time>2013-08-24T08:06:28Z</time>
      </trkpt>
      <trkpt lat="46.29346" lon="6.79438">
        <ele>1052.8</ele>
        <time>2013-08-24T08:06:41Z</time>
      </trkpt>
      <trkpt lat="46.29346" lon="6.79438">
        <ele>1048.9</ele>
        <time>2013-08-24T08:06:46Z</time>
      </trkpt>
      <trkpt lat="46.29346" lon="6.79439">
        <ele>1049.4</ele>
        <time>2013-08-24T08:21:43Z</time>
      </trkpt>
      <trkpt lat="46.29349" lon="6.79426">
        <ele>1049.4</ele>
        <time>2013-08-24T08:21:44Z</time>
      </trkpt>
      <trkpt lat="46.29351" lon="6.79431">
        <ele>1048</ele>
        <time>2013-08-24T08:21:47Z</time>
      </trkpt>
      <trkpt lat="46.29355" lon="6.7943">
        <ele>1051.8</ele>
        <time>2013-08-24T08:21:52Z</time>
      </trkpt>
      <trkpt lat="46.29353" lon="6.79433">
        <ele>1048.9</ele>
        <time>2013-08-24T08:21:54Z</time>
      </trkpt>
      <trkpt lat="46.29353" lon="6.79437">
        <ele>1045.6</ele>
        <time>2013-08-24T08:22:02Z</time>
      </trkpt>
      <trkpt lat="46.29348" lon="6.79437">
        <ele>1042.2</ele>
        <time>2013-08-24T08:22:09Z</time>
      </trkpt>
      <trkpt lat="46.29349" lon="6.79439">
        <ele>1041.3</ele>
        <time>2013-08-24T08:22:11Z</time>
      </trkpt>
      <trkpt lat="46.29348" lon="6.79438">
        <ele>1037.9</ele>
        <time>2013-08-24T08:22:21Z</time>
      </trkpt>
      <trkpt lat="46.2935" lon="6.79438">
        <ele>1034.5</ele>
        <time>2013-08-24T08:22:33Z</time>
      </trkpt>
      <trkpt lat="46.29348" lon="6.79442">
        <ele>1032.6</ele>
        <time>2013-08-24T08:23:02Z</time>
      </trkpt>
      <trkpt lat="46.29348" lon="6.79447">
        <ele>1031.2</ele>
        <time>2013-08-24T08:23:24Z</time>
      </trkpt>
      <trkpt lat="46.29348" lon="6.79449">
        <ele>1031.6</ele>
        <time>2013-08-24T08:23:26Z</time>
      </trkpt>
      <trkpt lat="46.29346" lon="6.79488">
        <ele>1031.2</ele>
        <time>2013-08-24T08:23:39Z</time>
      </trkpt>
      <trkpt lat="46.29336" lon="6.79579">
        <ele>1029.7</ele>
        <time>2013-08-24T08:23:55Z</time>
      </trkpt>
      <trkpt lat="46.29335" lon="6.79585">
        <ele>1029.2</ele>
        <time>2013-08-24T08:23:56Z</time>
      </trkpt>
      <trkpt lat="46.29305" lon="6.79701">
        <ele>1027.3</ele>
        <time>2013-08-24T08:24:12Z</time>
      </trkpt>
      <trkpt lat="46.29271" lon="6.79823">
        <ele>1024.9</ele>
        <time>2013-08-24T08:24:26Z</time>
      </trkpt>
      <trkpt lat="46.29253" lon="6.79873">
        <ele>1024.4</ele>
        <time>2013-08-24T08:24:32Z</time>
      </trkpt>
      <trkpt lat="46.29187" lon="6.79992">
        <ele>1024.4</ele>
        <time>2013-08-24T08:24:50Z</time>
      </trkpt>
      <trkpt lat="46.29153" lon="6.80087">
        <ele>1025.9</ele>
        <time>2013-08-24T08:25:06Z</time>
      </trkpt>
      <trkpt lat="46.29121" lon="6.80157">
        <ele>1027.3</ele>
        <time>2013-08-24T08:25:23Z</time>
      </trkpt>
      <trkpt lat="46.29088" lon="6.80221">
        <ele>1029.2</ele>
        <time>2013-08-24T08:25:42Z</time>
      </trkpt>
      <trkpt lat="46.29049" lon="6.80287">
        <ele>1032.1</ele>
        <time>2013-08-24T08:26:02Z</time>
      </trkpt>
      <trkpt lat="46.29019" lon="6.80337">
        <ele>1033.6</ele>
        <time>2013-08-24T08:26:17Z</time>
      </trkpt>
      <trkpt lat="46.28992" lon="6.80384">
        <ele>1035.5</ele>
        <time>2013-08-24T08:26:33Z</time>
      </trkpt>
      <trkpt lat="46.28968" lon="6.80431">
        <ele>1036.9</ele>
        <time>2013-08-24T08:26:48Z</time>
      </trkpt>
      <trkpt lat="46.28944" lon="6.80503">
        <ele>1038.8</ele>
        <time>2013-08-24T08:27:07Z</time>
      </trkpt>
      <trkpt lat="46.28917" lon="6.80586">
        <ele>1040.3</ele>
        <time>2013-08-24T08:27:26Z</time>
      </trkpt>
      <trkpt lat="46.28896" lon="6.8064">
        <ele>1041.3</ele>
        <time>2013-08-24T08:27:37Z</time>
      </trkpt>
      <trkpt lat="46.28859" lon="6.80747">
        <ele>1040.8</ele>
        <time>2013-08-24T08:27:56Z</time>
      </trkpt>
      <trkpt lat="46.28827" lon="6.80816">
        <ele>1040.3</ele>
        <time>2013-08-24T08:28:07Z</time>
      </trkpt>
      <trkpt lat="46.28823" lon="6.80821">
        <ele>1040.8</ele>
        <time>2013-08-24T08:28:08Z</time>
      </trkpt>
      <trkpt lat="46.28817" lon="6.80823">
        <ele>1040.8</ele>
        <time>2013-08-24T08:28:09Z</time>
      </trkpt>
      <trkpt lat="46.28812" lon="6.80824">
        <ele>1040.8</ele>
        <time>2013-08-24T08:28:10Z</time>
      </trkpt>
      <trkpt lat="46.28807" lon="6.80826">
        <ele>1040.8</ele>
        <time>2013-08-24T08:28:11Z</time>
      </trkpt>
      <trkpt lat="46.28739" lon="6.8084">
        <ele>1042.2</ele>
        <time>2013-08-24T08:28:26Z</time>
      </trkpt>
      <trkpt lat="46.28672" lon="6.80882">
        <ele>1044.1</ele>
        <time>2013-08-24T08:28:44Z</time>
      </trkpt>
      <trkpt lat="46.2861" lon="6.80944">
        <ele>1046.1</ele>
        <time>2013-08-24T08:29:02Z</time>
      </trkpt>
      <trkpt lat="46.28562" lon="6.81026">
        <ele>1048.5</ele>
        <time>2013-08-24T08:29:19Z</time>
      </trkpt>
      <trkpt lat="46.28549" lon="6.81043">
        <ele>1048.9</ele>
        <time>2013-08-24T08:29:24Z</time>
      </trkpt>
      <trkpt lat="46.28546" lon="6.81047">
        <ele>1048.5</ele>
        <time>2013-08-24T08:29:25Z</time>
      </trkpt>
      <trkpt lat="46.28544" lon="6.81052">
        <ele>1048.5</ele>
        <time>2013-08-24T08:29:26Z</time>
      </trkpt>
      <trkpt lat="46.28543" lon="6.81058">
        <ele>1048.5</ele>
        <time>2013-08-24T08:29:27Z</time>
      </trkpt>
      <trkpt lat="46.28543" lon="6.81063">
        <ele>1048.9</ele>
        <time>2013-08-24T08:29:28Z</time>
      </trkpt>
      <trkpt lat="46.28544" lon="6.81068">
        <ele>1048.9</ele>
        <time>2013-08-24T08:29:29Z</time>
      </trkpt>
      <trkpt lat="46.28545" lon="6.81074">
        <ele>1048.5</ele>
        <time>2013-08-24T08:29:30Z</time>
      </trkpt>
      <trkpt lat="46.28546" lon="6.81079">
        <ele>1048.9</ele>
        <time>2013-08-24T08:29:31Z</time>
      </trkpt>
      <trkpt lat="46.28546" lon="6.81085">
        <ele>1049.4</ele>
        <time>2013-08-24T08:29:32Z</time>
      </trkpt>
      <trkpt lat="46.28542" lon="6.81171">
        <ele>1050.9</ele>
        <time>2013-08-24T08:29:49Z</time>
      </trkpt>
      <trkpt lat="46.28545" lon="6.81265">
        <ele>1052.8</ele>
        <time>2013-08-24T08:30:06Z</time>
      </trkpt>
      <trkpt lat="46.28543" lon="6.81357">
        <ele>1054.7</ele>
        <time>2013-08-24T08:30:24Z</time>
      </trkpt>
      <trkpt lat="46.2851" lon="6.81429">
        <ele>1058.1</ele>
        <time>2013-08-24T08:30:40Z</time>
      </trkpt>
      <trkpt lat="46.28478" lon="6.81477">
        <ele>1060</ele>
        <time>2013-08-24T08:30:53Z</time>
      </trkpt>
      <trkpt lat="46.28426" lon="6.81508">
        <ele>1063.4</ele>
        <time>2013-08-24T08:31:09Z</time>
      </trkpt>
      <trkpt lat="46.28385" lon="6.81573">
        <ele>1065.8</ele>
        <time>2013-08-24T08:31:26Z</time>
      </trkpt>
      <trkpt lat="46.28371" lon="6.81641">
        <ele>1067.2</ele>
        <time>2013-08-24T08:31:40Z</time>
      </trkpt>
      <trkpt lat="46.2836" lon="6.81706">
        <ele>1070.6</ele>
        <time>2013-08-24T08:31:53Z</time>
      </trkpt>
      <trkpt lat="46.28346" lon="6.81742">
        <ele>1072</ele>
        <time>2013-08-24T08:32:01Z</time>
      </trkpt>
      <trkpt lat="46.28344" lon="6.81747">
        <ele>1071.5</ele>
        <time>2013-08-24T08:32:02Z</time>
      </trkpt>
      <trkpt lat="46.28314" lon="6.8178">
        <ele>1073.5</ele>
        <time>2013-08-24T08:32:13Z</time>
      </trkpt>
      <trkpt lat="46.28284" lon="6.81829">
        <ele>1075.9</ele>
        <time>2013-08-24T08:32:26Z</time>
      </trkpt>
      <trkpt lat="46.28258" lon="6.81892">
        <ele>1078.3</ele>
        <time>2013-08-24T08:32:40Z</time>
      </trkpt>
      <trkpt lat="46.28232" lon="6.81955">
        <ele>1080.2</ele>
        <time>2013-08-24T08:32:54Z</time>
      </trkpt>
      <trkpt lat="46.28215" lon="6.82017">
        <ele>1081.6</ele>
        <time>2013-08-24T08:33:07Z</time>
      </trkpt>
      <trkpt lat="46.2819" lon="6.8208">
        <ele>1083.5</ele>
        <time>2013-08-24T08:33:21Z</time>
      </trkpt>
      <trkpt lat="46.28168" lon="6.82138">
        <ele>1086</ele>
        <time>2013-08-24T08:33:34Z</time>
      </trkpt>
      <trkpt lat="46.2815" lon="6.82188">
        <ele>1088.4</ele>
        <time>2013-08-24T08:33:47Z</time>
      </trkpt>
      <trkpt lat="46.2813" lon="6.82238">
        <ele>1090.3</ele>
        <time>2013-08-24T08:34:01Z</time>
      </trkpt>
      <trkpt lat="46.28103" lon="6.82299">
        <ele>1093.2</ele>
        <time>2013-08-24T08:34:18Z</time>
      </trkpt>
      <trkpt lat="46.28064" lon="6.82345">
        <ele>1096</ele>
        <time>2013-08-24T08:34:35Z</time>
      </trkpt>
      <trkpt lat="46.28035" lon="6.82399">
        <ele>1098.4</ele>
        <time>2013-08-24T08:34:51Z</time>
      </trkpt>
      <trkpt lat="46.28008" lon="6.82461">
        <ele>1100.4</ele>
        <time>2013-08-24T08:35:07Z</time>
      </trkpt>
      <trkpt lat="46.27983" lon="6.82533">
        <ele>1103.3</ele>
        <time>2013-08-24T08:35:25Z</time>
      </trkpt>
      <trkpt lat="46.2796" lon="6.82596">
        <ele>1105.7</ele>
        <time>2013-08-24T08:35:41Z</time>
      </trkpt>
      <trkpt lat="46.27928" lon="6.82637">
        <ele>1107.1</ele>
        <time>2013-08-24T08:35:55Z</time>
      </trkpt>
      <trkpt lat="46.27892" lon="6.82674">
        <ele>1109.5</ele>
        <time>2013-08-24T08:36:09Z</time>
      </trkpt>
      <trkpt lat="46.27862" lon="6.82719">
        <ele>1111.9</ele>
        <time>2013-08-24T08:36:23Z</time>
      </trkpt>
      <trkpt lat="46.27832" lon="6.82777">
        <ele>1114.3</ele>
        <time>2013-08-24T08:36:39Z</time>
      </trkpt>
      <trkpt lat="46.27805" lon="6.82835">
        <ele>1117.2</ele>
        <time>2013-08-24T08:36:55Z</time>
      </trkpt>
      <trkpt lat="46.27764" lon="6.82891">
        <ele>1119.6</ele>
        <time>2013-08-24T08:37:13Z</time>
      </trkpt>
      <trkpt lat="46.2773" lon="6.82917">
        <ele>1121.5</ele>
        <time>2013-08-24T08:37:25Z</time>
      </trkpt>
      <trkpt lat="46.277" lon="6.82947">
        <ele>1123.4</ele>
        <time>2013-08-24T08:37:37Z</time>
      </trkpt>
      <trkpt lat="46.27673" lon="6.83002">
        <ele>1125.8</ele>
        <time>2013-08-24T08:37:52Z</time>
      </trkpt>
      <trkpt lat="46.27642" lon="6.83058">
        <ele>1128.2</ele>
        <time>2013-08-24T08:38:08Z</time>
      </trkpt>
      <trkpt lat="46.27615" lon="6.83112">
        <ele>1130.2</ele>
        <time>2013-08-24T08:38:23Z</time>
      </trkpt>
      <trkpt lat="46.27606" lon="6.83131">
        <ele>1131.6</ele>
        <time>2013-08-24T08:38:29Z</time>
      </trkpt>
      <trkpt lat="46.27583" lon="6.83207">
        <ele>1134.5</ele>
        <time>2013-08-24T08:38:47Z</time>
      </trkpt>
      <trkpt lat="46.27571" lon="6.83283">
        <ele>1136.9</ele>
        <time>2013-08-24T08:39:04Z</time>
      </trkpt>
      <trkpt lat="46.27557" lon="6.83353">
        <ele>1138.8</ele>
        <time>2013-08-24T08:39:20Z</time>
      </trkpt>
      <trkpt lat="46.27545" lon="6.83415">
        <ele>1141.2</ele>
        <time>2013-08-24T08:39:35Z</time>
      </trkpt>
      <trkpt lat="46.27525" lon="6.83483">
        <ele>1144.1</ele>
        <time>2013-08-24T08:39:52Z</time>
      </trkpt>
      <trkpt lat="46.27503" lon="6.83565">
        <ele>1146.5</ele>
        <time>2013-08-24T08:40:13Z</time>
      </trkpt>
      <trkpt lat="46.27473" lon="6.8362">
        <ele>1148.9</ele>
        <time>2013-08-24T08:40:29Z</time>
      </trkpt>
      <trkpt lat="46.27431" lon="6.83664">
        <ele>1151.8</ele>
        <time>2013-08-24T08:40:46Z</time>
      </trkpt>
      <trkpt lat="46.27393" lon="6.83698">
        <ele>1153.7</ele>
        <time>2013-08-24T08:41:00Z</time>
      </trkpt>
      <trkpt lat="46.2734" lon="6.83749">
        <ele>1156.1</ele>
        <time>2013-08-24T08:41:21Z</time>
      </trkpt>
      <trkpt lat="46.27295" lon="6.83791">
        <ele>1158.5</ele>
        <time>2013-08-24T08:41:39Z</time>
      </trkpt>
      <trkpt lat="46.27248" lon="6.83835">
        <ele>1161.9</ele>
        <time>2013-08-24T08:41:57Z</time>
      </trkpt>
      <trkpt lat="46.27198" lon="6.83879">
        <ele>1164.8</ele>
        <time>2013-08-24T08:42:17Z</time>
      </trkpt>
      <trkpt lat="46.27151" lon="6.83922">
        <ele>1168.1</ele>
        <time>2013-08-24T08:42:36Z</time>
      </trkpt>
      <trkpt lat="46.27111" lon="6.83959">
        <ele>1170.1</ele>
        <time>2013-08-24T08:42:52Z</time>
      </trkpt>
      <trkpt lat="46.27059" lon="6.83989">
        <ele>1173.4</ele>
        <time>2013-08-24T08:43:11Z</time>
      </trkpt>
      <trkpt lat="46.27011" lon="6.84009">
        <ele>1177.3</ele>
        <time>2013-08-24T08:43:29Z</time>
      </trkpt>
      <trkpt lat="46.26953" lon="6.84035">
        <ele>1178.7</ele>
        <time>2013-08-24T08:43:49Z</time>
      </trkpt>
      <trkpt lat="46.26915" lon="6.84043">
        <ele>1180.2</ele>
        <time>2013-08-24T08:44:04Z</time>
      </trkpt>
      <trkpt lat="46.26912" lon="6.84046">
        <ele>1180.6</ele>
        <time>2013-08-24T08:44:05Z</time>
      </trkpt>
      <trkpt lat="46.26891" lon="6.84062">
        <ele>1182.6</ele>
        <time>2013-08-24T08:44:18Z</time>
      </trkpt>
      <trkpt lat="46.26867" lon="6.84073">
        <ele>1184.5</ele>
        <time>2013-08-24T08:44:31Z</time>
      </trkpt>
      <trkpt lat="46.2683" lon="6.84078">
        <ele>1186.4</ele>
        <time>2013-08-24T08:44:49Z</time>
      </trkpt>
      <trkpt lat="46.26826" lon="6.84078">
        <ele>1186.9</ele>
        <time>2013-08-24T08:44:50Z</time>
      </trkpt>
      <trkpt lat="46.2682" lon="6.84079">
        <ele>1187.4</ele>
        <time>2013-08-24T08:44:54Z</time>
      </trkpt>
      <trkpt lat="46.26818" lon="6.8408">
        <ele>1187.4</ele>
        <time>2013-08-24T08:44:55Z</time>
      </trkpt>
      <trkpt lat="46.26783" lon="6.84089">
        <ele>1189.8</ele>
        <time>2013-08-24T08:45:13Z</time>
      </trkpt>
      <trkpt lat="46.26783" lon="6.84095">
        <ele>1189.8</ele>
        <time>2013-08-24T08:45:25Z</time>
      </trkpt>
      <trkpt lat="46.26782" lon="6.84095">
        <ele>1189.3</ele>
        <time>2013-08-24T08:45:41Z</time>
      </trkpt>
      <trkpt lat="46.26781" lon="6.84109">
        <ele>1186.4</ele>
        <time>2013-08-24T08:45:49Z</time>
      </trkpt>
      <trkpt lat="46.26782" lon="6.84111">
        <ele>1186.4</ele>
        <time>2013-08-24T08:45:50Z</time>
      </trkpt>
      <trkpt lat="46.26719" lon="6.84097">
        <ele>1186.4</ele>
        <time>2013-08-24T09:21:24Z</time>
      </trkpt>
      <trkpt lat="46.26686" lon="6.84085">
        <ele>1187.9</ele>
        <time>2013-08-24T09:21:40Z</time>
      </trkpt>
      <trkpt lat="46.26622" lon="6.84093">
        <ele>1187.9</ele>
        <time>2013-08-24T09:21:52Z</time>
      </trkpt>
      <trkpt lat="46.26535" lon="6.84081">
        <ele>1187.9</ele>
        <time>2013-08-24T09:22:05Z</time>
      </trkpt>
      <trkpt lat="46.26528" lon="6.84078">
        <ele>1187.4</ele>
        <time>2013-08-24T09:22:06Z</time>
      </trkpt>
      <trkpt lat="46.26514" lon="6.84068">
        <ele>1187.4</ele>
        <time>2013-08-24T09:22:08Z</time>
      </trkpt>
      <trkpt lat="46.26507" lon="6.84062">
        <ele>1187.4</ele>
        <time>2013-08-24T09:22:09Z</time>
      </trkpt>
      <trkpt lat="46.26444" lon="6.83982">
        <ele>1185.9</ele>
        <time>2013-08-24T09:22:20Z</time>
      </trkpt>
      <trkpt lat="46.26368" lon="6.83895">
        <ele>1184</ele>
        <time>2013-08-24T09:22:35Z</time>
      </trkpt>
      <trkpt lat="46.2627" lon="6.83824">
        <ele>1181.6</ele>
        <time>2013-08-24T09:22:52Z</time>
      </trkpt>
      <trkpt lat="46.26177" lon="6.83783">
        <ele>1179.2</ele>
        <time>2013-08-24T09:23:06Z</time>
      </trkpt>
      <trkpt lat="46.26088" lon="6.83796">
        <ele>1175.8</ele>
        <time>2013-08-24T09:23:18Z</time>
      </trkpt>
      <trkpt lat="46.26074" lon="6.83801">
        <ele>1175.8</ele>
        <time>2013-08-24T09:23:20Z</time>
      </trkpt>
      <trkpt lat="46.26067" lon="6.83802">
        <ele>1175.4</ele>
        <time>2013-08-24T09:23:21Z</time>
      </trkpt>
      <trkpt lat="46.2606" lon="6.83799">
        <ele>1175.4</ele>
        <time>2013-08-24T09:23:22Z</time>
      </trkpt>
      <trkpt lat="46.26053" lon="6.83795">
        <ele>1174.9</ele>
        <time>2013-08-24T09:23:23Z</time>
      </trkpt>
      <trkpt lat="46.26047" lon="6.83789">
        <ele>1175.4</ele>
        <time>2013-08-24T09:23:24Z</time>
      </trkpt>
      <trkpt lat="46.26041" lon="6.83783">
        <ele>1175.4</ele>
        <time>2013-08-24T09:23:25Z</time>
      </trkpt>
      <trkpt lat="46.26036" lon="6.83777">
        <ele>1175.4</ele>
        <time>2013-08-24T09:23:26Z</time>
      </trkpt>
      <trkpt lat="46.25976" lon="6.83711">
        <ele>1172.5</ele>
        <time>2013-08-24T09:23:36Z</time>
      </trkpt>
      <trkpt lat="46.25921" lon="6.83631">
        <ele>1170.1</ele>
        <time>2013-08-24T09:23:46Z</time>
      </trkpt>
      <trkpt lat="46.25915" lon="6.83622">
        <ele>1169.6</ele>
        <time>2013-08-24T09:23:47Z</time>
      </trkpt>
      <trkpt lat="46.25879" lon="6.83558">
        <ele>1165.7</ele>
        <time>2013-08-24T09:23:53Z</time>
      </trkpt>
      <trkpt lat="46.25853" lon="6.83511">
        <ele>1162.9</ele>
        <time>2013-08-24T09:23:57Z</time>
      </trkpt>
      <trkpt lat="46.25814" lon="6.83438">
        <ele>1159</ele>
        <time>2013-08-24T09:24:03Z</time>
      </trkpt>
      <trkpt lat="46.2579" lon="6.83404">
        <ele>1157.6</ele>
        <time>2013-08-24T09:24:06Z</time>
      </trkpt>
      <trkpt lat="46.25753" lon="6.83366">
        <ele>1154.2</ele>
        <time>2013-08-24T09:24:10Z</time>
      </trkpt>
      <trkpt lat="46.25708" lon="6.83315">
        <ele>1150.8</ele>
        <time>2013-08-24T09:24:15Z</time>
      </trkpt>
      <trkpt lat="46.25676" lon="6.8327">
        <ele>1147.5</ele>
        <time>2013-08-24T09:24:19Z</time>
      </trkpt>
      <trkpt lat="46.25648" lon="6.83225">
        <ele>1145.1</ele>
        <time>2013-08-24T09:24:23Z</time>
      </trkpt>
      <trkpt lat="46.25644" lon="6.83212">
        <ele>1143.6</ele>
        <time>2013-08-24T09:24:24Z</time>
      </trkpt>
      <trkpt lat="46.25641" lon="6.83198">
        <ele>1143.1</ele>
        <time>2013-08-24T09:24:25Z</time>
      </trkpt>
      <trkpt lat="46.2564" lon="6.83183">
        <ele>1143.1</ele>
        <time>2013-08-24T09:24:26Z</time>
      </trkpt>
      <trkpt lat="46.25639" lon="6.83168">
        <ele>1142.2</ele>
        <time>2013-08-24T09:24:27Z</time>
      </trkpt>
      <trkpt lat="46.25636" lon="6.83081">
        <ele>1138.8</ele>
        <time>2013-08-24T09:24:33Z</time>
      </trkpt>
      <trkpt lat="46.25635" lon="6.83052">
        <ele>1137.9</ele>
        <time>2013-08-24T09:24:35Z</time>
      </trkpt>
      <trkpt lat="46.25632" lon="6.8295">
        <ele>1134.5</ele>
        <time>2013-08-24T09:24:42Z</time>
      </trkpt>
      <trkpt lat="46.25629" lon="6.82787">
        <ele>1131.1</ele>
        <time>2013-08-24T09:24:54Z</time>
      </trkpt>
      <trkpt lat="46.25634" lon="6.82696">
        <ele>1128.2</ele>
        <time>2013-08-24T09:25:01Z</time>
      </trkpt>
      <trkpt lat="46.25642" lon="6.82628">
        <ele>1124.9</ele>
        <time>2013-08-24T09:25:06Z</time>
      </trkpt>
      <trkpt lat="46.25647" lon="6.82588">
        <ele>1124.4</ele>
        <time>2013-08-24T09:25:09Z</time>
      </trkpt>
      <trkpt lat="46.25646" lon="6.82576">
        <ele>1124.9</ele>
        <time>2013-08-24T09:25:10Z</time>
      </trkpt>
      <trkpt lat="46.25643" lon="6.82565">
        <ele>1123.9</ele>
        <time>2013-08-24T09:25:11Z</time>
      </trkpt>
      <trkpt lat="46.2561" lon="6.82463">
        <ele>1124.9</ele>
        <time>2013-08-24T09:25:23Z</time>
      </trkpt>
      <trkpt lat="46.25581" lon="6.82375">
        <ele>1126.8</ele>
        <time>2013-08-24T09:25:38Z</time>
      </trkpt>
      <trkpt lat="46.25556" lon="6.82295">
        <ele>1128.2</ele>
        <time>2013-08-24T09:25:55Z</time>
      </trkpt>
      <trkpt lat="46.2553" lon="6.82214">
        <ele>1130.2</ele>
        <time>2013-08-24T09:26:14Z</time>
      </trkpt>
      <trkpt lat="46.2551" lon="6.8213">
        <ele>1132.6</ele>
        <time>2013-08-24T09:26:34Z</time>
      </trkpt>
      <trkpt lat="46.25494" lon="6.82053">
        <ele>1134.5</ele>
        <time>2013-08-24T09:26:51Z</time>
      </trkpt>
      <trkpt lat="46.25476" lon="6.82022">
        <ele>1133.5</ele>
        <time>2013-08-24T09:26:58Z</time>
      </trkpt>
      <trkpt lat="46.25467" lon="6.82008">
        <ele>1134</ele>
        <time>2013-08-24T09:27:01Z</time>
      </trkpt>
      <trkpt lat="46.25442" lon="6.81917">
        <ele>1136.4</ele>
        <time>2013-08-24T09:27:17Z</time>
      </trkpt>
      <trkpt lat="46.25417" lon="6.81839">
        <ele>1137.9</ele>
        <time>2013-08-24T09:27:34Z</time>
      </trkpt>
      <trkpt lat="46.25374" lon="6.81784">
        <ele>1140.7</ele>
        <time>2013-08-24T09:27:52Z</time>
      </trkpt>
      <trkpt lat="46.25341" lon="6.81757">
        <ele>1143.1</ele>
        <time>2013-08-24T09:28:09Z</time>
      </trkpt>
      <trkpt lat="46.25303" lon="6.81725">
        <ele>1145.6</ele>
        <time>2013-08-24T09:28:28Z</time>
      </trkpt>
      <trkpt lat="46.25282" lon="6.81667">
        <ele>1147</ele>
        <time>2013-08-24T09:28:45Z</time>
      </trkpt>
      <trkpt lat="46.25274" lon="6.81588">
        <ele>1148.9</ele>
        <time>2013-08-24T09:29:03Z</time>
      </trkpt>
      <trkpt lat="46.25273" lon="6.81489">
        <ele>1149.9</ele>
        <time>2013-08-24T09:29:22Z</time>
      </trkpt>
      <trkpt lat="46.25261" lon="6.81417">
        <ele>1151.3</ele>
        <time>2013-08-24T09:29:37Z</time>
      </trkpt>
      <trkpt lat="46.25231" lon="6.81324">
        <ele>1153.2</ele>
        <time>2013-08-24T09:29:56Z</time>
      </trkpt>
      <trkpt lat="46.2521" lon="6.81263">
        <ele>1156.1</ele>
        <time>2013-08-24T09:30:13Z</time>
      </trkpt>
      <trkpt lat="46.25186" lon="6.81221">
        <ele>1159.5</ele>
        <time>2013-08-24T09:30:28Z</time>
      </trkpt>
      <trkpt lat="46.25166" lon="6.81182">
        <ele>1160.9</ele>
        <time>2013-08-24T09:30:44Z</time>
      </trkpt>
      <trkpt lat="46.25145" lon="6.81142">
        <ele>1163.3</ele>
        <time>2013-08-24T09:31:03Z</time>
      </trkpt>
      <trkpt lat="46.25117" lon="6.81097">
        <ele>1165.7</ele>
        <time>2013-08-24T09:31:25Z</time>
      </trkpt>
      <trkpt lat="46.25083" lon="6.81075">
        <ele>1167.7</ele>
        <time>2013-08-24T09:31:44Z</time>
      </trkpt>
      <trkpt lat="46.25046" lon="6.81052">
        <ele>1170.1</ele>
        <time>2013-08-24T09:32:03Z</time>
      </trkpt>
      <trkpt lat="46.25009" lon="6.81004">
        <ele>1171.5</ele>
        <time>2013-08-24T09:32:21Z</time>
      </trkpt>
      <trkpt lat="46.24988" lon="6.80954">
        <ele>1172.5</ele>
        <time>2013-08-24T09:32:36Z</time>
      </trkpt>
      <trkpt lat="46.24946" lon="6.80869">
        <ele>1174.4</ele>
        <time>2013-08-24T09:32:57Z</time>
      </trkpt>
      <trkpt lat="46.24911" lon="6.80787">
        <ele>1176.3</ele>
        <time>2013-08-24T09:33:16Z</time>
      </trkpt>
      <trkpt lat="46.24885" lon="6.80709">
        <ele>1177.8</ele>
        <time>2013-08-24T09:33:32Z</time>
      </trkpt>
      <trkpt lat="46.24879" lon="6.80633">
        <ele>1179.7</ele>
        <time>2013-08-24T09:33:47Z</time>
      </trkpt>
      <trkpt lat="46.24862" lon="6.80551">
        <ele>1181.6</ele>
        <time>2013-08-24T09:34:04Z</time>
      </trkpt>
      <trkpt lat="46.24841" lon="6.80478">
        <ele>1185</ele>
        <time>2013-08-24T09:34:22Z</time>
      </trkpt>
      <trkpt lat="46.24809" lon="6.80428">
        <ele>1187.9</ele>
        <time>2013-08-24T09:34:40Z</time>
      </trkpt>
      <trkpt lat="46.24779" lon="6.80384">
        <ele>1190.7</ele>
        <time>2013-08-24T09:34:57Z</time>
      </trkpt>
      <trkpt lat="46.24739" lon="6.80351">
        <ele>1194.1</ele>
        <time>2013-08-24T09:35:16Z</time>
      </trkpt>
      <trkpt lat="46.2471" lon="6.80304">
        <ele>1197.5</ele>
        <time>2013-08-24T09:35:34Z</time>
      </trkpt>
      <trkpt lat="46.24681" lon="6.80258">
        <ele>1200.8</ele>
        <time>2013-08-24T09:35:53Z</time>
      </trkpt>
      <trkpt lat="46.24649" lon="6.80223">
        <ele>1203.7</ele>
        <time>2013-08-24T09:36:10Z</time>
      </trkpt>
      <trkpt lat="46.24624" lon="6.80181">
        <ele>1206.1</ele>
        <time>2013-08-24T09:36:26Z</time>
      </trkpt>
      <trkpt lat="46.24599" lon="6.80126">
        <ele>1209.5</ele>
        <time>2013-08-24T09:36:45Z</time>
      </trkpt>
      <trkpt lat="46.24565" lon="6.80092">
        <ele>1212.4</ele>
        <time>2013-08-24T09:37:03Z</time>
      </trkpt>
      <trkpt lat="46.24532" lon="6.80064">
        <ele>1215.2</ele>
        <time>2013-08-24T09:37:19Z</time>
      </trkpt>
      <trkpt lat="46.24501" lon="6.80018">
        <ele>1218.1</ele>
        <time>2013-08-24T09:37:37Z</time>
      </trkpt>
      <trkpt lat="46.24476" lon="6.79978">
        <ele>1221</ele>
        <time>2013-08-24T09:37:54Z</time>
      </trkpt>
      <trkpt lat="46.24451" lon="6.79944">
        <ele>1224.4</ele>
        <time>2013-08-24T09:38:11Z</time>
      </trkpt>
      <trkpt lat="46.24426" lon="6.79928">
        <ele>1227.3</ele>
        <time>2013-08-24T09:38:24Z</time>
      </trkpt>
      <trkpt lat="46.24386" lon="6.79919">
        <ele>1229.7</ele>
        <time>2013-08-24T09:38:42Z</time>
      </trkpt>
      <trkpt lat="46.24357" lon="6.79888">
        <ele>1233</ele>
        <time>2013-08-24T09:38:58Z</time>
      </trkpt>
      <trkpt lat="46.24324" lon="6.79857">
        <ele>1235.9</ele>
        <time>2013-08-24T09:39:16Z</time>
      </trkpt>
      <trkpt lat="46.2432" lon="6.79853">
        <ele>1236.4</ele>
        <time>2013-08-24T09:39:18Z</time>
      </trkpt>
      <trkpt lat="46.24297" lon="6.79813">
        <ele>1239.8</ele>
        <time>2013-08-24T09:39:36Z</time>
      </trkpt>
      <trkpt lat="46.24272" lon="6.7977">
        <ele>1243.1</ele>
        <time>2013-08-24T09:39:56Z</time>
      </trkpt>
      <trkpt lat="46.24245" lon="6.79763">
        <ele>1246</ele>
        <time>2013-08-24T09:40:10Z</time>
      </trkpt>
      <trkpt lat="46.24214" lon="6.79752">
        <ele>1249.4</ele>
        <time>2013-08-24T09:40:26Z</time>
      </trkpt>
      <trkpt lat="46.2418" lon="6.79731">
        <ele>1252.7</ele>
        <time>2013-08-24T09:40:44Z</time>
      </trkpt>
      <trkpt lat="46.24143" lon="6.79701">
        <ele>1255.1</ele>
        <time>2013-08-24T09:41:02Z</time>
      </trkpt>
      <trkpt lat="46.24118" lon="6.79657">
        <ele>1257.1</ele>
        <time>2013-08-24T09:41:18Z</time>
      </trkpt>
      <trkpt lat="46.24089" lon="6.79591">
        <ele>1259.5</ele>
        <time>2013-08-24T09:41:37Z</time>
      </trkpt>
      <trkpt lat="46.24089" lon="6.79514">
        <ele>1260.9</ele>
        <time>2013-08-24T09:41:54Z</time>
      </trkpt>
      <trkpt lat="46.24086" lon="6.79458">
        <ele>1260.9</ele>
        <time>2013-08-24T09:42:07Z</time>
      </trkpt>
      <trkpt lat="46.24077" lon="6.79428">
        <ele>1260.9</ele>
        <time>2013-08-24T09:42:13Z</time>
      </trkpt>
      <trkpt lat="46.24074" lon="6.79424">
        <ele>1260.9</ele>
        <time>2013-08-24T09:42:14Z</time>
      </trkpt>
      <trkpt lat="46.24027" lon="6.7937">
        <ele>1261.9</ele>
        <time>2013-08-24T09:42:29Z</time>
      </trkpt>
      <trkpt lat="46.23988" lon="6.79323">
        <ele>1263.8</ele>
        <time>2013-08-24T09:42:44Z</time>
      </trkpt>
      <trkpt lat="46.23946" lon="6.79289">
        <ele>1265.2</ele>
        <time>2013-08-24T09:42:58Z</time>
      </trkpt>
      <trkpt lat="46.23895" lon="6.79246">
        <ele>1268.1</ele>
        <time>2013-08-24T09:43:17Z</time>
      </trkpt>
      <trkpt lat="46.23842" lon="6.79204">
        <ele>1270</ele>
        <time>2013-08-24T09:43:36Z</time>
      </trkpt>
      <trkpt lat="46.23793" lon="6.792">
        <ele>1272.9</ele>
        <time>2013-08-24T09:43:53Z</time>
      </trkpt>
      <trkpt lat="46.23739" lon="6.79192">
        <ele>1274.4</ele>
        <time>2013-08-24T09:44:10Z</time>
      </trkpt>
      <trkpt lat="46.23681" lon="6.79151">
        <ele>1276.3</ele>
        <time>2013-08-24T09:44:30Z</time>
      </trkpt>
      <trkpt lat="46.23628" lon="6.79103">
        <ele>1279.2</ele>
        <time>2013-08-24T09:44:50Z</time>
      </trkpt>
      <trkpt lat="46.23579" lon="6.79099">
        <ele>1282.1</ele>
        <time>2013-08-24T09:45:09Z</time>
      </trkpt>
      <trkpt lat="46.23558" lon="6.79095">
        <ele>1283.5</ele>
        <time>2013-08-24T09:45:19Z</time>
      </trkpt>
      <trkpt lat="46.23556" lon="6.79087">
        <ele>1284.5</ele>
        <time>2013-08-24T09:45:22Z</time>
      </trkpt>
      <trkpt lat="46.23552" lon="6.79076">
        <ele>1284.9</ele>
        <time>2013-08-24T09:45:35Z</time>
      </trkpt>
      <trkpt lat="46.23546" lon="6.79082">
        <ele>1285.4</ele>
        <time>2013-08-24T09:46:11Z</time>
      </trkpt>
      <trkpt lat="46.23544" lon="6.79095">
        <ele>1285.4</ele>
        <time>2013-08-24T09:46:42Z</time>
      </trkpt>
      <trkpt lat="46.23544" lon="6.79089">
        <ele>1285.9</ele>
        <time>2013-08-24T09:47:14Z</time>
      </trkpt>
      <trkpt lat="46.23535" lon="6.79092">
        <ele>1286.4</ele>
        <time>2013-08-24T09:47:53Z</time>
      </trkpt>
      <trkpt lat="46.23547" lon="6.79086">
        <ele>1286.9</ele>
        <time>2013-08-24T09:48:28Z</time>
      </trkpt>
      <trkpt lat="46.23532" lon="6.79099">
        <ele>1287.3</ele>
        <time>2013-08-24T09:49:08Z</time>
      </trkpt>
      <trkpt lat="46.23533" lon="6.79101">
        <ele>1287.8</ele>
        <time>2013-08-24T09:49:37Z</time>
      </trkpt>
      <trkpt lat="46.23538" lon="6.791">
        <ele>1288.8</ele>
        <time>2013-08-24T09:50:09Z</time>
      </trkpt>
      <trkpt lat="46.23529" lon="6.79109">
        <ele>1289.3</ele>
        <time>2013-08-24T09:50:40Z</time>
      </trkpt>
      <trkpt lat="46.2353" lon="6.79102">
        <ele>1289.8</ele>
        <time>2013-08-24T09:51:10Z</time>
      </trkpt>
      <trkpt lat="46.23514" lon="6.79121">
        <ele>1290.2</ele>
        <time>2013-08-24T09:51:38Z</time>
      </trkpt>
      <trkpt lat="46.23524" lon="6.79116">
        <ele>1291.2</ele>
        <time>2013-08-24T09:52:03Z</time>
      </trkpt>
      <trkpt lat="46.23524" lon="6.79112">
        <ele>1290.2</ele>
        <time>2013-08-24T09:52:17Z</time>
      </trkpt>
      <trkpt lat="46.23528" lon="6.7911">
        <ele>1291.7</ele>
        <time>2013-08-24T09:52:42Z</time>
      </trkpt>
      <trkpt lat="46.23535" lon="6.79107">
        <ele>1291.7</ele>
        <time>2013-08-24T09:52:54Z</time>
      </trkpt>
      <trkpt lat="46.23535" lon="6.79117">
        <ele>1292.2</ele>
        <time>2013-08-24T09:52:59Z</time>
      </trkpt>
      <trkpt lat="46.23535" lon="6.79121">
        <ele>1292.2</ele>
        <time>2013-08-24T09:53:00Z</time>
      </trkpt>
      <trkpt lat="46.23533" lon="6.7913">
        <ele>1291.7</ele>
        <time>2013-08-24T09:53:02Z</time>
      </trkpt>
      <trkpt lat="46.23518" lon="6.79123">
        <ele>1293.1</ele>
        <time>2013-08-24T09:53:13Z</time>
      </trkpt>
      <trkpt lat="46.23491" lon="6.79115">
        <ele>1295.5</ele>
        <time>2013-08-24T09:53:28Z</time>
      </trkpt>
      <trkpt lat="46.23454" lon="6.79101">
        <ele>1297</ele>
        <time>2013-08-24T09:53:44Z</time>
      </trkpt>
      <trkpt lat="46.23418" lon="6.79081">
        <ele>1299.4</ele>
        <time>2013-08-24T09:54:01Z</time>
      </trkpt>
      <trkpt lat="46.23385" lon="6.79045">
        <ele>1301.3</ele>
        <time>2013-08-24T09:54:19Z</time>
      </trkpt>
      <trkpt lat="46.23347" lon="6.79022">
        <ele>1302.7</ele>
        <time>2013-08-24T09:54:37Z</time>
      </trkpt>
      <trkpt lat="46.23303" lon="6.79">
        <ele>1306.1</ele>
        <time>2013-08-24T09:54:56Z</time>
      </trkpt>
      <trkpt lat="46.23262" lon="6.78976">
        <ele>1308</ele>
        <time>2013-08-24T09:55:15Z</time>
      </trkpt>
      <trkpt lat="46.23232" lon="6.78958">
        <ele>1309.9</ele>
        <time>2013-08-24T09:55:30Z</time>
      </trkpt>
      <trkpt lat="46.23201" lon="6.78933">
        <ele>1311.9</ele>
        <time>2013-08-24T09:55:47Z</time>
      </trkpt>
      <trkpt lat="46.23179" lon="6.78906">
        <ele>1313.8</ele>
        <time>2013-08-24T09:56:02Z</time>
      </trkpt>
      <trkpt lat="46.23157" lon="6.78883">
        <ele>1316.2</ele>
        <time>2013-08-24T09:56:16Z</time>
      </trkpt>
      <trkpt lat="46.23147" lon="6.78875">
        <ele>1318.1</ele>
        <time>2013-08-24T09:56:23Z</time>
      </trkpt>
      <trkpt lat="46.23121" lon="6.78849">
        <ele>1321.5</ele>
        <time>2013-08-24T09:56:42Z</time>
      </trkpt>
      <trkpt lat="46.23102" lon="6.78829">
        <ele>1323.4</ele>
        <time>2013-08-24T09:56:57Z</time>
      </trkpt>
      <trkpt lat="46.23077" lon="6.78818">
        <ele>1326.3</ele>
        <time>2013-08-24T09:57:13Z</time>
      </trkpt>
      <trkpt lat="46.23055" lon="6.78805">
        <ele>1329.2</ele>
        <time>2013-08-24T09:57:27Z</time>
      </trkpt>
      <trkpt lat="46.23037" lon="6.78794">
        <ele>1331.1</ele>
        <time>2013-08-24T09:57:39Z</time>
      </trkpt>
      <trkpt lat="46.23016" lon="6.78793">
        <ele>1334</ele>
        <time>2013-08-24T09:57:52Z</time>
      </trkpt>
      <trkpt lat="46.22994" lon="6.78806">
        <ele>1334.9</ele>
        <time>2013-08-24T09:58:04Z</time>
      </trkpt>
      <trkpt lat="46.23004" lon="6.78822">
        <ele>1336.9</ele>
        <time>2013-08-24T09:58:15Z</time>
      </trkpt>
      <trkpt lat="46.23025" lon="6.78835">
        <ele>1339.3</ele>
        <time>2013-08-24T09:58:29Z</time>
      </trkpt>
      <trkpt lat="46.23025" lon="6.78838">
        <ele>1339.7</ele>
        <time>2013-08-24T09:58:30Z</time>
      </trkpt>
      <trkpt lat="46.23026" lon="6.78841">
        <ele>1340.2</ele>
        <time>2013-08-24T09:58:31Z</time>
      </trkpt>
      <trkpt lat="46.23025" lon="6.78843">
        <ele>1340.2</ele>
        <time>2013-08-24T09:58:32Z</time>
      </trkpt>
      <trkpt lat="46.23026" lon="6.78846">
        <ele>1340.2</ele>
        <time>2013-08-24T09:58:33Z</time>
      </trkpt>
      <trkpt lat="46.23026" lon="6.78849">
        <ele>1340.7</ele>
        <time>2013-08-24T09:58:34Z</time>
      </trkpt>
      <trkpt lat="46.23025" lon="6.78882">
        <ele>1343.1</ele>
        <time>2013-08-24T09:58:47Z</time>
      </trkpt>
      <trkpt lat="46.2303" lon="6.78917">
        <ele>1346</ele>
        <time>2013-08-24T09:59:02Z</time>
      </trkpt>
      <trkpt lat="46.23029" lon="6.78944">
        <ele>1348.9</ele>
        <time>2013-08-24T09:59:13Z</time>
      </trkpt>
      <trkpt lat="46.23034" lon="6.78986">
        <ele>1352.2</ele>
        <time>2013-08-24T09:59:30Z</time>
      </trkpt>
      <trkpt lat="46.23056" lon="6.7903">
        <ele>1355.1</ele>
        <time>2013-08-24T09:59:51Z</time>
      </trkpt>
      <trkpt lat="46.23061" lon="6.79047">
        <ele>1356.6</ele>
        <time>2013-08-24T09:59:58Z</time>
      </trkpt>
      <trkpt lat="46.2306" lon="6.79049">
        <ele>1357.5</ele>
        <time>2013-08-24T09:59:59Z</time>
      </trkpt>
      <trkpt lat="46.23059" lon="6.7905">
        <ele>1357.5</ele>
        <time>2013-08-24T10:00:00Z</time>
      </trkpt>
      <trkpt lat="46.23057" lon="6.79051">
        <ele>1357.5</ele>
        <time>2013-08-24T10:00:01Z</time>
      </trkpt>
      <trkpt lat="46.23055" lon="6.7905">
        <ele>1357</ele>
        <time>2013-08-24T10:00:02Z</time>
      </trkpt>
      <trkpt lat="46.23039" lon="6.79025">
        <ele>1358.5</ele>
        <time>2013-08-24T10:00:15Z</time>
      </trkpt>
      <trkpt lat="46.23021" lon="6.79005">
        <ele>1361.8</ele>
        <time>2013-08-24T10:00:28Z</time>
      </trkpt>
      <trkpt lat="46.23007" lon="6.78972">
        <ele>1364.7</ele>
        <time>2013-08-24T10:00:43Z</time>
      </trkpt>
      <trkpt lat="46.23003" lon="6.78963">
        <ele>1365.7</ele>
        <time>2013-08-24T10:00:47Z</time>
      </trkpt>
      <trkpt lat="46.23002" lon="6.7896">
        <ele>1365.7</ele>
        <time>2013-08-24T10:00:49Z</time>
      </trkpt>
      <trkpt lat="46.23001" lon="6.78958">
        <ele>1366.2</ele>
        <time>2013-08-24T10:00:50Z</time>
      </trkpt>
      <trkpt lat="46.22982" lon="6.78924">
        <ele>1369.1</ele>
        <time>2013-08-24T10:01:07Z</time>
      </trkpt>
      <trkpt lat="46.2296" lon="6.78899">
        <ele>1371.9</ele>
        <time>2013-08-24T10:01:22Z</time>
      </trkpt>
      <trkpt lat="46.22958" lon="6.78896">
        <ele>1372.4</ele>
        <time>2013-08-24T10:01:24Z</time>
      </trkpt>
      <trkpt lat="46.22956" lon="6.78894">
        <ele>1372.4</ele>
        <time>2013-08-24T10:01:25Z</time>
      </trkpt>
      <trkpt lat="46.22954" lon="6.78893">
        <ele>1372.9</ele>
        <time>2013-08-24T10:01:26Z</time>
      </trkpt>
      <trkpt lat="46.22952" lon="6.78892">
        <ele>1373.4</ele>
        <time>2013-08-24T10:01:27Z</time>
      </trkpt>
      <trkpt lat="46.2295" lon="6.78891">
        <ele>1373.4</ele>
        <time>2013-08-24T10:01:28Z</time>
      </trkpt>
      <trkpt lat="46.22949" lon="6.78891">
        <ele>1373.4</ele>
        <time>2013-08-24T10:01:29Z</time>
      </trkpt>
      <trkpt lat="46.22947" lon="6.7889">
        <ele>1373.4</ele>
        <time>2013-08-24T10:01:30Z</time>
      </trkpt>
      <trkpt lat="46.22945" lon="6.78889">
        <ele>1373.9</ele>
        <time>2013-08-24T10:01:31Z</time>
      </trkpt>
      <trkpt lat="46.22936" lon="6.78891">
        <ele>1374.3</ele>
        <time>2013-08-24T10:01:37Z</time>
      </trkpt>
      <trkpt lat="46.22935" lon="6.78893">
        <ele>1374.3</ele>
        <time>2013-08-24T10:01:38Z</time>
      </trkpt>
      <trkpt lat="46.22935" lon="6.78895">
        <ele>1374.8</ele>
        <time>2013-08-24T10:01:39Z</time>
      </trkpt>
      <trkpt lat="46.22935" lon="6.78897">
        <ele>1374.8</ele>
        <time>2013-08-24T10:01:40Z</time>
      </trkpt>
      <trkpt lat="46.22936" lon="6.78899">
        <ele>1374.8</ele>
        <time>2013-08-24T10:01:41Z</time>
      </trkpt>
      <trkpt lat="46.22936" lon="6.78901">
        <ele>1375.3</ele>
        <time>2013-08-24T10:01:42Z</time>
      </trkpt>
      <trkpt lat="46.22938" lon="6.78902">
        <ele>1375.3</ele>
        <time>2013-08-24T10:01:43Z</time>
      </trkpt>
      <trkpt lat="46.2294" lon="6.78903">
        <ele>1375.3</ele>
        <time>2013-08-24T10:01:44Z</time>
      </trkpt>
      <trkpt lat="46.2296" lon="6.78927">
        <ele>1377.2</ele>
        <time>2013-08-24T10:01:57Z</time>
      </trkpt>
      <trkpt lat="46.22962" lon="6.78957">
        <ele>1380.1</ele>
        <time>2013-08-24T10:02:09Z</time>
      </trkpt>
      <trkpt lat="46.2296" lon="6.78996">
        <ele>1382.5</ele>
        <time>2013-08-24T10:02:23Z</time>
      </trkpt>
      <trkpt lat="46.22963" lon="6.79008">
        <ele>1383</ele>
        <time>2013-08-24T10:02:27Z</time>
      </trkpt>
      <trkpt lat="46.22964" lon="6.79011">
        <ele>1383.5</ele>
        <time>2013-08-24T10:02:28Z</time>
      </trkpt>
      <trkpt lat="46.22965" lon="6.79013">
        <ele>1383.5</ele>
        <time>2013-08-24T10:02:29Z</time>
      </trkpt>
      <trkpt lat="46.22965" lon="6.79016">
        <ele>1384</ele>
        <time>2013-08-24T10:02:30Z</time>
      </trkpt>
      <trkpt lat="46.22965" lon="6.79018">
        <ele>1384</ele>
        <time>2013-08-24T10:02:31Z</time>
      </trkpt>
      <trkpt lat="46.22964" lon="6.79021">
        <ele>1384</ele>
        <time>2013-08-24T10:02:32Z</time>
      </trkpt>
      <trkpt lat="46.22963" lon="6.79023">
        <ele>1384</ele>
        <time>2013-08-24T10:02:33Z</time>
      </trkpt>
      <trkpt lat="46.22962" lon="6.79026">
        <ele>1384.4</ele>
        <time>2013-08-24T10:02:34Z</time>
      </trkpt>
      <trkpt lat="46.22961" lon="6.79028">
        <ele>1384.9</ele>
        <time>2013-08-24T10:02:35Z</time>
      </trkpt>
      <trkpt lat="46.22961" lon="6.7903">
        <ele>1384.9</ele>
        <time>2013-08-24T10:02:36Z</time>
      </trkpt>
      <trkpt lat="46.2296" lon="6.79032">
        <ele>1384.9</ele>
        <time>2013-08-24T10:02:37Z</time>
      </trkpt>
      <trkpt lat="46.22959" lon="6.79034">
        <ele>1385.4</ele>
        <time>2013-08-24T10:02:38Z</time>
      </trkpt>
      <trkpt lat="46.22964" lon="6.79062">
        <ele>1387.8</ele>
        <time>2013-08-24T10:02:52Z</time>
      </trkpt>
      <trkpt lat="46.22993" lon="6.79091">
        <ele>1390.2</ele>
        <time>2013-08-24T10:03:10Z</time>
      </trkpt>
      <trkpt lat="46.22993" lon="6.79094">
        <ele>1391.2</ele>
        <time>2013-08-24T10:03:11Z</time>
      </trkpt>
      <trkpt lat="46.22991" lon="6.79096">
        <ele>1390.7</ele>
        <time>2013-08-24T10:03:12Z</time>
      </trkpt>
      <trkpt lat="46.22989" lon="6.79097">
        <ele>1391.2</ele>
        <time>2013-08-24T10:03:13Z</time>
      </trkpt>
      <trkpt lat="46.22987" lon="6.79097">
        <ele>1391.2</ele>
        <time>2013-08-24T10:03:14Z</time>
      </trkpt>
      <trkpt lat="46.22985" lon="6.79096">
        <ele>1391.7</ele>
        <time>2013-08-24T10:03:15Z</time>
      </trkpt>
      <trkpt lat="46.22983" lon="6.79095">
        <ele>1392.1</ele>
        <time>2013-08-24T10:03:16Z</time>
      </trkpt>
      <trkpt lat="46.22981" lon="6.79094">
        <ele>1392.1</ele>
        <time>2013-08-24T10:03:17Z</time>
      </trkpt>
      <trkpt lat="46.22979" lon="6.79093">
        <ele>1392.6</ele>
        <time>2013-08-24T10:03:18Z</time>
      </trkpt>
      <trkpt lat="46.22978" lon="6.79092">
        <ele>1392.6</ele>
        <time>2013-08-24T10:03:19Z</time>
      </trkpt>
      <trkpt lat="46.22947" lon="6.79076">
        <ele>1395.5</ele>
        <time>2013-08-24T10:03:35Z</time>
      </trkpt>
      <trkpt lat="46.2292" lon="6.79067">
        <ele>1398.9</ele>
        <time>2013-08-24T10:03:50Z</time>
      </trkpt>
      <trkpt lat="46.22898" lon="6.79045">
        <ele>1401.7</ele>
        <time>2013-08-24T10:04:06Z</time>
      </trkpt>
      <trkpt lat="46.22878" lon="6.79017">
        <ele>1404.6</ele>
        <time>2013-08-24T10:04:22Z</time>
      </trkpt>
      <trkpt lat="46.22857" lon="6.78994">
        <ele>1407.5</ele>
        <time>2013-08-24T10:04:37Z</time>
      </trkpt>
      <trkpt lat="46.22838" lon="6.78979">
        <ele>1409.9</ele>
        <time>2013-08-24T10:04:52Z</time>
      </trkpt>
      <trkpt lat="46.22816" lon="6.78963">
        <ele>1412.3</ele>
        <time>2013-08-24T10:05:06Z</time>
      </trkpt>
      <trkpt lat="46.22789" lon="6.78948">
        <ele>1415.2</ele>
        <time>2013-08-24T10:05:21Z</time>
      </trkpt>
      <trkpt lat="46.22787" lon="6.78959">
        <ele>1415.2</ele>
        <time>2013-08-24T10:05:25Z</time>
      </trkpt>
      <trkpt lat="46.22805" lon="6.78982">
        <ele>1417.6</ele>
        <time>2013-08-24T10:05:38Z</time>
      </trkpt>
      <trkpt lat="46.22812" lon="6.78993">
        <ele>1418.6</ele>
        <time>2013-08-24T10:05:44Z</time>
      </trkpt>
      <trkpt lat="46.22812" lon="6.78995">
        <ele>1419</ele>
        <time>2013-08-24T10:05:45Z</time>
      </trkpt>
      <trkpt lat="46.22812" lon="6.78998">
        <ele>1419.5</ele>
        <time>2013-08-24T10:05:46Z</time>
      </trkpt>
      <trkpt lat="46.22813" lon="6.79001">
        <ele>1420</ele>
        <time>2013-08-24T10:05:47Z</time>
      </trkpt>
      <trkpt lat="46.22814" lon="6.79003">
        <ele>1419.5</ele>
        <time>2013-08-24T10:05:48Z</time>
      </trkpt>
      <trkpt lat="46.22814" lon="6.79005">
        <ele>1420</ele>
        <time>2013-08-24T10:05:49Z</time>
      </trkpt>
      <trkpt lat="46.22818" lon="6.79017">
        <ele>1421</ele>
        <time>2013-08-24T10:05:56Z</time>
      </trkpt>
      <trkpt lat="46.22819" lon="6.7902">
        <ele>1421.5</ele>
        <time>2013-08-24T10:05:57Z</time>
      </trkpt>
      <trkpt lat="46.22821" lon="6.79022">
        <ele>1421.5</ele>
        <time>2013-08-24T10:05:58Z</time>
      </trkpt>
      <trkpt lat="46.22821" lon="6.79024">
        <ele>1421.9</ele>
        <time>2013-08-24T10:05:59Z</time>
      </trkpt>
      <trkpt lat="46.22822" lon="6.79026">
        <ele>1422.4</ele>
        <time>2013-08-24T10:06:00Z</time>
      </trkpt>
      <trkpt lat="46.22824" lon="6.79028">
        <ele>1421.9</ele>
        <time>2013-08-24T10:06:01Z</time>
      </trkpt>
      <trkpt lat="46.22825" lon="6.7903">
        <ele>1422.4</ele>
        <time>2013-08-24T10:06:02Z</time>
      </trkpt>
      <trkpt lat="46.22846" lon="6.7906">
        <ele>1425.3</ele>
        <time>2013-08-24T10:06:17Z</time>
      </trkpt>
      <trkpt lat="46.22863" lon="6.79092">
        <ele>1426.7</ele>
        <time>2013-08-24T10:06:30Z</time>
      </trkpt>
      <trkpt lat="46.22861" lon="6.79102">
        <ele>1427.7</ele>
        <time>2013-08-24T10:06:34Z</time>
      </trkpt>
      <trkpt lat="46.22859" lon="6.79103">
        <ele>1427.2</ele>
        <time>2013-08-24T10:06:35Z</time>
      </trkpt>
      <trkpt lat="46.22858" lon="6.79103">
        <ele>1428.2</ele>
        <time>2013-08-24T10:06:36Z</time>
      </trkpt>
      <trkpt lat="46.22856" lon="6.79103">
        <ele>1427.7</ele>
        <time>2013-08-24T10:06:37Z</time>
      </trkpt>
      <trkpt lat="46.22854" lon="6.79101">
        <ele>1428.2</ele>
        <time>2013-08-24T10:06:38Z</time>
      </trkpt>
      <trkpt lat="46.22853" lon="6.791">
        <ele>1428.7</ele>
        <time>2013-08-24T10:06:39Z</time>
      </trkpt>
      <trkpt lat="46.22851" lon="6.79098">
        <ele>1428.7</ele>
        <time>2013-08-24T10:06:40Z</time>
      </trkpt>
      <trkpt lat="46.2285" lon="6.79095">
        <ele>1429.1</ele>
        <time>2013-08-24T10:06:41Z</time>
      </trkpt>
      <trkpt lat="46.22828" lon="6.7907">
        <ele>1433</ele>
        <time>2013-08-24T10:06:58Z</time>
      </trkpt>
      <trkpt lat="46.22827" lon="6.7907">
        <ele>1433</ele>
        <time>2013-08-24T10:06:59Z</time>
      </trkpt>
      <trkpt lat="46.22805" lon="6.79059">
        <ele>1435.4</ele>
        <time>2013-08-24T10:07:13Z</time>
      </trkpt>
      <trkpt lat="46.22803" lon="6.79059">
        <ele>1435.4</ele>
        <time>2013-08-24T10:07:14Z</time>
      </trkpt>
      <trkpt lat="46.22801" lon="6.79058">
        <ele>1435.9</ele>
        <time>2013-08-24T10:07:15Z</time>
      </trkpt>
      <trkpt lat="46.228" lon="6.79058">
        <ele>1436.4</ele>
        <time>2013-08-24T10:07:16Z</time>
      </trkpt>
      <trkpt lat="46.22798" lon="6.79058">
        <ele>1435.9</ele>
        <time>2013-08-24T10:07:17Z</time>
      </trkpt>
      <trkpt lat="46.22797" lon="6.79058">
        <ele>1436.4</ele>
        <time>2013-08-24T10:07:18Z</time>
      </trkpt>
      <trkpt lat="46.22777" lon="6.79057">
        <ele>1438.8</ele>
        <time>2013-08-24T10:07:31Z</time>
      </trkpt>
      <trkpt lat="46.2275" lon="6.79055">
        <ele>1441.6</ele>
        <time>2013-08-24T10:07:46Z</time>
      </trkpt>
      <trkpt lat="46.22723" lon="6.79055">
        <ele>1443.6</ele>
        <time>2013-08-24T10:08:00Z</time>
      </trkpt>
      <trkpt lat="46.22701" lon="6.79061">
        <ele>1446.4</ele>
        <time>2013-08-24T10:08:14Z</time>
      </trkpt>
      <trkpt lat="46.22675" lon="6.7907">
        <ele>1449.3</ele>
        <time>2013-08-24T10:08:29Z</time>
      </trkpt>
      <trkpt lat="46.22651" lon="6.79082">
        <ele>1452.7</ele>
        <time>2013-08-24T10:08:43Z</time>
      </trkpt>
      <trkpt lat="46.22626" lon="6.79091">
        <ele>1455.1</ele>
        <time>2013-08-24T10:08:59Z</time>
      </trkpt>
      <trkpt lat="46.22611" lon="6.79105">
        <ele>1457</ele>
        <time>2013-08-24T10:09:10Z</time>
      </trkpt>
      <trkpt lat="46.22584" lon="6.79127">
        <ele>1459.4</ele>
        <time>2013-08-24T10:09:29Z</time>
      </trkpt>
      <trkpt lat="46.22579" lon="6.7913">
        <ele>1460.4</ele>
        <time>2013-08-24T10:09:32Z</time>
      </trkpt>
      <trkpt lat="46.22577" lon="6.79131">
        <ele>1460.4</ele>
        <time>2013-08-24T10:09:33Z</time>
      </trkpt>
      <trkpt lat="46.2256" lon="6.79145">
        <ele>1462.8</ele>
        <time>2013-08-24T10:09:45Z</time>
      </trkpt>
      <trkpt lat="46.22541" lon="6.79159">
        <ele>1465.2</ele>
        <time>2013-08-24T10:09:57Z</time>
      </trkpt>
      <trkpt lat="46.22519" lon="6.7918">
        <ele>1467.6</ele>
        <time>2013-08-24T10:10:12Z</time>
      </trkpt>
      <trkpt lat="46.22494" lon="6.792">
        <ele>1470</ele>
        <time>2013-08-24T10:10:29Z</time>
      </trkpt>
      <trkpt lat="46.22475" lon="6.79209">
        <ele>1471.9</ele>
        <time>2013-08-24T10:10:43Z</time>
      </trkpt>
      <trkpt lat="46.2245" lon="6.79228">
        <ele>1474.3</ele>
        <time>2013-08-24T10:10:58Z</time>
      </trkpt>
      <trkpt lat="46.22422" lon="6.79252">
        <ele>1477.2</ele>
        <time>2013-08-24T10:11:13Z</time>
      </trkpt>
      <trkpt lat="46.22401" lon="6.79263">
        <ele>1480.1</ele>
        <time>2013-08-24T10:11:26Z</time>
      </trkpt>
      <trkpt lat="46.22377" lon="6.79274">
        <ele>1483.5</ele>
        <time>2013-08-24T10:11:41Z</time>
      </trkpt>
      <trkpt lat="46.22347" lon="6.79284">
        <ele>1486.3</ele>
        <time>2013-08-24T10:11:58Z</time>
      </trkpt>
      <trkpt lat="46.22322" lon="6.79291">
        <ele>1489.2</ele>
        <time>2013-08-24T10:12:14Z</time>
      </trkpt>
      <trkpt lat="46.22299" lon="6.79299">
        <ele>1492.1</ele>
        <time>2013-08-24T10:12:28Z</time>
      </trkpt>
      <trkpt lat="46.2228" lon="6.79308">
        <ele>1494.5</ele>
        <time>2013-08-24T10:12:39Z</time>
      </trkpt>
      <trkpt lat="46.22278" lon="6.79309">
        <ele>1494.5</ele>
        <time>2013-08-24T10:12:40Z</time>
      </trkpt>
      <trkpt lat="46.22271" lon="6.79312">
        <ele>1495.5</ele>
        <time>2013-08-24T10:12:44Z</time>
      </trkpt>
      <trkpt lat="46.22269" lon="6.79312">
        <ele>1495.5</ele>
        <time>2013-08-24T10:12:45Z</time>
      </trkpt>
      <trkpt lat="46.22268" lon="6.79312">
        <ele>1495.5</ele>
        <time>2013-08-24T10:12:46Z</time>
      </trkpt>
      <trkpt lat="46.22266" lon="6.79313">
        <ele>1495.5</ele>
        <time>2013-08-24T10:12:47Z</time>
      </trkpt>
      <trkpt lat="46.22246" lon="6.79317">
        <ele>1498.8</ele>
        <time>2013-08-24T10:12:59Z</time>
      </trkpt>
      <trkpt lat="46.2222" lon="6.79323">
        <ele>1501.7</ele>
        <time>2013-08-24T10:13:13Z</time>
      </trkpt>
      <trkpt lat="46.22195" lon="6.79336">
        <ele>1504.1</ele>
        <time>2013-08-24T10:13:26Z</time>
      </trkpt>
      <trkpt lat="46.22164" lon="6.79335">
        <ele>1507.5</ele>
        <time>2013-08-24T10:13:43Z</time>
      </trkpt>
      <trkpt lat="46.22138" lon="6.79324">
        <ele>1510.9</ele>
        <time>2013-08-24T10:13:59Z</time>
      </trkpt>
      <trkpt lat="46.22135" lon="6.79348">
        <ele>1512.8</ele>
        <time>2013-08-24T10:14:11Z</time>
      </trkpt>
      <trkpt lat="46.22161" lon="6.79366">
        <ele>1515.7</ele>
        <time>2013-08-24T10:14:26Z</time>
      </trkpt>
      <trkpt lat="46.22194" lon="6.79376">
        <ele>1518.5</ele>
        <time>2013-08-24T10:14:45Z</time>
      </trkpt>
      <trkpt lat="46.22219" lon="6.79377">
        <ele>1521.4</ele>
        <time>2013-08-24T10:14:58Z</time>
      </trkpt>
      <trkpt lat="46.22251" lon="6.79382">
        <ele>1524.3</ele>
        <time>2013-08-24T10:15:15Z</time>
      </trkpt>
      <trkpt lat="46.22273" lon="6.79388">
        <ele>1527.2</ele>
        <time>2013-08-24T10:15:28Z</time>
      </trkpt>
      <trkpt lat="46.22308" lon="6.79386">
        <ele>1530.1</ele>
        <time>2013-08-24T10:15:45Z</time>
      </trkpt>
      <trkpt lat="46.22339" lon="6.79385">
        <ele>1533</ele>
        <time>2013-08-24T10:16:02Z</time>
      </trkpt>
      <trkpt lat="46.22374" lon="6.79374">
        <ele>1536.3</ele>
        <time>2013-08-24T10:16:20Z</time>
      </trkpt>
      <trkpt lat="46.22405" lon="6.79367">
        <ele>1539.7</ele>
        <time>2013-08-24T10:16:37Z</time>
      </trkpt>
      <trkpt lat="46.22437" lon="6.79361">
        <ele>1542.6</ele>
        <time>2013-08-24T10:16:54Z</time>
      </trkpt>
      <trkpt lat="46.22464" lon="6.79367">
        <ele>1545.9</ele>
        <time>2013-08-24T10:17:09Z</time>
      </trkpt>
      <trkpt lat="46.22493" lon="6.79367">
        <ele>1548.8</ele>
        <time>2013-08-24T10:17:25Z</time>
      </trkpt>
      <trkpt lat="46.22499" lon="6.79366">
        <ele>1549.8</ele>
        <time>2013-08-24T10:17:29Z</time>
      </trkpt>
      <trkpt lat="46.22531" lon="6.79364">
        <ele>1553.2</ele>
        <time>2013-08-24T10:17:45Z</time>
      </trkpt>
      <trkpt lat="46.22556" lon="6.79367">
        <ele>1556.5</ele>
        <time>2013-08-24T10:18:00Z</time>
      </trkpt>
      <trkpt lat="46.22583" lon="6.79372">
        <ele>1558.9</ele>
        <time>2013-08-24T10:18:15Z</time>
      </trkpt>
      <trkpt lat="46.2261" lon="6.79381">
        <ele>1561.3</ele>
        <time>2013-08-24T10:18:29Z</time>
      </trkpt>
      <trkpt lat="46.22641" lon="6.79396">
        <ele>1563.7</ele>
        <time>2013-08-24T10:18:45Z</time>
      </trkpt>
      <trkpt lat="46.22647" lon="6.79405">
        <ele>1564.7</ele>
        <time>2013-08-24T10:18:49Z</time>
      </trkpt>
      <trkpt lat="46.22647" lon="6.79407">
        <ele>1564.7</ele>
        <time>2013-08-24T10:18:50Z</time>
      </trkpt>
      <trkpt lat="46.22647" lon="6.7941">
        <ele>1564.7</ele>
        <time>2013-08-24T10:18:51Z</time>
      </trkpt>
      <trkpt lat="46.22647" lon="6.79413">
        <ele>1565.2</ele>
        <time>2013-08-24T10:18:52Z</time>
      </trkpt>
      <trkpt lat="46.22646" lon="6.79416">
        <ele>1565.2</ele>
        <time>2013-08-24T10:18:53Z</time>
      </trkpt>
      <trkpt lat="46.22646" lon="6.79418">
        <ele>1565.6</ele>
        <time>2013-08-24T10:18:54Z</time>
      </trkpt>
      <trkpt lat="46.22644" lon="6.79419">
        <ele>1565.2</ele>
        <time>2013-08-24T10:18:55Z</time>
      </trkpt>
      <trkpt lat="46.22642" lon="6.7942">
        <ele>1565.6</ele>
        <time>2013-08-24T10:18:56Z</time>
      </trkpt>
      <trkpt lat="46.22641" lon="6.79421">
        <ele>1566.1</ele>
        <time>2013-08-24T10:18:57Z</time>
      </trkpt>
      <trkpt lat="46.22638" lon="6.79421">
        <ele>1566.6</ele>
        <time>2013-08-24T10:18:58Z</time>
      </trkpt>
      <trkpt lat="46.22608" lon="6.79406">
        <ele>1569</ele>
        <time>2013-08-24T10:19:14Z</time>
      </trkpt>
      <trkpt lat="46.22584" lon="6.79404">
        <ele>1571.4</ele>
        <time>2013-08-24T10:19:27Z</time>
      </trkpt>
      <trkpt lat="46.22583" lon="6.79404">
        <ele>1571.4</ele>
        <time>2013-08-24T10:19:28Z</time>
      </trkpt>
      <trkpt lat="46.22555" lon="6.79412">
        <ele>1573.3</ele>
        <time>2013-08-24T10:19:42Z</time>
      </trkpt>
      <trkpt lat="46.22521" lon="6.79421">
        <ele>1577.2</ele>
        <time>2013-08-24T10:19:59Z</time>
      </trkpt>
      <trkpt lat="46.22495" lon="6.79434">
        <ele>1580.1</ele>
        <time>2013-08-24T10:20:16Z</time>
      </trkpt>
      <trkpt lat="46.22491" lon="6.79435">
        <ele>1580.1</ele>
        <time>2013-08-24T10:20:19Z</time>
      </trkpt>
      <trkpt lat="46.22467" lon="6.79443">
        <ele>1582</ele>
        <time>2013-08-24T10:20:31Z</time>
      </trkpt>
      <trkpt lat="46.22445" lon="6.79443">
        <ele>1583.9</ele>
        <time>2013-08-24T10:20:44Z</time>
      </trkpt>
      <trkpt lat="46.22444" lon="6.79444">
        <ele>1584.4</ele>
        <time>2013-08-24T10:20:45Z</time>
      </trkpt>
      <trkpt lat="46.22442" lon="6.79444">
        <ele>1584.4</ele>
        <time>2013-08-24T10:20:46Z</time>
      </trkpt>
      <trkpt lat="46.22423" lon="6.79451">
        <ele>1586.3</ele>
        <time>2013-08-24T10:20:56Z</time>
      </trkpt>
      <trkpt lat="46.2239" lon="6.79465">
        <ele>1588.7</ele>
        <time>2013-08-24T10:21:10Z</time>
      </trkpt>
      <trkpt lat="46.22363" lon="6.79476">
        <ele>1591.1</ele>
        <time>2013-08-24T10:21:25Z</time>
      </trkpt>
      <trkpt lat="46.22336" lon="6.79478">
        <ele>1593.5</ele>
        <time>2013-08-24T10:21:37Z</time>
      </trkpt>
      <trkpt lat="46.22307" lon="6.7948">
        <ele>1595.9</ele>
        <time>2013-08-24T10:21:52Z</time>
      </trkpt>
      <trkpt lat="46.22294" lon="6.79481">
        <ele>1597.4</ele>
        <time>2013-08-24T10:21:59Z</time>
      </trkpt>
      <trkpt lat="46.22284" lon="6.79484">
        <ele>1598.3</ele>
        <time>2013-08-24T10:22:04Z</time>
      </trkpt>
      <trkpt lat="46.22282" lon="6.79485">
        <ele>1597.9</ele>
        <time>2013-08-24T10:22:05Z</time>
      </trkpt>
      <trkpt lat="46.2228" lon="6.79487">
        <ele>1597.9</ele>
        <time>2013-08-24T10:22:06Z</time>
      </trkpt>
      <trkpt lat="46.22278" lon="6.79488">
        <ele>1598.8</ele>
        <time>2013-08-24T10:22:07Z</time>
      </trkpt>
      <trkpt lat="46.22276" lon="6.79489">
        <ele>1598.8</ele>
        <time>2013-08-24T10:22:08Z</time>
      </trkpt>
      <trkpt lat="46.22274" lon="6.79489">
        <ele>1599.3</ele>
        <time>2013-08-24T10:22:09Z</time>
      </trkpt>
      <trkpt lat="46.22241" lon="6.79501">
        <ele>1601.2</ele>
        <time>2013-08-24T10:22:25Z</time>
      </trkpt>
      <trkpt lat="46.22209" lon="6.79512">
        <ele>1604.1</ele>
        <time>2013-08-24T10:22:40Z</time>
      </trkpt>
      <trkpt lat="46.22174" lon="6.79534">
        <ele>1607</ele>
        <time>2013-08-24T10:22:58Z</time>
      </trkpt>
      <trkpt lat="46.22172" lon="6.79535">
        <ele>1607.5</ele>
        <time>2013-08-24T10:22:59Z</time>
      </trkpt>
      <trkpt lat="46.22136" lon="6.79553">
        <ele>1608.9</ele>
        <time>2013-08-24T10:23:16Z</time>
      </trkpt>
      <trkpt lat="46.22103" lon="6.79567">
        <ele>1612.8</ele>
        <time>2013-08-24T10:23:31Z</time>
      </trkpt>
      <trkpt lat="46.22069" lon="6.79577">
        <ele>1615.2</ele>
        <time>2013-08-24T10:23:47Z</time>
      </trkpt>
      <trkpt lat="46.22037" lon="6.79589">
        <ele>1618.5</ele>
        <time>2013-08-24T10:24:02Z</time>
      </trkpt>
      <trkpt lat="46.22" lon="6.79593">
        <ele>1621.4</ele>
        <time>2013-08-24T10:24:19Z</time>
      </trkpt>
      <trkpt lat="46.21964" lon="6.79588">
        <ele>1624.8</ele>
        <time>2013-08-24T10:24:37Z</time>
      </trkpt>
      <trkpt lat="46.21928" lon="6.79576">
        <ele>1627.7</ele>
        <time>2013-08-24T10:24:55Z</time>
      </trkpt>
      <trkpt lat="46.21894" lon="6.79561">
        <ele>1631</ele>
        <time>2013-08-24T10:25:13Z</time>
      </trkpt>
      <trkpt lat="46.21867" lon="6.79535">
        <ele>1634.4</ele>
        <time>2013-08-24T10:25:29Z</time>
      </trkpt>
      <trkpt lat="46.21865" lon="6.7953">
        <ele>1634.9</ele>
        <time>2013-08-24T10:25:31Z</time>
      </trkpt>
      <trkpt lat="46.21854" lon="6.79478">
        <ele>1638.2</ele>
        <time>2013-08-24T10:25:50Z</time>
      </trkpt>
      <trkpt lat="46.21849" lon="6.79465">
        <ele>1639.2</ele>
        <time>2013-08-24T10:25:55Z</time>
      </trkpt>
      <trkpt lat="46.21827" lon="6.79409">
        <ele>1641.6</ele>
        <time>2013-08-24T10:26:16Z</time>
      </trkpt>
      <trkpt lat="46.21813" lon="6.79371">
        <ele>1644.5</ele>
        <time>2013-08-24T10:26:30Z</time>
      </trkpt>
      <trkpt lat="46.21786" lon="6.79319">
        <ele>1647.4</ele>
        <time>2013-08-24T10:26:52Z</time>
      </trkpt>
      <trkpt lat="46.2179" lon="6.79282">
        <ele>1649.8</ele>
        <time>2013-08-24T10:27:05Z</time>
      </trkpt>
      <trkpt lat="46.21804" lon="6.79251">
        <ele>1653.1</ele>
        <time>2013-08-24T10:27:20Z</time>
      </trkpt>
      <trkpt lat="46.21805" lon="6.79247">
        <ele>1654.1</ele>
        <time>2013-08-24T10:27:22Z</time>
      </trkpt>
      <trkpt lat="46.21806" lon="6.79203">
        <ele>1656.5</ele>
        <time>2013-08-24T10:27:39Z</time>
      </trkpt>
      <trkpt lat="46.21818" lon="6.79173">
        <ele>1659.4</ele>
        <time>2013-08-24T10:27:53Z</time>
      </trkpt>
      <trkpt lat="46.21839" lon="6.79155">
        <ele>1662.7</ele>
        <time>2013-08-24T10:28:08Z</time>
      </trkpt>
      <trkpt lat="46.21866" lon="6.79126">
        <ele>1665.6</ele>
        <time>2013-08-24T10:28:28Z</time>
      </trkpt>
      <trkpt lat="46.21866" lon="6.79069">
        <ele>1669</ele>
        <time>2013-08-24T10:28:49Z</time>
      </trkpt>
      <trkpt lat="46.21868" lon="6.79022">
        <ele>1670</ele>
        <time>2013-08-24T10:29:04Z</time>
      </trkpt>
      <trkpt lat="46.21865" lon="6.78965">
        <ele>1673.3</ele>
        <time>2013-08-24T10:29:22Z</time>
      </trkpt>
      <trkpt lat="46.2187" lon="6.78914">
        <ele>1675.2</ele>
        <time>2013-08-24T10:29:40Z</time>
      </trkpt>
      <trkpt lat="46.21866" lon="6.78874">
        <ele>1678.1</ele>
        <time>2013-08-24T10:29:58Z</time>
      </trkpt>
      <trkpt lat="46.21865" lon="6.78837">
        <ele>1680</ele>
        <time>2013-08-24T10:30:12Z</time>
      </trkpt>
      <trkpt lat="46.21888" lon="6.78797">
        <ele>1682</ele>
        <time>2013-08-24T10:30:29Z</time>
      </trkpt>
      <trkpt lat="46.21906" lon="6.78738">
        <ele>1685.3</ele>
        <time>2013-08-24T10:30:49Z</time>
      </trkpt>
      <trkpt lat="46.21907" lon="6.78734">
        <ele>1685.3</ele>
        <time>2013-08-24T10:30:50Z</time>
      </trkpt>
      <trkpt lat="46.21933" lon="6.78691">
        <ele>1687.7</ele>
        <time>2013-08-24T10:31:08Z</time>
      </trkpt>
      <trkpt lat="46.21965" lon="6.78662">
        <ele>1690.1</ele>
        <time>2013-08-24T10:31:26Z</time>
      </trkpt>
      <trkpt lat="46.22" lon="6.78632">
        <ele>1692.5</ele>
        <time>2013-08-24T10:31:45Z</time>
      </trkpt>
      <trkpt lat="46.22032" lon="6.78605">
        <ele>1695.4</ele>
        <time>2013-08-24T10:32:02Z</time>
      </trkpt>
      <trkpt lat="46.22062" lon="6.78563">
        <ele>1698.8</ele>
        <time>2013-08-24T10:32:22Z</time>
      </trkpt>
      <trkpt lat="46.22077" lon="6.7851">
        <ele>1701.7</ele>
        <time>2013-08-24T10:32:40Z</time>
      </trkpt>
      <trkpt lat="46.22096" lon="6.78469">
        <ele>1703.6</ele>
        <time>2013-08-24T10:32:57Z</time>
      </trkpt>
      <trkpt lat="46.22118" lon="6.78436">
        <ele>1707</ele>
        <time>2013-08-24T10:33:14Z</time>
      </trkpt>
      <trkpt lat="46.22138" lon="6.78406">
        <ele>1709.8</ele>
        <time>2013-08-24T10:33:30Z</time>
      </trkpt>
      <trkpt lat="46.22154" lon="6.78361">
        <ele>1711.8</ele>
        <time>2013-08-24T10:33:48Z</time>
      </trkpt>
      <trkpt lat="46.22167" lon="6.78309">
        <ele>1714.2</ele>
        <time>2013-08-24T10:34:08Z</time>
      </trkpt>
      <trkpt lat="46.22181" lon="6.7828">
        <ele>1717.5</ele>
        <time>2013-08-24T10:34:22Z</time>
      </trkpt>
      <trkpt lat="46.22208" lon="6.78257">
        <ele>1719.9</ele>
        <time>2013-08-24T10:34:40Z</time>
      </trkpt>
      <trkpt lat="46.22234" lon="6.78234">
        <ele>1723.3</ele>
        <time>2013-08-24T10:34:56Z</time>
      </trkpt>
      <trkpt lat="46.22266" lon="6.78213">
        <ele>1725.2</ele>
        <time>2013-08-24T10:35:13Z</time>
      </trkpt>
      <trkpt lat="46.22294" lon="6.78176">
        <ele>1727.2</ele>
        <time>2013-08-24T10:35:32Z</time>
      </trkpt>
      <trkpt lat="46.22315" lon="6.78148">
        <ele>1730.5</ele>
        <time>2013-08-24T10:35:48Z</time>
      </trkpt>
      <trkpt lat="46.22337" lon="6.78122">
        <ele>1733.4</ele>
        <time>2013-08-24T10:36:04Z</time>
      </trkpt>
      <trkpt lat="46.22356" lon="6.78095">
        <ele>1735.3</ele>
        <time>2013-08-24T10:36:19Z</time>
      </trkpt>
      <trkpt lat="46.22361" lon="6.78056">
        <ele>1737.7</ele>
        <time>2013-08-24T10:36:35Z</time>
      </trkpt>
      <trkpt lat="46.22361" lon="6.78047">
        <ele>1739.2</ele>
        <time>2013-08-24T10:36:39Z</time>
      </trkpt>
      <trkpt lat="46.22356" lon="6.78016">
        <ele>1741.1</ele>
        <time>2013-08-24T10:36:54Z</time>
      </trkpt>
      <trkpt lat="46.22338" lon="6.78021">
        <ele>1744.5</ele>
        <time>2013-08-24T10:37:07Z</time>
      </trkpt>
      <trkpt lat="46.22324" lon="6.78047">
        <ele>1746.4</ele>
        <time>2013-08-24T10:37:21Z</time>
      </trkpt>
      <trkpt lat="46.22323" lon="6.78047">
        <ele>1746.4</ele>
        <time>2013-08-24T10:37:22Z</time>
      </trkpt>
      <trkpt lat="46.22321" lon="6.78046">
        <ele>1746.4</ele>
        <time>2013-08-24T10:37:23Z</time>
      </trkpt>
      <trkpt lat="46.2232" lon="6.78046">
        <ele>1746.9</ele>
        <time>2013-08-24T10:37:24Z</time>
      </trkpt>
      <trkpt lat="46.22318" lon="6.78045">
        <ele>1746.9</ele>
        <time>2013-08-24T10:37:25Z</time>
      </trkpt>
      <trkpt lat="46.22302" lon="6.78024">
        <ele>1750.2</ele>
        <time>2013-08-24T10:37:38Z</time>
      </trkpt>
      <trkpt lat="46.22284" lon="6.77995">
        <ele>1753.6</ele>
        <time>2013-08-24T10:37:55Z</time>
      </trkpt>
      <trkpt lat="46.22263" lon="6.7797">
        <ele>1756.5</ele>
        <time>2013-08-24T10:38:12Z</time>
      </trkpt>
      <trkpt lat="46.22237" lon="6.77955">
        <ele>1759.8</ele>
        <time>2013-08-24T10:38:30Z</time>
      </trkpt>
      <trkpt lat="46.22213" lon="6.77956">
        <ele>1762.2</ele>
        <time>2013-08-24T10:38:45Z</time>
      </trkpt>
      <trkpt lat="46.22193" lon="6.77962">
        <ele>1764.6</ele>
        <time>2013-08-24T10:38:58Z</time>
      </trkpt>
      <trkpt lat="46.22166" lon="6.77961">
        <ele>1768</ele>
        <time>2013-08-24T10:39:16Z</time>
      </trkpt>
      <trkpt lat="46.22163" lon="6.77935">
        <ele>1769.4</ele>
        <time>2013-08-24T10:39:29Z</time>
      </trkpt>
      <trkpt lat="46.22168" lon="6.77891">
        <ele>1772.8</ele>
        <time>2013-08-24T10:39:46Z</time>
      </trkpt>
      <trkpt lat="46.22168" lon="6.77862">
        <ele>1775.7</ele>
        <time>2013-08-24T10:39:58Z</time>
      </trkpt>
      <trkpt lat="46.22167" lon="6.77809">
        <ele>1777.6</ele>
        <time>2013-08-24T10:40:17Z</time>
      </trkpt>
      <trkpt lat="46.22139" lon="6.7779">
        <ele>1777.6</ele>
        <time>2013-08-24T10:40:30Z</time>
      </trkpt>
      <trkpt lat="46.22095" lon="6.7777">
        <ele>1778.6</ele>
        <time>2013-08-24T10:40:47Z</time>
      </trkpt>
      <trkpt lat="46.22107" lon="6.77719">
        <ele>1779.1</ele>
        <time>2013-08-24T10:40:58Z</time>
      </trkpt>
      <trkpt lat="46.22141" lon="6.77681">
        <ele>1780</ele>
        <time>2013-08-24T10:41:12Z</time>
      </trkpt>
      <trkpt lat="46.22136" lon="6.77642">
        <ele>1780.5</ele>
        <time>2013-08-24T10:41:21Z</time>
      </trkpt>
      <trkpt lat="46.22107" lon="6.77571">
        <ele>1780</ele>
        <time>2013-08-24T10:41:37Z</time>
      </trkpt>
      <trkpt lat="46.22121" lon="6.77483">
        <ele>1780.5</ele>
        <time>2013-08-24T10:41:54Z</time>
      </trkpt>
      <trkpt lat="46.22147" lon="6.77394">
        <ele>1781.9</ele>
        <time>2013-08-24T10:42:14Z</time>
      </trkpt>
      <trkpt lat="46.22167" lon="6.77349">
        <ele>1783.4</ele>
        <time>2013-08-24T10:42:29Z</time>
      </trkpt>
      <trkpt lat="46.22171" lon="6.77344">
        <ele>1784.8</ele>
        <time>2013-08-24T10:42:32Z</time>
      </trkpt>
      <trkpt lat="46.22197" lon="6.77319">
        <ele>1786.3</ele>
        <time>2013-08-24T10:42:48Z</time>
      </trkpt>
      <trkpt lat="46.2221" lon="6.77282">
        <ele>1788.2</ele>
        <time>2013-08-24T10:43:03Z</time>
      </trkpt>
      <trkpt lat="46.22209" lon="6.7728">
        <ele>1787.7</ele>
        <time>2013-08-24T10:43:04Z</time>
      </trkpt>
      <trkpt lat="46.22207" lon="6.77279">
        <ele>1788.2</ele>
        <time>2013-08-24T10:43:05Z</time>
      </trkpt>
      <trkpt lat="46.22205" lon="6.77278">
        <ele>1788.2</ele>
        <time>2013-08-24T10:43:06Z</time>
      </trkpt>
      <trkpt lat="46.22203" lon="6.77278">
        <ele>1788.2</ele>
        <time>2013-08-24T10:43:07Z</time>
      </trkpt>
      <trkpt lat="46.22201" lon="6.77278">
        <ele>1788.7</ele>
        <time>2013-08-24T10:43:08Z</time>
      </trkpt>
      <trkpt lat="46.22199" lon="6.77279">
        <ele>1789.2</ele>
        <time>2013-08-24T10:43:09Z</time>
      </trkpt>
      <trkpt lat="46.22166" lon="6.77301">
        <ele>1790.1</ele>
        <time>2013-08-24T10:43:25Z</time>
      </trkpt>
      <trkpt lat="46.22146" lon="6.77311">
        <ele>1793.5</ele>
        <time>2013-08-24T10:43:38Z</time>
      </trkpt>
      <trkpt lat="46.22131" lon="6.77323">
        <ele>1794</ele>
        <time>2013-08-24T10:43:50Z</time>
      </trkpt>
      <trkpt lat="46.22131" lon="6.77325">
        <ele>1794</ele>
        <time>2013-08-24T10:43:51Z</time>
      </trkpt>
      <trkpt lat="46.22131" lon="6.77327">
        <ele>1794</ele>
        <time>2013-08-24T10:43:52Z</time>
      </trkpt>
      <trkpt lat="46.22133" lon="6.7733">
        <ele>1794.4</ele>
        <time>2013-08-24T10:43:54Z</time>
      </trkpt>
      <trkpt lat="46.22135" lon="6.77335">
        <ele>1794</ele>
        <time>2013-08-24T10:43:57Z</time>
      </trkpt>
      <trkpt lat="46.22137" lon="6.77337">
        <ele>1789.2</ele>
        <time>2013-08-24T10:44:06Z</time>
      </trkpt>
      <trkpt lat="46.2214" lon="6.77319">
        <ele>1794</ele>
        <time>2013-08-25T06:05:27Z</time>
      </trkpt>
      <trkpt lat="46.22139" lon="6.7732">
        <ele>1794</ele>
        <time>2013-08-25T06:05:28Z</time>
      </trkpt>
      <trkpt lat="46.22136" lon="6.77321">
        <ele>1794</ele>
        <time>2013-08-25T06:05:58Z</time>
      </trkpt>
      <trkpt lat="46.22144" lon="6.77313">
        <ele>1794</ele>
        <time>2013-08-25T06:06:23Z</time>
      </trkpt>
      <trkpt lat="46.22151" lon="6.7731">
        <ele>1792</ele>
        <time>2013-08-25T06:07:02Z</time>
      </trkpt>
      <trkpt lat="46.22153" lon="6.77312">
        <ele>1792</ele>
        <time>2013-08-25T06:07:41Z</time>
      </trkpt>
      <trkpt lat="46.22154" lon="6.77314">
        <ele>1792.5</ele>
        <time>2013-08-25T06:08:09Z</time>
      </trkpt>
      <trkpt lat="46.22153" lon="6.77313">
        <ele>1792</ele>
        <time>2013-08-25T06:08:24Z</time>
      </trkpt>
      <trkpt lat="46.22148" lon="6.77313">
        <ele>1791.6</ele>
        <time>2013-08-25T06:08:37Z</time>
      </trkpt>
      <trkpt lat="46.22148" lon="6.77315">
        <ele>1791.6</ele>
        <time>2013-08-25T06:08:58Z</time>
      </trkpt>
      <trkpt lat="46.22147" lon="6.77314">
        <ele>1792</ele>
        <time>2013-08-25T06:09:25Z</time>
      </trkpt>
      <trkpt lat="46.22143" lon="6.77308">
        <ele>1792</ele>
        <time>2013-08-25T06:09:46Z</time>
      </trkpt>
      <trkpt lat="46.22143" lon="6.77308">
        <ele>1792</ele>
        <time>2013-08-25T06:09:50Z</time>
      </trkpt>
      <trkpt lat="46.22139" lon="6.77306">
        <ele>1791.1</ele>
        <time>2013-08-25T06:09:53Z</time>
      </trkpt>
      <trkpt lat="46.22136" lon="6.77305">
        <ele>1791.1</ele>
        <time>2013-08-25T06:09:54Z</time>
      </trkpt>
      <trkpt lat="46.22134" lon="6.77303">
        <ele>1791.1</ele>
        <time>2013-08-25T06:09:55Z</time>
      </trkpt>
      <trkpt lat="46.2213" lon="6.77302">
        <ele>1790.1</ele>
        <time>2013-08-25T06:09:56Z</time>
      </trkpt>
      <trkpt lat="46.22127" lon="6.77301">
        <ele>1790.1</ele>
        <time>2013-08-25T06:09:57Z</time>
      </trkpt>
      <trkpt lat="46.22125" lon="6.773">
        <ele>1790.6</ele>
        <time>2013-08-25T06:09:58Z</time>
      </trkpt>
      <trkpt lat="46.22097" lon="6.77302">
        <ele>1790.1</ele>
        <time>2013-08-25T06:10:10Z</time>
      </trkpt>
      <trkpt lat="46.22083" lon="6.77304">
        <ele>1788.7</ele>
        <time>2013-08-25T06:10:15Z</time>
      </trkpt>
      <trkpt lat="46.22079" lon="6.77306">
        <ele>1788.7</ele>
        <time>2013-08-25T06:10:16Z</time>
      </trkpt>
      <trkpt lat="46.22051" lon="6.77328">
        <ele>1789.2</ele>
        <time>2013-08-25T06:10:28Z</time>
      </trkpt>
      <trkpt lat="46.2202" lon="6.7736">
        <ele>1790.6</ele>
        <time>2013-08-25T06:10:41Z</time>
      </trkpt>
      <trkpt lat="46.22016" lon="6.77365">
        <ele>1791.1</ele>
        <time>2013-08-25T06:10:43Z</time>
      </trkpt>
      <trkpt lat="46.22014" lon="6.77366">
        <ele>1791.1</ele>
        <time>2013-08-25T06:10:44Z</time>
      </trkpt>
      <trkpt lat="46.21984" lon="6.77398">
        <ele>1793.5</ele>
        <time>2013-08-25T06:10:59Z</time>
      </trkpt>
      <trkpt lat="46.21956" lon="6.77426">
        <ele>1795.9</ele>
        <time>2013-08-25T06:11:13Z</time>
      </trkpt>
      <trkpt lat="46.21929" lon="6.77459">
        <ele>1798.8</ele>
        <time>2013-08-25T06:11:29Z</time>
      </trkpt>
      <trkpt lat="46.21905" lon="6.77494">
        <ele>1801.2</ele>
        <time>2013-08-25T06:11:46Z</time>
      </trkpt>
      <trkpt lat="46.21888" lon="6.77528">
        <ele>1803.6</ele>
        <time>2013-08-25T06:12:00Z</time>
      </trkpt>
      <trkpt lat="46.21876" lon="6.77566">
        <ele>1806.9</ele>
        <time>2013-08-25T06:12:15Z</time>
      </trkpt>
      <trkpt lat="46.21864" lon="6.77603">
        <ele>1808.4</ele>
        <time>2013-08-25T06:12:28Z</time>
      </trkpt>
      <trkpt lat="46.21838" lon="6.77654">
        <ele>1810.8</ele>
        <time>2013-08-25T06:12:44Z</time>
      </trkpt>
      <trkpt lat="46.21815" lon="6.77704">
        <ele>1811.7</ele>
        <time>2013-08-25T06:13:00Z</time>
      </trkpt>
      <trkpt lat="46.21778" lon="6.77759">
        <ele>1813.7</ele>
        <time>2013-08-25T06:13:20Z</time>
      </trkpt>
      <trkpt lat="46.21731" lon="6.77801">
        <ele>1815.1</ele>
        <time>2013-08-25T06:13:38Z</time>
      </trkpt>
      <trkpt lat="46.21685" lon="6.77833">
        <ele>1816.6</ele>
        <time>2013-08-25T06:13:55Z</time>
      </trkpt>
      <trkpt lat="46.2165" lon="6.77852">
        <ele>1819.9</ele>
        <time>2013-08-25T06:14:10Z</time>
      </trkpt>
      <trkpt lat="46.21621" lon="6.77877">
        <ele>1823.3</ele>
        <time>2013-08-25T06:14:24Z</time>
      </trkpt>
      <trkpt lat="46.21589" lon="6.77919">
        <ele>1825.2</ele>
        <time>2013-08-25T06:14:41Z</time>
      </trkpt>
      <trkpt lat="46.21562" lon="6.77977">
        <ele>1824.2</ele>
        <time>2013-08-25T06:14:56Z</time>
      </trkpt>
      <trkpt lat="46.21538" lon="6.78058">
        <ele>1824.7</ele>
        <time>2013-08-25T06:15:11Z</time>
      </trkpt>
      <trkpt lat="46.21523" lon="6.78125">
        <ele>1824.7</ele>
        <time>2013-08-25T06:15:24Z</time>
      </trkpt>
      <trkpt lat="46.21516" lon="6.78187">
        <ele>1826.2</ele>
        <time>2013-08-25T06:15:37Z</time>
      </trkpt>
      <trkpt lat="46.21513" lon="6.78203">
        <ele>1825.7</ele>
        <time>2013-08-25T06:15:40Z</time>
      </trkpt>
      <trkpt lat="46.21511" lon="6.78208">
        <ele>1825.2</ele>
        <time>2013-08-25T06:15:41Z</time>
      </trkpt>
      <trkpt lat="46.21508" lon="6.78213">
        <ele>1825.7</ele>
        <time>2013-08-25T06:15:42Z</time>
      </trkpt>
      <trkpt lat="46.21501" lon="6.78228">
        <ele>1825.7</ele>
        <time>2013-08-25T06:15:45Z</time>
      </trkpt>
      <trkpt lat="46.21499" lon="6.78232">
        <ele>1825.7</ele>
        <time>2013-08-25T06:15:46Z</time>
      </trkpt>
      <trkpt lat="46.21459" lon="6.78307">
        <ele>1825.2</ele>
        <time>2013-08-25T06:16:03Z</time>
      </trkpt>
      <trkpt lat="46.21418" lon="6.78354">
        <ele>1827.1</ele>
        <time>2013-08-25T06:16:18Z</time>
      </trkpt>
      <trkpt lat="46.21377" lon="6.78395">
        <ele>1828.1</ele>
        <time>2013-08-25T06:16:33Z</time>
      </trkpt>
      <trkpt lat="46.21333" lon="6.78441">
        <ele>1826.2</ele>
        <time>2013-08-25T06:16:46Z</time>
      </trkpt>
      <trkpt lat="46.21296" lon="6.78474">
        <ele>1827.1</ele>
        <time>2013-08-25T06:16:57Z</time>
      </trkpt>
      <trkpt lat="46.21292" lon="6.78475">
        <ele>1827.1</ele>
        <time>2013-08-25T06:16:58Z</time>
      </trkpt>
      <trkpt lat="46.21288" lon="6.78475">
        <ele>1826.6</ele>
        <time>2013-08-25T06:16:59Z</time>
      </trkpt>
      <trkpt lat="46.21284" lon="6.78476">
        <ele>1826.6</ele>
        <time>2013-08-25T06:17:00Z</time>
      </trkpt>
      <trkpt lat="46.2128" lon="6.78477">
        <ele>1826.6</ele>
        <time>2013-08-25T06:17:01Z</time>
      </trkpt>
      <trkpt lat="46.21277" lon="6.78479">
        <ele>1826.6</ele>
        <time>2013-08-25T06:17:02Z</time>
      </trkpt>
      <trkpt lat="46.2123" lon="6.78509">
        <ele>1825.2</ele>
        <time>2013-08-25T06:17:15Z</time>
      </trkpt>
      <trkpt lat="46.21205" lon="6.78539">
        <ele>1824.7</ele>
        <time>2013-08-25T06:17:26Z</time>
      </trkpt>
      <trkpt lat="46.21174" lon="6.78553">
        <ele>1822.8</ele>
        <time>2013-08-25T06:17:37Z</time>
      </trkpt>
      <trkpt lat="46.21167" lon="6.78577">
        <ele>1821.8</ele>
        <time>2013-08-25T06:17:42Z</time>
      </trkpt>
      <trkpt lat="46.21167" lon="6.78585">
        <ele>1820.9</ele>
        <time>2013-08-25T06:17:43Z</time>
      </trkpt>
      <trkpt lat="46.21166" lon="6.78609">
        <ele>1819.4</ele>
        <time>2013-08-25T06:17:46Z</time>
      </trkpt>
      <trkpt lat="46.21165" lon="6.78616">
        <ele>1818.5</ele>
        <time>2013-08-25T06:17:47Z</time>
      </trkpt>
      <trkpt lat="46.21164" lon="6.78623">
        <ele>1818.5</ele>
        <time>2013-08-25T06:17:48Z</time>
      </trkpt>
      <trkpt lat="46.2116" lon="6.78635">
        <ele>1819</ele>
        <time>2013-08-25T06:17:50Z</time>
      </trkpt>
      <trkpt lat="46.21151" lon="6.78656">
        <ele>1818</ele>
        <time>2013-08-25T06:17:54Z</time>
      </trkpt>
      <trkpt lat="46.21147" lon="6.78661">
        <ele>1818</ele>
        <time>2013-08-25T06:17:55Z</time>
      </trkpt>
      <trkpt lat="46.21144" lon="6.78666">
        <ele>1818</ele>
        <time>2013-08-25T06:17:56Z</time>
      </trkpt>
      <trkpt lat="46.21138" lon="6.78675">
        <ele>1818</ele>
        <time>2013-08-25T06:17:58Z</time>
      </trkpt>
      <trkpt lat="46.21116" lon="6.78709">
        <ele>1818</ele>
        <time>2013-08-25T06:18:05Z</time>
      </trkpt>
      <trkpt lat="46.21113" lon="6.78713">
        <ele>1817.5</ele>
        <time>2013-08-25T06:18:06Z</time>
      </trkpt>
      <trkpt lat="46.21101" lon="6.78723">
        <ele>1816.6</ele>
        <time>2013-08-25T06:18:09Z</time>
      </trkpt>
      <trkpt lat="46.21097" lon="6.78725">
        <ele>1817</ele>
        <time>2013-08-25T06:18:10Z</time>
      </trkpt>
      <trkpt lat="46.21063" lon="6.78749">
        <ele>1817</ele>
        <time>2013-08-25T06:18:20Z</time>
      </trkpt>
      <trkpt lat="46.21048" lon="6.78761">
        <ele>1817</ele>
        <time>2013-08-25T06:18:24Z</time>
      </trkpt>
      <trkpt lat="46.21027" lon="6.7878">
        <ele>1815.6</ele>
        <time>2013-08-25T06:18:29Z</time>
      </trkpt>
      <trkpt lat="46.20981" lon="6.7882">
        <ele>1813.7</ele>
        <time>2013-08-25T06:18:39Z</time>
      </trkpt>
      <trkpt lat="46.20969" lon="6.78837">
        <ele>1812.2</ele>
        <time>2013-08-25T06:18:42Z</time>
      </trkpt>
      <trkpt lat="46.20965" lon="6.78839">
        <ele>1812.2</ele>
        <time>2013-08-25T06:18:43Z</time>
      </trkpt>
      <trkpt lat="46.20954" lon="6.78839">
        <ele>1812.7</ele>
        <time>2013-08-25T06:18:46Z</time>
      </trkpt>
      <trkpt lat="46.20949" lon="6.78836">
        <ele>1812.7</ele>
        <time>2013-08-25T06:18:47Z</time>
      </trkpt>
      <trkpt lat="46.20945" lon="6.78832">
        <ele>1812.2</ele>
        <time>2013-08-25T06:18:48Z</time>
      </trkpt>
      <trkpt lat="46.20941" lon="6.78828">
        <ele>1811.7</ele>
        <time>2013-08-25T06:18:49Z</time>
      </trkpt>
      <trkpt lat="46.20937" lon="6.78825">
        <ele>1812.2</ele>
        <time>2013-08-25T06:18:50Z</time>
      </trkpt>
      <trkpt lat="46.20933" lon="6.78822">
        <ele>1812.2</ele>
        <time>2013-08-25T06:18:51Z</time>
      </trkpt>
      <trkpt lat="46.2093" lon="6.78819">
        <ele>1812.7</ele>
        <time>2013-08-25T06:18:52Z</time>
      </trkpt>
      <trkpt lat="46.20927" lon="6.78817">
        <ele>1812.7</ele>
        <time>2013-08-25T06:18:53Z</time>
      </trkpt>
      <trkpt lat="46.20923" lon="6.78815">
        <ele>1812.7</ele>
        <time>2013-08-25T06:18:54Z</time>
      </trkpt>
      <trkpt lat="46.20919" lon="6.78813">
        <ele>1812.7</ele>
        <time>2013-08-25T06:18:55Z</time>
      </trkpt>
      <trkpt lat="46.20878" lon="6.78804">
        <ele>1814.2</ele>
        <time>2013-08-25T06:19:07Z</time>
      </trkpt>
      <trkpt lat="46.20832" lon="6.78822">
        <ele>1812.7</ele>
        <time>2013-08-25T06:19:19Z</time>
      </trkpt>
      <trkpt lat="46.20826" lon="6.78824">
        <ele>1812.2</ele>
        <time>2013-08-25T06:19:20Z</time>
      </trkpt>
      <trkpt lat="46.2082" lon="6.78825">
        <ele>1811.3</ele>
        <time>2013-08-25T06:19:21Z</time>
      </trkpt>
      <trkpt lat="46.20815" lon="6.78825">
        <ele>1811.3</ele>
        <time>2013-08-25T06:19:22Z</time>
      </trkpt>
      <trkpt lat="46.2081" lon="6.78824">
        <ele>1811.3</ele>
        <time>2013-08-25T06:19:23Z</time>
      </trkpt>
      <trkpt lat="46.20806" lon="6.78823">
        <ele>1811.3</ele>
        <time>2013-08-25T06:19:24Z</time>
      </trkpt>
      <trkpt lat="46.20802" lon="6.78821">
        <ele>1810.8</ele>
        <time>2013-08-25T06:19:25Z</time>
      </trkpt>
      <trkpt lat="46.20797" lon="6.78819">
        <ele>1810.8</ele>
        <time>2013-08-25T06:19:26Z</time>
      </trkpt>
      <trkpt lat="46.20793" lon="6.78817">
        <ele>1810.8</ele>
        <time>2013-08-25T06:19:27Z</time>
      </trkpt>
      <trkpt lat="46.20778" lon="6.78814">
        <ele>1809.3</ele>
        <time>2013-08-25T06:19:30Z</time>
      </trkpt>
      <trkpt lat="46.20774" lon="6.78812">
        <ele>1809.3</ele>
        <time>2013-08-25T06:19:31Z</time>
      </trkpt>
      <trkpt lat="46.2075" lon="6.78798">
        <ele>1806.9</ele>
        <time>2013-08-25T06:19:39Z</time>
      </trkpt>
      <trkpt lat="46.20748" lon="6.78794">
        <ele>1806.5</ele>
        <time>2013-08-25T06:19:40Z</time>
      </trkpt>
      <trkpt lat="46.20746" lon="6.78791">
        <ele>1806.9</ele>
        <time>2013-08-25T06:19:41Z</time>
      </trkpt>
      <trkpt lat="46.20746" lon="6.78788">
        <ele>1806.5</ele>
        <time>2013-08-25T06:19:42Z</time>
      </trkpt>
      <trkpt lat="46.20746" lon="6.78785">
        <ele>1806.5</ele>
        <time>2013-08-25T06:19:43Z</time>
      </trkpt>
      <trkpt lat="46.20747" lon="6.78782">
        <ele>1806.5</ele>
        <time>2013-08-25T06:19:44Z</time>
      </trkpt>
      <trkpt lat="46.20749" lon="6.78779">
        <ele>1805.5</ele>
        <time>2013-08-25T06:19:56Z</time>
      </trkpt>
      <trkpt lat="46.20749" lon="6.78778">
        <ele>1805.5</ele>
        <time>2013-08-25T06:19:59Z</time>
      </trkpt>
      <trkpt lat="46.2075" lon="6.78776">
        <ele>1806</ele>
        <time>2013-08-25T06:20:00Z</time>
      </trkpt>
      <trkpt lat="46.2075" lon="6.78775">
        <ele>1804.5</ele>
        <time>2013-08-25T06:20:01Z</time>
      </trkpt>
      <trkpt lat="46.20749" lon="6.7877">
        <ele>1804.1</ele>
        <time>2013-08-25T06:20:03Z</time>
      </trkpt>
      <trkpt lat="46.20748" lon="6.78758">
        <ele>1802.1</ele>
        <time>2013-08-25T06:20:09Z</time>
      </trkpt>
      <trkpt lat="46.20761" lon="6.78753">
        <ele>1799.2</ele>
        <time>2013-08-25T06:20:15Z</time>
      </trkpt>
      <trkpt lat="46.20767" lon="6.78752">
        <ele>1798.3</ele>
        <time>2013-08-25T06:20:17Z</time>
      </trkpt>
      <trkpt lat="46.20767" lon="6.78739">
        <ele>1794</ele>
        <time>2013-08-25T06:20:23Z</time>
      </trkpt>
      <trkpt lat="46.20772" lon="6.78739">
        <ele>1793.5</ele>
        <time>2013-08-25T06:20:32Z</time>
      </trkpt>
      <trkpt lat="46.20789" lon="6.7873">
        <ele>1789.6</ele>
        <time>2013-08-25T06:20:39Z</time>
      </trkpt>
      <trkpt lat="46.2081" lon="6.78727">
        <ele>1788.2</ele>
        <time>2013-08-25T06:20:46Z</time>
      </trkpt>
      <trkpt lat="46.20806" lon="6.78717">
        <ele>1784.8</ele>
        <time>2013-08-25T06:20:50Z</time>
      </trkpt>
      <trkpt lat="46.20803" lon="6.78717">
        <ele>1783.9</ele>
        <time>2013-08-25T06:20:52Z</time>
      </trkpt>
      <trkpt lat="46.20799" lon="6.78716">
        <ele>1782.4</ele>
        <time>2013-08-25T06:20:54Z</time>
      </trkpt>
      <trkpt lat="46.20795" lon="6.78714">
        <ele>1782.4</ele>
        <time>2013-08-25T06:21:07Z</time>
      </trkpt>
      <trkpt lat="46.20799" lon="6.78715">
        <ele>1782.9</ele>
        <time>2013-08-25T06:21:21Z</time>
      </trkpt>
      <trkpt lat="46.20799" lon="6.78715">
        <ele>1782.4</ele>
        <time>2013-08-25T06:21:22Z</time>
      </trkpt>
      <trkpt lat="46.20811" lon="6.78712">
        <ele>1782.4</ele>
        <time>2013-08-25T06:21:28Z</time>
      </trkpt>
      <trkpt lat="46.20827" lon="6.78711">
        <ele>1781</ele>
        <time>2013-08-25T06:21:34Z</time>
      </trkpt>
      <trkpt lat="46.20829" lon="6.78711">
        <ele>1780.5</ele>
        <time>2013-08-25T06:21:35Z</time>
      </trkpt>
      <trkpt lat="46.20835" lon="6.78709">
        <ele>1780.5</ele>
        <time>2013-08-25T06:21:38Z</time>
      </trkpt>
      <trkpt lat="46.20852" lon="6.78704">
        <ele>1779.1</ele>
        <time>2013-08-25T06:21:42Z</time>
      </trkpt>
      <trkpt lat="46.20863" lon="6.78701">
        <ele>1779.1</ele>
        <time>2013-08-25T06:21:45Z</time>
      </trkpt>
      <trkpt lat="46.20867" lon="6.78698">
        <ele>1778.6</ele>
        <time>2013-08-25T06:21:46Z</time>
      </trkpt>
      <trkpt lat="46.20871" lon="6.78695">
        <ele>1777.1</ele>
        <time>2013-08-25T06:21:47Z</time>
      </trkpt>
      <trkpt lat="46.20876" lon="6.78693">
        <ele>1776.2</ele>
        <time>2013-08-25T06:21:48Z</time>
      </trkpt>
      <trkpt lat="46.2088" lon="6.78693">
        <ele>1775.7</ele>
        <time>2013-08-25T06:21:49Z</time>
      </trkpt>
      <trkpt lat="46.20884" lon="6.78692">
        <ele>1775.2</ele>
        <time>2013-08-25T06:21:50Z</time>
      </trkpt>
      <trkpt lat="46.2089" lon="6.78688">
        <ele>1774.3</ele>
        <time>2013-08-25T06:21:52Z</time>
      </trkpt>
      <trkpt lat="46.20918" lon="6.78681">
        <ele>1773.3</ele>
        <time>2013-08-25T06:22:01Z</time>
      </trkpt>
      <trkpt lat="46.20921" lon="6.78679">
        <ele>1772.8</ele>
        <time>2013-08-25T06:22:02Z</time>
      </trkpt>
      <trkpt lat="46.20925" lon="6.78678">
        <ele>1771.9</ele>
        <time>2013-08-25T06:22:03Z</time>
      </trkpt>
      <trkpt lat="46.20929" lon="6.78678">
        <ele>1771.4</ele>
        <time>2013-08-25T06:22:04Z</time>
      </trkpt>
      <trkpt lat="46.20931" lon="6.78679">
        <ele>1770.4</ele>
        <time>2013-08-25T06:22:05Z</time>
      </trkpt>
      <trkpt lat="46.20934" lon="6.78681">
        <ele>1769.9</ele>
        <time>2013-08-25T06:22:06Z</time>
      </trkpt>
      <trkpt lat="46.20936" lon="6.78682">
        <ele>1769.4</ele>
        <time>2013-08-25T06:22:07Z</time>
      </trkpt>
      <trkpt lat="46.2094" lon="6.7868">
        <ele>1768.5</ele>
        <time>2013-08-25T06:22:08Z</time>
      </trkpt>
      <trkpt lat="46.20942" lon="6.78678">
        <ele>1768.5</ele>
        <time>2013-08-25T06:22:09Z</time>
      </trkpt>
      <trkpt lat="46.20942" lon="6.78675">
        <ele>1768.5</ele>
        <time>2013-08-25T06:22:10Z</time>
      </trkpt>
      <trkpt lat="46.20941" lon="6.78671">
        <ele>1768.5</ele>
        <time>2013-08-25T06:22:11Z</time>
      </trkpt>
      <trkpt lat="46.2094" lon="6.78667">
        <ele>1768</ele>
        <time>2013-08-25T06:22:12Z</time>
      </trkpt>
      <trkpt lat="46.20938" lon="6.78662">
        <ele>1768</ele>
        <time>2013-08-25T06:22:13Z</time>
      </trkpt>
      <trkpt lat="46.20936" lon="6.78656">
        <ele>1767.5</ele>
        <time>2013-08-25T06:22:14Z</time>
      </trkpt>
      <trkpt lat="46.20936" lon="6.78649">
        <ele>1766.6</ele>
        <time>2013-08-25T06:22:15Z</time>
      </trkpt>
      <trkpt lat="46.20937" lon="6.78643">
        <ele>1766.6</ele>
        <time>2013-08-25T06:22:16Z</time>
      </trkpt>
      <trkpt lat="46.2094" lon="6.78632">
        <ele>1765.1</ele>
        <time>2013-08-25T06:22:18Z</time>
      </trkpt>
      <trkpt lat="46.20942" lon="6.78629">
        <ele>1764.2</ele>
        <time>2013-08-25T06:22:19Z</time>
      </trkpt>
      <trkpt lat="46.20944" lon="6.78626">
        <ele>1764.2</ele>
        <time>2013-08-25T06:22:20Z</time>
      </trkpt>
      <trkpt lat="46.20945" lon="6.78621">
        <ele>1763.7</ele>
        <time>2013-08-25T06:22:21Z</time>
      </trkpt>
      <trkpt lat="46.20945" lon="6.78617">
        <ele>1763.2</ele>
        <time>2013-08-25T06:22:22Z</time>
      </trkpt>
      <trkpt lat="46.20945" lon="6.78615">
        <ele>1762.7</ele>
        <time>2013-08-25T06:22:32Z</time>
      </trkpt>
      <trkpt lat="46.20946" lon="6.78616">
        <ele>1763.2</ele>
        <time>2013-08-25T06:22:57Z</time>
      </trkpt>
      <trkpt lat="46.20946" lon="6.7862">
        <ele>1763.2</ele>
        <time>2013-08-25T06:23:02Z</time>
      </trkpt>
      <trkpt lat="46.20942" lon="6.78639">
        <ele>1766.6</ele>
        <time>2013-08-25T06:23:16Z</time>
      </trkpt>
      <trkpt lat="46.2094" lon="6.78642">
        <ele>1765.6</ele>
        <time>2013-08-25T06:23:21Z</time>
      </trkpt>
      <trkpt lat="46.20939" lon="6.78644">
        <ele>1766.1</ele>
        <time>2013-08-25T06:23:22Z</time>
      </trkpt>
      <trkpt lat="46.20938" lon="6.78646">
        <ele>1766.6</ele>
        <time>2013-08-25T06:23:23Z</time>
      </trkpt>
      <trkpt lat="46.20937" lon="6.78649">
        <ele>1766.1</ele>
        <time>2013-08-25T06:23:24Z</time>
      </trkpt>
      <trkpt lat="46.20937" lon="6.78652">
        <ele>1766.6</ele>
        <time>2013-08-25T06:23:25Z</time>
      </trkpt>
      <trkpt lat="46.20938" lon="6.78655">
        <ele>1766.6</ele>
        <time>2013-08-25T06:23:26Z</time>
      </trkpt>
      <trkpt lat="46.20939" lon="6.7866">
        <ele>1767</ele>
        <time>2013-08-25T06:23:28Z</time>
      </trkpt>
      <trkpt lat="46.20939" lon="6.78662">
        <ele>1768</ele>
        <time>2013-08-25T06:23:29Z</time>
      </trkpt>
      <trkpt lat="46.2094" lon="6.78664">
        <ele>1768</ele>
        <time>2013-08-25T06:23:30Z</time>
      </trkpt>
      <trkpt lat="46.20941" lon="6.78667">
        <ele>1768.5</ele>
        <time>2013-08-25T06:23:31Z</time>
      </trkpt>
      <trkpt lat="46.2094" lon="6.78669">
        <ele>1768.5</ele>
        <time>2013-08-25T06:23:32Z</time>
      </trkpt>
      <trkpt lat="46.2094" lon="6.78672">
        <ele>1769</ele>
        <time>2013-08-25T06:23:33Z</time>
      </trkpt>
      <trkpt lat="46.2094" lon="6.78675">
        <ele>1769</ele>
        <time>2013-08-25T06:23:34Z</time>
      </trkpt>
      <trkpt lat="46.20939" lon="6.78679">
        <ele>1769.4</ele>
        <time>2013-08-25T06:23:36Z</time>
      </trkpt>
      <trkpt lat="46.20937" lon="6.7868">
        <ele>1769</ele>
        <time>2013-08-25T06:23:37Z</time>
      </trkpt>
      <trkpt lat="46.20932" lon="6.78681">
        <ele>1770.4</ele>
        <time>2013-08-25T06:23:42Z</time>
      </trkpt>
      <trkpt lat="46.20932" lon="6.78679">
        <ele>1769.9</ele>
        <time>2013-08-25T06:23:43Z</time>
      </trkpt>
      <trkpt lat="46.20931" lon="6.78678">
        <ele>1770.9</ele>
        <time>2013-08-25T06:23:44Z</time>
      </trkpt>
      <trkpt lat="46.2092" lon="6.7868">
        <ele>1772.3</ele>
        <time>2013-08-25T06:23:51Z</time>
      </trkpt>
      <trkpt lat="46.20906" lon="6.78685">
        <ele>1775.7</ele>
        <time>2013-08-25T06:23:59Z</time>
      </trkpt>
      <trkpt lat="46.20899" lon="6.78689">
        <ele>1775.7</ele>
        <time>2013-08-25T06:24:03Z</time>
      </trkpt>
      <trkpt lat="46.20897" lon="6.78688">
        <ele>1775.2</ele>
        <time>2013-08-25T06:24:04Z</time>
      </trkpt>
      <trkpt lat="46.20896" lon="6.78687">
        <ele>1775.7</ele>
        <time>2013-08-25T06:24:05Z</time>
      </trkpt>
      <trkpt lat="46.20893" lon="6.78687">
        <ele>1775.2</ele>
        <time>2013-08-25T06:24:06Z</time>
      </trkpt>
      <trkpt lat="46.20891" lon="6.78687">
        <ele>1775.7</ele>
        <time>2013-08-25T06:24:07Z</time>
      </trkpt>
      <trkpt lat="46.20889" lon="6.78688">
        <ele>1775.2</ele>
        <time>2013-08-25T06:24:08Z</time>
      </trkpt>
      <trkpt lat="46.2088" lon="6.78695">
        <ele>1775.7</ele>
        <time>2013-08-25T06:24:13Z</time>
      </trkpt>
      <trkpt lat="46.20878" lon="6.78694">
        <ele>1775.7</ele>
        <time>2013-08-25T06:24:14Z</time>
      </trkpt>
      <trkpt lat="46.20876" lon="6.78694">
        <ele>1776.2</ele>
        <time>2013-08-25T06:24:15Z</time>
      </trkpt>
      <trkpt lat="46.20875" lon="6.78694">
        <ele>1776.7</ele>
        <time>2013-08-25T06:24:16Z</time>
      </trkpt>
      <trkpt lat="46.20873" lon="6.78694">
        <ele>1776.7</ele>
        <time>2013-08-25T06:24:17Z</time>
      </trkpt>
      <trkpt lat="46.20872" lon="6.78694">
        <ele>1776.7</ele>
        <time>2013-08-25T06:24:18Z</time>
      </trkpt>
      <trkpt lat="46.20865" lon="6.787">
        <ele>1778.1</ele>
        <time>2013-08-25T06:24:23Z</time>
      </trkpt>
      <trkpt lat="46.20863" lon="6.78701">
        <ele>1778.1</ele>
        <time>2013-08-25T06:24:24Z</time>
      </trkpt>
      <trkpt lat="46.20848" lon="6.78704">
        <ele>1779.5</ele>
        <time>2013-08-25T06:24:33Z</time>
      </trkpt>
      <trkpt lat="46.20829" lon="6.78711">
        <ele>1781.5</ele>
        <time>2013-08-25T06:24:47Z</time>
      </trkpt>
      <trkpt lat="46.20804" lon="6.78715">
        <ele>1782.9</ele>
        <time>2013-08-25T06:25:02Z</time>
      </trkpt>
      <trkpt lat="46.20793" lon="6.78717">
        <ele>1783.4</ele>
        <time>2013-08-25T06:25:14Z</time>
      </trkpt>
      <trkpt lat="46.20791" lon="6.78714">
        <ele>1782.4</ele>
        <time>2013-08-25T06:25:23Z</time>
      </trkpt>
      <trkpt lat="46.20782" lon="6.78707">
        <ele>1779.1</ele>
        <time>2013-08-25T06:25:32Z</time>
      </trkpt>
      <trkpt lat="46.20781" lon="6.78708">
        <ele>1780</ele>
        <time>2013-08-25T06:25:41Z</time>
      </trkpt>
      <trkpt lat="46.2077" lon="6.787">
        <ele>1777.1</ele>
        <time>2013-08-25T06:25:55Z</time>
      </trkpt>
      <trkpt lat="46.20767" lon="6.78698">
        <ele>1776.2</ele>
        <time>2013-08-25T06:25:57Z</time>
      </trkpt>
      <trkpt lat="46.20766" lon="6.78697">
        <ele>1775.7</ele>
        <time>2013-08-25T06:25:58Z</time>
      </trkpt>
      <trkpt lat="46.20774" lon="6.78686">
        <ele>1771.9</ele>
        <time>2013-08-25T06:26:03Z</time>
      </trkpt>
      <trkpt lat="46.20782" lon="6.78684">
        <ele>1770.4</ele>
        <time>2013-08-25T06:26:05Z</time>
      </trkpt>
      <trkpt lat="46.20795" lon="6.78683">
        <ele>1768</ele>
        <time>2013-08-25T06:26:10Z</time>
      </trkpt>
      <trkpt lat="46.20795" lon="6.78677">
        <ele>1766.1</ele>
        <time>2013-08-25T06:26:13Z</time>
      </trkpt>
      <trkpt lat="46.20798" lon="6.78668">
        <ele>1762.7</ele>
        <time>2013-08-25T06:26:18Z</time>
      </trkpt>
      <trkpt lat="46.20799" lon="6.78667">
        <ele>1762.7</ele>
        <time>2013-08-25T06:26:19Z</time>
      </trkpt>
      <trkpt lat="46.20799" lon="6.78665">
        <ele>1762.2</ele>
        <time>2013-08-25T06:26:21Z</time>
      </trkpt>
      <trkpt lat="46.20799" lon="6.78661">
        <ele>1760.8</ele>
        <time>2013-08-25T06:26:23Z</time>
      </trkpt>
      <trkpt lat="46.20793" lon="6.78661">
        <ele>1758.4</ele>
        <time>2013-08-25T06:26:33Z</time>
      </trkpt>
      <trkpt lat="46.20793" lon="6.78656">
        <ele>1756.5</ele>
        <time>2013-08-25T06:26:36Z</time>
      </trkpt>
      <trkpt lat="46.20797" lon="6.78649">
        <ele>1754.1</ele>
        <time>2013-08-25T06:26:40Z</time>
      </trkpt>
      <trkpt lat="46.208" lon="6.78648">
        <ele>1755</ele>
        <time>2013-08-25T06:26:52Z</time>
      </trkpt>
      <trkpt lat="46.208" lon="6.78647">
        <ele>1754.5</ele>
        <time>2013-08-25T06:27:09Z</time>
      </trkpt>
      <trkpt lat="46.20803" lon="6.78647">
        <ele>1754.5</ele>
        <time>2013-08-25T06:27:30Z</time>
      </trkpt>
      <trkpt lat="46.20817" lon="6.78635">
        <ele>1751.2</ele>
        <time>2013-08-25T06:27:36Z</time>
      </trkpt>
      <trkpt lat="46.2082" lon="6.78634">
        <ele>1750.2</ele>
        <time>2013-08-25T06:27:37Z</time>
      </trkpt>
      <trkpt lat="46.20825" lon="6.78634">
        <ele>1749.7</ele>
        <time>2013-08-25T06:27:39Z</time>
      </trkpt>
      <trkpt lat="46.20828" lon="6.78635">
        <ele>1747.3</ele>
        <time>2013-08-25T06:27:42Z</time>
      </trkpt>
      <trkpt lat="46.20831" lon="6.7863">
        <ele>1746.9</ele>
        <time>2013-08-25T06:27:55Z</time>
      </trkpt>
      <trkpt lat="46.20831" lon="6.7863">
        <ele>1746.9</ele>
        <time>2013-08-25T06:27:56Z</time>
      </trkpt>
      <trkpt lat="46.20832" lon="6.78627">
        <ele>1745.4</ele>
        <time>2013-08-25T06:28:10Z</time>
      </trkpt>
      <trkpt lat="46.20832" lon="6.78626">
        <ele>1746.4</ele>
        <time>2013-08-25T06:28:14Z</time>
      </trkpt>
      <trkpt lat="46.20843" lon="6.7861">
        <ele>1744</ele>
        <time>2013-08-25T06:28:29Z</time>
      </trkpt>
      <trkpt lat="46.20851" lon="6.78602">
        <ele>1740.1</ele>
        <time>2013-08-25T06:28:32Z</time>
      </trkpt>
      <trkpt lat="46.20853" lon="6.786">
        <ele>1740.6</ele>
        <time>2013-08-25T06:28:33Z</time>
      </trkpt>
      <trkpt lat="46.20846" lon="6.7859">
        <ele>1736.3</ele>
        <time>2013-08-25T06:28:38Z</time>
      </trkpt>
      <trkpt lat="46.20834" lon="6.7859">
        <ele>1732.9</ele>
        <time>2013-08-25T06:28:42Z</time>
      </trkpt>
      <trkpt lat="46.20819" lon="6.78591">
        <ele>1731</ele>
        <time>2013-08-25T06:28:48Z</time>
      </trkpt>
      <trkpt lat="46.20807" lon="6.78586">
        <ele>1728.6</ele>
        <time>2013-08-25T06:28:52Z</time>
      </trkpt>
      <trkpt lat="46.20793" lon="6.78582">
        <ele>1724.7</ele>
        <time>2013-08-25T06:28:56Z</time>
      </trkpt>
      <trkpt lat="46.20786" lon="6.78582">
        <ele>1723.8</ele>
        <time>2013-08-25T06:28:58Z</time>
      </trkpt>
      <trkpt lat="46.20783" lon="6.78582">
        <ele>1724.3</ele>
        <time>2013-08-25T06:28:59Z</time>
      </trkpt>
      <trkpt lat="46.20773" lon="6.78574">
        <ele>1721.4</ele>
        <time>2013-08-25T06:29:03Z</time>
      </trkpt>
      <trkpt lat="46.20773" lon="6.78568">
        <ele>1719.5</ele>
        <time>2013-08-25T06:29:15Z</time>
      </trkpt>
      <trkpt lat="46.20775" lon="6.78569">
        <ele>1719.9</ele>
        <time>2013-08-25T06:29:21Z</time>
      </trkpt>
      <trkpt lat="46.20783" lon="6.78565">
        <ele>1717.1</ele>
        <time>2013-08-25T06:29:25Z</time>
      </trkpt>
      <trkpt lat="46.20798" lon="6.78564">
        <ele>1717.1</ele>
        <time>2013-08-25T06:29:30Z</time>
      </trkpt>
      <trkpt lat="46.20801" lon="6.78563">
        <ele>1716.6</ele>
        <time>2013-08-25T06:29:41Z</time>
      </trkpt>
      <trkpt lat="46.20802" lon="6.78563">
        <ele>1716.6</ele>
        <time>2013-08-25T06:29:46Z</time>
      </trkpt>
      <trkpt lat="46.20805" lon="6.78562">
        <ele>1715.6</ele>
        <time>2013-08-25T06:29:50Z</time>
      </trkpt>
      <trkpt lat="46.20811" lon="6.78561">
        <ele>1716.6</ele>
        <time>2013-08-25T06:29:57Z</time>
      </trkpt>
      <trkpt lat="46.20818" lon="6.78562">
        <ele>1716.6</ele>
        <time>2013-08-25T06:30:03Z</time>
      </trkpt>
      <trkpt lat="46.20821" lon="6.78559">
        <ele>1715.1</ele>
        <time>2013-08-25T06:30:06Z</time>
      </trkpt>
      <trkpt lat="46.20821" lon="6.78557">
        <ele>1715.6</ele>
        <time>2013-08-25T06:30:14Z</time>
      </trkpt>
      <trkpt lat="46.20836" lon="6.78548">
        <ele>1715.1</ele>
        <time>2013-08-25T06:30:24Z</time>
      </trkpt>
      <trkpt lat="46.20839" lon="6.78545">
        <ele>1713.7</ele>
        <time>2013-08-25T06:30:26Z</time>
      </trkpt>
      <trkpt lat="46.20845" lon="6.78538">
        <ele>1712.3</ele>
        <time>2013-08-25T06:30:30Z</time>
      </trkpt>
      <trkpt lat="46.20846" lon="6.78534">
        <ele>1709.4</ele>
        <time>2013-08-25T06:30:32Z</time>
      </trkpt>
      <trkpt lat="46.20839" lon="6.78527">
        <ele>1706.5</ele>
        <time>2013-08-25T06:30:37Z</time>
      </trkpt>
      <trkpt lat="46.20837" lon="6.78527">
        <ele>1705</ele>
        <time>2013-08-25T06:30:38Z</time>
      </trkpt>
      <trkpt lat="46.20828" lon="6.78527">
        <ele>1702.6</ele>
        <time>2013-08-25T06:30:41Z</time>
      </trkpt>
      <trkpt lat="46.20826" lon="6.78517">
        <ele>1700.2</ele>
        <time>2013-08-25T06:30:47Z</time>
      </trkpt>
      <trkpt lat="46.20828" lon="6.78518">
        <ele>1700.7</ele>
        <time>2013-08-25T06:31:00Z</time>
      </trkpt>
      <trkpt lat="46.20835" lon="6.78508">
        <ele>1697.3</ele>
        <time>2013-08-25T06:31:08Z</time>
      </trkpt>
      <trkpt lat="46.20836" lon="6.78507">
        <ele>1696.4</ele>
        <time>2013-08-25T06:31:09Z</time>
      </trkpt>
      <trkpt lat="46.20843" lon="6.785">
        <ele>1693.5</ele>
        <time>2013-08-25T06:31:16Z</time>
      </trkpt>
      <trkpt lat="46.20845" lon="6.78497">
        <ele>1692.5</ele>
        <time>2013-08-25T06:31:21Z</time>
      </trkpt>
      <trkpt lat="46.20848" lon="6.78496">
        <ele>1692.5</ele>
        <time>2013-08-25T06:31:37Z</time>
      </trkpt>
      <trkpt lat="46.20847" lon="6.78494">
        <ele>1693.5</ele>
        <time>2013-08-25T06:31:42Z</time>
      </trkpt>
      <trkpt lat="46.20845" lon="6.78488">
        <ele>1691.1</ele>
        <time>2013-08-25T06:31:45Z</time>
      </trkpt>
      <trkpt lat="46.20841" lon="6.78489">
        <ele>1690.6</ele>
        <time>2013-08-25T06:31:56Z</time>
      </trkpt>
      <trkpt lat="46.20841" lon="6.78489">
        <ele>1689.2</ele>
        <time>2013-08-25T06:31:59Z</time>
      </trkpt>
      <trkpt lat="46.20836" lon="6.78487">
        <ele>1688.2</ele>
        <time>2013-08-25T06:32:03Z</time>
      </trkpt>
      <trkpt lat="46.20823" lon="6.78478">
        <ele>1683.9</ele>
        <time>2013-08-25T06:32:08Z</time>
      </trkpt>
      <trkpt lat="46.20817" lon="6.78476">
        <ele>1681.5</ele>
        <time>2013-08-25T06:32:10Z</time>
      </trkpt>
      <trkpt lat="46.20808" lon="6.78478">
        <ele>1679.1</ele>
        <time>2013-08-25T06:32:14Z</time>
      </trkpt>
      <trkpt lat="46.20803" lon="6.78478">
        <ele>1677.6</ele>
        <time>2013-08-25T06:32:16Z</time>
      </trkpt>
      <trkpt lat="46.208" lon="6.78478">
        <ele>1676.2</ele>
        <time>2013-08-25T06:32:18Z</time>
      </trkpt>
      <trkpt lat="46.20797" lon="6.78478">
        <ele>1674.8</ele>
        <time>2013-08-25T06:32:28Z</time>
      </trkpt>
      <trkpt lat="46.20798" lon="6.78475">
        <ele>1673.3</ele>
        <time>2013-08-25T06:32:32Z</time>
      </trkpt>
      <trkpt lat="46.20801" lon="6.78475">
        <ele>1672.4</ele>
        <time>2013-08-25T06:32:34Z</time>
      </trkpt>
      <trkpt lat="46.20802" lon="6.78472">
        <ele>1673.8</ele>
        <time>2013-08-25T06:32:52Z</time>
      </trkpt>
      <trkpt lat="46.20807" lon="6.78468">
        <ele>1672.4</ele>
        <time>2013-08-25T06:33:04Z</time>
      </trkpt>
      <trkpt lat="46.2081" lon="6.78465">
        <ele>1671.4</ele>
        <time>2013-08-25T06:33:09Z</time>
      </trkpt>
      <trkpt lat="46.2081" lon="6.7846">
        <ele>1670</ele>
        <time>2013-08-25T06:33:12Z</time>
      </trkpt>
      <trkpt lat="46.20809" lon="6.78461">
        <ele>1669</ele>
        <time>2013-08-25T06:33:14Z</time>
      </trkpt>
      <trkpt lat="46.20806" lon="6.78461">
        <ele>1668</ele>
        <time>2013-08-25T06:33:17Z</time>
      </trkpt>
      <trkpt lat="46.20803" lon="6.78461">
        <ele>1666.6</ele>
        <time>2013-08-25T06:33:20Z</time>
      </trkpt>
      <trkpt lat="46.20803" lon="6.78461">
        <ele>1666.6</ele>
        <time>2013-08-25T06:33:23Z</time>
      </trkpt>
      <trkpt lat="46.20801" lon="6.78459">
        <ele>1666.6</ele>
        <time>2013-08-25T06:33:25Z</time>
      </trkpt>
      <trkpt lat="46.20801" lon="6.78454">
        <ele>1664.2</ele>
        <time>2013-08-25T06:33:38Z</time>
      </trkpt>
      <trkpt lat="46.20805" lon="6.7845">
        <ele>1662.7</ele>
        <time>2013-08-25T06:33:49Z</time>
      </trkpt>
      <trkpt lat="46.20806" lon="6.78451">
        <ele>1662.3</ele>
        <time>2013-08-25T06:33:53Z</time>
      </trkpt>
      <trkpt lat="46.20801" lon="6.78444">
        <ele>1659.4</ele>
        <time>2013-08-25T06:34:01Z</time>
      </trkpt>
      <trkpt lat="46.208" lon="6.78444">
        <ele>1658.9</ele>
        <time>2013-08-25T06:34:02Z</time>
      </trkpt>
      <trkpt lat="46.20793" lon="6.78443">
        <ele>1656.5</ele>
        <time>2013-08-25T06:34:09Z</time>
      </trkpt>
      <trkpt lat="46.20789" lon="6.78441">
        <ele>1655.5</ele>
        <time>2013-08-25T06:34:14Z</time>
      </trkpt>
      <trkpt lat="46.20783" lon="6.78437">
        <ele>1653.1</ele>
        <time>2013-08-25T06:34:22Z</time>
      </trkpt>
      <trkpt lat="46.20781" lon="6.78438">
        <ele>1653.1</ele>
        <time>2013-08-25T06:34:24Z</time>
      </trkpt>
      <trkpt lat="46.20777" lon="6.78436">
        <ele>1651.7</ele>
        <time>2013-08-25T06:34:27Z</time>
      </trkpt>
      <trkpt lat="46.20775" lon="6.78428">
        <ele>1649.8</ele>
        <time>2013-08-25T06:34:36Z</time>
      </trkpt>
      <trkpt lat="46.20777" lon="6.78424">
        <ele>1648.8</ele>
        <time>2013-08-25T06:34:40Z</time>
      </trkpt>
      <trkpt lat="46.20785" lon="6.78416">
        <ele>1645.4</ele>
        <time>2013-08-25T06:34:52Z</time>
      </trkpt>
      <trkpt lat="46.2079" lon="6.78414">
        <ele>1644</ele>
        <time>2013-08-25T06:35:01Z</time>
      </trkpt>
      <trkpt lat="46.2079" lon="6.78408">
        <ele>1642.1</ele>
        <time>2013-08-25T06:35:06Z</time>
      </trkpt>
      <trkpt lat="46.20789" lon="6.78407">
        <ele>1642.1</ele>
        <time>2013-08-25T06:35:08Z</time>
      </trkpt>
      <trkpt lat="46.20789" lon="6.78402">
        <ele>1640.6</ele>
        <time>2013-08-25T06:35:11Z</time>
      </trkpt>
      <trkpt lat="46.20788" lon="6.78402">
        <ele>1641.1</ele>
        <time>2013-08-25T06:35:12Z</time>
      </trkpt>
      <trkpt lat="46.20785" lon="6.784">
        <ele>1640.2</ele>
        <time>2013-08-25T06:35:16Z</time>
      </trkpt>
      <trkpt lat="46.20778" lon="6.784">
        <ele>1638.2</ele>
        <time>2013-08-25T06:35:22Z</time>
      </trkpt>
      <trkpt lat="46.20771" lon="6.784">
        <ele>1635.8</ele>
        <time>2013-08-25T06:35:29Z</time>
      </trkpt>
      <trkpt lat="46.20763" lon="6.78401">
        <ele>1634.4</ele>
        <time>2013-08-25T06:35:44Z</time>
      </trkpt>
      <trkpt lat="46.2076" lon="6.78399">
        <ele>1633.9</ele>
        <time>2013-08-25T06:35:59Z</time>
      </trkpt>
      <trkpt lat="46.20753" lon="6.78401">
        <ele>1632.5</ele>
        <time>2013-08-25T06:36:04Z</time>
      </trkpt>
      <trkpt lat="46.20749" lon="6.78387">
        <ele>1629.1</ele>
        <time>2013-08-25T06:36:08Z</time>
      </trkpt>
      <trkpt lat="46.20758" lon="6.78376">
        <ele>1625.3</ele>
        <time>2013-08-25T06:36:11Z</time>
      </trkpt>
      <trkpt lat="46.20772" lon="6.78371">
        <ele>1622.8</ele>
        <time>2013-08-25T06:36:18Z</time>
      </trkpt>
      <trkpt lat="46.20775" lon="6.78369">
        <ele>1621.4</ele>
        <time>2013-08-25T06:36:21Z</time>
      </trkpt>
      <trkpt lat="46.2078" lon="6.78366">
        <ele>1621.4</ele>
        <time>2013-08-25T06:36:31Z</time>
      </trkpt>
      <trkpt lat="46.20781" lon="6.78365">
        <ele>1620.4</ele>
        <time>2013-08-25T06:36:33Z</time>
      </trkpt>
      <trkpt lat="46.20784" lon="6.78348">
        <ele>1617.6</ele>
        <time>2013-08-25T06:36:40Z</time>
      </trkpt>
      <trkpt lat="46.20793" lon="6.78347">
        <ele>1614.7</ele>
        <time>2013-08-25T06:36:44Z</time>
      </trkpt>
      <trkpt lat="46.20805" lon="6.78338">
        <ele>1610.4</ele>
        <time>2013-08-25T06:36:52Z</time>
      </trkpt>
      <trkpt lat="46.20814" lon="6.78339">
        <ele>1607.9</ele>
        <time>2013-08-25T06:37:01Z</time>
      </trkpt>
      <trkpt lat="46.20819" lon="6.78337">
        <ele>1607.5</ele>
        <time>2013-08-25T06:37:11Z</time>
      </trkpt>
      <trkpt lat="46.20827" lon="6.78338">
        <ele>1605.5</ele>
        <time>2013-08-25T06:37:16Z</time>
      </trkpt>
      <trkpt lat="46.20835" lon="6.78336">
        <ele>1605.5</ele>
        <time>2013-08-25T06:37:22Z</time>
      </trkpt>
      <trkpt lat="46.20842" lon="6.78329">
        <ele>1604.6</ele>
        <time>2013-08-25T06:37:26Z</time>
      </trkpt>
      <trkpt lat="46.2085" lon="6.78316">
        <ele>1601.7</ele>
        <time>2013-08-25T06:37:31Z</time>
      </trkpt>
      <trkpt lat="46.20851" lon="6.78311">
        <ele>1600.7</ele>
        <time>2013-08-25T06:37:44Z</time>
      </trkpt>
      <trkpt lat="46.20851" lon="6.78303">
        <ele>1597.9</ele>
        <time>2013-08-25T06:38:00Z</time>
      </trkpt>
      <trkpt lat="46.20855" lon="6.78307">
        <ele>1597.4</ele>
        <time>2013-08-25T06:38:16Z</time>
      </trkpt>
      <trkpt lat="46.20852" lon="6.78305">
        <ele>1597.4</ele>
        <time>2013-08-25T06:38:46Z</time>
      </trkpt>
      <trkpt lat="46.20847" lon="6.78295">
        <ele>1595</ele>
        <time>2013-08-25T06:38:52Z</time>
      </trkpt>
      <trkpt lat="46.20846" lon="6.78293">
        <ele>1595</ele>
        <time>2013-08-25T06:38:53Z</time>
      </trkpt>
      <trkpt lat="46.20841" lon="6.78279">
        <ele>1593</ele>
        <time>2013-08-25T06:39:06Z</time>
      </trkpt>
      <trkpt lat="46.20841" lon="6.78279">
        <ele>1592.6</ele>
        <time>2013-08-25T06:39:07Z</time>
      </trkpt>
      <trkpt lat="46.20834" lon="6.78275">
        <ele>1590.6</ele>
        <time>2013-08-25T06:39:12Z</time>
      </trkpt>
      <trkpt lat="46.20827" lon="6.78272">
        <ele>1587.8</ele>
        <time>2013-08-25T06:39:15Z</time>
      </trkpt>
      <trkpt lat="46.20827" lon="6.78243">
        <ele>1584.4</ele>
        <time>2013-08-25T06:39:21Z</time>
      </trkpt>
      <trkpt lat="46.20815" lon="6.78251">
        <ele>1580.5</ele>
        <time>2013-08-25T06:39:27Z</time>
      </trkpt>
      <trkpt lat="46.20812" lon="6.78255">
        <ele>1581</ele>
        <time>2013-08-25T06:39:28Z</time>
      </trkpt>
      <trkpt lat="46.20808" lon="6.78243">
        <ele>1577.7</ele>
        <time>2013-08-25T06:39:33Z</time>
      </trkpt>
      <trkpt lat="46.20799" lon="6.78237">
        <ele>1574.3</ele>
        <time>2013-08-25T06:39:37Z</time>
      </trkpt>
      <trkpt lat="46.20798" lon="6.78219">
        <ele>1570.5</ele>
        <time>2013-08-25T06:39:41Z</time>
      </trkpt>
      <trkpt lat="46.20788" lon="6.78217">
        <ele>1568.5</ele>
        <time>2013-08-25T06:39:44Z</time>
      </trkpt>
      <trkpt lat="46.20782" lon="6.7822">
        <ele>1566.6</ele>
        <time>2013-08-25T06:39:47Z</time>
      </trkpt>
      <trkpt lat="46.20776" lon="6.78222">
        <ele>1565.2</ele>
        <time>2013-08-25T06:39:50Z</time>
      </trkpt>
      <trkpt lat="46.20773" lon="6.78222">
        <ele>1564.7</ele>
        <time>2013-08-25T06:39:51Z</time>
      </trkpt>
      <trkpt lat="46.20763" lon="6.78202">
        <ele>1558.9</ele>
        <time>2013-08-25T06:39:56Z</time>
      </trkpt>
      <trkpt lat="46.20759" lon="6.78179">
        <ele>1555.1</ele>
        <time>2013-08-25T06:40:01Z</time>
      </trkpt>
      <trkpt lat="46.20753" lon="6.78158">
        <ele>1552.7</ele>
        <time>2013-08-25T06:40:05Z</time>
      </trkpt>
      <trkpt lat="46.20753" lon="6.78144">
        <ele>1550.7</ele>
        <time>2013-08-25T06:40:08Z</time>
      </trkpt>
      <trkpt lat="46.20737" lon="6.7814">
        <ele>1547.4</ele>
        <time>2013-08-25T06:40:13Z</time>
      </trkpt>
      <trkpt lat="46.20729" lon="6.78133">
        <ele>1544</ele>
        <time>2013-08-25T06:40:18Z</time>
      </trkpt>
      <trkpt lat="46.20718" lon="6.78127">
        <ele>1540.7</ele>
        <time>2013-08-25T06:40:22Z</time>
      </trkpt>
      <trkpt lat="46.20717" lon="6.78126">
        <ele>1540.2</ele>
        <time>2013-08-25T06:40:23Z</time>
      </trkpt>
      <trkpt lat="46.20716" lon="6.78122">
        <ele>1538.7</ele>
        <time>2013-08-25T06:40:32Z</time>
      </trkpt>
      <trkpt lat="46.2071" lon="6.78111">
        <ele>1536.8</ele>
        <time>2013-08-25T06:40:36Z</time>
      </trkpt>
      <trkpt lat="46.20704" lon="6.78103">
        <ele>1534.9</ele>
        <time>2013-08-25T06:40:39Z</time>
      </trkpt>
      <trkpt lat="46.20698" lon="6.78103">
        <ele>1533.9</ele>
        <time>2013-08-25T06:40:50Z</time>
      </trkpt>
      <trkpt lat="46.20699" lon="6.78103">
        <ele>1533.4</ele>
        <time>2013-08-25T06:41:12Z</time>
      </trkpt>
      <trkpt lat="46.20699" lon="6.78103">
        <ele>1534.4</ele>
        <time>2013-08-25T06:41:17Z</time>
      </trkpt>
      <trkpt lat="46.20698" lon="6.78098">
        <ele>1533.9</ele>
        <time>2013-08-25T06:41:22Z</time>
      </trkpt>
      <trkpt lat="46.20694" lon="6.78063">
        <ele>1530.6</ele>
        <time>2013-08-25T06:41:30Z</time>
      </trkpt>
      <trkpt lat="46.20698" lon="6.78043">
        <ele>1529.6</ele>
        <time>2013-08-25T06:41:35Z</time>
      </trkpt>
      <trkpt lat="46.20708" lon="6.78021">
        <ele>1527.7</ele>
        <time>2013-08-25T06:41:41Z</time>
      </trkpt>
      <trkpt lat="46.20715" lon="6.78004">
        <ele>1525.8</ele>
        <time>2013-08-25T06:41:44Z</time>
      </trkpt>
      <trkpt lat="46.20716" lon="6.77997">
        <ele>1524.8</ele>
        <time>2013-08-25T06:41:45Z</time>
      </trkpt>
      <trkpt lat="46.20718" lon="6.77991">
        <ele>1524.3</ele>
        <time>2013-08-25T06:41:46Z</time>
      </trkpt>
      <trkpt lat="46.20722" lon="6.77986">
        <ele>1523.4</ele>
        <time>2013-08-25T06:41:47Z</time>
      </trkpt>
      <trkpt lat="46.20726" lon="6.77982">
        <ele>1522.4</ele>
        <time>2013-08-25T06:41:48Z</time>
      </trkpt>
      <trkpt lat="46.20729" lon="6.77977">
        <ele>1521.9</ele>
        <time>2013-08-25T06:41:49Z</time>
      </trkpt>
      <trkpt lat="46.20732" lon="6.77971">
        <ele>1520.9</ele>
        <time>2013-08-25T06:41:50Z</time>
      </trkpt>
      <trkpt lat="46.20734" lon="6.77965">
        <ele>1520.5</ele>
        <time>2013-08-25T06:41:51Z</time>
      </trkpt>
      <trkpt lat="46.20744" lon="6.77937">
        <ele>1518.5</ele>
        <time>2013-08-25T06:41:55Z</time>
      </trkpt>
      <trkpt lat="46.20745" lon="6.7793">
        <ele>1517.6</ele>
        <time>2013-08-25T06:41:56Z</time>
      </trkpt>
      <trkpt lat="46.20747" lon="6.77923">
        <ele>1517.6</ele>
        <time>2013-08-25T06:41:57Z</time>
      </trkpt>
      <trkpt lat="46.20748" lon="6.77916">
        <ele>1516.6</ele>
        <time>2013-08-25T06:41:58Z</time>
      </trkpt>
      <trkpt lat="46.20749" lon="6.77909">
        <ele>1516.1</ele>
        <time>2013-08-25T06:41:59Z</time>
      </trkpt>
      <trkpt lat="46.20749" lon="6.77898">
        <ele>1514.7</ele>
        <time>2013-08-25T06:42:02Z</time>
      </trkpt>
      <trkpt lat="46.20749" lon="6.77895">
        <ele>1514.7</ele>
        <time>2013-08-25T06:42:03Z</time>
      </trkpt>
      <trkpt lat="46.20757" lon="6.7786">
        <ele>1511.8</ele>
        <time>2013-08-25T06:42:10Z</time>
      </trkpt>
      <trkpt lat="46.20759" lon="6.77851">
        <ele>1511.8</ele>
        <time>2013-08-25T06:42:11Z</time>
      </trkpt>
      <trkpt lat="46.20767" lon="6.77812">
        <ele>1509.9</ele>
        <time>2013-08-25T06:42:15Z</time>
      </trkpt>
      <trkpt lat="46.20781" lon="6.77764">
        <ele>1507</ele>
        <time>2013-08-25T06:42:20Z</time>
      </trkpt>
      <trkpt lat="46.20795" lon="6.77728">
        <ele>1505.6</ele>
        <time>2013-08-25T06:42:24Z</time>
      </trkpt>
      <trkpt lat="46.20812" lon="6.77677">
        <ele>1502.7</ele>
        <time>2013-08-25T06:42:30Z</time>
      </trkpt>
      <trkpt lat="46.20835" lon="6.7762">
        <ele>1501.2</ele>
        <time>2013-08-25T06:42:38Z</time>
      </trkpt>
      <trkpt lat="46.20836" lon="6.77613">
        <ele>1501.2</ele>
        <time>2013-08-25T06:42:39Z</time>
      </trkpt>
      <trkpt lat="46.20837" lon="6.77608">
        <ele>1500.8</ele>
        <time>2013-08-25T06:42:40Z</time>
      </trkpt>
      <trkpt lat="46.20836" lon="6.77603">
        <ele>1500.3</ele>
        <time>2013-08-25T06:42:41Z</time>
      </trkpt>
      <trkpt lat="46.20834" lon="6.77598">
        <ele>1500.3</ele>
        <time>2013-08-25T06:42:42Z</time>
      </trkpt>
      <trkpt lat="46.20831" lon="6.77596">
        <ele>1500.3</ele>
        <time>2013-08-25T06:42:43Z</time>
      </trkpt>
      <trkpt lat="46.20829" lon="6.77594">
        <ele>1500.8</ele>
        <time>2013-08-25T06:42:44Z</time>
      </trkpt>
      <trkpt lat="46.20825" lon="6.77594">
        <ele>1500.8</ele>
        <time>2013-08-25T06:42:45Z</time>
      </trkpt>
      <trkpt lat="46.20822" lon="6.77594">
        <ele>1500.3</ele>
        <time>2013-08-25T06:42:46Z</time>
      </trkpt>
      <trkpt lat="46.2082" lon="6.77594">
        <ele>1500.3</ele>
        <time>2013-08-25T06:42:47Z</time>
      </trkpt>
      <trkpt lat="46.20818" lon="6.77593">
        <ele>1499.8</ele>
        <time>2013-08-25T06:42:49Z</time>
      </trkpt>
      <trkpt lat="46.20816" lon="6.77592">
        <ele>1499.8</ele>
        <time>2013-08-25T06:42:50Z</time>
      </trkpt>
      <trkpt lat="46.20812" lon="6.77584">
        <ele>1499.3</ele>
        <time>2013-08-25T06:42:59Z</time>
      </trkpt>
      <trkpt lat="46.20814" lon="6.77581">
        <ele>1498.8</ele>
        <time>2013-08-25T06:43:14Z</time>
      </trkpt>
      <trkpt lat="46.20814" lon="6.7758">
        <ele>1498.4</ele>
        <time>2013-08-25T06:43:27Z</time>
      </trkpt>
      <trkpt lat="46.20812" lon="6.77582">
        <ele>1498.8</ele>
        <time>2013-08-25T06:43:52Z</time>
      </trkpt>
      <trkpt lat="46.20812" lon="6.77584">
        <ele>1494</ele>
        <time>2013-08-25T06:44:04Z</time>
      </trkpt>
      <trkpt lat="46.20812" lon="6.77584">
        <ele>1502.2</ele>
        <time>2013-08-25T06:44:05Z</time>
      </trkpt>
      <trkpt lat="46.20812" lon="6.77584">
        <ele>1497.4</ele>
        <time>2013-08-25T06:44:06Z</time>
      </trkpt>
      <trkpt lat="46.20812" lon="6.77585">
        <ele>1501.7</ele>
        <time>2013-08-25T06:44:11Z</time>
      </trkpt>
      <trkpt lat="46.20812" lon="6.77585">
        <ele>1498.4</ele>
        <time>2013-08-25T06:44:12Z</time>
      </trkpt>
      <trkpt lat="46.20813" lon="6.77586">
        <ele>1499.8</ele>
        <time>2013-08-25T06:44:36Z</time>
      </trkpt>
      <trkpt lat="46.20813" lon="6.77581">
        <ele>1499.3</ele>
        <time>2013-08-25T06:44:51Z</time>
      </trkpt>
      <trkpt lat="46.20812" lon="6.7758">
        <ele>1499.3</ele>
        <time>2013-08-25T06:45:06Z</time>
      </trkpt>
      <trkpt lat="46.20814" lon="6.77586">
        <ele>1498.4</ele>
        <time>2013-08-25T06:45:15Z</time>
      </trkpt>
      <trkpt lat="46.20813" lon="6.77591">
        <ele>1498.8</ele>
        <time>2013-08-25T06:45:48Z</time>
      </trkpt>
      <trkpt lat="46.20813" lon="6.77589">
        <ele>1499.3</ele>
        <time>2013-08-25T06:46:32Z</time>
      </trkpt>
      <trkpt lat="46.20814" lon="6.77594">
        <ele>1500.3</ele>
        <time>2013-08-25T06:46:47Z</time>
      </trkpt>
      <trkpt lat="46.2082" lon="6.77598">
        <ele>1501.2</ele>
        <time>2013-08-25T06:47:03Z</time>
      </trkpt>
      <trkpt lat="46.20821" lon="6.77603">
        <ele>1500.8</ele>
        <time>2013-08-25T06:47:09Z</time>
      </trkpt>
      <trkpt lat="46.20843" lon="6.77598">
        <ele>1500.8</ele>
        <time>2013-08-25T06:47:24Z</time>
      </trkpt>
      <trkpt lat="46.20844" lon="6.77597">
        <ele>1501.2</ele>
        <time>2013-08-25T06:47:25Z</time>
      </trkpt>
      <trkpt lat="46.20854" lon="6.77562">
        <ele>1502.2</ele>
        <time>2013-08-25T06:47:40Z</time>
      </trkpt>
      <trkpt lat="46.20853" lon="6.77558">
        <ele>1503.2</ele>
        <time>2013-08-25T06:47:42Z</time>
      </trkpt>
      <trkpt lat="46.20851" lon="6.77557">
        <ele>1503.2</ele>
        <time>2013-08-25T06:47:43Z</time>
      </trkpt>
      <trkpt lat="46.2085" lon="6.77556">
        <ele>1503.2</ele>
        <time>2013-08-25T06:47:44Z</time>
      </trkpt>
      <trkpt lat="46.20848" lon="6.77557">
        <ele>1503.2</ele>
        <time>2013-08-25T06:47:45Z</time>
      </trkpt>
      <trkpt lat="46.20847" lon="6.77557">
        <ele>1502.7</ele>
        <time>2013-08-25T06:47:46Z</time>
      </trkpt>
      <trkpt lat="46.20813" lon="6.77562">
        <ele>1503.6</ele>
        <time>2013-08-25T06:48:01Z</time>
      </trkpt>
      <trkpt lat="46.20775" lon="6.77569">
        <ele>1506</ele>
        <time>2013-08-25T06:48:17Z</time>
      </trkpt>
      <trkpt lat="46.20742" lon="6.77588">
        <ele>1508.5</ele>
        <time>2013-08-25T06:48:33Z</time>
      </trkpt>
      <trkpt lat="46.2071" lon="6.77597">
        <ele>1510.4</ele>
        <time>2013-08-25T06:48:47Z</time>
      </trkpt>
      <trkpt lat="46.20676" lon="6.77604">
        <ele>1511.8</ele>
        <time>2013-08-25T06:49:02Z</time>
      </trkpt>
      <trkpt lat="46.20646" lon="6.77633">
        <ele>1514.7</ele>
        <time>2013-08-25T06:49:18Z</time>
      </trkpt>
      <trkpt lat="46.20623" lon="6.77634">
        <ele>1517.1</ele>
        <time>2013-08-25T06:49:31Z</time>
      </trkpt>
      <trkpt lat="46.20624" lon="6.77631">
        <ele>1517.1</ele>
        <time>2013-08-25T06:49:32Z</time>
      </trkpt>
      <trkpt lat="46.20625" lon="6.77629">
        <ele>1516.6</ele>
        <time>2013-08-25T06:49:33Z</time>
      </trkpt>
      <trkpt lat="46.20658" lon="6.776">
        <ele>1519</ele>
        <time>2013-08-25T06:49:48Z</time>
      </trkpt>
      <trkpt lat="46.20689" lon="6.77571">
        <ele>1520.9</ele>
        <time>2013-08-25T06:50:03Z</time>
      </trkpt>
      <trkpt lat="46.20712" lon="6.77559">
        <ele>1522.9</ele>
        <time>2013-08-25T06:50:13Z</time>
      </trkpt>
      <trkpt lat="46.2073" lon="6.77546">
        <ele>1523.8</ele>
        <time>2013-08-25T06:50:26Z</time>
      </trkpt>
      <trkpt lat="46.20731" lon="6.77543">
        <ele>1523.4</ele>
        <time>2013-08-25T06:50:44Z</time>
      </trkpt>
      <trkpt lat="46.2073" lon="6.77544">
        <ele>1523.8</ele>
        <time>2013-08-25T06:50:58Z</time>
      </trkpt>
      <trkpt lat="46.20748" lon="6.77535">
        <ele>1525.3</ele>
        <time>2013-08-25T06:51:10Z</time>
      </trkpt>
      <trkpt lat="46.20779" lon="6.7751">
        <ele>1527.7</ele>
        <time>2013-08-25T06:51:25Z</time>
      </trkpt>
      <trkpt lat="46.2082" lon="6.7747">
        <ele>1530.6</ele>
        <time>2013-08-25T06:51:44Z</time>
      </trkpt>
      <trkpt lat="46.20839" lon="6.77443">
        <ele>1532</ele>
        <time>2013-08-25T06:51:55Z</time>
      </trkpt>
      <trkpt lat="46.20847" lon="6.77415">
        <ele>1531.5</ele>
        <time>2013-08-25T06:52:04Z</time>
      </trkpt>
      <trkpt lat="46.20852" lon="6.77392">
        <ele>1533.9</ele>
        <time>2013-08-25T06:52:15Z</time>
      </trkpt>
      <trkpt lat="46.20852" lon="6.77329">
        <ele>1535.4</ele>
        <time>2013-08-25T06:52:28Z</time>
      </trkpt>
      <trkpt lat="46.20827" lon="6.77322">
        <ele>1536.8</ele>
        <time>2013-08-25T06:52:38Z</time>
      </trkpt>
      <trkpt lat="46.20801" lon="6.77317">
        <ele>1538.7</ele>
        <time>2013-08-25T06:52:49Z</time>
      </trkpt>
      <trkpt lat="46.208" lon="6.77307">
        <ele>1538.7</ele>
        <time>2013-08-25T06:52:52Z</time>
      </trkpt>
      <trkpt lat="46.20801" lon="6.77304">
        <ele>1539.2</ele>
        <time>2013-08-25T06:52:53Z</time>
      </trkpt>
      <trkpt lat="46.20801" lon="6.773">
        <ele>1539.7</ele>
        <time>2013-08-25T06:52:54Z</time>
      </trkpt>
      <trkpt lat="46.20802" lon="6.77295">
        <ele>1540.2</ele>
        <time>2013-08-25T06:52:55Z</time>
      </trkpt>
      <trkpt lat="46.20803" lon="6.77291">
        <ele>1539.7</ele>
        <time>2013-08-25T06:52:56Z</time>
      </trkpt>
      <trkpt lat="46.20806" lon="6.77233">
        <ele>1541.6</ele>
        <time>2013-08-25T06:53:10Z</time>
      </trkpt>
      <trkpt lat="46.20777" lon="6.77212">
        <ele>1542.6</ele>
        <time>2013-08-25T06:53:22Z</time>
      </trkpt>
      <trkpt lat="46.20737" lon="6.77192">
        <ele>1545.9</ele>
        <time>2013-08-25T06:53:37Z</time>
      </trkpt>
      <trkpt lat="46.20705" lon="6.77152">
        <ele>1548.3</ele>
        <time>2013-08-25T06:53:54Z</time>
      </trkpt>
      <trkpt lat="46.20702" lon="6.77112">
        <ele>1549.3</ele>
        <time>2013-08-25T06:54:05Z</time>
      </trkpt>
      <trkpt lat="46.2072" lon="6.77075">
        <ele>1552.7</ele>
        <time>2013-08-25T06:54:18Z</time>
      </trkpt>
      <trkpt lat="46.20727" lon="6.77059">
        <ele>1553.2</ele>
        <time>2013-08-25T06:54:23Z</time>
      </trkpt>
      <trkpt lat="46.20738" lon="6.77018">
        <ele>1554.6</ele>
        <time>2013-08-25T06:54:36Z</time>
      </trkpt>
      <trkpt lat="46.20738" lon="6.77004">
        <ele>1556</ele>
        <time>2013-08-25T06:54:39Z</time>
      </trkpt>
      <trkpt lat="46.20736" lon="6.76989">
        <ele>1556.5</ele>
        <time>2013-08-25T06:54:43Z</time>
      </trkpt>
      <trkpt lat="46.20736" lon="6.76934">
        <ele>1558.9</ele>
        <time>2013-08-25T06:54:57Z</time>
      </trkpt>
      <trkpt lat="46.20731" lon="6.76886">
        <ele>1561.3</ele>
        <time>2013-08-25T06:55:10Z</time>
      </trkpt>
      <trkpt lat="46.20729" lon="6.7687">
        <ele>1561.8</ele>
        <time>2013-08-25T06:55:14Z</time>
      </trkpt>
      <trkpt lat="46.20717" lon="6.76832">
        <ele>1563.2</ele>
        <time>2013-08-25T06:55:25Z</time>
      </trkpt>
      <trkpt lat="46.20693" lon="6.76799">
        <ele>1565.2</ele>
        <time>2013-08-25T06:55:38Z</time>
      </trkpt>
      <trkpt lat="46.20679" lon="6.76766">
        <ele>1566.1</ele>
        <time>2013-08-25T06:55:48Z</time>
      </trkpt>
      <trkpt lat="46.20677" lon="6.76721">
        <ele>1568.1</ele>
        <time>2013-08-25T06:56:01Z</time>
      </trkpt>
      <trkpt lat="46.20687" lon="6.76681">
        <ele>1571.4</ele>
        <time>2013-08-25T06:56:13Z</time>
      </trkpt>
      <trkpt lat="46.20703" lon="6.76646">
        <ele>1571.9</ele>
        <time>2013-08-25T06:56:25Z</time>
      </trkpt>
      <trkpt lat="46.2072" lon="6.76619">
        <ele>1574.3</ele>
        <time>2013-08-25T06:56:37Z</time>
      </trkpt>
      <trkpt lat="46.20741" lon="6.7656">
        <ele>1577.7</ele>
        <time>2013-08-25T06:56:50Z</time>
      </trkpt>
      <trkpt lat="46.20748" lon="6.76544">
        <ele>1578.1</ele>
        <time>2013-08-25T06:56:55Z</time>
      </trkpt>
      <trkpt lat="46.20759" lon="6.76506">
        <ele>1579.1</ele>
        <time>2013-08-25T06:57:06Z</time>
      </trkpt>
      <trkpt lat="46.20768" lon="6.7645">
        <ele>1581</ele>
        <time>2013-08-25T06:57:22Z</time>
      </trkpt>
      <trkpt lat="46.20755" lon="6.76409">
        <ele>1583.9</ele>
        <time>2013-08-25T06:57:36Z</time>
      </trkpt>
      <trkpt lat="46.20711" lon="6.76401">
        <ele>1585.4</ele>
        <time>2013-08-25T06:57:51Z</time>
      </trkpt>
      <trkpt lat="46.20664" lon="6.76394">
        <ele>1586.8</ele>
        <time>2013-08-25T06:58:06Z</time>
      </trkpt>
      <trkpt lat="46.20628" lon="6.76367">
        <ele>1587.8</ele>
        <time>2013-08-25T06:58:19Z</time>
      </trkpt>
      <trkpt lat="46.20626" lon="6.76357">
        <ele>1587.8</ele>
        <time>2013-08-25T06:58:21Z</time>
      </trkpt>
      <trkpt lat="46.20625" lon="6.76351">
        <ele>1588.2</ele>
        <time>2013-08-25T06:58:22Z</time>
      </trkpt>
      <trkpt lat="46.20626" lon="6.76344">
        <ele>1588.2</ele>
        <time>2013-08-25T06:58:23Z</time>
      </trkpt>
      <trkpt lat="46.20627" lon="6.76338">
        <ele>1588.7</ele>
        <time>2013-08-25T06:58:24Z</time>
      </trkpt>
      <trkpt lat="46.20629" lon="6.76333">
        <ele>1588.2</ele>
        <time>2013-08-25T06:58:25Z</time>
      </trkpt>
      <trkpt lat="46.2063" lon="6.76328">
        <ele>1588.7</ele>
        <time>2013-08-25T06:58:26Z</time>
      </trkpt>
      <trkpt lat="46.20629" lon="6.76276">
        <ele>1589.7</ele>
        <time>2013-08-25T06:58:37Z</time>
      </trkpt>
      <trkpt lat="46.20594" lon="6.76239">
        <ele>1590.6</ele>
        <time>2013-08-25T06:58:49Z</time>
      </trkpt>
      <trkpt lat="46.20602" lon="6.7619">
        <ele>1591.1</ele>
        <time>2013-08-25T06:58:59Z</time>
      </trkpt>
      <trkpt lat="46.20596" lon="6.76154">
        <ele>1591.6</ele>
        <time>2013-08-25T06:59:07Z</time>
      </trkpt>
      <trkpt lat="46.20575" lon="6.76169">
        <ele>1592.6</ele>
        <time>2013-08-25T06:59:16Z</time>
      </trkpt>
      <trkpt lat="46.20566" lon="6.76226">
        <ele>1595.5</ele>
        <time>2013-08-25T06:59:29Z</time>
      </trkpt>
      <trkpt lat="46.20557" lon="6.76248">
        <ele>1595.9</ele>
        <time>2013-08-25T06:59:35Z</time>
      </trkpt>
      <trkpt lat="46.20543" lon="6.76264">
        <ele>1598.3</ele>
        <time>2013-08-25T06:59:43Z</time>
      </trkpt>
      <trkpt lat="46.20538" lon="6.76268">
        <ele>1597.9</ele>
        <time>2013-08-25T06:59:46Z</time>
      </trkpt>
      <trkpt lat="46.20537" lon="6.76269">
        <ele>1598.3</ele>
        <time>2013-08-25T06:59:47Z</time>
      </trkpt>
      <trkpt lat="46.20536" lon="6.76271">
        <ele>1599.3</ele>
        <time>2013-08-25T06:59:48Z</time>
      </trkpt>
      <trkpt lat="46.20519" lon="6.76308">
        <ele>1601.2</ele>
        <time>2013-08-25T07:00:01Z</time>
      </trkpt>
      <trkpt lat="46.2051" lon="6.76334">
        <ele>1603.6</ele>
        <time>2013-08-25T07:00:11Z</time>
      </trkpt>
      <trkpt lat="46.20507" lon="6.76345">
        <ele>1605.1</ele>
        <time>2013-08-25T07:00:16Z</time>
      </trkpt>
      <trkpt lat="46.20505" lon="6.76374">
        <ele>1606</ele>
        <time>2013-08-25T07:00:26Z</time>
      </trkpt>
      <trkpt lat="46.20515" lon="6.76413">
        <ele>1609.9</ele>
        <time>2013-08-25T07:00:42Z</time>
      </trkpt>
      <trkpt lat="46.20508" lon="6.76426">
        <ele>1611.3</ele>
        <time>2013-08-25T07:00:48Z</time>
      </trkpt>
      <trkpt lat="46.20493" lon="6.7644">
        <ele>1612.8</ele>
        <time>2013-08-25T07:00:58Z</time>
      </trkpt>
      <trkpt lat="46.20479" lon="6.76446">
        <ele>1614.2</ele>
        <time>2013-08-25T07:01:04Z</time>
      </trkpt>
      <trkpt lat="46.20453" lon="6.76456">
        <ele>1617.1</ele>
        <time>2013-08-25T07:01:17Z</time>
      </trkpt>
      <trkpt lat="46.20443" lon="6.76459">
        <ele>1617.1</ele>
        <time>2013-08-25T07:01:22Z</time>
      </trkpt>
      <trkpt lat="46.20433" lon="6.76461">
        <ele>1618</ele>
        <time>2013-08-25T07:01:26Z</time>
      </trkpt>
      <trkpt lat="46.20402" lon="6.76463">
        <ele>1619.5</ele>
        <time>2013-08-25T07:01:40Z</time>
      </trkpt>
      <trkpt lat="46.20374" lon="6.76455">
        <ele>1622.8</ele>
        <time>2013-08-25T07:01:53Z</time>
      </trkpt>
      <trkpt lat="46.20343" lon="6.76441">
        <ele>1623.8</ele>
        <time>2013-08-25T07:02:08Z</time>
      </trkpt>
      <trkpt lat="46.20336" lon="6.76438">
        <ele>1625.7</ele>
        <time>2013-08-25T07:02:11Z</time>
      </trkpt>
      <trkpt lat="46.20317" lon="6.76441">
        <ele>1627.2</ele>
        <time>2013-08-25T07:02:20Z</time>
      </trkpt>
      <trkpt lat="46.20313" lon="6.76442">
        <ele>1625.7</ele>
        <time>2013-08-25T07:02:22Z</time>
      </trkpt>
      <trkpt lat="46.20307" lon="6.76443">
        <ele>1626.2</ele>
        <time>2013-08-25T07:02:25Z</time>
      </trkpt>
      <trkpt lat="46.20297" lon="6.76443">
        <ele>1629.6</ele>
        <time>2013-08-25T07:02:32Z</time>
      </trkpt>
      <trkpt lat="46.20268" lon="6.76473">
        <ele>1632</ele>
        <time>2013-08-25T07:02:48Z</time>
      </trkpt>
      <trkpt lat="46.20258" lon="6.76495">
        <ele>1632</ele>
        <time>2013-08-25T07:02:56Z</time>
      </trkpt>
      <trkpt lat="46.20249" lon="6.76493">
        <ele>1632.5</ele>
        <time>2013-08-25T07:03:00Z</time>
      </trkpt>
      <trkpt lat="46.20248" lon="6.76491">
        <ele>1633.9</ele>
        <time>2013-08-25T07:03:01Z</time>
      </trkpt>
      <trkpt lat="46.20246" lon="6.76487">
        <ele>1632.5</ele>
        <time>2013-08-25T07:03:02Z</time>
      </trkpt>
      <trkpt lat="46.20246" lon="6.76484">
        <ele>1634.4</ele>
        <time>2013-08-25T07:03:03Z</time>
      </trkpt>
      <trkpt lat="46.20246" lon="6.7648">
        <ele>1633.4</ele>
        <time>2013-08-25T07:03:04Z</time>
      </trkpt>
      <trkpt lat="46.20246" lon="6.76477">
        <ele>1633.9</ele>
        <time>2013-08-25T07:03:05Z</time>
      </trkpt>
      <trkpt lat="46.20247" lon="6.76474">
        <ele>1633.4</ele>
        <time>2013-08-25T07:03:06Z</time>
      </trkpt>
      <trkpt lat="46.20263" lon="6.76449">
        <ele>1636.3</ele>
        <time>2013-08-25T07:03:19Z</time>
      </trkpt>
      <trkpt lat="46.20268" lon="6.76402">
        <ele>1638.2</ele>
        <time>2013-08-25T07:03:33Z</time>
      </trkpt>
      <trkpt lat="46.20275" lon="6.76364">
        <ele>1640.2</ele>
        <time>2013-08-25T07:03:46Z</time>
      </trkpt>
      <trkpt lat="46.2028" lon="6.76343">
        <ele>1643</ele>
        <time>2013-08-25T07:03:53Z</time>
      </trkpt>
      <trkpt lat="46.20286" lon="6.76319">
        <ele>1643</ele>
        <time>2013-08-25T07:04:02Z</time>
      </trkpt>
      <trkpt lat="46.20288" lon="6.76304">
        <ele>1644</ele>
        <time>2013-08-25T07:04:07Z</time>
      </trkpt>
      <trkpt lat="46.20288" lon="6.76301">
        <ele>1645.9</ele>
        <time>2013-08-25T07:04:08Z</time>
      </trkpt>
      <trkpt lat="46.20292" lon="6.76281">
        <ele>1646.9</ele>
        <time>2013-08-25T07:04:15Z</time>
      </trkpt>
      <trkpt lat="46.20293" lon="6.76278">
        <ele>1646.4</ele>
        <time>2013-08-25T07:04:16Z</time>
      </trkpt>
      <trkpt lat="46.20311" lon="6.76255">
        <ele>1649.3</ele>
        <time>2013-08-25T07:04:28Z</time>
      </trkpt>
      <trkpt lat="46.20317" lon="6.7622">
        <ele>1651.7</ele>
        <time>2013-08-25T07:04:40Z</time>
      </trkpt>
      <trkpt lat="46.20322" lon="6.76179">
        <ele>1653.1</ele>
        <time>2013-08-25T07:04:53Z</time>
      </trkpt>
      <trkpt lat="46.20319" lon="6.76152">
        <ele>1654.6</ele>
        <time>2013-08-25T07:05:01Z</time>
      </trkpt>
      <trkpt lat="46.20318" lon="6.76149">
        <ele>1656</ele>
        <time>2013-08-25T07:05:02Z</time>
      </trkpt>
      <trkpt lat="46.20316" lon="6.76148">
        <ele>1656</ele>
        <time>2013-08-25T07:05:03Z</time>
      </trkpt>
      <trkpt lat="46.20314" lon="6.76148">
        <ele>1654.6</ele>
        <time>2013-08-25T07:05:04Z</time>
      </trkpt>
      <trkpt lat="46.20312" lon="6.76149">
        <ele>1656.5</ele>
        <time>2013-08-25T07:05:05Z</time>
      </trkpt>
      <trkpt lat="46.2031" lon="6.7615">
        <ele>1657</ele>
        <time>2013-08-25T07:05:06Z</time>
      </trkpt>
      <trkpt lat="46.20309" lon="6.76151">
        <ele>1656</ele>
        <time>2013-08-25T07:05:07Z</time>
      </trkpt>
      <trkpt lat="46.20308" lon="6.76152">
        <ele>1656</ele>
        <time>2013-08-25T07:05:08Z</time>
      </trkpt>
      <trkpt lat="46.20292" lon="6.76169">
        <ele>1657.9</ele>
        <time>2013-08-25T07:05:18Z</time>
      </trkpt>
      <trkpt lat="46.20267" lon="6.76192">
        <ele>1661.3</ele>
        <time>2013-08-25T07:05:31Z</time>
      </trkpt>
      <trkpt lat="46.20239" lon="6.76222">
        <ele>1663.7</ele>
        <time>2013-08-25T07:05:46Z</time>
      </trkpt>
      <trkpt lat="46.20217" lon="6.76243">
        <ele>1666.1</ele>
        <time>2013-08-25T07:05:58Z</time>
      </trkpt>
      <trkpt lat="46.20193" lon="6.76247">
        <ele>1669.5</ele>
        <time>2013-08-25T07:06:08Z</time>
      </trkpt>
      <trkpt lat="46.20161" lon="6.76243">
        <ele>1671.4</ele>
        <time>2013-08-25T07:06:23Z</time>
      </trkpt>
      <trkpt lat="46.20144" lon="6.76273">
        <ele>1674.8</ele>
        <time>2013-08-25T07:06:39Z</time>
      </trkpt>
      <trkpt lat="46.20151" lon="6.7632">
        <ele>1676.7</ele>
        <time>2013-08-25T07:06:56Z</time>
      </trkpt>
      <trkpt lat="46.20136" lon="6.7634">
        <ele>1679.1</ele>
        <time>2013-08-25T07:07:08Z</time>
      </trkpt>
      <trkpt lat="46.20111" lon="6.7636">
        <ele>1682.4</ele>
        <time>2013-08-25T07:07:22Z</time>
      </trkpt>
      <trkpt lat="46.20105" lon="6.76373">
        <ele>1683.9</ele>
        <time>2013-08-25T07:07:27Z</time>
      </trkpt>
      <trkpt lat="46.20099" lon="6.76404">
        <ele>1685.3</ele>
        <time>2013-08-25T07:07:39Z</time>
      </trkpt>
      <trkpt lat="46.20099" lon="6.76447">
        <ele>1688.2</ele>
        <time>2013-08-25T07:07:52Z</time>
      </trkpt>
      <trkpt lat="46.20096" lon="6.76482">
        <ele>1689.2</ele>
        <time>2013-08-25T07:08:02Z</time>
      </trkpt>
      <trkpt lat="46.20094" lon="6.76483">
        <ele>1689.7</ele>
        <time>2013-08-25T07:08:03Z</time>
      </trkpt>
      <trkpt lat="46.20092" lon="6.76484">
        <ele>1689.7</ele>
        <time>2013-08-25T07:08:04Z</time>
      </trkpt>
      <trkpt lat="46.2009" lon="6.76484">
        <ele>1690.1</ele>
        <time>2013-08-25T07:08:05Z</time>
      </trkpt>
      <trkpt lat="46.20087" lon="6.76484">
        <ele>1690.6</ele>
        <time>2013-08-25T07:08:07Z</time>
      </trkpt>
      <trkpt lat="46.20086" lon="6.76482">
        <ele>1690.6</ele>
        <time>2013-08-25T07:08:08Z</time>
      </trkpt>
      <trkpt lat="46.20085" lon="6.76479">
        <ele>1692.1</ele>
        <time>2013-08-25T07:08:09Z</time>
      </trkpt>
      <trkpt lat="46.20085" lon="6.76476">
        <ele>1691.6</ele>
        <time>2013-08-25T07:08:10Z</time>
      </trkpt>
      <trkpt lat="46.20085" lon="6.76473">
        <ele>1691.1</ele>
        <time>2013-08-25T07:08:11Z</time>
      </trkpt>
      <trkpt lat="46.20089" lon="6.76423">
        <ele>1694.5</ele>
        <time>2013-08-25T07:08:27Z</time>
      </trkpt>
      <trkpt lat="46.20076" lon="6.76375">
        <ele>1696.9</ele>
        <time>2013-08-25T07:08:44Z</time>
      </trkpt>
      <trkpt lat="46.20067" lon="6.76325">
        <ele>1699.8</ele>
        <time>2013-08-25T07:09:01Z</time>
      </trkpt>
      <trkpt lat="46.20066" lon="6.76274">
        <ele>1702.6</ele>
        <time>2013-08-25T07:09:18Z</time>
      </trkpt>
      <trkpt lat="46.20065" lon="6.76229">
        <ele>1705.5</ele>
        <time>2013-08-25T07:09:32Z</time>
      </trkpt>
      <trkpt lat="46.20072" lon="6.7618">
        <ele>1708.4</ele>
        <time>2013-08-25T07:09:49Z</time>
      </trkpt>
      <trkpt lat="46.20088" lon="6.76142">
        <ele>1711.8</ele>
        <time>2013-08-25T07:10:04Z</time>
      </trkpt>
      <trkpt lat="46.20097" lon="6.76094">
        <ele>1713.7</ele>
        <time>2013-08-25T07:10:21Z</time>
      </trkpt>
      <trkpt lat="46.201" lon="6.76053">
        <ele>1717.1</ele>
        <time>2013-08-25T07:10:35Z</time>
      </trkpt>
      <trkpt lat="46.20102" lon="6.76035">
        <ele>1718</ele>
        <time>2013-08-25T07:10:41Z</time>
      </trkpt>
      <trkpt lat="46.20118" lon="6.75984">
        <ele>1721.9</ele>
        <time>2013-08-25T07:10:59Z</time>
      </trkpt>
      <trkpt lat="46.2015" lon="6.75946">
        <ele>1724.7</ele>
        <time>2013-08-25T07:11:19Z</time>
      </trkpt>
      <trkpt lat="46.20186" lon="6.75914">
        <ele>1728.1</ele>
        <time>2013-08-25T07:11:39Z</time>
      </trkpt>
      <trkpt lat="46.20211" lon="6.75884">
        <ele>1730.5</ele>
        <time>2013-08-25T07:11:54Z</time>
      </trkpt>
      <trkpt lat="46.20229" lon="6.75856">
        <ele>1733.4</ele>
        <time>2013-08-25T07:12:06Z</time>
      </trkpt>
      <trkpt lat="46.20257" lon="6.75843">
        <ele>1736.3</ele>
        <time>2013-08-25T07:12:20Z</time>
      </trkpt>
      <trkpt lat="46.20259" lon="6.75842">
        <ele>1736.3</ele>
        <time>2013-08-25T07:12:21Z</time>
      </trkpt>
      <trkpt lat="46.20291" lon="6.75823">
        <ele>1738.7</ele>
        <time>2013-08-25T07:12:35Z</time>
      </trkpt>
      <trkpt lat="46.20295" lon="6.75787">
        <ele>1740.1</ele>
        <time>2013-08-25T07:12:48Z</time>
      </trkpt>
      <trkpt lat="46.20293" lon="6.75787">
        <ele>1740.6</ele>
        <time>2013-08-25T07:12:49Z</time>
      </trkpt>
      <trkpt lat="46.20291" lon="6.75787">
        <ele>1741.6</ele>
        <time>2013-08-25T07:12:50Z</time>
      </trkpt>
      <trkpt lat="46.20289" lon="6.75787">
        <ele>1741.6</ele>
        <time>2013-08-25T07:12:51Z</time>
      </trkpt>
      <trkpt lat="46.20287" lon="6.75788">
        <ele>1741.6</ele>
        <time>2013-08-25T07:12:52Z</time>
      </trkpt>
      <trkpt lat="46.20285" lon="6.7579">
        <ele>1741.6</ele>
        <time>2013-08-25T07:12:53Z</time>
      </trkpt>
      <trkpt lat="46.20283" lon="6.75792">
        <ele>1741.6</ele>
        <time>2013-08-25T07:12:54Z</time>
      </trkpt>
      <trkpt lat="46.20281" lon="6.75793">
        <ele>1742.1</ele>
        <time>2013-08-25T07:12:55Z</time>
      </trkpt>
      <trkpt lat="46.2028" lon="6.75795">
        <ele>1741.1</ele>
        <time>2013-08-25T07:12:56Z</time>
      </trkpt>
      <trkpt lat="46.20262" lon="6.7581">
        <ele>1744</ele>
        <time>2013-08-25T07:13:06Z</time>
      </trkpt>
      <trkpt lat="46.20225" lon="6.75815">
        <ele>1746.4</ele>
        <time>2013-08-25T07:13:23Z</time>
      </trkpt>
      <trkpt lat="46.2019" lon="6.75832">
        <ele>1749.7</ele>
        <time>2013-08-25T07:13:38Z</time>
      </trkpt>
      <trkpt lat="46.20162" lon="6.75854">
        <ele>1751.7</ele>
        <time>2013-08-25T07:13:51Z</time>
      </trkpt>
      <trkpt lat="46.20129" lon="6.75878">
        <ele>1754.5</ele>
        <time>2013-08-25T07:14:07Z</time>
      </trkpt>
      <trkpt lat="46.20097" lon="6.75907">
        <ele>1757.4</ele>
        <time>2013-08-25T07:14:23Z</time>
      </trkpt>
      <trkpt lat="46.20076" lon="6.75926">
        <ele>1758.9</ele>
        <time>2013-08-25T07:14:34Z</time>
      </trkpt>
      <trkpt lat="46.20051" lon="6.75942">
        <ele>1760.8</ele>
        <time>2013-08-25T07:14:45Z</time>
      </trkpt>
      <trkpt lat="46.20049" lon="6.7594">
        <ele>1760.3</ele>
        <time>2013-08-25T07:14:46Z</time>
      </trkpt>
      <trkpt lat="46.20049" lon="6.75936">
        <ele>1760.8</ele>
        <time>2013-08-25T07:14:47Z</time>
      </trkpt>
      <trkpt lat="46.20049" lon="6.75933">
        <ele>1760.8</ele>
        <time>2013-08-25T07:14:48Z</time>
      </trkpt>
      <trkpt lat="46.2005" lon="6.75929">
        <ele>1760.3</ele>
        <time>2013-08-25T07:14:49Z</time>
      </trkpt>
      <trkpt lat="46.20052" lon="6.75926">
        <ele>1761.3</ele>
        <time>2013-08-25T07:14:50Z</time>
      </trkpt>
      <trkpt lat="46.20053" lon="6.75924">
        <ele>1761.3</ele>
        <time>2013-08-25T07:14:51Z</time>
      </trkpt>
      <trkpt lat="46.20055" lon="6.75922">
        <ele>1761.8</ele>
        <time>2013-08-25T07:14:52Z</time>
      </trkpt>
      <trkpt lat="46.20057" lon="6.7592">
        <ele>1761.3</ele>
        <time>2013-08-25T07:14:53Z</time>
      </trkpt>
      <trkpt lat="46.20063" lon="6.75915">
        <ele>1762.7</ele>
        <time>2013-08-25T07:14:56Z</time>
      </trkpt>
      <trkpt lat="46.20086" lon="6.75888">
        <ele>1764.2</ele>
        <time>2013-08-25T07:15:10Z</time>
      </trkpt>
      <trkpt lat="46.20085" lon="6.75885">
        <ele>1764.6</ele>
        <time>2013-08-25T07:15:11Z</time>
      </trkpt>
      <trkpt lat="46.20083" lon="6.75883">
        <ele>1765.1</ele>
        <time>2013-08-25T07:15:12Z</time>
      </trkpt>
      <trkpt lat="46.20081" lon="6.75881">
        <ele>1765.1</ele>
        <time>2013-08-25T07:15:13Z</time>
      </trkpt>
      <trkpt lat="46.20078" lon="6.75881">
        <ele>1765.6</ele>
        <time>2013-08-25T07:15:14Z</time>
      </trkpt>
      <trkpt lat="46.20076" lon="6.75881">
        <ele>1765.6</ele>
        <time>2013-08-25T07:15:15Z</time>
      </trkpt>
      <trkpt lat="46.20073" lon="6.75882">
        <ele>1766.1</ele>
        <time>2013-08-25T07:15:16Z</time>
      </trkpt>
      <trkpt lat="46.20035" lon="6.75904">
        <ele>1767.5</ele>
        <time>2013-08-25T07:15:32Z</time>
      </trkpt>
      <trkpt lat="46.2003" lon="6.75907">
        <ele>1769</ele>
        <time>2013-08-25T07:15:34Z</time>
      </trkpt>
      <trkpt lat="46.20012" lon="6.75919">
        <ele>1769.9</ele>
        <time>2013-08-25T07:15:44Z</time>
      </trkpt>
      <trkpt lat="46.20009" lon="6.75915">
        <ele>1769</ele>
        <time>2013-08-25T07:15:47Z</time>
      </trkpt>
      <trkpt lat="46.20008" lon="6.75915">
        <ele>1769</ele>
        <time>2013-08-25T07:15:48Z</time>
      </trkpt>
      <trkpt lat="46.20007" lon="6.75913">
        <ele>1769</ele>
        <time>2013-08-25T07:16:02Z</time>
      </trkpt>
      <trkpt lat="46.20006" lon="6.75912">
        <ele>1770.4</ele>
        <time>2013-08-25T07:16:05Z</time>
      </trkpt>
      <trkpt lat="46.20005" lon="6.7591">
        <ele>1769.9</ele>
        <time>2013-08-25T07:16:06Z</time>
      </trkpt>
      <trkpt lat="46.20004" lon="6.75909">
        <ele>1770.4</ele>
        <time>2013-08-25T07:16:07Z</time>
      </trkpt>
      <trkpt lat="46.20004" lon="6.75906">
        <ele>1769.4</ele>
        <time>2013-08-25T07:16:09Z</time>
      </trkpt>
      <trkpt lat="46.20005" lon="6.75904">
        <ele>1770.4</ele>
        <time>2013-08-25T07:16:10Z</time>
      </trkpt>
      <trkpt lat="46.20006" lon="6.75904">
        <ele>1769.9</ele>
        <time>2013-08-25T07:16:11Z</time>
      </trkpt>
      <trkpt lat="46.20007" lon="6.75903">
        <ele>1769.9</ele>
        <time>2013-08-25T07:16:12Z</time>
      </trkpt>
      <trkpt lat="46.20008" lon="6.75902">
        <ele>1769.9</ele>
        <time>2013-08-25T07:16:13Z</time>
      </trkpt>
      <trkpt lat="46.20009" lon="6.75901">
        <ele>1769.9</ele>
        <time>2013-08-25T07:16:14Z</time>
      </trkpt>
      <trkpt lat="46.20009" lon="6.75898">
        <ele>1769.9</ele>
        <time>2013-08-25T07:16:15Z</time>
      </trkpt>
      <trkpt lat="46.2001" lon="6.75895">
        <ele>1769</ele>
        <time>2013-08-25T07:16:16Z</time>
      </trkpt>
      <trkpt lat="46.20011" lon="6.75893">
        <ele>1769.9</ele>
        <time>2013-08-25T07:16:17Z</time>
      </trkpt>
      <trkpt lat="46.20012" lon="6.7589">
        <ele>1768.5</ele>
        <time>2013-08-25T07:16:18Z</time>
      </trkpt>
      <trkpt lat="46.20013" lon="6.75887">
        <ele>1769</ele>
        <time>2013-08-25T07:16:19Z</time>
      </trkpt>
      <trkpt lat="46.20015" lon="6.75884">
        <ele>1769.9</ele>
        <time>2013-08-25T07:16:20Z</time>
      </trkpt>
      <trkpt lat="46.20021" lon="6.75854">
        <ele>1767.5</ele>
        <time>2013-08-25T07:16:26Z</time>
      </trkpt>
      <trkpt lat="46.20025" lon="6.75841">
        <ele>1767.5</ele>
        <time>2013-08-25T07:16:28Z</time>
      </trkpt>
      <trkpt lat="46.20033" lon="6.75807">
        <ele>1765.6</ele>
        <time>2013-08-25T07:16:33Z</time>
      </trkpt>
      <trkpt lat="46.20035" lon="6.75801">
        <ele>1764.6</ele>
        <time>2013-08-25T07:16:34Z</time>
      </trkpt>
      <trkpt lat="46.20038" lon="6.75796">
        <ele>1764.2</ele>
        <time>2013-08-25T07:16:35Z</time>
      </trkpt>
      <trkpt lat="46.20042" lon="6.75792">
        <ele>1764.2</ele>
        <time>2013-08-25T07:16:36Z</time>
      </trkpt>
      <trkpt lat="46.20058" lon="6.75774">
        <ele>1765.6</ele>
        <time>2013-08-25T07:16:45Z</time>
      </trkpt>
      <trkpt lat="46.20069" lon="6.75749">
        <ele>1766.6</ele>
        <time>2013-08-25T07:16:55Z</time>
      </trkpt>
      <trkpt lat="46.20074" lon="6.75739">
        <ele>1765.1</ele>
        <time>2013-08-25T07:16:58Z</time>
      </trkpt>
      <trkpt lat="46.20092" lon="6.75694">
        <ele>1764.6</ele>
        <time>2013-08-25T07:17:08Z</time>
      </trkpt>
      <trkpt lat="46.20094" lon="6.75676">
        <ele>1764.2</ele>
        <time>2013-08-25T07:17:11Z</time>
      </trkpt>
      <trkpt lat="46.20095" lon="6.75669">
        <ele>1764.2</ele>
        <time>2013-08-25T07:17:12Z</time>
      </trkpt>
      <trkpt lat="46.20096" lon="6.75663">
        <ele>1764.2</ele>
        <time>2013-08-25T07:17:13Z</time>
      </trkpt>
      <trkpt lat="46.201" lon="6.75617">
        <ele>1763.7</ele>
        <time>2013-08-25T07:17:21Z</time>
      </trkpt>
      <trkpt lat="46.20102" lon="6.75574">
        <ele>1763.7</ele>
        <time>2013-08-25T07:17:27Z</time>
      </trkpt>
      <trkpt lat="46.20103" lon="6.75559">
        <ele>1763.2</ele>
        <time>2013-08-25T07:17:29Z</time>
      </trkpt>
      <trkpt lat="46.20102" lon="6.75525">
        <ele>1762.2</ele>
        <time>2013-08-25T07:17:33Z</time>
      </trkpt>
      <trkpt lat="46.20106" lon="6.7544">
        <ele>1759.4</ele>
        <time>2013-08-25T07:17:43Z</time>
      </trkpt>
      <trkpt lat="46.2011" lon="6.75433">
        <ele>1759.4</ele>
        <time>2013-08-25T07:17:44Z</time>
      </trkpt>
      <trkpt lat="46.20112" lon="6.75422">
        <ele>1758.9</ele>
        <time>2013-08-25T07:17:45Z</time>
      </trkpt>
      <trkpt lat="46.20113" lon="6.75402">
        <ele>1757.9</ele>
        <time>2013-08-25T07:17:47Z</time>
      </trkpt>
      <trkpt lat="46.20116" lon="6.75373">
        <ele>1757</ele>
        <time>2013-08-25T07:17:50Z</time>
      </trkpt>
      <trkpt lat="46.20116" lon="6.75365">
        <ele>1757.4</ele>
        <time>2013-08-25T07:17:51Z</time>
      </trkpt>
      <trkpt lat="46.20117" lon="6.75357">
        <ele>1757.4</ele>
        <time>2013-08-25T07:17:52Z</time>
      </trkpt>
      <trkpt lat="46.20125" lon="6.7532">
        <ele>1757.9</ele>
        <time>2013-08-25T07:17:57Z</time>
      </trkpt>
      <trkpt lat="46.20126" lon="6.75314">
        <ele>1757.9</ele>
        <time>2013-08-25T07:17:58Z</time>
      </trkpt>
      <trkpt lat="46.20128" lon="6.75265">
        <ele>1757</ele>
        <time>2013-08-25T07:18:05Z</time>
      </trkpt>
      <trkpt lat="46.20128" lon="6.75258">
        <ele>1757.4</ele>
        <time>2013-08-25T07:18:06Z</time>
      </trkpt>
      <trkpt lat="46.20128" lon="6.75252">
        <ele>1756.5</ele>
        <time>2013-08-25T07:18:07Z</time>
      </trkpt>
      <trkpt lat="46.20128" lon="6.75246">
        <ele>1757</ele>
        <time>2013-08-25T07:18:08Z</time>
      </trkpt>
      <trkpt lat="46.20128" lon="6.7524">
        <ele>1756.5</ele>
        <time>2013-08-25T07:18:09Z</time>
      </trkpt>
      <trkpt lat="46.20128" lon="6.75234">
        <ele>1757.9</ele>
        <time>2013-08-25T07:18:10Z</time>
      </trkpt>
      <trkpt lat="46.20125" lon="6.75156">
        <ele>1757</ele>
        <time>2013-08-25T07:18:22Z</time>
      </trkpt>
      <trkpt lat="46.20125" lon="6.75149">
        <ele>1757.4</ele>
        <time>2013-08-25T07:18:23Z</time>
      </trkpt>
      <trkpt lat="46.20125" lon="6.75142">
        <ele>1757.4</ele>
        <time>2013-08-25T07:18:24Z</time>
      </trkpt>
      <trkpt lat="46.20124" lon="6.75135">
        <ele>1757</ele>
        <time>2013-08-25T07:18:25Z</time>
      </trkpt>
      <trkpt lat="46.20124" lon="6.75128">
        <ele>1756.5</ele>
        <time>2013-08-25T07:18:26Z</time>
      </trkpt>
      <trkpt lat="46.20123" lon="6.75122">
        <ele>1757.4</ele>
        <time>2013-08-25T07:18:27Z</time>
      </trkpt>
      <trkpt lat="46.20122" lon="6.75117">
        <ele>1757</ele>
        <time>2013-08-25T07:18:28Z</time>
      </trkpt>
      <trkpt lat="46.20112" lon="6.75067">
        <ele>1757.9</ele>
        <time>2013-08-25T07:18:35Z</time>
      </trkpt>
      <trkpt lat="46.2011" lon="6.75023">
        <ele>1755.5</ele>
        <time>2013-08-25T07:18:41Z</time>
      </trkpt>
      <trkpt lat="46.20102" lon="6.74977">
        <ele>1754.5</ele>
        <time>2013-08-25T07:18:47Z</time>
      </trkpt>
      <trkpt lat="46.20098" lon="6.74957">
        <ele>1752.6</ele>
        <time>2013-08-25T07:18:49Z</time>
      </trkpt>
      <trkpt lat="46.2009" lon="6.74896">
        <ele>1751.7</ele>
        <time>2013-08-25T07:18:55Z</time>
      </trkpt>
      <trkpt lat="46.20091" lon="6.74864">
        <ele>1750.2</ele>
        <time>2013-08-25T07:18:58Z</time>
      </trkpt>
      <trkpt lat="46.20088" lon="6.74778">
        <ele>1748.3</ele>
        <time>2013-08-25T07:19:07Z</time>
      </trkpt>
      <trkpt lat="46.20087" lon="6.74769">
        <ele>1748.3</ele>
        <time>2013-08-25T07:19:08Z</time>
      </trkpt>
      <trkpt lat="46.20076" lon="6.7471">
        <ele>1747.3</ele>
        <time>2013-08-25T07:19:15Z</time>
      </trkpt>
      <trkpt lat="46.20075" lon="6.74703">
        <ele>1746.9</ele>
        <time>2013-08-25T07:19:16Z</time>
      </trkpt>
      <trkpt lat="46.20075" lon="6.74673">
        <ele>1748.3</ele>
        <time>2013-08-25T07:19:21Z</time>
      </trkpt>
      <trkpt lat="46.20072" lon="6.74653">
        <ele>1749.3</ele>
        <time>2013-08-25T07:19:27Z</time>
      </trkpt>
      <trkpt lat="46.20071" lon="6.7465">
        <ele>1749.3</ele>
        <time>2013-08-25T07:19:28Z</time>
      </trkpt>
      <trkpt lat="46.20068" lon="6.74611">
        <ele>1751.2</ele>
        <time>2013-08-25T07:19:39Z</time>
      </trkpt>
      <trkpt lat="46.20059" lon="6.74565">
        <ele>1752.6</ele>
        <time>2013-08-25T07:19:53Z</time>
      </trkpt>
      <trkpt lat="46.20052" lon="6.74527">
        <ele>1753.1</ele>
        <time>2013-08-25T07:20:04Z</time>
      </trkpt>
      <trkpt lat="46.20051" lon="6.74526">
        <ele>1753.6</ele>
        <time>2013-08-25T07:20:06Z</time>
      </trkpt>
      <trkpt lat="46.2005" lon="6.74524">
        <ele>1753.6</ele>
        <time>2013-08-25T07:20:07Z</time>
      </trkpt>
      <trkpt lat="46.2005" lon="6.74523">
        <ele>1754.1</ele>
        <time>2013-08-25T07:20:08Z</time>
      </trkpt>
      <trkpt lat="46.2005" lon="6.7452">
        <ele>1754.5</ele>
        <time>2013-08-25T07:20:09Z</time>
      </trkpt>
      <trkpt lat="46.2005" lon="6.74519">
        <ele>1755</ele>
        <time>2013-08-25T07:20:10Z</time>
      </trkpt>
      <trkpt lat="46.20052" lon="6.74499">
        <ele>1756.5</ele>
        <time>2013-08-25T07:20:19Z</time>
      </trkpt>
      <trkpt lat="46.20052" lon="6.74497">
        <ele>1757.4</ele>
        <time>2013-08-25T07:20:20Z</time>
      </trkpt>
      <trkpt lat="46.20052" lon="6.74495">
        <ele>1757.4</ele>
        <time>2013-08-25T07:20:21Z</time>
      </trkpt>
      <trkpt lat="46.20052" lon="6.74493">
        <ele>1757</ele>
        <time>2013-08-25T07:20:22Z</time>
      </trkpt>
      <trkpt lat="46.20051" lon="6.74491">
        <ele>1757</ele>
        <time>2013-08-25T07:20:23Z</time>
      </trkpt>
      <trkpt lat="46.20051" lon="6.74489">
        <ele>1757.4</ele>
        <time>2013-08-25T07:20:24Z</time>
      </trkpt>
      <trkpt lat="46.2005" lon="6.74485">
        <ele>1758.4</ele>
        <time>2013-08-25T07:20:26Z</time>
      </trkpt>
      <trkpt lat="46.20045" lon="6.74459">
        <ele>1760.3</ele>
        <time>2013-08-25T07:20:39Z</time>
      </trkpt>
      <trkpt lat="46.20043" lon="6.74439">
        <ele>1764.2</ele>
        <time>2013-08-25T07:20:48Z</time>
      </trkpt>
      <trkpt lat="46.20043" lon="6.74437">
        <ele>1764.2</ele>
        <time>2013-08-25T07:20:49Z</time>
      </trkpt>
      <trkpt lat="46.20043" lon="6.74435">
        <ele>1763.2</ele>
        <time>2013-08-25T07:20:50Z</time>
      </trkpt>
      <trkpt lat="46.20042" lon="6.74434">
        <ele>1763.2</ele>
        <time>2013-08-25T07:20:51Z</time>
      </trkpt>
      <trkpt lat="46.20042" lon="6.74432">
        <ele>1763.7</ele>
        <time>2013-08-25T07:20:52Z</time>
      </trkpt>
      <trkpt lat="46.20042" lon="6.74429">
        <ele>1764.6</ele>
        <time>2013-08-25T07:20:53Z</time>
      </trkpt>
      <trkpt lat="46.20042" lon="6.74426">
        <ele>1764.2</ele>
        <time>2013-08-25T07:20:54Z</time>
      </trkpt>
      <trkpt lat="46.20042" lon="6.74424">
        <ele>1764.6</ele>
        <time>2013-08-25T07:20:55Z</time>
      </trkpt>
      <trkpt lat="46.20042" lon="6.74422">
        <ele>1764.2</ele>
        <time>2013-08-25T07:20:56Z</time>
      </trkpt>
      <trkpt lat="46.20036" lon="6.74388">
        <ele>1765.1</ele>
        <time>2013-08-25T07:21:08Z</time>
      </trkpt>
      <trkpt lat="46.2003" lon="6.74343">
        <ele>1766.6</ele>
        <time>2013-08-25T07:21:20Z</time>
      </trkpt>
      <trkpt lat="46.20035" lon="6.7431">
        <ele>1769</ele>
        <time>2013-08-25T07:21:31Z</time>
      </trkpt>
      <trkpt lat="46.20041" lon="6.74265">
        <ele>1769.4</ele>
        <time>2013-08-25T07:21:43Z</time>
      </trkpt>
      <trkpt lat="46.20027" lon="6.74217">
        <ele>1768</ele>
        <time>2013-08-25T07:21:55Z</time>
      </trkpt>
      <trkpt lat="46.20021" lon="6.74204">
        <ele>1768</ele>
        <time>2013-08-25T07:21:57Z</time>
      </trkpt>
      <trkpt lat="46.20016" lon="6.74179">
        <ele>1769.4</ele>
        <time>2013-08-25T07:22:04Z</time>
      </trkpt>
      <trkpt lat="46.20016" lon="6.74177">
        <ele>1769.4</ele>
        <time>2013-08-25T07:22:05Z</time>
      </trkpt>
      <trkpt lat="46.20005" lon="6.74155">
        <ele>1772.8</ele>
        <time>2013-08-25T07:22:16Z</time>
      </trkpt>
      <trkpt lat="46.20001" lon="6.7414">
        <ele>1773.8</ele>
        <time>2013-08-25T07:22:23Z</time>
      </trkpt>
      <trkpt lat="46.19989" lon="6.74114">
        <ele>1777.1</ele>
        <time>2013-08-25T07:22:37Z</time>
      </trkpt>
      <trkpt lat="46.19969" lon="6.7409">
        <ele>1777.6</ele>
        <time>2013-08-25T07:22:51Z</time>
      </trkpt>
      <trkpt lat="46.19948" lon="6.74065">
        <ele>1776.7</ele>
        <time>2013-08-25T07:23:00Z</time>
      </trkpt>
      <trkpt lat="46.1994" lon="6.7406">
        <ele>1776.2</ele>
        <time>2013-08-25T07:23:02Z</time>
      </trkpt>
      <trkpt lat="46.19936" lon="6.74056">
        <ele>1775.2</ele>
        <time>2013-08-25T07:23:03Z</time>
      </trkpt>
      <trkpt lat="46.19932" lon="6.74051">
        <ele>1776.2</ele>
        <time>2013-08-25T07:23:04Z</time>
      </trkpt>
      <trkpt lat="46.19914" lon="6.74018">
        <ele>1772.8</ele>
        <time>2013-08-25T07:23:10Z</time>
      </trkpt>
      <trkpt lat="46.19902" lon="6.74002">
        <ele>1771.4</ele>
        <time>2013-08-25T07:23:20Z</time>
      </trkpt>
      <trkpt lat="46.19893" lon="6.73992">
        <ele>1771.9</ele>
        <time>2013-08-25T07:23:30Z</time>
      </trkpt>
      <trkpt lat="46.19886" lon="6.73986">
        <ele>1771.9</ele>
        <time>2013-08-25T07:23:44Z</time>
      </trkpt>
      <trkpt lat="46.19885" lon="6.73984">
        <ele>1769.9</ele>
        <time>2013-08-25T07:23:55Z</time>
      </trkpt>
      <trkpt lat="46.19884" lon="6.73983">
        <ele>1770.9</ele>
        <time>2013-08-25T07:24:02Z</time>
      </trkpt>
      <trkpt lat="46.19882" lon="6.73982">
        <ele>1771.9</ele>
        <time>2013-08-25T07:24:03Z</time>
      </trkpt>
      <trkpt lat="46.19881" lon="6.73981">
        <ele>1770.4</ele>
        <time>2013-08-25T07:24:04Z</time>
      </trkpt>
      <trkpt lat="46.19879" lon="6.73979">
        <ele>1770.4</ele>
        <time>2013-08-25T07:24:05Z</time>
      </trkpt>
      <trkpt lat="46.19877" lon="6.73976">
        <ele>1771.4</ele>
        <time>2013-08-25T07:24:06Z</time>
      </trkpt>
      <trkpt lat="46.19876" lon="6.73973">
        <ele>1771.4</ele>
        <time>2013-08-25T07:24:07Z</time>
      </trkpt>
      <trkpt lat="46.19855" lon="6.73928">
        <ele>1769.4</ele>
        <time>2013-08-25T07:24:18Z</time>
      </trkpt>
      <trkpt lat="46.1985" lon="6.73916">
        <ele>1769</ele>
        <time>2013-08-25T07:24:20Z</time>
      </trkpt>
      <trkpt lat="46.19849" lon="6.7391">
        <ele>1769.4</ele>
        <time>2013-08-25T07:24:21Z</time>
      </trkpt>
      <trkpt lat="46.1982" lon="6.73841">
        <ele>1765.1</ele>
        <time>2013-08-25T07:24:32Z</time>
      </trkpt>
      <trkpt lat="46.19799" lon="6.73806">
        <ele>1764.6</ele>
        <time>2013-08-25T07:24:37Z</time>
      </trkpt>
      <trkpt lat="46.19786" lon="6.73786">
        <ele>1763.2</ele>
        <time>2013-08-25T07:24:40Z</time>
      </trkpt>
      <trkpt lat="46.19721" lon="6.73689">
        <ele>1760.3</ele>
        <time>2013-08-25T07:24:55Z</time>
      </trkpt>
      <trkpt lat="46.19668" lon="6.73609">
        <ele>1757</ele>
        <time>2013-08-25T07:25:07Z</time>
      </trkpt>
      <trkpt lat="46.19646" lon="6.73575">
        <ele>1755.5</ele>
        <time>2013-08-25T07:25:12Z</time>
      </trkpt>
      <trkpt lat="46.19624" lon="6.73531">
        <ele>1755.5</ele>
        <time>2013-08-25T07:25:18Z</time>
      </trkpt>
      <trkpt lat="46.1962" lon="6.73516">
        <ele>1754.5</ele>
        <time>2013-08-25T07:25:20Z</time>
      </trkpt>
      <trkpt lat="46.19613" lon="6.73484">
        <ele>1753.6</ele>
        <time>2013-08-25T07:25:24Z</time>
      </trkpt>
      <trkpt lat="46.19608" lon="6.73447">
        <ele>1752.6</ele>
        <time>2013-08-25T07:25:29Z</time>
      </trkpt>
      <trkpt lat="46.19606" lon="6.73434">
        <ele>1752.6</ele>
        <time>2013-08-25T07:25:31Z</time>
      </trkpt>
      <trkpt lat="46.19601" lon="6.7342">
        <ele>1751.2</ele>
        <time>2013-08-25T07:25:39Z</time>
      </trkpt>
      <trkpt lat="46.19594" lon="6.73411">
        <ele>1752.1</ele>
        <time>2013-08-25T07:26:04Z</time>
      </trkpt>
      <trkpt lat="46.19587" lon="6.73399">
        <ele>1750.2</ele>
        <time>2013-08-25T07:26:07Z</time>
      </trkpt>
      <trkpt lat="46.19585" lon="6.73393">
        <ele>1750.2</ele>
        <time>2013-08-25T07:26:08Z</time>
      </trkpt>
      <trkpt lat="46.19569" lon="6.73347">
        <ele>1746.9</ele>
        <time>2013-08-25T07:26:15Z</time>
      </trkpt>
      <trkpt lat="46.19565" lon="6.73328">
        <ele>1747.3</ele>
        <time>2013-08-25T07:26:18Z</time>
      </trkpt>
      <trkpt lat="46.19564" lon="6.73322">
        <ele>1746.9</ele>
        <time>2013-08-25T07:26:19Z</time>
      </trkpt>
      <trkpt lat="46.19558" lon="6.73283">
        <ele>1744.9</ele>
        <time>2013-08-25T07:26:25Z</time>
      </trkpt>
      <trkpt lat="46.19557" lon="6.7327">
        <ele>1744</ele>
        <time>2013-08-25T07:26:27Z</time>
      </trkpt>
      <trkpt lat="46.19557" lon="6.73256">
        <ele>1743.5</ele>
        <time>2013-08-25T07:26:29Z</time>
      </trkpt>
      <trkpt lat="46.19557" lon="6.73249">
        <ele>1742.5</ele>
        <time>2013-08-25T07:26:30Z</time>
      </trkpt>
      <trkpt lat="46.19558" lon="6.73242">
        <ele>1742.5</ele>
        <time>2013-08-25T07:26:31Z</time>
      </trkpt>
      <trkpt lat="46.1956" lon="6.73218">
        <ele>1741.6</ele>
        <time>2013-08-25T07:26:35Z</time>
      </trkpt>
      <trkpt lat="46.19561" lon="6.73204">
        <ele>1739.6</ele>
        <time>2013-08-25T07:26:43Z</time>
      </trkpt>
      <trkpt lat="46.19562" lon="6.73202">
        <ele>1740.6</ele>
        <time>2013-08-25T07:27:02Z</time>
      </trkpt>
      <trkpt lat="46.19562" lon="6.73199">
        <ele>1740.1</ele>
        <time>2013-08-25T07:27:03Z</time>
      </trkpt>
      <trkpt lat="46.19573" lon="6.7315">
        <ele>1736.8</ele>
        <time>2013-08-25T07:27:12Z</time>
      </trkpt>
      <trkpt lat="46.19574" lon="6.73143">
        <ele>1736.8</ele>
        <time>2013-08-25T07:27:13Z</time>
      </trkpt>
      <trkpt lat="46.19574" lon="6.73136">
        <ele>1736.3</ele>
        <time>2013-08-25T07:27:14Z</time>
      </trkpt>
      <trkpt lat="46.19574" lon="6.73129">
        <ele>1735.3</ele>
        <time>2013-08-25T07:27:15Z</time>
      </trkpt>
      <trkpt lat="46.19575" lon="6.73122">
        <ele>1735.3</ele>
        <time>2013-08-25T07:27:16Z</time>
      </trkpt>
      <trkpt lat="46.19575" lon="6.73108">
        <ele>1733.9</ele>
        <time>2013-08-25T07:27:18Z</time>
      </trkpt>
      <trkpt lat="46.19576" lon="6.73101">
        <ele>1733.4</ele>
        <time>2013-08-25T07:27:19Z</time>
      </trkpt>
      <trkpt lat="46.19578" lon="6.73086">
        <ele>1732</ele>
        <time>2013-08-25T07:27:21Z</time>
      </trkpt>
      <trkpt lat="46.19579" lon="6.73078">
        <ele>1732</ele>
        <time>2013-08-25T07:27:22Z</time>
      </trkpt>
      <trkpt lat="46.1958" lon="6.73062">
        <ele>1730.5</ele>
        <time>2013-08-25T07:27:24Z</time>
      </trkpt>
      <trkpt lat="46.1958" lon="6.73055">
        <ele>1730.5</ele>
        <time>2013-08-25T07:27:25Z</time>
      </trkpt>
      <trkpt lat="46.19581" lon="6.73047">
        <ele>1730</ele>
        <time>2013-08-25T07:27:26Z</time>
      </trkpt>
      <trkpt lat="46.19582" lon="6.73039">
        <ele>1729.6</ele>
        <time>2013-08-25T07:27:27Z</time>
      </trkpt>
      <trkpt lat="46.19583" lon="6.73031">
        <ele>1728.1</ele>
        <time>2013-08-25T07:27:28Z</time>
      </trkpt>
      <trkpt lat="46.19584" lon="6.73024">
        <ele>1728.1</ele>
        <time>2013-08-25T07:27:29Z</time>
      </trkpt>
      <trkpt lat="46.19586" lon="6.73008">
        <ele>1725.7</ele>
        <time>2013-08-25T07:27:31Z</time>
      </trkpt>
      <trkpt lat="46.19587" lon="6.73">
        <ele>1726.2</ele>
        <time>2013-08-25T07:27:32Z</time>
      </trkpt>
      <trkpt lat="46.19587" lon="6.7298">
        <ele>1724.3</ele>
        <time>2013-08-25T07:27:35Z</time>
      </trkpt>
      <trkpt lat="46.19588" lon="6.72975">
        <ele>1724.7</ele>
        <time>2013-08-25T07:27:36Z</time>
      </trkpt>
      <trkpt lat="46.19588" lon="6.72971">
        <ele>1723.3</ele>
        <time>2013-08-25T07:27:37Z</time>
      </trkpt>
      <trkpt lat="46.19585" lon="6.72945">
        <ele>1721.9</ele>
        <time>2013-08-25T07:27:43Z</time>
      </trkpt>
      <trkpt lat="46.19583" lon="6.72944">
        <ele>1720.9</ele>
        <time>2013-08-25T07:27:44Z</time>
      </trkpt>
      <trkpt lat="46.19572" lon="6.72939">
        <ele>1718.5</ele>
        <time>2013-08-25T07:27:47Z</time>
      </trkpt>
      <trkpt lat="46.19569" lon="6.72933">
        <ele>1716.6</ele>
        <time>2013-08-25T07:27:48Z</time>
      </trkpt>
      <trkpt lat="46.19568" lon="6.72927">
        <ele>1717.1</ele>
        <time>2013-08-25T07:27:49Z</time>
      </trkpt>
      <trkpt lat="46.19568" lon="6.72921">
        <ele>1715.6</ele>
        <time>2013-08-25T07:27:50Z</time>
      </trkpt>
      <trkpt lat="46.19568" lon="6.72915">
        <ele>1715.1</ele>
        <time>2013-08-25T07:27:51Z</time>
      </trkpt>
      <trkpt lat="46.19568" lon="6.72895">
        <ele>1713.7</ele>
        <time>2013-08-25T07:27:54Z</time>
      </trkpt>
      <trkpt lat="46.19568" lon="6.72888">
        <ele>1712.3</ele>
        <time>2013-08-25T07:27:55Z</time>
      </trkpt>
      <trkpt lat="46.19569" lon="6.72881">
        <ele>1712.3</ele>
        <time>2013-08-25T07:27:56Z</time>
      </trkpt>
      <trkpt lat="46.19568" lon="6.72853">
        <ele>1709.4</ele>
        <time>2013-08-25T07:28:01Z</time>
      </trkpt>
      <trkpt lat="46.19566" lon="6.72852">
        <ele>1707.9</ele>
        <time>2013-08-25T07:28:02Z</time>
      </trkpt>
      <trkpt lat="46.19564" lon="6.72848">
        <ele>1706.5</ele>
        <time>2013-08-25T07:28:03Z</time>
      </trkpt>
      <trkpt lat="46.19563" lon="6.72843">
        <ele>1706</ele>
        <time>2013-08-25T07:28:04Z</time>
      </trkpt>
      <trkpt lat="46.19563" lon="6.72833">
        <ele>1705</ele>
        <time>2013-08-25T07:28:06Z</time>
      </trkpt>
      <trkpt lat="46.19559" lon="6.72814">
        <ele>1701.7</ele>
        <time>2013-08-25T07:28:10Z</time>
      </trkpt>
      <trkpt lat="46.19562" lon="6.72801">
        <ele>1698.8</ele>
        <time>2013-08-25T07:28:14Z</time>
      </trkpt>
      <trkpt lat="46.19547" lon="6.7281">
        <ele>1696.9</ele>
        <time>2013-08-25T07:28:18Z</time>
      </trkpt>
      <trkpt lat="46.19528" lon="6.72825">
        <ele>1694</ele>
        <time>2013-08-25T07:28:25Z</time>
      </trkpt>
      <trkpt lat="46.19526" lon="6.72825">
        <ele>1693.5</ele>
        <time>2013-08-25T07:28:36Z</time>
      </trkpt>
      <trkpt lat="46.19527" lon="6.7281">
        <ele>1693</ele>
        <time>2013-08-25T07:28:45Z</time>
      </trkpt>
      <trkpt lat="46.19517" lon="6.72811">
        <ele>1690.1</ele>
        <time>2013-08-25T07:28:49Z</time>
      </trkpt>
      <trkpt lat="46.19509" lon="6.72801">
        <ele>1686.8</ele>
        <time>2013-08-25T07:28:53Z</time>
      </trkpt>
      <trkpt lat="46.19502" lon="6.72784">
        <ele>1682.4</ele>
        <time>2013-08-25T07:28:57Z</time>
      </trkpt>
      <trkpt lat="46.19503" lon="6.72778">
        <ele>1682.9</ele>
        <time>2013-08-25T07:28:58Z</time>
      </trkpt>
      <trkpt lat="46.19504" lon="6.72773">
        <ele>1682.4</ele>
        <time>2013-08-25T07:28:59Z</time>
      </trkpt>
      <trkpt lat="46.1951" lon="6.72748">
        <ele>1678.6</ele>
        <time>2013-08-25T07:29:02Z</time>
      </trkpt>
      <trkpt lat="46.19521" lon="6.72707">
        <ele>1676.7</ele>
        <time>2013-08-25T07:29:08Z</time>
      </trkpt>
      <trkpt lat="46.19529" lon="6.72667">
        <ele>1673.3</ele>
        <time>2013-08-25T07:29:15Z</time>
      </trkpt>
      <trkpt lat="46.19528" lon="6.72655">
        <ele>1672.4</ele>
        <time>2013-08-25T07:29:18Z</time>
      </trkpt>
      <trkpt lat="46.19537" lon="6.72632">
        <ele>1668.5</ele>
        <time>2013-08-25T07:29:22Z</time>
      </trkpt>
      <trkpt lat="46.19538" lon="6.7262">
        <ele>1666.6</ele>
        <time>2013-08-25T07:29:25Z</time>
      </trkpt>
      <trkpt lat="46.19539" lon="6.72602">
        <ele>1664.7</ele>
        <time>2013-08-25T07:29:30Z</time>
      </trkpt>
      <trkpt lat="46.19535" lon="6.72595">
        <ele>1663.2</ele>
        <time>2013-08-25T07:29:33Z</time>
      </trkpt>
      <trkpt lat="46.19522" lon="6.72582">
        <ele>1659.9</ele>
        <time>2013-08-25T07:29:38Z</time>
      </trkpt>
      <trkpt lat="46.19521" lon="6.72579">
        <ele>1658.9</ele>
        <time>2013-08-25T07:29:39Z</time>
      </trkpt>
      <trkpt lat="46.19506" lon="6.72561">
        <ele>1656.5</ele>
        <time>2013-08-25T07:29:43Z</time>
      </trkpt>
      <trkpt lat="46.19506" lon="6.72557">
        <ele>1656</ele>
        <time>2013-08-25T07:29:44Z</time>
      </trkpt>
      <trkpt lat="46.19489" lon="6.72546">
        <ele>1653.6</ele>
        <time>2013-08-25T07:29:48Z</time>
      </trkpt>
      <trkpt lat="46.19477" lon="6.72538">
        <ele>1651.2</ele>
        <time>2013-08-25T07:29:50Z</time>
      </trkpt>
      <trkpt lat="46.19447" lon="6.72516">
        <ele>1648.3</ele>
        <time>2013-08-25T07:29:58Z</time>
      </trkpt>
      <trkpt lat="46.19443" lon="6.72513">
        <ele>1646.9</ele>
        <time>2013-08-25T07:29:59Z</time>
      </trkpt>
      <trkpt lat="46.19444" lon="6.72495">
        <ele>1644</ele>
        <time>2013-08-25T07:30:04Z</time>
      </trkpt>
      <trkpt lat="46.1946" lon="6.72482">
        <ele>1642.1</ele>
        <time>2013-08-25T07:30:11Z</time>
      </trkpt>
      <trkpt lat="46.19458" lon="6.72482">
        <ele>1641.6</ele>
        <time>2013-08-25T07:30:12Z</time>
      </trkpt>
      <trkpt lat="46.19452" lon="6.72482">
        <ele>1642.6</ele>
        <time>2013-08-25T07:30:22Z</time>
      </trkpt>
      <trkpt lat="46.19445" lon="6.72476">
        <ele>1641.6</ele>
        <time>2013-08-25T07:30:25Z</time>
      </trkpt>
      <trkpt lat="46.19443" lon="6.72458">
        <ele>1639.2</ele>
        <time>2013-08-25T07:30:29Z</time>
      </trkpt>
      <trkpt lat="46.19447" lon="6.72443">
        <ele>1638.2</ele>
        <time>2013-08-25T07:30:31Z</time>
      </trkpt>
      <trkpt lat="46.19431" lon="6.72441">
        <ele>1636.8</ele>
        <time>2013-08-25T07:30:38Z</time>
      </trkpt>
      <trkpt lat="46.19424" lon="6.72436">
        <ele>1635.8</ele>
        <time>2013-08-25T07:30:43Z</time>
      </trkpt>
      <trkpt lat="46.19424" lon="6.72413">
        <ele>1632</ele>
        <time>2013-08-25T07:30:48Z</time>
      </trkpt>
      <trkpt lat="46.19425" lon="6.72397">
        <ele>1630.1</ele>
        <time>2013-08-25T07:30:51Z</time>
      </trkpt>
      <trkpt lat="46.19428" lon="6.7239">
        <ele>1630.1</ele>
        <time>2013-08-25T07:30:53Z</time>
      </trkpt>
      <trkpt lat="46.19433" lon="6.72372">
        <ele>1627.2</ele>
        <time>2013-08-25T07:30:57Z</time>
      </trkpt>
      <trkpt lat="46.19433" lon="6.72357">
        <ele>1622.8</ele>
        <time>2013-08-25T07:31:05Z</time>
      </trkpt>
      <trkpt lat="46.19433" lon="6.72354">
        <ele>1622.8</ele>
        <time>2013-08-25T07:31:06Z</time>
      </trkpt>
      <trkpt lat="46.19429" lon="6.7235">
        <ele>1620.4</ele>
        <time>2013-08-25T07:31:08Z</time>
      </trkpt>
      <trkpt lat="46.19418" lon="6.7232">
        <ele>1617.1</ele>
        <time>2013-08-25T07:31:15Z</time>
      </trkpt>
      <trkpt lat="46.19416" lon="6.72317">
        <ele>1616.6</ele>
        <time>2013-08-25T07:31:16Z</time>
      </trkpt>
      <trkpt lat="46.19414" lon="6.72314">
        <ele>1616.1</ele>
        <time>2013-08-25T07:31:17Z</time>
      </trkpt>
      <trkpt lat="46.19411" lon="6.72312">
        <ele>1616.1</ele>
        <time>2013-08-25T07:31:18Z</time>
      </trkpt>
      <trkpt lat="46.19401" lon="6.72314">
        <ele>1615.6</ele>
        <time>2013-08-25T07:31:28Z</time>
      </trkpt>
      <trkpt lat="46.19402" lon="6.72312">
        <ele>1615.6</ele>
        <time>2013-08-25T07:31:29Z</time>
      </trkpt>
      <trkpt lat="46.19402" lon="6.7231">
        <ele>1615.2</ele>
        <time>2013-08-25T07:31:30Z</time>
      </trkpt>
      <trkpt lat="46.194" lon="6.72308">
        <ele>1616.1</ele>
        <time>2013-08-25T07:31:31Z</time>
      </trkpt>
      <trkpt lat="46.19399" lon="6.72304">
        <ele>1614.7</ele>
        <time>2013-08-25T07:31:32Z</time>
      </trkpt>
      <trkpt lat="46.19398" lon="6.72299">
        <ele>1614.2</ele>
        <time>2013-08-25T07:31:33Z</time>
      </trkpt>
      <trkpt lat="46.19397" lon="6.72294">
        <ele>1612.8</ele>
        <time>2013-08-25T07:31:34Z</time>
      </trkpt>
      <trkpt lat="46.19397" lon="6.72289">
        <ele>1612.8</ele>
        <time>2013-08-25T07:31:35Z</time>
      </trkpt>
      <trkpt lat="46.19399" lon="6.72285">
        <ele>1613.7</ele>
        <time>2013-08-25T07:31:36Z</time>
      </trkpt>
      <trkpt lat="46.19404" lon="6.72279">
        <ele>1614.7</ele>
        <time>2013-08-25T07:31:39Z</time>
      </trkpt>
      <trkpt lat="46.19406" lon="6.72264">
        <ele>1612.8</ele>
        <time>2013-08-25T07:31:43Z</time>
      </trkpt>
      <trkpt lat="46.19401" lon="6.72257">
        <ele>1610.8</ele>
        <time>2013-08-25T07:31:46Z</time>
      </trkpt>
      <trkpt lat="46.19389" lon="6.72253">
        <ele>1607.5</ele>
        <time>2013-08-25T07:31:50Z</time>
      </trkpt>
      <trkpt lat="46.19377" lon="6.72254">
        <ele>1607</ele>
        <time>2013-08-25T07:31:52Z</time>
      </trkpt>
      <trkpt lat="46.19363" lon="6.72239">
        <ele>1603.6</ele>
        <time>2013-08-25T07:31:56Z</time>
      </trkpt>
      <trkpt lat="46.19359" lon="6.72237">
        <ele>1603.1</ele>
        <time>2013-08-25T07:31:57Z</time>
      </trkpt>
      <trkpt lat="46.19355" lon="6.72236">
        <ele>1602.7</ele>
        <time>2013-08-25T07:31:58Z</time>
      </trkpt>
      <trkpt lat="46.1935" lon="6.72236">
        <ele>1602.2</ele>
        <time>2013-08-25T07:31:59Z</time>
      </trkpt>
      <trkpt lat="46.19347" lon="6.72239">
        <ele>1601.7</ele>
        <time>2013-08-25T07:32:00Z</time>
      </trkpt>
      <trkpt lat="46.19345" lon="6.72243">
        <ele>1601.2</ele>
        <time>2013-08-25T07:32:01Z</time>
      </trkpt>
      <trkpt lat="46.19342" lon="6.72241">
        <ele>1600.7</ele>
        <time>2013-08-25T07:32:02Z</time>
      </trkpt>
      <trkpt lat="46.19341" lon="6.72238">
        <ele>1599.8</ele>
        <time>2013-08-25T07:32:03Z</time>
      </trkpt>
      <trkpt lat="46.19339" lon="6.72235">
        <ele>1598.8</ele>
        <time>2013-08-25T07:32:04Z</time>
      </trkpt>
      <trkpt lat="46.19337" lon="6.72234">
        <ele>1598.3</ele>
        <time>2013-08-25T07:32:05Z</time>
      </trkpt>
      <trkpt lat="46.19333" lon="6.72234">
        <ele>1597.9</ele>
        <time>2013-08-25T07:32:06Z</time>
      </trkpt>
      <trkpt lat="46.19329" lon="6.72236">
        <ele>1596.4</ele>
        <time>2013-08-25T07:32:07Z</time>
      </trkpt>
      <trkpt lat="46.19325" lon="6.72238">
        <ele>1596.9</ele>
        <time>2013-08-25T07:32:08Z</time>
      </trkpt>
      <trkpt lat="46.19322" lon="6.7224">
        <ele>1596.9</ele>
        <time>2013-08-25T07:32:09Z</time>
      </trkpt>
      <trkpt lat="46.19319" lon="6.72242">
        <ele>1595.9</ele>
        <time>2013-08-25T07:32:10Z</time>
      </trkpt>
      <trkpt lat="46.19314" lon="6.72244">
        <ele>1595</ele>
        <time>2013-08-25T07:32:11Z</time>
      </trkpt>
      <trkpt lat="46.19311" lon="6.72244">
        <ele>1594</ele>
        <time>2013-08-25T07:32:12Z</time>
      </trkpt>
      <trkpt lat="46.1931" lon="6.72246">
        <ele>1593.5</ele>
        <time>2013-08-25T07:32:13Z</time>
      </trkpt>
      <trkpt lat="46.19307" lon="6.72251">
        <ele>1594</ele>
        <time>2013-08-25T07:32:16Z</time>
      </trkpt>
      <trkpt lat="46.19306" lon="6.72252">
        <ele>1593.5</ele>
        <time>2013-08-25T07:32:17Z</time>
      </trkpt>
      <trkpt lat="46.19304" lon="6.72253">
        <ele>1594</ele>
        <time>2013-08-25T07:32:18Z</time>
      </trkpt>
      <trkpt lat="46.19303" lon="6.72253">
        <ele>1593</ele>
        <time>2013-08-25T07:32:19Z</time>
      </trkpt>
      <trkpt lat="46.19301" lon="6.72254">
        <ele>1593</ele>
        <time>2013-08-25T07:32:20Z</time>
      </trkpt>
      <trkpt lat="46.19298" lon="6.72254">
        <ele>1592.1</ele>
        <time>2013-08-25T07:32:21Z</time>
      </trkpt>
      <trkpt lat="46.19285" lon="6.72252">
        <ele>1588.7</ele>
        <time>2013-08-25T07:32:25Z</time>
      </trkpt>
      <trkpt lat="46.19278" lon="6.7225">
        <ele>1588.2</ele>
        <time>2013-08-25T07:32:27Z</time>
      </trkpt>
      <trkpt lat="46.19265" lon="6.72251">
        <ele>1585.8</ele>
        <time>2013-08-25T07:32:29Z</time>
      </trkpt>
      <trkpt lat="46.19245" lon="6.72249">
        <ele>1582</ele>
        <time>2013-08-25T07:32:33Z</time>
      </trkpt>
      <trkpt lat="46.1924" lon="6.72248">
        <ele>1582</ele>
        <time>2013-08-25T07:32:34Z</time>
      </trkpt>
      <trkpt lat="46.19225" lon="6.72248">
        <ele>1579.6</ele>
        <time>2013-08-25T07:32:38Z</time>
      </trkpt>
      <trkpt lat="46.19206" lon="6.72254">
        <ele>1576.7</ele>
        <time>2013-08-25T07:32:44Z</time>
      </trkpt>
      <trkpt lat="46.19202" lon="6.72256">
        <ele>1575.7</ele>
        <time>2013-08-25T07:32:45Z</time>
      </trkpt>
      <trkpt lat="46.19197" lon="6.72258">
        <ele>1575.3</ele>
        <time>2013-08-25T07:32:46Z</time>
      </trkpt>
      <trkpt lat="46.19192" lon="6.7226">
        <ele>1574.8</ele>
        <time>2013-08-25T07:32:47Z</time>
      </trkpt>
      <trkpt lat="46.19187" lon="6.72261">
        <ele>1573.8</ele>
        <time>2013-08-25T07:32:48Z</time>
      </trkpt>
      <trkpt lat="46.19182" lon="6.72261">
        <ele>1573.8</ele>
        <time>2013-08-25T07:32:49Z</time>
      </trkpt>
      <trkpt lat="46.19169" lon="6.72265">
        <ele>1570.5</ele>
        <time>2013-08-25T07:32:52Z</time>
      </trkpt>
      <trkpt lat="46.19166" lon="6.72265">
        <ele>1570.5</ele>
        <time>2013-08-25T07:32:53Z</time>
      </trkpt>
      <trkpt lat="46.19162" lon="6.72268">
        <ele>1569.5</ele>
        <time>2013-08-25T07:33:03Z</time>
      </trkpt>
      <trkpt lat="46.1916" lon="6.72267">
        <ele>1570</ele>
        <time>2013-08-25T07:33:14Z</time>
      </trkpt>
      <trkpt lat="46.19159" lon="6.72268">
        <ele>1569.5</ele>
        <time>2013-08-25T07:33:15Z</time>
      </trkpt>
      <trkpt lat="46.19157" lon="6.72269">
        <ele>1569.5</ele>
        <time>2013-08-25T07:33:16Z</time>
      </trkpt>
      <trkpt lat="46.19154" lon="6.72269">
        <ele>1569.5</ele>
        <time>2013-08-25T07:33:17Z</time>
      </trkpt>
      <trkpt lat="46.19151" lon="6.72268">
        <ele>1569</ele>
        <time>2013-08-25T07:33:18Z</time>
      </trkpt>
      <trkpt lat="46.19149" lon="6.72267">
        <ele>1568.5</ele>
        <time>2013-08-25T07:33:19Z</time>
      </trkpt>
      <trkpt lat="46.19148" lon="6.72266">
        <ele>1567.6</ele>
        <time>2013-08-25T07:33:20Z</time>
      </trkpt>
      <trkpt lat="46.19147" lon="6.72263">
        <ele>1567.6</ele>
        <time>2013-08-25T07:33:21Z</time>
      </trkpt>
      <trkpt lat="46.19146" lon="6.72259">
        <ele>1566.1</ele>
        <time>2013-08-25T07:33:23Z</time>
      </trkpt>
      <trkpt lat="46.19147" lon="6.72244">
        <ele>1564.2</ele>
        <time>2013-08-25T07:33:27Z</time>
      </trkpt>
      <trkpt lat="46.19147" lon="6.72236">
        <ele>1561.3</ele>
        <time>2013-08-25T07:33:29Z</time>
      </trkpt>
      <trkpt lat="46.19149" lon="6.72228">
        <ele>1559.9</ele>
        <time>2013-08-25T07:33:31Z</time>
      </trkpt>
      <trkpt lat="46.19153" lon="6.72224">
        <ele>1558.4</ele>
        <time>2013-08-25T07:33:33Z</time>
      </trkpt>
      <trkpt lat="46.19155" lon="6.72223">
        <ele>1558.4</ele>
        <time>2013-08-25T07:33:34Z</time>
      </trkpt>
      <trkpt lat="46.19165" lon="6.72218">
        <ele>1557.5</ele>
        <time>2013-08-25T07:33:46Z</time>
      </trkpt>
      <trkpt lat="46.19166" lon="6.72217">
        <ele>1558</ele>
        <time>2013-08-25T07:34:08Z</time>
      </trkpt>
      <trkpt lat="46.19167" lon="6.72217">
        <ele>1558</ele>
        <time>2013-08-25T07:34:09Z</time>
      </trkpt>
      <trkpt lat="46.19169" lon="6.72216">
        <ele>1557.5</ele>
        <time>2013-08-25T07:34:10Z</time>
      </trkpt>
      <trkpt lat="46.19171" lon="6.72214">
        <ele>1557</ele>
        <time>2013-08-25T07:34:11Z</time>
      </trkpt>
      <trkpt lat="46.19173" lon="6.72213">
        <ele>1558</ele>
        <time>2013-08-25T07:34:12Z</time>
      </trkpt>
      <trkpt lat="46.19176" lon="6.7221">
        <ele>1557</ele>
        <time>2013-08-25T07:34:13Z</time>
      </trkpt>
      <trkpt lat="46.19179" lon="6.72207">
        <ele>1557</ele>
        <time>2013-08-25T07:34:14Z</time>
      </trkpt>
      <trkpt lat="46.19183" lon="6.72203">
        <ele>1556.5</ele>
        <time>2013-08-25T07:34:15Z</time>
      </trkpt>
      <trkpt lat="46.19189" lon="6.72193">
        <ele>1556</ele>
        <time>2013-08-25T07:34:17Z</time>
      </trkpt>
      <trkpt lat="46.19192" lon="6.72187">
        <ele>1555.6</ele>
        <time>2013-08-25T07:34:18Z</time>
      </trkpt>
      <trkpt lat="46.19193" lon="6.72181">
        <ele>1554.6</ele>
        <time>2013-08-25T07:34:19Z</time>
      </trkpt>
      <trkpt lat="46.19195" lon="6.72175">
        <ele>1553.6</ele>
        <time>2013-08-25T07:34:20Z</time>
      </trkpt>
      <trkpt lat="46.19196" lon="6.72169">
        <ele>1553.6</ele>
        <time>2013-08-25T07:34:21Z</time>
      </trkpt>
      <trkpt lat="46.19198" lon="6.72163">
        <ele>1553.2</ele>
        <time>2013-08-25T07:34:22Z</time>
      </trkpt>
      <trkpt lat="46.192" lon="6.72158">
        <ele>1553.2</ele>
        <time>2013-08-25T07:34:23Z</time>
      </trkpt>
      <trkpt lat="46.19207" lon="6.72141">
        <ele>1549.8</ele>
        <time>2013-08-25T07:34:26Z</time>
      </trkpt>
      <trkpt lat="46.19213" lon="6.72131">
        <ele>1547.4</ele>
        <time>2013-08-25T07:34:28Z</time>
      </trkpt>
      <trkpt lat="46.19216" lon="6.72126">
        <ele>1547.4</ele>
        <time>2013-08-25T07:34:29Z</time>
      </trkpt>
      <trkpt lat="46.19219" lon="6.7212">
        <ele>1546.4</ele>
        <time>2013-08-25T07:34:30Z</time>
      </trkpt>
      <trkpt lat="46.19229" lon="6.72101">
        <ele>1543.5</ele>
        <time>2013-08-25T07:34:34Z</time>
      </trkpt>
      <trkpt lat="46.19233" lon="6.72094">
        <ele>1542.6</ele>
        <time>2013-08-25T07:34:36Z</time>
      </trkpt>
      <trkpt lat="46.19242" lon="6.72082">
        <ele>1540.2</ele>
        <time>2013-08-25T07:34:40Z</time>
      </trkpt>
      <trkpt lat="46.19263" lon="6.72049">
        <ele>1537.3</ele>
        <time>2013-08-25T07:34:50Z</time>
      </trkpt>
      <trkpt lat="46.19268" lon="6.72036">
        <ele>1535.8</ele>
        <time>2013-08-25T07:34:53Z</time>
      </trkpt>
      <trkpt lat="46.1927" lon="6.72022">
        <ele>1534.4</ele>
        <time>2013-08-25T07:34:56Z</time>
      </trkpt>
      <trkpt lat="46.19275" lon="6.72008">
        <ele>1532.5</ele>
        <time>2013-08-25T07:34:59Z</time>
      </trkpt>
      <trkpt lat="46.19278" lon="6.72003">
        <ele>1532</ele>
        <time>2013-08-25T07:35:00Z</time>
      </trkpt>
      <trkpt lat="46.19284" lon="6.71995">
        <ele>1530.6</ele>
        <time>2013-08-25T07:35:02Z</time>
      </trkpt>
      <trkpt lat="46.19289" lon="6.71988">
        <ele>1529.1</ele>
        <time>2013-08-25T07:35:04Z</time>
      </trkpt>
      <trkpt lat="46.19306" lon="6.71964">
        <ele>1525.8</ele>
        <time>2013-08-25T07:35:13Z</time>
      </trkpt>
      <trkpt lat="46.19325" lon="6.71944">
        <ele>1524.8</ele>
        <time>2013-08-25T07:35:22Z</time>
      </trkpt>
      <trkpt lat="46.19329" lon="6.71949">
        <ele>1524.8</ele>
        <time>2013-08-25T07:35:40Z</time>
      </trkpt>
      <trkpt lat="46.19345" lon="6.71941">
        <ele>1522.4</ele>
        <time>2013-08-25T07:35:46Z</time>
      </trkpt>
      <trkpt lat="46.1936" lon="6.71932">
        <ele>1520.9</ele>
        <time>2013-08-25T07:35:50Z</time>
      </trkpt>
      <trkpt lat="46.19362" lon="6.7193">
        <ele>1520.9</ele>
        <time>2013-08-25T07:35:51Z</time>
      </trkpt>
      <trkpt lat="46.19363" lon="6.71927">
        <ele>1520.5</ele>
        <time>2013-08-25T07:35:52Z</time>
      </trkpt>
      <trkpt lat="46.19363" lon="6.71925">
        <ele>1520.5</ele>
        <time>2013-08-25T07:35:54Z</time>
      </trkpt>
      <trkpt lat="46.19361" lon="6.71924">
        <ele>1520</ele>
        <time>2013-08-25T07:35:55Z</time>
      </trkpt>
      <trkpt lat="46.19359" lon="6.71922">
        <ele>1520</ele>
        <time>2013-08-25T07:35:56Z</time>
      </trkpt>
      <trkpt lat="46.19357" lon="6.7192">
        <ele>1519.5</ele>
        <time>2013-08-25T07:35:57Z</time>
      </trkpt>
      <trkpt lat="46.19355" lon="6.71919">
        <ele>1519</ele>
        <time>2013-08-25T07:35:58Z</time>
      </trkpt>
      <trkpt lat="46.19353" lon="6.71917">
        <ele>1518.5</ele>
        <time>2013-08-25T07:35:59Z</time>
      </trkpt>
      <trkpt lat="46.19351" lon="6.71917">
        <ele>1518.1</ele>
        <time>2013-08-25T07:36:00Z</time>
      </trkpt>
      <trkpt lat="46.19342" lon="6.71911">
        <ele>1515.2</ele>
        <time>2013-08-25T07:36:04Z</time>
      </trkpt>
      <trkpt lat="46.19332" lon="6.71902">
        <ele>1511.3</ele>
        <time>2013-08-25T07:36:07Z</time>
      </trkpt>
      <trkpt lat="46.19328" lon="6.71896">
        <ele>1510.4</ele>
        <time>2013-08-25T07:36:09Z</time>
      </trkpt>
      <trkpt lat="46.19323" lon="6.71886">
        <ele>1507</ele>
        <time>2013-08-25T07:36:12Z</time>
      </trkpt>
      <trkpt lat="46.19315" lon="6.71854">
        <ele>1502.2</ele>
        <time>2013-08-25T07:36:18Z</time>
      </trkpt>
      <trkpt lat="46.19308" lon="6.71837">
        <ele>1499.3</ele>
        <time>2013-08-25T07:36:22Z</time>
      </trkpt>
      <trkpt lat="46.19307" lon="6.71837">
        <ele>1498.4</ele>
        <time>2013-08-25T07:36:32Z</time>
      </trkpt>
      <trkpt lat="46.19308" lon="6.71846">
        <ele>1497.4</ele>
        <time>2013-08-25T07:36:58Z</time>
      </trkpt>
      <trkpt lat="46.1931" lon="6.71842">
        <ele>1497.9</ele>
        <time>2013-08-25T07:37:33Z</time>
      </trkpt>
      <trkpt lat="46.19306" lon="6.7184">
        <ele>1497.9</ele>
        <time>2013-08-25T07:38:01Z</time>
      </trkpt>
      <trkpt lat="46.19307" lon="6.71841">
        <ele>1497.9</ele>
        <time>2013-08-25T07:38:37Z</time>
      </trkpt>
      <trkpt lat="46.19307" lon="6.7184">
        <ele>1498.4</ele>
        <time>2013-08-25T07:39:13Z</time>
      </trkpt>
      <trkpt lat="46.19307" lon="6.71833">
        <ele>1497.9</ele>
        <time>2013-08-25T07:39:49Z</time>
      </trkpt>
      <trkpt lat="46.19301" lon="6.71838">
        <ele>1497.4</ele>
        <time>2013-08-25T07:40:28Z</time>
      </trkpt>
      <trkpt lat="46.19307" lon="6.71836">
        <ele>1498.8</ele>
        <time>2013-08-25T07:41:07Z</time>
      </trkpt>
      <trkpt lat="46.19306" lon="6.71836">
        <ele>1498.4</ele>
        <time>2013-08-25T07:41:36Z</time>
      </trkpt>
      <trkpt lat="46.19303" lon="6.71839">
        <ele>1498.4</ele>
        <time>2013-08-25T07:41:59Z</time>
      </trkpt>
      <trkpt lat="46.19295" lon="6.7183">
        <ele>1497.9</ele>
        <time>2013-08-25T07:42:14Z</time>
      </trkpt>
      <trkpt lat="46.19285" lon="6.71815">
        <ele>1493.1</ele>
        <time>2013-08-25T07:42:18Z</time>
      </trkpt>
      <trkpt lat="46.19282" lon="6.71811">
        <ele>1493.1</ele>
        <time>2013-08-25T07:42:19Z</time>
      </trkpt>
      <trkpt lat="46.19279" lon="6.71807">
        <ele>1491.6</ele>
        <time>2013-08-25T07:42:20Z</time>
      </trkpt>
      <trkpt lat="46.19268" lon="6.71794">
        <ele>1490.2</ele>
        <time>2013-08-25T07:42:23Z</time>
      </trkpt>
      <trkpt lat="46.19265" lon="6.71793">
        <ele>1489.7</ele>
        <time>2013-08-25T07:42:24Z</time>
      </trkpt>
      <trkpt lat="46.19261" lon="6.71792">
        <ele>1489.7</ele>
        <time>2013-08-25T07:42:25Z</time>
      </trkpt>
      <trkpt lat="46.19258" lon="6.71791">
        <ele>1489.2</ele>
        <time>2013-08-25T07:42:26Z</time>
      </trkpt>
      <trkpt lat="46.19253" lon="6.7179">
        <ele>1488.7</ele>
        <time>2013-08-25T07:42:27Z</time>
      </trkpt>
      <trkpt lat="46.19249" lon="6.71789">
        <ele>1488.3</ele>
        <time>2013-08-25T07:42:28Z</time>
      </trkpt>
      <trkpt lat="46.19239" lon="6.71788">
        <ele>1486.8</ele>
        <time>2013-08-25T07:42:30Z</time>
      </trkpt>
      <trkpt lat="46.19222" lon="6.7179">
        <ele>1484.4</ele>
        <time>2013-08-25T07:42:33Z</time>
      </trkpt>
      <trkpt lat="46.19199" lon="6.71791">
        <ele>1481.1</ele>
        <time>2013-08-25T07:42:37Z</time>
      </trkpt>
      <trkpt lat="46.19194" lon="6.71792">
        <ele>1481.1</ele>
        <time>2013-08-25T07:42:38Z</time>
      </trkpt>
      <trkpt lat="46.19189" lon="6.71794">
        <ele>1479.1</ele>
        <time>2013-08-25T07:42:39Z</time>
      </trkpt>
      <trkpt lat="46.19183" lon="6.71797">
        <ele>1479.6</ele>
        <time>2013-08-25T07:42:40Z</time>
      </trkpt>
      <trkpt lat="46.19167" lon="6.71804">
        <ele>1476.2</ele>
        <time>2013-08-25T07:42:43Z</time>
      </trkpt>
      <trkpt lat="46.19151" lon="6.71811">
        <ele>1473.4</ele>
        <time>2013-08-25T07:42:46Z</time>
      </trkpt>
      <trkpt lat="46.19135" lon="6.71821">
        <ele>1471</ele>
        <time>2013-08-25T07:42:49Z</time>
      </trkpt>
      <trkpt lat="46.19118" lon="6.7183">
        <ele>1469</ele>
        <time>2013-08-25T07:42:56Z</time>
      </trkpt>
      <trkpt lat="46.19099" lon="6.71818">
        <ele>1469.5</ele>
        <time>2013-08-25T07:43:07Z</time>
      </trkpt>
      <trkpt lat="46.19099" lon="6.71818">
        <ele>1469.5</ele>
        <time>2013-08-25T07:43:22Z</time>
      </trkpt>
      <trkpt lat="46.19101" lon="6.71815">
        <ele>1469</ele>
        <time>2013-08-25T07:43:42Z</time>
      </trkpt>
      <trkpt lat="46.19102" lon="6.71816">
        <ele>1469.5</ele>
        <time>2013-08-25T07:43:43Z</time>
      </trkpt>
      <trkpt lat="46.19105" lon="6.71817">
        <ele>1469.5</ele>
        <time>2013-08-25T07:43:45Z</time>
      </trkpt>
      <trkpt lat="46.19106" lon="6.71818">
        <ele>1469</ele>
        <time>2013-08-25T07:43:47Z</time>
      </trkpt>
      <trkpt lat="46.19107" lon="6.71819">
        <ele>1469</ele>
        <time>2013-08-25T07:43:48Z</time>
      </trkpt>
      <trkpt lat="46.19107" lon="6.7182">
        <ele>1469.5</ele>
        <time>2013-08-25T07:43:49Z</time>
      </trkpt>
      <trkpt lat="46.1911" lon="6.71822">
        <ele>1469</ele>
        <time>2013-08-25T07:43:51Z</time>
      </trkpt>
      <trkpt lat="46.19123" lon="6.7182">
        <ele>1469.5</ele>
        <time>2013-08-25T07:43:58Z</time>
      </trkpt>
      <trkpt lat="46.19126" lon="6.71816">
        <ele>1468.6</ele>
        <time>2013-08-25T07:43:59Z</time>
      </trkpt>
      <trkpt lat="46.19129" lon="6.71812">
        <ele>1468.1</ele>
        <time>2013-08-25T07:44:00Z</time>
      </trkpt>
      <trkpt lat="46.19133" lon="6.71808">
        <ele>1468.1</ele>
        <time>2013-08-25T07:44:01Z</time>
      </trkpt>
      <trkpt lat="46.19137" lon="6.71804">
        <ele>1468.1</ele>
        <time>2013-08-25T07:44:02Z</time>
      </trkpt>
      <trkpt lat="46.19141" lon="6.71801">
        <ele>1469</ele>
        <time>2013-08-25T07:44:03Z</time>
      </trkpt>
      <trkpt lat="46.19163" lon="6.71779">
        <ele>1470.5</ele>
        <time>2013-08-25T07:44:16Z</time>
      </trkpt>
      <trkpt lat="46.19192" lon="6.7176">
        <ele>1473.4</ele>
        <time>2013-08-25T07:44:30Z</time>
      </trkpt>
      <trkpt lat="46.1922" lon="6.71738">
        <ele>1475.3</ele>
        <time>2013-08-25T07:44:44Z</time>
      </trkpt>
      <trkpt lat="46.19243" lon="6.71724">
        <ele>1476.2</ele>
        <time>2013-08-25T07:44:56Z</time>
      </trkpt>
      <trkpt lat="46.19243" lon="6.7172">
        <ele>1475.3</ele>
        <time>2013-08-25T07:45:07Z</time>
      </trkpt>
      <trkpt lat="46.19243" lon="6.71717">
        <ele>1471.9</ele>
        <time>2013-08-25T07:45:14Z</time>
      </trkpt>
      <trkpt lat="46.19243" lon="6.71717">
        <ele>1478.7</ele>
        <time>2013-08-25T07:45:15Z</time>
      </trkpt>
      <trkpt lat="46.19243" lon="6.71717">
        <ele>1471</ele>
        <time>2013-08-25T07:45:19Z</time>
      </trkpt>
      <trkpt lat="46.19243" lon="6.71716">
        <ele>1481.1</ele>
        <time>2013-08-25T07:45:20Z</time>
      </trkpt>
      <trkpt lat="46.19243" lon="6.71716">
        <ele>1476.2</ele>
        <time>2013-08-25T07:45:21Z</time>
      </trkpt>
      <trkpt lat="46.19241" lon="6.71716">
        <ele>1470.5</ele>
        <time>2013-08-25T07:45:25Z</time>
      </trkpt>
      <trkpt lat="46.19241" lon="6.71716">
        <ele>1481.1</ele>
        <time>2013-08-25T07:45:26Z</time>
      </trkpt>
      <trkpt lat="46.1924" lon="6.71717">
        <ele>1481.1</ele>
        <time>2013-08-25T07:45:27Z</time>
      </trkpt>
      <trkpt lat="46.1924" lon="6.71717">
        <ele>1476.2</ele>
        <time>2013-08-25T07:45:28Z</time>
      </trkpt>
      <trkpt lat="46.19239" lon="6.71718">
        <ele>1475.3</ele>
        <time>2013-08-25T07:45:30Z</time>
      </trkpt>
      <trkpt lat="46.19237" lon="6.71718">
        <ele>1471.4</ele>
        <time>2013-08-25T07:45:34Z</time>
      </trkpt>
      <trkpt lat="46.19237" lon="6.71718">
        <ele>1481.1</ele>
        <time>2013-08-25T07:45:35Z</time>
      </trkpt>
      <trkpt lat="46.19237" lon="6.71718">
        <ele>1475.3</ele>
        <time>2013-08-25T07:45:36Z</time>
      </trkpt>
      <trkpt lat="46.19238" lon="6.71718">
        <ele>1476.7</ele>
        <time>2013-08-25T07:45:53Z</time>
      </trkpt>
      <trkpt lat="46.1924" lon="6.7172">
        <ele>1476.2</ele>
        <time>2013-08-25T07:46:20Z</time>
      </trkpt>
      <trkpt lat="46.19243" lon="6.71719">
        <ele>1475.8</ele>
        <time>2013-08-25T07:46:47Z</time>
      </trkpt>
      <trkpt lat="46.19244" lon="6.71722">
        <ele>1477.2</ele>
        <time>2013-08-25T07:47:02Z</time>
      </trkpt>
      <trkpt lat="46.19247" lon="6.71723">
        <ele>1477.2</ele>
        <time>2013-08-25T07:47:29Z</time>
      </trkpt>
      <trkpt lat="46.19251" lon="6.71714">
        <ele>1473.8</ele>
        <time>2013-08-25T07:47:45Z</time>
      </trkpt>
      <trkpt lat="46.19257" lon="6.71706">
        <ele>1471.4</ele>
        <time>2013-08-25T07:47:56Z</time>
      </trkpt>
      <trkpt lat="46.19258" lon="6.71702">
        <ele>1469</ele>
        <time>2013-08-25T07:48:04Z</time>
      </trkpt>
      <trkpt lat="46.19257" lon="6.71699">
        <ele>1467.1</ele>
        <time>2013-08-25T07:48:08Z</time>
      </trkpt>
      <trkpt lat="46.19255" lon="6.71697">
        <ele>1465.7</ele>
        <time>2013-08-25T07:48:11Z</time>
      </trkpt>
      <trkpt lat="46.1925" lon="6.71696">
        <ele>1466.6</ele>
        <time>2013-08-25T07:48:25Z</time>
      </trkpt>
      <trkpt lat="46.19248" lon="6.71695">
        <ele>1466.6</ele>
        <time>2013-08-25T07:48:26Z</time>
      </trkpt>
      <trkpt lat="46.19247" lon="6.71695">
        <ele>1466.2</ele>
        <time>2013-08-25T07:48:27Z</time>
      </trkpt>
      <trkpt lat="46.19246" lon="6.71687">
        <ele>1465.7</ele>
        <time>2013-08-25T07:48:41Z</time>
      </trkpt>
      <trkpt lat="46.19243" lon="6.71684">
        <ele>1466.2</ele>
        <time>2013-08-25T07:48:47Z</time>
      </trkpt>
      <trkpt lat="46.19236" lon="6.71682">
        <ele>1466.2</ele>
        <time>2013-08-25T07:48:52Z</time>
      </trkpt>
      <trkpt lat="46.19235" lon="6.71679">
        <ele>1465.7</ele>
        <time>2013-08-25T07:48:53Z</time>
      </trkpt>
      <trkpt lat="46.19233" lon="6.71676">
        <ele>1464.7</ele>
        <time>2013-08-25T07:48:54Z</time>
      </trkpt>
      <trkpt lat="46.19232" lon="6.71671">
        <ele>1464.7</ele>
        <time>2013-08-25T07:48:55Z</time>
      </trkpt>
      <trkpt lat="46.19214" lon="6.71656">
        <ele>1460.9</ele>
        <time>2013-08-25T07:49:03Z</time>
      </trkpt>
      <trkpt lat="46.19208" lon="6.71654">
        <ele>1459.4</ele>
        <time>2013-08-25T07:49:06Z</time>
      </trkpt>
      <trkpt lat="46.19203" lon="6.71657">
        <ele>1457.5</ele>
        <time>2013-08-25T07:49:09Z</time>
      </trkpt>
      <trkpt lat="46.19187" lon="6.71661">
        <ele>1453.7</ele>
        <time>2013-08-25T07:49:16Z</time>
      </trkpt>
      <trkpt lat="46.19179" lon="6.71657">
        <ele>1450.3</ele>
        <time>2013-08-25T07:49:20Z</time>
      </trkpt>
      <trkpt lat="46.1917" lon="6.7165">
        <ele>1447.4</ele>
        <time>2013-08-25T07:49:27Z</time>
      </trkpt>
      <trkpt lat="46.1917" lon="6.71647">
        <ele>1447.4</ele>
        <time>2013-08-25T07:49:39Z</time>
      </trkpt>
      <trkpt lat="46.1917" lon="6.71646">
        <ele>1447.9</ele>
        <time>2013-08-25T07:49:40Z</time>
      </trkpt>
      <trkpt lat="46.1917" lon="6.71645">
        <ele>1446.9</ele>
        <time>2013-08-25T07:49:41Z</time>
      </trkpt>
      <trkpt lat="46.19171" lon="6.71644">
        <ele>1447.4</ele>
        <time>2013-08-25T07:49:42Z</time>
      </trkpt>
      <trkpt lat="46.19184" lon="6.71637">
        <ele>1444</ele>
        <time>2013-08-25T07:49:48Z</time>
      </trkpt>
      <trkpt lat="46.19188" lon="6.71631">
        <ele>1442.1</ele>
        <time>2013-08-25T07:49:51Z</time>
      </trkpt>
      <trkpt lat="46.19185" lon="6.71624">
        <ele>1440.7</ele>
        <time>2013-08-25T07:49:54Z</time>
      </trkpt>
      <trkpt lat="46.19184" lon="6.7161">
        <ele>1436.8</ele>
        <time>2013-08-25T07:50:00Z</time>
      </trkpt>
      <trkpt lat="46.19189" lon="6.71605">
        <ele>1436.4</ele>
        <time>2013-08-25T07:50:02Z</time>
      </trkpt>
      <trkpt lat="46.19196" lon="6.71596">
        <ele>1434.4</ele>
        <time>2013-08-25T07:50:07Z</time>
      </trkpt>
      <trkpt lat="46.19192" lon="6.71591">
        <ele>1432.5</ele>
        <time>2013-08-25T07:50:11Z</time>
      </trkpt>
      <trkpt lat="46.19193" lon="6.71583">
        <ele>1430.1</ele>
        <time>2013-08-25T07:50:19Z</time>
      </trkpt>
      <trkpt lat="46.19193" lon="6.71583">
        <ele>1431.1</ele>
        <time>2013-08-25T07:50:20Z</time>
      </trkpt>
      <trkpt lat="46.19188" lon="6.71579">
        <ele>1429.1</ele>
        <time>2013-08-25T07:50:23Z</time>
      </trkpt>
      <trkpt lat="46.19185" lon="6.7157">
        <ele>1426.3</ele>
        <time>2013-08-25T07:50:37Z</time>
      </trkpt>
      <trkpt lat="46.19176" lon="6.71564">
        <ele>1422.9</ele>
        <time>2013-08-25T07:50:52Z</time>
      </trkpt>
      <trkpt lat="46.19175" lon="6.71563">
        <ele>1422.9</ele>
        <time>2013-08-25T07:50:53Z</time>
      </trkpt>
      <trkpt lat="46.1918" lon="6.71552">
        <ele>1419.5</ele>
        <time>2013-08-25T07:50:58Z</time>
      </trkpt>
      <trkpt lat="46.19182" lon="6.71547">
        <ele>1418.1</ele>
        <time>2013-08-25T07:51:00Z</time>
      </trkpt>
      <trkpt lat="46.19192" lon="6.71538">
        <ele>1415.2</ele>
        <time>2013-08-25T07:51:05Z</time>
      </trkpt>
      <trkpt lat="46.19196" lon="6.71534">
        <ele>1412.8</ele>
        <time>2013-08-25T07:51:10Z</time>
      </trkpt>
      <trkpt lat="46.19195" lon="6.71526">
        <ele>1411.4</ele>
        <time>2013-08-25T07:51:13Z</time>
      </trkpt>
      <trkpt lat="46.19193" lon="6.71516">
        <ele>1408.5</ele>
        <time>2013-08-25T07:51:18Z</time>
      </trkpt>
      <trkpt lat="46.19191" lon="6.71513">
        <ele>1408.5</ele>
        <time>2013-08-25T07:51:20Z</time>
      </trkpt>
      <trkpt lat="46.19185" lon="6.71503">
        <ele>1405.6</ele>
        <time>2013-08-25T07:51:25Z</time>
      </trkpt>
      <trkpt lat="46.19186" lon="6.71499">
        <ele>1405.1</ele>
        <time>2013-08-25T07:51:30Z</time>
      </trkpt>
      <trkpt lat="46.19197" lon="6.71488">
        <ele>1400.3</ele>
        <time>2013-08-25T07:51:36Z</time>
      </trkpt>
      <trkpt lat="46.19204" lon="6.71478">
        <ele>1397.4</ele>
        <time>2013-08-25T07:51:42Z</time>
      </trkpt>
      <trkpt lat="46.192" lon="6.71469">
        <ele>1396</ele>
        <time>2013-08-25T07:51:57Z</time>
      </trkpt>
      <trkpt lat="46.19199" lon="6.7146">
        <ele>1396</ele>
        <time>2013-08-25T07:52:31Z</time>
      </trkpt>
      <trkpt lat="46.19197" lon="6.71454">
        <ele>1396</ele>
        <time>2013-08-25T07:52:53Z</time>
      </trkpt>
      <trkpt lat="46.19189" lon="6.7145">
        <ele>1393.6</ele>
        <time>2013-08-25T07:52:57Z</time>
      </trkpt>
      <trkpt lat="46.19176" lon="6.71441">
        <ele>1389.7</ele>
        <time>2013-08-25T07:53:04Z</time>
      </trkpt>
      <trkpt lat="46.19174" lon="6.71439">
        <ele>1388.8</ele>
        <time>2013-08-25T07:53:06Z</time>
      </trkpt>
      <trkpt lat="46.19172" lon="6.71433">
        <ele>1386.4</ele>
        <time>2013-08-25T07:53:18Z</time>
      </trkpt>
      <trkpt lat="46.19187" lon="6.71426">
        <ele>1383</ele>
        <time>2013-08-25T07:53:26Z</time>
      </trkpt>
      <trkpt lat="46.19194" lon="6.71417">
        <ele>1380.1</ele>
        <time>2013-08-25T07:53:35Z</time>
      </trkpt>
      <trkpt lat="46.19203" lon="6.71413">
        <ele>1379.6</ele>
        <time>2013-08-25T07:53:55Z</time>
      </trkpt>
      <trkpt lat="46.19203" lon="6.71412">
        <ele>1379.2</ele>
        <time>2013-08-25T07:53:56Z</time>
      </trkpt>
      <trkpt lat="46.19209" lon="6.71399">
        <ele>1376.3</ele>
        <time>2013-08-25T07:54:01Z</time>
      </trkpt>
      <trkpt lat="46.19226" lon="6.71388">
        <ele>1371.9</ele>
        <time>2013-08-25T07:54:08Z</time>
      </trkpt>
      <trkpt lat="46.19227" lon="6.71386">
        <ele>1371.9</ele>
        <time>2013-08-25T07:54:09Z</time>
      </trkpt>
      <trkpt lat="46.19229" lon="6.71376">
        <ele>1369.1</ele>
        <time>2013-08-25T07:54:15Z</time>
      </trkpt>
      <trkpt lat="46.19229" lon="6.71367">
        <ele>1365.7</ele>
        <time>2013-08-25T07:54:25Z</time>
      </trkpt>
      <trkpt lat="46.19224" lon="6.71359">
        <ele>1362.3</ele>
        <time>2013-08-25T07:54:39Z</time>
      </trkpt>
      <trkpt lat="46.19219" lon="6.71351">
        <ele>1358.5</ele>
        <time>2013-08-25T07:54:49Z</time>
      </trkpt>
      <trkpt lat="46.19217" lon="6.71348">
        <ele>1358</ele>
        <time>2013-08-25T07:54:51Z</time>
      </trkpt>
      <trkpt lat="46.19212" lon="6.71337">
        <ele>1354.6</ele>
        <time>2013-08-25T07:55:05Z</time>
      </trkpt>
      <trkpt lat="46.19212" lon="6.71321">
        <ele>1351.3</ele>
        <time>2013-08-25T07:55:16Z</time>
      </trkpt>
      <trkpt lat="46.19212" lon="6.7132">
        <ele>1348.4</ele>
        <time>2013-08-25T07:55:35Z</time>
      </trkpt>
      <trkpt lat="46.19205" lon="6.71312">
        <ele>1345.5</ele>
        <time>2013-08-25T07:55:43Z</time>
      </trkpt>
      <trkpt lat="46.19203" lon="6.71301">
        <ele>1342.1</ele>
        <time>2013-08-25T07:55:52Z</time>
      </trkpt>
      <trkpt lat="46.19203" lon="6.713">
        <ele>1342.1</ele>
        <time>2013-08-25T07:55:53Z</time>
      </trkpt>
      <trkpt lat="46.19214" lon="6.71285">
        <ele>1338.3</ele>
        <time>2013-08-25T07:56:01Z</time>
      </trkpt>
      <trkpt lat="46.19217" lon="6.71277">
        <ele>1336.4</ele>
        <time>2013-08-25T07:56:04Z</time>
      </trkpt>
      <trkpt lat="46.1922" lon="6.71267">
        <ele>1334.5</ele>
        <time>2013-08-25T07:56:08Z</time>
      </trkpt>
      <trkpt lat="46.19216" lon="6.71253">
        <ele>1333.5</ele>
        <time>2013-08-25T07:56:30Z</time>
      </trkpt>
      <trkpt lat="46.19211" lon="6.71252">
        <ele>1331.6</ele>
        <time>2013-08-25T07:56:52Z</time>
      </trkpt>
      <trkpt lat="46.19206" lon="6.71256">
        <ele>1328.7</ele>
        <time>2013-08-25T07:56:56Z</time>
      </trkpt>
      <trkpt lat="46.19202" lon="6.7125">
        <ele>1325.3</ele>
        <time>2013-08-25T07:57:06Z</time>
      </trkpt>
      <trkpt lat="46.19204" lon="6.71244">
        <ele>1323.9</ele>
        <time>2013-08-25T07:57:08Z</time>
      </trkpt>
      <trkpt lat="46.19203" lon="6.71224">
        <ele>1321</ele>
        <time>2013-08-25T07:57:16Z</time>
      </trkpt>
      <trkpt lat="46.192" lon="6.71215">
        <ele>1318.1</ele>
        <time>2013-08-25T07:57:32Z</time>
      </trkpt>
      <trkpt lat="46.19196" lon="6.71219">
        <ele>1315.7</ele>
        <time>2013-08-25T07:57:40Z</time>
      </trkpt>
      <trkpt lat="46.19195" lon="6.71223">
        <ele>1315.7</ele>
        <time>2013-08-25T07:57:56Z</time>
      </trkpt>
      <trkpt lat="46.19197" lon="6.71216">
        <ele>1315.2</ele>
        <time>2013-08-25T07:58:07Z</time>
      </trkpt>
      <trkpt lat="46.19192" lon="6.71204">
        <ele>1313.3</ele>
        <time>2013-08-25T07:58:11Z</time>
      </trkpt>
      <trkpt lat="46.19201" lon="6.71187">
        <ele>1310.9</ele>
        <time>2013-08-25T07:58:27Z</time>
      </trkpt>
      <trkpt lat="46.19208" lon="6.71182">
        <ele>1309.5</ele>
        <time>2013-08-25T07:58:44Z</time>
      </trkpt>
      <trkpt lat="46.19206" lon="6.71177">
        <ele>1306.1</ele>
        <time>2013-08-25T07:58:52Z</time>
      </trkpt>
      <trkpt lat="46.19209" lon="6.71172">
        <ele>1306.6</ele>
        <time>2013-08-25T07:59:18Z</time>
      </trkpt>
      <trkpt lat="46.19205" lon="6.71167">
        <ele>1305.1</ele>
        <time>2013-08-25T07:59:31Z</time>
      </trkpt>
      <trkpt lat="46.19203" lon="6.7116">
        <ele>1301.8</ele>
        <time>2013-08-25T07:59:39Z</time>
      </trkpt>
      <trkpt lat="46.19203" lon="6.71158">
        <ele>1302.2</ele>
        <time>2013-08-25T07:59:40Z</time>
      </trkpt>
      <trkpt lat="46.19206" lon="6.71148">
        <ele>1300.3</ele>
        <time>2013-08-25T07:59:57Z</time>
      </trkpt>
      <trkpt lat="46.19204" lon="6.71138">
        <ele>1297</ele>
        <time>2013-08-25T08:00:10Z</time>
      </trkpt>
      <trkpt lat="46.19211" lon="6.71128">
        <ele>1294.1</ele>
        <time>2013-08-25T08:00:21Z</time>
      </trkpt>
      <trkpt lat="46.19214" lon="6.71115">
        <ele>1290.7</ele>
        <time>2013-08-25T08:00:33Z</time>
      </trkpt>
      <trkpt lat="46.19213" lon="6.71112">
        <ele>1289.3</ele>
        <time>2013-08-25T08:00:37Z</time>
      </trkpt>
      <trkpt lat="46.19212" lon="6.71113">
        <ele>1288.3</ele>
        <time>2013-08-25T08:00:50Z</time>
      </trkpt>
      <trkpt lat="46.19204" lon="6.71124">
        <ele>1288.3</ele>
        <time>2013-08-25T08:01:05Z</time>
      </trkpt>
      <trkpt lat="46.19204" lon="6.71126">
        <ele>1287.3</ele>
        <time>2013-08-25T08:01:19Z</time>
      </trkpt>
      <trkpt lat="46.19195" lon="6.71131">
        <ele>1286.4</ele>
        <time>2013-08-25T08:01:28Z</time>
      </trkpt>
      <trkpt lat="46.19186" lon="6.71138">
        <ele>1284.9</ele>
        <time>2013-08-25T08:01:38Z</time>
      </trkpt>
      <trkpt lat="46.19175" lon="6.7113">
        <ele>1285.9</ele>
        <time>2013-08-25T08:01:50Z</time>
      </trkpt>
      <trkpt lat="46.1916" lon="6.71121">
        <ele>1287.8</ele>
        <time>2013-08-25T08:02:05Z</time>
      </trkpt>
      <trkpt lat="46.19153" lon="6.71117">
        <ele>1287.3</ele>
        <time>2013-08-25T08:02:08Z</time>
      </trkpt>
      <trkpt lat="46.19115" lon="6.7113">
        <ele>1286.9</ele>
        <time>2013-08-25T08:02:21Z</time>
      </trkpt>
      <trkpt lat="46.19096" lon="6.71156">
        <ele>1285.9</ele>
        <time>2013-08-25T08:02:31Z</time>
      </trkpt>
      <trkpt lat="46.19088" lon="6.71165">
        <ele>1284.5</ele>
        <time>2013-08-25T08:02:44Z</time>
      </trkpt>
      <trkpt lat="46.19085" lon="6.71166">
        <ele>1284.5</ele>
        <time>2013-08-25T08:02:45Z</time>
      </trkpt>
      <trkpt lat="46.19082" lon="6.71166">
        <ele>1284.5</ele>
        <time>2013-08-25T08:02:46Z</time>
      </trkpt>
      <trkpt lat="46.19079" lon="6.71166">
        <ele>1284.5</ele>
        <time>2013-08-25T08:02:47Z</time>
      </trkpt>
      <trkpt lat="46.19077" lon="6.71168">
        <ele>1283.5</ele>
        <time>2013-08-25T08:02:48Z</time>
      </trkpt>
      <trkpt lat="46.19076" lon="6.7117">
        <ele>1284</ele>
        <time>2013-08-25T08:02:49Z</time>
      </trkpt>
      <trkpt lat="46.19069" lon="6.71175">
        <ele>1282.1</ele>
        <time>2013-08-25T08:02:52Z</time>
      </trkpt>
      <trkpt lat="46.1906" lon="6.71185">
        <ele>1281.6</ele>
        <time>2013-08-25T08:03:08Z</time>
      </trkpt>
      <trkpt lat="46.19063" lon="6.71184">
        <ele>1281.6</ele>
        <time>2013-08-25T08:03:14Z</time>
      </trkpt>
      <trkpt lat="46.19073" lon="6.71174">
        <ele>1284</ele>
        <time>2013-08-25T08:03:23Z</time>
      </trkpt>
      <trkpt lat="46.19079" lon="6.71165">
        <ele>1284.5</ele>
        <time>2013-08-25T08:03:32Z</time>
      </trkpt>
      <trkpt lat="46.19093" lon="6.71153">
        <ele>1285.4</ele>
        <time>2013-08-25T08:03:46Z</time>
      </trkpt>
      <trkpt lat="46.19092" lon="6.71149">
        <ele>1284.5</ele>
        <time>2013-08-25T08:03:49Z</time>
      </trkpt>
      <trkpt lat="46.19093" lon="6.71145">
        <ele>1284.5</ele>
        <time>2013-08-25T08:03:50Z</time>
      </trkpt>
      <trkpt lat="46.19094" lon="6.71127">
        <ele>1281.1</ele>
        <time>2013-08-25T08:03:55Z</time>
      </trkpt>
      <trkpt lat="46.19095" lon="6.71124">
        <ele>1280.6</ele>
        <time>2013-08-25T08:03:56Z</time>
      </trkpt>
      <trkpt lat="46.19097" lon="6.71108">
        <ele>1277.3</ele>
        <time>2013-08-25T08:04:01Z</time>
      </trkpt>
      <trkpt lat="46.19099" lon="6.71091">
        <ele>1274.4</ele>
        <time>2013-08-25T08:04:08Z</time>
      </trkpt>
      <trkpt lat="46.19101" lon="6.71088">
        <ele>1272.9</ele>
        <time>2013-08-25T08:04:09Z</time>
      </trkpt>
      <trkpt lat="46.19101" lon="6.71075">
        <ele>1269.6</ele>
        <time>2013-08-25T08:04:19Z</time>
      </trkpt>
      <trkpt lat="46.19101" lon="6.71074">
        <ele>1269.6</ele>
        <time>2013-08-25T08:04:20Z</time>
      </trkpt>
      <trkpt lat="46.19098" lon="6.71061">
        <ele>1266.2</ele>
        <time>2013-08-25T08:04:32Z</time>
      </trkpt>
      <trkpt lat="46.19095" lon="6.7105">
        <ele>1262.4</ele>
        <time>2013-08-25T08:04:38Z</time>
      </trkpt>
      <trkpt lat="46.19087" lon="6.71037">
        <ele>1259</ele>
        <time>2013-08-25T08:04:49Z</time>
      </trkpt>
      <trkpt lat="46.19083" lon="6.71032">
        <ele>1259</ele>
        <time>2013-08-25T08:04:51Z</time>
      </trkpt>
      <trkpt lat="46.19079" lon="6.71023">
        <ele>1255.6</ele>
        <time>2013-08-25T08:04:57Z</time>
      </trkpt>
      <trkpt lat="46.19079" lon="6.71013">
        <ele>1252.7</ele>
        <time>2013-08-25T08:05:08Z</time>
      </trkpt>
      <trkpt lat="46.19079" lon="6.71009">
        <ele>1251.3</ele>
        <time>2013-08-25T08:05:11Z</time>
      </trkpt>
      <trkpt lat="46.19078" lon="6.71009">
        <ele>1251.3</ele>
        <time>2013-08-25T08:05:12Z</time>
      </trkpt>
      <trkpt lat="46.19072" lon="6.70998">
        <ele>1247.5</ele>
        <time>2013-08-25T08:05:19Z</time>
      </trkpt>
      <trkpt lat="46.19073" lon="6.70994">
        <ele>1246</ele>
        <time>2013-08-25T08:05:33Z</time>
      </trkpt>
      <trkpt lat="46.19076" lon="6.70967">
        <ele>1243.1</ele>
        <time>2013-08-25T08:05:48Z</time>
      </trkpt>
      <trkpt lat="46.19077" lon="6.70956">
        <ele>1241.2</ele>
        <time>2013-08-25T08:05:56Z</time>
      </trkpt>
      <trkpt lat="46.19078" lon="6.70945">
        <ele>1238.3</ele>
        <time>2013-08-25T08:06:03Z</time>
      </trkpt>
      <trkpt lat="46.19077" lon="6.70942">
        <ele>1236.9</ele>
        <time>2013-08-25T08:06:05Z</time>
      </trkpt>
      <trkpt lat="46.19075" lon="6.70936">
        <ele>1235</ele>
        <time>2013-08-25T08:06:18Z</time>
      </trkpt>
      <trkpt lat="46.19075" lon="6.70933">
        <ele>1233.5</ele>
        <time>2013-08-25T08:06:20Z</time>
      </trkpt>
      <trkpt lat="46.19072" lon="6.70927">
        <ele>1231.1</ele>
        <time>2013-08-25T08:06:24Z</time>
      </trkpt>
      <trkpt lat="46.19064" lon="6.70919">
        <ele>1226.3</ele>
        <time>2013-08-25T08:06:32Z</time>
      </trkpt>
      <trkpt lat="46.19064" lon="6.70909">
        <ele>1223.4</ele>
        <time>2013-08-25T08:06:39Z</time>
      </trkpt>
      <trkpt lat="46.19063" lon="6.70908">
        <ele>1222.9</ele>
        <time>2013-08-25T08:06:40Z</time>
      </trkpt>
      <trkpt lat="46.19063" lon="6.70908">
        <ele>1223.4</ele>
        <time>2013-08-25T08:06:41Z</time>
      </trkpt>
      <trkpt lat="46.19066" lon="6.70889">
        <ele>1220.5</ele>
        <time>2013-08-25T08:06:45Z</time>
      </trkpt>
      <trkpt lat="46.19066" lon="6.70888">
        <ele>1220.1</ele>
        <time>2013-08-25T08:06:46Z</time>
      </trkpt>
      <trkpt lat="46.19068" lon="6.70878">
        <ele>1218.6</ele>
        <time>2013-08-25T08:06:48Z</time>
      </trkpt>
      <trkpt lat="46.1906" lon="6.70869">
        <ele>1215.7</ele>
        <time>2013-08-25T08:06:56Z</time>
      </trkpt>
      <trkpt lat="46.19055" lon="6.70865">
        <ele>1211.9</ele>
        <time>2013-08-25T08:07:12Z</time>
      </trkpt>
      <trkpt lat="46.19054" lon="6.70861">
        <ele>1210.9</ele>
        <time>2013-08-25T08:07:15Z</time>
      </trkpt>
      <trkpt lat="46.19056" lon="6.70848">
        <ele>1208</ele>
        <time>2013-08-25T08:07:24Z</time>
      </trkpt>
      <trkpt lat="46.19051" lon="6.7084">
        <ele>1207.6</ele>
        <time>2013-08-25T08:07:42Z</time>
      </trkpt>
      <trkpt lat="46.19048" lon="6.70836">
        <ele>1206.1</ele>
        <time>2013-08-25T08:07:45Z</time>
      </trkpt>
      <trkpt lat="46.19042" lon="6.70832">
        <ele>1204.2</ele>
        <time>2013-08-25T08:07:49Z</time>
      </trkpt>
      <trkpt lat="46.19041" lon="6.70831">
        <ele>1203.2</ele>
        <time>2013-08-25T08:07:50Z</time>
      </trkpt>
      <trkpt lat="46.1904" lon="6.70829">
        <ele>1200.3</ele>
        <time>2013-08-25T08:07:55Z</time>
      </trkpt>
      <trkpt lat="46.19041" lon="6.70823">
        <ele>1198.4</ele>
        <time>2013-08-25T08:08:00Z</time>
      </trkpt>
      <trkpt lat="46.1904" lon="6.7082">
        <ele>1196.5</ele>
        <time>2013-08-25T08:08:03Z</time>
      </trkpt>
      <trkpt lat="46.19041" lon="6.7081">
        <ele>1195.1</ele>
        <time>2013-08-25T08:08:18Z</time>
      </trkpt>
      <trkpt lat="46.19041" lon="6.70805">
        <ele>1193.6</ele>
        <time>2013-08-25T08:08:21Z</time>
      </trkpt>
      <trkpt lat="46.19039" lon="6.70801">
        <ele>1192.2</ele>
        <time>2013-08-25T08:08:23Z</time>
      </trkpt>
      <trkpt lat="46.19034" lon="6.70794">
        <ele>1191.2</ele>
        <time>2013-08-25T08:08:27Z</time>
      </trkpt>
      <trkpt lat="46.19025" lon="6.70791">
        <ele>1187.9</ele>
        <time>2013-08-25T08:08:32Z</time>
      </trkpt>
      <trkpt lat="46.19022" lon="6.70786">
        <ele>1185</ele>
        <time>2013-08-25T08:08:42Z</time>
      </trkpt>
      <trkpt lat="46.19024" lon="6.70782">
        <ele>1180.6</ele>
        <time>2013-08-25T08:08:48Z</time>
      </trkpt>
      <trkpt lat="46.19024" lon="6.70781">
        <ele>1180.6</ele>
        <time>2013-08-25T08:08:49Z</time>
      </trkpt>
      <trkpt lat="46.19024" lon="6.70781">
        <ele>1188.3</ele>
        <time>2013-08-25T08:08:50Z</time>
      </trkpt>
      <trkpt lat="46.19024" lon="6.70781">
        <ele>1185.4</ele>
        <time>2013-08-25T08:08:51Z</time>
      </trkpt>
      <trkpt lat="46.19024" lon="6.7078">
        <ele>1181.6</ele>
        <time>2013-08-25T08:08:52Z</time>
      </trkpt>
      <trkpt lat="46.19024" lon="6.7078">
        <ele>1181.6</ele>
        <time>2013-08-25T08:08:53Z</time>
      </trkpt>
      <trkpt lat="46.19024" lon="6.7078">
        <ele>1186.9</ele>
        <time>2013-08-25T08:08:54Z</time>
      </trkpt>
      <trkpt lat="46.19024" lon="6.7078">
        <ele>1184</ele>
        <time>2013-08-25T08:08:55Z</time>
      </trkpt>
      <trkpt lat="46.19021" lon="6.70777">
        <ele>1183.5</ele>
        <time>2013-08-25T08:09:12Z</time>
      </trkpt>
      <trkpt lat="46.19021" lon="6.70776">
        <ele>1182.1</ele>
        <time>2013-08-25T08:09:13Z</time>
      </trkpt>
      <trkpt lat="46.1902" lon="6.70769">
        <ele>1181.6</ele>
        <time>2013-08-25T08:09:22Z</time>
      </trkpt>
      <trkpt lat="46.1902" lon="6.70753">
        <ele>1179.2</ele>
        <time>2013-08-25T08:09:38Z</time>
      </trkpt>
      <trkpt lat="46.19017" lon="6.70749">
        <ele>1177.8</ele>
        <time>2013-08-25T08:09:40Z</time>
      </trkpt>
      <trkpt lat="46.19016" lon="6.70745">
        <ele>1174.9</ele>
        <time>2013-08-25T08:09:44Z</time>
      </trkpt>
      <trkpt lat="46.19015" lon="6.7074">
        <ele>1173</ele>
        <time>2013-08-25T08:09:50Z</time>
      </trkpt>
      <trkpt lat="46.19012" lon="6.70737">
        <ele>1171</ele>
        <time>2013-08-25T08:09:53Z</time>
      </trkpt>
      <trkpt lat="46.19006" lon="6.70725">
        <ele>1168.1</ele>
        <time>2013-08-25T08:10:02Z</time>
      </trkpt>
      <trkpt lat="46.19001" lon="6.70709">
        <ele>1164.3</ele>
        <time>2013-08-25T08:10:09Z</time>
      </trkpt>
      <trkpt lat="46.18997" lon="6.70702">
        <ele>1160.9</ele>
        <time>2013-08-25T08:10:14Z</time>
      </trkpt>
      <trkpt lat="46.18996" lon="6.70701">
        <ele>1160.9</ele>
        <time>2013-08-25T08:10:15Z</time>
      </trkpt>
      <trkpt lat="46.18994" lon="6.70701">
        <ele>1159.5</ele>
        <time>2013-08-25T08:10:17Z</time>
      </trkpt>
      <trkpt lat="46.1899" lon="6.70696">
        <ele>1156.6</ele>
        <time>2013-08-25T08:10:24Z</time>
      </trkpt>
      <trkpt lat="46.18989" lon="6.70687">
        <ele>1155.6</ele>
        <time>2013-08-25T08:10:30Z</time>
      </trkpt>
      <trkpt lat="46.18988" lon="6.70677">
        <ele>1151.8</ele>
        <time>2013-08-25T08:10:38Z</time>
      </trkpt>
      <trkpt lat="46.18988" lon="6.70656">
        <ele>1149.4</ele>
        <time>2013-08-25T08:10:52Z</time>
      </trkpt>
      <trkpt lat="46.18994" lon="6.70651">
        <ele>1148.9</ele>
        <time>2013-08-25T08:11:04Z</time>
      </trkpt>
      <trkpt lat="46.18976" lon="6.70648">
        <ele>1149.4</ele>
        <time>2013-08-25T08:11:39Z</time>
      </trkpt>
      <trkpt lat="46.18971" lon="6.70657">
        <ele>1149.4</ele>
        <time>2013-08-25T08:12:00Z</time>
      </trkpt>
      <trkpt lat="46.18979" lon="6.70652">
        <ele>1148</ele>
        <time>2013-08-25T08:12:15Z</time>
      </trkpt>
      <trkpt lat="46.1898" lon="6.70639">
        <ele>1143.6</ele>
        <time>2013-08-25T08:12:22Z</time>
      </trkpt>
      <trkpt lat="46.18978" lon="6.70639">
        <ele>1143.1</ele>
        <time>2013-08-25T08:12:24Z</time>
      </trkpt>
      <trkpt lat="46.18968" lon="6.70634">
        <ele>1140.7</ele>
        <time>2013-08-25T08:12:38Z</time>
      </trkpt>
      <trkpt lat="46.18968" lon="6.70629">
        <ele>1138.3</ele>
        <time>2013-08-25T08:12:43Z</time>
      </trkpt>
      <trkpt lat="46.18962" lon="6.7062">
        <ele>1135</ele>
        <time>2013-08-25T08:12:49Z</time>
      </trkpt>
      <trkpt lat="46.18955" lon="6.70614">
        <ele>1132.6</ele>
        <time>2013-08-25T08:13:05Z</time>
      </trkpt>
      <trkpt lat="46.18958" lon="6.70607">
        <ele>1131.6</ele>
        <time>2013-08-25T08:13:08Z</time>
      </trkpt>
      <trkpt lat="46.18957" lon="6.70596">
        <ele>1129.2</ele>
        <time>2013-08-25T08:13:13Z</time>
      </trkpt>
      <trkpt lat="46.18958" lon="6.70591">
        <ele>1129.2</ele>
        <time>2013-08-25T08:13:16Z</time>
      </trkpt>
      <trkpt lat="46.18958" lon="6.70586">
        <ele>1127.3</ele>
        <time>2013-08-25T08:13:19Z</time>
      </trkpt>
      <trkpt lat="46.18954" lon="6.70574">
        <ele>1123.9</ele>
        <time>2013-08-25T08:13:27Z</time>
      </trkpt>
      <trkpt lat="46.18956" lon="6.70562">
        <ele>1120.6</ele>
        <time>2013-08-25T08:13:35Z</time>
      </trkpt>
      <trkpt lat="46.18952" lon="6.70547">
        <ele>1117.7</ele>
        <time>2013-08-25T08:13:43Z</time>
      </trkpt>
      <trkpt lat="46.18946" lon="6.7054">
        <ele>1117.2</ele>
        <time>2013-08-25T08:13:55Z</time>
      </trkpt>
      <trkpt lat="46.18945" lon="6.7054">
        <ele>1115.8</ele>
        <time>2013-08-25T08:13:56Z</time>
      </trkpt>
      <trkpt lat="46.18942" lon="6.70537">
        <ele>1115.3</ele>
        <time>2013-08-25T08:14:12Z</time>
      </trkpt>
      <trkpt lat="46.18938" lon="6.70533">
        <ele>1114.3</ele>
        <time>2013-08-25T08:14:28Z</time>
      </trkpt>
      <trkpt lat="46.18939" lon="6.70523">
        <ele>1111.9</ele>
        <time>2013-08-25T08:14:33Z</time>
      </trkpt>
      <trkpt lat="46.1894" lon="6.7052">
        <ele>1109.5</ele>
        <time>2013-08-25T08:14:35Z</time>
      </trkpt>
      <trkpt lat="46.18938" lon="6.70516">
        <ele>1108.1</ele>
        <time>2013-08-25T08:14:37Z</time>
      </trkpt>
      <trkpt lat="46.18937" lon="6.70512">
        <ele>1105.2</ele>
        <time>2013-08-25T08:14:41Z</time>
      </trkpt>
      <trkpt lat="46.18932" lon="6.70501">
        <ele>1101.8</ele>
        <time>2013-08-25T08:14:45Z</time>
      </trkpt>
      <trkpt lat="46.18931" lon="6.70485">
        <ele>1097.5</ele>
        <time>2013-08-25T08:14:49Z</time>
      </trkpt>
      <trkpt lat="46.18926" lon="6.70474">
        <ele>1094.1</ele>
        <time>2013-08-25T08:14:53Z</time>
      </trkpt>
      <trkpt lat="46.18921" lon="6.70466">
        <ele>1090.8</ele>
        <time>2013-08-25T08:14:57Z</time>
      </trkpt>
      <trkpt lat="46.18919" lon="6.70463">
        <ele>1089.8</ele>
        <time>2013-08-25T08:14:58Z</time>
      </trkpt>
      <trkpt lat="46.18915" lon="6.7046">
        <ele>1086.4</ele>
        <time>2013-08-25T08:15:03Z</time>
      </trkpt>
      <trkpt lat="46.18914" lon="6.70459">
        <ele>1086</ele>
        <time>2013-08-25T08:15:04Z</time>
      </trkpt>
      <trkpt lat="46.18908" lon="6.70441">
        <ele>1084</ele>
        <time>2013-08-25T08:15:15Z</time>
      </trkpt>
      <trkpt lat="46.189" lon="6.70432">
        <ele>1084.5</ele>
        <time>2013-08-25T08:15:45Z</time>
      </trkpt>
      <trkpt lat="46.18899" lon="6.7043">
        <ele>1084</ele>
        <time>2013-08-25T08:16:16Z</time>
      </trkpt>
      <trkpt lat="46.18901" lon="6.70422">
        <ele>1080.7</ele>
        <time>2013-08-25T08:16:25Z</time>
      </trkpt>
      <trkpt lat="46.189" lon="6.70419">
        <ele>1079.2</ele>
        <time>2013-08-25T08:16:27Z</time>
      </trkpt>
      <trkpt lat="46.189" lon="6.70416">
        <ele>1077.8</ele>
        <time>2013-08-25T08:16:28Z</time>
      </trkpt>
      <trkpt lat="46.189" lon="6.70407">
        <ele>1075.9</ele>
        <time>2013-08-25T08:16:31Z</time>
      </trkpt>
      <trkpt lat="46.18902" lon="6.70395">
        <ele>1072</ele>
        <time>2013-08-25T08:16:34Z</time>
      </trkpt>
      <trkpt lat="46.18903" lon="6.70393">
        <ele>1071.5</ele>
        <time>2013-08-25T08:16:35Z</time>
      </trkpt>
      <trkpt lat="46.18904" lon="6.70388">
        <ele>1068.6</ele>
        <time>2013-08-25T08:16:39Z</time>
      </trkpt>
      <trkpt lat="46.18904" lon="6.70387">
        <ele>1067.7</ele>
        <time>2013-08-25T08:16:40Z</time>
      </trkpt>
      <trkpt lat="46.18898" lon="6.70383">
        <ele>1064.3</ele>
        <time>2013-08-25T08:16:46Z</time>
      </trkpt>
      <trkpt lat="46.1889" lon="6.70377">
        <ele>1061.4</ele>
        <time>2013-08-25T08:16:59Z</time>
      </trkpt>
      <trkpt lat="46.18888" lon="6.70373">
        <ele>1060.5</ele>
        <time>2013-08-25T08:17:13Z</time>
      </trkpt>
      <trkpt lat="46.18884" lon="6.70371">
        <ele>1058.6</ele>
        <time>2013-08-25T08:17:17Z</time>
      </trkpt>
      <trkpt lat="46.18877" lon="6.70363">
        <ele>1055.7</ele>
        <time>2013-08-25T08:17:29Z</time>
      </trkpt>
      <trkpt lat="46.18877" lon="6.70353">
        <ele>1052.8</ele>
        <time>2013-08-25T08:17:42Z</time>
      </trkpt>
      <trkpt lat="46.18874" lon="6.70339">
        <ele>1049.4</ele>
        <time>2013-08-25T08:17:55Z</time>
      </trkpt>
      <trkpt lat="46.18879" lon="6.7033">
        <ele>1046.5</ele>
        <time>2013-08-25T08:18:03Z</time>
      </trkpt>
      <trkpt lat="46.1888" lon="6.70328">
        <ele>1046.1</ele>
        <time>2013-08-25T08:18:04Z</time>
      </trkpt>
      <trkpt lat="46.18879" lon="6.70321">
        <ele>1043.2</ele>
        <time>2013-08-25T08:18:10Z</time>
      </trkpt>
      <trkpt lat="46.18877" lon="6.70318">
        <ele>1043.2</ele>
        <time>2013-08-25T08:18:13Z</time>
      </trkpt>
      <trkpt lat="46.18871" lon="6.70308">
        <ele>1040.3</ele>
        <time>2013-08-25T08:18:18Z</time>
      </trkpt>
      <trkpt lat="46.18866" lon="6.70302">
        <ele>1039.3</ele>
        <time>2013-08-25T08:18:21Z</time>
      </trkpt>
      <trkpt lat="46.18863" lon="6.70299">
        <ele>1038.8</ele>
        <time>2013-08-25T08:18:22Z</time>
      </trkpt>
      <trkpt lat="46.1886" lon="6.70298">
        <ele>1037.9</ele>
        <time>2013-08-25T08:18:23Z</time>
      </trkpt>
      <trkpt lat="46.18857" lon="6.70296">
        <ele>1037.4</ele>
        <time>2013-08-25T08:18:24Z</time>
      </trkpt>
      <trkpt lat="46.18847" lon="6.70286">
        <ele>1034</ele>
        <time>2013-08-25T08:18:27Z</time>
      </trkpt>
      <trkpt lat="46.18828" lon="6.70275">
        <ele>1031.2</ele>
        <time>2013-08-25T08:18:33Z</time>
      </trkpt>
      <trkpt lat="46.18826" lon="6.70274">
        <ele>1031.6</ele>
        <time>2013-08-25T08:18:45Z</time>
      </trkpt>
      <trkpt lat="46.18828" lon="6.70273">
        <ele>1032.1</ele>
        <time>2013-08-25T08:18:58Z</time>
      </trkpt>
      <trkpt lat="46.18828" lon="6.70275">
        <ele>1032.1</ele>
        <time>2013-08-25T08:19:09Z</time>
      </trkpt>
      <trkpt lat="46.18803" lon="6.70285">
        <ele>1030.2</ele>
        <time>2013-08-25T08:19:16Z</time>
      </trkpt>
      <trkpt lat="46.18793" lon="6.70286">
        <ele>1029.7</ele>
        <time>2013-08-25T08:19:18Z</time>
      </trkpt>
      <trkpt lat="46.18789" lon="6.70289">
        <ele>1029.2</ele>
        <time>2013-08-25T08:19:19Z</time>
      </trkpt>
      <trkpt lat="46.18784" lon="6.70291">
        <ele>1029.2</ele>
        <time>2013-08-25T08:19:20Z</time>
      </trkpt>
      <trkpt lat="46.1878" lon="6.70292">
        <ele>1028.8</ele>
        <time>2013-08-25T08:19:21Z</time>
      </trkpt>
      <trkpt lat="46.18776" lon="6.70292">
        <ele>1028.3</ele>
        <time>2013-08-25T08:19:22Z</time>
      </trkpt>
      <trkpt lat="46.18766" lon="6.70286">
        <ele>1026.3</ele>
        <time>2013-08-25T08:19:25Z</time>
      </trkpt>
      <trkpt lat="46.18765" lon="6.70281">
        <ele>1025.9</ele>
        <time>2013-08-25T08:19:26Z</time>
      </trkpt>
      <trkpt lat="46.18765" lon="6.70269">
        <ele>1025.9</ele>
        <time>2013-08-25T08:19:28Z</time>
      </trkpt>
      <trkpt lat="46.18767" lon="6.70262">
        <ele>1023.9</ele>
        <time>2013-08-25T08:19:29Z</time>
      </trkpt>
      <trkpt lat="46.18858" lon="6.70241">
        <ele>1023.5</ele>
        <time>2013-08-25T08:19:30Z</time>
      </trkpt>
      <trkpt lat="46.18938" lon="6.70271">
        <ele>1019.1</ele>
        <time>2013-08-25T08:19:35Z</time>
      </trkpt>
      <trkpt lat="46.18944" lon="6.70268">
        <ele>1019.6</ele>
        <time>2013-08-25T08:19:36Z</time>
      </trkpt>
      <trkpt lat="46.1895" lon="6.70266">
        <ele>1017.7</ele>
        <time>2013-08-25T08:19:39Z</time>
      </trkpt>
      <trkpt lat="46.18969" lon="6.70248">
        <ele>1013.9</ele>
        <time>2013-08-25T08:19:43Z</time>
      </trkpt>
      <trkpt lat="46.18983" lon="6.70234">
        <ele>1011.4</ele>
        <time>2013-08-25T08:19:47Z</time>
      </trkpt>
      <trkpt lat="46.19008" lon="6.70214">
        <ele>1008.1</ele>
        <time>2013-08-25T08:19:53Z</time>
      </trkpt>
      <trkpt lat="46.19017" lon="6.70205">
        <ele>1006.2</ele>
        <time>2013-08-25T08:19:55Z</time>
      </trkpt>
      <trkpt lat="46.1902" lon="6.70202">
        <ele>1005.7</ele>
        <time>2013-08-25T08:19:56Z</time>
      </trkpt>
      <trkpt lat="46.19025" lon="6.702">
        <ele>1004.7</ele>
        <time>2013-08-25T08:20:04Z</time>
      </trkpt>
      <trkpt lat="46.19024" lon="6.70203">
        <ele>1004.7</ele>
        <time>2013-08-25T08:20:15Z</time>
      </trkpt>
      <trkpt lat="46.19038" lon="6.70192">
        <ele>1003.3</ele>
        <time>2013-08-25T08:20:19Z</time>
      </trkpt>
      <trkpt lat="46.19043" lon="6.70189">
        <ele>1002.8</ele>
        <time>2013-08-25T08:20:20Z</time>
      </trkpt>
      <trkpt lat="46.19053" lon="6.70185">
        <ele>1001.8</ele>
        <time>2013-08-25T08:20:22Z</time>
      </trkpt>
      <trkpt lat="46.19062" lon="6.70182">
        <ele>1002.8</ele>
        <time>2013-08-25T08:20:24Z</time>
      </trkpt>
      <trkpt lat="46.19066" lon="6.70181">
        <ele>1002.3</ele>
        <time>2013-08-25T08:20:25Z</time>
      </trkpt>
      <trkpt lat="46.1907" lon="6.70179">
        <ele>1002.3</ele>
        <time>2013-08-25T08:20:26Z</time>
      </trkpt>
      <trkpt lat="46.19074" lon="6.70177">
        <ele>1001.4</ele>
        <time>2013-08-25T08:20:27Z</time>
      </trkpt>
      <trkpt lat="46.19079" lon="6.70174">
        <ele>1001.4</ele>
        <time>2013-08-25T08:20:28Z</time>
      </trkpt>
      <trkpt lat="46.19084" lon="6.70171">
        <ele>1000.9</ele>
        <time>2013-08-25T08:20:29Z</time>
      </trkpt>
      <trkpt lat="46.19089" lon="6.70168">
        <ele>1000.9</ele>
        <time>2013-08-25T08:20:30Z</time>
      </trkpt>
      <trkpt lat="46.19093" lon="6.70164">
        <ele>1000.4</ele>
        <time>2013-08-25T08:20:31Z</time>
      </trkpt>
      <trkpt lat="46.19101" lon="6.70157">
        <ele>999.4</ele>
        <time>2013-08-25T08:20:33Z</time>
      </trkpt>
      <trkpt lat="46.191" lon="6.70152">
        <ele>998.5</ele>
        <time>2013-08-25T08:20:34Z</time>
      </trkpt>
      <trkpt lat="46.19095" lon="6.70147">
        <ele>997.5</ele>
        <time>2013-08-25T08:20:35Z</time>
      </trkpt>
      <trkpt lat="46.19088" lon="6.70145">
        <ele>996.1</ele>
        <time>2013-08-25T08:20:36Z</time>
      </trkpt>
      <trkpt lat="46.19081" lon="6.70145">
        <ele>996.1</ele>
        <time>2013-08-25T08:20:37Z</time>
      </trkpt>
      <trkpt lat="46.19061" lon="6.7014">
        <ele>992.7</ele>
        <time>2013-08-25T08:20:42Z</time>
      </trkpt>
      <trkpt lat="46.19057" lon="6.70135">
        <ele>993.2</ele>
        <time>2013-08-25T08:20:55Z</time>
      </trkpt>
      <trkpt lat="46.19054" lon="6.70131">
        <ele>993.7</ele>
        <time>2013-08-25T08:21:18Z</time>
      </trkpt>
      <trkpt lat="46.19061" lon="6.70144">
        <ele>993.2</ele>
        <time>2013-08-25T08:21:46Z</time>
      </trkpt>
      <trkpt lat="46.19059" lon="6.70142">
        <ele>993.7</ele>
        <time>2013-08-25T08:22:01Z</time>
      </trkpt>
      <trkpt lat="46.19057" lon="6.70143">
        <ele>993.7</ele>
        <time>2013-08-25T08:22:02Z</time>
      </trkpt>
      <trkpt lat="46.19034" lon="6.70152">
        <ele>995.6</ele>
        <time>2013-08-25T08:22:12Z</time>
      </trkpt>
      <trkpt lat="46.19007" lon="6.70166">
        <ele>997</ele>
        <time>2013-08-25T08:22:24Z</time>
      </trkpt>
      <trkpt lat="46.18977" lon="6.70182">
        <ele>997</ele>
        <time>2013-08-25T08:22:36Z</time>
      </trkpt>
      <trkpt lat="46.18939" lon="6.70198">
        <ele>997.5</ele>
        <time>2013-08-25T08:22:48Z</time>
      </trkpt>
      <trkpt lat="46.18894" lon="6.7022">
        <ele>997</ele>
        <time>2013-08-25T08:23:01Z</time>
      </trkpt>
      <trkpt lat="46.18883" lon="6.70227">
        <ele>996.5</ele>
        <time>2013-08-25T08:23:04Z</time>
      </trkpt>
      <trkpt lat="46.1885" lon="6.70251">
        <ele>995.1</ele>
        <time>2013-08-25T08:23:12Z</time>
      </trkpt>
      <trkpt lat="46.18827" lon="6.70273">
        <ele>993.7</ele>
        <time>2013-08-25T08:23:17Z</time>
      </trkpt>
      <trkpt lat="46.18818" lon="6.70282">
        <ele>994.1</ele>
        <time>2013-08-25T08:23:19Z</time>
      </trkpt>
      <trkpt lat="46.18812" lon="6.70285">
        <ele>993.7</ele>
        <time>2013-08-25T08:23:20Z</time>
      </trkpt>
      <trkpt lat="46.18807" lon="6.70288">
        <ele>993.7</ele>
        <time>2013-08-25T08:23:21Z</time>
      </trkpt>
      <trkpt lat="46.18802" lon="6.70292">
        <ele>993.7</ele>
        <time>2013-08-25T08:23:22Z</time>
      </trkpt>
      <trkpt lat="46.18797" lon="6.70297">
        <ele>993.2</ele>
        <time>2013-08-25T08:23:23Z</time>
      </trkpt>
      <trkpt lat="46.18793" lon="6.70302">
        <ele>993.2</ele>
        <time>2013-08-25T08:23:24Z</time>
      </trkpt>
      <trkpt lat="46.18784" lon="6.70314">
        <ele>992.7</ele>
        <time>2013-08-25T08:23:26Z</time>
      </trkpt>
      <trkpt lat="46.18746" lon="6.70395">
        <ele>991.7</ele>
        <time>2013-08-25T08:23:39Z</time>
      </trkpt>
      <trkpt lat="46.18739" lon="6.70405">
        <ele>991.3</ele>
        <time>2013-08-25T08:23:41Z</time>
      </trkpt>
      <trkpt lat="46.18735" lon="6.70409">
        <ele>990.8</ele>
        <time>2013-08-25T08:23:42Z</time>
      </trkpt>
      <trkpt lat="46.18717" lon="6.70424">
        <ele>989.8</ele>
        <time>2013-08-25T08:23:46Z</time>
      </trkpt>
      <trkpt lat="46.1866" lon="6.70463">
        <ele>989.3</ele>
        <time>2013-08-25T08:23:58Z</time>
      </trkpt>
      <trkpt lat="46.18655" lon="6.70459">
        <ele>989.3</ele>
        <time>2013-08-25T08:23:59Z</time>
      </trkpt>
      <trkpt lat="46.18651" lon="6.70453">
        <ele>988.9</ele>
        <time>2013-08-25T08:24:00Z</time>
      </trkpt>
      <trkpt lat="46.1863" lon="6.70397">
        <ele>986.5</ele>
        <time>2013-08-25T08:24:10Z</time>
      </trkpt>
      <trkpt lat="46.18629" lon="6.70393">
        <ele>986</ele>
        <time>2013-08-25T08:24:12Z</time>
      </trkpt>
      <trkpt lat="46.18628" lon="6.70393">
        <ele>986</ele>
        <time>2013-08-25T08:24:13Z</time>
      </trkpt>
      <trkpt lat="46.18626" lon="6.70393">
        <ele>986</ele>
        <time>2013-08-25T08:24:14Z</time>
      </trkpt>
      <trkpt lat="46.18624" lon="6.70394">
        <ele>986</ele>
        <time>2013-08-25T08:24:15Z</time>
      </trkpt>
      <trkpt lat="46.18621" lon="6.70396">
        <ele>986.5</ele>
        <time>2013-08-25T08:24:16Z</time>
      </trkpt>
      <trkpt lat="46.18619" lon="6.70398">
        <ele>986.5</ele>
        <time>2013-08-25T08:24:17Z</time>
      </trkpt>
      <trkpt lat="46.18617" lon="6.70399">
        <ele>986.5</ele>
        <time>2013-08-25T08:24:18Z</time>
      </trkpt>
      <trkpt lat="46.18584" lon="6.70425">
        <ele>987.4</ele>
        <time>2013-08-25T08:24:30Z</time>
      </trkpt>
      <trkpt lat="46.18537" lon="6.70465">
        <ele>988.4</ele>
        <time>2013-08-25T08:24:46Z</time>
      </trkpt>
      <trkpt lat="46.18499" lon="6.70503">
        <ele>990.8</ele>
        <time>2013-08-25T08:25:00Z</time>
      </trkpt>
      <trkpt lat="46.18468" lon="6.70527">
        <ele>991.3</ele>
        <time>2013-08-25T08:25:12Z</time>
      </trkpt>
      <trkpt lat="46.18456" lon="6.70539">
        <ele>991.7</ele>
        <time>2013-08-25T08:25:23Z</time>
      </trkpt>
      <trkpt lat="46.18454" lon="6.70535">
        <ele>991.3</ele>
        <time>2013-08-25T08:25:35Z</time>
      </trkpt>
      <trkpt lat="46.18454" lon="6.70534">
        <ele>991.3</ele>
        <time>2013-08-25T08:25:36Z</time>
      </trkpt>
      <trkpt lat="46.18453" lon="6.70531">
        <ele>990.8</ele>
        <time>2013-08-25T08:25:37Z</time>
      </trkpt>
      <trkpt lat="46.18443" lon="6.70508">
        <ele>991.3</ele>
        <time>2013-08-25T08:25:50Z</time>
      </trkpt>
      <trkpt lat="46.18428" lon="6.70478">
        <ele>990.8</ele>
        <time>2013-08-25T08:26:06Z</time>
      </trkpt>
      <trkpt lat="46.18419" lon="6.70465">
        <ele>990.8</ele>
        <time>2013-08-25T08:26:14Z</time>
      </trkpt>
      <trkpt lat="46.18417" lon="6.70464">
        <ele>991.3</ele>
        <time>2013-08-25T08:26:15Z</time>
      </trkpt>
      <trkpt lat="46.18416" lon="6.70461">
        <ele>990.8</ele>
        <time>2013-08-25T08:26:16Z</time>
      </trkpt>
      <trkpt lat="46.18406" lon="6.70437">
        <ele>990.3</ele>
        <time>2013-08-25T08:26:32Z</time>
      </trkpt>
      <trkpt lat="46.18388" lon="6.704">
        <ele>990.3</ele>
        <time>2013-08-25T08:26:43Z</time>
      </trkpt>
      <trkpt lat="46.18367" lon="6.70355">
        <ele>987.9</ele>
        <time>2013-08-25T08:26:56Z</time>
      </trkpt>
      <trkpt lat="46.18356" lon="6.70335">
        <ele>986.9</ele>
        <time>2013-08-25T08:27:07Z</time>
      </trkpt>
      <trkpt lat="46.18344" lon="6.70325">
        <ele>986.9</ele>
        <time>2013-08-25T08:27:18Z</time>
      </trkpt>
      <trkpt lat="46.18341" lon="6.70323">
        <ele>987.4</ele>
        <time>2013-08-25T08:27:21Z</time>
      </trkpt>
      <trkpt lat="46.1833" lon="6.70307">
        <ele>987.4</ele>
        <time>2013-08-25T08:27:34Z</time>
      </trkpt>
      <trkpt lat="46.18312" lon="6.70273">
        <ele>986.9</ele>
        <time>2013-08-25T08:27:49Z</time>
      </trkpt>
      <trkpt lat="46.18294" lon="6.70234">
        <ele>986.9</ele>
        <time>2013-08-25T08:28:03Z</time>
      </trkpt>
      <trkpt lat="46.18293" lon="6.70212">
        <ele>986.9</ele>
        <time>2013-08-25T08:28:10Z</time>
      </trkpt>
      <trkpt lat="46.18291" lon="6.70205">
        <ele>986.9</ele>
        <time>2013-08-25T08:28:12Z</time>
      </trkpt>
      <trkpt lat="46.18287" lon="6.70205">
        <ele>986.9</ele>
        <time>2013-08-25T08:28:13Z</time>
      </trkpt>
      <trkpt lat="46.18284" lon="6.70207">
        <ele>986.9</ele>
        <time>2013-08-25T08:28:14Z</time>
      </trkpt>
      <trkpt lat="46.18281" lon="6.70211">
        <ele>986.9</ele>
        <time>2013-08-25T08:28:15Z</time>
      </trkpt>
      <trkpt lat="46.18265" lon="6.70252">
        <ele>987.9</ele>
        <time>2013-08-25T08:28:25Z</time>
      </trkpt>
      <trkpt lat="46.18237" lon="6.70284">
        <ele>988.4</ele>
        <time>2013-08-25T08:28:37Z</time>
      </trkpt>
      <trkpt lat="46.18208" lon="6.70312">
        <ele>989.3</ele>
        <time>2013-08-25T08:28:50Z</time>
      </trkpt>
      <trkpt lat="46.18209" lon="6.70312">
        <ele>988.9</ele>
        <time>2013-08-25T08:29:06Z</time>
      </trkpt>
      <trkpt lat="46.18203" lon="6.70315">
        <ele>989.3</ele>
        <time>2013-08-25T08:29:24Z</time>
      </trkpt>
      <trkpt lat="46.18204" lon="6.7032">
        <ele>988.9</ele>
        <time>2013-08-25T08:29:39Z</time>
      </trkpt>
      <trkpt lat="46.18204" lon="6.70322">
        <ele>988.9</ele>
        <time>2013-08-25T08:29:56Z</time>
      </trkpt>
      <trkpt lat="46.18205" lon="6.70322">
        <ele>989.3</ele>
        <time>2013-08-25T08:29:57Z</time>
      </trkpt>
      <trkpt lat="46.18216" lon="6.7031">
        <ele>988.9</ele>
        <time>2013-08-25T08:30:09Z</time>
      </trkpt>
      <trkpt lat="46.18227" lon="6.70296">
        <ele>988.9</ele>
        <time>2013-08-25T08:30:25Z</time>
      </trkpt>
      <trkpt lat="46.18226" lon="6.70299">
        <ele>988.9</ele>
        <time>2013-08-25T08:30:53Z</time>
      </trkpt>
      <trkpt lat="46.18224" lon="6.70299">
        <ele>988.9</ele>
        <time>2013-08-25T08:31:23Z</time>
      </trkpt>
      <trkpt lat="46.18222" lon="6.70298">
        <ele>988.9</ele>
        <time>2013-08-25T08:31:49Z</time>
      </trkpt>
      <trkpt lat="46.18225" lon="6.70297">
        <ele>988.4</ele>
        <time>2013-08-25T08:32:13Z</time>
      </trkpt>
      <trkpt lat="46.18227" lon="6.70293">
        <ele>988.4</ele>
        <time>2013-08-25T08:32:41Z</time>
      </trkpt>
      <trkpt lat="46.18226" lon="6.70298">
        <ele>988.9</ele>
        <time>2013-08-25T08:33:09Z</time>
      </trkpt>
      <trkpt lat="46.18223" lon="6.70294">
        <ele>988.9</ele>
        <time>2013-08-25T08:33:36Z</time>
      </trkpt>
      <trkpt lat="46.18223" lon="6.70292">
        <ele>989.3</ele>
        <time>2013-08-25T08:34:05Z</time>
      </trkpt>
      <trkpt lat="46.18226" lon="6.70294">
        <ele>988.9</ele>
        <time>2013-08-25T08:34:36Z</time>
      </trkpt>
      <trkpt lat="46.18224" lon="6.70292">
        <ele>989.3</ele>
        <time>2013-08-25T08:35:06Z</time>
      </trkpt>
      <trkpt lat="46.18223" lon="6.7029">
        <ele>989.3</ele>
        <time>2013-08-25T08:35:32Z</time>
      </trkpt>
      <trkpt lat="46.18222" lon="6.70292">
        <ele>989.8</ele>
        <time>2013-08-25T08:36:06Z</time>
      </trkpt>
      <trkpt lat="46.18225" lon="6.70298">
        <ele>990.3</ele>
        <time>2013-08-25T08:36:31Z</time>
      </trkpt>
      <trkpt lat="46.18227" lon="6.70296">
        <ele>989.8</ele>
        <time>2013-08-25T08:37:05Z</time>
      </trkpt>
      <trkpt lat="46.18227" lon="6.70298">
        <ele>989.8</ele>
        <time>2013-08-25T08:37:37Z</time>
      </trkpt>
      <trkpt lat="46.18223" lon="6.70299">
        <ele>989.8</ele>
        <time>2013-08-25T08:38:13Z</time>
      </trkpt>
      <trkpt lat="46.18224" lon="6.70297">
        <ele>990.3</ele>
        <time>2013-08-25T08:38:43Z</time>
      </trkpt>
      <trkpt lat="46.18222" lon="6.70298">
        <ele>990.3</ele>
        <time>2013-08-25T08:39:11Z</time>
      </trkpt>
      <trkpt lat="46.18225" lon="6.70295">
        <ele>990.8</ele>
        <time>2013-08-25T08:39:42Z</time>
      </trkpt>
      <trkpt lat="46.18225" lon="6.70296">
        <ele>990.8</ele>
        <time>2013-08-25T08:40:21Z</time>
      </trkpt>
      <trkpt lat="46.18226" lon="6.70299">
        <ele>990.8</ele>
        <time>2013-08-25T08:40:54Z</time>
      </trkpt>
      <trkpt lat="46.18225" lon="6.703">
        <ele>991.3</ele>
        <time>2013-08-25T08:41:10Z</time>
      </trkpt>
      <trkpt lat="46.18225" lon="6.70297">
        <ele>991.3</ele>
        <time>2013-08-25T08:41:30Z</time>
      </trkpt>
      <trkpt lat="46.18224" lon="6.70298">
        <ele>991.3</ele>
        <time>2013-08-25T08:41:34Z</time>
      </trkpt>
      <trkpt lat="46.18209" lon="6.70318">
        <ele>991.7</ele>
        <time>2013-08-25T08:41:46Z</time>
      </trkpt>
      <trkpt lat="46.18191" lon="6.70341">
        <ele>992.2</ele>
        <time>2013-08-25T08:41:57Z</time>
      </trkpt>
      <trkpt lat="46.18172" lon="6.7038">
        <ele>992.7</ele>
        <time>2013-08-25T08:42:10Z</time>
      </trkpt>
      <trkpt lat="46.18148" lon="6.70416">
        <ele>993.7</ele>
        <time>2013-08-25T08:42:23Z</time>
      </trkpt>
      <trkpt lat="46.18149" lon="6.70419">
        <ele>993.7</ele>
        <time>2013-08-25T08:42:24Z</time>
      </trkpt>
      <trkpt lat="46.1815" lon="6.70421">
        <ele>993.2</ele>
        <time>2013-08-25T08:42:25Z</time>
      </trkpt>
      <trkpt lat="46.1815" lon="6.70424">
        <ele>993.2</ele>
        <time>2013-08-25T08:42:26Z</time>
      </trkpt>
      <trkpt lat="46.1815" lon="6.70426">
        <ele>994.1</ele>
        <time>2013-08-25T08:42:27Z</time>
      </trkpt>
      <trkpt lat="46.18148" lon="6.70424">
        <ele>993.2</ele>
        <time>2013-08-25T08:42:39Z</time>
      </trkpt>
      <trkpt lat="46.18148" lon="6.70419">
        <ele>993.2</ele>
        <time>2013-08-25T08:43:07Z</time>
      </trkpt>
      <trkpt lat="46.18147" lon="6.70414">
        <ele>993.7</ele>
        <time>2013-08-25T08:43:46Z</time>
      </trkpt>
      <trkpt lat="46.18146" lon="6.70418">
        <ele>994.1</ele>
        <time>2013-08-25T08:44:19Z</time>
      </trkpt>
      <trkpt lat="46.18146" lon="6.70416">
        <ele>994.1</ele>
        <time>2013-08-25T08:44:53Z</time>
      </trkpt>
      <trkpt lat="46.18144" lon="6.70419">
        <ele>995.1</ele>
        <time>2013-08-25T08:45:06Z</time>
      </trkpt>
      <trkpt lat="46.18135" lon="6.70432">
        <ele>995.1</ele>
        <time>2013-08-25T08:45:19Z</time>
      </trkpt>
      <trkpt lat="46.18128" lon="6.70442">
        <ele>995.1</ele>
        <time>2013-08-25T08:45:24Z</time>
      </trkpt>
      <trkpt lat="46.18127" lon="6.70445">
        <ele>995.6</ele>
        <time>2013-08-25T08:45:25Z</time>
      </trkpt>
      <trkpt lat="46.18126" lon="6.70447">
        <ele>995.1</ele>
        <time>2013-08-25T08:45:26Z</time>
      </trkpt>
      <trkpt lat="46.18111" lon="6.70481">
        <ele>996.5</ele>
        <time>2013-08-25T08:45:37Z</time>
      </trkpt>
      <trkpt lat="46.18099" lon="6.70491">
        <ele>996.5</ele>
        <time>2013-08-25T08:45:43Z</time>
      </trkpt>
      <trkpt lat="46.18095" lon="6.70493">
        <ele>996.1</ele>
        <time>2013-08-25T08:45:45Z</time>
      </trkpt>
      <trkpt lat="46.18091" lon="6.70509">
        <ele>996.5</ele>
        <time>2013-08-25T08:45:57Z</time>
      </trkpt>
      <trkpt lat="46.18095" lon="6.70508">
        <ele>996.5</ele>
        <time>2013-08-25T08:46:19Z</time>
      </trkpt>
      <trkpt lat="46.18099" lon="6.70507">
        <ele>996.5</ele>
        <time>2013-08-25T08:46:42Z</time>
      </trkpt>
      <trkpt lat="46.18097" lon="6.70512">
        <ele>996.1</ele>
        <time>2013-08-25T08:46:46Z</time>
      </trkpt>
      <trkpt lat="46.18096" lon="6.70515">
        <ele>995.6</ele>
        <time>2013-08-25T08:46:47Z</time>
      </trkpt>
      <trkpt lat="46.18095" lon="6.70518">
        <ele>996.1</ele>
        <time>2013-08-25T08:46:48Z</time>
      </trkpt>
      <trkpt lat="46.18093" lon="6.70521">
        <ele>996.1</ele>
        <time>2013-08-25T08:46:49Z</time>
      </trkpt>
      <trkpt lat="46.18091" lon="6.70524">
        <ele>996.1</ele>
        <time>2013-08-25T08:46:50Z</time>
      </trkpt>
      <trkpt lat="46.18066" lon="6.70542">
        <ele>994.6</ele>
        <time>2013-08-25T08:47:00Z</time>
      </trkpt>
      <trkpt lat="46.18027" lon="6.70604">
        <ele>992.7</ele>
        <time>2013-08-25T08:47:13Z</time>
      </trkpt>
      <trkpt lat="46.18018" lon="6.70609">
        <ele>992.2</ele>
        <time>2013-08-25T08:47:15Z</time>
      </trkpt>
      <trkpt lat="46.18014" lon="6.70609">
        <ele>992.7</ele>
        <time>2013-08-25T08:47:16Z</time>
      </trkpt>
      <trkpt lat="46.17977" lon="6.70609">
        <ele>990.3</ele>
        <time>2013-08-25T08:47:27Z</time>
      </trkpt>
      <trkpt lat="46.17965" lon="6.70607">
        <ele>989.8</ele>
        <time>2013-08-25T08:47:33Z</time>
      </trkpt>
      <trkpt lat="46.17959" lon="6.70607">
        <ele>989.3</ele>
        <time>2013-08-25T08:47:45Z</time>
      </trkpt>
      <trkpt lat="46.17958" lon="6.70609">
        <ele>989.3</ele>
        <time>2013-08-25T08:47:46Z</time>
      </trkpt>
      <trkpt lat="46.17957" lon="6.7061">
        <ele>989.8</ele>
        <time>2013-08-25T08:47:47Z</time>
      </trkpt>
      <trkpt lat="46.17955" lon="6.7061">
        <ele>989.3</ele>
        <time>2013-08-25T08:47:48Z</time>
      </trkpt>
      <trkpt lat="46.17954" lon="6.70611">
        <ele>988.9</ele>
        <time>2013-08-25T08:47:49Z</time>
      </trkpt>
      <trkpt lat="46.17953" lon="6.70611">
        <ele>988.9</ele>
        <time>2013-08-25T08:47:50Z</time>
      </trkpt>
      <trkpt lat="46.17951" lon="6.70612">
        <ele>989.3</ele>
        <time>2013-08-25T08:47:51Z</time>
      </trkpt>
      <trkpt lat="46.1795" lon="6.70613">
        <ele>988.9</ele>
        <time>2013-08-25T08:47:52Z</time>
      </trkpt>
      <trkpt lat="46.17949" lon="6.70614">
        <ele>988.9</ele>
        <time>2013-08-25T08:47:53Z</time>
      </trkpt>
      <trkpt lat="46.17947" lon="6.70615">
        <ele>988.9</ele>
        <time>2013-08-25T08:47:54Z</time>
      </trkpt>
      <trkpt lat="46.17946" lon="6.70617">
        <ele>988.9</ele>
        <time>2013-08-25T08:47:55Z</time>
      </trkpt>
      <trkpt lat="46.17945" lon="6.70618">
        <ele>988.9</ele>
        <time>2013-08-25T08:47:56Z</time>
      </trkpt>
      <trkpt lat="46.17944" lon="6.70619">
        <ele>988.9</ele>
        <time>2013-08-25T08:47:57Z</time>
      </trkpt>
      <trkpt lat="46.17947" lon="6.7062">
        <ele>988.4</ele>
        <time>2013-08-25T08:48:08Z</time>
      </trkpt>
      <trkpt lat="46.1794" lon="6.70622">
        <ele>988.4</ele>
        <time>2013-08-25T08:48:20Z</time>
      </trkpt>
      <trkpt lat="46.17938" lon="6.70619">
        <ele>988.9</ele>
        <time>2013-08-25T08:48:35Z</time>
      </trkpt>
      <trkpt lat="46.17935" lon="6.70619">
        <ele>988.4</ele>
        <time>2013-08-25T08:48:53Z</time>
      </trkpt>
      <trkpt lat="46.17936" lon="6.70618">
        <ele>988.4</ele>
        <time>2013-08-25T08:49:30Z</time>
      </trkpt>
      <trkpt lat="46.17933" lon="6.70616">
        <ele>989.3</ele>
        <time>2013-08-25T08:49:40Z</time>
      </trkpt>
      <trkpt lat="46.1793" lon="6.70613">
        <ele>986</ele>
        <time>2013-08-25T08:49:47Z</time>
      </trkpt>
      <trkpt lat="46.1793" lon="6.70613">
        <ele>989.8</ele>
        <time>2013-08-25T08:49:48Z</time>
      </trkpt>
      <trkpt lat="46.17931" lon="6.70615">
        <ele>988.4</ele>
        <time>2013-08-25T08:50:07Z</time>
      </trkpt>
      <trkpt lat="46.17931" lon="6.70619">
        <ele>988.9</ele>
        <time>2013-08-25T08:50:20Z</time>
      </trkpt>
      <trkpt lat="46.17932" lon="6.70624">
        <ele>988.4</ele>
        <time>2013-08-25T08:50:37Z</time>
      </trkpt>
      <trkpt lat="46.17928" lon="6.7064">
        <ele>987.4</ele>
        <time>2013-08-25T08:50:46Z</time>
      </trkpt>
      <trkpt lat="46.17927" lon="6.70643">
        <ele>986.9</ele>
        <time>2013-08-25T08:50:47Z</time>
      </trkpt>
      <trkpt lat="46.17927" lon="6.70647">
        <ele>987.4</ele>
        <time>2013-08-25T08:50:48Z</time>
      </trkpt>
      <trkpt lat="46.17927" lon="6.70651">
        <ele>987.4</ele>
        <time>2013-08-25T08:50:49Z</time>
      </trkpt>
      <trkpt lat="46.17926" lon="6.70655">
        <ele>986.9</ele>
        <time>2013-08-25T08:50:50Z</time>
      </trkpt>
      <trkpt lat="46.17926" lon="6.7066">
        <ele>986.5</ele>
        <time>2013-08-25T08:50:51Z</time>
      </trkpt>
      <trkpt lat="46.17925" lon="6.70665">
        <ele>986.9</ele>
        <time>2013-08-25T08:50:52Z</time>
      </trkpt>
      <trkpt lat="46.17908" lon="6.70733">
        <ele>984.1</ele>
        <time>2013-08-25T08:51:06Z</time>
      </trkpt>
      <trkpt lat="46.17887" lon="6.70823">
        <ele>981.6</ele>
        <time>2013-08-25T08:51:20Z</time>
      </trkpt>
      <trkpt lat="46.17886" lon="6.70831">
        <ele>981.6</ele>
        <time>2013-08-25T08:51:21Z</time>
      </trkpt>
      <trkpt lat="46.17886" lon="6.70839">
        <ele>981.2</ele>
        <time>2013-08-25T08:51:22Z</time>
      </trkpt>
      <trkpt lat="46.1788" lon="6.70893">
        <ele>981.2</ele>
        <time>2013-08-25T08:51:32Z</time>
      </trkpt>
      <trkpt lat="46.17859" lon="6.70895">
        <ele>981.6</ele>
        <time>2013-08-25T08:51:42Z</time>
      </trkpt>
      <trkpt lat="46.17855" lon="6.70897">
        <ele>981.6</ele>
        <time>2013-08-25T08:52:12Z</time>
      </trkpt>
      <trkpt lat="46.17852" lon="6.70897">
        <ele>981.6</ele>
        <time>2013-08-25T08:52:31Z</time>
      </trkpt>
      <trkpt lat="46.17834" lon="6.70906">
        <ele>982.1</ele>
        <time>2013-08-25T08:52:42Z</time>
      </trkpt>
      <trkpt lat="46.17804" lon="6.7091">
        <ele>982.6</ele>
        <time>2013-08-25T08:52:55Z</time>
      </trkpt>
      <trkpt lat="46.17769" lon="6.70908">
        <ele>983.6</ele>
        <time>2013-08-25T08:53:09Z</time>
      </trkpt>
      <trkpt lat="46.1776" lon="6.70906">
        <ele>985</ele>
        <time>2013-08-25T08:53:13Z</time>
      </trkpt>
      <trkpt lat="46.17714" lon="6.70893">
        <ele>986</ele>
        <time>2013-08-25T08:53:29Z</time>
      </trkpt>
      <trkpt lat="46.17686" lon="6.70923">
        <ele>986.5</ele>
        <time>2013-08-25T08:53:40Z</time>
      </trkpt>
      <trkpt lat="46.17669" lon="6.70947">
        <ele>988.4</ele>
        <time>2013-08-25T08:53:51Z</time>
      </trkpt>
      <trkpt lat="46.17652" lon="6.70975">
        <ele>990.8</ele>
        <time>2013-08-25T08:54:04Z</time>
      </trkpt>
      <trkpt lat="46.17645" lon="6.70984">
        <ele>991.3</ele>
        <time>2013-08-25T08:54:16Z</time>
      </trkpt>
      <trkpt lat="46.17646" lon="6.70982">
        <ele>991.7</ele>
        <time>2013-08-25T08:54:37Z</time>
      </trkpt>
      <trkpt lat="46.17645" lon="6.70986">
        <ele>991.7</ele>
        <time>2013-08-25T08:54:46Z</time>
      </trkpt>
      <trkpt lat="46.17628" lon="6.71017">
        <ele>992.7</ele>
        <time>2013-08-25T08:54:58Z</time>
      </trkpt>
      <trkpt lat="46.17591" lon="6.7103">
        <ele>995.1</ele>
        <time>2013-08-25T08:55:11Z</time>
      </trkpt>
      <trkpt lat="46.17565" lon="6.71044">
        <ele>996.1</ele>
        <time>2013-08-25T08:55:23Z</time>
      </trkpt>
      <trkpt lat="46.17536" lon="6.71056">
        <ele>998.5</ele>
        <time>2013-08-25T08:55:36Z</time>
      </trkpt>
      <trkpt lat="46.1751" lon="6.71068">
        <ele>999.9</ele>
        <time>2013-08-25T08:55:47Z</time>
      </trkpt>
      <trkpt lat="46.17481" lon="6.71099">
        <ele>1002.3</ele>
        <time>2013-08-25T08:56:01Z</time>
      </trkpt>
      <trkpt lat="46.17446" lon="6.71123">
        <ele>1005.2</ele>
        <time>2013-08-25T08:56:17Z</time>
      </trkpt>
      <trkpt lat="46.17412" lon="6.71149">
        <ele>1008.1</ele>
        <time>2013-08-25T08:56:33Z</time>
      </trkpt>
      <trkpt lat="46.17374" lon="6.71172">
        <ele>1011</ele>
        <time>2013-08-25T08:56:51Z</time>
      </trkpt>
      <trkpt lat="46.17342" lon="6.71201">
        <ele>1013.4</ele>
        <time>2013-08-25T08:57:08Z</time>
      </trkpt>
      <trkpt lat="46.1731" lon="6.71222">
        <ele>1016.7</ele>
        <time>2013-08-25T08:57:23Z</time>
      </trkpt>
      <trkpt lat="46.17282" lon="6.71226">
        <ele>1017.7</ele>
        <time>2013-08-25T08:57:35Z</time>
      </trkpt>
      <trkpt lat="46.1724" lon="6.71216">
        <ele>1020.6</ele>
        <time>2013-08-25T08:57:51Z</time>
      </trkpt>
      <trkpt lat="46.17194" lon="6.71223">
        <ele>1022.5</ele>
        <time>2013-08-25T08:58:08Z</time>
      </trkpt>
      <trkpt lat="46.17162" lon="6.71245">
        <ele>1024.9</ele>
        <time>2013-08-25T08:58:22Z</time>
      </trkpt>
      <trkpt lat="46.1712" lon="6.71269">
        <ele>1026.8</ele>
        <time>2013-08-25T08:58:40Z</time>
      </trkpt>
      <trkpt lat="46.17082" lon="6.71295">
        <ele>1030.2</ele>
        <time>2013-08-25T08:58:58Z</time>
      </trkpt>
      <trkpt lat="46.17043" lon="6.71315">
        <ele>1032.6</ele>
        <time>2013-08-25T08:59:16Z</time>
      </trkpt>
      <trkpt lat="46.17007" lon="6.71331">
        <ele>1035.5</ele>
        <time>2013-08-25T08:59:32Z</time>
      </trkpt>
      <trkpt lat="46.16972" lon="6.71355">
        <ele>1038.8</ele>
        <time>2013-08-25T08:59:49Z</time>
      </trkpt>
      <trkpt lat="46.16947" lon="6.71399">
        <ele>1041.3</ele>
        <time>2013-08-25T09:00:07Z</time>
      </trkpt>
      <trkpt lat="46.16927" lon="6.71421">
        <ele>1043.7</ele>
        <time>2013-08-25T09:00:19Z</time>
      </trkpt>
      <trkpt lat="46.16907" lon="6.71444">
        <ele>1045.1</ele>
        <time>2013-08-25T09:00:31Z</time>
      </trkpt>
      <trkpt lat="46.1688" lon="6.71477">
        <ele>1048</ele>
        <time>2013-08-25T09:00:46Z</time>
      </trkpt>
      <trkpt lat="46.16847" lon="6.7149">
        <ele>1050.9</ele>
        <time>2013-08-25T09:01:01Z</time>
      </trkpt>
      <trkpt lat="46.16836" lon="6.71492">
        <ele>1051.8</ele>
        <time>2013-08-25T09:01:06Z</time>
      </trkpt>
      <trkpt lat="46.16834" lon="6.71492">
        <ele>1051.8</ele>
        <time>2013-08-25T09:01:07Z</time>
      </trkpt>
      <trkpt lat="46.16832" lon="6.71492">
        <ele>1051.8</ele>
        <time>2013-08-25T09:01:08Z</time>
      </trkpt>
      <trkpt lat="46.1683" lon="6.71492">
        <ele>1052.3</ele>
        <time>2013-08-25T09:01:09Z</time>
      </trkpt>
      <trkpt lat="46.16828" lon="6.71493">
        <ele>1052.8</ele>
        <time>2013-08-25T09:01:10Z</time>
      </trkpt>
      <trkpt lat="46.16827" lon="6.71493">
        <ele>1052.8</ele>
        <time>2013-08-25T09:01:11Z</time>
      </trkpt>
      <trkpt lat="46.16825" lon="6.71493">
        <ele>1052.3</ele>
        <time>2013-08-25T09:01:12Z</time>
      </trkpt>
      <trkpt lat="46.16793" lon="6.71515">
        <ele>1055.7</ele>
        <time>2013-08-25T09:01:28Z</time>
      </trkpt>
      <trkpt lat="46.16771" lon="6.71541">
        <ele>1057.1</ele>
        <time>2013-08-25T09:01:41Z</time>
      </trkpt>
      <trkpt lat="46.1677" lon="6.71543">
        <ele>1057.1</ele>
        <time>2013-08-25T09:01:42Z</time>
      </trkpt>
      <trkpt lat="46.16769" lon="6.71545">
        <ele>1057.6</ele>
        <time>2013-08-25T09:01:43Z</time>
      </trkpt>
      <trkpt lat="46.16767" lon="6.71548">
        <ele>1057.6</ele>
        <time>2013-08-25T09:01:44Z</time>
      </trkpt>
      <trkpt lat="46.16765" lon="6.7155">
        <ele>1058.1</ele>
        <time>2013-08-25T09:01:45Z</time>
      </trkpt>
      <trkpt lat="46.16764" lon="6.71553">
        <ele>1058.1</ele>
        <time>2013-08-25T09:01:46Z</time>
      </trkpt>
      <trkpt lat="46.16762" lon="6.71555">
        <ele>1058.6</ele>
        <time>2013-08-25T09:01:47Z</time>
      </trkpt>
      <trkpt lat="46.16739" lon="6.71586">
        <ele>1060.5</ele>
        <time>2013-08-25T09:02:00Z</time>
      </trkpt>
      <trkpt lat="46.16713" lon="6.71623">
        <ele>1061.9</ele>
        <time>2013-08-25T09:02:14Z</time>
      </trkpt>
      <trkpt lat="46.16709" lon="6.7163">
        <ele>1063.4</ele>
        <time>2013-08-25T09:02:17Z</time>
      </trkpt>
      <trkpt lat="46.16681" lon="6.71676">
        <ele>1066.2</ele>
        <time>2013-08-25T09:02:35Z</time>
      </trkpt>
      <trkpt lat="46.16652" lon="6.71727">
        <ele>1069.1</ele>
        <time>2013-08-25T09:02:54Z</time>
      </trkpt>
      <trkpt lat="46.16627" lon="6.71769">
        <ele>1070.6</ele>
        <time>2013-08-25T09:03:08Z</time>
      </trkpt>
      <trkpt lat="46.16586" lon="6.71832">
        <ele>1072</ele>
        <time>2013-08-25T09:03:26Z</time>
      </trkpt>
      <trkpt lat="46.16562" lon="6.71863">
        <ele>1073.5</ele>
        <time>2013-08-25T09:03:38Z</time>
      </trkpt>
      <trkpt lat="46.16532" lon="6.71906">
        <ele>1076.3</ele>
        <time>2013-08-25T09:03:54Z</time>
      </trkpt>
      <trkpt lat="46.16501" lon="6.7195">
        <ele>1078.7</ele>
        <time>2013-08-25T09:04:10Z</time>
      </trkpt>
      <trkpt lat="46.16473" lon="6.71987">
        <ele>1080.2</ele>
        <time>2013-08-25T09:04:23Z</time>
      </trkpt>
      <trkpt lat="46.16436" lon="6.72034">
        <ele>1083.1</ele>
        <time>2013-08-25T09:04:40Z</time>
      </trkpt>
      <trkpt lat="46.16397" lon="6.72078">
        <ele>1086</ele>
        <time>2013-08-25T09:04:58Z</time>
      </trkpt>
      <trkpt lat="46.16372" lon="6.72103">
        <ele>1087.4</ele>
        <time>2013-08-25T09:05:09Z</time>
      </trkpt>
      <trkpt lat="46.16333" lon="6.72152">
        <ele>1087.4</ele>
        <time>2013-08-25T09:05:23Z</time>
      </trkpt>
      <trkpt lat="46.16307" lon="6.72188">
        <ele>1086.9</ele>
        <time>2013-08-25T09:05:32Z</time>
      </trkpt>
      <trkpt lat="46.16305" lon="6.72192">
        <ele>1086.9</ele>
        <time>2013-08-25T09:05:33Z</time>
      </trkpt>
      <trkpt lat="46.16258" lon="6.72275">
        <ele>1088.8</ele>
        <time>2013-08-25T09:05:52Z</time>
      </trkpt>
      <trkpt lat="46.16206" lon="6.72344">
        <ele>1088.8</ele>
        <time>2013-08-25T09:06:09Z</time>
      </trkpt>
      <trkpt lat="46.16159" lon="6.72414">
        <ele>1091.2</ele>
        <time>2013-08-25T09:06:26Z</time>
      </trkpt>
      <trkpt lat="46.16128" lon="6.72484">
        <ele>1092.2</ele>
        <time>2013-08-25T09:06:41Z</time>
      </trkpt>
      <trkpt lat="46.16096" lon="6.72556">
        <ele>1094.1</ele>
        <time>2013-08-25T09:06:58Z</time>
      </trkpt>
      <trkpt lat="46.16061" lon="6.7262">
        <ele>1096.5</ele>
        <time>2013-08-25T09:07:15Z</time>
      </trkpt>
      <trkpt lat="46.16018" lon="6.72675">
        <ele>1098.4</ele>
        <time>2013-08-25T09:07:32Z</time>
      </trkpt>
      <trkpt lat="46.15982" lon="6.72713">
        <ele>1100.4</ele>
        <time>2013-08-25T09:07:45Z</time>
      </trkpt>
      <trkpt lat="46.15969" lon="6.72765">
        <ele>1101.8</ele>
        <time>2013-08-25T09:07:57Z</time>
      </trkpt>
      <trkpt lat="46.15948" lon="6.7281">
        <ele>1103.7</ele>
        <time>2013-08-25T09:08:09Z</time>
      </trkpt>
      <trkpt lat="46.15911" lon="6.72854">
        <ele>1105.7</ele>
        <time>2013-08-25T09:08:23Z</time>
      </trkpt>
      <trkpt lat="46.15871" lon="6.72902">
        <ele>1107.6</ele>
        <time>2013-08-25T09:08:39Z</time>
      </trkpt>
      <trkpt lat="46.15847" lon="6.72951">
        <ele>1109</ele>
        <time>2013-08-25T09:08:52Z</time>
      </trkpt>
      <trkpt lat="46.15821" lon="6.73019">
        <ele>1109.5</ele>
        <time>2013-08-25T09:09:06Z</time>
      </trkpt>
      <trkpt lat="46.15783" lon="6.73107">
        <ele>1110.9</ele>
        <time>2013-08-25T09:09:24Z</time>
      </trkpt>
      <trkpt lat="46.15741" lon="6.73156">
        <ele>1112.9</ele>
        <time>2013-08-25T09:09:39Z</time>
      </trkpt>
      <trkpt lat="46.15694" lon="6.73194">
        <ele>1114.8</ele>
        <time>2013-08-25T09:09:55Z</time>
      </trkpt>
      <trkpt lat="46.15661" lon="6.73252">
        <ele>1117.2</ele>
        <time>2013-08-25T09:10:11Z</time>
      </trkpt>
      <trkpt lat="46.15633" lon="6.73327">
        <ele>1119.1</ele>
        <time>2013-08-25T09:10:28Z</time>
      </trkpt>
      <trkpt lat="46.15597" lon="6.73411">
        <ele>1121.5</ele>
        <time>2013-08-25T09:10:48Z</time>
      </trkpt>
      <trkpt lat="46.15555" lon="6.73476">
        <ele>1123.4</ele>
        <time>2013-08-25T09:11:06Z</time>
      </trkpt>
      <trkpt lat="46.15508" lon="6.73537">
        <ele>1125.4</ele>
        <time>2013-08-25T09:11:24Z</time>
      </trkpt>
      <trkpt lat="46.15469" lon="6.73588">
        <ele>1127.8</ele>
        <time>2013-08-25T09:11:40Z</time>
      </trkpt>
      <trkpt lat="46.15466" lon="6.73592">
        <ele>1127.8</ele>
        <time>2013-08-25T09:11:52Z</time>
      </trkpt>
      <trkpt lat="46.15464" lon="6.73591">
        <ele>1127.8</ele>
        <time>2013-08-25T09:12:27Z</time>
      </trkpt>
      <trkpt lat="46.15464" lon="6.73588">
        <ele>1127.3</ele>
        <time>2013-08-25T09:12:49Z</time>
      </trkpt>
      <trkpt lat="46.15463" lon="6.73589">
        <ele>1127.8</ele>
        <time>2013-08-25T09:13:16Z</time>
      </trkpt>
      <trkpt lat="46.15464" lon="6.7359">
        <ele>1127.8</ele>
        <time>2013-08-25T09:13:43Z</time>
      </trkpt>
      <trkpt lat="46.15463" lon="6.7359">
        <ele>1128.2</ele>
        <time>2013-08-25T09:14:11Z</time>
      </trkpt>
      <trkpt lat="46.15468" lon="6.73591">
        <ele>1127.8</ele>
        <time>2013-08-25T09:14:49Z</time>
      </trkpt>
      <trkpt lat="46.15468" lon="6.73588">
        <ele>1127.8</ele>
        <time>2013-08-25T09:15:31Z</time>
      </trkpt>
      <trkpt lat="46.15465" lon="6.7359">
        <ele>1128.2</ele>
        <time>2013-08-25T09:15:59Z</time>
      </trkpt>
      <trkpt lat="46.15464" lon="6.73592">
        <ele>1128.2</ele>
        <time>2013-08-25T09:16:00Z</time>
      </trkpt>
      <trkpt lat="46.15464" lon="6.73594">
        <ele>1128.2</ele>
        <time>2013-08-25T09:16:01Z</time>
      </trkpt>
      <trkpt lat="46.15458" lon="6.73607">
        <ele>1128.2</ele>
        <time>2013-08-25T09:16:07Z</time>
      </trkpt>
      <trkpt lat="46.15458" lon="6.73608">
        <ele>1128.7</ele>
        <time>2013-08-25T09:16:08Z</time>
      </trkpt>
      <trkpt lat="46.15457" lon="6.73617">
        <ele>1128.2</ele>
        <time>2013-08-25T09:16:20Z</time>
      </trkpt>
      <trkpt lat="46.15456" lon="6.73621">
        <ele>1128.7</ele>
        <time>2013-08-25T09:16:22Z</time>
      </trkpt>
      <trkpt lat="46.15455" lon="6.73623">
        <ele>1128.2</ele>
        <time>2013-08-25T09:16:23Z</time>
      </trkpt>
      <trkpt lat="46.15439" lon="6.73666">
        <ele>1130.2</ele>
        <time>2013-08-25T09:16:36Z</time>
      </trkpt>
      <trkpt lat="46.15405" lon="6.73743">
        <ele>1133.1</ele>
        <time>2013-08-25T09:16:56Z</time>
      </trkpt>
      <trkpt lat="46.15401" lon="6.7375">
        <ele>1133.1</ele>
        <time>2013-08-25T09:16:58Z</time>
      </trkpt>
      <trkpt lat="46.15399" lon="6.73754">
        <ele>1133.5</ele>
        <time>2013-08-25T09:16:59Z</time>
      </trkpt>
      <trkpt lat="46.15398" lon="6.73758">
        <ele>1134</ele>
        <time>2013-08-25T09:17:00Z</time>
      </trkpt>
      <trkpt lat="46.15365" lon="6.73828">
        <ele>1135.9</ele>
        <time>2013-08-25T09:17:18Z</time>
      </trkpt>
      <trkpt lat="46.15335" lon="6.73881">
        <ele>1137.9</ele>
        <time>2013-08-25T09:17:34Z</time>
      </trkpt>
      <trkpt lat="46.15293" lon="6.73953">
        <ele>1140.7</ele>
        <time>2013-08-25T09:17:55Z</time>
      </trkpt>
      <trkpt lat="46.15252" lon="6.74014">
        <ele>1142.7</ele>
        <time>2013-08-25T09:18:13Z</time>
      </trkpt>
      <trkpt lat="46.15215" lon="6.74063">
        <ele>1145.1</ele>
        <time>2013-08-25T09:18:29Z</time>
      </trkpt>
      <trkpt lat="46.15175" lon="6.74103">
        <ele>1146</ele>
        <time>2013-08-25T09:18:43Z</time>
      </trkpt>
      <trkpt lat="46.15134" lon="6.74152">
        <ele>1148.4</ele>
        <time>2013-08-25T09:18:59Z</time>
      </trkpt>
      <trkpt lat="46.15101" lon="6.74196">
        <ele>1151.3</ele>
        <time>2013-08-25T09:19:14Z</time>
      </trkpt>
      <trkpt lat="46.15086" lon="6.74219">
        <ele>1153.2</ele>
        <time>2013-08-25T09:19:22Z</time>
      </trkpt>
      <trkpt lat="46.15062" lon="6.74268">
        <ele>1156.1</ele>
        <time>2013-08-25T09:19:39Z</time>
      </trkpt>
      <trkpt lat="46.15048" lon="6.74319">
        <ele>1159</ele>
        <time>2013-08-25T09:19:55Z</time>
      </trkpt>
      <trkpt lat="46.15043" lon="6.74374">
        <ele>1162.4</ele>
        <time>2013-08-25T09:20:11Z</time>
      </trkpt>
      <trkpt lat="46.1504" lon="6.74421">
        <ele>1164.8</ele>
        <time>2013-08-25T09:20:25Z</time>
      </trkpt>
      <trkpt lat="46.15033" lon="6.74474">
        <ele>1168.1</ele>
        <time>2013-08-25T09:20:40Z</time>
      </trkpt>
      <trkpt lat="46.15034" lon="6.74534">
        <ele>1171.5</ele>
        <time>2013-08-25T09:20:57Z</time>
      </trkpt>
      <trkpt lat="46.1503" lon="6.74583">
        <ele>1172.5</ele>
        <time>2013-08-25T09:21:10Z</time>
      </trkpt>
      <trkpt lat="46.15032" lon="6.74652">
        <ele>1173.4</ele>
        <time>2013-08-25T09:21:25Z</time>
      </trkpt>
      <trkpt lat="46.15037" lon="6.74715">
        <ele>1174.9</ele>
        <time>2013-08-25T09:21:38Z</time>
      </trkpt>
      <trkpt lat="46.15059" lon="6.74822">
        <ele>1176.3</ele>
        <time>2013-08-25T09:21:58Z</time>
      </trkpt>
      <trkpt lat="46.1507" lon="6.74898">
        <ele>1176.3</ele>
        <time>2013-08-25T09:22:11Z</time>
      </trkpt>
      <trkpt lat="46.15069" lon="6.74904">
        <ele>1176.8</ele>
        <time>2013-08-25T09:22:12Z</time>
      </trkpt>
      <trkpt lat="46.15069" lon="6.7491">
        <ele>1176.8</ele>
        <time>2013-08-25T09:22:13Z</time>
      </trkpt>
      <trkpt lat="46.15068" lon="6.74916">
        <ele>1176.3</ele>
        <time>2013-08-25T09:22:14Z</time>
      </trkpt>
      <trkpt lat="46.15067" lon="6.74923">
        <ele>1176.3</ele>
        <time>2013-08-25T09:22:15Z</time>
      </trkpt>
      <trkpt lat="46.15042" lon="6.75022">
        <ele>1177.8</ele>
        <time>2013-08-25T09:22:33Z</time>
      </trkpt>
      <trkpt lat="46.15023" lon="6.75095">
        <ele>1180.2</ele>
        <time>2013-08-25T09:22:50Z</time>
      </trkpt>
      <trkpt lat="46.15002" lon="6.75148">
        <ele>1182.6</ele>
        <time>2013-08-25T09:23:06Z</time>
      </trkpt>
      <trkpt lat="46.14985" lon="6.75189">
        <ele>1184.5</ele>
        <time>2013-08-25T09:23:19Z</time>
      </trkpt>
      <trkpt lat="46.14969" lon="6.75242">
        <ele>1186.9</ele>
        <time>2013-08-25T09:23:34Z</time>
      </trkpt>
      <trkpt lat="46.1496" lon="6.75289">
        <ele>1189.8</ele>
        <time>2013-08-25T09:23:49Z</time>
      </trkpt>
      <trkpt lat="46.14958" lon="6.75294">
        <ele>1190.3</ele>
        <time>2013-08-25T09:23:51Z</time>
      </trkpt>
      <trkpt lat="46.14955" lon="6.75334">
        <ele>1193.1</ele>
        <time>2013-08-25T09:24:04Z</time>
      </trkpt>
      <trkpt lat="46.14948" lon="6.75382">
        <ele>1195.1</ele>
        <time>2013-08-25T09:24:20Z</time>
      </trkpt>
      <trkpt lat="46.14936" lon="6.75427">
        <ele>1197.9</ele>
        <time>2013-08-25T09:24:35Z</time>
      </trkpt>
      <trkpt lat="46.14938" lon="6.75474">
        <ele>1201.3</ele>
        <time>2013-08-25T09:24:51Z</time>
      </trkpt>
      <trkpt lat="46.14938" lon="6.75477">
        <ele>1201.3</ele>
        <time>2013-08-25T09:24:52Z</time>
      </trkpt>
      <trkpt lat="46.14939" lon="6.7552">
        <ele>1203.7</ele>
        <time>2013-08-25T09:25:07Z</time>
      </trkpt>
      <trkpt lat="46.14939" lon="6.75522">
        <ele>1203.2</ele>
        <time>2013-08-25T09:25:08Z</time>
      </trkpt>
      <trkpt lat="46.14938" lon="6.75523">
        <ele>1204.2</ele>
        <time>2013-08-25T09:25:09Z</time>
      </trkpt>
      <trkpt lat="46.14941" lon="6.75522">
        <ele>1204.2</ele>
        <time>2013-08-25T09:25:21Z</time>
      </trkpt>
      <trkpt lat="46.1494" lon="6.7552">
        <ele>1203.2</ele>
        <time>2013-08-25T09:25:56Z</time>
      </trkpt>
      <trkpt lat="46.14942" lon="6.75525">
        <ele>1203.2</ele>
        <time>2013-08-25T09:26:34Z</time>
      </trkpt>
      <trkpt lat="46.14943" lon="6.75521">
        <ele>1203.2</ele>
        <time>2013-08-25T09:27:12Z</time>
      </trkpt>
      <trkpt lat="46.14941" lon="6.75519">
        <ele>1203.2</ele>
        <time>2013-08-25T09:27:52Z</time>
      </trkpt>
      <trkpt lat="46.14943" lon="6.75523">
        <ele>1203.7</ele>
        <time>2013-08-25T09:28:33Z</time>
      </trkpt>
      <trkpt lat="46.14944" lon="6.75524">
        <ele>1203.7</ele>
        <time>2013-08-25T09:29:15Z</time>
      </trkpt>
      <trkpt lat="46.1494" lon="6.75515">
        <ele>1203.2</ele>
        <time>2013-08-25T09:29:48Z</time>
      </trkpt>
      <trkpt lat="46.14941" lon="6.7552">
        <ele>1204.7</ele>
        <time>2013-08-25T09:29:51Z</time>
      </trkpt>
      <trkpt lat="46.14942" lon="6.75534">
        <ele>1205.2</ele>
        <time>2013-08-25T09:30:03Z</time>
      </trkpt>
      <trkpt lat="46.14943" lon="6.75566">
        <ele>1207.1</ele>
        <time>2013-08-25T09:30:17Z</time>
      </trkpt>
      <trkpt lat="46.14944" lon="6.75577">
        <ele>1207.6</ele>
        <time>2013-08-25T09:30:33Z</time>
      </trkpt>
      <trkpt lat="46.14945" lon="6.75578">
        <ele>1208</ele>
        <time>2013-08-25T09:30:34Z</time>
      </trkpt>
      <trkpt lat="46.14946" lon="6.7558">
        <ele>1208</ele>
        <time>2013-08-25T09:30:35Z</time>
      </trkpt>
      <trkpt lat="46.14946" lon="6.75582">
        <ele>1208.5</ele>
        <time>2013-08-25T09:30:36Z</time>
      </trkpt>
      <trkpt lat="46.14947" lon="6.75585">
        <ele>1208.5</ele>
        <time>2013-08-25T09:30:37Z</time>
      </trkpt>
      <trkpt lat="46.14947" lon="6.75588">
        <ele>1208.5</ele>
        <time>2013-08-25T09:30:38Z</time>
      </trkpt>
      <trkpt lat="46.14947" lon="6.7559">
        <ele>1209</ele>
        <time>2013-08-25T09:30:39Z</time>
      </trkpt>
      <trkpt lat="46.14948" lon="6.75593">
        <ele>1209</ele>
        <time>2013-08-25T09:30:40Z</time>
      </trkpt>
      <trkpt lat="46.14947" lon="6.75596">
        <ele>1209</ele>
        <time>2013-08-25T09:30:41Z</time>
      </trkpt>
      <trkpt lat="46.14947" lon="6.75599">
        <ele>1209.5</ele>
        <time>2013-08-25T09:30:42Z</time>
      </trkpt>
      <trkpt lat="46.14949" lon="6.75639">
        <ele>1212.8</ele>
        <time>2013-08-25T09:30:57Z</time>
      </trkpt>
      <trkpt lat="46.14948" lon="6.75675">
        <ele>1215.2</ele>
        <time>2013-08-25T09:31:11Z</time>
      </trkpt>
      <trkpt lat="46.14948" lon="6.75677">
        <ele>1215.7</ele>
        <time>2013-08-25T09:31:12Z</time>
      </trkpt>
      <trkpt lat="46.1495" lon="6.75711">
        <ele>1218.6</ele>
        <time>2013-08-25T09:31:27Z</time>
      </trkpt>
      <trkpt lat="46.1495" lon="6.75747">
        <ele>1221.5</ele>
        <time>2013-08-25T09:31:42Z</time>
      </trkpt>
      <trkpt lat="46.14951" lon="6.75752">
        <ele>1222</ele>
        <time>2013-08-25T09:31:45Z</time>
      </trkpt>
      <trkpt lat="46.14951" lon="6.75754">
        <ele>1222.5</ele>
        <time>2013-08-25T09:31:46Z</time>
      </trkpt>
      <trkpt lat="46.14951" lon="6.75756">
        <ele>1222.5</ele>
        <time>2013-08-25T09:31:47Z</time>
      </trkpt>
      <trkpt lat="46.14951" lon="6.75759">
        <ele>1222.5</ele>
        <time>2013-08-25T09:31:48Z</time>
      </trkpt>
      <trkpt lat="46.14952" lon="6.75761">
        <ele>1222.9</ele>
        <time>2013-08-25T09:31:49Z</time>
      </trkpt>
      <trkpt lat="46.14952" lon="6.75763">
        <ele>1222.9</ele>
        <time>2013-08-25T09:31:50Z</time>
      </trkpt>
      <trkpt lat="46.14952" lon="6.75765">
        <ele>1222.5</ele>
        <time>2013-08-25T09:31:51Z</time>
      </trkpt>
      <trkpt lat="46.14953" lon="6.75767">
        <ele>1223.4</ele>
        <time>2013-08-25T09:31:52Z</time>
      </trkpt>
      <trkpt lat="46.14953" lon="6.75769">
        <ele>1223.9</ele>
        <time>2013-08-25T09:31:53Z</time>
      </trkpt>
      <trkpt lat="46.14953" lon="6.7577">
        <ele>1223.9</ele>
        <time>2013-08-25T09:31:54Z</time>
      </trkpt>
      <trkpt lat="46.14952" lon="6.75772">
        <ele>1223.9</ele>
        <time>2013-08-25T09:31:55Z</time>
      </trkpt>
      <trkpt lat="46.14952" lon="6.75774">
        <ele>1224.4</ele>
        <time>2013-08-25T09:31:56Z</time>
      </trkpt>
      <trkpt lat="46.14952" lon="6.75776">
        <ele>1224.4</ele>
        <time>2013-08-25T09:31:57Z</time>
      </trkpt>
      <trkpt lat="46.14952" lon="6.75778">
        <ele>1224.9</ele>
        <time>2013-08-25T09:31:58Z</time>
      </trkpt>
      <trkpt lat="46.14954" lon="6.75808">
        <ele>1226.3</ele>
        <time>2013-08-25T09:32:12Z</time>
      </trkpt>
      <trkpt lat="46.14953" lon="6.75816">
        <ele>1229.7</ele>
        <time>2013-08-25T09:32:16Z</time>
      </trkpt>
      <trkpt lat="46.14953" lon="6.75818">
        <ele>1229.2</ele>
        <time>2013-08-25T09:32:17Z</time>
      </trkpt>
      <trkpt lat="46.1495" lon="6.75843">
        <ele>1231.1</ele>
        <time>2013-08-25T09:32:30Z</time>
      </trkpt>
      <trkpt lat="46.1495" lon="6.75856">
        <ele>1232.1</ele>
        <time>2013-08-25T09:32:36Z</time>
      </trkpt>
      <trkpt lat="46.14939" lon="6.75884">
        <ele>1235.4</ele>
        <time>2013-08-25T09:32:50Z</time>
      </trkpt>
      <trkpt lat="46.14922" lon="6.75915">
        <ele>1237.8</ele>
        <time>2013-08-25T09:33:05Z</time>
      </trkpt>
      <trkpt lat="46.14907" lon="6.75923">
        <ele>1241.2</ele>
        <time>2013-08-25T09:33:17Z</time>
      </trkpt>
      <trkpt lat="46.14893" lon="6.75916">
        <ele>1243.6</ele>
        <time>2013-08-25T09:33:27Z</time>
      </trkpt>
      <trkpt lat="46.14872" lon="6.75912">
        <ele>1246</ele>
        <time>2013-08-25T09:33:40Z</time>
      </trkpt>
      <trkpt lat="46.1487" lon="6.75913">
        <ele>1246.5</ele>
        <time>2013-08-25T09:33:42Z</time>
      </trkpt>
      <trkpt lat="46.14863" lon="6.75918">
        <ele>1247.5</ele>
        <time>2013-08-25T09:33:47Z</time>
      </trkpt>
      <trkpt lat="46.14861" lon="6.75919">
        <ele>1247.5</ele>
        <time>2013-08-25T09:33:48Z</time>
      </trkpt>
      <trkpt lat="46.1486" lon="6.75919">
        <ele>1247.9</ele>
        <time>2013-08-25T09:33:49Z</time>
      </trkpt>
      <trkpt lat="46.14858" lon="6.7592">
        <ele>1247.5</ele>
        <time>2013-08-25T09:33:50Z</time>
      </trkpt>
      <trkpt lat="46.14856" lon="6.75921">
        <ele>1247.9</ele>
        <time>2013-08-25T09:33:51Z</time>
      </trkpt>
      <trkpt lat="46.14855" lon="6.75922">
        <ele>1247.9</ele>
        <time>2013-08-25T09:33:52Z</time>
      </trkpt>
      <trkpt lat="46.14853" lon="6.75923">
        <ele>1248.4</ele>
        <time>2013-08-25T09:33:53Z</time>
      </trkpt>
      <trkpt lat="46.14851" lon="6.75924">
        <ele>1248.4</ele>
        <time>2013-08-25T09:33:54Z</time>
      </trkpt>
      <trkpt lat="46.14827" lon="6.75948">
        <ele>1250.3</ele>
        <time>2013-08-25T09:34:10Z</time>
      </trkpt>
      <trkpt lat="46.14841" lon="6.75968">
        <ele>1252.7</ele>
        <time>2013-08-25T09:34:22Z</time>
      </trkpt>
      <trkpt lat="46.14872" lon="6.75966">
        <ele>1255.6</ele>
        <time>2013-08-25T09:34:38Z</time>
      </trkpt>
      <trkpt lat="46.14886" lon="6.75975">
        <ele>1257.5</ele>
        <time>2013-08-25T09:34:47Z</time>
      </trkpt>
      <trkpt lat="46.14886" lon="6.75977">
        <ele>1257.5</ele>
        <time>2013-08-25T09:34:48Z</time>
      </trkpt>
      <trkpt lat="46.14885" lon="6.7598">
        <ele>1257.5</ele>
        <time>2013-08-25T09:34:49Z</time>
      </trkpt>
      <trkpt lat="46.14884" lon="6.75982">
        <ele>1258.5</ele>
        <time>2013-08-25T09:34:50Z</time>
      </trkpt>
      <trkpt lat="46.14882" lon="6.75983">
        <ele>1258.5</ele>
        <time>2013-08-25T09:34:51Z</time>
      </trkpt>
      <trkpt lat="46.1488" lon="6.75984">
        <ele>1258.5</ele>
        <time>2013-08-25T09:34:52Z</time>
      </trkpt>
      <trkpt lat="46.14879" lon="6.75986">
        <ele>1259</ele>
        <time>2013-08-25T09:34:53Z</time>
      </trkpt>
      <trkpt lat="46.14877" lon="6.75987">
        <ele>1259</ele>
        <time>2013-08-25T09:34:54Z</time>
      </trkpt>
      <trkpt lat="46.14842" lon="6.76">
        <ele>1261.9</ele>
        <time>2013-08-25T09:35:12Z</time>
      </trkpt>
      <trkpt lat="46.14811" lon="6.7601">
        <ele>1265.2</ele>
        <time>2013-08-25T09:35:28Z</time>
      </trkpt>
      <trkpt lat="46.14781" lon="6.76029">
        <ele>1268.6</ele>
        <time>2013-08-25T09:35:45Z</time>
      </trkpt>
      <trkpt lat="46.14759" lon="6.76055">
        <ele>1271.5</ele>
        <time>2013-08-25T09:36:00Z</time>
      </trkpt>
      <trkpt lat="46.14739" lon="6.76072">
        <ele>1273.9</ele>
        <time>2013-08-25T09:36:17Z</time>
      </trkpt>
      <trkpt lat="46.14742" lon="6.7607">
        <ele>1273.4</ele>
        <time>2013-08-25T09:36:30Z</time>
      </trkpt>
      <trkpt lat="46.14746" lon="6.76069">
        <ele>1272.9</ele>
        <time>2013-08-25T09:36:58Z</time>
      </trkpt>
      <trkpt lat="46.14746" lon="6.76068">
        <ele>1273.4</ele>
        <time>2013-08-25T09:37:13Z</time>
      </trkpt>
      <trkpt lat="46.14742" lon="6.76065">
        <ele>1273.4</ele>
        <time>2013-08-25T09:37:17Z</time>
      </trkpt>
      <trkpt lat="46.14725" lon="6.76063">
        <ele>1275.3</ele>
        <time>2013-08-25T09:37:28Z</time>
      </trkpt>
      <trkpt lat="46.14695" lon="6.76047">
        <ele>1278.2</ele>
        <time>2013-08-25T09:37:45Z</time>
      </trkpt>
      <trkpt lat="46.14673" lon="6.76037">
        <ele>1280.6</ele>
        <time>2013-08-25T09:37:58Z</time>
      </trkpt>
      <trkpt lat="46.14663" lon="6.76039">
        <ele>1282.5</ele>
        <time>2013-08-25T09:38:04Z</time>
      </trkpt>
      <trkpt lat="46.14659" lon="6.76064">
        <ele>1285.4</ele>
        <time>2013-08-25T09:38:16Z</time>
      </trkpt>
      <trkpt lat="46.1466" lon="6.76069">
        <ele>1285.9</ele>
        <time>2013-08-25T09:38:19Z</time>
      </trkpt>
      <trkpt lat="46.1466" lon="6.76071">
        <ele>1286.4</ele>
        <time>2013-08-25T09:38:20Z</time>
      </trkpt>
      <trkpt lat="46.14661" lon="6.76072">
        <ele>1286.4</ele>
        <time>2013-08-25T09:38:21Z</time>
      </trkpt>
      <trkpt lat="46.14661" lon="6.76073">
        <ele>1286.4</ele>
        <time>2013-08-25T09:38:22Z</time>
      </trkpt>
      <trkpt lat="46.14662" lon="6.76075">
        <ele>1286.4</ele>
        <time>2013-08-25T09:38:23Z</time>
      </trkpt>
      <trkpt lat="46.14664" lon="6.76076">
        <ele>1286.9</ele>
        <time>2013-08-25T09:38:24Z</time>
      </trkpt>
      <trkpt lat="46.14665" lon="6.76077">
        <ele>1286.9</ele>
        <time>2013-08-25T09:38:25Z</time>
      </trkpt>
      <trkpt lat="46.14667" lon="6.76078">
        <ele>1286.4</ele>
        <time>2013-08-25T09:38:26Z</time>
      </trkpt>
      <trkpt lat="46.14668" lon="6.76078">
        <ele>1287.8</ele>
        <time>2013-08-25T09:38:27Z</time>
      </trkpt>
      <trkpt lat="46.1467" lon="6.76079">
        <ele>1287.3</ele>
        <time>2013-08-25T09:38:28Z</time>
      </trkpt>
      <trkpt lat="46.14671" lon="6.7608">
        <ele>1287.8</ele>
        <time>2013-08-25T09:38:29Z</time>
      </trkpt>
      <trkpt lat="46.14672" lon="6.76082">
        <ele>1288.3</ele>
        <time>2013-08-25T09:38:30Z</time>
      </trkpt>
      <trkpt lat="46.14689" lon="6.76101">
        <ele>1291.2</ele>
        <time>2013-08-25T09:38:43Z</time>
      </trkpt>
      <trkpt lat="46.14694" lon="6.76132">
        <ele>1294.1</ele>
        <time>2013-08-25T09:38:57Z</time>
      </trkpt>
      <trkpt lat="46.14693" lon="6.76134">
        <ele>1294.6</ele>
        <time>2013-08-25T09:38:58Z</time>
      </trkpt>
      <trkpt lat="46.14693" lon="6.76136">
        <ele>1294.1</ele>
        <time>2013-08-25T09:38:59Z</time>
      </trkpt>
      <trkpt lat="46.14693" lon="6.76138">
        <ele>1294.6</ele>
        <time>2013-08-25T09:39:00Z</time>
      </trkpt>
      <trkpt lat="46.14692" lon="6.7614">
        <ele>1295</ele>
        <time>2013-08-25T09:39:01Z</time>
      </trkpt>
      <trkpt lat="46.14692" lon="6.76148">
        <ele>1295.5</ele>
        <time>2013-08-25T09:39:05Z</time>
      </trkpt>
      <trkpt lat="46.14692" lon="6.7615">
        <ele>1296</ele>
        <time>2013-08-25T09:39:06Z</time>
      </trkpt>
      <trkpt lat="46.14693" lon="6.7617">
        <ele>1298.9</ele>
        <time>2013-08-25T09:39:17Z</time>
      </trkpt>
      <trkpt lat="46.14693" lon="6.76171">
        <ele>1298.9</ele>
        <time>2013-08-25T09:39:18Z</time>
      </trkpt>
      <trkpt lat="46.14696" lon="6.7618">
        <ele>1300.3</ele>
        <time>2013-08-25T09:39:24Z</time>
      </trkpt>
      <trkpt lat="46.14697" lon="6.76182">
        <ele>1300.3</ele>
        <time>2013-08-25T09:39:25Z</time>
      </trkpt>
      <trkpt lat="46.14697" lon="6.76185">
        <ele>1300.3</ele>
        <time>2013-08-25T09:39:26Z</time>
      </trkpt>
      <trkpt lat="46.14698" lon="6.76187">
        <ele>1300.8</ele>
        <time>2013-08-25T09:39:27Z</time>
      </trkpt>
      <trkpt lat="46.14698" lon="6.7619">
        <ele>1301.3</ele>
        <time>2013-08-25T09:39:28Z</time>
      </trkpt>
      <trkpt lat="46.14699" lon="6.76192">
        <ele>1301.3</ele>
        <time>2013-08-25T09:39:29Z</time>
      </trkpt>
      <trkpt lat="46.14699" lon="6.76194">
        <ele>1301.8</ele>
        <time>2013-08-25T09:39:30Z</time>
      </trkpt>
      <trkpt lat="46.14699" lon="6.76196">
        <ele>1301.8</ele>
        <time>2013-08-25T09:39:31Z</time>
      </trkpt>
      <trkpt lat="46.147" lon="6.7622">
        <ele>1304.7</ele>
        <time>2013-08-25T09:39:44Z</time>
      </trkpt>
      <trkpt lat="46.14701" lon="6.76224">
        <ele>1304.7</ele>
        <time>2013-08-25T09:39:46Z</time>
      </trkpt>
      <trkpt lat="46.14701" lon="6.76227">
        <ele>1305.1</ele>
        <time>2013-08-25T09:39:47Z</time>
      </trkpt>
      <trkpt lat="46.14702" lon="6.76229">
        <ele>1306.1</ele>
        <time>2013-08-25T09:39:48Z</time>
      </trkpt>
      <trkpt lat="46.14702" lon="6.76232">
        <ele>1305.6</ele>
        <time>2013-08-25T09:39:49Z</time>
      </trkpt>
      <trkpt lat="46.14702" lon="6.76234">
        <ele>1306.1</ele>
        <time>2013-08-25T09:39:50Z</time>
      </trkpt>
      <trkpt lat="46.14702" lon="6.76237">
        <ele>1306.1</ele>
        <time>2013-08-25T09:39:51Z</time>
      </trkpt>
      <trkpt lat="46.14702" lon="6.76239">
        <ele>1306.6</ele>
        <time>2013-08-25T09:39:52Z</time>
      </trkpt>
      <trkpt lat="46.14702" lon="6.76241">
        <ele>1306.6</ele>
        <time>2013-08-25T09:39:53Z</time>
      </trkpt>
      <trkpt lat="46.14702" lon="6.76243">
        <ele>1306.6</ele>
        <time>2013-08-25T09:39:54Z</time>
      </trkpt>
      <trkpt lat="46.147" lon="6.76246">
        <ele>1307.1</ele>
        <time>2013-08-25T09:39:56Z</time>
      </trkpt>
      <trkpt lat="46.14701" lon="6.76248">
        <ele>1307.5</ele>
        <time>2013-08-25T09:39:57Z</time>
      </trkpt>
      <trkpt lat="46.14701" lon="6.7625">
        <ele>1307.5</ele>
        <time>2013-08-25T09:39:58Z</time>
      </trkpt>
      <trkpt lat="46.14701" lon="6.76251">
        <ele>1308</ele>
        <time>2013-08-25T09:39:59Z</time>
      </trkpt>
      <trkpt lat="46.14701" lon="6.76253">
        <ele>1308</ele>
        <time>2013-08-25T09:40:00Z</time>
      </trkpt>
      <trkpt lat="46.14701" lon="6.76255">
        <ele>1308</ele>
        <time>2013-08-25T09:40:01Z</time>
      </trkpt>
      <trkpt lat="46.14698" lon="6.76278">
        <ele>1310.9</ele>
        <time>2013-08-25T09:40:12Z</time>
      </trkpt>
      <trkpt lat="46.1469" lon="6.76314">
        <ele>1313.8</ele>
        <time>2013-08-25T09:40:30Z</time>
      </trkpt>
      <trkpt lat="46.14688" lon="6.76323">
        <ele>1314.7</ele>
        <time>2013-08-25T09:40:35Z</time>
      </trkpt>
      <trkpt lat="46.14687" lon="6.76325">
        <ele>1314.3</ele>
        <time>2013-08-25T09:40:36Z</time>
      </trkpt>
      <trkpt lat="46.14686" lon="6.76327">
        <ele>1315.7</ele>
        <time>2013-08-25T09:40:37Z</time>
      </trkpt>
      <trkpt lat="46.14686" lon="6.76329">
        <ele>1312.8</ele>
        <time>2013-08-25T09:40:38Z</time>
      </trkpt>
      <trkpt lat="46.14685" lon="6.76331">
        <ele>1317.6</ele>
        <time>2013-08-25T09:40:39Z</time>
      </trkpt>
      <trkpt lat="46.14684" lon="6.76332">
        <ele>1316.2</ele>
        <time>2013-08-25T09:40:40Z</time>
      </trkpt>
      <trkpt lat="46.14681" lon="6.76336">
        <ele>1315.7</ele>
        <time>2013-08-25T09:40:43Z</time>
      </trkpt>
      <trkpt lat="46.14677" lon="6.76342">
        <ele>1316.7</ele>
        <time>2013-08-25T09:40:48Z</time>
      </trkpt>
      <trkpt lat="46.1468" lon="6.76346">
        <ele>1316.7</ele>
        <time>2013-08-25T09:40:55Z</time>
      </trkpt>
      <trkpt lat="46.14679" lon="6.76345">
        <ele>1316.7</ele>
        <time>2013-08-25T09:41:05Z</time>
      </trkpt>
      <trkpt lat="46.14676" lon="6.76347">
        <ele>1317.1</ele>
        <time>2013-08-25T09:41:11Z</time>
      </trkpt>
      <trkpt lat="46.14676" lon="6.7635">
        <ele>1316.7</ele>
        <time>2013-08-25T09:41:12Z</time>
      </trkpt>
      <trkpt lat="46.14665" lon="6.76371">
        <ele>1321</ele>
        <time>2013-08-25T09:41:25Z</time>
      </trkpt>
      <trkpt lat="46.14652" lon="6.76388">
        <ele>1322.4</ele>
        <time>2013-08-25T09:41:38Z</time>
      </trkpt>
      <trkpt lat="46.14642" lon="6.76408">
        <ele>1324.8</ele>
        <time>2013-08-25T09:41:50Z</time>
      </trkpt>
      <trkpt lat="46.14628" lon="6.76425">
        <ele>1327.7</ele>
        <time>2013-08-25T09:42:05Z</time>
      </trkpt>
      <trkpt lat="46.14621" lon="6.76434">
        <ele>1329.2</ele>
        <time>2013-08-25T09:42:11Z</time>
      </trkpt>
      <trkpt lat="46.14617" lon="6.76438">
        <ele>1330.6</ele>
        <time>2013-08-25T09:42:15Z</time>
      </trkpt>
      <trkpt lat="46.14616" lon="6.76442">
        <ele>1330.6</ele>
        <time>2013-08-25T09:42:16Z</time>
      </trkpt>
      <trkpt lat="46.14606" lon="6.76488">
        <ele>1333</ele>
        <time>2013-08-25T09:42:31Z</time>
      </trkpt>
      <trkpt lat="46.14605" lon="6.76513">
        <ele>1335.4</ele>
        <time>2013-08-25T09:42:39Z</time>
      </trkpt>
      <trkpt lat="46.14604" lon="6.76516">
        <ele>1334.9</ele>
        <time>2013-08-25T09:42:40Z</time>
      </trkpt>
      <trkpt lat="46.14598" lon="6.7654">
        <ele>1336.4</ele>
        <time>2013-08-25T09:42:48Z</time>
      </trkpt>
      <trkpt lat="46.14591" lon="6.76558">
        <ele>1338.3</ele>
        <time>2013-08-25T09:42:57Z</time>
      </trkpt>
      <trkpt lat="46.14589" lon="6.76565">
        <ele>1338.3</ele>
        <time>2013-08-25T09:42:59Z</time>
      </trkpt>
      <trkpt lat="46.14589" lon="6.76567">
        <ele>1338.8</ele>
        <time>2013-08-25T09:43:00Z</time>
      </trkpt>
      <trkpt lat="46.14573" lon="6.76618">
        <ele>1341.7</ele>
        <time>2013-08-25T09:43:17Z</time>
      </trkpt>
      <trkpt lat="46.14571" lon="6.76624">
        <ele>1343.1</ele>
        <time>2013-08-25T09:43:20Z</time>
      </trkpt>
      <trkpt lat="46.1457" lon="6.76626">
        <ele>1342.6</ele>
        <time>2013-08-25T09:43:21Z</time>
      </trkpt>
      <trkpt lat="46.14546" lon="6.76631">
        <ele>1345.5</ele>
        <time>2013-08-25T09:43:35Z</time>
      </trkpt>
      <trkpt lat="46.14522" lon="6.76646">
        <ele>1348.9</ele>
        <time>2013-08-25T09:43:47Z</time>
      </trkpt>
      <trkpt lat="46.14513" lon="6.76662">
        <ele>1350.3</ele>
        <time>2013-08-25T09:43:57Z</time>
      </trkpt>
      <trkpt lat="46.14514" lon="6.76668">
        <ele>1350.3</ele>
        <time>2013-08-25T09:44:12Z</time>
      </trkpt>
      <trkpt lat="46.14512" lon="6.76674">
        <ele>1350.8</ele>
        <time>2013-08-25T09:44:48Z</time>
      </trkpt>
      <trkpt lat="46.14509" lon="6.76663">
        <ele>1350.8</ele>
        <time>2013-08-25T09:45:25Z</time>
      </trkpt>
      <trkpt lat="46.14509" lon="6.76664">
        <ele>1350.8</ele>
        <time>2013-08-25T09:45:33Z</time>
      </trkpt>
      <trkpt lat="46.14507" lon="6.76666">
        <ele>1351.3</ele>
        <time>2013-08-25T09:45:36Z</time>
      </trkpt>
      <trkpt lat="46.14506" lon="6.76667">
        <ele>1351.3</ele>
        <time>2013-08-25T09:45:37Z</time>
      </trkpt>
      <trkpt lat="46.145" lon="6.76668">
        <ele>1351.8</ele>
        <time>2013-08-25T09:45:42Z</time>
      </trkpt>
      <trkpt lat="46.14499" lon="6.76669">
        <ele>1351.8</ele>
        <time>2013-08-25T09:45:43Z</time>
      </trkpt>
      <trkpt lat="46.14494" lon="6.76691">
        <ele>1354.2</ele>
        <time>2013-08-25T09:45:57Z</time>
      </trkpt>
      <trkpt lat="46.14493" lon="6.7672">
        <ele>1356.6</ele>
        <time>2013-08-25T09:46:10Z</time>
      </trkpt>
      <trkpt lat="46.14495" lon="6.76747">
        <ele>1359</ele>
        <time>2013-08-25T09:46:23Z</time>
      </trkpt>
      <trkpt lat="46.14496" lon="6.76763">
        <ele>1360.4</ele>
        <time>2013-08-25T09:46:31Z</time>
      </trkpt>
      <trkpt lat="46.14496" lon="6.76765">
        <ele>1360.9</ele>
        <time>2013-08-25T09:46:32Z</time>
      </trkpt>
      <trkpt lat="46.14502" lon="6.76791">
        <ele>1362.3</ele>
        <time>2013-08-25T09:46:46Z</time>
      </trkpt>
      <trkpt lat="46.14502" lon="6.76793">
        <ele>1363.3</ele>
        <time>2013-08-25T09:46:47Z</time>
      </trkpt>
      <trkpt lat="46.14503" lon="6.76795">
        <ele>1363.3</ele>
        <time>2013-08-25T09:46:48Z</time>
      </trkpt>
      <trkpt lat="46.14504" lon="6.76797">
        <ele>1363.8</ele>
        <time>2013-08-25T09:46:49Z</time>
      </trkpt>
      <trkpt lat="46.14505" lon="6.76799">
        <ele>1363.8</ele>
        <time>2013-08-25T09:46:50Z</time>
      </trkpt>
      <trkpt lat="46.14507" lon="6.76804">
        <ele>1364.3</ele>
        <time>2013-08-25T09:46:54Z</time>
      </trkpt>
      <trkpt lat="46.14514" lon="6.76819">
        <ele>1366.2</ele>
        <time>2013-08-25T09:47:07Z</time>
      </trkpt>
      <trkpt lat="46.1453" lon="6.76839">
        <ele>1369.1</ele>
        <time>2013-08-25T09:47:22Z</time>
      </trkpt>
      <trkpt lat="46.14535" lon="6.76847">
        <ele>1370.5</ele>
        <time>2013-08-25T09:47:32Z</time>
      </trkpt>
      <trkpt lat="46.14543" lon="6.76869">
        <ele>1372.9</ele>
        <time>2013-08-25T09:47:43Z</time>
      </trkpt>
      <trkpt lat="46.14544" lon="6.76872">
        <ele>1372.9</ele>
        <time>2013-08-25T09:47:44Z</time>
      </trkpt>
      <trkpt lat="46.14558" lon="6.76909">
        <ele>1376.3</ele>
        <time>2013-08-25T09:48:01Z</time>
      </trkpt>
      <trkpt lat="46.14559" lon="6.76912">
        <ele>1376.8</ele>
        <time>2013-08-25T09:48:03Z</time>
      </trkpt>
      <trkpt lat="46.14562" lon="6.76923">
        <ele>1377.7</ele>
        <time>2013-08-25T09:48:10Z</time>
      </trkpt>
      <trkpt lat="46.14562" lon="6.76925">
        <ele>1378.2</ele>
        <time>2013-08-25T09:48:11Z</time>
      </trkpt>
      <trkpt lat="46.14562" lon="6.76927">
        <ele>1378.2</ele>
        <time>2013-08-25T09:48:12Z</time>
      </trkpt>
      <trkpt lat="46.14562" lon="6.76929">
        <ele>1378.7</ele>
        <time>2013-08-25T09:48:13Z</time>
      </trkpt>
      <trkpt lat="46.14562" lon="6.76931">
        <ele>1378.7</ele>
        <time>2013-08-25T09:48:14Z</time>
      </trkpt>
      <trkpt lat="46.14561" lon="6.76947">
        <ele>1379.6</ele>
        <time>2013-08-25T09:48:23Z</time>
      </trkpt>
      <trkpt lat="46.1456" lon="6.76949">
        <ele>1380.1</ele>
        <time>2013-08-25T09:48:24Z</time>
      </trkpt>
      <trkpt lat="46.14559" lon="6.7695">
        <ele>1380.6</ele>
        <time>2013-08-25T09:48:25Z</time>
      </trkpt>
      <trkpt lat="46.14558" lon="6.76952">
        <ele>1380.6</ele>
        <time>2013-08-25T09:48:26Z</time>
      </trkpt>
      <trkpt lat="46.14557" lon="6.76953">
        <ele>1380.6</ele>
        <time>2013-08-25T09:48:27Z</time>
      </trkpt>
      <trkpt lat="46.14547" lon="6.76966">
        <ele>1383.5</ele>
        <time>2013-08-25T09:48:41Z</time>
      </trkpt>
      <trkpt lat="46.14547" lon="6.76969">
        <ele>1383.5</ele>
        <time>2013-08-25T09:48:42Z</time>
      </trkpt>
      <trkpt lat="46.14548" lon="6.76995">
        <ele>1385.4</ele>
        <time>2013-08-25T09:48:53Z</time>
      </trkpt>
      <trkpt lat="46.14551" lon="6.7701">
        <ele>1386.8</ele>
        <time>2013-08-25T09:49:01Z</time>
      </trkpt>
      <trkpt lat="46.14552" lon="6.77011">
        <ele>1386.8</ele>
        <time>2013-08-25T09:49:02Z</time>
      </trkpt>
      <trkpt lat="46.14553" lon="6.77013">
        <ele>1387.3</ele>
        <time>2013-08-25T09:49:03Z</time>
      </trkpt>
      <trkpt lat="46.14554" lon="6.77015">
        <ele>1387.3</ele>
        <time>2013-08-25T09:49:04Z</time>
      </trkpt>
      <trkpt lat="46.14554" lon="6.77017">
        <ele>1387.3</ele>
        <time>2013-08-25T09:49:05Z</time>
      </trkpt>
      <trkpt lat="46.14555" lon="6.77019">
        <ele>1387.3</ele>
        <time>2013-08-25T09:49:06Z</time>
      </trkpt>
      <trkpt lat="46.14562" lon="6.7704">
        <ele>1389.2</ele>
        <time>2013-08-25T09:49:16Z</time>
      </trkpt>
      <trkpt lat="46.14563" lon="6.77041">
        <ele>1389.7</ele>
        <time>2013-08-25T09:49:17Z</time>
      </trkpt>
      <trkpt lat="46.14565" lon="6.77053">
        <ele>1390.2</ele>
        <time>2013-08-25T09:49:24Z</time>
      </trkpt>
      <trkpt lat="46.14566" lon="6.77058">
        <ele>1391.7</ele>
        <time>2013-08-25T09:49:27Z</time>
      </trkpt>
      <trkpt lat="46.14566" lon="6.7706">
        <ele>1391.2</ele>
        <time>2013-08-25T09:49:28Z</time>
      </trkpt>
      <trkpt lat="46.14566" lon="6.77062">
        <ele>1391.7</ele>
        <time>2013-08-25T09:49:29Z</time>
      </trkpt>
      <trkpt lat="46.14565" lon="6.77063">
        <ele>1392.1</ele>
        <time>2013-08-25T09:49:30Z</time>
      </trkpt>
      <trkpt lat="46.14565" lon="6.77064">
        <ele>1391.7</ele>
        <time>2013-08-25T09:49:31Z</time>
      </trkpt>
      <trkpt lat="46.14556" lon="6.77085">
        <ele>1394.1</ele>
        <time>2013-08-25T09:49:46Z</time>
      </trkpt>
      <trkpt lat="46.14543" lon="6.77104">
        <ele>1397.4</ele>
        <time>2013-08-25T09:50:00Z</time>
      </trkpt>
      <trkpt lat="46.14532" lon="6.77119">
        <ele>1399.3</ele>
        <time>2013-08-25T09:50:14Z</time>
      </trkpt>
      <trkpt lat="46.14522" lon="6.7714">
        <ele>1402.7</ele>
        <time>2013-08-25T09:50:27Z</time>
      </trkpt>
      <trkpt lat="46.14516" lon="6.77147">
        <ele>1403.2</ele>
        <time>2013-08-25T09:50:33Z</time>
      </trkpt>
      <trkpt lat="46.14516" lon="6.77149">
        <ele>1403.7</ele>
        <time>2013-08-25T09:50:34Z</time>
      </trkpt>
      <trkpt lat="46.1451" lon="6.77162">
        <ele>1405.1</ele>
        <time>2013-08-25T09:50:42Z</time>
      </trkpt>
      <trkpt lat="46.1451" lon="6.77164">
        <ele>1405.1</ele>
        <time>2013-08-25T09:50:43Z</time>
      </trkpt>
      <trkpt lat="46.14509" lon="6.77168">
        <ele>1405.6</ele>
        <time>2013-08-25T09:50:46Z</time>
      </trkpt>
      <trkpt lat="46.14509" lon="6.7717">
        <ele>1406.1</ele>
        <time>2013-08-25T09:50:47Z</time>
      </trkpt>
      <trkpt lat="46.14508" lon="6.77172">
        <ele>1405.6</ele>
        <time>2013-08-25T09:50:48Z</time>
      </trkpt>
      <trkpt lat="46.145" lon="6.77198">
        <ele>1408.5</ele>
        <time>2013-08-25T09:50:59Z</time>
      </trkpt>
      <trkpt lat="46.14489" lon="6.77225">
        <ele>1410.9</ele>
        <time>2013-08-25T09:51:15Z</time>
      </trkpt>
      <trkpt lat="46.14486" lon="6.77229">
        <ele>1411.8</ele>
        <time>2013-08-25T09:51:18Z</time>
      </trkpt>
      <trkpt lat="46.14485" lon="6.77231">
        <ele>1411.8</ele>
        <time>2013-08-25T09:51:19Z</time>
      </trkpt>
      <trkpt lat="46.14484" lon="6.77233">
        <ele>1412.3</ele>
        <time>2013-08-25T09:51:20Z</time>
      </trkpt>
      <trkpt lat="46.14484" lon="6.77235">
        <ele>1412.3</ele>
        <time>2013-08-25T09:51:21Z</time>
      </trkpt>
      <trkpt lat="46.14483" lon="6.77237">
        <ele>1412.3</ele>
        <time>2013-08-25T09:51:22Z</time>
      </trkpt>
      <trkpt lat="46.14482" lon="6.77239">
        <ele>1412.8</ele>
        <time>2013-08-25T09:51:23Z</time>
      </trkpt>
      <trkpt lat="46.14482" lon="6.77241">
        <ele>1412.8</ele>
        <time>2013-08-25T09:51:24Z</time>
      </trkpt>
      <trkpt lat="46.14482" lon="6.77244">
        <ele>1412.8</ele>
        <time>2013-08-25T09:51:25Z</time>
      </trkpt>
      <trkpt lat="46.14481" lon="6.77246">
        <ele>1413.3</ele>
        <time>2013-08-25T09:51:26Z</time>
      </trkpt>
      <trkpt lat="46.14481" lon="6.77248">
        <ele>1413.3</ele>
        <time>2013-08-25T09:51:27Z</time>
      </trkpt>
      <trkpt lat="46.1448" lon="6.77253">
        <ele>1414.2</ele>
        <time>2013-08-25T09:51:30Z</time>
      </trkpt>
      <trkpt lat="46.14473" lon="6.77272">
        <ele>1416.6</ele>
        <time>2013-08-25T09:51:43Z</time>
      </trkpt>
      <trkpt lat="46.14472" lon="6.77274">
        <ele>1416.2</ele>
        <time>2013-08-25T09:51:44Z</time>
      </trkpt>
      <trkpt lat="46.14472" lon="6.77276">
        <ele>1416.6</ele>
        <time>2013-08-25T09:51:45Z</time>
      </trkpt>
      <trkpt lat="46.14471" lon="6.77279">
        <ele>1417.1</ele>
        <time>2013-08-25T09:51:46Z</time>
      </trkpt>
      <trkpt lat="46.14471" lon="6.77282">
        <ele>1417.1</ele>
        <time>2013-08-25T09:51:47Z</time>
      </trkpt>
      <trkpt lat="46.14471" lon="6.77284">
        <ele>1417.1</ele>
        <time>2013-08-25T09:51:48Z</time>
      </trkpt>
      <trkpt lat="46.1447" lon="6.77286">
        <ele>1417.1</ele>
        <time>2013-08-25T09:51:49Z</time>
      </trkpt>
      <trkpt lat="46.14468" lon="6.77295">
        <ele>1418.1</ele>
        <time>2013-08-25T09:51:54Z</time>
      </trkpt>
      <trkpt lat="46.14466" lon="6.77305">
        <ele>1419.5</ele>
        <time>2013-08-25T09:52:01Z</time>
      </trkpt>
      <trkpt lat="46.14465" lon="6.77307">
        <ele>1420</ele>
        <time>2013-08-25T09:52:02Z</time>
      </trkpt>
      <trkpt lat="46.14464" lon="6.77308">
        <ele>1419.5</ele>
        <time>2013-08-25T09:52:03Z</time>
      </trkpt>
      <trkpt lat="46.14464" lon="6.7731">
        <ele>1420.5</ele>
        <time>2013-08-25T09:52:04Z</time>
      </trkpt>
      <trkpt lat="46.14463" lon="6.77313">
        <ele>1419.5</ele>
        <time>2013-08-25T09:52:05Z</time>
      </trkpt>
      <trkpt lat="46.14463" lon="6.77315">
        <ele>1420.5</ele>
        <time>2013-08-25T09:52:06Z</time>
      </trkpt>
      <trkpt lat="46.14462" lon="6.77317">
        <ele>1420.5</ele>
        <time>2013-08-25T09:52:07Z</time>
      </trkpt>
      <trkpt lat="46.14462" lon="6.7733">
        <ele>1421.5</ele>
        <time>2013-08-25T09:52:13Z</time>
      </trkpt>
      <trkpt lat="46.14461" lon="6.77333">
        <ele>1421.9</ele>
        <time>2013-08-25T09:52:14Z</time>
      </trkpt>
      <trkpt lat="46.14461" lon="6.77339">
        <ele>1421.9</ele>
        <time>2013-08-25T09:52:15Z</time>
      </trkpt>
      <trkpt lat="46.14463" lon="6.7736">
        <ele>1423.4</ele>
        <time>2013-08-25T09:52:23Z</time>
      </trkpt>
      <trkpt lat="46.14463" lon="6.77362">
        <ele>1423.4</ele>
        <time>2013-08-25T09:52:24Z</time>
      </trkpt>
      <trkpt lat="46.14467" lon="6.77393">
        <ele>1425.8</ele>
        <time>2013-08-25T09:52:39Z</time>
      </trkpt>
      <trkpt lat="46.14473" lon="6.77421">
        <ele>1428.2</ele>
        <time>2013-08-25T09:52:53Z</time>
      </trkpt>
      <trkpt lat="46.14477" lon="6.77452">
        <ele>1430.1</ele>
        <time>2013-08-25T09:53:09Z</time>
      </trkpt>
      <trkpt lat="46.1448" lon="6.77485">
        <ele>1433</ele>
        <time>2013-08-25T09:53:25Z</time>
      </trkpt>
      <trkpt lat="46.14483" lon="6.77498">
        <ele>1433.9</ele>
        <time>2013-08-25T09:53:31Z</time>
      </trkpt>
      <trkpt lat="46.14483" lon="6.775">
        <ele>1433.9</ele>
        <time>2013-08-25T09:53:32Z</time>
      </trkpt>
      <trkpt lat="46.14484" lon="6.7751">
        <ele>1434.4</ele>
        <time>2013-08-25T09:53:38Z</time>
      </trkpt>
      <trkpt lat="46.14478" lon="6.7752">
        <ele>1435.4</ele>
        <time>2013-08-25T09:53:47Z</time>
      </trkpt>
      <trkpt lat="46.14457" lon="6.77507">
        <ele>1437.3</ele>
        <time>2013-08-25T09:54:02Z</time>
      </trkpt>
      <trkpt lat="46.14455" lon="6.77507">
        <ele>1437.8</ele>
        <time>2013-08-25T09:54:03Z</time>
      </trkpt>
      <trkpt lat="46.14432" lon="6.775">
        <ele>1439.7</ele>
        <time>2013-08-25T09:54:19Z</time>
      </trkpt>
      <trkpt lat="46.14424" lon="6.775">
        <ele>1441.6</ele>
        <time>2013-08-25T09:54:25Z</time>
      </trkpt>
      <trkpt lat="46.14423" lon="6.77501">
        <ele>1441.6</ele>
        <time>2013-08-25T09:54:26Z</time>
      </trkpt>
      <trkpt lat="46.14422" lon="6.77501">
        <ele>1441.6</ele>
        <time>2013-08-25T09:54:27Z</time>
      </trkpt>
      <trkpt lat="46.14418" lon="6.77503">
        <ele>1441.6</ele>
        <time>2013-08-25T09:54:30Z</time>
      </trkpt>
      <trkpt lat="46.14416" lon="6.77503">
        <ele>1442.1</ele>
        <time>2013-08-25T09:54:31Z</time>
      </trkpt>
      <trkpt lat="46.14414" lon="6.77503">
        <ele>1442.1</ele>
        <time>2013-08-25T09:54:33Z</time>
      </trkpt>
      <trkpt lat="46.14403" lon="6.77509">
        <ele>1443.6</ele>
        <time>2013-08-25T09:54:42Z</time>
      </trkpt>
      <trkpt lat="46.14401" lon="6.77509">
        <ele>1444</ele>
        <time>2013-08-25T09:54:43Z</time>
      </trkpt>
      <trkpt lat="46.14399" lon="6.77511">
        <ele>1444.5</ele>
        <time>2013-08-25T09:54:45Z</time>
      </trkpt>
      <trkpt lat="46.14398" lon="6.77512">
        <ele>1444.5</ele>
        <time>2013-08-25T09:54:46Z</time>
      </trkpt>
      <trkpt lat="46.14396" lon="6.77514">
        <ele>1444.5</ele>
        <time>2013-08-25T09:54:47Z</time>
      </trkpt>
      <trkpt lat="46.14382" lon="6.77522">
        <ele>1446.9</ele>
        <time>2013-08-25T09:55:01Z</time>
      </trkpt>
      <trkpt lat="46.14365" lon="6.77525">
        <ele>1449.3</ele>
        <time>2013-08-25T09:55:13Z</time>
      </trkpt>
      <trkpt lat="46.14346" lon="6.77535">
        <ele>1451.7</ele>
        <time>2013-08-25T09:55:26Z</time>
      </trkpt>
      <trkpt lat="46.14328" lon="6.77551">
        <ele>1454.1</ele>
        <time>2013-08-25T09:55:41Z</time>
      </trkpt>
      <trkpt lat="46.14315" lon="6.77567">
        <ele>1456.5</ele>
        <time>2013-08-25T09:55:54Z</time>
      </trkpt>
      <trkpt lat="46.14314" lon="6.77569">
        <ele>1456.1</ele>
        <time>2013-08-25T09:55:55Z</time>
      </trkpt>
      <trkpt lat="46.14313" lon="6.77574">
        <ele>1457</ele>
        <time>2013-08-25T09:55:58Z</time>
      </trkpt>
      <trkpt lat="46.14313" lon="6.77576">
        <ele>1457</ele>
        <time>2013-08-25T09:55:59Z</time>
      </trkpt>
      <trkpt lat="46.1431" lon="6.77608">
        <ele>1458.9</ele>
        <time>2013-08-25T09:56:12Z</time>
      </trkpt>
      <trkpt lat="46.14309" lon="6.77636">
        <ele>1461.3</ele>
        <time>2013-08-25T09:56:25Z</time>
      </trkpt>
      <trkpt lat="46.14307" lon="6.77654">
        <ele>1463.3</ele>
        <time>2013-08-25T09:56:38Z</time>
      </trkpt>
      <trkpt lat="46.14299" lon="6.77683">
        <ele>1466.6</ele>
        <time>2013-08-25T09:56:52Z</time>
      </trkpt>
      <trkpt lat="46.14299" lon="6.77687">
        <ele>1466.6</ele>
        <time>2013-08-25T09:56:54Z</time>
      </trkpt>
      <trkpt lat="46.14299" lon="6.77689">
        <ele>1466.6</ele>
        <time>2013-08-25T09:56:55Z</time>
      </trkpt>
      <trkpt lat="46.14298" lon="6.77691">
        <ele>1466.6</ele>
        <time>2013-08-25T09:56:56Z</time>
      </trkpt>
      <trkpt lat="46.14284" lon="6.77715">
        <ele>1469</ele>
        <time>2013-08-25T09:57:10Z</time>
      </trkpt>
      <trkpt lat="46.14275" lon="6.77734">
        <ele>1471.9</ele>
        <time>2013-08-25T09:57:22Z</time>
      </trkpt>
      <trkpt lat="46.14261" lon="6.77751">
        <ele>1475.3</ele>
        <time>2013-08-25T09:57:35Z</time>
      </trkpt>
      <trkpt lat="46.14261" lon="6.77753">
        <ele>1475.3</ele>
        <time>2013-08-25T09:57:36Z</time>
      </trkpt>
      <trkpt lat="46.1426" lon="6.77755">
        <ele>1475.3</ele>
        <time>2013-08-25T09:57:37Z</time>
      </trkpt>
      <trkpt lat="46.14258" lon="6.77766">
        <ele>1476.7</ele>
        <time>2013-08-25T09:57:42Z</time>
      </trkpt>
      <trkpt lat="46.14258" lon="6.77771">
        <ele>1477.2</ele>
        <time>2013-08-25T09:57:45Z</time>
      </trkpt>
      <trkpt lat="46.14258" lon="6.77774">
        <ele>1477.2</ele>
        <time>2013-08-25T09:57:46Z</time>
      </trkpt>
      <trkpt lat="46.14258" lon="6.77777">
        <ele>1477.7</ele>
        <time>2013-08-25T09:57:48Z</time>
      </trkpt>
      <trkpt lat="46.14259" lon="6.77779">
        <ele>1476.7</ele>
        <time>2013-08-25T09:57:49Z</time>
      </trkpt>
      <trkpt lat="46.14254" lon="6.77791">
        <ele>1478.7</ele>
        <time>2013-08-25T09:57:57Z</time>
      </trkpt>
      <trkpt lat="46.1425" lon="6.77804">
        <ele>1480.1</ele>
        <time>2013-08-25T09:58:12Z</time>
      </trkpt>
      <trkpt lat="46.14236" lon="6.77816">
        <ele>1481.5</ele>
        <time>2013-08-25T09:58:37Z</time>
      </trkpt>
      <trkpt lat="46.14243" lon="6.77809">
        <ele>1480.1</ele>
        <time>2013-08-25T09:59:00Z</time>
      </trkpt>
      <trkpt lat="46.14241" lon="6.77806">
        <ele>1481.1</ele>
        <time>2013-08-25T09:59:24Z</time>
      </trkpt>
      <trkpt lat="46.1424" lon="6.77805">
        <ele>1481.1</ele>
        <time>2013-08-25T09:59:26Z</time>
      </trkpt>
      <trkpt lat="46.14239" lon="6.77806">
        <ele>1482</ele>
        <time>2013-08-25T09:59:27Z</time>
      </trkpt>
      <trkpt lat="46.14238" lon="6.77807">
        <ele>1482</ele>
        <time>2013-08-25T09:59:28Z</time>
      </trkpt>
      <trkpt lat="46.14237" lon="6.77809">
        <ele>1482.5</ele>
        <time>2013-08-25T09:59:29Z</time>
      </trkpt>
      <trkpt lat="46.14237" lon="6.7781">
        <ele>1482.5</ele>
        <time>2013-08-25T09:59:30Z</time>
      </trkpt>
      <trkpt lat="46.14236" lon="6.77812">
        <ele>1482.5</ele>
        <time>2013-08-25T09:59:31Z</time>
      </trkpt>
      <trkpt lat="46.14233" lon="6.77854">
        <ele>1485.4</ele>
        <time>2013-08-25T09:59:46Z</time>
      </trkpt>
      <trkpt lat="46.14234" lon="6.77868">
        <ele>1487.3</ele>
        <time>2013-08-25T09:59:53Z</time>
      </trkpt>
      <trkpt lat="46.14235" lon="6.7787">
        <ele>1487.3</ele>
        <time>2013-08-25T09:59:54Z</time>
      </trkpt>
      <trkpt lat="46.14235" lon="6.77872">
        <ele>1487.3</ele>
        <time>2013-08-25T09:59:55Z</time>
      </trkpt>
      <trkpt lat="46.14235" lon="6.77874">
        <ele>1487.8</ele>
        <time>2013-08-25T09:59:56Z</time>
      </trkpt>
      <trkpt lat="46.14235" lon="6.77876">
        <ele>1487.8</ele>
        <time>2013-08-25T09:59:57Z</time>
      </trkpt>
      <trkpt lat="46.14235" lon="6.77877">
        <ele>1487.8</ele>
        <time>2013-08-25T09:59:58Z</time>
      </trkpt>
      <trkpt lat="46.14235" lon="6.7788">
        <ele>1488.3</ele>
        <time>2013-08-25T09:59:59Z</time>
      </trkpt>
      <trkpt lat="46.14231" lon="6.77907">
        <ele>1490.7</ele>
        <time>2013-08-25T10:00:14Z</time>
      </trkpt>
      <trkpt lat="46.14226" lon="6.77935">
        <ele>1493.6</ele>
        <time>2013-08-25T10:00:29Z</time>
      </trkpt>
      <trkpt lat="46.14219" lon="6.77964">
        <ele>1495.5</ele>
        <time>2013-08-25T10:00:42Z</time>
      </trkpt>
      <trkpt lat="46.14218" lon="6.78001">
        <ele>1498.4</ele>
        <time>2013-08-25T10:00:57Z</time>
      </trkpt>
      <trkpt lat="46.14216" lon="6.78012">
        <ele>1498.8</ele>
        <time>2013-08-25T10:01:02Z</time>
      </trkpt>
      <trkpt lat="46.14217" lon="6.78019">
        <ele>1499.3</ele>
        <time>2013-08-25T10:01:05Z</time>
      </trkpt>
      <trkpt lat="46.14218" lon="6.78029">
        <ele>1499.8</ele>
        <time>2013-08-25T10:01:10Z</time>
      </trkpt>
      <trkpt lat="46.14217" lon="6.78031">
        <ele>1499.8</ele>
        <time>2013-08-25T10:01:11Z</time>
      </trkpt>
      <trkpt lat="46.14217" lon="6.78033">
        <ele>1500.3</ele>
        <time>2013-08-25T10:01:12Z</time>
      </trkpt>
      <trkpt lat="46.14217" lon="6.78036">
        <ele>1500.3</ele>
        <time>2013-08-25T10:01:13Z</time>
      </trkpt>
      <trkpt lat="46.14217" lon="6.78038">
        <ele>1500.8</ele>
        <time>2013-08-25T10:01:14Z</time>
      </trkpt>
      <trkpt lat="46.1422" lon="6.78052">
        <ele>1502.2</ele>
        <time>2013-08-25T10:01:21Z</time>
      </trkpt>
      <trkpt lat="46.14219" lon="6.78068">
        <ele>1502.7</ele>
        <time>2013-08-25T10:01:28Z</time>
      </trkpt>
      <trkpt lat="46.14219" lon="6.78071">
        <ele>1503.6</ele>
        <time>2013-08-25T10:01:29Z</time>
      </trkpt>
      <trkpt lat="46.14219" lon="6.78073">
        <ele>1503.6</ele>
        <time>2013-08-25T10:01:30Z</time>
      </trkpt>
      <trkpt lat="46.1422" lon="6.78081">
        <ele>1504.1</ele>
        <time>2013-08-25T10:01:34Z</time>
      </trkpt>
      <trkpt lat="46.14219" lon="6.78083">
        <ele>1504.1</ele>
        <time>2013-08-25T10:01:35Z</time>
      </trkpt>
      <trkpt lat="46.1422" lon="6.78086">
        <ele>1504.6</ele>
        <time>2013-08-25T10:01:36Z</time>
      </trkpt>
      <trkpt lat="46.14219" lon="6.78088">
        <ele>1504.6</ele>
        <time>2013-08-25T10:01:37Z</time>
      </trkpt>
      <trkpt lat="46.14219" lon="6.7809">
        <ele>1504.6</ele>
        <time>2013-08-25T10:01:38Z</time>
      </trkpt>
      <trkpt lat="46.1422" lon="6.78093">
        <ele>1504.6</ele>
        <time>2013-08-25T10:01:39Z</time>
      </trkpt>
      <trkpt lat="46.1422" lon="6.78095">
        <ele>1505.1</ele>
        <time>2013-08-25T10:01:40Z</time>
      </trkpt>
      <trkpt lat="46.14222" lon="6.78107">
        <ele>1506</ele>
        <time>2013-08-25T10:01:47Z</time>
      </trkpt>
      <trkpt lat="46.14221" lon="6.78132">
        <ele>1507.5</ele>
        <time>2013-08-25T10:01:58Z</time>
      </trkpt>
      <trkpt lat="46.14221" lon="6.78134">
        <ele>1508</ele>
        <time>2013-08-25T10:01:59Z</time>
      </trkpt>
      <trkpt lat="46.14221" lon="6.78136">
        <ele>1508.5</ele>
        <time>2013-08-25T10:02:00Z</time>
      </trkpt>
      <trkpt lat="46.14221" lon="6.78139">
        <ele>1508</ele>
        <time>2013-08-25T10:02:01Z</time>
      </trkpt>
      <trkpt lat="46.14221" lon="6.78142">
        <ele>1508.5</ele>
        <time>2013-08-25T10:02:02Z</time>
      </trkpt>
      <trkpt lat="46.14218" lon="6.78184">
        <ele>1509.9</ele>
        <time>2013-08-25T10:02:20Z</time>
      </trkpt>
      <trkpt lat="46.14215" lon="6.782">
        <ele>1510.4</ele>
        <time>2013-08-25T10:02:35Z</time>
      </trkpt>
      <trkpt lat="46.14214" lon="6.7819">
        <ele>1510.4</ele>
        <time>2013-08-25T10:03:05Z</time>
      </trkpt>
      <trkpt lat="46.14209" lon="6.78204">
        <ele>1510.4</ele>
        <time>2013-08-25T10:03:34Z</time>
      </trkpt>
      <trkpt lat="46.14215" lon="6.78198">
        <ele>1509.9</ele>
        <time>2013-08-25T10:03:58Z</time>
      </trkpt>
      <trkpt lat="46.14218" lon="6.78188">
        <ele>1510.9</ele>
        <time>2013-08-25T10:04:14Z</time>
      </trkpt>
      <trkpt lat="46.14221" lon="6.78185">
        <ele>1511.3</ele>
        <time>2013-08-25T10:04:44Z</time>
      </trkpt>
      <trkpt lat="46.14224" lon="6.78178">
        <ele>1511.8</ele>
        <time>2013-08-25T10:05:13Z</time>
      </trkpt>
      <trkpt lat="46.1422" lon="6.78186">
        <ele>1511.3</ele>
        <time>2013-08-25T10:05:29Z</time>
      </trkpt>
      <trkpt lat="46.14218" lon="6.78185">
        <ele>1509.9</ele>
        <time>2013-08-25T10:05:35Z</time>
      </trkpt>
      <trkpt lat="46.14221" lon="6.78185">
        <ele>1428.2</ele>
        <time>2013-08-25T10:55:24Z</time>
      </trkpt>
      <trkpt lat="46.13858" lon="6.77751">
        <ele>1429.1</ele>
        <time>2013-08-25T10:55:46Z</time>
      </trkpt>
      <trkpt lat="46.13855" lon="6.77742">
        <ele>1430.1</ele>
        <time>2013-08-25T10:55:53Z</time>
      </trkpt>
      <trkpt lat="46.13849" lon="6.77733">
        <ele>1427.2</ele>
        <time>2013-08-25T10:56:04Z</time>
      </trkpt>
      <trkpt lat="46.13847" lon="6.77724">
        <ele>1428.2</ele>
        <time>2013-08-25T10:56:17Z</time>
      </trkpt>
      <trkpt lat="46.13846" lon="6.77717">
        <ele>1429.1</ele>
        <time>2013-08-25T10:56:22Z</time>
      </trkpt>
      <trkpt lat="46.13845" lon="6.77715">
        <ele>1428.2</ele>
        <time>2013-08-25T10:56:24Z</time>
      </trkpt>
      <trkpt lat="46.13845" lon="6.77713">
        <ele>1427.7</ele>
        <time>2013-08-25T10:56:25Z</time>
      </trkpt>
      <trkpt lat="46.13837" lon="6.77703">
        <ele>1428.2</ele>
        <time>2013-08-25T10:56:38Z</time>
      </trkpt>
      <trkpt lat="46.13836" lon="6.777">
        <ele>1427.7</ele>
        <time>2013-08-25T10:56:41Z</time>
      </trkpt>
      <trkpt lat="46.13831" lon="6.77693">
        <ele>1427.7</ele>
        <time>2013-08-25T10:56:54Z</time>
      </trkpt>
      <trkpt lat="46.13824" lon="6.77685">
        <ele>1429.1</ele>
        <time>2013-08-25T10:57:02Z</time>
      </trkpt>
      <trkpt lat="46.13813" lon="6.77673">
        <ele>1428.7</ele>
        <time>2013-08-25T10:57:15Z</time>
      </trkpt>
      <trkpt lat="46.138" lon="6.77672">
        <ele>1429.6</ele>
        <time>2013-08-25T10:57:32Z</time>
      </trkpt>
      <trkpt lat="46.13796" lon="6.77674">
        <ele>1429.6</ele>
        <time>2013-08-25T10:57:43Z</time>
      </trkpt>
      <trkpt lat="46.13795" lon="6.77668">
        <ele>1430.1</ele>
        <time>2013-08-25T10:58:08Z</time>
      </trkpt>
      <trkpt lat="46.1379" lon="6.77672">
        <ele>1429.6</ele>
        <time>2013-08-25T10:58:40Z</time>
      </trkpt>
      <trkpt lat="46.1379" lon="6.77669">
        <ele>1430.6</ele>
        <time>2013-08-25T10:59:10Z</time>
      </trkpt>
      <trkpt lat="46.13794" lon="6.7767">
        <ele>1431.1</ele>
        <time>2013-08-25T10:59:40Z</time>
      </trkpt>
      <trkpt lat="46.13792" lon="6.77674">
        <ele>1430.6</ele>
        <time>2013-08-25T11:00:04Z</time>
      </trkpt>
      <trkpt lat="46.13788" lon="6.77679">
        <ele>1430.6</ele>
        <time>2013-08-25T11:00:18Z</time>
      </trkpt>
      <trkpt lat="46.13784" lon="6.7768">
        <ele>1430.6</ele>
        <time>2013-08-25T11:00:28Z</time>
      </trkpt>
      <trkpt lat="46.13779" lon="6.77678">
        <ele>1431.1</ele>
        <time>2013-08-25T11:00:36Z</time>
      </trkpt>
      <trkpt lat="46.13769" lon="6.77678">
        <ele>1431.1</ele>
        <time>2013-08-25T11:00:46Z</time>
      </trkpt>
      <trkpt lat="46.13767" lon="6.77679">
        <ele>1433</ele>
        <time>2013-08-25T11:00:47Z</time>
      </trkpt>
      <trkpt lat="46.13749" lon="6.7768">
        <ele>1433</ele>
        <time>2013-08-25T11:00:58Z</time>
      </trkpt>
      <trkpt lat="46.13732" lon="6.77671">
        <ele>1434.4</ele>
        <time>2013-08-25T11:01:08Z</time>
      </trkpt>
      <trkpt lat="46.1373" lon="6.77669">
        <ele>1433.9</ele>
        <time>2013-08-25T11:01:09Z</time>
      </trkpt>
      <trkpt lat="46.13728" lon="6.77667">
        <ele>1433.9</ele>
        <time>2013-08-25T11:01:10Z</time>
      </trkpt>
      <trkpt lat="46.13722" lon="6.77665">
        <ele>1433.9</ele>
        <time>2013-08-25T11:01:14Z</time>
      </trkpt>
      <trkpt lat="46.13714" lon="6.7766">
        <ele>1434.4</ele>
        <time>2013-08-25T11:01:18Z</time>
      </trkpt>
      <trkpt lat="46.13713" lon="6.77657">
        <ele>1433.9</ele>
        <time>2013-08-25T11:01:19Z</time>
      </trkpt>
      <trkpt lat="46.13712" lon="6.77655">
        <ele>1433.9</ele>
        <time>2013-08-25T11:01:20Z</time>
      </trkpt>
      <trkpt lat="46.13711" lon="6.77653">
        <ele>1433.5</ele>
        <time>2013-08-25T11:01:21Z</time>
      </trkpt>
      <trkpt lat="46.13708" lon="6.77651">
        <ele>1433.5</ele>
        <time>2013-08-25T11:01:23Z</time>
      </trkpt>
      <trkpt lat="46.13704" lon="6.77632">
        <ele>1433</ele>
        <time>2013-08-25T11:01:30Z</time>
      </trkpt>
      <trkpt lat="46.13703" lon="6.7763">
        <ele>1433.5</ele>
        <time>2013-08-25T11:01:31Z</time>
      </trkpt>
      <trkpt lat="46.137" lon="6.77627">
        <ele>1433.9</ele>
        <time>2013-08-25T11:01:33Z</time>
      </trkpt>
      <trkpt lat="46.13696" lon="6.7761">
        <ele>1433.9</ele>
        <time>2013-08-25T11:01:44Z</time>
      </trkpt>
      <trkpt lat="46.13695" lon="6.77607">
        <ele>1433.5</ele>
        <time>2013-08-25T11:01:48Z</time>
      </trkpt>
      <trkpt lat="46.13686" lon="6.77602">
        <ele>1434.4</ele>
        <time>2013-08-25T11:01:58Z</time>
      </trkpt>
      <trkpt lat="46.13679" lon="6.77586">
        <ele>1435.4</ele>
        <time>2013-08-25T11:02:12Z</time>
      </trkpt>
      <trkpt lat="46.13675" lon="6.77568">
        <ele>1437.3</ele>
        <time>2013-08-25T11:02:26Z</time>
      </trkpt>
      <trkpt lat="46.13676" lon="6.77563">
        <ele>1437.8</ele>
        <time>2013-08-25T11:02:29Z</time>
      </trkpt>
      <trkpt lat="46.13676" lon="6.77556">
        <ele>1438.3</ele>
        <time>2013-08-25T11:02:34Z</time>
      </trkpt>
      <trkpt lat="46.13676" lon="6.77552">
        <ele>1437.8</ele>
        <time>2013-08-25T11:02:36Z</time>
      </trkpt>
      <trkpt lat="46.13676" lon="6.77544">
        <ele>1438.3</ele>
        <time>2013-08-25T11:02:42Z</time>
      </trkpt>
      <trkpt lat="46.13677" lon="6.77543">
        <ele>1439.2</ele>
        <time>2013-08-25T11:02:43Z</time>
      </trkpt>
      <trkpt lat="46.13677" lon="6.77539">
        <ele>1438.3</ele>
        <time>2013-08-25T11:02:45Z</time>
      </trkpt>
      <trkpt lat="46.13677" lon="6.77536">
        <ele>1437.3</ele>
        <time>2013-08-25T11:02:47Z</time>
      </trkpt>
      <trkpt lat="46.13678" lon="6.77513">
        <ele>1438.8</ele>
        <time>2013-08-25T11:03:01Z</time>
      </trkpt>
      <trkpt lat="46.13676" lon="6.775">
        <ele>1440.2</ele>
        <time>2013-08-25T11:03:12Z</time>
      </trkpt>
      <trkpt lat="46.13677" lon="6.77494">
        <ele>1440.2</ele>
        <time>2013-08-25T11:03:15Z</time>
      </trkpt>
      <trkpt lat="46.13676" lon="6.77479">
        <ele>1441.6</ele>
        <time>2013-08-25T11:03:26Z</time>
      </trkpt>
      <trkpt lat="46.13676" lon="6.77477">
        <ele>1441.6</ele>
        <time>2013-08-25T11:03:27Z</time>
      </trkpt>
      <trkpt lat="46.13675" lon="6.77468">
        <ele>1442.1</ele>
        <time>2013-08-25T11:03:34Z</time>
      </trkpt>
      <trkpt lat="46.13677" lon="6.7745">
        <ele>1442.1</ele>
        <time>2013-08-25T11:03:45Z</time>
      </trkpt>
      <trkpt lat="46.13676" lon="6.77433">
        <ele>1443.1</ele>
        <time>2013-08-25T11:03:58Z</time>
      </trkpt>
      <trkpt lat="46.13677" lon="6.77428">
        <ele>1443.1</ele>
        <time>2013-08-25T11:04:02Z</time>
      </trkpt>
      <trkpt lat="46.13677" lon="6.77426">
        <ele>1443.6</ele>
        <time>2013-08-25T11:04:03Z</time>
      </trkpt>
      <trkpt lat="46.13676" lon="6.77418">
        <ele>1443.1</ele>
        <time>2013-08-25T11:04:09Z</time>
      </trkpt>
      <trkpt lat="46.13673" lon="6.77408">
        <ele>1444.5</ele>
        <time>2013-08-25T11:04:21Z</time>
      </trkpt>
      <trkpt lat="46.13671" lon="6.77402">
        <ele>1445</ele>
        <time>2013-08-25T11:04:25Z</time>
      </trkpt>
      <trkpt lat="46.13668" lon="6.77397">
        <ele>1445.5</ele>
        <time>2013-08-25T11:04:33Z</time>
      </trkpt>
      <trkpt lat="46.13666" lon="6.77395">
        <ele>1444.5</ele>
        <time>2013-08-25T11:04:36Z</time>
      </trkpt>
      <trkpt lat="46.13666" lon="6.77392">
        <ele>1444</ele>
        <time>2013-08-25T11:04:42Z</time>
      </trkpt>
      <trkpt lat="46.13666" lon="6.7739">
        <ele>1443.6</ele>
        <time>2013-08-25T11:04:46Z</time>
      </trkpt>
      <trkpt lat="46.13666" lon="6.7739">
        <ele>1446</ele>
        <time>2013-08-25T11:04:47Z</time>
      </trkpt>
      <trkpt lat="46.13666" lon="6.77389">
        <ele>1444.5</ele>
        <time>2013-08-25T11:04:48Z</time>
      </trkpt>
      <trkpt lat="46.13664" lon="6.77386">
        <ele>1445.5</ele>
        <time>2013-08-25T11:04:53Z</time>
      </trkpt>
      <trkpt lat="46.13664" lon="6.77385">
        <ele>1446.4</ele>
        <time>2013-08-25T11:04:55Z</time>
      </trkpt>
      <trkpt lat="46.13664" lon="6.77381">
        <ele>1447.4</ele>
        <time>2013-08-25T11:05:00Z</time>
      </trkpt>
      <trkpt lat="46.13664" lon="6.7738">
        <ele>1445</ele>
        <time>2013-08-25T11:05:02Z</time>
      </trkpt>
      <trkpt lat="46.13664" lon="6.77379">
        <ele>1447.4</ele>
        <time>2013-08-25T11:05:03Z</time>
      </trkpt>
      <trkpt lat="46.13663" lon="6.77377">
        <ele>1445</ele>
        <time>2013-08-25T11:05:05Z</time>
      </trkpt>
      <trkpt lat="46.13663" lon="6.77375">
        <ele>1447.9</ele>
        <time>2013-08-25T11:05:07Z</time>
      </trkpt>
      <trkpt lat="46.13663" lon="6.77375">
        <ele>1445.5</ele>
        <time>2013-08-25T11:05:09Z</time>
      </trkpt>
      <trkpt lat="46.13662" lon="6.77372">
        <ele>1446</ele>
        <time>2013-08-25T11:05:12Z</time>
      </trkpt>
      <trkpt lat="46.13656" lon="6.77354">
        <ele>1447.9</ele>
        <time>2013-08-25T11:05:22Z</time>
      </trkpt>
      <trkpt lat="46.13649" lon="6.77337">
        <ele>1445.5</ele>
        <time>2013-08-25T11:05:32Z</time>
      </trkpt>
      <trkpt lat="46.13649" lon="6.77337">
        <ele>1446.4</ele>
        <time>2013-08-25T11:05:34Z</time>
      </trkpt>
      <trkpt lat="46.13649" lon="6.77337">
        <ele>1447.9</ele>
        <time>2013-08-25T11:05:35Z</time>
      </trkpt>
      <trkpt lat="46.13649" lon="6.77338">
        <ele>1445.5</ele>
        <time>2013-08-25T11:05:38Z</time>
      </trkpt>
      <trkpt lat="46.13649" lon="6.77339">
        <ele>1448.4</ele>
        <time>2013-08-25T11:05:40Z</time>
      </trkpt>
      <trkpt lat="46.13649" lon="6.7734">
        <ele>1446</ele>
        <time>2013-08-25T11:05:43Z</time>
      </trkpt>
      <trkpt lat="46.1365" lon="6.77339">
        <ele>1447.9</ele>
        <time>2013-08-25T11:05:45Z</time>
      </trkpt>
      <trkpt lat="46.1365" lon="6.77338">
        <ele>1446.4</ele>
        <time>2013-08-25T11:05:46Z</time>
      </trkpt>
      <trkpt lat="46.13651" lon="6.77338">
        <ele>1448.8</ele>
        <time>2013-08-25T11:05:48Z</time>
      </trkpt>
      <trkpt lat="46.1365" lon="6.77338">
        <ele>1446.9</ele>
        <time>2013-08-25T11:05:49Z</time>
      </trkpt>
      <trkpt lat="46.1365" lon="6.77335">
        <ele>1447.9</ele>
        <time>2013-08-25T11:05:55Z</time>
      </trkpt>
      <trkpt lat="46.13649" lon="6.77334">
        <ele>1446</ele>
        <time>2013-08-25T11:05:56Z</time>
      </trkpt>
      <trkpt lat="46.13647" lon="6.77331">
        <ele>1446</ele>
        <time>2013-08-25T11:05:59Z</time>
      </trkpt>
      <trkpt lat="46.13647" lon="6.77329">
        <ele>1447.9</ele>
        <time>2013-08-25T11:06:00Z</time>
      </trkpt>
      <trkpt lat="46.13646" lon="6.77327">
        <ele>1446.4</ele>
        <time>2013-08-25T11:06:02Z</time>
      </trkpt>
      <trkpt lat="46.13645" lon="6.77325">
        <ele>1446.9</ele>
        <time>2013-08-25T11:06:03Z</time>
      </trkpt>
      <trkpt lat="46.13644" lon="6.77323">
        <ele>1447.9</ele>
        <time>2013-08-25T11:06:05Z</time>
      </trkpt>
      <trkpt lat="46.1364" lon="6.77311">
        <ele>1447.9</ele>
        <time>2013-08-25T11:06:16Z</time>
      </trkpt>
      <trkpt lat="46.13639" lon="6.77306">
        <ele>1447.4</ele>
        <time>2013-08-25T11:06:24Z</time>
      </trkpt>
      <trkpt lat="46.13639" lon="6.77304">
        <ele>1447.4</ele>
        <time>2013-08-25T11:06:25Z</time>
      </trkpt>
      <trkpt lat="46.13636" lon="6.77288">
        <ele>1447.4</ele>
        <time>2013-08-25T11:06:30Z</time>
      </trkpt>
      <trkpt lat="46.13635" lon="6.77284">
        <ele>1447.4</ele>
        <time>2013-08-25T11:06:31Z</time>
      </trkpt>
      <trkpt lat="46.13635" lon="6.77278">
        <ele>1447.4</ele>
        <time>2013-08-25T11:06:33Z</time>
      </trkpt>
      <trkpt lat="46.13632" lon="6.77256">
        <ele>1449.3</ele>
        <time>2013-08-25T11:06:43Z</time>
      </trkpt>
      <trkpt lat="46.13631" lon="6.77246">
        <ele>1449.3</ele>
        <time>2013-08-25T11:06:49Z</time>
      </trkpt>
      <trkpt lat="46.1363" lon="6.77234">
        <ele>1451.3</ele>
        <time>2013-08-25T11:06:57Z</time>
      </trkpt>
      <trkpt lat="46.13628" lon="6.7723">
        <ele>1452.7</ele>
        <time>2013-08-25T11:07:01Z</time>
      </trkpt>
      <trkpt lat="46.13626" lon="6.77227">
        <ele>1453.2</ele>
        <time>2013-08-25T11:07:05Z</time>
      </trkpt>
      <trkpt lat="46.13626" lon="6.77226">
        <ele>1451.7</ele>
        <time>2013-08-25T11:07:06Z</time>
      </trkpt>
      <trkpt lat="46.13626" lon="6.77225">
        <ele>1452.7</ele>
        <time>2013-08-25T11:07:07Z</time>
      </trkpt>
      <trkpt lat="46.13626" lon="6.77218">
        <ele>1451.3</ele>
        <time>2013-08-25T11:07:11Z</time>
      </trkpt>
      <trkpt lat="46.13626" lon="6.77216">
        <ele>1451.7</ele>
        <time>2013-08-25T11:07:12Z</time>
      </trkpt>
      <trkpt lat="46.13627" lon="6.77214">
        <ele>1453.2</ele>
        <time>2013-08-25T11:07:13Z</time>
      </trkpt>
      <trkpt lat="46.13628" lon="6.77211">
        <ele>1453.2</ele>
        <time>2013-08-25T11:07:15Z</time>
      </trkpt>
      <trkpt lat="46.13629" lon="6.77209">
        <ele>1451.3</ele>
        <time>2013-08-25T11:07:16Z</time>
      </trkpt>
      <trkpt lat="46.13629" lon="6.77207">
        <ele>1453.7</ele>
        <time>2013-08-25T11:07:17Z</time>
      </trkpt>
      <trkpt lat="46.1363" lon="6.77205">
        <ele>1451.7</ele>
        <time>2013-08-25T11:07:18Z</time>
      </trkpt>
      <trkpt lat="46.1363" lon="6.77204">
        <ele>1453.2</ele>
        <time>2013-08-25T11:07:19Z</time>
      </trkpt>
      <trkpt lat="46.13629" lon="6.77198">
        <ele>1450.8</ele>
        <time>2013-08-25T11:07:23Z</time>
      </trkpt>
      <trkpt lat="46.13629" lon="6.77196">
        <ele>1452.7</ele>
        <time>2013-08-25T11:07:24Z</time>
      </trkpt>
      <trkpt lat="46.13628" lon="6.77194">
        <ele>1451.3</ele>
        <time>2013-08-25T11:07:25Z</time>
      </trkpt>
      <trkpt lat="46.13628" lon="6.77192">
        <ele>1453.2</ele>
        <time>2013-08-25T11:07:26Z</time>
      </trkpt>
      <trkpt lat="46.13628" lon="6.77189">
        <ele>1450.8</ele>
        <time>2013-08-25T11:07:27Z</time>
      </trkpt>
      <trkpt lat="46.13629" lon="6.77185">
        <ele>1453.7</ele>
        <time>2013-08-25T11:07:29Z</time>
      </trkpt>
      <trkpt lat="46.1363" lon="6.77182">
        <ele>1451.7</ele>
        <time>2013-08-25T11:07:30Z</time>
      </trkpt>
      <trkpt lat="46.13632" lon="6.77178">
        <ele>1453.7</ele>
        <time>2013-08-25T11:07:32Z</time>
      </trkpt>
      <trkpt lat="46.13636" lon="6.77171">
        <ele>1453.2</ele>
        <time>2013-08-25T11:07:35Z</time>
      </trkpt>
      <trkpt lat="46.13638" lon="6.7717">
        <ele>1450.3</ele>
        <time>2013-08-25T11:07:36Z</time>
      </trkpt>
      <trkpt lat="46.13639" lon="6.77168">
        <ele>1451.7</ele>
        <time>2013-08-25T11:07:37Z</time>
      </trkpt>
      <trkpt lat="46.1364" lon="6.77166">
        <ele>1455.1</ele>
        <time>2013-08-25T11:07:38Z</time>
      </trkpt>
      <trkpt lat="46.13641" lon="6.77165">
        <ele>1451.7</ele>
        <time>2013-08-25T11:07:39Z</time>
      </trkpt>
      <trkpt lat="46.13643" lon="6.77164">
        <ele>1454.6</ele>
        <time>2013-08-25T11:07:41Z</time>
      </trkpt>
      <trkpt lat="46.13644" lon="6.77163">
        <ele>1451.7</ele>
        <time>2013-08-25T11:07:42Z</time>
      </trkpt>
      <trkpt lat="46.13645" lon="6.77161">
        <ele>1454.6</ele>
        <time>2013-08-25T11:07:43Z</time>
      </trkpt>
      <trkpt lat="46.13644" lon="6.77161">
        <ele>1456.1</ele>
        <time>2013-08-25T11:07:44Z</time>
      </trkpt>
      <trkpt lat="46.13644" lon="6.77159">
        <ele>1452.7</ele>
        <time>2013-08-25T11:07:46Z</time>
      </trkpt>
      <trkpt lat="46.13654" lon="6.77146">
        <ele>1455.1</ele>
        <time>2013-08-25T11:07:51Z</time>
      </trkpt>
      <trkpt lat="46.13654" lon="6.77142">
        <ele>1455.1</ele>
        <time>2013-08-25T11:07:52Z</time>
      </trkpt>
      <trkpt lat="46.13655" lon="6.77139">
        <ele>1455.1</ele>
        <time>2013-08-25T11:07:53Z</time>
      </trkpt>
      <trkpt lat="46.13654" lon="6.77136">
        <ele>1455.6</ele>
        <time>2013-08-25T11:07:54Z</time>
      </trkpt>
      <trkpt lat="46.13654" lon="6.77134">
        <ele>1455.1</ele>
        <time>2013-08-25T11:07:55Z</time>
      </trkpt>
      <trkpt lat="46.13654" lon="6.77131">
        <ele>1454.6</ele>
        <time>2013-08-25T11:07:56Z</time>
      </trkpt>
      <trkpt lat="46.13656" lon="6.77128">
        <ele>1453.2</ele>
        <time>2013-08-25T11:07:57Z</time>
      </trkpt>
      <trkpt lat="46.13658" lon="6.77119">
        <ele>1454.1</ele>
        <time>2013-08-25T11:08:02Z</time>
      </trkpt>
      <trkpt lat="46.13655" lon="6.77116">
        <ele>1457</ele>
        <time>2013-08-25T11:08:04Z</time>
      </trkpt>
      <trkpt lat="46.13656" lon="6.77107">
        <ele>1456.5</ele>
        <time>2013-08-25T11:08:13Z</time>
      </trkpt>
      <trkpt lat="46.13655" lon="6.77102">
        <ele>1458</ele>
        <time>2013-08-25T11:08:20Z</time>
      </trkpt>
      <trkpt lat="46.13657" lon="6.77095">
        <ele>1460.9</ele>
        <time>2013-08-25T11:08:31Z</time>
      </trkpt>
      <trkpt lat="46.13659" lon="6.77092">
        <ele>1457.5</ele>
        <time>2013-08-25T11:08:35Z</time>
      </trkpt>
      <trkpt lat="46.1366" lon="6.77092">
        <ele>1460.4</ele>
        <time>2013-08-25T11:08:36Z</time>
      </trkpt>
      <trkpt lat="46.13655" lon="6.77085">
        <ele>1458.5</ele>
        <time>2013-08-25T11:08:50Z</time>
      </trkpt>
      <trkpt lat="46.13659" lon="6.7708">
        <ele>1461.8</ele>
        <time>2013-08-25T11:08:56Z</time>
      </trkpt>
      <trkpt lat="46.13661" lon="6.77068">
        <ele>1459.9</ele>
        <time>2013-08-25T11:09:06Z</time>
      </trkpt>
      <trkpt lat="46.13662" lon="6.77067">
        <ele>1460.9</ele>
        <time>2013-08-25T11:09:10Z</time>
      </trkpt>
      <trkpt lat="46.13664" lon="6.77063">
        <ele>1460.9</ele>
        <time>2013-08-25T11:09:14Z</time>
      </trkpt>
      <trkpt lat="46.13664" lon="6.77062">
        <ele>1461.3</ele>
        <time>2013-08-25T11:09:15Z</time>
      </trkpt>
      <trkpt lat="46.13664" lon="6.7706">
        <ele>1460.4</ele>
        <time>2013-08-25T11:09:16Z</time>
      </trkpt>
      <trkpt lat="46.13665" lon="6.77051">
        <ele>1464.2</ele>
        <time>2013-08-25T11:09:23Z</time>
      </trkpt>
      <trkpt lat="46.13665" lon="6.7705">
        <ele>1463.7</ele>
        <time>2013-08-25T11:09:24Z</time>
      </trkpt>
      <trkpt lat="46.13676" lon="6.77036">
        <ele>1467.1</ele>
        <time>2013-08-25T11:09:36Z</time>
      </trkpt>
      <trkpt lat="46.13681" lon="6.77031">
        <ele>1468.1</ele>
        <time>2013-08-25T11:09:43Z</time>
      </trkpt>
      <trkpt lat="46.13686" lon="6.77023">
        <ele>1469.5</ele>
        <time>2013-08-25T11:09:56Z</time>
      </trkpt>
      <trkpt lat="46.13694" lon="6.77018">
        <ele>1471</ele>
        <time>2013-08-25T11:10:13Z</time>
      </trkpt>
      <trkpt lat="46.137" lon="6.77012">
        <ele>1471.4</ele>
        <time>2013-08-25T11:10:32Z</time>
      </trkpt>
      <trkpt lat="46.13701" lon="6.77">
        <ele>1473.4</ele>
        <time>2013-08-25T11:10:44Z</time>
      </trkpt>
      <trkpt lat="46.13701" lon="6.76998">
        <ele>1474.3</ele>
        <time>2013-08-25T11:10:45Z</time>
      </trkpt>
      <trkpt lat="46.13701" lon="6.76997">
        <ele>1473.8</ele>
        <time>2013-08-25T11:10:46Z</time>
      </trkpt>
      <trkpt lat="46.13702" lon="6.76994">
        <ele>1475.3</ele>
        <time>2013-08-25T11:10:48Z</time>
      </trkpt>
      <trkpt lat="46.13703" lon="6.76992">
        <ele>1474.3</ele>
        <time>2013-08-25T11:10:49Z</time>
      </trkpt>
      <trkpt lat="46.13703" lon="6.76989">
        <ele>1475.8</ele>
        <time>2013-08-25T11:10:51Z</time>
      </trkpt>
      <trkpt lat="46.13702" lon="6.7698">
        <ele>1476.2</ele>
        <time>2013-08-25T11:10:56Z</time>
      </trkpt>
      <trkpt lat="46.13703" lon="6.76979">
        <ele>1477.2</ele>
        <time>2013-08-25T11:10:57Z</time>
      </trkpt>
      <trkpt lat="46.13703" lon="6.76975">
        <ele>1476.7</ele>
        <time>2013-08-25T11:11:00Z</time>
      </trkpt>
      <trkpt lat="46.13704" lon="6.76973">
        <ele>1476.7</ele>
        <time>2013-08-25T11:11:01Z</time>
      </trkpt>
      <trkpt lat="46.13701" lon="6.76961">
        <ele>1480.6</ele>
        <time>2013-08-25T11:11:11Z</time>
      </trkpt>
      <trkpt lat="46.13701" lon="6.7696">
        <ele>1480.1</ele>
        <time>2013-08-25T11:11:12Z</time>
      </trkpt>
      <trkpt lat="46.137" lon="6.76958">
        <ele>1479.6</ele>
        <time>2013-08-25T11:11:14Z</time>
      </trkpt>
      <trkpt lat="46.13699" lon="6.76939">
        <ele>1482</ele>
        <time>2013-08-25T11:11:29Z</time>
      </trkpt>
      <trkpt lat="46.1369" lon="6.76932">
        <ele>1482.5</ele>
        <time>2013-08-25T11:11:42Z</time>
      </trkpt>
      <trkpt lat="46.13682" lon="6.76921">
        <ele>1482.5</ele>
        <time>2013-08-25T11:11:57Z</time>
      </trkpt>
      <trkpt lat="46.13672" lon="6.76914">
        <ele>1483.9</ele>
        <time>2013-08-25T11:12:11Z</time>
      </trkpt>
      <trkpt lat="46.13665" lon="6.76902">
        <ele>1484.4</ele>
        <time>2013-08-25T11:12:24Z</time>
      </trkpt>
      <trkpt lat="46.13661" lon="6.76885">
        <ele>1483.9</ele>
        <time>2013-08-25T11:12:39Z</time>
      </trkpt>
      <trkpt lat="46.13657" lon="6.76868">
        <ele>1483.9</ele>
        <time>2013-08-25T11:12:52Z</time>
      </trkpt>
      <trkpt lat="46.13657" lon="6.76866">
        <ele>1483.9</ele>
        <time>2013-08-25T11:12:53Z</time>
      </trkpt>
      <trkpt lat="46.1365" lon="6.76854">
        <ele>1483.9</ele>
        <time>2013-08-25T11:13:01Z</time>
      </trkpt>
      <trkpt lat="46.13647" lon="6.76846">
        <ele>1484.4</ele>
        <time>2013-08-25T11:13:05Z</time>
      </trkpt>
      <trkpt lat="46.13633" lon="6.76818">
        <ele>1488.3</ele>
        <time>2013-08-25T11:13:22Z</time>
      </trkpt>
      <trkpt lat="46.13631" lon="6.76816">
        <ele>1487.8</ele>
        <time>2013-08-25T11:13:24Z</time>
      </trkpt>
      <trkpt lat="46.13625" lon="6.76809">
        <ele>1489.2</ele>
        <time>2013-08-25T11:13:28Z</time>
      </trkpt>
      <trkpt lat="46.13617" lon="6.76802">
        <ele>1490.2</ele>
        <time>2013-08-25T11:13:33Z</time>
      </trkpt>
      <trkpt lat="46.13608" lon="6.76784">
        <ele>1492.1</ele>
        <time>2013-08-25T11:13:44Z</time>
      </trkpt>
      <trkpt lat="46.13607" lon="6.76778">
        <ele>1492.1</ele>
        <time>2013-08-25T11:13:47Z</time>
      </trkpt>
      <trkpt lat="46.13617" lon="6.7676">
        <ele>1492.6</ele>
        <time>2013-08-25T11:13:58Z</time>
      </trkpt>
      <trkpt lat="46.13629" lon="6.7676">
        <ele>1495</ele>
        <time>2013-08-25T11:14:10Z</time>
      </trkpt>
      <trkpt lat="46.13634" lon="6.76755">
        <ele>1496.9</ele>
        <time>2013-08-25T11:14:16Z</time>
      </trkpt>
      <trkpt lat="46.13646" lon="6.76734">
        <ele>1499.3</ele>
        <time>2013-08-25T11:14:29Z</time>
      </trkpt>
      <trkpt lat="46.1365" lon="6.76731">
        <ele>1499.8</ele>
        <time>2013-08-25T11:14:33Z</time>
      </trkpt>
      <trkpt lat="46.13661" lon="6.76731">
        <ele>1501.7</ele>
        <time>2013-08-25T11:14:46Z</time>
      </trkpt>
      <trkpt lat="46.13667" lon="6.76721">
        <ele>1503.6</ele>
        <time>2013-08-25T11:15:02Z</time>
      </trkpt>
      <trkpt lat="46.13676" lon="6.76723">
        <ele>1505.6</ele>
        <time>2013-08-25T11:15:16Z</time>
      </trkpt>
      <trkpt lat="46.1368" lon="6.76715">
        <ele>1508</ele>
        <time>2013-08-25T11:15:31Z</time>
      </trkpt>
      <trkpt lat="46.13693" lon="6.76717">
        <ele>1509.9</ele>
        <time>2013-08-25T11:15:46Z</time>
      </trkpt>
      <trkpt lat="46.13703" lon="6.76719">
        <ele>1512.3</ele>
        <time>2013-08-25T11:15:59Z</time>
      </trkpt>
      <trkpt lat="46.13713" lon="6.76714">
        <ele>1513.3</ele>
        <time>2013-08-25T11:16:16Z</time>
      </trkpt>
      <trkpt lat="46.13716" lon="6.76712">
        <ele>1513.7</ele>
        <time>2013-08-25T11:16:29Z</time>
      </trkpt>
      <trkpt lat="46.13717" lon="6.7671">
        <ele>1514.2</ele>
        <time>2013-08-25T11:16:30Z</time>
      </trkpt>
      <trkpt lat="46.13717" lon="6.76707">
        <ele>1513.7</ele>
        <time>2013-08-25T11:16:31Z</time>
      </trkpt>
      <trkpt lat="46.13717" lon="6.76703">
        <ele>1512.8</ele>
        <time>2013-08-25T11:16:42Z</time>
      </trkpt>
      <trkpt lat="46.13719" lon="6.76705">
        <ele>1512.8</ele>
        <time>2013-08-25T11:17:11Z</time>
      </trkpt>
      <trkpt lat="46.13718" lon="6.76704">
        <ele>1512.8</ele>
        <time>2013-08-25T11:17:41Z</time>
      </trkpt>
      <trkpt lat="46.13716" lon="6.76703">
        <ele>1513.3</ele>
        <time>2013-08-25T11:18:06Z</time>
      </trkpt>
      <trkpt lat="46.13715" lon="6.76702">
        <ele>1512.8</ele>
        <time>2013-08-25T11:18:29Z</time>
      </trkpt>
      <trkpt lat="46.13714" lon="6.76701">
        <ele>1514.7</ele>
        <time>2013-08-25T11:18:35Z</time>
      </trkpt>
      <trkpt lat="46.13714" lon="6.76702">
        <ele>1514.2</ele>
        <time>2013-08-25T11:18:53Z</time>
      </trkpt>
      <trkpt lat="46.13717" lon="6.76699">
        <ele>1514.2</ele>
        <time>2013-08-25T11:19:13Z</time>
      </trkpt>
      <trkpt lat="46.13718" lon="6.76695">
        <ele>1514.2</ele>
        <time>2013-08-25T11:19:17Z</time>
      </trkpt>
      <trkpt lat="46.13723" lon="6.76686">
        <ele>1516.1</ele>
        <time>2013-08-25T11:19:29Z</time>
      </trkpt>
      <trkpt lat="46.13722" lon="6.76684">
        <ele>1517.1</ele>
        <time>2013-08-25T11:19:44Z</time>
      </trkpt>
      <trkpt lat="46.13719" lon="6.76683">
        <ele>1516.6</ele>
        <time>2013-08-25T11:19:46Z</time>
      </trkpt>
      <trkpt lat="46.13718" lon="6.76682">
        <ele>1517.1</ele>
        <time>2013-08-25T11:19:47Z</time>
      </trkpt>
      <trkpt lat="46.13717" lon="6.76681">
        <ele>1517.1</ele>
        <time>2013-08-25T11:19:48Z</time>
      </trkpt>
      <trkpt lat="46.13715" lon="6.76679">
        <ele>1517.1</ele>
        <time>2013-08-25T11:19:49Z</time>
      </trkpt>
      <trkpt lat="46.13714" lon="6.76678">
        <ele>1517.6</ele>
        <time>2013-08-25T11:19:50Z</time>
      </trkpt>
      <trkpt lat="46.13712" lon="6.76678">
        <ele>1518.1</ele>
        <time>2013-08-25T11:19:51Z</time>
      </trkpt>
      <trkpt lat="46.1371" lon="6.76678">
        <ele>1518.5</ele>
        <time>2013-08-25T11:19:52Z</time>
      </trkpt>
      <trkpt lat="46.13693" lon="6.76669">
        <ele>1520.9</ele>
        <time>2013-08-25T11:20:05Z</time>
      </trkpt>
      <trkpt lat="46.13683" lon="6.76671">
        <ele>1523.4</ele>
        <time>2013-08-25T11:20:17Z</time>
      </trkpt>
      <trkpt lat="46.13662" lon="6.76662">
        <ele>1526.2</ele>
        <time>2013-08-25T11:20:32Z</time>
      </trkpt>
      <trkpt lat="46.13652" lon="6.76656">
        <ele>1527.2</ele>
        <time>2013-08-25T11:20:47Z</time>
      </trkpt>
      <trkpt lat="46.13651" lon="6.76652">
        <ele>1527.7</ele>
        <time>2013-08-25T11:20:49Z</time>
      </trkpt>
      <trkpt lat="46.13649" lon="6.76651">
        <ele>1527.2</ele>
        <time>2013-08-25T11:20:50Z</time>
      </trkpt>
      <trkpt lat="46.13648" lon="6.76649">
        <ele>1528.2</ele>
        <time>2013-08-25T11:20:51Z</time>
      </trkpt>
      <trkpt lat="46.13647" lon="6.76647">
        <ele>1527.7</ele>
        <time>2013-08-25T11:20:52Z</time>
      </trkpt>
      <trkpt lat="46.13632" lon="6.76628">
        <ele>1529.6</ele>
        <time>2013-08-25T11:21:06Z</time>
      </trkpt>
      <trkpt lat="46.13618" lon="6.7662">
        <ele>1533</ele>
        <time>2013-08-25T11:21:17Z</time>
      </trkpt>
      <trkpt lat="46.13607" lon="6.76607">
        <ele>1534.4</ele>
        <time>2013-08-25T11:21:29Z</time>
      </trkpt>
      <trkpt lat="46.13603" lon="6.76603">
        <ele>1535.8</ele>
        <time>2013-08-25T11:21:37Z</time>
      </trkpt>
      <trkpt lat="46.13597" lon="6.76608">
        <ele>1537.3</ele>
        <time>2013-08-25T11:21:43Z</time>
      </trkpt>
      <trkpt lat="46.13596" lon="6.76614">
        <ele>1537.3</ele>
        <time>2013-08-25T11:21:47Z</time>
      </trkpt>
      <trkpt lat="46.13595" lon="6.76615">
        <ele>1537.8</ele>
        <time>2013-08-25T11:21:48Z</time>
      </trkpt>
      <trkpt lat="46.13583" lon="6.76631">
        <ele>1539.7</ele>
        <time>2013-08-25T11:22:03Z</time>
      </trkpt>
      <trkpt lat="46.13582" lon="6.76633">
        <ele>1540.7</ele>
        <time>2013-08-25T11:22:05Z</time>
      </trkpt>
      <trkpt lat="46.13576" lon="6.76638">
        <ele>1541.1</ele>
        <time>2013-08-25T11:22:11Z</time>
      </trkpt>
      <trkpt lat="46.13576" lon="6.76639">
        <ele>1541.6</ele>
        <time>2013-08-25T11:22:12Z</time>
      </trkpt>
      <trkpt lat="46.13566" lon="6.7664">
        <ele>1542.6</ele>
        <time>2013-08-25T11:22:22Z</time>
      </trkpt>
      <trkpt lat="46.13564" lon="6.76639">
        <ele>1543.5</ele>
        <time>2013-08-25T11:22:23Z</time>
      </trkpt>
      <trkpt lat="46.13556" lon="6.76631">
        <ele>1544</ele>
        <time>2013-08-25T11:22:32Z</time>
      </trkpt>
      <trkpt lat="46.13553" lon="6.76629">
        <ele>1544.5</ele>
        <time>2013-08-25T11:22:35Z</time>
      </trkpt>
      <trkpt lat="46.1355" lon="6.76628">
        <ele>1545</ele>
        <time>2013-08-25T11:22:36Z</time>
      </trkpt>
      <trkpt lat="46.13542" lon="6.76615">
        <ele>1546.4</ele>
        <time>2013-08-25T11:22:45Z</time>
      </trkpt>
      <trkpt lat="46.13542" lon="6.76613">
        <ele>1545.9</ele>
        <time>2013-08-25T11:22:46Z</time>
      </trkpt>
      <trkpt lat="46.13542" lon="6.7661">
        <ele>1545.9</ele>
        <time>2013-08-25T11:22:47Z</time>
      </trkpt>
      <trkpt lat="46.13543" lon="6.76599">
        <ele>1546.9</ele>
        <time>2013-08-25T11:22:52Z</time>
      </trkpt>
      <trkpt lat="46.13543" lon="6.76596">
        <ele>1548.3</ele>
        <time>2013-08-25T11:22:54Z</time>
      </trkpt>
      <trkpt lat="46.13542" lon="6.76592">
        <ele>1547.9</ele>
        <time>2013-08-25T11:22:56Z</time>
      </trkpt>
      <trkpt lat="46.13542" lon="6.7659">
        <ele>1547.9</ele>
        <time>2013-08-25T11:22:57Z</time>
      </trkpt>
      <trkpt lat="46.13541" lon="6.76588">
        <ele>1548.8</ele>
        <time>2013-08-25T11:22:58Z</time>
      </trkpt>
      <trkpt lat="46.13536" lon="6.76575">
        <ele>1550.7</ele>
        <time>2013-08-25T11:23:06Z</time>
      </trkpt>
      <trkpt lat="46.13527" lon="6.76554">
        <ele>1552.7</ele>
        <time>2013-08-25T11:23:20Z</time>
      </trkpt>
      <trkpt lat="46.13519" lon="6.76535">
        <ele>1555.6</ele>
        <time>2013-08-25T11:23:34Z</time>
      </trkpt>
      <trkpt lat="46.13515" lon="6.7653">
        <ele>1557.5</ele>
        <time>2013-08-25T11:23:38Z</time>
      </trkpt>
      <trkpt lat="46.13503" lon="6.76524">
        <ele>1558.9</ele>
        <time>2013-08-25T11:23:47Z</time>
      </trkpt>
      <trkpt lat="46.13501" lon="6.76524">
        <ele>1558.9</ele>
        <time>2013-08-25T11:23:48Z</time>
      </trkpt>
      <trkpt lat="46.13499" lon="6.76523">
        <ele>1558.4</ele>
        <time>2013-08-25T11:23:49Z</time>
      </trkpt>
      <trkpt lat="46.13491" lon="6.76519">
        <ele>1559.4</ele>
        <time>2013-08-25T11:23:53Z</time>
      </trkpt>
      <trkpt lat="46.1349" lon="6.76518">
        <ele>1559.4</ele>
        <time>2013-08-25T11:23:54Z</time>
      </trkpt>
      <trkpt lat="46.13489" lon="6.76517">
        <ele>1559.4</ele>
        <time>2013-08-25T11:23:55Z</time>
      </trkpt>
      <trkpt lat="46.13481" lon="6.76512">
        <ele>1560.8</ele>
        <time>2013-08-25T11:24:01Z</time>
      </trkpt>
      <trkpt lat="46.13466" lon="6.76498">
        <ele>1564.2</ele>
        <time>2013-08-25T11:24:15Z</time>
      </trkpt>
      <trkpt lat="46.13458" lon="6.7649">
        <ele>1564.7</ele>
        <time>2013-08-25T11:24:23Z</time>
      </trkpt>
      <trkpt lat="46.13456" lon="6.76489">
        <ele>1564.7</ele>
        <time>2013-08-25T11:24:24Z</time>
      </trkpt>
      <trkpt lat="46.13455" lon="6.76488">
        <ele>1565.2</ele>
        <time>2013-08-25T11:24:25Z</time>
      </trkpt>
      <trkpt lat="46.13453" lon="6.76488">
        <ele>1565.2</ele>
        <time>2013-08-25T11:24:27Z</time>
      </trkpt>
      <trkpt lat="46.13451" lon="6.76488">
        <ele>1566.1</ele>
        <time>2013-08-25T11:24:28Z</time>
      </trkpt>
      <trkpt lat="46.1345" lon="6.76487">
        <ele>1565.6</ele>
        <time>2013-08-25T11:24:29Z</time>
      </trkpt>
      <trkpt lat="46.13449" lon="6.76487">
        <ele>1566.1</ele>
        <time>2013-08-25T11:24:30Z</time>
      </trkpt>
      <trkpt lat="46.13448" lon="6.76487">
        <ele>1566.6</ele>
        <time>2013-08-25T11:24:31Z</time>
      </trkpt>
      <trkpt lat="46.13447" lon="6.76486">
        <ele>1566.6</ele>
        <time>2013-08-25T11:24:32Z</time>
      </trkpt>
      <trkpt lat="46.13445" lon="6.76485">
        <ele>1567.1</ele>
        <time>2013-08-25T11:24:33Z</time>
      </trkpt>
      <trkpt lat="46.13436" lon="6.76482">
        <ele>1568.5</ele>
        <time>2013-08-25T11:24:40Z</time>
      </trkpt>
      <trkpt lat="46.13434" lon="6.76481">
        <ele>1569</ele>
        <time>2013-08-25T11:24:42Z</time>
      </trkpt>
      <trkpt lat="46.13432" lon="6.7648">
        <ele>1569</ele>
        <time>2013-08-25T11:24:44Z</time>
      </trkpt>
      <trkpt lat="46.13431" lon="6.76479">
        <ele>1569</ele>
        <time>2013-08-25T11:24:45Z</time>
      </trkpt>
      <trkpt lat="46.1343" lon="6.76478">
        <ele>1568.5</ele>
        <time>2013-08-25T11:24:46Z</time>
      </trkpt>
      <trkpt lat="46.13429" lon="6.76477">
        <ele>1568.1</ele>
        <time>2013-08-25T11:24:47Z</time>
      </trkpt>
      <trkpt lat="46.13428" lon="6.76476">
        <ele>1569.5</ele>
        <time>2013-08-25T11:24:48Z</time>
      </trkpt>
      <trkpt lat="46.13427" lon="6.76475">
        <ele>1569</ele>
        <time>2013-08-25T11:24:49Z</time>
      </trkpt>
      <trkpt lat="46.13415" lon="6.7646">
        <ele>1570.9</ele>
        <time>2013-08-25T11:25:01Z</time>
      </trkpt>
      <trkpt lat="46.13414" lon="6.76459">
        <ele>1570.9</ele>
        <time>2013-08-25T11:25:02Z</time>
      </trkpt>
      <trkpt lat="46.13413" lon="6.76458">
        <ele>1569.5</ele>
        <time>2013-08-25T11:25:03Z</time>
      </trkpt>
      <trkpt lat="46.13412" lon="6.76456">
        <ele>1570.9</ele>
        <time>2013-08-25T11:25:04Z</time>
      </trkpt>
      <trkpt lat="46.13411" lon="6.76454">
        <ele>1570.5</ele>
        <time>2013-08-25T11:25:05Z</time>
      </trkpt>
      <trkpt lat="46.1341" lon="6.76453">
        <ele>1571.9</ele>
        <time>2013-08-25T11:25:06Z</time>
      </trkpt>
      <trkpt lat="46.13405" lon="6.76444">
        <ele>1572.4</ele>
        <time>2013-08-25T11:25:13Z</time>
      </trkpt>
      <trkpt lat="46.13404" lon="6.76443">
        <ele>1572.9</ele>
        <time>2013-08-25T11:25:14Z</time>
      </trkpt>
      <trkpt lat="46.13402" lon="6.7644">
        <ele>1573.3</ele>
        <time>2013-08-25T11:25:17Z</time>
      </trkpt>
      <trkpt lat="46.13401" lon="6.76439">
        <ele>1574.8</ele>
        <time>2013-08-25T11:25:18Z</time>
      </trkpt>
      <trkpt lat="46.134" lon="6.76437">
        <ele>1574.3</ele>
        <time>2013-08-25T11:25:19Z</time>
      </trkpt>
      <trkpt lat="46.13399" lon="6.76436">
        <ele>1574.3</ele>
        <time>2013-08-25T11:25:20Z</time>
      </trkpt>
      <trkpt lat="46.13398" lon="6.76435">
        <ele>1573.8</ele>
        <time>2013-08-25T11:25:21Z</time>
      </trkpt>
      <trkpt lat="46.13397" lon="6.76433">
        <ele>1573.8</ele>
        <time>2013-08-25T11:25:22Z</time>
      </trkpt>
      <trkpt lat="46.13395" lon="6.76432">
        <ele>1573.8</ele>
        <time>2013-08-25T11:25:23Z</time>
      </trkpt>
      <trkpt lat="46.13394" lon="6.76431">
        <ele>1574.8</ele>
        <time>2013-08-25T11:25:24Z</time>
      </trkpt>
      <trkpt lat="46.13379" lon="6.76434">
        <ele>1578.1</ele>
        <time>2013-08-25T11:25:37Z</time>
      </trkpt>
      <trkpt lat="46.1336" lon="6.76443">
        <ele>1581</ele>
        <time>2013-08-25T11:25:54Z</time>
      </trkpt>
      <trkpt lat="46.13348" lon="6.7644">
        <ele>1581.5</ele>
        <time>2013-08-25T11:26:05Z</time>
      </trkpt>
      <trkpt lat="46.13347" lon="6.7644">
        <ele>1583.9</ele>
        <time>2013-08-25T11:26:06Z</time>
      </trkpt>
      <trkpt lat="46.13346" lon="6.7644">
        <ele>1583.9</ele>
        <time>2013-08-25T11:26:07Z</time>
      </trkpt>
      <trkpt lat="46.13344" lon="6.7644">
        <ele>1582.5</ele>
        <time>2013-08-25T11:26:09Z</time>
      </trkpt>
      <trkpt lat="46.13342" lon="6.76442">
        <ele>1583.9</ele>
        <time>2013-08-25T11:26:11Z</time>
      </trkpt>
      <trkpt lat="46.13332" lon="6.76442">
        <ele>1586.8</ele>
        <time>2013-08-25T11:26:19Z</time>
      </trkpt>
      <trkpt lat="46.1333" lon="6.76443">
        <ele>1583.9</ele>
        <time>2013-08-25T11:26:21Z</time>
      </trkpt>
      <trkpt lat="46.13328" lon="6.76444">
        <ele>1586.8</ele>
        <time>2013-08-25T11:26:22Z</time>
      </trkpt>
      <trkpt lat="46.13327" lon="6.76444">
        <ele>1587.3</ele>
        <time>2013-08-25T11:26:23Z</time>
      </trkpt>
      <trkpt lat="46.1332" lon="6.76442">
        <ele>1589.2</ele>
        <time>2013-08-25T11:26:30Z</time>
      </trkpt>
      <trkpt lat="46.13312" lon="6.76442">
        <ele>1589.2</ele>
        <time>2013-08-25T11:26:37Z</time>
      </trkpt>
      <trkpt lat="46.13311" lon="6.76441">
        <ele>1590.2</ele>
        <time>2013-08-25T11:26:38Z</time>
      </trkpt>
      <trkpt lat="46.1331" lon="6.76441">
        <ele>1590.6</ele>
        <time>2013-08-25T11:26:39Z</time>
      </trkpt>
      <trkpt lat="46.13309" lon="6.7644">
        <ele>1591.6</ele>
        <time>2013-08-25T11:26:40Z</time>
      </trkpt>
      <trkpt lat="46.13308" lon="6.7644">
        <ele>1591.1</ele>
        <time>2013-08-25T11:26:41Z</time>
      </trkpt>
      <trkpt lat="46.13305" lon="6.76439">
        <ele>1590.2</ele>
        <time>2013-08-25T11:26:44Z</time>
      </trkpt>
      <trkpt lat="46.13304" lon="6.76438">
        <ele>1589.7</ele>
        <time>2013-08-25T11:26:45Z</time>
      </trkpt>
      <trkpt lat="46.13303" lon="6.76438">
        <ele>1590.2</ele>
        <time>2013-08-25T11:26:46Z</time>
      </trkpt>
      <trkpt lat="46.13302" lon="6.76437">
        <ele>1590.2</ele>
        <time>2013-08-25T11:26:47Z</time>
      </trkpt>
      <trkpt lat="46.133" lon="6.76436">
        <ele>1591.1</ele>
        <time>2013-08-25T11:26:48Z</time>
      </trkpt>
      <trkpt lat="46.13297" lon="6.76434">
        <ele>1590.2</ele>
        <time>2013-08-25T11:26:51Z</time>
      </trkpt>
      <trkpt lat="46.1329" lon="6.76433">
        <ele>1593.5</ele>
        <time>2013-08-25T11:26:57Z</time>
      </trkpt>
      <trkpt lat="46.13285" lon="6.76434">
        <ele>1595.5</ele>
        <time>2013-08-25T11:27:02Z</time>
      </trkpt>
      <trkpt lat="46.13278" lon="6.76436">
        <ele>1595.9</ele>
        <time>2013-08-25T11:27:08Z</time>
      </trkpt>
      <trkpt lat="46.13276" lon="6.76435">
        <ele>1594.5</ele>
        <time>2013-08-25T11:27:09Z</time>
      </trkpt>
      <trkpt lat="46.13275" lon="6.76435">
        <ele>1595</ele>
        <time>2013-08-25T11:27:10Z</time>
      </trkpt>
      <trkpt lat="46.13274" lon="6.76435">
        <ele>1597.4</ele>
        <time>2013-08-25T11:27:11Z</time>
      </trkpt>
      <trkpt lat="46.13273" lon="6.76434">
        <ele>1596.4</ele>
        <time>2013-08-25T11:27:12Z</time>
      </trkpt>
      <trkpt lat="46.13271" lon="6.76434">
        <ele>1595</ele>
        <time>2013-08-25T11:27:13Z</time>
      </trkpt>
      <trkpt lat="46.1327" lon="6.76434">
        <ele>1596.9</ele>
        <time>2013-08-25T11:27:14Z</time>
      </trkpt>
      <trkpt lat="46.13269" lon="6.76433">
        <ele>1597.9</ele>
        <time>2013-08-25T11:27:15Z</time>
      </trkpt>
      <trkpt lat="46.13267" lon="6.76433">
        <ele>1597.4</ele>
        <time>2013-08-25T11:27:17Z</time>
      </trkpt>
      <trkpt lat="46.13266" lon="6.76432">
        <ele>1597.9</ele>
        <time>2013-08-25T11:27:18Z</time>
      </trkpt>
      <trkpt lat="46.13258" lon="6.76429">
        <ele>1598.3</ele>
        <time>2013-08-25T11:27:25Z</time>
      </trkpt>
      <trkpt lat="46.13256" lon="6.7643">
        <ele>1599.3</ele>
        <time>2013-08-25T11:27:28Z</time>
      </trkpt>
      <trkpt lat="46.13255" lon="6.7643">
        <ele>1600.3</ele>
        <time>2013-08-25T11:27:29Z</time>
      </trkpt>
      <trkpt lat="46.13254" lon="6.76428">
        <ele>1600.7</ele>
        <time>2013-08-25T11:27:31Z</time>
      </trkpt>
      <trkpt lat="46.13252" lon="6.76426">
        <ele>1600.3</ele>
        <time>2013-08-25T11:27:34Z</time>
      </trkpt>
      <trkpt lat="46.13247" lon="6.76424">
        <ele>1603.6</ele>
        <time>2013-08-25T11:27:40Z</time>
      </trkpt>
      <trkpt lat="46.13236" lon="6.76425">
        <ele>1605.1</ele>
        <time>2013-08-25T11:27:50Z</time>
      </trkpt>
      <trkpt lat="46.13235" lon="6.76426">
        <ele>1605.5</ele>
        <time>2013-08-25T11:27:51Z</time>
      </trkpt>
      <trkpt lat="46.13221" lon="6.76442">
        <ele>1608.4</ele>
        <time>2013-08-25T11:28:07Z</time>
      </trkpt>
      <trkpt lat="46.13219" lon="6.76447">
        <ele>1608.9</ele>
        <time>2013-08-25T11:28:11Z</time>
      </trkpt>
      <trkpt lat="46.13215" lon="6.76449">
        <ele>1608.9</ele>
        <time>2013-08-25T11:28:15Z</time>
      </trkpt>
      <trkpt lat="46.13207" lon="6.76447">
        <ele>1610.4</ele>
        <time>2013-08-25T11:28:21Z</time>
      </trkpt>
      <trkpt lat="46.13204" lon="6.76442">
        <ele>1611.3</ele>
        <time>2013-08-25T11:28:27Z</time>
      </trkpt>
      <trkpt lat="46.13204" lon="6.7644">
        <ele>1611.3</ele>
        <time>2013-08-25T11:28:28Z</time>
      </trkpt>
      <trkpt lat="46.13204" lon="6.76438">
        <ele>1611.3</ele>
        <time>2013-08-25T11:28:29Z</time>
      </trkpt>
      <trkpt lat="46.13204" lon="6.76437">
        <ele>1611.8</ele>
        <time>2013-08-25T11:28:30Z</time>
      </trkpt>
      <trkpt lat="46.13204" lon="6.76435">
        <ele>1612.3</ele>
        <time>2013-08-25T11:28:31Z</time>
      </trkpt>
      <trkpt lat="46.13204" lon="6.76431">
        <ele>1612.8</ele>
        <time>2013-08-25T11:28:34Z</time>
      </trkpt>
      <trkpt lat="46.13204" lon="6.76428">
        <ele>1612.8</ele>
        <time>2013-08-25T11:28:36Z</time>
      </trkpt>
      <trkpt lat="46.13203" lon="6.76427">
        <ele>1613.2</ele>
        <time>2013-08-25T11:28:37Z</time>
      </trkpt>
      <trkpt lat="46.13202" lon="6.76425">
        <ele>1613.2</ele>
        <time>2013-08-25T11:28:38Z</time>
      </trkpt>
      <trkpt lat="46.13202" lon="6.76424">
        <ele>1613.2</ele>
        <time>2013-08-25T11:28:39Z</time>
      </trkpt>
      <trkpt lat="46.13201" lon="6.76423">
        <ele>1613.7</ele>
        <time>2013-08-25T11:28:40Z</time>
      </trkpt>
      <trkpt lat="46.13197" lon="6.76417">
        <ele>1614.7</ele>
        <time>2013-08-25T11:28:46Z</time>
      </trkpt>
      <trkpt lat="46.13187" lon="6.76408">
        <ele>1618</ele>
        <time>2013-08-25T11:28:58Z</time>
      </trkpt>
      <trkpt lat="46.13173" lon="6.76399">
        <ele>1620.4</ele>
        <time>2013-08-25T11:29:09Z</time>
      </trkpt>
      <trkpt lat="46.13172" lon="6.76398">
        <ele>1620.4</ele>
        <time>2013-08-25T11:29:10Z</time>
      </trkpt>
      <trkpt lat="46.13171" lon="6.76398">
        <ele>1620.4</ele>
        <time>2013-08-25T11:29:11Z</time>
      </trkpt>
      <trkpt lat="46.1317" lon="6.76397">
        <ele>1620.9</ele>
        <time>2013-08-25T11:29:12Z</time>
      </trkpt>
      <trkpt lat="46.1316" lon="6.76392">
        <ele>1623.3</ele>
        <time>2013-08-25T11:29:20Z</time>
      </trkpt>
      <trkpt lat="46.1315" lon="6.76393">
        <ele>1624.8</ele>
        <time>2013-08-25T11:29:31Z</time>
      </trkpt>
      <trkpt lat="46.13149" lon="6.76388">
        <ele>1624.8</ele>
        <time>2013-08-25T11:29:48Z</time>
      </trkpt>
      <trkpt lat="46.13146" lon="6.76393">
        <ele>1624.8</ele>
        <time>2013-08-25T11:30:10Z</time>
      </trkpt>
      <trkpt lat="46.13144" lon="6.76392">
        <ele>1624.3</ele>
        <time>2013-08-25T11:30:33Z</time>
      </trkpt>
      <trkpt lat="46.13143" lon="6.76393">
        <ele>1624.8</ele>
        <time>2013-08-25T11:30:37Z</time>
      </trkpt>
      <trkpt lat="46.13143" lon="6.76392">
        <ele>1624.8</ele>
        <time>2013-08-25T11:30:38Z</time>
      </trkpt>
      <trkpt lat="46.13142" lon="6.76387">
        <ele>1625.3</ele>
        <time>2013-08-25T11:30:41Z</time>
      </trkpt>
      <trkpt lat="46.13143" lon="6.76386">
        <ele>1625.7</ele>
        <time>2013-08-25T11:30:42Z</time>
      </trkpt>
      <trkpt lat="46.13143" lon="6.76384">
        <ele>1626.2</ele>
        <time>2013-08-25T11:30:43Z</time>
      </trkpt>
      <trkpt lat="46.13152" lon="6.76351">
        <ele>1628.1</ele>
        <time>2013-08-25T11:31:00Z</time>
      </trkpt>
      <trkpt lat="46.1315" lon="6.76326">
        <ele>1630.1</ele>
        <time>2013-08-25T11:31:13Z</time>
      </trkpt>
      <trkpt lat="46.13152" lon="6.76297">
        <ele>1632.9</ele>
        <time>2013-08-25T11:31:26Z</time>
      </trkpt>
      <trkpt lat="46.13153" lon="6.76294">
        <ele>1633.4</ele>
        <time>2013-08-25T11:31:28Z</time>
      </trkpt>
      <trkpt lat="46.13152" lon="6.76291">
        <ele>1634.4</ele>
        <time>2013-08-25T11:31:30Z</time>
      </trkpt>
      <trkpt lat="46.13152" lon="6.76289">
        <ele>1634.4</ele>
        <time>2013-08-25T11:31:31Z</time>
      </trkpt>
      <trkpt lat="46.13152" lon="6.76288">
        <ele>1633.9</ele>
        <time>2013-08-25T11:31:32Z</time>
      </trkpt>
      <trkpt lat="46.13151" lon="6.76286">
        <ele>1634.4</ele>
        <time>2013-08-25T11:31:33Z</time>
      </trkpt>
      <trkpt lat="46.13151" lon="6.76281">
        <ele>1635.8</ele>
        <time>2013-08-25T11:31:37Z</time>
      </trkpt>
      <trkpt lat="46.13151" lon="6.76279">
        <ele>1635.8</ele>
        <time>2013-08-25T11:31:38Z</time>
      </trkpt>
      <trkpt lat="46.13152" lon="6.76278">
        <ele>1635.8</ele>
        <time>2013-08-25T11:31:39Z</time>
      </trkpt>
      <trkpt lat="46.13151" lon="6.76277">
        <ele>1636.3</ele>
        <time>2013-08-25T11:31:40Z</time>
      </trkpt>
      <trkpt lat="46.13151" lon="6.76275">
        <ele>1636.8</ele>
        <time>2013-08-25T11:31:41Z</time>
      </trkpt>
      <trkpt lat="46.1315" lon="6.76274">
        <ele>1636.3</ele>
        <time>2013-08-25T11:31:42Z</time>
      </trkpt>
      <trkpt lat="46.1315" lon="6.76273">
        <ele>1637.3</ele>
        <time>2013-08-25T11:31:43Z</time>
      </trkpt>
      <trkpt lat="46.1315" lon="6.76271">
        <ele>1636.8</ele>
        <time>2013-08-25T11:31:44Z</time>
      </trkpt>
      <trkpt lat="46.1315" lon="6.76251">
        <ele>1640.2</ele>
        <time>2013-08-25T11:31:58Z</time>
      </trkpt>
      <trkpt lat="46.13154" lon="6.76229">
        <ele>1643</ele>
        <time>2013-08-25T11:32:13Z</time>
      </trkpt>
      <trkpt lat="46.13159" lon="6.7621">
        <ele>1644</ele>
        <time>2013-08-25T11:32:25Z</time>
      </trkpt>
      <trkpt lat="46.1317" lon="6.76196">
        <ele>1646.9</ele>
        <time>2013-08-25T11:32:39Z</time>
      </trkpt>
      <trkpt lat="46.13178" lon="6.76175">
        <ele>1648.3</ele>
        <time>2013-08-25T11:32:53Z</time>
      </trkpt>
      <trkpt lat="46.13175" lon="6.76163">
        <ele>1651.7</ele>
        <time>2013-08-25T11:33:03Z</time>
      </trkpt>
      <trkpt lat="46.13164" lon="6.76149">
        <ele>1654.6</ele>
        <time>2013-08-25T11:33:16Z</time>
      </trkpt>
      <trkpt lat="46.13157" lon="6.76137">
        <ele>1656</ele>
        <time>2013-08-25T11:33:26Z</time>
      </trkpt>
      <trkpt lat="46.13156" lon="6.76134">
        <ele>1656.5</ele>
        <time>2013-08-25T11:33:28Z</time>
      </trkpt>
      <trkpt lat="46.13155" lon="6.76133">
        <ele>1657</ele>
        <time>2013-08-25T11:33:29Z</time>
      </trkpt>
      <trkpt lat="46.13154" lon="6.76132">
        <ele>1657.5</ele>
        <time>2013-08-25T11:33:30Z</time>
      </trkpt>
      <trkpt lat="46.1315" lon="6.76125">
        <ele>1659.4</ele>
        <time>2013-08-25T11:33:37Z</time>
      </trkpt>
      <trkpt lat="46.13146" lon="6.76118">
        <ele>1660.3</ele>
        <time>2013-08-25T11:33:42Z</time>
      </trkpt>
      <trkpt lat="46.13145" lon="6.76117">
        <ele>1660.8</ele>
        <time>2013-08-25T11:33:43Z</time>
      </trkpt>
      <trkpt lat="46.13144" lon="6.76116">
        <ele>1660.8</ele>
        <time>2013-08-25T11:33:45Z</time>
      </trkpt>
      <trkpt lat="46.13138" lon="6.76106">
        <ele>1662.7</ele>
        <time>2013-08-25T11:33:53Z</time>
      </trkpt>
      <trkpt lat="46.13135" lon="6.76104">
        <ele>1663.2</ele>
        <time>2013-08-25T11:33:57Z</time>
      </trkpt>
      <trkpt lat="46.13135" lon="6.76104">
        <ele>1663.7</ele>
        <time>2013-08-25T11:33:58Z</time>
      </trkpt>
      <trkpt lat="46.13133" lon="6.76103">
        <ele>1664.2</ele>
        <time>2013-08-25T11:33:59Z</time>
      </trkpt>
      <trkpt lat="46.13132" lon="6.76103">
        <ele>1663.7</ele>
        <time>2013-08-25T11:34:00Z</time>
      </trkpt>
      <trkpt lat="46.13131" lon="6.76102">
        <ele>1664.2</ele>
        <time>2013-08-25T11:34:01Z</time>
      </trkpt>
      <trkpt lat="46.1313" lon="6.76101">
        <ele>1664.2</ele>
        <time>2013-08-25T11:34:02Z</time>
      </trkpt>
      <trkpt lat="46.13129" lon="6.761">
        <ele>1665.1</ele>
        <time>2013-08-25T11:34:03Z</time>
      </trkpt>
      <trkpt lat="46.1311" lon="6.76096">
        <ele>1667.1</ele>
        <time>2013-08-25T11:34:19Z</time>
      </trkpt>
      <trkpt lat="46.13092" lon="6.76095">
        <ele>1669</ele>
        <time>2013-08-25T11:34:36Z</time>
      </trkpt>
      <trkpt lat="46.13091" lon="6.76095">
        <ele>1668.5</ele>
        <time>2013-08-25T11:34:37Z</time>
      </trkpt>
      <trkpt lat="46.13087" lon="6.76094">
        <ele>1670</ele>
        <time>2013-08-25T11:34:53Z</time>
      </trkpt>
      <trkpt lat="46.13087" lon="6.76096">
        <ele>1670</ele>
        <time>2013-08-25T11:35:08Z</time>
      </trkpt>
      <trkpt lat="46.13087" lon="6.76096">
        <ele>1668.5</ele>
        <time>2013-08-25T11:35:15Z</time>
      </trkpt>
      <trkpt lat="46.13074" lon="6.76093">
        <ele>1669.5</ele>
        <time>2013-08-25T11:35:28Z</time>
      </trkpt>
      <trkpt lat="46.13061" lon="6.76093">
        <ele>1669</ele>
        <time>2013-08-25T11:35:41Z</time>
      </trkpt>
      <trkpt lat="46.13061" lon="6.76091">
        <ele>1668.5</ele>
        <time>2013-08-25T11:36:17Z</time>
      </trkpt>
      <trkpt lat="46.13057" lon="6.76091">
        <ele>1668</ele>
        <time>2013-08-25T11:36:39Z</time>
      </trkpt>
      <trkpt lat="46.13055" lon="6.7609">
        <ele>1668</ele>
        <time>2013-08-25T11:37:15Z</time>
      </trkpt>
      <trkpt lat="46.13057" lon="6.76083">
        <ele>1668</ele>
        <time>2013-08-25T11:37:48Z</time>
      </trkpt>
      <trkpt lat="46.13053" lon="6.76088">
        <ele>1668</ele>
        <time>2013-08-25T11:38:22Z</time>
      </trkpt>
      <trkpt lat="46.13051" lon="6.76091">
        <ele>1668</ele>
        <time>2013-08-25T11:38:38Z</time>
      </trkpt>
      <trkpt lat="46.1305" lon="6.76094">
        <ele>1668.5</ele>
        <time>2013-08-25T11:39:01Z</time>
      </trkpt>
      <trkpt lat="46.13049" lon="6.76096">
        <ele>1669</ele>
        <time>2013-08-25T11:39:10Z</time>
      </trkpt>
      <trkpt lat="46.13048" lon="6.76097">
        <ele>1669</ele>
        <time>2013-08-25T11:39:11Z</time>
      </trkpt>
      <trkpt lat="46.13047" lon="6.76097">
        <ele>1668.5</ele>
        <time>2013-08-25T11:39:12Z</time>
      </trkpt>
      <trkpt lat="46.13045" lon="6.76098">
        <ele>1668.5</ele>
        <time>2013-08-25T11:39:13Z</time>
      </trkpt>
      <trkpt lat="46.13044" lon="6.76099">
        <ele>1668.5</ele>
        <time>2013-08-25T11:39:14Z</time>
      </trkpt>
      <trkpt lat="46.13043" lon="6.761">
        <ele>1668</ele>
        <time>2013-08-25T11:39:15Z</time>
      </trkpt>
      <trkpt lat="46.13042" lon="6.76101">
        <ele>1668.5</ele>
        <time>2013-08-25T11:39:16Z</time>
      </trkpt>
      <trkpt lat="46.13036" lon="6.76103">
        <ele>1668.5</ele>
        <time>2013-08-25T11:39:19Z</time>
      </trkpt>
      <trkpt lat="46.13034" lon="6.76103">
        <ele>1668.5</ele>
        <time>2013-08-25T11:39:20Z</time>
      </trkpt>
      <trkpt lat="46.13033" lon="6.76103">
        <ele>1667.5</ele>
        <time>2013-08-25T11:39:21Z</time>
      </trkpt>
      <trkpt lat="46.13028" lon="6.76101">
        <ele>1669</ele>
        <time>2013-08-25T11:39:25Z</time>
      </trkpt>
      <trkpt lat="46.13027" lon="6.76102">
        <ele>1668.5</ele>
        <time>2013-08-25T11:39:26Z</time>
      </trkpt>
      <trkpt lat="46.13017" lon="6.76106">
        <ele>1668</ele>
        <time>2013-08-25T11:39:38Z</time>
      </trkpt>
      <trkpt lat="46.13011" lon="6.76099">
        <ele>1666.6</ele>
        <time>2013-08-25T11:40:01Z</time>
      </trkpt>
      <trkpt lat="46.1299" lon="6.76095">
        <ele>1664.7</ele>
        <time>2013-08-25T11:40:08Z</time>
      </trkpt>
      <trkpt lat="46.12991" lon="6.76092">
        <ele>1664.7</ele>
        <time>2013-08-25T11:40:22Z</time>
      </trkpt>
      <trkpt lat="46.12991" lon="6.76094">
        <ele>1661.3</ele>
        <time>2013-08-25T11:40:28Z</time>
      </trkpt>
      <trkpt lat="46.12991" lon="6.76094">
        <ele>1661.3</ele>
        <time>2013-08-25T11:40:29Z</time>
      </trkpt>
      <trkpt lat="46.12992" lon="6.76093">
        <ele>1666.6</ele>
        <time>2013-08-25T11:40:30Z</time>
      </trkpt>
      <trkpt lat="46.12991" lon="6.76093">
        <ele>1659.9</ele>
        <time>2013-08-25T11:40:31Z</time>
      </trkpt>
      <trkpt lat="46.12991" lon="6.76092">
        <ele>1667.1</ele>
        <time>2013-08-25T11:40:32Z</time>
      </trkpt>
      <trkpt lat="46.12991" lon="6.76093">
        <ele>1661.8</ele>
        <time>2013-08-25T11:40:33Z</time>
      </trkpt>
      <trkpt lat="46.12991" lon="6.76093">
        <ele>1665.1</ele>
        <time>2013-08-25T11:40:34Z</time>
      </trkpt>
      <trkpt lat="46.12979" lon="6.76094">
        <ele>1662.3</ele>
        <time>2013-08-25T11:40:43Z</time>
      </trkpt>
      <trkpt lat="46.12962" lon="6.76087">
        <ele>1660.8</ele>
        <time>2013-08-25T11:40:49Z</time>
      </trkpt>
      <trkpt lat="46.12958" lon="6.76086">
        <ele>1660.3</ele>
        <time>2013-08-25T11:40:50Z</time>
      </trkpt>
      <trkpt lat="46.12953" lon="6.76084">
        <ele>1660.8</ele>
        <time>2013-08-25T11:40:51Z</time>
      </trkpt>
      <trkpt lat="46.12948" lon="6.76081">
        <ele>1660.3</ele>
        <time>2013-08-25T11:40:52Z</time>
      </trkpt>
      <trkpt lat="46.12943" lon="6.76079">
        <ele>1660.3</ele>
        <time>2013-08-25T11:40:53Z</time>
      </trkpt>
      <trkpt lat="46.1294" lon="6.76077">
        <ele>1659.9</ele>
        <time>2013-08-25T11:40:54Z</time>
      </trkpt>
      <trkpt lat="46.1293" lon="6.76072">
        <ele>1658.4</ele>
        <time>2013-08-25T11:41:04Z</time>
      </trkpt>
      <trkpt lat="46.12927" lon="6.7607">
        <ele>1657.9</ele>
        <time>2013-08-25T11:41:19Z</time>
      </trkpt>
      <trkpt lat="46.12926" lon="6.76067">
        <ele>1657.9</ele>
        <time>2013-08-25T11:41:20Z</time>
      </trkpt>
      <trkpt lat="46.12925" lon="6.76065">
        <ele>1657.9</ele>
        <time>2013-08-25T11:41:21Z</time>
      </trkpt>
      <trkpt lat="46.12902" lon="6.76041">
        <ele>1654.6</ele>
        <time>2013-08-25T11:41:28Z</time>
      </trkpt>
      <trkpt lat="46.12898" lon="6.76036">
        <ele>1654.1</ele>
        <time>2013-08-25T11:41:29Z</time>
      </trkpt>
      <trkpt lat="46.12895" lon="6.76031">
        <ele>1653.1</ele>
        <time>2013-08-25T11:41:30Z</time>
      </trkpt>
      <trkpt lat="46.12881" lon="6.76006">
        <ele>1651.2</ele>
        <time>2013-08-25T11:41:34Z</time>
      </trkpt>
      <trkpt lat="46.12857" lon="6.75979">
        <ele>1647.4</ele>
        <time>2013-08-25T11:41:42Z</time>
      </trkpt>
      <trkpt lat="46.12829" lon="6.75961">
        <ele>1645</ele>
        <time>2013-08-25T11:41:48Z</time>
      </trkpt>
      <trkpt lat="46.12814" lon="6.75954">
        <ele>1643</ele>
        <time>2013-08-25T11:41:51Z</time>
      </trkpt>
      <trkpt lat="46.12798" lon="6.75939">
        <ele>1641.1</ele>
        <time>2013-08-25T11:41:55Z</time>
      </trkpt>
      <trkpt lat="46.12794" lon="6.75934">
        <ele>1640.6</ele>
        <time>2013-08-25T11:41:56Z</time>
      </trkpt>
      <trkpt lat="46.12792" lon="6.75929">
        <ele>1639.2</ele>
        <time>2013-08-25T11:41:57Z</time>
      </trkpt>
      <trkpt lat="46.1279" lon="6.75923">
        <ele>1639.2</ele>
        <time>2013-08-25T11:41:58Z</time>
      </trkpt>
      <trkpt lat="46.12785" lon="6.75909">
        <ele>1638.2</ele>
        <time>2013-08-25T11:42:00Z</time>
      </trkpt>
      <trkpt lat="46.12777" lon="6.75895">
        <ele>1637.3</ele>
        <time>2013-08-25T11:42:02Z</time>
      </trkpt>
      <trkpt lat="46.12769" lon="6.75878">
        <ele>1635.3</ele>
        <time>2013-08-25T11:42:04Z</time>
      </trkpt>
      <trkpt lat="46.12764" lon="6.75871">
        <ele>1634.4</ele>
        <time>2013-08-25T11:42:05Z</time>
      </trkpt>
      <trkpt lat="46.1275" lon="6.75855">
        <ele>1630.5</ele>
        <time>2013-08-25T11:42:07Z</time>
      </trkpt>
      <trkpt lat="46.12724" lon="6.75824">
        <ele>1627.2</ele>
        <time>2013-08-25T11:42:11Z</time>
      </trkpt>
      <trkpt lat="46.12712" lon="6.75811">
        <ele>1625.3</ele>
        <time>2013-08-25T11:42:13Z</time>
      </trkpt>
      <trkpt lat="46.1269" lon="6.75794">
        <ele>1621.4</ele>
        <time>2013-08-25T11:42:17Z</time>
      </trkpt>
      <trkpt lat="46.12673" lon="6.75785">
        <ele>1619</ele>
        <time>2013-08-25T11:42:19Z</time>
      </trkpt>
      <trkpt lat="46.12651" lon="6.75776">
        <ele>1615.2</ele>
        <time>2013-08-25T11:42:23Z</time>
      </trkpt>
      <trkpt lat="46.12644" lon="6.75771">
        <ele>1613.7</ele>
        <time>2013-08-25T11:42:27Z</time>
      </trkpt>
      <trkpt lat="46.12644" lon="6.7577">
        <ele>1613.2</ele>
        <time>2013-08-25T11:42:38Z</time>
      </trkpt>
      <trkpt lat="46.12644" lon="6.75769">
        <ele>1613.2</ele>
        <time>2013-08-25T11:42:50Z</time>
      </trkpt>
      <trkpt lat="46.12643" lon="6.7577">
        <ele>1613.2</ele>
        <time>2013-08-25T11:42:51Z</time>
      </trkpt>
      <trkpt lat="46.12642" lon="6.75771">
        <ele>1612.3</ele>
        <time>2013-08-25T11:42:52Z</time>
      </trkpt>
      <trkpt lat="46.12643" lon="6.75766">
        <ele>1611.8</ele>
        <time>2013-08-25T11:43:04Z</time>
      </trkpt>
      <trkpt lat="46.12643" lon="6.75766">
        <ele>1611.8</ele>
        <time>2013-08-25T11:43:05Z</time>
      </trkpt>
      <trkpt lat="46.12642" lon="6.75765">
        <ele>1612.8</ele>
        <time>2013-08-25T11:43:17Z</time>
      </trkpt>
      <trkpt lat="46.12642" lon="6.75766">
        <ele>1611.3</ele>
        <time>2013-08-25T11:43:19Z</time>
      </trkpt>
      <trkpt lat="46.12648" lon="6.75766">
        <ele>1612.8</ele>
        <time>2013-08-25T11:43:47Z</time>
      </trkpt>
      <trkpt lat="46.12646" lon="6.75762">
        <ele>1612.3</ele>
        <time>2013-08-25T11:44:13Z</time>
      </trkpt>
      <trkpt lat="46.12646" lon="6.75758">
        <ele>1612.8</ele>
        <time>2013-08-25T11:44:27Z</time>
      </trkpt>
      <trkpt lat="46.12646" lon="6.75754">
        <ele>1612.3</ele>
        <time>2013-08-25T11:44:40Z</time>
      </trkpt>
      <trkpt lat="46.12642" lon="6.75722">
        <ele>1609.9</ele>
        <time>2013-08-25T11:44:46Z</time>
      </trkpt>
      <trkpt lat="46.12639" lon="6.75715">
        <ele>1608.9</ele>
        <time>2013-08-25T11:44:47Z</time>
      </trkpt>
      <trkpt lat="46.12631" lon="6.757">
        <ele>1607</ele>
        <time>2013-08-25T11:44:49Z</time>
      </trkpt>
      <trkpt lat="46.12628" lon="6.75693">
        <ele>1605.5</ele>
        <time>2013-08-25T11:44:50Z</time>
      </trkpt>
      <trkpt lat="46.12617" lon="6.75673">
        <ele>1602.7</ele>
        <time>2013-08-25T11:44:53Z</time>
      </trkpt>
      <trkpt lat="46.12608" lon="6.75658">
        <ele>1601.2</ele>
        <time>2013-08-25T11:44:55Z</time>
      </trkpt>
      <trkpt lat="46.12602" lon="6.75643">
        <ele>1598.3</ele>
        <time>2013-08-25T11:44:57Z</time>
      </trkpt>
      <trkpt lat="46.12588" lon="6.75619">
        <ele>1595.5</ele>
        <time>2013-08-25T11:45:00Z</time>
      </trkpt>
      <trkpt lat="46.12574" lon="6.75589">
        <ele>1592.6</ele>
        <time>2013-08-25T11:45:04Z</time>
      </trkpt>
      <trkpt lat="46.1257" lon="6.75582">
        <ele>1591.1</ele>
        <time>2013-08-25T11:45:05Z</time>
      </trkpt>
      <trkpt lat="46.12564" lon="6.75575">
        <ele>1589.7</ele>
        <time>2013-08-25T11:45:06Z</time>
      </trkpt>
      <trkpt lat="46.12558" lon="6.7557">
        <ele>1588.2</ele>
        <time>2013-08-25T11:45:07Z</time>
      </trkpt>
      <trkpt lat="46.12542" lon="6.75558">
        <ele>1585.4</ele>
        <time>2013-08-25T11:45:10Z</time>
      </trkpt>
      <trkpt lat="46.1252" lon="6.75542">
        <ele>1581</ele>
        <time>2013-08-25T11:45:13Z</time>
      </trkpt>
      <trkpt lat="46.1251" lon="6.75532">
        <ele>1578.6</ele>
        <time>2013-08-25T11:45:14Z</time>
      </trkpt>
      <trkpt lat="46.12497" lon="6.7552">
        <ele>1575.7</ele>
        <time>2013-08-25T11:45:16Z</time>
      </trkpt>
      <trkpt lat="46.12488" lon="6.75514">
        <ele>1574.3</ele>
        <time>2013-08-25T11:45:17Z</time>
      </trkpt>
      <trkpt lat="46.1248" lon="6.75509">
        <ele>1572.9</ele>
        <time>2013-08-25T11:45:18Z</time>
      </trkpt>
      <trkpt lat="46.12472" lon="6.75503">
        <ele>1570.5</ele>
        <time>2013-08-25T11:45:19Z</time>
      </trkpt>
      <trkpt lat="46.12465" lon="6.75495">
        <ele>1569.5</ele>
        <time>2013-08-25T11:45:20Z</time>
      </trkpt>
      <trkpt lat="46.12451" lon="6.7548">
        <ele>1566.6</ele>
        <time>2013-08-25T11:45:22Z</time>
      </trkpt>
      <trkpt lat="46.12442" lon="6.75472">
        <ele>1564.7</ele>
        <time>2013-08-25T11:45:23Z</time>
      </trkpt>
      <trkpt lat="46.12432" lon="6.75465">
        <ele>1562.8</ele>
        <time>2013-08-25T11:45:24Z</time>
      </trkpt>
      <trkpt lat="46.12415" lon="6.75454">
        <ele>1559.4</ele>
        <time>2013-08-25T11:45:26Z</time>
      </trkpt>
      <trkpt lat="46.12406" lon="6.75448">
        <ele>1558.4</ele>
        <time>2013-08-25T11:45:27Z</time>
      </trkpt>
      <trkpt lat="46.12398" lon="6.75443">
        <ele>1556.5</ele>
        <time>2013-08-25T11:45:28Z</time>
      </trkpt>
      <trkpt lat="46.1239" lon="6.75437">
        <ele>1555.1</ele>
        <time>2013-08-25T11:45:29Z</time>
      </trkpt>
      <trkpt lat="46.12381" lon="6.75431">
        <ele>1554.1</ele>
        <time>2013-08-25T11:45:30Z</time>
      </trkpt>
      <trkpt lat="46.1236" lon="6.75418">
        <ele>1551.2</ele>
        <time>2013-08-25T11:45:33Z</time>
      </trkpt>
      <trkpt lat="46.12355" lon="6.75413">
        <ele>1550.3</ele>
        <time>2013-08-25T11:45:34Z</time>
      </trkpt>
      <trkpt lat="46.12334" lon="6.75392">
        <ele>1546.9</ele>
        <time>2013-08-25T11:45:38Z</time>
      </trkpt>
      <trkpt lat="46.12328" lon="6.75385">
        <ele>1545.9</ele>
        <time>2013-08-25T11:45:39Z</time>
      </trkpt>
      <trkpt lat="46.12318" lon="6.75371">
        <ele>1543.1</ele>
        <time>2013-08-25T11:45:41Z</time>
      </trkpt>
      <trkpt lat="46.12312" lon="6.75366">
        <ele>1541.6</ele>
        <time>2013-08-25T11:45:42Z</time>
      </trkpt>
      <trkpt lat="46.12306" lon="6.75363">
        <ele>1539.7</ele>
        <time>2013-08-25T11:45:43Z</time>
      </trkpt>
      <trkpt lat="46.12291" lon="6.7536">
        <ele>1536.8</ele>
        <time>2013-08-25T11:45:45Z</time>
      </trkpt>
      <trkpt lat="46.12283" lon="6.75356">
        <ele>1535.8</ele>
        <time>2013-08-25T11:45:46Z</time>
      </trkpt>
      <trkpt lat="46.12277" lon="6.75351">
        <ele>1533.9</ele>
        <time>2013-08-25T11:45:47Z</time>
      </trkpt>
      <trkpt lat="46.12262" lon="6.75335">
        <ele>1531.5</ele>
        <time>2013-08-25T11:45:54Z</time>
      </trkpt>
      <trkpt lat="46.12263" lon="6.75338">
        <ele>1531</ele>
        <time>2013-08-25T11:46:14Z</time>
      </trkpt>
      <trkpt lat="46.12264" lon="6.7534">
        <ele>1531.5</ele>
        <time>2013-08-25T11:46:47Z</time>
      </trkpt>
      <trkpt lat="46.12263" lon="6.75342">
        <ele>1531.5</ele>
        <time>2013-08-25T11:47:04Z</time>
      </trkpt>
      <trkpt lat="46.12263" lon="6.75342">
        <ele>1530.6</ele>
        <time>2013-08-25T11:47:16Z</time>
      </trkpt>
      <trkpt lat="46.12263" lon="6.75342">
        <ele>1532</ele>
        <time>2013-08-25T11:47:17Z</time>
      </trkpt>
      <trkpt lat="46.12262" lon="6.75341">
        <ele>1532</ele>
        <time>2013-08-25T11:47:27Z</time>
      </trkpt>
      <trkpt lat="46.12244" lon="6.75332">
        <ele>1530.1</ele>
        <time>2013-08-25T11:47:34Z</time>
      </trkpt>
      <trkpt lat="46.1224" lon="6.75328">
        <ele>1530.1</ele>
        <time>2013-08-25T11:47:35Z</time>
      </trkpt>
      <trkpt lat="46.12233" lon="6.7532">
        <ele>1529.1</ele>
        <time>2013-08-25T11:47:37Z</time>
      </trkpt>
      <trkpt lat="46.1223" lon="6.75315">
        <ele>1529.6</ele>
        <time>2013-08-25T11:47:38Z</time>
      </trkpt>
      <trkpt lat="46.12228" lon="6.7531">
        <ele>1528.2</ele>
        <time>2013-08-25T11:47:39Z</time>
      </trkpt>
      <trkpt lat="46.12224" lon="6.753">
        <ele>1526.7</ele>
        <time>2013-08-25T11:47:41Z</time>
      </trkpt>
      <trkpt lat="46.12221" lon="6.75295">
        <ele>1526.2</ele>
        <time>2013-08-25T11:47:42Z</time>
      </trkpt>
      <trkpt lat="46.12217" lon="6.7529">
        <ele>1524.3</ele>
        <time>2013-08-25T11:47:43Z</time>
      </trkpt>
      <trkpt lat="46.12211" lon="6.75287">
        <ele>1523.4</ele>
        <time>2013-08-25T11:47:44Z</time>
      </trkpt>
      <trkpt lat="46.12203" lon="6.75284">
        <ele>1521.9</ele>
        <time>2013-08-25T11:47:45Z</time>
      </trkpt>
      <trkpt lat="46.12195" lon="6.75282">
        <ele>1520.5</ele>
        <time>2013-08-25T11:47:46Z</time>
      </trkpt>
      <trkpt lat="46.12188" lon="6.75278">
        <ele>1519</ele>
        <time>2013-08-25T11:47:47Z</time>
      </trkpt>
      <trkpt lat="46.12182" lon="6.75274">
        <ele>1518.1</ele>
        <time>2013-08-25T11:47:48Z</time>
      </trkpt>
      <trkpt lat="46.12176" lon="6.7527">
        <ele>1517.1</ele>
        <time>2013-08-25T11:47:49Z</time>
      </trkpt>
      <trkpt lat="46.1217" lon="6.75267">
        <ele>1515.7</ele>
        <time>2013-08-25T11:47:50Z</time>
      </trkpt>
      <trkpt lat="46.12164" lon="6.75263">
        <ele>1515.7</ele>
        <time>2013-08-25T11:47:51Z</time>
      </trkpt>
      <trkpt lat="46.12158" lon="6.75257">
        <ele>1514.2</ele>
        <time>2013-08-25T11:47:52Z</time>
      </trkpt>
      <trkpt lat="46.12153" lon="6.75251">
        <ele>1513.3</ele>
        <time>2013-08-25T11:47:53Z</time>
      </trkpt>
      <trkpt lat="46.12147" lon="6.75246">
        <ele>1512.3</ele>
        <time>2013-08-25T11:47:54Z</time>
      </trkpt>
      <trkpt lat="46.12141" lon="6.75242">
        <ele>1510.9</ele>
        <time>2013-08-25T11:47:55Z</time>
      </trkpt>
      <trkpt lat="46.12136" lon="6.75237">
        <ele>1508.9</ele>
        <time>2013-08-25T11:47:56Z</time>
      </trkpt>
      <trkpt lat="46.1213" lon="6.75232">
        <ele>1507.5</ele>
        <time>2013-08-25T11:47:57Z</time>
      </trkpt>
      <trkpt lat="46.12118" lon="6.75222">
        <ele>1504.6</ele>
        <time>2013-08-25T11:47:59Z</time>
      </trkpt>
      <trkpt lat="46.12113" lon="6.75217">
        <ele>1503.6</ele>
        <time>2013-08-25T11:48:00Z</time>
      </trkpt>
      <trkpt lat="46.12108" lon="6.75212">
        <ele>1502.7</ele>
        <time>2013-08-25T11:48:01Z</time>
      </trkpt>
      <trkpt lat="46.12104" lon="6.75205">
        <ele>1501.7</ele>
        <time>2013-08-25T11:48:02Z</time>
      </trkpt>
      <trkpt lat="46.12095" lon="6.75188">
        <ele>1498.4</ele>
        <time>2013-08-25T11:48:04Z</time>
      </trkpt>
      <trkpt lat="46.12092" lon="6.7518">
        <ele>1497.4</ele>
        <time>2013-08-25T11:48:05Z</time>
      </trkpt>
      <trkpt lat="46.12089" lon="6.75174">
        <ele>1496</ele>
        <time>2013-08-25T11:48:06Z</time>
      </trkpt>
      <trkpt lat="46.12088" lon="6.7517">
        <ele>1495</ele>
        <time>2013-08-25T11:48:07Z</time>
      </trkpt>
      <trkpt lat="46.12087" lon="6.75163">
        <ele>1495.5</ele>
        <time>2013-08-25T11:48:08Z</time>
      </trkpt>
      <trkpt lat="46.12088" lon="6.75156">
        <ele>1493.6</ele>
        <time>2013-08-25T11:48:09Z</time>
      </trkpt>
      <trkpt lat="46.1209" lon="6.75141">
        <ele>1490.7</ele>
        <time>2013-08-25T11:48:11Z</time>
      </trkpt>
      <trkpt lat="46.12091" lon="6.75135">
        <ele>1489.2</ele>
        <time>2013-08-25T11:48:12Z</time>
      </trkpt>
      <trkpt lat="46.1209" lon="6.75128">
        <ele>1488.3</ele>
        <time>2013-08-25T11:48:13Z</time>
      </trkpt>
      <trkpt lat="46.12087" lon="6.75123">
        <ele>1487.3</ele>
        <time>2013-08-25T11:48:14Z</time>
      </trkpt>
      <trkpt lat="46.12083" lon="6.7512">
        <ele>1485.9</ele>
        <time>2013-08-25T11:48:15Z</time>
      </trkpt>
      <trkpt lat="46.12079" lon="6.75119">
        <ele>1485.4</ele>
        <time>2013-08-25T11:48:16Z</time>
      </trkpt>
      <trkpt lat="46.12071" lon="6.75121">
        <ele>1483.9</ele>
        <time>2013-08-25T11:48:18Z</time>
      </trkpt>
      <trkpt lat="46.12062" lon="6.75127">
        <ele>1480.6</ele>
        <time>2013-08-25T11:48:24Z</time>
      </trkpt>
      <trkpt lat="46.12059" lon="6.7513">
        <ele>1482</ele>
        <time>2013-08-25T11:48:39Z</time>
      </trkpt>
      <trkpt lat="46.12054" lon="6.75128">
        <ele>1480.1</ele>
        <time>2013-08-25T11:48:41Z</time>
      </trkpt>
      <trkpt lat="46.12048" lon="6.75123">
        <ele>1479.6</ele>
        <time>2013-08-25T11:48:43Z</time>
      </trkpt>
      <trkpt lat="46.12042" lon="6.75113">
        <ele>1476.7</ele>
        <time>2013-08-25T11:48:45Z</time>
      </trkpt>
      <trkpt lat="46.12039" lon="6.75106">
        <ele>1475.8</ele>
        <time>2013-08-25T11:48:46Z</time>
      </trkpt>
      <trkpt lat="46.12037" lon="6.751">
        <ele>1475.3</ele>
        <time>2013-08-25T11:48:47Z</time>
      </trkpt>
      <trkpt lat="46.12036" lon="6.75095">
        <ele>1473.4</ele>
        <time>2013-08-25T11:48:48Z</time>
      </trkpt>
      <trkpt lat="46.12037" lon="6.75075">
        <ele>1470</ele>
        <time>2013-08-25T11:48:52Z</time>
      </trkpt>
      <trkpt lat="46.12039" lon="6.75056">
        <ele>1467.1</ele>
        <time>2013-08-25T11:48:55Z</time>
      </trkpt>
      <trkpt lat="46.12039" lon="6.75049">
        <ele>1465.7</ele>
        <time>2013-08-25T11:48:56Z</time>
      </trkpt>
      <trkpt lat="46.12038" lon="6.75042">
        <ele>1465.7</ele>
        <time>2013-08-25T11:48:57Z</time>
      </trkpt>
      <trkpt lat="46.12039" lon="6.75026">
        <ele>1462.8</ele>
        <time>2013-08-25T11:48:59Z</time>
      </trkpt>
      <trkpt lat="46.1204" lon="6.75014">
        <ele>1461.8</ele>
        <time>2013-08-25T11:49:00Z</time>
      </trkpt>
      <trkpt lat="46.12041" lon="6.74997">
        <ele>1458.5</ele>
        <time>2013-08-25T11:49:02Z</time>
      </trkpt>
      <trkpt lat="46.12043" lon="6.74971">
        <ele>1457.5</ele>
        <time>2013-08-25T11:49:06Z</time>
      </trkpt>
      <trkpt lat="46.12044" lon="6.74955">
        <ele>1456.5</ele>
        <time>2013-08-25T11:49:08Z</time>
      </trkpt>
      <trkpt lat="46.12042" lon="6.74947">
        <ele>1455.6</ele>
        <time>2013-08-25T11:49:09Z</time>
      </trkpt>
      <trkpt lat="46.12039" lon="6.7494">
        <ele>1454.1</ele>
        <time>2013-08-25T11:49:10Z</time>
      </trkpt>
      <trkpt lat="46.12035" lon="6.74933">
        <ele>1452.2</ele>
        <time>2013-08-25T11:49:11Z</time>
      </trkpt>
      <trkpt lat="46.12028" lon="6.74918">
        <ele>1449.8</ele>
        <time>2013-08-25T11:49:13Z</time>
      </trkpt>
      <trkpt lat="46.12024" lon="6.7491">
        <ele>1449.3</ele>
        <time>2013-08-25T11:49:14Z</time>
      </trkpt>
      <trkpt lat="46.12018" lon="6.74895">
        <ele>1446.9</ele>
        <time>2013-08-25T11:49:16Z</time>
      </trkpt>
      <trkpt lat="46.12016" lon="6.74886">
        <ele>1446</ele>
        <time>2013-08-25T11:49:17Z</time>
      </trkpt>
      <trkpt lat="46.12014" lon="6.7487">
        <ele>1442.6</ele>
        <time>2013-08-25T11:49:19Z</time>
      </trkpt>
      <trkpt lat="46.12012" lon="6.74865">
        <ele>1441.6</ele>
        <time>2013-08-25T11:49:20Z</time>
      </trkpt>
      <trkpt lat="46.12012" lon="6.7486">
        <ele>1440.7</ele>
        <time>2013-08-25T11:49:21Z</time>
      </trkpt>
      <trkpt lat="46.12014" lon="6.74851">
        <ele>1438.3</ele>
        <time>2013-08-25T11:49:23Z</time>
      </trkpt>
      <trkpt lat="46.12012" lon="6.74846">
        <ele>1437.8</ele>
        <time>2013-08-25T11:49:24Z</time>
      </trkpt>
      <trkpt lat="46.12009" lon="6.74845">
        <ele>1437.3</ele>
        <time>2013-08-25T11:49:25Z</time>
      </trkpt>
      <trkpt lat="46.11998" lon="6.74848">
        <ele>1434.4</ele>
        <time>2013-08-25T11:49:28Z</time>
      </trkpt>
      <trkpt lat="46.11994" lon="6.7485">
        <ele>1433.5</ele>
        <time>2013-08-25T11:49:29Z</time>
      </trkpt>
      <trkpt lat="46.11989" lon="6.74852">
        <ele>1432</ele>
        <time>2013-08-25T11:49:30Z</time>
      </trkpt>
      <trkpt lat="46.11985" lon="6.74854">
        <ele>1431.1</ele>
        <time>2013-08-25T11:49:31Z</time>
      </trkpt>
      <trkpt lat="46.11981" lon="6.74855">
        <ele>1431.5</ele>
        <time>2013-08-25T11:49:32Z</time>
      </trkpt>
      <trkpt lat="46.11976" lon="6.74855">
        <ele>1429.6</ele>
        <time>2013-08-25T11:49:33Z</time>
      </trkpt>
      <trkpt lat="46.11971" lon="6.74855">
        <ele>1428.7</ele>
        <time>2013-08-25T11:49:34Z</time>
      </trkpt>
      <trkpt lat="46.11967" lon="6.74855">
        <ele>1426.3</ele>
        <time>2013-08-25T11:49:35Z</time>
      </trkpt>
      <trkpt lat="46.11963" lon="6.74855">
        <ele>1426.3</ele>
        <time>2013-08-25T11:49:36Z</time>
      </trkpt>
      <trkpt lat="46.11951" lon="6.7486">
        <ele>1422.9</ele>
        <time>2013-08-25T11:49:39Z</time>
      </trkpt>
      <trkpt lat="46.11947" lon="6.74862">
        <ele>1422.4</ele>
        <time>2013-08-25T11:49:40Z</time>
      </trkpt>
      <trkpt lat="46.11941" lon="6.7486">
        <ele>1419.5</ele>
        <time>2013-08-25T11:49:42Z</time>
      </trkpt>
      <trkpt lat="46.11933" lon="6.74849">
        <ele>1417.6</ele>
        <time>2013-08-25T11:49:45Z</time>
      </trkpt>
      <trkpt lat="46.11929" lon="6.74844">
        <ele>1416.2</ele>
        <time>2013-08-25T11:49:46Z</time>
      </trkpt>
      <trkpt lat="46.11925" lon="6.74838">
        <ele>1415.7</ele>
        <time>2013-08-25T11:49:47Z</time>
      </trkpt>
      <trkpt lat="46.11923" lon="6.74832">
        <ele>1414.2</ele>
        <time>2013-08-25T11:49:48Z</time>
      </trkpt>
      <trkpt lat="46.1192" lon="6.74821">
        <ele>1410.9</ele>
        <time>2013-08-25T11:49:50Z</time>
      </trkpt>
      <trkpt lat="46.11917" lon="6.74811">
        <ele>1409.9</ele>
        <time>2013-08-25T11:49:51Z</time>
      </trkpt>
      <trkpt lat="46.11916" lon="6.74803">
        <ele>1408.5</ele>
        <time>2013-08-25T11:49:52Z</time>
      </trkpt>
      <trkpt lat="46.11915" lon="6.74795">
        <ele>1407</ele>
        <time>2013-08-25T11:49:53Z</time>
      </trkpt>
      <trkpt lat="46.11914" lon="6.74787">
        <ele>1406.1</ele>
        <time>2013-08-25T11:49:54Z</time>
      </trkpt>
      <trkpt lat="46.11913" lon="6.74779">
        <ele>1403.7</ele>
        <time>2013-08-25T11:49:55Z</time>
      </trkpt>
      <trkpt lat="46.11911" lon="6.74773">
        <ele>1402.7</ele>
        <time>2013-08-25T11:49:56Z</time>
      </trkpt>
      <trkpt lat="46.11909" lon="6.74767">
        <ele>1401.7</ele>
        <time>2013-08-25T11:49:57Z</time>
      </trkpt>
      <trkpt lat="46.11906" lon="6.7476">
        <ele>1401.3</ele>
        <time>2013-08-25T11:49:58Z</time>
      </trkpt>
      <trkpt lat="46.11903" lon="6.74755">
        <ele>1400.3</ele>
        <time>2013-08-25T11:49:59Z</time>
      </trkpt>
      <trkpt lat="46.11891" lon="6.74738">
        <ele>1396.9</ele>
        <time>2013-08-25T11:50:03Z</time>
      </trkpt>
      <trkpt lat="46.11884" lon="6.74728">
        <ele>1395</ele>
        <time>2013-08-25T11:50:05Z</time>
      </trkpt>
      <trkpt lat="46.11881" lon="6.74721">
        <ele>1394.5</ele>
        <time>2013-08-25T11:50:06Z</time>
      </trkpt>
      <trkpt lat="46.1188" lon="6.74714">
        <ele>1393.6</ele>
        <time>2013-08-25T11:50:07Z</time>
      </trkpt>
      <trkpt lat="46.11881" lon="6.74708">
        <ele>1391.2</ele>
        <time>2013-08-25T11:50:08Z</time>
      </trkpt>
      <trkpt lat="46.11883" lon="6.747">
        <ele>1391.2</ele>
        <time>2013-08-25T11:50:09Z</time>
      </trkpt>
      <trkpt lat="46.11884" lon="6.74682">
        <ele>1387.8</ele>
        <time>2013-08-25T11:50:11Z</time>
      </trkpt>
      <trkpt lat="46.11884" lon="6.74674">
        <ele>1386.4</ele>
        <time>2013-08-25T11:50:12Z</time>
      </trkpt>
      <trkpt lat="46.11881" lon="6.74655">
        <ele>1383.5</ele>
        <time>2013-08-25T11:50:15Z</time>
      </trkpt>
      <trkpt lat="46.1188" lon="6.74649">
        <ele>1382</ele>
        <time>2013-08-25T11:50:16Z</time>
      </trkpt>
      <trkpt lat="46.11877" lon="6.74634">
        <ele>1380.1</ele>
        <time>2013-08-25T11:50:18Z</time>
      </trkpt>
      <trkpt lat="46.11874" lon="6.74619">
        <ele>1378.2</ele>
        <time>2013-08-25T11:50:20Z</time>
      </trkpt>
      <trkpt lat="46.11873" lon="6.74612">
        <ele>1377.2</ele>
        <time>2013-08-25T11:50:21Z</time>
      </trkpt>
      <trkpt lat="46.11873" lon="6.74604">
        <ele>1376.3</ele>
        <time>2013-08-25T11:50:22Z</time>
      </trkpt>
      <trkpt lat="46.11874" lon="6.74597">
        <ele>1374.3</ele>
        <time>2013-08-25T11:50:23Z</time>
      </trkpt>
      <trkpt lat="46.11877" lon="6.7459">
        <ele>1373.4</ele>
        <time>2013-08-25T11:50:24Z</time>
      </trkpt>
      <trkpt lat="46.1188" lon="6.74583">
        <ele>1372.4</ele>
        <time>2013-08-25T11:50:25Z</time>
      </trkpt>
      <trkpt lat="46.11881" lon="6.74575">
        <ele>1371</ele>
        <time>2013-08-25T11:50:26Z</time>
      </trkpt>
      <trkpt lat="46.11882" lon="6.74564">
        <ele>1369.5</ele>
        <time>2013-08-25T11:50:27Z</time>
      </trkpt>
      <trkpt lat="46.11881" lon="6.74553">
        <ele>1367.1</ele>
        <time>2013-08-25T11:50:28Z</time>
      </trkpt>
      <trkpt lat="46.11879" lon="6.74541">
        <ele>1365.7</ele>
        <time>2013-08-25T11:50:29Z</time>
      </trkpt>
      <trkpt lat="46.11875" lon="6.7453">
        <ele>1364.3</ele>
        <time>2013-08-25T11:50:30Z</time>
      </trkpt>
      <trkpt lat="46.11872" lon="6.7452">
        <ele>1363.3</ele>
        <time>2013-08-25T11:50:31Z</time>
      </trkpt>
      <trkpt lat="46.11868" lon="6.74497">
        <ele>1360.9</ele>
        <time>2013-08-25T11:50:33Z</time>
      </trkpt>
      <trkpt lat="46.1186" lon="6.74477">
        <ele>1359</ele>
        <time>2013-08-25T11:50:35Z</time>
      </trkpt>
      <trkpt lat="46.11856" lon="6.74469">
        <ele>1358</ele>
        <time>2013-08-25T11:50:36Z</time>
      </trkpt>
      <trkpt lat="46.11846" lon="6.74457">
        <ele>1355.1</ele>
        <time>2013-08-25T11:50:38Z</time>
      </trkpt>
      <trkpt lat="46.11834" lon="6.74439">
        <ele>1351.8</ele>
        <time>2013-08-25T11:50:41Z</time>
      </trkpt>
      <trkpt lat="46.11829" lon="6.74434">
        <ele>1350.3</ele>
        <time>2013-08-25T11:50:42Z</time>
      </trkpt>
      <trkpt lat="46.11823" lon="6.74429">
        <ele>1349.4</ele>
        <time>2013-08-25T11:50:43Z</time>
      </trkpt>
      <trkpt lat="46.11818" lon="6.74424">
        <ele>1347.9</ele>
        <time>2013-08-25T11:50:44Z</time>
      </trkpt>
      <trkpt lat="46.11809" lon="6.74416">
        <ele>1345.5</ele>
        <time>2013-08-25T11:50:46Z</time>
      </trkpt>
      <trkpt lat="46.11807" lon="6.74405">
        <ele>1343.1</ele>
        <time>2013-08-25T11:50:53Z</time>
      </trkpt>
      <trkpt lat="46.11809" lon="6.74402">
        <ele>1342.1</ele>
        <time>2013-08-25T11:51:03Z</time>
      </trkpt>
      <trkpt lat="46.11815" lon="6.74391">
        <ele>1341.2</ele>
        <time>2013-08-25T11:51:29Z</time>
      </trkpt>
      <trkpt lat="46.11818" lon="6.74385">
        <ele>1341.2</ele>
        <time>2013-08-25T11:51:30Z</time>
      </trkpt>
      <trkpt lat="46.11819" lon="6.74379">
        <ele>1339.7</ele>
        <time>2013-08-25T11:51:31Z</time>
      </trkpt>
      <trkpt lat="46.11821" lon="6.74373">
        <ele>1338.3</ele>
        <time>2013-08-25T11:51:32Z</time>
      </trkpt>
      <trkpt lat="46.11824" lon="6.74368">
        <ele>1337.3</ele>
        <time>2013-08-25T11:51:33Z</time>
      </trkpt>
      <trkpt lat="46.1183" lon="6.74359">
        <ele>1336.4</ele>
        <time>2013-08-25T11:51:35Z</time>
      </trkpt>
      <trkpt lat="46.11832" lon="6.74352">
        <ele>1334.9</ele>
        <time>2013-08-25T11:51:36Z</time>
      </trkpt>
      <trkpt lat="46.11834" lon="6.74345">
        <ele>1333.5</ele>
        <time>2013-08-25T11:51:37Z</time>
      </trkpt>
      <trkpt lat="46.11834" lon="6.74336">
        <ele>1332</ele>
        <time>2013-08-25T11:51:38Z</time>
      </trkpt>
      <trkpt lat="46.11832" lon="6.74318">
        <ele>1328.7</ele>
        <time>2013-08-25T11:51:40Z</time>
      </trkpt>
      <trkpt lat="46.11831" lon="6.74298">
        <ele>1325.3</ele>
        <time>2013-08-25T11:51:42Z</time>
      </trkpt>
      <trkpt lat="46.11831" lon="6.74287">
        <ele>1324.4</ele>
        <time>2013-08-25T11:51:43Z</time>
      </trkpt>
      <trkpt lat="46.11834" lon="6.74277">
        <ele>1323.4</ele>
        <time>2013-08-25T11:51:44Z</time>
      </trkpt>
      <trkpt lat="46.11837" lon="6.74268">
        <ele>1321.5</ele>
        <time>2013-08-25T11:51:45Z</time>
      </trkpt>
      <trkpt lat="46.1184" lon="6.7426">
        <ele>1321</ele>
        <time>2013-08-25T11:51:46Z</time>
      </trkpt>
      <trkpt lat="46.11843" lon="6.74254">
        <ele>1320</ele>
        <time>2013-08-25T11:51:47Z</time>
      </trkpt>
      <trkpt lat="46.11843" lon="6.74247">
        <ele>1319.1</ele>
        <time>2013-08-25T11:51:48Z</time>
      </trkpt>
      <trkpt lat="46.11841" lon="6.74241">
        <ele>1318.6</ele>
        <time>2013-08-25T11:51:49Z</time>
      </trkpt>
      <trkpt lat="46.11836" lon="6.74237">
        <ele>1318.1</ele>
        <time>2013-08-25T11:51:50Z</time>
      </trkpt>
      <trkpt lat="46.11823" lon="6.74228">
        <ele>1314.7</ele>
        <time>2013-08-25T11:51:53Z</time>
      </trkpt>
      <trkpt lat="46.11819" lon="6.74221">
        <ele>1313.8</ele>
        <time>2013-08-25T11:51:54Z</time>
      </trkpt>
      <trkpt lat="46.11817" lon="6.74213">
        <ele>1312.8</ele>
        <time>2013-08-25T11:51:55Z</time>
      </trkpt>
      <trkpt lat="46.11815" lon="6.74205">
        <ele>1311.9</ele>
        <time>2013-08-25T11:51:56Z</time>
      </trkpt>
      <trkpt lat="46.11813" lon="6.74197">
        <ele>1309.9</ele>
        <time>2013-08-25T11:51:57Z</time>
      </trkpt>
      <trkpt lat="46.1181" lon="6.74189">
        <ele>1309</ele>
        <time>2013-08-25T11:51:58Z</time>
      </trkpt>
      <trkpt lat="46.11804" lon="6.74173">
        <ele>1306.1</ele>
        <time>2013-08-25T11:52:00Z</time>
      </trkpt>
      <trkpt lat="46.11801" lon="6.74168">
        <ele>1304.2</ele>
        <time>2013-08-25T11:52:01Z</time>
      </trkpt>
      <trkpt lat="46.11797" lon="6.74163">
        <ele>1303.7</ele>
        <time>2013-08-25T11:52:02Z</time>
      </trkpt>
      <trkpt lat="46.11795" lon="6.74157">
        <ele>1301.8</ele>
        <time>2013-08-25T11:52:03Z</time>
      </trkpt>
      <trkpt lat="46.11793" lon="6.74152">
        <ele>1300.8</ele>
        <time>2013-08-25T11:52:04Z</time>
      </trkpt>
      <trkpt lat="46.11791" lon="6.7414">
        <ele>1298.4</ele>
        <time>2013-08-25T11:52:06Z</time>
      </trkpt>
      <trkpt lat="46.11791" lon="6.74132">
        <ele>1297</ele>
        <time>2013-08-25T11:52:07Z</time>
      </trkpt>
      <trkpt lat="46.1179" lon="6.74116">
        <ele>1294.1</ele>
        <time>2013-08-25T11:52:10Z</time>
      </trkpt>
      <trkpt lat="46.11789" lon="6.74107">
        <ele>1292.6</ele>
        <time>2013-08-25T11:52:11Z</time>
      </trkpt>
      <trkpt lat="46.11788" lon="6.74088">
        <ele>1289.3</ele>
        <time>2013-08-25T11:52:15Z</time>
      </trkpt>
      <trkpt lat="46.11789" lon="6.74078">
        <ele>1287.8</ele>
        <time>2013-08-25T11:52:16Z</time>
      </trkpt>
      <trkpt lat="46.11796" lon="6.74065">
        <ele>1284.9</ele>
        <time>2013-08-25T11:52:19Z</time>
      </trkpt>
      <trkpt lat="46.118" lon="6.74056">
        <ele>1284</ele>
        <time>2013-08-25T11:52:24Z</time>
      </trkpt>
      <trkpt lat="46.11798" lon="6.74057">
        <ele>1283</ele>
        <time>2013-08-25T11:52:27Z</time>
      </trkpt>
      <trkpt lat="46.11794" lon="6.74063">
        <ele>1283.5</ele>
        <time>2013-08-25T11:52:42Z</time>
      </trkpt>
      <trkpt lat="46.11778" lon="6.74071">
        <ele>1280.1</ele>
        <time>2013-08-25T11:52:55Z</time>
      </trkpt>
      <trkpt lat="46.11775" lon="6.74074">
        <ele>1280.1</ele>
        <time>2013-08-25T11:52:56Z</time>
      </trkpt>
      <trkpt lat="46.11757" lon="6.74094">
        <ele>1277.7</ele>
        <time>2013-08-25T11:53:00Z</time>
      </trkpt>
      <trkpt lat="46.1174" lon="6.74113">
        <ele>1275.8</ele>
        <time>2013-08-25T11:53:03Z</time>
      </trkpt>
      <trkpt lat="46.11729" lon="6.74123">
        <ele>1274.4</ele>
        <time>2013-08-25T11:53:05Z</time>
      </trkpt>
      <trkpt lat="46.11723" lon="6.74125">
        <ele>1272.9</ele>
        <time>2013-08-25T11:53:06Z</time>
      </trkpt>
      <trkpt lat="46.11718" lon="6.74126">
        <ele>1272.4</ele>
        <time>2013-08-25T11:53:07Z</time>
      </trkpt>
      <trkpt lat="46.11696" lon="6.74133">
        <ele>1269.1</ele>
        <time>2013-08-25T11:53:13Z</time>
      </trkpt>
      <trkpt lat="46.11678" lon="6.74152">
        <ele>1266.2</ele>
        <time>2013-08-25T11:53:18Z</time>
      </trkpt>
      <trkpt lat="46.1166" lon="6.74151">
        <ele>1263.3</ele>
        <time>2013-08-25T11:53:23Z</time>
      </trkpt>
      <trkpt lat="46.11653" lon="6.74147">
        <ele>1260.9</ele>
        <time>2013-08-25T11:53:33Z</time>
      </trkpt>
      <trkpt lat="46.11653" lon="6.74147">
        <ele>1261.4</ele>
        <time>2013-08-25T11:53:40Z</time>
      </trkpt>
      <trkpt lat="46.1165" lon="6.74154">
        <ele>1259.9</ele>
        <time>2013-08-25T11:54:03Z</time>
      </trkpt>
      <trkpt lat="46.11648" lon="6.74154">
        <ele>1259.9</ele>
        <time>2013-08-25T11:54:04Z</time>
      </trkpt>
      <trkpt lat="46.11646" lon="6.74156">
        <ele>1259.5</ele>
        <time>2013-08-25T11:54:05Z</time>
      </trkpt>
      <trkpt lat="46.11641" lon="6.74161">
        <ele>1257.5</ele>
        <time>2013-08-25T11:54:07Z</time>
      </trkpt>
      <trkpt lat="46.11637" lon="6.74165">
        <ele>1257.1</ele>
        <time>2013-08-25T11:54:08Z</time>
      </trkpt>
      <trkpt lat="46.11633" lon="6.74172">
        <ele>1255.6</ele>
        <time>2013-08-25T11:54:09Z</time>
      </trkpt>
      <trkpt lat="46.11607" lon="6.74212">
        <ele>1253.2</ele>
        <time>2013-08-25T11:54:14Z</time>
      </trkpt>
      <trkpt lat="46.11603" lon="6.74221">
        <ele>1252.7</ele>
        <time>2013-08-25T11:54:15Z</time>
      </trkpt>
      <trkpt lat="46.116" lon="6.7423">
        <ele>1252.3</ele>
        <time>2013-08-25T11:54:16Z</time>
      </trkpt>
      <trkpt lat="46.11596" lon="6.74248">
        <ele>1250.3</ele>
        <time>2013-08-25T11:54:18Z</time>
      </trkpt>
      <trkpt lat="46.11586" lon="6.74286">
        <ele>1247</ele>
        <time>2013-08-25T11:54:22Z</time>
      </trkpt>
      <trkpt lat="46.11581" lon="6.74295">
        <ele>1246</ele>
        <time>2013-08-25T11:54:23Z</time>
      </trkpt>
      <trkpt lat="46.11575" lon="6.74298">
        <ele>1245</ele>
        <time>2013-08-25T11:54:24Z</time>
      </trkpt>
      <trkpt lat="46.11568" lon="6.74296">
        <ele>1244.6</ele>
        <time>2013-08-25T11:54:25Z</time>
      </trkpt>
      <trkpt lat="46.11562" lon="6.7429">
        <ele>1243.1</ele>
        <time>2013-08-25T11:54:26Z</time>
      </trkpt>
      <trkpt lat="46.11556" lon="6.74282">
        <ele>1242.6</ele>
        <time>2013-08-25T11:54:27Z</time>
      </trkpt>
      <trkpt lat="46.1155" lon="6.74274">
        <ele>1241.7</ele>
        <time>2013-08-25T11:54:28Z</time>
      </trkpt>
      <trkpt lat="46.11545" lon="6.74268">
        <ele>1240.7</ele>
        <time>2013-08-25T11:54:29Z</time>
      </trkpt>
      <trkpt lat="46.11537" lon="6.74265">
        <ele>1239.8</ele>
        <time>2013-08-25T11:54:30Z</time>
      </trkpt>
      <trkpt lat="46.11529" lon="6.74264">
        <ele>1238.8</ele>
        <time>2013-08-25T11:54:31Z</time>
      </trkpt>
      <trkpt lat="46.11506" lon="6.7427">
        <ele>1235.9</ele>
        <time>2013-08-25T11:54:34Z</time>
      </trkpt>
      <trkpt lat="46.115" lon="6.74275">
        <ele>1235.9</ele>
        <time>2013-08-25T11:54:35Z</time>
      </trkpt>
      <trkpt lat="46.11496" lon="6.74283">
        <ele>1234.5</ele>
        <time>2013-08-25T11:54:36Z</time>
      </trkpt>
      <trkpt lat="46.11484" lon="6.74308">
        <ele>1231.6</ele>
        <time>2013-08-25T11:54:38Z</time>
      </trkpt>
      <trkpt lat="46.11474" lon="6.74334">
        <ele>1229.7</ele>
        <time>2013-08-25T11:54:41Z</time>
      </trkpt>
      <trkpt lat="46.11469" lon="6.7434">
        <ele>1229.2</ele>
        <time>2013-08-25T11:54:42Z</time>
      </trkpt>
      <trkpt lat="46.11463" lon="6.74345">
        <ele>1228.2</ele>
        <time>2013-08-25T11:54:43Z</time>
      </trkpt>
      <trkpt lat="46.11456" lon="6.74348">
        <ele>1226.8</ele>
        <time>2013-08-25T11:54:44Z</time>
      </trkpt>
      <trkpt lat="46.11449" lon="6.74351">
        <ele>1226.3</ele>
        <time>2013-08-25T11:54:45Z</time>
      </trkpt>
      <trkpt lat="46.11441" lon="6.74352">
        <ele>1224.9</ele>
        <time>2013-08-25T11:54:46Z</time>
      </trkpt>
      <trkpt lat="46.11428" lon="6.74351">
        <ele>1222.9</ele>
        <time>2013-08-25T11:54:48Z</time>
      </trkpt>
      <trkpt lat="46.11401" lon="6.74347">
        <ele>1219.1</ele>
        <time>2013-08-25T11:54:52Z</time>
      </trkpt>
      <trkpt lat="46.11379" lon="6.74347">
        <ele>1216.2</ele>
        <time>2013-08-25T11:54:55Z</time>
      </trkpt>
      <trkpt lat="46.11372" lon="6.74349">
        <ele>1214.8</ele>
        <time>2013-08-25T11:54:56Z</time>
      </trkpt>
      <trkpt lat="46.11364" lon="6.74358">
        <ele>1213.8</ele>
        <time>2013-08-25T11:55:02Z</time>
      </trkpt>
      <trkpt lat="46.11359" lon="6.74354">
        <ele>1212.8</ele>
        <time>2013-08-25T11:55:21Z</time>
      </trkpt>
      <trkpt lat="46.11353" lon="6.74349">
        <ele>1209</ele>
        <time>2013-08-25T11:55:25Z</time>
      </trkpt>
      <trkpt lat="46.11352" lon="6.74349">
        <ele>1208.5</ele>
        <time>2013-08-25T11:55:26Z</time>
      </trkpt>
      <trkpt lat="46.11346" lon="6.74344">
        <ele>1206.1</ele>
        <time>2013-08-25T11:55:29Z</time>
      </trkpt>
      <trkpt lat="46.11342" lon="6.74336">
        <ele>1203.2</ele>
        <time>2013-08-25T11:55:32Z</time>
      </trkpt>
      <trkpt lat="46.1134" lon="6.74329">
        <ele>1200.8</ele>
        <time>2013-08-25T11:55:35Z</time>
      </trkpt>
      <trkpt lat="46.11336" lon="6.74326">
        <ele>1199.4</ele>
        <time>2013-08-25T11:55:37Z</time>
      </trkpt>
      <trkpt lat="46.11331" lon="6.74323">
        <ele>1198.4</ele>
        <time>2013-08-25T11:55:39Z</time>
      </trkpt>
      <trkpt lat="46.11324" lon="6.74314">
        <ele>1195.1</ele>
        <time>2013-08-25T11:55:44Z</time>
      </trkpt>
      <trkpt lat="46.11316" lon="6.7431">
        <ele>1192.2</ele>
        <time>2013-08-25T11:55:47Z</time>
      </trkpt>
      <trkpt lat="46.11307" lon="6.74306">
        <ele>1189.3</ele>
        <time>2013-08-25T11:55:50Z</time>
      </trkpt>
      <trkpt lat="46.11294" lon="6.74297">
        <ele>1186.4</ele>
        <time>2013-08-25T11:55:54Z</time>
      </trkpt>
      <trkpt lat="46.1129" lon="6.74296">
        <ele>1185</ele>
        <time>2013-08-25T11:55:55Z</time>
      </trkpt>
      <trkpt lat="46.1128" lon="6.7429">
        <ele>1181.6</ele>
        <time>2013-08-25T11:55:59Z</time>
      </trkpt>
      <trkpt lat="46.11269" lon="6.74286">
        <ele>1178.2</ele>
        <time>2013-08-25T11:56:03Z</time>
      </trkpt>
      <trkpt lat="46.1126" lon="6.74285">
        <ele>1174.9</ele>
        <time>2013-08-25T11:56:06Z</time>
      </trkpt>
      <trkpt lat="46.1125" lon="6.74287">
        <ele>1172</ele>
        <time>2013-08-25T11:56:10Z</time>
      </trkpt>
      <trkpt lat="46.11238" lon="6.74288">
        <ele>1169.6</ele>
        <time>2013-08-25T11:56:12Z</time>
      </trkpt>
      <trkpt lat="46.11233" lon="6.7429">
        <ele>1168.1</ele>
        <time>2013-08-25T11:56:13Z</time>
      </trkpt>
      <trkpt lat="46.11229" lon="6.74291">
        <ele>1167.2</ele>
        <time>2013-08-25T11:56:14Z</time>
      </trkpt>
      <trkpt lat="46.11226" lon="6.74292">
        <ele>1165.7</ele>
        <time>2013-08-25T11:56:15Z</time>
      </trkpt>
      <trkpt lat="46.1122" lon="6.74293">
        <ele>1164.8</ele>
        <time>2013-08-25T11:56:26Z</time>
      </trkpt>
      <trkpt lat="46.11284" lon="6.74255">
        <ele>1164.8</ele>
        <time>2013-08-25T11:57:07Z</time>
      </trkpt>
      <trkpt lat="46.11292" lon="6.74242">
        <ele>1166.7</ele>
        <time>2013-08-25T11:57:21Z</time>
      </trkpt>
      <trkpt lat="46.11289" lon="6.74248">
        <ele>1164.3</ele>
        <time>2013-08-25T11:57:36Z</time>
      </trkpt>
      <trkpt lat="46.11289" lon="6.74248">
        <ele>1164.3</ele>
        <time>2013-08-25T11:57:37Z</time>
      </trkpt>
      <trkpt lat="46.11288" lon="6.74249">
        <ele>1163.8</ele>
        <time>2013-08-25T11:57:38Z</time>
      </trkpt>
      <trkpt lat="46.11288" lon="6.74251">
        <ele>1161.9</ele>
        <time>2013-08-25T11:57:39Z</time>
      </trkpt>
      <trkpt lat="46.11286" lon="6.74256">
        <ele>1160</ele>
        <time>2013-08-25T11:57:41Z</time>
      </trkpt>
      <trkpt lat="46.11284" lon="6.74257">
        <ele>1158.5</ele>
        <time>2013-08-25T11:57:42Z</time>
      </trkpt>
      <trkpt lat="46.11282" lon="6.74259">
        <ele>1157.1</ele>
        <time>2013-08-25T11:57:43Z</time>
      </trkpt>
      <trkpt lat="46.11279" lon="6.74261">
        <ele>1155.2</ele>
        <time>2013-08-25T11:57:45Z</time>
      </trkpt>
      <trkpt lat="46.11273" lon="6.74267">
        <ele>1153.7</ele>
        <time>2013-08-25T11:57:53Z</time>
      </trkpt>
      <trkpt lat="46.11267" lon="6.74271">
        <ele>1150.4</ele>
        <time>2013-08-25T11:57:56Z</time>
      </trkpt>
      <trkpt lat="46.11258" lon="6.74277">
        <ele>1147</ele>
        <time>2013-08-25T11:57:59Z</time>
      </trkpt>
      <trkpt lat="46.1125" lon="6.74281">
        <ele>1144.1</ele>
        <time>2013-08-25T11:58:02Z</time>
      </trkpt>
      <trkpt lat="46.11245" lon="6.74284">
        <ele>1141.7</ele>
        <time>2013-08-25T11:58:04Z</time>
      </trkpt>
      <trkpt lat="46.11243" lon="6.74285">
        <ele>1140.3</ele>
        <time>2013-08-25T11:58:05Z</time>
      </trkpt>
      <trkpt lat="46.11237" lon="6.74287">
        <ele>1137.4</ele>
        <time>2013-08-25T11:58:07Z</time>
      </trkpt>
      <trkpt lat="46.11231" lon="6.7429">
        <ele>1134.5</ele>
        <time>2013-08-25T11:58:09Z</time>
      </trkpt>
      <trkpt lat="46.11227" lon="6.74291">
        <ele>1133.1</ele>
        <time>2013-08-25T11:58:10Z</time>
      </trkpt>
      <trkpt lat="46.11224" lon="6.74293">
        <ele>1131.6</ele>
        <time>2013-08-25T11:58:11Z</time>
      </trkpt>
      <trkpt lat="46.11216" lon="6.74301">
        <ele>1130.7</ele>
        <time>2013-08-25T11:58:12Z</time>
      </trkpt>
      <trkpt lat="46.11211" lon="6.74305">
        <ele>1129.2</ele>
        <time>2013-08-25T11:58:13Z</time>
      </trkpt>
      <trkpt lat="46.11199" lon="6.74307">
        <ele>1126.3</ele>
        <time>2013-08-25T11:58:16Z</time>
      </trkpt>
      <trkpt lat="46.11186" lon="6.74308">
        <ele>1123</ele>
        <time>2013-08-25T11:58:20Z</time>
      </trkpt>
      <trkpt lat="46.11174" lon="6.74315">
        <ele>1119.6</ele>
        <time>2013-08-25T11:58:25Z</time>
      </trkpt>
      <trkpt lat="46.11173" lon="6.74315">
        <ele>1119.1</ele>
        <time>2013-08-25T11:58:26Z</time>
      </trkpt>
      <trkpt lat="46.11161" lon="6.7432">
        <ele>1117.2</ele>
        <time>2013-08-25T11:58:35Z</time>
      </trkpt>
      <trkpt lat="46.1116" lon="6.74323">
        <ele>1117.2</ele>
        <time>2013-08-25T11:58:36Z</time>
      </trkpt>
      <trkpt lat="46.11158" lon="6.74346">
        <ele>1114.8</ele>
        <time>2013-08-25T11:58:43Z</time>
      </trkpt>
      <trkpt lat="46.11155" lon="6.74353">
        <ele>1113.3</ele>
        <time>2013-08-25T11:58:45Z</time>
      </trkpt>
      <trkpt lat="46.11154" lon="6.74359">
        <ele>1112.4</ele>
        <time>2013-08-25T11:58:46Z</time>
      </trkpt>
      <trkpt lat="46.11185" lon="6.74416">
        <ele>1109.5</ele>
        <time>2013-08-25T11:58:50Z</time>
      </trkpt>
      <trkpt lat="46.11185" lon="6.74438">
        <ele>1107.6</ele>
        <time>2013-08-25T11:58:52Z</time>
      </trkpt>
      <trkpt lat="46.11183" lon="6.74467">
        <ele>1104.7</ele>
        <time>2013-08-25T11:58:56Z</time>
      </trkpt>
      <trkpt lat="46.11183" lon="6.7447">
        <ele>1104.2</ele>
        <time>2013-08-25T11:58:57Z</time>
      </trkpt>
      <trkpt lat="46.11175" lon="6.74474">
        <ele>1101.8</ele>
        <time>2013-08-25T11:58:59Z</time>
      </trkpt>
      <trkpt lat="46.11174" lon="6.74478">
        <ele>1100.9</ele>
        <time>2013-08-25T11:59:00Z</time>
      </trkpt>
      <trkpt lat="46.11172" lon="6.74488">
        <ele>1098.4</ele>
        <time>2013-08-25T11:59:03Z</time>
      </trkpt>
      <trkpt lat="46.11173" lon="6.74489">
        <ele>1098</ele>
        <time>2013-08-25T11:59:04Z</time>
      </trkpt>
      <trkpt lat="46.11178" lon="6.74493">
        <ele>1094.1</ele>
        <time>2013-08-25T11:59:08Z</time>
      </trkpt>
      <trkpt lat="46.11184" lon="6.74495">
        <ele>1090.8</ele>
        <time>2013-08-25T11:59:12Z</time>
      </trkpt>
      <trkpt lat="46.11189" lon="6.74497">
        <ele>1087.9</ele>
        <time>2013-08-25T11:59:15Z</time>
      </trkpt>
      <trkpt lat="46.11143" lon="6.7434">
        <ele>1084.5</ele>
        <time>2013-08-25T11:59:18Z</time>
      </trkpt>
      <trkpt lat="46.11131" lon="6.74304">
        <ele>1082.6</ele>
        <time>2013-08-25T11:59:20Z</time>
      </trkpt>
      <trkpt lat="46.1112" lon="6.74286">
        <ele>1081.1</ele>
        <time>2013-08-25T11:59:21Z</time>
      </trkpt>
      <trkpt lat="46.11102" lon="6.74251">
        <ele>1077.8</ele>
        <time>2013-08-25T11:59:25Z</time>
      </trkpt>
      <trkpt lat="46.11086" lon="6.74236">
        <ele>1074.4</ele>
        <time>2013-08-25T11:59:29Z</time>
      </trkpt>
      <trkpt lat="46.11074" lon="6.74229">
        <ele>1073</ele>
        <time>2013-08-25T11:59:36Z</time>
      </trkpt>
      <trkpt lat="46.11072" lon="6.74229">
        <ele>1069.6</ele>
        <time>2013-08-25T11:59:49Z</time>
      </trkpt>
      <trkpt lat="46.11072" lon="6.74231">
        <ele>1067.7</ele>
        <time>2013-08-25T11:59:51Z</time>
      </trkpt>
      <trkpt lat="46.11073" lon="6.74233">
        <ele>1066.7</ele>
        <time>2013-08-25T11:59:52Z</time>
      </trkpt>
      <trkpt lat="46.11073" lon="6.74236">
        <ele>1065.3</ele>
        <time>2013-08-25T11:59:53Z</time>
      </trkpt>
      <trkpt lat="46.11072" lon="6.7424">
        <ele>1064.3</ele>
        <time>2013-08-25T11:59:54Z</time>
      </trkpt>
      <trkpt lat="46.11056" lon="6.7425">
        <ele>1061.9</ele>
        <time>2013-08-25T11:59:56Z</time>
      </trkpt>
      <trkpt lat="46.1105" lon="6.74257">
        <ele>1060.5</ele>
        <time>2013-08-25T11:59:57Z</time>
      </trkpt>
      <trkpt lat="46.11035" lon="6.74264">
        <ele>1060.5</ele>
        <time>2013-08-25T11:59:58Z</time>
      </trkpt>
      <trkpt lat="46.11018" lon="6.74286">
        <ele>1057.1</ele>
        <time>2013-08-25T12:00:01Z</time>
      </trkpt>
      <trkpt lat="46.11003" lon="6.74298">
        <ele>1056.2</ele>
        <time>2013-08-25T12:00:02Z</time>
      </trkpt>
      <trkpt lat="46.10986" lon="6.7432">
        <ele>1052.3</ele>
        <time>2013-08-25T12:00:05Z</time>
      </trkpt>
      <trkpt lat="46.10976" lon="6.74329">
        <ele>1051.3</ele>
        <time>2013-08-25T12:00:06Z</time>
      </trkpt>
      <trkpt lat="46.10969" lon="6.74335">
        <ele>1050.4</ele>
        <time>2013-08-25T12:00:07Z</time>
      </trkpt>
      <trkpt lat="46.10953" lon="6.74343">
        <ele>1048.5</ele>
        <time>2013-08-25T12:00:09Z</time>
      </trkpt>
      <trkpt lat="46.10944" lon="6.74347">
        <ele>1047</ele>
        <time>2013-08-25T12:00:10Z</time>
      </trkpt>
      <trkpt lat="46.10919" lon="6.74361">
        <ele>1043.7</ele>
        <time>2013-08-25T12:00:13Z</time>
      </trkpt>
      <trkpt lat="46.10902" lon="6.74368">
        <ele>1040.3</ele>
        <time>2013-08-25T12:00:15Z</time>
      </trkpt>
      <trkpt lat="46.10886" lon="6.74374">
        <ele>1039.3</ele>
        <time>2013-08-25T12:00:17Z</time>
      </trkpt>
      <trkpt lat="46.10864" lon="6.74379">
        <ele>1035.5</ele>
        <time>2013-08-25T12:00:20Z</time>
      </trkpt>
      <trkpt lat="46.10859" lon="6.74381">
        <ele>1035</ele>
        <time>2013-08-25T12:00:21Z</time>
      </trkpt>
      <trkpt lat="46.10849" lon="6.74384">
        <ele>1033.6</ele>
        <time>2013-08-25T12:00:23Z</time>
      </trkpt>
      <trkpt lat="46.10832" lon="6.74394">
        <ele>1030.2</ele>
        <time>2013-08-25T12:00:25Z</time>
      </trkpt>
      <trkpt lat="46.10809" lon="6.74407">
        <ele>1026.8</ele>
        <time>2013-08-25T12:00:28Z</time>
      </trkpt>
      <trkpt lat="46.10797" lon="6.74416">
        <ele>1026.3</ele>
        <time>2013-08-25T12:00:30Z</time>
      </trkpt>
      <trkpt lat="46.10792" lon="6.74422">
        <ele>1025.4</ele>
        <time>2013-08-25T12:00:31Z</time>
      </trkpt>
      <trkpt lat="46.10789" lon="6.74429">
        <ele>1024.9</ele>
        <time>2013-08-25T12:00:32Z</time>
      </trkpt>
      <trkpt lat="46.10786" lon="6.74437">
        <ele>1023.9</ele>
        <time>2013-08-25T12:00:33Z</time>
      </trkpt>
      <trkpt lat="46.10784" lon="6.74444">
        <ele>1023.5</ele>
        <time>2013-08-25T12:00:34Z</time>
      </trkpt>
      <trkpt lat="46.10785" lon="6.74454">
        <ele>1023</ele>
        <time>2013-08-25T12:00:35Z</time>
      </trkpt>
      <trkpt lat="46.10786" lon="6.74474">
        <ele>1022</ele>
        <time>2013-08-25T12:00:37Z</time>
      </trkpt>
      <trkpt lat="46.10783" lon="6.74488">
        <ele>1021.5</ele>
        <time>2013-08-25T12:00:39Z</time>
      </trkpt>
      <trkpt lat="46.10763" lon="6.7449">
        <ele>1022.5</ele>
        <time>2013-08-25T12:00:47Z</time>
      </trkpt>
      <trkpt lat="46.10734" lon="6.74481">
        <ele>1022</ele>
        <time>2013-08-25T12:00:57Z</time>
      </trkpt>
      <trkpt lat="46.10725" lon="6.74482">
        <ele>1022</ele>
        <time>2013-08-25T12:01:00Z</time>
      </trkpt>
      <trkpt lat="46.10723" lon="6.74484">
        <ele>1022</ele>
        <time>2013-08-25T12:01:01Z</time>
      </trkpt>
      <trkpt lat="46.10721" lon="6.74484">
        <ele>1022.5</ele>
        <time>2013-08-25T12:01:02Z</time>
      </trkpt>
      <trkpt lat="46.10707" lon="6.74486">
        <ele>1022</ele>
        <time>2013-08-25T12:01:08Z</time>
      </trkpt>
      <trkpt lat="46.10705" lon="6.74486">
        <ele>1022</ele>
        <time>2013-08-25T12:01:09Z</time>
      </trkpt>
      <trkpt lat="46.10701" lon="6.74487">
        <ele>1021.5</ele>
        <time>2013-08-25T12:01:16Z</time>
      </trkpt>
      <trkpt lat="46.10701" lon="6.74487">
        <ele>1021.5</ele>
        <time>2013-08-25T12:01:17Z</time>
      </trkpt>
      <trkpt lat="46.10692" lon="6.74482">
        <ele>1020.1</ele>
        <time>2013-08-25T12:01:26Z</time>
      </trkpt>
      <trkpt lat="46.10692" lon="6.74483">
        <ele>1020.6</ele>
        <time>2013-08-25T12:01:36Z</time>
      </trkpt>
      <trkpt lat="46.10691" lon="6.74484">
        <ele>1020.1</ele>
        <time>2013-08-25T12:01:37Z</time>
      </trkpt>
      <trkpt lat="46.10687" lon="6.74489">
        <ele>1020.1</ele>
        <time>2013-08-25T12:01:39Z</time>
      </trkpt>
      <trkpt lat="46.10687" lon="6.74493">
        <ele>1020.1</ele>
        <time>2013-08-25T12:01:41Z</time>
      </trkpt>
      <trkpt lat="46.10685" lon="6.74499">
        <ele>1020.6</ele>
        <time>2013-08-25T12:01:45Z</time>
      </trkpt>
      <trkpt lat="46.10664" lon="6.745">
        <ele>1021.1</ele>
        <time>2013-08-25T12:01:58Z</time>
      </trkpt>
      <trkpt lat="46.10661" lon="6.745">
        <ele>1021.1</ele>
        <time>2013-08-25T12:01:59Z</time>
      </trkpt>
      <trkpt lat="46.10638" lon="6.74496">
        <ele>1023.5</ele>
        <time>2013-08-25T12:02:12Z</time>
      </trkpt>
      <trkpt lat="46.10637" lon="6.74496">
        <ele>1023.5</ele>
        <time>2013-08-25T12:02:13Z</time>
      </trkpt>
      <trkpt lat="46.10634" lon="6.74498">
        <ele>1024.4</ele>
        <time>2013-08-25T12:02:16Z</time>
      </trkpt>
      <trkpt lat="46.10628" lon="6.74498">
        <ele>1025.4</ele>
        <time>2013-08-25T12:02:21Z</time>
      </trkpt>
      <trkpt lat="46.10623" lon="6.74497">
        <ele>1026.3</ele>
        <time>2013-08-25T12:02:25Z</time>
      </trkpt>
      <trkpt lat="46.10621" lon="6.74498">
        <ele>1026.8</ele>
        <time>2013-08-25T12:02:26Z</time>
      </trkpt>
      <trkpt lat="46.10619" lon="6.74498">
        <ele>1027.3</ele>
        <time>2013-08-25T12:02:28Z</time>
      </trkpt>
      <trkpt lat="46.10613" lon="6.74496">
        <ele>1028.3</ele>
        <time>2013-08-25T12:02:33Z</time>
      </trkpt>
      <trkpt lat="46.10602" lon="6.74498">
        <ele>1030.2</ele>
        <time>2013-08-25T12:02:44Z</time>
      </trkpt>
      <trkpt lat="46.10585" lon="6.74503">
        <ele>1032.6</ele>
        <time>2013-08-25T12:02:57Z</time>
      </trkpt>
      <trkpt lat="46.10571" lon="6.7451">
        <ele>1034</ele>
        <time>2013-08-25T12:03:09Z</time>
      </trkpt>
      <trkpt lat="46.10568" lon="6.74514">
        <ele>1034.5</ele>
        <time>2013-08-25T12:03:13Z</time>
      </trkpt>
      <trkpt lat="46.10561" lon="6.74519">
        <ele>1035.5</ele>
        <time>2013-08-25T12:03:19Z</time>
      </trkpt>
      <trkpt lat="46.10558" lon="6.74522">
        <ele>1036</ele>
        <time>2013-08-25T12:03:21Z</time>
      </trkpt>
      <trkpt lat="46.1053" lon="6.74559">
        <ele>1038.8</ele>
        <time>2013-08-25T12:03:36Z</time>
      </trkpt>
      <trkpt lat="46.10509" lon="6.74565">
        <ele>1040.8</ele>
        <time>2013-08-25T12:03:49Z</time>
      </trkpt>
      <trkpt lat="46.10483" lon="6.74563">
        <ele>1044.1</ele>
        <time>2013-08-25T12:04:06Z</time>
      </trkpt>
      <trkpt lat="46.1047" lon="6.74563">
        <ele>1046.1</ele>
        <time>2013-08-25T12:04:15Z</time>
      </trkpt>
      <trkpt lat="46.10459" lon="6.74577">
        <ele>1048.9</ele>
        <time>2013-08-25T12:04:27Z</time>
      </trkpt>
      <trkpt lat="46.10463" lon="6.74596">
        <ele>1050.9</ele>
        <time>2013-08-25T12:04:38Z</time>
      </trkpt>
      <trkpt lat="46.10469" lon="6.74604">
        <ele>1052.3</ele>
        <time>2013-08-25T12:04:45Z</time>
      </trkpt>
      <trkpt lat="46.10474" lon="6.74613">
        <ele>1053.7</ele>
        <time>2013-08-25T12:04:58Z</time>
      </trkpt>
      <trkpt lat="46.10474" lon="6.74613">
        <ele>1055.2</ele>
        <time>2013-08-25T12:05:03Z</time>
      </trkpt>
      <trkpt lat="46.10474" lon="6.74615">
        <ele>1053.3</ele>
        <time>2013-08-25T12:05:04Z</time>
      </trkpt>
      <trkpt lat="46.10476" lon="6.74619">
        <ele>1053.7</ele>
        <time>2013-08-25T12:05:06Z</time>
      </trkpt>
      <trkpt lat="46.10478" lon="6.74647">
        <ele>1055.7</ele>
        <time>2013-08-25T12:05:20Z</time>
      </trkpt>
      <trkpt lat="46.10475" lon="6.74664">
        <ele>1056.6</ele>
        <time>2013-08-25T12:05:28Z</time>
      </trkpt>
      <trkpt lat="46.10476" lon="6.74665">
        <ele>1056.2</ele>
        <time>2013-08-25T12:05:41Z</time>
      </trkpt>
      <trkpt lat="46.10478" lon="6.74657">
        <ele>1056.2</ele>
        <time>2013-08-25T12:06:01Z</time>
      </trkpt>
      <trkpt lat="46.10477" lon="6.74656">
        <ele>1055.7</ele>
        <time>2013-08-25T12:06:21Z</time>
      </trkpt>
      <trkpt lat="46.10476" lon="6.74656">
        <ele>1057.6</ele>
        <time>2013-08-25T12:06:22Z</time>
      </trkpt>
      <trkpt lat="46.10476" lon="6.74653">
        <ele>1056.6</ele>
        <time>2013-08-25T12:06:37Z</time>
      </trkpt>
      <trkpt lat="46.10476" lon="6.74658">
        <ele>1057.1</ele>
        <time>2013-08-25T12:07:01Z</time>
      </trkpt>
      <trkpt lat="46.1048" lon="6.74653">
        <ele>1056.2</ele>
        <time>2013-08-25T12:07:32Z</time>
      </trkpt>
      <trkpt lat="46.10483" lon="6.74649">
        <ele>1057.1</ele>
        <time>2013-08-25T12:08:03Z</time>
      </trkpt>
      <trkpt lat="46.10483" lon="6.74648">
        <ele>1057.1</ele>
        <time>2013-08-25T12:08:34Z</time>
      </trkpt>
      <trkpt lat="46.10487" lon="6.74648">
        <ele>1057.1</ele>
        <time>2013-08-25T12:08:50Z</time>
      </trkpt>
      <trkpt lat="46.10482" lon="6.74654">
        <ele>1057.1</ele>
        <time>2013-08-25T12:09:02Z</time>
      </trkpt>
      <trkpt lat="46.10461" lon="6.74689">
        <ele>1056.6</ele>
        <time>2013-08-25T12:09:16Z</time>
      </trkpt>
      <trkpt lat="46.10444" lon="6.74718">
        <ele>1059</ele>
        <time>2013-08-25T12:09:32Z</time>
      </trkpt>
      <trkpt lat="46.10442" lon="6.74722">
        <ele>1058.6</ele>
        <time>2013-08-25T12:09:42Z</time>
      </trkpt>
      <trkpt lat="46.10443" lon="6.74722">
        <ele>1058.1</ele>
        <time>2013-08-25T12:10:07Z</time>
      </trkpt>
      <trkpt lat="46.10456" lon="6.74708">
        <ele>1058.1</ele>
        <time>2013-08-25T12:10:38Z</time>
      </trkpt>
      <trkpt lat="46.10459" lon="6.74712">
        <ele>1058.1</ele>
        <time>2013-08-25T12:11:08Z</time>
      </trkpt>
      <trkpt lat="46.10457" lon="6.7471">
        <ele>1057.6</ele>
        <time>2013-08-25T12:11:27Z</time>
      </trkpt>
      <trkpt lat="46.10459" lon="6.74702">
        <ele>1058.6</ele>
        <time>2013-08-25T12:11:37Z</time>
      </trkpt>
      <trkpt lat="46.1046" lon="6.74701">
        <ele>1058.6</ele>
        <time>2013-08-25T12:11:38Z</time>
      </trkpt>
      <trkpt lat="46.10461" lon="6.74698">
        <ele>1058.6</ele>
        <time>2013-08-25T12:11:39Z</time>
      </trkpt>
      <trkpt lat="46.10485" lon="6.74655">
        <ele>1056.2</ele>
        <time>2013-08-25T12:11:49Z</time>
      </trkpt>
      <trkpt lat="46.105" lon="6.74609">
        <ele>1056.2</ele>
        <time>2013-08-25T12:12:02Z</time>
      </trkpt>
      <trkpt lat="46.10499" lon="6.74603">
        <ele>1055.7</ele>
        <time>2013-08-25T12:12:03Z</time>
      </trkpt>
      <trkpt lat="46.10497" lon="6.74587">
        <ele>1055.2</ele>
        <time>2013-08-25T12:12:06Z</time>
      </trkpt>
      <trkpt lat="46.10495" lon="6.74583">
        <ele>1053.7</ele>
        <time>2013-08-25T12:12:07Z</time>
      </trkpt>
      <trkpt lat="46.10491" lon="6.74579">
        <ele>1053.7</ele>
        <time>2013-08-25T12:12:08Z</time>
      </trkpt>
      <trkpt lat="46.10487" lon="6.74575">
        <ele>1053.3</ele>
        <time>2013-08-25T12:12:09Z</time>
      </trkpt>
      <trkpt lat="46.10484" lon="6.7457">
        <ele>1052.3</ele>
        <time>2013-08-25T12:12:10Z</time>
      </trkpt>
      <trkpt lat="46.10482" lon="6.74565">
        <ele>1051.3</ele>
        <time>2013-08-25T12:12:11Z</time>
      </trkpt>
      <trkpt lat="46.10481" lon="6.74558">
        <ele>1051.3</ele>
        <time>2013-08-25T12:12:12Z</time>
      </trkpt>
      <trkpt lat="46.10481" lon="6.74552">
        <ele>1050.4</ele>
        <time>2013-08-25T12:12:13Z</time>
      </trkpt>
      <trkpt lat="46.10483" lon="6.74546">
        <ele>1048.9</ele>
        <time>2013-08-25T12:12:14Z</time>
      </trkpt>
      <trkpt lat="46.10486" lon="6.74542">
        <ele>1048.9</ele>
        <time>2013-08-25T12:12:15Z</time>
      </trkpt>
      <trkpt lat="46.1049" lon="6.74539">
        <ele>1048</ele>
        <time>2013-08-25T12:12:16Z</time>
      </trkpt>
      <trkpt lat="46.10493" lon="6.74537">
        <ele>1047.5</ele>
        <time>2013-08-25T12:12:17Z</time>
      </trkpt>
      <trkpt lat="46.10498" lon="6.74536">
        <ele>1047</ele>
        <time>2013-08-25T12:12:18Z</time>
      </trkpt>
      <trkpt lat="46.10503" lon="6.74535">
        <ele>1046.1</ele>
        <time>2013-08-25T12:12:19Z</time>
      </trkpt>
      <trkpt lat="46.10509" lon="6.74535">
        <ele>1045.1</ele>
        <time>2013-08-25T12:12:20Z</time>
      </trkpt>
      <trkpt lat="46.10516" lon="6.74536">
        <ele>1044.6</ele>
        <time>2013-08-25T12:12:21Z</time>
      </trkpt>
      <trkpt lat="46.10523" lon="6.74537">
        <ele>1043.7</ele>
        <time>2013-08-25T12:12:22Z</time>
      </trkpt>
      <trkpt lat="46.10553" lon="6.74535">
        <ele>1040.3</ele>
        <time>2013-08-25T12:12:27Z</time>
      </trkpt>
      <trkpt lat="46.10558" lon="6.74533">
        <ele>1039.8</ele>
        <time>2013-08-25T12:12:28Z</time>
      </trkpt>
      <trkpt lat="46.10562" lon="6.74531">
        <ele>1038.8</ele>
        <time>2013-08-25T12:12:29Z</time>
      </trkpt>
      <trkpt lat="46.10565" lon="6.74528">
        <ele>1038.8</ele>
        <time>2013-08-25T12:12:30Z</time>
      </trkpt>
      <trkpt lat="46.10568" lon="6.74524">
        <ele>1037.9</ele>
        <time>2013-08-25T12:12:31Z</time>
      </trkpt>
      <trkpt lat="46.10571" lon="6.7452">
        <ele>1037.4</ele>
        <time>2013-08-25T12:12:32Z</time>
      </trkpt>
      <trkpt lat="46.10575" lon="6.74515">
        <ele>1036.4</ele>
        <time>2013-08-25T12:12:33Z</time>
      </trkpt>
      <trkpt lat="46.10578" lon="6.74512">
        <ele>1036</ele>
        <time>2013-08-25T12:12:34Z</time>
      </trkpt>
      <trkpt lat="46.10586" lon="6.74505">
        <ele>1035</ele>
        <time>2013-08-25T12:12:36Z</time>
      </trkpt>
      <trkpt lat="46.10596" lon="6.74498">
        <ele>1034</ele>
        <time>2013-08-25T12:12:39Z</time>
      </trkpt>
      <trkpt lat="46.10601" lon="6.74497">
        <ele>1033.1</ele>
        <time>2013-08-25T12:12:40Z</time>
      </trkpt>
      <trkpt lat="46.10605" lon="6.74496">
        <ele>1033.1</ele>
        <time>2013-08-25T12:12:41Z</time>
      </trkpt>
      <trkpt lat="46.10614" lon="6.74496">
        <ele>1031.2</ele>
        <time>2013-08-25T12:12:43Z</time>
      </trkpt>
      <trkpt lat="46.10629" lon="6.74496">
        <ele>1028.8</ele>
        <time>2013-08-25T12:12:46Z</time>
      </trkpt>
      <trkpt lat="46.10648" lon="6.74492">
        <ele>1025.4</ele>
        <time>2013-08-25T12:12:49Z</time>
      </trkpt>
      <trkpt lat="46.10654" lon="6.7449">
        <ele>1024.9</ele>
        <time>2013-08-25T12:12:50Z</time>
      </trkpt>
      <trkpt lat="46.10662" lon="6.74491">
        <ele>1024.4</ele>
        <time>2013-08-25T12:12:51Z</time>
      </trkpt>
      <trkpt lat="46.10684" lon="6.74495">
        <ele>1022.5</ele>
        <time>2013-08-25T12:12:54Z</time>
      </trkpt>
      <trkpt lat="46.10694" lon="6.74495">
        <ele>1021.5</ele>
        <time>2013-08-25T12:12:56Z</time>
      </trkpt>
      <trkpt lat="46.10699" lon="6.74493">
        <ele>1021.5</ele>
        <time>2013-08-25T12:12:57Z</time>
      </trkpt>
      <trkpt lat="46.10702" lon="6.74491">
        <ele>1021.5</ele>
        <time>2013-08-25T12:12:58Z</time>
      </trkpt>
      <trkpt lat="46.10706" lon="6.74486">
        <ele>1021.5</ele>
        <time>2013-08-25T12:12:59Z</time>
      </trkpt>
      <trkpt lat="46.10708" lon="6.74481">
        <ele>1021.5</ele>
        <time>2013-08-25T12:13:00Z</time>
      </trkpt>
      <trkpt lat="46.10709" lon="6.74475">
        <ele>1021.5</ele>
        <time>2013-08-25T12:13:01Z</time>
      </trkpt>
      <trkpt lat="46.10708" lon="6.7447">
        <ele>1021.5</ele>
        <time>2013-08-25T12:13:02Z</time>
      </trkpt>
      <trkpt lat="46.10705" lon="6.74466">
        <ele>1021.1</ele>
        <time>2013-08-25T12:13:03Z</time>
      </trkpt>
      <trkpt lat="46.10702" lon="6.74463">
        <ele>1020.6</ele>
        <time>2013-08-25T12:13:04Z</time>
      </trkpt>
      <trkpt lat="46.10698" lon="6.7446">
        <ele>1020.6</ele>
        <time>2013-08-25T12:13:05Z</time>
      </trkpt>
      <trkpt lat="46.10693" lon="6.74458">
        <ele>1020.1</ele>
        <time>2013-08-25T12:13:06Z</time>
      </trkpt>
      <trkpt lat="46.10689" lon="6.74457">
        <ele>1019.6</ele>
        <time>2013-08-25T12:13:07Z</time>
      </trkpt>
      <trkpt lat="46.10685" lon="6.74456">
        <ele>1019.1</ele>
        <time>2013-08-25T12:13:08Z</time>
      </trkpt>
      <trkpt lat="46.10669" lon="6.74451">
        <ele>1017.2</ele>
        <time>2013-08-25T12:13:12Z</time>
      </trkpt>
      <trkpt lat="46.10664" lon="6.74448">
        <ele>1017.2</ele>
        <time>2013-08-25T12:13:13Z</time>
      </trkpt>
      <trkpt lat="46.10659" lon="6.74445">
        <ele>1016.3</ele>
        <time>2013-08-25T12:13:14Z</time>
      </trkpt>
      <trkpt lat="46.10653" lon="6.74442">
        <ele>1016.3</ele>
        <time>2013-08-25T12:13:15Z</time>
      </trkpt>
      <trkpt lat="46.10624" lon="6.74423">
        <ele>1012.4</ele>
        <time>2013-08-25T12:13:20Z</time>
      </trkpt>
      <trkpt lat="46.10589" lon="6.74406">
        <ele>1008.1</ele>
        <time>2013-08-25T12:13:25Z</time>
      </trkpt>
      <trkpt lat="46.10558" lon="6.74395">
        <ele>1005.2</ele>
        <time>2013-08-25T12:13:29Z</time>
      </trkpt>
      <trkpt lat="46.10542" lon="6.74391">
        <ele>1003.3</ele>
        <time>2013-08-25T12:13:31Z</time>
      </trkpt>
      <trkpt lat="46.10533" lon="6.74391">
        <ele>1002.3</ele>
        <time>2013-08-25T12:13:32Z</time>
      </trkpt>
      <trkpt lat="46.10525" lon="6.74394">
        <ele>1001.8</ele>
        <time>2013-08-25T12:13:33Z</time>
      </trkpt>
      <trkpt lat="46.10508" lon="6.74402">
        <ele>1000.4</ele>
        <time>2013-08-25T12:13:35Z</time>
      </trkpt>
      <trkpt lat="46.10499" lon="6.74406">
        <ele>999.4</ele>
        <time>2013-08-25T12:13:36Z</time>
      </trkpt>
      <trkpt lat="46.10463" lon="6.74412">
        <ele>995.6</ele>
        <time>2013-08-25T12:13:40Z</time>
      </trkpt>
      <trkpt lat="46.10445" lon="6.74415">
        <ele>993.7</ele>
        <time>2013-08-25T12:13:42Z</time>
      </trkpt>
      <trkpt lat="46.10438" lon="6.74422">
        <ele>992.7</ele>
        <time>2013-08-25T12:13:43Z</time>
      </trkpt>
      <trkpt lat="46.10431" lon="6.74431">
        <ele>991.7</ele>
        <time>2013-08-25T12:13:44Z</time>
      </trkpt>
      <trkpt lat="46.10403" lon="6.74473">
        <ele>988.9</ele>
        <time>2013-08-25T12:13:48Z</time>
      </trkpt>
      <trkpt lat="46.10388" lon="6.74492">
        <ele>986.9</ele>
        <time>2013-08-25T12:13:50Z</time>
      </trkpt>
      <trkpt lat="46.10363" lon="6.74514">
        <ele>984.1</ele>
        <time>2013-08-25T12:13:53Z</time>
      </trkpt>
      <trkpt lat="46.10346" lon="6.74527">
        <ele>982.1</ele>
        <time>2013-08-25T12:13:55Z</time>
      </trkpt>
      <trkpt lat="46.10339" lon="6.74537">
        <ele>981.2</ele>
        <time>2013-08-25T12:13:56Z</time>
      </trkpt>
      <trkpt lat="46.10333" lon="6.74548">
        <ele>980.2</ele>
        <time>2013-08-25T12:13:57Z</time>
      </trkpt>
      <trkpt lat="46.10329" lon="6.74559">
        <ele>979.7</ele>
        <time>2013-08-25T12:13:58Z</time>
      </trkpt>
      <trkpt lat="46.10325" lon="6.74571">
        <ele>978.8</ele>
        <time>2013-08-25T12:13:59Z</time>
      </trkpt>
      <trkpt lat="46.10324" lon="6.74582">
        <ele>977.8</ele>
        <time>2013-08-25T12:14:00Z</time>
      </trkpt>
      <trkpt lat="46.10325" lon="6.74592">
        <ele>977.8</ele>
        <time>2013-08-25T12:14:01Z</time>
      </trkpt>
      <trkpt lat="46.10326" lon="6.746">
        <ele>976.8</ele>
        <time>2013-08-25T12:14:02Z</time>
      </trkpt>
      <trkpt lat="46.10323" lon="6.74613">
        <ele>975.9</ele>
        <time>2013-08-25T12:14:04Z</time>
      </trkpt>
      <trkpt lat="46.10313" lon="6.74599">
        <ele>974.9</ele>
        <time>2013-08-25T12:14:08Z</time>
      </trkpt>
      <trkpt lat="46.10313" lon="6.74592">
        <ele>974.4</ele>
        <time>2013-08-25T12:14:09Z</time>
      </trkpt>
      <trkpt lat="46.10313" lon="6.74584">
        <ele>974</ele>
        <time>2013-08-25T12:14:10Z</time>
      </trkpt>
      <trkpt lat="46.10314" lon="6.74545">
        <ele>972.5</ele>
        <time>2013-08-25T12:14:14Z</time>
      </trkpt>
      <trkpt lat="46.10316" lon="6.74523">
        <ele>970.6</ele>
        <time>2013-08-25T12:14:16Z</time>
      </trkpt>
      <trkpt lat="46.10319" lon="6.74511">
        <ele>969.2</ele>
        <time>2013-08-25T12:14:17Z</time>
      </trkpt>
      <trkpt lat="46.10323" lon="6.745">
        <ele>968.2</ele>
        <time>2013-08-25T12:14:18Z</time>
      </trkpt>
      <trkpt lat="46.10329" lon="6.74489">
        <ele>967.2</ele>
        <time>2013-08-25T12:14:19Z</time>
      </trkpt>
      <trkpt lat="46.10335" lon="6.74478">
        <ele>966.3</ele>
        <time>2013-08-25T12:14:20Z</time>
      </trkpt>
      <trkpt lat="46.10356" lon="6.74439">
        <ele>962.4</ele>
        <time>2013-08-25T12:14:23Z</time>
      </trkpt>
      <trkpt lat="46.10362" lon="6.74427">
        <ele>962.4</ele>
        <time>2013-08-25T12:14:24Z</time>
      </trkpt>
      <trkpt lat="46.10367" lon="6.74415">
        <ele>961</ele>
        <time>2013-08-25T12:14:25Z</time>
      </trkpt>
      <trkpt lat="46.1037" lon="6.74402">
        <ele>959.5</ele>
        <time>2013-08-25T12:14:26Z</time>
      </trkpt>
      <trkpt lat="46.10372" lon="6.7439">
        <ele>959.1</ele>
        <time>2013-08-25T12:14:27Z</time>
      </trkpt>
      <trkpt lat="46.10371" lon="6.74378">
        <ele>958.1</ele>
        <time>2013-08-25T12:14:28Z</time>
      </trkpt>
      <trkpt lat="46.1037" lon="6.74366">
        <ele>957.6</ele>
        <time>2013-08-25T12:14:29Z</time>
      </trkpt>
      <trkpt lat="46.10368" lon="6.74353">
        <ele>956.7</ele>
        <time>2013-08-25T12:14:30Z</time>
      </trkpt>
      <trkpt lat="46.10368" lon="6.74342">
        <ele>955.2</ele>
        <time>2013-08-25T12:14:31Z</time>
      </trkpt>
      <trkpt lat="46.10368" lon="6.74332">
        <ele>954.7</ele>
        <time>2013-08-25T12:14:32Z</time>
      </trkpt>
      <trkpt lat="46.10368" lon="6.74324">
        <ele>954.7</ele>
        <time>2013-08-25T12:14:33Z</time>
      </trkpt>
      <trkpt lat="46.10366" lon="6.74321">
        <ele>953.3</ele>
        <time>2013-08-25T12:14:34Z</time>
      </trkpt>
      <trkpt lat="46.10366" lon="6.74319">
        <ele>953.3</ele>
        <time>2013-08-25T12:14:35Z</time>
      </trkpt>
      <trkpt lat="46.10365" lon="6.74316">
        <ele>954.3</ele>
        <time>2013-08-25T12:14:48Z</time>
      </trkpt>
      <trkpt lat="46.10361" lon="6.74317">
        <ele>954.3</ele>
        <time>2013-08-25T12:14:54Z</time>
      </trkpt>
      <trkpt lat="46.10356" lon="6.7432">
        <ele>953.8</ele>
        <time>2013-08-25T12:15:05Z</time>
      </trkpt>
      <trkpt lat="46.10354" lon="6.74322">
        <ele>954.3</ele>
        <time>2013-08-25T12:15:08Z</time>
      </trkpt>
      <trkpt lat="46.1036" lon="6.74325">
        <ele>954.7</ele>
        <time>2013-08-25T12:15:17Z</time>
      </trkpt>
      <trkpt lat="46.10363" lon="6.74323">
        <ele>954.7</ele>
        <time>2013-08-25T12:15:19Z</time>
      </trkpt>
      <trkpt lat="46.10363" lon="6.74317">
        <ele>955.2</ele>
        <time>2013-08-25T12:15:24Z</time>
      </trkpt>
      <trkpt lat="46.10355" lon="6.74313">
        <ele>951.4</ele>
        <time>2013-08-25T12:15:31Z</time>
      </trkpt>
      <trkpt lat="46.10355" lon="6.74313">
        <ele>950.9</ele>
        <time>2013-08-25T12:15:32Z</time>
      </trkpt>
      <trkpt lat="46.10354" lon="6.7431">
        <ele>949.9</ele>
        <time>2013-08-25T12:15:36Z</time>
      </trkpt>
      <trkpt lat="46.10353" lon="6.74299">
        <ele>945.6</ele>
        <time>2013-08-25T12:15:41Z</time>
      </trkpt>
      <trkpt lat="46.1035" lon="6.743">
        <ele>943.7</ele>
        <time>2013-08-25T12:15:43Z</time>
      </trkpt>
      <trkpt lat="46.10348" lon="6.74303">
        <ele>942.7</ele>
        <time>2013-08-25T12:15:44Z</time>
      </trkpt>
      <trkpt lat="46.10346" lon="6.74305">
        <ele>941.3</ele>
        <time>2013-08-25T12:15:47Z</time>
      </trkpt>
      <trkpt lat="46.10345" lon="6.74306">
        <ele>940.3</ele>
        <time>2013-08-25T12:15:48Z</time>
      </trkpt>
      <trkpt lat="46.10343" lon="6.74307">
        <ele>938.9</ele>
        <time>2013-08-25T12:15:49Z</time>
      </trkpt>
      <trkpt lat="46.10338" lon="6.7431">
        <ele>936</ele>
        <time>2013-08-25T12:15:53Z</time>
      </trkpt>
      <trkpt lat="46.10337" lon="6.74311">
        <ele>935</ele>
        <time>2013-08-25T12:15:54Z</time>
      </trkpt>
      <trkpt lat="46.10335" lon="6.74314">
        <ele>934.5</ele>
        <time>2013-08-25T12:15:56Z</time>
      </trkpt>
      <trkpt lat="46.1033" lon="6.74314">
        <ele>933.6</ele>
        <time>2013-08-25T12:16:06Z</time>
      </trkpt>
      <trkpt lat="46.10325" lon="6.74321">
        <ele>933.6</ele>
        <time>2013-08-25T12:16:27Z</time>
      </trkpt>
      <trkpt lat="46.10322" lon="6.7432">
        <ele>931.7</ele>
        <time>2013-08-25T12:16:36Z</time>
      </trkpt>
      <trkpt lat="46.10322" lon="6.7432">
        <ele>933.6</ele>
        <time>2013-08-25T12:16:37Z</time>
      </trkpt>
      <trkpt lat="46.1032" lon="6.74313">
        <ele>932.6</ele>
        <time>2013-08-25T12:17:04Z</time>
      </trkpt>
      <trkpt lat="46.10324" lon="6.74311">
        <ele>932.1</ele>
        <time>2013-08-25T12:17:17Z</time>
      </trkpt>
      <trkpt lat="46.10324" lon="6.74307">
        <ele>932.1</ele>
        <time>2013-08-25T12:17:18Z</time>
      </trkpt>
      <trkpt lat="46.10322" lon="6.743">
        <ele>932.1</ele>
        <time>2013-08-25T12:17:19Z</time>
      </trkpt>
      <trkpt lat="46.10319" lon="6.74294">
        <ele>931.2</ele>
        <time>2013-08-25T12:17:20Z</time>
      </trkpt>
      <trkpt lat="46.10316" lon="6.74289">
        <ele>930.7</ele>
        <time>2013-08-25T12:17:21Z</time>
      </trkpt>
      <trkpt lat="46.10292" lon="6.74277">
        <ele>928.3</ele>
        <time>2013-08-25T12:17:30Z</time>
      </trkpt>
      <trkpt lat="46.10266" lon="6.7428">
        <ele>925.4</ele>
        <time>2013-08-25T12:17:37Z</time>
      </trkpt>
      <trkpt lat="46.10249" lon="6.74278">
        <ele>922</ele>
        <time>2013-08-25T12:17:41Z</time>
      </trkpt>
      <trkpt lat="46.10236" lon="6.74274">
        <ele>919.2</ele>
        <time>2013-08-25T12:17:45Z</time>
      </trkpt>
      <trkpt lat="46.10227" lon="6.74274">
        <ele>917.2</ele>
        <time>2013-08-25T12:17:47Z</time>
      </trkpt>
      <trkpt lat="46.10217" lon="6.74275">
        <ele>915.8</ele>
        <time>2013-08-25T12:17:49Z</time>
      </trkpt>
      <trkpt lat="46.10211" lon="6.74276">
        <ele>914.8</ele>
        <time>2013-08-25T12:17:50Z</time>
      </trkpt>
      <trkpt lat="46.10198" lon="6.74276">
        <ele>912.4</ele>
        <time>2013-08-25T12:17:53Z</time>
      </trkpt>
      <trkpt lat="46.10187" lon="6.7427">
        <ele>910</ele>
        <time>2013-08-25T12:17:56Z</time>
      </trkpt>
      <trkpt lat="46.10176" lon="6.74265">
        <ele>907.6</ele>
        <time>2013-08-25T12:17:59Z</time>
      </trkpt>
      <trkpt lat="46.10162" lon="6.74262">
        <ele>906.2</ele>
        <time>2013-08-25T12:18:02Z</time>
      </trkpt>
      <trkpt lat="46.10148" lon="6.74259">
        <ele>902.8</ele>
        <time>2013-08-25T12:18:05Z</time>
      </trkpt>
      <trkpt lat="46.10136" lon="6.74258">
        <ele>900.9</ele>
        <time>2013-08-25T12:18:08Z</time>
      </trkpt>
      <trkpt lat="46.10134" lon="6.7426">
        <ele>899.9</ele>
        <time>2013-08-25T12:18:09Z</time>
      </trkpt>
      <trkpt lat="46.10134" lon="6.74264">
        <ele>898.5</ele>
        <time>2013-08-25T12:18:10Z</time>
      </trkpt>
      <trkpt lat="46.10135" lon="6.74279">
        <ele>896.1</ele>
        <time>2013-08-25T12:18:15Z</time>
      </trkpt>
      <trkpt lat="46.10123" lon="6.74291">
        <ele>894.2</ele>
        <time>2013-08-25T12:18:20Z</time>
      </trkpt>
      <trkpt lat="46.10118" lon="6.74292">
        <ele>893.7</ele>
        <time>2013-08-25T12:18:21Z</time>
      </trkpt>
      <trkpt lat="46.10102" lon="6.74291">
        <ele>892.2</ele>
        <time>2013-08-25T12:18:24Z</time>
      </trkpt>
      <trkpt lat="46.10097" lon="6.7429">
        <ele>891.8</ele>
        <time>2013-08-25T12:18:25Z</time>
      </trkpt>
      <trkpt lat="46.1008" lon="6.74285">
        <ele>890.3</ele>
        <time>2013-08-25T12:18:28Z</time>
      </trkpt>
      <trkpt lat="46.10074" lon="6.74284">
        <ele>888.9</ele>
        <time>2013-08-25T12:18:29Z</time>
      </trkpt>
      <trkpt lat="46.10064" lon="6.74279">
        <ele>888.9</ele>
        <time>2013-08-25T12:18:35Z</time>
      </trkpt>
      <trkpt lat="46.10065" lon="6.74278">
        <ele>888.4</ele>
        <time>2013-08-25T12:18:41Z</time>
      </trkpt>
      <trkpt lat="46.10083" lon="6.74273">
        <ele>891.8</ele>
        <time>2013-08-25T12:18:53Z</time>
      </trkpt>
      <trkpt lat="46.10092" lon="6.74281">
        <ele>892.2</ele>
        <time>2013-08-25T12:19:01Z</time>
      </trkpt>
      <trkpt lat="46.101" lon="6.74282">
        <ele>893.7</ele>
        <time>2013-08-25T12:19:12Z</time>
      </trkpt>
      <trkpt lat="46.10098" lon="6.74279">
        <ele>893.2</ele>
        <time>2013-08-25T12:19:24Z</time>
      </trkpt>
      <trkpt lat="46.10097" lon="6.74279">
        <ele>893.2</ele>
        <time>2013-08-25T12:19:25Z</time>
      </trkpt>
      <trkpt lat="46.10095" lon="6.74279">
        <ele>891.8</ele>
        <time>2013-08-25T12:19:26Z</time>
      </trkpt>
      <trkpt lat="46.10079" lon="6.74274">
        <ele>890.8</ele>
        <time>2013-08-25T12:19:32Z</time>
      </trkpt>
      <trkpt lat="46.10034" lon="6.74254">
        <ele>887.4</ele>
        <time>2013-08-25T12:19:39Z</time>
      </trkpt>
      <trkpt lat="46.10026" lon="6.74252">
        <ele>886.5</ele>
        <time>2013-08-25T12:19:40Z</time>
      </trkpt>
      <trkpt lat="46.09996" lon="6.74244">
        <ele>883.6</ele>
        <time>2013-08-25T12:19:44Z</time>
      </trkpt>
      <trkpt lat="46.09964" lon="6.7423">
        <ele>880.2</ele>
        <time>2013-08-25T12:19:48Z</time>
      </trkpt>
      <trkpt lat="46.09942" lon="6.74222">
        <ele>877.3</ele>
        <time>2013-08-25T12:19:51Z</time>
      </trkpt>
      <trkpt lat="46.09923" lon="6.74219">
        <ele>874.9</ele>
        <time>2013-08-25T12:19:53Z</time>
      </trkpt>
      <trkpt lat="46.09917" lon="6.74218">
        <ele>873.5</ele>
        <time>2013-08-25T12:19:54Z</time>
      </trkpt>
      <trkpt lat="46.09911" lon="6.74218">
        <ele>873</ele>
        <time>2013-08-25T12:19:55Z</time>
      </trkpt>
      <trkpt lat="46.09909" lon="6.74219">
        <ele>872.5</ele>
        <time>2013-08-25T12:19:56Z</time>
      </trkpt>
      <trkpt lat="46.09907" lon="6.74221">
        <ele>872.1</ele>
        <time>2013-08-25T12:19:57Z</time>
      </trkpt>
      <trkpt lat="46.09905" lon="6.7424">
        <ele>871.6</ele>
        <time>2013-08-25T12:20:09Z</time>
      </trkpt>
      <trkpt lat="46.09904" lon="6.74238">
        <ele>871.6</ele>
        <time>2013-08-25T12:20:17Z</time>
      </trkpt>
      <trkpt lat="46.09899" lon="6.74234">
        <ele>870.6</ele>
        <time>2013-08-25T12:20:20Z</time>
      </trkpt>
      <trkpt lat="46.09892" lon="6.74239">
        <ele>870.1</ele>
        <time>2013-08-25T12:20:26Z</time>
      </trkpt>
      <trkpt lat="46.09886" lon="6.74243">
        <ele>870.1</ele>
        <time>2013-08-25T12:20:28Z</time>
      </trkpt>
      <trkpt lat="46.09883" lon="6.74244">
        <ele>869.2</ele>
        <time>2013-08-25T12:20:29Z</time>
      </trkpt>
      <trkpt lat="46.09874" lon="6.74247">
        <ele>868.2</ele>
        <time>2013-08-25T12:20:32Z</time>
      </trkpt>
      <trkpt lat="46.09871" lon="6.7425">
        <ele>868.2</ele>
        <time>2013-08-25T12:20:34Z</time>
      </trkpt>
      <trkpt lat="46.09863" lon="6.74247">
        <ele>866.8</ele>
        <time>2013-08-25T12:20:37Z</time>
      </trkpt>
      <trkpt lat="46.09857" lon="6.74245">
        <ele>866.3</ele>
        <time>2013-08-25T12:20:39Z</time>
      </trkpt>
      <trkpt lat="46.09846" lon="6.74241">
        <ele>864.4</ele>
        <time>2013-08-25T12:20:43Z</time>
      </trkpt>
      <trkpt lat="46.09866" lon="6.74065">
        <ele>863.9</ele>
        <time>2013-08-25T12:20:53Z</time>
      </trkpt>
      <trkpt lat="46.09839" lon="6.7411">
        <ele>863.4</ele>
        <time>2013-08-25T12:21:09Z</time>
      </trkpt>
      <trkpt lat="46.09838" lon="6.74112">
        <ele>862.9</ele>
        <time>2013-08-25T12:21:10Z</time>
      </trkpt>
      <trkpt lat="46.09835" lon="6.74115">
        <ele>862.4</ele>
        <time>2013-08-25T12:21:12Z</time>
      </trkpt>
      <trkpt lat="46.09832" lon="6.74116">
        <ele>861</ele>
        <time>2013-08-25T12:21:16Z</time>
      </trkpt>
      <trkpt lat="46.09829" lon="6.74121">
        <ele>861</ele>
        <time>2013-08-25T12:21:17Z</time>
      </trkpt>
      <trkpt lat="46.09822" lon="6.74123">
        <ele>861</ele>
        <time>2013-08-25T12:21:20Z</time>
      </trkpt>
      <trkpt lat="46.09818" lon="6.74128">
        <ele>860</ele>
        <time>2013-08-25T12:21:22Z</time>
      </trkpt>
      <trkpt lat="46.09812" lon="6.74132">
        <ele>859.6</ele>
        <time>2013-08-25T12:21:24Z</time>
      </trkpt>
      <trkpt lat="46.09784" lon="6.74153">
        <ele>857.2</ele>
        <time>2013-08-25T12:21:33Z</time>
      </trkpt>
      <trkpt lat="46.0978" lon="6.74158">
        <ele>856.2</ele>
        <time>2013-08-25T12:21:36Z</time>
      </trkpt>
      <trkpt lat="46.09779" lon="6.74161">
        <ele>855.7</ele>
        <time>2013-08-25T12:21:37Z</time>
      </trkpt>
      <trkpt lat="46.09778" lon="6.74165">
        <ele>855.7</ele>
        <time>2013-08-25T12:21:38Z</time>
      </trkpt>
      <trkpt lat="46.09766" lon="6.74191">
        <ele>855.2</ele>
        <time>2013-08-25T12:21:47Z</time>
      </trkpt>
      <trkpt lat="46.09759" lon="6.74201">
        <ele>854.8</ele>
        <time>2013-08-25T12:21:51Z</time>
      </trkpt>
      <trkpt lat="46.09753" lon="6.74204">
        <ele>854.3</ele>
        <time>2013-08-25T12:21:53Z</time>
      </trkpt>
      <trkpt lat="46.09737" lon="6.7421">
        <ele>853.8</ele>
        <time>2013-08-25T12:21:57Z</time>
      </trkpt>
      <trkpt lat="46.09733" lon="6.7421">
        <ele>852.4</ele>
        <time>2013-08-25T12:21:58Z</time>
      </trkpt>
      <trkpt lat="46.09723" lon="6.74207">
        <ele>851.9</ele>
        <time>2013-08-25T12:22:00Z</time>
      </trkpt>
      <trkpt lat="46.09717" lon="6.74205">
        <ele>851.9</ele>
        <time>2013-08-25T12:22:01Z</time>
      </trkpt>
      <trkpt lat="46.09701" lon="6.74199">
        <ele>849.5</ele>
        <time>2013-08-25T12:22:04Z</time>
      </trkpt>
      <trkpt lat="46.09699" lon="6.742">
        <ele>849.5</ele>
        <time>2013-08-25T12:22:05Z</time>
      </trkpt>
      <trkpt lat="46.09691" lon="6.74206">
        <ele>849</ele>
        <time>2013-08-25T12:22:08Z</time>
      </trkpt>
      <trkpt lat="46.09685" lon="6.74204">
        <ele>848</ele>
        <time>2013-08-25T12:22:10Z</time>
      </trkpt>
      <trkpt lat="46.09675" lon="6.74189">
        <ele>847.1</ele>
        <time>2013-08-25T12:22:14Z</time>
      </trkpt>
      <trkpt lat="46.09674" lon="6.74182">
        <ele>846.1</ele>
        <time>2013-08-25T12:22:15Z</time>
      </trkpt>
      <trkpt lat="46.09669" lon="6.74168">
        <ele>844.2</ele>
        <time>2013-08-25T12:22:17Z</time>
      </trkpt>
      <trkpt lat="46.09665" lon="6.74155">
        <ele>844.7</ele>
        <time>2013-08-25T12:22:19Z</time>
      </trkpt>
      <trkpt lat="46.09662" lon="6.74139">
        <ele>844.7</ele>
        <time>2013-08-25T12:22:23Z</time>
      </trkpt>
      <trkpt lat="46.09659" lon="6.74138">
        <ele>844.2</ele>
        <time>2013-08-25T12:22:24Z</time>
      </trkpt>
      <trkpt lat="46.09646" lon="6.74136">
        <ele>843.7</ele>
        <time>2013-08-25T12:22:30Z</time>
      </trkpt>
      <trkpt lat="46.09633" lon="6.74117">
        <ele>841.3</ele>
        <time>2013-08-25T12:22:35Z</time>
      </trkpt>
      <trkpt lat="46.09629" lon="6.74116">
        <ele>841.3</ele>
        <time>2013-08-25T12:22:36Z</time>
      </trkpt>
      <trkpt lat="46.09616" lon="6.74115">
        <ele>840.8</ele>
        <time>2013-08-25T12:22:39Z</time>
      </trkpt>
      <trkpt lat="46.09614" lon="6.74112">
        <ele>841.3</ele>
        <time>2013-08-25T12:22:40Z</time>
      </trkpt>
      <trkpt lat="46.0961" lon="6.74107">
        <ele>839.9</ele>
        <time>2013-08-25T12:22:42Z</time>
      </trkpt>
      <trkpt lat="46.09608" lon="6.74105">
        <ele>839.9</ele>
        <time>2013-08-25T12:22:43Z</time>
      </trkpt>
      <trkpt lat="46.09605" lon="6.74106">
        <ele>839.4</ele>
        <time>2013-08-25T12:22:44Z</time>
      </trkpt>
      <trkpt lat="46.09599" lon="6.74111">
        <ele>838.9</ele>
        <time>2013-08-25T12:22:47Z</time>
      </trkpt>
      <trkpt lat="46.09585" lon="6.74114">
        <ele>837.9</ele>
        <time>2013-08-25T12:22:52Z</time>
      </trkpt>
      <trkpt lat="46.09583" lon="6.74113">
        <ele>837.5</ele>
        <time>2013-08-25T12:22:53Z</time>
      </trkpt>
      <trkpt lat="46.09581" lon="6.74111">
        <ele>837.5</ele>
        <time>2013-08-25T12:22:54Z</time>
      </trkpt>
      <trkpt lat="46.09579" lon="6.74108">
        <ele>837</ele>
        <time>2013-08-25T12:22:55Z</time>
      </trkpt>
      <trkpt lat="46.09577" lon="6.74106">
        <ele>836.5</ele>
        <time>2013-08-25T12:22:56Z</time>
      </trkpt>
      <trkpt lat="46.09548" lon="6.74091">
        <ele>834.1</ele>
        <time>2013-08-25T12:23:06Z</time>
      </trkpt>
      <trkpt lat="46.09544" lon="6.74086">
        <ele>834.1</ele>
        <time>2013-08-25T12:23:08Z</time>
      </trkpt>
      <trkpt lat="46.09519" lon="6.74071">
        <ele>830.7</ele>
        <time>2013-08-25T12:23:16Z</time>
      </trkpt>
      <trkpt lat="46.09502" lon="6.74057">
        <ele>828.8</ele>
        <time>2013-08-25T12:23:21Z</time>
      </trkpt>
      <trkpt lat="46.09489" lon="6.74059">
        <ele>827.8</ele>
        <time>2013-08-25T12:23:29Z</time>
      </trkpt>
      <trkpt lat="46.09489" lon="6.7406">
        <ele>827.8</ele>
        <time>2013-08-25T12:23:34Z</time>
      </trkpt>
      <trkpt lat="46.09489" lon="6.74061">
        <ele>827.4</ele>
        <time>2013-08-25T12:23:35Z</time>
      </trkpt>
      <trkpt lat="46.09489" lon="6.74071">
        <ele>828.8</ele>
        <time>2013-08-25T12:23:45Z</time>
      </trkpt>
      <trkpt lat="46.09488" lon="6.74079">
        <ele>829.3</ele>
        <time>2013-08-25T12:23:58Z</time>
      </trkpt>
      <trkpt lat="46.09485" lon="6.7408">
        <ele>828.8</ele>
        <time>2013-08-25T12:24:03Z</time>
      </trkpt>
      <trkpt lat="46.09482" lon="6.74081">
        <ele>828.8</ele>
        <time>2013-08-25T12:24:05Z</time>
      </trkpt>
      <trkpt lat="46.09477" lon="6.74083">
        <ele>828.3</ele>
        <time>2013-08-25T12:24:07Z</time>
      </trkpt>
      <trkpt lat="46.09465" lon="6.74079">
        <ele>826.4</ele>
        <time>2013-08-25T12:24:11Z</time>
      </trkpt>
      <trkpt lat="46.09456" lon="6.7408">
        <ele>825.9</ele>
        <time>2013-08-25T12:24:13Z</time>
      </trkpt>
      <trkpt lat="46.09447" lon="6.74078">
        <ele>825.4</ele>
        <time>2013-08-25T12:24:15Z</time>
      </trkpt>
      <trkpt lat="46.09441" lon="6.74074">
        <ele>825</ele>
        <time>2013-08-25T12:24:17Z</time>
      </trkpt>
      <trkpt lat="46.09437" lon="6.74069">
        <ele>824</ele>
        <time>2013-08-25T12:24:19Z</time>
      </trkpt>
      <trkpt lat="46.09435" lon="6.74069">
        <ele>823</ele>
        <time>2013-08-25T12:24:20Z</time>
      </trkpt>
      <trkpt lat="46.09419" lon="6.74059">
        <ele>821.1</ele>
        <time>2013-08-25T12:24:25Z</time>
      </trkpt>
      <trkpt lat="46.09414" lon="6.74057">
        <ele>821.1</ele>
        <time>2013-08-25T12:24:26Z</time>
      </trkpt>
      <trkpt lat="46.09403" lon="6.7405">
        <ele>819.7</ele>
        <time>2013-08-25T12:24:29Z</time>
      </trkpt>
      <trkpt lat="46.09398" lon="6.74044">
        <ele>820.1</ele>
        <time>2013-08-25T12:24:31Z</time>
      </trkpt>
      <trkpt lat="46.09388" lon="6.74038">
        <ele>819.2</ele>
        <time>2013-08-25T12:24:34Z</time>
      </trkpt>
      <trkpt lat="46.09362" lon="6.74018">
        <ele>816.8</ele>
        <time>2013-08-25T12:24:42Z</time>
      </trkpt>
      <trkpt lat="46.09358" lon="6.74015">
        <ele>816.3</ele>
        <time>2013-08-25T12:24:44Z</time>
      </trkpt>
      <trkpt lat="46.09348" lon="6.74018">
        <ele>815.8</ele>
        <time>2013-08-25T12:24:47Z</time>
      </trkpt>
      <trkpt lat="46.09338" lon="6.74026">
        <ele>813.9</ele>
        <time>2013-08-25T12:24:50Z</time>
      </trkpt>
      <trkpt lat="46.09335" lon="6.74026">
        <ele>814.4</ele>
        <time>2013-08-25T12:24:51Z</time>
      </trkpt>
      <trkpt lat="46.09325" lon="6.74019">
        <ele>812.9</ele>
        <time>2013-08-25T12:24:54Z</time>
      </trkpt>
      <trkpt lat="46.09321" lon="6.74017">
        <ele>812.5</ele>
        <time>2013-08-25T12:24:55Z</time>
      </trkpt>
      <trkpt lat="46.09317" lon="6.74013">
        <ele>812</ele>
        <time>2013-08-25T12:24:56Z</time>
      </trkpt>
      <trkpt lat="46.09303" lon="6.73998">
        <ele>811.5</ele>
        <time>2013-08-25T12:25:01Z</time>
      </trkpt>
      <trkpt lat="46.09291" lon="6.73983">
        <ele>809.6</ele>
        <time>2013-08-25T12:25:05Z</time>
      </trkpt>
      <trkpt lat="46.09284" lon="6.73976">
        <ele>809.1</ele>
        <time>2013-08-25T12:25:07Z</time>
      </trkpt>
      <trkpt lat="46.09261" lon="6.73959">
        <ele>807.2</ele>
        <time>2013-08-25T12:25:16Z</time>
      </trkpt>
      <trkpt lat="46.09257" lon="6.73951">
        <ele>806.7</ele>
        <time>2013-08-25T12:25:18Z</time>
      </trkpt>
      <trkpt lat="46.09256" lon="6.73945">
        <ele>806.7</ele>
        <time>2013-08-25T12:25:19Z</time>
      </trkpt>
      <trkpt lat="46.09234" lon="6.73903">
        <ele>804.8</ele>
        <time>2013-08-25T12:25:28Z</time>
      </trkpt>
      <trkpt lat="46.09231" lon="6.739">
        <ele>804.3</ele>
        <time>2013-08-25T12:25:29Z</time>
      </trkpt>
      <trkpt lat="46.09218" lon="6.73887">
        <ele>803.8</ele>
        <time>2013-08-25T12:25:33Z</time>
      </trkpt>
      <trkpt lat="46.09206" lon="6.73879">
        <ele>802.4</ele>
        <time>2013-08-25T12:25:36Z</time>
      </trkpt>
      <trkpt lat="46.09197" lon="6.73875">
        <ele>801.9</ele>
        <time>2013-08-25T12:25:38Z</time>
      </trkpt>
      <trkpt lat="46.09188" lon="6.73875">
        <ele>801.9</ele>
        <time>2013-08-25T12:25:40Z</time>
      </trkpt>
      <trkpt lat="46.09184" lon="6.73874">
        <ele>800.4</ele>
        <time>2013-08-25T12:25:41Z</time>
      </trkpt>
      <trkpt lat="46.09179" lon="6.73874">
        <ele>800.9</ele>
        <time>2013-08-25T12:25:42Z</time>
      </trkpt>
      <trkpt lat="46.09175" lon="6.73875">
        <ele>800.4</ele>
        <time>2013-08-25T12:25:43Z</time>
      </trkpt>
      <trkpt lat="46.09169" lon="6.73876">
        <ele>799.5</ele>
        <time>2013-08-25T12:25:45Z</time>
      </trkpt>
      <trkpt lat="46.09167" lon="6.73876">
        <ele>799.5</ele>
        <time>2013-08-25T12:25:46Z</time>
      </trkpt>
      <trkpt lat="46.09161" lon="6.73872">
        <ele>799</ele>
        <time>2013-08-25T12:25:49Z</time>
      </trkpt>
      <trkpt lat="46.09157" lon="6.73872">
        <ele>798.5</ele>
        <time>2013-08-25T12:25:59Z</time>
      </trkpt>
      <trkpt lat="46.09155" lon="6.73872">
        <ele>798.5</ele>
        <time>2013-08-25T12:26:00Z</time>
      </trkpt>
      <trkpt lat="46.09136" lon="6.73844">
        <ele>797.6</ele>
        <time>2013-08-25T12:26:11Z</time>
      </trkpt>
      <trkpt lat="46.09116" lon="6.73844">
        <ele>797.1</ele>
        <time>2013-08-25T12:26:16Z</time>
      </trkpt>
      <trkpt lat="46.091" lon="6.73827">
        <ele>796.6</ele>
        <time>2013-08-25T12:26:20Z</time>
      </trkpt>
      <trkpt lat="46.09078" lon="6.73791">
        <ele>796.1</ele>
        <time>2013-08-25T12:26:27Z</time>
      </trkpt>
      <trkpt lat="46.09072" lon="6.73781">
        <ele>795.6</ele>
        <time>2013-08-25T12:26:29Z</time>
      </trkpt>
      <trkpt lat="46.09068" lon="6.73777">
        <ele>795.2</ele>
        <time>2013-08-25T12:26:30Z</time>
      </trkpt>
      <trkpt lat="46.09065" lon="6.73774">
        <ele>795.2</ele>
        <time>2013-08-25T12:26:31Z</time>
      </trkpt>
      <trkpt lat="46.09022" lon="6.73757">
        <ele>795.6</ele>
        <time>2013-08-25T12:26:42Z</time>
      </trkpt>
      <trkpt lat="46.09007" lon="6.73752">
        <ele>795.6</ele>
        <time>2013-08-25T12:26:46Z</time>
      </trkpt>
      <trkpt lat="46.09003" lon="6.7375">
        <ele>795.6</ele>
        <time>2013-08-25T12:26:47Z</time>
      </trkpt>
      <trkpt lat="46.08983" lon="6.73744">
        <ele>795.2</ele>
        <time>2013-08-25T12:26:52Z</time>
      </trkpt>
      <trkpt lat="46.08937" lon="6.73738">
        <ele>794.7</ele>
        <time>2013-08-25T12:27:02Z</time>
      </trkpt>
      <trkpt lat="46.08933" lon="6.73737">
        <ele>794.7</ele>
        <time>2013-08-25T12:27:03Z</time>
      </trkpt>
      <trkpt lat="46.08917" lon="6.73727">
        <ele>793.7</ele>
        <time>2013-08-25T12:27:06Z</time>
      </trkpt>
      <trkpt lat="46.08912" lon="6.73722">
        <ele>793.7</ele>
        <time>2013-08-25T12:27:07Z</time>
      </trkpt>
      <trkpt lat="46.08899" lon="6.73706">
        <ele>793.2</ele>
        <time>2013-08-25T12:27:11Z</time>
      </trkpt>
      <trkpt lat="46.08889" lon="6.73697">
        <ele>792.3</ele>
        <time>2013-08-25T12:27:13Z</time>
      </trkpt>
      <trkpt lat="46.08808" lon="6.73629">
        <ele>789.9</ele>
        <time>2013-08-25T12:27:28Z</time>
      </trkpt>
      <trkpt lat="46.08792" lon="6.73616">
        <ele>788.9</ele>
        <time>2013-08-25T12:27:31Z</time>
      </trkpt>
      <trkpt lat="46.08787" lon="6.73609">
        <ele>788.4</ele>
        <time>2013-08-25T12:27:32Z</time>
      </trkpt>
      <trkpt lat="46.08783" lon="6.73601">
        <ele>787.9</ele>
        <time>2013-08-25T12:27:33Z</time>
      </trkpt>
      <trkpt lat="46.08782" lon="6.73589">
        <ele>787.9</ele>
        <time>2013-08-25T12:27:34Z</time>
      </trkpt>
      <trkpt lat="46.08781" lon="6.73551">
        <ele>787</ele>
        <time>2013-08-25T12:27:38Z</time>
      </trkpt>
      <trkpt lat="46.08773" lon="6.73523">
        <ele>786.5</ele>
        <time>2013-08-25T12:27:41Z</time>
      </trkpt>
      <trkpt lat="46.0877" lon="6.73514">
        <ele>786.5</ele>
        <time>2013-08-25T12:27:42Z</time>
      </trkpt>
      <trkpt lat="46.08701" lon="6.73598">
        <ele>786.5</ele>
        <time>2013-08-25T12:27:46Z</time>
      </trkpt>
      <trkpt lat="46.08695" lon="6.73589">
        <ele>786.5</ele>
        <time>2013-08-25T12:27:47Z</time>
      </trkpt>
      <trkpt lat="46.08692" lon="6.73577">
        <ele>787</ele>
        <time>2013-08-25T12:27:48Z</time>
      </trkpt>
      <trkpt lat="46.08645" lon="6.73513">
        <ele>785.1</ele>
        <time>2013-08-25T12:28:01Z</time>
      </trkpt>
      <trkpt lat="46.08614" lon="6.73485">
        <ele>784.1</ele>
        <time>2013-08-25T12:28:08Z</time>
      </trkpt>
      <trkpt lat="46.08564" lon="6.73429">
        <ele>781.7</ele>
        <time>2013-08-25T12:28:19Z</time>
      </trkpt>
      <trkpt lat="46.08559" lon="6.73425">
        <ele>781.2</ele>
        <time>2013-08-25T12:28:20Z</time>
      </trkpt>
      <trkpt lat="46.08554" lon="6.73422">
        <ele>781.2</ele>
        <time>2013-08-25T12:28:21Z</time>
      </trkpt>
      <trkpt lat="46.08551" lon="6.7342">
        <ele>780.7</ele>
        <time>2013-08-25T12:28:22Z</time>
      </trkpt>
      <trkpt lat="46.08546" lon="6.73419">
        <ele>780.3</ele>
        <time>2013-08-25T12:28:23Z</time>
      </trkpt>
      <trkpt lat="46.08541" lon="6.73416">
        <ele>780.3</ele>
        <time>2013-08-25T12:28:24Z</time>
      </trkpt>
      <trkpt lat="46.08537" lon="6.73414">
        <ele>779.8</ele>
        <time>2013-08-25T12:28:25Z</time>
      </trkpt>
      <trkpt lat="46.08532" lon="6.73411">
        <ele>779.3</ele>
        <time>2013-08-25T12:28:26Z</time>
      </trkpt>
      <trkpt lat="46.08527" lon="6.73409">
        <ele>779.3</ele>
        <time>2013-08-25T12:28:27Z</time>
      </trkpt>
      <trkpt lat="46.0851" lon="6.73404">
        <ele>776.9</ele>
        <time>2013-08-25T12:28:32Z</time>
      </trkpt>
      <trkpt lat="46.08507" lon="6.73406">
        <ele>776.4</ele>
        <time>2013-08-25T12:28:33Z</time>
      </trkpt>
      <trkpt lat="46.08495" lon="6.73421">
        <ele>773.5</ele>
        <time>2013-08-25T12:28:37Z</time>
      </trkpt>
      <trkpt lat="46.0849" lon="6.73422">
        <ele>772.1</ele>
        <time>2013-08-25T12:28:39Z</time>
      </trkpt>
      <trkpt lat="46.08469" lon="6.73414">
        <ele>769.2</ele>
        <time>2013-08-25T12:28:45Z</time>
      </trkpt>
      <trkpt lat="46.08465" lon="6.73408">
        <ele>768.2</ele>
        <time>2013-08-25T12:28:46Z</time>
      </trkpt>
      <trkpt lat="46.08459" lon="6.73396">
        <ele>766.8</ele>
        <time>2013-08-25T12:28:48Z</time>
      </trkpt>
      <trkpt lat="46.08453" lon="6.73385">
        <ele>765.4</ele>
        <time>2013-08-25T12:28:51Z</time>
      </trkpt>
      <trkpt lat="46.08449" lon="6.73386">
        <ele>765.4</ele>
        <time>2013-08-25T12:28:52Z</time>
      </trkpt>
      <trkpt lat="46.08436" lon="6.73396">
        <ele>762.9</ele>
        <time>2013-08-25T12:28:55Z</time>
      </trkpt>
      <trkpt lat="46.08431" lon="6.73399">
        <ele>762.5</ele>
        <time>2013-08-25T12:28:56Z</time>
      </trkpt>
      <trkpt lat="46.08425" lon="6.73401">
        <ele>761.5</ele>
        <time>2013-08-25T12:28:57Z</time>
      </trkpt>
      <trkpt lat="46.08419" lon="6.73402">
        <ele>761</ele>
        <time>2013-08-25T12:28:58Z</time>
      </trkpt>
      <trkpt lat="46.08414" lon="6.73401">
        <ele>759.6</ele>
        <time>2013-08-25T12:28:59Z</time>
      </trkpt>
      <trkpt lat="46.08411" lon="6.73399">
        <ele>759.6</ele>
        <time>2013-08-25T12:29:00Z</time>
      </trkpt>
      <trkpt lat="46.08409" lon="6.73395">
        <ele>758.6</ele>
        <time>2013-08-25T12:29:01Z</time>
      </trkpt>
      <trkpt lat="46.08408" lon="6.73393">
        <ele>758.1</ele>
        <time>2013-08-25T12:29:02Z</time>
      </trkpt>
      <trkpt lat="46.08406" lon="6.73393">
        <ele>758.6</ele>
        <time>2013-08-25T12:29:14Z</time>
      </trkpt>
      <trkpt lat="46.08403" lon="6.73393">
        <ele>758.1</ele>
        <time>2013-08-25T12:29:45Z</time>
      </trkpt>
      <trkpt lat="46.08402" lon="6.73392">
        <ele>758.6</ele>
        <time>2013-08-25T12:29:50Z</time>
      </trkpt>
      <trkpt lat="46.08401" lon="6.73392">
        <ele>757.7</ele>
        <time>2013-08-25T12:30:07Z</time>
      </trkpt>
      <trkpt lat="46.08378" lon="6.73393">
        <ele>756.2</ele>
        <time>2013-08-25T12:30:16Z</time>
      </trkpt>
      <trkpt lat="46.08361" lon="6.73405">
        <ele>754.3</ele>
        <time>2013-08-25T12:30:20Z</time>
      </trkpt>
      <trkpt lat="46.0835" lon="6.73408">
        <ele>753.8</ele>
        <time>2013-08-25T12:30:22Z</time>
      </trkpt>
      <trkpt lat="46.0834" lon="6.73408">
        <ele>753.8</ele>
        <time>2013-08-25T12:30:24Z</time>
      </trkpt>
      <trkpt lat="46.08334" lon="6.73408">
        <ele>753.3</ele>
        <time>2013-08-25T12:30:25Z</time>
      </trkpt>
      <trkpt lat="46.08328" lon="6.73408">
        <ele>753.3</ele>
        <time>2013-08-25T12:30:26Z</time>
      </trkpt>
      <trkpt lat="46.08323" lon="6.73407">
        <ele>753.3</ele>
        <time>2013-08-25T12:30:27Z</time>
      </trkpt>
      <trkpt lat="46.08317" lon="6.73406">
        <ele>752.9</ele>
        <time>2013-08-25T12:30:28Z</time>
      </trkpt>
      <trkpt lat="46.0824" lon="6.73369">
        <ele>750.5</ele>
        <time>2013-08-25T12:30:42Z</time>
      </trkpt>
      <trkpt lat="46.08235" lon="6.73364">
        <ele>750.5</ele>
        <time>2013-08-25T12:30:43Z</time>
      </trkpt>
      <trkpt lat="46.0817" lon="6.73304">
        <ele>749.5</ele>
        <time>2013-08-25T12:30:58Z</time>
      </trkpt>
      <trkpt lat="46.08145" lon="6.73277">
        <ele>749.5</ele>
        <time>2013-08-25T12:31:05Z</time>
      </trkpt>
      <trkpt lat="46.08076" lon="6.7318">
        <ele>747.6</ele>
        <time>2013-08-25T12:31:23Z</time>
      </trkpt>
      <trkpt lat="46.08062" lon="6.73154">
        <ele>746.6</ele>
        <time>2013-08-25T12:31:31Z</time>
      </trkpt>
      <trkpt lat="46.08065" lon="6.73157">
        <ele>747.1</ele>
        <time>2013-08-25T12:31:56Z</time>
      </trkpt>
      <trkpt lat="46.08065" lon="6.73154">
        <ele>746.6</ele>
        <time>2013-08-25T12:32:12Z</time>
      </trkpt>
      <trkpt lat="46.08065" lon="6.73154">
        <ele>746.6</ele>
        <time>2013-08-25T12:32:30Z</time>
      </trkpt>
      <trkpt lat="46.08064" lon="6.73151">
        <ele>746.1</ele>
        <time>2013-08-25T12:32:47Z</time>
      </trkpt>
      <trkpt lat="46.08052" lon="6.7311">
        <ele>744.7</ele>
        <time>2013-08-25T12:32:59Z</time>
      </trkpt>
      <trkpt lat="46.08049" lon="6.73104">
        <ele>744.7</ele>
        <time>2013-08-25T12:33:00Z</time>
      </trkpt>
      <trkpt lat="46.08043" lon="6.73093">
        <ele>744.2</ele>
        <time>2013-08-25T12:33:02Z</time>
      </trkpt>
      <trkpt lat="46.08039" lon="6.73089">
        <ele>742.8</ele>
        <time>2013-08-25T12:33:03Z</time>
      </trkpt>
      <trkpt lat="46.08031" lon="6.7308">
        <ele>743.7</ele>
        <time>2013-08-25T12:33:05Z</time>
      </trkpt>
      <trkpt lat="46.08005" lon="6.73001">
        <ele>741.8</ele>
        <time>2013-08-25T12:33:18Z</time>
      </trkpt>
      <trkpt lat="46.08002" lon="6.72987">
        <ele>741.8</ele>
        <time>2013-08-25T12:33:20Z</time>
      </trkpt>
      <trkpt lat="46.07989" lon="6.72897">
        <ele>738.4</ele>
        <time>2013-08-25T12:33:31Z</time>
      </trkpt>
      <trkpt lat="46.07989" lon="6.72888">
        <ele>738.9</ele>
        <time>2013-08-25T12:33:32Z</time>
      </trkpt>
      <trkpt lat="46.07994" lon="6.72852">
        <ele>737.5</ele>
        <time>2013-08-25T12:33:36Z</time>
      </trkpt>
      <trkpt lat="46.07997" lon="6.72844">
        <ele>738.4</ele>
        <time>2013-08-25T12:33:37Z</time>
      </trkpt>
      <trkpt lat="46.08028" lon="6.72771">
        <ele>737.5</ele>
        <time>2013-08-25T12:33:47Z</time>
      </trkpt>
      <trkpt lat="46.0803" lon="6.72764">
        <ele>737</ele>
        <time>2013-08-25T12:33:48Z</time>
      </trkpt>
      <trkpt lat="46.08033" lon="6.72757">
        <ele>736.5</ele>
        <time>2013-08-25T12:33:49Z</time>
      </trkpt>
      <trkpt lat="46.08044" lon="6.7274">
        <ele>736.5</ele>
        <time>2013-08-25T12:33:52Z</time>
      </trkpt>
      <trkpt lat="46.08048" lon="6.72735">
        <ele>736</ele>
        <time>2013-08-25T12:33:53Z</time>
      </trkpt>
      <trkpt lat="46.08053" lon="6.72732">
        <ele>737</ele>
        <time>2013-08-25T12:33:54Z</time>
      </trkpt>
      <trkpt lat="46.08059" lon="6.72729">
        <ele>736</ele>
        <time>2013-08-25T12:33:55Z</time>
      </trkpt>
      <trkpt lat="46.08063" lon="6.72725">
        <ele>736</ele>
        <time>2013-08-25T12:33:56Z</time>
      </trkpt>
      <trkpt lat="46.08067" lon="6.7272">
        <ele>735.6</ele>
        <time>2013-08-25T12:33:57Z</time>
      </trkpt>
      <trkpt lat="46.0807" lon="6.72715">
        <ele>735.6</ele>
        <time>2013-08-25T12:33:58Z</time>
      </trkpt>
      <trkpt lat="46.08071" lon="6.72711">
        <ele>735.6</ele>
        <time>2013-08-25T12:33:59Z</time>
      </trkpt>
      <trkpt lat="46.08072" lon="6.72706">
        <ele>735.1</ele>
        <time>2013-08-25T12:34:00Z</time>
      </trkpt>
      <trkpt lat="46.08072" lon="6.72702">
        <ele>736</ele>
        <time>2013-08-25T12:34:01Z</time>
      </trkpt>
      <trkpt lat="46.08072" lon="6.72697">
        <ele>735.1</ele>
        <time>2013-08-25T12:34:02Z</time>
      </trkpt>
      <trkpt lat="46.08073" lon="6.72692">
        <ele>735.6</ele>
        <time>2013-08-25T12:34:03Z</time>
      </trkpt>
      <trkpt lat="46.08075" lon="6.72687">
        <ele>735.1</ele>
        <time>2013-08-25T12:34:04Z</time>
      </trkpt>
      <trkpt lat="46.08077" lon="6.72683">
        <ele>735.1</ele>
        <time>2013-08-25T12:34:05Z</time>
      </trkpt>
      <trkpt lat="46.08079" lon="6.72679">
        <ele>735.1</ele>
        <time>2013-08-25T12:34:06Z</time>
      </trkpt>
      <trkpt lat="46.08082" lon="6.72675">
        <ele>734.6</ele>
        <time>2013-08-25T12:34:07Z</time>
      </trkpt>
      <trkpt lat="46.08084" lon="6.7267">
        <ele>734.6</ele>
        <time>2013-08-25T12:34:08Z</time>
      </trkpt>
      <trkpt lat="46.08086" lon="6.72666">
        <ele>734.1</ele>
        <time>2013-08-25T12:34:09Z</time>
      </trkpt>
      <trkpt lat="46.08123" lon="6.72602">
        <ele>733.1</ele>
        <time>2013-08-25T12:34:27Z</time>
      </trkpt>
      <trkpt lat="46.08124" lon="6.72598">
        <ele>732.7</ele>
        <time>2013-08-25T12:34:37Z</time>
      </trkpt>
      <trkpt lat="46.08146" lon="6.72556">
        <ele>732.2</ele>
        <time>2013-08-25T12:34:48Z</time>
      </trkpt>
      <trkpt lat="46.08192" lon="6.72472">
        <ele>730.7</ele>
        <time>2013-08-25T12:35:04Z</time>
      </trkpt>
      <trkpt lat="46.08195" lon="6.72467">
        <ele>731.2</ele>
        <time>2013-08-25T12:35:05Z</time>
      </trkpt>
      <trkpt lat="46.08198" lon="6.72464">
        <ele>730.7</ele>
        <time>2013-08-25T12:35:06Z</time>
      </trkpt>
      <trkpt lat="46.08201" lon="6.72462">
        <ele>730.3</ele>
        <time>2013-08-25T12:35:07Z</time>
      </trkpt>
      <trkpt lat="46.08204" lon="6.72463">
        <ele>730.3</ele>
        <time>2013-08-25T12:35:08Z</time>
      </trkpt>
      <trkpt lat="46.08206" lon="6.72464">
        <ele>730.3</ele>
        <time>2013-08-25T12:35:09Z</time>
      </trkpt>
      <trkpt lat="46.08209" lon="6.72466">
        <ele>730.7</ele>
        <time>2013-08-25T12:35:10Z</time>
      </trkpt>
      <trkpt lat="46.08211" lon="6.72467">
        <ele>730.7</ele>
        <time>2013-08-25T12:35:11Z</time>
      </trkpt>
      <trkpt lat="46.08216" lon="6.72471">
        <ele>729.3</ele>
        <time>2013-08-25T12:35:24Z</time>
      </trkpt>
      <trkpt lat="46.08217" lon="6.72472">
        <ele>730.7</ele>
        <time>2013-08-25T12:35:26Z</time>
      </trkpt>
      <trkpt lat="46.08218" lon="6.72473">
        <ele>726.9</ele>
        <time>2013-08-25T12:35:31Z</time>
      </trkpt>
      <trkpt lat="46.08171" lon="6.72497">
        <ele>729.8</ele>
        <time>2013-08-25T12:43:44Z</time>
      </trkpt>
      <trkpt lat="46.0815" lon="6.72548">
        <ele>727.9</ele>
        <time>2013-08-25T12:43:56Z</time>
      </trkpt>
      <trkpt lat="46.0814" lon="6.72566">
        <ele>725.5</ele>
        <time>2013-08-25T12:44:01Z</time>
      </trkpt>
      <trkpt lat="46.08126" lon="6.72592">
        <ele>721.6</ele>
        <time>2013-08-25T12:44:08Z</time>
      </trkpt>
      <trkpt lat="46.08123" lon="6.72595">
        <ele>721.6</ele>
        <time>2013-08-25T12:44:09Z</time>
      </trkpt>
      <trkpt lat="46.08101" lon="6.72632">
        <ele>717.8</ele>
        <time>2013-08-25T12:44:19Z</time>
      </trkpt>
      <trkpt lat="46.08058" lon="6.72694">
        <ele>715.8</ele>
        <time>2013-08-25T12:44:37Z</time>
      </trkpt>
      <trkpt lat="46.08044" lon="6.72726">
        <ele>715.4</ele>
        <time>2013-08-25T12:44:46Z</time>
      </trkpt>
      <trkpt lat="46.08022" lon="6.72783">
        <ele>715.4</ele>
        <time>2013-08-25T12:44:59Z</time>
      </trkpt>
      <trkpt lat="46.0799" lon="6.72874">
        <ele>717.3</ele>
        <time>2013-08-25T12:45:17Z</time>
      </trkpt>
      <trkpt lat="46.07987" lon="6.72927">
        <ele>718.7</ele>
        <time>2013-08-25T12:45:30Z</time>
      </trkpt>
      <trkpt lat="46.07999" lon="6.72978">
        <ele>720.7</ele>
        <time>2013-08-25T12:45:43Z</time>
      </trkpt>
      <trkpt lat="46.08018" lon="6.73058">
        <ele>721.6</ele>
        <time>2013-08-25T12:46:00Z</time>
      </trkpt>
      <trkpt lat="46.08052" lon="6.73119">
        <ele>723.5</ele>
        <time>2013-08-25T12:46:14Z</time>
      </trkpt>
      <trkpt lat="46.0806" lon="6.73146">
        <ele>724.5</ele>
        <time>2013-08-25T12:46:20Z</time>
      </trkpt>
      <trkpt lat="46.08059" lon="6.7315">
        <ele>725</ele>
        <time>2013-08-25T12:46:21Z</time>
      </trkpt>
      <trkpt lat="46.08057" lon="6.73153">
        <ele>725</ele>
        <time>2013-08-25T12:46:22Z</time>
      </trkpt>
      <trkpt lat="46.08011" lon="6.732">
        <ele>724.5</ele>
        <time>2013-08-25T12:46:36Z</time>
      </trkpt>
      <trkpt lat="46.07993" lon="6.73219">
        <ele>724</ele>
        <time>2013-08-25T12:46:40Z</time>
      </trkpt>
      <trkpt lat="46.07925" lon="6.73284">
        <ele>720.2</ele>
        <time>2013-08-25T12:46:53Z</time>
      </trkpt>
      <trkpt lat="46.07839" lon="6.73369">
        <ele>717.8</ele>
        <time>2013-08-25T12:47:08Z</time>
      </trkpt>
      <trkpt lat="46.07729" lon="6.73474">
        <ele>716.3</ele>
        <time>2013-08-25T12:47:26Z</time>
      </trkpt>
      <trkpt lat="46.07631" lon="6.73535">
        <ele>716.8</ele>
        <time>2013-08-25T12:47:43Z</time>
      </trkpt>
      <trkpt lat="46.07534" lon="6.73593">
        <ele>718.2</ele>
        <time>2013-08-25T12:48:02Z</time>
      </trkpt>
      <trkpt lat="46.07437" lon="6.73663">
        <ele>719.2</ele>
        <time>2013-08-25T12:48:22Z</time>
      </trkpt>
      <trkpt lat="46.07336" lon="6.73736">
        <ele>720.2</ele>
        <time>2013-08-25T12:48:43Z</time>
      </trkpt>
      <trkpt lat="46.07307" lon="6.73756">
        <ele>720.7</ele>
        <time>2013-08-25T12:48:49Z</time>
      </trkpt>
      <trkpt lat="46.07302" lon="6.73758">
        <ele>719.7</ele>
        <time>2013-08-25T12:48:50Z</time>
      </trkpt>
      <trkpt lat="46.07287" lon="6.73763">
        <ele>720.2</ele>
        <time>2013-08-25T12:48:53Z</time>
      </trkpt>
      <trkpt lat="46.07282" lon="6.73766">
        <ele>720.2</ele>
        <time>2013-08-25T12:48:54Z</time>
      </trkpt>
      <trkpt lat="46.07278" lon="6.73769">
        <ele>720.7</ele>
        <time>2013-08-25T12:48:55Z</time>
      </trkpt>
      <trkpt lat="46.07204" lon="6.73822">
        <ele>721.1</ele>
        <time>2013-08-25T12:49:13Z</time>
      </trkpt>
      <trkpt lat="46.07165" lon="6.73851">
        <ele>721.1</ele>
        <time>2013-08-25T12:49:26Z</time>
      </trkpt>
      <trkpt lat="46.07118" lon="6.73885">
        <ele>721.6</ele>
        <time>2013-08-25T12:49:38Z</time>
      </trkpt>
      <trkpt lat="46.07035" lon="6.73947">
        <ele>723.1</ele>
        <time>2013-08-25T12:49:58Z</time>
      </trkpt>
      <trkpt lat="46.07032" lon="6.73951">
        <ele>723.5</ele>
        <time>2013-08-25T12:49:59Z</time>
      </trkpt>
      <trkpt lat="46.07028" lon="6.73954">
        <ele>723.1</ele>
        <time>2013-08-25T12:50:00Z</time>
      </trkpt>
      <trkpt lat="46.07024" lon="6.73956">
        <ele>722.6</ele>
        <time>2013-08-25T12:50:01Z</time>
      </trkpt>
      <trkpt lat="46.0702" lon="6.73959">
        <ele>723.1</ele>
        <time>2013-08-25T12:50:02Z</time>
      </trkpt>
      <trkpt lat="46.07015" lon="6.73961">
        <ele>723.1</ele>
        <time>2013-08-25T12:50:03Z</time>
      </trkpt>
      <trkpt lat="46.06971" lon="6.73995">
        <ele>724</ele>
        <time>2013-08-25T12:50:14Z</time>
      </trkpt>
      <trkpt lat="46.06955" lon="6.74006">
        <ele>723.5</ele>
        <time>2013-08-25T12:50:18Z</time>
      </trkpt>
      <trkpt lat="46.06952" lon="6.74009">
        <ele>723.5</ele>
        <time>2013-08-25T12:50:19Z</time>
      </trkpt>
      <trkpt lat="46.06934" lon="6.74022">
        <ele>724</ele>
        <time>2013-08-25T12:50:29Z</time>
      </trkpt>
      <trkpt lat="46.06934" lon="6.7402">
        <ele>723.1</ele>
        <time>2013-08-25T12:51:05Z</time>
      </trkpt>
      <trkpt lat="46.06933" lon="6.74021">
        <ele>723.5</ele>
        <time>2013-08-25T12:51:57Z</time>
      </trkpt>
      <trkpt lat="46.06934" lon="6.74021">
        <ele>724</ele>
        <time>2013-08-25T12:52:30Z</time>
      </trkpt>
      <trkpt lat="46.06935" lon="6.74019">
        <ele>724</ele>
        <time>2013-08-25T12:52:56Z</time>
      </trkpt>
      <trkpt lat="46.06935" lon="6.74025">
        <ele>724.5</ele>
        <time>2013-08-25T12:53:32Z</time>
      </trkpt>
      <trkpt lat="46.06937" lon="6.74022">
        <ele>724</ele>
        <time>2013-08-25T12:53:54Z</time>
      </trkpt>
      <trkpt lat="46.06935" lon="6.74021">
        <ele>723.1</ele>
        <time>2013-08-25T12:54:35Z</time>
      </trkpt>
      <trkpt lat="46.06935" lon="6.74022">
        <ele>724</ele>
        <time>2013-08-25T12:54:59Z</time>
      </trkpt>
      <trkpt lat="46.06934" lon="6.74024">
        <ele>724</ele>
        <time>2013-08-25T12:55:38Z</time>
      </trkpt>
      <trkpt lat="46.06936" lon="6.74021">
        <ele>724</ele>
        <time>2013-08-25T12:56:11Z</time>
      </trkpt>
      <trkpt lat="46.06936" lon="6.74019">
        <ele>723.5</ele>
        <time>2013-08-25T12:56:58Z</time>
      </trkpt>
      <trkpt lat="46.06931" lon="6.74023">
        <ele>724</ele>
        <time>2013-08-25T12:57:31Z</time>
      </trkpt>
      <trkpt lat="46.06898" lon="6.74047">
        <ele>725</ele>
        <time>2013-08-25T12:57:45Z</time>
      </trkpt>
      <trkpt lat="46.06869" lon="6.74068">
        <ele>725</ele>
        <time>2013-08-25T12:57:58Z</time>
      </trkpt>
      <trkpt lat="46.06829" lon="6.741">
        <ele>726.9</ele>
        <time>2013-08-25T12:58:14Z</time>
      </trkpt>
      <trkpt lat="46.06826" lon="6.74102">
        <ele>726.9</ele>
        <time>2013-08-25T12:58:15Z</time>
      </trkpt>
      <trkpt lat="46.0682" lon="6.74106">
        <ele>723.5</ele>
        <time>2013-08-25T12:58:17Z</time>
      </trkpt>
      <trkpt lat="46.06817" lon="6.74108">
        <ele>727.9</ele>
        <time>2013-08-25T12:58:18Z</time>
      </trkpt>
      <trkpt lat="46.06814" lon="6.7411">
        <ele>726.4</ele>
        <time>2013-08-25T12:58:19Z</time>
      </trkpt>
      <trkpt lat="46.06763" lon="6.74146">
        <ele>723.1</ele>
        <time>2013-08-25T12:58:36Z</time>
      </trkpt>
      <trkpt lat="46.0676" lon="6.74148">
        <ele>729.8</ele>
        <time>2013-08-25T12:58:37Z</time>
      </trkpt>
      <trkpt lat="46.06755" lon="6.74153">
        <ele>725.9</ele>
        <time>2013-08-25T12:58:39Z</time>
      </trkpt>
      <trkpt lat="46.06752" lon="6.74155">
        <ele>725.5</ele>
        <time>2013-08-25T12:58:40Z</time>
      </trkpt>
      <trkpt lat="46.06746" lon="6.74159">
        <ele>728.8</ele>
        <time>2013-08-25T12:58:42Z</time>
      </trkpt>
      <trkpt lat="46.0674" lon="6.74164">
        <ele>725</ele>
        <time>2013-08-25T12:58:44Z</time>
      </trkpt>
      <trkpt lat="46.06724" lon="6.74175">
        <ele>728.8</ele>
        <time>2013-08-25T12:58:49Z</time>
      </trkpt>
      <trkpt lat="46.06718" lon="6.7418">
        <ele>729.3</ele>
        <time>2013-08-25T12:58:51Z</time>
      </trkpt>
      <trkpt lat="46.06712" lon="6.74184">
        <ele>725.5</ele>
        <time>2013-08-25T12:58:53Z</time>
      </trkpt>
      <trkpt lat="46.06709" lon="6.74186">
        <ele>726.4</ele>
        <time>2013-08-25T12:58:54Z</time>
      </trkpt>
      <trkpt lat="46.06706" lon="6.74188">
        <ele>729.3</ele>
        <time>2013-08-25T12:58:55Z</time>
      </trkpt>
      <trkpt lat="46.06703" lon="6.74191">
        <ele>727.9</ele>
        <time>2013-08-25T12:58:56Z</time>
      </trkpt>
      <trkpt lat="46.06644" lon="6.74234">
        <ele>727.9</ele>
        <time>2013-08-25T12:59:14Z</time>
      </trkpt>
      <trkpt lat="46.06597" lon="6.7427">
        <ele>728.8</ele>
        <time>2013-08-25T12:59:29Z</time>
      </trkpt>
      <trkpt lat="46.06537" lon="6.74313">
        <ele>729.8</ele>
        <time>2013-08-25T12:59:45Z</time>
      </trkpt>
      <trkpt lat="46.06488" lon="6.74349">
        <ele>729.8</ele>
        <time>2013-08-25T12:59:59Z</time>
      </trkpt>
      <trkpt lat="46.06465" lon="6.74366">
        <ele>730.7</ele>
        <time>2013-08-25T13:00:05Z</time>
      </trkpt>
      <trkpt lat="46.06414" lon="6.74403">
        <ele>732.2</ele>
        <time>2013-08-25T13:00:21Z</time>
      </trkpt>
      <trkpt lat="46.06347" lon="6.74426">
        <ele>732.7</ele>
        <time>2013-08-25T13:00:37Z</time>
      </trkpt>
      <trkpt lat="46.06269" lon="6.74438">
        <ele>733.6</ele>
        <time>2013-08-25T13:00:55Z</time>
      </trkpt>
      <trkpt lat="46.0619" lon="6.7444">
        <ele>734.6</ele>
        <time>2013-08-25T13:01:13Z</time>
      </trkpt>
      <trkpt lat="46.06098" lon="6.74445">
        <ele>736</ele>
        <time>2013-08-25T13:01:33Z</time>
      </trkpt>
      <trkpt lat="46.06017" lon="6.74457">
        <ele>736.5</ele>
        <time>2013-08-25T13:01:51Z</time>
      </trkpt>
      <trkpt lat="46.05973" lon="6.74497">
        <ele>737</ele>
        <time>2013-08-25T13:02:04Z</time>
      </trkpt>
      <trkpt lat="46.05929" lon="6.74573">
        <ele>738</ele>
        <time>2013-08-25T13:02:19Z</time>
      </trkpt>
      <trkpt lat="46.0588" lon="6.74661">
        <ele>738.9</ele>
        <time>2013-08-25T13:02:37Z</time>
      </trkpt>
      <trkpt lat="46.05836" lon="6.74741">
        <ele>742.3</ele>
        <time>2013-08-25T13:02:55Z</time>
      </trkpt>
      <trkpt lat="46.05792" lon="6.74815">
        <ele>744.7</ele>
        <time>2013-08-25T13:03:15Z</time>
      </trkpt>
      <trkpt lat="46.05763" lon="6.74854">
        <ele>746.6</ele>
        <time>2013-08-25T13:03:28Z</time>
      </trkpt>
      <trkpt lat="46.05739" lon="6.74905">
        <ele>749</ele>
        <time>2013-08-25T13:03:43Z</time>
      </trkpt>
      <trkpt lat="46.05746" lon="6.74978">
        <ele>750.9</ele>
        <time>2013-08-25T13:03:59Z</time>
      </trkpt>
      <trkpt lat="46.05761" lon="6.75032">
        <ele>753.8</ele>
        <time>2013-08-25T13:04:13Z</time>
      </trkpt>
      <trkpt lat="46.05793" lon="6.75086">
        <ele>756.7</ele>
        <time>2013-08-25T13:04:30Z</time>
      </trkpt>
      <trkpt lat="46.05829" lon="6.75113">
        <ele>758.1</ele>
        <time>2013-08-25T13:04:43Z</time>
      </trkpt>
      <trkpt lat="46.05856" lon="6.75166">
        <ele>760.5</ele>
        <time>2013-08-25T13:04:58Z</time>
      </trkpt>
      <trkpt lat="46.05872" lon="6.75243">
        <ele>762.9</ele>
        <time>2013-08-25T13:05:15Z</time>
      </trkpt>
      <trkpt lat="46.05887" lon="6.75325">
        <ele>764.9</ele>
        <time>2013-08-25T13:05:32Z</time>
      </trkpt>
      <trkpt lat="46.05882" lon="6.75395">
        <ele>767.3</ele>
        <time>2013-08-25T13:05:48Z</time>
      </trkpt>
      <trkpt lat="46.05871" lon="6.75435">
        <ele>769.2</ele>
        <time>2013-08-25T13:05:58Z</time>
      </trkpt>
      <trkpt lat="46.0587" lon="6.75439">
        <ele>768.7</ele>
        <time>2013-08-25T13:05:59Z</time>
      </trkpt>
      <trkpt lat="46.05869" lon="6.75443">
        <ele>769.2</ele>
        <time>2013-08-25T13:06:00Z</time>
      </trkpt>
      <trkpt lat="46.05839" lon="6.75515">
        <ele>772.6</ele>
        <time>2013-08-25T13:06:17Z</time>
      </trkpt>
      <trkpt lat="46.05807" lon="6.75569">
        <ele>774.5</ele>
        <time>2013-08-25T13:06:32Z</time>
      </trkpt>
      <trkpt lat="46.05779" lon="6.75594">
        <ele>775.4</ele>
        <time>2013-08-25T13:06:43Z</time>
      </trkpt>
      <trkpt lat="46.05738" lon="6.75627">
        <ele>777.8</ele>
        <time>2013-08-25T13:06:56Z</time>
      </trkpt>
      <trkpt lat="46.05732" lon="6.75634">
        <ele>778.8</ele>
        <time>2013-08-25T13:07:04Z</time>
      </trkpt>
      <trkpt lat="46.0573" lon="6.75636">
        <ele>778.3</ele>
        <time>2013-08-25T13:07:05Z</time>
      </trkpt>
      <trkpt lat="46.05729" lon="6.75639">
        <ele>778.3</ele>
        <time>2013-08-25T13:07:06Z</time>
      </trkpt>
      <trkpt lat="46.05727" lon="6.75642">
        <ele>778.8</ele>
        <time>2013-08-25T13:07:07Z</time>
      </trkpt>
      <trkpt lat="46.05725" lon="6.75644">
        <ele>778.8</ele>
        <time>2013-08-25T13:07:08Z</time>
      </trkpt>
      <trkpt lat="46.05694" lon="6.75685">
        <ele>780.3</ele>
        <time>2013-08-25T13:07:20Z</time>
      </trkpt>
      <trkpt lat="46.05679" lon="6.75696">
        <ele>784.1</ele>
        <time>2013-08-25T13:07:29Z</time>
      </trkpt>
      <trkpt lat="46.05678" lon="6.75697">
        <ele>780.7</ele>
        <time>2013-08-25T13:07:30Z</time>
      </trkpt>
      <trkpt lat="46.05654" lon="6.7571">
        <ele>781.2</ele>
        <time>2013-08-25T13:07:38Z</time>
      </trkpt>
      <trkpt lat="46.05627" lon="6.75761">
        <ele>783.6</ele>
        <time>2013-08-25T13:07:50Z</time>
      </trkpt>
      <trkpt lat="46.05611" lon="6.75788">
        <ele>783.6</ele>
        <time>2013-08-25T13:07:56Z</time>
      </trkpt>
      <trkpt lat="46.05566" lon="6.75883">
        <ele>783.1</ele>
        <time>2013-08-25T13:08:13Z</time>
      </trkpt>
      <trkpt lat="46.05554" lon="6.75914">
        <ele>783.1</ele>
        <time>2013-08-25T13:08:18Z</time>
      </trkpt>
      <trkpt lat="46.05551" lon="6.75928">
        <ele>782.7</ele>
        <time>2013-08-25T13:08:20Z</time>
      </trkpt>
      <trkpt lat="46.0555" lon="6.75934">
        <ele>782.7</ele>
        <time>2013-08-25T13:08:21Z</time>
      </trkpt>
      <trkpt lat="46.0555" lon="6.75941">
        <ele>782.7</ele>
        <time>2013-08-25T13:08:22Z</time>
      </trkpt>
      <trkpt lat="46.05551" lon="6.75948">
        <ele>782.7</ele>
        <time>2013-08-25T13:08:23Z</time>
      </trkpt>
      <trkpt lat="46.05552" lon="6.75954">
        <ele>782.2</ele>
        <time>2013-08-25T13:08:24Z</time>
      </trkpt>
      <trkpt lat="46.05552" lon="6.7596">
        <ele>782.2</ele>
        <time>2013-08-25T13:08:25Z</time>
      </trkpt>
      <trkpt lat="46.05554" lon="6.75966">
        <ele>782.7</ele>
        <time>2013-08-25T13:08:26Z</time>
      </trkpt>
      <trkpt lat="46.05556" lon="6.75976">
        <ele>782.7</ele>
        <time>2013-08-25T13:08:28Z</time>
      </trkpt>
      <trkpt lat="46.05558" lon="6.75981">
        <ele>782.7</ele>
        <time>2013-08-25T13:08:29Z</time>
      </trkpt>
      <trkpt lat="46.0556" lon="6.75986">
        <ele>782.2</ele>
        <time>2013-08-25T13:08:30Z</time>
      </trkpt>
      <trkpt lat="46.05563" lon="6.75991">
        <ele>782.2</ele>
        <time>2013-08-25T13:08:31Z</time>
      </trkpt>
      <trkpt lat="46.05566" lon="6.75996">
        <ele>782.7</ele>
        <time>2013-08-25T13:08:32Z</time>
      </trkpt>
      <trkpt lat="46.0557" lon="6.76">
        <ele>782.2</ele>
        <time>2013-08-25T13:08:33Z</time>
      </trkpt>
      <trkpt lat="46.05617" lon="6.76065">
        <ele>779.3</ele>
        <time>2013-08-25T13:08:44Z</time>
      </trkpt>
      <trkpt lat="46.0562" lon="6.76073">
        <ele>779.3</ele>
        <time>2013-08-25T13:08:45Z</time>
      </trkpt>
      <trkpt lat="46.05623" lon="6.76082">
        <ele>778.8</ele>
        <time>2013-08-25T13:08:46Z</time>
      </trkpt>
      <trkpt lat="46.05627" lon="6.76101">
        <ele>778.8</ele>
        <time>2013-08-25T13:08:48Z</time>
      </trkpt>
      <trkpt lat="46.05627" lon="6.7611">
        <ele>778.3</ele>
        <time>2013-08-25T13:08:49Z</time>
      </trkpt>
      <trkpt lat="46.05627" lon="6.7612">
        <ele>778.3</ele>
        <time>2013-08-25T13:08:50Z</time>
      </trkpt>
      <trkpt lat="46.05627" lon="6.7613">
        <ele>778.3</ele>
        <time>2013-08-25T13:08:51Z</time>
      </trkpt>
      <trkpt lat="46.05626" lon="6.76139">
        <ele>778.8</ele>
        <time>2013-08-25T13:08:52Z</time>
      </trkpt>
      <trkpt lat="46.05614" lon="6.76205">
        <ele>776.9</ele>
        <time>2013-08-25T13:08:59Z</time>
      </trkpt>
      <trkpt lat="46.05611" lon="6.76214">
        <ele>776.4</ele>
        <time>2013-08-25T13:09:00Z</time>
      </trkpt>
      <trkpt lat="46.05607" lon="6.76223">
        <ele>776.4</ele>
        <time>2013-08-25T13:09:01Z</time>
      </trkpt>
      <trkpt lat="46.05598" lon="6.76239">
        <ele>775.9</ele>
        <time>2013-08-25T13:09:03Z</time>
      </trkpt>
      <trkpt lat="46.05593" lon="6.76246">
        <ele>775.4</ele>
        <time>2013-08-25T13:09:04Z</time>
      </trkpt>
      <trkpt lat="46.05588" lon="6.76253">
        <ele>775.4</ele>
        <time>2013-08-25T13:09:05Z</time>
      </trkpt>
      <trkpt lat="46.05583" lon="6.76259">
        <ele>775.4</ele>
        <time>2013-08-25T13:09:06Z</time>
      </trkpt>
      <trkpt lat="46.05578" lon="6.76267">
        <ele>775.4</ele>
        <time>2013-08-25T13:09:07Z</time>
      </trkpt>
      <trkpt lat="46.05574" lon="6.76274">
        <ele>775.4</ele>
        <time>2013-08-25T13:09:08Z</time>
      </trkpt>
      <trkpt lat="46.0556" lon="6.76298">
        <ele>774</ele>
        <time>2013-08-25T13:09:11Z</time>
      </trkpt>
      <trkpt lat="46.05537" lon="6.76401">
        <ele>771.1</ele>
        <time>2013-08-25T13:09:21Z</time>
      </trkpt>
      <trkpt lat="46.05538" lon="6.76414">
        <ele>771.1</ele>
        <time>2013-08-25T13:09:22Z</time>
      </trkpt>
      <trkpt lat="46.0554" lon="6.76427">
        <ele>769.7</ele>
        <time>2013-08-25T13:09:23Z</time>
      </trkpt>
      <trkpt lat="46.05542" lon="6.7644">
        <ele>769.7</ele>
        <time>2013-08-25T13:09:24Z</time>
      </trkpt>
      <trkpt lat="46.05547" lon="6.76479">
        <ele>768.2</ele>
        <time>2013-08-25T13:09:27Z</time>
      </trkpt>
      <trkpt lat="46.05547" lon="6.76515">
        <ele>767.3</ele>
        <time>2013-08-25T13:09:30Z</time>
      </trkpt>
      <trkpt lat="46.05545" lon="6.76526">
        <ele>766.8</ele>
        <time>2013-08-25T13:09:31Z</time>
      </trkpt>
      <trkpt lat="46.05512" lon="6.76683">
        <ele>763.9</ele>
        <time>2013-08-25T13:09:45Z</time>
      </trkpt>
      <trkpt lat="46.05507" lon="6.76835">
        <ele>762.9</ele>
        <time>2013-08-25T13:10:00Z</time>
      </trkpt>
      <trkpt lat="46.0552" lon="6.76947">
        <ele>763.4</ele>
        <time>2013-08-25T13:10:14Z</time>
      </trkpt>
      <trkpt lat="46.0552" lon="6.76989">
        <ele>763.9</ele>
        <time>2013-08-25T13:10:21Z</time>
      </trkpt>
      <trkpt lat="46.05516" lon="6.7699">
        <ele>764.4</ele>
        <time>2013-08-25T13:10:22Z</time>
      </trkpt>
      <trkpt lat="46.05493" lon="6.77008">
        <ele>763.4</ele>
        <time>2013-08-25T13:10:31Z</time>
      </trkpt>
      <trkpt lat="46.05493" lon="6.77014">
        <ele>763.9</ele>
        <time>2013-08-25T13:10:32Z</time>
      </trkpt>
      <trkpt lat="46.05488" lon="6.77063">
        <ele>763.9</ele>
        <time>2013-08-25T13:10:40Z</time>
      </trkpt>
      <trkpt lat="46.0548" lon="6.77106">
        <ele>764.4</ele>
        <time>2013-08-25T13:10:47Z</time>
      </trkpt>
      <trkpt lat="46.05468" lon="6.77156">
        <ele>765.4</ele>
        <time>2013-08-25T13:10:55Z</time>
      </trkpt>
      <trkpt lat="46.05467" lon="6.77162">
        <ele>764.9</ele>
        <time>2013-08-25T13:10:56Z</time>
      </trkpt>
      <trkpt lat="46.05466" lon="6.77169">
        <ele>764.9</ele>
        <time>2013-08-25T13:10:57Z</time>
      </trkpt>
      <trkpt lat="46.05463" lon="6.7718">
        <ele>765.8</ele>
        <time>2013-08-25T13:10:59Z</time>
      </trkpt>
      <trkpt lat="46.05444" lon="6.77265">
        <ele>767.3</ele>
        <time>2013-08-25T13:11:15Z</time>
      </trkpt>
      <trkpt lat="46.05419" lon="6.77316">
        <ele>768.2</ele>
        <time>2013-08-25T13:11:27Z</time>
      </trkpt>
      <trkpt lat="46.05396" lon="6.77363">
        <ele>768.2</ele>
        <time>2013-08-25T13:11:40Z</time>
      </trkpt>
      <trkpt lat="46.05389" lon="6.77406">
        <ele>768.2</ele>
        <time>2013-08-25T13:11:51Z</time>
      </trkpt>
      <trkpt lat="46.05387" lon="6.77407">
        <ele>768.7</ele>
        <time>2013-08-25T13:11:52Z</time>
      </trkpt>
      <trkpt lat="46.05385" lon="6.77407">
        <ele>769.2</ele>
        <time>2013-08-25T13:11:53Z</time>
      </trkpt>
      <trkpt lat="46.05384" lon="6.77406">
        <ele>768.7</ele>
        <time>2013-08-25T13:11:54Z</time>
      </trkpt>
      <trkpt lat="46.05383" lon="6.77404">
        <ele>768.7</ele>
        <time>2013-08-25T13:11:55Z</time>
      </trkpt>
      <trkpt lat="46.05381" lon="6.77396">
        <ele>767.8</ele>
        <time>2013-08-25T13:12:10Z</time>
      </trkpt>
      <trkpt lat="46.05378" lon="6.77404">
        <ele>768.7</ele>
        <time>2013-08-25T13:12:36Z</time>
      </trkpt>
      <trkpt lat="46.0537" lon="6.77422">
        <ele>768.2</ele>
        <time>2013-08-25T13:13:11Z</time>
      </trkpt>
      <trkpt lat="46.05386" lon="6.77401">
        <ele>767.8</ele>
        <time>2013-08-25T13:13:34Z</time>
      </trkpt>
      <trkpt lat="46.0538" lon="6.77399">
        <ele>768.7</ele>
        <time>2013-08-25T13:14:02Z</time>
      </trkpt>
      <trkpt lat="46.0537" lon="6.77428">
        <ele>769.2</ele>
        <time>2013-08-25T13:14:32Z</time>
      </trkpt>
      <trkpt lat="46.05353" lon="6.77428">
        <ele>767.8</ele>
        <time>2013-08-25T13:14:50Z</time>
      </trkpt>
      <trkpt lat="46.05381" lon="6.77411">
        <ele>768.7</ele>
        <time>2013-08-25T13:14:56Z</time>
      </trkpt>
      <trkpt lat="46.05391" lon="6.77412">
        <ele>768.7</ele>
        <time>2013-08-25T13:15:00Z</time>
      </trkpt>
      <trkpt lat="46.05411" lon="6.77459">
        <ele>770.2</ele>
        <time>2013-08-25T13:15:13Z</time>
      </trkpt>
      <trkpt lat="46.05435" lon="6.77518">
        <ele>771.1</ele>
        <time>2013-08-25T13:15:28Z</time>
      </trkpt>
      <trkpt lat="46.05454" lon="6.77569">
        <ele>772.1</ele>
        <time>2013-08-25T13:15:40Z</time>
      </trkpt>
      <trkpt lat="46.05453" lon="6.77571">
        <ele>772.6</ele>
        <time>2013-08-25T13:15:41Z</time>
      </trkpt>
      <trkpt lat="46.05451" lon="6.77572">
        <ele>772.6</ele>
        <time>2013-08-25T13:15:43Z</time>
      </trkpt>
      <trkpt lat="46.05448" lon="6.77572">
        <ele>773</ele>
        <time>2013-08-25T13:15:45Z</time>
      </trkpt>
      <trkpt lat="46.05446" lon="6.77571">
        <ele>773</ele>
        <time>2013-08-25T13:15:46Z</time>
      </trkpt>
      <trkpt lat="46.05445" lon="6.77569">
        <ele>773</ele>
        <time>2013-08-25T13:15:47Z</time>
      </trkpt>
      <trkpt lat="46.05443" lon="6.77567">
        <ele>773</ele>
        <time>2013-08-25T13:15:48Z</time>
      </trkpt>
      <trkpt lat="46.05441" lon="6.77565">
        <ele>773</ele>
        <time>2013-08-25T13:15:49Z</time>
      </trkpt>
      <trkpt lat="46.05407" lon="6.77529">
        <ele>774.5</ele>
        <time>2013-08-25T13:16:05Z</time>
      </trkpt>
      <trkpt lat="46.05404" lon="6.77521">
        <ele>774.5</ele>
        <time>2013-08-25T13:16:14Z</time>
      </trkpt>
      <trkpt lat="46.05404" lon="6.77518">
        <ele>775</ele>
        <time>2013-08-25T13:16:43Z</time>
      </trkpt>
      <trkpt lat="46.05401" lon="6.77517">
        <ele>775</ele>
        <time>2013-08-25T13:16:45Z</time>
      </trkpt>
      <trkpt lat="46.05399" lon="6.77516">
        <ele>775</ele>
        <time>2013-08-25T13:16:46Z</time>
      </trkpt>
      <trkpt lat="46.05379" lon="6.77505">
        <ele>775.9</ele>
        <time>2013-08-25T13:16:57Z</time>
      </trkpt>
      <trkpt lat="46.05374" lon="6.77503">
        <ele>776.4</ele>
        <time>2013-08-25T13:17:02Z</time>
      </trkpt>
      <trkpt lat="46.05373" lon="6.77502">
        <ele>775.9</ele>
        <time>2013-08-25T13:17:03Z</time>
      </trkpt>
      <trkpt lat="46.0537" lon="6.77502">
        <ele>775.9</ele>
        <time>2013-08-25T13:17:04Z</time>
      </trkpt>
      <trkpt lat="46.05334" lon="6.77495">
        <ele>777.4</ele>
        <time>2013-08-25T13:17:17Z</time>
      </trkpt>
      <trkpt lat="46.05299" lon="6.77468">
        <ele>779.3</ele>
        <time>2013-08-25T13:17:31Z</time>
      </trkpt>
      <trkpt lat="46.05269" lon="6.77401">
        <ele>782.2</ele>
        <time>2013-08-25T13:17:52Z</time>
      </trkpt>
      <trkpt lat="46.05246" lon="6.77356">
        <ele>785.1</ele>
        <time>2013-08-25T13:18:08Z</time>
      </trkpt>
      <trkpt lat="46.05228" lon="6.77323">
        <ele>787.5</ele>
        <time>2013-08-25T13:18:21Z</time>
      </trkpt>
      <trkpt lat="46.05208" lon="6.77295">
        <ele>789.9</ele>
        <time>2013-08-25T13:18:34Z</time>
      </trkpt>
      <trkpt lat="46.05174" lon="6.77278">
        <ele>791.8</ele>
        <time>2013-08-25T13:18:49Z</time>
      </trkpt>
      <trkpt lat="46.05131" lon="6.77266">
        <ele>795.2</ele>
        <time>2013-08-25T13:19:08Z</time>
      </trkpt>
      <trkpt lat="46.05093" lon="6.77257">
        <ele>798</ele>
        <time>2013-08-25T13:19:24Z</time>
      </trkpt>
      <trkpt lat="46.05051" lon="6.77245">
        <ele>801.4</ele>
        <time>2013-08-25T13:19:43Z</time>
      </trkpt>
      <trkpt lat="46.05016" lon="6.77224">
        <ele>804.8</ele>
        <time>2013-08-25T13:20:00Z</time>
      </trkpt>
      <trkpt lat="46.05014" lon="6.77223">
        <ele>804.8</ele>
        <time>2013-08-25T13:20:01Z</time>
      </trkpt>
      <trkpt lat="46.05012" lon="6.77221">
        <ele>804.8</ele>
        <time>2013-08-25T13:20:02Z</time>
      </trkpt>
      <trkpt lat="46.0501" lon="6.77219">
        <ele>804.8</ele>
        <time>2013-08-25T13:20:03Z</time>
      </trkpt>
      <trkpt lat="46.05002" lon="6.77208">
        <ele>806.2</ele>
        <time>2013-08-25T13:20:08Z</time>
      </trkpt>
      <trkpt lat="46.05" lon="6.77208">
        <ele>806.2</ele>
        <time>2013-08-25T13:20:09Z</time>
      </trkpt>
      <trkpt lat="46.04998" lon="6.77209">
        <ele>806.7</ele>
        <time>2013-08-25T13:20:10Z</time>
      </trkpt>
      <trkpt lat="46.04996" lon="6.77207">
        <ele>806.7</ele>
        <time>2013-08-25T13:20:11Z</time>
      </trkpt>
      <trkpt lat="46.04995" lon="6.77203">
        <ele>806.2</ele>
        <time>2013-08-25T13:20:12Z</time>
      </trkpt>
      <trkpt lat="46.04993" lon="6.77199">
        <ele>806.7</ele>
        <time>2013-08-25T13:20:13Z</time>
      </trkpt>
      <trkpt lat="46.04992" lon="6.77197">
        <ele>807.2</ele>
        <time>2013-08-25T13:20:14Z</time>
      </trkpt>
      <trkpt lat="46.0499" lon="6.77195">
        <ele>807.2</ele>
        <time>2013-08-25T13:20:15Z</time>
      </trkpt>
      <trkpt lat="46.04958" lon="6.77166">
        <ele>810.1</ele>
        <time>2013-08-25T13:20:32Z</time>
      </trkpt>
      <trkpt lat="46.04937" lon="6.77149">
        <ele>811.5</ele>
        <time>2013-08-25T13:20:43Z</time>
      </trkpt>
      <trkpt lat="46.04914" lon="6.77128">
        <ele>813.4</ele>
        <time>2013-08-25T13:20:56Z</time>
      </trkpt>
      <trkpt lat="46.04886" lon="6.77107">
        <ele>815.8</ele>
        <time>2013-08-25T13:21:10Z</time>
      </trkpt>
      <trkpt lat="46.04853" lon="6.77073">
        <ele>819.2</ele>
        <time>2013-08-25T13:21:27Z</time>
      </trkpt>
      <trkpt lat="46.04829" lon="6.77013">
        <ele>821.6</ele>
        <time>2013-08-25T13:21:46Z</time>
      </trkpt>
      <trkpt lat="46.04798" lon="6.76991">
        <ele>824.5</ele>
        <time>2013-08-25T13:22:00Z</time>
      </trkpt>
      <trkpt lat="46.04755" lon="6.76974">
        <ele>827.4</ele>
        <time>2013-08-25T13:22:19Z</time>
      </trkpt>
      <trkpt lat="46.04725" lon="6.76958">
        <ele>829.8</ele>
        <time>2013-08-25T13:22:33Z</time>
      </trkpt>
      <trkpt lat="46.04692" lon="6.76944">
        <ele>832.6</ele>
        <time>2013-08-25T13:22:48Z</time>
      </trkpt>
      <trkpt lat="46.04663" lon="6.76946">
        <ele>834.6</ele>
        <time>2013-08-25T13:23:02Z</time>
      </trkpt>
      <trkpt lat="46.04634" lon="6.7695">
        <ele>837</ele>
        <time>2013-08-25T13:23:15Z</time>
      </trkpt>
      <trkpt lat="46.04599" lon="6.76957">
        <ele>839.4</ele>
        <time>2013-08-25T13:23:29Z</time>
      </trkpt>
      <trkpt lat="46.04596" lon="6.76957">
        <ele>839.4</ele>
        <time>2013-08-25T13:23:32Z</time>
      </trkpt>
      <trkpt lat="46.0457" lon="6.76968">
        <ele>841.8</ele>
        <time>2013-08-25T13:23:45Z</time>
      </trkpt>
      <trkpt lat="46.04543" lon="6.76978">
        <ele>843.7</ele>
        <time>2013-08-25T13:23:58Z</time>
      </trkpt>
      <trkpt lat="46.04527" lon="6.76983">
        <ele>845.1</ele>
        <time>2013-08-25T13:24:05Z</time>
      </trkpt>
      <trkpt lat="46.04497" lon="6.76997">
        <ele>847.1</ele>
        <time>2013-08-25T13:24:21Z</time>
      </trkpt>
      <trkpt lat="46.04461" lon="6.77009">
        <ele>849.5</ele>
        <time>2013-08-25T13:24:37Z</time>
      </trkpt>
      <trkpt lat="46.04431" lon="6.77025">
        <ele>851.4</ele>
        <time>2013-08-25T13:24:51Z</time>
      </trkpt>
      <trkpt lat="46.04394" lon="6.77034">
        <ele>854.3</ele>
        <time>2013-08-25T13:25:08Z</time>
      </trkpt>
      <trkpt lat="46.04358" lon="6.77044">
        <ele>856.7</ele>
        <time>2013-08-25T13:25:25Z</time>
      </trkpt>
      <trkpt lat="46.04338" lon="6.77039">
        <ele>857.6</ele>
        <time>2013-08-25T13:25:37Z</time>
      </trkpt>
      <trkpt lat="46.04335" lon="6.77043">
        <ele>857.6</ele>
        <time>2013-08-25T13:25:49Z</time>
      </trkpt>
      <trkpt lat="46.04334" lon="6.77046">
        <ele>857.6</ele>
        <time>2013-08-25T13:25:52Z</time>
      </trkpt>
      <trkpt lat="46.04306" lon="6.77047">
        <ele>859.6</ele>
        <time>2013-08-25T13:26:06Z</time>
      </trkpt>
      <trkpt lat="46.0427" lon="6.77048">
        <ele>861.5</ele>
        <time>2013-08-25T13:26:20Z</time>
      </trkpt>
      <trkpt lat="46.04208" lon="6.77062">
        <ele>862.9</ele>
        <time>2013-08-25T13:26:40Z</time>
      </trkpt>
      <trkpt lat="46.0416" lon="6.77082">
        <ele>864.4</ele>
        <time>2013-08-25T13:26:54Z</time>
      </trkpt>
      <trkpt lat="46.0412" lon="6.77108">
        <ele>865.8</ele>
        <time>2013-08-25T13:27:07Z</time>
      </trkpt>
      <trkpt lat="46.04074" lon="6.77146">
        <ele>866.3</ele>
        <time>2013-08-25T13:27:22Z</time>
      </trkpt>
      <trkpt lat="46.04059" lon="6.77164">
        <ele>866.3</ele>
        <time>2013-08-25T13:27:27Z</time>
      </trkpt>
      <trkpt lat="46.04036" lon="6.77212">
        <ele>867.7</ele>
        <time>2013-08-25T13:27:41Z</time>
      </trkpt>
      <trkpt lat="46.04033" lon="6.77253">
        <ele>871.1</ele>
        <time>2013-08-25T13:27:55Z</time>
      </trkpt>
      <trkpt lat="46.04032" lon="6.7729">
        <ele>873</ele>
        <time>2013-08-25T13:28:08Z</time>
      </trkpt>
      <trkpt lat="46.04034" lon="6.77292">
        <ele>873</ele>
        <time>2013-08-25T13:28:09Z</time>
      </trkpt>
      <trkpt lat="46.04035" lon="6.77293">
        <ele>873.5</ele>
        <time>2013-08-25T13:28:10Z</time>
      </trkpt>
      <trkpt lat="46.04058" lon="6.77292">
        <ele>874.9</ele>
        <time>2013-08-25T13:28:23Z</time>
      </trkpt>
      <trkpt lat="46.04083" lon="6.77262">
        <ele>878.8</ele>
        <time>2013-08-25T13:28:39Z</time>
      </trkpt>
      <trkpt lat="46.0411" lon="6.77258">
        <ele>881.2</ele>
        <time>2013-08-25T13:28:53Z</time>
      </trkpt>
      <trkpt lat="46.04127" lon="6.77254">
        <ele>882.6</ele>
        <time>2013-08-25T13:29:02Z</time>
      </trkpt>
      <trkpt lat="46.04128" lon="6.77253">
        <ele>882.6</ele>
        <time>2013-08-25T13:29:03Z</time>
      </trkpt>
      <trkpt lat="46.0413" lon="6.77252">
        <ele>882.2</ele>
        <time>2013-08-25T13:29:04Z</time>
      </trkpt>
      <trkpt lat="46.04132" lon="6.77252">
        <ele>883.6</ele>
        <time>2013-08-25T13:29:05Z</time>
      </trkpt>
      <trkpt lat="46.04134" lon="6.77252">
        <ele>884.1</ele>
        <time>2013-08-25T13:29:06Z</time>
      </trkpt>
      <trkpt lat="46.04157" lon="6.77252">
        <ele>885</ele>
        <time>2013-08-25T13:29:19Z</time>
      </trkpt>
      <trkpt lat="46.04169" lon="6.77257">
        <ele>887</ele>
        <time>2013-08-25T13:29:26Z</time>
      </trkpt>
      <trkpt lat="46.0417" lon="6.77259">
        <ele>887</ele>
        <time>2013-08-25T13:29:27Z</time>
      </trkpt>
      <trkpt lat="46.04172" lon="6.77262">
        <ele>887.4</ele>
        <time>2013-08-25T13:29:28Z</time>
      </trkpt>
      <trkpt lat="46.04175" lon="6.77277">
        <ele>888.4</ele>
        <time>2013-08-25T13:29:34Z</time>
      </trkpt>
      <trkpt lat="46.04158" lon="6.77293">
        <ele>889.8</ele>
        <time>2013-08-25T13:29:45Z</time>
      </trkpt>
      <trkpt lat="46.04142" lon="6.77321">
        <ele>892.2</ele>
        <time>2013-08-25T13:29:59Z</time>
      </trkpt>
      <trkpt lat="46.04132" lon="6.77359">
        <ele>895.6</ele>
        <time>2013-08-25T13:30:15Z</time>
      </trkpt>
      <trkpt lat="46.04125" lon="6.77398">
        <ele>898</ele>
        <time>2013-08-25T13:30:30Z</time>
      </trkpt>
      <trkpt lat="46.04118" lon="6.77436">
        <ele>900.4</ele>
        <time>2013-08-25T13:30:44Z</time>
      </trkpt>
      <trkpt lat="46.04117" lon="6.77443">
        <ele>899.9</ele>
        <time>2013-08-25T13:30:48Z</time>
      </trkpt>
      <trkpt lat="46.04117" lon="6.77445">
        <ele>899.9</ele>
        <time>2013-08-25T13:30:49Z</time>
      </trkpt>
      <trkpt lat="46.04108" lon="6.77452">
        <ele>900.4</ele>
        <time>2013-08-25T13:30:59Z</time>
      </trkpt>
      <trkpt lat="46.04109" lon="6.7745">
        <ele>900.4</ele>
        <time>2013-08-25T13:31:01Z</time>
      </trkpt>
      <trkpt lat="46.04117" lon="6.77444">
        <ele>900.4</ele>
        <time>2013-08-25T13:31:11Z</time>
      </trkpt>
      <trkpt lat="46.04117" lon="6.77449">
        <ele>900.9</ele>
        <time>2013-08-25T13:31:33Z</time>
      </trkpt>
      <trkpt lat="46.04119" lon="6.77447">
        <ele>897.1</ele>
        <time>2013-08-25T13:31:47Z</time>
      </trkpt>
      <trkpt lat="46.04119" lon="6.77447">
        <ele>903.3</ele>
        <time>2013-08-25T13:31:48Z</time>
      </trkpt>
      <trkpt lat="46.04117" lon="6.77447">
        <ele>899.9</ele>
        <time>2013-08-25T13:31:52Z</time>
      </trkpt>
      <trkpt lat="46.04116" lon="6.77446">
        <ele>900.9</ele>
        <time>2013-08-25T13:32:19Z</time>
      </trkpt>
      <trkpt lat="46.04118" lon="6.77445">
        <ele>902.3</ele>
        <time>2013-08-25T13:32:35Z</time>
      </trkpt>
      <trkpt lat="46.04118" lon="6.77441">
        <ele>901.4</ele>
        <time>2013-08-25T13:32:56Z</time>
      </trkpt>
      <trkpt lat="46.04115" lon="6.77433">
        <ele>901.4</ele>
        <time>2013-08-25T13:33:30Z</time>
      </trkpt>
      <trkpt lat="46.04116" lon="6.77427">
        <ele>901.4</ele>
        <time>2013-08-25T13:34:04Z</time>
      </trkpt>
      <trkpt lat="46.04113" lon="6.77425">
        <ele>901.9</ele>
        <time>2013-08-25T13:34:32Z</time>
      </trkpt>
      <trkpt lat="46.04108" lon="6.77422">
        <ele>901.4</ele>
        <time>2013-08-25T13:35:04Z</time>
      </trkpt>
      <trkpt lat="46.0411" lon="6.77432">
        <ele>902.3</ele>
        <time>2013-08-25T13:35:41Z</time>
      </trkpt>
      <trkpt lat="46.04105" lon="6.77427">
        <ele>902.3</ele>
        <time>2013-08-25T13:36:25Z</time>
      </trkpt>
      <trkpt lat="46.04104" lon="6.7743">
        <ele>903.3</ele>
        <time>2013-08-25T13:36:58Z</time>
      </trkpt>
      <trkpt lat="46.04105" lon="6.77425">
        <ele>903.3</ele>
        <time>2013-08-25T13:37:27Z</time>
      </trkpt>
      <trkpt lat="46.04104" lon="6.7742">
        <ele>903.8</ele>
        <time>2013-08-25T13:38:00Z</time>
      </trkpt>
      <trkpt lat="46.04104" lon="6.77419">
        <ele>902.8</ele>
        <time>2013-08-25T13:38:26Z</time>
      </trkpt>
      <trkpt lat="46.04103" lon="6.77419">
        <ele>903.3</ele>
        <time>2013-08-25T13:38:27Z</time>
      </trkpt>
      <trkpt lat="46.04082" lon="6.77449">
        <ele>904.3</ele>
        <time>2013-08-25T13:38:42Z</time>
      </trkpt>
      <trkpt lat="46.04065" lon="6.77479">
        <ele>905.2</ele>
        <time>2013-08-25T13:38:56Z</time>
      </trkpt>
      <trkpt lat="46.04064" lon="6.7748">
        <ele>905.7</ele>
        <time>2013-08-25T13:38:58Z</time>
      </trkpt>
      <trkpt lat="46.04024" lon="6.77473">
        <ele>908.1</ele>
        <time>2013-08-25T13:39:12Z</time>
      </trkpt>
      <trkpt lat="46.04007" lon="6.77461">
        <ele>910</ele>
        <time>2013-08-25T13:39:22Z</time>
      </trkpt>
      <trkpt lat="46.04006" lon="6.77461">
        <ele>910</ele>
        <time>2013-08-25T13:39:23Z</time>
      </trkpt>
      <trkpt lat="46.04005" lon="6.77459">
        <ele>910.5</ele>
        <time>2013-08-25T13:39:24Z</time>
      </trkpt>
      <trkpt lat="46.04005" lon="6.77458">
        <ele>911</ele>
        <time>2013-08-25T13:39:25Z</time>
      </trkpt>
      <trkpt lat="46.04005" lon="6.77456">
        <ele>911.5</ele>
        <time>2013-08-25T13:39:26Z</time>
      </trkpt>
      <trkpt lat="46.04005" lon="6.77454">
        <ele>911</ele>
        <time>2013-08-25T13:39:27Z</time>
      </trkpt>
      <trkpt lat="46.04004" lon="6.77453">
        <ele>911.5</ele>
        <time>2013-08-25T13:39:28Z</time>
      </trkpt>
      <trkpt lat="46.03973" lon="6.77428">
        <ele>914.4</ele>
        <time>2013-08-25T13:39:43Z</time>
      </trkpt>
      <trkpt lat="46.03963" lon="6.7743">
        <ele>914.4</ele>
        <time>2013-08-25T13:39:48Z</time>
      </trkpt>
      <trkpt lat="46.03962" lon="6.77431">
        <ele>913.9</ele>
        <time>2013-08-25T13:39:49Z</time>
      </trkpt>
      <trkpt lat="46.0396" lon="6.77431">
        <ele>914.4</ele>
        <time>2013-08-25T13:39:50Z</time>
      </trkpt>
      <trkpt lat="46.03949" lon="6.77441">
        <ele>915.3</ele>
        <time>2013-08-25T13:39:59Z</time>
      </trkpt>
      <trkpt lat="46.03948" lon="6.77443">
        <ele>915.3</ele>
        <time>2013-08-25T13:40:00Z</time>
      </trkpt>
      <trkpt lat="46.0393" lon="6.77456">
        <ele>917.7</ele>
        <time>2013-08-25T13:40:14Z</time>
      </trkpt>
      <trkpt lat="46.03928" lon="6.77457">
        <ele>918.7</ele>
        <time>2013-08-25T13:40:17Z</time>
      </trkpt>
      <trkpt lat="46.0392" lon="6.77458">
        <ele>919.2</ele>
        <time>2013-08-25T13:40:22Z</time>
      </trkpt>
      <trkpt lat="46.03918" lon="6.77457">
        <ele>919.2</ele>
        <time>2013-08-25T13:40:23Z</time>
      </trkpt>
      <trkpt lat="46.03896" lon="6.7746">
        <ele>921.1</ele>
        <time>2013-08-25T13:40:32Z</time>
      </trkpt>
      <trkpt lat="46.03863" lon="6.77469">
        <ele>923</ele>
        <time>2013-08-25T13:40:47Z</time>
      </trkpt>
      <trkpt lat="46.03832" lon="6.77477">
        <ele>926.4</ele>
        <time>2013-08-25T13:41:03Z</time>
      </trkpt>
      <trkpt lat="46.03801" lon="6.77483">
        <ele>928.8</ele>
        <time>2013-08-25T13:41:19Z</time>
      </trkpt>
      <trkpt lat="46.03779" lon="6.77493">
        <ele>931.2</ele>
        <time>2013-08-25T13:41:34Z</time>
      </trkpt>
      <trkpt lat="46.03763" lon="6.77513">
        <ele>933.6</ele>
        <time>2013-08-25T13:41:49Z</time>
      </trkpt>
      <trkpt lat="46.03765" lon="6.77524">
        <ele>935</ele>
        <time>2013-08-25T13:41:55Z</time>
      </trkpt>
      <trkpt lat="46.03758" lon="6.77529">
        <ele>936.5</ele>
        <time>2013-08-25T13:42:05Z</time>
      </trkpt>
      <trkpt lat="46.03741" lon="6.77528">
        <ele>940.3</ele>
        <time>2013-08-25T13:42:16Z</time>
      </trkpt>
      <trkpt lat="46.03732" lon="6.77529">
        <ele>941.3</ele>
        <time>2013-08-25T13:42:24Z</time>
      </trkpt>
      <trkpt lat="46.03731" lon="6.7753">
        <ele>941.8</ele>
        <time>2013-08-25T13:42:25Z</time>
      </trkpt>
      <trkpt lat="46.0373" lon="6.77531">
        <ele>942.2</ele>
        <time>2013-08-25T13:42:26Z</time>
      </trkpt>
      <trkpt lat="46.03715" lon="6.77534">
        <ele>945.1</ele>
        <time>2013-08-25T13:42:38Z</time>
      </trkpt>
      <trkpt lat="46.03704" lon="6.77536">
        <ele>947.5</ele>
        <time>2013-08-25T13:42:53Z</time>
      </trkpt>
      <trkpt lat="46.037" lon="6.77534">
        <ele>948.5</ele>
        <time>2013-08-25T13:43:10Z</time>
      </trkpt>
      <trkpt lat="46.03684" lon="6.77528">
        <ele>950.4</ele>
        <time>2013-08-25T13:43:31Z</time>
      </trkpt>
      <trkpt lat="46.03676" lon="6.77535">
        <ele>953.8</ele>
        <time>2013-08-25T13:43:49Z</time>
      </trkpt>
      <trkpt lat="46.03675" lon="6.77533">
        <ele>953.8</ele>
        <time>2013-08-25T13:44:11Z</time>
      </trkpt>
      <trkpt lat="46.03673" lon="6.7753">
        <ele>954.3</ele>
        <time>2013-08-25T13:44:32Z</time>
      </trkpt>
      <trkpt lat="46.03672" lon="6.77534">
        <ele>955.2</ele>
        <time>2013-08-25T13:44:48Z</time>
      </trkpt>
      <trkpt lat="46.03682" lon="6.77545">
        <ele>953.8</ele>
        <time>2013-08-25T13:45:22Z</time>
      </trkpt>
      <trkpt lat="46.03681" lon="6.77526">
        <ele>954.3</ele>
        <time>2013-08-25T13:45:56Z</time>
      </trkpt>
      <trkpt lat="46.03683" lon="6.77523">
        <ele>954.3</ele>
        <time>2013-08-25T13:46:23Z</time>
      </trkpt>
      <trkpt lat="46.03684" lon="6.77529">
        <ele>954.7</ele>
        <time>2013-08-25T13:46:54Z</time>
      </trkpt>
      <trkpt lat="46.0368" lon="6.77525">
        <ele>954.3</ele>
        <time>2013-08-25T13:47:27Z</time>
      </trkpt>
      <trkpt lat="46.03684" lon="6.77529">
        <ele>954.7</ele>
        <time>2013-08-25T13:47:50Z</time>
      </trkpt>
      <trkpt lat="46.03678" lon="6.77538">
        <ele>955.7</ele>
        <time>2013-08-25T13:48:17Z</time>
      </trkpt>
      <trkpt lat="46.0367" lon="6.77558">
        <ele>958.1</ele>
        <time>2013-08-25T13:48:32Z</time>
      </trkpt>
      <trkpt lat="46.03663" lon="6.77562">
        <ele>960.5</ele>
        <time>2013-08-25T13:48:45Z</time>
      </trkpt>
      <trkpt lat="46.03662" lon="6.77576">
        <ele>963.4</ele>
        <time>2013-08-25T13:49:01Z</time>
      </trkpt>
      <trkpt lat="46.03658" lon="6.77589">
        <ele>965.3</ele>
        <time>2013-08-25T13:49:21Z</time>
      </trkpt>
      <trkpt lat="46.03652" lon="6.77594">
        <ele>967.7</ele>
        <time>2013-08-25T13:49:37Z</time>
      </trkpt>
      <trkpt lat="46.03645" lon="6.77607">
        <ele>970.1</ele>
        <time>2013-08-25T13:49:52Z</time>
      </trkpt>
      <trkpt lat="46.03643" lon="6.7761">
        <ele>972</ele>
        <time>2013-08-25T13:49:59Z</time>
      </trkpt>
      <trkpt lat="46.03643" lon="6.77611">
        <ele>972.5</ele>
        <time>2013-08-25T13:50:00Z</time>
      </trkpt>
      <trkpt lat="46.03635" lon="6.77621">
        <ele>974.4</ele>
        <time>2013-08-25T13:50:14Z</time>
      </trkpt>
      <trkpt lat="46.03626" lon="6.77626">
        <ele>975.4</ele>
        <time>2013-08-25T13:50:25Z</time>
      </trkpt>
      <trkpt lat="46.03623" lon="6.77629">
        <ele>977.8</ele>
        <time>2013-08-25T13:50:41Z</time>
      </trkpt>
      <trkpt lat="46.03618" lon="6.77635">
        <ele>979.2</ele>
        <time>2013-08-25T13:50:55Z</time>
      </trkpt>
      <trkpt lat="46.03624" lon="6.77635">
        <ele>981.6</ele>
        <time>2013-08-25T13:51:10Z</time>
      </trkpt>
      <trkpt lat="46.0361" lon="6.77634">
        <ele>984.1</ele>
        <time>2013-08-25T13:51:23Z</time>
      </trkpt>
      <trkpt lat="46.03605" lon="6.77634">
        <ele>986</ele>
        <time>2013-08-25T13:51:38Z</time>
      </trkpt>
      <trkpt lat="46.036" lon="6.7763">
        <ele>988.9</ele>
        <time>2013-08-25T13:51:52Z</time>
      </trkpt>
      <trkpt lat="46.03582" lon="6.77633">
        <ele>990.3</ele>
        <time>2013-08-25T13:52:10Z</time>
      </trkpt>
      <trkpt lat="46.03579" lon="6.77636">
        <ele>992.2</ele>
        <time>2013-08-25T13:52:22Z</time>
      </trkpt>
      <trkpt lat="46.03568" lon="6.77637">
        <ele>995.6</ele>
        <time>2013-08-25T13:52:34Z</time>
      </trkpt>
      <trkpt lat="46.03563" lon="6.77636">
        <ele>996.5</ele>
        <time>2013-08-25T13:52:45Z</time>
      </trkpt>
      <trkpt lat="46.03562" lon="6.77639">
        <ele>999.4</ele>
        <time>2013-08-25T13:53:00Z</time>
      </trkpt>
      <trkpt lat="46.0356" lon="6.77642">
        <ele>1001.8</ele>
        <time>2013-08-25T13:53:13Z</time>
      </trkpt>
      <trkpt lat="46.03556" lon="6.77645">
        <ele>1004.2</ele>
        <time>2013-08-25T13:53:31Z</time>
      </trkpt>
      <trkpt lat="46.03547" lon="6.77651">
        <ele>1006.6</ele>
        <time>2013-08-25T13:53:48Z</time>
      </trkpt>
      <trkpt lat="46.03543" lon="6.77657">
        <ele>1008.1</ele>
        <time>2013-08-25T13:54:00Z</time>
      </trkpt>
      <trkpt lat="46.03533" lon="6.77652">
        <ele>1008.1</ele>
        <time>2013-08-25T13:54:04Z</time>
      </trkpt>
      <trkpt lat="46.03524" lon="6.77648">
        <ele>1009.5</ele>
        <time>2013-08-25T13:54:06Z</time>
      </trkpt>
      <trkpt lat="46.03509" lon="6.77654">
        <ele>1011</ele>
        <time>2013-08-25T13:54:18Z</time>
      </trkpt>
      <trkpt lat="46.03505" lon="6.7766">
        <ele>1011.9</ele>
        <time>2013-08-25T13:54:25Z</time>
      </trkpt>
      <trkpt lat="46.03502" lon="6.77662">
        <ele>1012.4</ele>
        <time>2013-08-25T13:54:28Z</time>
      </trkpt>
      <trkpt lat="46.03494" lon="6.77672">
        <ele>1013.4</ele>
        <time>2013-08-25T13:54:40Z</time>
      </trkpt>
      <trkpt lat="46.03493" lon="6.7768">
        <ele>1013.9</ele>
        <time>2013-08-25T13:54:52Z</time>
      </trkpt>
      <trkpt lat="46.03477" lon="6.77686">
        <ele>1016.3</ele>
        <time>2013-08-25T13:55:02Z</time>
      </trkpt>
      <trkpt lat="46.03476" lon="6.77686">
        <ele>1016.3</ele>
        <time>2013-08-25T13:55:03Z</time>
      </trkpt>
      <trkpt lat="46.03473" lon="6.77686">
        <ele>1018.7</ele>
        <time>2013-08-25T13:55:11Z</time>
      </trkpt>
      <trkpt lat="46.03472" lon="6.77686">
        <ele>1019.1</ele>
        <time>2013-08-25T13:55:12Z</time>
      </trkpt>
      <trkpt lat="46.03463" lon="6.77682">
        <ele>1021.5</ele>
        <time>2013-08-25T13:55:23Z</time>
      </trkpt>
      <trkpt lat="46.03462" lon="6.77682">
        <ele>1023.5</ele>
        <time>2013-08-25T13:55:34Z</time>
      </trkpt>
      <trkpt lat="46.03443" lon="6.77677">
        <ele>1023.5</ele>
        <time>2013-08-25T13:56:03Z</time>
      </trkpt>
      <trkpt lat="46.0341" lon="6.77676">
        <ele>1023.9</ele>
        <time>2013-08-25T13:56:33Z</time>
      </trkpt>
      <trkpt lat="46.03419" lon="6.77669">
        <ele>1023.5</ele>
        <time>2013-08-25T13:57:06Z</time>
      </trkpt>
      <trkpt lat="46.03415" lon="6.77684">
        <ele>1024.9</ele>
        <time>2013-08-25T13:57:31Z</time>
      </trkpt>
      <trkpt lat="46.03411" lon="6.77682">
        <ele>1024.9</ele>
        <time>2013-08-25T13:57:36Z</time>
      </trkpt>
      <trkpt lat="46.03414" lon="6.77682">
        <ele>1026.3</ele>
        <time>2013-08-25T13:57:40Z</time>
      </trkpt>
      <trkpt lat="46.0343" lon="6.77684">
        <ele>1028.3</ele>
        <time>2013-08-25T13:57:52Z</time>
      </trkpt>
      <trkpt lat="46.03435" lon="6.77681">
        <ele>1030.7</ele>
        <time>2013-08-25T13:58:05Z</time>
      </trkpt>
      <trkpt lat="46.03444" lon="6.77679">
        <ele>1033.1</ele>
        <time>2013-08-25T13:58:20Z</time>
      </trkpt>
      <trkpt lat="46.03455" lon="6.77675">
        <ele>1036</ele>
        <time>2013-08-25T13:58:32Z</time>
      </trkpt>
      <trkpt lat="46.03478" lon="6.77673">
        <ele>1039.3</ele>
        <time>2013-08-25T13:58:44Z</time>
      </trkpt>
      <trkpt lat="46.03478" lon="6.77671">
        <ele>1040.3</ele>
        <time>2013-08-25T13:58:48Z</time>
      </trkpt>
      <trkpt lat="46.03469" lon="6.77664">
        <ele>1039.8</ele>
        <time>2013-08-25T13:58:58Z</time>
      </trkpt>
      <trkpt lat="46.03463" lon="6.7766">
        <ele>1040.3</ele>
        <time>2013-08-25T13:59:03Z</time>
      </trkpt>
      <trkpt lat="46.03463" lon="6.7766">
        <ele>1040.8</ele>
        <time>2013-08-25T13:59:04Z</time>
      </trkpt>
      <trkpt lat="46.03457" lon="6.77654">
        <ele>1041.7</ele>
        <time>2013-08-25T13:59:13Z</time>
      </trkpt>
      <trkpt lat="46.0345" lon="6.77652">
        <ele>1043.2</ele>
        <time>2013-08-25T13:59:22Z</time>
      </trkpt>
      <trkpt lat="46.03443" lon="6.77649">
        <ele>1045.6</ele>
        <time>2013-08-25T13:59:34Z</time>
      </trkpt>
      <trkpt lat="46.03439" lon="6.77647">
        <ele>1046.5</ele>
        <time>2013-08-25T13:59:47Z</time>
      </trkpt>
      <trkpt lat="46.03434" lon="6.77646">
        <ele>1048</ele>
        <time>2013-08-25T13:59:49Z</time>
      </trkpt>
      <trkpt lat="46.03423" lon="6.7764">
        <ele>1050.4</ele>
        <time>2013-08-25T14:00:01Z</time>
      </trkpt>
      <trkpt lat="46.03407" lon="6.77632">
        <ele>1052.8</ele>
        <time>2013-08-25T14:00:12Z</time>
      </trkpt>
      <trkpt lat="46.03392" lon="6.77626">
        <ele>1054.7</ele>
        <time>2013-08-25T14:00:25Z</time>
      </trkpt>
      <trkpt lat="46.03378" lon="6.77633">
        <ele>1056.6</ele>
        <time>2013-08-25T14:00:36Z</time>
      </trkpt>
      <trkpt lat="46.03373" lon="6.77639">
        <ele>1058.1</ele>
        <time>2013-08-25T14:00:47Z</time>
      </trkpt>
      <trkpt lat="46.03371" lon="6.77638">
        <ele>1058.1</ele>
        <time>2013-08-25T14:01:03Z</time>
      </trkpt>
      <trkpt lat="46.03355" lon="6.77644">
        <ele>1059.5</ele>
        <time>2013-08-25T14:01:15Z</time>
      </trkpt>
      <trkpt lat="46.03345" lon="6.77644">
        <ele>1061.9</ele>
        <time>2013-08-25T14:01:28Z</time>
      </trkpt>
      <trkpt lat="46.03333" lon="6.77654">
        <ele>1063.8</ele>
        <time>2013-08-25T14:01:44Z</time>
      </trkpt>
      <trkpt lat="46.03294" lon="6.77651">
        <ele>1063.8</ele>
        <time>2013-08-25T14:02:02Z</time>
      </trkpt>
      <trkpt lat="46.03277" lon="6.77645">
        <ele>1063.4</ele>
        <time>2013-08-25T14:02:29Z</time>
      </trkpt>
      <trkpt lat="46.03273" lon="6.7764">
        <ele>1063.4</ele>
        <time>2013-08-25T14:02:57Z</time>
      </trkpt>
      <trkpt lat="46.03256" lon="6.77642">
        <ele>1063.4</ele>
        <time>2013-08-25T14:03:33Z</time>
      </trkpt>
      <trkpt lat="46.03253" lon="6.77645">
        <ele>1063.4</ele>
        <time>2013-08-25T14:04:00Z</time>
      </trkpt>
      <trkpt lat="46.0325" lon="6.77643">
        <ele>1064.3</ele>
        <time>2013-08-25T14:04:19Z</time>
      </trkpt>
      <trkpt lat="46.0324" lon="6.7764">
        <ele>1064.3</ele>
        <time>2013-08-25T14:04:26Z</time>
      </trkpt>
      <trkpt lat="46.03231" lon="6.77635">
        <ele>1066.7</ele>
        <time>2013-08-25T14:04:38Z</time>
      </trkpt>
      <trkpt lat="46.03228" lon="6.77634">
        <ele>1068.6</ele>
        <time>2013-08-25T14:04:48Z</time>
      </trkpt>
      <trkpt lat="46.03222" lon="6.77631">
        <ele>1070.1</ele>
        <time>2013-08-25T14:04:54Z</time>
      </trkpt>
      <trkpt lat="46.03204" lon="6.77631">
        <ele>1073.5</ele>
        <time>2013-08-25T14:05:07Z</time>
      </trkpt>
      <trkpt lat="46.03199" lon="6.77632">
        <ele>1075.4</ele>
        <time>2013-08-25T14:05:15Z</time>
      </trkpt>
      <trkpt lat="46.03187" lon="6.77633">
        <ele>1078.7</ele>
        <time>2013-08-25T14:05:27Z</time>
      </trkpt>
      <trkpt lat="46.03167" lon="6.7764">
        <ele>1081.6</ele>
        <time>2013-08-25T14:05:40Z</time>
      </trkpt>
      <trkpt lat="46.03162" lon="6.77645">
        <ele>1083.1</ele>
        <time>2013-08-25T14:05:47Z</time>
      </trkpt>
      <trkpt lat="46.0316" lon="6.77657">
        <ele>1086.9</ele>
        <time>2013-08-25T14:05:57Z</time>
      </trkpt>
      <trkpt lat="46.0316" lon="6.77658">
        <ele>1086.9</ele>
        <time>2013-08-25T14:05:58Z</time>
      </trkpt>
      <trkpt lat="46.0316" lon="6.77659">
        <ele>1084.5</ele>
        <time>2013-08-25T14:05:59Z</time>
      </trkpt>
      <trkpt lat="46.03158" lon="6.77662">
        <ele>1083.1</ele>
        <time>2013-08-25T14:06:01Z</time>
      </trkpt>
      <trkpt lat="46.03158" lon="6.77663">
        <ele>1085</ele>
        <time>2013-08-25T14:06:02Z</time>
      </trkpt>
      <trkpt lat="46.03149" lon="6.7767">
        <ele>1085</ele>
        <time>2013-08-25T14:06:12Z</time>
      </trkpt>
      <trkpt lat="46.03132" lon="6.77682">
        <ele>1085</ele>
        <time>2013-08-25T14:06:22Z</time>
      </trkpt>
      <trkpt lat="46.03129" lon="6.77689">
        <ele>1085</ele>
        <time>2013-08-25T14:06:37Z</time>
      </trkpt>
      <trkpt lat="46.03129" lon="6.7769">
        <ele>1083.5</ele>
        <time>2013-08-25T14:06:38Z</time>
      </trkpt>
      <trkpt lat="46.03129" lon="6.7769">
        <ele>1083.5</ele>
        <time>2013-08-25T14:07:05Z</time>
      </trkpt>
      <trkpt lat="46.0312" lon="6.77687">
        <ele>1084.5</ele>
        <time>2013-08-25T14:07:31Z</time>
      </trkpt>
      <trkpt lat="46.0312" lon="6.77686">
        <ele>1084.5</ele>
        <time>2013-08-25T14:07:32Z</time>
      </trkpt>
      <trkpt lat="46.03119" lon="6.7768">
        <ele>1084.5</ele>
        <time>2013-08-25T14:07:38Z</time>
      </trkpt>
      <trkpt lat="46.03125" lon="6.77676">
        <ele>1084.5</ele>
        <time>2013-08-25T14:07:42Z</time>
      </trkpt>
      <trkpt lat="46.03128" lon="6.77676">
        <ele>1085</ele>
        <time>2013-08-25T14:07:44Z</time>
      </trkpt>
      <trkpt lat="46.03137" lon="6.77663">
        <ele>1084.5</ele>
        <time>2013-08-25T14:07:58Z</time>
      </trkpt>
      <trkpt lat="46.03136" lon="6.7766">
        <ele>1084.5</ele>
        <time>2013-08-25T14:08:16Z</time>
      </trkpt>
      <trkpt lat="46.03129" lon="6.77654">
        <ele>1084.5</ele>
        <time>2013-08-25T14:08:37Z</time>
      </trkpt>
      <trkpt lat="46.03125" lon="6.77656">
        <ele>1084.5</ele>
        <time>2013-08-25T14:08:51Z</time>
      </trkpt>
      <trkpt lat="46.03125" lon="6.77656">
        <ele>1085</ele>
        <time>2013-08-25T14:08:53Z</time>
      </trkpt>
      <trkpt lat="46.03113" lon="6.77669">
        <ele>1084.5</ele>
        <time>2013-08-25T14:09:02Z</time>
      </trkpt>
      <trkpt lat="46.03114" lon="6.77681">
        <ele>1084</ele>
        <time>2013-08-25T14:09:06Z</time>
      </trkpt>
      <trkpt lat="46.03115" lon="6.7769">
        <ele>1084</ele>
        <time>2013-08-25T14:09:09Z</time>
      </trkpt>
      <trkpt lat="46.03104" lon="6.77713">
        <ele>1081.1</ele>
        <time>2013-08-25T14:09:15Z</time>
      </trkpt>
      <trkpt lat="46.03102" lon="6.77716">
        <ele>1080.7</ele>
        <time>2013-08-25T14:09:16Z</time>
      </trkpt>
      <trkpt lat="46.03081" lon="6.77738">
        <ele>1078.7</ele>
        <time>2013-08-25T14:09:21Z</time>
      </trkpt>
      <trkpt lat="46.03077" lon="6.77741">
        <ele>1078.3</ele>
        <time>2013-08-25T14:09:22Z</time>
      </trkpt>
      <trkpt lat="46.03064" lon="6.77747">
        <ele>1077.3</ele>
        <time>2013-08-25T14:09:24Z</time>
      </trkpt>
      <trkpt lat="46.03058" lon="6.77751">
        <ele>1077.3</ele>
        <time>2013-08-25T14:09:25Z</time>
      </trkpt>
      <trkpt lat="46.03" lon="6.77797">
        <ele>1074.4</ele>
        <time>2013-08-25T14:09:35Z</time>
      </trkpt>
      <trkpt lat="46.02996" lon="6.778">
        <ele>1074.9</ele>
        <time>2013-08-25T14:09:36Z</time>
      </trkpt>
      <trkpt lat="46.02986" lon="6.77799">
        <ele>1075.4</ele>
        <time>2013-08-25T14:09:41Z</time>
      </trkpt>
      <trkpt lat="46.02984" lon="6.77791">
        <ele>1073.9</ele>
        <time>2013-08-25T14:09:47Z</time>
      </trkpt>
      <trkpt lat="46.02955" lon="6.77795">
        <ele>1073.9</ele>
        <time>2013-08-25T14:09:59Z</time>
      </trkpt>
      <trkpt lat="46.02934" lon="6.77801">
        <ele>1073.5</ele>
        <time>2013-08-25T14:10:16Z</time>
      </trkpt>
      <trkpt lat="46.0291" lon="6.77809">
        <ele>1071.5</ele>
        <time>2013-08-25T14:10:23Z</time>
      </trkpt>
      <trkpt lat="46.02902" lon="6.77819">
        <ele>1070.1</ele>
        <time>2013-08-25T14:10:25Z</time>
      </trkpt>
      <trkpt lat="46.02898" lon="6.77826">
        <ele>1069.6</ele>
        <time>2013-08-25T14:10:26Z</time>
      </trkpt>
      <trkpt lat="46.02894" lon="6.77835">
        <ele>1069.6</ele>
        <time>2013-08-25T14:10:27Z</time>
      </trkpt>
      <trkpt lat="46.02846" lon="6.77904">
        <ele>1067.7</ele>
        <time>2013-08-25T14:10:39Z</time>
      </trkpt>
      <trkpt lat="46.02819" lon="6.77932">
        <ele>1069.1</ele>
        <time>2013-08-25T14:10:50Z</time>
      </trkpt>
      <trkpt lat="46.02795" lon="6.77976">
        <ele>1068.2</ele>
        <time>2013-08-25T14:11:01Z</time>
      </trkpt>
      <trkpt lat="46.02776" lon="6.78016">
        <ele>1067.7</ele>
        <time>2013-08-25T14:11:12Z</time>
      </trkpt>
      <trkpt lat="46.02738" lon="6.78056">
        <ele>1069.6</ele>
        <time>2013-08-25T14:11:26Z</time>
      </trkpt>
      <trkpt lat="46.02729" lon="6.78067">
        <ele>1070.6</ele>
        <time>2013-08-25T14:11:31Z</time>
      </trkpt>
      <trkpt lat="46.02728" lon="6.78068">
        <ele>1070.6</ele>
        <time>2013-08-25T14:11:32Z</time>
      </trkpt>
      <trkpt lat="46.02721" lon="6.78081">
        <ele>1070.6</ele>
        <time>2013-08-25T14:11:39Z</time>
      </trkpt>
      <trkpt lat="46.02722" lon="6.7812">
        <ele>1070.6</ele>
        <time>2013-08-25T14:11:53Z</time>
      </trkpt>
      <trkpt lat="46.02721" lon="6.78122">
        <ele>1071.1</ele>
        <time>2013-08-25T14:11:55Z</time>
      </trkpt>
      <trkpt lat="46.02671" lon="6.78147">
        <ele>1073.9</ele>
        <time>2013-08-25T14:12:11Z</time>
      </trkpt>
      <trkpt lat="46.02633" lon="6.78153">
        <ele>1074.4</ele>
        <time>2013-08-25T14:12:14Z</time>
      </trkpt>
      <trkpt lat="46.02629" lon="6.78155">
        <ele>1074.9</ele>
        <time>2013-08-25T14:12:15Z</time>
      </trkpt>
      <trkpt lat="46.02626" lon="6.78158">
        <ele>1074.4</ele>
        <time>2013-08-25T14:12:16Z</time>
      </trkpt>
      <trkpt lat="46.02624" lon="6.7816">
        <ele>1074.9</ele>
        <time>2013-08-25T14:12:17Z</time>
      </trkpt>
      <trkpt lat="46.02621" lon="6.78162">
        <ele>1074.4</ele>
        <time>2013-08-25T14:12:18Z</time>
      </trkpt>
      <trkpt lat="46.02619" lon="6.78164">
        <ele>1074.9</ele>
        <time>2013-08-25T14:12:19Z</time>
      </trkpt>
      <trkpt lat="46.0261" lon="6.78174">
        <ele>1075.4</ele>
        <time>2013-08-25T14:12:25Z</time>
      </trkpt>
      <trkpt lat="46.0261" lon="6.78177">
        <ele>1074.9</ele>
        <time>2013-08-25T14:12:26Z</time>
      </trkpt>
      <trkpt lat="46.02611" lon="6.7818">
        <ele>1075.4</ele>
        <time>2013-08-25T14:12:27Z</time>
      </trkpt>
      <trkpt lat="46.02611" lon="6.78183">
        <ele>1075.4</ele>
        <time>2013-08-25T14:12:28Z</time>
      </trkpt>
      <trkpt lat="46.02612" lon="6.78186">
        <ele>1075.9</ele>
        <time>2013-08-25T14:12:29Z</time>
      </trkpt>
      <trkpt lat="46.02612" lon="6.78188">
        <ele>1075.9</ele>
        <time>2013-08-25T14:12:30Z</time>
      </trkpt>
      <trkpt lat="46.02613" lon="6.78191">
        <ele>1076.3</ele>
        <time>2013-08-25T14:12:31Z</time>
      </trkpt>
      <trkpt lat="46.02613" lon="6.78192">
        <ele>1075.9</ele>
        <time>2013-08-25T14:12:32Z</time>
      </trkpt>
      <trkpt lat="46.02612" lon="6.78215">
        <ele>1078.3</ele>
        <time>2013-08-25T14:12:44Z</time>
      </trkpt>
      <trkpt lat="46.02611" lon="6.78225">
        <ele>1080.2</ele>
        <time>2013-08-25T14:12:52Z</time>
      </trkpt>
      <trkpt lat="46.02607" lon="6.7823">
        <ele>1081.1</ele>
        <time>2013-08-25T14:12:56Z</time>
      </trkpt>
      <trkpt lat="46.02584" lon="6.78243">
        <ele>1084</ele>
        <time>2013-08-25T14:13:10Z</time>
      </trkpt>
      <trkpt lat="46.02561" lon="6.78252">
        <ele>1086.4</ele>
        <time>2013-08-25T14:13:24Z</time>
      </trkpt>
      <trkpt lat="46.02556" lon="6.78257">
        <ele>1087.9</ele>
        <time>2013-08-25T14:13:27Z</time>
      </trkpt>
      <trkpt lat="46.02546" lon="6.78267">
        <ele>1088.4</ele>
        <time>2013-08-25T14:13:35Z</time>
      </trkpt>
      <trkpt lat="46.02545" lon="6.78274">
        <ele>1087.9</ele>
        <time>2013-08-25T14:13:38Z</time>
      </trkpt>
      <trkpt lat="46.02545" lon="6.78276">
        <ele>1087.9</ele>
        <time>2013-08-25T14:13:39Z</time>
      </trkpt>
      <trkpt lat="46.02545" lon="6.78279">
        <ele>1088.8</ele>
        <time>2013-08-25T14:13:40Z</time>
      </trkpt>
      <trkpt lat="46.02544" lon="6.78281">
        <ele>1088.8</ele>
        <time>2013-08-25T14:13:41Z</time>
      </trkpt>
      <trkpt lat="46.02543" lon="6.78283">
        <ele>1088.4</ele>
        <time>2013-08-25T14:13:42Z</time>
      </trkpt>
      <trkpt lat="46.02526" lon="6.78323">
        <ele>1087.9</ele>
        <time>2013-08-25T14:13:53Z</time>
      </trkpt>
      <trkpt lat="46.02511" lon="6.7835">
        <ele>1090.3</ele>
        <time>2013-08-25T14:14:05Z</time>
      </trkpt>
      <trkpt lat="46.02494" lon="6.78373">
        <ele>1092.2</ele>
        <time>2013-08-25T14:14:18Z</time>
      </trkpt>
      <trkpt lat="46.02464" lon="6.78408">
        <ele>1092.2</ele>
        <time>2013-08-25T14:14:31Z</time>
      </trkpt>
      <trkpt lat="46.02448" lon="6.78431">
        <ele>1095.1</ele>
        <time>2013-08-25T14:14:41Z</time>
      </trkpt>
      <trkpt lat="46.02426" lon="6.78469">
        <ele>1095.1</ele>
        <time>2013-08-25T14:14:54Z</time>
      </trkpt>
      <trkpt lat="46.02419" lon="6.78482">
        <ele>1095.6</ele>
        <time>2013-08-25T14:14:59Z</time>
      </trkpt>
      <trkpt lat="46.02419" lon="6.78485">
        <ele>1095.6</ele>
        <time>2013-08-25T14:15:00Z</time>
      </trkpt>
      <trkpt lat="46.02418" lon="6.78487">
        <ele>1095.6</ele>
        <time>2013-08-25T14:15:01Z</time>
      </trkpt>
      <trkpt lat="46.02396" lon="6.78513">
        <ele>1097</ele>
        <time>2013-08-25T14:15:13Z</time>
      </trkpt>
      <trkpt lat="46.02383" lon="6.78532">
        <ele>1098</ele>
        <time>2013-08-25T14:15:22Z</time>
      </trkpt>
      <trkpt lat="46.02382" lon="6.78533">
        <ele>1097.5</ele>
        <time>2013-08-25T14:15:23Z</time>
      </trkpt>
      <trkpt lat="46.0238" lon="6.78535">
        <ele>1098</ele>
        <time>2013-08-25T14:15:24Z</time>
      </trkpt>
      <trkpt lat="46.02378" lon="6.78537">
        <ele>1098</ele>
        <time>2013-08-25T14:15:25Z</time>
      </trkpt>
      <trkpt lat="46.02376" lon="6.78539">
        <ele>1098.4</ele>
        <time>2013-08-25T14:15:26Z</time>
      </trkpt>
      <trkpt lat="46.02374" lon="6.7854">
        <ele>1098.4</ele>
        <time>2013-08-25T14:15:27Z</time>
      </trkpt>
      <trkpt lat="46.02371" lon="6.78542">
        <ele>1098.4</ele>
        <time>2013-08-25T14:15:28Z</time>
      </trkpt>
      <trkpt lat="46.02369" lon="6.78543">
        <ele>1098</ele>
        <time>2013-08-25T14:15:29Z</time>
      </trkpt>
      <trkpt lat="46.02367" lon="6.78543">
        <ele>1098.4</ele>
        <time>2013-08-25T14:15:30Z</time>
      </trkpt>
      <trkpt lat="46.02365" lon="6.78547">
        <ele>1098.9</ele>
        <time>2013-08-25T14:15:31Z</time>
      </trkpt>
      <trkpt lat="46.02364" lon="6.7855">
        <ele>1098.4</ele>
        <time>2013-08-25T14:15:32Z</time>
      </trkpt>
      <trkpt lat="46.02362" lon="6.78553">
        <ele>1098.4</ele>
        <time>2013-08-25T14:15:33Z</time>
      </trkpt>
      <trkpt lat="46.02361" lon="6.78556">
        <ele>1098.4</ele>
        <time>2013-08-25T14:15:34Z</time>
      </trkpt>
      <trkpt lat="46.02359" lon="6.78559">
        <ele>1099.9</ele>
        <time>2013-08-25T14:15:35Z</time>
      </trkpt>
      <trkpt lat="46.02358" lon="6.78561">
        <ele>1098.9</ele>
        <time>2013-08-25T14:15:36Z</time>
      </trkpt>
      <trkpt lat="46.02356" lon="6.78564">
        <ele>1099.4</ele>
        <time>2013-08-25T14:15:37Z</time>
      </trkpt>
      <trkpt lat="46.02355" lon="6.78566">
        <ele>1099.4</ele>
        <time>2013-08-25T14:15:38Z</time>
      </trkpt>
      <trkpt lat="46.02354" lon="6.7857">
        <ele>1099.9</ele>
        <time>2013-08-25T14:15:40Z</time>
      </trkpt>
      <trkpt lat="46.02354" lon="6.78573">
        <ele>1099.4</ele>
        <time>2013-08-25T14:15:41Z</time>
      </trkpt>
      <trkpt lat="46.02354" lon="6.78576">
        <ele>1100.4</ele>
        <time>2013-08-25T14:15:42Z</time>
      </trkpt>
      <trkpt lat="46.02353" lon="6.78579">
        <ele>1099.9</ele>
        <time>2013-08-25T14:15:43Z</time>
      </trkpt>
      <trkpt lat="46.02353" lon="6.78582">
        <ele>1100.4</ele>
        <time>2013-08-25T14:15:44Z</time>
      </trkpt>
      <trkpt lat="46.02352" lon="6.78584">
        <ele>1100.4</ele>
        <time>2013-08-25T14:15:45Z</time>
      </trkpt>
      <trkpt lat="46.02352" lon="6.78587">
        <ele>1100.4</ele>
        <time>2013-08-25T14:15:46Z</time>
      </trkpt>
      <trkpt lat="46.02337" lon="6.78614">
        <ele>1103.7</ele>
        <time>2013-08-25T14:15:58Z</time>
      </trkpt>
      <trkpt lat="46.02333" lon="6.78623">
        <ele>1104.7</ele>
        <time>2013-08-25T14:16:03Z</time>
      </trkpt>
      <trkpt lat="46.02327" lon="6.78637">
        <ele>1107.1</ele>
        <time>2013-08-25T14:16:14Z</time>
      </trkpt>
      <trkpt lat="46.02326" lon="6.78642">
        <ele>1108.1</ele>
        <time>2013-08-25T14:16:18Z</time>
      </trkpt>
      <trkpt lat="46.02318" lon="6.78646">
        <ele>1109</ele>
        <time>2013-08-25T14:16:22Z</time>
      </trkpt>
      <trkpt lat="46.02315" lon="6.78647">
        <ele>1109.5</ele>
        <time>2013-08-25T14:16:23Z</time>
      </trkpt>
      <trkpt lat="46.02299" lon="6.78654">
        <ele>1110</ele>
        <time>2013-08-25T14:16:29Z</time>
      </trkpt>
      <trkpt lat="46.02297" lon="6.78656">
        <ele>1110</ele>
        <time>2013-08-25T14:16:30Z</time>
      </trkpt>
      <trkpt lat="46.0229" lon="6.78678">
        <ele>1111.9</ele>
        <time>2013-08-25T14:16:40Z</time>
      </trkpt>
      <trkpt lat="46.0229" lon="6.7868">
        <ele>1111.9</ele>
        <time>2013-08-25T14:16:41Z</time>
      </trkpt>
      <trkpt lat="46.02289" lon="6.78683">
        <ele>1112.4</ele>
        <time>2013-08-25T14:16:42Z</time>
      </trkpt>
      <trkpt lat="46.02284" lon="6.78714">
        <ele>1115.8</ele>
        <time>2013-08-25T14:16:56Z</time>
      </trkpt>
      <trkpt lat="46.02286" lon="6.78744">
        <ele>1117.2</ele>
        <time>2013-08-25T14:17:10Z</time>
      </trkpt>
      <trkpt lat="46.02282" lon="6.78752">
        <ele>1117.7</ele>
        <time>2013-08-25T14:17:14Z</time>
      </trkpt>
      <trkpt lat="46.02265" lon="6.78778">
        <ele>1118.6</ele>
        <time>2013-08-25T14:17:25Z</time>
      </trkpt>
      <trkpt lat="46.02262" lon="6.78792">
        <ele>1120.1</ele>
        <time>2013-08-25T14:17:31Z</time>
      </trkpt>
      <trkpt lat="46.02258" lon="6.78822">
        <ele>1122</ele>
        <time>2013-08-25T14:17:45Z</time>
      </trkpt>
      <trkpt lat="46.02258" lon="6.7884">
        <ele>1125.4</ele>
        <time>2013-08-25T14:17:55Z</time>
      </trkpt>
      <trkpt lat="46.02257" lon="6.78841">
        <ele>1125.4</ele>
        <time>2013-08-25T14:17:56Z</time>
      </trkpt>
      <trkpt lat="46.02248" lon="6.78853">
        <ele>1128.2</ele>
        <time>2013-08-25T14:18:08Z</time>
      </trkpt>
      <trkpt lat="46.02247" lon="6.78858">
        <ele>1128.7</ele>
        <time>2013-08-25T14:18:11Z</time>
      </trkpt>
      <trkpt lat="46.02247" lon="6.78867">
        <ele>1129.2</ele>
        <time>2013-08-25T14:18:15Z</time>
      </trkpt>
      <trkpt lat="46.02248" lon="6.78869">
        <ele>1128.7</ele>
        <time>2013-08-25T14:18:16Z</time>
      </trkpt>
      <trkpt lat="46.0225" lon="6.78876">
        <ele>1128.2</ele>
        <time>2013-08-25T14:18:19Z</time>
      </trkpt>
      <trkpt lat="46.0225" lon="6.78884">
        <ele>1129.7</ele>
        <time>2013-08-25T14:18:22Z</time>
      </trkpt>
      <trkpt lat="46.0225" lon="6.78917">
        <ele>1131.1</ele>
        <time>2013-08-25T14:18:34Z</time>
      </trkpt>
      <trkpt lat="46.02251" lon="6.78919">
        <ele>1131.1</ele>
        <time>2013-08-25T14:18:35Z</time>
      </trkpt>
      <trkpt lat="46.02259" lon="6.7895">
        <ele>1133.1</ele>
        <time>2013-08-25T14:18:49Z</time>
      </trkpt>
      <trkpt lat="46.02257" lon="6.78952">
        <ele>1133.5</ele>
        <time>2013-08-25T14:18:50Z</time>
      </trkpt>
      <trkpt lat="46.02252" lon="6.7896">
        <ele>1135.5</ele>
        <time>2013-08-25T14:18:57Z</time>
      </trkpt>
      <trkpt lat="46.02255" lon="6.78987">
        <ele>1137.4</ele>
        <time>2013-08-25T14:19:11Z</time>
      </trkpt>
      <trkpt lat="46.02244" lon="6.79003">
        <ele>1139.8</ele>
        <time>2013-08-25T14:19:25Z</time>
      </trkpt>
      <trkpt lat="46.02247" lon="6.79023">
        <ele>1142.2</ele>
        <time>2013-08-25T14:19:38Z</time>
      </trkpt>
      <trkpt lat="46.02242" lon="6.7904">
        <ele>1145.6</ele>
        <time>2013-08-25T14:19:51Z</time>
      </trkpt>
      <trkpt lat="46.02243" lon="6.79046">
        <ele>1146.5</ele>
        <time>2013-08-25T14:19:55Z</time>
      </trkpt>
      <trkpt lat="46.02255" lon="6.79073">
        <ele>1148.4</ele>
        <time>2013-08-25T14:20:08Z</time>
      </trkpt>
      <trkpt lat="46.02233" lon="6.79081">
        <ele>1148</ele>
        <time>2013-08-25T14:20:29Z</time>
      </trkpt>
      <trkpt lat="46.02244" lon="6.79074">
        <ele>1148.4</ele>
        <time>2013-08-25T14:21:01Z</time>
      </trkpt>
      <trkpt lat="46.02247" lon="6.79086">
        <ele>1149.9</ele>
        <time>2013-08-25T14:21:22Z</time>
      </trkpt>
      <trkpt lat="46.02257" lon="6.79092">
        <ele>1152.3</ele>
        <time>2013-08-25T14:21:37Z</time>
      </trkpt>
      <trkpt lat="46.02256" lon="6.79102">
        <ele>1155.2</ele>
        <time>2013-08-25T14:21:51Z</time>
      </trkpt>
      <trkpt lat="46.0226" lon="6.7911">
        <ele>1157.1</ele>
        <time>2013-08-25T14:22:05Z</time>
      </trkpt>
      <trkpt lat="46.02265" lon="6.79125">
        <ele>1158.1</ele>
        <time>2013-08-25T14:22:17Z</time>
      </trkpt>
      <trkpt lat="46.02268" lon="6.79134">
        <ele>1160.9</ele>
        <time>2013-08-25T14:22:34Z</time>
      </trkpt>
      <trkpt lat="46.02269" lon="6.79142">
        <ele>1162.4</ele>
        <time>2013-08-25T14:22:48Z</time>
      </trkpt>
      <trkpt lat="46.02272" lon="6.7915">
        <ele>1164.8</ele>
        <time>2013-08-25T14:23:04Z</time>
      </trkpt>
      <trkpt lat="46.02279" lon="6.79175">
        <ele>1167.7</ele>
        <time>2013-08-25T14:23:19Z</time>
      </trkpt>
      <trkpt lat="46.02284" lon="6.79183">
        <ele>1170.1</ele>
        <time>2013-08-25T14:23:35Z</time>
      </trkpt>
      <trkpt lat="46.02283" lon="6.79197">
        <ele>1172</ele>
        <time>2013-08-25T14:23:50Z</time>
      </trkpt>
      <trkpt lat="46.0228" lon="6.79202">
        <ele>1173.4</ele>
        <time>2013-08-25T14:23:56Z</time>
      </trkpt>
      <trkpt lat="46.02279" lon="6.7921">
        <ele>1174.4</ele>
        <time>2013-08-25T14:24:03Z</time>
      </trkpt>
      <trkpt lat="46.02279" lon="6.79226">
        <ele>1176.3</ele>
        <time>2013-08-25T14:24:18Z</time>
      </trkpt>
      <trkpt lat="46.02283" lon="6.79236">
        <ele>1177.8</ele>
        <time>2013-08-25T14:24:36Z</time>
      </trkpt>
      <trkpt lat="46.02272" lon="6.79244">
        <ele>1179.2</ele>
        <time>2013-08-25T14:24:50Z</time>
      </trkpt>
      <trkpt lat="46.02272" lon="6.79245">
        <ele>1180.6</ele>
        <time>2013-08-25T14:24:54Z</time>
      </trkpt>
      <trkpt lat="46.02273" lon="6.79245">
        <ele>1178.2</ele>
        <time>2013-08-25T14:24:55Z</time>
      </trkpt>
      <trkpt lat="46.02273" lon="6.79245">
        <ele>1180.6</ele>
        <time>2013-08-25T14:24:56Z</time>
      </trkpt>
      <trkpt lat="46.02273" lon="6.79246">
        <ele>1178.7</ele>
        <time>2013-08-25T14:25:02Z</time>
      </trkpt>
      <trkpt lat="46.02267" lon="6.79254">
        <ele>1181.6</ele>
        <time>2013-08-25T14:25:29Z</time>
      </trkpt>
      <trkpt lat="46.0227" lon="6.79261">
        <ele>1181.6</ele>
        <time>2013-08-25T14:25:43Z</time>
      </trkpt>
      <trkpt lat="46.02276" lon="6.79261">
        <ele>1184.5</ele>
        <time>2013-08-25T14:25:55Z</time>
      </trkpt>
      <trkpt lat="46.02286" lon="6.79263">
        <ele>1186.9</ele>
        <time>2013-08-25T14:26:12Z</time>
      </trkpt>
      <trkpt lat="46.02294" lon="6.7927">
        <ele>1189.8</ele>
        <time>2013-08-25T14:26:28Z</time>
      </trkpt>
      <trkpt lat="46.02299" lon="6.79274">
        <ele>1191.2</ele>
        <time>2013-08-25T14:26:42Z</time>
      </trkpt>
      <trkpt lat="46.02303" lon="6.7928">
        <ele>1193.1</ele>
        <time>2013-08-25T14:26:51Z</time>
      </trkpt>
      <trkpt lat="46.02303" lon="6.79283">
        <ele>1192.2</ele>
        <time>2013-08-25T14:26:52Z</time>
      </trkpt>
      <trkpt lat="46.02304" lon="6.79292">
        <ele>1192.7</ele>
        <time>2013-08-25T14:26:56Z</time>
      </trkpt>
      <trkpt lat="46.02304" lon="6.79294">
        <ele>1192.2</ele>
        <time>2013-08-25T14:26:57Z</time>
      </trkpt>
      <trkpt lat="46.02302" lon="6.79304">
        <ele>1193.6</ele>
        <time>2013-08-25T14:27:08Z</time>
      </trkpt>
      <trkpt lat="46.02301" lon="6.79305">
        <ele>1193.6</ele>
        <time>2013-08-25T14:27:09Z</time>
      </trkpt>
      <trkpt lat="46.0229" lon="6.79326">
        <ele>1196.5</ele>
        <time>2013-08-25T14:27:22Z</time>
      </trkpt>
      <trkpt lat="46.02282" lon="6.79339">
        <ele>1200.3</ele>
        <time>2013-08-25T14:27:34Z</time>
      </trkpt>
      <trkpt lat="46.02278" lon="6.79344">
        <ele>1201.3</ele>
        <time>2013-08-25T14:27:38Z</time>
      </trkpt>
      <trkpt lat="46.02277" lon="6.79349">
        <ele>1202.3</ele>
        <time>2013-08-25T14:27:43Z</time>
      </trkpt>
      <trkpt lat="46.0228" lon="6.79356">
        <ele>1203.7</ele>
        <time>2013-08-25T14:27:48Z</time>
      </trkpt>
      <trkpt lat="46.02281" lon="6.79365">
        <ele>1205.2</ele>
        <time>2013-08-25T14:27:54Z</time>
      </trkpt>
      <trkpt lat="46.02283" lon="6.79388">
        <ele>1206.1</ele>
        <time>2013-08-25T14:28:05Z</time>
      </trkpt>
      <trkpt lat="46.02284" lon="6.79399">
        <ele>1209.5</ele>
        <time>2013-08-25T14:28:14Z</time>
      </trkpt>
      <trkpt lat="46.02283" lon="6.79406">
        <ele>1211.4</ele>
        <time>2013-08-25T14:28:19Z</time>
      </trkpt>
      <trkpt lat="46.02283" lon="6.79421">
        <ele>1213.8</ele>
        <time>2013-08-25T14:28:31Z</time>
      </trkpt>
      <trkpt lat="46.02291" lon="6.7944">
        <ele>1215.7</ele>
        <time>2013-08-25T14:28:45Z</time>
      </trkpt>
      <trkpt lat="46.02292" lon="6.79443">
        <ele>1216.2</ele>
        <time>2013-08-25T14:28:47Z</time>
      </trkpt>
      <trkpt lat="46.02294" lon="6.79457">
        <ele>1216.7</ele>
        <time>2013-08-25T14:28:59Z</time>
      </trkpt>
      <trkpt lat="46.02289" lon="6.79467">
        <ele>1220.1</ele>
        <time>2013-08-25T14:29:09Z</time>
      </trkpt>
      <trkpt lat="46.02288" lon="6.79468">
        <ele>1220.1</ele>
        <time>2013-08-25T14:29:10Z</time>
      </trkpt>
      <trkpt lat="46.02283" lon="6.79474">
        <ele>1221</ele>
        <time>2013-08-25T14:29:15Z</time>
      </trkpt>
      <trkpt lat="46.02278" lon="6.79484">
        <ele>1223.9</ele>
        <time>2013-08-25T14:29:25Z</time>
      </trkpt>
      <trkpt lat="46.02277" lon="6.79495">
        <ele>1226.3</ele>
        <time>2013-08-25T14:29:33Z</time>
      </trkpt>
      <trkpt lat="46.0228" lon="6.79508">
        <ele>1229.2</ele>
        <time>2013-08-25T14:29:42Z</time>
      </trkpt>
      <trkpt lat="46.02278" lon="6.7952">
        <ele>1229.2</ele>
        <time>2013-08-25T14:29:58Z</time>
      </trkpt>
      <trkpt lat="46.02262" lon="6.79519">
        <ele>1230.6</ele>
        <time>2013-08-25T14:30:40Z</time>
      </trkpt>
      <trkpt lat="46.02283" lon="6.79547">
        <ele>1231.6</ele>
        <time>2013-08-25T14:30:59Z</time>
      </trkpt>
      <trkpt lat="46.02283" lon="6.79561">
        <ele>1232.1</ele>
        <time>2013-08-25T14:31:07Z</time>
      </trkpt>
      <trkpt lat="46.02283" lon="6.79567">
        <ele>1232.6</ele>
        <time>2013-08-25T14:31:11Z</time>
      </trkpt>
      <trkpt lat="46.02283" lon="6.79569">
        <ele>1232.6</ele>
        <time>2013-08-25T14:31:12Z</time>
      </trkpt>
      <trkpt lat="46.02283" lon="6.7957">
        <ele>1232.6</ele>
        <time>2013-08-25T14:31:13Z</time>
      </trkpt>
      <trkpt lat="46.02283" lon="6.79572">
        <ele>1233</ele>
        <time>2013-08-25T14:31:14Z</time>
      </trkpt>
      <trkpt lat="46.02282" lon="6.79573">
        <ele>1232.6</ele>
        <time>2013-08-25T14:31:15Z</time>
      </trkpt>
      <trkpt lat="46.0228" lon="6.79586">
        <ele>1233.5</ele>
        <time>2013-08-25T14:31:21Z</time>
      </trkpt>
      <trkpt lat="46.0228" lon="6.79588">
        <ele>1234</ele>
        <time>2013-08-25T14:31:22Z</time>
      </trkpt>
      <trkpt lat="46.0228" lon="6.79589">
        <ele>1233.5</ele>
        <time>2013-08-25T14:31:23Z</time>
      </trkpt>
      <trkpt lat="46.0228" lon="6.79591">
        <ele>1233.5</ele>
        <time>2013-08-25T14:31:24Z</time>
      </trkpt>
      <trkpt lat="46.0228" lon="6.79593">
        <ele>1234</ele>
        <time>2013-08-25T14:31:25Z</time>
      </trkpt>
      <trkpt lat="46.0228" lon="6.79626">
        <ele>1236.4</ele>
        <time>2013-08-25T14:31:40Z</time>
      </trkpt>
      <trkpt lat="46.02286" lon="6.79657">
        <ele>1238.3</ele>
        <time>2013-08-25T14:31:53Z</time>
      </trkpt>
      <trkpt lat="46.02298" lon="6.79694">
        <ele>1238.8</ele>
        <time>2013-08-25T14:32:03Z</time>
      </trkpt>
      <trkpt lat="46.02301" lon="6.79722">
        <ele>1239.8</ele>
        <time>2013-08-25T14:32:13Z</time>
      </trkpt>
      <trkpt lat="46.02301" lon="6.79727">
        <ele>1239.8</ele>
        <time>2013-08-25T14:32:16Z</time>
      </trkpt>
      <trkpt lat="46.02301" lon="6.79729">
        <ele>1240.2</ele>
        <time>2013-08-25T14:32:17Z</time>
      </trkpt>
      <trkpt lat="46.023" lon="6.79733">
        <ele>1239.8</ele>
        <time>2013-08-25T14:32:18Z</time>
      </trkpt>
      <trkpt lat="46.02301" lon="6.79735">
        <ele>1240.2</ele>
        <time>2013-08-25T14:32:19Z</time>
      </trkpt>
      <trkpt lat="46.023" lon="6.79738">
        <ele>1240.2</ele>
        <time>2013-08-25T14:32:20Z</time>
      </trkpt>
      <trkpt lat="46.023" lon="6.79741">
        <ele>1240.2</ele>
        <time>2013-08-25T14:32:21Z</time>
      </trkpt>
      <trkpt lat="46.02299" lon="6.79744">
        <ele>1240.2</ele>
        <time>2013-08-25T14:32:22Z</time>
      </trkpt>
      <trkpt lat="46.023" lon="6.79747">
        <ele>1239.8</ele>
        <time>2013-08-25T14:32:23Z</time>
      </trkpt>
      <trkpt lat="46.02298" lon="6.79782">
        <ele>1241.2</ele>
        <time>2013-08-25T14:32:35Z</time>
      </trkpt>
      <trkpt lat="46.02299" lon="6.7979">
        <ele>1243.1</ele>
        <time>2013-08-25T14:32:39Z</time>
      </trkpt>
      <trkpt lat="46.02303" lon="6.79811">
        <ele>1245</ele>
        <time>2013-08-25T14:32:50Z</time>
      </trkpt>
      <trkpt lat="46.02305" lon="6.79828">
        <ele>1247.5</ele>
        <time>2013-08-25T14:33:01Z</time>
      </trkpt>
      <trkpt lat="46.02315" lon="6.79845">
        <ele>1249.9</ele>
        <time>2013-08-25T14:33:14Z</time>
      </trkpt>
      <trkpt lat="46.02316" lon="6.79847">
        <ele>1249.9</ele>
        <time>2013-08-25T14:33:15Z</time>
      </trkpt>
      <trkpt lat="46.02317" lon="6.79854">
        <ele>1251.8</ele>
        <time>2013-08-25T14:33:20Z</time>
      </trkpt>
      <trkpt lat="46.02316" lon="6.79856">
        <ele>1251.8</ele>
        <time>2013-08-25T14:33:21Z</time>
      </trkpt>
      <trkpt lat="46.02308" lon="6.79861">
        <ele>1252.3</ele>
        <time>2013-08-25T14:33:28Z</time>
      </trkpt>
      <trkpt lat="46.023" lon="6.79858">
        <ele>1255.1</ele>
        <time>2013-08-25T14:33:39Z</time>
      </trkpt>
      <trkpt lat="46.02292" lon="6.79861">
        <ele>1257.1</ele>
        <time>2013-08-25T14:33:49Z</time>
      </trkpt>
      <trkpt lat="46.02292" lon="6.79862">
        <ele>1256.6</ele>
        <time>2013-08-25T14:33:50Z</time>
      </trkpt>
      <trkpt lat="46.02287" lon="6.79877">
        <ele>1259.9</ele>
        <time>2013-08-25T14:34:00Z</time>
      </trkpt>
      <trkpt lat="46.02281" lon="6.79892">
        <ele>1259.9</ele>
        <time>2013-08-25T14:34:09Z</time>
      </trkpt>
      <trkpt lat="46.02268" lon="6.79912">
        <ele>1263.3</ele>
        <time>2013-08-25T14:34:21Z</time>
      </trkpt>
      <trkpt lat="46.0227" lon="6.79927">
        <ele>1266.2</ele>
        <time>2013-08-25T14:34:34Z</time>
      </trkpt>
      <trkpt lat="46.02275" lon="6.79946">
        <ele>1269.6</ele>
        <time>2013-08-25T14:34:48Z</time>
      </trkpt>
      <trkpt lat="46.02279" lon="6.79951">
        <ele>1269.6</ele>
        <time>2013-08-25T14:34:50Z</time>
      </trkpt>
      <trkpt lat="46.02276" lon="6.79974">
        <ele>1272</ele>
        <time>2013-08-25T14:35:02Z</time>
      </trkpt>
      <trkpt lat="46.02276" lon="6.79975">
        <ele>1272</ele>
        <time>2013-08-25T14:35:03Z</time>
      </trkpt>
      <trkpt lat="46.02271" lon="6.79987">
        <ele>1274.4</ele>
        <time>2013-08-25T14:35:21Z</time>
      </trkpt>
      <trkpt lat="46.02269" lon="6.79995">
        <ele>1276.3</ele>
        <time>2013-08-25T14:35:34Z</time>
      </trkpt>
      <trkpt lat="46.02261" lon="6.8001">
        <ele>1278.7</ele>
        <time>2013-08-25T14:35:53Z</time>
      </trkpt>
      <trkpt lat="46.02254" lon="6.80022">
        <ele>1281.1</ele>
        <time>2013-08-25T14:36:10Z</time>
      </trkpt>
      <trkpt lat="46.0225" lon="6.80027">
        <ele>1282.1</ele>
        <time>2013-08-25T14:36:17Z</time>
      </trkpt>
      <trkpt lat="46.02255" lon="6.80042">
        <ele>1283.5</ele>
        <time>2013-08-25T14:36:30Z</time>
      </trkpt>
      <trkpt lat="46.0226" lon="6.80047">
        <ele>1284.9</ele>
        <time>2013-08-25T14:36:46Z</time>
      </trkpt>
      <trkpt lat="46.02264" lon="6.80057">
        <ele>1285.9</ele>
        <time>2013-08-25T14:37:13Z</time>
      </trkpt>
      <trkpt lat="46.02265" lon="6.80061">
        <ele>1286.9</ele>
        <time>2013-08-25T14:37:25Z</time>
      </trkpt>
      <trkpt lat="46.02268" lon="6.80063">
        <ele>1287.3</ele>
        <time>2013-08-25T14:37:34Z</time>
      </trkpt>
      <trkpt lat="46.02265" lon="6.80071">
        <ele>1286.9</ele>
        <time>2013-08-25T14:37:45Z</time>
      </trkpt>
      <trkpt lat="46.0227" lon="6.80091">
        <ele>1284.9</ele>
        <time>2013-08-25T14:37:52Z</time>
      </trkpt>
      <trkpt lat="46.0227" lon="6.80097">
        <ele>1285.4</ele>
        <time>2013-08-25T14:37:54Z</time>
      </trkpt>
      <trkpt lat="46.02257" lon="6.80128">
        <ele>1283.5</ele>
        <time>2013-08-25T14:38:05Z</time>
      </trkpt>
      <trkpt lat="46.02254" lon="6.80167">
        <ele>1283</ele>
        <time>2013-08-25T14:38:14Z</time>
      </trkpt>
      <trkpt lat="46.02256" lon="6.80206">
        <ele>1283</ele>
        <time>2013-08-25T14:38:25Z</time>
      </trkpt>
      <trkpt lat="46.02257" lon="6.80224">
        <ele>1282.1</ele>
        <time>2013-08-25T14:38:29Z</time>
      </trkpt>
      <trkpt lat="46.02259" lon="6.80266">
        <ele>1283</ele>
        <time>2013-08-25T14:38:41Z</time>
      </trkpt>
      <trkpt lat="46.0226" lon="6.80297">
        <ele>1284.5</ele>
        <time>2013-08-25T14:38:52Z</time>
      </trkpt>
      <trkpt lat="46.02269" lon="6.80325">
        <ele>1284</ele>
        <time>2013-08-25T14:39:03Z</time>
      </trkpt>
      <trkpt lat="46.02274" lon="6.80369">
        <ele>1280.6</ele>
        <time>2013-08-25T14:39:13Z</time>
      </trkpt>
      <trkpt lat="46.02277" lon="6.80393">
        <ele>1280.6</ele>
        <time>2013-08-25T14:39:25Z</time>
      </trkpt>
      <trkpt lat="46.02277" lon="6.80398">
        <ele>1280.6</ele>
        <time>2013-08-25T14:39:26Z</time>
      </trkpt>
      <trkpt lat="46.02277" lon="6.80411">
        <ele>1279.7</ele>
        <time>2013-08-25T14:39:28Z</time>
      </trkpt>
      <trkpt lat="46.02283" lon="6.80453">
        <ele>1279.7</ele>
        <time>2013-08-25T14:39:36Z</time>
      </trkpt>
      <trkpt lat="46.0227" lon="6.8047">
        <ele>1279.7</ele>
        <time>2013-08-25T14:39:43Z</time>
      </trkpt>
      <trkpt lat="46.02264" lon="6.80476">
        <ele>1279.2</ele>
        <time>2013-08-25T14:39:45Z</time>
      </trkpt>
      <trkpt lat="46.02245" lon="6.80511">
        <ele>1277.3</ele>
        <time>2013-08-25T14:39:52Z</time>
      </trkpt>
      <trkpt lat="46.02258" lon="6.80563">
        <ele>1278.2</ele>
        <time>2013-08-25T14:40:00Z</time>
      </trkpt>
      <trkpt lat="46.02244" lon="6.8058">
        <ele>1278.2</ele>
        <time>2013-08-25T14:40:07Z</time>
      </trkpt>
      <trkpt lat="46.02235" lon="6.80619">
        <ele>1278.2</ele>
        <time>2013-08-25T14:40:18Z</time>
      </trkpt>
      <trkpt lat="46.02234" lon="6.80657">
        <ele>1280.6</ele>
        <time>2013-08-25T14:40:30Z</time>
      </trkpt>
      <trkpt lat="46.02238" lon="6.80694">
        <ele>1281.6</ele>
        <time>2013-08-25T14:40:44Z</time>
      </trkpt>
      <trkpt lat="46.02231" lon="6.80718">
        <ele>1282.5</ele>
        <time>2013-08-25T14:40:53Z</time>
      </trkpt>
      <trkpt lat="46.0223" lon="6.8072">
        <ele>1282.1</ele>
        <time>2013-08-25T14:40:54Z</time>
      </trkpt>
      <trkpt lat="46.02228" lon="6.80721">
        <ele>1282.5</ele>
        <time>2013-08-25T14:40:55Z</time>
      </trkpt>
      <trkpt lat="46.02227" lon="6.80721">
        <ele>1282.5</ele>
        <time>2013-08-25T14:40:56Z</time>
      </trkpt>
      <trkpt lat="46.02226" lon="6.8072">
        <ele>1282.5</ele>
        <time>2013-08-25T14:40:57Z</time>
      </trkpt>
      <trkpt lat="46.02225" lon="6.80718">
        <ele>1283.5</ele>
        <time>2013-08-25T14:40:58Z</time>
      </trkpt>
      <trkpt lat="46.02224" lon="6.80717">
        <ele>1283.5</ele>
        <time>2013-08-25T14:40:59Z</time>
      </trkpt>
      <trkpt lat="46.02218" lon="6.80715">
        <ele>1284.9</ele>
        <time>2013-08-25T14:41:03Z</time>
      </trkpt>
      <trkpt lat="46.02203" lon="6.80719">
        <ele>1287.3</ele>
        <time>2013-08-25T14:41:14Z</time>
      </trkpt>
      <trkpt lat="46.02202" lon="6.80721">
        <ele>1287.3</ele>
        <time>2013-08-25T14:41:15Z</time>
      </trkpt>
      <trkpt lat="46.02201" lon="6.80722">
        <ele>1287.8</ele>
        <time>2013-08-25T14:41:16Z</time>
      </trkpt>
      <trkpt lat="46.02199" lon="6.80726">
        <ele>1287.8</ele>
        <time>2013-08-25T14:41:20Z</time>
      </trkpt>
      <trkpt lat="46.02198" lon="6.80727">
        <ele>1288.3</ele>
        <time>2013-08-25T14:41:21Z</time>
      </trkpt>
      <trkpt lat="46.02197" lon="6.80729">
        <ele>1289.8</ele>
        <time>2013-08-25T14:41:23Z</time>
      </trkpt>
      <trkpt lat="46.02196" lon="6.80732">
        <ele>1289.8</ele>
        <time>2013-08-25T14:41:25Z</time>
      </trkpt>
      <trkpt lat="46.02193" lon="6.80736">
        <ele>1290.7</ele>
        <time>2013-08-25T14:41:28Z</time>
      </trkpt>
      <trkpt lat="46.02183" lon="6.80746">
        <ele>1292.6</ele>
        <time>2013-08-25T14:41:39Z</time>
      </trkpt>
      <trkpt lat="46.02168" lon="6.80752">
        <ele>1295</ele>
        <time>2013-08-25T14:41:53Z</time>
      </trkpt>
      <trkpt lat="46.02163" lon="6.80756">
        <ele>1296</ele>
        <time>2013-08-25T14:41:58Z</time>
      </trkpt>
      <trkpt lat="46.02162" lon="6.80756">
        <ele>1296.5</ele>
        <time>2013-08-25T14:41:59Z</time>
      </trkpt>
      <trkpt lat="46.02161" lon="6.80756">
        <ele>1295.5</ele>
        <time>2013-08-25T14:42:00Z</time>
      </trkpt>
      <trkpt lat="46.02158" lon="6.80756">
        <ele>1297</ele>
        <time>2013-08-25T14:42:02Z</time>
      </trkpt>
      <trkpt lat="46.02155" lon="6.80758">
        <ele>1297.4</ele>
        <time>2013-08-25T14:42:06Z</time>
      </trkpt>
      <trkpt lat="46.02153" lon="6.80758">
        <ele>1297.9</ele>
        <time>2013-08-25T14:42:07Z</time>
      </trkpt>
      <trkpt lat="46.02146" lon="6.80759">
        <ele>1298.9</ele>
        <time>2013-08-25T14:42:15Z</time>
      </trkpt>
      <trkpt lat="46.02145" lon="6.80762">
        <ele>1299.4</ele>
        <time>2013-08-25T14:42:17Z</time>
      </trkpt>
      <trkpt lat="46.02146" lon="6.80763">
        <ele>1299.4</ele>
        <time>2013-08-25T14:42:18Z</time>
      </trkpt>
      <trkpt lat="46.02147" lon="6.80764">
        <ele>1299.4</ele>
        <time>2013-08-25T14:42:19Z</time>
      </trkpt>
      <trkpt lat="46.02148" lon="6.80763">
        <ele>1299.8</ele>
        <time>2013-08-25T14:42:20Z</time>
      </trkpt>
      <trkpt lat="46.02149" lon="6.80764">
        <ele>1299.4</ele>
        <time>2013-08-25T14:42:21Z</time>
      </trkpt>
      <trkpt lat="46.0215" lon="6.80764">
        <ele>1299.8</ele>
        <time>2013-08-25T14:42:22Z</time>
      </trkpt>
      <trkpt lat="46.0216" lon="6.80766">
        <ele>1302.2</ele>
        <time>2013-08-25T14:42:33Z</time>
      </trkpt>
      <trkpt lat="46.02161" lon="6.80766">
        <ele>1302.2</ele>
        <time>2013-08-25T14:42:34Z</time>
      </trkpt>
      <trkpt lat="46.02162" lon="6.80767">
        <ele>1302.7</ele>
        <time>2013-08-25T14:42:35Z</time>
      </trkpt>
      <trkpt lat="46.02163" lon="6.80769">
        <ele>1302.2</ele>
        <time>2013-08-25T14:42:36Z</time>
      </trkpt>
      <trkpt lat="46.02164" lon="6.80769">
        <ele>1303.2</ele>
        <time>2013-08-25T14:42:37Z</time>
      </trkpt>
      <trkpt lat="46.02168" lon="6.80772">
        <ele>1303.7</ele>
        <time>2013-08-25T14:42:42Z</time>
      </trkpt>
      <trkpt lat="46.02169" lon="6.80773">
        <ele>1303.7</ele>
        <time>2013-08-25T14:42:43Z</time>
      </trkpt>
      <trkpt lat="46.02169" lon="6.80775">
        <ele>1304.7</ele>
        <time>2013-08-25T14:42:44Z</time>
      </trkpt>
      <trkpt lat="46.02166" lon="6.80777">
        <ele>1304.7</ele>
        <time>2013-08-25T14:42:48Z</time>
      </trkpt>
      <trkpt lat="46.02157" lon="6.80779">
        <ele>1306.6</ele>
        <time>2013-08-25T14:43:00Z</time>
      </trkpt>
      <trkpt lat="46.02156" lon="6.80778">
        <ele>1307.1</ele>
        <time>2013-08-25T14:43:01Z</time>
      </trkpt>
      <trkpt lat="46.0214" lon="6.80781">
        <ele>1309.9</ele>
        <time>2013-08-25T14:43:15Z</time>
      </trkpt>
      <trkpt lat="46.02133" lon="6.80786">
        <ele>1310.9</ele>
        <time>2013-08-25T14:43:22Z</time>
      </trkpt>
      <trkpt lat="46.02132" lon="6.80786">
        <ele>1311.4</ele>
        <time>2013-08-25T14:43:23Z</time>
      </trkpt>
      <trkpt lat="46.02131" lon="6.80786">
        <ele>1311.9</ele>
        <time>2013-08-25T14:43:24Z</time>
      </trkpt>
      <trkpt lat="46.02129" lon="6.80786">
        <ele>1311.9</ele>
        <time>2013-08-25T14:43:25Z</time>
      </trkpt>
      <trkpt lat="46.02128" lon="6.80786">
        <ele>1311.4</ele>
        <time>2013-08-25T14:43:26Z</time>
      </trkpt>
      <trkpt lat="46.0212" lon="6.80785">
        <ele>1313.3</ele>
        <time>2013-08-25T14:43:33Z</time>
      </trkpt>
      <trkpt lat="46.02108" lon="6.80793">
        <ele>1315.7</ele>
        <time>2013-08-25T14:43:47Z</time>
      </trkpt>
      <trkpt lat="46.02106" lon="6.80797">
        <ele>1316.7</ele>
        <time>2013-08-25T14:43:50Z</time>
      </trkpt>
      <trkpt lat="46.02113" lon="6.80804">
        <ele>1318.1</ele>
        <time>2013-08-25T14:44:01Z</time>
      </trkpt>
      <trkpt lat="46.02125" lon="6.80812">
        <ele>1321</ele>
        <time>2013-08-25T14:44:15Z</time>
      </trkpt>
      <trkpt lat="46.02121" lon="6.80818">
        <ele>1322.4</ele>
        <time>2013-08-25T14:44:26Z</time>
      </trkpt>
      <trkpt lat="46.02112" lon="6.80816">
        <ele>1323.9</ele>
        <time>2013-08-25T14:44:39Z</time>
      </trkpt>
      <trkpt lat="46.02099" lon="6.80817">
        <ele>1325.3</ele>
        <time>2013-08-25T14:44:53Z</time>
      </trkpt>
      <trkpt lat="46.02086" lon="6.80817">
        <ele>1327.2</ele>
        <time>2013-08-25T14:45:04Z</time>
      </trkpt>
      <trkpt lat="46.02076" lon="6.80819">
        <ele>1328.7</ele>
        <time>2013-08-25T14:45:11Z</time>
      </trkpt>
      <trkpt lat="46.02075" lon="6.8082">
        <ele>1328.7</ele>
        <time>2013-08-25T14:45:12Z</time>
      </trkpt>
      <trkpt lat="46.02074" lon="6.80822">
        <ele>1328.7</ele>
        <time>2013-08-25T14:45:14Z</time>
      </trkpt>
      <trkpt lat="46.02074" lon="6.80825">
        <ele>1329.2</ele>
        <time>2013-08-25T14:45:16Z</time>
      </trkpt>
      <trkpt lat="46.02075" lon="6.80826">
        <ele>1329.6</ele>
        <time>2013-08-25T14:45:17Z</time>
      </trkpt>
      <trkpt lat="46.02075" lon="6.80827">
        <ele>1329.6</ele>
        <time>2013-08-25T14:45:18Z</time>
      </trkpt>
      <trkpt lat="46.02076" lon="6.80828">
        <ele>1329.6</ele>
        <time>2013-08-25T14:45:19Z</time>
      </trkpt>
      <trkpt lat="46.02077" lon="6.80829">
        <ele>1330.1</ele>
        <time>2013-08-25T14:45:20Z</time>
      </trkpt>
      <trkpt lat="46.02096" lon="6.80834">
        <ele>1330.6</ele>
        <time>2013-08-25T14:45:34Z</time>
      </trkpt>
      <trkpt lat="46.02099" lon="6.80837">
        <ele>1331.6</ele>
        <time>2013-08-25T14:45:39Z</time>
      </trkpt>
      <trkpt lat="46.021" lon="6.80838">
        <ele>1331.6</ele>
        <time>2013-08-25T14:45:40Z</time>
      </trkpt>
      <trkpt lat="46.02099" lon="6.8084">
        <ele>1332</ele>
        <time>2013-08-25T14:45:42Z</time>
      </trkpt>
      <trkpt lat="46.02088" lon="6.80845">
        <ele>1334</ele>
        <time>2013-08-25T14:45:56Z</time>
      </trkpt>
      <trkpt lat="46.0208" lon="6.80841">
        <ele>1335.4</ele>
        <time>2013-08-25T14:46:05Z</time>
      </trkpt>
      <trkpt lat="46.02079" lon="6.80841">
        <ele>1335.9</ele>
        <time>2013-08-25T14:46:06Z</time>
      </trkpt>
      <trkpt lat="46.02067" lon="6.80838">
        <ele>1337.3</ele>
        <time>2013-08-25T14:46:16Z</time>
      </trkpt>
      <trkpt lat="46.02066" lon="6.80837">
        <ele>1337.3</ele>
        <time>2013-08-25T14:46:17Z</time>
      </trkpt>
      <trkpt lat="46.02062" lon="6.80835">
        <ele>1337.8</ele>
        <time>2013-08-25T14:46:20Z</time>
      </trkpt>
      <trkpt lat="46.02061" lon="6.80835">
        <ele>1337.8</ele>
        <time>2013-08-25T14:46:21Z</time>
      </trkpt>
      <trkpt lat="46.0206" lon="6.80835">
        <ele>1338.3</ele>
        <time>2013-08-25T14:46:22Z</time>
      </trkpt>
      <trkpt lat="46.02056" lon="6.80835">
        <ele>1339.3</ele>
        <time>2013-08-25T14:46:26Z</time>
      </trkpt>
      <trkpt lat="46.02055" lon="6.80836">
        <ele>1339.3</ele>
        <time>2013-08-25T14:46:27Z</time>
      </trkpt>
      <trkpt lat="46.02055" lon="6.80838">
        <ele>1339.3</ele>
        <time>2013-08-25T14:46:28Z</time>
      </trkpt>
      <trkpt lat="46.02055" lon="6.80842">
        <ele>1339.3</ele>
        <time>2013-08-25T14:46:31Z</time>
      </trkpt>
      <trkpt lat="46.02056" lon="6.80843">
        <ele>1339.3</ele>
        <time>2013-08-25T14:46:32Z</time>
      </trkpt>
      <trkpt lat="46.02057" lon="6.80843">
        <ele>1339.7</ele>
        <time>2013-08-25T14:46:33Z</time>
      </trkpt>
      <trkpt lat="46.02073" lon="6.80851">
        <ele>1341.2</ele>
        <time>2013-08-25T14:46:47Z</time>
      </trkpt>
      <trkpt lat="46.02083" lon="6.80851">
        <ele>1342.1</ele>
        <time>2013-08-25T14:46:56Z</time>
      </trkpt>
      <trkpt lat="46.02084" lon="6.8085">
        <ele>1342.1</ele>
        <time>2013-08-25T14:46:57Z</time>
      </trkpt>
      <trkpt lat="46.0209" lon="6.8085">
        <ele>1343.1</ele>
        <time>2013-08-25T14:47:07Z</time>
      </trkpt>
      <trkpt lat="46.02096" lon="6.80851">
        <ele>1343.6</ele>
        <time>2013-08-25T14:47:11Z</time>
      </trkpt>
      <trkpt lat="46.02098" lon="6.80852">
        <ele>1343.6</ele>
        <time>2013-08-25T14:47:12Z</time>
      </trkpt>
      <trkpt lat="46.021" lon="6.80853">
        <ele>1344.1</ele>
        <time>2013-08-25T14:47:13Z</time>
      </trkpt>
      <trkpt lat="46.02101" lon="6.80853">
        <ele>1344.1</ele>
        <time>2013-08-25T14:47:14Z</time>
      </trkpt>
      <trkpt lat="46.02103" lon="6.80853">
        <ele>1344.5</ele>
        <time>2013-08-25T14:47:15Z</time>
      </trkpt>
      <trkpt lat="46.02104" lon="6.80853">
        <ele>1345</ele>
        <time>2013-08-25T14:47:16Z</time>
      </trkpt>
      <trkpt lat="46.02105" lon="6.80853">
        <ele>1344.5</ele>
        <time>2013-08-25T14:47:17Z</time>
      </trkpt>
      <trkpt lat="46.02106" lon="6.80855">
        <ele>1345</ele>
        <time>2013-08-25T14:47:18Z</time>
      </trkpt>
      <trkpt lat="46.02121" lon="6.80872">
        <ele>1346</ele>
        <time>2013-08-25T14:47:28Z</time>
      </trkpt>
      <trkpt lat="46.02123" lon="6.80894">
        <ele>1347.9</ele>
        <time>2013-08-25T14:47:37Z</time>
      </trkpt>
      <trkpt lat="46.02123" lon="6.80896">
        <ele>1348.4</ele>
        <time>2013-08-25T14:47:38Z</time>
      </trkpt>
      <trkpt lat="46.02123" lon="6.80898">
        <ele>1348.9</ele>
        <time>2013-08-25T14:47:39Z</time>
      </trkpt>
      <trkpt lat="46.02122" lon="6.809">
        <ele>1348.4</ele>
        <time>2013-08-25T14:47:40Z</time>
      </trkpt>
      <trkpt lat="46.02121" lon="6.80902">
        <ele>1348.9</ele>
        <time>2013-08-25T14:47:41Z</time>
      </trkpt>
      <trkpt lat="46.0212" lon="6.80906">
        <ele>1349.4</ele>
        <time>2013-08-25T14:47:43Z</time>
      </trkpt>
      <trkpt lat="46.02115" lon="6.80937">
        <ele>1351.8</ele>
        <time>2013-08-25T14:47:58Z</time>
      </trkpt>
      <trkpt lat="46.02116" lon="6.80971">
        <ele>1353.2</ele>
        <time>2013-08-25T14:48:13Z</time>
      </trkpt>
      <trkpt lat="46.02119" lon="6.80986">
        <ele>1354.6</ele>
        <time>2013-08-25T14:48:22Z</time>
      </trkpt>
      <trkpt lat="46.02118" lon="6.80988">
        <ele>1355.6</ele>
        <time>2013-08-25T14:48:23Z</time>
      </trkpt>
      <trkpt lat="46.02117" lon="6.80991">
        <ele>1355.6</ele>
        <time>2013-08-25T14:48:24Z</time>
      </trkpt>
      <trkpt lat="46.02116" lon="6.80993">
        <ele>1355.6</ele>
        <time>2013-08-25T14:48:25Z</time>
      </trkpt>
      <trkpt lat="46.02117" lon="6.81007">
        <ele>1356.6</ele>
        <time>2013-08-25T14:48:36Z</time>
      </trkpt>
      <trkpt lat="46.02124" lon="6.81002">
        <ele>1357</ele>
        <time>2013-08-25T14:48:42Z</time>
      </trkpt>
      <trkpt lat="46.02125" lon="6.81">
        <ele>1356.6</ele>
        <time>2013-08-25T14:48:43Z</time>
      </trkpt>
      <trkpt lat="46.02126" lon="6.80997">
        <ele>1357</ele>
        <time>2013-08-25T14:48:44Z</time>
      </trkpt>
      <trkpt lat="46.02127" lon="6.80995">
        <ele>1357</ele>
        <time>2013-08-25T14:48:45Z</time>
      </trkpt>
      <trkpt lat="46.02128" lon="6.80994">
        <ele>1356.6</ele>
        <time>2013-08-25T14:48:46Z</time>
      </trkpt>
      <trkpt lat="46.02137" lon="6.80979">
        <ele>1357.5</ele>
        <time>2013-08-25T14:49:00Z</time>
      </trkpt>
      <trkpt lat="46.02139" lon="6.80977">
        <ele>1357.5</ele>
        <time>2013-08-25T14:49:02Z</time>
      </trkpt>
      <trkpt lat="46.02141" lon="6.80976">
        <ele>1358</ele>
        <time>2013-08-25T14:49:03Z</time>
      </trkpt>
      <trkpt lat="46.02142" lon="6.80975">
        <ele>1358.5</ele>
        <time>2013-08-25T14:49:04Z</time>
      </trkpt>
      <trkpt lat="46.02143" lon="6.80974">
        <ele>1358.5</ele>
        <time>2013-08-25T14:49:05Z</time>
      </trkpt>
      <trkpt lat="46.02144" lon="6.80973">
        <ele>1358.5</ele>
        <time>2013-08-25T14:49:06Z</time>
      </trkpt>
      <trkpt lat="46.02162" lon="6.80973">
        <ele>1360.9</ele>
        <time>2013-08-25T14:49:19Z</time>
      </trkpt>
      <trkpt lat="46.02179" lon="6.80985">
        <ele>1362.8</ele>
        <time>2013-08-25T14:49:32Z</time>
      </trkpt>
      <trkpt lat="46.02179" lon="6.80992">
        <ele>1362.8</ele>
        <time>2013-08-25T14:49:35Z</time>
      </trkpt>
      <trkpt lat="46.02178" lon="6.80994">
        <ele>1362.8</ele>
        <time>2013-08-25T14:49:36Z</time>
      </trkpt>
      <trkpt lat="46.02178" lon="6.80995">
        <ele>1363.3</ele>
        <time>2013-08-25T14:49:37Z</time>
      </trkpt>
      <trkpt lat="46.02177" lon="6.80997">
        <ele>1363.8</ele>
        <time>2013-08-25T14:49:38Z</time>
      </trkpt>
      <trkpt lat="46.02176" lon="6.80999">
        <ele>1363.3</ele>
        <time>2013-08-25T14:49:39Z</time>
      </trkpt>
      <trkpt lat="46.02176" lon="6.81">
        <ele>1363.3</ele>
        <time>2013-08-25T14:49:40Z</time>
      </trkpt>
      <trkpt lat="46.02175" lon="6.81002">
        <ele>1363.8</ele>
        <time>2013-08-25T14:49:41Z</time>
      </trkpt>
      <trkpt lat="46.02168" lon="6.81013">
        <ele>1364.7</ele>
        <time>2013-08-25T14:49:56Z</time>
      </trkpt>
      <trkpt lat="46.02168" lon="6.81011">
        <ele>1365.2</ele>
        <time>2013-08-25T14:49:58Z</time>
      </trkpt>
      <trkpt lat="46.02168" lon="6.81009">
        <ele>1364.7</ele>
        <time>2013-08-25T14:49:59Z</time>
      </trkpt>
      <trkpt lat="46.02167" lon="6.81006">
        <ele>1365.7</ele>
        <time>2013-08-25T14:50:16Z</time>
      </trkpt>
      <trkpt lat="46.02167" lon="6.81006">
        <ele>1365.7</ele>
        <time>2013-08-25T14:50:17Z</time>
      </trkpt>
      <trkpt lat="46.02167" lon="6.8101">
        <ele>1364.7</ele>
        <time>2013-08-25T14:50:33Z</time>
      </trkpt>
      <trkpt lat="46.02164" lon="6.81013">
        <ele>1365.7</ele>
        <time>2013-08-25T14:50:45Z</time>
      </trkpt>
      <trkpt lat="46.0216" lon="6.81015">
        <ele>1365.2</ele>
        <time>2013-08-25T14:50:48Z</time>
      </trkpt>
      <trkpt lat="46.02142" lon="6.81012">
        <ele>1366.7</ele>
        <time>2013-08-25T14:51:00Z</time>
      </trkpt>
      <trkpt lat="46.0214" lon="6.81013">
        <ele>1367.6</ele>
        <time>2013-08-25T14:51:01Z</time>
      </trkpt>
      <trkpt lat="46.0214" lon="6.81014">
        <ele>1367.1</ele>
        <time>2013-08-25T14:51:02Z</time>
      </trkpt>
      <trkpt lat="46.02139" lon="6.81016">
        <ele>1367.6</ele>
        <time>2013-08-25T14:51:03Z</time>
      </trkpt>
      <trkpt lat="46.02139" lon="6.81018">
        <ele>1367.6</ele>
        <time>2013-08-25T14:51:04Z</time>
      </trkpt>
      <trkpt lat="46.02139" lon="6.8102">
        <ele>1368.1</ele>
        <time>2013-08-25T14:51:05Z</time>
      </trkpt>
      <trkpt lat="46.02139" lon="6.81023">
        <ele>1367.6</ele>
        <time>2013-08-25T14:51:07Z</time>
      </trkpt>
      <trkpt lat="46.0214" lon="6.81024">
        <ele>1367.6</ele>
        <time>2013-08-25T14:51:08Z</time>
      </trkpt>
      <trkpt lat="46.02141" lon="6.81025">
        <ele>1368.6</ele>
        <time>2013-08-25T14:51:09Z</time>
      </trkpt>
      <trkpt lat="46.02143" lon="6.81026">
        <ele>1368.1</ele>
        <time>2013-08-25T14:51:10Z</time>
      </trkpt>
      <trkpt lat="46.02144" lon="6.81027">
        <ele>1368.6</ele>
        <time>2013-08-25T14:51:11Z</time>
      </trkpt>
      <trkpt lat="46.02145" lon="6.81028">
        <ele>1368.6</ele>
        <time>2013-08-25T14:51:12Z</time>
      </trkpt>
      <trkpt lat="46.02146" lon="6.81029">
        <ele>1369.1</ele>
        <time>2013-08-25T14:51:13Z</time>
      </trkpt>
      <trkpt lat="46.02148" lon="6.81029">
        <ele>1368.6</ele>
        <time>2013-08-25T14:51:14Z</time>
      </trkpt>
      <trkpt lat="46.02149" lon="6.81029">
        <ele>1369.1</ele>
        <time>2013-08-25T14:51:15Z</time>
      </trkpt>
      <trkpt lat="46.02155" lon="6.81034">
        <ele>1370.5</ele>
        <time>2013-08-25T14:51:21Z</time>
      </trkpt>
      <trkpt lat="46.02156" lon="6.81035">
        <ele>1370.5</ele>
        <time>2013-08-25T14:51:22Z</time>
      </trkpt>
      <trkpt lat="46.02157" lon="6.81037">
        <ele>1370.5</ele>
        <time>2013-08-25T14:51:23Z</time>
      </trkpt>
      <trkpt lat="46.02159" lon="6.81053">
        <ele>1371.9</ele>
        <time>2013-08-25T14:51:35Z</time>
      </trkpt>
      <trkpt lat="46.02149" lon="6.81072">
        <ele>1373.4</ele>
        <time>2013-08-25T14:51:49Z</time>
      </trkpt>
      <trkpt lat="46.02145" lon="6.81079">
        <ele>1373.9</ele>
        <time>2013-08-25T14:51:54Z</time>
      </trkpt>
      <trkpt lat="46.02143" lon="6.81079">
        <ele>1374.3</ele>
        <time>2013-08-25T14:51:56Z</time>
      </trkpt>
      <trkpt lat="46.0214" lon="6.81077">
        <ele>1375.3</ele>
        <time>2013-08-25T14:52:00Z</time>
      </trkpt>
      <trkpt lat="46.02138" lon="6.81075">
        <ele>1374.8</ele>
        <time>2013-08-25T14:52:02Z</time>
      </trkpt>
      <trkpt lat="46.02137" lon="6.81075">
        <ele>1375.8</ele>
        <time>2013-08-25T14:52:03Z</time>
      </trkpt>
      <trkpt lat="46.02136" lon="6.81073">
        <ele>1376.3</ele>
        <time>2013-08-25T14:52:04Z</time>
      </trkpt>
      <trkpt lat="46.02131" lon="6.81065">
        <ele>1377.2</ele>
        <time>2013-08-25T14:52:10Z</time>
      </trkpt>
      <trkpt lat="46.0213" lon="6.81063">
        <ele>1377.2</ele>
        <time>2013-08-25T14:52:11Z</time>
      </trkpt>
      <trkpt lat="46.02129" lon="6.81062">
        <ele>1377.7</ele>
        <time>2013-08-25T14:52:12Z</time>
      </trkpt>
      <trkpt lat="46.02125" lon="6.8106">
        <ele>1378.2</ele>
        <time>2013-08-25T14:52:17Z</time>
      </trkpt>
      <trkpt lat="46.02124" lon="6.81061">
        <ele>1378.2</ele>
        <time>2013-08-25T14:52:18Z</time>
      </trkpt>
      <trkpt lat="46.02123" lon="6.81063">
        <ele>1378.7</ele>
        <time>2013-08-25T14:52:20Z</time>
      </trkpt>
      <trkpt lat="46.02122" lon="6.81066">
        <ele>1378.7</ele>
        <time>2013-08-25T14:52:22Z</time>
      </trkpt>
      <trkpt lat="46.02122" lon="6.81069">
        <ele>1379.2</ele>
        <time>2013-08-25T14:52:25Z</time>
      </trkpt>
      <trkpt lat="46.02117" lon="6.81075">
        <ele>1381.1</ele>
        <time>2013-08-25T14:52:32Z</time>
      </trkpt>
      <trkpt lat="46.02113" lon="6.81082">
        <ele>1383</ele>
        <time>2013-08-25T14:52:47Z</time>
      </trkpt>
      <trkpt lat="46.02115" lon="6.81083">
        <ele>1380.6</ele>
        <time>2013-08-25T14:53:17Z</time>
      </trkpt>
      <trkpt lat="46.02115" lon="6.81083">
        <ele>1380.6</ele>
        <time>2013-08-25T14:53:18Z</time>
      </trkpt>
      <trkpt lat="46.02117" lon="6.81083">
        <ele>1375.8</ele>
        <time>2013-08-26T05:54:15Z</time>
      </trkpt>
      <trkpt lat="46.02098" lon="6.81099">
        <ele>1375.3</ele>
        <time>2013-08-26T05:54:16Z</time>
      </trkpt>
      <trkpt lat="46.02099" lon="6.81091">
        <ele>1375.8</ele>
        <time>2013-08-26T05:54:32Z</time>
      </trkpt>
      <trkpt lat="46.02104" lon="6.81089">
        <ele>1376.3</ele>
        <time>2013-08-26T05:54:46Z</time>
      </trkpt>
      <trkpt lat="46.02111" lon="6.81088">
        <ele>1375.3</ele>
        <time>2013-08-26T05:55:12Z</time>
      </trkpt>
      <trkpt lat="46.0211" lon="6.81088">
        <ele>1375.8</ele>
        <time>2013-08-26T05:55:38Z</time>
      </trkpt>
      <trkpt lat="46.02107" lon="6.81094">
        <ele>1375.8</ele>
        <time>2013-08-26T05:55:53Z</time>
      </trkpt>
      <trkpt lat="46.02101" lon="6.81097">
        <ele>1375.8</ele>
        <time>2013-08-26T05:56:04Z</time>
      </trkpt>
      <trkpt lat="46.02072" lon="6.81115">
        <ele>1375.3</ele>
        <time>2013-08-26T05:56:18Z</time>
      </trkpt>
      <trkpt lat="46.0206" lon="6.81118">
        <ele>1376.3</ele>
        <time>2013-08-26T05:56:30Z</time>
      </trkpt>
      <trkpt lat="46.02054" lon="6.81117">
        <ele>1376.3</ele>
        <time>2013-08-26T05:56:50Z</time>
      </trkpt>
      <trkpt lat="46.0205" lon="6.81116">
        <ele>1376.3</ele>
        <time>2013-08-26T05:56:56Z</time>
      </trkpt>
      <trkpt lat="46.02048" lon="6.81116">
        <ele>1376.3</ele>
        <time>2013-08-26T05:56:57Z</time>
      </trkpt>
      <trkpt lat="46.02044" lon="6.81101">
        <ele>1376.8</ele>
        <time>2013-08-26T05:57:04Z</time>
      </trkpt>
      <trkpt lat="46.02058" lon="6.81093">
        <ele>1375.3</ele>
        <time>2013-08-26T05:57:11Z</time>
      </trkpt>
      <trkpt lat="46.02068" lon="6.81072">
        <ele>1376.8</ele>
        <time>2013-08-26T05:57:23Z</time>
      </trkpt>
      <trkpt lat="46.02065" lon="6.81065">
        <ele>1377.7</ele>
        <time>2013-08-26T05:57:26Z</time>
      </trkpt>
      <trkpt lat="46.02042" lon="6.81055">
        <ele>1379.2</ele>
        <time>2013-08-26T05:57:37Z</time>
      </trkpt>
      <trkpt lat="46.02021" lon="6.81044">
        <ele>1382</ele>
        <time>2013-08-26T05:57:50Z</time>
      </trkpt>
      <trkpt lat="46.01995" lon="6.81043">
        <ele>1384</ele>
        <time>2013-08-26T05:58:02Z</time>
      </trkpt>
      <trkpt lat="46.01983" lon="6.81042">
        <ele>1386.8</ele>
        <time>2013-08-26T05:58:14Z</time>
      </trkpt>
      <trkpt lat="46.01976" lon="6.81042">
        <ele>1388.3</ele>
        <time>2013-08-26T05:58:19Z</time>
      </trkpt>
      <trkpt lat="46.01956" lon="6.81038">
        <ele>1389.7</ele>
        <time>2013-08-26T05:58:34Z</time>
      </trkpt>
      <trkpt lat="46.01936" lon="6.81026">
        <ele>1393.1</ele>
        <time>2013-08-26T05:58:48Z</time>
      </trkpt>
      <trkpt lat="46.01922" lon="6.81037">
        <ele>1392.6</ele>
        <time>2013-08-26T05:58:59Z</time>
      </trkpt>
      <trkpt lat="46.01913" lon="6.81042">
        <ele>1393.1</ele>
        <time>2013-08-26T05:59:05Z</time>
      </trkpt>
      <trkpt lat="46.01892" lon="6.81044">
        <ele>1394.5</ele>
        <time>2013-08-26T05:59:17Z</time>
      </trkpt>
      <trkpt lat="46.01881" lon="6.81049">
        <ele>1395</ele>
        <time>2013-08-26T05:59:24Z</time>
      </trkpt>
      <trkpt lat="46.01874" lon="6.81044">
        <ele>1395.5</ele>
        <time>2013-08-26T05:59:37Z</time>
      </trkpt>
      <trkpt lat="46.01868" lon="6.81034">
        <ele>1397.9</ele>
        <time>2013-08-26T06:00:02Z</time>
      </trkpt>
      <trkpt lat="46.01865" lon="6.81031">
        <ele>1396</ele>
        <time>2013-08-26T06:00:05Z</time>
      </trkpt>
      <trkpt lat="46.01859" lon="6.81021">
        <ele>1395</ele>
        <time>2013-08-26T06:00:16Z</time>
      </trkpt>
      <trkpt lat="46.01861" lon="6.81019">
        <ele>1395.5</ele>
        <time>2013-08-26T06:00:18Z</time>
      </trkpt>
      <trkpt lat="46.01862" lon="6.81016">
        <ele>1395</ele>
        <time>2013-08-26T06:00:20Z</time>
      </trkpt>
      <trkpt lat="46.01863" lon="6.81015">
        <ele>1395.5</ele>
        <time>2013-08-26T06:00:21Z</time>
      </trkpt>
      <trkpt lat="46.01864" lon="6.81013">
        <ele>1395.5</ele>
        <time>2013-08-26T06:00:22Z</time>
      </trkpt>
      <trkpt lat="46.01866" lon="6.81012">
        <ele>1396</ele>
        <time>2013-08-26T06:00:23Z</time>
      </trkpt>
      <trkpt lat="46.01867" lon="6.8101">
        <ele>1396</ele>
        <time>2013-08-26T06:00:24Z</time>
      </trkpt>
      <trkpt lat="46.01869" lon="6.81009">
        <ele>1396</ele>
        <time>2013-08-26T06:00:25Z</time>
      </trkpt>
      <trkpt lat="46.01871" lon="6.81008">
        <ele>1395.5</ele>
        <time>2013-08-26T06:00:26Z</time>
      </trkpt>
      <trkpt lat="46.01873" lon="6.81008">
        <ele>1395.5</ele>
        <time>2013-08-26T06:00:27Z</time>
      </trkpt>
      <trkpt lat="46.01874" lon="6.81006">
        <ele>1396</ele>
        <time>2013-08-26T06:00:28Z</time>
      </trkpt>
      <trkpt lat="46.01877" lon="6.80999">
        <ele>1396</ele>
        <time>2013-08-26T06:00:31Z</time>
      </trkpt>
      <trkpt lat="46.01877" lon="6.80996">
        <ele>1396.5</ele>
        <time>2013-08-26T06:00:32Z</time>
      </trkpt>
      <trkpt lat="46.01878" lon="6.8098">
        <ele>1399.3</ele>
        <time>2013-08-26T06:00:43Z</time>
      </trkpt>
      <trkpt lat="46.01877" lon="6.80979">
        <ele>1399.3</ele>
        <time>2013-08-26T06:00:44Z</time>
      </trkpt>
      <trkpt lat="46.01854" lon="6.80973">
        <ele>1399.3</ele>
        <time>2013-08-26T06:00:58Z</time>
      </trkpt>
      <trkpt lat="46.01822" lon="6.80972">
        <ele>1396.9</ele>
        <time>2013-08-26T06:01:08Z</time>
      </trkpt>
      <trkpt lat="46.018" lon="6.80974">
        <ele>1394.5</ele>
        <time>2013-08-26T06:01:12Z</time>
      </trkpt>
      <trkpt lat="46.01792" lon="6.80975">
        <ele>1393.1</ele>
        <time>2013-08-26T06:01:13Z</time>
      </trkpt>
      <trkpt lat="46.01788" lon="6.80977">
        <ele>1393.1</ele>
        <time>2013-08-26T06:01:14Z</time>
      </trkpt>
      <trkpt lat="46.01765" lon="6.80988">
        <ele>1390.7</ele>
        <time>2013-08-26T06:01:18Z</time>
      </trkpt>
      <trkpt lat="46.01761" lon="6.80989">
        <ele>1390.2</ele>
        <time>2013-08-26T06:01:19Z</time>
      </trkpt>
      <trkpt lat="46.01757" lon="6.80987">
        <ele>1389.7</ele>
        <time>2013-08-26T06:01:20Z</time>
      </trkpt>
      <trkpt lat="46.0174" lon="6.80977">
        <ele>1388.3</ele>
        <time>2013-08-26T06:01:24Z</time>
      </trkpt>
      <trkpt lat="46.01727" lon="6.80941">
        <ele>1386.4</ele>
        <time>2013-08-26T06:01:34Z</time>
      </trkpt>
      <trkpt lat="46.01728" lon="6.80937">
        <ele>1386.4</ele>
        <time>2013-08-26T06:01:37Z</time>
      </trkpt>
      <trkpt lat="46.01729" lon="6.80936">
        <ele>1386.4</ele>
        <time>2013-08-26T06:01:38Z</time>
      </trkpt>
      <trkpt lat="46.01735" lon="6.80939">
        <ele>1387.3</ele>
        <time>2013-08-26T06:01:42Z</time>
      </trkpt>
      <trkpt lat="46.01756" lon="6.8094">
        <ele>1390.7</ele>
        <time>2013-08-26T06:01:55Z</time>
      </trkpt>
      <trkpt lat="46.01757" lon="6.80939">
        <ele>1391.2</ele>
        <time>2013-08-26T06:01:56Z</time>
      </trkpt>
      <trkpt lat="46.01758" lon="6.80938">
        <ele>1391.7</ele>
        <time>2013-08-26T06:01:57Z</time>
      </trkpt>
      <trkpt lat="46.01759" lon="6.80936">
        <ele>1392.1</ele>
        <time>2013-08-26T06:01:58Z</time>
      </trkpt>
      <trkpt lat="46.01759" lon="6.80934">
        <ele>1392.1</ele>
        <time>2013-08-26T06:01:59Z</time>
      </trkpt>
      <trkpt lat="46.01759" lon="6.80932">
        <ele>1392.6</ele>
        <time>2013-08-26T06:02:00Z</time>
      </trkpt>
      <trkpt lat="46.01757" lon="6.80926">
        <ele>1394.1</ele>
        <time>2013-08-26T06:02:07Z</time>
      </trkpt>
      <trkpt lat="46.01752" lon="6.80927">
        <ele>1396</ele>
        <time>2013-08-26T06:02:19Z</time>
      </trkpt>
      <trkpt lat="46.01745" lon="6.80926">
        <ele>1398.9</ele>
        <time>2013-08-26T06:02:33Z</time>
      </trkpt>
      <trkpt lat="46.01742" lon="6.80928">
        <ele>1401.7</ele>
        <time>2013-08-26T06:02:48Z</time>
      </trkpt>
      <trkpt lat="46.01736" lon="6.8093">
        <ele>1402.7</ele>
        <time>2013-08-26T06:03:01Z</time>
      </trkpt>
      <trkpt lat="46.01722" lon="6.80921">
        <ele>1402.2</ele>
        <time>2013-08-26T06:03:38Z</time>
      </trkpt>
      <trkpt lat="46.01731" lon="6.80925">
        <ele>1403.2</ele>
        <time>2013-08-26T06:04:13Z</time>
      </trkpt>
      <trkpt lat="46.01719" lon="6.80908">
        <ele>1403.2</ele>
        <time>2013-08-26T06:04:47Z</time>
      </trkpt>
      <trkpt lat="46.01727" lon="6.80919">
        <ele>1404.1</ele>
        <time>2013-08-26T06:05:22Z</time>
      </trkpt>
      <trkpt lat="46.01729" lon="6.80925">
        <ele>1404.1</ele>
        <time>2013-08-26T06:05:40Z</time>
      </trkpt>
      <trkpt lat="46.01722" lon="6.80925">
        <ele>1405.1</ele>
        <time>2013-08-26T06:06:08Z</time>
      </trkpt>
      <trkpt lat="46.0172" lon="6.8093">
        <ele>1407.5</ele>
        <time>2013-08-26T06:06:21Z</time>
      </trkpt>
      <trkpt lat="46.01712" lon="6.80926">
        <ele>1409.9</ele>
        <time>2013-08-26T06:06:34Z</time>
      </trkpt>
      <trkpt lat="46.01706" lon="6.80926">
        <ele>1411.8</ele>
        <time>2013-08-26T06:06:46Z</time>
      </trkpt>
      <trkpt lat="46.01703" lon="6.80924">
        <ele>1413.3</ele>
        <time>2013-08-26T06:07:02Z</time>
      </trkpt>
      <trkpt lat="46.01697" lon="6.8092">
        <ele>1414.7</ele>
        <time>2013-08-26T06:07:19Z</time>
      </trkpt>
      <trkpt lat="46.01688" lon="6.80917">
        <ele>1418.1</ele>
        <time>2013-08-26T06:07:36Z</time>
      </trkpt>
      <trkpt lat="46.01677" lon="6.80919">
        <ele>1421</ele>
        <time>2013-08-26T06:07:51Z</time>
      </trkpt>
      <trkpt lat="46.01669" lon="6.80917">
        <ele>1422.9</ele>
        <time>2013-08-26T06:08:04Z</time>
      </trkpt>
      <trkpt lat="46.01659" lon="6.80915">
        <ele>1425.8</ele>
        <time>2013-08-26T06:08:22Z</time>
      </trkpt>
      <trkpt lat="46.0165" lon="6.80913">
        <ele>1429.1</ele>
        <time>2013-08-26T06:08:40Z</time>
      </trkpt>
      <trkpt lat="46.01642" lon="6.80908">
        <ele>1432</ele>
        <time>2013-08-26T06:08:54Z</time>
      </trkpt>
      <trkpt lat="46.01632" lon="6.80904">
        <ele>1434.4</ele>
        <time>2013-08-26T06:09:09Z</time>
      </trkpt>
      <trkpt lat="46.01624" lon="6.80899">
        <ele>1437.3</ele>
        <time>2013-08-26T06:09:24Z</time>
      </trkpt>
      <trkpt lat="46.01619" lon="6.80893">
        <ele>1438.8</ele>
        <time>2013-08-26T06:09:37Z</time>
      </trkpt>
      <trkpt lat="46.01614" lon="6.80891">
        <ele>1439.2</ele>
        <time>2013-08-26T06:09:59Z</time>
      </trkpt>
      <trkpt lat="46.01614" lon="6.8089">
        <ele>1439.2</ele>
        <time>2013-08-26T06:10:03Z</time>
      </trkpt>
      <trkpt lat="46.01613" lon="6.8089">
        <ele>1439.7</ele>
        <time>2013-08-26T06:10:05Z</time>
      </trkpt>
      <trkpt lat="46.01612" lon="6.80891">
        <ele>1439.2</ele>
        <time>2013-08-26T06:10:06Z</time>
      </trkpt>
      <trkpt lat="46.01609" lon="6.80889">
        <ele>1441.2</ele>
        <time>2013-08-26T06:10:09Z</time>
      </trkpt>
      <trkpt lat="46.01601" lon="6.80882">
        <ele>1443.6</ele>
        <time>2013-08-26T06:10:18Z</time>
      </trkpt>
      <trkpt lat="46.01595" lon="6.80877">
        <ele>1445.5</ele>
        <time>2013-08-26T06:10:26Z</time>
      </trkpt>
      <trkpt lat="46.01594" lon="6.80873">
        <ele>1446.4</ele>
        <time>2013-08-26T06:10:29Z</time>
      </trkpt>
      <trkpt lat="46.01594" lon="6.80872">
        <ele>1446.4</ele>
        <time>2013-08-26T06:10:30Z</time>
      </trkpt>
      <trkpt lat="46.01594" lon="6.8087">
        <ele>1446.9</ele>
        <time>2013-08-26T06:10:41Z</time>
      </trkpt>
      <trkpt lat="46.01595" lon="6.8087">
        <ele>1446.9</ele>
        <time>2013-08-26T06:10:45Z</time>
      </trkpt>
      <trkpt lat="46.01596" lon="6.8087">
        <ele>1446.4</ele>
        <time>2013-08-26T06:10:46Z</time>
      </trkpt>
      <trkpt lat="46.01598" lon="6.8087">
        <ele>1447.4</ele>
        <time>2013-08-26T06:10:47Z</time>
      </trkpt>
      <trkpt lat="46.01599" lon="6.8087">
        <ele>1447.4</ele>
        <time>2013-08-26T06:10:48Z</time>
      </trkpt>
      <trkpt lat="46.01608" lon="6.80869">
        <ele>1450.8</ele>
        <time>2013-08-26T06:10:57Z</time>
      </trkpt>
      <trkpt lat="46.01613" lon="6.80863">
        <ele>1452.2</ele>
        <time>2013-08-26T06:11:03Z</time>
      </trkpt>
      <trkpt lat="46.01613" lon="6.80862">
        <ele>1452.2</ele>
        <time>2013-08-26T06:11:04Z</time>
      </trkpt>
      <trkpt lat="46.01617" lon="6.80857">
        <ele>1453.7</ele>
        <time>2013-08-26T06:11:09Z</time>
      </trkpt>
      <trkpt lat="46.01618" lon="6.80856">
        <ele>1453.2</ele>
        <time>2013-08-26T06:11:10Z</time>
      </trkpt>
      <trkpt lat="46.01619" lon="6.80854">
        <ele>1453.2</ele>
        <time>2013-08-26T06:11:11Z</time>
      </trkpt>
      <trkpt lat="46.01627" lon="6.80843">
        <ele>1456.5</ele>
        <time>2013-08-26T06:11:22Z</time>
      </trkpt>
      <trkpt lat="46.01628" lon="6.80841">
        <ele>1456.1</ele>
        <time>2013-08-26T06:11:23Z</time>
      </trkpt>
      <trkpt lat="46.01628" lon="6.8084">
        <ele>1456.1</ele>
        <time>2013-08-26T06:11:24Z</time>
      </trkpt>
      <trkpt lat="46.01629" lon="6.80838">
        <ele>1456.5</ele>
        <time>2013-08-26T06:11:25Z</time>
      </trkpt>
      <trkpt lat="46.0163" lon="6.80837">
        <ele>1457</ele>
        <time>2013-08-26T06:11:26Z</time>
      </trkpt>
      <trkpt lat="46.0163" lon="6.80836">
        <ele>1457</ele>
        <time>2013-08-26T06:11:27Z</time>
      </trkpt>
      <trkpt lat="46.01639" lon="6.80815">
        <ele>1460.4</ele>
        <time>2013-08-26T06:11:41Z</time>
      </trkpt>
      <trkpt lat="46.0164" lon="6.80814">
        <ele>1460.9</ele>
        <time>2013-08-26T06:11:42Z</time>
      </trkpt>
      <trkpt lat="46.0165" lon="6.80801">
        <ele>1463.3</ele>
        <time>2013-08-26T06:11:53Z</time>
      </trkpt>
      <trkpt lat="46.01655" lon="6.80793">
        <ele>1464.7</ele>
        <time>2013-08-26T06:12:04Z</time>
      </trkpt>
      <trkpt lat="46.01662" lon="6.80782">
        <ele>1466.6</ele>
        <time>2013-08-26T06:12:24Z</time>
      </trkpt>
      <trkpt lat="46.01662" lon="6.80781">
        <ele>1466.6</ele>
        <time>2013-08-26T06:12:25Z</time>
      </trkpt>
      <trkpt lat="46.01664" lon="6.8078">
        <ele>1467.1</ele>
        <time>2013-08-26T06:12:26Z</time>
      </trkpt>
      <trkpt lat="46.01664" lon="6.80777">
        <ele>1468.1</ele>
        <time>2013-08-26T06:12:28Z</time>
      </trkpt>
      <trkpt lat="46.01666" lon="6.80768">
        <ele>1470</ele>
        <time>2013-08-26T06:12:35Z</time>
      </trkpt>
      <trkpt lat="46.01672" lon="6.80768">
        <ele>1471</ele>
        <time>2013-08-26T06:12:42Z</time>
      </trkpt>
      <trkpt lat="46.01687" lon="6.8076">
        <ele>1472.4</ele>
        <time>2013-08-26T06:12:54Z</time>
      </trkpt>
      <trkpt lat="46.01692" lon="6.8076">
        <ele>1472.9</ele>
        <time>2013-08-26T06:13:06Z</time>
      </trkpt>
      <trkpt lat="46.01691" lon="6.80764">
        <ele>1473.8</ele>
        <time>2013-08-26T06:13:38Z</time>
      </trkpt>
      <trkpt lat="46.01691" lon="6.80764">
        <ele>1473.8</ele>
        <time>2013-08-26T06:13:39Z</time>
      </trkpt>
      <trkpt lat="46.01691" lon="6.80764">
        <ele>1472.4</ele>
        <time>2013-08-26T06:14:14Z</time>
      </trkpt>
      <trkpt lat="46.0169" lon="6.80756">
        <ele>1472.9</ele>
        <time>2013-08-26T06:14:49Z</time>
      </trkpt>
      <trkpt lat="46.01692" lon="6.80755">
        <ele>1472.9</ele>
        <time>2013-08-26T06:15:22Z</time>
      </trkpt>
      <trkpt lat="46.01691" lon="6.8076">
        <ele>1473.4</ele>
        <time>2013-08-26T06:15:47Z</time>
      </trkpt>
      <trkpt lat="46.01692" lon="6.8076">
        <ele>1473.8</ele>
        <time>2013-08-26T06:16:20Z</time>
      </trkpt>
      <trkpt lat="46.01691" lon="6.80757">
        <ele>1473.4</ele>
        <time>2013-08-26T06:16:46Z</time>
      </trkpt>
      <trkpt lat="46.01693" lon="6.80756">
        <ele>1474.3</ele>
        <time>2013-08-26T06:16:48Z</time>
      </trkpt>
      <trkpt lat="46.01694" lon="6.80755">
        <ele>1474.3</ele>
        <time>2013-08-26T06:16:49Z</time>
      </trkpt>
      <trkpt lat="46.01707" lon="6.80738">
        <ele>1478.2</ele>
        <time>2013-08-26T06:17:02Z</time>
      </trkpt>
      <trkpt lat="46.01709" lon="6.80734">
        <ele>1479.1</ele>
        <time>2013-08-26T06:17:05Z</time>
      </trkpt>
      <trkpt lat="46.01709" lon="6.80732">
        <ele>1479.1</ele>
        <time>2013-08-26T06:17:06Z</time>
      </trkpt>
      <trkpt lat="46.01713" lon="6.80723">
        <ele>1481.5</ele>
        <time>2013-08-26T06:17:12Z</time>
      </trkpt>
      <trkpt lat="46.01718" lon="6.80707">
        <ele>1485.4</ele>
        <time>2013-08-26T06:17:22Z</time>
      </trkpt>
      <trkpt lat="46.01724" lon="6.80693">
        <ele>1487.3</ele>
        <time>2013-08-26T06:17:32Z</time>
      </trkpt>
      <trkpt lat="46.01729" lon="6.80688">
        <ele>1489.2</ele>
        <time>2013-08-26T06:17:46Z</time>
      </trkpt>
      <trkpt lat="46.01731" lon="6.8068">
        <ele>1492.6</ele>
        <time>2013-08-26T06:17:57Z</time>
      </trkpt>
      <trkpt lat="46.01747" lon="6.80658">
        <ele>1495.5</ele>
        <time>2013-08-26T06:18:10Z</time>
      </trkpt>
      <trkpt lat="46.0175" lon="6.8064">
        <ele>1497.9</ele>
        <time>2013-08-26T06:18:23Z</time>
      </trkpt>
      <trkpt lat="46.01756" lon="6.80627">
        <ele>1500.3</ele>
        <time>2013-08-26T06:18:36Z</time>
      </trkpt>
      <trkpt lat="46.01752" lon="6.80618">
        <ele>1502.2</ele>
        <time>2013-08-26T06:18:51Z</time>
      </trkpt>
      <trkpt lat="46.01762" lon="6.80612">
        <ele>1503.6</ele>
        <time>2013-08-26T06:19:02Z</time>
      </trkpt>
      <trkpt lat="46.01768" lon="6.80602">
        <ele>1507</ele>
        <time>2013-08-26T06:19:14Z</time>
      </trkpt>
      <trkpt lat="46.01782" lon="6.80589">
        <ele>1507</ele>
        <time>2013-08-26T06:19:30Z</time>
      </trkpt>
      <trkpt lat="46.01781" lon="6.80583">
        <ele>1506.5</ele>
        <time>2013-08-26T06:19:42Z</time>
      </trkpt>
      <trkpt lat="46.01789" lon="6.80581">
        <ele>1507.5</ele>
        <time>2013-08-26T06:20:24Z</time>
      </trkpt>
      <trkpt lat="46.01796" lon="6.8059">
        <ele>1507.5</ele>
        <time>2013-08-26T06:20:59Z</time>
      </trkpt>
      <trkpt lat="46.01793" lon="6.80586">
        <ele>1507</ele>
        <time>2013-08-26T06:21:28Z</time>
      </trkpt>
      <trkpt lat="46.01775" lon="6.80584">
        <ele>1507</ele>
        <time>2013-08-26T06:21:46Z</time>
      </trkpt>
      <trkpt lat="46.01775" lon="6.80584">
        <ele>1507</ele>
        <time>2013-08-26T06:21:47Z</time>
      </trkpt>
      <trkpt lat="46.01783" lon="6.80588">
        <ele>1507.5</ele>
        <time>2013-08-26T06:22:26Z</time>
      </trkpt>
      <trkpt lat="46.01783" lon="6.80587">
        <ele>1508.5</ele>
        <time>2013-08-26T06:22:28Z</time>
      </trkpt>
      <trkpt lat="46.01789" lon="6.80581">
        <ele>1510.9</ele>
        <time>2013-08-26T06:22:42Z</time>
      </trkpt>
      <trkpt lat="46.01794" lon="6.80578">
        <ele>1512.8</ele>
        <time>2013-08-26T06:22:55Z</time>
      </trkpt>
      <trkpt lat="46.01802" lon="6.80564">
        <ele>1514.7</ele>
        <time>2013-08-26T06:23:07Z</time>
      </trkpt>
      <trkpt lat="46.01807" lon="6.80547">
        <ele>1517.1</ele>
        <time>2013-08-26T06:23:27Z</time>
      </trkpt>
      <trkpt lat="46.01816" lon="6.80537">
        <ele>1519</ele>
        <time>2013-08-26T06:23:42Z</time>
      </trkpt>
      <trkpt lat="46.01811" lon="6.80529">
        <ele>1520.9</ele>
        <time>2013-08-26T06:23:54Z</time>
      </trkpt>
      <trkpt lat="46.01806" lon="6.80534">
        <ele>1524.3</ele>
        <time>2013-08-26T06:24:03Z</time>
      </trkpt>
      <trkpt lat="46.01798" lon="6.80537">
        <ele>1527.2</ele>
        <time>2013-08-26T06:24:20Z</time>
      </trkpt>
      <trkpt lat="46.01791" lon="6.80534">
        <ele>1528.6</ele>
        <time>2013-08-26T06:24:31Z</time>
      </trkpt>
      <trkpt lat="46.01785" lon="6.80534">
        <ele>1531</ele>
        <time>2013-08-26T06:24:48Z</time>
      </trkpt>
      <trkpt lat="46.01787" lon="6.80522">
        <ele>1533.9</ele>
        <time>2013-08-26T06:25:02Z</time>
      </trkpt>
      <trkpt lat="46.01791" lon="6.80518">
        <ele>1535.4</ele>
        <time>2013-08-26T06:25:15Z</time>
      </trkpt>
      <trkpt lat="46.018" lon="6.80506">
        <ele>1537.8</ele>
        <time>2013-08-26T06:25:29Z</time>
      </trkpt>
      <trkpt lat="46.01807" lon="6.8049">
        <ele>1540.2</ele>
        <time>2013-08-26T06:25:42Z</time>
      </trkpt>
      <trkpt lat="46.0181" lon="6.80476">
        <ele>1543.1</ele>
        <time>2013-08-26T06:25:54Z</time>
      </trkpt>
      <trkpt lat="46.01809" lon="6.80471">
        <ele>1545.5</ele>
        <time>2013-08-26T06:26:11Z</time>
      </trkpt>
      <trkpt lat="46.018" lon="6.8047">
        <ele>1548.3</ele>
        <time>2013-08-26T06:26:23Z</time>
      </trkpt>
      <trkpt lat="46.01785" lon="6.80476">
        <ele>1551.2</ele>
        <time>2013-08-26T06:26:41Z</time>
      </trkpt>
      <trkpt lat="46.01771" lon="6.80493">
        <ele>1554.1</ele>
        <time>2013-08-26T06:26:56Z</time>
      </trkpt>
      <trkpt lat="46.01762" lon="6.80496">
        <ele>1556.5</ele>
        <time>2013-08-26T06:27:10Z</time>
      </trkpt>
      <trkpt lat="46.01755" lon="6.80495">
        <ele>1558.9</ele>
        <time>2013-08-26T06:27:23Z</time>
      </trkpt>
      <trkpt lat="46.01743" lon="6.80502">
        <ele>1561.3</ele>
        <time>2013-08-26T06:27:38Z</time>
      </trkpt>
      <trkpt lat="46.01739" lon="6.80497">
        <ele>1564.2</ele>
        <time>2013-08-26T06:27:53Z</time>
      </trkpt>
      <trkpt lat="46.01745" lon="6.80482">
        <ele>1566.6</ele>
        <time>2013-08-26T06:28:10Z</time>
      </trkpt>
      <trkpt lat="46.01747" lon="6.80471">
        <ele>1570.5</ele>
        <time>2013-08-26T06:28:25Z</time>
      </trkpt>
      <trkpt lat="46.01749" lon="6.80458">
        <ele>1571.4</ele>
        <time>2013-08-26T06:28:40Z</time>
      </trkpt>
      <trkpt lat="46.01755" lon="6.80434">
        <ele>1572.9</ele>
        <time>2013-08-26T06:29:01Z</time>
      </trkpt>
      <trkpt lat="46.01759" lon="6.80436">
        <ele>1573.3</ele>
        <time>2013-08-26T06:29:37Z</time>
      </trkpt>
      <trkpt lat="46.01759" lon="6.80435">
        <ele>1573.8</ele>
        <time>2013-08-26T06:29:54Z</time>
      </trkpt>
      <trkpt lat="46.01758" lon="6.80425">
        <ele>1576.7</ele>
        <time>2013-08-26T06:30:07Z</time>
      </trkpt>
      <trkpt lat="46.01758" lon="6.8041">
        <ele>1578.6</ele>
        <time>2013-08-26T06:30:21Z</time>
      </trkpt>
      <trkpt lat="46.01758" lon="6.80401">
        <ele>1580.1</ele>
        <time>2013-08-26T06:30:32Z</time>
      </trkpt>
      <trkpt lat="46.0176" lon="6.80392">
        <ele>1583.4</ele>
        <time>2013-08-26T06:30:43Z</time>
      </trkpt>
      <trkpt lat="46.01761" lon="6.80391">
        <ele>1582.5</ele>
        <time>2013-08-26T06:30:44Z</time>
      </trkpt>
      <trkpt lat="46.01764" lon="6.80384">
        <ele>1585.8</ele>
        <time>2013-08-26T06:30:55Z</time>
      </trkpt>
      <trkpt lat="46.01765" lon="6.80379">
        <ele>1585.4</ele>
        <time>2013-08-26T06:30:59Z</time>
      </trkpt>
      <trkpt lat="46.01766" lon="6.80378">
        <ele>1584.9</ele>
        <time>2013-08-26T06:31:00Z</time>
      </trkpt>
      <trkpt lat="46.01772" lon="6.80365">
        <ele>1586.3</ele>
        <time>2013-08-26T06:31:13Z</time>
      </trkpt>
      <trkpt lat="46.01781" lon="6.80349">
        <ele>1590.2</ele>
        <time>2013-08-26T06:31:23Z</time>
      </trkpt>
      <trkpt lat="46.01782" lon="6.80347">
        <ele>1590.2</ele>
        <time>2013-08-26T06:31:24Z</time>
      </trkpt>
      <trkpt lat="46.01783" lon="6.80333">
        <ele>1592.1</ele>
        <time>2013-08-26T06:31:30Z</time>
      </trkpt>
      <trkpt lat="46.01783" lon="6.80323">
        <ele>1595.9</ele>
        <time>2013-08-26T06:31:37Z</time>
      </trkpt>
      <trkpt lat="46.01782" lon="6.80304">
        <ele>1596.9</ele>
        <time>2013-08-26T06:31:53Z</time>
      </trkpt>
      <trkpt lat="46.01782" lon="6.803">
        <ele>1597.9</ele>
        <time>2013-08-26T06:32:17Z</time>
      </trkpt>
      <trkpt lat="46.01782" lon="6.80305">
        <ele>1596.9</ele>
        <time>2013-08-26T06:32:47Z</time>
      </trkpt>
      <trkpt lat="46.01782" lon="6.80305">
        <ele>1598.3</ele>
        <time>2013-08-26T06:33:14Z</time>
      </trkpt>
      <trkpt lat="46.01783" lon="6.80308">
        <ele>1597.9</ele>
        <time>2013-08-26T06:33:47Z</time>
      </trkpt>
      <trkpt lat="46.01783" lon="6.80296">
        <ele>1597.9</ele>
        <time>2013-08-26T06:34:15Z</time>
      </trkpt>
      <trkpt lat="46.01781" lon="6.80289">
        <ele>1597.4</ele>
        <time>2013-08-26T06:34:44Z</time>
      </trkpt>
      <trkpt lat="46.01786" lon="6.80296">
        <ele>1599.3</ele>
        <time>2013-08-26T06:35:19Z</time>
      </trkpt>
      <trkpt lat="46.01784" lon="6.80295">
        <ele>1600.3</ele>
        <time>2013-08-26T06:35:38Z</time>
      </trkpt>
      <trkpt lat="46.01783" lon="6.803">
        <ele>1601.7</ele>
        <time>2013-08-26T06:35:47Z</time>
      </trkpt>
      <trkpt lat="46.01775" lon="6.80312">
        <ele>1604.1</ele>
        <time>2013-08-26T06:36:03Z</time>
      </trkpt>
      <trkpt lat="46.01767" lon="6.80317">
        <ele>1605.1</ele>
        <time>2013-08-26T06:36:13Z</time>
      </trkpt>
      <trkpt lat="46.01764" lon="6.8032">
        <ele>1607</ele>
        <time>2013-08-26T06:36:18Z</time>
      </trkpt>
      <trkpt lat="46.01762" lon="6.80319">
        <ele>1608.4</ele>
        <time>2013-08-26T06:36:35Z</time>
      </trkpt>
      <trkpt lat="46.01763" lon="6.80306">
        <ele>1612.8</ele>
        <time>2013-08-26T06:36:47Z</time>
      </trkpt>
      <trkpt lat="46.01764" lon="6.80304">
        <ele>1612.8</ele>
        <time>2013-08-26T06:36:48Z</time>
      </trkpt>
      <trkpt lat="46.01763" lon="6.80296">
        <ele>1614.2</ele>
        <time>2013-08-26T06:37:02Z</time>
      </trkpt>
      <trkpt lat="46.01763" lon="6.80289">
        <ele>1615.2</ele>
        <time>2013-08-26T06:37:07Z</time>
      </trkpt>
      <trkpt lat="46.01765" lon="6.80274">
        <ele>1619</ele>
        <time>2013-08-26T06:37:22Z</time>
      </trkpt>
      <trkpt lat="46.01765" lon="6.8027">
        <ele>1618.5</ele>
        <time>2013-08-26T06:37:26Z</time>
      </trkpt>
      <trkpt lat="46.01764" lon="6.80259">
        <ele>1620.4</ele>
        <time>2013-08-26T06:37:36Z</time>
      </trkpt>
      <trkpt lat="46.01765" lon="6.80251">
        <ele>1620.9</ele>
        <time>2013-08-26T06:37:50Z</time>
      </trkpt>
      <trkpt lat="46.01764" lon="6.80247">
        <ele>1621.4</ele>
        <time>2013-08-26T06:38:00Z</time>
      </trkpt>
      <trkpt lat="46.01766" lon="6.80229">
        <ele>1623.3</ele>
        <time>2013-08-26T06:38:12Z</time>
      </trkpt>
      <trkpt lat="46.01765" lon="6.80225">
        <ele>1624.8</ele>
        <time>2013-08-26T06:38:16Z</time>
      </trkpt>
      <trkpt lat="46.01762" lon="6.8022">
        <ele>1625.3</ele>
        <time>2013-08-26T06:38:20Z</time>
      </trkpt>
      <trkpt lat="46.01759" lon="6.80211">
        <ele>1627.2</ele>
        <time>2013-08-26T06:38:26Z</time>
      </trkpt>
      <trkpt lat="46.01758" lon="6.80209">
        <ele>1627.2</ele>
        <time>2013-08-26T06:38:27Z</time>
      </trkpt>
      <trkpt lat="46.01758" lon="6.80208">
        <ele>1627.7</ele>
        <time>2013-08-26T06:38:28Z</time>
      </trkpt>
      <trkpt lat="46.01756" lon="6.80204">
        <ele>1629.1</ele>
        <time>2013-08-26T06:38:31Z</time>
      </trkpt>
      <trkpt lat="46.01751" lon="6.80192">
        <ele>1631</ele>
        <time>2013-08-26T06:38:38Z</time>
      </trkpt>
      <trkpt lat="46.01749" lon="6.80184">
        <ele>1632.5</ele>
        <time>2013-08-26T06:38:44Z</time>
      </trkpt>
      <trkpt lat="46.01747" lon="6.80168">
        <ele>1635.3</ele>
        <time>2013-08-26T06:38:57Z</time>
      </trkpt>
      <trkpt lat="46.01746" lon="6.80156">
        <ele>1636.8</ele>
        <time>2013-08-26T06:39:17Z</time>
      </trkpt>
      <trkpt lat="46.01746" lon="6.80154">
        <ele>1636.8</ele>
        <time>2013-08-26T06:39:22Z</time>
      </trkpt>
      <trkpt lat="46.01748" lon="6.80139">
        <ele>1640.2</ele>
        <time>2013-08-26T06:39:35Z</time>
      </trkpt>
      <trkpt lat="46.01748" lon="6.80125">
        <ele>1642.1</ele>
        <time>2013-08-26T06:39:49Z</time>
      </trkpt>
      <trkpt lat="46.01743" lon="6.80114">
        <ele>1644.5</ele>
        <time>2013-08-26T06:40:01Z</time>
      </trkpt>
      <trkpt lat="46.01735" lon="6.80103">
        <ele>1645.4</ele>
        <time>2013-08-26T06:40:16Z</time>
      </trkpt>
      <trkpt lat="46.01733" lon="6.80101">
        <ele>1646.9</ele>
        <time>2013-08-26T06:40:20Z</time>
      </trkpt>
      <trkpt lat="46.0173" lon="6.80089">
        <ele>1648.3</ele>
        <time>2013-08-26T06:40:35Z</time>
      </trkpt>
      <trkpt lat="46.01729" lon="6.80084">
        <ele>1650.2</ele>
        <time>2013-08-26T06:40:42Z</time>
      </trkpt>
      <trkpt lat="46.01727" lon="6.80079">
        <ele>1651.7</ele>
        <time>2013-08-26T06:40:47Z</time>
      </trkpt>
      <trkpt lat="46.01726" lon="6.80073">
        <ele>1653.1</ele>
        <time>2013-08-26T06:40:53Z</time>
      </trkpt>
      <trkpt lat="46.01722" lon="6.80065">
        <ele>1656</ele>
        <time>2013-08-26T06:41:03Z</time>
      </trkpt>
      <trkpt lat="46.01723" lon="6.80056">
        <ele>1656</ele>
        <time>2013-08-26T06:41:13Z</time>
      </trkpt>
      <trkpt lat="46.01722" lon="6.80054">
        <ele>1658.9</ele>
        <time>2013-08-26T06:41:17Z</time>
      </trkpt>
      <trkpt lat="46.01717" lon="6.80047">
        <ele>1660.3</ele>
        <time>2013-08-26T06:41:32Z</time>
      </trkpt>
      <trkpt lat="46.01713" lon="6.8004">
        <ele>1660.3</ele>
        <time>2013-08-26T06:41:46Z</time>
      </trkpt>
      <trkpt lat="46.0171" lon="6.80038">
        <ele>1661.3</ele>
        <time>2013-08-26T06:41:50Z</time>
      </trkpt>
      <trkpt lat="46.01708" lon="6.80035">
        <ele>1663.2</ele>
        <time>2013-08-26T06:42:01Z</time>
      </trkpt>
      <trkpt lat="46.01708" lon="6.80033">
        <ele>1662.3</ele>
        <time>2013-08-26T06:42:08Z</time>
      </trkpt>
      <trkpt lat="46.01708" lon="6.80033">
        <ele>1662.3</ele>
        <time>2013-08-26T06:42:09Z</time>
      </trkpt>
      <trkpt lat="46.01706" lon="6.80031">
        <ele>1663.2</ele>
        <time>2013-08-26T06:42:13Z</time>
      </trkpt>
      <trkpt lat="46.01701" lon="6.8002">
        <ele>1664.2</ele>
        <time>2013-08-26T06:42:28Z</time>
      </trkpt>
      <trkpt lat="46.01696" lon="6.80015">
        <ele>1667.5</ele>
        <time>2013-08-26T06:42:37Z</time>
      </trkpt>
      <trkpt lat="46.01691" lon="6.80009">
        <ele>1669</ele>
        <time>2013-08-26T06:42:47Z</time>
      </trkpt>
      <trkpt lat="46.0169" lon="6.80004">
        <ele>1671.9</ele>
        <time>2013-08-26T06:42:53Z</time>
      </trkpt>
      <trkpt lat="46.01684" lon="6.79996">
        <ele>1673.3</ele>
        <time>2013-08-26T06:43:04Z</time>
      </trkpt>
      <trkpt lat="46.01683" lon="6.79995">
        <ele>1674.8</ele>
        <time>2013-08-26T06:43:06Z</time>
      </trkpt>
      <trkpt lat="46.01681" lon="6.79991">
        <ele>1674.3</ele>
        <time>2013-08-26T06:43:12Z</time>
      </trkpt>
      <trkpt lat="46.01679" lon="6.79988">
        <ele>1675.2</ele>
        <time>2013-08-26T06:43:19Z</time>
      </trkpt>
      <trkpt lat="46.01675" lon="6.79978">
        <ele>1673.8</ele>
        <time>2013-08-26T06:43:26Z</time>
      </trkpt>
      <trkpt lat="46.01673" lon="6.79974">
        <ele>1676.2</ele>
        <time>2013-08-26T06:43:29Z</time>
      </trkpt>
      <trkpt lat="46.01671" lon="6.79971">
        <ele>1674.3</ele>
        <time>2013-08-26T06:43:31Z</time>
      </trkpt>
      <trkpt lat="46.01668" lon="6.79968">
        <ele>1678.1</ele>
        <time>2013-08-26T06:43:33Z</time>
      </trkpt>
      <trkpt lat="46.01665" lon="6.79964">
        <ele>1673.8</ele>
        <time>2013-08-26T06:43:35Z</time>
      </trkpt>
      <trkpt lat="46.01663" lon="6.79962">
        <ele>1675.2</ele>
        <time>2013-08-26T06:43:36Z</time>
      </trkpt>
      <trkpt lat="46.01661" lon="6.79957">
        <ele>1676.7</ele>
        <time>2013-08-26T06:43:38Z</time>
      </trkpt>
      <trkpt lat="46.01659" lon="6.79952">
        <ele>1675.2</ele>
        <time>2013-08-26T06:43:40Z</time>
      </trkpt>
      <trkpt lat="46.01658" lon="6.79951">
        <ele>1674.8</ele>
        <time>2013-08-26T06:43:41Z</time>
      </trkpt>
      <trkpt lat="46.01657" lon="6.7995">
        <ele>1676.2</ele>
        <time>2013-08-26T06:43:42Z</time>
      </trkpt>
      <trkpt lat="46.01655" lon="6.79948">
        <ele>1678.1</ele>
        <time>2013-08-26T06:43:43Z</time>
      </trkpt>
      <trkpt lat="46.01654" lon="6.79943">
        <ele>1675.2</ele>
        <time>2013-08-26T06:43:45Z</time>
      </trkpt>
      <trkpt lat="46.01653" lon="6.79938">
        <ele>1679.1</ele>
        <time>2013-08-26T06:43:47Z</time>
      </trkpt>
      <trkpt lat="46.01652" lon="6.79934">
        <ele>1676.2</ele>
        <time>2013-08-26T06:43:49Z</time>
      </trkpt>
      <trkpt lat="46.0165" lon="6.7993">
        <ele>1679.1</ele>
        <time>2013-08-26T06:43:51Z</time>
      </trkpt>
      <trkpt lat="46.0165" lon="6.79925">
        <ele>1676.2</ele>
        <time>2013-08-26T06:43:53Z</time>
      </trkpt>
      <trkpt lat="46.0165" lon="6.79922">
        <ele>1678.6</ele>
        <time>2013-08-26T06:43:54Z</time>
      </trkpt>
      <trkpt lat="46.01651" lon="6.79911">
        <ele>1678.1</ele>
        <time>2013-08-26T06:43:58Z</time>
      </trkpt>
      <trkpt lat="46.01644" lon="6.79896">
        <ele>1680</ele>
        <time>2013-08-26T06:44:05Z</time>
      </trkpt>
      <trkpt lat="46.01641" lon="6.79893">
        <ele>1677.6</ele>
        <time>2013-08-26T06:44:07Z</time>
      </trkpt>
      <trkpt lat="46.0164" lon="6.7989">
        <ele>1682</ele>
        <time>2013-08-26T06:44:08Z</time>
      </trkpt>
      <trkpt lat="46.01639" lon="6.79888">
        <ele>1677.6</ele>
        <time>2013-08-26T06:44:09Z</time>
      </trkpt>
      <trkpt lat="46.01638" lon="6.79885">
        <ele>1680.5</ele>
        <time>2013-08-26T06:44:10Z</time>
      </trkpt>
      <trkpt lat="46.01637" lon="6.79882">
        <ele>1681</ele>
        <time>2013-08-26T06:44:11Z</time>
      </trkpt>
      <trkpt lat="46.01636" lon="6.7988">
        <ele>1678.1</ele>
        <time>2013-08-26T06:44:12Z</time>
      </trkpt>
      <trkpt lat="46.01635" lon="6.79878">
        <ele>1681.5</ele>
        <time>2013-08-26T06:44:13Z</time>
      </trkpt>
      <trkpt lat="46.01633" lon="6.79873">
        <ele>1678.1</ele>
        <time>2013-08-26T06:44:15Z</time>
      </trkpt>
      <trkpt lat="46.01633" lon="6.79872">
        <ele>1682.4</ele>
        <time>2013-08-26T06:44:16Z</time>
      </trkpt>
      <trkpt lat="46.01633" lon="6.7987">
        <ele>1680.5</ele>
        <time>2013-08-26T06:44:19Z</time>
      </trkpt>
      <trkpt lat="46.01633" lon="6.79867">
        <ele>1678.1</ele>
        <time>2013-08-26T06:44:20Z</time>
      </trkpt>
      <trkpt lat="46.01632" lon="6.79865">
        <ele>1682</ele>
        <time>2013-08-26T06:44:21Z</time>
      </trkpt>
      <trkpt lat="46.01632" lon="6.79862">
        <ele>1679.1</ele>
        <time>2013-08-26T06:44:22Z</time>
      </trkpt>
      <trkpt lat="46.01629" lon="6.7985">
        <ele>1682.4</ele>
        <time>2013-08-26T06:44:26Z</time>
      </trkpt>
      <trkpt lat="46.01628" lon="6.79847">
        <ele>1679.1</ele>
        <time>2013-08-26T06:44:27Z</time>
      </trkpt>
      <trkpt lat="46.01626" lon="6.79839">
        <ele>1682.9</ele>
        <time>2013-08-26T06:44:30Z</time>
      </trkpt>
      <trkpt lat="46.01625" lon="6.79836">
        <ele>1679.6</ele>
        <time>2013-08-26T06:44:31Z</time>
      </trkpt>
      <trkpt lat="46.01625" lon="6.79834">
        <ele>1682.9</ele>
        <time>2013-08-26T06:44:32Z</time>
      </trkpt>
      <trkpt lat="46.01625" lon="6.79831">
        <ele>1682.4</ele>
        <time>2013-08-26T06:44:33Z</time>
      </trkpt>
      <trkpt lat="46.01612" lon="6.79804">
        <ele>1685.8</ele>
        <time>2013-08-26T06:44:45Z</time>
      </trkpt>
      <trkpt lat="46.0161" lon="6.79803">
        <ele>1682</ele>
        <time>2013-08-26T06:44:46Z</time>
      </trkpt>
      <trkpt lat="46.01608" lon="6.79802">
        <ele>1685.3</ele>
        <time>2013-08-26T06:44:47Z</time>
      </trkpt>
      <trkpt lat="46.01607" lon="6.79801">
        <ele>1682.9</ele>
        <time>2013-08-26T06:44:48Z</time>
      </trkpt>
      <trkpt lat="46.01606" lon="6.79799">
        <ele>1682.4</ele>
        <time>2013-08-26T06:44:49Z</time>
      </trkpt>
      <trkpt lat="46.01604" lon="6.79791">
        <ele>1685.8</ele>
        <time>2013-08-26T06:44:51Z</time>
      </trkpt>
      <trkpt lat="46.01603" lon="6.79787">
        <ele>1681.5</ele>
        <time>2013-08-26T06:44:52Z</time>
      </trkpt>
      <trkpt lat="46.01602" lon="6.79782">
        <ele>1685.3</ele>
        <time>2013-08-26T06:44:53Z</time>
      </trkpt>
      <trkpt lat="46.01602" lon="6.79777">
        <ele>1681.5</ele>
        <time>2013-08-26T06:44:54Z</time>
      </trkpt>
      <trkpt lat="46.01601" lon="6.79773">
        <ele>1684.4</ele>
        <time>2013-08-26T06:44:55Z</time>
      </trkpt>
      <trkpt lat="46.0159" lon="6.79751">
        <ele>1682.4</ele>
        <time>2013-08-26T06:45:04Z</time>
      </trkpt>
      <trkpt lat="46.01589" lon="6.79748">
        <ele>1685.8</ele>
        <time>2013-08-26T06:45:05Z</time>
      </trkpt>
      <trkpt lat="46.01588" lon="6.79746">
        <ele>1681.5</ele>
        <time>2013-08-26T06:45:06Z</time>
      </trkpt>
      <trkpt lat="46.01589" lon="6.79742">
        <ele>1685.8</ele>
        <time>2013-08-26T06:45:07Z</time>
      </trkpt>
      <trkpt lat="46.01588" lon="6.79735">
        <ele>1682.9</ele>
        <time>2013-08-26T06:45:09Z</time>
      </trkpt>
      <trkpt lat="46.01588" lon="6.79732">
        <ele>1687.7</ele>
        <time>2013-08-26T06:45:10Z</time>
      </trkpt>
      <trkpt lat="46.01589" lon="6.79729">
        <ele>1684.9</ele>
        <time>2013-08-26T06:45:11Z</time>
      </trkpt>
      <trkpt lat="46.01592" lon="6.79709">
        <ele>1684.4</ele>
        <time>2013-08-26T06:45:17Z</time>
      </trkpt>
      <trkpt lat="46.01593" lon="6.79703">
        <ele>1687.3</ele>
        <time>2013-08-26T06:45:19Z</time>
      </trkpt>
      <trkpt lat="46.01593" lon="6.797">
        <ele>1686.3</ele>
        <time>2013-08-26T06:45:20Z</time>
      </trkpt>
      <trkpt lat="46.01593" lon="6.79697">
        <ele>1682.9</ele>
        <time>2013-08-26T06:45:21Z</time>
      </trkpt>
      <trkpt lat="46.01593" lon="6.79694">
        <ele>1684.9</ele>
        <time>2013-08-26T06:45:22Z</time>
      </trkpt>
      <trkpt lat="46.01594" lon="6.79687">
        <ele>1687.3</ele>
        <time>2013-08-26T06:45:24Z</time>
      </trkpt>
      <trkpt lat="46.01593" lon="6.79683">
        <ele>1683.9</ele>
        <time>2013-08-26T06:45:25Z</time>
      </trkpt>
      <trkpt lat="46.01594" lon="6.79677">
        <ele>1689.2</ele>
        <time>2013-08-26T06:45:27Z</time>
      </trkpt>
      <trkpt lat="46.01594" lon="6.79674">
        <ele>1685.8</ele>
        <time>2013-08-26T06:45:28Z</time>
      </trkpt>
      <trkpt lat="46.01594" lon="6.79665">
        <ele>1690.1</ele>
        <time>2013-08-26T06:45:31Z</time>
      </trkpt>
      <trkpt lat="46.01593" lon="6.79659">
        <ele>1684.9</ele>
        <time>2013-08-26T06:45:33Z</time>
      </trkpt>
      <trkpt lat="46.01593" lon="6.79656">
        <ele>1686.3</ele>
        <time>2013-08-26T06:45:34Z</time>
      </trkpt>
      <trkpt lat="46.01593" lon="6.79653">
        <ele>1689.7</ele>
        <time>2013-08-26T06:45:35Z</time>
      </trkpt>
      <trkpt lat="46.01589" lon="6.79633">
        <ele>1693</ele>
        <time>2013-08-26T06:45:44Z</time>
      </trkpt>
      <trkpt lat="46.01588" lon="6.79628">
        <ele>1687.3</ele>
        <time>2013-08-26T06:45:46Z</time>
      </trkpt>
      <trkpt lat="46.01588" lon="6.79625">
        <ele>1687.3</ele>
        <time>2013-08-26T06:45:47Z</time>
      </trkpt>
      <trkpt lat="46.01587" lon="6.7962">
        <ele>1690.6</ele>
        <time>2013-08-26T06:45:49Z</time>
      </trkpt>
      <trkpt lat="46.01586" lon="6.79612">
        <ele>1694</ele>
        <time>2013-08-26T06:45:52Z</time>
      </trkpt>
      <trkpt lat="46.01585" lon="6.79607">
        <ele>1690.1</ele>
        <time>2013-08-26T06:45:54Z</time>
      </trkpt>
      <trkpt lat="46.01584" lon="6.79601">
        <ele>1688.2</ele>
        <time>2013-08-26T06:45:56Z</time>
      </trkpt>
      <trkpt lat="46.01584" lon="6.79596">
        <ele>1692.5</ele>
        <time>2013-08-26T06:45:58Z</time>
      </trkpt>
      <trkpt lat="46.01583" lon="6.79594">
        <ele>1694.5</ele>
        <time>2013-08-26T06:45:59Z</time>
      </trkpt>
      <trkpt lat="46.01583" lon="6.79592">
        <ele>1690.6</ele>
        <time>2013-08-26T06:46:00Z</time>
      </trkpt>
      <trkpt lat="46.0158" lon="6.79589">
        <ele>1690.1</ele>
        <time>2013-08-26T06:46:02Z</time>
      </trkpt>
      <trkpt lat="46.01578" lon="6.79587">
        <ele>1691.1</ele>
        <time>2013-08-26T06:46:04Z</time>
      </trkpt>
      <trkpt lat="46.01576" lon="6.79586">
        <ele>1694.9</ele>
        <time>2013-08-26T06:46:05Z</time>
      </trkpt>
      <trkpt lat="46.01568" lon="6.79584">
        <ele>1694.5</ele>
        <time>2013-08-26T06:46:10Z</time>
      </trkpt>
      <trkpt lat="46.01567" lon="6.79583">
        <ele>1694</ele>
        <time>2013-08-26T06:46:11Z</time>
      </trkpt>
      <trkpt lat="46.01566" lon="6.79583">
        <ele>1693</ele>
        <time>2013-08-26T06:46:12Z</time>
      </trkpt>
      <trkpt lat="46.01564" lon="6.79583">
        <ele>1693</ele>
        <time>2013-08-26T06:46:13Z</time>
      </trkpt>
      <trkpt lat="46.01563" lon="6.79583">
        <ele>1691.1</ele>
        <time>2013-08-26T06:46:14Z</time>
      </trkpt>
      <trkpt lat="46.01561" lon="6.79583">
        <ele>1691.1</ele>
        <time>2013-08-26T06:46:15Z</time>
      </trkpt>
      <trkpt lat="46.0156" lon="6.79582">
        <ele>1691.1</ele>
        <time>2013-08-26T06:46:16Z</time>
      </trkpt>
      <trkpt lat="46.01558" lon="6.79582">
        <ele>1692.1</ele>
        <time>2013-08-26T06:46:17Z</time>
      </trkpt>
      <trkpt lat="46.01557" lon="6.79581">
        <ele>1692.5</ele>
        <time>2013-08-26T06:46:18Z</time>
      </trkpt>
      <trkpt lat="46.01556" lon="6.79581">
        <ele>1693</ele>
        <time>2013-08-26T06:46:19Z</time>
      </trkpt>
      <trkpt lat="46.01553" lon="6.79579">
        <ele>1697.8</ele>
        <time>2013-08-26T06:46:21Z</time>
      </trkpt>
      <trkpt lat="46.01547" lon="6.79577">
        <ele>1694.5</ele>
        <time>2013-08-26T06:46:25Z</time>
      </trkpt>
      <trkpt lat="46.01543" lon="6.79575">
        <ele>1693</ele>
        <time>2013-08-26T06:46:27Z</time>
      </trkpt>
      <trkpt lat="46.01537" lon="6.79574">
        <ele>1696.9</ele>
        <time>2013-08-26T06:46:30Z</time>
      </trkpt>
      <trkpt lat="46.01533" lon="6.79573">
        <ele>1699.3</ele>
        <time>2013-08-26T06:46:32Z</time>
      </trkpt>
      <trkpt lat="46.01529" lon="6.79572">
        <ele>1697.8</ele>
        <time>2013-08-26T06:46:35Z</time>
      </trkpt>
      <trkpt lat="46.0152" lon="6.79569">
        <ele>1695.9</ele>
        <time>2013-08-26T06:46:40Z</time>
      </trkpt>
      <trkpt lat="46.01515" lon="6.79568">
        <ele>1700.2</ele>
        <time>2013-08-26T06:46:43Z</time>
      </trkpt>
      <trkpt lat="46.01506" lon="6.7957">
        <ele>1696.9</ele>
        <time>2013-08-26T06:46:48Z</time>
      </trkpt>
      <trkpt lat="46.01505" lon="6.7957">
        <ele>1697.3</ele>
        <time>2013-08-26T06:46:49Z</time>
      </trkpt>
      <trkpt lat="46.01499" lon="6.79569">
        <ele>1698.8</ele>
        <time>2013-08-26T06:46:52Z</time>
      </trkpt>
      <trkpt lat="46.01497" lon="6.79569">
        <ele>1701.2</ele>
        <time>2013-08-26T06:46:53Z</time>
      </trkpt>
      <trkpt lat="46.01483" lon="6.79572">
        <ele>1703.6</ele>
        <time>2013-08-26T06:47:02Z</time>
      </trkpt>
      <trkpt lat="46.01476" lon="6.79573">
        <ele>1705</ele>
        <time>2013-08-26T06:47:06Z</time>
      </trkpt>
      <trkpt lat="46.01461" lon="6.79575">
        <ele>1706</ele>
        <time>2013-08-26T06:47:19Z</time>
      </trkpt>
      <trkpt lat="46.01452" lon="6.79577">
        <ele>1704.1</ele>
        <time>2013-08-26T06:47:25Z</time>
      </trkpt>
      <trkpt lat="46.01451" lon="6.79579">
        <ele>1704.1</ele>
        <time>2013-08-26T06:47:26Z</time>
      </trkpt>
      <trkpt lat="46.01451" lon="6.79581">
        <ele>1703.1</ele>
        <time>2013-08-26T06:47:27Z</time>
      </trkpt>
      <trkpt lat="46.01451" lon="6.79583">
        <ele>1703.1</ele>
        <time>2013-08-26T06:47:28Z</time>
      </trkpt>
      <trkpt lat="46.01454" lon="6.79585">
        <ele>1707</ele>
        <time>2013-08-26T06:47:33Z</time>
      </trkpt>
      <trkpt lat="46.01455" lon="6.79585">
        <ele>1707.9</ele>
        <time>2013-08-26T06:47:35Z</time>
      </trkpt>
      <trkpt lat="46.01458" lon="6.79587">
        <ele>1709.8</ele>
        <time>2013-08-26T06:47:39Z</time>
      </trkpt>
      <trkpt lat="46.01461" lon="6.7959">
        <ele>1706</ele>
        <time>2013-08-26T06:47:45Z</time>
      </trkpt>
      <trkpt lat="46.01461" lon="6.7959">
        <ele>1706</ele>
        <time>2013-08-26T06:47:46Z</time>
      </trkpt>
      <trkpt lat="46.01462" lon="6.79591">
        <ele>1709.8</ele>
        <time>2013-08-26T06:47:49Z</time>
      </trkpt>
      <trkpt lat="46.01464" lon="6.79592">
        <ele>1712.7</ele>
        <time>2013-08-26T06:47:52Z</time>
      </trkpt>
      <trkpt lat="46.01465" lon="6.79593">
        <ele>1709.4</ele>
        <time>2013-08-26T06:47:54Z</time>
      </trkpt>
      <trkpt lat="46.01468" lon="6.79593">
        <ele>1707.9</ele>
        <time>2013-08-26T06:47:57Z</time>
      </trkpt>
      <trkpt lat="46.01469" lon="6.79593">
        <ele>1712.7</ele>
        <time>2013-08-26T06:47:59Z</time>
      </trkpt>
      <trkpt lat="46.0147" lon="6.79593">
        <ele>1712.3</ele>
        <time>2013-08-26T06:48:00Z</time>
      </trkpt>
      <trkpt lat="46.01472" lon="6.79595">
        <ele>1708.9</ele>
        <time>2013-08-26T06:48:03Z</time>
      </trkpt>
      <trkpt lat="46.01472" lon="6.79595">
        <ele>1708.9</ele>
        <time>2013-08-26T06:48:04Z</time>
      </trkpt>
      <trkpt lat="46.01474" lon="6.79597">
        <ele>1712.3</ele>
        <time>2013-08-26T06:48:06Z</time>
      </trkpt>
      <trkpt lat="46.01477" lon="6.79599">
        <ele>1709.8</ele>
        <time>2013-08-26T06:48:10Z</time>
      </trkpt>
      <trkpt lat="46.01478" lon="6.79599">
        <ele>1713.7</ele>
        <time>2013-08-26T06:48:12Z</time>
      </trkpt>
      <trkpt lat="46.01479" lon="6.79599">
        <ele>1710.3</ele>
        <time>2013-08-26T06:48:14Z</time>
      </trkpt>
      <trkpt lat="46.01479" lon="6.796">
        <ele>1710.8</ele>
        <time>2013-08-26T06:48:15Z</time>
      </trkpt>
      <trkpt lat="46.01479" lon="6.79599">
        <ele>1715.1</ele>
        <time>2013-08-26T06:48:17Z</time>
      </trkpt>
      <trkpt lat="46.01479" lon="6.79599">
        <ele>1713.7</ele>
        <time>2013-08-26T06:48:18Z</time>
      </trkpt>
      <trkpt lat="46.0148" lon="6.79599">
        <ele>1710.3</ele>
        <time>2013-08-26T06:48:19Z</time>
      </trkpt>
      <trkpt lat="46.0148" lon="6.79599">
        <ele>1710.8</ele>
        <time>2013-08-26T06:48:20Z</time>
      </trkpt>
      <trkpt lat="46.0148" lon="6.79598">
        <ele>1715.1</ele>
        <time>2013-08-26T06:48:22Z</time>
      </trkpt>
      <trkpt lat="46.01481" lon="6.79599">
        <ele>1710.8</ele>
        <time>2013-08-26T06:48:24Z</time>
      </trkpt>
      <trkpt lat="46.01486" lon="6.796">
        <ele>1715.1</ele>
        <time>2013-08-26T06:48:28Z</time>
      </trkpt>
      <trkpt lat="46.01489" lon="6.79602">
        <ele>1717.1</ele>
        <time>2013-08-26T06:48:30Z</time>
      </trkpt>
      <trkpt lat="46.0149" lon="6.79603">
        <ele>1712.7</ele>
        <time>2013-08-26T06:48:31Z</time>
      </trkpt>
      <trkpt lat="46.01494" lon="6.79607">
        <ele>1716.6</ele>
        <time>2013-08-26T06:48:34Z</time>
      </trkpt>
      <trkpt lat="46.01495" lon="6.79608">
        <ele>1715.1</ele>
        <time>2013-08-26T06:48:35Z</time>
      </trkpt>
      <trkpt lat="46.01496" lon="6.7961">
        <ele>1713.2</ele>
        <time>2013-08-26T06:48:36Z</time>
      </trkpt>
      <trkpt lat="46.01497" lon="6.79611">
        <ele>1717.5</ele>
        <time>2013-08-26T06:48:37Z</time>
      </trkpt>
      <trkpt lat="46.01498" lon="6.79613">
        <ele>1716.6</ele>
        <time>2013-08-26T06:48:38Z</time>
      </trkpt>
      <trkpt lat="46.01499" lon="6.79616">
        <ele>1713.2</ele>
        <time>2013-08-26T06:48:40Z</time>
      </trkpt>
      <trkpt lat="46.015" lon="6.79619">
        <ele>1718</ele>
        <time>2013-08-26T06:48:42Z</time>
      </trkpt>
      <trkpt lat="46.015" lon="6.79621">
        <ele>1716.6</ele>
        <time>2013-08-26T06:48:43Z</time>
      </trkpt>
      <trkpt lat="46.015" lon="6.79622">
        <ele>1716.1</ele>
        <time>2013-08-26T06:48:44Z</time>
      </trkpt>
      <trkpt lat="46.01499" lon="6.79628">
        <ele>1719.9</ele>
        <time>2013-08-26T06:48:48Z</time>
      </trkpt>
      <trkpt lat="46.01499" lon="6.79629">
        <ele>1716.1</ele>
        <time>2013-08-26T06:48:49Z</time>
      </trkpt>
      <trkpt lat="46.015" lon="6.79629">
        <ele>1717.5</ele>
        <time>2013-08-26T06:48:50Z</time>
      </trkpt>
      <trkpt lat="46.015" lon="6.79631">
        <ele>1719.5</ele>
        <time>2013-08-26T06:48:52Z</time>
      </trkpt>
      <trkpt lat="46.015" lon="6.79632">
        <ele>1716.1</ele>
        <time>2013-08-26T06:48:53Z</time>
      </trkpt>
      <trkpt lat="46.015" lon="6.79632">
        <ele>1717.1</ele>
        <time>2013-08-26T06:48:54Z</time>
      </trkpt>
      <trkpt lat="46.015" lon="6.79633">
        <ele>1721.4</ele>
        <time>2013-08-26T06:48:55Z</time>
      </trkpt>
      <trkpt lat="46.015" lon="6.79632">
        <ele>1719.9</ele>
        <time>2013-08-26T06:48:56Z</time>
      </trkpt>
      <trkpt lat="46.015" lon="6.79632">
        <ele>1716.6</ele>
        <time>2013-08-26T06:48:57Z</time>
      </trkpt>
      <trkpt lat="46.015" lon="6.79632">
        <ele>1717.5</ele>
        <time>2013-08-26T06:48:58Z</time>
      </trkpt>
      <trkpt lat="46.015" lon="6.79632">
        <ele>1720.9</ele>
        <time>2013-08-26T06:48:59Z</time>
      </trkpt>
      <trkpt lat="46.01501" lon="6.79633">
        <ele>1719</ele>
        <time>2013-08-26T06:49:00Z</time>
      </trkpt>
      <trkpt lat="46.01502" lon="6.79635">
        <ele>1717.1</ele>
        <time>2013-08-26T06:49:02Z</time>
      </trkpt>
      <trkpt lat="46.01502" lon="6.79635">
        <ele>1721.4</ele>
        <time>2013-08-26T06:49:03Z</time>
      </trkpt>
      <trkpt lat="46.01502" lon="6.79636">
        <ele>1719.5</ele>
        <time>2013-08-26T06:49:04Z</time>
      </trkpt>
      <trkpt lat="46.01503" lon="6.79637">
        <ele>1715.6</ele>
        <time>2013-08-26T06:49:05Z</time>
      </trkpt>
      <trkpt lat="46.01503" lon="6.79637">
        <ele>1719</ele>
        <time>2013-08-26T06:49:06Z</time>
      </trkpt>
      <trkpt lat="46.01505" lon="6.79643">
        <ele>1721.4</ele>
        <time>2013-08-26T06:49:11Z</time>
      </trkpt>
      <trkpt lat="46.01506" lon="6.79644">
        <ele>1719.5</ele>
        <time>2013-08-26T06:49:14Z</time>
      </trkpt>
      <trkpt lat="46.01507" lon="6.79648">
        <ele>1722.8</ele>
        <time>2013-08-26T06:49:18Z</time>
      </trkpt>
      <trkpt lat="46.01508" lon="6.79649">
        <ele>1718.5</ele>
        <time>2013-08-26T06:49:19Z</time>
      </trkpt>
      <trkpt lat="46.01508" lon="6.7965">
        <ele>1722.3</ele>
        <time>2013-08-26T06:49:20Z</time>
      </trkpt>
      <trkpt lat="46.01513" lon="6.79664">
        <ele>1720.4</ele>
        <time>2013-08-26T06:49:29Z</time>
      </trkpt>
      <trkpt lat="46.01512" lon="6.79668">
        <ele>1723.8</ele>
        <time>2013-08-26T06:49:31Z</time>
      </trkpt>
      <trkpt lat="46.01513" lon="6.7967">
        <ele>1722.8</ele>
        <time>2013-08-26T06:49:32Z</time>
      </trkpt>
      <trkpt lat="46.01513" lon="6.79683">
        <ele>1721.4</ele>
        <time>2013-08-26T06:49:37Z</time>
      </trkpt>
      <trkpt lat="46.01513" lon="6.79685">
        <ele>1724.3</ele>
        <time>2013-08-26T06:49:38Z</time>
      </trkpt>
      <trkpt lat="46.01513" lon="6.79687">
        <ele>1723.3</ele>
        <time>2013-08-26T06:49:39Z</time>
      </trkpt>
      <trkpt lat="46.01513" lon="6.7969">
        <ele>1726.2</ele>
        <time>2013-08-26T06:49:41Z</time>
      </trkpt>
      <trkpt lat="46.01513" lon="6.79692">
        <ele>1722.3</ele>
        <time>2013-08-26T06:49:42Z</time>
      </trkpt>
      <trkpt lat="46.01513" lon="6.79697">
        <ele>1726.7</ele>
        <time>2013-08-26T06:49:44Z</time>
      </trkpt>
      <trkpt lat="46.01513" lon="6.79699">
        <ele>1722.8</ele>
        <time>2013-08-26T06:49:45Z</time>
      </trkpt>
      <trkpt lat="46.01512" lon="6.79705">
        <ele>1727.6</ele>
        <time>2013-08-26T06:49:49Z</time>
      </trkpt>
      <trkpt lat="46.01512" lon="6.79705">
        <ele>1724.3</ele>
        <time>2013-08-26T06:49:50Z</time>
      </trkpt>
      <trkpt lat="46.01512" lon="6.79709">
        <ele>1727.2</ele>
        <time>2013-08-26T06:49:54Z</time>
      </trkpt>
      <trkpt lat="46.01512" lon="6.7971">
        <ele>1723.8</ele>
        <time>2013-08-26T06:49:55Z</time>
      </trkpt>
      <trkpt lat="46.01512" lon="6.79712">
        <ele>1727.2</ele>
        <time>2013-08-26T06:49:56Z</time>
      </trkpt>
      <trkpt lat="46.01512" lon="6.79729">
        <ele>1731</ele>
        <time>2013-08-26T06:50:11Z</time>
      </trkpt>
      <trkpt lat="46.01512" lon="6.7973">
        <ele>1726.7</ele>
        <time>2013-08-26T06:50:12Z</time>
      </trkpt>
      <trkpt lat="46.01512" lon="6.79731">
        <ele>1730.5</ele>
        <time>2013-08-26T06:50:13Z</time>
      </trkpt>
      <trkpt lat="46.01513" lon="6.79738">
        <ele>1727.2</ele>
        <time>2013-08-26T06:50:19Z</time>
      </trkpt>
      <trkpt lat="46.01512" lon="6.79739">
        <ele>1732</ele>
        <time>2013-08-26T06:50:20Z</time>
      </trkpt>
      <trkpt lat="46.01511" lon="6.79741">
        <ele>1728.1</ele>
        <time>2013-08-26T06:50:24Z</time>
      </trkpt>
      <trkpt lat="46.0151" lon="6.79741">
        <ele>1732</ele>
        <time>2013-08-26T06:50:25Z</time>
      </trkpt>
      <trkpt lat="46.01509" lon="6.79742">
        <ele>1728.6</ele>
        <time>2013-08-26T06:50:26Z</time>
      </trkpt>
      <trkpt lat="46.01509" lon="6.79742">
        <ele>1732</ele>
        <time>2013-08-26T06:50:27Z</time>
      </trkpt>
      <trkpt lat="46.01508" lon="6.79741">
        <ele>1729.1</ele>
        <time>2013-08-26T06:50:29Z</time>
      </trkpt>
      <trkpt lat="46.01507" lon="6.7974">
        <ele>1732.9</ele>
        <time>2013-08-26T06:50:30Z</time>
      </trkpt>
      <trkpt lat="46.01507" lon="6.7974">
        <ele>1730</ele>
        <time>2013-08-26T06:50:31Z</time>
      </trkpt>
      <trkpt lat="46.01504" lon="6.79734">
        <ele>1733.9</ele>
        <time>2013-08-26T06:50:37Z</time>
      </trkpt>
      <trkpt lat="46.01501" lon="6.79727">
        <ele>1734.8</ele>
        <time>2013-08-26T06:50:45Z</time>
      </trkpt>
      <trkpt lat="46.01493" lon="6.79712">
        <ele>1736.8</ele>
        <time>2013-08-26T06:51:03Z</time>
      </trkpt>
      <trkpt lat="46.01489" lon="6.79705">
        <ele>1736.3</ele>
        <time>2013-08-26T06:51:10Z</time>
      </trkpt>
      <trkpt lat="46.01488" lon="6.79704">
        <ele>1737.7</ele>
        <time>2013-08-26T06:51:12Z</time>
      </trkpt>
      <trkpt lat="46.01479" lon="6.79695">
        <ele>1738.2</ele>
        <time>2013-08-26T06:51:28Z</time>
      </trkpt>
      <trkpt lat="46.01476" lon="6.79691">
        <ele>1741.6</ele>
        <time>2013-08-26T06:51:36Z</time>
      </trkpt>
      <trkpt lat="46.01475" lon="6.79692">
        <ele>1740.6</ele>
        <time>2013-08-26T06:51:41Z</time>
      </trkpt>
      <trkpt lat="46.01474" lon="6.79691">
        <ele>1741.1</ele>
        <time>2013-08-26T06:51:42Z</time>
      </trkpt>
      <trkpt lat="46.01472" lon="6.79691">
        <ele>1739.2</ele>
        <time>2013-08-26T06:51:43Z</time>
      </trkpt>
      <trkpt lat="46.01471" lon="6.7969">
        <ele>1740.6</ele>
        <time>2013-08-26T06:51:44Z</time>
      </trkpt>
      <trkpt lat="46.0147" lon="6.79689">
        <ele>1740.6</ele>
        <time>2013-08-26T06:51:45Z</time>
      </trkpt>
      <trkpt lat="46.01468" lon="6.79688">
        <ele>1739.6</ele>
        <time>2013-08-26T06:51:46Z</time>
      </trkpt>
      <trkpt lat="46.01466" lon="6.79688">
        <ele>1741.1</ele>
        <time>2013-08-26T06:51:47Z</time>
      </trkpt>
      <trkpt lat="46.01465" lon="6.79687">
        <ele>1741.6</ele>
        <time>2013-08-26T06:51:48Z</time>
      </trkpt>
      <trkpt lat="46.01462" lon="6.79688">
        <ele>1742.1</ele>
        <time>2013-08-26T06:51:50Z</time>
      </trkpt>
      <trkpt lat="46.01461" lon="6.79689">
        <ele>1743</ele>
        <time>2013-08-26T06:51:51Z</time>
      </trkpt>
      <trkpt lat="46.0146" lon="6.7969">
        <ele>1741.1</ele>
        <time>2013-08-26T06:51:52Z</time>
      </trkpt>
      <trkpt lat="46.0145" lon="6.79698">
        <ele>1744.9</ele>
        <time>2013-08-26T06:51:59Z</time>
      </trkpt>
      <trkpt lat="46.01449" lon="6.79698">
        <ele>1743.5</ele>
        <time>2013-08-26T06:52:00Z</time>
      </trkpt>
      <trkpt lat="46.01446" lon="6.79696">
        <ele>1746.4</ele>
        <time>2013-08-26T06:52:03Z</time>
      </trkpt>
      <trkpt lat="46.01445" lon="6.79695">
        <ele>1744.9</ele>
        <time>2013-08-26T06:52:04Z</time>
      </trkpt>
      <trkpt lat="46.01444" lon="6.79695">
        <ele>1744.9</ele>
        <time>2013-08-26T06:52:05Z</time>
      </trkpt>
      <trkpt lat="46.01443" lon="6.79694">
        <ele>1746.9</ele>
        <time>2013-08-26T06:52:06Z</time>
      </trkpt>
      <trkpt lat="46.01441" lon="6.79694">
        <ele>1745.9</ele>
        <time>2013-08-26T06:52:07Z</time>
      </trkpt>
      <trkpt lat="46.0144" lon="6.79693">
        <ele>1744.5</ele>
        <time>2013-08-26T06:52:08Z</time>
      </trkpt>
      <trkpt lat="46.01437" lon="6.79692">
        <ele>1747.8</ele>
        <time>2013-08-26T06:52:12Z</time>
      </trkpt>
      <trkpt lat="46.01437" lon="6.79692">
        <ele>1744.9</ele>
        <time>2013-08-26T06:52:16Z</time>
      </trkpt>
      <trkpt lat="46.01437" lon="6.79692">
        <ele>1747.8</ele>
        <time>2013-08-26T06:52:17Z</time>
      </trkpt>
      <trkpt lat="46.01435" lon="6.7969">
        <ele>1747.8</ele>
        <time>2013-08-26T06:52:24Z</time>
      </trkpt>
      <trkpt lat="46.01435" lon="6.79691">
        <ele>1744.5</ele>
        <time>2013-08-26T06:52:25Z</time>
      </trkpt>
      <trkpt lat="46.01435" lon="6.79691">
        <ele>1748.3</ele>
        <time>2013-08-26T06:52:26Z</time>
      </trkpt>
      <trkpt lat="46.01435" lon="6.79692">
        <ele>1746.4</ele>
        <time>2013-08-26T06:52:28Z</time>
      </trkpt>
      <trkpt lat="46.01436" lon="6.79691">
        <ele>1747.8</ele>
        <time>2013-08-26T06:52:30Z</time>
      </trkpt>
      <trkpt lat="46.01435" lon="6.79691">
        <ele>1745.9</ele>
        <time>2013-08-26T06:52:31Z</time>
      </trkpt>
      <trkpt lat="46.01435" lon="6.7969">
        <ele>1747.3</ele>
        <time>2013-08-26T06:52:32Z</time>
      </trkpt>
      <trkpt lat="46.01436" lon="6.79691">
        <ele>1745.4</ele>
        <time>2013-08-26T06:52:34Z</time>
      </trkpt>
      <trkpt lat="46.01436" lon="6.79691">
        <ele>1745.4</ele>
        <time>2013-08-26T06:52:38Z</time>
      </trkpt>
      <trkpt lat="46.01435" lon="6.79691">
        <ele>1745.4</ele>
        <time>2013-08-26T06:52:50Z</time>
      </trkpt>
      <trkpt lat="46.01434" lon="6.79692">
        <ele>1747.3</ele>
        <time>2013-08-26T06:52:51Z</time>
      </trkpt>
      <trkpt lat="46.01433" lon="6.79692">
        <ele>1745.4</ele>
        <time>2013-08-26T06:52:52Z</time>
      </trkpt>
      <trkpt lat="46.01432" lon="6.79693">
        <ele>1746.4</ele>
        <time>2013-08-26T06:52:53Z</time>
      </trkpt>
      <trkpt lat="46.01431" lon="6.79694">
        <ele>1747.3</ele>
        <time>2013-08-26T06:52:54Z</time>
      </trkpt>
      <trkpt lat="46.0143" lon="6.79695">
        <ele>1746.4</ele>
        <time>2013-08-26T06:52:55Z</time>
      </trkpt>
      <trkpt lat="46.01429" lon="6.79696">
        <ele>1747.8</ele>
        <time>2013-08-26T06:52:56Z</time>
      </trkpt>
      <trkpt lat="46.01427" lon="6.79697">
        <ele>1748.8</ele>
        <time>2013-08-26T06:52:57Z</time>
      </trkpt>
      <trkpt lat="46.01412" lon="6.79708">
        <ele>1752.1</ele>
        <time>2013-08-26T06:53:09Z</time>
      </trkpt>
      <trkpt lat="46.01397" lon="6.79718">
        <ele>1754.1</ele>
        <time>2013-08-26T06:53:23Z</time>
      </trkpt>
      <trkpt lat="46.01395" lon="6.79718">
        <ele>1754.5</ele>
        <time>2013-08-26T06:53:25Z</time>
      </trkpt>
      <trkpt lat="46.01381" lon="6.79723">
        <ele>1757.9</ele>
        <time>2013-08-26T06:53:36Z</time>
      </trkpt>
      <trkpt lat="46.01377" lon="6.79725">
        <ele>1758.4</ele>
        <time>2013-08-26T06:53:40Z</time>
      </trkpt>
      <trkpt lat="46.01376" lon="6.79725">
        <ele>1757.9</ele>
        <time>2013-08-26T06:53:41Z</time>
      </trkpt>
      <trkpt lat="46.01375" lon="6.79725">
        <ele>1758.4</ele>
        <time>2013-08-26T06:53:42Z</time>
      </trkpt>
      <trkpt lat="46.01367" lon="6.79731">
        <ele>1760.3</ele>
        <time>2013-08-26T06:53:51Z</time>
      </trkpt>
      <trkpt lat="46.0137" lon="6.79738">
        <ele>1761.8</ele>
        <time>2013-08-26T06:54:03Z</time>
      </trkpt>
      <trkpt lat="46.01376" lon="6.79745">
        <ele>1765.1</ele>
        <time>2013-08-26T06:54:13Z</time>
      </trkpt>
      <trkpt lat="46.01382" lon="6.79751">
        <ele>1765.6</ele>
        <time>2013-08-26T06:54:27Z</time>
      </trkpt>
      <trkpt lat="46.01383" lon="6.79751">
        <ele>1766.1</ele>
        <time>2013-08-26T06:54:29Z</time>
      </trkpt>
      <trkpt lat="46.01396" lon="6.79762">
        <ele>1768.5</ele>
        <time>2013-08-26T06:54:48Z</time>
      </trkpt>
      <trkpt lat="46.01401" lon="6.79776">
        <ele>1770.4</ele>
        <time>2013-08-26T06:55:03Z</time>
      </trkpt>
      <trkpt lat="46.01401" lon="6.79795">
        <ele>1773.8</ele>
        <time>2013-08-26T06:55:20Z</time>
      </trkpt>
      <trkpt lat="46.01397" lon="6.79809">
        <ele>1776.7</ele>
        <time>2013-08-26T06:55:36Z</time>
      </trkpt>
      <trkpt lat="46.01393" lon="6.79821">
        <ele>1779.1</ele>
        <time>2013-08-26T06:55:51Z</time>
      </trkpt>
      <trkpt lat="46.0139" lon="6.79835">
        <ele>1782.4</ele>
        <time>2013-08-26T06:56:06Z</time>
      </trkpt>
      <trkpt lat="46.01387" lon="6.79838">
        <ele>1782.4</ele>
        <time>2013-08-26T06:56:23Z</time>
      </trkpt>
      <trkpt lat="46.01384" lon="6.79852">
        <ele>1785.3</ele>
        <time>2013-08-26T06:56:37Z</time>
      </trkpt>
      <trkpt lat="46.01383" lon="6.79861">
        <ele>1786.8</ele>
        <time>2013-08-26T06:56:45Z</time>
      </trkpt>
      <trkpt lat="46.01389" lon="6.7987">
        <ele>1789.2</ele>
        <time>2013-08-26T06:56:59Z</time>
      </trkpt>
      <trkpt lat="46.01386" lon="6.79885">
        <ele>1790.6</ele>
        <time>2013-08-26T06:57:15Z</time>
      </trkpt>
      <trkpt lat="46.01392" lon="6.79901">
        <ele>1793.5</ele>
        <time>2013-08-26T06:57:31Z</time>
      </trkpt>
      <trkpt lat="46.01395" lon="6.79907">
        <ele>1794.4</ele>
        <time>2013-08-26T06:57:38Z</time>
      </trkpt>
      <trkpt lat="46.01402" lon="6.79917">
        <ele>1795.4</ele>
        <time>2013-08-26T06:57:52Z</time>
      </trkpt>
      <trkpt lat="46.01412" lon="6.79919">
        <ele>1796.4</ele>
        <time>2013-08-26T06:58:04Z</time>
      </trkpt>
      <trkpt lat="46.01413" lon="6.79919">
        <ele>1796.8</ele>
        <time>2013-08-26T06:58:05Z</time>
      </trkpt>
      <trkpt lat="46.01414" lon="6.79919">
        <ele>1796.4</ele>
        <time>2013-08-26T06:58:06Z</time>
      </trkpt>
      <trkpt lat="46.01416" lon="6.7992">
        <ele>1797.3</ele>
        <time>2013-08-26T06:58:07Z</time>
      </trkpt>
      <trkpt lat="46.01417" lon="6.79921">
        <ele>1797.3</ele>
        <time>2013-08-26T06:58:08Z</time>
      </trkpt>
      <trkpt lat="46.01418" lon="6.79923">
        <ele>1797.3</ele>
        <time>2013-08-26T06:58:09Z</time>
      </trkpt>
      <trkpt lat="46.01419" lon="6.79924">
        <ele>1797.8</ele>
        <time>2013-08-26T06:58:10Z</time>
      </trkpt>
      <trkpt lat="46.01419" lon="6.79926">
        <ele>1797.3</ele>
        <time>2013-08-26T06:58:11Z</time>
      </trkpt>
      <trkpt lat="46.0142" lon="6.79928">
        <ele>1798.3</ele>
        <time>2013-08-26T06:58:12Z</time>
      </trkpt>
      <trkpt lat="46.0142" lon="6.7993">
        <ele>1798.8</ele>
        <time>2013-08-26T06:58:13Z</time>
      </trkpt>
      <trkpt lat="46.0142" lon="6.79931">
        <ele>1799.2</ele>
        <time>2013-08-26T06:58:14Z</time>
      </trkpt>
      <trkpt lat="46.01422" lon="6.79943">
        <ele>1799.7</ele>
        <time>2013-08-26T06:58:21Z</time>
      </trkpt>
      <trkpt lat="46.01423" lon="6.79944">
        <ele>1800.7</ele>
        <time>2013-08-26T06:58:22Z</time>
      </trkpt>
      <trkpt lat="46.01424" lon="6.79945">
        <ele>1800.7</ele>
        <time>2013-08-26T06:58:23Z</time>
      </trkpt>
      <trkpt lat="46.01425" lon="6.79946">
        <ele>1801.2</ele>
        <time>2013-08-26T06:58:24Z</time>
      </trkpt>
      <trkpt lat="46.01427" lon="6.79947">
        <ele>1801.7</ele>
        <time>2013-08-26T06:58:25Z</time>
      </trkpt>
      <trkpt lat="46.01428" lon="6.79947">
        <ele>1801.7</ele>
        <time>2013-08-26T06:58:26Z</time>
      </trkpt>
      <trkpt lat="46.01437" lon="6.79949">
        <ele>1803.1</ele>
        <time>2013-08-26T06:58:33Z</time>
      </trkpt>
      <trkpt lat="46.01446" lon="6.79953">
        <ele>1805</ele>
        <time>2013-08-26T06:58:45Z</time>
      </trkpt>
      <trkpt lat="46.01442" lon="6.79953">
        <ele>1804.5</ele>
        <time>2013-08-26T06:59:05Z</time>
      </trkpt>
      <trkpt lat="46.01443" lon="6.79956">
        <ele>1804.1</ele>
        <time>2013-08-26T06:59:22Z</time>
      </trkpt>
      <trkpt lat="46.01441" lon="6.79953">
        <ele>1804.1</ele>
        <time>2013-08-26T06:59:48Z</time>
      </trkpt>
      <trkpt lat="46.01445" lon="6.79952">
        <ele>1804.5</ele>
        <time>2013-08-26T07:00:10Z</time>
      </trkpt>
      <trkpt lat="46.01453" lon="6.79959">
        <ele>1806.5</ele>
        <time>2013-08-26T07:00:23Z</time>
      </trkpt>
      <trkpt lat="46.01462" lon="6.79964">
        <ele>1808.9</ele>
        <time>2013-08-26T07:00:36Z</time>
      </trkpt>
      <trkpt lat="46.0147" lon="6.79968">
        <ele>1811.3</ele>
        <time>2013-08-26T07:00:51Z</time>
      </trkpt>
      <trkpt lat="46.01476" lon="6.79969">
        <ele>1812.7</ele>
        <time>2013-08-26T07:01:05Z</time>
      </trkpt>
      <trkpt lat="46.01484" lon="6.7998">
        <ele>1814.6</ele>
        <time>2013-08-26T07:01:19Z</time>
      </trkpt>
      <trkpt lat="46.01491" lon="6.79995">
        <ele>1816.1</ele>
        <time>2013-08-26T07:01:34Z</time>
      </trkpt>
      <trkpt lat="46.01494" lon="6.80011">
        <ele>1819</ele>
        <time>2013-08-26T07:01:50Z</time>
      </trkpt>
      <trkpt lat="46.01496" lon="6.80025">
        <ele>1820.9</ele>
        <time>2013-08-26T07:02:04Z</time>
      </trkpt>
      <trkpt lat="46.01496" lon="6.80036">
        <ele>1822.8</ele>
        <time>2013-08-26T07:02:15Z</time>
      </trkpt>
      <trkpt lat="46.01497" lon="6.80045">
        <ele>1823.8</ele>
        <time>2013-08-26T07:02:23Z</time>
      </trkpt>
      <trkpt lat="46.01495" lon="6.80061">
        <ele>1826.6</ele>
        <time>2013-08-26T07:02:38Z</time>
      </trkpt>
      <trkpt lat="46.01495" lon="6.80079">
        <ele>1829.5</ele>
        <time>2013-08-26T07:02:55Z</time>
      </trkpt>
      <trkpt lat="46.01494" lon="6.80095">
        <ele>1831.9</ele>
        <time>2013-08-26T07:03:11Z</time>
      </trkpt>
      <trkpt lat="46.01493" lon="6.80106">
        <ele>1834.3</ele>
        <time>2013-08-26T07:03:26Z</time>
      </trkpt>
      <trkpt lat="46.0149" lon="6.80122">
        <ele>1837.7</ele>
        <time>2013-08-26T07:03:41Z</time>
      </trkpt>
      <trkpt lat="46.01486" lon="6.80136">
        <ele>1840.6</ele>
        <time>2013-08-26T07:03:59Z</time>
      </trkpt>
      <trkpt lat="46.01479" lon="6.80154">
        <ele>1843</ele>
        <time>2013-08-26T07:04:17Z</time>
      </trkpt>
      <trkpt lat="46.01472" lon="6.80165">
        <ele>1845.9</ele>
        <time>2013-08-26T07:04:35Z</time>
      </trkpt>
      <trkpt lat="46.01465" lon="6.8017">
        <ele>1848.3</ele>
        <time>2013-08-26T07:04:51Z</time>
      </trkpt>
      <trkpt lat="46.01458" lon="6.80177">
        <ele>1849.2</ele>
        <time>2013-08-26T07:05:04Z</time>
      </trkpt>
      <trkpt lat="46.01448" lon="6.80187">
        <ele>1852.1</ele>
        <time>2013-08-26T07:05:20Z</time>
      </trkpt>
      <trkpt lat="46.01445" lon="6.80188">
        <ele>1853.1</ele>
        <time>2013-08-26T07:05:32Z</time>
      </trkpt>
      <trkpt lat="46.01437" lon="6.80187">
        <ele>1854</ele>
        <time>2013-08-26T07:05:49Z</time>
      </trkpt>
      <trkpt lat="46.01432" lon="6.80186">
        <ele>1855.5</ele>
        <time>2013-08-26T07:05:56Z</time>
      </trkpt>
      <trkpt lat="46.01431" lon="6.80186">
        <ele>1856</ele>
        <time>2013-08-26T07:05:57Z</time>
      </trkpt>
      <trkpt lat="46.01429" lon="6.80186">
        <ele>1856.4</ele>
        <time>2013-08-26T07:05:58Z</time>
      </trkpt>
      <trkpt lat="46.01419" lon="6.80188">
        <ele>1858.4</ele>
        <time>2013-08-26T07:06:12Z</time>
      </trkpt>
      <trkpt lat="46.01419" lon="6.80188">
        <ele>1857.4</ele>
        <time>2013-08-26T07:06:14Z</time>
      </trkpt>
      <trkpt lat="46.01418" lon="6.80189">
        <ele>1857.9</ele>
        <time>2013-08-26T07:06:24Z</time>
      </trkpt>
      <trkpt lat="46.01407" lon="6.80205">
        <ele>1858.4</ele>
        <time>2013-08-26T07:06:37Z</time>
      </trkpt>
      <trkpt lat="46.01405" lon="6.80214">
        <ele>1859.8</ele>
        <time>2013-08-26T07:06:42Z</time>
      </trkpt>
      <trkpt lat="46.01404" lon="6.80216">
        <ele>1859.8</ele>
        <time>2013-08-26T07:06:43Z</time>
      </trkpt>
      <trkpt lat="46.01401" lon="6.80224">
        <ele>1861.3</ele>
        <time>2013-08-26T07:06:49Z</time>
      </trkpt>
      <trkpt lat="46.01399" lon="6.80227">
        <ele>1861.7</ele>
        <time>2013-08-26T07:06:51Z</time>
      </trkpt>
      <trkpt lat="46.01399" lon="6.8023">
        <ele>1862.7</ele>
        <time>2013-08-26T07:06:53Z</time>
      </trkpt>
      <trkpt lat="46.01391" lon="6.80246">
        <ele>1864.6</ele>
        <time>2013-08-26T07:07:03Z</time>
      </trkpt>
      <trkpt lat="46.0139" lon="6.80239">
        <ele>1867</ele>
        <time>2013-08-26T07:07:14Z</time>
      </trkpt>
      <trkpt lat="46.0139" lon="6.80224">
        <ele>1867</ele>
        <time>2013-08-26T07:07:29Z</time>
      </trkpt>
      <trkpt lat="46.0139" lon="6.80222">
        <ele>1868</ele>
        <time>2013-08-26T07:07:30Z</time>
      </trkpt>
      <trkpt lat="46.0139" lon="6.8022">
        <ele>1867.5</ele>
        <time>2013-08-26T07:07:31Z</time>
      </trkpt>
      <trkpt lat="46.0139" lon="6.80219">
        <ele>1868</ele>
        <time>2013-08-26T07:07:32Z</time>
      </trkpt>
      <trkpt lat="46.01389" lon="6.80217">
        <ele>1868</ele>
        <time>2013-08-26T07:07:33Z</time>
      </trkpt>
      <trkpt lat="46.01388" lon="6.80204">
        <ele>1869.4</ele>
        <time>2013-08-26T07:07:40Z</time>
      </trkpt>
      <trkpt lat="46.01388" lon="6.80202">
        <ele>1868.9</ele>
        <time>2013-08-26T07:07:41Z</time>
      </trkpt>
      <trkpt lat="46.01387" lon="6.802">
        <ele>1869.9</ele>
        <time>2013-08-26T07:07:42Z</time>
      </trkpt>
      <trkpt lat="46.01387" lon="6.80198">
        <ele>1869.9</ele>
        <time>2013-08-26T07:07:43Z</time>
      </trkpt>
      <trkpt lat="46.01387" lon="6.80197">
        <ele>1868.9</ele>
        <time>2013-08-26T07:07:44Z</time>
      </trkpt>
      <trkpt lat="46.01386" lon="6.80195">
        <ele>1869.4</ele>
        <time>2013-08-26T07:07:45Z</time>
      </trkpt>
      <trkpt lat="46.01386" lon="6.80192">
        <ele>1869.9</ele>
        <time>2013-08-26T07:07:46Z</time>
      </trkpt>
      <trkpt lat="46.01376" lon="6.80159">
        <ele>1871.3</ele>
        <time>2013-08-26T07:08:01Z</time>
      </trkpt>
      <trkpt lat="46.01363" lon="6.8014">
        <ele>1872.8</ele>
        <time>2013-08-26T07:08:13Z</time>
      </trkpt>
      <trkpt lat="46.01362" lon="6.80139">
        <ele>1872.3</ele>
        <time>2013-08-26T07:08:14Z</time>
      </trkpt>
      <trkpt lat="46.0136" lon="6.80138">
        <ele>1872.3</ele>
        <time>2013-08-26T07:08:15Z</time>
      </trkpt>
      <trkpt lat="46.01351" lon="6.80132">
        <ele>1873.8</ele>
        <time>2013-08-26T07:08:21Z</time>
      </trkpt>
      <trkpt lat="46.0135" lon="6.80131">
        <ele>1873.3</ele>
        <time>2013-08-26T07:08:22Z</time>
      </trkpt>
      <trkpt lat="46.01349" lon="6.80132">
        <ele>1873.3</ele>
        <time>2013-08-26T07:08:23Z</time>
      </trkpt>
      <trkpt lat="46.01348" lon="6.80133">
        <ele>1873.8</ele>
        <time>2013-08-26T07:08:24Z</time>
      </trkpt>
      <trkpt lat="46.01349" lon="6.80134">
        <ele>1873.8</ele>
        <time>2013-08-26T07:08:25Z</time>
      </trkpt>
      <trkpt lat="46.01349" lon="6.80136">
        <ele>1873.3</ele>
        <time>2013-08-26T07:08:26Z</time>
      </trkpt>
      <trkpt lat="46.0135" lon="6.80137">
        <ele>1875.2</ele>
        <time>2013-08-26T07:08:27Z</time>
      </trkpt>
      <trkpt lat="46.01351" lon="6.80138">
        <ele>1874.7</ele>
        <time>2013-08-26T07:08:28Z</time>
      </trkpt>
      <trkpt lat="46.01352" lon="6.80139">
        <ele>1876.2</ele>
        <time>2013-08-26T07:08:29Z</time>
      </trkpt>
      <trkpt lat="46.01352" lon="6.80141">
        <ele>1875.2</ele>
        <time>2013-08-26T07:08:30Z</time>
      </trkpt>
      <trkpt lat="46.01363" lon="6.80162">
        <ele>1879</ele>
        <time>2013-08-26T07:08:44Z</time>
      </trkpt>
      <trkpt lat="46.01364" lon="6.80169">
        <ele>1879.5</ele>
        <time>2013-08-26T07:08:48Z</time>
      </trkpt>
      <trkpt lat="46.01365" lon="6.8019">
        <ele>1881.4</ele>
        <time>2013-08-26T07:09:01Z</time>
      </trkpt>
      <trkpt lat="46.01364" lon="6.80189">
        <ele>1882.4</ele>
        <time>2013-08-26T07:09:03Z</time>
      </trkpt>
      <trkpt lat="46.01363" lon="6.80188">
        <ele>1882.9</ele>
        <time>2013-08-26T07:09:04Z</time>
      </trkpt>
      <trkpt lat="46.01362" lon="6.80187">
        <ele>1883.4</ele>
        <time>2013-08-26T07:09:05Z</time>
      </trkpt>
      <trkpt lat="46.01358" lon="6.80179">
        <ele>1884.3</ele>
        <time>2013-08-26T07:09:12Z</time>
      </trkpt>
      <trkpt lat="46.01357" lon="6.80178">
        <ele>1884.8</ele>
        <time>2013-08-26T07:09:13Z</time>
      </trkpt>
      <trkpt lat="46.01357" lon="6.80176">
        <ele>1885.3</ele>
        <time>2013-08-26T07:09:14Z</time>
      </trkpt>
      <trkpt lat="46.01356" lon="6.80175">
        <ele>1884.3</ele>
        <time>2013-08-26T07:09:15Z</time>
      </trkpt>
      <trkpt lat="46.01355" lon="6.80174">
        <ele>1885.3</ele>
        <time>2013-08-26T07:09:16Z</time>
      </trkpt>
      <trkpt lat="46.01343" lon="6.80165">
        <ele>1887.2</ele>
        <time>2013-08-26T07:09:27Z</time>
      </trkpt>
      <trkpt lat="46.01344" lon="6.80169">
        <ele>1888.2</ele>
        <time>2013-08-26T07:09:31Z</time>
      </trkpt>
      <trkpt lat="46.01345" lon="6.8017">
        <ele>1889.6</ele>
        <time>2013-08-26T07:09:32Z</time>
      </trkpt>
      <trkpt lat="46.01346" lon="6.80171">
        <ele>1889.1</ele>
        <time>2013-08-26T07:09:33Z</time>
      </trkpt>
      <trkpt lat="46.01348" lon="6.80175">
        <ele>1887.7</ele>
        <time>2013-08-26T07:09:36Z</time>
      </trkpt>
      <trkpt lat="46.01348" lon="6.80177">
        <ele>1888.7</ele>
        <time>2013-08-26T07:09:37Z</time>
      </trkpt>
      <trkpt lat="46.01349" lon="6.8018">
        <ele>1889.6</ele>
        <time>2013-08-26T07:09:38Z</time>
      </trkpt>
      <trkpt lat="46.0135" lon="6.80182">
        <ele>1889.6</ele>
        <time>2013-08-26T07:09:39Z</time>
      </trkpt>
      <trkpt lat="46.0135" lon="6.80184">
        <ele>1889.1</ele>
        <time>2013-08-26T07:09:40Z</time>
      </trkpt>
      <trkpt lat="46.01351" lon="6.80186">
        <ele>1888.2</ele>
        <time>2013-08-26T07:09:41Z</time>
      </trkpt>
      <trkpt lat="46.01352" lon="6.80188">
        <ele>1890.1</ele>
        <time>2013-08-26T07:09:42Z</time>
      </trkpt>
      <trkpt lat="46.01352" lon="6.8019">
        <ele>1888.2</ele>
        <time>2013-08-26T07:09:43Z</time>
      </trkpt>
      <trkpt lat="46.01353" lon="6.80192">
        <ele>1889.1</ele>
        <time>2013-08-26T07:09:44Z</time>
      </trkpt>
      <trkpt lat="46.01354" lon="6.80194">
        <ele>1889.1</ele>
        <time>2013-08-26T07:09:45Z</time>
      </trkpt>
      <trkpt lat="46.01354" lon="6.80196">
        <ele>1889.6</ele>
        <time>2013-08-26T07:09:46Z</time>
      </trkpt>
      <trkpt lat="46.01355" lon="6.80199">
        <ele>1890.6</ele>
        <time>2013-08-26T07:09:47Z</time>
      </trkpt>
      <trkpt lat="46.01355" lon="6.80201">
        <ele>1889.1</ele>
        <time>2013-08-26T07:09:48Z</time>
      </trkpt>
      <trkpt lat="46.01355" lon="6.80203">
        <ele>1889.1</ele>
        <time>2013-08-26T07:09:49Z</time>
      </trkpt>
      <trkpt lat="46.01355" lon="6.80205">
        <ele>1890.1</ele>
        <time>2013-08-26T07:09:50Z</time>
      </trkpt>
      <trkpt lat="46.01355" lon="6.80207">
        <ele>1890.6</ele>
        <time>2013-08-26T07:09:51Z</time>
      </trkpt>
      <trkpt lat="46.01346" lon="6.80232">
        <ele>1892</ele>
        <time>2013-08-26T07:10:05Z</time>
      </trkpt>
      <trkpt lat="46.01331" lon="6.80249">
        <ele>1894.4</ele>
        <time>2013-08-26T07:10:19Z</time>
      </trkpt>
      <trkpt lat="46.0133" lon="6.8025">
        <ele>1894.9</ele>
        <time>2013-08-26T07:10:20Z</time>
      </trkpt>
      <trkpt lat="46.01329" lon="6.80252">
        <ele>1895.4</ele>
        <time>2013-08-26T07:10:21Z</time>
      </trkpt>
      <trkpt lat="46.01327" lon="6.80255">
        <ele>1896.8</ele>
        <time>2013-08-26T07:10:23Z</time>
      </trkpt>
      <trkpt lat="46.01327" lon="6.80257">
        <ele>1896.8</ele>
        <time>2013-08-26T07:10:24Z</time>
      </trkpt>
      <trkpt lat="46.01326" lon="6.80258">
        <ele>1897.3</ele>
        <time>2013-08-26T07:10:25Z</time>
      </trkpt>
      <trkpt lat="46.01325" lon="6.80259">
        <ele>1896.8</ele>
        <time>2013-08-26T07:10:26Z</time>
      </trkpt>
      <trkpt lat="46.01323" lon="6.80263">
        <ele>1897.8</ele>
        <time>2013-08-26T07:10:29Z</time>
      </trkpt>
      <trkpt lat="46.0132" lon="6.80264">
        <ele>1898.3</ele>
        <time>2013-08-26T07:10:36Z</time>
      </trkpt>
      <trkpt lat="46.0132" lon="6.80264">
        <ele>1897.3</ele>
        <time>2013-08-26T07:10:48Z</time>
      </trkpt>
      <trkpt lat="46.01321" lon="6.80264">
        <ele>1898.7</ele>
        <time>2013-08-26T07:11:13Z</time>
      </trkpt>
      <trkpt lat="46.01321" lon="6.80262">
        <ele>1899.7</ele>
        <time>2013-08-26T07:11:14Z</time>
      </trkpt>
      <trkpt lat="46.01321" lon="6.8026">
        <ele>1898.7</ele>
        <time>2013-08-26T07:11:15Z</time>
      </trkpt>
      <trkpt lat="46.01322" lon="6.80258">
        <ele>1898.7</ele>
        <time>2013-08-26T07:11:16Z</time>
      </trkpt>
      <trkpt lat="46.01322" lon="6.80256">
        <ele>1898.7</ele>
        <time>2013-08-26T07:11:17Z</time>
      </trkpt>
      <trkpt lat="46.01322" lon="6.80254">
        <ele>1898.7</ele>
        <time>2013-08-26T07:11:18Z</time>
      </trkpt>
      <trkpt lat="46.01322" lon="6.80251">
        <ele>1899.7</ele>
        <time>2013-08-26T07:11:19Z</time>
      </trkpt>
      <trkpt lat="46.01323" lon="6.80246">
        <ele>1900.7</ele>
        <time>2013-08-26T07:11:21Z</time>
      </trkpt>
      <trkpt lat="46.0133" lon="6.8022">
        <ele>1901.1</ele>
        <time>2013-08-26T07:11:32Z</time>
      </trkpt>
      <trkpt lat="46.0133" lon="6.80217">
        <ele>1900.2</ele>
        <time>2013-08-26T07:11:33Z</time>
      </trkpt>
      <trkpt lat="46.0133" lon="6.80214">
        <ele>1901.6</ele>
        <time>2013-08-26T07:11:34Z</time>
      </trkpt>
      <trkpt lat="46.01329" lon="6.80212">
        <ele>1901.1</ele>
        <time>2013-08-26T07:11:35Z</time>
      </trkpt>
      <trkpt lat="46.01328" lon="6.8021">
        <ele>1901.6</ele>
        <time>2013-08-26T07:11:36Z</time>
      </trkpt>
      <trkpt lat="46.01327" lon="6.80208">
        <ele>1902.1</ele>
        <time>2013-08-26T07:11:37Z</time>
      </trkpt>
      <trkpt lat="46.01326" lon="6.80206">
        <ele>1902.6</ele>
        <time>2013-08-26T07:11:38Z</time>
      </trkpt>
      <trkpt lat="46.01326" lon="6.80204">
        <ele>1902.1</ele>
        <time>2013-08-26T07:11:39Z</time>
      </trkpt>
      <trkpt lat="46.01325" lon="6.80203">
        <ele>1902.1</ele>
        <time>2013-08-26T07:11:40Z</time>
      </trkpt>
      <trkpt lat="46.01324" lon="6.80201">
        <ele>1903.1</ele>
        <time>2013-08-26T07:11:41Z</time>
      </trkpt>
      <trkpt lat="46.01323" lon="6.802">
        <ele>1903.1</ele>
        <time>2013-08-26T07:11:42Z</time>
      </trkpt>
      <trkpt lat="46.01321" lon="6.802">
        <ele>1903.1</ele>
        <time>2013-08-26T07:11:43Z</time>
      </trkpt>
      <trkpt lat="46.0132" lon="6.802">
        <ele>1904.5</ele>
        <time>2013-08-26T07:11:44Z</time>
      </trkpt>
      <trkpt lat="46.01319" lon="6.802">
        <ele>1903.1</ele>
        <time>2013-08-26T07:11:45Z</time>
      </trkpt>
      <trkpt lat="46.01318" lon="6.80201">
        <ele>1905</ele>
        <time>2013-08-26T07:11:46Z</time>
      </trkpt>
      <trkpt lat="46.01317" lon="6.80203">
        <ele>1904.5</ele>
        <time>2013-08-26T07:11:47Z</time>
      </trkpt>
      <trkpt lat="46.01316" lon="6.80204">
        <ele>1905</ele>
        <time>2013-08-26T07:11:48Z</time>
      </trkpt>
      <trkpt lat="46.01316" lon="6.80207">
        <ele>1904</ele>
        <time>2013-08-26T07:11:49Z</time>
      </trkpt>
      <trkpt lat="46.01306" lon="6.80218">
        <ele>1908.4</ele>
        <time>2013-08-26T07:11:57Z</time>
      </trkpt>
      <trkpt lat="46.013" lon="6.80222">
        <ele>1908.4</ele>
        <time>2013-08-26T07:12:02Z</time>
      </trkpt>
      <trkpt lat="46.01296" lon="6.80218">
        <ele>1909.8</ele>
        <time>2013-08-26T07:12:14Z</time>
      </trkpt>
      <trkpt lat="46.01297" lon="6.80213">
        <ele>1909.8</ele>
        <time>2013-08-26T07:12:28Z</time>
      </trkpt>
      <trkpt lat="46.0129" lon="6.80217">
        <ele>1913.6</ele>
        <time>2013-08-26T07:12:41Z</time>
      </trkpt>
      <trkpt lat="46.01284" lon="6.80224">
        <ele>1914.6</ele>
        <time>2013-08-26T07:12:56Z</time>
      </trkpt>
      <trkpt lat="46.01283" lon="6.80226">
        <ele>1916</ele>
        <time>2013-08-26T07:13:12Z</time>
      </trkpt>
      <trkpt lat="46.01278" lon="6.80234">
        <ele>1918.5</ele>
        <time>2013-08-26T07:13:26Z</time>
      </trkpt>
      <trkpt lat="46.01277" lon="6.80237">
        <ele>1918.5</ele>
        <time>2013-08-26T07:13:41Z</time>
      </trkpt>
      <trkpt lat="46.01278" lon="6.80237">
        <ele>1918</ele>
        <time>2013-08-26T07:14:14Z</time>
      </trkpt>
      <trkpt lat="46.01277" lon="6.80236">
        <ele>1919.4</ele>
        <time>2013-08-26T07:14:43Z</time>
      </trkpt>
      <trkpt lat="46.01277" lon="6.80236">
        <ele>1918.5</ele>
        <time>2013-08-26T07:15:05Z</time>
      </trkpt>
      <trkpt lat="46.01276" lon="6.80235">
        <ele>1918.9</ele>
        <time>2013-08-26T07:15:34Z</time>
      </trkpt>
      <trkpt lat="46.01277" lon="6.80238">
        <ele>1918.5</ele>
        <time>2013-08-26T07:16:07Z</time>
      </trkpt>
      <trkpt lat="46.01276" lon="6.80238">
        <ele>1919.4</ele>
        <time>2013-08-26T07:16:30Z</time>
      </trkpt>
      <trkpt lat="46.01266" lon="6.80237">
        <ele>1921.3</ele>
        <time>2013-08-26T07:16:45Z</time>
      </trkpt>
      <trkpt lat="46.0126" lon="6.8024">
        <ele>1924.7</ele>
        <time>2013-08-26T07:16:58Z</time>
      </trkpt>
      <trkpt lat="46.01252" lon="6.80232">
        <ele>1927.1</ele>
        <time>2013-08-26T07:17:15Z</time>
      </trkpt>
      <trkpt lat="46.01252" lon="6.80234">
        <ele>1926.6</ele>
        <time>2013-08-26T07:17:28Z</time>
      </trkpt>
      <trkpt lat="46.01245" lon="6.80231">
        <ele>1929</ele>
        <time>2013-08-26T07:17:43Z</time>
      </trkpt>
      <trkpt lat="46.01236" lon="6.80229">
        <ele>1931.9</ele>
        <time>2013-08-26T07:17:58Z</time>
      </trkpt>
      <trkpt lat="46.01242" lon="6.8024">
        <ele>1934.3</ele>
        <time>2013-08-26T07:18:14Z</time>
      </trkpt>
      <trkpt lat="46.01242" lon="6.80248">
        <ele>1937.2</ele>
        <time>2013-08-26T07:18:30Z</time>
      </trkpt>
      <trkpt lat="46.0123" lon="6.80239">
        <ele>1939.1</ele>
        <time>2013-08-26T07:18:47Z</time>
      </trkpt>
      <trkpt lat="46.01221" lon="6.80234">
        <ele>1942</ele>
        <time>2013-08-26T07:19:02Z</time>
      </trkpt>
      <trkpt lat="46.01213" lon="6.80233">
        <ele>1945.4</ele>
        <time>2013-08-26T07:19:17Z</time>
      </trkpt>
      <trkpt lat="46.01206" lon="6.80226">
        <ele>1947.8</ele>
        <time>2013-08-26T07:19:33Z</time>
      </trkpt>
      <trkpt lat="46.01205" lon="6.80234">
        <ele>1950.7</ele>
        <time>2013-08-26T07:19:49Z</time>
      </trkpt>
      <trkpt lat="46.01204" lon="6.80242">
        <ele>1953.1</ele>
        <time>2013-08-26T07:20:04Z</time>
      </trkpt>
      <trkpt lat="46.01195" lon="6.80236">
        <ele>1955.9</ele>
        <time>2013-08-26T07:20:22Z</time>
      </trkpt>
      <trkpt lat="46.01188" lon="6.80235">
        <ele>1958.8</ele>
        <time>2013-08-26T07:20:36Z</time>
      </trkpt>
      <trkpt lat="46.01177" lon="6.80231">
        <ele>1961.2</ele>
        <time>2013-08-26T07:20:52Z</time>
      </trkpt>
      <trkpt lat="46.0117" lon="6.80227">
        <ele>1962.7</ele>
        <time>2013-08-26T07:21:02Z</time>
      </trkpt>
      <trkpt lat="46.01157" lon="6.80222">
        <ele>1964.6</ele>
        <time>2013-08-26T07:21:17Z</time>
      </trkpt>
      <trkpt lat="46.0115" lon="6.80217">
        <ele>1967</ele>
        <time>2013-08-26T07:21:29Z</time>
      </trkpt>
      <trkpt lat="46.01144" lon="6.8021">
        <ele>1969.4</ele>
        <time>2013-08-26T07:21:44Z</time>
      </trkpt>
      <trkpt lat="46.01137" lon="6.80201">
        <ele>1970.8</ele>
        <time>2013-08-26T07:22:01Z</time>
      </trkpt>
      <trkpt lat="46.01128" lon="6.80188">
        <ele>1973.2</ele>
        <time>2013-08-26T07:22:20Z</time>
      </trkpt>
      <trkpt lat="46.01123" lon="6.80178">
        <ele>1974.7</ele>
        <time>2013-08-26T07:22:31Z</time>
      </trkpt>
      <trkpt lat="46.01121" lon="6.80167">
        <ele>1976.6</ele>
        <time>2013-08-26T07:22:40Z</time>
      </trkpt>
      <trkpt lat="46.01116" lon="6.80153">
        <ele>1978.5</ele>
        <time>2013-08-26T07:22:56Z</time>
      </trkpt>
      <trkpt lat="46.01112" lon="6.80166">
        <ele>1980.5</ele>
        <time>2013-08-26T07:23:10Z</time>
      </trkpt>
      <trkpt lat="46.01109" lon="6.80183">
        <ele>1982.9</ele>
        <time>2013-08-26T07:23:26Z</time>
      </trkpt>
      <trkpt lat="46.01109" lon="6.80199">
        <ele>1985.7</ele>
        <time>2013-08-26T07:23:42Z</time>
      </trkpt>
      <trkpt lat="46.01111" lon="6.80214">
        <ele>1989.1</ele>
        <time>2013-08-26T07:24:02Z</time>
      </trkpt>
      <trkpt lat="46.01111" lon="6.80217">
        <ele>1990.1</ele>
        <time>2013-08-26T07:24:04Z</time>
      </trkpt>
      <trkpt lat="46.01114" lon="6.80229">
        <ele>1991.5</ele>
        <time>2013-08-26T07:24:17Z</time>
      </trkpt>
      <trkpt lat="46.01116" lon="6.80241">
        <ele>1993.4</ele>
        <time>2013-08-26T07:24:32Z</time>
      </trkpt>
      <trkpt lat="46.01118" lon="6.80251">
        <ele>1996.8</ele>
        <time>2013-08-26T07:24:45Z</time>
      </trkpt>
      <trkpt lat="46.0112" lon="6.80263">
        <ele>1998.2</ele>
        <time>2013-08-26T07:25:02Z</time>
      </trkpt>
      <trkpt lat="46.01117" lon="6.80277">
        <ele>2002.1</ele>
        <time>2013-08-26T07:25:18Z</time>
      </trkpt>
      <trkpt lat="46.01114" lon="6.80297">
        <ele>2005</ele>
        <time>2013-08-26T07:25:37Z</time>
      </trkpt>
      <trkpt lat="46.01112" lon="6.80303">
        <ele>2005.9</ele>
        <time>2013-08-26T07:25:43Z</time>
      </trkpt>
      <trkpt lat="46.01107" lon="6.80318">
        <ele>2008.3</ele>
        <time>2013-08-26T07:26:01Z</time>
      </trkpt>
      <trkpt lat="46.01101" lon="6.80334">
        <ele>2011.7</ele>
        <time>2013-08-26T07:26:17Z</time>
      </trkpt>
      <trkpt lat="46.01095" lon="6.80334">
        <ele>2011.7</ele>
        <time>2013-08-26T07:26:34Z</time>
      </trkpt>
      <trkpt lat="46.01091" lon="6.80324">
        <ele>2014.1</ele>
        <time>2013-08-26T07:26:46Z</time>
      </trkpt>
      <trkpt lat="46.01088" lon="6.80312">
        <ele>2015.5</ele>
        <time>2013-08-26T07:26:57Z</time>
      </trkpt>
      <trkpt lat="46.01088" lon="6.80302">
        <ele>2017.5</ele>
        <time>2013-08-26T07:27:05Z</time>
      </trkpt>
      <trkpt lat="46.01087" lon="6.803">
        <ele>2017</ele>
        <time>2013-08-26T07:27:06Z</time>
      </trkpt>
      <trkpt lat="46.01086" lon="6.80293">
        <ele>2017.9</ele>
        <time>2013-08-26T07:27:12Z</time>
      </trkpt>
      <trkpt lat="46.01085" lon="6.80277">
        <ele>2021.3</ele>
        <time>2013-08-26T07:27:28Z</time>
      </trkpt>
      <trkpt lat="46.01081" lon="6.80265">
        <ele>2022.8</ele>
        <time>2013-08-26T07:27:46Z</time>
      </trkpt>
      <trkpt lat="46.0108" lon="6.80269">
        <ele>2025.2</ele>
        <time>2013-08-26T07:27:51Z</time>
      </trkpt>
      <trkpt lat="46.01072" lon="6.80281">
        <ele>2028</ele>
        <time>2013-08-26T07:28:07Z</time>
      </trkpt>
      <trkpt lat="46.01069" lon="6.80288">
        <ele>2028.5</ele>
        <time>2013-08-26T07:28:15Z</time>
      </trkpt>
      <trkpt lat="46.01065" lon="6.803">
        <ele>2031.9</ele>
        <time>2013-08-26T07:28:28Z</time>
      </trkpt>
      <trkpt lat="46.01059" lon="6.80307">
        <ele>2033.8</ele>
        <time>2013-08-26T07:28:39Z</time>
      </trkpt>
      <trkpt lat="46.01053" lon="6.80321">
        <ele>2035.7</ele>
        <time>2013-08-26T07:28:55Z</time>
      </trkpt>
      <trkpt lat="46.01048" lon="6.80325">
        <ele>2036.7</ele>
        <time>2013-08-26T07:29:02Z</time>
      </trkpt>
      <trkpt lat="46.01045" lon="6.80329">
        <ele>2036.7</ele>
        <time>2013-08-26T07:29:07Z</time>
      </trkpt>
      <trkpt lat="46.01036" lon="6.80341">
        <ele>2040.1</ele>
        <time>2013-08-26T07:29:22Z</time>
      </trkpt>
      <trkpt lat="46.01022" lon="6.80355">
        <ele>2042</ele>
        <time>2013-08-26T07:29:40Z</time>
      </trkpt>
      <trkpt lat="46.01012" lon="6.80365">
        <ele>2042.9</ele>
        <time>2013-08-26T07:29:58Z</time>
      </trkpt>
      <trkpt lat="46.0101" lon="6.80367">
        <ele>2042.9</ele>
        <time>2013-08-26T07:30:12Z</time>
      </trkpt>
      <trkpt lat="46.0101" lon="6.80367">
        <ele>2042.9</ele>
        <time>2013-08-26T07:30:48Z</time>
      </trkpt>
      <trkpt lat="46.0101" lon="6.80368">
        <ele>2043.4</ele>
        <time>2013-08-26T07:31:23Z</time>
      </trkpt>
      <trkpt lat="46.0101" lon="6.80367">
        <ele>2042.9</ele>
        <time>2013-08-26T07:32:12Z</time>
      </trkpt>
      <trkpt lat="46.0101" lon="6.80366">
        <ele>2042.5</ele>
        <time>2013-08-26T07:33:02Z</time>
      </trkpt>
      <trkpt lat="46.01004" lon="6.80376">
        <ele>2043.4</ele>
        <time>2013-08-26T07:33:29Z</time>
      </trkpt>
      <trkpt lat="46.00976" lon="6.80387">
        <ele>2041.5</ele>
        <time>2013-08-26T07:33:39Z</time>
      </trkpt>
      <trkpt lat="46.00972" lon="6.80386">
        <ele>2041</ele>
        <time>2013-08-26T07:33:40Z</time>
      </trkpt>
      <trkpt lat="46.00968" lon="6.80383">
        <ele>2040.5</ele>
        <time>2013-08-26T07:33:41Z</time>
      </trkpt>
      <trkpt lat="46.00965" lon="6.8038">
        <ele>2040.1</ele>
        <time>2013-08-26T07:33:42Z</time>
      </trkpt>
      <trkpt lat="46.00962" lon="6.80375">
        <ele>2040.1</ele>
        <time>2013-08-26T07:33:43Z</time>
      </trkpt>
      <trkpt lat="46.00959" lon="6.80372">
        <ele>2040.1</ele>
        <time>2013-08-26T07:33:44Z</time>
      </trkpt>
      <trkpt lat="46.00956" lon="6.80371">
        <ele>2039.6</ele>
        <time>2013-08-26T07:33:45Z</time>
      </trkpt>
      <trkpt lat="46.00955" lon="6.80371">
        <ele>2039.6</ele>
        <time>2013-08-26T07:33:46Z</time>
      </trkpt>
      <trkpt lat="46.00954" lon="6.80373">
        <ele>2038.6</ele>
        <time>2013-08-26T07:33:47Z</time>
      </trkpt>
      <trkpt lat="46.00953" lon="6.80375">
        <ele>2039.6</ele>
        <time>2013-08-26T07:33:48Z</time>
      </trkpt>
      <trkpt lat="46.00953" lon="6.80378">
        <ele>2039.6</ele>
        <time>2013-08-26T07:33:49Z</time>
      </trkpt>
      <trkpt lat="46.00953" lon="6.80381">
        <ele>2040.1</ele>
        <time>2013-08-26T07:33:50Z</time>
      </trkpt>
      <trkpt lat="46.00953" lon="6.80383">
        <ele>2040.1</ele>
        <time>2013-08-26T07:33:51Z</time>
      </trkpt>
      <trkpt lat="46.00953" lon="6.80386">
        <ele>2040.5</ele>
        <time>2013-08-26T07:33:52Z</time>
      </trkpt>
      <trkpt lat="46.00952" lon="6.80388">
        <ele>2040.1</ele>
        <time>2013-08-26T07:33:53Z</time>
      </trkpt>
      <trkpt lat="46.00951" lon="6.8039">
        <ele>2041</ele>
        <time>2013-08-26T07:33:59Z</time>
      </trkpt>
      <trkpt lat="46.00949" lon="6.80391">
        <ele>2040.5</ele>
        <time>2013-08-26T07:34:00Z</time>
      </trkpt>
      <trkpt lat="46.00947" lon="6.80392">
        <ele>2040.1</ele>
        <time>2013-08-26T07:34:01Z</time>
      </trkpt>
      <trkpt lat="46.00918" lon="6.80407">
        <ele>2038.6</ele>
        <time>2013-08-26T07:34:11Z</time>
      </trkpt>
      <trkpt lat="46.00914" lon="6.80411">
        <ele>2039.1</ele>
        <time>2013-08-26T07:34:12Z</time>
      </trkpt>
      <trkpt lat="46.00912" lon="6.80415">
        <ele>2038.1</ele>
        <time>2013-08-26T07:34:13Z</time>
      </trkpt>
      <trkpt lat="46.0091" lon="6.80419">
        <ele>2038.6</ele>
        <time>2013-08-26T07:34:14Z</time>
      </trkpt>
      <trkpt lat="46.00908" lon="6.80422">
        <ele>2037.2</ele>
        <time>2013-08-26T07:34:15Z</time>
      </trkpt>
      <trkpt lat="46.00906" lon="6.80425">
        <ele>2038.1</ele>
        <time>2013-08-26T07:34:16Z</time>
      </trkpt>
      <trkpt lat="46.00904" lon="6.80426">
        <ele>2037.7</ele>
        <time>2013-08-26T07:34:17Z</time>
      </trkpt>
      <trkpt lat="46.00902" lon="6.80427">
        <ele>2038.1</ele>
        <time>2013-08-26T07:34:18Z</time>
      </trkpt>
      <trkpt lat="46.00887" lon="6.80429">
        <ele>2039.6</ele>
        <time>2013-08-26T07:34:27Z</time>
      </trkpt>
      <trkpt lat="46.00885" lon="6.80429">
        <ele>2039.1</ele>
        <time>2013-08-26T07:34:28Z</time>
      </trkpt>
      <trkpt lat="46.00884" lon="6.80429">
        <ele>2040.1</ele>
        <time>2013-08-26T07:34:29Z</time>
      </trkpt>
      <trkpt lat="46.00882" lon="6.80428">
        <ele>2040.5</ele>
        <time>2013-08-26T07:34:30Z</time>
      </trkpt>
      <trkpt lat="46.0088" lon="6.80428">
        <ele>2040.1</ele>
        <time>2013-08-26T07:34:31Z</time>
      </trkpt>
      <trkpt lat="46.00878" lon="6.80427">
        <ele>2040.5</ele>
        <time>2013-08-26T07:34:32Z</time>
      </trkpt>
      <trkpt lat="46.00861" lon="6.80431">
        <ele>2042.9</ele>
        <time>2013-08-26T07:34:45Z</time>
      </trkpt>
      <trkpt lat="46.00858" lon="6.80435">
        <ele>2043.4</ele>
        <time>2013-08-26T07:35:04Z</time>
      </trkpt>
      <trkpt lat="46.00854" lon="6.80437">
        <ele>2043.9</ele>
        <time>2013-08-26T07:35:22Z</time>
      </trkpt>
      <trkpt lat="46.00839" lon="6.80447">
        <ele>2045.3</ele>
        <time>2013-08-26T07:35:39Z</time>
      </trkpt>
      <trkpt lat="46.00834" lon="6.80453">
        <ele>2045.8</ele>
        <time>2013-08-26T07:35:49Z</time>
      </trkpt>
      <trkpt lat="46.00827" lon="6.80466">
        <ele>2047.8</ele>
        <time>2013-08-26T07:36:01Z</time>
      </trkpt>
      <trkpt lat="46.00826" lon="6.80467">
        <ele>2047.3</ele>
        <time>2013-08-26T07:36:02Z</time>
      </trkpt>
      <trkpt lat="46.00825" lon="6.80468">
        <ele>2047.8</ele>
        <time>2013-08-26T07:36:03Z</time>
      </trkpt>
      <trkpt lat="46.00821" lon="6.80471">
        <ele>2046.8</ele>
        <time>2013-08-26T07:36:07Z</time>
      </trkpt>
      <trkpt lat="46.00819" lon="6.80478">
        <ele>2047.3</ele>
        <time>2013-08-26T07:36:23Z</time>
      </trkpt>
      <trkpt lat="46.00815" lon="6.80483">
        <ele>2048.2</ele>
        <time>2013-08-26T07:36:28Z</time>
      </trkpt>
      <trkpt lat="46.00813" lon="6.80484">
        <ele>2048.2</ele>
        <time>2013-08-26T07:36:29Z</time>
      </trkpt>
      <trkpt lat="46.00812" lon="6.80485">
        <ele>2048.2</ele>
        <time>2013-08-26T07:36:30Z</time>
      </trkpt>
      <trkpt lat="46.0081" lon="6.80486">
        <ele>2048.7</ele>
        <time>2013-08-26T07:36:31Z</time>
      </trkpt>
      <trkpt lat="46.00809" lon="6.80488">
        <ele>2049.2</ele>
        <time>2013-08-26T07:36:32Z</time>
      </trkpt>
      <trkpt lat="46.00808" lon="6.8049">
        <ele>2048.7</ele>
        <time>2013-08-26T07:36:33Z</time>
      </trkpt>
      <trkpt lat="46.00791" lon="6.80515">
        <ele>2051.6</ele>
        <time>2013-08-26T07:36:46Z</time>
      </trkpt>
      <trkpt lat="46.00794" lon="6.80535">
        <ele>2053.5</ele>
        <time>2013-08-26T07:36:59Z</time>
      </trkpt>
      <trkpt lat="46.00794" lon="6.80556">
        <ele>2055.4</ele>
        <time>2013-08-26T07:37:15Z</time>
      </trkpt>
      <trkpt lat="46.00789" lon="6.80561">
        <ele>2056.4</ele>
        <time>2013-08-26T07:37:22Z</time>
      </trkpt>
      <trkpt lat="46.00776" lon="6.80576">
        <ele>2058.3</ele>
        <time>2013-08-26T07:37:38Z</time>
      </trkpt>
      <trkpt lat="46.00773" lon="6.80579">
        <ele>2060.2</ele>
        <time>2013-08-26T07:37:46Z</time>
      </trkpt>
      <trkpt lat="46.00772" lon="6.8058">
        <ele>2058.8</ele>
        <time>2013-08-26T07:37:47Z</time>
      </trkpt>
      <trkpt lat="46.0077" lon="6.80582">
        <ele>2059.8</ele>
        <time>2013-08-26T07:37:49Z</time>
      </trkpt>
      <trkpt lat="46.00769" lon="6.80583">
        <ele>2060.2</ele>
        <time>2013-08-26T07:37:50Z</time>
      </trkpt>
      <trkpt lat="46.00768" lon="6.80585">
        <ele>2059.8</ele>
        <time>2013-08-26T07:37:51Z</time>
      </trkpt>
      <trkpt lat="46.00768" lon="6.80586">
        <ele>2060.2</ele>
        <time>2013-08-26T07:37:52Z</time>
      </trkpt>
      <trkpt lat="46.00759" lon="6.80602">
        <ele>2062.7</ele>
        <time>2013-08-26T07:38:07Z</time>
      </trkpt>
      <trkpt lat="46.00759" lon="6.80603">
        <ele>2063.1</ele>
        <time>2013-08-26T07:38:08Z</time>
      </trkpt>
      <trkpt lat="46.00758" lon="6.80606">
        <ele>2063.6</ele>
        <time>2013-08-26T07:38:11Z</time>
      </trkpt>
      <trkpt lat="46.00758" lon="6.80608">
        <ele>2063.6</ele>
        <time>2013-08-26T07:38:12Z</time>
      </trkpt>
      <trkpt lat="46.00754" lon="6.80623">
        <ele>2065.5</ele>
        <time>2013-08-26T07:38:26Z</time>
      </trkpt>
      <trkpt lat="46.00747" lon="6.80639">
        <ele>2067.5</ele>
        <time>2013-08-26T07:38:43Z</time>
      </trkpt>
      <trkpt lat="46.00735" lon="6.80654">
        <ele>2068.4</ele>
        <time>2013-08-26T07:38:59Z</time>
      </trkpt>
      <trkpt lat="46.00728" lon="6.80662">
        <ele>2069.4</ele>
        <time>2013-08-26T07:39:10Z</time>
      </trkpt>
      <trkpt lat="46.00723" lon="6.80666">
        <ele>2069.9</ele>
        <time>2013-08-26T07:39:22Z</time>
      </trkpt>
      <trkpt lat="46.0071" lon="6.80681">
        <ele>2071.3</ele>
        <time>2013-08-26T07:39:39Z</time>
      </trkpt>
      <trkpt lat="46.00708" lon="6.80683">
        <ele>2071.3</ele>
        <time>2013-08-26T07:39:42Z</time>
      </trkpt>
      <trkpt lat="46.00707" lon="6.80685">
        <ele>2071.3</ele>
        <time>2013-08-26T07:39:43Z</time>
      </trkpt>
      <trkpt lat="46.00696" lon="6.80697">
        <ele>2073.2</ele>
        <time>2013-08-26T07:39:52Z</time>
      </trkpt>
      <trkpt lat="46.00694" lon="6.80699">
        <ele>2073.7</ele>
        <time>2013-08-26T07:39:53Z</time>
      </trkpt>
      <trkpt lat="46.00693" lon="6.807">
        <ele>2073.7</ele>
        <time>2013-08-26T07:39:54Z</time>
      </trkpt>
      <trkpt lat="46.00692" lon="6.80701">
        <ele>2073.7</ele>
        <time>2013-08-26T07:39:55Z</time>
      </trkpt>
      <trkpt lat="46.00691" lon="6.80702">
        <ele>2074.2</ele>
        <time>2013-08-26T07:39:56Z</time>
      </trkpt>
      <trkpt lat="46.00689" lon="6.80704">
        <ele>2074.2</ele>
        <time>2013-08-26T07:39:57Z</time>
      </trkpt>
      <trkpt lat="46.00671" lon="6.80713">
        <ele>2077.1</ele>
        <time>2013-08-26T07:40:10Z</time>
      </trkpt>
      <trkpt lat="46.00666" lon="6.80716">
        <ele>2078</ele>
        <time>2013-08-26T07:40:19Z</time>
      </trkpt>
      <trkpt lat="46.00661" lon="6.80723">
        <ele>2079</ele>
        <time>2013-08-26T07:40:27Z</time>
      </trkpt>
      <trkpt lat="46.00656" lon="6.80737">
        <ele>2082.4</ele>
        <time>2013-08-26T07:40:43Z</time>
      </trkpt>
      <trkpt lat="46.00654" lon="6.80741">
        <ele>2082.4</ele>
        <time>2013-08-26T07:40:46Z</time>
      </trkpt>
      <trkpt lat="46.00643" lon="6.80753">
        <ele>2084.8</ele>
        <time>2013-08-26T07:41:02Z</time>
      </trkpt>
      <trkpt lat="46.0063" lon="6.80768">
        <ele>2086.2</ele>
        <time>2013-08-26T07:41:18Z</time>
      </trkpt>
      <trkpt lat="46.00626" lon="6.80771">
        <ele>2086.7</ele>
        <time>2013-08-26T07:41:21Z</time>
      </trkpt>
      <trkpt lat="46.00625" lon="6.80772">
        <ele>2087.2</ele>
        <time>2013-08-26T07:41:22Z</time>
      </trkpt>
      <trkpt lat="46.00598" lon="6.80784">
        <ele>2088.6</ele>
        <time>2013-08-26T07:41:39Z</time>
      </trkpt>
      <trkpt lat="46.00575" lon="6.80791">
        <ele>2090</ele>
        <time>2013-08-26T07:41:52Z</time>
      </trkpt>
      <trkpt lat="46.00549" lon="6.80794">
        <ele>2092</ele>
        <time>2013-08-26T07:42:06Z</time>
      </trkpt>
      <trkpt lat="46.00518" lon="6.80796">
        <ele>2092.9</ele>
        <time>2013-08-26T07:42:21Z</time>
      </trkpt>
      <trkpt lat="46.00491" lon="6.80799">
        <ele>2094.4</ele>
        <time>2013-08-26T07:42:36Z</time>
      </trkpt>
      <trkpt lat="46.00483" lon="6.808">
        <ele>2094.4</ele>
        <time>2013-08-26T07:42:47Z</time>
      </trkpt>
      <trkpt lat="46.00478" lon="6.80808">
        <ele>2094.9</ele>
        <time>2013-08-26T07:42:59Z</time>
      </trkpt>
      <trkpt lat="46.00468" lon="6.80819">
        <ele>2095.8</ele>
        <time>2013-08-26T07:43:15Z</time>
      </trkpt>
      <trkpt lat="46.00466" lon="6.80824">
        <ele>2096.3</ele>
        <time>2013-08-26T07:43:28Z</time>
      </trkpt>
      <trkpt lat="46.0046" lon="6.80829">
        <ele>2097.3</ele>
        <time>2013-08-26T07:43:41Z</time>
      </trkpt>
      <trkpt lat="46.00457" lon="6.80826">
        <ele>2096.8</ele>
        <time>2013-08-26T07:43:46Z</time>
      </trkpt>
      <trkpt lat="46.00456" lon="6.80825">
        <ele>2096.3</ele>
        <time>2013-08-26T07:43:47Z</time>
      </trkpt>
      <trkpt lat="46.00446" lon="6.80825">
        <ele>2098.2</ele>
        <time>2013-08-26T07:44:00Z</time>
      </trkpt>
      <trkpt lat="46.00444" lon="6.80826">
        <ele>2098.7</ele>
        <time>2013-08-26T07:44:05Z</time>
      </trkpt>
      <trkpt lat="46.00442" lon="6.80826">
        <ele>2098.7</ele>
        <time>2013-08-26T07:44:06Z</time>
      </trkpt>
      <trkpt lat="46.00425" lon="6.80834">
        <ele>2101.1</ele>
        <time>2013-08-26T07:44:17Z</time>
      </trkpt>
      <trkpt lat="46.00419" lon="6.80841">
        <ele>2102.1</ele>
        <time>2013-08-26T07:44:22Z</time>
      </trkpt>
      <trkpt lat="46.00418" lon="6.80842">
        <ele>2102.1</ele>
        <time>2013-08-26T07:44:23Z</time>
      </trkpt>
      <trkpt lat="46.00416" lon="6.80843">
        <ele>2102.1</ele>
        <time>2013-08-26T07:44:24Z</time>
      </trkpt>
      <trkpt lat="46.00415" lon="6.80845">
        <ele>2102.5</ele>
        <time>2013-08-26T07:44:25Z</time>
      </trkpt>
      <trkpt lat="46.00414" lon="6.80845">
        <ele>2102.5</ele>
        <time>2013-08-26T07:44:26Z</time>
      </trkpt>
      <trkpt lat="46.00409" lon="6.8085">
        <ele>2103.5</ele>
        <time>2013-08-26T07:44:30Z</time>
      </trkpt>
      <trkpt lat="46.00402" lon="6.80849">
        <ele>2104.5</ele>
        <time>2013-08-26T07:44:40Z</time>
      </trkpt>
      <trkpt lat="46.00399" lon="6.80847">
        <ele>2105.4</ele>
        <time>2013-08-26T07:45:04Z</time>
      </trkpt>
      <trkpt lat="46.00392" lon="6.8085">
        <ele>2104.5</ele>
        <time>2013-08-26T07:45:09Z</time>
      </trkpt>
      <trkpt lat="46.00376" lon="6.80848">
        <ele>2104.9</ele>
        <time>2013-08-26T07:45:19Z</time>
      </trkpt>
      <trkpt lat="46.00372" lon="6.80848">
        <ele>2104.9</ele>
        <time>2013-08-26T07:45:22Z</time>
      </trkpt>
      <trkpt lat="46.00371" lon="6.80846">
        <ele>2105.4</ele>
        <time>2013-08-26T07:45:23Z</time>
      </trkpt>
      <trkpt lat="46.00369" lon="6.80846">
        <ele>2105.4</ele>
        <time>2013-08-26T07:45:24Z</time>
      </trkpt>
      <trkpt lat="46.00354" lon="6.80849">
        <ele>2106.9</ele>
        <time>2013-08-26T07:45:38Z</time>
      </trkpt>
      <trkpt lat="46.00345" lon="6.80854">
        <ele>2108.3</ele>
        <time>2013-08-26T07:45:51Z</time>
      </trkpt>
      <trkpt lat="46.00333" lon="6.80855">
        <ele>2108.8</ele>
        <time>2013-08-26T07:46:05Z</time>
      </trkpt>
      <trkpt lat="46.00332" lon="6.80853">
        <ele>2108.8</ele>
        <time>2013-08-26T07:46:06Z</time>
      </trkpt>
      <trkpt lat="46.00325" lon="6.80845">
        <ele>2109.3</ele>
        <time>2013-08-26T07:46:21Z</time>
      </trkpt>
      <trkpt lat="46.00323" lon="6.80844">
        <ele>2109.8</ele>
        <time>2013-08-26T07:46:22Z</time>
      </trkpt>
      <trkpt lat="46.00302" lon="6.80834">
        <ele>2108.8</ele>
        <time>2013-08-26T07:46:33Z</time>
      </trkpt>
      <trkpt lat="46.003" lon="6.80832">
        <ele>2109.8</ele>
        <time>2013-08-26T07:46:34Z</time>
      </trkpt>
      <trkpt lat="46.00299" lon="6.8083">
        <ele>2109.3</ele>
        <time>2013-08-26T07:46:35Z</time>
      </trkpt>
      <trkpt lat="46.00302" lon="6.80801">
        <ele>2110.2</ele>
        <time>2013-08-26T07:46:47Z</time>
      </trkpt>
      <trkpt lat="46.00303" lon="6.8079">
        <ele>2111.7</ele>
        <time>2013-08-26T07:46:58Z</time>
      </trkpt>
      <trkpt lat="46.00304" lon="6.80785">
        <ele>2111.7</ele>
        <time>2013-08-26T07:47:02Z</time>
      </trkpt>
      <trkpt lat="46.00304" lon="6.80784">
        <ele>2112.2</ele>
        <time>2013-08-26T07:47:03Z</time>
      </trkpt>
      <trkpt lat="46.00303" lon="6.80775">
        <ele>2112.2</ele>
        <time>2013-08-26T07:47:11Z</time>
      </trkpt>
      <trkpt lat="46.00302" lon="6.80772">
        <ele>2113.1</ele>
        <time>2013-08-26T07:47:14Z</time>
      </trkpt>
      <trkpt lat="46.003" lon="6.80767">
        <ele>2113.6</ele>
        <time>2013-08-26T07:47:21Z</time>
      </trkpt>
      <trkpt lat="46.003" lon="6.80765">
        <ele>2113.1</ele>
        <time>2013-08-26T07:47:22Z</time>
      </trkpt>
      <trkpt lat="46.00304" lon="6.80734">
        <ele>2115</ele>
        <time>2013-08-26T07:47:35Z</time>
      </trkpt>
      <trkpt lat="46.00303" lon="6.80719">
        <ele>2116</ele>
        <time>2013-08-26T07:47:41Z</time>
      </trkpt>
      <trkpt lat="46.00304" lon="6.80712">
        <ele>2116.5</ele>
        <time>2013-08-26T07:47:44Z</time>
      </trkpt>
      <trkpt lat="46.00305" lon="6.8071">
        <ele>2117</ele>
        <time>2013-08-26T07:47:45Z</time>
      </trkpt>
      <trkpt lat="46.00306" lon="6.80708">
        <ele>2116.5</ele>
        <time>2013-08-26T07:47:46Z</time>
      </trkpt>
      <trkpt lat="46.00307" lon="6.80705">
        <ele>2117</ele>
        <time>2013-08-26T07:47:47Z</time>
      </trkpt>
      <trkpt lat="46.00307" lon="6.80703">
        <ele>2117</ele>
        <time>2013-08-26T07:47:48Z</time>
      </trkpt>
      <trkpt lat="46.00308" lon="6.807">
        <ele>2117.4</ele>
        <time>2013-08-26T07:47:49Z</time>
      </trkpt>
      <trkpt lat="46.00309" lon="6.80697">
        <ele>2117.9</ele>
        <time>2013-08-26T07:47:50Z</time>
      </trkpt>
      <trkpt lat="46.0031" lon="6.80695">
        <ele>2117.9</ele>
        <time>2013-08-26T07:47:51Z</time>
      </trkpt>
      <trkpt lat="46.00314" lon="6.80671">
        <ele>2121.8</ele>
        <time>2013-08-26T07:48:02Z</time>
      </trkpt>
      <trkpt lat="46.00313" lon="6.80659">
        <ele>2122.7</ele>
        <time>2013-08-26T07:48:10Z</time>
      </trkpt>
      <trkpt lat="46.00308" lon="6.80645">
        <ele>2126.1</ele>
        <time>2013-08-26T07:48:23Z</time>
      </trkpt>
      <trkpt lat="46.00305" lon="6.80652">
        <ele>2127.1</ele>
        <time>2013-08-26T07:48:36Z</time>
      </trkpt>
      <trkpt lat="46.003" lon="6.80664">
        <ele>2129.9</ele>
        <time>2013-08-26T07:48:51Z</time>
      </trkpt>
      <trkpt lat="46.00294" lon="6.80669">
        <ele>2131.9</ele>
        <time>2013-08-26T07:49:03Z</time>
      </trkpt>
      <trkpt lat="46.00289" lon="6.80678">
        <ele>2133.8</ele>
        <time>2013-08-26T07:49:21Z</time>
      </trkpt>
      <trkpt lat="46.00288" lon="6.80673">
        <ele>2135.2</ele>
        <time>2013-08-26T07:49:28Z</time>
      </trkpt>
      <trkpt lat="46.00285" lon="6.80664">
        <ele>2136.2</ele>
        <time>2013-08-26T07:49:42Z</time>
      </trkpt>
      <trkpt lat="46.00285" lon="6.80657">
        <ele>2137.2</ele>
        <time>2013-08-26T07:50:05Z</time>
      </trkpt>
      <trkpt lat="46.00282" lon="6.80652">
        <ele>2139.1</ele>
        <time>2013-08-26T07:50:13Z</time>
      </trkpt>
      <trkpt lat="46.00269" lon="6.80656">
        <ele>2141.5</ele>
        <time>2013-08-26T07:50:28Z</time>
      </trkpt>
      <trkpt lat="46.00266" lon="6.80656">
        <ele>2141.5</ele>
        <time>2013-08-26T07:50:31Z</time>
      </trkpt>
      <trkpt lat="46.00265" lon="6.80656">
        <ele>2141.5</ele>
        <time>2013-08-26T07:50:32Z</time>
      </trkpt>
      <trkpt lat="46.00257" lon="6.80653">
        <ele>2142.4</ele>
        <time>2013-08-26T07:50:44Z</time>
      </trkpt>
      <trkpt lat="46.00244" lon="6.8063">
        <ele>2142</ele>
        <time>2013-08-26T07:50:56Z</time>
      </trkpt>
      <trkpt lat="46.00241" lon="6.80617">
        <ele>2141</ele>
        <time>2013-08-26T07:51:06Z</time>
      </trkpt>
      <trkpt lat="46.00236" lon="6.80606">
        <ele>2142.9</ele>
        <time>2013-08-26T07:51:18Z</time>
      </trkpt>
      <trkpt lat="46.00226" lon="6.80598">
        <ele>2144.4</ele>
        <time>2013-08-26T07:51:34Z</time>
      </trkpt>
      <trkpt lat="46.00211" lon="6.80588">
        <ele>2146.3</ele>
        <time>2013-08-26T07:51:46Z</time>
      </trkpt>
      <trkpt lat="46.00186" lon="6.80585">
        <ele>2145.8</ele>
        <time>2013-08-26T07:52:00Z</time>
      </trkpt>
      <trkpt lat="46.00178" lon="6.80585">
        <ele>2145.8</ele>
        <time>2013-08-26T07:52:03Z</time>
      </trkpt>
      <trkpt lat="46.00161" lon="6.8055">
        <ele>2145.8</ele>
        <time>2013-08-26T07:52:16Z</time>
      </trkpt>
      <trkpt lat="46.00134" lon="6.80515">
        <ele>2146.8</ele>
        <time>2013-08-26T07:52:30Z</time>
      </trkpt>
      <trkpt lat="46.00101" lon="6.80484">
        <ele>2146.8</ele>
        <time>2013-08-26T07:52:44Z</time>
      </trkpt>
      <trkpt lat="46.00075" lon="6.80464">
        <ele>2149.2</ele>
        <time>2013-08-26T07:52:58Z</time>
      </trkpt>
      <trkpt lat="46.00071" lon="6.80458">
        <ele>2147.7</ele>
        <time>2013-08-26T07:53:01Z</time>
      </trkpt>
      <trkpt lat="46.00066" lon="6.80448">
        <ele>2148.2</ele>
        <time>2013-08-26T07:53:05Z</time>
      </trkpt>
      <trkpt lat="46.00051" lon="6.80433">
        <ele>2151.6</ele>
        <time>2013-08-26T07:53:19Z</time>
      </trkpt>
      <trkpt lat="46.00044" lon="6.80432">
        <ele>2152.1</ele>
        <time>2013-08-26T07:53:33Z</time>
      </trkpt>
      <trkpt lat="46.00035" lon="6.80433">
        <ele>2152.5</ele>
        <time>2013-08-26T07:53:45Z</time>
      </trkpt>
      <trkpt lat="46.00018" lon="6.80431">
        <ele>2154.9</ele>
        <time>2013-08-26T07:53:56Z</time>
      </trkpt>
      <trkpt lat="46.00006" lon="6.80406">
        <ele>2156.9</ele>
        <time>2013-08-26T07:54:09Z</time>
      </trkpt>
      <trkpt lat="46.00004" lon="6.80395">
        <ele>2157.3</ele>
        <time>2013-08-26T07:54:14Z</time>
      </trkpt>
      <trkpt lat="46.00001" lon="6.80386">
        <ele>2158.3</ele>
        <time>2013-08-26T07:54:18Z</time>
      </trkpt>
      <trkpt lat="45.99985" lon="6.80343">
        <ele>2159.3</ele>
        <time>2013-08-26T07:54:34Z</time>
      </trkpt>
      <trkpt lat="45.99957" lon="6.80293">
        <ele>2156.4</ele>
        <time>2013-08-26T07:54:48Z</time>
      </trkpt>
      <trkpt lat="45.99952" lon="6.80294">
        <ele>2156.4</ele>
        <time>2013-08-26T07:54:56Z</time>
      </trkpt>
      <trkpt lat="45.99939" lon="6.80295">
        <ele>2155.9</ele>
        <time>2013-08-26T07:55:21Z</time>
      </trkpt>
      <trkpt lat="45.99921" lon="6.80268">
        <ele>2155.4</ele>
        <time>2013-08-26T07:55:29Z</time>
      </trkpt>
      <trkpt lat="45.99914" lon="6.80262">
        <ele>2155.4</ele>
        <time>2013-08-26T07:55:31Z</time>
      </trkpt>
      <trkpt lat="45.99904" lon="6.80248">
        <ele>2154</ele>
        <time>2013-08-26T07:55:34Z</time>
      </trkpt>
      <trkpt lat="45.99901" lon="6.80243">
        <ele>2154</ele>
        <time>2013-08-26T07:55:35Z</time>
      </trkpt>
      <trkpt lat="45.99894" lon="6.8023">
        <ele>2153</ele>
        <time>2013-08-26T07:55:42Z</time>
      </trkpt>
      <trkpt lat="45.99893" lon="6.80228">
        <ele>2153</ele>
        <time>2013-08-26T07:55:43Z</time>
      </trkpt>
      <trkpt lat="45.99892" lon="6.80225">
        <ele>2153</ele>
        <time>2013-08-26T07:55:44Z</time>
      </trkpt>
      <trkpt lat="45.99871" lon="6.8019">
        <ele>2152.5</ele>
        <time>2013-08-26T07:55:54Z</time>
      </trkpt>
      <trkpt lat="45.99851" lon="6.80142">
        <ele>2152.5</ele>
        <time>2013-08-26T07:56:05Z</time>
      </trkpt>
      <trkpt lat="45.99839" lon="6.80115">
        <ele>2154</ele>
        <time>2013-08-26T07:56:14Z</time>
      </trkpt>
      <trkpt lat="45.99832" lon="6.80111">
        <ele>2153.5</ele>
        <time>2013-08-26T07:56:24Z</time>
      </trkpt>
      <trkpt lat="45.99823" lon="6.80112">
        <ele>2153</ele>
        <time>2013-08-26T07:56:54Z</time>
      </trkpt>
      <trkpt lat="45.99812" lon="6.80111">
        <ele>2152.1</ele>
        <time>2013-08-26T07:56:57Z</time>
      </trkpt>
      <trkpt lat="45.99808" lon="6.80109">
        <ele>2152.5</ele>
        <time>2013-08-26T07:56:58Z</time>
      </trkpt>
      <trkpt lat="45.99804" lon="6.80106">
        <ele>2152.5</ele>
        <time>2013-08-26T07:56:59Z</time>
      </trkpt>
      <trkpt lat="45.99786" lon="6.80087">
        <ele>2150.6</ele>
        <time>2013-08-26T07:57:05Z</time>
      </trkpt>
      <trkpt lat="45.99779" lon="6.80079">
        <ele>2149.7</ele>
        <time>2013-08-26T07:57:07Z</time>
      </trkpt>
      <trkpt lat="45.9976" lon="6.80059">
        <ele>2146.3</ele>
        <time>2013-08-26T07:57:16Z</time>
      </trkpt>
      <trkpt lat="45.99758" lon="6.80057">
        <ele>2146.3</ele>
        <time>2013-08-26T07:57:29Z</time>
      </trkpt>
      <trkpt lat="45.99746" lon="6.80042">
        <ele>2143.4</ele>
        <time>2013-08-26T07:57:39Z</time>
      </trkpt>
      <trkpt lat="45.99739" lon="6.80029">
        <ele>2141</ele>
        <time>2013-08-26T07:57:43Z</time>
      </trkpt>
      <trkpt lat="45.99734" lon="6.80016">
        <ele>2138.1</ele>
        <time>2013-08-26T07:57:46Z</time>
      </trkpt>
      <trkpt lat="45.99734" lon="6.80007">
        <ele>2137.2</ele>
        <time>2013-08-26T07:57:55Z</time>
      </trkpt>
      <trkpt lat="45.99737" lon="6.80009">
        <ele>2136.7</ele>
        <time>2013-08-26T07:58:30Z</time>
      </trkpt>
      <trkpt lat="45.99733" lon="6.80003">
        <ele>2135.7</ele>
        <time>2013-08-26T07:58:41Z</time>
      </trkpt>
      <trkpt lat="45.99732" lon="6.80001">
        <ele>2136.7</ele>
        <time>2013-08-26T07:58:42Z</time>
      </trkpt>
      <trkpt lat="45.99731" lon="6.79998">
        <ele>2134.7</ele>
        <time>2013-08-26T07:58:43Z</time>
      </trkpt>
      <trkpt lat="45.99727" lon="6.79974">
        <ele>2133.3</ele>
        <time>2013-08-26T07:58:48Z</time>
      </trkpt>
      <trkpt lat="45.99727" lon="6.79966">
        <ele>2132.3</ele>
        <time>2013-08-26T07:58:58Z</time>
      </trkpt>
      <trkpt lat="45.99724" lon="6.79961">
        <ele>2130.9</ele>
        <time>2013-08-26T07:59:18Z</time>
      </trkpt>
      <trkpt lat="45.99723" lon="6.79959">
        <ele>2130.4</ele>
        <time>2013-08-26T07:59:19Z</time>
      </trkpt>
      <trkpt lat="45.99722" lon="6.79956">
        <ele>2129.9</ele>
        <time>2013-08-26T07:59:20Z</time>
      </trkpt>
      <trkpt lat="45.99721" lon="6.79953">
        <ele>2129</ele>
        <time>2013-08-26T07:59:21Z</time>
      </trkpt>
      <trkpt lat="45.9972" lon="6.79949">
        <ele>2128.5</ele>
        <time>2013-08-26T07:59:22Z</time>
      </trkpt>
      <trkpt lat="45.9972" lon="6.79943">
        <ele>2128.5</ele>
        <time>2013-08-26T07:59:23Z</time>
      </trkpt>
      <trkpt lat="45.9972" lon="6.79937">
        <ele>2127.1</ele>
        <time>2013-08-26T07:59:24Z</time>
      </trkpt>
      <trkpt lat="45.9972" lon="6.79933">
        <ele>2127.1</ele>
        <time>2013-08-26T07:59:25Z</time>
      </trkpt>
      <trkpt lat="45.99719" lon="6.79927">
        <ele>2126.6</ele>
        <time>2013-08-26T07:59:37Z</time>
      </trkpt>
      <trkpt lat="45.99718" lon="6.79929">
        <ele>2126.1</ele>
        <time>2013-08-26T07:59:39Z</time>
      </trkpt>
      <trkpt lat="45.99717" lon="6.79934">
        <ele>2125.6</ele>
        <time>2013-08-26T07:59:40Z</time>
      </trkpt>
      <trkpt lat="45.99715" lon="6.79939">
        <ele>2124.2</ele>
        <time>2013-08-26T07:59:41Z</time>
      </trkpt>
      <trkpt lat="45.99714" lon="6.79946">
        <ele>2123.7</ele>
        <time>2013-08-26T07:59:42Z</time>
      </trkpt>
      <trkpt lat="45.99707" lon="6.79967">
        <ele>2120.3</ele>
        <time>2013-08-26T07:59:47Z</time>
      </trkpt>
      <trkpt lat="45.99703" lon="6.79978">
        <ele>2118.4</ele>
        <time>2013-08-26T07:59:51Z</time>
      </trkpt>
      <trkpt lat="45.99699" lon="6.79987">
        <ele>2116</ele>
        <time>2013-08-26T07:59:54Z</time>
      </trkpt>
      <trkpt lat="45.99698" lon="6.79988">
        <ele>2116</ele>
        <time>2013-08-26T07:59:55Z</time>
      </trkpt>
      <trkpt lat="45.99696" lon="6.79988">
        <ele>2115.5</ele>
        <time>2013-08-26T07:59:56Z</time>
      </trkpt>
      <trkpt lat="45.99695" lon="6.79986">
        <ele>2114.6</ele>
        <time>2013-08-26T07:59:57Z</time>
      </trkpt>
      <trkpt lat="45.99694" lon="6.79983">
        <ele>2114.1</ele>
        <time>2013-08-26T07:59:58Z</time>
      </trkpt>
      <trkpt lat="45.99693" lon="6.79979">
        <ele>2114.1</ele>
        <time>2013-08-26T07:59:59Z</time>
      </trkpt>
      <trkpt lat="45.99693" lon="6.79973">
        <ele>2114.1</ele>
        <time>2013-08-26T08:00:00Z</time>
      </trkpt>
      <trkpt lat="45.99692" lon="6.79964">
        <ele>2112.6</ele>
        <time>2013-08-26T08:00:02Z</time>
      </trkpt>
      <trkpt lat="45.99689" lon="6.79938">
        <ele>2109.3</ele>
        <time>2013-08-26T08:00:08Z</time>
      </trkpt>
      <trkpt lat="45.99688" lon="6.79908">
        <ele>2105.9</ele>
        <time>2013-08-26T08:00:15Z</time>
      </trkpt>
      <trkpt lat="45.99684" lon="6.79895">
        <ele>2104</ele>
        <time>2013-08-26T08:00:19Z</time>
      </trkpt>
      <trkpt lat="45.99683" lon="6.79886">
        <ele>2103</ele>
        <time>2013-08-26T08:00:22Z</time>
      </trkpt>
      <trkpt lat="45.99682" lon="6.79882">
        <ele>2101.6</ele>
        <time>2013-08-26T08:00:31Z</time>
      </trkpt>
      <trkpt lat="45.99681" lon="6.79879">
        <ele>2101.6</ele>
        <time>2013-08-26T08:00:32Z</time>
      </trkpt>
      <trkpt lat="45.9968" lon="6.79877">
        <ele>2101.6</ele>
        <time>2013-08-26T08:00:33Z</time>
      </trkpt>
      <trkpt lat="45.99679" lon="6.79874">
        <ele>2101.1</ele>
        <time>2013-08-26T08:00:34Z</time>
      </trkpt>
      <trkpt lat="45.99678" lon="6.79871">
        <ele>2100.6</ele>
        <time>2013-08-26T08:00:35Z</time>
      </trkpt>
      <trkpt lat="45.99676" lon="6.79866">
        <ele>2100.6</ele>
        <time>2013-08-26T08:00:36Z</time>
      </trkpt>
      <trkpt lat="45.99675" lon="6.79862">
        <ele>2099.7</ele>
        <time>2013-08-26T08:00:37Z</time>
      </trkpt>
      <trkpt lat="45.99674" lon="6.79857">
        <ele>2098.7</ele>
        <time>2013-08-26T08:00:39Z</time>
      </trkpt>
      <trkpt lat="45.99674" lon="6.79856">
        <ele>2098.7</ele>
        <time>2013-08-26T08:00:55Z</time>
      </trkpt>
      <trkpt lat="45.99672" lon="6.79854">
        <ele>2098.7</ele>
        <time>2013-08-26T08:01:02Z</time>
      </trkpt>
      <trkpt lat="45.9967" lon="6.79853">
        <ele>2100.1</ele>
        <time>2013-08-26T08:01:03Z</time>
      </trkpt>
      <trkpt lat="45.99667" lon="6.79853">
        <ele>2100.1</ele>
        <time>2013-08-26T08:01:04Z</time>
      </trkpt>
      <trkpt lat="45.99664" lon="6.79852">
        <ele>2098.7</ele>
        <time>2013-08-26T08:01:05Z</time>
      </trkpt>
      <trkpt lat="45.99661" lon="6.7985">
        <ele>2098.2</ele>
        <time>2013-08-26T08:01:06Z</time>
      </trkpt>
      <trkpt lat="45.99637" lon="6.79853">
        <ele>2095.3</ele>
        <time>2013-08-26T08:01:13Z</time>
      </trkpt>
      <trkpt lat="45.99634" lon="6.79856">
        <ele>2095.3</ele>
        <time>2013-08-26T08:01:14Z</time>
      </trkpt>
      <trkpt lat="45.99622" lon="6.79864">
        <ele>2093.4</ele>
        <time>2013-08-26T08:01:18Z</time>
      </trkpt>
      <trkpt lat="45.99615" lon="6.79867">
        <ele>2091</ele>
        <time>2013-08-26T08:01:20Z</time>
      </trkpt>
      <trkpt lat="45.99611" lon="6.79868">
        <ele>2091</ele>
        <time>2013-08-26T08:01:21Z</time>
      </trkpt>
      <trkpt lat="45.99603" lon="6.79869">
        <ele>2089.6</ele>
        <time>2013-08-26T08:01:23Z</time>
      </trkpt>
      <trkpt lat="45.99587" lon="6.79876">
        <ele>2086.7</ele>
        <time>2013-08-26T08:01:27Z</time>
      </trkpt>
      <trkpt lat="45.99583" lon="6.79876">
        <ele>2085.2</ele>
        <time>2013-08-26T08:01:28Z</time>
      </trkpt>
      <trkpt lat="45.99579" lon="6.79877">
        <ele>2085.2</ele>
        <time>2013-08-26T08:01:29Z</time>
      </trkpt>
      <trkpt lat="45.99576" lon="6.79878">
        <ele>2085.7</ele>
        <time>2013-08-26T08:01:30Z</time>
      </trkpt>
      <trkpt lat="45.99572" lon="6.79879">
        <ele>2085.2</ele>
        <time>2013-08-26T08:01:31Z</time>
      </trkpt>
      <trkpt lat="45.99569" lon="6.79881">
        <ele>2083.8</ele>
        <time>2013-08-26T08:01:32Z</time>
      </trkpt>
      <trkpt lat="45.99565" lon="6.79883">
        <ele>2083.3</ele>
        <time>2013-08-26T08:01:33Z</time>
      </trkpt>
      <trkpt lat="45.99561" lon="6.79884">
        <ele>2082.8</ele>
        <time>2013-08-26T08:01:34Z</time>
      </trkpt>
      <trkpt lat="45.99556" lon="6.79886">
        <ele>2082.8</ele>
        <time>2013-08-26T08:01:35Z</time>
      </trkpt>
      <trkpt lat="45.99552" lon="6.79888">
        <ele>2081.9</ele>
        <time>2013-08-26T08:01:36Z</time>
      </trkpt>
      <trkpt lat="45.99547" lon="6.79892">
        <ele>2081.4</ele>
        <time>2013-08-26T08:01:37Z</time>
      </trkpt>
      <trkpt lat="45.99541" lon="6.79893">
        <ele>2080.4</ele>
        <time>2013-08-26T08:01:38Z</time>
      </trkpt>
      <trkpt lat="45.99536" lon="6.79894">
        <ele>2080.9</ele>
        <time>2013-08-26T08:01:39Z</time>
      </trkpt>
      <trkpt lat="45.99532" lon="6.79894">
        <ele>2080.9</ele>
        <time>2013-08-26T08:01:40Z</time>
      </trkpt>
      <trkpt lat="45.99529" lon="6.79894">
        <ele>2080.9</ele>
        <time>2013-08-26T08:01:41Z</time>
      </trkpt>
      <trkpt lat="45.99526" lon="6.79895">
        <ele>2080</ele>
        <time>2013-08-26T08:01:42Z</time>
      </trkpt>
      <trkpt lat="45.99523" lon="6.79896">
        <ele>2079.5</ele>
        <time>2013-08-26T08:01:43Z</time>
      </trkpt>
      <trkpt lat="45.9952" lon="6.79896">
        <ele>2079</ele>
        <time>2013-08-26T08:01:44Z</time>
      </trkpt>
      <trkpt lat="45.99513" lon="6.79897">
        <ele>2079</ele>
        <time>2013-08-26T08:01:53Z</time>
      </trkpt>
      <trkpt lat="45.9951" lon="6.79897">
        <ele>2078</ele>
        <time>2013-08-26T08:01:54Z</time>
      </trkpt>
      <trkpt lat="45.99506" lon="6.79897">
        <ele>2078</ele>
        <time>2013-08-26T08:01:55Z</time>
      </trkpt>
      <trkpt lat="45.99494" lon="6.799">
        <ele>2075.6</ele>
        <time>2013-08-26T08:01:59Z</time>
      </trkpt>
      <trkpt lat="45.99491" lon="6.799">
        <ele>2075.6</ele>
        <time>2013-08-26T08:02:00Z</time>
      </trkpt>
      <trkpt lat="45.99477" lon="6.79902">
        <ele>2072.7</ele>
        <time>2013-08-26T08:02:03Z</time>
      </trkpt>
      <trkpt lat="45.99473" lon="6.79902">
        <ele>2073.2</ele>
        <time>2013-08-26T08:02:04Z</time>
      </trkpt>
      <trkpt lat="45.99469" lon="6.79902">
        <ele>2073.2</ele>
        <time>2013-08-26T08:02:05Z</time>
      </trkpt>
      <trkpt lat="45.99465" lon="6.79902">
        <ele>2072.7</ele>
        <time>2013-08-26T08:02:06Z</time>
      </trkpt>
      <trkpt lat="45.99461" lon="6.79903">
        <ele>2071.8</ele>
        <time>2013-08-26T08:02:07Z</time>
      </trkpt>
      <trkpt lat="45.99457" lon="6.79904">
        <ele>2071.8</ele>
        <time>2013-08-26T08:02:08Z</time>
      </trkpt>
      <trkpt lat="45.99437" lon="6.79917">
        <ele>2070.3</ele>
        <time>2013-08-26T08:02:16Z</time>
      </trkpt>
      <trkpt lat="45.9942" lon="6.79938">
        <ele>2070.3</ele>
        <time>2013-08-26T08:02:25Z</time>
      </trkpt>
      <trkpt lat="45.99418" lon="6.79941">
        <ele>2069.9</ele>
        <time>2013-08-26T08:02:26Z</time>
      </trkpt>
      <trkpt lat="45.9941" lon="6.79968">
        <ele>2069.9</ele>
        <time>2013-08-26T08:02:36Z</time>
      </trkpt>
      <trkpt lat="45.99388" lon="6.79997">
        <ele>2070.3</ele>
        <time>2013-08-26T08:02:46Z</time>
      </trkpt>
      <trkpt lat="45.99385" lon="6.80001">
        <ele>2070.3</ele>
        <time>2013-08-26T08:02:47Z</time>
      </trkpt>
      <trkpt lat="45.99383" lon="6.80005">
        <ele>2070.3</ele>
        <time>2013-08-26T08:02:48Z</time>
      </trkpt>
      <trkpt lat="45.99377" lon="6.80014">
        <ele>2069.9</ele>
        <time>2013-08-26T08:02:50Z</time>
      </trkpt>
      <trkpt lat="45.99371" lon="6.80024">
        <ele>2068.4</ele>
        <time>2013-08-26T08:02:52Z</time>
      </trkpt>
      <trkpt lat="45.99353" lon="6.80037">
        <ele>2067.5</ele>
        <time>2013-08-26T08:02:58Z</time>
      </trkpt>
      <trkpt lat="45.99351" lon="6.80042">
        <ele>2067.9</ele>
        <time>2013-08-26T08:02:59Z</time>
      </trkpt>
      <trkpt lat="45.99351" lon="6.80049">
        <ele>2068.4</ele>
        <time>2013-08-26T08:03:02Z</time>
      </trkpt>
      <trkpt lat="45.99349" lon="6.80049">
        <ele>2069.9</ele>
        <time>2013-08-26T08:03:04Z</time>
      </trkpt>
      <trkpt lat="45.99347" lon="6.80046">
        <ele>2069.4</ele>
        <time>2013-08-26T08:03:08Z</time>
      </trkpt>
      <trkpt lat="45.99337" lon="6.80046">
        <ele>2068.4</ele>
        <time>2013-08-26T08:03:18Z</time>
      </trkpt>
      <trkpt lat="45.99336" lon="6.80051">
        <ele>2069.4</ele>
        <time>2013-08-26T08:03:23Z</time>
      </trkpt>
      <trkpt lat="45.9933" lon="6.80051">
        <ele>2068.4</ele>
        <time>2013-08-26T08:03:30Z</time>
      </trkpt>
      <trkpt lat="45.99313" lon="6.80055">
        <ele>2067.5</ele>
        <time>2013-08-26T08:03:38Z</time>
      </trkpt>
      <trkpt lat="45.99284" lon="6.80064">
        <ele>2069.4</ele>
        <time>2013-08-26T08:03:49Z</time>
      </trkpt>
      <trkpt lat="45.99257" lon="6.80068">
        <ele>2067.5</ele>
        <time>2013-08-26T08:04:00Z</time>
      </trkpt>
      <trkpt lat="45.99245" lon="6.80068">
        <ele>2068.9</ele>
        <time>2013-08-26T08:04:05Z</time>
      </trkpt>
      <trkpt lat="45.99216" lon="6.80077">
        <ele>2068.4</ele>
        <time>2013-08-26T08:04:18Z</time>
      </trkpt>
      <trkpt lat="45.99215" lon="6.80077">
        <ele>2069.4</ele>
        <time>2013-08-26T08:04:48Z</time>
      </trkpt>
      <trkpt lat="45.99183" lon="6.80085">
        <ele>2067.9</ele>
        <time>2013-08-26T08:05:00Z</time>
      </trkpt>
      <trkpt lat="45.99163" lon="6.80089">
        <ele>2067.9</ele>
        <time>2013-08-26T08:05:06Z</time>
      </trkpt>
      <trkpt lat="45.99138" lon="6.80097">
        <ele>2068.4</ele>
        <time>2013-08-26T08:05:14Z</time>
      </trkpt>
      <trkpt lat="45.99136" lon="6.80098">
        <ele>2068.9</ele>
        <time>2013-08-26T08:05:15Z</time>
      </trkpt>
      <trkpt lat="45.99088" lon="6.80115">
        <ele>2067</ele>
        <time>2013-08-26T08:05:29Z</time>
      </trkpt>
      <trkpt lat="45.99058" lon="6.80127">
        <ele>2068.9</ele>
        <time>2013-08-26T08:05:40Z</time>
      </trkpt>
      <trkpt lat="45.9903" lon="6.80134">
        <ele>2067.5</ele>
        <time>2013-08-26T08:05:50Z</time>
      </trkpt>
      <trkpt lat="45.99008" lon="6.80134">
        <ele>2068.4</ele>
        <time>2013-08-26T08:06:01Z</time>
      </trkpt>
      <trkpt lat="45.98983" lon="6.80127">
        <ele>2067</ele>
        <time>2013-08-26T08:06:10Z</time>
      </trkpt>
      <trkpt lat="45.98952" lon="6.80096">
        <ele>2067.9</ele>
        <time>2013-08-26T08:06:21Z</time>
      </trkpt>
      <trkpt lat="45.9894" lon="6.80086">
        <ele>2068.9</ele>
        <time>2013-08-26T08:06:27Z</time>
      </trkpt>
      <trkpt lat="45.9892" lon="6.80073">
        <ele>2069.9</ele>
        <time>2013-08-26T08:06:38Z</time>
      </trkpt>
      <trkpt lat="45.989" lon="6.80053">
        <ele>2071.3</ele>
        <time>2013-08-26T08:06:51Z</time>
      </trkpt>
      <trkpt lat="45.98898" lon="6.80052">
        <ele>2070.8</ele>
        <time>2013-08-26T08:06:52Z</time>
      </trkpt>
      <trkpt lat="45.98892" lon="6.8005">
        <ele>2071.8</ele>
        <time>2013-08-26T08:06:56Z</time>
      </trkpt>
      <trkpt lat="45.98875" lon="6.80039">
        <ele>2073.2</ele>
        <time>2013-08-26T08:07:09Z</time>
      </trkpt>
      <trkpt lat="45.98875" lon="6.80041">
        <ele>2073.2</ele>
        <time>2013-08-26T08:07:25Z</time>
      </trkpt>
      <trkpt lat="45.98874" lon="6.80039">
        <ele>2073.2</ele>
        <time>2013-08-26T08:07:36Z</time>
      </trkpt>
      <trkpt lat="45.98873" lon="6.80037">
        <ele>2072.7</ele>
        <time>2013-08-26T08:07:38Z</time>
      </trkpt>
      <trkpt lat="45.98871" lon="6.80035">
        <ele>2074.2</ele>
        <time>2013-08-26T08:07:50Z</time>
      </trkpt>
      <trkpt lat="45.98871" lon="6.80032">
        <ele>2074.7</ele>
        <time>2013-08-26T08:07:54Z</time>
      </trkpt>
      <trkpt lat="45.98866" lon="6.80026">
        <ele>2075.1</ele>
        <time>2013-08-26T08:08:07Z</time>
      </trkpt>
      <trkpt lat="45.98864" lon="6.80024">
        <ele>2076.1</ele>
        <time>2013-08-26T08:08:17Z</time>
      </trkpt>
      <trkpt lat="45.98852" lon="6.80026">
        <ele>2078.5</ele>
        <time>2013-08-26T08:08:32Z</time>
      </trkpt>
      <trkpt lat="45.98842" lon="6.80025">
        <ele>2080.4</ele>
        <time>2013-08-26T08:08:45Z</time>
      </trkpt>
      <trkpt lat="45.98836" lon="6.80015">
        <ele>2079.5</ele>
        <time>2013-08-26T08:08:55Z</time>
      </trkpt>
      <trkpt lat="45.98831" lon="6.80007">
        <ele>2079</ele>
        <time>2013-08-26T08:09:02Z</time>
      </trkpt>
      <trkpt lat="45.98821" lon="6.79997">
        <ele>2079.5</ele>
        <time>2013-08-26T08:09:14Z</time>
      </trkpt>
      <trkpt lat="45.98812" lon="6.79992">
        <ele>2081.4</ele>
        <time>2013-08-26T08:09:25Z</time>
      </trkpt>
      <trkpt lat="45.988" lon="6.79986">
        <ele>2082.8</ele>
        <time>2013-08-26T08:09:39Z</time>
      </trkpt>
      <trkpt lat="45.98799" lon="6.79975">
        <ele>2082.4</ele>
        <time>2013-08-26T08:09:52Z</time>
      </trkpt>
      <trkpt lat="45.98799" lon="6.79965">
        <ele>2083.3</ele>
        <time>2013-08-26T08:10:01Z</time>
      </trkpt>
      <trkpt lat="45.98803" lon="6.79948">
        <ele>2085.2</ele>
        <time>2013-08-26T08:10:16Z</time>
      </trkpt>
      <trkpt lat="45.98803" lon="6.79934">
        <ele>2087.2</ele>
        <time>2013-08-26T08:10:30Z</time>
      </trkpt>
      <trkpt lat="45.98803" lon="6.79917">
        <ele>2089.1</ele>
        <time>2013-08-26T08:10:45Z</time>
      </trkpt>
      <trkpt lat="45.98798" lon="6.79924">
        <ele>2091</ele>
        <time>2013-08-26T08:10:59Z</time>
      </trkpt>
      <trkpt lat="45.98797" lon="6.7993">
        <ele>2093.4</ele>
        <time>2013-08-26T08:11:05Z</time>
      </trkpt>
      <trkpt lat="45.98794" lon="6.79931">
        <ele>2094.4</ele>
        <time>2013-08-26T08:11:13Z</time>
      </trkpt>
      <trkpt lat="45.9879" lon="6.79934">
        <ele>2095.8</ele>
        <time>2013-08-26T08:11:21Z</time>
      </trkpt>
      <trkpt lat="45.98788" lon="6.79943">
        <ele>2096.8</ele>
        <time>2013-08-26T08:11:37Z</time>
      </trkpt>
      <trkpt lat="45.98785" lon="6.79946">
        <ele>2099.2</ele>
        <time>2013-08-26T08:11:51Z</time>
      </trkpt>
      <trkpt lat="45.98785" lon="6.79948">
        <ele>2099.7</ele>
        <time>2013-08-26T08:12:04Z</time>
      </trkpt>
      <trkpt lat="45.98783" lon="6.7995">
        <ele>2100.6</ele>
        <time>2013-08-26T08:12:12Z</time>
      </trkpt>
      <trkpt lat="45.98778" lon="6.79955">
        <ele>2103</ele>
        <time>2013-08-26T08:12:24Z</time>
      </trkpt>
      <trkpt lat="45.98769" lon="6.79961">
        <ele>2104.9</ele>
        <time>2013-08-26T08:12:39Z</time>
      </trkpt>
      <trkpt lat="45.98766" lon="6.79963">
        <ele>2104.5</ele>
        <time>2013-08-26T08:12:42Z</time>
      </trkpt>
      <trkpt lat="45.9876" lon="6.79966">
        <ele>2106.9</ele>
        <time>2013-08-26T08:12:56Z</time>
      </trkpt>
      <trkpt lat="45.98758" lon="6.79968">
        <ele>2108.3</ele>
        <time>2013-08-26T08:12:59Z</time>
      </trkpt>
      <trkpt lat="45.98752" lon="6.79968">
        <ele>2109.8</ele>
        <time>2013-08-26T08:13:11Z</time>
      </trkpt>
      <trkpt lat="45.98749" lon="6.7997">
        <ele>2110.7</ele>
        <time>2013-08-26T08:13:15Z</time>
      </trkpt>
      <trkpt lat="45.98745" lon="6.79969">
        <ele>2111.7</ele>
        <time>2013-08-26T08:13:26Z</time>
      </trkpt>
      <trkpt lat="45.98738" lon="6.79969">
        <ele>2114.6</ele>
        <time>2013-08-26T08:13:38Z</time>
      </trkpt>
      <trkpt lat="45.98737" lon="6.79969">
        <ele>2114.6</ele>
        <time>2013-08-26T08:13:39Z</time>
      </trkpt>
      <trkpt lat="45.98735" lon="6.79971">
        <ele>2115</ele>
        <time>2013-08-26T08:13:42Z</time>
      </trkpt>
      <trkpt lat="45.98725" lon="6.79973">
        <ele>2117</ele>
        <time>2013-08-26T08:13:55Z</time>
      </trkpt>
      <trkpt lat="45.98719" lon="6.79974">
        <ele>2118.4</ele>
        <time>2013-08-26T08:14:04Z</time>
      </trkpt>
      <trkpt lat="45.98707" lon="6.79975">
        <ele>2120.3</ele>
        <time>2013-08-26T08:14:19Z</time>
      </trkpt>
      <trkpt lat="45.98701" lon="6.79976">
        <ele>2121.8</ele>
        <time>2013-08-26T08:14:30Z</time>
      </trkpt>
      <trkpt lat="45.98696" lon="6.79977">
        <ele>2123.7</ele>
        <time>2013-08-26T08:14:40Z</time>
      </trkpt>
      <trkpt lat="45.98693" lon="6.79977">
        <ele>2125.1</ele>
        <time>2013-08-26T08:14:44Z</time>
      </trkpt>
      <trkpt lat="45.98684" lon="6.79977">
        <ele>2126.6</ele>
        <time>2013-08-26T08:14:58Z</time>
      </trkpt>
      <trkpt lat="45.98677" lon="6.79977">
        <ele>2129.5</ele>
        <time>2013-08-26T08:15:13Z</time>
      </trkpt>
      <trkpt lat="45.98673" lon="6.79974">
        <ele>2130.4</ele>
        <time>2013-08-26T08:15:25Z</time>
      </trkpt>
      <trkpt lat="45.98665" lon="6.79979">
        <ele>2133.3</ele>
        <time>2013-08-26T08:15:41Z</time>
      </trkpt>
      <trkpt lat="45.98662" lon="6.79979">
        <ele>2133.8</ele>
        <time>2013-08-26T08:15:46Z</time>
      </trkpt>
      <trkpt lat="45.98656" lon="6.79983">
        <ele>2135.7</ele>
        <time>2013-08-26T08:15:59Z</time>
      </trkpt>
      <trkpt lat="45.98648" lon="6.79984">
        <ele>2137.6</ele>
        <time>2013-08-26T08:16:10Z</time>
      </trkpt>
      <trkpt lat="45.98641" lon="6.79984">
        <ele>2138.6</ele>
        <time>2013-08-26T08:16:18Z</time>
      </trkpt>
      <trkpt lat="45.9863" lon="6.79981">
        <ele>2140</ele>
        <time>2013-08-26T08:16:33Z</time>
      </trkpt>
      <trkpt lat="45.98626" lon="6.79981">
        <ele>2141</ele>
        <time>2013-08-26T08:16:39Z</time>
      </trkpt>
      <trkpt lat="45.98616" lon="6.79976">
        <ele>2142.9</ele>
        <time>2013-08-26T08:16:52Z</time>
      </trkpt>
      <trkpt lat="45.98609" lon="6.79967">
        <ele>2144.8</ele>
        <time>2013-08-26T08:17:05Z</time>
      </trkpt>
      <trkpt lat="45.98607" lon="6.79959">
        <ele>2145.3</ele>
        <time>2013-08-26T08:17:12Z</time>
      </trkpt>
      <trkpt lat="45.98606" lon="6.79953">
        <ele>2146.3</ele>
        <time>2013-08-26T08:17:17Z</time>
      </trkpt>
      <trkpt lat="45.98597" lon="6.79949">
        <ele>2147.2</ele>
        <time>2013-08-26T08:17:30Z</time>
      </trkpt>
      <trkpt lat="45.98591" lon="6.79945">
        <ele>2147.7</ele>
        <time>2013-08-26T08:17:37Z</time>
      </trkpt>
      <trkpt lat="45.98583" lon="6.79944">
        <ele>2149.2</ele>
        <time>2013-08-26T08:17:50Z</time>
      </trkpt>
      <trkpt lat="45.98578" lon="6.7994">
        <ele>2149.2</ele>
        <time>2013-08-26T08:18:03Z</time>
      </trkpt>
      <trkpt lat="45.98574" lon="6.79936">
        <ele>2149.7</ele>
        <time>2013-08-26T08:18:18Z</time>
      </trkpt>
      <trkpt lat="45.98574" lon="6.79936">
        <ele>2149.7</ele>
        <time>2013-08-26T08:18:19Z</time>
      </trkpt>
      <trkpt lat="45.98562" lon="6.79898">
        <ele>2151.6</ele>
        <time>2013-08-26T08:18:35Z</time>
      </trkpt>
      <trkpt lat="45.98557" lon="6.79873">
        <ele>2153.5</ele>
        <time>2013-08-26T08:18:49Z</time>
      </trkpt>
      <trkpt lat="45.98556" lon="6.79872">
        <ele>2153.5</ele>
        <time>2013-08-26T08:18:50Z</time>
      </trkpt>
      <trkpt lat="45.98555" lon="6.7987">
        <ele>2154</ele>
        <time>2013-08-26T08:18:52Z</time>
      </trkpt>
      <trkpt lat="45.98548" lon="6.7984">
        <ele>2154.5</ele>
        <time>2013-08-26T08:19:06Z</time>
      </trkpt>
      <trkpt lat="45.98547" lon="6.79834">
        <ele>2154.9</ele>
        <time>2013-08-26T08:19:08Z</time>
      </trkpt>
      <trkpt lat="45.9853" lon="6.79823">
        <ele>2156.4</ele>
        <time>2013-08-26T08:19:21Z</time>
      </trkpt>
      <trkpt lat="45.98525" lon="6.79819">
        <ele>2157.8</ele>
        <time>2013-08-26T08:19:35Z</time>
      </trkpt>
      <trkpt lat="45.98521" lon="6.7982">
        <ele>2157.8</ele>
        <time>2013-08-26T08:20:03Z</time>
      </trkpt>
      <trkpt lat="45.98508" lon="6.79824">
        <ele>2159.3</ele>
        <time>2013-08-26T08:20:16Z</time>
      </trkpt>
      <trkpt lat="45.98507" lon="6.79825">
        <ele>2159.3</ele>
        <time>2013-08-26T08:20:17Z</time>
      </trkpt>
      <trkpt lat="45.98501" lon="6.79826">
        <ele>2159.3</ele>
        <time>2013-08-26T08:20:21Z</time>
      </trkpt>
      <trkpt lat="45.98479" lon="6.7982">
        <ele>2162.1</ele>
        <time>2013-08-26T08:20:34Z</time>
      </trkpt>
      <trkpt lat="45.98463" lon="6.79823">
        <ele>2164.1</ele>
        <time>2013-08-26T08:20:45Z</time>
      </trkpt>
      <trkpt lat="45.98461" lon="6.79822">
        <ele>2164.1</ele>
        <time>2013-08-26T08:20:46Z</time>
      </trkpt>
      <trkpt lat="45.98439" lon="6.79802">
        <ele>2165.5</ele>
        <time>2013-08-26T08:21:02Z</time>
      </trkpt>
      <trkpt lat="45.98432" lon="6.79796">
        <ele>2166</ele>
        <time>2013-08-26T08:21:15Z</time>
      </trkpt>
      <trkpt lat="45.98423" lon="6.79787">
        <ele>2167.4</ele>
        <time>2013-08-26T08:21:30Z</time>
      </trkpt>
      <trkpt lat="45.98422" lon="6.79787">
        <ele>2167.4</ele>
        <time>2013-08-26T08:21:41Z</time>
      </trkpt>
      <trkpt lat="45.98415" lon="6.79789">
        <ele>2169.8</ele>
        <time>2013-08-26T08:21:55Z</time>
      </trkpt>
      <trkpt lat="45.98406" lon="6.79786">
        <ele>2172.7</ele>
        <time>2013-08-26T08:22:09Z</time>
      </trkpt>
      <trkpt lat="45.98395" lon="6.79787">
        <ele>2174.6</ele>
        <time>2013-08-26T08:22:26Z</time>
      </trkpt>
      <trkpt lat="45.9839" lon="6.79789">
        <ele>2176.1</ele>
        <time>2013-08-26T08:22:37Z</time>
      </trkpt>
      <trkpt lat="45.98381" lon="6.79791">
        <ele>2178.5</ele>
        <time>2013-08-26T08:22:52Z</time>
      </trkpt>
      <trkpt lat="45.98373" lon="6.7979">
        <ele>2181.4</ele>
        <time>2013-08-26T08:23:06Z</time>
      </trkpt>
      <trkpt lat="45.98368" lon="6.79789">
        <ele>2183.3</ele>
        <time>2013-08-26T08:23:16Z</time>
      </trkpt>
      <trkpt lat="45.98361" lon="6.79788">
        <ele>2184.3</ele>
        <time>2013-08-26T08:23:32Z</time>
      </trkpt>
      <trkpt lat="45.98353" lon="6.79787">
        <ele>2186.7</ele>
        <time>2013-08-26T08:23:45Z</time>
      </trkpt>
      <trkpt lat="45.98344" lon="6.79782">
        <ele>2189.1</ele>
        <time>2013-08-26T08:24:00Z</time>
      </trkpt>
      <trkpt lat="45.98337" lon="6.7978">
        <ele>2189.5</ele>
        <time>2013-08-26T08:24:10Z</time>
      </trkpt>
      <trkpt lat="45.98327" lon="6.79777">
        <ele>2191.5</ele>
        <time>2013-08-26T08:24:25Z</time>
      </trkpt>
      <trkpt lat="45.98323" lon="6.79778">
        <ele>2192.4</ele>
        <time>2013-08-26T08:24:33Z</time>
      </trkpt>
      <trkpt lat="45.98313" lon="6.7977">
        <ele>2194.4</ele>
        <time>2013-08-26T08:24:45Z</time>
      </trkpt>
      <trkpt lat="45.98301" lon="6.7977">
        <ele>2196.3</ele>
        <time>2013-08-26T08:24:59Z</time>
      </trkpt>
      <trkpt lat="45.98283" lon="6.79769">
        <ele>2196.8</ele>
        <time>2013-08-26T08:25:16Z</time>
      </trkpt>
      <trkpt lat="45.98281" lon="6.79769">
        <ele>2197.2</ele>
        <time>2013-08-26T08:25:18Z</time>
      </trkpt>
      <trkpt lat="45.98271" lon="6.79778">
        <ele>2199.2</ele>
        <time>2013-08-26T08:25:34Z</time>
      </trkpt>
      <trkpt lat="45.98261" lon="6.79778">
        <ele>2200.6</ele>
        <time>2013-08-26T08:25:44Z</time>
      </trkpt>
      <trkpt lat="45.98256" lon="6.79777">
        <ele>2202</ele>
        <time>2013-08-26T08:25:49Z</time>
      </trkpt>
      <trkpt lat="45.98245" lon="6.79783">
        <ele>2203</ele>
        <time>2013-08-26T08:26:03Z</time>
      </trkpt>
      <trkpt lat="45.98234" lon="6.79783">
        <ele>2206.4</ele>
        <time>2013-08-26T08:26:17Z</time>
      </trkpt>
      <trkpt lat="45.98225" lon="6.79787">
        <ele>2208.3</ele>
        <time>2013-08-26T08:26:29Z</time>
      </trkpt>
      <trkpt lat="45.98216" lon="6.79787">
        <ele>2209.3</ele>
        <time>2013-08-26T08:26:41Z</time>
      </trkpt>
      <trkpt lat="45.98201" lon="6.7979">
        <ele>2212.1</ele>
        <time>2013-08-26T08:26:58Z</time>
      </trkpt>
      <trkpt lat="45.9819" lon="6.79788">
        <ele>2213.6</ele>
        <time>2013-08-26T08:27:13Z</time>
      </trkpt>
      <trkpt lat="45.9818" lon="6.79783">
        <ele>2216</ele>
        <time>2013-08-26T08:27:27Z</time>
      </trkpt>
      <trkpt lat="45.98177" lon="6.79779">
        <ele>2216.9</ele>
        <time>2013-08-26T08:27:33Z</time>
      </trkpt>
      <trkpt lat="45.98169" lon="6.79771">
        <ele>2218.9</ele>
        <time>2013-08-26T08:27:47Z</time>
      </trkpt>
      <trkpt lat="45.98161" lon="6.79765">
        <ele>2220.8</ele>
        <time>2013-08-26T08:28:01Z</time>
      </trkpt>
      <trkpt lat="45.98153" lon="6.79757">
        <ele>2223.2</ele>
        <time>2013-08-26T08:28:17Z</time>
      </trkpt>
      <trkpt lat="45.98146" lon="6.79752">
        <ele>2225.1</ele>
        <time>2013-08-26T08:28:34Z</time>
      </trkpt>
      <trkpt lat="45.9814" lon="6.79747">
        <ele>2227.5</ele>
        <time>2013-08-26T08:28:51Z</time>
      </trkpt>
      <trkpt lat="45.98132" lon="6.7974">
        <ele>2229.9</ele>
        <time>2013-08-26T08:29:05Z</time>
      </trkpt>
      <trkpt lat="45.98127" lon="6.79738">
        <ele>2231.4</ele>
        <time>2013-08-26T08:29:18Z</time>
      </trkpt>
      <trkpt lat="45.9812" lon="6.79733">
        <ele>2233.8</ele>
        <time>2013-08-26T08:29:31Z</time>
      </trkpt>
      <trkpt lat="45.98115" lon="6.79727">
        <ele>2235.2</ele>
        <time>2013-08-26T08:29:41Z</time>
      </trkpt>
      <trkpt lat="45.98108" lon="6.7972">
        <ele>2236.6</ele>
        <time>2013-08-26T08:29:54Z</time>
      </trkpt>
      <trkpt lat="45.98102" lon="6.79711">
        <ele>2239.5</ele>
        <time>2013-08-26T08:30:07Z</time>
      </trkpt>
      <trkpt lat="45.98096" lon="6.79704">
        <ele>2241.9</ele>
        <time>2013-08-26T08:30:21Z</time>
      </trkpt>
      <trkpt lat="45.98082" lon="6.7969">
        <ele>2241.9</ele>
        <time>2013-08-26T08:30:37Z</time>
      </trkpt>
      <trkpt lat="45.98073" lon="6.79679">
        <ele>2243.9</ele>
        <time>2013-08-26T08:30:52Z</time>
      </trkpt>
      <trkpt lat="45.98064" lon="6.79666">
        <ele>2246.3</ele>
        <time>2013-08-26T08:31:07Z</time>
      </trkpt>
      <trkpt lat="45.98061" lon="6.79663">
        <ele>2248.2</ele>
        <time>2013-08-26T08:31:14Z</time>
      </trkpt>
      <trkpt lat="45.98055" lon="6.79661">
        <ele>2250.1</ele>
        <time>2013-08-26T08:31:26Z</time>
      </trkpt>
      <trkpt lat="45.98048" lon="6.79657">
        <ele>2252</ele>
        <time>2013-08-26T08:31:40Z</time>
      </trkpt>
      <trkpt lat="45.98041" lon="6.79651">
        <ele>2254</ele>
        <time>2013-08-26T08:31:52Z</time>
      </trkpt>
      <trkpt lat="45.98035" lon="6.79645">
        <ele>2256.4</ele>
        <time>2013-08-26T08:32:07Z</time>
      </trkpt>
      <trkpt lat="45.98031" lon="6.79645">
        <ele>2258.3</ele>
        <time>2013-08-26T08:32:20Z</time>
      </trkpt>
      <trkpt lat="45.98027" lon="6.79646">
        <ele>2258.8</ele>
        <time>2013-08-26T08:32:33Z</time>
      </trkpt>
      <trkpt lat="45.98027" lon="6.79647">
        <ele>2258.8</ele>
        <time>2013-08-26T08:32:59Z</time>
      </trkpt>
      <trkpt lat="45.98026" lon="6.79644">
        <ele>2258.3</ele>
        <time>2013-08-26T08:33:31Z</time>
      </trkpt>
      <trkpt lat="45.98026" lon="6.79645">
        <ele>2258.8</ele>
        <time>2013-08-26T08:34:02Z</time>
      </trkpt>
      <trkpt lat="45.98026" lon="6.79645">
        <ele>2259.2</ele>
        <time>2013-08-26T08:34:33Z</time>
      </trkpt>
      <trkpt lat="45.98026" lon="6.79646">
        <ele>2259.2</ele>
        <time>2013-08-26T08:35:13Z</time>
      </trkpt>
      <trkpt lat="45.98026" lon="6.79645">
        <ele>2259.2</ele>
        <time>2013-08-26T08:35:53Z</time>
      </trkpt>
      <trkpt lat="45.98026" lon="6.79646">
        <ele>2259.7</ele>
        <time>2013-08-26T08:36:27Z</time>
      </trkpt>
      <trkpt lat="45.98026" lon="6.79647">
        <ele>2259.2</ele>
        <time>2013-08-26T08:36:55Z</time>
      </trkpt>
      <trkpt lat="45.98027" lon="6.79646">
        <ele>2260.2</ele>
        <time>2013-08-26T08:37:25Z</time>
      </trkpt>
      <trkpt lat="45.98027" lon="6.79646">
        <ele>2259.7</ele>
        <time>2013-08-26T08:37:57Z</time>
      </trkpt>
      <trkpt lat="45.98027" lon="6.79645">
        <ele>2259.7</ele>
        <time>2013-08-26T08:38:25Z</time>
      </trkpt>
      <trkpt lat="45.98027" lon="6.79645">
        <ele>2259.7</ele>
        <time>2013-08-26T08:38:56Z</time>
      </trkpt>
      <trkpt lat="45.98027" lon="6.79645">
        <ele>2259.7</ele>
        <time>2013-08-26T08:39:28Z</time>
      </trkpt>
      <trkpt lat="45.98026" lon="6.79645">
        <ele>2260.2</ele>
        <time>2013-08-26T08:39:57Z</time>
      </trkpt>
      <trkpt lat="45.98027" lon="6.79646">
        <ele>2260.7</ele>
        <time>2013-08-26T08:40:22Z</time>
      </trkpt>
      <trkpt lat="45.98027" lon="6.79645">
        <ele>2260.7</ele>
        <time>2013-08-26T08:40:55Z</time>
      </trkpt>
      <trkpt lat="45.98027" lon="6.79645">
        <ele>2260.7</ele>
        <time>2013-08-26T08:41:21Z</time>
      </trkpt>
      <trkpt lat="45.98026" lon="6.79645">
        <ele>2260.7</ele>
        <time>2013-08-26T08:42:08Z</time>
      </trkpt>
      <trkpt lat="45.98027" lon="6.79645">
        <ele>2260.7</ele>
        <time>2013-08-26T08:42:35Z</time>
      </trkpt>
      <trkpt lat="45.98027" lon="6.79644">
        <ele>2260.7</ele>
        <time>2013-08-26T08:43:07Z</time>
      </trkpt>
      <trkpt lat="45.98027" lon="6.79644">
        <ele>2261.2</ele>
        <time>2013-08-26T08:43:51Z</time>
      </trkpt>
      <trkpt lat="45.98026" lon="6.79644">
        <ele>2261.6</ele>
        <time>2013-08-26T08:44:21Z</time>
      </trkpt>
      <trkpt lat="45.98027" lon="6.79644">
        <ele>2261.6</ele>
        <time>2013-08-26T08:45:04Z</time>
      </trkpt>
      <trkpt lat="45.98027" lon="6.79646">
        <ele>2261.6</ele>
        <time>2013-08-26T08:45:07Z</time>
      </trkpt>
      <trkpt lat="45.98026" lon="6.79651">
        <ele>2262.1</ele>
        <time>2013-08-26T08:45:11Z</time>
      </trkpt>
      <trkpt lat="45.98025" lon="6.79653">
        <ele>2262.1</ele>
        <time>2013-08-26T08:45:26Z</time>
      </trkpt>
      <trkpt lat="45.98025" lon="6.79654">
        <ele>2262.1</ele>
        <time>2013-08-26T08:45:59Z</time>
      </trkpt>
      <trkpt lat="45.98025" lon="6.79655">
        <ele>2262.1</ele>
        <time>2013-08-26T08:46:24Z</time>
      </trkpt>
      <trkpt lat="45.98026" lon="6.79656">
        <ele>2262.1</ele>
        <time>2013-08-26T08:46:48Z</time>
      </trkpt>
      <trkpt lat="45.98026" lon="6.79653">
        <ele>2262.1</ele>
        <time>2013-08-26T08:47:10Z</time>
      </trkpt>
      <trkpt lat="45.98025" lon="6.79653">
        <ele>2262.6</ele>
        <time>2013-08-26T08:47:33Z</time>
      </trkpt>
      <trkpt lat="45.98026" lon="6.79653">
        <ele>2262.6</ele>
        <time>2013-08-26T08:47:57Z</time>
      </trkpt>
      <trkpt lat="45.98026" lon="6.79653">
        <ele>2262.1</ele>
        <time>2013-08-26T08:48:21Z</time>
      </trkpt>
      <trkpt lat="45.98025" lon="6.79653">
        <ele>2262.1</ele>
        <time>2013-08-26T08:48:43Z</time>
      </trkpt>
      <trkpt lat="45.98025" lon="6.79653">
        <ele>2262.6</ele>
        <time>2013-08-26T08:49:07Z</time>
      </trkpt>
      <trkpt lat="45.98025" lon="6.79655">
        <ele>2262.1</ele>
        <time>2013-08-26T08:49:29Z</time>
      </trkpt>
      <trkpt lat="45.98024" lon="6.79654">
        <ele>2263.1</ele>
        <time>2013-08-26T08:49:56Z</time>
      </trkpt>
      <trkpt lat="45.98025" lon="6.79653">
        <ele>2262.6</ele>
        <time>2013-08-26T08:50:26Z</time>
      </trkpt>
      <trkpt lat="45.98025" lon="6.79653">
        <ele>2262.6</ele>
        <time>2013-08-26T08:50:52Z</time>
      </trkpt>
      <trkpt lat="45.98025" lon="6.79652">
        <ele>2262.1</ele>
        <time>2013-08-26T08:51:15Z</time>
      </trkpt>
      <trkpt lat="45.98025" lon="6.79652">
        <ele>2262.6</ele>
        <time>2013-08-26T08:51:48Z</time>
      </trkpt>
      <trkpt lat="45.98024" lon="6.79652">
        <ele>2262.6</ele>
        <time>2013-08-26T08:52:16Z</time>
      </trkpt>
      <trkpt lat="45.98025" lon="6.79653">
        <ele>2262.6</ele>
        <time>2013-08-26T08:52:42Z</time>
      </trkpt>
      <trkpt lat="45.98023" lon="6.79652">
        <ele>2262.6</ele>
        <time>2013-08-26T08:53:05Z</time>
      </trkpt>
      <trkpt lat="45.98017" lon="6.79652">
        <ele>2261.6</ele>
        <time>2013-08-26T08:53:27Z</time>
      </trkpt>
      <trkpt lat="45.98011" lon="6.79651">
        <ele>2259.7</ele>
        <time>2013-08-26T08:53:32Z</time>
      </trkpt>
      <trkpt lat="45.98009" lon="6.79653">
        <ele>2258.3</ele>
        <time>2013-08-26T08:53:34Z</time>
      </trkpt>
      <trkpt lat="45.98012" lon="6.79659">
        <ele>2257.8</ele>
        <time>2013-08-26T08:53:37Z</time>
      </trkpt>
      <trkpt lat="45.98012" lon="6.79661">
        <ele>2257.3</ele>
        <time>2013-08-26T08:53:38Z</time>
      </trkpt>
      <trkpt lat="45.98011" lon="6.79662">
        <ele>2256.8</ele>
        <time>2013-08-26T08:53:39Z</time>
      </trkpt>
      <trkpt lat="45.98009" lon="6.79664">
        <ele>2256.4</ele>
        <time>2013-08-26T08:53:51Z</time>
      </trkpt>
      <trkpt lat="45.98004" lon="6.79659">
        <ele>2254.4</ele>
        <time>2013-08-26T08:54:01Z</time>
      </trkpt>
      <trkpt lat="45.97999" lon="6.79658">
        <ele>2253.5</ele>
        <time>2013-08-26T08:54:05Z</time>
      </trkpt>
      <trkpt lat="45.97998" lon="6.79668">
        <ele>2249.6</ele>
        <time>2013-08-26T08:54:13Z</time>
      </trkpt>
      <trkpt lat="45.97997" lon="6.79674">
        <ele>2247.7</ele>
        <time>2013-08-26T08:54:16Z</time>
      </trkpt>
      <trkpt lat="45.97995" lon="6.7968">
        <ele>2245.3</ele>
        <time>2013-08-26T08:54:28Z</time>
      </trkpt>
      <trkpt lat="45.97994" lon="6.79681">
        <ele>2243.9</ele>
        <time>2013-08-26T08:54:32Z</time>
      </trkpt>
      <trkpt lat="45.97991" lon="6.79688">
        <ele>2241.9</ele>
        <time>2013-08-26T08:54:40Z</time>
      </trkpt>
      <trkpt lat="45.97987" lon="6.79689">
        <ele>2239.1</ele>
        <time>2013-08-26T08:54:47Z</time>
      </trkpt>
      <trkpt lat="45.97985" lon="6.79691">
        <ele>2237.1</ele>
        <time>2013-08-26T08:54:53Z</time>
      </trkpt>
      <trkpt lat="45.97983" lon="6.797">
        <ele>2235.2</ele>
        <time>2013-08-26T08:55:03Z</time>
      </trkpt>
      <trkpt lat="45.97982" lon="6.797">
        <ele>2234.7</ele>
        <time>2013-08-26T08:55:05Z</time>
      </trkpt>
      <trkpt lat="45.97979" lon="6.79708">
        <ele>2231.8</ele>
        <time>2013-08-26T08:55:13Z</time>
      </trkpt>
      <trkpt lat="45.97977" lon="6.79715">
        <ele>2229.4</ele>
        <time>2013-08-26T08:55:30Z</time>
      </trkpt>
      <trkpt lat="45.97976" lon="6.79717">
        <ele>2228.5</ele>
        <time>2013-08-26T08:55:32Z</time>
      </trkpt>
      <trkpt lat="45.97975" lon="6.7973">
        <ele>2225.6</ele>
        <time>2013-08-26T08:55:40Z</time>
      </trkpt>
      <trkpt lat="45.97974" lon="6.79734">
        <ele>2222.7</ele>
        <time>2013-08-26T08:55:49Z</time>
      </trkpt>
      <trkpt lat="45.97973" lon="6.79743">
        <ele>2222.2</ele>
        <time>2013-08-26T08:55:53Z</time>
      </trkpt>
      <trkpt lat="45.97972" lon="6.79746">
        <ele>2222.2</ele>
        <time>2013-08-26T08:55:54Z</time>
      </trkpt>
      <trkpt lat="45.97972" lon="6.79748">
        <ele>2221.7</ele>
        <time>2013-08-26T08:55:55Z</time>
      </trkpt>
      <trkpt lat="45.97972" lon="6.79751">
        <ele>2220.8</ele>
        <time>2013-08-26T08:55:56Z</time>
      </trkpt>
      <trkpt lat="45.97972" lon="6.79753">
        <ele>2220.8</ele>
        <time>2013-08-26T08:55:57Z</time>
      </trkpt>
      <trkpt lat="45.97973" lon="6.79759">
        <ele>2219.3</ele>
        <time>2013-08-26T08:56:00Z</time>
      </trkpt>
      <trkpt lat="45.9797" lon="6.79762">
        <ele>2217.4</ele>
        <time>2013-08-26T08:56:09Z</time>
      </trkpt>
      <trkpt lat="45.97968" lon="6.79765">
        <ele>2216.5</ele>
        <time>2013-08-26T08:56:12Z</time>
      </trkpt>
      <trkpt lat="45.9797" lon="6.79773">
        <ele>2214.1</ele>
        <time>2013-08-26T08:56:21Z</time>
      </trkpt>
      <trkpt lat="45.9797" lon="6.79775">
        <ele>2213.6</ele>
        <time>2013-08-26T08:56:22Z</time>
      </trkpt>
      <trkpt lat="45.97971" lon="6.79777">
        <ele>2213.1</ele>
        <time>2013-08-26T08:56:23Z</time>
      </trkpt>
      <trkpt lat="45.97971" lon="6.79778">
        <ele>2213.1</ele>
        <time>2013-08-26T08:56:24Z</time>
      </trkpt>
      <trkpt lat="45.97969" lon="6.79779">
        <ele>2211.7</ele>
        <time>2013-08-26T08:56:34Z</time>
      </trkpt>
      <trkpt lat="45.97968" lon="6.79777">
        <ele>2211.7</ele>
        <time>2013-08-26T08:56:35Z</time>
      </trkpt>
      <trkpt lat="45.97968" lon="6.79775">
        <ele>2211.2</ele>
        <time>2013-08-26T08:56:36Z</time>
      </trkpt>
      <trkpt lat="45.97966" lon="6.79773">
        <ele>2211.2</ele>
        <time>2013-08-26T08:56:37Z</time>
      </trkpt>
      <trkpt lat="45.97965" lon="6.79772">
        <ele>2210.2</ele>
        <time>2013-08-26T08:56:38Z</time>
      </trkpt>
      <trkpt lat="45.97964" lon="6.7977">
        <ele>2209.7</ele>
        <time>2013-08-26T08:56:39Z</time>
      </trkpt>
      <trkpt lat="45.97963" lon="6.79769">
        <ele>2209.3</ele>
        <time>2013-08-26T08:56:40Z</time>
      </trkpt>
      <trkpt lat="45.97962" lon="6.79767">
        <ele>2209.3</ele>
        <time>2013-08-26T08:56:41Z</time>
      </trkpt>
      <trkpt lat="45.9796" lon="6.79766">
        <ele>2208.3</ele>
        <time>2013-08-26T08:56:42Z</time>
      </trkpt>
      <trkpt lat="45.97959" lon="6.79764">
        <ele>2208.3</ele>
        <time>2013-08-26T08:56:43Z</time>
      </trkpt>
      <trkpt lat="45.97951" lon="6.79752">
        <ele>2204.9</ele>
        <time>2013-08-26T08:56:51Z</time>
      </trkpt>
      <trkpt lat="45.9795" lon="6.79752">
        <ele>2204.4</ele>
        <time>2013-08-26T08:56:52Z</time>
      </trkpt>
      <trkpt lat="45.97948" lon="6.79752">
        <ele>2203.5</ele>
        <time>2013-08-26T08:56:53Z</time>
      </trkpt>
      <trkpt lat="45.97946" lon="6.79751">
        <ele>2203</ele>
        <time>2013-08-26T08:56:54Z</time>
      </trkpt>
      <trkpt lat="45.97944" lon="6.7975">
        <ele>2202.5</ele>
        <time>2013-08-26T08:56:55Z</time>
      </trkpt>
      <trkpt lat="45.97935" lon="6.79743">
        <ele>2198.2</ele>
        <time>2013-08-26T08:57:00Z</time>
      </trkpt>
      <trkpt lat="45.97926" lon="6.79735">
        <ele>2194.4</ele>
        <time>2013-08-26T08:57:05Z</time>
      </trkpt>
      <trkpt lat="45.97917" lon="6.79725">
        <ele>2191</ele>
        <time>2013-08-26T08:57:09Z</time>
      </trkpt>
      <trkpt lat="45.97913" lon="6.79719">
        <ele>2190</ele>
        <time>2013-08-26T08:57:11Z</time>
      </trkpt>
      <trkpt lat="45.97909" lon="6.79711">
        <ele>2188.1</ele>
        <time>2013-08-26T08:57:14Z</time>
      </trkpt>
      <trkpt lat="45.97907" lon="6.79709">
        <ele>2187.1</ele>
        <time>2013-08-26T08:57:15Z</time>
      </trkpt>
      <trkpt lat="45.97906" lon="6.79708">
        <ele>2186.7</ele>
        <time>2013-08-26T08:57:16Z</time>
      </trkpt>
      <trkpt lat="45.97904" lon="6.79707">
        <ele>2186.7</ele>
        <time>2013-08-26T08:57:17Z</time>
      </trkpt>
      <trkpt lat="45.97901" lon="6.79705">
        <ele>2185.7</ele>
        <time>2013-08-26T08:57:18Z</time>
      </trkpt>
      <trkpt lat="45.979" lon="6.79704">
        <ele>2184.7</ele>
        <time>2013-08-26T08:57:19Z</time>
      </trkpt>
      <trkpt lat="45.97898" lon="6.79703">
        <ele>2184.7</ele>
        <time>2013-08-26T08:57:20Z</time>
      </trkpt>
      <trkpt lat="45.97895" lon="6.79699">
        <ele>2183.3</ele>
        <time>2013-08-26T08:57:22Z</time>
      </trkpt>
      <trkpt lat="45.97891" lon="6.79692">
        <ele>2181.9</ele>
        <time>2013-08-26T08:57:25Z</time>
      </trkpt>
      <trkpt lat="45.97885" lon="6.79687">
        <ele>2180.4</ele>
        <time>2013-08-26T08:57:28Z</time>
      </trkpt>
      <trkpt lat="45.97881" lon="6.79682">
        <ele>2179</ele>
        <time>2013-08-26T08:57:30Z</time>
      </trkpt>
      <trkpt lat="45.97877" lon="6.79678">
        <ele>2178</ele>
        <time>2013-08-26T08:57:33Z</time>
      </trkpt>
      <trkpt lat="45.97875" lon="6.79678">
        <ele>2177.5</ele>
        <time>2013-08-26T08:57:34Z</time>
      </trkpt>
      <trkpt lat="45.97873" lon="6.79679">
        <ele>2176.6</ele>
        <time>2013-08-26T08:57:35Z</time>
      </trkpt>
      <trkpt lat="45.97871" lon="6.7968">
        <ele>2176.6</ele>
        <time>2013-08-26T08:57:36Z</time>
      </trkpt>
      <trkpt lat="45.9787" lon="6.79679">
        <ele>2176.1</ele>
        <time>2013-08-26T08:57:37Z</time>
      </trkpt>
      <trkpt lat="45.97868" lon="6.79677">
        <ele>2175.1</ele>
        <time>2013-08-26T08:57:38Z</time>
      </trkpt>
      <trkpt lat="45.97867" lon="6.79676">
        <ele>2175.1</ele>
        <time>2013-08-26T08:57:39Z</time>
      </trkpt>
      <trkpt lat="45.97865" lon="6.79675">
        <ele>2174.2</ele>
        <time>2013-08-26T08:57:40Z</time>
      </trkpt>
      <trkpt lat="45.97856" lon="6.7967">
        <ele>2172.2</ele>
        <time>2013-08-26T08:57:44Z</time>
      </trkpt>
      <trkpt lat="45.97853" lon="6.7967">
        <ele>2171.8</ele>
        <time>2013-08-26T08:57:45Z</time>
      </trkpt>
      <trkpt lat="45.97851" lon="6.79669">
        <ele>2170.8</ele>
        <time>2013-08-26T08:57:46Z</time>
      </trkpt>
      <trkpt lat="45.97849" lon="6.79668">
        <ele>2169.8</ele>
        <time>2013-08-26T08:57:47Z</time>
      </trkpt>
      <trkpt lat="45.97846" lon="6.79666">
        <ele>2168.9</ele>
        <time>2013-08-26T08:57:48Z</time>
      </trkpt>
      <trkpt lat="45.97844" lon="6.79665">
        <ele>2167.9</ele>
        <time>2013-08-26T08:57:49Z</time>
      </trkpt>
      <trkpt lat="45.97842" lon="6.79664">
        <ele>2167.4</ele>
        <time>2013-08-26T08:57:50Z</time>
      </trkpt>
      <trkpt lat="45.97839" lon="6.79661">
        <ele>2166</ele>
        <time>2013-08-26T08:57:51Z</time>
      </trkpt>
      <trkpt lat="45.97836" lon="6.7966">
        <ele>2165</ele>
        <time>2013-08-26T08:57:52Z</time>
      </trkpt>
      <trkpt lat="45.97833" lon="6.7966">
        <ele>2164.6</ele>
        <time>2013-08-26T08:57:53Z</time>
      </trkpt>
      <trkpt lat="45.97831" lon="6.79658">
        <ele>2163.6</ele>
        <time>2013-08-26T08:57:54Z</time>
      </trkpt>
      <trkpt lat="45.97825" lon="6.79651">
        <ele>2162.1</ele>
        <time>2013-08-26T08:57:57Z</time>
      </trkpt>
      <trkpt lat="45.97823" lon="6.79649">
        <ele>2160.7</ele>
        <time>2013-08-26T08:57:58Z</time>
      </trkpt>
      <trkpt lat="45.97821" lon="6.79649">
        <ele>2160.2</ele>
        <time>2013-08-26T08:57:59Z</time>
      </trkpt>
      <trkpt lat="45.9782" lon="6.7965">
        <ele>2160.2</ele>
        <time>2013-08-26T08:58:11Z</time>
      </trkpt>
      <trkpt lat="45.9782" lon="6.79652">
        <ele>2159.7</ele>
        <time>2013-08-26T08:58:42Z</time>
      </trkpt>
      <trkpt lat="45.97821" lon="6.79652">
        <ele>2159.3</ele>
        <time>2013-08-26T08:59:12Z</time>
      </trkpt>
      <trkpt lat="45.97821" lon="6.79653">
        <ele>2159.3</ele>
        <time>2013-08-26T08:59:38Z</time>
      </trkpt>
      <trkpt lat="45.97821" lon="6.79654">
        <ele>2159.7</ele>
        <time>2013-08-26T08:59:39Z</time>
      </trkpt>
      <trkpt lat="45.97822" lon="6.79656">
        <ele>2159.3</ele>
        <time>2013-08-26T08:59:40Z</time>
      </trkpt>
      <trkpt lat="45.97822" lon="6.79658">
        <ele>2158.3</ele>
        <time>2013-08-26T08:59:41Z</time>
      </trkpt>
      <trkpt lat="45.97823" lon="6.79659">
        <ele>2157.8</ele>
        <time>2013-08-26T08:59:42Z</time>
      </trkpt>
      <trkpt lat="45.97826" lon="6.79675">
        <ele>2155.4</ele>
        <time>2013-08-26T08:59:52Z</time>
      </trkpt>
      <trkpt lat="45.97829" lon="6.79692">
        <ele>2152.5</ele>
        <time>2013-08-26T08:59:58Z</time>
      </trkpt>
      <trkpt lat="45.97828" lon="6.79702">
        <ele>2151.1</ele>
        <time>2013-08-26T09:00:01Z</time>
      </trkpt>
      <trkpt lat="45.97828" lon="6.79713">
        <ele>2147.2</ele>
        <time>2013-08-26T09:00:09Z</time>
      </trkpt>
      <trkpt lat="45.97827" lon="6.79715">
        <ele>2147.7</ele>
        <time>2013-08-26T09:00:10Z</time>
      </trkpt>
      <trkpt lat="45.97823" lon="6.79722">
        <ele>2146.8</ele>
        <time>2013-08-26T09:00:15Z</time>
      </trkpt>
      <trkpt lat="45.97823" lon="6.79725">
        <ele>2147.2</ele>
        <time>2013-08-26T09:00:16Z</time>
      </trkpt>
      <trkpt lat="45.97821" lon="6.79738">
        <ele>2145.3</ele>
        <time>2013-08-26T09:00:19Z</time>
      </trkpt>
      <trkpt lat="45.97817" lon="6.79747">
        <ele>2142.9</ele>
        <time>2013-08-26T09:00:22Z</time>
      </trkpt>
      <trkpt lat="45.97813" lon="6.7975">
        <ele>2142</ele>
        <time>2013-08-26T09:00:24Z</time>
      </trkpt>
      <trkpt lat="45.97812" lon="6.79751">
        <ele>2141</ele>
        <time>2013-08-26T09:00:25Z</time>
      </trkpt>
      <trkpt lat="45.9781" lon="6.79752">
        <ele>2140</ele>
        <time>2013-08-26T09:00:26Z</time>
      </trkpt>
      <trkpt lat="45.97808" lon="6.79752">
        <ele>2140</ele>
        <time>2013-08-26T09:00:27Z</time>
      </trkpt>
      <trkpt lat="45.97807" lon="6.79751">
        <ele>2139.6</ele>
        <time>2013-08-26T09:00:28Z</time>
      </trkpt>
      <trkpt lat="45.97806" lon="6.79745">
        <ele>2138.6</ele>
        <time>2013-08-26T09:00:38Z</time>
      </trkpt>
      <trkpt lat="45.97799" lon="6.79738">
        <ele>2136.2</ele>
        <time>2013-08-26T09:00:42Z</time>
      </trkpt>
      <trkpt lat="45.97798" lon="6.79736">
        <ele>2135.7</ele>
        <time>2013-08-26T09:00:43Z</time>
      </trkpt>
      <trkpt lat="45.97796" lon="6.79734">
        <ele>2134.7</ele>
        <time>2013-08-26T09:00:44Z</time>
      </trkpt>
      <trkpt lat="45.97795" lon="6.79733">
        <ele>2135.2</ele>
        <time>2013-08-26T09:00:45Z</time>
      </trkpt>
      <trkpt lat="45.97794" lon="6.79727">
        <ele>2132.3</ele>
        <time>2013-08-26T09:00:51Z</time>
      </trkpt>
      <trkpt lat="45.97793" lon="6.79724">
        <ele>2132.3</ele>
        <time>2013-08-26T09:00:52Z</time>
      </trkpt>
      <trkpt lat="45.97792" lon="6.79722">
        <ele>2131.4</ele>
        <time>2013-08-26T09:00:53Z</time>
      </trkpt>
      <trkpt lat="45.97791" lon="6.7972">
        <ele>2130.9</ele>
        <time>2013-08-26T09:00:58Z</time>
      </trkpt>
      <trkpt lat="45.97789" lon="6.7972">
        <ele>2130.4</ele>
        <time>2013-08-26T09:00:59Z</time>
      </trkpt>
      <trkpt lat="45.97781" lon="6.79718">
        <ele>2128</ele>
        <time>2013-08-26T09:01:09Z</time>
      </trkpt>
      <trkpt lat="45.97779" lon="6.79716">
        <ele>2127.1</ele>
        <time>2013-08-26T09:01:12Z</time>
      </trkpt>
      <trkpt lat="45.97779" lon="6.79715">
        <ele>2127.1</ele>
        <time>2013-08-26T09:01:13Z</time>
      </trkpt>
      <trkpt lat="45.9778" lon="6.79707">
        <ele>2126.1</ele>
        <time>2013-08-26T09:01:18Z</time>
      </trkpt>
      <trkpt lat="45.9778" lon="6.79702">
        <ele>2125.1</ele>
        <time>2013-08-26T09:01:21Z</time>
      </trkpt>
      <trkpt lat="45.9778" lon="6.79701">
        <ele>2125.1</ele>
        <time>2013-08-26T09:01:22Z</time>
      </trkpt>
      <trkpt lat="45.9778" lon="6.79699">
        <ele>2125.1</ele>
        <time>2013-08-26T09:01:23Z</time>
      </trkpt>
      <trkpt lat="45.97779" lon="6.79693">
        <ele>2125.1</ele>
        <time>2013-08-26T09:01:29Z</time>
      </trkpt>
      <trkpt lat="45.97778" lon="6.79692">
        <ele>2125.1</ele>
        <time>2013-08-26T09:01:30Z</time>
      </trkpt>
      <trkpt lat="45.9777" lon="6.79689">
        <ele>2123.2</ele>
        <time>2013-08-26T09:01:42Z</time>
      </trkpt>
      <trkpt lat="45.97764" lon="6.79684">
        <ele>2121.8</ele>
        <time>2013-08-26T09:02:03Z</time>
      </trkpt>
      <trkpt lat="45.97759" lon="6.79679">
        <ele>2121.3</ele>
        <time>2013-08-26T09:02:06Z</time>
      </trkpt>
      <trkpt lat="45.97759" lon="6.79676">
        <ele>2120.8</ele>
        <time>2013-08-26T09:02:07Z</time>
      </trkpt>
      <trkpt lat="45.97759" lon="6.79673">
        <ele>2120.8</ele>
        <time>2013-08-26T09:02:08Z</time>
      </trkpt>
      <trkpt lat="45.97758" lon="6.79671">
        <ele>2119.8</ele>
        <time>2013-08-26T09:02:09Z</time>
      </trkpt>
      <trkpt lat="45.97758" lon="6.79668">
        <ele>2119.8</ele>
        <time>2013-08-26T09:02:10Z</time>
      </trkpt>
      <trkpt lat="45.97758" lon="6.79666">
        <ele>2119.4</ele>
        <time>2013-08-26T09:02:11Z</time>
      </trkpt>
      <trkpt lat="45.97758" lon="6.79664">
        <ele>2118.9</ele>
        <time>2013-08-26T09:02:12Z</time>
      </trkpt>
      <trkpt lat="45.97758" lon="6.79662">
        <ele>2118.9</ele>
        <time>2013-08-26T09:02:13Z</time>
      </trkpt>
      <trkpt lat="45.97756" lon="6.79659">
        <ele>2117.4</ele>
        <time>2013-08-26T09:02:15Z</time>
      </trkpt>
      <trkpt lat="45.97755" lon="6.79658">
        <ele>2116.5</ele>
        <time>2013-08-26T09:02:16Z</time>
      </trkpt>
      <trkpt lat="45.97753" lon="6.79659">
        <ele>2116</ele>
        <time>2013-08-26T09:02:17Z</time>
      </trkpt>
      <trkpt lat="45.97745" lon="6.79659">
        <ele>2113.1</ele>
        <time>2013-08-26T09:02:26Z</time>
      </trkpt>
      <trkpt lat="45.97743" lon="6.79658">
        <ele>2112.2</ele>
        <time>2013-08-26T09:02:27Z</time>
      </trkpt>
      <trkpt lat="45.97738" lon="6.79654">
        <ele>2110.2</ele>
        <time>2013-08-26T09:02:31Z</time>
      </trkpt>
      <trkpt lat="45.97735" lon="6.79652">
        <ele>2109.3</ele>
        <time>2013-08-26T09:02:33Z</time>
      </trkpt>
      <trkpt lat="45.97731" lon="6.79652">
        <ele>2107.8</ele>
        <time>2013-08-26T09:02:35Z</time>
      </trkpt>
      <trkpt lat="45.9773" lon="6.79652">
        <ele>2107.4</ele>
        <time>2013-08-26T09:02:36Z</time>
      </trkpt>
      <trkpt lat="45.97728" lon="6.79651">
        <ele>2106.9</ele>
        <time>2013-08-26T09:02:37Z</time>
      </trkpt>
      <trkpt lat="45.97726" lon="6.79649">
        <ele>2105.4</ele>
        <time>2013-08-26T09:02:38Z</time>
      </trkpt>
      <trkpt lat="45.97724" lon="6.79647">
        <ele>2104.9</ele>
        <time>2013-08-26T09:02:39Z</time>
      </trkpt>
      <trkpt lat="45.97722" lon="6.79644">
        <ele>2104.5</ele>
        <time>2013-08-26T09:02:40Z</time>
      </trkpt>
      <trkpt lat="45.97721" lon="6.79643">
        <ele>2103.5</ele>
        <time>2013-08-26T09:02:41Z</time>
      </trkpt>
      <trkpt lat="45.9772" lon="6.79642">
        <ele>2103</ele>
        <time>2013-08-26T09:02:42Z</time>
      </trkpt>
      <trkpt lat="45.97718" lon="6.79646">
        <ele>2102.5</ele>
        <time>2013-08-26T09:02:43Z</time>
      </trkpt>
      <trkpt lat="45.97718" lon="6.7965">
        <ele>2102.1</ele>
        <time>2013-08-26T09:02:44Z</time>
      </trkpt>
      <trkpt lat="45.97718" lon="6.79653">
        <ele>2101.6</ele>
        <time>2013-08-26T09:02:45Z</time>
      </trkpt>
      <trkpt lat="45.97718" lon="6.79657">
        <ele>2101.1</ele>
        <time>2013-08-26T09:02:46Z</time>
      </trkpt>
      <trkpt lat="45.97718" lon="6.79675">
        <ele>2097.7</ele>
        <time>2013-08-26T09:02:51Z</time>
      </trkpt>
      <trkpt lat="45.97718" lon="6.79678">
        <ele>2097.7</ele>
        <time>2013-08-26T09:02:52Z</time>
      </trkpt>
      <trkpt lat="45.97719" lon="6.79685">
        <ele>2094.9</ele>
        <time>2013-08-26T09:02:58Z</time>
      </trkpt>
      <trkpt lat="45.97717" lon="6.79685">
        <ele>2094.4</ele>
        <time>2013-08-26T09:02:59Z</time>
      </trkpt>
      <trkpt lat="45.97715" lon="6.79684">
        <ele>2093.4</ele>
        <time>2013-08-26T09:03:00Z</time>
      </trkpt>
      <trkpt lat="45.97713" lon="6.79684">
        <ele>2093.4</ele>
        <time>2013-08-26T09:03:01Z</time>
      </trkpt>
      <trkpt lat="45.97712" lon="6.79683">
        <ele>2092.5</ele>
        <time>2013-08-26T09:03:02Z</time>
      </trkpt>
      <trkpt lat="45.97711" lon="6.79682">
        <ele>2092.5</ele>
        <time>2013-08-26T09:03:03Z</time>
      </trkpt>
      <trkpt lat="45.9771" lon="6.7968">
        <ele>2092.5</ele>
        <time>2013-08-26T09:03:04Z</time>
      </trkpt>
      <trkpt lat="45.97709" lon="6.79679">
        <ele>2092</ele>
        <time>2013-08-26T09:03:05Z</time>
      </trkpt>
      <trkpt lat="45.97707" lon="6.79677">
        <ele>2090.5</ele>
        <time>2013-08-26T09:03:19Z</time>
      </trkpt>
      <trkpt lat="45.97708" lon="6.79674">
        <ele>2091</ele>
        <time>2013-08-26T09:03:54Z</time>
      </trkpt>
      <trkpt lat="45.97709" lon="6.79671">
        <ele>2091</ele>
        <time>2013-08-26T09:04:29Z</time>
      </trkpt>
      <trkpt lat="45.97708" lon="6.7967">
        <ele>2090</ele>
        <time>2013-08-26T09:04:30Z</time>
      </trkpt>
      <trkpt lat="45.97708" lon="6.79669">
        <ele>2089.6</ele>
        <time>2013-08-26T09:04:31Z</time>
      </trkpt>
      <trkpt lat="45.97707" lon="6.79667">
        <ele>2090</ele>
        <time>2013-08-26T09:04:32Z</time>
      </trkpt>
      <trkpt lat="45.97706" lon="6.79666">
        <ele>2089.6</ele>
        <time>2013-08-26T09:04:33Z</time>
      </trkpt>
      <trkpt lat="45.97705" lon="6.79666">
        <ele>2089.6</ele>
        <time>2013-08-26T09:04:34Z</time>
      </trkpt>
      <trkpt lat="45.97701" lon="6.79669">
        <ele>2089.6</ele>
        <time>2013-08-26T09:04:41Z</time>
      </trkpt>
      <trkpt lat="45.977" lon="6.7967">
        <ele>2088.1</ele>
        <time>2013-08-26T09:04:43Z</time>
      </trkpt>
      <trkpt lat="45.97699" lon="6.79671">
        <ele>2088.1</ele>
        <time>2013-08-26T09:04:44Z</time>
      </trkpt>
      <trkpt lat="45.97696" lon="6.79673">
        <ele>2087.2</ele>
        <time>2013-08-26T09:04:47Z</time>
      </trkpt>
      <trkpt lat="45.97695" lon="6.79675">
        <ele>2086.7</ele>
        <time>2013-08-26T09:04:48Z</time>
      </trkpt>
      <trkpt lat="45.97693" lon="6.79679">
        <ele>2085.7</ele>
        <time>2013-08-26T09:04:56Z</time>
      </trkpt>
      <trkpt lat="45.97692" lon="6.79681">
        <ele>2085.2</ele>
        <time>2013-08-26T09:04:57Z</time>
      </trkpt>
      <trkpt lat="45.97691" lon="6.79682">
        <ele>2085.7</ele>
        <time>2013-08-26T09:04:58Z</time>
      </trkpt>
      <trkpt lat="45.97689" lon="6.79682">
        <ele>2084.8</ele>
        <time>2013-08-26T09:04:59Z</time>
      </trkpt>
      <trkpt lat="45.97687" lon="6.79682">
        <ele>2084.3</ele>
        <time>2013-08-26T09:05:00Z</time>
      </trkpt>
      <trkpt lat="45.97686" lon="6.79682">
        <ele>2083.8</ele>
        <time>2013-08-26T09:05:01Z</time>
      </trkpt>
      <trkpt lat="45.97684" lon="6.79681">
        <ele>2083.8</ele>
        <time>2013-08-26T09:05:02Z</time>
      </trkpt>
      <trkpt lat="45.97683" lon="6.79679">
        <ele>2083.3</ele>
        <time>2013-08-26T09:05:03Z</time>
      </trkpt>
      <trkpt lat="45.97682" lon="6.79679">
        <ele>2082.8</ele>
        <time>2013-08-26T09:05:04Z</time>
      </trkpt>
      <trkpt lat="45.97678" lon="6.7968">
        <ele>2081.4</ele>
        <time>2013-08-26T09:05:06Z</time>
      </trkpt>
      <trkpt lat="45.97676" lon="6.79678">
        <ele>2081.4</ele>
        <time>2013-08-26T09:05:07Z</time>
      </trkpt>
      <trkpt lat="45.97674" lon="6.79675">
        <ele>2080</ele>
        <time>2013-08-26T09:05:08Z</time>
      </trkpt>
      <trkpt lat="45.97671" lon="6.79672">
        <ele>2079</ele>
        <time>2013-08-26T09:05:09Z</time>
      </trkpt>
      <trkpt lat="45.97669" lon="6.7967">
        <ele>2078.5</ele>
        <time>2013-08-26T09:05:10Z</time>
      </trkpt>
      <trkpt lat="45.97666" lon="6.79667">
        <ele>2078</ele>
        <time>2013-08-26T09:05:11Z</time>
      </trkpt>
      <trkpt lat="45.97663" lon="6.79666">
        <ele>2076.6</ele>
        <time>2013-08-26T09:05:12Z</time>
      </trkpt>
      <trkpt lat="45.9766" lon="6.79665">
        <ele>2076.1</ele>
        <time>2013-08-26T09:05:13Z</time>
      </trkpt>
      <trkpt lat="45.97657" lon="6.79664">
        <ele>2074.7</ele>
        <time>2013-08-26T09:05:15Z</time>
      </trkpt>
      <trkpt lat="45.97655" lon="6.79663">
        <ele>2074.2</ele>
        <time>2013-08-26T09:05:16Z</time>
      </trkpt>
      <trkpt lat="45.97654" lon="6.79663">
        <ele>2073.2</ele>
        <time>2013-08-26T09:05:17Z</time>
      </trkpt>
      <trkpt lat="45.97653" lon="6.79662">
        <ele>2072.7</ele>
        <time>2013-08-26T09:05:18Z</time>
      </trkpt>
      <trkpt lat="45.97651" lon="6.79661">
        <ele>2071.8</ele>
        <time>2013-08-26T09:05:20Z</time>
      </trkpt>
      <trkpt lat="45.97649" lon="6.7966">
        <ele>2071.8</ele>
        <time>2013-08-26T09:05:21Z</time>
      </trkpt>
      <trkpt lat="45.97648" lon="6.79659">
        <ele>2071.8</ele>
        <time>2013-08-26T09:05:22Z</time>
      </trkpt>
      <trkpt lat="45.97646" lon="6.79658">
        <ele>2070.8</ele>
        <time>2013-08-26T09:05:23Z</time>
      </trkpt>
      <trkpt lat="45.97644" lon="6.79656">
        <ele>2070.8</ele>
        <time>2013-08-26T09:05:24Z</time>
      </trkpt>
      <trkpt lat="45.97642" lon="6.79654">
        <ele>2069.9</ele>
        <time>2013-08-26T09:05:25Z</time>
      </trkpt>
      <trkpt lat="45.9764" lon="6.79652">
        <ele>2069.4</ele>
        <time>2013-08-26T09:05:26Z</time>
      </trkpt>
      <trkpt lat="45.97632" lon="6.79648">
        <ele>2067.9</ele>
        <time>2013-08-26T09:05:29Z</time>
      </trkpt>
      <trkpt lat="45.97627" lon="6.79643">
        <ele>2066.5</ele>
        <time>2013-08-26T09:05:32Z</time>
      </trkpt>
      <trkpt lat="45.97627" lon="6.79641">
        <ele>2066.5</ele>
        <time>2013-08-26T09:05:33Z</time>
      </trkpt>
      <trkpt lat="45.97627" lon="6.79639">
        <ele>2066</ele>
        <time>2013-08-26T09:05:34Z</time>
      </trkpt>
      <trkpt lat="45.97626" lon="6.79637">
        <ele>2066</ele>
        <time>2013-08-26T09:05:37Z</time>
      </trkpt>
      <trkpt lat="45.97613" lon="6.79637">
        <ele>2063.6</ele>
        <time>2013-08-26T09:05:48Z</time>
      </trkpt>
      <trkpt lat="45.97613" lon="6.79636">
        <ele>2064.1</ele>
        <time>2013-08-26T09:06:13Z</time>
      </trkpt>
      <trkpt lat="45.97613" lon="6.79636">
        <ele>2064.1</ele>
        <time>2013-08-26T09:06:50Z</time>
      </trkpt>
      <trkpt lat="45.97601" lon="6.79628">
        <ele>2060.7</ele>
        <time>2013-08-26T09:06:58Z</time>
      </trkpt>
      <trkpt lat="45.97592" lon="6.79621">
        <ele>2059.8</ele>
        <time>2013-08-26T09:07:00Z</time>
      </trkpt>
      <trkpt lat="45.97584" lon="6.79611">
        <ele>2056.9</ele>
        <time>2013-08-26T09:07:03Z</time>
      </trkpt>
      <trkpt lat="45.97582" lon="6.79611">
        <ele>2056.4</ele>
        <time>2013-08-26T09:07:04Z</time>
      </trkpt>
      <trkpt lat="45.9758" lon="6.79611">
        <ele>2056.4</ele>
        <time>2013-08-26T09:07:05Z</time>
      </trkpt>
      <trkpt lat="45.97578" lon="6.7961">
        <ele>2056.4</ele>
        <time>2013-08-26T09:07:06Z</time>
      </trkpt>
      <trkpt lat="45.97576" lon="6.79608">
        <ele>2056.4</ele>
        <time>2013-08-26T09:07:07Z</time>
      </trkpt>
      <trkpt lat="45.97574" lon="6.79606">
        <ele>2055.4</ele>
        <time>2013-08-26T09:07:08Z</time>
      </trkpt>
      <trkpt lat="45.97572" lon="6.79604">
        <ele>2054.5</ele>
        <time>2013-08-26T09:07:09Z</time>
      </trkpt>
      <trkpt lat="45.9757" lon="6.79602">
        <ele>2054</ele>
        <time>2013-08-26T09:07:10Z</time>
      </trkpt>
      <trkpt lat="45.97566" lon="6.796">
        <ele>2052.1</ele>
        <time>2013-08-26T09:07:21Z</time>
      </trkpt>
      <trkpt lat="45.97562" lon="6.79596">
        <ele>2052.1</ele>
        <time>2013-08-26T09:07:24Z</time>
      </trkpt>
      <trkpt lat="45.97559" lon="6.79596">
        <ele>2050.6</ele>
        <time>2013-08-26T09:07:25Z</time>
      </trkpt>
      <trkpt lat="45.97556" lon="6.79595">
        <ele>2050.2</ele>
        <time>2013-08-26T09:07:26Z</time>
      </trkpt>
      <trkpt lat="45.97551" lon="6.79592">
        <ele>2049.2</ele>
        <time>2013-08-26T09:07:27Z</time>
      </trkpt>
      <trkpt lat="45.97547" lon="6.79588">
        <ele>2047.8</ele>
        <time>2013-08-26T09:07:28Z</time>
      </trkpt>
      <trkpt lat="45.97542" lon="6.79583">
        <ele>2047.3</ele>
        <time>2013-08-26T09:07:29Z</time>
      </trkpt>
      <trkpt lat="45.97539" lon="6.79578">
        <ele>2047.8</ele>
        <time>2013-08-26T09:07:30Z</time>
      </trkpt>
      <trkpt lat="45.97533" lon="6.79563">
        <ele>2046.8</ele>
        <time>2013-08-26T09:07:34Z</time>
      </trkpt>
      <trkpt lat="45.9753" lon="6.79563">
        <ele>2046.3</ele>
        <time>2013-08-26T09:07:35Z</time>
      </trkpt>
      <trkpt lat="45.97527" lon="6.79563">
        <ele>2045.3</ele>
        <time>2013-08-26T09:07:36Z</time>
      </trkpt>
      <trkpt lat="45.97522" lon="6.79563">
        <ele>2045.3</ele>
        <time>2013-08-26T09:07:37Z</time>
      </trkpt>
      <trkpt lat="45.97518" lon="6.79562">
        <ele>2044.9</ele>
        <time>2013-08-26T09:07:38Z</time>
      </trkpt>
      <trkpt lat="45.97514" lon="6.79561">
        <ele>2043.9</ele>
        <time>2013-08-26T09:07:39Z</time>
      </trkpt>
      <trkpt lat="45.9751" lon="6.7956">
        <ele>2043.4</ele>
        <time>2013-08-26T09:07:40Z</time>
      </trkpt>
      <trkpt lat="45.97506" lon="6.79558">
        <ele>2043.4</ele>
        <time>2013-08-26T09:07:41Z</time>
      </trkpt>
      <trkpt lat="45.97503" lon="6.79557">
        <ele>2042.5</ele>
        <time>2013-08-26T09:07:42Z</time>
      </trkpt>
      <trkpt lat="45.97499" lon="6.79556">
        <ele>2042</ele>
        <time>2013-08-26T09:07:43Z</time>
      </trkpt>
      <trkpt lat="45.97495" lon="6.79555">
        <ele>2041.5</ele>
        <time>2013-08-26T09:07:44Z</time>
      </trkpt>
      <trkpt lat="45.97492" lon="6.79553">
        <ele>2041</ele>
        <time>2013-08-26T09:07:45Z</time>
      </trkpt>
      <trkpt lat="45.9749" lon="6.7955">
        <ele>2040.1</ele>
        <time>2013-08-26T09:07:46Z</time>
      </trkpt>
      <trkpt lat="45.97489" lon="6.79548">
        <ele>2040.1</ele>
        <time>2013-08-26T09:07:47Z</time>
      </trkpt>
      <trkpt lat="45.97487" lon="6.79546">
        <ele>2039.6</ele>
        <time>2013-08-26T09:07:48Z</time>
      </trkpt>
      <trkpt lat="45.97485" lon="6.79545">
        <ele>2039.1</ele>
        <time>2013-08-26T09:07:49Z</time>
      </trkpt>
      <trkpt lat="45.97483" lon="6.79544">
        <ele>2038.6</ele>
        <time>2013-08-26T09:07:50Z</time>
      </trkpt>
      <trkpt lat="45.97474" lon="6.79542">
        <ele>2037.2</ele>
        <time>2013-08-26T09:07:53Z</time>
      </trkpt>
      <trkpt lat="45.9746" lon="6.79533">
        <ele>2033.3</ele>
        <time>2013-08-26T09:07:58Z</time>
      </trkpt>
      <trkpt lat="45.97447" lon="6.79525">
        <ele>2030</ele>
        <time>2013-08-26T09:08:04Z</time>
      </trkpt>
      <trkpt lat="45.9744" lon="6.79521">
        <ele>2028.5</ele>
        <time>2013-08-26T09:08:07Z</time>
      </trkpt>
      <trkpt lat="45.97438" lon="6.7952">
        <ele>2027.6</ele>
        <time>2013-08-26T09:08:08Z</time>
      </trkpt>
      <trkpt lat="45.97435" lon="6.79521">
        <ele>2027.6</ele>
        <time>2013-08-26T09:08:09Z</time>
      </trkpt>
      <trkpt lat="45.97432" lon="6.79522">
        <ele>2026.6</ele>
        <time>2013-08-26T09:08:10Z</time>
      </trkpt>
      <trkpt lat="45.9743" lon="6.79523">
        <ele>2026.1</ele>
        <time>2013-08-26T09:08:11Z</time>
      </trkpt>
      <trkpt lat="45.97428" lon="6.79522">
        <ele>2025.6</ele>
        <time>2013-08-26T09:08:12Z</time>
      </trkpt>
      <trkpt lat="45.97426" lon="6.79521">
        <ele>2024.7</ele>
        <time>2013-08-26T09:08:13Z</time>
      </trkpt>
      <trkpt lat="45.97425" lon="6.79519">
        <ele>2024.7</ele>
        <time>2013-08-26T09:08:14Z</time>
      </trkpt>
      <trkpt lat="45.97423" lon="6.79517">
        <ele>2024.2</ele>
        <time>2013-08-26T09:08:15Z</time>
      </trkpt>
      <trkpt lat="45.97417" lon="6.79512">
        <ele>2022.3</ele>
        <time>2013-08-26T09:08:18Z</time>
      </trkpt>
      <trkpt lat="45.97416" lon="6.7951">
        <ele>2021.8</ele>
        <time>2013-08-26T09:08:19Z</time>
      </trkpt>
      <trkpt lat="45.97414" lon="6.79508">
        <ele>2021.8</ele>
        <time>2013-08-26T09:08:20Z</time>
      </trkpt>
      <trkpt lat="45.97413" lon="6.79505">
        <ele>2021.8</ele>
        <time>2013-08-26T09:08:21Z</time>
      </trkpt>
      <trkpt lat="45.97413" lon="6.79503">
        <ele>2021.3</ele>
        <time>2013-08-26T09:08:22Z</time>
      </trkpt>
      <trkpt lat="45.97412" lon="6.79498">
        <ele>2020.8</ele>
        <time>2013-08-26T09:08:24Z</time>
      </trkpt>
      <trkpt lat="45.97411" lon="6.79498">
        <ele>2019.9</ele>
        <time>2013-08-26T09:08:25Z</time>
      </trkpt>
      <trkpt lat="45.97409" lon="6.79498">
        <ele>2019.9</ele>
        <time>2013-08-26T09:08:26Z</time>
      </trkpt>
      <trkpt lat="45.97406" lon="6.79497">
        <ele>2019.9</ele>
        <time>2013-08-26T09:08:27Z</time>
      </trkpt>
      <trkpt lat="45.97404" lon="6.79495">
        <ele>2019.4</ele>
        <time>2013-08-26T09:08:28Z</time>
      </trkpt>
      <trkpt lat="45.97401" lon="6.79494">
        <ele>2018.9</ele>
        <time>2013-08-26T09:08:29Z</time>
      </trkpt>
      <trkpt lat="45.97397" lon="6.79494">
        <ele>2017.9</ele>
        <time>2013-08-26T09:08:30Z</time>
      </trkpt>
      <trkpt lat="45.97393" lon="6.79494">
        <ele>2017.5</ele>
        <time>2013-08-26T09:08:31Z</time>
      </trkpt>
      <trkpt lat="45.97382" lon="6.79491">
        <ele>2014.6</ele>
        <time>2013-08-26T09:08:34Z</time>
      </trkpt>
      <trkpt lat="45.97372" lon="6.79485">
        <ele>2011.2</ele>
        <time>2013-08-26T09:08:37Z</time>
      </trkpt>
      <trkpt lat="45.97364" lon="6.7948">
        <ele>2008.3</ele>
        <time>2013-08-26T09:08:41Z</time>
      </trkpt>
      <trkpt lat="45.97364" lon="6.79478">
        <ele>2008.3</ele>
        <time>2013-08-26T09:09:00Z</time>
      </trkpt>
      <trkpt lat="45.97365" lon="6.7948">
        <ele>2007.4</ele>
        <time>2013-08-26T09:09:22Z</time>
      </trkpt>
      <trkpt lat="45.97365" lon="6.7948">
        <ele>2007.9</ele>
        <time>2013-08-26T09:10:18Z</time>
      </trkpt>
      <trkpt lat="45.97364" lon="6.79479">
        <ele>2007.9</ele>
        <time>2013-08-26T09:10:37Z</time>
      </trkpt>
      <trkpt lat="45.97362" lon="6.79474">
        <ele>2008.3</ele>
        <time>2013-08-26T09:10:51Z</time>
      </trkpt>
      <trkpt lat="45.97361" lon="6.79472">
        <ele>2008.3</ele>
        <time>2013-08-26T09:10:52Z</time>
      </trkpt>
      <trkpt lat="45.9736" lon="6.7947">
        <ele>2008.3</ele>
        <time>2013-08-26T09:10:53Z</time>
      </trkpt>
      <trkpt lat="45.97359" lon="6.79469">
        <ele>2008.3</ele>
        <time>2013-08-26T09:10:54Z</time>
      </trkpt>
      <trkpt lat="45.97358" lon="6.79467">
        <ele>2007.9</ele>
        <time>2013-08-26T09:10:55Z</time>
      </trkpt>
      <trkpt lat="45.97358" lon="6.79464">
        <ele>2008.3</ele>
        <time>2013-08-26T09:10:56Z</time>
      </trkpt>
      <trkpt lat="45.97357" lon="6.79461">
        <ele>2007.9</ele>
        <time>2013-08-26T09:10:57Z</time>
      </trkpt>
      <trkpt lat="45.97356" lon="6.79457">
        <ele>2007.4</ele>
        <time>2013-08-26T09:10:58Z</time>
      </trkpt>
      <trkpt lat="45.97354" lon="6.7945">
        <ele>2006.9</ele>
        <time>2013-08-26T09:11:06Z</time>
      </trkpt>
      <trkpt lat="45.97354" lon="6.79451">
        <ele>2006.9</ele>
        <time>2013-08-26T09:11:23Z</time>
      </trkpt>
      <trkpt lat="45.97353" lon="6.7944">
        <ele>2005.9</ele>
        <time>2013-08-26T09:11:39Z</time>
      </trkpt>
      <trkpt lat="45.97353" lon="6.79437">
        <ele>2005.5</ele>
        <time>2013-08-26T09:11:40Z</time>
      </trkpt>
      <trkpt lat="45.97349" lon="6.79401">
        <ele>2003.5</ele>
        <time>2013-08-26T09:11:50Z</time>
      </trkpt>
      <trkpt lat="45.97349" lon="6.79387">
        <ele>2001.6</ele>
        <time>2013-08-26T09:11:52Z</time>
      </trkpt>
      <trkpt lat="45.97349" lon="6.79381">
        <ele>2001.6</ele>
        <time>2013-08-26T09:11:53Z</time>
      </trkpt>
      <trkpt lat="45.97346" lon="6.79362">
        <ele>2001.1</ele>
        <time>2013-08-26T09:11:56Z</time>
      </trkpt>
      <trkpt lat="45.97346" lon="6.79357">
        <ele>2001.1</ele>
        <time>2013-08-26T09:11:57Z</time>
      </trkpt>
      <trkpt lat="45.97347" lon="6.79354">
        <ele>2000.6</ele>
        <time>2013-08-26T09:11:58Z</time>
      </trkpt>
      <trkpt lat="45.97347" lon="6.79351">
        <ele>2000.2</ele>
        <time>2013-08-26T09:11:59Z</time>
      </trkpt>
      <trkpt lat="45.97347" lon="6.79348">
        <ele>2000.6</ele>
        <time>2013-08-26T09:12:00Z</time>
      </trkpt>
      <trkpt lat="45.97348" lon="6.79346">
        <ele>2000.2</ele>
        <time>2013-08-26T09:12:01Z</time>
      </trkpt>
      <trkpt lat="45.97349" lon="6.79343">
        <ele>2000.2</ele>
        <time>2013-08-26T09:12:02Z</time>
      </trkpt>
      <trkpt lat="45.97349" lon="6.7934">
        <ele>2000.2</ele>
        <time>2013-08-26T09:12:03Z</time>
      </trkpt>
      <trkpt lat="45.97351" lon="6.79334">
        <ele>1999.2</ele>
        <time>2013-08-26T09:12:05Z</time>
      </trkpt>
      <trkpt lat="45.97352" lon="6.79331">
        <ele>1999.2</ele>
        <time>2013-08-26T09:12:06Z</time>
      </trkpt>
      <trkpt lat="45.97353" lon="6.79328">
        <ele>1999.2</ele>
        <time>2013-08-26T09:12:07Z</time>
      </trkpt>
      <trkpt lat="45.97352" lon="6.79325">
        <ele>1998.7</ele>
        <time>2013-08-26T09:12:08Z</time>
      </trkpt>
      <trkpt lat="45.97352" lon="6.79322">
        <ele>1997.8</ele>
        <time>2013-08-26T09:12:09Z</time>
      </trkpt>
      <trkpt lat="45.97352" lon="6.79319">
        <ele>1997.8</ele>
        <time>2013-08-26T09:12:10Z</time>
      </trkpt>
      <trkpt lat="45.97351" lon="6.79316">
        <ele>1997.3</ele>
        <time>2013-08-26T09:12:11Z</time>
      </trkpt>
      <trkpt lat="45.97351" lon="6.79313">
        <ele>1996.8</ele>
        <time>2013-08-26T09:12:12Z</time>
      </trkpt>
      <trkpt lat="45.97351" lon="6.7931">
        <ele>1996.3</ele>
        <time>2013-08-26T09:12:13Z</time>
      </trkpt>
      <trkpt lat="45.97353" lon="6.79287">
        <ele>1996.3</ele>
        <time>2013-08-26T09:12:23Z</time>
      </trkpt>
      <trkpt lat="45.97354" lon="6.79268">
        <ele>1997.3</ele>
        <time>2013-08-26T09:12:31Z</time>
      </trkpt>
      <trkpt lat="45.97354" lon="6.79266">
        <ele>1997.3</ele>
        <time>2013-08-26T09:12:32Z</time>
      </trkpt>
      <trkpt lat="45.97353" lon="6.79264">
        <ele>1997.8</ele>
        <time>2013-08-26T09:12:33Z</time>
      </trkpt>
      <trkpt lat="45.97352" lon="6.79262">
        <ele>1998.2</ele>
        <time>2013-08-26T09:12:34Z</time>
      </trkpt>
      <trkpt lat="45.97351" lon="6.79261">
        <ele>1998.2</ele>
        <time>2013-08-26T09:12:35Z</time>
      </trkpt>
      <trkpt lat="45.9735" lon="6.7926">
        <ele>1997.8</ele>
        <time>2013-08-26T09:12:36Z</time>
      </trkpt>
      <trkpt lat="45.97348" lon="6.79252">
        <ele>1997.8</ele>
        <time>2013-08-26T09:12:46Z</time>
      </trkpt>
      <trkpt lat="45.97344" lon="6.79249">
        <ele>1997.3</ele>
        <time>2013-08-26T09:12:52Z</time>
      </trkpt>
      <trkpt lat="45.97339" lon="6.7925">
        <ele>1997.8</ele>
        <time>2013-08-26T09:13:04Z</time>
      </trkpt>
      <trkpt lat="45.97338" lon="6.79249">
        <ele>1996.8</ele>
        <time>2013-08-26T09:13:27Z</time>
      </trkpt>
      <trkpt lat="45.97329" lon="6.79245">
        <ele>1995.4</ele>
        <time>2013-08-26T09:13:40Z</time>
      </trkpt>
      <trkpt lat="45.9732" lon="6.7924">
        <ele>1993</ele>
        <time>2013-08-26T09:13:55Z</time>
      </trkpt>
      <trkpt lat="45.97307" lon="6.79231">
        <ele>1991</ele>
        <time>2013-08-26T09:14:15Z</time>
      </trkpt>
      <trkpt lat="45.97296" lon="6.79221">
        <ele>1989.6</ele>
        <time>2013-08-26T09:14:33Z</time>
      </trkpt>
      <trkpt lat="45.9729" lon="6.79213">
        <ele>1988.6</ele>
        <time>2013-08-26T09:14:50Z</time>
      </trkpt>
      <trkpt lat="45.9728" lon="6.79202">
        <ele>1987.7</ele>
        <time>2013-08-26T09:15:03Z</time>
      </trkpt>
      <trkpt lat="45.97279" lon="6.792">
        <ele>1988.1</ele>
        <time>2013-08-26T09:15:04Z</time>
      </trkpt>
      <trkpt lat="45.97278" lon="6.79199">
        <ele>1987.7</ele>
        <time>2013-08-26T09:15:05Z</time>
      </trkpt>
      <trkpt lat="45.9727" lon="6.79193">
        <ele>1988.1</ele>
        <time>2013-08-26T09:15:11Z</time>
      </trkpt>
      <trkpt lat="45.97268" lon="6.79192">
        <ele>1987.2</ele>
        <time>2013-08-26T09:15:12Z</time>
      </trkpt>
      <trkpt lat="45.97267" lon="6.7919">
        <ele>1986.7</ele>
        <time>2013-08-26T09:15:13Z</time>
      </trkpt>
      <trkpt lat="45.97246" lon="6.79163">
        <ele>1984.3</ele>
        <time>2013-08-26T09:15:28Z</time>
      </trkpt>
      <trkpt lat="45.97243" lon="6.7916">
        <ele>1983.8</ele>
        <time>2013-08-26T09:15:29Z</time>
      </trkpt>
      <trkpt lat="45.9723" lon="6.79143">
        <ele>1982.4</ele>
        <time>2013-08-26T09:15:33Z</time>
      </trkpt>
      <trkpt lat="45.97226" lon="6.79139">
        <ele>1981.9</ele>
        <time>2013-08-26T09:15:34Z</time>
      </trkpt>
      <trkpt lat="45.97223" lon="6.79133">
        <ele>1980.9</ele>
        <time>2013-08-26T09:15:35Z</time>
      </trkpt>
      <trkpt lat="45.97219" lon="6.79127">
        <ele>1980.5</ele>
        <time>2013-08-26T09:15:36Z</time>
      </trkpt>
      <trkpt lat="45.97216" lon="6.79121">
        <ele>1980.5</ele>
        <time>2013-08-26T09:15:37Z</time>
      </trkpt>
      <trkpt lat="45.97202" lon="6.79093">
        <ele>1981.4</ele>
        <time>2013-08-26T09:15:46Z</time>
      </trkpt>
      <trkpt lat="45.97184" lon="6.7907">
        <ele>1980.9</ele>
        <time>2013-08-26T09:15:55Z</time>
      </trkpt>
      <trkpt lat="45.97158" lon="6.79065">
        <ele>1980.9</ele>
        <time>2013-08-26T09:16:04Z</time>
      </trkpt>
      <trkpt lat="45.97142" lon="6.79036">
        <ele>1981.4</ele>
        <time>2013-08-26T09:16:13Z</time>
      </trkpt>
      <trkpt lat="45.9712" lon="6.7902">
        <ele>1982.9</ele>
        <time>2013-08-26T09:16:24Z</time>
      </trkpt>
      <trkpt lat="45.97113" lon="6.79011">
        <ele>1983.8</ele>
        <time>2013-08-26T09:16:29Z</time>
      </trkpt>
      <trkpt lat="45.97095" lon="6.7899">
        <ele>1984.8</ele>
        <time>2013-08-26T09:16:39Z</time>
      </trkpt>
      <trkpt lat="45.97077" lon="6.78983">
        <ele>1984.3</ele>
        <time>2013-08-26T09:16:48Z</time>
      </trkpt>
      <trkpt lat="45.97062" lon="6.78988">
        <ele>1980.9</ele>
        <time>2013-08-26T09:16:54Z</time>
      </trkpt>
      <trkpt lat="45.97056" lon="6.78987">
        <ele>1980.5</ele>
        <time>2013-08-26T09:16:56Z</time>
      </trkpt>
      <trkpt lat="45.97032" lon="6.78981">
        <ele>1977.1</ele>
        <time>2013-08-26T09:17:03Z</time>
      </trkpt>
      <trkpt lat="45.97027" lon="6.78978">
        <ele>1977.1</ele>
        <time>2013-08-26T09:17:04Z</time>
      </trkpt>
      <trkpt lat="45.9702" lon="6.78972">
        <ele>1976.6</ele>
        <time>2013-08-26T09:17:06Z</time>
      </trkpt>
      <trkpt lat="45.97017" lon="6.78968">
        <ele>1976.1</ele>
        <time>2013-08-26T09:17:07Z</time>
      </trkpt>
      <trkpt lat="45.97015" lon="6.78963">
        <ele>1975.7</ele>
        <time>2013-08-26T09:17:08Z</time>
      </trkpt>
      <trkpt lat="45.97015" lon="6.78958">
        <ele>1975.2</ele>
        <time>2013-08-26T09:17:09Z</time>
      </trkpt>
      <trkpt lat="45.97015" lon="6.78953">
        <ele>1975.2</ele>
        <time>2013-08-26T09:17:10Z</time>
      </trkpt>
      <trkpt lat="45.97015" lon="6.7895">
        <ele>1974.2</ele>
        <time>2013-08-26T09:17:11Z</time>
      </trkpt>
      <trkpt lat="45.97015" lon="6.78945">
        <ele>1970.4</ele>
        <time>2013-08-26T09:17:22Z</time>
      </trkpt>
      <trkpt lat="45.97015" lon="6.78945">
        <ele>1977.1</ele>
        <time>2013-08-26T09:17:23Z</time>
      </trkpt>
      <trkpt lat="45.97015" lon="6.78945">
        <ele>1973.7</ele>
        <time>2013-08-26T09:17:24Z</time>
      </trkpt>
      <trkpt lat="45.97016" lon="6.78946">
        <ele>1974.2</ele>
        <time>2013-08-26T09:17:51Z</time>
      </trkpt>
      <trkpt lat="45.97015" lon="6.78948">
        <ele>1974.2</ele>
        <time>2013-08-26T09:18:26Z</time>
      </trkpt>
      <trkpt lat="45.97015" lon="6.78949">
        <ele>1973.7</ele>
        <time>2013-08-26T09:18:50Z</time>
      </trkpt>
      <trkpt lat="45.97017" lon="6.78945">
        <ele>1972.8</ele>
        <time>2013-08-26T09:19:17Z</time>
      </trkpt>
      <trkpt lat="45.97018" lon="6.78945">
        <ele>1973.7</ele>
        <time>2013-08-26T09:19:44Z</time>
      </trkpt>
      <trkpt lat="45.97014" lon="6.78946">
        <ele>1973.7</ele>
        <time>2013-08-26T09:20:22Z</time>
      </trkpt>
      <trkpt lat="45.97015" lon="6.78948">
        <ele>1973.7</ele>
        <time>2013-08-26T09:20:54Z</time>
      </trkpt>
      <trkpt lat="45.97013" lon="6.78948">
        <ele>1973.7</ele>
        <time>2013-08-26T09:21:27Z</time>
      </trkpt>
      <trkpt lat="45.97014" lon="6.78948">
        <ele>1973.7</ele>
        <time>2013-08-26T09:21:54Z</time>
      </trkpt>
      <trkpt lat="45.97017" lon="6.78942">
        <ele>1973.2</ele>
        <time>2013-08-26T09:22:19Z</time>
      </trkpt>
      <trkpt lat="45.9702" lon="6.78941">
        <ele>1973.2</ele>
        <time>2013-08-26T09:22:53Z</time>
      </trkpt>
      <trkpt lat="45.97022" lon="6.78944">
        <ele>1972.8</ele>
        <time>2013-08-26T09:23:27Z</time>
      </trkpt>
      <trkpt lat="45.97017" lon="6.78947">
        <ele>1972.8</ele>
        <time>2013-08-26T09:23:50Z</time>
      </trkpt>
      <trkpt lat="45.97015" lon="6.78948">
        <ele>1972.8</ele>
        <time>2013-08-26T09:24:25Z</time>
      </trkpt>
      <trkpt lat="45.97018" lon="6.78944">
        <ele>1973.2</ele>
        <time>2013-08-26T09:24:46Z</time>
      </trkpt>
      <trkpt lat="45.97018" lon="6.78944">
        <ele>1972.8</ele>
        <time>2013-08-26T09:25:21Z</time>
      </trkpt>
      <trkpt lat="45.97018" lon="6.78942">
        <ele>1972.8</ele>
        <time>2013-08-26T09:25:47Z</time>
      </trkpt>
      <trkpt lat="45.97018" lon="6.78941">
        <ele>1973.7</ele>
        <time>2013-08-26T09:25:48Z</time>
      </trkpt>
      <trkpt lat="45.97019" lon="6.78939">
        <ele>1973.2</ele>
        <time>2013-08-26T09:25:49Z</time>
      </trkpt>
      <trkpt lat="45.97019" lon="6.78936">
        <ele>1972.3</ele>
        <time>2013-08-26T09:25:50Z</time>
      </trkpt>
      <trkpt lat="45.97024" lon="6.78915">
        <ele>1970.8</ele>
        <time>2013-08-26T09:25:55Z</time>
      </trkpt>
      <trkpt lat="45.97024" lon="6.78909">
        <ele>1970.8</ele>
        <time>2013-08-26T09:25:56Z</time>
      </trkpt>
      <trkpt lat="45.97024" lon="6.78901">
        <ele>1969.9</ele>
        <time>2013-08-26T09:25:57Z</time>
      </trkpt>
      <trkpt lat="45.97023" lon="6.78894">
        <ele>1969.9</ele>
        <time>2013-08-26T09:25:58Z</time>
      </trkpt>
      <trkpt lat="45.9702" lon="6.78888">
        <ele>1969.4</ele>
        <time>2013-08-26T09:25:59Z</time>
      </trkpt>
      <trkpt lat="45.97015" lon="6.78884">
        <ele>1967.5</ele>
        <time>2013-08-26T09:26:00Z</time>
      </trkpt>
      <trkpt lat="45.97009" lon="6.78879">
        <ele>1968</ele>
        <time>2013-08-26T09:26:01Z</time>
      </trkpt>
      <trkpt lat="45.97003" lon="6.78873">
        <ele>1966.5</ele>
        <time>2013-08-26T09:26:02Z</time>
      </trkpt>
      <trkpt lat="45.96999" lon="6.78869">
        <ele>1966</ele>
        <time>2013-08-26T09:26:03Z</time>
      </trkpt>
      <trkpt lat="45.96995" lon="6.78864">
        <ele>1966</ele>
        <time>2013-08-26T09:26:04Z</time>
      </trkpt>
      <trkpt lat="45.96993" lon="6.7886">
        <ele>1966</ele>
        <time>2013-08-26T09:26:05Z</time>
      </trkpt>
      <trkpt lat="45.96991" lon="6.78853">
        <ele>1966</ele>
        <time>2013-08-26T09:26:06Z</time>
      </trkpt>
      <trkpt lat="45.96991" lon="6.78845">
        <ele>1965.6</ele>
        <time>2013-08-26T09:26:07Z</time>
      </trkpt>
      <trkpt lat="45.96992" lon="6.78837">
        <ele>1964.6</ele>
        <time>2013-08-26T09:26:08Z</time>
      </trkpt>
      <trkpt lat="45.96991" lon="6.78829">
        <ele>1964.1</ele>
        <time>2013-08-26T09:26:09Z</time>
      </trkpt>
      <trkpt lat="45.9699" lon="6.78822">
        <ele>1964.6</ele>
        <time>2013-08-26T09:26:10Z</time>
      </trkpt>
      <trkpt lat="45.96989" lon="6.78816">
        <ele>1964.6</ele>
        <time>2013-08-26T09:26:11Z</time>
      </trkpt>
      <trkpt lat="45.96988" lon="6.78811">
        <ele>1964.6</ele>
        <time>2013-08-26T09:26:12Z</time>
      </trkpt>
      <trkpt lat="45.96983" lon="6.78788">
        <ele>1965.6</ele>
        <time>2013-08-26T09:26:17Z</time>
      </trkpt>
      <trkpt lat="45.9698" lon="6.78786">
        <ele>1964.6</ele>
        <time>2013-08-26T09:26:18Z</time>
      </trkpt>
      <trkpt lat="45.96979" lon="6.78784">
        <ele>1964.6</ele>
        <time>2013-08-26T09:26:19Z</time>
      </trkpt>
      <trkpt lat="45.96977" lon="6.78781">
        <ele>1963.6</ele>
        <time>2013-08-26T09:26:20Z</time>
      </trkpt>
      <trkpt lat="45.96975" lon="6.78779">
        <ele>1963.6</ele>
        <time>2013-08-26T09:26:21Z</time>
      </trkpt>
      <trkpt lat="45.96965" lon="6.78754">
        <ele>1964.6</ele>
        <time>2013-08-26T09:26:28Z</time>
      </trkpt>
      <trkpt lat="45.96963" lon="6.78753">
        <ele>1964.6</ele>
        <time>2013-08-26T09:26:29Z</time>
      </trkpt>
      <trkpt lat="45.96962" lon="6.78752">
        <ele>1965.1</ele>
        <time>2013-08-26T09:26:30Z</time>
      </trkpt>
      <trkpt lat="45.96959" lon="6.7875">
        <ele>1964.1</ele>
        <time>2013-08-26T09:26:31Z</time>
      </trkpt>
      <trkpt lat="45.96958" lon="6.78748">
        <ele>1963.6</ele>
        <time>2013-08-26T09:26:32Z</time>
      </trkpt>
      <trkpt lat="45.96957" lon="6.78746">
        <ele>1963.6</ele>
        <time>2013-08-26T09:26:33Z</time>
      </trkpt>
      <trkpt lat="45.96957" lon="6.78744">
        <ele>1964.1</ele>
        <time>2013-08-26T09:26:34Z</time>
      </trkpt>
      <trkpt lat="45.96955" lon="6.78738">
        <ele>1965.1</ele>
        <time>2013-08-26T09:26:40Z</time>
      </trkpt>
      <trkpt lat="45.96954" lon="6.78737">
        <ele>1964.6</ele>
        <time>2013-08-26T09:26:41Z</time>
      </trkpt>
      <trkpt lat="45.96952" lon="6.78723">
        <ele>1964.1</ele>
        <time>2013-08-26T09:26:52Z</time>
      </trkpt>
      <trkpt lat="45.96947" lon="6.78707">
        <ele>1964.6</ele>
        <time>2013-08-26T09:27:06Z</time>
      </trkpt>
      <trkpt lat="45.9694" lon="6.78708">
        <ele>1965.6</ele>
        <time>2013-08-26T09:27:20Z</time>
      </trkpt>
      <trkpt lat="45.96939" lon="6.78707">
        <ele>1965.1</ele>
        <time>2013-08-26T09:27:21Z</time>
      </trkpt>
      <trkpt lat="45.96938" lon="6.78706">
        <ele>1965.1</ele>
        <time>2013-08-26T09:27:22Z</time>
      </trkpt>
      <trkpt lat="45.96936" lon="6.78705">
        <ele>1965.1</ele>
        <time>2013-08-26T09:27:23Z</time>
      </trkpt>
      <trkpt lat="45.96934" lon="6.78704">
        <ele>1964.6</ele>
        <time>2013-08-26T09:27:24Z</time>
      </trkpt>
      <trkpt lat="45.96932" lon="6.78703">
        <ele>1964.6</ele>
        <time>2013-08-26T09:27:25Z</time>
      </trkpt>
      <trkpt lat="45.9693" lon="6.78702">
        <ele>1965.6</ele>
        <time>2013-08-26T09:27:26Z</time>
      </trkpt>
      <trkpt lat="45.96928" lon="6.787">
        <ele>1965.1</ele>
        <time>2013-08-26T09:27:27Z</time>
      </trkpt>
      <trkpt lat="45.96926" lon="6.78698">
        <ele>1966</ele>
        <time>2013-08-26T09:27:28Z</time>
      </trkpt>
      <trkpt lat="45.96923" lon="6.78694">
        <ele>1966</ele>
        <time>2013-08-26T09:27:30Z</time>
      </trkpt>
      <trkpt lat="45.96922" lon="6.78691">
        <ele>1966.5</ele>
        <time>2013-08-26T09:27:31Z</time>
      </trkpt>
      <trkpt lat="45.96921" lon="6.78688">
        <ele>1967</ele>
        <time>2013-08-26T09:27:32Z</time>
      </trkpt>
      <trkpt lat="45.9692" lon="6.78685">
        <ele>1967</ele>
        <time>2013-08-26T09:27:33Z</time>
      </trkpt>
      <trkpt lat="45.96918" lon="6.78683">
        <ele>1966.5</ele>
        <time>2013-08-26T09:27:34Z</time>
      </trkpt>
      <trkpt lat="45.96915" lon="6.78682">
        <ele>1965.6</ele>
        <time>2013-08-26T09:27:35Z</time>
      </trkpt>
      <trkpt lat="45.96912" lon="6.7868">
        <ele>1964.6</ele>
        <time>2013-08-26T09:27:36Z</time>
      </trkpt>
      <trkpt lat="45.96908" lon="6.78678">
        <ele>1965.1</ele>
        <time>2013-08-26T09:27:37Z</time>
      </trkpt>
      <trkpt lat="45.96906" lon="6.78675">
        <ele>1965.1</ele>
        <time>2013-08-26T09:27:38Z</time>
      </trkpt>
      <trkpt lat="45.96904" lon="6.78672">
        <ele>1965.6</ele>
        <time>2013-08-26T09:27:39Z</time>
      </trkpt>
      <trkpt lat="45.96903" lon="6.78668">
        <ele>1965.6</ele>
        <time>2013-08-26T09:27:40Z</time>
      </trkpt>
      <trkpt lat="45.96903" lon="6.78665">
        <ele>1966</ele>
        <time>2013-08-26T09:27:41Z</time>
      </trkpt>
      <trkpt lat="45.96902" lon="6.78661">
        <ele>1965.6</ele>
        <time>2013-08-26T09:27:42Z</time>
      </trkpt>
      <trkpt lat="45.96901" lon="6.78657">
        <ele>1965.6</ele>
        <time>2013-08-26T09:27:43Z</time>
      </trkpt>
      <trkpt lat="45.969" lon="6.78653">
        <ele>1966.5</ele>
        <time>2013-08-26T09:27:44Z</time>
      </trkpt>
      <trkpt lat="45.96899" lon="6.7865">
        <ele>1966</ele>
        <time>2013-08-26T09:27:45Z</time>
      </trkpt>
      <trkpt lat="45.96896" lon="6.78645">
        <ele>1965.6</ele>
        <time>2013-08-26T09:27:47Z</time>
      </trkpt>
      <trkpt lat="45.96894" lon="6.78644">
        <ele>1966</ele>
        <time>2013-08-26T09:27:48Z</time>
      </trkpt>
      <trkpt lat="45.96892" lon="6.78641">
        <ele>1966</ele>
        <time>2013-08-26T09:27:49Z</time>
      </trkpt>
      <trkpt lat="45.9689" lon="6.78637">
        <ele>1965.6</ele>
        <time>2013-08-26T09:27:50Z</time>
      </trkpt>
      <trkpt lat="45.96889" lon="6.78633">
        <ele>1965.6</ele>
        <time>2013-08-26T09:27:51Z</time>
      </trkpt>
      <trkpt lat="45.96887" lon="6.7863">
        <ele>1965.1</ele>
        <time>2013-08-26T09:27:52Z</time>
      </trkpt>
      <trkpt lat="45.96885" lon="6.78627">
        <ele>1965.6</ele>
        <time>2013-08-26T09:27:53Z</time>
      </trkpt>
      <trkpt lat="45.96884" lon="6.78623">
        <ele>1965.6</ele>
        <time>2013-08-26T09:27:54Z</time>
      </trkpt>
      <trkpt lat="45.96882" lon="6.7862">
        <ele>1966</ele>
        <time>2013-08-26T09:27:55Z</time>
      </trkpt>
      <trkpt lat="45.96881" lon="6.78617">
        <ele>1965.1</ele>
        <time>2013-08-26T09:27:56Z</time>
      </trkpt>
      <trkpt lat="45.96878" lon="6.78615">
        <ele>1964.6</ele>
        <time>2013-08-26T09:27:57Z</time>
      </trkpt>
      <trkpt lat="45.96876" lon="6.78613">
        <ele>1964.6</ele>
        <time>2013-08-26T09:27:58Z</time>
      </trkpt>
      <trkpt lat="45.96874" lon="6.78613">
        <ele>1964.1</ele>
        <time>2013-08-26T09:27:59Z</time>
      </trkpt>
      <trkpt lat="45.96871" lon="6.78612">
        <ele>1963.2</ele>
        <time>2013-08-26T09:28:00Z</time>
      </trkpt>
      <trkpt lat="45.96868" lon="6.7861">
        <ele>1962.7</ele>
        <time>2013-08-26T09:28:01Z</time>
      </trkpt>
      <trkpt lat="45.96866" lon="6.78606">
        <ele>1962.2</ele>
        <time>2013-08-26T09:28:02Z</time>
      </trkpt>
      <trkpt lat="45.96864" lon="6.78603">
        <ele>1961.7</ele>
        <time>2013-08-26T09:28:03Z</time>
      </trkpt>
      <trkpt lat="45.96862" lon="6.78601">
        <ele>1961.7</ele>
        <time>2013-08-26T09:28:04Z</time>
      </trkpt>
      <trkpt lat="45.96859" lon="6.786">
        <ele>1961.7</ele>
        <time>2013-08-26T09:28:05Z</time>
      </trkpt>
      <trkpt lat="45.96858" lon="6.78601">
        <ele>1961.2</ele>
        <time>2013-08-26T09:28:06Z</time>
      </trkpt>
      <trkpt lat="45.96855" lon="6.78602">
        <ele>1960.8</ele>
        <time>2013-08-26T09:28:07Z</time>
      </trkpt>
      <trkpt lat="45.96853" lon="6.78601">
        <ele>1959.8</ele>
        <time>2013-08-26T09:28:08Z</time>
      </trkpt>
      <trkpt lat="45.9685" lon="6.786">
        <ele>1958.3</ele>
        <time>2013-08-26T09:28:09Z</time>
      </trkpt>
      <trkpt lat="45.96849" lon="6.78599">
        <ele>1957.9</ele>
        <time>2013-08-26T09:28:10Z</time>
      </trkpt>
      <trkpt lat="45.96848" lon="6.78598">
        <ele>1957.9</ele>
        <time>2013-08-26T09:28:11Z</time>
      </trkpt>
      <trkpt lat="45.96849" lon="6.78598">
        <ele>1957.9</ele>
        <time>2013-08-26T09:28:36Z</time>
      </trkpt>
      <trkpt lat="45.96847" lon="6.78595">
        <ele>1957.4</ele>
        <time>2013-08-26T09:28:58Z</time>
      </trkpt>
      <trkpt lat="45.96839" lon="6.78587">
        <ele>1954</ele>
        <time>2013-08-26T09:29:04Z</time>
      </trkpt>
      <trkpt lat="45.96838" lon="6.78583">
        <ele>1954</ele>
        <time>2013-08-26T09:29:05Z</time>
      </trkpt>
      <trkpt lat="45.96829" lon="6.78556">
        <ele>1952.1</ele>
        <time>2013-08-26T09:29:13Z</time>
      </trkpt>
      <trkpt lat="45.96822" lon="6.7854">
        <ele>1952.1</ele>
        <time>2013-08-26T09:29:18Z</time>
      </trkpt>
      <trkpt lat="45.96819" lon="6.78538">
        <ele>1951.6</ele>
        <time>2013-08-26T09:29:19Z</time>
      </trkpt>
      <trkpt lat="45.96805" lon="6.78532">
        <ele>1950.2</ele>
        <time>2013-08-26T09:29:23Z</time>
      </trkpt>
      <trkpt lat="45.968" lon="6.78533">
        <ele>1949.7</ele>
        <time>2013-08-26T09:29:24Z</time>
      </trkpt>
      <trkpt lat="45.96796" lon="6.78533">
        <ele>1948.7</ele>
        <time>2013-08-26T09:29:25Z</time>
      </trkpt>
      <trkpt lat="45.96783" lon="6.78535">
        <ele>1946.3</ele>
        <time>2013-08-26T09:29:29Z</time>
      </trkpt>
      <trkpt lat="45.9678" lon="6.78533">
        <ele>1946.3</ele>
        <time>2013-08-26T09:29:30Z</time>
      </trkpt>
      <trkpt lat="45.96777" lon="6.78531">
        <ele>1945.9</ele>
        <time>2013-08-26T09:29:31Z</time>
      </trkpt>
      <trkpt lat="45.96776" lon="6.78527">
        <ele>1944.9</ele>
        <time>2013-08-26T09:29:32Z</time>
      </trkpt>
      <trkpt lat="45.96776" lon="6.78523">
        <ele>1944.4</ele>
        <time>2013-08-26T09:29:33Z</time>
      </trkpt>
      <trkpt lat="45.96773" lon="6.78509">
        <ele>1943</ele>
        <time>2013-08-26T09:29:36Z</time>
      </trkpt>
      <trkpt lat="45.96772" lon="6.78507">
        <ele>1942</ele>
        <time>2013-08-26T09:29:37Z</time>
      </trkpt>
      <trkpt lat="45.96771" lon="6.78506">
        <ele>1941.5</ele>
        <time>2013-08-26T09:29:38Z</time>
      </trkpt>
      <trkpt lat="45.96769" lon="6.78505">
        <ele>1942.5</ele>
        <time>2013-08-26T09:29:39Z</time>
      </trkpt>
      <trkpt lat="45.96768" lon="6.78503">
        <ele>1941.5</ele>
        <time>2013-08-26T09:29:40Z</time>
      </trkpt>
      <trkpt lat="45.96766" lon="6.78501">
        <ele>1941</ele>
        <time>2013-08-26T09:29:41Z</time>
      </trkpt>
      <trkpt lat="45.96765" lon="6.78498">
        <ele>1940.6</ele>
        <time>2013-08-26T09:29:42Z</time>
      </trkpt>
      <trkpt lat="45.96763" lon="6.78495">
        <ele>1940.1</ele>
        <time>2013-08-26T09:29:43Z</time>
      </trkpt>
      <trkpt lat="45.96759" lon="6.7849">
        <ele>1938.6</ele>
        <time>2013-08-26T09:29:45Z</time>
      </trkpt>
      <trkpt lat="45.96753" lon="6.78482">
        <ele>1937.7</ele>
        <time>2013-08-26T09:29:47Z</time>
      </trkpt>
      <trkpt lat="45.96746" lon="6.78473">
        <ele>1935.8</ele>
        <time>2013-08-26T09:29:49Z</time>
      </trkpt>
      <trkpt lat="45.96744" lon="6.78467">
        <ele>1934.3</ele>
        <time>2013-08-26T09:29:50Z</time>
      </trkpt>
      <trkpt lat="45.96741" lon="6.78462">
        <ele>1934.3</ele>
        <time>2013-08-26T09:29:51Z</time>
      </trkpt>
      <trkpt lat="45.96738" lon="6.78458">
        <ele>1933.4</ele>
        <time>2013-08-26T09:29:52Z</time>
      </trkpt>
      <trkpt lat="45.96734" lon="6.78458">
        <ele>1933.4</ele>
        <time>2013-08-26T09:29:53Z</time>
      </trkpt>
      <trkpt lat="45.96729" lon="6.78459">
        <ele>1932.9</ele>
        <time>2013-08-26T09:29:54Z</time>
      </trkpt>
      <trkpt lat="45.96724" lon="6.7846">
        <ele>1932.4</ele>
        <time>2013-08-26T09:29:55Z</time>
      </trkpt>
      <trkpt lat="45.96719" lon="6.78459">
        <ele>1931.9</ele>
        <time>2013-08-26T09:29:56Z</time>
      </trkpt>
      <trkpt lat="45.96714" lon="6.78457">
        <ele>1931.9</ele>
        <time>2013-08-26T09:29:57Z</time>
      </trkpt>
      <trkpt lat="45.9671" lon="6.78455">
        <ele>1931.9</ele>
        <time>2013-08-26T09:29:58Z</time>
      </trkpt>
      <trkpt lat="45.96688" lon="6.7845">
        <ele>1929</ele>
        <time>2013-08-26T09:30:06Z</time>
      </trkpt>
      <trkpt lat="45.96685" lon="6.7845">
        <ele>1929</ele>
        <time>2013-08-26T09:30:16Z</time>
      </trkpt>
      <trkpt lat="45.96679" lon="6.78451">
        <ele>1926.1</ele>
        <time>2013-08-26T09:30:30Z</time>
      </trkpt>
      <trkpt lat="45.96679" lon="6.78448">
        <ele>1926.1</ele>
        <time>2013-08-26T09:30:55Z</time>
      </trkpt>
      <trkpt lat="45.96676" lon="6.78444">
        <ele>1925.7</ele>
        <time>2013-08-26T09:30:57Z</time>
      </trkpt>
      <trkpt lat="45.96675" lon="6.78439">
        <ele>1924.7</ele>
        <time>2013-08-26T09:30:59Z</time>
      </trkpt>
      <trkpt lat="45.96673" lon="6.78436">
        <ele>1924.2</ele>
        <time>2013-08-26T09:31:00Z</time>
      </trkpt>
      <trkpt lat="45.96673" lon="6.78432">
        <ele>1923.3</ele>
        <time>2013-08-26T09:31:01Z</time>
      </trkpt>
      <trkpt lat="45.96672" lon="6.78427">
        <ele>1922.3</ele>
        <time>2013-08-26T09:31:02Z</time>
      </trkpt>
      <trkpt lat="45.96672" lon="6.78423">
        <ele>1921.8</ele>
        <time>2013-08-26T09:31:03Z</time>
      </trkpt>
      <trkpt lat="45.96668" lon="6.78406">
        <ele>1918.9</ele>
        <time>2013-08-26T09:31:08Z</time>
      </trkpt>
      <trkpt lat="45.96666" lon="6.78393">
        <ele>1917.5</ele>
        <time>2013-08-26T09:31:11Z</time>
      </trkpt>
      <trkpt lat="45.96669" lon="6.78362">
        <ele>1913.6</ele>
        <time>2013-08-26T09:31:18Z</time>
      </trkpt>
      <trkpt lat="45.96669" lon="6.78352">
        <ele>1913.2</ele>
        <time>2013-08-26T09:31:20Z</time>
      </trkpt>
      <trkpt lat="45.96667" lon="6.78348">
        <ele>1911.7</ele>
        <time>2013-08-26T09:31:21Z</time>
      </trkpt>
      <trkpt lat="45.96656" lon="6.78327">
        <ele>1909.3</ele>
        <time>2013-08-26T09:31:27Z</time>
      </trkpt>
      <trkpt lat="45.96653" lon="6.78322">
        <ele>1907.9</ele>
        <time>2013-08-26T09:31:28Z</time>
      </trkpt>
      <trkpt lat="45.96648" lon="6.78308">
        <ele>1906.9</ele>
        <time>2013-08-26T09:31:30Z</time>
      </trkpt>
      <trkpt lat="45.96647" lon="6.78301">
        <ele>1905.5</ele>
        <time>2013-08-26T09:31:31Z</time>
      </trkpt>
      <trkpt lat="45.96646" lon="6.78294">
        <ele>1905.5</ele>
        <time>2013-08-26T09:31:32Z</time>
      </trkpt>
      <trkpt lat="45.96641" lon="6.78268">
        <ele>1902.6</ele>
        <time>2013-08-26T09:31:36Z</time>
      </trkpt>
      <trkpt lat="45.96638" lon="6.78255">
        <ele>1901.1</ele>
        <time>2013-08-26T09:31:38Z</time>
      </trkpt>
      <trkpt lat="45.96637" lon="6.78249">
        <ele>1900.7</ele>
        <time>2013-08-26T09:31:39Z</time>
      </trkpt>
      <trkpt lat="45.96635" lon="6.78238">
        <ele>1899.7</ele>
        <time>2013-08-26T09:31:41Z</time>
      </trkpt>
      <trkpt lat="45.96634" lon="6.78233">
        <ele>1898.7</ele>
        <time>2013-08-26T09:31:42Z</time>
      </trkpt>
      <trkpt lat="45.96632" lon="6.78227">
        <ele>1897.8</ele>
        <time>2013-08-26T09:31:43Z</time>
      </trkpt>
      <trkpt lat="45.9663" lon="6.78223">
        <ele>1896.8</ele>
        <time>2013-08-26T09:31:44Z</time>
      </trkpt>
      <trkpt lat="45.96626" lon="6.78221">
        <ele>1895.9</ele>
        <time>2013-08-26T09:31:45Z</time>
      </trkpt>
      <trkpt lat="45.96624" lon="6.78223">
        <ele>1894.9</ele>
        <time>2013-08-26T09:31:46Z</time>
      </trkpt>
      <trkpt lat="45.96621" lon="6.78225">
        <ele>1894.9</ele>
        <time>2013-08-26T09:31:47Z</time>
      </trkpt>
      <trkpt lat="45.96619" lon="6.78229">
        <ele>1894.4</ele>
        <time>2013-08-26T09:31:48Z</time>
      </trkpt>
      <trkpt lat="45.96617" lon="6.78232">
        <ele>1894.4</ele>
        <time>2013-08-26T09:31:49Z</time>
      </trkpt>
      <trkpt lat="45.96615" lon="6.78233">
        <ele>1893</ele>
        <time>2013-08-26T09:31:50Z</time>
      </trkpt>
      <trkpt lat="45.96613" lon="6.78234">
        <ele>1893</ele>
        <time>2013-08-26T09:31:51Z</time>
      </trkpt>
      <trkpt lat="45.96613" lon="6.78235">
        <ele>1892</ele>
        <time>2013-08-26T09:31:53Z</time>
      </trkpt>
      <trkpt lat="45.96612" lon="6.78234">
        <ele>1892</ele>
        <time>2013-08-26T09:32:04Z</time>
      </trkpt>
      <trkpt lat="45.9661" lon="6.78234">
        <ele>1891.5</ele>
        <time>2013-08-26T09:32:05Z</time>
      </trkpt>
      <trkpt lat="45.96609" lon="6.78234">
        <ele>1891.5</ele>
        <time>2013-08-26T09:32:06Z</time>
      </trkpt>
      <trkpt lat="45.96608" lon="6.78232">
        <ele>1890.6</ele>
        <time>2013-08-26T09:32:07Z</time>
      </trkpt>
      <trkpt lat="45.96607" lon="6.7823">
        <ele>1890.6</ele>
        <time>2013-08-26T09:32:08Z</time>
      </trkpt>
      <trkpt lat="45.96604" lon="6.78226">
        <ele>1889.6</ele>
        <time>2013-08-26T09:32:09Z</time>
      </trkpt>
      <trkpt lat="45.96601" lon="6.78224">
        <ele>1888.7</ele>
        <time>2013-08-26T09:32:10Z</time>
      </trkpt>
      <trkpt lat="45.96598" lon="6.78226">
        <ele>1888.7</ele>
        <time>2013-08-26T09:32:11Z</time>
      </trkpt>
      <trkpt lat="45.96595" lon="6.78229">
        <ele>1887.7</ele>
        <time>2013-08-26T09:32:12Z</time>
      </trkpt>
      <trkpt lat="45.96592" lon="6.78233">
        <ele>1886.7</ele>
        <time>2013-08-26T09:32:13Z</time>
      </trkpt>
      <trkpt lat="45.96589" lon="6.78236">
        <ele>1885.3</ele>
        <time>2013-08-26T09:32:14Z</time>
      </trkpt>
      <trkpt lat="45.96585" lon="6.78237">
        <ele>1884.3</ele>
        <time>2013-08-26T09:32:15Z</time>
      </trkpt>
      <trkpt lat="45.96582" lon="6.78237">
        <ele>1884.8</ele>
        <time>2013-08-26T09:32:16Z</time>
      </trkpt>
      <trkpt lat="45.9658" lon="6.78234">
        <ele>1883.4</ele>
        <time>2013-08-26T09:32:17Z</time>
      </trkpt>
      <trkpt lat="45.9658" lon="6.78231">
        <ele>1882.9</ele>
        <time>2013-08-26T09:32:18Z</time>
      </trkpt>
      <trkpt lat="45.96579" lon="6.78229">
        <ele>1882.4</ele>
        <time>2013-08-26T09:32:19Z</time>
      </trkpt>
      <trkpt lat="45.96579" lon="6.78226">
        <ele>1882.4</ele>
        <time>2013-08-26T09:32:20Z</time>
      </trkpt>
      <trkpt lat="45.96578" lon="6.78226">
        <ele>1881.9</ele>
        <time>2013-08-26T09:32:30Z</time>
      </trkpt>
      <trkpt lat="45.96578" lon="6.78224">
        <ele>1882.9</ele>
        <time>2013-08-26T09:32:49Z</time>
      </trkpt>
      <trkpt lat="45.96578" lon="6.78225">
        <ele>1882.4</ele>
        <time>2013-08-26T09:33:11Z</time>
      </trkpt>
      <trkpt lat="45.96565" lon="6.78233">
        <ele>1878.6</ele>
        <time>2013-08-26T09:33:17Z</time>
      </trkpt>
      <trkpt lat="45.96553" lon="6.78235">
        <ele>1875.7</ele>
        <time>2013-08-26T09:33:22Z</time>
      </trkpt>
      <trkpt lat="45.96542" lon="6.78237">
        <ele>1872.3</ele>
        <time>2013-08-26T09:33:27Z</time>
      </trkpt>
      <trkpt lat="45.9654" lon="6.78236">
        <ele>1872.3</ele>
        <time>2013-08-26T09:33:28Z</time>
      </trkpt>
      <trkpt lat="45.96538" lon="6.78236">
        <ele>1870.9</ele>
        <time>2013-08-26T09:33:29Z</time>
      </trkpt>
      <trkpt lat="45.96537" lon="6.78238">
        <ele>1870.9</ele>
        <time>2013-08-26T09:33:30Z</time>
      </trkpt>
      <trkpt lat="45.96536" lon="6.7824">
        <ele>1869.9</ele>
        <time>2013-08-26T09:33:31Z</time>
      </trkpt>
      <trkpt lat="45.96536" lon="6.78242">
        <ele>1869.4</ele>
        <time>2013-08-26T09:33:32Z</time>
      </trkpt>
      <trkpt lat="45.96535" lon="6.78243">
        <ele>1868.9</ele>
        <time>2013-08-26T09:33:33Z</time>
      </trkpt>
      <trkpt lat="45.96534" lon="6.78244">
        <ele>1868.9</ele>
        <time>2013-08-26T09:33:34Z</time>
      </trkpt>
      <trkpt lat="45.96534" lon="6.78246">
        <ele>1868.5</ele>
        <time>2013-08-26T09:33:35Z</time>
      </trkpt>
      <trkpt lat="45.96534" lon="6.78248">
        <ele>1868</ele>
        <time>2013-08-26T09:33:36Z</time>
      </trkpt>
      <trkpt lat="45.96534" lon="6.7825">
        <ele>1867</ele>
        <time>2013-08-26T09:33:38Z</time>
      </trkpt>
      <trkpt lat="45.96535" lon="6.78256">
        <ele>1865.6</ele>
        <time>2013-08-26T09:33:48Z</time>
      </trkpt>
      <trkpt lat="45.96535" lon="6.78259">
        <ele>1865.1</ele>
        <time>2013-08-26T09:33:50Z</time>
      </trkpt>
      <trkpt lat="45.96534" lon="6.78266">
        <ele>1864.6</ele>
        <time>2013-08-26T09:33:59Z</time>
      </trkpt>
      <trkpt lat="45.96533" lon="6.78268">
        <ele>1864.1</ele>
        <time>2013-08-26T09:34:00Z</time>
      </trkpt>
      <trkpt lat="45.96529" lon="6.78272">
        <ele>1862.2</ele>
        <time>2013-08-26T09:34:03Z</time>
      </trkpt>
      <trkpt lat="45.96528" lon="6.78272">
        <ele>1860.8</ele>
        <time>2013-08-26T09:34:06Z</time>
      </trkpt>
      <trkpt lat="45.96526" lon="6.78273">
        <ele>1860.8</ele>
        <time>2013-08-26T09:34:11Z</time>
      </trkpt>
      <trkpt lat="45.96525" lon="6.78275">
        <ele>1860.8</ele>
        <time>2013-08-26T09:34:12Z</time>
      </trkpt>
      <trkpt lat="45.96525" lon="6.78278">
        <ele>1858.9</ele>
        <time>2013-08-26T09:34:13Z</time>
      </trkpt>
      <trkpt lat="45.96524" lon="6.78281">
        <ele>1859.3</ele>
        <time>2013-08-26T09:34:14Z</time>
      </trkpt>
      <trkpt lat="45.96523" lon="6.78284">
        <ele>1858.4</ele>
        <time>2013-08-26T09:34:15Z</time>
      </trkpt>
      <trkpt lat="45.96521" lon="6.78288">
        <ele>1858.4</ele>
        <time>2013-08-26T09:34:16Z</time>
      </trkpt>
      <trkpt lat="45.9652" lon="6.78292">
        <ele>1857.4</ele>
        <time>2013-08-26T09:34:17Z</time>
      </trkpt>
      <trkpt lat="45.96519" lon="6.78295">
        <ele>1856</ele>
        <time>2013-08-26T09:34:18Z</time>
      </trkpt>
      <trkpt lat="45.96517" lon="6.78296">
        <ele>1856</ele>
        <time>2013-08-26T09:34:19Z</time>
      </trkpt>
      <trkpt lat="45.96515" lon="6.78298">
        <ele>1856</ele>
        <time>2013-08-26T09:34:20Z</time>
      </trkpt>
      <trkpt lat="45.96506" lon="6.78307">
        <ele>1854.5</ele>
        <time>2013-08-26T09:34:30Z</time>
      </trkpt>
      <trkpt lat="45.96507" lon="6.78306">
        <ele>1855</ele>
        <time>2013-08-26T09:34:57Z</time>
      </trkpt>
      <trkpt lat="45.96505" lon="6.78309">
        <ele>1854.5</ele>
        <time>2013-08-26T09:35:07Z</time>
      </trkpt>
      <trkpt lat="45.96504" lon="6.78311">
        <ele>1855</ele>
        <time>2013-08-26T09:35:08Z</time>
      </trkpt>
      <trkpt lat="45.965" lon="6.78319">
        <ele>1853.1</ele>
        <time>2013-08-26T09:35:18Z</time>
      </trkpt>
      <trkpt lat="45.96498" lon="6.78321">
        <ele>1853.1</ele>
        <time>2013-08-26T09:35:19Z</time>
      </trkpt>
      <trkpt lat="45.96486" lon="6.7833">
        <ele>1848.8</ele>
        <time>2013-08-26T09:35:24Z</time>
      </trkpt>
      <trkpt lat="45.96484" lon="6.78331">
        <ele>1848.8</ele>
        <time>2013-08-26T09:35:25Z</time>
      </trkpt>
      <trkpt lat="45.9648" lon="6.7833">
        <ele>1847.8</ele>
        <time>2013-08-26T09:35:27Z</time>
      </trkpt>
      <trkpt lat="45.96476" lon="6.78328">
        <ele>1846.4</ele>
        <time>2013-08-26T09:35:29Z</time>
      </trkpt>
      <trkpt lat="45.96476" lon="6.78326">
        <ele>1845.9</ele>
        <time>2013-08-26T09:35:30Z</time>
      </trkpt>
      <trkpt lat="45.96476" lon="6.7832">
        <ele>1844.4</ele>
        <time>2013-08-26T09:35:33Z</time>
      </trkpt>
      <trkpt lat="45.96476" lon="6.78319">
        <ele>1844</ele>
        <time>2013-08-26T09:35:34Z</time>
      </trkpt>
      <trkpt lat="45.96477" lon="6.78313">
        <ele>1842</ele>
        <time>2013-08-26T09:35:41Z</time>
      </trkpt>
      <trkpt lat="45.96478" lon="6.78311">
        <ele>1842.5</ele>
        <time>2013-08-26T09:35:42Z</time>
      </trkpt>
      <trkpt lat="45.96479" lon="6.78309">
        <ele>1841.1</ele>
        <time>2013-08-26T09:35:43Z</time>
      </trkpt>
      <trkpt lat="45.9648" lon="6.78306">
        <ele>1840.6</ele>
        <time>2013-08-26T09:35:44Z</time>
      </trkpt>
      <trkpt lat="45.96481" lon="6.78303">
        <ele>1839.6</ele>
        <time>2013-08-26T09:35:45Z</time>
      </trkpt>
      <trkpt lat="45.96481" lon="6.783">
        <ele>1839.1</ele>
        <time>2013-08-26T09:35:46Z</time>
      </trkpt>
      <trkpt lat="45.9648" lon="6.78298">
        <ele>1838.7</ele>
        <time>2013-08-26T09:35:47Z</time>
      </trkpt>
      <trkpt lat="45.96479" lon="6.78297">
        <ele>1838.2</ele>
        <time>2013-08-26T09:35:49Z</time>
      </trkpt>
      <trkpt lat="45.96477" lon="6.78298">
        <ele>1838.2</ele>
        <time>2013-08-26T09:35:54Z</time>
      </trkpt>
      <trkpt lat="45.96477" lon="6.783">
        <ele>1837.2</ele>
        <time>2013-08-26T09:36:10Z</time>
      </trkpt>
      <trkpt lat="45.96474" lon="6.78304">
        <ele>1834.3</ele>
        <time>2013-08-26T09:36:22Z</time>
      </trkpt>
      <trkpt lat="45.9647" lon="6.78301">
        <ele>1831</ele>
        <time>2013-08-26T09:36:32Z</time>
      </trkpt>
      <trkpt lat="45.96467" lon="6.783">
        <ele>1829.5</ele>
        <time>2013-08-26T09:36:42Z</time>
      </trkpt>
      <trkpt lat="45.96469" lon="6.78297">
        <ele>1828.6</ele>
        <time>2013-08-26T09:36:55Z</time>
      </trkpt>
      <trkpt lat="45.96467" lon="6.78297">
        <ele>1827.6</ele>
        <time>2013-08-26T09:37:00Z</time>
      </trkpt>
      <trkpt lat="45.96465" lon="6.78299">
        <ele>1826.6</ele>
        <time>2013-08-26T09:37:15Z</time>
      </trkpt>
      <trkpt lat="45.96464" lon="6.783">
        <ele>1826.2</ele>
        <time>2013-08-26T09:37:44Z</time>
      </trkpt>
      <trkpt lat="45.96463" lon="6.78299">
        <ele>1827.1</ele>
        <time>2013-08-26T09:38:10Z</time>
      </trkpt>
      <trkpt lat="45.9646" lon="6.783">
        <ele>1825.7</ele>
        <time>2013-08-26T09:38:17Z</time>
      </trkpt>
      <trkpt lat="45.9646" lon="6.78293">
        <ele>1823.3</ele>
        <time>2013-08-26T09:38:23Z</time>
      </trkpt>
      <trkpt lat="45.96463" lon="6.78288">
        <ele>1821.4</ele>
        <time>2013-08-26T09:38:29Z</time>
      </trkpt>
      <trkpt lat="45.96465" lon="6.78281">
        <ele>1819.4</ele>
        <time>2013-08-26T09:38:34Z</time>
      </trkpt>
      <trkpt lat="45.96465" lon="6.78282">
        <ele>1818</ele>
        <time>2013-08-26T09:38:37Z</time>
      </trkpt>
      <trkpt lat="45.96463" lon="6.78283">
        <ele>1818</ele>
        <time>2013-08-26T09:38:45Z</time>
      </trkpt>
      <trkpt lat="45.96463" lon="6.7828">
        <ele>1816.1</ele>
        <time>2013-08-26T09:38:54Z</time>
      </trkpt>
      <trkpt lat="45.96463" lon="6.78276">
        <ele>1815.1</ele>
        <time>2013-08-26T09:38:58Z</time>
      </trkpt>
      <trkpt lat="45.96459" lon="6.78279">
        <ele>1814.2</ele>
        <time>2013-08-26T09:39:05Z</time>
      </trkpt>
      <trkpt lat="45.96457" lon="6.78276">
        <ele>1813.2</ele>
        <time>2013-08-26T09:39:09Z</time>
      </trkpt>
      <trkpt lat="45.96458" lon="6.7827">
        <ele>1810.8</ele>
        <time>2013-08-26T09:39:13Z</time>
      </trkpt>
      <trkpt lat="45.96457" lon="6.78268">
        <ele>1810.3</ele>
        <time>2013-08-26T09:39:14Z</time>
      </trkpt>
      <trkpt lat="45.96458" lon="6.78266">
        <ele>1810.3</ele>
        <time>2013-08-26T09:39:15Z</time>
      </trkpt>
      <trkpt lat="45.96458" lon="6.78265">
        <ele>1809.8</ele>
        <time>2013-08-26T09:39:16Z</time>
      </trkpt>
      <trkpt lat="45.96457" lon="6.78261">
        <ele>1807.9</ele>
        <time>2013-08-26T09:39:26Z</time>
      </trkpt>
      <trkpt lat="45.96454" lon="6.78257">
        <ele>1806</ele>
        <time>2013-08-26T09:39:44Z</time>
      </trkpt>
      <trkpt lat="45.96454" lon="6.78259">
        <ele>1806.5</ele>
        <time>2013-08-26T09:40:11Z</time>
      </trkpt>
      <trkpt lat="45.96453" lon="6.78253">
        <ele>1805.5</ele>
        <time>2013-08-26T09:40:23Z</time>
      </trkpt>
      <trkpt lat="45.96452" lon="6.78251">
        <ele>1805</ele>
        <time>2013-08-26T09:40:24Z</time>
      </trkpt>
      <trkpt lat="45.96452" lon="6.78249">
        <ele>1803.6</ele>
        <time>2013-08-26T09:40:25Z</time>
      </trkpt>
      <trkpt lat="45.96452" lon="6.78246">
        <ele>1802.6</ele>
        <time>2013-08-26T09:40:26Z</time>
      </trkpt>
      <trkpt lat="45.96453" lon="6.78244">
        <ele>1801.7</ele>
        <time>2013-08-26T09:40:27Z</time>
      </trkpt>
      <trkpt lat="45.96453" lon="6.78241">
        <ele>1801.7</ele>
        <time>2013-08-26T09:40:28Z</time>
      </trkpt>
      <trkpt lat="45.96456" lon="6.78237">
        <ele>1800.7</ele>
        <time>2013-08-26T09:40:32Z</time>
      </trkpt>
      <trkpt lat="45.96454" lon="6.78226">
        <ele>1798.3</ele>
        <time>2013-08-26T09:40:44Z</time>
      </trkpt>
      <trkpt lat="45.96456" lon="6.78226">
        <ele>1798.8</ele>
        <time>2013-08-26T09:40:57Z</time>
      </trkpt>
      <trkpt lat="45.96453" lon="6.78219">
        <ele>1797.3</ele>
        <time>2013-08-26T09:41:19Z</time>
      </trkpt>
      <trkpt lat="45.96452" lon="6.78219">
        <ele>1796.8</ele>
        <time>2013-08-26T09:41:21Z</time>
      </trkpt>
      <trkpt lat="45.96449" lon="6.78222">
        <ele>1795.4</ele>
        <time>2013-08-26T09:41:24Z</time>
      </trkpt>
      <trkpt lat="45.96447" lon="6.78219">
        <ele>1794.4</ele>
        <time>2013-08-26T09:41:26Z</time>
      </trkpt>
      <trkpt lat="45.96447" lon="6.78217">
        <ele>1794</ele>
        <time>2013-08-26T09:41:27Z</time>
      </trkpt>
      <trkpt lat="45.96446" lon="6.78207">
        <ele>1792.5</ele>
        <time>2013-08-26T09:41:30Z</time>
      </trkpt>
      <trkpt lat="45.96445" lon="6.78204">
        <ele>1791.6</ele>
        <time>2013-08-26T09:41:31Z</time>
      </trkpt>
      <trkpt lat="45.96444" lon="6.78203">
        <ele>1791.1</ele>
        <time>2013-08-26T09:41:32Z</time>
      </trkpt>
      <trkpt lat="45.96443" lon="6.78205">
        <ele>1789.6</ele>
        <time>2013-08-26T09:41:34Z</time>
      </trkpt>
      <trkpt lat="45.96442" lon="6.78208">
        <ele>1789.6</ele>
        <time>2013-08-26T09:41:35Z</time>
      </trkpt>
      <trkpt lat="45.9644" lon="6.78211">
        <ele>1788.7</ele>
        <time>2013-08-26T09:41:36Z</time>
      </trkpt>
      <trkpt lat="45.96438" lon="6.78213">
        <ele>1788.7</ele>
        <time>2013-08-26T09:41:37Z</time>
      </trkpt>
      <trkpt lat="45.96437" lon="6.78216">
        <ele>1787.7</ele>
        <time>2013-08-26T09:41:38Z</time>
      </trkpt>
      <trkpt lat="45.96437" lon="6.78218">
        <ele>1787.2</ele>
        <time>2013-08-26T09:41:39Z</time>
      </trkpt>
      <trkpt lat="45.96436" lon="6.78219">
        <ele>1786.8</ele>
        <time>2013-08-26T09:41:40Z</time>
      </trkpt>
      <trkpt lat="45.96435" lon="6.78215">
        <ele>1785.8</ele>
        <time>2013-08-26T09:41:46Z</time>
      </trkpt>
      <trkpt lat="45.96434" lon="6.78212">
        <ele>1785.3</ele>
        <time>2013-08-26T09:41:47Z</time>
      </trkpt>
      <trkpt lat="45.96433" lon="6.78209">
        <ele>1785.8</ele>
        <time>2013-08-26T09:41:48Z</time>
      </trkpt>
      <trkpt lat="45.96432" lon="6.78203">
        <ele>1783.9</ele>
        <time>2013-08-26T09:41:51Z</time>
      </trkpt>
      <trkpt lat="45.9643" lon="6.78202">
        <ele>1783.4</ele>
        <time>2013-08-26T09:41:53Z</time>
      </trkpt>
      <trkpt lat="45.96428" lon="6.78207">
        <ele>1781.9</ele>
        <time>2013-08-26T09:41:56Z</time>
      </trkpt>
      <trkpt lat="45.96426" lon="6.78204">
        <ele>1781</ele>
        <time>2013-08-26T09:41:59Z</time>
      </trkpt>
      <trkpt lat="45.96423" lon="6.78197">
        <ele>1779.1</ele>
        <time>2013-08-26T09:42:02Z</time>
      </trkpt>
      <trkpt lat="45.96422" lon="6.78195">
        <ele>1778.6</ele>
        <time>2013-08-26T09:42:03Z</time>
      </trkpt>
      <trkpt lat="45.96421" lon="6.78193">
        <ele>1778.1</ele>
        <time>2013-08-26T09:42:04Z</time>
      </trkpt>
      <trkpt lat="45.9642" lon="6.78191">
        <ele>1777.1</ele>
        <time>2013-08-26T09:42:05Z</time>
      </trkpt>
      <trkpt lat="45.96418" lon="6.78188">
        <ele>1775.7</ele>
        <time>2013-08-26T09:42:06Z</time>
      </trkpt>
      <trkpt lat="45.96415" lon="6.78183">
        <ele>1773.3</ele>
        <time>2013-08-26T09:42:08Z</time>
      </trkpt>
      <trkpt lat="45.96414" lon="6.7818">
        <ele>1772.3</ele>
        <time>2013-08-26T09:42:09Z</time>
      </trkpt>
      <trkpt lat="45.96414" lon="6.78177">
        <ele>1771.9</ele>
        <time>2013-08-26T09:42:10Z</time>
      </trkpt>
      <trkpt lat="45.96411" lon="6.78163">
        <ele>1769.4</ele>
        <time>2013-08-26T09:42:14Z</time>
      </trkpt>
      <trkpt lat="45.96409" lon="6.78152">
        <ele>1768</ele>
        <time>2013-08-26T09:42:16Z</time>
      </trkpt>
      <trkpt lat="45.96407" lon="6.78147">
        <ele>1768</ele>
        <time>2013-08-26T09:42:17Z</time>
      </trkpt>
      <trkpt lat="45.96405" lon="6.78142">
        <ele>1767.5</ele>
        <time>2013-08-26T09:42:18Z</time>
      </trkpt>
      <trkpt lat="45.96404" lon="6.78138">
        <ele>1766.6</ele>
        <time>2013-08-26T09:42:19Z</time>
      </trkpt>
      <trkpt lat="45.96405" lon="6.78136">
        <ele>1766.6</ele>
        <time>2013-08-26T09:42:20Z</time>
      </trkpt>
      <trkpt lat="45.96403" lon="6.78134">
        <ele>1767</ele>
        <time>2013-08-26T09:42:31Z</time>
      </trkpt>
      <trkpt lat="45.96403" lon="6.78127">
        <ele>1766.1</ele>
        <time>2013-08-26T09:42:43Z</time>
      </trkpt>
      <trkpt lat="45.96402" lon="6.78125">
        <ele>1766.1</ele>
        <time>2013-08-26T09:42:44Z</time>
      </trkpt>
      <trkpt lat="45.96401" lon="6.78122">
        <ele>1765.6</ele>
        <time>2013-08-26T09:42:45Z</time>
      </trkpt>
      <trkpt lat="45.96401" lon="6.78117">
        <ele>1764.6</ele>
        <time>2013-08-26T09:42:46Z</time>
      </trkpt>
      <trkpt lat="45.96401" lon="6.78114">
        <ele>1764.2</ele>
        <time>2013-08-26T09:42:47Z</time>
      </trkpt>
      <trkpt lat="45.964" lon="6.78111">
        <ele>1764.6</ele>
        <time>2013-08-26T09:42:48Z</time>
      </trkpt>
      <trkpt lat="45.96398" lon="6.78107">
        <ele>1764.2</ele>
        <time>2013-08-26T09:42:49Z</time>
      </trkpt>
      <trkpt lat="45.96397" lon="6.78103">
        <ele>1763.7</ele>
        <time>2013-08-26T09:42:50Z</time>
      </trkpt>
      <trkpt lat="45.96394" lon="6.78095">
        <ele>1760.8</ele>
        <time>2013-08-26T09:42:53Z</time>
      </trkpt>
      <trkpt lat="45.96393" lon="6.78099">
        <ele>1759.8</ele>
        <time>2013-08-26T09:42:56Z</time>
      </trkpt>
      <trkpt lat="45.96391" lon="6.78107">
        <ele>1759.4</ele>
        <time>2013-08-26T09:42:59Z</time>
      </trkpt>
      <trkpt lat="45.9639" lon="6.78105">
        <ele>1758.4</ele>
        <time>2013-08-26T09:43:00Z</time>
      </trkpt>
      <trkpt lat="45.96385" lon="6.7809">
        <ele>1754.5</ele>
        <time>2013-08-26T09:43:04Z</time>
      </trkpt>
      <trkpt lat="45.9638" lon="6.78078">
        <ele>1752.6</ele>
        <time>2013-08-26T09:43:08Z</time>
      </trkpt>
      <trkpt lat="45.96377" lon="6.78081">
        <ele>1750.7</ele>
        <time>2013-08-26T09:43:13Z</time>
      </trkpt>
      <trkpt lat="45.96378" lon="6.78079">
        <ele>1750.2</ele>
        <time>2013-08-26T09:43:24Z</time>
      </trkpt>
      <trkpt lat="45.96378" lon="6.78079">
        <ele>1749.7</ele>
        <time>2013-08-26T09:44:05Z</time>
      </trkpt>
      <trkpt lat="45.96378" lon="6.78079">
        <ele>1750.2</ele>
        <time>2013-08-26T09:44:39Z</time>
      </trkpt>
      <trkpt lat="45.96379" lon="6.7808">
        <ele>1750.2</ele>
        <time>2013-08-26T09:45:04Z</time>
      </trkpt>
      <trkpt lat="45.96376" lon="6.78084">
        <ele>1750.7</ele>
        <time>2013-08-26T09:45:07Z</time>
      </trkpt>
      <trkpt lat="45.96375" lon="6.7808">
        <ele>1748.8</ele>
        <time>2013-08-26T09:45:10Z</time>
      </trkpt>
      <trkpt lat="45.96374" lon="6.78077">
        <ele>1748.8</ele>
        <time>2013-08-26T09:45:11Z</time>
      </trkpt>
      <trkpt lat="45.96374" lon="6.78074">
        <ele>1747.8</ele>
        <time>2013-08-26T09:45:12Z</time>
      </trkpt>
      <trkpt lat="45.96373" lon="6.78071">
        <ele>1746.9</ele>
        <time>2013-08-26T09:45:13Z</time>
      </trkpt>
      <trkpt lat="45.96371" lon="6.78067">
        <ele>1746.9</ele>
        <time>2013-08-26T09:45:14Z</time>
      </trkpt>
      <trkpt lat="45.96371" lon="6.78061">
        <ele>1745.9</ele>
        <time>2013-08-26T09:45:16Z</time>
      </trkpt>
      <trkpt lat="45.96372" lon="6.78058">
        <ele>1745.4</ele>
        <time>2013-08-26T09:45:17Z</time>
      </trkpt>
      <trkpt lat="45.96372" lon="6.78055">
        <ele>1744.5</ele>
        <time>2013-08-26T09:45:18Z</time>
      </trkpt>
      <trkpt lat="45.96371" lon="6.78053">
        <ele>1744</ele>
        <time>2013-08-26T09:45:19Z</time>
      </trkpt>
      <trkpt lat="45.96369" lon="6.78052">
        <ele>1744</ele>
        <time>2013-08-26T09:45:20Z</time>
      </trkpt>
      <trkpt lat="45.96368" lon="6.78049">
        <ele>1743.5</ele>
        <time>2013-08-26T09:45:21Z</time>
      </trkpt>
      <trkpt lat="45.96367" lon="6.78046">
        <ele>1743</ele>
        <time>2013-08-26T09:45:22Z</time>
      </trkpt>
      <trkpt lat="45.96366" lon="6.78044">
        <ele>1742.5</ele>
        <time>2013-08-26T09:45:23Z</time>
      </trkpt>
      <trkpt lat="45.96364" lon="6.78041">
        <ele>1741.6</ele>
        <time>2013-08-26T09:45:24Z</time>
      </trkpt>
      <trkpt lat="45.96363" lon="6.78038">
        <ele>1741.1</ele>
        <time>2013-08-26T09:45:25Z</time>
      </trkpt>
      <trkpt lat="45.96361" lon="6.78036">
        <ele>1740.1</ele>
        <time>2013-08-26T09:45:26Z</time>
      </trkpt>
      <trkpt lat="45.9636" lon="6.78035">
        <ele>1739.6</ele>
        <time>2013-08-26T09:45:27Z</time>
      </trkpt>
      <trkpt lat="45.9636" lon="6.78035">
        <ele>1739.2</ele>
        <time>2013-08-26T09:45:28Z</time>
      </trkpt>
      <trkpt lat="45.9636" lon="6.78038">
        <ele>1739.2</ele>
        <time>2013-08-26T09:45:30Z</time>
      </trkpt>
      <trkpt lat="45.9636" lon="6.7804">
        <ele>1739.2</ele>
        <time>2013-08-26T09:45:31Z</time>
      </trkpt>
      <trkpt lat="45.96359" lon="6.78043">
        <ele>1738.2</ele>
        <time>2013-08-26T09:45:32Z</time>
      </trkpt>
      <trkpt lat="45.96358" lon="6.78047">
        <ele>1737.7</ele>
        <time>2013-08-26T09:45:33Z</time>
      </trkpt>
      <trkpt lat="45.96357" lon="6.78047">
        <ele>1737.2</ele>
        <time>2013-08-26T09:45:34Z</time>
      </trkpt>
      <trkpt lat="45.96355" lon="6.78046">
        <ele>1736.8</ele>
        <time>2013-08-26T09:45:35Z</time>
      </trkpt>
      <trkpt lat="45.96354" lon="6.78043">
        <ele>1736.3</ele>
        <time>2013-08-26T09:45:36Z</time>
      </trkpt>
      <trkpt lat="45.96351" lon="6.7804">
        <ele>1734.8</ele>
        <time>2013-08-26T09:45:37Z</time>
      </trkpt>
      <trkpt lat="45.96343" lon="6.78033">
        <ele>1731.5</ele>
        <time>2013-08-26T09:45:41Z</time>
      </trkpt>
      <trkpt lat="45.96342" lon="6.78036">
        <ele>1730.5</ele>
        <time>2013-08-26T09:45:42Z</time>
      </trkpt>
      <trkpt lat="45.9634" lon="6.78039">
        <ele>1730.5</ele>
        <time>2013-08-26T09:45:43Z</time>
      </trkpt>
      <trkpt lat="45.96338" lon="6.78041">
        <ele>1729.6</ele>
        <time>2013-08-26T09:45:44Z</time>
      </trkpt>
      <trkpt lat="45.96336" lon="6.78043">
        <ele>1729.6</ele>
        <time>2013-08-26T09:45:45Z</time>
      </trkpt>
      <trkpt lat="45.96334" lon="6.78044">
        <ele>1728.6</ele>
        <time>2013-08-26T09:45:46Z</time>
      </trkpt>
      <trkpt lat="45.96333" lon="6.78043">
        <ele>1728.1</ele>
        <time>2013-08-26T09:45:47Z</time>
      </trkpt>
      <trkpt lat="45.96332" lon="6.7804">
        <ele>1728.1</ele>
        <time>2013-08-26T09:45:48Z</time>
      </trkpt>
      <trkpt lat="45.96331" lon="6.78036">
        <ele>1726.7</ele>
        <time>2013-08-26T09:45:49Z</time>
      </trkpt>
      <trkpt lat="45.96327" lon="6.78026">
        <ele>1725.2</ele>
        <time>2013-08-26T09:45:52Z</time>
      </trkpt>
      <trkpt lat="45.96325" lon="6.78027">
        <ele>1724.3</ele>
        <time>2013-08-26T09:45:53Z</time>
      </trkpt>
      <trkpt lat="45.96324" lon="6.78027">
        <ele>1723.8</ele>
        <time>2013-08-26T09:45:54Z</time>
      </trkpt>
      <trkpt lat="45.96323" lon="6.78027">
        <ele>1723.8</ele>
        <time>2013-08-26T09:45:55Z</time>
      </trkpt>
      <trkpt lat="45.96322" lon="6.78024">
        <ele>1723.3</ele>
        <time>2013-08-26T09:45:56Z</time>
      </trkpt>
      <trkpt lat="45.96321" lon="6.7802">
        <ele>1722.3</ele>
        <time>2013-08-26T09:45:57Z</time>
      </trkpt>
      <trkpt lat="45.9632" lon="6.78016">
        <ele>1722.3</ele>
        <time>2013-08-26T09:45:58Z</time>
      </trkpt>
      <trkpt lat="45.96315" lon="6.78003">
        <ele>1719</ele>
        <time>2013-08-26T09:46:01Z</time>
      </trkpt>
      <trkpt lat="45.96312" lon="6.7799">
        <ele>1716.6</ele>
        <time>2013-08-26T09:46:04Z</time>
      </trkpt>
      <trkpt lat="45.96312" lon="6.77988">
        <ele>1717.1</ele>
        <time>2013-08-26T09:46:05Z</time>
      </trkpt>
      <trkpt lat="45.96312" lon="6.77986">
        <ele>1716.1</ele>
        <time>2013-08-26T09:46:06Z</time>
      </trkpt>
      <trkpt lat="45.96312" lon="6.77982">
        <ele>1715.6</ele>
        <time>2013-08-26T09:46:08Z</time>
      </trkpt>
      <trkpt lat="45.96312" lon="6.77982">
        <ele>1714.7</ele>
        <time>2013-08-26T09:46:13Z</time>
      </trkpt>
      <trkpt lat="45.96311" lon="6.7798">
        <ele>1714.2</ele>
        <time>2013-08-26T09:46:14Z</time>
      </trkpt>
      <trkpt lat="45.9631" lon="6.77978">
        <ele>1713.2</ele>
        <time>2013-08-26T09:46:15Z</time>
      </trkpt>
      <trkpt lat="45.96309" lon="6.77978">
        <ele>1712.7</ele>
        <time>2013-08-26T09:46:16Z</time>
      </trkpt>
      <trkpt lat="45.96308" lon="6.7798">
        <ele>1712.3</ele>
        <time>2013-08-26T09:46:17Z</time>
      </trkpt>
      <trkpt lat="45.96307" lon="6.77981">
        <ele>1711.3</ele>
        <time>2013-08-26T09:46:19Z</time>
      </trkpt>
      <trkpt lat="45.96306" lon="6.77975">
        <ele>1710.3</ele>
        <time>2013-08-26T09:46:31Z</time>
      </trkpt>
      <trkpt lat="45.96305" lon="6.77972">
        <ele>1709.8</ele>
        <time>2013-08-26T09:46:32Z</time>
      </trkpt>
      <trkpt lat="45.96304" lon="6.77969">
        <ele>1709.4</ele>
        <time>2013-08-26T09:46:33Z</time>
      </trkpt>
      <trkpt lat="45.96303" lon="6.77967">
        <ele>1708.9</ele>
        <time>2013-08-26T09:46:34Z</time>
      </trkpt>
      <trkpt lat="45.96302" lon="6.77965">
        <ele>1707.9</ele>
        <time>2013-08-26T09:46:35Z</time>
      </trkpt>
      <trkpt lat="45.96302" lon="6.77963">
        <ele>1707.4</ele>
        <time>2013-08-26T09:46:36Z</time>
      </trkpt>
      <trkpt lat="45.96301" lon="6.7796">
        <ele>1706.5</ele>
        <time>2013-08-26T09:46:37Z</time>
      </trkpt>
      <trkpt lat="45.96301" lon="6.77958">
        <ele>1706</ele>
        <time>2013-08-26T09:46:38Z</time>
      </trkpt>
      <trkpt lat="45.963" lon="6.77956">
        <ele>1705.5</ele>
        <time>2013-08-26T09:46:39Z</time>
      </trkpt>
      <trkpt lat="45.96298" lon="6.77957">
        <ele>1704.1</ele>
        <time>2013-08-26T09:46:41Z</time>
      </trkpt>
      <trkpt lat="45.96298" lon="6.77955">
        <ele>1703.6</ele>
        <time>2013-08-26T09:46:43Z</time>
      </trkpt>
      <trkpt lat="45.96297" lon="6.77952">
        <ele>1703.1</ele>
        <time>2013-08-26T09:46:44Z</time>
      </trkpt>
      <trkpt lat="45.96297" lon="6.77949">
        <ele>1702.6</ele>
        <time>2013-08-26T09:46:45Z</time>
      </trkpt>
      <trkpt lat="45.96296" lon="6.77947">
        <ele>1701.7</ele>
        <time>2013-08-26T09:46:46Z</time>
      </trkpt>
      <trkpt lat="45.96295" lon="6.77944">
        <ele>1701.7</ele>
        <time>2013-08-26T09:46:47Z</time>
      </trkpt>
      <trkpt lat="45.96294" lon="6.77941">
        <ele>1700.2</ele>
        <time>2013-08-26T09:46:48Z</time>
      </trkpt>
      <trkpt lat="45.96291" lon="6.77933">
        <ele>1698.3</ele>
        <time>2013-08-26T09:46:50Z</time>
      </trkpt>
      <trkpt lat="45.96288" lon="6.77931">
        <ele>1697.3</ele>
        <time>2013-08-26T09:46:51Z</time>
      </trkpt>
      <trkpt lat="45.96285" lon="6.77928">
        <ele>1696.9</ele>
        <time>2013-08-26T09:46:52Z</time>
      </trkpt>
      <trkpt lat="45.96282" lon="6.77925">
        <ele>1695.9</ele>
        <time>2013-08-26T09:46:53Z</time>
      </trkpt>
      <trkpt lat="45.96279" lon="6.77922">
        <ele>1695.4</ele>
        <time>2013-08-26T09:46:54Z</time>
      </trkpt>
      <trkpt lat="45.96271" lon="6.77914">
        <ele>1693.5</ele>
        <time>2013-08-26T09:46:57Z</time>
      </trkpt>
      <trkpt lat="45.96263" lon="6.77899">
        <ele>1690.1</ele>
        <time>2013-08-26T09:47:01Z</time>
      </trkpt>
      <trkpt lat="45.96259" lon="6.77892">
        <ele>1688.7</ele>
        <time>2013-08-26T09:47:03Z</time>
      </trkpt>
      <trkpt lat="45.96253" lon="6.77884">
        <ele>1686.3</ele>
        <time>2013-08-26T09:47:06Z</time>
      </trkpt>
      <trkpt lat="45.96252" lon="6.77884">
        <ele>1685.3</ele>
        <time>2013-08-26T09:47:07Z</time>
      </trkpt>
      <trkpt lat="45.96251" lon="6.77885">
        <ele>1684.9</ele>
        <time>2013-08-26T09:47:08Z</time>
      </trkpt>
      <trkpt lat="45.96248" lon="6.77886">
        <ele>1684.4</ele>
        <time>2013-08-26T09:47:09Z</time>
      </trkpt>
      <trkpt lat="45.96246" lon="6.77885">
        <ele>1682.9</ele>
        <time>2013-08-26T09:47:10Z</time>
      </trkpt>
      <trkpt lat="45.96245" lon="6.77882">
        <ele>1682.4</ele>
        <time>2013-08-26T09:47:11Z</time>
      </trkpt>
      <trkpt lat="45.96243" lon="6.77879">
        <ele>1681.5</ele>
        <time>2013-08-26T09:47:12Z</time>
      </trkpt>
      <trkpt lat="45.96243" lon="6.77877">
        <ele>1681</ele>
        <time>2013-08-26T09:47:13Z</time>
      </trkpt>
      <trkpt lat="45.96243" lon="6.77874">
        <ele>1680.5</ele>
        <time>2013-08-26T09:47:14Z</time>
      </trkpt>
      <trkpt lat="45.96244" lon="6.7787">
        <ele>1680</ele>
        <time>2013-08-26T09:47:15Z</time>
      </trkpt>
      <trkpt lat="45.96245" lon="6.77867">
        <ele>1679.1</ele>
        <time>2013-08-26T09:47:16Z</time>
      </trkpt>
      <trkpt lat="45.9625" lon="6.77857">
        <ele>1677.2</ele>
        <time>2013-08-26T09:47:22Z</time>
      </trkpt>
      <trkpt lat="45.96251" lon="6.77854">
        <ele>1676.2</ele>
        <time>2013-08-26T09:47:23Z</time>
      </trkpt>
      <trkpt lat="45.96252" lon="6.77851">
        <ele>1675.7</ele>
        <time>2013-08-26T09:47:24Z</time>
      </trkpt>
      <trkpt lat="45.96252" lon="6.77846">
        <ele>1676.2</ele>
        <time>2013-08-26T09:47:25Z</time>
      </trkpt>
      <trkpt lat="45.96251" lon="6.77842">
        <ele>1674.8</ele>
        <time>2013-08-26T09:47:26Z</time>
      </trkpt>
      <trkpt lat="45.96249" lon="6.77838">
        <ele>1674.8</ele>
        <time>2013-08-26T09:47:27Z</time>
      </trkpt>
      <trkpt lat="45.96248" lon="6.77835">
        <ele>1674.8</ele>
        <time>2013-08-26T09:47:28Z</time>
      </trkpt>
      <trkpt lat="45.96248" lon="6.77832">
        <ele>1673.8</ele>
        <time>2013-08-26T09:47:29Z</time>
      </trkpt>
      <trkpt lat="45.9625" lon="6.77828">
        <ele>1673.8</ele>
        <time>2013-08-26T09:47:37Z</time>
      </trkpt>
      <trkpt lat="45.9625" lon="6.77832">
        <ele>1673.8</ele>
        <time>2013-08-26T09:48:10Z</time>
      </trkpt>
      <trkpt lat="45.96248" lon="6.77835">
        <ele>1673.8</ele>
        <time>2013-08-26T09:48:40Z</time>
      </trkpt>
      <trkpt lat="45.96248" lon="6.77835">
        <ele>1673.8</ele>
        <time>2013-08-26T09:49:09Z</time>
      </trkpt>
      <trkpt lat="45.96247" lon="6.77837">
        <ele>1673.8</ele>
        <time>2013-08-26T09:49:35Z</time>
      </trkpt>
      <trkpt lat="45.96248" lon="6.77835">
        <ele>1673.8</ele>
        <time>2013-08-26T09:50:03Z</time>
      </trkpt>
      <trkpt lat="45.96246" lon="6.77838">
        <ele>1674.3</ele>
        <time>2013-08-26T09:50:24Z</time>
      </trkpt>
      <trkpt lat="45.96247" lon="6.77836">
        <ele>1673.8</ele>
        <time>2013-08-26T09:50:53Z</time>
      </trkpt>
      <trkpt lat="45.96249" lon="6.77832">
        <ele>1673.8</ele>
        <time>2013-08-26T09:51:21Z</time>
      </trkpt>
      <trkpt lat="45.96247" lon="6.77834">
        <ele>1674.3</ele>
        <time>2013-08-26T09:51:49Z</time>
      </trkpt>
      <trkpt lat="45.96245" lon="6.77839">
        <ele>1673.8</ele>
        <time>2013-08-26T09:52:18Z</time>
      </trkpt>
      <trkpt lat="45.96243" lon="6.77843">
        <ele>1674.8</ele>
        <time>2013-08-26T09:52:44Z</time>
      </trkpt>
      <trkpt lat="45.96243" lon="6.77843">
        <ele>1674.3</ele>
        <time>2013-08-26T09:53:11Z</time>
      </trkpt>
      <trkpt lat="45.96242" lon="6.77843">
        <ele>1674.8</ele>
        <time>2013-08-26T09:53:44Z</time>
      </trkpt>
      <trkpt lat="45.96244" lon="6.77845">
        <ele>1675.2</ele>
        <time>2013-08-26T09:54:14Z</time>
      </trkpt>
      <trkpt lat="45.96245" lon="6.77843">
        <ele>1675.7</ele>
        <time>2013-08-26T09:54:50Z</time>
      </trkpt>
      <trkpt lat="45.96242" lon="6.77834">
        <ele>1675.7</ele>
        <time>2013-08-26T09:55:04Z</time>
      </trkpt>
      <trkpt lat="45.96241" lon="6.77834">
        <ele>1675.2</ele>
        <time>2013-08-26T09:55:07Z</time>
      </trkpt>
      <trkpt lat="45.9624" lon="6.77833">
        <ele>1675.2</ele>
        <time>2013-08-26T09:55:08Z</time>
      </trkpt>
      <trkpt lat="45.96238" lon="6.77822">
        <ele>1675.2</ele>
        <time>2013-08-26T09:55:22Z</time>
      </trkpt>
      <trkpt lat="45.9623" lon="6.77807">
        <ele>1673.3</ele>
        <time>2013-08-26T09:55:34Z</time>
      </trkpt>
      <trkpt lat="45.96227" lon="6.77799">
        <ele>1673.3</ele>
        <time>2013-08-26T09:55:36Z</time>
      </trkpt>
      <trkpt lat="45.96226" lon="6.77796">
        <ele>1672.8</ele>
        <time>2013-08-26T09:55:37Z</time>
      </trkpt>
      <trkpt lat="45.96225" lon="6.77789">
        <ele>1672.4</ele>
        <time>2013-08-26T09:55:39Z</time>
      </trkpt>
      <trkpt lat="45.96223" lon="6.77786">
        <ele>1671.9</ele>
        <time>2013-08-26T09:55:40Z</time>
      </trkpt>
      <trkpt lat="45.96218" lon="6.77781">
        <ele>1671.4</ele>
        <time>2013-08-26T09:55:42Z</time>
      </trkpt>
      <trkpt lat="45.96203" lon="6.77775">
        <ele>1671.9</ele>
        <time>2013-08-26T09:55:48Z</time>
      </trkpt>
      <trkpt lat="45.96202" lon="6.77775">
        <ele>1672.4</ele>
        <time>2013-08-26T09:55:49Z</time>
      </trkpt>
      <trkpt lat="45.96201" lon="6.77773">
        <ele>1672.8</ele>
        <time>2013-08-26T09:55:50Z</time>
      </trkpt>
      <trkpt lat="45.96199" lon="6.77771">
        <ele>1672.8</ele>
        <time>2013-08-26T09:55:51Z</time>
      </trkpt>
      <trkpt lat="45.96198" lon="6.77768">
        <ele>1672.8</ele>
        <time>2013-08-26T09:55:52Z</time>
      </trkpt>
      <trkpt lat="45.96197" lon="6.77764">
        <ele>1672.8</ele>
        <time>2013-08-26T09:55:53Z</time>
      </trkpt>
      <trkpt lat="45.96196" lon="6.7776">
        <ele>1673.3</ele>
        <time>2013-08-26T09:55:54Z</time>
      </trkpt>
      <trkpt lat="45.96197" lon="6.77755">
        <ele>1673.3</ele>
        <time>2013-08-26T09:55:58Z</time>
      </trkpt>
      <trkpt lat="45.96198" lon="6.77753">
        <ele>1673.3</ele>
        <time>2013-08-26T09:55:59Z</time>
      </trkpt>
      <trkpt lat="45.96198" lon="6.77745">
        <ele>1671.9</ele>
        <time>2013-08-26T09:56:04Z</time>
      </trkpt>
      <trkpt lat="45.96198" lon="6.77742">
        <ele>1670.9</ele>
        <time>2013-08-26T09:56:07Z</time>
      </trkpt>
      <trkpt lat="45.96198" lon="6.77739">
        <ele>1670.4</ele>
        <time>2013-08-26T09:56:08Z</time>
      </trkpt>
      <trkpt lat="45.96198" lon="6.77737">
        <ele>1670.9</ele>
        <time>2013-08-26T09:56:09Z</time>
      </trkpt>
      <trkpt lat="45.96199" lon="6.77733">
        <ele>1670.4</ele>
        <time>2013-08-26T09:56:11Z</time>
      </trkpt>
      <trkpt lat="45.96199" lon="6.77732">
        <ele>1670.9</ele>
        <time>2013-08-26T09:56:12Z</time>
      </trkpt>
      <trkpt lat="45.96199" lon="6.7773">
        <ele>1670.9</ele>
        <time>2013-08-26T09:56:13Z</time>
      </trkpt>
      <trkpt lat="45.96203" lon="6.77719">
        <ele>1671.4</ele>
        <time>2013-08-26T09:56:23Z</time>
      </trkpt>
      <trkpt lat="45.96203" lon="6.77717">
        <ele>1670</ele>
        <time>2013-08-26T09:56:24Z</time>
      </trkpt>
      <trkpt lat="45.96204" lon="6.77713">
        <ele>1670</ele>
        <time>2013-08-26T09:56:25Z</time>
      </trkpt>
      <trkpt lat="45.96205" lon="6.7771">
        <ele>1670</ele>
        <time>2013-08-26T09:56:26Z</time>
      </trkpt>
      <trkpt lat="45.96205" lon="6.77706">
        <ele>1669.5</ele>
        <time>2013-08-26T09:56:27Z</time>
      </trkpt>
      <trkpt lat="45.96207" lon="6.77702">
        <ele>1668.5</ele>
        <time>2013-08-26T09:56:28Z</time>
      </trkpt>
      <trkpt lat="45.96208" lon="6.77696">
        <ele>1668</ele>
        <time>2013-08-26T09:56:29Z</time>
      </trkpt>
      <trkpt lat="45.96211" lon="6.77692">
        <ele>1667.5</ele>
        <time>2013-08-26T09:56:30Z</time>
      </trkpt>
      <trkpt lat="45.96212" lon="6.77689">
        <ele>1667.1</ele>
        <time>2013-08-26T09:56:31Z</time>
      </trkpt>
      <trkpt lat="45.96214" lon="6.77679">
        <ele>1665.6</ele>
        <time>2013-08-26T09:56:40Z</time>
      </trkpt>
      <trkpt lat="45.96213" lon="6.77672">
        <ele>1664.7</ele>
        <time>2013-08-26T09:56:48Z</time>
      </trkpt>
      <trkpt lat="45.96214" lon="6.77671">
        <ele>1663.7</ele>
        <time>2013-08-26T09:57:00Z</time>
      </trkpt>
      <trkpt lat="45.96214" lon="6.77673">
        <ele>1663.2</ele>
        <time>2013-08-26T09:57:28Z</time>
      </trkpt>
      <trkpt lat="45.96216" lon="6.77667">
        <ele>1664.2</ele>
        <time>2013-08-26T09:57:42Z</time>
      </trkpt>
      <trkpt lat="45.96217" lon="6.77655">
        <ele>1663.7</ele>
        <time>2013-08-26T09:57:55Z</time>
      </trkpt>
      <trkpt lat="45.96219" lon="6.77642">
        <ele>1663.2</ele>
        <time>2013-08-26T09:58:07Z</time>
      </trkpt>
      <trkpt lat="45.96216" lon="6.77625">
        <ele>1664.2</ele>
        <time>2013-08-26T09:58:22Z</time>
      </trkpt>
      <trkpt lat="45.96217" lon="6.77616">
        <ele>1665.1</ele>
        <time>2013-08-26T09:58:37Z</time>
      </trkpt>
      <trkpt lat="45.96217" lon="6.77612">
        <ele>1665.6</ele>
        <time>2013-08-26T09:58:40Z</time>
      </trkpt>
      <trkpt lat="45.96218" lon="6.77609">
        <ele>1666.1</ele>
        <time>2013-08-26T09:58:42Z</time>
      </trkpt>
      <trkpt lat="45.96217" lon="6.77607">
        <ele>1666.6</ele>
        <time>2013-08-26T09:58:43Z</time>
      </trkpt>
      <trkpt lat="45.96217" lon="6.77602">
        <ele>1665.6</ele>
        <time>2013-08-26T09:58:47Z</time>
      </trkpt>
      <trkpt lat="45.96217" lon="6.776">
        <ele>1665.1</ele>
        <time>2013-08-26T09:58:48Z</time>
      </trkpt>
      <trkpt lat="45.96218" lon="6.77598">
        <ele>1665.1</ele>
        <time>2013-08-26T09:58:49Z</time>
      </trkpt>
      <trkpt lat="45.96219" lon="6.77592">
        <ele>1665.1</ele>
        <time>2013-08-26T09:58:52Z</time>
      </trkpt>
      <trkpt lat="45.96219" lon="6.77588">
        <ele>1665.1</ele>
        <time>2013-08-26T09:58:53Z</time>
      </trkpt>
      <trkpt lat="45.96218" lon="6.77585">
        <ele>1665.1</ele>
        <time>2013-08-26T09:58:54Z</time>
      </trkpt>
      <trkpt lat="45.96218" lon="6.77581">
        <ele>1664.7</ele>
        <time>2013-08-26T09:58:55Z</time>
      </trkpt>
      <trkpt lat="45.96219" lon="6.77578">
        <ele>1664.2</ele>
        <time>2013-08-26T09:58:56Z</time>
      </trkpt>
      <trkpt lat="45.96219" lon="6.77576">
        <ele>1664.2</ele>
        <time>2013-08-26T09:58:57Z</time>
      </trkpt>
      <trkpt lat="45.9622" lon="6.77574">
        <ele>1663.7</ele>
        <time>2013-08-26T09:58:58Z</time>
      </trkpt>
      <trkpt lat="45.9622" lon="6.77571">
        <ele>1663.7</ele>
        <time>2013-08-26T09:58:59Z</time>
      </trkpt>
      <trkpt lat="45.96221" lon="6.77568">
        <ele>1663.2</ele>
        <time>2013-08-26T09:59:00Z</time>
      </trkpt>
      <trkpt lat="45.9622" lon="6.77564">
        <ele>1663.2</ele>
        <time>2013-08-26T09:59:01Z</time>
      </trkpt>
      <trkpt lat="45.96219" lon="6.7756">
        <ele>1662.3</ele>
        <time>2013-08-26T09:59:02Z</time>
      </trkpt>
      <trkpt lat="45.96217" lon="6.77556">
        <ele>1661.8</ele>
        <time>2013-08-26T09:59:03Z</time>
      </trkpt>
      <trkpt lat="45.96216" lon="6.77551">
        <ele>1661.8</ele>
        <time>2013-08-26T09:59:04Z</time>
      </trkpt>
      <trkpt lat="45.96196" lon="6.77533">
        <ele>1657.9</ele>
        <time>2013-08-26T09:59:13Z</time>
      </trkpt>
      <trkpt lat="45.96187" lon="6.77511">
        <ele>1656</ele>
        <time>2013-08-26T09:59:18Z</time>
      </trkpt>
      <trkpt lat="45.96187" lon="6.77507">
        <ele>1656.5</ele>
        <time>2013-08-26T09:59:20Z</time>
      </trkpt>
      <trkpt lat="45.96185" lon="6.77495">
        <ele>1656</ele>
        <time>2013-08-26T09:59:25Z</time>
      </trkpt>
      <trkpt lat="45.96185" lon="6.7749">
        <ele>1657</ele>
        <time>2013-08-26T09:59:27Z</time>
      </trkpt>
      <trkpt lat="45.96185" lon="6.77489">
        <ele>1656</ele>
        <time>2013-08-26T09:59:29Z</time>
      </trkpt>
      <trkpt lat="45.96185" lon="6.77478">
        <ele>1655.1</ele>
        <time>2013-08-26T09:59:36Z</time>
      </trkpt>
      <trkpt lat="45.96182" lon="6.77475">
        <ele>1655.1</ele>
        <time>2013-08-26T09:59:40Z</time>
      </trkpt>
      <trkpt lat="45.9618" lon="6.77474">
        <ele>1655.1</ele>
        <time>2013-08-26T09:59:41Z</time>
      </trkpt>
      <trkpt lat="45.96178" lon="6.77474">
        <ele>1654.6</ele>
        <time>2013-08-26T09:59:42Z</time>
      </trkpt>
      <trkpt lat="45.96175" lon="6.77472">
        <ele>1654.6</ele>
        <time>2013-08-26T09:59:43Z</time>
      </trkpt>
      <trkpt lat="45.96172" lon="6.77469">
        <ele>1654.1</ele>
        <time>2013-08-26T09:59:44Z</time>
      </trkpt>
      <trkpt lat="45.96153" lon="6.77439">
        <ele>1653.1</ele>
        <time>2013-08-26T09:59:54Z</time>
      </trkpt>
      <trkpt lat="45.96147" lon="6.77425">
        <ele>1652.6</ele>
        <time>2013-08-26T09:59:58Z</time>
      </trkpt>
      <trkpt lat="45.96147" lon="6.7742">
        <ele>1652.2</ele>
        <time>2013-08-26T09:59:59Z</time>
      </trkpt>
      <trkpt lat="45.96148" lon="6.77417">
        <ele>1651.7</ele>
        <time>2013-08-26T10:00:00Z</time>
      </trkpt>
      <trkpt lat="45.96148" lon="6.77413">
        <ele>1652.2</ele>
        <time>2013-08-26T10:00:01Z</time>
      </trkpt>
      <trkpt lat="45.96149" lon="6.7741">
        <ele>1652.2</ele>
        <time>2013-08-26T10:00:02Z</time>
      </trkpt>
      <trkpt lat="45.96149" lon="6.77408">
        <ele>1652.6</ele>
        <time>2013-08-26T10:00:03Z</time>
      </trkpt>
      <trkpt lat="45.96148" lon="6.77404">
        <ele>1652.6</ele>
        <time>2013-08-26T10:00:06Z</time>
      </trkpt>
      <trkpt lat="45.96145" lon="6.774">
        <ele>1651.7</ele>
        <time>2013-08-26T10:00:10Z</time>
      </trkpt>
      <trkpt lat="45.96144" lon="6.77397">
        <ele>1651.7</ele>
        <time>2013-08-26T10:00:11Z</time>
      </trkpt>
      <trkpt lat="45.96144" lon="6.77393">
        <ele>1650.7</ele>
        <time>2013-08-26T10:00:12Z</time>
      </trkpt>
      <trkpt lat="45.96143" lon="6.77389">
        <ele>1650.2</ele>
        <time>2013-08-26T10:00:13Z</time>
      </trkpt>
      <trkpt lat="45.96142" lon="6.77384">
        <ele>1650.7</ele>
        <time>2013-08-26T10:00:14Z</time>
      </trkpt>
      <trkpt lat="45.96142" lon="6.7738">
        <ele>1651.2</ele>
        <time>2013-08-26T10:00:15Z</time>
      </trkpt>
      <trkpt lat="45.96142" lon="6.77378">
        <ele>1651.2</ele>
        <time>2013-08-26T10:00:16Z</time>
      </trkpt>
      <trkpt lat="45.96138" lon="6.77349">
        <ele>1650.7</ele>
        <time>2013-08-26T10:00:24Z</time>
      </trkpt>
      <trkpt lat="45.96138" lon="6.7734">
        <ele>1651.7</ele>
        <time>2013-08-26T10:00:33Z</time>
      </trkpt>
      <trkpt lat="45.96135" lon="6.77338">
        <ele>1651.7</ele>
        <time>2013-08-26T10:00:42Z</time>
      </trkpt>
      <trkpt lat="45.96132" lon="6.77337">
        <ele>1651.2</ele>
        <time>2013-08-26T10:00:45Z</time>
      </trkpt>
      <trkpt lat="45.9613" lon="6.77335">
        <ele>1650.7</ele>
        <time>2013-08-26T10:00:47Z</time>
      </trkpt>
      <trkpt lat="45.96129" lon="6.77336">
        <ele>1644.5</ele>
        <time>2013-08-26T10:00:52Z</time>
      </trkpt>
      <trkpt lat="45.96129" lon="6.77336">
        <ele>1653.6</ele>
        <time>2013-08-26T10:00:53Z</time>
      </trkpt>
      <trkpt lat="45.9613" lon="6.77336">
        <ele>1650.2</ele>
        <time>2013-08-26T10:00:55Z</time>
      </trkpt>
      <trkpt lat="45.96129" lon="6.77337">
        <ele>1647.4</ele>
        <time>2013-08-26T10:01:09Z</time>
      </trkpt>
      <trkpt lat="45.96129" lon="6.77336">
        <ele>1652.2</ele>
        <time>2013-08-26T10:01:10Z</time>
      </trkpt>
      <trkpt lat="45.96129" lon="6.77336">
        <ele>1649.8</ele>
        <time>2013-08-26T10:01:11Z</time>
      </trkpt>
      <trkpt lat="45.96134" lon="6.77338">
        <ele>1650.2</ele>
        <time>2013-08-26T10:01:34Z</time>
      </trkpt>
      <trkpt lat="45.96134" lon="6.77336">
        <ele>1650.2</ele>
        <time>2013-08-26T10:01:47Z</time>
      </trkpt>
      <trkpt lat="45.96132" lon="6.77334">
        <ele>1649.8</ele>
        <time>2013-08-26T10:02:00Z</time>
      </trkpt>
      <trkpt lat="45.9613" lon="6.77336">
        <ele>1649.3</ele>
        <time>2013-08-26T10:02:35Z</time>
      </trkpt>
      <trkpt lat="45.96131" lon="6.77335">
        <ele>1648.8</ele>
        <time>2013-08-26T10:02:54Z</time>
      </trkpt>
      <trkpt lat="45.96131" lon="6.77333">
        <ele>1649.8</ele>
        <time>2013-08-26T10:02:55Z</time>
      </trkpt>
      <trkpt lat="45.9613" lon="6.7733">
        <ele>1649.3</ele>
        <time>2013-08-26T10:03:07Z</time>
      </trkpt>
      <trkpt lat="45.9613" lon="6.77329">
        <ele>1648.3</ele>
        <time>2013-08-26T10:03:41Z</time>
      </trkpt>
      <trkpt lat="45.96131" lon="6.7733">
        <ele>1648.8</ele>
        <time>2013-08-26T10:04:12Z</time>
      </trkpt>
      <trkpt lat="45.96132" lon="6.77332">
        <ele>1649.3</ele>
        <time>2013-08-26T10:04:35Z</time>
      </trkpt>
      <trkpt lat="45.9613" lon="6.77336">
        <ele>1649.3</ele>
        <time>2013-08-26T10:04:42Z</time>
      </trkpt>
      <trkpt lat="45.96117" lon="6.77355">
        <ele>1645.9</ele>
        <time>2013-08-26T10:04:50Z</time>
      </trkpt>
      <trkpt lat="45.96111" lon="6.77364">
        <ele>1644</ele>
        <time>2013-08-26T10:04:53Z</time>
      </trkpt>
      <trkpt lat="45.96102" lon="6.77382">
        <ele>1642.1</ele>
        <time>2013-08-26T10:04:57Z</time>
      </trkpt>
      <trkpt lat="45.96099" lon="6.77387">
        <ele>1640.6</ele>
        <time>2013-08-26T10:04:58Z</time>
      </trkpt>
      <trkpt lat="45.96095" lon="6.77392">
        <ele>1638.7</ele>
        <time>2013-08-26T10:04:59Z</time>
      </trkpt>
      <trkpt lat="45.96091" lon="6.77396">
        <ele>1639.2</ele>
        <time>2013-08-26T10:05:00Z</time>
      </trkpt>
      <trkpt lat="45.96088" lon="6.77402">
        <ele>1636.8</ele>
        <time>2013-08-26T10:05:01Z</time>
      </trkpt>
      <trkpt lat="45.96085" lon="6.77409">
        <ele>1635.3</ele>
        <time>2013-08-26T10:05:02Z</time>
      </trkpt>
      <trkpt lat="45.96083" lon="6.77417">
        <ele>1634.9</ele>
        <time>2013-08-26T10:05:03Z</time>
      </trkpt>
      <trkpt lat="45.96081" lon="6.77423">
        <ele>1633.4</ele>
        <time>2013-08-26T10:05:04Z</time>
      </trkpt>
      <trkpt lat="45.96077" lon="6.77429">
        <ele>1631.5</ele>
        <time>2013-08-26T10:05:05Z</time>
      </trkpt>
      <trkpt lat="45.96074" lon="6.77437">
        <ele>1630.1</ele>
        <time>2013-08-26T10:05:06Z</time>
      </trkpt>
      <trkpt lat="45.96072" lon="6.77446">
        <ele>1629.1</ele>
        <time>2013-08-26T10:05:07Z</time>
      </trkpt>
      <trkpt lat="45.96071" lon="6.77455">
        <ele>1627.7</ele>
        <time>2013-08-26T10:05:08Z</time>
      </trkpt>
      <trkpt lat="45.96071" lon="6.77464">
        <ele>1626.2</ele>
        <time>2013-08-26T10:05:09Z</time>
      </trkpt>
      <trkpt lat="45.9607" lon="6.77472">
        <ele>1625.3</ele>
        <time>2013-08-26T10:05:10Z</time>
      </trkpt>
      <trkpt lat="45.96067" lon="6.77479">
        <ele>1623.8</ele>
        <time>2013-08-26T10:05:11Z</time>
      </trkpt>
      <trkpt lat="45.96063" lon="6.77486">
        <ele>1623.3</ele>
        <time>2013-08-26T10:05:12Z</time>
      </trkpt>
      <trkpt lat="45.96059" lon="6.77493">
        <ele>1622.4</ele>
        <time>2013-08-26T10:05:13Z</time>
      </trkpt>
      <trkpt lat="45.96049" lon="6.77506">
        <ele>1620</ele>
        <time>2013-08-26T10:05:15Z</time>
      </trkpt>
      <trkpt lat="45.96043" lon="6.7751">
        <ele>1618.5</ele>
        <time>2013-08-26T10:05:16Z</time>
      </trkpt>
      <trkpt lat="45.96039" lon="6.77516">
        <ele>1617.6</ele>
        <time>2013-08-26T10:05:17Z</time>
      </trkpt>
      <trkpt lat="45.96035" lon="6.77523">
        <ele>1616.1</ele>
        <time>2013-08-26T10:05:18Z</time>
      </trkpt>
      <trkpt lat="45.96033" lon="6.77532">
        <ele>1615.2</ele>
        <time>2013-08-26T10:05:19Z</time>
      </trkpt>
      <trkpt lat="45.96033" lon="6.77541">
        <ele>1614.2</ele>
        <time>2013-08-26T10:05:20Z</time>
      </trkpt>
      <trkpt lat="45.96032" lon="6.7755">
        <ele>1613.2</ele>
        <time>2013-08-26T10:05:21Z</time>
      </trkpt>
      <trkpt lat="45.9603" lon="6.77557">
        <ele>1612.3</ele>
        <time>2013-08-26T10:05:22Z</time>
      </trkpt>
      <trkpt lat="45.96026" lon="6.77562">
        <ele>1611.8</ele>
        <time>2013-08-26T10:05:23Z</time>
      </trkpt>
      <trkpt lat="45.96021" lon="6.77567">
        <ele>1611.3</ele>
        <time>2013-08-26T10:05:24Z</time>
      </trkpt>
      <trkpt lat="45.96017" lon="6.77573">
        <ele>1610.4</ele>
        <time>2013-08-26T10:05:25Z</time>
      </trkpt>
      <trkpt lat="45.96014" lon="6.77581">
        <ele>1609.4</ele>
        <time>2013-08-26T10:05:26Z</time>
      </trkpt>
      <trkpt lat="45.96012" lon="6.77588">
        <ele>1608.4</ele>
        <time>2013-08-26T10:05:27Z</time>
      </trkpt>
      <trkpt lat="45.96009" lon="6.77596">
        <ele>1607.5</ele>
        <time>2013-08-26T10:05:28Z</time>
      </trkpt>
      <trkpt lat="45.96005" lon="6.77604">
        <ele>1607.5</ele>
        <time>2013-08-26T10:05:29Z</time>
      </trkpt>
      <trkpt lat="45.96001" lon="6.77611">
        <ele>1607</ele>
        <time>2013-08-26T10:05:30Z</time>
      </trkpt>
      <trkpt lat="45.95996" lon="6.77618">
        <ele>1605.5</ele>
        <time>2013-08-26T10:05:31Z</time>
      </trkpt>
      <trkpt lat="45.95992" lon="6.77625">
        <ele>1603.6</ele>
        <time>2013-08-26T10:05:32Z</time>
      </trkpt>
      <trkpt lat="45.95975" lon="6.77652">
        <ele>1600.3</ele>
        <time>2013-08-26T10:05:36Z</time>
      </trkpt>
      <trkpt lat="45.95955" lon="6.77673">
        <ele>1595.9</ele>
        <time>2013-08-26T10:05:40Z</time>
      </trkpt>
      <trkpt lat="45.95951" lon="6.77679">
        <ele>1595.5</ele>
        <time>2013-08-26T10:05:41Z</time>
      </trkpt>
      <trkpt lat="45.95949" lon="6.77685">
        <ele>1594</ele>
        <time>2013-08-26T10:05:42Z</time>
      </trkpt>
      <trkpt lat="45.95949" lon="6.77692">
        <ele>1593.5</ele>
        <time>2013-08-26T10:05:43Z</time>
      </trkpt>
      <trkpt lat="45.9595" lon="6.777">
        <ele>1594</ele>
        <time>2013-08-26T10:05:44Z</time>
      </trkpt>
      <trkpt lat="45.9595" lon="6.77709">
        <ele>1593</ele>
        <time>2013-08-26T10:05:45Z</time>
      </trkpt>
      <trkpt lat="45.95949" lon="6.77718">
        <ele>1592.6</ele>
        <time>2013-08-26T10:05:46Z</time>
      </trkpt>
      <trkpt lat="45.95946" lon="6.77726">
        <ele>1591.1</ele>
        <time>2013-08-26T10:05:47Z</time>
      </trkpt>
      <trkpt lat="45.95944" lon="6.77734">
        <ele>1592.1</ele>
        <time>2013-08-26T10:05:48Z</time>
      </trkpt>
      <trkpt lat="45.9594" lon="6.77768">
        <ele>1592.6</ele>
        <time>2013-08-26T10:05:54Z</time>
      </trkpt>
      <trkpt lat="45.95939" lon="6.77773">
        <ele>1593</ele>
        <time>2013-08-26T10:05:55Z</time>
      </trkpt>
      <trkpt lat="45.95939" lon="6.77778">
        <ele>1592.1</ele>
        <time>2013-08-26T10:05:56Z</time>
      </trkpt>
      <trkpt lat="45.95939" lon="6.77783">
        <ele>1593</ele>
        <time>2013-08-26T10:05:57Z</time>
      </trkpt>
      <trkpt lat="45.9594" lon="6.77788">
        <ele>1593.5</ele>
        <time>2013-08-26T10:05:58Z</time>
      </trkpt>
      <trkpt lat="45.95943" lon="6.77793">
        <ele>1593.5</ele>
        <time>2013-08-26T10:05:59Z</time>
      </trkpt>
      <trkpt lat="45.95946" lon="6.77799">
        <ele>1593</ele>
        <time>2013-08-26T10:06:00Z</time>
      </trkpt>
      <trkpt lat="45.95953" lon="6.77811">
        <ele>1592.1</ele>
        <time>2013-08-26T10:06:02Z</time>
      </trkpt>
      <trkpt lat="45.95956" lon="6.77816">
        <ele>1592.6</ele>
        <time>2013-08-26T10:06:03Z</time>
      </trkpt>
      <trkpt lat="45.95959" lon="6.77821">
        <ele>1591.6</ele>
        <time>2013-08-26T10:06:04Z</time>
      </trkpt>
      <trkpt lat="45.95964" lon="6.77825">
        <ele>1592.1</ele>
        <time>2013-08-26T10:06:05Z</time>
      </trkpt>
      <trkpt lat="45.95969" lon="6.77829">
        <ele>1591.6</ele>
        <time>2013-08-26T10:06:06Z</time>
      </trkpt>
      <trkpt lat="45.95974" lon="6.77832">
        <ele>1591.1</ele>
        <time>2013-08-26T10:06:07Z</time>
      </trkpt>
      <trkpt lat="45.9599" lon="6.77844">
        <ele>1589.7</ele>
        <time>2013-08-26T10:06:10Z</time>
      </trkpt>
      <trkpt lat="45.95993" lon="6.77848">
        <ele>1589.7</ele>
        <time>2013-08-26T10:06:11Z</time>
      </trkpt>
      <trkpt lat="45.95994" lon="6.77853">
        <ele>1589.2</ele>
        <time>2013-08-26T10:06:12Z</time>
      </trkpt>
      <trkpt lat="45.95994" lon="6.77858">
        <ele>1588.7</ele>
        <time>2013-08-26T10:06:13Z</time>
      </trkpt>
      <trkpt lat="45.95992" lon="6.77862">
        <ele>1587.8</ele>
        <time>2013-08-26T10:06:14Z</time>
      </trkpt>
      <trkpt lat="45.95986" lon="6.7787">
        <ele>1586.8</ele>
        <time>2013-08-26T10:06:16Z</time>
      </trkpt>
      <trkpt lat="45.95983" lon="6.77875">
        <ele>1586.3</ele>
        <time>2013-08-26T10:06:17Z</time>
      </trkpt>
      <trkpt lat="45.9598" lon="6.7788">
        <ele>1584.9</ele>
        <time>2013-08-26T10:06:18Z</time>
      </trkpt>
      <trkpt lat="45.95978" lon="6.77884">
        <ele>1583.9</ele>
        <time>2013-08-26T10:06:19Z</time>
      </trkpt>
      <trkpt lat="45.95973" lon="6.77885">
        <ele>1583.4</ele>
        <time>2013-08-26T10:06:20Z</time>
      </trkpt>
      <trkpt lat="45.95967" lon="6.77882">
        <ele>1582.5</ele>
        <time>2013-08-26T10:06:21Z</time>
      </trkpt>
      <trkpt lat="45.95961" lon="6.77879">
        <ele>1582</ele>
        <time>2013-08-26T10:06:22Z</time>
      </trkpt>
      <trkpt lat="45.95954" lon="6.77877">
        <ele>1581</ele>
        <time>2013-08-26T10:06:23Z</time>
      </trkpt>
      <trkpt lat="45.95917" lon="6.7787">
        <ele>1580.1</ele>
        <time>2013-08-26T10:06:29Z</time>
      </trkpt>
      <trkpt lat="45.9591" lon="6.77868">
        <ele>1579.1</ele>
        <time>2013-08-26T10:06:30Z</time>
      </trkpt>
      <trkpt lat="45.95903" lon="6.77866">
        <ele>1578.1</ele>
        <time>2013-08-26T10:06:31Z</time>
      </trkpt>
      <trkpt lat="45.95892" lon="6.77859">
        <ele>1576.7</ele>
        <time>2013-08-26T10:06:33Z</time>
      </trkpt>
      <trkpt lat="45.95889" lon="6.77856">
        <ele>1576.7</ele>
        <time>2013-08-26T10:06:34Z</time>
      </trkpt>
      <trkpt lat="45.95888" lon="6.77852">
        <ele>1576.2</ele>
        <time>2013-08-26T10:06:35Z</time>
      </trkpt>
      <trkpt lat="45.9589" lon="6.77843">
        <ele>1574.8</ele>
        <time>2013-08-26T10:06:37Z</time>
      </trkpt>
      <trkpt lat="45.95892" lon="6.77837">
        <ele>1574.3</ele>
        <time>2013-08-26T10:06:38Z</time>
      </trkpt>
      <trkpt lat="45.95898" lon="6.77824">
        <ele>1571.4</ele>
        <time>2013-08-26T10:06:40Z</time>
      </trkpt>
      <trkpt lat="45.95899" lon="6.77817">
        <ele>1570</ele>
        <time>2013-08-26T10:06:41Z</time>
      </trkpt>
      <trkpt lat="45.95899" lon="6.77811">
        <ele>1569</ele>
        <time>2013-08-26T10:06:42Z</time>
      </trkpt>
      <trkpt lat="45.95893" lon="6.77803">
        <ele>1567.6</ele>
        <time>2013-08-26T10:06:45Z</time>
      </trkpt>
      <trkpt lat="45.95891" lon="6.77803">
        <ele>1567.6</ele>
        <time>2013-08-26T10:06:46Z</time>
      </trkpt>
      <trkpt lat="45.9588" lon="6.77794">
        <ele>1566.1</ele>
        <time>2013-08-26T10:06:52Z</time>
      </trkpt>
      <trkpt lat="45.95877" lon="6.77789">
        <ele>1564.7</ele>
        <time>2013-08-26T10:06:53Z</time>
      </trkpt>
      <trkpt lat="45.95871" lon="6.77778">
        <ele>1564.2</ele>
        <time>2013-08-26T10:06:55Z</time>
      </trkpt>
      <trkpt lat="45.95865" lon="6.77765">
        <ele>1563.2</ele>
        <time>2013-08-26T10:06:57Z</time>
      </trkpt>
      <trkpt lat="45.95863" lon="6.77759">
        <ele>1562.3</ele>
        <time>2013-08-26T10:06:58Z</time>
      </trkpt>
      <trkpt lat="45.95861" lon="6.77751">
        <ele>1561.8</ele>
        <time>2013-08-26T10:06:59Z</time>
      </trkpt>
      <trkpt lat="45.95862" lon="6.77744">
        <ele>1560.8</ele>
        <time>2013-08-26T10:07:00Z</time>
      </trkpt>
      <trkpt lat="45.95863" lon="6.7773">
        <ele>1559.9</ele>
        <time>2013-08-26T10:07:02Z</time>
      </trkpt>
      <trkpt lat="45.95864" lon="6.77723">
        <ele>1559.4</ele>
        <time>2013-08-26T10:07:03Z</time>
      </trkpt>
      <trkpt lat="45.95864" lon="6.77716">
        <ele>1558.9</ele>
        <time>2013-08-26T10:07:04Z</time>
      </trkpt>
      <trkpt lat="45.95865" lon="6.77697">
        <ele>1557</ele>
        <time>2013-08-26T10:07:06Z</time>
      </trkpt>
      <trkpt lat="45.95867" lon="6.77688">
        <ele>1556</ele>
        <time>2013-08-26T10:07:07Z</time>
      </trkpt>
      <trkpt lat="45.95869" lon="6.7768">
        <ele>1555.1</ele>
        <time>2013-08-26T10:07:08Z</time>
      </trkpt>
      <trkpt lat="45.95869" lon="6.77673">
        <ele>1553.2</ele>
        <time>2013-08-26T10:07:09Z</time>
      </trkpt>
      <trkpt lat="45.95867" lon="6.77668">
        <ele>1552.7</ele>
        <time>2013-08-26T10:07:10Z</time>
      </trkpt>
      <trkpt lat="45.95864" lon="6.77666">
        <ele>1551.7</ele>
        <time>2013-08-26T10:07:11Z</time>
      </trkpt>
      <trkpt lat="45.9586" lon="6.77668">
        <ele>1551.2</ele>
        <time>2013-08-26T10:07:12Z</time>
      </trkpt>
      <trkpt lat="45.95856" lon="6.77673">
        <ele>1550.3</ele>
        <time>2013-08-26T10:07:13Z</time>
      </trkpt>
      <trkpt lat="45.95851" lon="6.77679">
        <ele>1548.8</ele>
        <time>2013-08-26T10:07:14Z</time>
      </trkpt>
      <trkpt lat="45.95848" lon="6.77682">
        <ele>1547.9</ele>
        <time>2013-08-26T10:07:15Z</time>
      </trkpt>
      <trkpt lat="45.9584" lon="6.7769">
        <ele>1545.9</ele>
        <time>2013-08-26T10:07:16Z</time>
      </trkpt>
      <trkpt lat="45.95835" lon="6.77694">
        <ele>1544.5</ele>
        <time>2013-08-26T10:07:17Z</time>
      </trkpt>
      <trkpt lat="45.9583" lon="6.77696">
        <ele>1543.5</ele>
        <time>2013-08-26T10:07:18Z</time>
      </trkpt>
      <trkpt lat="45.95825" lon="6.77696">
        <ele>1543.1</ele>
        <time>2013-08-26T10:07:19Z</time>
      </trkpt>
      <trkpt lat="45.95821" lon="6.77696">
        <ele>1542.1</ele>
        <time>2013-08-26T10:07:20Z</time>
      </trkpt>
      <trkpt lat="45.95818" lon="6.77696">
        <ele>1542.1</ele>
        <time>2013-08-26T10:07:21Z</time>
      </trkpt>
      <trkpt lat="45.95817" lon="6.77696">
        <ele>1541.1</ele>
        <time>2013-08-26T10:07:22Z</time>
      </trkpt>
      <trkpt lat="45.95814" lon="6.77696">
        <ele>1541.1</ele>
        <time>2013-08-26T10:07:37Z</time>
      </trkpt>
      <trkpt lat="45.95814" lon="6.77695">
        <ele>1539.7</ele>
        <time>2013-08-26T10:07:52Z</time>
      </trkpt>
      <trkpt lat="45.95813" lon="6.77694">
        <ele>1543.1</ele>
        <time>2013-08-26T10:07:57Z</time>
      </trkpt>
      <trkpt lat="45.95812" lon="6.77695">
        <ele>1536.8</ele>
        <time>2013-08-26T10:08:03Z</time>
      </trkpt>
      <trkpt lat="45.95812" lon="6.77695">
        <ele>1545</ele>
        <time>2013-08-26T10:08:04Z</time>
      </trkpt>
      <trkpt lat="45.95812" lon="6.77695">
        <ele>1540.7</ele>
        <time>2013-08-26T10:08:05Z</time>
      </trkpt>
      <trkpt lat="45.95812" lon="6.77694">
        <ele>1541.6</ele>
        <time>2013-08-26T10:08:08Z</time>
      </trkpt>
      <trkpt lat="45.9581" lon="6.77692">
        <ele>1540.7</ele>
        <time>2013-08-26T10:08:10Z</time>
      </trkpt>
      <trkpt lat="45.95809" lon="6.77689">
        <ele>1540.7</ele>
        <time>2013-08-26T10:08:11Z</time>
      </trkpt>
      <trkpt lat="45.95807" lon="6.77686">
        <ele>1540.7</ele>
        <time>2013-08-26T10:08:12Z</time>
      </trkpt>
      <trkpt lat="45.95805" lon="6.77682">
        <ele>1539.7</ele>
        <time>2013-08-26T10:08:13Z</time>
      </trkpt>
      <trkpt lat="45.95804" lon="6.77677">
        <ele>1539.2</ele>
        <time>2013-08-26T10:08:14Z</time>
      </trkpt>
      <trkpt lat="45.95804" lon="6.77672">
        <ele>1539.2</ele>
        <time>2013-08-26T10:08:15Z</time>
      </trkpt>
      <trkpt lat="45.95805" lon="6.77666">
        <ele>1538.3</ele>
        <time>2013-08-26T10:08:16Z</time>
      </trkpt>
      <trkpt lat="45.95807" lon="6.77662">
        <ele>1537.3</ele>
        <time>2013-08-26T10:08:17Z</time>
      </trkpt>
      <trkpt lat="45.95807" lon="6.77657">
        <ele>1535.8</ele>
        <time>2013-08-26T10:08:18Z</time>
      </trkpt>
      <trkpt lat="45.95807" lon="6.77652">
        <ele>1536.3</ele>
        <time>2013-08-26T10:08:19Z</time>
      </trkpt>
      <trkpt lat="45.95805" lon="6.77649">
        <ele>1535.4</ele>
        <time>2013-08-26T10:08:20Z</time>
      </trkpt>
      <trkpt lat="45.95804" lon="6.77648">
        <ele>1534.9</ele>
        <time>2013-08-26T10:08:21Z</time>
      </trkpt>
      <trkpt lat="45.95801" lon="6.77647">
        <ele>1533.9</ele>
        <time>2013-08-26T10:08:22Z</time>
      </trkpt>
      <trkpt lat="45.95798" lon="6.77646">
        <ele>1533.4</ele>
        <time>2013-08-26T10:08:23Z</time>
      </trkpt>
      <trkpt lat="45.95794" lon="6.77643">
        <ele>1532.5</ele>
        <time>2013-08-26T10:08:24Z</time>
      </trkpt>
      <trkpt lat="45.9579" lon="6.77638">
        <ele>1531.5</ele>
        <time>2013-08-26T10:08:25Z</time>
      </trkpt>
      <trkpt lat="45.95786" lon="6.7763">
        <ele>1530.6</ele>
        <time>2013-08-26T10:08:26Z</time>
      </trkpt>
      <trkpt lat="45.95783" lon="6.77621">
        <ele>1529.6</ele>
        <time>2013-08-26T10:08:27Z</time>
      </trkpt>
      <trkpt lat="45.95782" lon="6.77612">
        <ele>1529.1</ele>
        <time>2013-08-26T10:08:28Z</time>
      </trkpt>
      <trkpt lat="45.95784" lon="6.77603">
        <ele>1527.7</ele>
        <time>2013-08-26T10:08:29Z</time>
      </trkpt>
      <trkpt lat="45.95787" lon="6.77594">
        <ele>1527.7</ele>
        <time>2013-08-26T10:08:30Z</time>
      </trkpt>
      <trkpt lat="45.95789" lon="6.77586">
        <ele>1527.2</ele>
        <time>2013-08-26T10:08:31Z</time>
      </trkpt>
      <trkpt lat="45.95793" lon="6.77566">
        <ele>1527.2</ele>
        <time>2013-08-26T10:08:33Z</time>
      </trkpt>
      <trkpt lat="45.95794" lon="6.77557">
        <ele>1526.2</ele>
        <time>2013-08-26T10:08:34Z</time>
      </trkpt>
      <trkpt lat="45.95795" lon="6.77547">
        <ele>1525.3</ele>
        <time>2013-08-26T10:08:35Z</time>
      </trkpt>
      <trkpt lat="45.95795" lon="6.77536">
        <ele>1525.3</ele>
        <time>2013-08-26T10:08:36Z</time>
      </trkpt>
      <trkpt lat="45.95794" lon="6.77516">
        <ele>1523.8</ele>
        <time>2013-08-26T10:08:38Z</time>
      </trkpt>
      <trkpt lat="45.95792" lon="6.77508">
        <ele>1523.8</ele>
        <time>2013-08-26T10:08:39Z</time>
      </trkpt>
      <trkpt lat="45.95789" lon="6.775">
        <ele>1522.9</ele>
        <time>2013-08-26T10:08:40Z</time>
      </trkpt>
      <trkpt lat="45.95785" lon="6.77493">
        <ele>1522.4</ele>
        <time>2013-08-26T10:08:41Z</time>
      </trkpt>
      <trkpt lat="45.95781" lon="6.77483">
        <ele>1521.9</ele>
        <time>2013-08-26T10:08:42Z</time>
      </trkpt>
      <trkpt lat="45.95778" lon="6.77473">
        <ele>1521.4</ele>
        <time>2013-08-26T10:08:43Z</time>
      </trkpt>
      <trkpt lat="45.95774" lon="6.77464">
        <ele>1521.4</ele>
        <time>2013-08-26T10:08:44Z</time>
      </trkpt>
      <trkpt lat="45.9577" lon="6.77455">
        <ele>1520.5</ele>
        <time>2013-08-26T10:08:45Z</time>
      </trkpt>
      <trkpt lat="45.95753" lon="6.77429">
        <ele>1519</ele>
        <time>2013-08-26T10:08:48Z</time>
      </trkpt>
      <trkpt lat="45.95747" lon="6.77425">
        <ele>1518.5</ele>
        <time>2013-08-26T10:08:49Z</time>
      </trkpt>
      <trkpt lat="45.95744" lon="6.77427">
        <ele>1518.5</ele>
        <time>2013-08-26T10:08:50Z</time>
      </trkpt>
      <trkpt lat="45.95737" lon="6.77429">
        <ele>1518.1</ele>
        <time>2013-08-26T10:08:57Z</time>
      </trkpt>
      <trkpt lat="45.95735" lon="6.77427">
        <ele>1517.6</ele>
        <time>2013-08-26T10:08:58Z</time>
      </trkpt>
      <trkpt lat="45.95731" lon="6.77426">
        <ele>1517.1</ele>
        <time>2013-08-26T10:08:59Z</time>
      </trkpt>
      <trkpt lat="45.95723" lon="6.77423">
        <ele>1515.2</ele>
        <time>2013-08-26T10:09:01Z</time>
      </trkpt>
      <trkpt lat="45.9571" lon="6.77422">
        <ele>1513.3</ele>
        <time>2013-08-26T10:09:04Z</time>
      </trkpt>
      <trkpt lat="45.95706" lon="6.77424">
        <ele>1512.3</ele>
        <time>2013-08-26T10:09:05Z</time>
      </trkpt>
      <trkpt lat="45.95697" lon="6.77429">
        <ele>1510.9</ele>
        <time>2013-08-26T10:09:07Z</time>
      </trkpt>
      <trkpt lat="45.95692" lon="6.77429">
        <ele>1509.9</ele>
        <time>2013-08-26T10:09:08Z</time>
      </trkpt>
      <trkpt lat="45.95687" lon="6.77427">
        <ele>1508.9</ele>
        <time>2013-08-26T10:09:09Z</time>
      </trkpt>
      <trkpt lat="45.95681" lon="6.77422">
        <ele>1508</ele>
        <time>2013-08-26T10:09:10Z</time>
      </trkpt>
      <trkpt lat="45.95675" lon="6.77417">
        <ele>1507</ele>
        <time>2013-08-26T10:09:11Z</time>
      </trkpt>
      <trkpt lat="45.95669" lon="6.77412">
        <ele>1506</ele>
        <time>2013-08-26T10:09:12Z</time>
      </trkpt>
      <trkpt lat="45.95663" lon="6.77408">
        <ele>1505.6</ele>
        <time>2013-08-26T10:09:13Z</time>
      </trkpt>
      <trkpt lat="45.95657" lon="6.77405">
        <ele>1504.6</ele>
        <time>2013-08-26T10:09:14Z</time>
      </trkpt>
      <trkpt lat="45.95652" lon="6.77401">
        <ele>1503.2</ele>
        <time>2013-08-26T10:09:15Z</time>
      </trkpt>
      <trkpt lat="45.95649" lon="6.77397">
        <ele>1501.7</ele>
        <time>2013-08-26T10:09:16Z</time>
      </trkpt>
      <trkpt lat="45.95646" lon="6.7739">
        <ele>1500.8</ele>
        <time>2013-08-26T10:09:17Z</time>
      </trkpt>
      <trkpt lat="45.95644" lon="6.77383">
        <ele>1499.3</ele>
        <time>2013-08-26T10:09:18Z</time>
      </trkpt>
      <trkpt lat="45.95642" lon="6.77374">
        <ele>1498.4</ele>
        <time>2013-08-26T10:09:19Z</time>
      </trkpt>
      <trkpt lat="45.95641" lon="6.77365">
        <ele>1497.4</ele>
        <time>2013-08-26T10:09:20Z</time>
      </trkpt>
      <trkpt lat="45.95641" lon="6.77357">
        <ele>1496</ele>
        <time>2013-08-26T10:09:21Z</time>
      </trkpt>
      <trkpt lat="45.95641" lon="6.77342">
        <ele>1493.6</ele>
        <time>2013-08-26T10:09:23Z</time>
      </trkpt>
      <trkpt lat="45.9564" lon="6.77336">
        <ele>1493.1</ele>
        <time>2013-08-26T10:09:24Z</time>
      </trkpt>
      <trkpt lat="45.95639" lon="6.7733">
        <ele>1492.1</ele>
        <time>2013-08-26T10:09:25Z</time>
      </trkpt>
      <trkpt lat="45.95637" lon="6.77326">
        <ele>1492.1</ele>
        <time>2013-08-26T10:09:26Z</time>
      </trkpt>
      <trkpt lat="45.95634" lon="6.77322">
        <ele>1490.7</ele>
        <time>2013-08-26T10:09:34Z</time>
      </trkpt>
      <trkpt lat="45.95634" lon="6.7732">
        <ele>1490.2</ele>
        <time>2013-08-26T10:09:42Z</time>
      </trkpt>
      <trkpt lat="45.95633" lon="6.77316">
        <ele>1489.7</ele>
        <time>2013-08-26T10:09:43Z</time>
      </trkpt>
      <trkpt lat="45.95631" lon="6.77311">
        <ele>1489.2</ele>
        <time>2013-08-26T10:09:44Z</time>
      </trkpt>
      <trkpt lat="45.95628" lon="6.77294">
        <ele>1488.3</ele>
        <time>2013-08-26T10:09:46Z</time>
      </trkpt>
      <trkpt lat="45.95622" lon="6.7726">
        <ele>1485.4</ele>
        <time>2013-08-26T10:09:49Z</time>
      </trkpt>
      <trkpt lat="45.95622" lon="6.77224">
        <ele>1483.5</ele>
        <time>2013-08-26T10:09:53Z</time>
      </trkpt>
      <trkpt lat="45.95621" lon="6.77218">
        <ele>1483.5</ele>
        <time>2013-08-26T10:09:54Z</time>
      </trkpt>
      <trkpt lat="45.9562" lon="6.77211">
        <ele>1482</ele>
        <time>2013-08-26T10:09:55Z</time>
      </trkpt>
      <trkpt lat="45.95618" lon="6.77204">
        <ele>1482</ele>
        <time>2013-08-26T10:09:56Z</time>
      </trkpt>
      <trkpt lat="45.95615" lon="6.77196">
        <ele>1481.5</ele>
        <time>2013-08-26T10:09:57Z</time>
      </trkpt>
      <trkpt lat="45.95606" lon="6.77166">
        <ele>1478.7</ele>
        <time>2013-08-26T10:10:01Z</time>
      </trkpt>
      <trkpt lat="45.95605" lon="6.77159">
        <ele>1478.2</ele>
        <time>2013-08-26T10:10:02Z</time>
      </trkpt>
      <trkpt lat="45.95604" lon="6.77152">
        <ele>1476.7</ele>
        <time>2013-08-26T10:10:03Z</time>
      </trkpt>
      <trkpt lat="45.95599" lon="6.77134">
        <ele>1474.3</ele>
        <time>2013-08-26T10:10:06Z</time>
      </trkpt>
      <trkpt lat="45.95594" lon="6.7713">
        <ele>1473.8</ele>
        <time>2013-08-26T10:10:07Z</time>
      </trkpt>
      <trkpt lat="45.95581" lon="6.77118">
        <ele>1473.4</ele>
        <time>2013-08-26T10:10:09Z</time>
      </trkpt>
      <trkpt lat="45.95569" lon="6.77108">
        <ele>1470.5</ele>
        <time>2013-08-26T10:10:11Z</time>
      </trkpt>
      <trkpt lat="45.95562" lon="6.77103">
        <ele>1470.5</ele>
        <time>2013-08-26T10:10:12Z</time>
      </trkpt>
      <trkpt lat="45.95551" lon="6.77094">
        <ele>1467.6</ele>
        <time>2013-08-26T10:10:14Z</time>
      </trkpt>
      <trkpt lat="45.95547" lon="6.77087">
        <ele>1466.6</ele>
        <time>2013-08-26T10:10:15Z</time>
      </trkpt>
      <trkpt lat="45.95543" lon="6.7708">
        <ele>1464.7</ele>
        <time>2013-08-26T10:10:16Z</time>
      </trkpt>
      <trkpt lat="45.95531" lon="6.77056">
        <ele>1461.3</ele>
        <time>2013-08-26T10:10:19Z</time>
      </trkpt>
      <trkpt lat="45.95516" lon="6.77031">
        <ele>1457.5</ele>
        <time>2013-08-26T10:10:22Z</time>
      </trkpt>
      <trkpt lat="45.95511" lon="6.77025">
        <ele>1457</ele>
        <time>2013-08-26T10:10:23Z</time>
      </trkpt>
      <trkpt lat="45.95504" lon="6.77021">
        <ele>1455.6</ele>
        <time>2013-08-26T10:10:24Z</time>
      </trkpt>
      <trkpt lat="45.95481" lon="6.77013">
        <ele>1451.7</ele>
        <time>2013-08-26T10:10:27Z</time>
      </trkpt>
      <trkpt lat="45.95457" lon="6.77006">
        <ele>1447.4</ele>
        <time>2013-08-26T10:10:30Z</time>
      </trkpt>
      <trkpt lat="45.95449" lon="6.77007">
        <ele>1445.5</ele>
        <time>2013-08-26T10:10:31Z</time>
      </trkpt>
      <trkpt lat="45.95444" lon="6.77009">
        <ele>1445</ele>
        <time>2013-08-26T10:10:32Z</time>
      </trkpt>
      <trkpt lat="45.95433" lon="6.77016">
        <ele>1444</ele>
        <time>2013-08-26T10:10:39Z</time>
      </trkpt>
      <trkpt lat="45.95431" lon="6.77016">
        <ele>1443.6</ele>
        <time>2013-08-26T10:10:40Z</time>
      </trkpt>
      <trkpt lat="45.95429" lon="6.77015">
        <ele>1443.6</ele>
        <time>2013-08-26T10:10:41Z</time>
      </trkpt>
      <trkpt lat="45.95427" lon="6.77013">
        <ele>1443.6</ele>
        <time>2013-08-26T10:10:42Z</time>
      </trkpt>
      <trkpt lat="45.95424" lon="6.77011">
        <ele>1443.1</ele>
        <time>2013-08-26T10:10:43Z</time>
      </trkpt>
      <trkpt lat="45.9542" lon="6.77009">
        <ele>1443.1</ele>
        <time>2013-08-26T10:10:44Z</time>
      </trkpt>
      <trkpt lat="45.95416" lon="6.77007">
        <ele>1443.6</ele>
        <time>2013-08-26T10:10:45Z</time>
      </trkpt>
      <trkpt lat="45.95411" lon="6.77007">
        <ele>1443.1</ele>
        <time>2013-08-26T10:10:46Z</time>
      </trkpt>
      <trkpt lat="45.95406" lon="6.77006">
        <ele>1441.2</ele>
        <time>2013-08-26T10:10:47Z</time>
      </trkpt>
      <trkpt lat="45.95402" lon="6.77004">
        <ele>1439.2</ele>
        <time>2013-08-26T10:10:48Z</time>
      </trkpt>
      <trkpt lat="45.95398" lon="6.76999">
        <ele>1437.8</ele>
        <time>2013-08-26T10:10:49Z</time>
      </trkpt>
      <trkpt lat="45.95395" lon="6.76993">
        <ele>1436.4</ele>
        <time>2013-08-26T10:10:50Z</time>
      </trkpt>
      <trkpt lat="45.95393" lon="6.76984">
        <ele>1436.4</ele>
        <time>2013-08-26T10:10:51Z</time>
      </trkpt>
      <trkpt lat="45.95391" lon="6.76973">
        <ele>1434.9</ele>
        <time>2013-08-26T10:10:52Z</time>
      </trkpt>
      <trkpt lat="45.95389" lon="6.76962">
        <ele>1435.4</ele>
        <time>2013-08-26T10:10:53Z</time>
      </trkpt>
      <trkpt lat="45.95386" lon="6.76952">
        <ele>1433.9</ele>
        <time>2013-08-26T10:10:54Z</time>
      </trkpt>
      <trkpt lat="45.95383" lon="6.76942">
        <ele>1434.4</ele>
        <time>2013-08-26T10:10:55Z</time>
      </trkpt>
      <trkpt lat="45.9538" lon="6.76933">
        <ele>1434.4</ele>
        <time>2013-08-26T10:10:56Z</time>
      </trkpt>
      <trkpt lat="45.95377" lon="6.76923">
        <ele>1433.5</ele>
        <time>2013-08-26T10:10:57Z</time>
      </trkpt>
      <trkpt lat="45.95376" lon="6.76914">
        <ele>1433.5</ele>
        <time>2013-08-26T10:10:58Z</time>
      </trkpt>
      <trkpt lat="45.95374" lon="6.76903">
        <ele>1433.9</ele>
        <time>2013-08-26T10:10:59Z</time>
      </trkpt>
      <trkpt lat="45.95373" lon="6.76893">
        <ele>1432.5</ele>
        <time>2013-08-26T10:11:00Z</time>
      </trkpt>
      <trkpt lat="45.95371" lon="6.76882">
        <ele>1431.5</ele>
        <time>2013-08-26T10:11:01Z</time>
      </trkpt>
      <trkpt lat="45.95369" lon="6.7687">
        <ele>1430.1</ele>
        <time>2013-08-26T10:11:02Z</time>
      </trkpt>
      <trkpt lat="45.95362" lon="6.7685">
        <ele>1429.6</ele>
        <time>2013-08-26T10:11:04Z</time>
      </trkpt>
      <trkpt lat="45.95359" lon="6.76839">
        <ele>1429.1</ele>
        <time>2013-08-26T10:11:05Z</time>
      </trkpt>
      <trkpt lat="45.95355" lon="6.76817">
        <ele>1427.7</ele>
        <time>2013-08-26T10:11:07Z</time>
      </trkpt>
      <trkpt lat="45.95345" lon="6.76781">
        <ele>1424.8</ele>
        <time>2013-08-26T10:11:10Z</time>
      </trkpt>
      <trkpt lat="45.9534" lon="6.7677">
        <ele>1424.3</ele>
        <time>2013-08-26T10:11:11Z</time>
      </trkpt>
      <trkpt lat="45.95334" lon="6.76759">
        <ele>1423.9</ele>
        <time>2013-08-26T10:11:12Z</time>
      </trkpt>
      <trkpt lat="45.9533" lon="6.76747">
        <ele>1423.9</ele>
        <time>2013-08-26T10:11:13Z</time>
      </trkpt>
      <trkpt lat="45.95326" lon="6.76736">
        <ele>1423.9</ele>
        <time>2013-08-26T10:11:14Z</time>
      </trkpt>
      <trkpt lat="45.95319" lon="6.76717">
        <ele>1422.9</ele>
        <time>2013-08-26T10:11:16Z</time>
      </trkpt>
      <trkpt lat="45.95315" lon="6.76709">
        <ele>1423.4</ele>
        <time>2013-08-26T10:11:17Z</time>
      </trkpt>
      <trkpt lat="45.9531" lon="6.76704">
        <ele>1423.4</ele>
        <time>2013-08-26T10:11:18Z</time>
      </trkpt>
      <trkpt lat="45.95304" lon="6.767">
        <ele>1423.9</ele>
        <time>2013-08-26T10:11:19Z</time>
      </trkpt>
      <trkpt lat="45.95298" lon="6.76696">
        <ele>1423.9</ele>
        <time>2013-08-26T10:11:20Z</time>
      </trkpt>
      <trkpt lat="45.95293" lon="6.76693">
        <ele>1423.4</ele>
        <time>2013-08-26T10:11:21Z</time>
      </trkpt>
      <trkpt lat="45.95288" lon="6.76689">
        <ele>1423.9</ele>
        <time>2013-08-26T10:11:22Z</time>
      </trkpt>
      <trkpt lat="45.95284" lon="6.76684">
        <ele>1423.9</ele>
        <time>2013-08-26T10:11:23Z</time>
      </trkpt>
      <trkpt lat="45.95281" lon="6.7668">
        <ele>1424.8</ele>
        <time>2013-08-26T10:11:24Z</time>
      </trkpt>
      <trkpt lat="45.95279" lon="6.76675">
        <ele>1424.8</ele>
        <time>2013-08-26T10:11:25Z</time>
      </trkpt>
      <trkpt lat="45.95277" lon="6.76671">
        <ele>1425.3</ele>
        <time>2013-08-26T10:11:26Z</time>
      </trkpt>
      <trkpt lat="45.95256" lon="6.76632">
        <ele>1429.1</ele>
        <time>2013-08-26T10:11:38Z</time>
      </trkpt>
      <trkpt lat="45.95252" lon="6.76625">
        <ele>1425.8</ele>
        <time>2013-08-26T10:11:40Z</time>
      </trkpt>
      <trkpt lat="45.9525" lon="6.76621">
        <ele>1429.6</ele>
        <time>2013-08-26T10:11:41Z</time>
      </trkpt>
      <trkpt lat="45.95246" lon="6.76615">
        <ele>1425.3</ele>
        <time>2013-08-26T10:11:43Z</time>
      </trkpt>
      <trkpt lat="45.95244" lon="6.76612">
        <ele>1429.6</ele>
        <time>2013-08-26T10:11:44Z</time>
      </trkpt>
      <trkpt lat="45.95213" lon="6.76576">
        <ele>1430.6</ele>
        <time>2013-08-26T10:11:56Z</time>
      </trkpt>
      <trkpt lat="45.95209" lon="6.76556">
        <ele>1431.5</ele>
        <time>2013-08-26T10:12:01Z</time>
      </trkpt>
      <trkpt lat="45.95188" lon="6.76512">
        <ele>1433.5</ele>
        <time>2013-08-26T10:12:14Z</time>
      </trkpt>
      <trkpt lat="45.95158" lon="6.76465">
        <ele>1435.4</ele>
        <time>2013-08-26T10:12:27Z</time>
      </trkpt>
      <trkpt lat="45.95144" lon="6.76425">
        <ele>1435.4</ele>
        <time>2013-08-26T10:12:37Z</time>
      </trkpt>
      <trkpt lat="45.9514" lon="6.76412">
        <ele>1433.9</ele>
        <time>2013-08-26T10:12:47Z</time>
      </trkpt>
      <trkpt lat="45.9514" lon="6.76412">
        <ele>1433.5</ele>
        <time>2013-08-26T10:12:52Z</time>
      </trkpt>
      <trkpt lat="45.95139" lon="6.76412">
        <ele>1434.4</ele>
        <time>2013-08-26T10:13:03Z</time>
      </trkpt>
      <trkpt lat="45.95138" lon="6.76414">
        <ele>1434.4</ele>
        <time>2013-08-26T10:13:04Z</time>
      </trkpt>
      <trkpt lat="45.95138" lon="6.76415">
        <ele>1433.5</ele>
        <time>2013-08-26T10:13:05Z</time>
      </trkpt>
      <trkpt lat="45.95137" lon="6.76419">
        <ele>1433.9</ele>
        <time>2013-08-26T10:13:17Z</time>
      </trkpt>
      <trkpt lat="45.95137" lon="6.76419">
        <ele>1431.5</ele>
        <time>2013-08-26T10:13:21Z</time>
      </trkpt>
      <trkpt lat="45.95138" lon="6.76417">
        <ele>1432</ele>
        <time>2013-08-26T10:13:50Z</time>
      </trkpt>
      <trkpt lat="45.95138" lon="6.76418">
        <ele>1432</ele>
        <time>2013-08-26T10:14:20Z</time>
      </trkpt>
      <trkpt lat="45.95131" lon="6.76449">
        <ele>1432</ele>
        <time>2013-08-26T10:14:29Z</time>
      </trkpt>
      <trkpt lat="45.95124" lon="6.76468">
        <ele>1430.6</ele>
        <time>2013-08-26T10:14:32Z</time>
      </trkpt>
      <trkpt lat="45.9512" lon="6.76483">
        <ele>1429.6</ele>
        <time>2013-08-26T10:14:34Z</time>
      </trkpt>
      <trkpt lat="45.95119" lon="6.76492">
        <ele>1429.6</ele>
        <time>2013-08-26T10:14:35Z</time>
      </trkpt>
      <trkpt lat="45.95118" lon="6.76509">
        <ele>1427.7</ele>
        <time>2013-08-26T10:14:37Z</time>
      </trkpt>
      <trkpt lat="45.95118" lon="6.76517">
        <ele>1426.7</ele>
        <time>2013-08-26T10:14:38Z</time>
      </trkpt>
      <trkpt lat="45.95119" lon="6.76525">
        <ele>1426.3</ele>
        <time>2013-08-26T10:14:39Z</time>
      </trkpt>
      <trkpt lat="45.95121" lon="6.76532">
        <ele>1425.3</ele>
        <time>2013-08-26T10:14:40Z</time>
      </trkpt>
      <trkpt lat="45.95123" lon="6.7654">
        <ele>1424.8</ele>
        <time>2013-08-26T10:14:41Z</time>
      </trkpt>
      <trkpt lat="45.95126" lon="6.76547">
        <ele>1424.8</ele>
        <time>2013-08-26T10:14:42Z</time>
      </trkpt>
      <trkpt lat="45.9513" lon="6.76561">
        <ele>1423.4</ele>
        <time>2013-08-26T10:14:44Z</time>
      </trkpt>
      <trkpt lat="45.95131" lon="6.76568">
        <ele>1422.9</ele>
        <time>2013-08-26T10:14:45Z</time>
      </trkpt>
      <trkpt lat="45.95131" lon="6.76592">
        <ele>1420.5</ele>
        <time>2013-08-26T10:14:49Z</time>
      </trkpt>
      <trkpt lat="45.95129" lon="6.76597">
        <ele>1420.5</ele>
        <time>2013-08-26T10:14:50Z</time>
      </trkpt>
      <trkpt lat="45.95127" lon="6.76602">
        <ele>1420.5</ele>
        <time>2013-08-26T10:14:51Z</time>
      </trkpt>
      <trkpt lat="45.95124" lon="6.76606">
        <ele>1419.5</ele>
        <time>2013-08-26T10:14:52Z</time>
      </trkpt>
      <trkpt lat="45.95121" lon="6.76607">
        <ele>1420</ele>
        <time>2013-08-26T10:14:53Z</time>
      </trkpt>
      <trkpt lat="45.95119" lon="6.76606">
        <ele>1419.5</ele>
        <time>2013-08-26T10:14:54Z</time>
      </trkpt>
      <trkpt lat="45.95117" lon="6.76604">
        <ele>1419.5</ele>
        <time>2013-08-26T10:14:55Z</time>
      </trkpt>
      <trkpt lat="45.95116" lon="6.76601">
        <ele>1418.6</ele>
        <time>2013-08-26T10:14:56Z</time>
      </trkpt>
      <trkpt lat="45.95115" lon="6.76601">
        <ele>1418.6</ele>
        <time>2013-08-26T10:15:06Z</time>
      </trkpt>
      <trkpt lat="45.95133" lon="6.76605">
        <ele>1418.6</ele>
        <time>2013-08-26T10:15:19Z</time>
      </trkpt>
      <trkpt lat="45.95134" lon="6.76606">
        <ele>1419.5</ele>
        <time>2013-08-26T10:15:20Z</time>
      </trkpt>
      <trkpt lat="45.95134" lon="6.76607">
        <ele>1419.5</ele>
        <time>2013-08-26T10:15:21Z</time>
      </trkpt>
      <trkpt lat="45.95136" lon="6.76631">
        <ele>1421.5</ele>
        <time>2013-08-26T10:15:35Z</time>
      </trkpt>
      <trkpt lat="45.95136" lon="6.76633">
        <ele>1421</ele>
        <time>2013-08-26T10:15:36Z</time>
      </trkpt>
      <trkpt lat="45.95136" lon="6.76635">
        <ele>1421.9</ele>
        <time>2013-08-26T10:15:37Z</time>
      </trkpt>
      <trkpt lat="45.95136" lon="6.76637">
        <ele>1421.9</ele>
        <time>2013-08-26T10:15:38Z</time>
      </trkpt>
      <trkpt lat="45.95137" lon="6.76638">
        <ele>1421.5</ele>
        <time>2013-08-26T10:15:39Z</time>
      </trkpt>
      <trkpt lat="45.95139" lon="6.7664">
        <ele>1421.9</ele>
        <time>2013-08-26T10:15:41Z</time>
      </trkpt>
      <trkpt lat="45.9514" lon="6.76641">
        <ele>1422.9</ele>
        <time>2013-08-26T10:15:42Z</time>
      </trkpt>
      <trkpt lat="45.95141" lon="6.76642">
        <ele>1423.4</ele>
        <time>2013-08-26T10:15:43Z</time>
      </trkpt>
      <trkpt lat="45.95141" lon="6.76644">
        <ele>1422.4</ele>
        <time>2013-08-26T10:15:44Z</time>
      </trkpt>
      <trkpt lat="45.95147" lon="6.76659">
        <ele>1422.4</ele>
        <time>2013-08-26T10:15:57Z</time>
      </trkpt>
      <trkpt lat="45.95149" lon="6.76673">
        <ele>1421</ele>
        <time>2013-08-26T10:16:00Z</time>
      </trkpt>
      <trkpt lat="45.9515" lon="6.76676">
        <ele>1420.5</ele>
        <time>2013-08-26T10:16:01Z</time>
      </trkpt>
      <trkpt lat="45.9515" lon="6.76678">
        <ele>1419.5</ele>
        <time>2013-08-26T10:16:02Z</time>
      </trkpt>
      <trkpt lat="45.95146" lon="6.767">
        <ele>1419.5</ele>
        <time>2013-08-26T10:16:11Z</time>
      </trkpt>
      <trkpt lat="45.95146" lon="6.76701">
        <ele>1418.1</ele>
        <time>2013-08-26T10:16:20Z</time>
      </trkpt>
      <trkpt lat="45.95145" lon="6.76701">
        <ele>1419</ele>
        <time>2013-08-26T10:16:21Z</time>
      </trkpt>
      <trkpt lat="45.95135" lon="6.76707">
        <ele>1419</ele>
        <time>2013-08-26T10:16:32Z</time>
      </trkpt>
      <trkpt lat="45.95135" lon="6.76707">
        <ele>1419.5</ele>
        <time>2013-08-26T10:16:33Z</time>
      </trkpt>
      <trkpt lat="45.95135" lon="6.76706">
        <ele>1419</ele>
        <time>2013-08-26T10:16:34Z</time>
      </trkpt>
      <trkpt lat="45.95149" lon="6.76701">
        <ele>1418.1</ele>
        <time>2013-08-26T10:16:47Z</time>
      </trkpt>
      <trkpt lat="45.95149" lon="6.76705">
        <ele>1417.6</ele>
        <time>2013-08-26T10:16:57Z</time>
      </trkpt>
      <trkpt lat="45.9515" lon="6.7671">
        <ele>1418.1</ele>
        <time>2013-08-26T10:17:09Z</time>
      </trkpt>
      <trkpt lat="45.95141" lon="6.7674">
        <ele>1415.2</ele>
        <time>2013-08-26T10:17:19Z</time>
      </trkpt>
      <trkpt lat="45.95129" lon="6.76763">
        <ele>1412.8</ele>
        <time>2013-08-26T10:17:26Z</time>
      </trkpt>
      <trkpt lat="45.95128" lon="6.76765">
        <ele>1411.8</ele>
        <time>2013-08-26T10:17:27Z</time>
      </trkpt>
      <trkpt lat="45.95126" lon="6.76769">
        <ele>1411.8</ele>
        <time>2013-08-26T10:17:28Z</time>
      </trkpt>
      <trkpt lat="45.95124" lon="6.76772">
        <ele>1411.4</ele>
        <time>2013-08-26T10:17:29Z</time>
      </trkpt>
      <trkpt lat="45.95122" lon="6.76777">
        <ele>1410.9</ele>
        <time>2013-08-26T10:17:30Z</time>
      </trkpt>
      <trkpt lat="45.95118" lon="6.76782">
        <ele>1411.4</ele>
        <time>2013-08-26T10:17:31Z</time>
      </trkpt>
      <trkpt lat="45.95115" lon="6.76786">
        <ele>1409.4</ele>
        <time>2013-08-26T10:17:32Z</time>
      </trkpt>
      <trkpt lat="45.95112" lon="6.76789">
        <ele>1409.9</ele>
        <time>2013-08-26T10:17:33Z</time>
      </trkpt>
      <trkpt lat="45.95096" lon="6.76794">
        <ele>1409</ele>
        <time>2013-08-26T10:17:43Z</time>
      </trkpt>
      <trkpt lat="45.95086" lon="6.76794">
        <ele>1404.1</ele>
        <time>2013-08-26T10:17:47Z</time>
      </trkpt>
      <trkpt lat="45.95076" lon="6.76794">
        <ele>1401.3</ele>
        <time>2013-08-26T10:17:50Z</time>
      </trkpt>
      <trkpt lat="45.95067" lon="6.768">
        <ele>1397.9</ele>
        <time>2013-08-26T10:17:54Z</time>
      </trkpt>
      <trkpt lat="45.95054" lon="6.76801">
        <ele>1394.5</ele>
        <time>2013-08-26T10:17:59Z</time>
      </trkpt>
      <trkpt lat="45.95051" lon="6.76802">
        <ele>1393.6</ele>
        <time>2013-08-26T10:18:01Z</time>
      </trkpt>
      <trkpt lat="45.95048" lon="6.76801">
        <ele>1390.7</ele>
        <time>2013-08-26T10:18:15Z</time>
      </trkpt>
      <trkpt lat="45.95042" lon="6.76805">
        <ele>1388.8</ele>
        <time>2013-08-26T10:18:24Z</time>
      </trkpt>
      <trkpt lat="45.95039" lon="6.76803">
        <ele>1386.4</ele>
        <time>2013-08-26T10:18:36Z</time>
      </trkpt>
      <trkpt lat="45.95037" lon="6.76816">
        <ele>1385.9</ele>
        <time>2013-08-26T10:18:49Z</time>
      </trkpt>
      <trkpt lat="45.95025" lon="6.76809">
        <ele>1385.9</ele>
        <time>2013-08-26T10:18:58Z</time>
      </trkpt>
      <trkpt lat="45.95023" lon="6.7681">
        <ele>1386.4</ele>
        <time>2013-08-26T10:18:59Z</time>
      </trkpt>
      <trkpt lat="45.95021" lon="6.7681">
        <ele>1383</ele>
        <time>2013-08-26T10:19:02Z</time>
      </trkpt>
      <trkpt lat="45.9502" lon="6.7681">
        <ele>1383.5</ele>
        <time>2013-08-26T10:19:03Z</time>
      </trkpt>
      <trkpt lat="45.95019" lon="6.7681">
        <ele>1382.5</ele>
        <time>2013-08-26T10:19:05Z</time>
      </trkpt>
      <trkpt lat="45.95018" lon="6.7681">
        <ele>1381.1</ele>
        <time>2013-08-26T10:19:06Z</time>
      </trkpt>
      <trkpt lat="45.95013" lon="6.76817">
        <ele>1378.2</ele>
        <time>2013-08-26T10:19:10Z</time>
      </trkpt>
      <trkpt lat="45.95006" lon="6.76821">
        <ele>1376.3</ele>
        <time>2013-08-26T10:19:15Z</time>
      </trkpt>
      <trkpt lat="45.95003" lon="6.76821">
        <ele>1375.8</ele>
        <time>2013-08-26T10:19:23Z</time>
      </trkpt>
      <trkpt lat="45.95001" lon="6.7682">
        <ele>1375.8</ele>
        <time>2013-08-26T10:19:24Z</time>
      </trkpt>
      <trkpt lat="45.9499" lon="6.76816">
        <ele>1375.3</ele>
        <time>2013-08-26T10:19:34Z</time>
      </trkpt>
      <trkpt lat="45.94982" lon="6.76813">
        <ele>1373.4</ele>
        <time>2013-08-26T10:19:41Z</time>
      </trkpt>
      <trkpt lat="45.94979" lon="6.76813">
        <ele>1372.9</ele>
        <time>2013-08-26T10:19:42Z</time>
      </trkpt>
      <trkpt lat="45.94977" lon="6.76812">
        <ele>1371.5</ele>
        <time>2013-08-26T10:19:43Z</time>
      </trkpt>
      <trkpt lat="45.94974" lon="6.76812">
        <ele>1370.5</ele>
        <time>2013-08-26T10:19:44Z</time>
      </trkpt>
      <trkpt lat="45.94972" lon="6.7681">
        <ele>1370</ele>
        <time>2013-08-26T10:19:45Z</time>
      </trkpt>
      <trkpt lat="45.94971" lon="6.76809">
        <ele>1369.1</ele>
        <time>2013-08-26T10:19:46Z</time>
      </trkpt>
      <trkpt lat="45.9497" lon="6.76807">
        <ele>1368.6</ele>
        <time>2013-08-26T10:19:47Z</time>
      </trkpt>
      <trkpt lat="45.94968" lon="6.76806">
        <ele>1367.6</ele>
        <time>2013-08-26T10:19:48Z</time>
      </trkpt>
      <trkpt lat="45.94963" lon="6.76801">
        <ele>1365.2</ele>
        <time>2013-08-26T10:19:51Z</time>
      </trkpt>
      <trkpt lat="45.94955" lon="6.76803">
        <ele>1363.8</ele>
        <time>2013-08-26T10:19:54Z</time>
      </trkpt>
      <trkpt lat="45.94948" lon="6.76806">
        <ele>1360.4</ele>
        <time>2013-08-26T10:19:56Z</time>
      </trkpt>
      <trkpt lat="45.94944" lon="6.76808">
        <ele>1360.4</ele>
        <time>2013-08-26T10:19:57Z</time>
      </trkpt>
      <trkpt lat="45.9494" lon="6.76808">
        <ele>1359</ele>
        <time>2013-08-26T10:19:59Z</time>
      </trkpt>
      <trkpt lat="45.94935" lon="6.76806">
        <ele>1355.6</ele>
        <time>2013-08-26T10:20:02Z</time>
      </trkpt>
      <trkpt lat="45.94926" lon="6.76798">
        <ele>1354.2</ele>
        <time>2013-08-26T10:20:05Z</time>
      </trkpt>
      <trkpt lat="45.94918" lon="6.76796">
        <ele>1354.2</ele>
        <time>2013-08-26T10:20:07Z</time>
      </trkpt>
      <trkpt lat="45.94894" lon="6.76778">
        <ele>1353.2</ele>
        <time>2013-08-26T10:20:17Z</time>
      </trkpt>
      <trkpt lat="45.94876" lon="6.76775">
        <ele>1349.8</ele>
        <time>2013-08-26T10:20:25Z</time>
      </trkpt>
      <trkpt lat="45.94865" lon="6.76778">
        <ele>1348.9</ele>
        <time>2013-08-26T10:20:41Z</time>
      </trkpt>
      <trkpt lat="45.94865" lon="6.7677">
        <ele>1349.8</ele>
        <time>2013-08-26T10:21:12Z</time>
      </trkpt>
      <trkpt lat="45.94861" lon="6.76772">
        <ele>1349.4</ele>
        <time>2013-08-26T10:21:27Z</time>
      </trkpt>
      <trkpt lat="45.9486" lon="6.76771">
        <ele>1347.9</ele>
        <time>2013-08-26T10:21:28Z</time>
      </trkpt>
      <trkpt lat="45.94859" lon="6.76766">
        <ele>1346</ele>
        <time>2013-08-26T10:21:30Z</time>
      </trkpt>
      <trkpt lat="45.94857" lon="6.76762">
        <ele>1345</ele>
        <time>2013-08-26T10:21:31Z</time>
      </trkpt>
      <trkpt lat="45.94855" lon="6.7676">
        <ele>1344.1</ele>
        <time>2013-08-26T10:21:32Z</time>
      </trkpt>
      <trkpt lat="45.94853" lon="6.76759">
        <ele>1343.6</ele>
        <time>2013-08-26T10:21:33Z</time>
      </trkpt>
      <trkpt lat="45.9485" lon="6.76761">
        <ele>1341.7</ele>
        <time>2013-08-26T10:21:35Z</time>
      </trkpt>
      <trkpt lat="45.94848" lon="6.76763">
        <ele>1340.7</ele>
        <time>2013-08-26T10:21:36Z</time>
      </trkpt>
      <trkpt lat="45.94846" lon="6.76765">
        <ele>1339.7</ele>
        <time>2013-08-26T10:21:37Z</time>
      </trkpt>
      <trkpt lat="45.94844" lon="6.76765">
        <ele>1338.3</ele>
        <time>2013-08-26T10:21:38Z</time>
      </trkpt>
      <trkpt lat="45.94842" lon="6.76764">
        <ele>1338.3</ele>
        <time>2013-08-26T10:21:39Z</time>
      </trkpt>
      <trkpt lat="45.9484" lon="6.76763">
        <ele>1338.3</ele>
        <time>2013-08-26T10:21:40Z</time>
      </trkpt>
      <trkpt lat="45.94836" lon="6.76761">
        <ele>1336.4</ele>
        <time>2013-08-26T10:21:42Z</time>
      </trkpt>
      <trkpt lat="45.94833" lon="6.7676">
        <ele>1335.4</ele>
        <time>2013-08-26T10:21:43Z</time>
      </trkpt>
      <trkpt lat="45.94831" lon="6.76758">
        <ele>1334.9</ele>
        <time>2013-08-26T10:21:44Z</time>
      </trkpt>
      <trkpt lat="45.94825" lon="6.76752">
        <ele>1331.1</ele>
        <time>2013-08-26T10:21:47Z</time>
      </trkpt>
      <trkpt lat="45.94818" lon="6.76748">
        <ele>1329.2</ele>
        <time>2013-08-26T10:21:50Z</time>
      </trkpt>
      <trkpt lat="45.94809" lon="6.7675">
        <ele>1325.3</ele>
        <time>2013-08-26T10:21:53Z</time>
      </trkpt>
      <trkpt lat="45.94807" lon="6.76752">
        <ele>1323.9</ele>
        <time>2013-08-26T10:21:54Z</time>
      </trkpt>
      <trkpt lat="45.94805" lon="6.76754">
        <ele>1323.4</ele>
        <time>2013-08-26T10:21:55Z</time>
      </trkpt>
      <trkpt lat="45.94801" lon="6.76756">
        <ele>1321.5</ele>
        <time>2013-08-26T10:21:57Z</time>
      </trkpt>
      <trkpt lat="45.94799" lon="6.76756">
        <ele>1320</ele>
        <time>2013-08-26T10:21:58Z</time>
      </trkpt>
      <trkpt lat="45.94797" lon="6.76757">
        <ele>1319.6</ele>
        <time>2013-08-26T10:21:59Z</time>
      </trkpt>
      <trkpt lat="45.94795" lon="6.76757">
        <ele>1318.1</ele>
        <time>2013-08-26T10:22:00Z</time>
      </trkpt>
      <trkpt lat="45.94793" lon="6.76757">
        <ele>1317.1</ele>
        <time>2013-08-26T10:22:01Z</time>
      </trkpt>
      <trkpt lat="45.94791" lon="6.76757">
        <ele>1315.7</ele>
        <time>2013-08-26T10:22:02Z</time>
      </trkpt>
      <trkpt lat="45.94786" lon="6.76756">
        <ele>1313.8</ele>
        <time>2013-08-26T10:22:04Z</time>
      </trkpt>
      <trkpt lat="45.94783" lon="6.76756">
        <ele>1312.8</ele>
        <time>2013-08-26T10:22:05Z</time>
      </trkpt>
      <trkpt lat="45.9478" lon="6.76756">
        <ele>1311.9</ele>
        <time>2013-08-26T10:22:06Z</time>
      </trkpt>
      <trkpt lat="45.94777" lon="6.76756">
        <ele>1310.9</ele>
        <time>2013-08-26T10:22:07Z</time>
      </trkpt>
      <trkpt lat="45.94775" lon="6.76758">
        <ele>1310.9</ele>
        <time>2013-08-26T10:22:08Z</time>
      </trkpt>
      <trkpt lat="45.94772" lon="6.76758">
        <ele>1309.9</ele>
        <time>2013-08-26T10:22:09Z</time>
      </trkpt>
      <trkpt lat="45.94766" lon="6.76759">
        <ele>1310.4</ele>
        <time>2013-08-26T10:22:12Z</time>
      </trkpt>
      <trkpt lat="45.94765" lon="6.7676">
        <ele>1309.9</ele>
        <time>2013-08-26T10:22:13Z</time>
      </trkpt>
      <trkpt lat="45.94762" lon="6.76761">
        <ele>1309.9</ele>
        <time>2013-08-26T10:22:14Z</time>
      </trkpt>
      <trkpt lat="45.9476" lon="6.76762">
        <ele>1308.5</ele>
        <time>2013-08-26T10:22:15Z</time>
      </trkpt>
      <trkpt lat="45.94757" lon="6.76762">
        <ele>1306.6</ele>
        <time>2013-08-26T10:22:16Z</time>
      </trkpt>
      <trkpt lat="45.94749" lon="6.76761">
        <ele>1303.2</ele>
        <time>2013-08-26T10:22:19Z</time>
      </trkpt>
      <trkpt lat="45.94742" lon="6.76761">
        <ele>1299.8</ele>
        <time>2013-08-26T10:22:22Z</time>
      </trkpt>
      <trkpt lat="45.94736" lon="6.7675">
        <ele>1296</ele>
        <time>2013-08-26T10:22:26Z</time>
      </trkpt>
      <trkpt lat="45.94731" lon="6.76746">
        <ele>1291.2</ele>
        <time>2013-08-26T10:22:30Z</time>
      </trkpt>
      <trkpt lat="45.94728" lon="6.76751">
        <ele>1290.2</ele>
        <time>2013-08-26T10:22:32Z</time>
      </trkpt>
      <trkpt lat="45.94723" lon="6.76755">
        <ele>1289.8</ele>
        <time>2013-08-26T10:22:37Z</time>
      </trkpt>
      <trkpt lat="45.94714" lon="6.76752">
        <ele>1286.4</ele>
        <time>2013-08-26T10:22:41Z</time>
      </trkpt>
      <trkpt lat="45.94712" lon="6.7675">
        <ele>1285.4</ele>
        <time>2013-08-26T10:22:42Z</time>
      </trkpt>
      <trkpt lat="45.9471" lon="6.76742">
        <ele>1283</ele>
        <time>2013-08-26T10:22:45Z</time>
      </trkpt>
      <trkpt lat="45.94711" lon="6.76739">
        <ele>1282.1</ele>
        <time>2013-08-26T10:22:46Z</time>
      </trkpt>
      <trkpt lat="45.9471" lon="6.76736">
        <ele>1281.1</ele>
        <time>2013-08-26T10:22:47Z</time>
      </trkpt>
      <trkpt lat="45.94708" lon="6.76728">
        <ele>1278.2</ele>
        <time>2013-08-26T10:22:51Z</time>
      </trkpt>
      <trkpt lat="45.94705" lon="6.76723">
        <ele>1275.8</ele>
        <time>2013-08-26T10:22:54Z</time>
      </trkpt>
      <trkpt lat="45.94702" lon="6.76721">
        <ele>1272.4</ele>
        <time>2013-08-26T10:22:58Z</time>
      </trkpt>
      <trkpt lat="45.94702" lon="6.76722">
        <ele>1272</ele>
        <time>2013-08-26T10:22:59Z</time>
      </trkpt>
      <trkpt lat="45.94701" lon="6.76725">
        <ele>1271</ele>
        <time>2013-08-26T10:23:02Z</time>
      </trkpt>
      <trkpt lat="45.947" lon="6.76726">
        <ele>1270.5</ele>
        <time>2013-08-26T10:23:03Z</time>
      </trkpt>
      <trkpt lat="45.94699" lon="6.76726">
        <ele>1269.6</ele>
        <time>2013-08-26T10:23:04Z</time>
      </trkpt>
      <trkpt lat="45.94697" lon="6.76726">
        <ele>1269.6</ele>
        <time>2013-08-26T10:23:05Z</time>
      </trkpt>
      <trkpt lat="45.94696" lon="6.76725">
        <ele>1269.6</ele>
        <time>2013-08-26T10:23:06Z</time>
      </trkpt>
      <trkpt lat="45.94695" lon="6.76723">
        <ele>1268.6</ele>
        <time>2013-08-26T10:23:07Z</time>
      </trkpt>
      <trkpt lat="45.94692" lon="6.76719">
        <ele>1265.7</ele>
        <time>2013-08-26T10:23:10Z</time>
      </trkpt>
      <trkpt lat="45.9469" lon="6.76721">
        <ele>1262.4</ele>
        <time>2013-08-26T10:23:16Z</time>
      </trkpt>
      <trkpt lat="45.94689" lon="6.76726">
        <ele>1261.4</ele>
        <time>2013-08-26T10:23:22Z</time>
      </trkpt>
      <trkpt lat="45.94687" lon="6.76733">
        <ele>1258</ele>
        <time>2013-08-26T10:23:26Z</time>
      </trkpt>
      <trkpt lat="45.94683" lon="6.76732">
        <ele>1256.1</ele>
        <time>2013-08-26T10:23:29Z</time>
      </trkpt>
      <trkpt lat="45.94679" lon="6.76728">
        <ele>1253.2</ele>
        <time>2013-08-26T10:23:32Z</time>
      </trkpt>
      <trkpt lat="45.94676" lon="6.76729">
        <ele>1252.3</ele>
        <time>2013-08-26T10:23:34Z</time>
      </trkpt>
      <trkpt lat="45.94673" lon="6.76736">
        <ele>1249.4</ele>
        <time>2013-08-26T10:23:39Z</time>
      </trkpt>
      <trkpt lat="45.94668" lon="6.76745">
        <ele>1248.9</ele>
        <time>2013-08-26T10:24:00Z</time>
      </trkpt>
      <trkpt lat="45.94667" lon="6.76742">
        <ele>1248.4</ele>
        <time>2013-08-26T10:24:30Z</time>
      </trkpt>
      <trkpt lat="45.94665" lon="6.76746">
        <ele>1247.9</ele>
        <time>2013-08-26T10:25:08Z</time>
      </trkpt>
      <trkpt lat="45.94667" lon="6.76733">
        <ele>1247.5</ele>
        <time>2013-08-26T10:25:46Z</time>
      </trkpt>
      <trkpt lat="45.94665" lon="6.76732">
        <ele>1247</ele>
        <time>2013-08-26T10:26:30Z</time>
      </trkpt>
      <trkpt lat="45.94667" lon="6.76737">
        <ele>1246</ele>
        <time>2013-08-26T10:27:15Z</time>
      </trkpt>
      <trkpt lat="45.94675" lon="6.76733">
        <ele>1245.5</ele>
        <time>2013-08-26T10:28:03Z</time>
      </trkpt>
      <trkpt lat="45.9467" lon="6.76736">
        <ele>1245.5</ele>
        <time>2013-08-26T10:28:44Z</time>
      </trkpt>
      <trkpt lat="45.94681" lon="6.76735">
        <ele>1245</ele>
        <time>2013-08-26T10:29:25Z</time>
      </trkpt>
      <trkpt lat="45.94675" lon="6.76741">
        <ele>1245</ele>
        <time>2013-08-26T10:29:40Z</time>
      </trkpt>
      <trkpt lat="45.94673" lon="6.76748">
        <ele>1243.6</ele>
        <time>2013-08-26T10:29:44Z</time>
      </trkpt>
      <trkpt lat="45.94667" lon="6.76749">
        <ele>1241.2</ele>
        <time>2013-08-26T10:29:48Z</time>
      </trkpt>
      <trkpt lat="45.9466" lon="6.76758">
        <ele>1236.9</ele>
        <time>2013-08-26T10:29:53Z</time>
      </trkpt>
      <trkpt lat="45.94658" lon="6.76758">
        <ele>1235.9</ele>
        <time>2013-08-26T10:29:54Z</time>
      </trkpt>
      <trkpt lat="45.94657" lon="6.76759">
        <ele>1235.4</ele>
        <time>2013-08-26T10:29:55Z</time>
      </trkpt>
      <trkpt lat="45.94655" lon="6.76757">
        <ele>1235</ele>
        <time>2013-08-26T10:30:14Z</time>
      </trkpt>
      <trkpt lat="45.94651" lon="6.76762">
        <ele>1234</ele>
        <time>2013-08-26T10:30:39Z</time>
      </trkpt>
      <trkpt lat="45.9465" lon="6.76755">
        <ele>1232.6</ele>
        <time>2013-08-26T10:31:05Z</time>
      </trkpt>
      <trkpt lat="45.94648" lon="6.76753">
        <ele>1231.6</ele>
        <time>2013-08-26T10:31:06Z</time>
      </trkpt>
      <trkpt lat="45.94646" lon="6.7675">
        <ele>1231.1</ele>
        <time>2013-08-26T10:31:07Z</time>
      </trkpt>
      <trkpt lat="45.94641" lon="6.76747">
        <ele>1228.7</ele>
        <time>2013-08-26T10:31:10Z</time>
      </trkpt>
      <trkpt lat="45.94639" lon="6.76748">
        <ele>1227.7</ele>
        <time>2013-08-26T10:31:11Z</time>
      </trkpt>
      <trkpt lat="45.94636" lon="6.7674">
        <ele>1223.9</ele>
        <time>2013-08-26T10:31:16Z</time>
      </trkpt>
      <trkpt lat="45.94635" lon="6.76735">
        <ele>1222</ele>
        <time>2013-08-26T10:31:18Z</time>
      </trkpt>
      <trkpt lat="45.94628" lon="6.76736">
        <ele>1217.7</ele>
        <time>2013-08-26T10:31:23Z</time>
      </trkpt>
      <trkpt lat="45.94624" lon="6.76741">
        <ele>1214.8</ele>
        <time>2013-08-26T10:31:26Z</time>
      </trkpt>
      <trkpt lat="45.94619" lon="6.76753">
        <ele>1210</ele>
        <time>2013-08-26T10:31:30Z</time>
      </trkpt>
      <trkpt lat="45.94618" lon="6.7677">
        <ele>1206.1</ele>
        <time>2013-08-26T10:31:34Z</time>
      </trkpt>
      <trkpt lat="45.94615" lon="6.76779">
        <ele>1202.3</ele>
        <time>2013-08-26T10:31:38Z</time>
      </trkpt>
      <trkpt lat="45.94611" lon="6.76787">
        <ele>1198.9</ele>
        <time>2013-08-26T10:31:43Z</time>
      </trkpt>
      <trkpt lat="45.9461" lon="6.76795">
        <ele>1199.9</ele>
        <time>2013-08-26T10:32:07Z</time>
      </trkpt>
      <trkpt lat="45.94612" lon="6.768">
        <ele>1198.4</ele>
        <time>2013-08-26T10:32:27Z</time>
      </trkpt>
      <trkpt lat="45.94615" lon="6.76807">
        <ele>1195.5</ele>
        <time>2013-08-26T10:32:33Z</time>
      </trkpt>
      <trkpt lat="45.94616" lon="6.76815">
        <ele>1192.7</ele>
        <time>2013-08-26T10:32:40Z</time>
      </trkpt>
      <trkpt lat="45.94612" lon="6.76818">
        <ele>1192.2</ele>
        <time>2013-08-26T10:32:47Z</time>
      </trkpt>
      <trkpt lat="45.94602" lon="6.76808">
        <ele>1188.3</ele>
        <time>2013-08-26T10:32:52Z</time>
      </trkpt>
      <trkpt lat="45.9459" lon="6.76791">
        <ele>1183.5</ele>
        <time>2013-08-26T10:32:57Z</time>
      </trkpt>
      <trkpt lat="45.94586" lon="6.76777">
        <ele>1180.2</ele>
        <time>2013-08-26T10:33:01Z</time>
      </trkpt>
      <trkpt lat="45.94582" lon="6.76773">
        <ele>1176.8</ele>
        <time>2013-08-26T10:33:05Z</time>
      </trkpt>
      <trkpt lat="45.94581" lon="6.76774">
        <ele>1176.3</ele>
        <time>2013-08-26T10:33:06Z</time>
      </trkpt>
      <trkpt lat="45.94581" lon="6.76776">
        <ele>1175.8</ele>
        <time>2013-08-26T10:33:07Z</time>
      </trkpt>
      <trkpt lat="45.9458" lon="6.7679">
        <ele>1172.5</ele>
        <time>2013-08-26T10:33:11Z</time>
      </trkpt>
      <trkpt lat="45.94578" lon="6.76796">
        <ele>1170.5</ele>
        <time>2013-08-26T10:33:13Z</time>
      </trkpt>
      <trkpt lat="45.94574" lon="6.768">
        <ele>1168.6</ele>
        <time>2013-08-26T10:33:16Z</time>
      </trkpt>
      <trkpt lat="45.94571" lon="6.76799">
        <ele>1167.7</ele>
        <time>2013-08-26T10:33:17Z</time>
      </trkpt>
      <trkpt lat="45.94569" lon="6.76798">
        <ele>1166.7</ele>
        <time>2013-08-26T10:33:18Z</time>
      </trkpt>
      <trkpt lat="45.94559" lon="6.76797">
        <ele>1163.3</ele>
        <time>2013-08-26T10:33:22Z</time>
      </trkpt>
      <trkpt lat="45.94551" lon="6.768">
        <ele>1159</ele>
        <time>2013-08-26T10:33:25Z</time>
      </trkpt>
      <trkpt lat="45.94542" lon="6.76803">
        <ele>1156.6</ele>
        <time>2013-08-26T10:33:29Z</time>
      </trkpt>
      <trkpt lat="45.94539" lon="6.76811">
        <ele>1153.7</ele>
        <time>2013-08-26T10:33:33Z</time>
      </trkpt>
      <trkpt lat="45.9454" lon="6.76816">
        <ele>1152.8</ele>
        <time>2013-08-26T10:33:35Z</time>
      </trkpt>
      <trkpt lat="45.94545" lon="6.76827">
        <ele>1148.9</ele>
        <time>2013-08-26T10:33:40Z</time>
      </trkpt>
      <trkpt lat="45.94547" lon="6.76829">
        <ele>1148.9</ele>
        <time>2013-08-26T10:33:41Z</time>
      </trkpt>
      <trkpt lat="45.9455" lon="6.76834">
        <ele>1148</ele>
        <time>2013-08-26T10:33:43Z</time>
      </trkpt>
      <trkpt lat="45.94549" lon="6.76837">
        <ele>1146.5</ele>
        <time>2013-08-26T10:33:44Z</time>
      </trkpt>
      <trkpt lat="45.94547" lon="6.76838">
        <ele>1146</ele>
        <time>2013-08-26T10:33:46Z</time>
      </trkpt>
      <trkpt lat="45.94533" lon="6.76846">
        <ele>1145.6</ele>
        <time>2013-08-26T10:34:11Z</time>
      </trkpt>
      <trkpt lat="45.94536" lon="6.76846">
        <ele>1142.7</ele>
        <time>2013-08-26T10:34:25Z</time>
      </trkpt>
      <trkpt lat="45.94535" lon="6.76846">
        <ele>1142.2</ele>
        <time>2013-08-26T10:34:26Z</time>
      </trkpt>
      <trkpt lat="45.94533" lon="6.76848">
        <ele>1141.2</ele>
        <time>2013-08-26T10:34:27Z</time>
      </trkpt>
      <trkpt lat="45.94534" lon="6.76849">
        <ele>1139.8</ele>
        <time>2013-08-26T10:34:28Z</time>
      </trkpt>
      <trkpt lat="45.94534" lon="6.7685">
        <ele>1139.3</ele>
        <time>2013-08-26T10:34:29Z</time>
      </trkpt>
      <trkpt lat="45.94535" lon="6.76851">
        <ele>1138.8</ele>
        <time>2013-08-26T10:34:30Z</time>
      </trkpt>
      <trkpt lat="45.94537" lon="6.76853">
        <ele>1138.3</ele>
        <time>2013-08-26T10:34:31Z</time>
      </trkpt>
      <trkpt lat="45.94538" lon="6.76855">
        <ele>1136.9</ele>
        <time>2013-08-26T10:34:32Z</time>
      </trkpt>
      <trkpt lat="45.94539" lon="6.76857">
        <ele>1136.4</ele>
        <time>2013-08-26T10:34:33Z</time>
      </trkpt>
      <trkpt lat="45.9454" lon="6.76861">
        <ele>1134.5</ele>
        <time>2013-08-26T10:34:36Z</time>
      </trkpt>
      <trkpt lat="45.9454" lon="6.76863">
        <ele>1132.6</ele>
        <time>2013-08-26T10:34:37Z</time>
      </trkpt>
      <trkpt lat="45.9454" lon="6.76866">
        <ele>1131.6</ele>
        <time>2013-08-26T10:34:38Z</time>
      </trkpt>
      <trkpt lat="45.94541" lon="6.7687">
        <ele>1131.1</ele>
        <time>2013-08-26T10:34:39Z</time>
      </trkpt>
      <trkpt lat="45.94541" lon="6.76873">
        <ele>1130.2</ele>
        <time>2013-08-26T10:34:40Z</time>
      </trkpt>
      <trkpt lat="45.9454" lon="6.76875">
        <ele>1129.7</ele>
        <time>2013-08-26T10:34:41Z</time>
      </trkpt>
      <trkpt lat="45.9454" lon="6.76878">
        <ele>1129.2</ele>
        <time>2013-08-26T10:34:42Z</time>
      </trkpt>
      <trkpt lat="45.94539" lon="6.7688">
        <ele>1127.8</ele>
        <time>2013-08-26T10:34:43Z</time>
      </trkpt>
      <trkpt lat="45.94538" lon="6.76882">
        <ele>1127.8</ele>
        <time>2013-08-26T10:34:44Z</time>
      </trkpt>
      <trkpt lat="45.94534" lon="6.7689">
        <ele>1125.4</ele>
        <time>2013-08-26T10:34:47Z</time>
      </trkpt>
      <trkpt lat="45.9453" lon="6.769">
        <ele>1123.9</ele>
        <time>2013-08-26T10:34:50Z</time>
      </trkpt>
      <trkpt lat="45.94529" lon="6.76904">
        <ele>1123</ele>
        <time>2013-08-26T10:34:51Z</time>
      </trkpt>
      <trkpt lat="45.94528" lon="6.76908">
        <ele>1121</ele>
        <time>2013-08-26T10:34:52Z</time>
      </trkpt>
      <trkpt lat="45.94528" lon="6.76913">
        <ele>1120.1</ele>
        <time>2013-08-26T10:34:53Z</time>
      </trkpt>
      <trkpt lat="45.94527" lon="6.76917">
        <ele>1118.6</ele>
        <time>2013-08-26T10:34:54Z</time>
      </trkpt>
      <trkpt lat="45.94527" lon="6.76922">
        <ele>1117.7</ele>
        <time>2013-08-26T10:34:55Z</time>
      </trkpt>
      <trkpt lat="45.94527" lon="6.76925">
        <ele>1116.7</ele>
        <time>2013-08-26T10:34:56Z</time>
      </trkpt>
      <trkpt lat="45.94525" lon="6.76927">
        <ele>1115.3</ele>
        <time>2013-08-26T10:34:57Z</time>
      </trkpt>
      <trkpt lat="45.94522" lon="6.76926">
        <ele>1114.3</ele>
        <time>2013-08-26T10:34:58Z</time>
      </trkpt>
      <trkpt lat="45.94505" lon="6.76924">
        <ele>1109.5</ele>
        <time>2013-08-26T10:35:04Z</time>
      </trkpt>
      <trkpt lat="45.945" lon="6.76923">
        <ele>1108.1</ele>
        <time>2013-08-26T10:35:06Z</time>
      </trkpt>
      <trkpt lat="45.94497" lon="6.76924">
        <ele>1105.7</ele>
        <time>2013-08-26T10:35:08Z</time>
      </trkpt>
      <trkpt lat="45.945" lon="6.76933">
        <ele>1102.8</ele>
        <time>2013-08-26T10:35:12Z</time>
      </trkpt>
      <trkpt lat="45.94501" lon="6.76935">
        <ele>1102.3</ele>
        <time>2013-08-26T10:35:13Z</time>
      </trkpt>
      <trkpt lat="45.94498" lon="6.76939">
        <ele>1103.7</ele>
        <time>2013-08-26T10:35:35Z</time>
      </trkpt>
      <trkpt lat="45.945" lon="6.76941">
        <ele>1102.8</ele>
        <time>2013-08-26T10:35:49Z</time>
      </trkpt>
      <trkpt lat="45.94486" lon="6.76925">
        <ele>1098</ele>
        <time>2013-08-26T10:35:56Z</time>
      </trkpt>
      <trkpt lat="45.94475" lon="6.76912">
        <ele>1095.1</ele>
        <time>2013-08-26T10:36:01Z</time>
      </trkpt>
      <trkpt lat="45.94465" lon="6.76897">
        <ele>1090.8</ele>
        <time>2013-08-26T10:36:05Z</time>
      </trkpt>
      <trkpt lat="45.94459" lon="6.76891">
        <ele>1087.9</ele>
        <time>2013-08-26T10:36:07Z</time>
      </trkpt>
      <trkpt lat="45.94449" lon="6.76876">
        <ele>1083.5</ele>
        <time>2013-08-26T10:36:10Z</time>
      </trkpt>
      <trkpt lat="45.94447" lon="6.76871">
        <ele>1082.6</ele>
        <time>2013-08-26T10:36:11Z</time>
      </trkpt>
      <trkpt lat="45.94442" lon="6.76861">
        <ele>1079.2</ele>
        <time>2013-08-26T10:36:14Z</time>
      </trkpt>
      <trkpt lat="45.94432" lon="6.76847">
        <ele>1076.3</ele>
        <time>2013-08-26T10:36:17Z</time>
      </trkpt>
      <trkpt lat="45.94427" lon="6.76838">
        <ele>1074.4</ele>
        <time>2013-08-26T10:36:19Z</time>
      </trkpt>
      <trkpt lat="45.94422" lon="6.76828">
        <ele>1071.1</ele>
        <time>2013-08-26T10:36:24Z</time>
      </trkpt>
      <trkpt lat="45.94419" lon="6.76823">
        <ele>1070.1</ele>
        <time>2013-08-26T10:36:26Z</time>
      </trkpt>
      <trkpt lat="45.94393" lon="6.76836">
        <ele>1068.2</ele>
        <time>2013-08-26T10:36:31Z</time>
      </trkpt>
      <trkpt lat="45.94387" lon="6.76841">
        <ele>1069.1</ele>
        <time>2013-08-26T10:36:40Z</time>
      </trkpt>
      <trkpt lat="45.94386" lon="6.76834">
        <ele>1069.1</ele>
        <time>2013-08-26T10:37:00Z</time>
      </trkpt>
      <trkpt lat="45.94384" lon="6.76835">
        <ele>1069.1</ele>
        <time>2013-08-26T10:37:01Z</time>
      </trkpt>
      <trkpt lat="45.94368" lon="6.7684">
        <ele>1066.7</ele>
        <time>2013-08-26T10:37:06Z</time>
      </trkpt>
      <trkpt lat="45.94338" lon="6.76835">
        <ele>1064.3</ele>
        <time>2013-08-26T10:37:16Z</time>
      </trkpt>
      <trkpt lat="45.94322" lon="6.7683">
        <ele>1062.9</ele>
        <time>2013-08-26T10:37:20Z</time>
      </trkpt>
      <trkpt lat="45.9431" lon="6.76826">
        <ele>1061</ele>
        <time>2013-08-26T10:37:22Z</time>
      </trkpt>
      <trkpt lat="45.94274" lon="6.76816">
        <ele>1058.1</ele>
        <time>2013-08-26T10:37:27Z</time>
      </trkpt>
      <trkpt lat="45.94269" lon="6.76813">
        <ele>1057.1</ele>
        <time>2013-08-26T10:37:28Z</time>
      </trkpt>
      <trkpt lat="45.94264" lon="6.76811">
        <ele>1056.2</ele>
        <time>2013-08-26T10:37:29Z</time>
      </trkpt>
      <trkpt lat="45.94253" lon="6.76807">
        <ele>1054.7</ele>
        <time>2013-08-26T10:37:31Z</time>
      </trkpt>
      <trkpt lat="45.94248" lon="6.76804">
        <ele>1053.7</ele>
        <time>2013-08-26T10:37:32Z</time>
      </trkpt>
      <trkpt lat="45.94241" lon="6.76796">
        <ele>1050.9</ele>
        <time>2013-08-26T10:37:34Z</time>
      </trkpt>
      <trkpt lat="45.94239" lon="6.76783">
        <ele>1049.4</ele>
        <time>2013-08-26T10:37:35Z</time>
      </trkpt>
      <trkpt lat="45.94237" lon="6.76772">
        <ele>1048</ele>
        <time>2013-08-26T10:37:36Z</time>
      </trkpt>
      <trkpt lat="45.94235" lon="6.76764">
        <ele>1047</ele>
        <time>2013-08-26T10:37:37Z</time>
      </trkpt>
      <trkpt lat="45.94232" lon="6.76757">
        <ele>1045.6</ele>
        <time>2013-08-26T10:37:38Z</time>
      </trkpt>
      <trkpt lat="45.94224" lon="6.76746">
        <ele>1043.2</ele>
        <time>2013-08-26T10:37:40Z</time>
      </trkpt>
      <trkpt lat="45.94213" lon="6.76735">
        <ele>1040.3</ele>
        <time>2013-08-26T10:37:42Z</time>
      </trkpt>
      <trkpt lat="45.94199" lon="6.76724">
        <ele>1037.9</ele>
        <time>2013-08-26T10:37:44Z</time>
      </trkpt>
      <trkpt lat="45.94191" lon="6.76719">
        <ele>1036</ele>
        <time>2013-08-26T10:37:45Z</time>
      </trkpt>
      <trkpt lat="45.94183" lon="6.76715">
        <ele>1034.5</ele>
        <time>2013-08-26T10:37:46Z</time>
      </trkpt>
      <trkpt lat="45.94169" lon="6.76707">
        <ele>1032.6</ele>
        <time>2013-08-26T10:37:48Z</time>
      </trkpt>
      <trkpt lat="45.94163" lon="6.76703">
        <ele>1032.1</ele>
        <time>2013-08-26T10:37:49Z</time>
      </trkpt>
      <trkpt lat="45.94157" lon="6.767">
        <ele>1031.2</ele>
        <time>2013-08-26T10:37:50Z</time>
      </trkpt>
      <trkpt lat="45.94147" lon="6.76698">
        <ele>1027.8</ele>
        <time>2013-08-26T10:37:52Z</time>
      </trkpt>
      <trkpt lat="45.94133" lon="6.76701">
        <ele>1023</ele>
        <time>2013-08-26T10:37:55Z</time>
      </trkpt>
      <trkpt lat="45.94125" lon="6.76699">
        <ele>1021.1</ele>
        <time>2013-08-26T10:37:57Z</time>
      </trkpt>
      <trkpt lat="45.94122" lon="6.76697">
        <ele>1019.6</ele>
        <time>2013-08-26T10:37:58Z</time>
      </trkpt>
      <trkpt lat="45.9412" lon="6.76695">
        <ele>1018.2</ele>
        <time>2013-08-26T10:37:59Z</time>
      </trkpt>
      <trkpt lat="45.94116" lon="6.76692">
        <ele>1017.7</ele>
        <time>2013-08-26T10:38:00Z</time>
      </trkpt>
      <trkpt lat="45.94114" lon="6.76688">
        <ele>1016.3</ele>
        <time>2013-08-26T10:38:01Z</time>
      </trkpt>
      <trkpt lat="45.94111" lon="6.76683">
        <ele>1015.3</ele>
        <time>2013-08-26T10:38:02Z</time>
      </trkpt>
      <trkpt lat="45.94107" lon="6.76673">
        <ele>1011.9</ele>
        <time>2013-08-26T10:38:04Z</time>
      </trkpt>
      <trkpt lat="45.941" lon="6.76661">
        <ele>1010</ele>
        <time>2013-08-26T10:38:06Z</time>
      </trkpt>
      <trkpt lat="45.9409" lon="6.76651">
        <ele>1006.6</ele>
        <time>2013-08-26T10:38:09Z</time>
      </trkpt>
      <trkpt lat="45.94083" lon="6.76649">
        <ele>1003.8</ele>
        <time>2013-08-26T10:38:12Z</time>
      </trkpt>
      <trkpt lat="45.94083" lon="6.76668">
        <ele>1004.2</ele>
        <time>2013-08-26T10:38:17Z</time>
      </trkpt>
      <trkpt lat="45.94083" lon="6.76673">
        <ele>1003.3</ele>
        <time>2013-08-26T10:38:18Z</time>
      </trkpt>
      <trkpt lat="45.94082" lon="6.76678">
        <ele>1004.2</ele>
        <time>2013-08-26T10:38:19Z</time>
      </trkpt>
      <trkpt lat="45.94078" lon="6.7669">
        <ele>1003.8</ele>
        <time>2013-08-26T10:38:21Z</time>
      </trkpt>
      <trkpt lat="45.94077" lon="6.76695">
        <ele>1003.3</ele>
        <time>2013-08-26T10:38:22Z</time>
      </trkpt>
      <trkpt lat="45.94076" lon="6.767">
        <ele>1002.3</ele>
        <time>2013-08-26T10:38:23Z</time>
      </trkpt>
      <trkpt lat="45.94075" lon="6.76704">
        <ele>1002.8</ele>
        <time>2013-08-26T10:38:24Z</time>
      </trkpt>
      <trkpt lat="45.94076" lon="6.76706">
        <ele>1002.3</ele>
        <time>2013-08-26T10:38:25Z</time>
      </trkpt>
      <trkpt lat="45.94076" lon="6.76708">
        <ele>1002.3</ele>
        <time>2013-08-26T10:38:26Z</time>
      </trkpt>
      <trkpt lat="45.94076" lon="6.76726">
        <ele>1002.3</ele>
        <time>2013-08-26T10:38:37Z</time>
      </trkpt>
      <trkpt lat="45.94075" lon="6.76751">
        <ele>1001.4</ele>
        <time>2013-08-26T10:38:42Z</time>
      </trkpt>
      <trkpt lat="45.94079" lon="6.76763">
        <ele>1000.9</ele>
        <time>2013-08-26T10:38:44Z</time>
      </trkpt>
      <trkpt lat="45.94085" lon="6.76776">
        <ele>999.9</ele>
        <time>2013-08-26T10:38:46Z</time>
      </trkpt>
      <trkpt lat="45.94087" lon="6.76791">
        <ele>999.4</ele>
        <time>2013-08-26T10:38:48Z</time>
      </trkpt>
      <trkpt lat="45.94088" lon="6.76799">
        <ele>999</ele>
        <time>2013-08-26T10:38:49Z</time>
      </trkpt>
      <trkpt lat="45.94087" lon="6.76808">
        <ele>998.5</ele>
        <time>2013-08-26T10:38:50Z</time>
      </trkpt>
      <trkpt lat="45.94085" lon="6.76817">
        <ele>998.5</ele>
        <time>2013-08-26T10:38:51Z</time>
      </trkpt>
      <trkpt lat="45.94082" lon="6.76824">
        <ele>998</ele>
        <time>2013-08-26T10:38:52Z</time>
      </trkpt>
      <trkpt lat="45.9408" lon="6.7683">
        <ele>997.5</ele>
        <time>2013-08-26T10:38:53Z</time>
      </trkpt>
      <trkpt lat="45.94077" lon="6.76834">
        <ele>997.5</ele>
        <time>2013-08-26T10:38:54Z</time>
      </trkpt>
      <trkpt lat="45.94074" lon="6.76838">
        <ele>997</ele>
        <time>2013-08-26T10:38:55Z</time>
      </trkpt>
      <trkpt lat="45.94074" lon="6.7684">
        <ele>997</ele>
        <time>2013-08-26T10:39:03Z</time>
      </trkpt>
      <trkpt lat="45.94078" lon="6.76841">
        <ele>997</ele>
        <time>2013-08-26T10:39:27Z</time>
      </trkpt>
      <trkpt lat="45.9408" lon="6.76837">
        <ele>997</ele>
        <time>2013-08-26T10:40:01Z</time>
      </trkpt>
      <trkpt lat="45.94077" lon="6.76847">
        <ele>996.5</ele>
        <time>2013-08-26T10:40:17Z</time>
      </trkpt>
      <trkpt lat="45.94051" lon="6.76887">
        <ele>993.7</ele>
        <time>2013-08-26T10:40:26Z</time>
      </trkpt>
      <trkpt lat="45.94018" lon="6.76937">
        <ele>991.3</ele>
        <time>2013-08-26T10:40:33Z</time>
      </trkpt>
      <trkpt lat="45.94013" lon="6.76946">
        <ele>991.3</ele>
        <time>2013-08-26T10:40:34Z</time>
      </trkpt>
      <trkpt lat="45.9401" lon="6.76955">
        <ele>990.3</ele>
        <time>2013-08-26T10:40:35Z</time>
      </trkpt>
      <trkpt lat="45.94" lon="6.76982">
        <ele>989.3</ele>
        <time>2013-08-26T10:40:38Z</time>
      </trkpt>
      <trkpt lat="45.93996" lon="6.76987">
        <ele>988.4</ele>
        <time>2013-08-26T10:40:39Z</time>
      </trkpt>
      <trkpt lat="45.9399" lon="6.7699">
        <ele>988.4</ele>
        <time>2013-08-26T10:40:40Z</time>
      </trkpt>
      <trkpt lat="45.93984" lon="6.7699">
        <ele>987.9</ele>
        <time>2013-08-26T10:40:41Z</time>
      </trkpt>
      <trkpt lat="45.93977" lon="6.76987">
        <ele>987.9</ele>
        <time>2013-08-26T10:40:42Z</time>
      </trkpt>
      <trkpt lat="45.93969" lon="6.76983">
        <ele>986.9</ele>
        <time>2013-08-26T10:40:43Z</time>
      </trkpt>
      <trkpt lat="45.93962" lon="6.76979">
        <ele>986.5</ele>
        <time>2013-08-26T10:40:44Z</time>
      </trkpt>
      <trkpt lat="45.93956" lon="6.76977">
        <ele>986</ele>
        <time>2013-08-26T10:40:45Z</time>
      </trkpt>
      <trkpt lat="45.9395" lon="6.76975">
        <ele>985</ele>
        <time>2013-08-26T10:40:46Z</time>
      </trkpt>
      <trkpt lat="45.93944" lon="6.76973">
        <ele>984.5</ele>
        <time>2013-08-26T10:40:47Z</time>
      </trkpt>
      <trkpt lat="45.93937" lon="6.76968">
        <ele>983.1</ele>
        <time>2013-08-26T10:40:48Z</time>
      </trkpt>
      <trkpt lat="45.93922" lon="6.76955">
        <ele>981.2</ele>
        <time>2013-08-26T10:40:50Z</time>
      </trkpt>
      <trkpt lat="45.93913" lon="6.76947">
        <ele>980.2</ele>
        <time>2013-08-26T10:40:51Z</time>
      </trkpt>
      <trkpt lat="45.93905" lon="6.7694">
        <ele>978.3</ele>
        <time>2013-08-26T10:40:52Z</time>
      </trkpt>
      <trkpt lat="45.93891" lon="6.76928">
        <ele>976.8</ele>
        <time>2013-08-26T10:40:54Z</time>
      </trkpt>
      <trkpt lat="45.94004" lon="6.76819">
        <ele>974.9</ele>
        <time>2013-08-26T10:40:56Z</time>
      </trkpt>
      <trkpt lat="45.94005" lon="6.76807">
        <ele>974.9</ele>
        <time>2013-08-26T10:40:57Z</time>
      </trkpt>
      <trkpt lat="45.94009" lon="6.76752">
        <ele>971.6</ele>
        <time>2013-08-26T10:41:01Z</time>
      </trkpt>
      <trkpt lat="45.94007" lon="6.7673">
        <ele>970.6</ele>
        <time>2013-08-26T10:41:03Z</time>
      </trkpt>
      <trkpt lat="45.93998" lon="6.76703">
        <ele>967.7</ele>
        <time>2013-08-26T10:41:07Z</time>
      </trkpt>
      <trkpt lat="45.93996" lon="6.76702">
        <ele>966.7</ele>
        <time>2013-08-26T10:41:08Z</time>
      </trkpt>
      <trkpt lat="45.93992" lon="6.76707">
        <ele>966.3</ele>
        <time>2013-08-26T10:41:09Z</time>
      </trkpt>
      <trkpt lat="45.93989" lon="6.76713">
        <ele>966.3</ele>
        <time>2013-08-26T10:41:10Z</time>
      </trkpt>
      <trkpt lat="45.93986" lon="6.76718">
        <ele>966.3</ele>
        <time>2013-08-26T10:41:11Z</time>
      </trkpt>
      <trkpt lat="45.93982" lon="6.76723">
        <ele>966.3</ele>
        <time>2013-08-26T10:41:12Z</time>
      </trkpt>
      <trkpt lat="45.93978" lon="6.76727">
        <ele>965.8</ele>
        <time>2013-08-26T10:41:13Z</time>
      </trkpt>
      <trkpt lat="45.93958" lon="6.76771">
        <ele>963.4</ele>
        <time>2013-08-26T10:41:19Z</time>
      </trkpt>
      <trkpt lat="45.93947" lon="6.76801">
        <ele>961.5</ele>
        <time>2013-08-26T10:41:22Z</time>
      </trkpt>
      <trkpt lat="45.93943" lon="6.76811">
        <ele>961</ele>
        <time>2013-08-26T10:41:23Z</time>
      </trkpt>
      <trkpt lat="45.93937" lon="6.76819">
        <ele>960.5</ele>
        <time>2013-08-26T10:41:24Z</time>
      </trkpt>
      <trkpt lat="45.93928" lon="6.76823">
        <ele>959.5</ele>
        <time>2013-08-26T10:41:25Z</time>
      </trkpt>
      <trkpt lat="45.93919" lon="6.76824">
        <ele>958.6</ele>
        <time>2013-08-26T10:41:26Z</time>
      </trkpt>
      <trkpt lat="45.93909" lon="6.76823">
        <ele>957.6</ele>
        <time>2013-08-26T10:41:27Z</time>
      </trkpt>
      <trkpt lat="45.939" lon="6.76822">
        <ele>957.6</ele>
        <time>2013-08-26T10:41:28Z</time>
      </trkpt>
      <trkpt lat="45.93864" lon="6.76815">
        <ele>954.3</ele>
        <time>2013-08-26T10:41:32Z</time>
      </trkpt>
      <trkpt lat="45.93856" lon="6.76817">
        <ele>953.3</ele>
        <time>2013-08-26T10:41:33Z</time>
      </trkpt>
      <trkpt lat="45.93849" lon="6.76824">
        <ele>952.8</ele>
        <time>2013-08-26T10:41:34Z</time>
      </trkpt>
      <trkpt lat="45.93844" lon="6.76833">
        <ele>951.8</ele>
        <time>2013-08-26T10:41:35Z</time>
      </trkpt>
      <trkpt lat="45.9384" lon="6.76845">
        <ele>951.4</ele>
        <time>2013-08-26T10:41:36Z</time>
      </trkpt>
      <trkpt lat="45.93837" lon="6.76857">
        <ele>950.9</ele>
        <time>2013-08-26T10:41:37Z</time>
      </trkpt>
      <trkpt lat="45.93836" lon="6.7687">
        <ele>949.4</ele>
        <time>2013-08-26T10:41:38Z</time>
      </trkpt>
      <trkpt lat="45.93835" lon="6.76884">
        <ele>949.4</ele>
        <time>2013-08-26T10:41:39Z</time>
      </trkpt>
      <trkpt lat="45.93835" lon="6.76898">
        <ele>948</ele>
        <time>2013-08-26T10:41:40Z</time>
      </trkpt>
      <trkpt lat="45.93837" lon="6.76912">
        <ele>948</ele>
        <time>2013-08-26T10:41:41Z</time>
      </trkpt>
      <trkpt lat="45.93839" lon="6.76956">
        <ele>945.6</ele>
        <time>2013-08-26T10:41:44Z</time>
      </trkpt>
      <trkpt lat="45.93837" lon="6.76969">
        <ele>945.1</ele>
        <time>2013-08-26T10:41:45Z</time>
      </trkpt>
      <trkpt lat="45.93831" lon="6.76995">
        <ele>943.7</ele>
        <time>2013-08-26T10:41:47Z</time>
      </trkpt>
      <trkpt lat="45.9383" lon="6.77009">
        <ele>943.2</ele>
        <time>2013-08-26T10:41:48Z</time>
      </trkpt>
      <trkpt lat="45.93829" lon="6.77021">
        <ele>943.2</ele>
        <time>2013-08-26T10:41:49Z</time>
      </trkpt>
      <trkpt lat="45.93827" lon="6.77033">
        <ele>942.7</ele>
        <time>2013-08-26T10:41:50Z</time>
      </trkpt>
      <trkpt lat="45.93825" lon="6.77041">
        <ele>941.8</ele>
        <time>2013-08-26T10:41:51Z</time>
      </trkpt>
      <trkpt lat="45.93821" lon="6.77046">
        <ele>941.8</ele>
        <time>2013-08-26T10:41:52Z</time>
      </trkpt>
      <trkpt lat="45.93817" lon="6.77047">
        <ele>941.3</ele>
        <time>2013-08-26T10:41:53Z</time>
      </trkpt>
      <trkpt lat="45.93813" lon="6.77047">
        <ele>940.3</ele>
        <time>2013-08-26T10:41:54Z</time>
      </trkpt>
      <trkpt lat="45.93809" lon="6.77045">
        <ele>939.8</ele>
        <time>2013-08-26T10:41:55Z</time>
      </trkpt>
      <trkpt lat="45.93806" lon="6.77039">
        <ele>939.8</ele>
        <time>2013-08-26T10:41:56Z</time>
      </trkpt>
      <trkpt lat="45.93803" lon="6.77032">
        <ele>939.4</ele>
        <time>2013-08-26T10:41:57Z</time>
      </trkpt>
      <trkpt lat="45.93801" lon="6.77025">
        <ele>938.9</ele>
        <time>2013-08-26T10:41:58Z</time>
      </trkpt>
      <trkpt lat="45.93801" lon="6.77018">
        <ele>938.9</ele>
        <time>2013-08-26T10:41:59Z</time>
      </trkpt>
      <trkpt lat="45.93803" lon="6.7701">
        <ele>938.4</ele>
        <time>2013-08-26T10:42:00Z</time>
      </trkpt>
      <trkpt lat="45.93807" lon="6.77003">
        <ele>937.9</ele>
        <time>2013-08-26T10:42:01Z</time>
      </trkpt>
      <trkpt lat="45.9381" lon="6.76996">
        <ele>937.9</ele>
        <time>2013-08-26T10:42:02Z</time>
      </trkpt>
      <trkpt lat="45.93829" lon="6.76938">
        <ele>936</ele>
        <time>2013-08-26T10:42:09Z</time>
      </trkpt>
      <trkpt lat="45.93829" lon="6.76919">
        <ele>935.5</ele>
        <time>2013-08-26T10:42:11Z</time>
      </trkpt>
      <trkpt lat="45.93828" lon="6.76909">
        <ele>934.5</ele>
        <time>2013-08-26T10:42:12Z</time>
      </trkpt>
      <trkpt lat="45.93826" lon="6.76898">
        <ele>934.1</ele>
        <time>2013-08-26T10:42:13Z</time>
      </trkpt>
      <trkpt lat="45.93811" lon="6.76822">
        <ele>931.2</ele>
        <time>2013-08-26T10:42:19Z</time>
      </trkpt>
      <trkpt lat="45.93802" lon="6.76759">
        <ele>927.8</ele>
        <time>2013-08-26T10:42:24Z</time>
      </trkpt>
      <trkpt lat="45.93808" lon="6.76749">
        <ele>927.3</ele>
        <time>2013-08-26T10:42:25Z</time>
      </trkpt>
      <trkpt lat="45.93818" lon="6.7674">
        <ele>926.9</ele>
        <time>2013-08-26T10:42:26Z</time>
      </trkpt>
      <trkpt lat="45.93828" lon="6.76733">
        <ele>925.9</ele>
        <time>2013-08-26T10:42:27Z</time>
      </trkpt>
      <trkpt lat="45.93838" lon="6.76726">
        <ele>925.9</ele>
        <time>2013-08-26T10:42:28Z</time>
      </trkpt>
      <trkpt lat="45.93843" lon="6.76718">
        <ele>925.4</ele>
        <time>2013-08-26T10:42:29Z</time>
      </trkpt>
      <trkpt lat="45.93848" lon="6.7671">
        <ele>924.9</ele>
        <time>2013-08-26T10:42:30Z</time>
      </trkpt>
      <trkpt lat="45.93851" lon="6.76692">
        <ele>923.5</ele>
        <time>2013-08-26T10:42:32Z</time>
      </trkpt>
      <trkpt lat="45.93852" lon="6.76684">
        <ele>923</ele>
        <time>2013-08-26T10:42:33Z</time>
      </trkpt>
      <trkpt lat="45.9385" lon="6.7667">
        <ele>921.6</ele>
        <time>2013-08-26T10:42:35Z</time>
      </trkpt>
      <trkpt lat="45.93848" lon="6.76665">
        <ele>922.5</ele>
        <time>2013-08-26T10:42:36Z</time>
      </trkpt>
      <trkpt lat="45.93844" lon="6.76663">
        <ele>922</ele>
        <time>2013-08-26T10:42:37Z</time>
      </trkpt>
      <trkpt lat="45.93841" lon="6.76663">
        <ele>921.6</ele>
        <time>2013-08-26T10:42:38Z</time>
      </trkpt>
      <trkpt lat="45.93831" lon="6.7668">
        <ele>920.6</ele>
        <time>2013-08-26T10:42:40Z</time>
      </trkpt>
      <trkpt lat="45.93822" lon="6.76689">
        <ele>920.1</ele>
        <time>2013-08-26T10:42:41Z</time>
      </trkpt>
      <trkpt lat="45.93812" lon="6.76698">
        <ele>919.2</ele>
        <time>2013-08-26T10:42:42Z</time>
      </trkpt>
      <trkpt lat="45.9379" lon="6.76709">
        <ele>917.7</ele>
        <time>2013-08-26T10:42:44Z</time>
      </trkpt>
      <trkpt lat="45.93767" lon="6.7672">
        <ele>915.8</ele>
        <time>2013-08-26T10:42:46Z</time>
      </trkpt>
      <trkpt lat="45.93749" lon="6.76724">
        <ele>913.9</ele>
        <time>2013-08-26T10:42:48Z</time>
      </trkpt>
      <trkpt lat="45.93721" lon="6.76714">
        <ele>912.9</ele>
        <time>2013-08-26T10:42:50Z</time>
      </trkpt>
      <trkpt lat="45.93709" lon="6.76715">
        <ele>911.5</ele>
        <time>2013-08-26T10:42:51Z</time>
      </trkpt>
      <trkpt lat="45.93697" lon="6.76718">
        <ele>911</ele>
        <time>2013-08-26T10:42:52Z</time>
      </trkpt>
      <trkpt lat="45.93684" lon="6.76721">
        <ele>909.5</ele>
        <time>2013-08-26T10:42:53Z</time>
      </trkpt>
      <trkpt lat="45.93678" lon="6.76723">
        <ele>909.1</ele>
        <time>2013-08-26T10:42:54Z</time>
      </trkpt>
      <trkpt lat="45.93645" lon="6.76738">
        <ele>907.1</ele>
        <time>2013-08-26T10:42:57Z</time>
      </trkpt>
      <trkpt lat="45.93624" lon="6.76758">
        <ele>905.2</ele>
        <time>2013-08-26T10:43:00Z</time>
      </trkpt>
      <trkpt lat="45.93619" lon="6.76768">
        <ele>904.3</ele>
        <time>2013-08-26T10:43:01Z</time>
      </trkpt>
      <trkpt lat="45.93613" lon="6.76775">
        <ele>903.8</ele>
        <time>2013-08-26T10:43:02Z</time>
      </trkpt>
      <trkpt lat="45.93614" lon="6.76803">
        <ele>903.3</ele>
        <time>2013-08-26T10:43:03Z</time>
      </trkpt>
      <trkpt lat="45.93586" lon="6.76869">
        <ele>899</ele>
        <time>2013-08-26T10:43:08Z</time>
      </trkpt>
      <trkpt lat="45.93578" lon="6.76879">
        <ele>898</ele>
        <time>2013-08-26T10:43:09Z</time>
      </trkpt>
      <trkpt lat="45.93555" lon="6.76913">
        <ele>896.6</ele>
        <time>2013-08-26T10:43:12Z</time>
      </trkpt>
      <trkpt lat="45.93552" lon="6.76926">
        <ele>896.1</ele>
        <time>2013-08-26T10:43:13Z</time>
      </trkpt>
      <trkpt lat="45.93554" lon="6.76942">
        <ele>895.6</ele>
        <time>2013-08-26T10:43:14Z</time>
      </trkpt>
      <trkpt lat="45.93559" lon="6.76958">
        <ele>895.1</ele>
        <time>2013-08-26T10:43:15Z</time>
      </trkpt>
      <trkpt lat="45.93563" lon="6.76973">
        <ele>894.2</ele>
        <time>2013-08-26T10:43:16Z</time>
      </trkpt>
      <trkpt lat="45.93564" lon="6.76987">
        <ele>894.2</ele>
        <time>2013-08-26T10:43:17Z</time>
      </trkpt>
      <trkpt lat="45.93562" lon="6.76999">
        <ele>893.2</ele>
        <time>2013-08-26T10:43:18Z</time>
      </trkpt>
      <trkpt lat="45.9356" lon="6.77011">
        <ele>892.2</ele>
        <time>2013-08-26T10:43:19Z</time>
      </trkpt>
      <trkpt lat="45.93558" lon="6.77025">
        <ele>891.8</ele>
        <time>2013-08-26T10:43:20Z</time>
      </trkpt>
      <trkpt lat="45.93556" lon="6.77031">
        <ele>890.8</ele>
        <time>2013-08-26T10:43:21Z</time>
      </trkpt>
      <trkpt lat="45.93553" lon="6.7705">
        <ele>889.8</ele>
        <time>2013-08-26T10:43:22Z</time>
      </trkpt>
      <trkpt lat="45.93549" lon="6.77061">
        <ele>889.4</ele>
        <time>2013-08-26T10:43:24Z</time>
      </trkpt>
      <trkpt lat="45.93551" lon="6.77064">
        <ele>890.3</ele>
        <time>2013-08-26T10:43:25Z</time>
      </trkpt>
      <trkpt lat="45.93558" lon="6.77065">
        <ele>889.4</ele>
        <time>2013-08-26T10:43:31Z</time>
      </trkpt>
      <trkpt lat="45.93559" lon="6.77067">
        <ele>889.4</ele>
        <time>2013-08-26T10:43:32Z</time>
      </trkpt>
      <trkpt lat="45.9356" lon="6.77068">
        <ele>889.4</ele>
        <time>2013-08-26T10:43:33Z</time>
      </trkpt>
      <trkpt lat="45.93575" lon="6.77076">
        <ele>889.4</ele>
        <time>2013-08-26T10:43:38Z</time>
      </trkpt>
      <trkpt lat="45.9358" lon="6.77078">
        <ele>888.9</ele>
        <time>2013-08-26T10:43:39Z</time>
      </trkpt>
      <trkpt lat="45.93623" lon="6.77091">
        <ele>885</ele>
        <time>2013-08-26T10:43:47Z</time>
      </trkpt>
      <trkpt lat="45.93657" lon="6.77093">
        <ele>883.1</ele>
        <time>2013-08-26T10:43:51Z</time>
      </trkpt>
      <trkpt lat="45.93664" lon="6.77095">
        <ele>882.2</ele>
        <time>2013-08-26T10:43:52Z</time>
      </trkpt>
      <trkpt lat="45.9367" lon="6.77099">
        <ele>882.2</ele>
        <time>2013-08-26T10:43:53Z</time>
      </trkpt>
      <trkpt lat="45.93699" lon="6.77114">
        <ele>880.2</ele>
        <time>2013-08-26T10:43:58Z</time>
      </trkpt>
      <trkpt lat="45.93705" lon="6.77114">
        <ele>879.3</ele>
        <time>2013-08-26T10:43:59Z</time>
      </trkpt>
      <trkpt lat="45.9371" lon="6.77114">
        <ele>878.3</ele>
        <time>2013-08-26T10:44:00Z</time>
      </trkpt>
      <trkpt lat="45.93715" lon="6.77113">
        <ele>877.3</ele>
        <time>2013-08-26T10:44:01Z</time>
      </trkpt>
      <trkpt lat="45.93719" lon="6.77111">
        <ele>877.3</ele>
        <time>2013-08-26T10:44:02Z</time>
      </trkpt>
      <trkpt lat="45.93724" lon="6.77108">
        <ele>875.9</ele>
        <time>2013-08-26T10:44:03Z</time>
      </trkpt>
      <trkpt lat="45.93714" lon="6.77118">
        <ele>872.5</ele>
        <time>2013-08-26T10:44:06Z</time>
      </trkpt>
      <trkpt lat="45.93707" lon="6.77122">
        <ele>872.1</ele>
        <time>2013-08-26T10:44:07Z</time>
      </trkpt>
      <trkpt lat="45.937" lon="6.77124">
        <ele>871.1</ele>
        <time>2013-08-26T10:44:08Z</time>
      </trkpt>
      <trkpt lat="45.93685" lon="6.77118">
        <ele>869.7</ele>
        <time>2013-08-26T10:44:10Z</time>
      </trkpt>
      <trkpt lat="45.93677" lon="6.77114">
        <ele>869.2</ele>
        <time>2013-08-26T10:44:11Z</time>
      </trkpt>
      <trkpt lat="45.93668" lon="6.7711">
        <ele>868.7</ele>
        <time>2013-08-26T10:44:12Z</time>
      </trkpt>
      <trkpt lat="45.93624" lon="6.77077">
        <ele>865.8</ele>
        <time>2013-08-26T10:44:15Z</time>
      </trkpt>
      <trkpt lat="45.93603" lon="6.77054">
        <ele>865.8</ele>
        <time>2013-08-26T10:44:16Z</time>
      </trkpt>
      <trkpt lat="45.93551" lon="6.77019">
        <ele>864.4</ele>
        <time>2013-08-26T10:44:18Z</time>
      </trkpt>
      <trkpt lat="45.93509" lon="6.76996">
        <ele>862.4</ele>
        <time>2013-08-26T10:44:20Z</time>
      </trkpt>
      <trkpt lat="45.93472" lon="6.77">
        <ele>861</ele>
        <time>2013-08-26T10:44:22Z</time>
      </trkpt>
      <trkpt lat="45.93423" lon="6.76994">
        <ele>857.6</ele>
        <time>2013-08-26T10:44:26Z</time>
      </trkpt>
      <trkpt lat="45.93403" lon="6.76992">
        <ele>857.2</ele>
        <time>2013-08-26T10:44:28Z</time>
      </trkpt>
      <trkpt lat="45.93394" lon="6.76994">
        <ele>856.7</ele>
        <time>2013-08-26T10:44:29Z</time>
      </trkpt>
      <trkpt lat="45.93386" lon="6.76999">
        <ele>856.2</ele>
        <time>2013-08-26T10:44:30Z</time>
      </trkpt>
      <trkpt lat="45.93379" lon="6.77006">
        <ele>855.2</ele>
        <time>2013-08-26T10:44:31Z</time>
      </trkpt>
      <trkpt lat="45.93372" lon="6.77013">
        <ele>854.3</ele>
        <time>2013-08-26T10:44:32Z</time>
      </trkpt>
      <trkpt lat="45.9335" lon="6.77022">
        <ele>852.4</ele>
        <time>2013-08-26T10:44:35Z</time>
      </trkpt>
      <trkpt lat="45.93342" lon="6.77023">
        <ele>852.4</ele>
        <time>2013-08-26T10:44:36Z</time>
      </trkpt>
      <trkpt lat="45.93334" lon="6.77019">
        <ele>851.4</ele>
        <time>2013-08-26T10:44:37Z</time>
      </trkpt>
      <trkpt lat="45.93316" lon="6.77003">
        <ele>849.9</ele>
        <time>2013-08-26T10:44:39Z</time>
      </trkpt>
      <trkpt lat="45.93309" lon="6.76994">
        <ele>849</ele>
        <time>2013-08-26T10:44:40Z</time>
      </trkpt>
      <trkpt lat="45.93305" lon="6.76984">
        <ele>848.5</ele>
        <time>2013-08-26T10:44:41Z</time>
      </trkpt>
      <trkpt lat="45.933" lon="6.7696">
        <ele>848</ele>
        <time>2013-08-26T10:44:43Z</time>
      </trkpt>
      <trkpt lat="45.93302" lon="6.76946">
        <ele>847.1</ele>
        <time>2013-08-26T10:44:44Z</time>
      </trkpt>
      <trkpt lat="45.933" lon="6.76922">
        <ele>845.6</ele>
        <time>2013-08-26T10:44:46Z</time>
      </trkpt>
      <trkpt lat="45.93295" lon="6.76912">
        <ele>844.7</ele>
        <time>2013-08-26T10:44:47Z</time>
      </trkpt>
      <trkpt lat="45.93288" lon="6.76905">
        <ele>844.2</ele>
        <time>2013-08-26T10:44:48Z</time>
      </trkpt>
      <trkpt lat="45.93282" lon="6.76901">
        <ele>843.7</ele>
        <time>2013-08-26T10:44:49Z</time>
      </trkpt>
      <trkpt lat="45.93274" lon="6.76898">
        <ele>842.7</ele>
        <time>2013-08-26T10:44:50Z</time>
      </trkpt>
      <trkpt lat="45.93266" lon="6.76897">
        <ele>842.3</ele>
        <time>2013-08-26T10:44:51Z</time>
      </trkpt>
      <trkpt lat="45.93258" lon="6.76895">
        <ele>841.8</ele>
        <time>2013-08-26T10:44:52Z</time>
      </trkpt>
      <trkpt lat="45.93247" lon="6.76897">
        <ele>841.3</ele>
        <time>2013-08-26T10:44:53Z</time>
      </trkpt>
      <trkpt lat="45.93236" lon="6.769">
        <ele>841.3</ele>
        <time>2013-08-26T10:44:54Z</time>
      </trkpt>
      <trkpt lat="45.93224" lon="6.76902">
        <ele>840.3</ele>
        <time>2013-08-26T10:44:55Z</time>
      </trkpt>
      <trkpt lat="45.93199" lon="6.76908">
        <ele>839.9</ele>
        <time>2013-08-26T10:44:57Z</time>
      </trkpt>
      <trkpt lat="45.93186" lon="6.76909">
        <ele>839.9</ele>
        <time>2013-08-26T10:44:58Z</time>
      </trkpt>
      <trkpt lat="45.93177" lon="6.76907">
        <ele>839.4</ele>
        <time>2013-08-26T10:44:59Z</time>
      </trkpt>
      <trkpt lat="45.93168" lon="6.76904">
        <ele>838.9</ele>
        <time>2013-08-26T10:45:00Z</time>
      </trkpt>
      <trkpt lat="45.93159" lon="6.76903">
        <ele>838.9</ele>
        <time>2013-08-26T10:45:01Z</time>
      </trkpt>
      <trkpt lat="45.93153" lon="6.76899">
        <ele>837.9</ele>
        <time>2013-08-26T10:45:02Z</time>
      </trkpt>
      <trkpt lat="45.93141" lon="6.76896">
        <ele>837.5</ele>
        <time>2013-08-26T10:45:03Z</time>
      </trkpt>
      <trkpt lat="45.93134" lon="6.76892">
        <ele>837.5</ele>
        <time>2013-08-26T10:45:04Z</time>
      </trkpt>
      <trkpt lat="45.93109" lon="6.76844">
        <ele>837.9</ele>
        <time>2013-08-26T10:45:10Z</time>
      </trkpt>
      <trkpt lat="45.93106" lon="6.76839">
        <ele>837.9</ele>
        <time>2013-08-26T10:45:11Z</time>
      </trkpt>
      <trkpt lat="45.93102" lon="6.76836">
        <ele>838.4</ele>
        <time>2013-08-26T10:45:12Z</time>
      </trkpt>
      <trkpt lat="45.93099" lon="6.76835">
        <ele>837.9</ele>
        <time>2013-08-26T10:45:13Z</time>
      </trkpt>
      <trkpt lat="45.93098" lon="6.76835">
        <ele>837.9</ele>
        <time>2013-08-26T10:45:14Z</time>
      </trkpt>
      <trkpt lat="45.93096" lon="6.76836">
        <ele>838.4</ele>
        <time>2013-08-26T10:45:15Z</time>
      </trkpt>
      <trkpt lat="45.93095" lon="6.76838">
        <ele>837.9</ele>
        <time>2013-08-26T10:45:16Z</time>
      </trkpt>
      <trkpt lat="45.93093" lon="6.7684">
        <ele>838.4</ele>
        <time>2013-08-26T10:45:17Z</time>
      </trkpt>
      <trkpt lat="45.93092" lon="6.76843">
        <ele>838.4</ele>
        <time>2013-08-26T10:45:18Z</time>
      </trkpt>
      <trkpt lat="45.93091" lon="6.76847">
        <ele>838.4</ele>
        <time>2013-08-26T10:45:19Z</time>
      </trkpt>
      <trkpt lat="45.9309" lon="6.7685">
        <ele>837.9</ele>
        <time>2013-08-26T10:45:20Z</time>
      </trkpt>
      <trkpt lat="45.93089" lon="6.76854">
        <ele>838.4</ele>
        <time>2013-08-26T10:45:21Z</time>
      </trkpt>
      <trkpt lat="45.93088" lon="6.76856">
        <ele>837.9</ele>
        <time>2013-08-26T10:45:22Z</time>
      </trkpt>
      <trkpt lat="45.93087" lon="6.76864">
        <ele>838.4</ele>
        <time>2013-08-26T10:45:29Z</time>
      </trkpt>
      <trkpt lat="45.93086" lon="6.76867">
        <ele>838.4</ele>
        <time>2013-08-26T10:45:30Z</time>
      </trkpt>
      <trkpt lat="45.93071" lon="6.76914">
        <ele>837.5</ele>
        <time>2013-08-26T10:45:39Z</time>
      </trkpt>
      <trkpt lat="45.93056" lon="6.76961">
        <ele>837</ele>
        <time>2013-08-26T10:45:49Z</time>
      </trkpt>
      <trkpt lat="45.93056" lon="6.76964">
        <ele>837.5</ele>
        <time>2013-08-26T10:45:50Z</time>
      </trkpt>
      <trkpt lat="45.93056" lon="6.76966">
        <ele>837.5</ele>
        <time>2013-08-26T10:45:51Z</time>
      </trkpt>
      <trkpt lat="45.93055" lon="6.76968">
        <ele>837</ele>
        <time>2013-08-26T10:45:52Z</time>
      </trkpt>
      <trkpt lat="45.93053" lon="6.7697">
        <ele>837.5</ele>
        <time>2013-08-26T10:45:53Z</time>
      </trkpt>
      <trkpt lat="45.93052" lon="6.76971">
        <ele>837</ele>
        <time>2013-08-26T10:45:54Z</time>
      </trkpt>
      <trkpt lat="45.93021" lon="6.77005">
        <ele>836</ele>
        <time>2013-08-26T10:46:04Z</time>
      </trkpt>
      <trkpt lat="45.93" lon="6.77012">
        <ele>836.5</ele>
        <time>2013-08-26T10:46:10Z</time>
      </trkpt>
      <trkpt lat="45.93" lon="6.77008">
        <ele>836.5</ele>
        <time>2013-08-26T10:46:11Z</time>
      </trkpt>
      <trkpt lat="45.92999" lon="6.77004">
        <ele>836.5</ele>
        <time>2013-08-26T10:46:12Z</time>
      </trkpt>
      <trkpt lat="45.92994" lon="6.77007">
        <ele>836</ele>
        <time>2013-08-26T10:46:27Z</time>
      </trkpt>
      <trkpt lat="45.92995" lon="6.77007">
        <ele>836.5</ele>
        <time>2013-08-26T10:46:54Z</time>
      </trkpt>
      <trkpt lat="45.93" lon="6.77009">
        <ele>836.5</ele>
        <time>2013-08-26T10:47:23Z</time>
      </trkpt>
      <trkpt lat="45.93" lon="6.77014">
        <ele>836.5</ele>
        <time>2013-08-26T10:47:49Z</time>
      </trkpt>
      <trkpt lat="45.92996" lon="6.77015">
        <ele>836</ele>
        <time>2013-08-26T10:48:15Z</time>
      </trkpt>
      <trkpt lat="45.92994" lon="6.77016">
        <ele>836.5</ele>
        <time>2013-08-26T10:48:38Z</time>
      </trkpt>
      <trkpt lat="45.92996" lon="6.77012">
        <ele>837</ele>
        <time>2013-08-26T10:49:00Z</time>
      </trkpt>
      <trkpt lat="45.92995" lon="6.77013">
        <ele>837</ele>
        <time>2013-08-26T10:49:30Z</time>
      </trkpt>
      <trkpt lat="45.92991" lon="6.77022">
        <ele>836.5</ele>
        <time>2013-08-26T10:49:58Z</time>
      </trkpt>
      <trkpt lat="45.93001" lon="6.76998">
        <ele>836.5</ele>
        <time>2013-08-26T10:50:17Z</time>
      </trkpt>
      <trkpt lat="45.93001" lon="6.77002">
        <ele>837.5</ele>
        <time>2013-08-26T10:50:19Z</time>
      </trkpt>
      <trkpt lat="45.93002" lon="6.77004">
        <ele>837</ele>
        <time>2013-08-26T10:50:20Z</time>
      </trkpt>
      <trkpt lat="45.93004" lon="6.77008">
        <ele>837</ele>
        <time>2013-08-26T10:50:23Z</time>
      </trkpt>
      <trkpt lat="45.93006" lon="6.77008">
        <ele>837.5</ele>
        <time>2013-08-26T10:50:24Z</time>
      </trkpt>
      <trkpt lat="45.93036" lon="6.76993">
        <ele>837</ele>
        <time>2013-08-26T10:50:39Z</time>
      </trkpt>
      <trkpt lat="45.93072" lon="6.76939">
        <ele>837.9</ele>
        <time>2013-08-26T10:50:54Z</time>
      </trkpt>
      <trkpt lat="45.93074" lon="6.76934">
        <ele>837.9</ele>
        <time>2013-08-26T10:50:55Z</time>
      </trkpt>
      <trkpt lat="45.93096" lon="6.76886">
        <ele>837.9</ele>
        <time>2013-08-26T10:51:05Z</time>
      </trkpt>
      <trkpt lat="45.93098" lon="6.76881">
        <ele>838.4</ele>
        <time>2013-08-26T10:51:06Z</time>
      </trkpt>
      <trkpt lat="45.93102" lon="6.76872">
        <ele>838.4</ele>
        <time>2013-08-26T10:51:08Z</time>
      </trkpt>
      <trkpt lat="45.93104" lon="6.76867">
        <ele>838.9</ele>
        <time>2013-08-26T10:51:09Z</time>
      </trkpt>
      <trkpt lat="45.93114" lon="6.76834">
        <ele>838.9</ele>
        <time>2013-08-26T10:51:18Z</time>
      </trkpt>
      <trkpt lat="45.93114" lon="6.76832">
        <ele>838.4</ele>
        <time>2013-08-26T10:51:19Z</time>
      </trkpt>
      <trkpt lat="45.93115" lon="6.76829">
        <ele>838.9</ele>
        <time>2013-08-26T10:51:20Z</time>
      </trkpt>
      <trkpt lat="45.93115" lon="6.76826">
        <ele>838.9</ele>
        <time>2013-08-26T10:51:21Z</time>
      </trkpt>
      <trkpt lat="45.93114" lon="6.76824">
        <ele>838.9</ele>
        <time>2013-08-26T10:51:22Z</time>
      </trkpt>
      <trkpt lat="45.93112" lon="6.76821">
        <ele>839.4</ele>
        <time>2013-08-26T10:51:23Z</time>
      </trkpt>
      <trkpt lat="45.93109" lon="6.76819">
        <ele>838.9</ele>
        <time>2013-08-26T10:51:24Z</time>
      </trkpt>
      <trkpt lat="45.93106" lon="6.76816">
        <ele>838.9</ele>
        <time>2013-08-26T10:51:25Z</time>
      </trkpt>
      <trkpt lat="45.93066" lon="6.76757">
        <ele>838.9</ele>
        <time>2013-08-26T10:51:38Z</time>
      </trkpt>
      <trkpt lat="45.93057" lon="6.76736">
        <ele>839.9</ele>
        <time>2013-08-26T10:51:42Z</time>
      </trkpt>
      <trkpt lat="45.93055" lon="6.76731">
        <ele>839.9</ele>
        <time>2013-08-26T10:51:43Z</time>
      </trkpt>
      <trkpt lat="45.93055" lon="6.76724">
        <ele>839.4</ele>
        <time>2013-08-26T10:51:44Z</time>
      </trkpt>
      <trkpt lat="45.93055" lon="6.76699">
        <ele>839.4</ele>
        <time>2013-08-26T10:51:54Z</time>
      </trkpt>
      <trkpt lat="45.93054" lon="6.76693">
        <ele>839.4</ele>
        <time>2013-08-26T10:52:09Z</time>
      </trkpt>
      <trkpt lat="45.93056" lon="6.76693">
        <ele>838.9</ele>
        <time>2013-08-26T10:52:10Z</time>
      </trkpt>
      <trkpt lat="45.93073" lon="6.76652">
        <ele>838.9</ele>
        <time>2013-08-26T10:52:22Z</time>
      </trkpt>
      <trkpt lat="45.93077" lon="6.76619">
        <ele>837.9</ele>
        <time>2013-08-26T10:52:30Z</time>
      </trkpt>
      <trkpt lat="45.93077" lon="6.76616">
        <ele>838.9</ele>
        <time>2013-08-26T10:52:31Z</time>
      </trkpt>
      <trkpt lat="45.93076" lon="6.76615">
        <ele>838.4</ele>
        <time>2013-08-26T10:52:42Z</time>
      </trkpt>
      <trkpt lat="45.93076" lon="6.76613">
        <ele>838.4</ele>
        <time>2013-08-26T10:52:43Z</time>
      </trkpt>
      <trkpt lat="45.93075" lon="6.76612">
        <ele>838.4</ele>
        <time>2013-08-26T10:52:44Z</time>
      </trkpt>
      <trkpt lat="45.93073" lon="6.76611">
        <ele>838.4</ele>
        <time>2013-08-26T10:52:45Z</time>
      </trkpt>
      <trkpt lat="45.93071" lon="6.76611">
        <ele>838.4</ele>
        <time>2013-08-26T10:52:46Z</time>
      </trkpt>
      <trkpt lat="45.93069" lon="6.76613">
        <ele>837.9</ele>
        <time>2013-08-26T10:52:47Z</time>
      </trkpt>
      <trkpt lat="45.93067" lon="6.76617">
        <ele>837.9</ele>
        <time>2013-08-26T10:52:48Z</time>
      </trkpt>
      <trkpt lat="45.93066" lon="6.76621">
        <ele>838.4</ele>
        <time>2013-08-26T10:52:49Z</time>
      </trkpt>
      <trkpt lat="45.93066" lon="6.76625">
        <ele>837.9</ele>
        <time>2013-08-26T10:52:50Z</time>
      </trkpt>
      <trkpt lat="45.93066" lon="6.76629">
        <ele>838.4</ele>
        <time>2013-08-26T10:52:51Z</time>
      </trkpt>
      <trkpt lat="45.93071" lon="6.76632">
        <ele>837.9</ele>
        <time>2013-08-26T10:52:57Z</time>
      </trkpt>
      <trkpt lat="45.93072" lon="6.76631">
        <ele>837.9</ele>
        <time>2013-08-26T10:52:58Z</time>
      </trkpt>
      <trkpt lat="45.93074" lon="6.76629">
        <ele>838.4</ele>
        <time>2013-08-26T10:52:59Z</time>
      </trkpt>
      <trkpt lat="45.93076" lon="6.76626">
        <ele>838.4</ele>
        <time>2013-08-26T10:53:00Z</time>
      </trkpt>
      <trkpt lat="45.93076" lon="6.76624">
        <ele>838.4</ele>
        <time>2013-08-26T10:53:01Z</time>
      </trkpt>
      <trkpt lat="45.93089" lon="6.76585">
        <ele>837.9</ele>
        <time>2013-08-26T10:53:12Z</time>
      </trkpt>
      <trkpt lat="45.93105" lon="6.76557">
        <ele>837.5</ele>
        <time>2013-08-26T10:53:19Z</time>
      </trkpt>
      <trkpt lat="45.93135" lon="6.76536">
        <ele>837</ele>
        <time>2013-08-26T10:53:32Z</time>
      </trkpt>
      <trkpt lat="45.9314" lon="6.76525">
        <ele>837</ele>
        <time>2013-08-26T10:53:37Z</time>
      </trkpt>
      <trkpt lat="45.9314" lon="6.76518">
        <ele>836.5</ele>
        <time>2013-08-26T10:53:40Z</time>
      </trkpt>
      <trkpt lat="45.93136" lon="6.76503">
        <ele>836.5</ele>
        <time>2013-08-26T10:53:51Z</time>
      </trkpt>
      <trkpt lat="45.93135" lon="6.765">
        <ele>836</ele>
        <time>2013-08-26T10:53:58Z</time>
      </trkpt>
      <trkpt lat="45.93134" lon="6.765">
        <ele>836.5</ele>
        <time>2013-08-26T10:54:05Z</time>
      </trkpt>
      <trkpt lat="45.93136" lon="6.76493">
        <ele>836.5</ele>
        <time>2013-08-26T10:54:08Z</time>
      </trkpt>
      <trkpt lat="45.9316" lon="6.76483">
        <ele>836.5</ele>
        <time>2013-08-26T10:54:18Z</time>
      </trkpt>
      <trkpt lat="45.93157" lon="6.7648">
        <ele>836.5</ele>
        <time>2013-08-26T10:54:35Z</time>
      </trkpt>
      <trkpt lat="45.93157" lon="6.76485">
        <ele>836</ele>
        <time>2013-08-26T10:55:17Z</time>
      </trkpt>
      <trkpt lat="45.93154" lon="6.76487">
        <ele>836</ele>
        <time>2013-08-26T10:55:55Z</time>
      </trkpt>
      <trkpt lat="45.93151" lon="6.76488">
        <ele>835.5</ele>
        <time>2013-08-26T10:56:27Z</time>
      </trkpt>
      <trkpt lat="45.93148" lon="6.76489">
        <ele>835.5</ele>
        <time>2013-08-26T10:57:04Z</time>
      </trkpt>
      <trkpt lat="45.93145" lon="6.76495">
        <ele>836</ele>
        <time>2013-08-26T10:57:40Z</time>
      </trkpt>
      <trkpt lat="45.93147" lon="6.7648">
        <ele>836</ele>
        <time>2013-08-26T10:58:24Z</time>
      </trkpt>
      <trkpt lat="45.93145" lon="6.76484">
        <ele>836</ele>
        <time>2013-08-26T10:59:06Z</time>
      </trkpt>
      <trkpt lat="45.93144" lon="6.76491">
        <ele>835.5</ele>
        <time>2013-08-26T10:59:41Z</time>
      </trkpt>
      <trkpt lat="45.93138" lon="6.76508">
        <ele>836.5</ele>
        <time>2013-08-26T11:00:14Z</time>
      </trkpt>
      <trkpt lat="45.93133" lon="6.76513">
        <ele>836.5</ele>
        <time>2013-08-26T11:00:46Z</time>
      </trkpt>
      <trkpt lat="45.93134" lon="6.76507">
        <ele>836</ele>
        <time>2013-08-26T11:01:19Z</time>
      </trkpt>
      <trkpt lat="45.93127" lon="6.76522">
        <ele>836.5</ele>
        <time>2013-08-26T11:01:52Z</time>
      </trkpt>
      <trkpt lat="45.93129" lon="6.76514">
        <ele>836.5</ele>
        <time>2013-08-26T11:02:31Z</time>
      </trkpt>
      <trkpt lat="45.93127" lon="6.76514">
        <ele>837.9</ele>
        <time>2013-08-26T11:03:02Z</time>
      </trkpt>
      <trkpt lat="45.93121" lon="6.76527">
        <ele>837</ele>
        <time>2013-08-26T11:03:33Z</time>
      </trkpt>
      <trkpt lat="45.93119" lon="6.76529">
        <ele>837.5</ele>
        <time>2013-08-26T11:04:00Z</time>
      </trkpt>
      <trkpt lat="45.93109" lon="6.76552">
        <ele>837.9</ele>
        <time>2013-08-26T11:04:38Z</time>
      </trkpt>
      <trkpt lat="45.9311" lon="6.76542">
        <ele>838.4</ele>
        <time>2013-08-26T11:05:11Z</time>
      </trkpt>
      <trkpt lat="45.93112" lon="6.76519">
        <ele>838.9</ele>
        <time>2013-08-26T11:05:42Z</time>
      </trkpt>
      <trkpt lat="45.93117" lon="6.76507">
        <ele>837.9</ele>
        <time>2013-08-26T11:06:17Z</time>
      </trkpt>
      <trkpt lat="45.93106" lon="6.76526">
        <ele>837.9</ele>
        <time>2013-08-26T11:06:55Z</time>
      </trkpt>
      <trkpt lat="45.93109" lon="6.76522">
        <ele>837.9</ele>
        <time>2013-08-26T11:07:28Z</time>
      </trkpt>
      <trkpt lat="45.93105" lon="6.76514">
        <ele>837.9</ele>
        <time>2013-08-26T11:08:03Z</time>
      </trkpt>
      <trkpt lat="45.93103" lon="6.76531">
        <ele>837.9</ele>
        <time>2013-08-26T11:08:34Z</time>
      </trkpt>
      <trkpt lat="45.93099" lon="6.76534">
        <ele>837.5</ele>
        <time>2013-08-26T11:09:08Z</time>
      </trkpt>
      <trkpt lat="45.93093" lon="6.76545">
        <ele>837.9</ele>
        <time>2013-08-26T11:09:41Z</time>
      </trkpt>
      <trkpt lat="45.93091" lon="6.76549">
        <ele>837.9</ele>
        <time>2013-08-26T11:10:04Z</time>
      </trkpt>
      <trkpt lat="45.93091" lon="6.76537">
        <ele>837.9</ele>
        <time>2013-08-26T11:10:38Z</time>
      </trkpt>
      <trkpt lat="45.93085" lon="6.76541">
        <ele>837.9</ele>
        <time>2013-08-26T11:11:05Z</time>
      </trkpt>
      <trkpt lat="45.93084" lon="6.7655">
        <ele>837.9</ele>
        <time>2013-08-26T11:11:37Z</time>
      </trkpt>
      <trkpt lat="45.93096" lon="6.76521">
        <ele>837.5</ele>
        <time>2013-08-26T11:12:09Z</time>
      </trkpt>
      <trkpt lat="45.93101" lon="6.76518">
        <ele>837.9</ele>
        <time>2013-08-26T11:12:48Z</time>
      </trkpt>
      <trkpt lat="45.93101" lon="6.76514">
        <ele>837.5</ele>
        <time>2013-08-26T11:13:22Z</time>
      </trkpt>
      <trkpt lat="45.931" lon="6.76512">
        <ele>837.5</ele>
        <time>2013-08-26T11:13:56Z</time>
      </trkpt>
      <trkpt lat="45.93102" lon="6.76512">
        <ele>837.9</ele>
        <time>2013-08-26T11:14:33Z</time>
      </trkpt>
      <trkpt lat="45.93099" lon="6.76512">
        <ele>837.5</ele>
        <time>2013-08-26T11:15:00Z</time>
      </trkpt>
      <trkpt lat="45.93103" lon="6.76508">
        <ele>837.5</ele>
        <time>2013-08-26T11:15:40Z</time>
      </trkpt>
      <trkpt lat="45.93101" lon="6.76512">
        <ele>837.5</ele>
        <time>2013-08-26T11:16:20Z</time>
      </trkpt>
      <trkpt lat="45.93105" lon="6.76504">
        <ele>838.4</ele>
        <time>2013-08-26T11:16:57Z</time>
      </trkpt>
      <trkpt lat="45.93103" lon="6.76512">
        <ele>837.5</ele>
        <time>2013-08-26T11:17:34Z</time>
      </trkpt>
      <trkpt lat="45.93103" lon="6.76509">
        <ele>837.9</ele>
        <time>2013-08-26T11:18:05Z</time>
      </trkpt>
      <trkpt lat="45.93105" lon="6.76508">
        <ele>837.9</ele>
        <time>2013-08-26T11:18:38Z</time>
      </trkpt>
      <trkpt lat="45.93103" lon="6.7651">
        <ele>838.4</ele>
        <time>2013-08-26T11:19:19Z</time>
      </trkpt>
      <trkpt lat="45.93105" lon="6.76509">
        <ele>837.9</ele>
        <time>2013-08-26T11:20:02Z</time>
      </trkpt>
      <trkpt lat="45.93107" lon="6.76503">
        <ele>837.9</ele>
        <time>2013-08-26T11:20:44Z</time>
      </trkpt>
      <trkpt lat="45.93104" lon="6.76502">
        <ele>837.5</ele>
        <time>2013-08-26T11:21:18Z</time>
      </trkpt>
      <trkpt lat="45.93102" lon="6.76509">
        <ele>837.5</ele>
        <time>2013-08-26T11:21:55Z</time>
      </trkpt>
      <trkpt lat="45.93104" lon="6.76507">
        <ele>838.4</ele>
        <time>2013-08-26T11:22:31Z</time>
      </trkpt>
      <trkpt lat="45.93106" lon="6.76507">
        <ele>837.9</ele>
        <time>2013-08-26T11:23:01Z</time>
      </trkpt>
      <trkpt lat="45.93106" lon="6.76503">
        <ele>837.9</ele>
        <time>2013-08-26T11:23:28Z</time>
      </trkpt>
      <trkpt lat="45.93104" lon="6.76506">
        <ele>838.4</ele>
        <time>2013-08-26T11:23:56Z</time>
      </trkpt>
      <trkpt lat="45.93111" lon="6.76488">
        <ele>837.9</ele>
        <time>2013-08-26T11:24:13Z</time>
      </trkpt>
      <trkpt lat="45.9311" lon="6.76488">
        <ele>838.4</ele>
        <time>2013-08-26T11:24:19Z</time>
      </trkpt>
      <trkpt lat="45.93101" lon="6.76478">
        <ele>837.9</ele>
        <time>2013-08-26T11:24:25Z</time>
      </trkpt>
      <trkpt lat="45.93095" lon="6.76476">
        <ele>837.9</ele>
        <time>2013-08-26T11:24:27Z</time>
      </trkpt>
      <trkpt lat="45.93069" lon="6.76504">
        <ele>837.5</ele>
        <time>2013-08-26T11:24:37Z</time>
      </trkpt>
      <trkpt lat="45.93047" lon="6.76529">
        <ele>837.5</ele>
        <time>2013-08-26T11:24:44Z</time>
      </trkpt>
      <trkpt lat="45.93043" lon="6.76532">
        <ele>837.9</ele>
        <time>2013-08-26T11:24:45Z</time>
      </trkpt>
      <trkpt lat="45.93028" lon="6.76539">
        <ele>837</ele>
        <time>2013-08-26T11:24:53Z</time>
      </trkpt>
      <trkpt lat="45.93029" lon="6.76537">
        <ele>836.5</ele>
        <time>2013-08-26T11:25:17Z</time>
      </trkpt>
      <trkpt lat="45.9303" lon="6.76535">
        <ele>836.5</ele>
        <time>2013-08-26T11:25:36Z</time>
      </trkpt>
      <trkpt lat="45.93032" lon="6.76536">
        <ele>836</ele>
        <time>2013-08-26T11:26:08Z</time>
      </trkpt>
      <trkpt lat="45.93032" lon="6.76536">
        <ele>836</ele>
        <time>2013-08-26T11:26:40Z</time>
      </trkpt>
      <trkpt lat="45.9303" lon="6.76536">
        <ele>835.5</ele>
        <time>2013-08-26T11:27:17Z</time>
      </trkpt>
      <trkpt lat="45.93029" lon="6.76539">
        <ele>835.5</ele>
        <time>2013-08-26T11:27:48Z</time>
      </trkpt>
      <trkpt lat="45.9303" lon="6.7654">
        <ele>836</ele>
        <time>2013-08-26T11:28:25Z</time>
      </trkpt>
      <trkpt lat="45.93029" lon="6.76541">
        <ele>836</ele>
        <time>2013-08-26T11:28:26Z</time>
      </trkpt>
      <trkpt lat="45.93029" lon="6.76542">
        <ele>836</ele>
        <time>2013-08-26T11:28:27Z</time>
      </trkpt>
      <trkpt lat="45.93029" lon="6.76544">
        <ele>836</ele>
        <time>2013-08-26T11:28:28Z</time>
      </trkpt>
      <trkpt lat="45.9303" lon="6.76546">
        <ele>835.5</ele>
        <time>2013-08-26T11:28:29Z</time>
      </trkpt>
      <trkpt lat="45.93031" lon="6.76545">
        <ele>836</ele>
        <time>2013-08-26T11:28:30Z</time>
      </trkpt>
      <trkpt lat="45.93042" lon="6.76532">
        <ele>836</ele>
        <time>2013-08-26T11:28:36Z</time>
      </trkpt>
      <trkpt lat="45.93047" lon="6.76533">
        <ele>836.5</ele>
        <time>2013-08-26T11:28:38Z</time>
      </trkpt>
      <trkpt lat="45.93049" lon="6.76535">
        <ele>837</ele>
        <time>2013-08-26T11:28:39Z</time>
      </trkpt>
      <trkpt lat="45.93053" lon="6.7655">
        <ele>837.5</ele>
        <time>2013-08-26T11:28:45Z</time>
      </trkpt>
      <trkpt lat="45.93055" lon="6.76549">
        <ele>837.5</ele>
        <time>2013-08-26T11:28:46Z</time>
      </trkpt>
      <trkpt lat="45.93055" lon="6.76547">
        <ele>837</ele>
        <time>2013-08-26T11:28:47Z</time>
      </trkpt>
      <trkpt lat="45.93056" lon="6.76545">
        <ele>837</ele>
        <time>2013-08-26T11:28:48Z</time>
      </trkpt>
      <trkpt lat="45.93056" lon="6.76541">
        <ele>837</ele>
        <time>2013-08-26T11:29:01Z</time>
      </trkpt>
      <trkpt lat="45.93057" lon="6.76542">
        <ele>835</ele>
        <time>2013-08-26T11:29:14Z</time>
      </trkpt>
      <trkpt lat="45.93057" lon="6.76542">
        <ele>837</ele>
        <time>2013-08-26T11:29:15Z</time>
      </trkpt>
      <trkpt lat="45.93056" lon="6.76544">
        <ele>838.4</ele>
        <time>2013-08-26T11:29:25Z</time>
      </trkpt>
      <trkpt lat="45.93056" lon="6.76544">
        <ele>836</ele>
        <time>2013-08-26T11:29:26Z</time>
      </trkpt>
      <trkpt lat="45.93056" lon="6.76544">
        <ele>837.9</ele>
        <time>2013-08-26T11:29:33Z</time>
      </trkpt>
      <trkpt lat="45.93056" lon="6.76544">
        <ele>836.5</ele>
        <time>2013-08-26T11:29:34Z</time>
      </trkpt>
      <trkpt lat="45.93057" lon="6.76543">
        <ele>837</ele>
        <time>2013-08-26T11:29:46Z</time>
      </trkpt>
      <trkpt lat="45.93058" lon="6.7654">
        <ele>836</ele>
        <time>2013-08-26T11:29:55Z</time>
      </trkpt>
      <trkpt lat="45.93072" lon="6.76508">
        <ele>837</ele>
        <time>2013-08-26T11:30:08Z</time>
      </trkpt>
      <trkpt lat="45.93101" lon="6.76465">
        <ele>837.5</ele>
        <time>2013-08-26T11:30:22Z</time>
      </trkpt>
      <trkpt lat="45.93134" lon="6.76428">
        <ele>839.9</ele>
        <time>2013-08-26T11:30:35Z</time>
      </trkpt>
      <trkpt lat="45.93139" lon="6.7641">
        <ele>838.9</ele>
        <time>2013-08-26T11:30:39Z</time>
      </trkpt>
      <trkpt lat="45.93146" lon="6.76293">
        <ele>837.5</ele>
        <time>2013-08-26T11:30:56Z</time>
      </trkpt>
      <trkpt lat="45.93152" lon="6.76154">
        <ele>836</ele>
        <time>2013-08-26T11:31:14Z</time>
      </trkpt>
      <trkpt lat="45.93154" lon="6.76105">
        <ele>836.5</ele>
        <time>2013-08-26T11:31:20Z</time>
      </trkpt>
      <trkpt lat="45.93154" lon="6.76091">
        <ele>837</ele>
        <time>2013-08-26T11:31:22Z</time>
      </trkpt>
      <trkpt lat="45.93158" lon="6.76027">
        <ele>837</ele>
        <time>2013-08-26T11:31:35Z</time>
      </trkpt>
      <trkpt lat="45.93145" lon="6.75955">
        <ele>837.5</ele>
        <time>2013-08-26T11:31:49Z</time>
      </trkpt>
      <trkpt lat="45.93131" lon="6.75913">
        <ele>838.9</ele>
        <time>2013-08-26T11:31:56Z</time>
      </trkpt>
      <trkpt lat="45.93125" lon="6.75895">
        <ele>837.5</ele>
        <time>2013-08-26T11:31:59Z</time>
      </trkpt>
      <trkpt lat="45.93098" lon="6.75815">
        <ele>838.4</ele>
        <time>2013-08-26T11:32:13Z</time>
      </trkpt>
      <trkpt lat="45.9308" lon="6.75736">
        <ele>840.8</ele>
        <time>2013-08-26T11:32:28Z</time>
      </trkpt>
      <trkpt lat="45.93091" lon="6.7567">
        <ele>842.7</ele>
        <time>2013-08-26T11:32:43Z</time>
      </trkpt>
      <trkpt lat="45.93112" lon="6.75612">
        <ele>845.6</ele>
        <time>2013-08-26T11:32:57Z</time>
      </trkpt>
      <trkpt lat="45.93129" lon="6.75557">
        <ele>848.5</ele>
        <time>2013-08-26T11:33:10Z</time>
      </trkpt>
      <trkpt lat="45.93148" lon="6.75488">
        <ele>848.5</ele>
        <time>2013-08-26T11:33:24Z</time>
      </trkpt>
      <trkpt lat="45.9315" lon="6.75397">
        <ele>849.9</ele>
        <time>2013-08-26T11:33:39Z</time>
      </trkpt>
      <trkpt lat="45.93162" lon="6.75325">
        <ele>852.8</ele>
        <time>2013-08-26T11:33:54Z</time>
      </trkpt>
      <trkpt lat="45.93172" lon="6.75252">
        <ele>854.8</ele>
        <time>2013-08-26T11:34:10Z</time>
      </trkpt>
      <trkpt lat="45.93176" lon="6.75202">
        <ele>855.2</ele>
        <time>2013-08-26T11:34:20Z</time>
      </trkpt>
      <trkpt lat="45.93204" lon="6.75146">
        <ele>856.7</ele>
        <time>2013-08-26T11:34:33Z</time>
      </trkpt>
      <trkpt lat="45.93215" lon="6.75097">
        <ele>859.6</ele>
        <time>2013-08-26T11:34:44Z</time>
      </trkpt>
      <trkpt lat="45.9323" lon="6.75069">
        <ele>860</ele>
        <time>2013-08-26T11:34:55Z</time>
      </trkpt>
      <trkpt lat="45.93251" lon="6.75037">
        <ele>859.1</ele>
        <time>2013-08-26T11:35:05Z</time>
      </trkpt>
      <trkpt lat="45.93295" lon="6.74982">
        <ele>857.2</ele>
        <time>2013-08-26T11:35:14Z</time>
      </trkpt>
      <trkpt lat="45.933" lon="6.74978">
        <ele>858.6</ele>
        <time>2013-08-26T11:35:15Z</time>
      </trkpt>
      <trkpt lat="45.93327" lon="6.74949">
        <ele>858.6</ele>
        <time>2013-08-26T11:35:25Z</time>
      </trkpt>
      <trkpt lat="45.93357" lon="6.74939">
        <ele>861.5</ele>
        <time>2013-08-26T11:35:35Z</time>
      </trkpt>
      <trkpt lat="45.93373" lon="6.74936">
        <ele>863.4</ele>
        <time>2013-08-26T11:35:42Z</time>
      </trkpt>
      <trkpt lat="45.93374" lon="6.74938">
        <ele>863.9</ele>
        <time>2013-08-26T11:35:43Z</time>
      </trkpt>
      <trkpt lat="45.93374" lon="6.74939">
        <ele>863.9</ele>
        <time>2013-08-26T11:35:44Z</time>
      </trkpt>
      <trkpt lat="45.93372" lon="6.74946">
        <ele>863.4</ele>
        <time>2013-08-26T11:35:59Z</time>
      </trkpt>
      <trkpt lat="45.93373" lon="6.74946">
        <ele>862.4</ele>
        <time>2013-08-26T11:36:14Z</time>
      </trkpt>
      <trkpt lat="45.93376" lon="6.74933">
        <ele>862.4</ele>
        <time>2013-08-26T11:36:44Z</time>
      </trkpt>
      <trkpt lat="45.93377" lon="6.74935">
        <ele>863.4</ele>
        <time>2013-08-26T11:37:17Z</time>
      </trkpt>
      <trkpt lat="45.93377" lon="6.74936">
        <ele>862.4</ele>
        <time>2013-08-26T11:37:19Z</time>
      </trkpt>
      <trkpt lat="45.93379" lon="6.74937">
        <ele>863.4</ele>
        <time>2013-08-26T11:37:20Z</time>
      </trkpt>
      <trkpt lat="45.93379" lon="6.74934">
        <ele>863.4</ele>
        <time>2013-08-26T11:37:21Z</time>
      </trkpt>
      <trkpt lat="45.9338" lon="6.74932">
        <ele>863.9</ele>
        <time>2013-08-26T11:37:22Z</time>
      </trkpt>
      <trkpt lat="45.93381" lon="6.74931">
        <ele>863.9</ele>
        <time>2013-08-26T11:37:23Z</time>
      </trkpt>
      <trkpt lat="45.93406" lon="6.74913">
        <ele>866.8</ele>
        <time>2013-08-26T11:37:38Z</time>
      </trkpt>
      <trkpt lat="45.93418" lon="6.7489">
        <ele>867.7</ele>
        <time>2013-08-26T11:37:48Z</time>
      </trkpt>
      <trkpt lat="45.93422" lon="6.74869">
        <ele>869.2</ele>
        <time>2013-08-26T11:37:56Z</time>
      </trkpt>
      <trkpt lat="45.93456" lon="6.74831">
        <ele>869.2</ele>
        <time>2013-08-26T11:38:10Z</time>
      </trkpt>
      <trkpt lat="45.93484" lon="6.74795">
        <ele>871.1</ele>
        <time>2013-08-26T11:38:21Z</time>
      </trkpt>
      <trkpt lat="45.93495" lon="6.74747">
        <ele>874</ele>
        <time>2013-08-26T11:38:33Z</time>
      </trkpt>
      <trkpt lat="45.93509" lon="6.74691">
        <ele>872.1</ele>
        <time>2013-08-26T11:38:43Z</time>
      </trkpt>
      <trkpt lat="45.93512" lon="6.74683">
        <ele>872.1</ele>
        <time>2013-08-26T11:38:44Z</time>
      </trkpt>
      <trkpt lat="45.93521" lon="6.74669">
        <ele>871.1</ele>
        <time>2013-08-26T11:38:46Z</time>
      </trkpt>
      <trkpt lat="45.93535" lon="6.74652">
        <ele>871.1</ele>
        <time>2013-08-26T11:38:49Z</time>
      </trkpt>
      <trkpt lat="45.9354" lon="6.74648">
        <ele>871.1</ele>
        <time>2013-08-26T11:38:50Z</time>
      </trkpt>
      <trkpt lat="45.93545" lon="6.74646">
        <ele>870.6</ele>
        <time>2013-08-26T11:38:51Z</time>
      </trkpt>
      <trkpt lat="45.93582" lon="6.74638">
        <ele>873</ele>
        <time>2013-08-26T11:38:59Z</time>
      </trkpt>
      <trkpt lat="45.9361" lon="6.74604">
        <ele>874.9</ele>
        <time>2013-08-26T11:39:09Z</time>
      </trkpt>
      <trkpt lat="45.9361" lon="6.74601">
        <ele>874.9</ele>
        <time>2013-08-26T11:39:10Z</time>
      </trkpt>
      <trkpt lat="45.93611" lon="6.7452">
        <ele>872.1</ele>
        <time>2013-08-26T11:39:22Z</time>
      </trkpt>
      <trkpt lat="45.93612" lon="6.74501">
        <ele>870.6</ele>
        <time>2013-08-26T11:39:24Z</time>
      </trkpt>
      <trkpt lat="45.93617" lon="6.74475">
        <ele>869.2</ele>
        <time>2013-08-26T11:39:27Z</time>
      </trkpt>
      <trkpt lat="45.93619" lon="6.74467">
        <ele>868.7</ele>
        <time>2013-08-26T11:39:28Z</time>
      </trkpt>
      <trkpt lat="45.9362" lon="6.74459">
        <ele>868.7</ele>
        <time>2013-08-26T11:39:29Z</time>
      </trkpt>
      <trkpt lat="45.93625" lon="6.74442">
        <ele>867.3</ele>
        <time>2013-08-26T11:39:31Z</time>
      </trkpt>
      <trkpt lat="45.93643" lon="6.74385">
        <ele>864.8</ele>
        <time>2013-08-26T11:39:37Z</time>
      </trkpt>
      <trkpt lat="45.93648" lon="6.74377">
        <ele>864.4</ele>
        <time>2013-08-26T11:39:38Z</time>
      </trkpt>
      <trkpt lat="45.93664" lon="6.74356">
        <ele>862.4</ele>
        <time>2013-08-26T11:39:41Z</time>
      </trkpt>
      <trkpt lat="45.93672" lon="6.7435">
        <ele>861.5</ele>
        <time>2013-08-26T11:39:42Z</time>
      </trkpt>
      <trkpt lat="45.9368" lon="6.74347">
        <ele>861.5</ele>
        <time>2013-08-26T11:39:43Z</time>
      </trkpt>
      <trkpt lat="45.93701" lon="6.74338">
        <ele>863.4</ele>
        <time>2013-08-26T11:39:46Z</time>
      </trkpt>
      <trkpt lat="45.93707" lon="6.74337">
        <ele>863.4</ele>
        <time>2013-08-26T11:39:47Z</time>
      </trkpt>
      <trkpt lat="45.93716" lon="6.74335">
        <ele>864.4</ele>
        <time>2013-08-26T11:39:49Z</time>
      </trkpt>
      <trkpt lat="45.93759" lon="6.74302">
        <ele>866.3</ele>
        <time>2013-08-26T11:40:00Z</time>
      </trkpt>
      <trkpt lat="45.93763" lon="6.74298">
        <ele>866.3</ele>
        <time>2013-08-26T11:40:01Z</time>
      </trkpt>
      <trkpt lat="45.93776" lon="6.74285">
        <ele>868.2</ele>
        <time>2013-08-26T11:40:05Z</time>
      </trkpt>
      <trkpt lat="45.93778" lon="6.74284">
        <ele>868.7</ele>
        <time>2013-08-26T11:40:06Z</time>
      </trkpt>
      <trkpt lat="45.93807" lon="6.74245">
        <ele>870.1</ele>
        <time>2013-08-26T11:40:17Z</time>
      </trkpt>
      <trkpt lat="45.93828" lon="6.74222">
        <ele>870.6</ele>
        <time>2013-08-26T11:40:23Z</time>
      </trkpt>
      <trkpt lat="45.93867" lon="6.74177">
        <ele>869.7</ele>
        <time>2013-08-26T11:40:33Z</time>
      </trkpt>
      <trkpt lat="45.9387" lon="6.74171">
        <ele>869.2</ele>
        <time>2013-08-26T11:40:34Z</time>
      </trkpt>
      <trkpt lat="45.93873" lon="6.74165">
        <ele>868.2</ele>
        <time>2013-08-26T11:40:35Z</time>
      </trkpt>
      <trkpt lat="45.93876" lon="6.74157">
        <ele>867.7</ele>
        <time>2013-08-26T11:40:36Z</time>
      </trkpt>
      <trkpt lat="45.9388" lon="6.74138">
        <ele>866.8</ele>
        <time>2013-08-26T11:40:38Z</time>
      </trkpt>
      <trkpt lat="45.93883" lon="6.74115">
        <ele>866.3</ele>
        <time>2013-08-26T11:40:40Z</time>
      </trkpt>
      <trkpt lat="45.93882" lon="6.74104">
        <ele>865.8</ele>
        <time>2013-08-26T11:40:41Z</time>
      </trkpt>
      <trkpt lat="45.9388" lon="6.74094">
        <ele>865.3</ele>
        <time>2013-08-26T11:40:42Z</time>
      </trkpt>
      <trkpt lat="45.93862" lon="6.74033">
        <ele>863.4</ele>
        <time>2013-08-26T11:40:48Z</time>
      </trkpt>
      <trkpt lat="45.93818" lon="6.73954">
        <ele>860</ele>
        <time>2013-08-26T11:40:57Z</time>
      </trkpt>
      <trkpt lat="45.93791" lon="6.73915">
        <ele>857.6</ele>
        <time>2013-08-26T11:41:02Z</time>
      </trkpt>
      <trkpt lat="45.93783" lon="6.73897">
        <ele>857.2</ele>
        <time>2013-08-26T11:41:04Z</time>
      </trkpt>
      <trkpt lat="45.93775" lon="6.73871">
        <ele>855.7</ele>
        <time>2013-08-26T11:41:07Z</time>
      </trkpt>
      <trkpt lat="45.93774" lon="6.73861">
        <ele>855.2</ele>
        <time>2013-08-26T11:41:13Z</time>
      </trkpt>
      <trkpt lat="45.93773" lon="6.7386">
        <ele>855.7</ele>
        <time>2013-08-26T11:41:15Z</time>
      </trkpt>
      <trkpt lat="45.93772" lon="6.7386">
        <ele>855.2</ele>
        <time>2013-08-26T11:41:16Z</time>
      </trkpt>
      <trkpt lat="45.93772" lon="6.73862">
        <ele>854.8</ele>
        <time>2013-08-26T11:41:17Z</time>
      </trkpt>
      <trkpt lat="45.93773" lon="6.73865">
        <ele>855.7</ele>
        <time>2013-08-26T11:41:19Z</time>
      </trkpt>
      <trkpt lat="45.93773" lon="6.73866">
        <ele>855.2</ele>
        <time>2013-08-26T11:41:20Z</time>
      </trkpt>
      <trkpt lat="45.93778" lon="6.73908">
        <ele>855.7</ele>
        <time>2013-08-26T11:41:31Z</time>
      </trkpt>
      <trkpt lat="45.9378" lon="6.73918">
        <ele>855.2</ele>
        <time>2013-08-26T11:41:34Z</time>
      </trkpt>
      <trkpt lat="45.93779" lon="6.73919">
        <ele>854.3</ele>
        <time>2013-08-26T11:41:35Z</time>
      </trkpt>
      <trkpt lat="45.93769" lon="6.73889">
        <ele>853.8</ele>
        <time>2013-08-26T11:41:47Z</time>
      </trkpt>
      <trkpt lat="45.93764" lon="6.73854">
        <ele>851.9</ele>
        <time>2013-08-26T11:41:54Z</time>
      </trkpt>
      <trkpt lat="45.93761" lon="6.73847">
        <ele>850.4</ele>
        <time>2013-08-26T11:41:55Z</time>
      </trkpt>
      <trkpt lat="45.93757" lon="6.7384">
        <ele>849.5</ele>
        <time>2013-08-26T11:41:56Z</time>
      </trkpt>
      <trkpt lat="45.93753" lon="6.73833">
        <ele>849.5</ele>
        <time>2013-08-26T11:41:57Z</time>
      </trkpt>
      <trkpt lat="45.93749" lon="6.73827">
        <ele>848</ele>
        <time>2013-08-26T11:41:58Z</time>
      </trkpt>
      <trkpt lat="45.93744" lon="6.73821">
        <ele>848</ele>
        <time>2013-08-26T11:41:59Z</time>
      </trkpt>
      <trkpt lat="45.93738" lon="6.73817">
        <ele>847.1</ele>
        <time>2013-08-26T11:42:00Z</time>
      </trkpt>
      <trkpt lat="45.93732" lon="6.73812">
        <ele>846.1</ele>
        <time>2013-08-26T11:42:01Z</time>
      </trkpt>
      <trkpt lat="45.93726" lon="6.73807">
        <ele>844.7</ele>
        <time>2013-08-26T11:42:02Z</time>
      </trkpt>
      <trkpt lat="45.93713" lon="6.73798">
        <ele>843.7</ele>
        <time>2013-08-26T11:42:04Z</time>
      </trkpt>
      <trkpt lat="45.93689" lon="6.73779">
        <ele>840.3</ele>
        <time>2013-08-26T11:42:08Z</time>
      </trkpt>
      <trkpt lat="45.93683" lon="6.73774">
        <ele>839.4</ele>
        <time>2013-08-26T11:42:09Z</time>
      </trkpt>
      <trkpt lat="45.93672" lon="6.73762">
        <ele>837</ele>
        <time>2013-08-26T11:42:11Z</time>
      </trkpt>
      <trkpt lat="45.9364" lon="6.73713">
        <ele>834.1</ele>
        <time>2013-08-26T11:42:18Z</time>
      </trkpt>
      <trkpt lat="45.93636" lon="6.73704">
        <ele>833.6</ele>
        <time>2013-08-26T11:42:19Z</time>
      </trkpt>
      <trkpt lat="45.93634" lon="6.73695">
        <ele>833.1</ele>
        <time>2013-08-26T11:42:20Z</time>
      </trkpt>
      <trkpt lat="45.93633" lon="6.73686">
        <ele>832.2</ele>
        <time>2013-08-26T11:42:21Z</time>
      </trkpt>
      <trkpt lat="45.93633" lon="6.73679">
        <ele>831.7</ele>
        <time>2013-08-26T11:42:22Z</time>
      </trkpt>
      <trkpt lat="45.93635" lon="6.73673">
        <ele>831.2</ele>
        <time>2013-08-26T11:42:23Z</time>
      </trkpt>
      <trkpt lat="45.93643" lon="6.73647">
        <ele>828.3</ele>
        <time>2013-08-26T11:42:29Z</time>
      </trkpt>
      <trkpt lat="45.93644" lon="6.73645">
        <ele>827.8</ele>
        <time>2013-08-26T11:42:44Z</time>
      </trkpt>
      <trkpt lat="45.93642" lon="6.73645">
        <ele>827.4</ele>
        <time>2013-08-26T11:42:57Z</time>
      </trkpt>
      <trkpt lat="45.93638" lon="6.73646">
        <ele>826.9</ele>
        <time>2013-08-26T11:43:00Z</time>
      </trkpt>
      <trkpt lat="45.93619" lon="6.73653">
        <ele>824</ele>
        <time>2013-08-26T11:43:05Z</time>
      </trkpt>
      <trkpt lat="45.93609" lon="6.73659">
        <ele>823</ele>
        <time>2013-08-26T11:43:07Z</time>
      </trkpt>
      <trkpt lat="45.93604" lon="6.73663">
        <ele>822.1</ele>
        <time>2013-08-26T11:43:08Z</time>
      </trkpt>
      <trkpt lat="45.93598" lon="6.73667">
        <ele>821.1</ele>
        <time>2013-08-26T11:43:09Z</time>
      </trkpt>
      <trkpt lat="45.93592" lon="6.73668">
        <ele>820.1</ele>
        <time>2013-08-26T11:43:10Z</time>
      </trkpt>
      <trkpt lat="45.93586" lon="6.73666">
        <ele>819.7</ele>
        <time>2013-08-26T11:43:11Z</time>
      </trkpt>
      <trkpt lat="45.93581" lon="6.73662">
        <ele>819.7</ele>
        <time>2013-08-26T11:43:12Z</time>
      </trkpt>
      <trkpt lat="45.93577" lon="6.73656">
        <ele>819.2</ele>
        <time>2013-08-26T11:43:13Z</time>
      </trkpt>
      <trkpt lat="45.93575" lon="6.73648">
        <ele>818.7</ele>
        <time>2013-08-26T11:43:14Z</time>
      </trkpt>
      <trkpt lat="45.93575" lon="6.73641">
        <ele>818.2</ele>
        <time>2013-08-26T11:43:15Z</time>
      </trkpt>
      <trkpt lat="45.93575" lon="6.73633">
        <ele>818.2</ele>
        <time>2013-08-26T11:43:16Z</time>
      </trkpt>
      <trkpt lat="45.93577" lon="6.73624">
        <ele>817.3</ele>
        <time>2013-08-26T11:43:17Z</time>
      </trkpt>
      <trkpt lat="45.93578" lon="6.73616">
        <ele>816.8</ele>
        <time>2013-08-26T11:43:18Z</time>
      </trkpt>
      <trkpt lat="45.93579" lon="6.73609">
        <ele>816.8</ele>
        <time>2013-08-26T11:43:19Z</time>
      </trkpt>
      <trkpt lat="45.93578" lon="6.73602">
        <ele>815.8</ele>
        <time>2013-08-26T11:43:20Z</time>
      </trkpt>
      <trkpt lat="45.93576" lon="6.73587">
        <ele>814.9</ele>
        <time>2013-08-26T11:43:22Z</time>
      </trkpt>
      <trkpt lat="45.9357" lon="6.73541">
        <ele>812.9</ele>
        <time>2013-08-26T11:43:27Z</time>
      </trkpt>
      <trkpt lat="45.93571" lon="6.73533">
        <ele>813.4</ele>
        <time>2013-08-26T11:43:28Z</time>
      </trkpt>
      <trkpt lat="45.93571" lon="6.73526">
        <ele>813.4</ele>
        <time>2013-08-26T11:43:29Z</time>
      </trkpt>
      <trkpt lat="45.93573" lon="6.73511">
        <ele>812.9</ele>
        <time>2013-08-26T11:43:31Z</time>
      </trkpt>
      <trkpt lat="45.93574" lon="6.73496">
        <ele>812.9</ele>
        <time>2013-08-26T11:43:33Z</time>
      </trkpt>
      <trkpt lat="45.93573" lon="6.7348">
        <ele>812.9</ele>
        <time>2013-08-26T11:43:35Z</time>
      </trkpt>
      <trkpt lat="45.93574" lon="6.73472">
        <ele>812.9</ele>
        <time>2013-08-26T11:43:36Z</time>
      </trkpt>
      <trkpt lat="45.93577" lon="6.73456">
        <ele>812.9</ele>
        <time>2013-08-26T11:43:38Z</time>
      </trkpt>
      <trkpt lat="45.93578" lon="6.73449">
        <ele>812</ele>
        <time>2013-08-26T11:43:39Z</time>
      </trkpt>
      <trkpt lat="45.93577" lon="6.73441">
        <ele>812</ele>
        <time>2013-08-26T11:43:40Z</time>
      </trkpt>
      <trkpt lat="45.93574" lon="6.73434">
        <ele>812</ele>
        <time>2013-08-26T11:43:41Z</time>
      </trkpt>
      <trkpt lat="45.9357" lon="6.73427">
        <ele>811.5</ele>
        <time>2013-08-26T11:43:42Z</time>
      </trkpt>
      <trkpt lat="45.93565" lon="6.73421">
        <ele>811.5</ele>
        <time>2013-08-26T11:43:43Z</time>
      </trkpt>
      <trkpt lat="45.93553" lon="6.73404">
        <ele>811.5</ele>
        <time>2013-08-26T11:43:46Z</time>
      </trkpt>
      <trkpt lat="45.9355" lon="6.73397">
        <ele>810.5</ele>
        <time>2013-08-26T11:43:47Z</time>
      </trkpt>
      <trkpt lat="45.93547" lon="6.7339">
        <ele>810.5</ele>
        <time>2013-08-26T11:43:48Z</time>
      </trkpt>
      <trkpt lat="45.93543" lon="6.73384">
        <ele>810.5</ele>
        <time>2013-08-26T11:43:49Z</time>
      </trkpt>
      <trkpt lat="45.93539" lon="6.73378">
        <ele>809.6</ele>
        <time>2013-08-26T11:43:50Z</time>
      </trkpt>
      <trkpt lat="45.93535" lon="6.73373">
        <ele>808.6</ele>
        <time>2013-08-26T11:43:51Z</time>
      </trkpt>
      <trkpt lat="45.93514" lon="6.73353">
        <ele>807.2</ele>
        <time>2013-08-26T11:43:55Z</time>
      </trkpt>
      <trkpt lat="45.93505" lon="6.73347">
        <ele>805.7</ele>
        <time>2013-08-26T11:43:57Z</time>
      </trkpt>
      <trkpt lat="45.935" lon="6.73344">
        <ele>805.7</ele>
        <time>2013-08-26T11:43:58Z</time>
      </trkpt>
      <trkpt lat="45.93495" lon="6.73341">
        <ele>804.8</ele>
        <time>2013-08-26T11:43:59Z</time>
      </trkpt>
      <trkpt lat="45.93482" lon="6.73332">
        <ele>802.8</ele>
        <time>2013-08-26T11:44:02Z</time>
      </trkpt>
      <trkpt lat="45.93464" lon="6.73313">
        <ele>800.4</ele>
        <time>2013-08-26T11:44:07Z</time>
      </trkpt>
      <trkpt lat="45.93461" lon="6.73308">
        <ele>800</ele>
        <time>2013-08-26T11:44:08Z</time>
      </trkpt>
      <trkpt lat="45.93459" lon="6.73302">
        <ele>800</ele>
        <time>2013-08-26T11:44:09Z</time>
      </trkpt>
      <trkpt lat="45.93455" lon="6.7329">
        <ele>800</ele>
        <time>2013-08-26T11:44:11Z</time>
      </trkpt>
      <trkpt lat="45.9345" lon="6.73279">
        <ele>800</ele>
        <time>2013-08-26T11:44:13Z</time>
      </trkpt>
      <trkpt lat="45.93445" lon="6.73275">
        <ele>800</ele>
        <time>2013-08-26T11:44:14Z</time>
      </trkpt>
      <trkpt lat="45.93427" lon="6.73259">
        <ele>798</ele>
        <time>2013-08-26T11:44:22Z</time>
      </trkpt>
      <trkpt lat="45.93425" lon="6.73255">
        <ele>797.6</ele>
        <time>2013-08-26T11:44:34Z</time>
      </trkpt>
      <trkpt lat="45.9342" lon="6.73242">
        <ele>795.6</ele>
        <time>2013-08-26T11:44:43Z</time>
      </trkpt>
      <trkpt lat="45.9342" lon="6.73235">
        <ele>794.2</ele>
        <time>2013-08-26T11:44:45Z</time>
      </trkpt>
      <trkpt lat="45.93421" lon="6.73232">
        <ele>794.2</ele>
        <time>2013-08-26T11:44:46Z</time>
      </trkpt>
      <trkpt lat="45.93429" lon="6.73223">
        <ele>792.7</ele>
        <time>2013-08-26T11:44:53Z</time>
      </trkpt>
      <trkpt lat="45.93427" lon="6.73218">
        <ele>792.3</ele>
        <time>2013-08-26T11:45:05Z</time>
      </trkpt>
      <trkpt lat="45.93437" lon="6.73206">
        <ele>791.3</ele>
        <time>2013-08-26T11:45:34Z</time>
      </trkpt>
      <trkpt lat="45.93453" lon="6.7319">
        <ele>789.9</ele>
        <time>2013-08-26T11:45:40Z</time>
      </trkpt>
      <trkpt lat="45.93454" lon="6.73183">
        <ele>789.4</ele>
        <time>2013-08-26T11:45:42Z</time>
      </trkpt>
      <trkpt lat="45.9345" lon="6.73161">
        <ele>789.4</ele>
        <time>2013-08-26T11:45:47Z</time>
      </trkpt>
      <trkpt lat="45.93451" lon="6.73157">
        <ele>789.4</ele>
        <time>2013-08-26T11:45:48Z</time>
      </trkpt>
      <trkpt lat="45.93453" lon="6.73154">
        <ele>789.9</ele>
        <time>2013-08-26T11:45:49Z</time>
      </trkpt>
      <trkpt lat="45.93464" lon="6.7314">
        <ele>790.8</ele>
        <time>2013-08-26T11:45:55Z</time>
      </trkpt>
      <trkpt lat="45.93465" lon="6.7313">
        <ele>791.3</ele>
        <time>2013-08-26T11:45:58Z</time>
      </trkpt>
      <trkpt lat="45.93461" lon="6.73106">
        <ele>790.3</ele>
        <time>2013-08-26T11:46:03Z</time>
      </trkpt>
      <trkpt lat="45.9346" lon="6.731">
        <ele>790.3</ele>
        <time>2013-08-26T11:46:04Z</time>
      </trkpt>
      <trkpt lat="45.93446" lon="6.73071">
        <ele>788.4</ele>
        <time>2013-08-26T11:46:11Z</time>
      </trkpt>
      <trkpt lat="45.93427" lon="6.7307">
        <ele>785.1</ele>
        <time>2013-08-26T11:46:19Z</time>
      </trkpt>
      <trkpt lat="45.93426" lon="6.73069">
        <ele>785.1</ele>
        <time>2013-08-26T11:46:20Z</time>
      </trkpt>
      <trkpt lat="45.93425" lon="6.73069">
        <ele>785.1</ele>
        <time>2013-08-26T11:46:21Z</time>
      </trkpt>
      <trkpt lat="45.93413" lon="6.73065">
        <ele>784.1</ele>
        <time>2013-08-26T11:46:24Z</time>
      </trkpt>
      <trkpt lat="45.93378" lon="6.73055">
        <ele>780.7</ele>
        <time>2013-08-26T11:46:30Z</time>
      </trkpt>
      <trkpt lat="45.93372" lon="6.73053">
        <ele>780.3</ele>
        <time>2013-08-26T11:46:31Z</time>
      </trkpt>
      <trkpt lat="45.93367" lon="6.7305">
        <ele>779.3</ele>
        <time>2013-08-26T11:46:32Z</time>
      </trkpt>
      <trkpt lat="45.93356" lon="6.73042">
        <ele>776.9</ele>
        <time>2013-08-26T11:46:34Z</time>
      </trkpt>
      <trkpt lat="45.93351" lon="6.73037">
        <ele>775.4</ele>
        <time>2013-08-26T11:46:35Z</time>
      </trkpt>
      <trkpt lat="45.93345" lon="6.73029">
        <ele>774</ele>
        <time>2013-08-26T11:46:36Z</time>
      </trkpt>
      <trkpt lat="45.9334" lon="6.73021">
        <ele>773</ele>
        <time>2013-08-26T11:46:37Z</time>
      </trkpt>
      <trkpt lat="45.93331" lon="6.73006">
        <ele>771.6</ele>
        <time>2013-08-26T11:46:39Z</time>
      </trkpt>
      <trkpt lat="45.93314" lon="6.72982">
        <ele>767.8</ele>
        <time>2013-08-26T11:46:43Z</time>
      </trkpt>
      <trkpt lat="45.93299" lon="6.72949">
        <ele>764.4</ele>
        <time>2013-08-26T11:46:46Z</time>
      </trkpt>
      <trkpt lat="45.93291" lon="6.7293">
        <ele>764.4</ele>
        <time>2013-08-26T11:46:48Z</time>
      </trkpt>
      <trkpt lat="45.93286" lon="6.72924">
        <ele>764.9</ele>
        <time>2013-08-26T11:46:49Z</time>
      </trkpt>
      <trkpt lat="45.93278" lon="6.72919">
        <ele>764.9</ele>
        <time>2013-08-26T11:46:55Z</time>
      </trkpt>
      <trkpt lat="45.93276" lon="6.72919">
        <ele>764.9</ele>
        <time>2013-08-26T11:46:57Z</time>
      </trkpt>
      <trkpt lat="45.93267" lon="6.72921">
        <ele>763.9</ele>
        <time>2013-08-26T11:47:00Z</time>
      </trkpt>
      <trkpt lat="45.93263" lon="6.72921">
        <ele>763.9</ele>
        <time>2013-08-26T11:47:01Z</time>
      </trkpt>
      <trkpt lat="45.93257" lon="6.7292">
        <ele>763.4</ele>
        <time>2013-08-26T11:47:02Z</time>
      </trkpt>
      <trkpt lat="45.93216" lon="6.72921">
        <ele>760.5</ele>
        <time>2013-08-26T11:47:09Z</time>
      </trkpt>
      <trkpt lat="45.93186" lon="6.72929">
        <ele>757.2</ele>
        <time>2013-08-26T11:47:13Z</time>
      </trkpt>
      <trkpt lat="45.93179" lon="6.7293">
        <ele>756.7</ele>
        <time>2013-08-26T11:47:14Z</time>
      </trkpt>
      <trkpt lat="45.93172" lon="6.72931">
        <ele>754.8</ele>
        <time>2013-08-26T11:47:15Z</time>
      </trkpt>
      <trkpt lat="45.9316" lon="6.72933">
        <ele>752.9</ele>
        <time>2013-08-26T11:47:17Z</time>
      </trkpt>
      <trkpt lat="45.93155" lon="6.72931">
        <ele>752.9</ele>
        <time>2013-08-26T11:47:18Z</time>
      </trkpt>
      <trkpt lat="45.93151" lon="6.72925">
        <ele>752.4</ele>
        <time>2013-08-26T11:47:19Z</time>
      </trkpt>
      <trkpt lat="45.93149" lon="6.72917">
        <ele>750.9</ele>
        <time>2013-08-26T11:47:20Z</time>
      </trkpt>
      <trkpt lat="45.93145" lon="6.72885">
        <ele>747.1</ele>
        <time>2013-08-26T11:47:23Z</time>
      </trkpt>
      <trkpt lat="45.93145" lon="6.72881">
        <ele>746.6</ele>
        <time>2013-08-26T11:47:24Z</time>
      </trkpt>
      <trkpt lat="45.93146" lon="6.72873">
        <ele>746.1</ele>
        <time>2013-08-26T11:47:25Z</time>
      </trkpt>
      <trkpt lat="45.93148" lon="6.72857">
        <ele>744.2</ele>
        <time>2013-08-26T11:47:28Z</time>
      </trkpt>
      <trkpt lat="45.93147" lon="6.72854">
        <ele>743.2</ele>
        <time>2013-08-26T11:47:29Z</time>
      </trkpt>
      <trkpt lat="45.93144" lon="6.72853">
        <ele>743.2</ele>
        <time>2013-08-26T11:47:30Z</time>
      </trkpt>
      <trkpt lat="45.93141" lon="6.72855">
        <ele>742.3</ele>
        <time>2013-08-26T11:47:31Z</time>
      </trkpt>
      <trkpt lat="45.93137" lon="6.72858">
        <ele>742.3</ele>
        <time>2013-08-26T11:47:32Z</time>
      </trkpt>
      <trkpt lat="45.93124" lon="6.72873">
        <ele>739.9</ele>
        <time>2013-08-26T11:47:35Z</time>
      </trkpt>
      <trkpt lat="45.9312" lon="6.72879">
        <ele>739.4</ele>
        <time>2013-08-26T11:47:36Z</time>
      </trkpt>
      <trkpt lat="45.93111" lon="6.72891">
        <ele>738</ele>
        <time>2013-08-26T11:47:38Z</time>
      </trkpt>
      <trkpt lat="45.93108" lon="6.72897">
        <ele>737.5</ele>
        <time>2013-08-26T11:47:39Z</time>
      </trkpt>
      <trkpt lat="45.93103" lon="6.72902">
        <ele>736</ele>
        <time>2013-08-26T11:47:40Z</time>
      </trkpt>
      <trkpt lat="45.93092" lon="6.72913">
        <ele>734.1</ele>
        <time>2013-08-26T11:47:42Z</time>
      </trkpt>
      <trkpt lat="45.93069" lon="6.72933">
        <ele>730.7</ele>
        <time>2013-08-26T11:47:46Z</time>
      </trkpt>
      <trkpt lat="45.93066" lon="6.72936">
        <ele>730.3</ele>
        <time>2013-08-26T11:47:47Z</time>
      </trkpt>
      <trkpt lat="45.93061" lon="6.72943">
        <ele>729.8</ele>
        <time>2013-08-26T11:47:48Z</time>
      </trkpt>
      <trkpt lat="45.93058" lon="6.72951">
        <ele>728.8</ele>
        <time>2013-08-26T11:47:49Z</time>
      </trkpt>
      <trkpt lat="45.93055" lon="6.7296">
        <ele>727.9</ele>
        <time>2013-08-26T11:47:50Z</time>
      </trkpt>
      <trkpt lat="45.93049" lon="6.72984">
        <ele>724.5</ele>
        <time>2013-08-26T11:47:53Z</time>
      </trkpt>
      <trkpt lat="45.93047" lon="6.72995">
        <ele>724</ele>
        <time>2013-08-26T11:47:54Z</time>
      </trkpt>
      <trkpt lat="45.93044" lon="6.73008">
        <ele>723.1</ele>
        <time>2013-08-26T11:47:55Z</time>
      </trkpt>
      <trkpt lat="45.93043" lon="6.73017">
        <ele>722.1</ele>
        <time>2013-08-26T11:47:56Z</time>
      </trkpt>
      <trkpt lat="45.93043" lon="6.73025">
        <ele>721.6</ele>
        <time>2013-08-26T11:47:57Z</time>
      </trkpt>
      <trkpt lat="45.93041" lon="6.73033">
        <ele>721.1</ele>
        <time>2013-08-26T11:47:58Z</time>
      </trkpt>
      <trkpt lat="45.93038" lon="6.73038">
        <ele>720.7</ele>
        <time>2013-08-26T11:47:59Z</time>
      </trkpt>
      <trkpt lat="45.93033" lon="6.73039">
        <ele>720.2</ele>
        <time>2013-08-26T11:48:00Z</time>
      </trkpt>
      <trkpt lat="45.93028" lon="6.73037">
        <ele>719.2</ele>
        <time>2013-08-26T11:48:01Z</time>
      </trkpt>
      <trkpt lat="45.93026" lon="6.73031">
        <ele>718.2</ele>
        <time>2013-08-26T11:48:02Z</time>
      </trkpt>
      <trkpt lat="45.93023" lon="6.73023">
        <ele>717.8</ele>
        <time>2013-08-26T11:48:03Z</time>
      </trkpt>
      <trkpt lat="45.93019" lon="6.73016">
        <ele>716.8</ele>
        <time>2013-08-26T11:48:04Z</time>
      </trkpt>
      <trkpt lat="45.93015" lon="6.73011">
        <ele>715.8</ele>
        <time>2013-08-26T11:48:05Z</time>
      </trkpt>
      <trkpt lat="45.92997" lon="6.7299">
        <ele>712.5</ele>
        <time>2013-08-26T11:48:09Z</time>
      </trkpt>
      <trkpt lat="45.92994" lon="6.72983">
        <ele>712</ele>
        <time>2013-08-26T11:48:10Z</time>
      </trkpt>
      <trkpt lat="45.92991" lon="6.72974">
        <ele>711</ele>
        <time>2013-08-26T11:48:11Z</time>
      </trkpt>
      <trkpt lat="45.92986" lon="6.72948">
        <ele>707.7</ele>
        <time>2013-08-26T11:48:14Z</time>
      </trkpt>
      <trkpt lat="45.92983" lon="6.72932">
        <ele>705.3</ele>
        <time>2013-08-26T11:48:16Z</time>
      </trkpt>
      <trkpt lat="45.92982" lon="6.72924">
        <ele>704.3</ele>
        <time>2013-08-26T11:48:17Z</time>
      </trkpt>
      <trkpt lat="45.92982" lon="6.72916">
        <ele>702.9</ele>
        <time>2013-08-26T11:48:18Z</time>
      </trkpt>
      <trkpt lat="45.92984" lon="6.72909">
        <ele>701.9</ele>
        <time>2013-08-26T11:48:19Z</time>
      </trkpt>
      <trkpt lat="45.92987" lon="6.72903">
        <ele>700.9</ele>
        <time>2013-08-26T11:48:20Z</time>
      </trkpt>
      <trkpt lat="45.92989" lon="6.72896">
        <ele>700</ele>
        <time>2013-08-26T11:48:21Z</time>
      </trkpt>
      <trkpt lat="45.92992" lon="6.72889">
        <ele>698.5</ele>
        <time>2013-08-26T11:48:22Z</time>
      </trkpt>
      <trkpt lat="45.92998" lon="6.72874">
        <ele>697.1</ele>
        <time>2013-08-26T11:48:24Z</time>
      </trkpt>
      <trkpt lat="45.93001" lon="6.72867">
        <ele>696.1</ele>
        <time>2013-08-26T11:48:25Z</time>
      </trkpt>
      <trkpt lat="45.93003" lon="6.72858">
        <ele>695.2</ele>
        <time>2013-08-26T11:48:26Z</time>
      </trkpt>
      <trkpt lat="45.93007" lon="6.72842">
        <ele>693.7</ele>
        <time>2013-08-26T11:48:28Z</time>
      </trkpt>
      <trkpt lat="45.9301" lon="6.72835">
        <ele>692.8</ele>
        <time>2013-08-26T11:48:29Z</time>
      </trkpt>
      <trkpt lat="45.9303" lon="6.72801">
        <ele>689.9</ele>
        <time>2013-08-26T11:48:33Z</time>
      </trkpt>
      <trkpt lat="45.93055" lon="6.72749">
        <ele>688</ele>
        <time>2013-08-26T11:48:39Z</time>
      </trkpt>
      <trkpt lat="45.93059" lon="6.7274">
        <ele>687.5</ele>
        <time>2013-08-26T11:48:40Z</time>
      </trkpt>
      <trkpt lat="45.93079" lon="6.72671">
        <ele>685.6</ele>
        <time>2013-08-26T11:48:47Z</time>
      </trkpt>
      <trkpt lat="45.93081" lon="6.72633">
        <ele>682.7</ele>
        <time>2013-08-26T11:48:53Z</time>
      </trkpt>
      <trkpt lat="45.93084" lon="6.72615">
        <ele>680.8</ele>
        <time>2013-08-26T11:49:07Z</time>
      </trkpt>
      <trkpt lat="45.93084" lon="6.72606">
        <ele>680.8</ele>
        <time>2013-08-26T11:49:08Z</time>
      </trkpt>
      <trkpt lat="45.93086" lon="6.72591">
        <ele>680.3</ele>
        <time>2013-08-26T11:49:10Z</time>
      </trkpt>
      <trkpt lat="45.93089" lon="6.72584">
        <ele>679.3</ele>
        <time>2013-08-26T11:49:11Z</time>
      </trkpt>
      <trkpt lat="45.93096" lon="6.7257">
        <ele>678.4</ele>
        <time>2013-08-26T11:49:13Z</time>
      </trkpt>
      <trkpt lat="45.93109" lon="6.72547">
        <ele>675.9</ele>
        <time>2013-08-26T11:49:17Z</time>
      </trkpt>
      <trkpt lat="45.93115" lon="6.72535">
        <ele>673.5</ele>
        <time>2013-08-26T11:49:19Z</time>
      </trkpt>
      <trkpt lat="45.93117" lon="6.72528">
        <ele>672.6</ele>
        <time>2013-08-26T11:49:20Z</time>
      </trkpt>
      <trkpt lat="45.93118" lon="6.72521">
        <ele>671.1</ele>
        <time>2013-08-26T11:49:21Z</time>
      </trkpt>
      <trkpt lat="45.93117" lon="6.72513">
        <ele>669.7</ele>
        <time>2013-08-26T11:49:22Z</time>
      </trkpt>
      <trkpt lat="45.93114" lon="6.72505">
        <ele>668.7</ele>
        <time>2013-08-26T11:49:23Z</time>
      </trkpt>
      <trkpt lat="45.93109" lon="6.72499">
        <ele>668.3</ele>
        <time>2013-08-26T11:49:24Z</time>
      </trkpt>
      <trkpt lat="45.93103" lon="6.72494">
        <ele>667.3</ele>
        <time>2013-08-26T11:49:25Z</time>
      </trkpt>
      <trkpt lat="45.93083" lon="6.72479">
        <ele>664.4</ele>
        <time>2013-08-26T11:49:28Z</time>
      </trkpt>
      <trkpt lat="45.93069" lon="6.7247">
        <ele>663.5</ele>
        <time>2013-08-26T11:49:30Z</time>
      </trkpt>
      <trkpt lat="45.93052" lon="6.72454">
        <ele>661.5</ele>
        <time>2013-08-26T11:49:33Z</time>
      </trkpt>
      <trkpt lat="45.93046" lon="6.72447">
        <ele>661.5</ele>
        <time>2013-08-26T11:49:34Z</time>
      </trkpt>
      <trkpt lat="45.9304" lon="6.72439">
        <ele>660.1</ele>
        <time>2013-08-26T11:49:35Z</time>
      </trkpt>
      <trkpt lat="45.93035" lon="6.72431">
        <ele>659.6</ele>
        <time>2013-08-26T11:49:36Z</time>
      </trkpt>
      <trkpt lat="45.93025" lon="6.7241">
        <ele>657.2</ele>
        <time>2013-08-26T11:49:39Z</time>
      </trkpt>
      <trkpt lat="45.93022" lon="6.72402">
        <ele>656.2</ele>
        <time>2013-08-26T11:49:40Z</time>
      </trkpt>
      <trkpt lat="45.9302" lon="6.72395">
        <ele>655.3</ele>
        <time>2013-08-26T11:49:41Z</time>
      </trkpt>
      <trkpt lat="45.93019" lon="6.72386">
        <ele>655.3</ele>
        <time>2013-08-26T11:49:47Z</time>
      </trkpt>
      <trkpt lat="45.93021" lon="6.7239">
        <ele>655.3</ele>
        <time>2013-08-26T11:50:09Z</time>
      </trkpt>
      <trkpt lat="45.93016" lon="6.72393">
        <ele>654.8</ele>
        <time>2013-08-26T11:50:11Z</time>
      </trkpt>
      <trkpt lat="45.93014" lon="6.72397">
        <ele>654.8</ele>
        <time>2013-08-26T11:50:12Z</time>
      </trkpt>
      <trkpt lat="45.93004" lon="6.72421">
        <ele>653.4</ele>
        <time>2013-08-26T11:50:18Z</time>
      </trkpt>
      <trkpt lat="45.92994" lon="6.72463">
        <ele>650</ele>
        <time>2013-08-26T11:50:26Z</time>
      </trkpt>
      <trkpt lat="45.92987" lon="6.72484">
        <ele>648.1</ele>
        <time>2013-08-26T11:50:29Z</time>
      </trkpt>
      <trkpt lat="45.92984" lon="6.7249">
        <ele>648.1</ele>
        <time>2013-08-26T11:50:30Z</time>
      </trkpt>
      <trkpt lat="45.9298" lon="6.72495">
        <ele>647.6</ele>
        <time>2013-08-26T11:50:31Z</time>
      </trkpt>
      <trkpt lat="45.92976" lon="6.72499">
        <ele>647.1</ele>
        <time>2013-08-26T11:50:32Z</time>
      </trkpt>
      <trkpt lat="45.9297" lon="6.72502">
        <ele>646.1</ele>
        <time>2013-08-26T11:50:33Z</time>
      </trkpt>
      <trkpt lat="45.92965" lon="6.72503">
        <ele>646.1</ele>
        <time>2013-08-26T11:50:34Z</time>
      </trkpt>
      <trkpt lat="45.92959" lon="6.72501">
        <ele>645.7</ele>
        <time>2013-08-26T11:50:35Z</time>
      </trkpt>
      <trkpt lat="45.92954" lon="6.72497">
        <ele>644.7</ele>
        <time>2013-08-26T11:50:36Z</time>
      </trkpt>
      <trkpt lat="45.92949" lon="6.72491">
        <ele>644.7</ele>
        <time>2013-08-26T11:50:37Z</time>
      </trkpt>
      <trkpt lat="45.92945" lon="6.72484">
        <ele>644.7</ele>
        <time>2013-08-26T11:50:38Z</time>
      </trkpt>
      <trkpt lat="45.92935" lon="6.72458">
        <ele>642.3</ele>
        <time>2013-08-26T11:50:41Z</time>
      </trkpt>
      <trkpt lat="45.92925" lon="6.72412">
        <ele>638.9</ele>
        <time>2013-08-26T11:50:45Z</time>
      </trkpt>
      <trkpt lat="45.92922" lon="6.72406">
        <ele>638.5</ele>
        <time>2013-08-26T11:50:46Z</time>
      </trkpt>
      <trkpt lat="45.92918" lon="6.72397">
        <ele>638.5</ele>
        <time>2013-08-26T11:50:47Z</time>
      </trkpt>
      <trkpt lat="45.92912" lon="6.72389">
        <ele>637.5</ele>
        <time>2013-08-26T11:50:48Z</time>
      </trkpt>
      <trkpt lat="45.92905" lon="6.72383">
        <ele>637</ele>
        <time>2013-08-26T11:50:49Z</time>
      </trkpt>
      <trkpt lat="45.92897" lon="6.72379">
        <ele>636.5</ele>
        <time>2013-08-26T11:50:50Z</time>
      </trkpt>
      <trkpt lat="45.92889" lon="6.72378">
        <ele>636.5</ele>
        <time>2013-08-26T11:50:51Z</time>
      </trkpt>
      <trkpt lat="45.9288" lon="6.72378">
        <ele>636.1</ele>
        <time>2013-08-26T11:50:52Z</time>
      </trkpt>
      <trkpt lat="45.92842" lon="6.72389">
        <ele>632.7</ele>
        <time>2013-08-26T11:50:57Z</time>
      </trkpt>
      <trkpt lat="45.92788" lon="6.72403">
        <ele>629.8</ele>
        <time>2013-08-26T11:51:03Z</time>
      </trkpt>
      <trkpt lat="45.92721" lon="6.72418">
        <ele>630.3</ele>
        <time>2013-08-26T11:51:12Z</time>
      </trkpt>
      <trkpt lat="45.92717" lon="6.72415">
        <ele>630.3</ele>
        <time>2013-08-26T11:51:13Z</time>
      </trkpt>
      <trkpt lat="45.92714" lon="6.7241">
        <ele>629.8</ele>
        <time>2013-08-26T11:51:14Z</time>
      </trkpt>
      <trkpt lat="45.92713" lon="6.72404">
        <ele>630.3</ele>
        <time>2013-08-26T11:51:15Z</time>
      </trkpt>
      <trkpt lat="45.92694" lon="6.72298">
        <ele>627.9</ele>
        <time>2013-08-26T11:51:30Z</time>
      </trkpt>
      <trkpt lat="45.92677" lon="6.72166">
        <ele>626.4</ele>
        <time>2013-08-26T11:51:45Z</time>
      </trkpt>
      <trkpt lat="45.92663" lon="6.72063">
        <ele>626</ele>
        <time>2013-08-26T11:51:56Z</time>
      </trkpt>
      <trkpt lat="45.92662" lon="6.72047">
        <ele>625.5</ele>
        <time>2013-08-26T11:51:58Z</time>
      </trkpt>
      <trkpt lat="45.92662" lon="6.72041">
        <ele>625.5</ele>
        <time>2013-08-26T11:51:59Z</time>
      </trkpt>
      <trkpt lat="45.92668" lon="6.72027">
        <ele>626</ele>
        <time>2013-08-26T11:52:05Z</time>
      </trkpt>
      <trkpt lat="45.92668" lon="6.72026">
        <ele>626</ele>
        <time>2013-08-26T11:52:06Z</time>
      </trkpt>
      <trkpt lat="45.92667" lon="6.72023">
        <ele>626</ele>
        <time>2013-08-26T11:52:07Z</time>
      </trkpt>
      <trkpt lat="45.92666" lon="6.72021">
        <ele>626</ele>
        <time>2013-08-26T11:52:08Z</time>
      </trkpt>
      <trkpt lat="45.92664" lon="6.72019">
        <ele>626</ele>
        <time>2013-08-26T11:52:09Z</time>
      </trkpt>
      <trkpt lat="45.92641" lon="6.72014">
        <ele>625.5</ele>
        <time>2013-08-26T11:52:15Z</time>
      </trkpt>
      <trkpt lat="45.92637" lon="6.72011">
        <ele>625.5</ele>
        <time>2013-08-26T11:52:16Z</time>
      </trkpt>
      <trkpt lat="45.92613" lon="6.71987">
        <ele>625.5</ele>
        <time>2013-08-26T11:52:22Z</time>
      </trkpt>
      <trkpt lat="45.92602" lon="6.71973">
        <ele>624.5</ele>
        <time>2013-08-26T11:52:25Z</time>
      </trkpt>
      <trkpt lat="45.92565" lon="6.71945">
        <ele>624</ele>
        <time>2013-08-26T11:52:34Z</time>
      </trkpt>
      <trkpt lat="45.92561" lon="6.71942">
        <ele>623.6</ele>
        <time>2013-08-26T11:52:35Z</time>
      </trkpt>
      <trkpt lat="45.92541" lon="6.7192">
        <ele>623.6</ele>
        <time>2013-08-26T11:52:40Z</time>
      </trkpt>
      <trkpt lat="45.92471" lon="6.71853">
        <ele>622.1</ele>
        <time>2013-08-26T11:52:56Z</time>
      </trkpt>
      <trkpt lat="45.92418" lon="6.71741">
        <ele>621.6</ele>
        <time>2013-08-26T11:53:13Z</time>
      </trkpt>
      <trkpt lat="45.92349" lon="6.71639">
        <ele>620.2</ele>
        <time>2013-08-26T11:53:30Z</time>
      </trkpt>
      <trkpt lat="45.92261" lon="6.71552">
        <ele>619.2</ele>
        <time>2013-08-26T11:53:47Z</time>
      </trkpt>
      <trkpt lat="45.92196" lon="6.71488">
        <ele>617.3</ele>
        <time>2013-08-26T11:53:59Z</time>
      </trkpt>
      <trkpt lat="45.92122" lon="6.71413">
        <ele>616.3</ele>
        <time>2013-08-26T11:54:13Z</time>
      </trkpt>
      <trkpt lat="45.92119" lon="6.71406">
        <ele>616.3</ele>
        <time>2013-08-26T11:54:14Z</time>
      </trkpt>
      <trkpt lat="45.92113" lon="6.71393">
        <ele>616.3</ele>
        <time>2013-08-26T11:54:16Z</time>
      </trkpt>
      <trkpt lat="45.92109" lon="6.71387">
        <ele>616.3</ele>
        <time>2013-08-26T11:54:17Z</time>
      </trkpt>
      <trkpt lat="45.92098" lon="6.71369">
        <ele>615.9</ele>
        <time>2013-08-26T11:54:20Z</time>
      </trkpt>
      <trkpt lat="45.9206" lon="6.71251">
        <ele>614.9</ele>
        <time>2013-08-26T11:54:34Z</time>
      </trkpt>
      <trkpt lat="45.92027" lon="6.71129">
        <ele>614.4</ele>
        <time>2013-08-26T11:54:47Z</time>
      </trkpt>
      <trkpt lat="45.91994" lon="6.70994">
        <ele>613.5</ele>
        <time>2013-08-26T11:55:03Z</time>
      </trkpt>
      <trkpt lat="45.91975" lon="6.70893">
        <ele>612</ele>
        <time>2013-08-26T11:55:13Z</time>
      </trkpt>
      <trkpt lat="45.91965" lon="6.70858">
        <ele>610.6</ele>
        <time>2013-08-26T11:55:17Z</time>
      </trkpt>
      <trkpt lat="45.91962" lon="6.7084">
        <ele>612</ele>
        <time>2013-08-26T11:55:19Z</time>
      </trkpt>
      <trkpt lat="45.91946" lon="6.70747">
        <ele>612</ele>
        <time>2013-08-26T11:55:29Z</time>
      </trkpt>
      <trkpt lat="45.91944" lon="6.70738">
        <ele>611.1</ele>
        <time>2013-08-26T11:55:30Z</time>
      </trkpt>
      <trkpt lat="45.91914" lon="6.70606">
        <ele>610.6</ele>
        <time>2013-08-26T11:55:45Z</time>
      </trkpt>
      <trkpt lat="45.91879" lon="6.70438">
        <ele>609.6</ele>
        <time>2013-08-26T11:56:03Z</time>
      </trkpt>
      <trkpt lat="45.91872" lon="6.70413">
        <ele>609.6</ele>
        <time>2013-08-26T11:56:07Z</time>
      </trkpt>
      <trkpt lat="45.91873" lon="6.7041">
        <ele>609.1</ele>
        <time>2013-08-26T11:56:08Z</time>
      </trkpt>
      <trkpt lat="45.91903" lon="6.70401">
        <ele>608.7</ele>
        <time>2013-08-26T11:56:17Z</time>
      </trkpt>
      <trkpt lat="45.91908" lon="6.70403">
        <ele>608.7</ele>
        <time>2013-08-26T11:56:18Z</time>
      </trkpt>
      <trkpt lat="45.91912" lon="6.70407">
        <ele>608.7</ele>
        <time>2013-08-26T11:56:19Z</time>
      </trkpt>
      <trkpt lat="45.91914" lon="6.70413">
        <ele>609.1</ele>
        <time>2013-08-26T11:56:20Z</time>
      </trkpt>
      <trkpt lat="45.91917" lon="6.70419">
        <ele>609.1</ele>
        <time>2013-08-26T11:56:21Z</time>
      </trkpt>
      <trkpt lat="45.91925" lon="6.70434">
        <ele>609.1</ele>
        <time>2013-08-26T11:56:24Z</time>
      </trkpt>
      <trkpt lat="45.91928" lon="6.70436">
        <ele>609.6</ele>
        <time>2013-08-26T11:56:25Z</time>
      </trkpt>
      <trkpt lat="45.91932" lon="6.70436">
        <ele>609.1</ele>
        <time>2013-08-26T11:56:26Z</time>
      </trkpt>
      <trkpt lat="45.91936" lon="6.70434">
        <ele>609.1</ele>
        <time>2013-08-26T11:56:27Z</time>
      </trkpt>
      <trkpt lat="45.91939" lon="6.70432">
        <ele>609.6</ele>
        <time>2013-08-26T11:56:28Z</time>
      </trkpt>
      <trkpt lat="45.91943" lon="6.7043">
        <ele>609.6</ele>
        <time>2013-08-26T11:56:29Z</time>
      </trkpt>
      <trkpt lat="45.91946" lon="6.70429">
        <ele>609.6</ele>
        <time>2013-08-26T11:56:30Z</time>
      </trkpt>
      <trkpt lat="45.9195" lon="6.70428">
        <ele>609.1</ele>
        <time>2013-08-26T11:56:31Z</time>
      </trkpt>
      <trkpt lat="45.91953" lon="6.70429">
        <ele>609.1</ele>
        <time>2013-08-26T11:56:32Z</time>
      </trkpt>
      <trkpt lat="45.91955" lon="6.70429">
        <ele>608.7</ele>
        <time>2013-08-26T11:56:33Z</time>
      </trkpt>
      <trkpt lat="45.91957" lon="6.70434">
        <ele>609.1</ele>
        <time>2013-08-26T11:56:34Z</time>
      </trkpt>
      <trkpt lat="45.91955" lon="6.70432">
        <ele>609.1</ele>
        <time>2013-08-26T11:56:44Z</time>
      </trkpt>
      <trkpt lat="45.91951" lon="6.70431">
        <ele>609.6</ele>
        <time>2013-08-26T11:57:22Z</time>
      </trkpt>
      <trkpt lat="45.9195" lon="6.70434">
        <ele>608.2</ele>
        <time>2013-08-26T11:57:55Z</time>
      </trkpt>
      <trkpt lat="45.91951" lon="6.70432">
        <ele>608.7</ele>
        <time>2013-08-26T11:58:26Z</time>
      </trkpt>
      <trkpt lat="45.91949" lon="6.70427">
        <ele>600.5</ele>
        <time>2013-08-26T12:17:56Z</time>
      </trkpt>
      <trkpt lat="45.91946" lon="6.70427">
        <ele>600</ele>
        <time>2013-08-26T12:17:57Z</time>
      </trkpt>
      <trkpt lat="45.91923" lon="6.70438">
        <ele>599.5</ele>
        <time>2013-08-26T12:18:06Z</time>
      </trkpt>
      <trkpt lat="45.91922" lon="6.70437">
        <ele>599</ele>
        <time>2013-08-26T12:18:07Z</time>
      </trkpt>
      <trkpt lat="45.91922" lon="6.70434">
        <ele>598.6</ele>
        <time>2013-08-26T12:18:08Z</time>
      </trkpt>
      <trkpt lat="45.91922" lon="6.70432">
        <ele>597.6</ele>
        <time>2013-08-26T12:18:09Z</time>
      </trkpt>
      <trkpt lat="45.91922" lon="6.70429">
        <ele>598.6</ele>
        <time>2013-08-26T12:18:10Z</time>
      </trkpt>
      <trkpt lat="45.9192" lon="6.70419">
        <ele>595.7</ele>
        <time>2013-08-26T12:18:16Z</time>
      </trkpt>
      <trkpt lat="45.91896" lon="6.704">
        <ele>593.8</ele>
        <time>2013-08-26T12:18:26Z</time>
      </trkpt>
      <trkpt lat="45.91872" lon="6.70413">
        <ele>591.4</ele>
        <time>2013-08-26T12:18:36Z</time>
      </trkpt>
      <trkpt lat="45.91871" lon="6.70415">
        <ele>588</ele>
        <time>2013-08-26T12:18:44Z</time>
      </trkpt>
      <trkpt lat="45.91871" lon="6.70416">
        <ele>588.5</ele>
        <time>2013-08-26T12:18:52Z</time>
      </trkpt>
      <trkpt lat="45.9187" lon="6.70416">
        <ele>585.6</ele>
        <time>2013-08-26T12:18:53Z</time>
      </trkpt>
      <trkpt lat="45.9187" lon="6.70416">
        <ele>591.4</ele>
        <time>2013-08-26T12:18:54Z</time>
      </trkpt>
      <trkpt lat="45.9187" lon="6.70416">
        <ele>588</ele>
        <time>2013-08-26T12:18:55Z</time>
      </trkpt>
      <trkpt lat="45.9187" lon="6.70417">
        <ele>584.6</ele>
        <time>2013-08-26T12:19:05Z</time>
      </trkpt>
      <trkpt lat="45.91869" lon="6.70417">
        <ele>589</ele>
        <time>2013-08-26T12:19:07Z</time>
      </trkpt>
      <trkpt lat="45.91868" lon="6.70418">
        <ele>587</ele>
        <time>2013-08-26T12:19:15Z</time>
      </trkpt>
      <trkpt lat="45.91865" lon="6.70412">
        <ele>587</ele>
        <time>2013-08-26T12:19:18Z</time>
      </trkpt>
      <trkpt lat="45.91864" lon="6.70408">
        <ele>587.5</ele>
        <time>2013-08-26T12:19:19Z</time>
      </trkpt>
      <trkpt lat="45.91856" lon="6.70367">
        <ele>586.5</ele>
        <time>2013-08-26T12:19:26Z</time>
      </trkpt>
      <trkpt lat="45.91854" lon="6.70361">
        <ele>587</ele>
        <time>2013-08-26T12:19:27Z</time>
      </trkpt>
      <trkpt lat="45.91852" lon="6.70356">
        <ele>586.5</ele>
        <time>2013-08-26T12:19:28Z</time>
      </trkpt>
      <trkpt lat="45.9185" lon="6.70349">
        <ele>587</ele>
        <time>2013-08-26T12:19:29Z</time>
      </trkpt>
      <trkpt lat="45.91849" lon="6.70343">
        <ele>587</ele>
        <time>2013-08-26T12:19:30Z</time>
      </trkpt>
      <trkpt lat="45.91847" lon="6.70337">
        <ele>587</ele>
        <time>2013-08-26T12:19:31Z</time>
      </trkpt>
      <trkpt lat="45.91846" lon="6.7033">
        <ele>586.5</ele>
        <time>2013-08-26T12:19:32Z</time>
      </trkpt>
      <trkpt lat="45.91847" lon="6.70323">
        <ele>586.1</ele>
        <time>2013-08-26T12:19:33Z</time>
      </trkpt>
      <trkpt lat="45.91848" lon="6.70317">
        <ele>586.5</ele>
        <time>2013-08-26T12:19:34Z</time>
      </trkpt>
      <trkpt lat="45.91849" lon="6.7031">
        <ele>587</ele>
        <time>2013-08-26T12:19:35Z</time>
      </trkpt>
      <trkpt lat="45.91849" lon="6.70303">
        <ele>586.5</ele>
        <time>2013-08-26T12:19:36Z</time>
      </trkpt>
      <trkpt lat="45.91848" lon="6.70297">
        <ele>587</ele>
        <time>2013-08-26T12:19:37Z</time>
      </trkpt>
      <trkpt lat="45.91845" lon="6.70291">
        <ele>586.5</ele>
        <time>2013-08-26T12:19:38Z</time>
      </trkpt>
      <trkpt lat="45.91841" lon="6.70288">
        <ele>586.5</ele>
        <time>2013-08-26T12:19:39Z</time>
      </trkpt>
      <trkpt lat="45.91836" lon="6.70287">
        <ele>586.5</ele>
        <time>2013-08-26T12:19:40Z</time>
      </trkpt>
      <trkpt lat="45.91831" lon="6.70288">
        <ele>586.5</ele>
        <time>2013-08-26T12:19:41Z</time>
      </trkpt>
      <trkpt lat="45.91826" lon="6.70291">
        <ele>586.5</ele>
        <time>2013-08-26T12:19:42Z</time>
      </trkpt>
      <trkpt lat="45.91822" lon="6.70293">
        <ele>586.5</ele>
        <time>2013-08-26T12:19:43Z</time>
      </trkpt>
      <trkpt lat="45.91817" lon="6.70295">
        <ele>586.5</ele>
        <time>2013-08-26T12:19:44Z</time>
      </trkpt>
      <trkpt lat="45.91812" lon="6.70296">
        <ele>586.1</ele>
        <time>2013-08-26T12:19:45Z</time>
      </trkpt>
      <trkpt lat="45.91808" lon="6.70295">
        <ele>586.1</ele>
        <time>2013-08-26T12:19:46Z</time>
      </trkpt>
      <trkpt lat="45.91729" lon="6.70281">
        <ele>586.1</ele>
        <time>2013-08-26T12:20:02Z</time>
      </trkpt>
      <trkpt lat="45.91703" lon="6.7028">
        <ele>586.1</ele>
        <time>2013-08-26T12:20:07Z</time>
      </trkpt>
      <trkpt lat="45.91638" lon="6.7031">
        <ele>585.6</ele>
        <time>2013-08-26T12:20:21Z</time>
      </trkpt>
      <trkpt lat="45.9163" lon="6.70318">
        <ele>586.1</ele>
        <time>2013-08-26T12:20:23Z</time>
      </trkpt>
      <trkpt lat="45.91624" lon="6.70328">
        <ele>585.6</ele>
        <time>2013-08-26T12:20:25Z</time>
      </trkpt>
      <trkpt lat="45.91622" lon="6.70334">
        <ele>585.6</ele>
        <time>2013-08-26T12:20:26Z</time>
      </trkpt>
      <trkpt lat="45.9162" lon="6.70338">
        <ele>586.5</ele>
        <time>2013-08-26T12:20:27Z</time>
      </trkpt>
      <trkpt lat="45.91618" lon="6.70342">
        <ele>586.1</ele>
        <time>2013-08-26T12:20:28Z</time>
      </trkpt>
      <trkpt lat="45.91615" lon="6.70346">
        <ele>587</ele>
        <time>2013-08-26T12:20:29Z</time>
      </trkpt>
      <trkpt lat="45.9158" lon="6.70405">
        <ele>586.1</ele>
        <time>2013-08-26T12:20:43Z</time>
      </trkpt>
      <trkpt lat="45.91527" lon="6.70503">
        <ele>586.5</ele>
        <time>2013-08-26T12:21:02Z</time>
      </trkpt>
      <trkpt lat="45.91484" lon="6.70585">
        <ele>587</ele>
        <time>2013-08-26T12:21:18Z</time>
      </trkpt>
      <trkpt lat="45.91437" lon="6.70672">
        <ele>588</ele>
        <time>2013-08-26T12:21:35Z</time>
      </trkpt>
      <trkpt lat="45.91383" lon="6.70759">
        <ele>588</ele>
        <time>2013-08-26T12:21:52Z</time>
      </trkpt>
      <trkpt lat="45.91346" lon="6.70831">
        <ele>588.5</ele>
        <time>2013-08-26T12:22:07Z</time>
      </trkpt>
      <trkpt lat="45.91345" lon="6.70855">
        <ele>589.4</ele>
        <time>2013-08-26T12:22:16Z</time>
      </trkpt>
      <trkpt lat="45.91346" lon="6.70856">
        <ele>589.4</ele>
        <time>2013-08-26T12:22:17Z</time>
      </trkpt>
      <trkpt lat="45.91347" lon="6.70853">
        <ele>589.4</ele>
        <time>2013-08-26T12:22:18Z</time>
      </trkpt>
      <trkpt lat="45.91347" lon="6.7085">
        <ele>589.9</ele>
        <time>2013-08-26T12:22:19Z</time>
      </trkpt>
      <trkpt lat="45.91347" lon="6.70846">
        <ele>589</ele>
        <time>2013-08-26T12:22:20Z</time>
      </trkpt>
      <trkpt lat="45.91348" lon="6.70842">
        <ele>589.4</ele>
        <time>2013-08-26T12:22:21Z</time>
      </trkpt>
      <trkpt lat="45.91349" lon="6.70836">
        <ele>589</ele>
        <time>2013-08-26T12:22:22Z</time>
      </trkpt>
      <trkpt lat="45.91351" lon="6.70831">
        <ele>589</ele>
        <time>2013-08-26T12:22:23Z</time>
      </trkpt>
      <trkpt lat="45.91353" lon="6.70826">
        <ele>589</ele>
        <time>2013-08-26T12:22:24Z</time>
      </trkpt>
      <trkpt lat="45.91397" lon="6.70744">
        <ele>588</ele>
        <time>2013-08-26T12:22:39Z</time>
      </trkpt>
      <trkpt lat="45.91409" lon="6.70721">
        <ele>588.5</ele>
        <time>2013-08-26T12:22:43Z</time>
      </trkpt>
      <trkpt lat="45.9141" lon="6.70714">
        <ele>587</ele>
        <time>2013-08-26T12:22:44Z</time>
      </trkpt>
      <trkpt lat="45.91409" lon="6.70707">
        <ele>588</ele>
        <time>2013-08-26T12:22:45Z</time>
      </trkpt>
      <trkpt lat="45.91407" lon="6.70701">
        <ele>588</ele>
        <time>2013-08-26T12:22:46Z</time>
      </trkpt>
      <trkpt lat="45.91404" lon="6.70695">
        <ele>587.5</ele>
        <time>2013-08-26T12:22:47Z</time>
      </trkpt>
      <trkpt lat="45.91401" lon="6.7069">
        <ele>587.5</ele>
        <time>2013-08-26T12:22:48Z</time>
      </trkpt>
      <trkpt lat="45.91397" lon="6.70686">
        <ele>588</ele>
        <time>2013-08-26T12:22:49Z</time>
      </trkpt>
      <trkpt lat="45.91332" lon="6.70611">
        <ele>586.5</ele>
        <time>2013-08-26T12:23:05Z</time>
      </trkpt>
      <trkpt lat="45.91262" lon="6.70533">
        <ele>585.6</ele>
        <time>2013-08-26T12:23:22Z</time>
      </trkpt>
      <trkpt lat="45.91258" lon="6.70528">
        <ele>585.6</ele>
        <time>2013-08-26T12:23:23Z</time>
      </trkpt>
      <trkpt lat="45.91254" lon="6.70523">
        <ele>586.1</ele>
        <time>2013-08-26T12:23:24Z</time>
      </trkpt>
      <trkpt lat="45.91252" lon="6.70517">
        <ele>585.1</ele>
        <time>2013-08-26T12:23:25Z</time>
      </trkpt>
      <trkpt lat="45.9125" lon="6.70511">
        <ele>585.6</ele>
        <time>2013-08-26T12:23:26Z</time>
      </trkpt>
      <trkpt lat="45.91248" lon="6.70505">
        <ele>585.1</ele>
        <time>2013-08-26T12:23:27Z</time>
      </trkpt>
      <trkpt lat="45.91248" lon="6.70499">
        <ele>585.1</ele>
        <time>2013-08-26T12:23:28Z</time>
      </trkpt>
      <trkpt lat="45.91249" lon="6.70493">
        <ele>584.6</ele>
        <time>2013-08-26T12:23:29Z</time>
      </trkpt>
      <trkpt lat="45.91249" lon="6.70487">
        <ele>584.6</ele>
        <time>2013-08-26T12:23:30Z</time>
      </trkpt>
      <trkpt lat="45.91249" lon="6.70481">
        <ele>584.1</ele>
        <time>2013-08-26T12:23:31Z</time>
      </trkpt>
      <trkpt lat="45.91251" lon="6.7047">
        <ele>583.2</ele>
        <time>2013-08-26T12:23:33Z</time>
      </trkpt>
      <trkpt lat="45.91259" lon="6.70407">
        <ele>583.2</ele>
        <time>2013-08-26T12:23:46Z</time>
      </trkpt>
      <trkpt lat="45.91254" lon="6.70447">
        <ele>580.8</ele>
        <time>2013-08-26T12:26:52Z</time>
      </trkpt>
      <trkpt lat="45.91257" lon="6.70341">
        <ele>580.8</ele>
        <time>2013-08-26T12:26:53Z</time>
      </trkpt>
      <trkpt lat="45.91256" lon="6.70339">
        <ele>579.3</ele>
        <time>2013-08-26T12:27:14Z</time>
      </trkpt>
      <trkpt lat="45.91256" lon="6.70337">
        <ele>579.3</ele>
        <time>2013-08-26T12:27:23Z</time>
      </trkpt>
      <trkpt lat="45.91268" lon="6.70295">
        <ele>578.9</ele>
        <time>2013-08-26T12:27:34Z</time>
      </trkpt>
      <trkpt lat="45.9127" lon="6.7029">
        <ele>578.4</ele>
        <time>2013-08-26T12:27:35Z</time>
      </trkpt>
      <trkpt lat="45.91271" lon="6.70284">
        <ele>578.4</ele>
        <time>2013-08-26T12:27:36Z</time>
      </trkpt>
      <trkpt lat="45.91272" lon="6.70279">
        <ele>577.9</ele>
        <time>2013-08-26T12:27:37Z</time>
      </trkpt>
      <trkpt lat="45.91274" lon="6.70199">
        <ele>577.9</ele>
        <time>2013-08-26T12:27:50Z</time>
      </trkpt>
      <trkpt lat="45.91275" lon="6.70179">
        <ele>577.9</ele>
        <time>2013-08-26T12:27:53Z</time>
      </trkpt>
      <trkpt lat="45.91277" lon="6.70155">
        <ele>576.9</ele>
        <time>2013-08-26T12:27:57Z</time>
      </trkpt>
      <trkpt lat="45.91277" lon="6.70148">
        <ele>576.9</ele>
        <time>2013-08-26T12:27:58Z</time>
      </trkpt>
      <trkpt lat="45.91278" lon="6.7014">
        <ele>577.4</ele>
        <time>2013-08-26T12:27:59Z</time>
      </trkpt>
      <trkpt lat="45.91278" lon="6.70133">
        <ele>576.9</ele>
        <time>2013-08-26T12:28:00Z</time>
      </trkpt>
      <trkpt lat="45.91279" lon="6.70125">
        <ele>576.9</ele>
        <time>2013-08-26T12:28:01Z</time>
      </trkpt>
      <trkpt lat="45.91283" lon="6.6998">
        <ele>575</ele>
        <time>2013-08-26T12:28:17Z</time>
      </trkpt>
      <trkpt lat="45.9129" lon="6.69773">
        <ele>572.6</ele>
        <time>2013-08-26T12:28:38Z</time>
      </trkpt>
      <trkpt lat="45.91293" lon="6.69722">
        <ele>571.2</ele>
        <time>2013-08-26T12:28:43Z</time>
      </trkpt>
      <trkpt lat="45.91325" lon="6.69601">
        <ele>569.7</ele>
        <time>2013-08-26T12:28:56Z</time>
      </trkpt>
      <trkpt lat="45.914" lon="6.69496">
        <ele>570.2</ele>
        <time>2013-08-26T12:29:12Z</time>
      </trkpt>
      <trkpt lat="45.9148" lon="6.69426">
        <ele>573.1</ele>
        <time>2013-08-26T12:29:29Z</time>
      </trkpt>
      <trkpt lat="45.91543" lon="6.69359">
        <ele>574.5</ele>
        <time>2013-08-26T12:29:45Z</time>
      </trkpt>
      <trkpt lat="45.91555" lon="6.69351">
        <ele>575.5</ele>
        <time>2013-08-26T12:29:48Z</time>
      </trkpt>
      <trkpt lat="45.91558" lon="6.69347">
        <ele>575.5</ele>
        <time>2013-08-26T12:29:49Z</time>
      </trkpt>
      <trkpt lat="45.91561" lon="6.69342">
        <ele>575.5</ele>
        <time>2013-08-26T12:29:50Z</time>
      </trkpt>
      <trkpt lat="45.91562" lon="6.69335">
        <ele>576</ele>
        <time>2013-08-26T12:29:51Z</time>
      </trkpt>
      <trkpt lat="45.91561" lon="6.69328">
        <ele>575.5</ele>
        <time>2013-08-26T12:29:52Z</time>
      </trkpt>
      <trkpt lat="45.91558" lon="6.69322">
        <ele>575.5</ele>
        <time>2013-08-26T12:29:53Z</time>
      </trkpt>
      <trkpt lat="45.91554" lon="6.69317">
        <ele>575</ele>
        <time>2013-08-26T12:29:54Z</time>
      </trkpt>
      <trkpt lat="45.91549" lon="6.69314">
        <ele>574.5</ele>
        <time>2013-08-26T12:29:55Z</time>
      </trkpt>
      <trkpt lat="45.91544" lon="6.69311">
        <ele>574</ele>
        <time>2013-08-26T12:29:56Z</time>
      </trkpt>
      <trkpt lat="45.91533" lon="6.69304">
        <ele>574.5</ele>
        <time>2013-08-26T12:29:58Z</time>
      </trkpt>
      <trkpt lat="45.91527" lon="6.69299">
        <ele>573.6</ele>
        <time>2013-08-26T12:29:59Z</time>
      </trkpt>
      <trkpt lat="45.91446" lon="6.69191">
        <ele>571.2</ele>
        <time>2013-08-26T12:30:15Z</time>
      </trkpt>
      <trkpt lat="45.91363" lon="6.69073">
        <ele>570.2</ele>
        <time>2013-08-26T12:30:31Z</time>
      </trkpt>
      <trkpt lat="45.9136" lon="6.69065">
        <ele>570.2</ele>
        <time>2013-08-26T12:30:32Z</time>
      </trkpt>
      <trkpt lat="45.91355" lon="6.6905">
        <ele>570.2</ele>
        <time>2013-08-26T12:30:34Z</time>
      </trkpt>
      <trkpt lat="45.91352" lon="6.69044">
        <ele>570.2</ele>
        <time>2013-08-26T12:30:35Z</time>
      </trkpt>
      <trkpt lat="45.91348" lon="6.69039">
        <ele>570.7</ele>
        <time>2013-08-26T12:30:36Z</time>
      </trkpt>
      <trkpt lat="45.91344" lon="6.69036">
        <ele>571.2</ele>
        <time>2013-08-26T12:30:37Z</time>
      </trkpt>
      <trkpt lat="45.91339" lon="6.69034">
        <ele>571.2</ele>
        <time>2013-08-26T12:30:38Z</time>
      </trkpt>
      <trkpt lat="45.9132" lon="6.69021">
        <ele>570.2</ele>
        <time>2013-08-26T12:30:42Z</time>
      </trkpt>
      <trkpt lat="45.91315" lon="6.69016">
        <ele>569.7</ele>
        <time>2013-08-26T12:30:43Z</time>
      </trkpt>
      <trkpt lat="45.91268" lon="6.68953">
        <ele>569.7</ele>
        <time>2013-08-26T12:30:54Z</time>
      </trkpt>
      <trkpt lat="45.91265" lon="6.68947">
        <ele>570.2</ele>
        <time>2013-08-26T12:30:55Z</time>
      </trkpt>
      <trkpt lat="45.91263" lon="6.68939">
        <ele>570.2</ele>
        <time>2013-08-26T12:30:56Z</time>
      </trkpt>
      <trkpt lat="45.91262" lon="6.68931">
        <ele>570.2</ele>
        <time>2013-08-26T12:30:57Z</time>
      </trkpt>
      <trkpt lat="45.91262" lon="6.68924">
        <ele>570.2</ele>
        <time>2013-08-26T12:30:58Z</time>
      </trkpt>
      <trkpt lat="45.91261" lon="6.68917">
        <ele>570.7</ele>
        <time>2013-08-26T12:30:59Z</time>
      </trkpt>
      <trkpt lat="45.91258" lon="6.6891">
        <ele>570.2</ele>
        <time>2013-08-26T12:31:00Z</time>
      </trkpt>
      <trkpt lat="45.91255" lon="6.68905">
        <ele>570.7</ele>
        <time>2013-08-26T12:31:01Z</time>
      </trkpt>
      <trkpt lat="45.91252" lon="6.68901">
        <ele>570.7</ele>
        <time>2013-08-26T12:31:02Z</time>
      </trkpt>
      <trkpt lat="45.91248" lon="6.68898">
        <ele>570.7</ele>
        <time>2013-08-26T12:31:03Z</time>
      </trkpt>
      <trkpt lat="45.91243" lon="6.68896">
        <ele>570.7</ele>
        <time>2013-08-26T12:31:04Z</time>
      </trkpt>
      <trkpt lat="45.91239" lon="6.68895">
        <ele>570.7</ele>
        <time>2013-08-26T12:31:05Z</time>
      </trkpt>
      <trkpt lat="45.91234" lon="6.68894">
        <ele>570.2</ele>
        <time>2013-08-26T12:31:06Z</time>
      </trkpt>
      <trkpt lat="45.91229" lon="6.68893">
        <ele>570.7</ele>
        <time>2013-08-26T12:31:07Z</time>
      </trkpt>
      <trkpt lat="45.91225" lon="6.6889">
        <ele>570.7</ele>
        <time>2013-08-26T12:31:08Z</time>
      </trkpt>
      <trkpt lat="45.91221" lon="6.68887">
        <ele>571.2</ele>
        <time>2013-08-26T12:31:09Z</time>
      </trkpt>
      <trkpt lat="45.91157" lon="6.68802">
        <ele>572.1</ele>
        <time>2013-08-26T12:31:26Z</time>
      </trkpt>
      <trkpt lat="45.91108" lon="6.68738">
        <ele>573.6</ele>
        <time>2013-08-26T12:31:41Z</time>
      </trkpt>
      <trkpt lat="45.91064" lon="6.68681">
        <ele>576</ele>
        <time>2013-08-26T12:31:56Z</time>
      </trkpt>
      <trkpt lat="45.91" lon="6.6861">
        <ele>579.8</ele>
        <time>2013-08-26T12:32:16Z</time>
      </trkpt>
      <trkpt lat="45.90938" lon="6.68554">
        <ele>576.5</ele>
        <time>2013-08-26T12:32:30Z</time>
      </trkpt>
      <trkpt lat="45.90875" lon="6.68511">
        <ele>573.1</ele>
        <time>2013-08-26T12:32:40Z</time>
      </trkpt>
      <trkpt lat="45.90861" lon="6.68503">
        <ele>572.6</ele>
        <time>2013-08-26T12:32:42Z</time>
      </trkpt>
      <trkpt lat="45.9076" lon="6.68457">
        <ele>569.7</ele>
        <time>2013-08-26T12:32:57Z</time>
      </trkpt>
      <trkpt lat="45.90619" lon="6.68421">
        <ele>568.3</ele>
        <time>2013-08-26T12:33:18Z</time>
      </trkpt>
      <trkpt lat="45.90551" lon="6.684">
        <ele>567.8</ele>
        <time>2013-08-26T12:33:30Z</time>
      </trkpt>
      <trkpt lat="45.90545" lon="6.68391">
        <ele>568.3</ele>
        <time>2013-08-26T12:33:32Z</time>
      </trkpt>
      <trkpt lat="45.9054" lon="6.68389">
        <ele>567.8</ele>
        <time>2013-08-26T12:33:33Z</time>
      </trkpt>
      <trkpt lat="45.90535" lon="6.6839">
        <ele>567.8</ele>
        <time>2013-08-26T12:33:34Z</time>
      </trkpt>
      <trkpt lat="45.9053" lon="6.68392">
        <ele>568.3</ele>
        <time>2013-08-26T12:33:35Z</time>
      </trkpt>
      <trkpt lat="45.90526" lon="6.68395">
        <ele>568.3</ele>
        <time>2013-08-26T12:33:36Z</time>
      </trkpt>
      <trkpt lat="45.90521" lon="6.68397">
        <ele>568.3</ele>
        <time>2013-08-26T12:33:37Z</time>
      </trkpt>
      <trkpt lat="45.90516" lon="6.68398">
        <ele>567.8</ele>
        <time>2013-08-26T12:33:38Z</time>
      </trkpt>
      <trkpt lat="45.90511" lon="6.68399">
        <ele>567.8</ele>
        <time>2013-08-26T12:33:39Z</time>
      </trkpt>
      <trkpt lat="45.90506" lon="6.68399">
        <ele>568.3</ele>
        <time>2013-08-26T12:33:40Z</time>
      </trkpt>
      <trkpt lat="45.905" lon="6.68399">
        <ele>568.3</ele>
        <time>2013-08-26T12:33:41Z</time>
      </trkpt>
      <trkpt lat="45.90411" lon="6.68396">
        <ele>568.8</ele>
        <time>2013-08-26T12:33:57Z</time>
      </trkpt>
      <trkpt lat="45.90387" lon="6.68393">
        <ele>568.8</ele>
        <time>2013-08-26T12:34:02Z</time>
      </trkpt>
      <trkpt lat="45.90382" lon="6.68394">
        <ele>569.2</ele>
        <time>2013-08-26T12:34:03Z</time>
      </trkpt>
      <trkpt lat="45.90377" lon="6.68396">
        <ele>569.2</ele>
        <time>2013-08-26T12:34:04Z</time>
      </trkpt>
      <trkpt lat="45.90373" lon="6.68399">
        <ele>569.2</ele>
        <time>2013-08-26T12:34:05Z</time>
      </trkpt>
      <trkpt lat="45.9037" lon="6.68404">
        <ele>569.2</ele>
        <time>2013-08-26T12:34:06Z</time>
      </trkpt>
      <trkpt lat="45.90369" lon="6.6841">
        <ele>569.7</ele>
        <time>2013-08-26T12:34:07Z</time>
      </trkpt>
      <trkpt lat="45.90369" lon="6.68416">
        <ele>568.8</ele>
        <time>2013-08-26T12:34:08Z</time>
      </trkpt>
      <trkpt lat="45.90369" lon="6.68423">
        <ele>569.2</ele>
        <time>2013-08-26T12:34:09Z</time>
      </trkpt>
      <trkpt lat="45.9037" lon="6.68429">
        <ele>569.2</ele>
        <time>2013-08-26T12:34:10Z</time>
      </trkpt>
      <trkpt lat="45.90372" lon="6.68436">
        <ele>569.2</ele>
        <time>2013-08-26T12:34:11Z</time>
      </trkpt>
      <trkpt lat="45.90374" lon="6.6845">
        <ele>569.2</ele>
        <time>2013-08-26T12:34:13Z</time>
      </trkpt>
      <trkpt lat="45.90375" lon="6.68457">
        <ele>569.2</ele>
        <time>2013-08-26T12:34:14Z</time>
      </trkpt>
      <trkpt lat="45.90376" lon="6.68503">
        <ele>568.8</ele>
        <time>2013-08-26T12:34:20Z</time>
      </trkpt>
      <trkpt lat="45.90376" lon="6.6851">
        <ele>568.8</ele>
        <time>2013-08-26T12:34:21Z</time>
      </trkpt>
      <trkpt lat="45.90378" lon="6.68568">
        <ele>568.8</ele>
        <time>2013-08-26T12:34:29Z</time>
      </trkpt>
      <trkpt lat="45.90378" lon="6.68574">
        <ele>568.8</ele>
        <time>2013-08-26T12:34:30Z</time>
      </trkpt>
      <trkpt lat="45.90381" lon="6.68699">
        <ele>569.7</ele>
        <time>2013-08-26T12:34:47Z</time>
      </trkpt>
      <trkpt lat="45.90385" lon="6.68866">
        <ele>570.7</ele>
        <time>2013-08-26T12:35:08Z</time>
      </trkpt>
      <trkpt lat="45.90389" lon="6.69032">
        <ele>572.1</ele>
        <time>2013-08-26T12:35:28Z</time>
      </trkpt>
      <trkpt lat="45.90393" lon="6.69201">
        <ele>574</ele>
        <time>2013-08-26T12:35:49Z</time>
      </trkpt>
      <trkpt lat="45.90397" lon="6.69376">
        <ele>575</ele>
        <time>2013-08-26T12:36:11Z</time>
      </trkpt>
      <trkpt lat="45.90401" lon="6.69528">
        <ele>576.9</ele>
        <time>2013-08-26T12:36:30Z</time>
      </trkpt>
      <trkpt lat="45.904" lon="6.69551">
        <ele>576.9</ele>
        <time>2013-08-26T12:36:33Z</time>
      </trkpt>
      <trkpt lat="45.90399" lon="6.69559">
        <ele>577.4</ele>
        <time>2013-08-26T12:36:34Z</time>
      </trkpt>
      <trkpt lat="45.90397" lon="6.69566">
        <ele>577.4</ele>
        <time>2013-08-26T12:36:35Z</time>
      </trkpt>
      <trkpt lat="45.90396" lon="6.69573">
        <ele>577.4</ele>
        <time>2013-08-26T12:36:36Z</time>
      </trkpt>
      <trkpt lat="45.90395" lon="6.6958">
        <ele>577.9</ele>
        <time>2013-08-26T12:36:37Z</time>
      </trkpt>
      <trkpt lat="45.90396" lon="6.69587">
        <ele>577.9</ele>
        <time>2013-08-26T12:36:38Z</time>
      </trkpt>
      <trkpt lat="45.90397" lon="6.69594">
        <ele>577.9</ele>
        <time>2013-08-26T12:36:39Z</time>
      </trkpt>
      <trkpt lat="45.90399" lon="6.69601">
        <ele>578.4</ele>
        <time>2013-08-26T12:36:40Z</time>
      </trkpt>
      <trkpt lat="45.90401" lon="6.69608">
        <ele>577.9</ele>
        <time>2013-08-26T12:36:41Z</time>
      </trkpt>
      <trkpt lat="45.90402" lon="6.69615">
        <ele>577.9</ele>
        <time>2013-08-26T12:36:42Z</time>
      </trkpt>
      <trkpt lat="45.90403" lon="6.69621">
        <ele>578.9</ele>
        <time>2013-08-26T12:36:43Z</time>
      </trkpt>
      <trkpt lat="45.90439" lon="6.69742">
        <ele>579.8</ele>
        <time>2013-08-26T12:37:01Z</time>
      </trkpt>
      <trkpt lat="45.90476" lon="6.69853">
        <ele>581.7</ele>
        <time>2013-08-26T12:37:18Z</time>
      </trkpt>
      <trkpt lat="45.9049" lon="6.69891">
        <ele>582.7</ele>
        <time>2013-08-26T12:37:24Z</time>
      </trkpt>
      <trkpt lat="45.90504" lon="6.69935">
        <ele>582.7</ele>
        <time>2013-08-26T12:37:31Z</time>
      </trkpt>
      <trkpt lat="45.90505" lon="6.69942">
        <ele>582.7</ele>
        <time>2013-08-26T12:37:32Z</time>
      </trkpt>
      <trkpt lat="45.90508" lon="6.69956">
        <ele>583.2</ele>
        <time>2013-08-26T12:37:34Z</time>
      </trkpt>
      <trkpt lat="45.90509" lon="6.69962">
        <ele>583.2</ele>
        <time>2013-08-26T12:37:35Z</time>
      </trkpt>
      <trkpt lat="45.90509" lon="6.69982">
        <ele>582.7</ele>
        <time>2013-08-26T12:37:38Z</time>
      </trkpt>
      <trkpt lat="45.90507" lon="6.69988">
        <ele>583.2</ele>
        <time>2013-08-26T12:37:39Z</time>
      </trkpt>
      <trkpt lat="45.90503" lon="6.69992">
        <ele>583.7</ele>
        <time>2013-08-26T12:37:40Z</time>
      </trkpt>
      <trkpt lat="45.905" lon="6.69994">
        <ele>583.7</ele>
        <time>2013-08-26T12:37:41Z</time>
      </trkpt>
      <trkpt lat="45.90496" lon="6.69994">
        <ele>583.7</ele>
        <time>2013-08-26T12:37:42Z</time>
      </trkpt>
      <trkpt lat="45.90493" lon="6.69994">
        <ele>584.1</ele>
        <time>2013-08-26T12:37:43Z</time>
      </trkpt>
      <trkpt lat="45.9049" lon="6.69994">
        <ele>584.6</ele>
        <time>2013-08-26T12:37:44Z</time>
      </trkpt>
      <trkpt lat="45.90484" lon="6.69991">
        <ele>585.1</ele>
        <time>2013-08-26T12:37:46Z</time>
      </trkpt>
      <trkpt lat="45.90472" lon="6.69966">
        <ele>587</ele>
        <time>2013-08-26T12:37:58Z</time>
      </trkpt>
      <trkpt lat="45.90454" lon="6.69934">
        <ele>589.4</ele>
        <time>2013-08-26T12:38:13Z</time>
      </trkpt>
      <trkpt lat="45.90429" lon="6.69899">
        <ele>592.3</ele>
        <time>2013-08-26T12:38:29Z</time>
      </trkpt>
      <trkpt lat="45.9041" lon="6.69866">
        <ele>595.2</ele>
        <time>2013-08-26T12:38:44Z</time>
      </trkpt>
      <trkpt lat="45.90387" lon="6.69851">
        <ele>597.6</ele>
        <time>2013-08-26T12:38:58Z</time>
      </trkpt>
      <trkpt lat="45.90385" lon="6.69852">
        <ele>597.6</ele>
        <time>2013-08-26T12:38:59Z</time>
      </trkpt>
      <trkpt lat="45.90384" lon="6.69854">
        <ele>597.6</ele>
        <time>2013-08-26T12:39:00Z</time>
      </trkpt>
      <trkpt lat="45.90383" lon="6.69855">
        <ele>597.6</ele>
        <time>2013-08-26T12:39:01Z</time>
      </trkpt>
      <trkpt lat="45.90382" lon="6.69857">
        <ele>597.6</ele>
        <time>2013-08-26T12:39:02Z</time>
      </trkpt>
      <trkpt lat="45.90382" lon="6.6986">
        <ele>598.1</ele>
        <time>2013-08-26T12:39:03Z</time>
      </trkpt>
      <trkpt lat="45.90382" lon="6.69862">
        <ele>598.1</ele>
        <time>2013-08-26T12:39:04Z</time>
      </trkpt>
      <trkpt lat="45.90382" lon="6.69865">
        <ele>597.6</ele>
        <time>2013-08-26T12:39:05Z</time>
      </trkpt>
      <trkpt lat="45.90393" lon="6.69898">
        <ele>599.5</ele>
        <time>2013-08-26T12:39:16Z</time>
      </trkpt>
      <trkpt lat="45.90412" lon="6.6994">
        <ele>601.9</ele>
        <time>2013-08-26T12:39:31Z</time>
      </trkpt>
      <trkpt lat="45.90408" lon="6.69952">
        <ele>602.4</ele>
        <time>2013-08-26T12:39:36Z</time>
      </trkpt>
      <trkpt lat="45.90406" lon="6.69953">
        <ele>602.4</ele>
        <time>2013-08-26T12:39:37Z</time>
      </trkpt>
      <trkpt lat="45.90403" lon="6.69954">
        <ele>602.9</ele>
        <time>2013-08-26T12:39:38Z</time>
      </trkpt>
      <trkpt lat="45.90401" lon="6.69955">
        <ele>602.9</ele>
        <time>2013-08-26T12:39:39Z</time>
      </trkpt>
      <trkpt lat="45.90398" lon="6.69956">
        <ele>603.4</ele>
        <time>2013-08-26T12:39:40Z</time>
      </trkpt>
      <trkpt lat="45.90395" lon="6.69955">
        <ele>603.9</ele>
        <time>2013-08-26T12:39:41Z</time>
      </trkpt>
      <trkpt lat="45.90393" lon="6.69955">
        <ele>603.9</ele>
        <time>2013-08-26T12:39:42Z</time>
      </trkpt>
      <trkpt lat="45.90391" lon="6.69954">
        <ele>604.3</ele>
        <time>2013-08-26T12:39:43Z</time>
      </trkpt>
      <trkpt lat="45.90388" lon="6.69953">
        <ele>603.9</ele>
        <time>2013-08-26T12:39:44Z</time>
      </trkpt>
      <trkpt lat="45.90386" lon="6.69951">
        <ele>604.3</ele>
        <time>2013-08-26T12:39:45Z</time>
      </trkpt>
      <trkpt lat="45.90384" lon="6.69949">
        <ele>604.8</ele>
        <time>2013-08-26T12:39:46Z</time>
      </trkpt>
      <trkpt lat="45.90367" lon="6.69918">
        <ele>606.7</ele>
        <time>2013-08-26T12:39:58Z</time>
      </trkpt>
      <trkpt lat="45.9036" lon="6.69901">
        <ele>608.7</ele>
        <time>2013-08-26T12:40:04Z</time>
      </trkpt>
      <trkpt lat="45.90334" lon="6.69847">
        <ele>611.1</ele>
        <time>2013-08-26T12:40:21Z</time>
      </trkpt>
      <trkpt lat="45.90313" lon="6.69777">
        <ele>613.9</ele>
        <time>2013-08-26T12:40:39Z</time>
      </trkpt>
      <trkpt lat="45.90277" lon="6.69777">
        <ele>615.9</ele>
        <time>2013-08-26T12:40:52Z</time>
      </trkpt>
      <trkpt lat="45.90264" lon="6.69808">
        <ele>618.8</ele>
        <time>2013-08-26T12:41:03Z</time>
      </trkpt>
      <trkpt lat="45.90265" lon="6.6983">
        <ele>619.7</ele>
        <time>2013-08-26T12:41:10Z</time>
      </trkpt>
      <trkpt lat="45.90266" lon="6.69833">
        <ele>620.2</ele>
        <time>2013-08-26T12:41:11Z</time>
      </trkpt>
      <trkpt lat="45.90268" lon="6.69835">
        <ele>620.2</ele>
        <time>2013-08-26T12:41:12Z</time>
      </trkpt>
      <trkpt lat="45.90269" lon="6.69837">
        <ele>620.2</ele>
        <time>2013-08-26T12:41:13Z</time>
      </trkpt>
      <trkpt lat="45.90271" lon="6.69838">
        <ele>620.2</ele>
        <time>2013-08-26T12:41:14Z</time>
      </trkpt>
      <trkpt lat="45.90273" lon="6.6984">
        <ele>620.7</ele>
        <time>2013-08-26T12:41:15Z</time>
      </trkpt>
      <trkpt lat="45.90303" lon="6.69861">
        <ele>623.6</ele>
        <time>2013-08-26T12:41:31Z</time>
      </trkpt>
      <trkpt lat="45.90308" lon="6.69866">
        <ele>624.5</ele>
        <time>2013-08-26T12:41:34Z</time>
      </trkpt>
      <trkpt lat="45.90309" lon="6.69868">
        <ele>624.5</ele>
        <time>2013-08-26T12:41:35Z</time>
      </trkpt>
      <trkpt lat="45.9031" lon="6.6987">
        <ele>624.5</ele>
        <time>2013-08-26T12:41:36Z</time>
      </trkpt>
      <trkpt lat="45.90312" lon="6.69872">
        <ele>625</ele>
        <time>2013-08-26T12:41:37Z</time>
      </trkpt>
      <trkpt lat="45.90314" lon="6.69874">
        <ele>625.5</ele>
        <time>2013-08-26T12:41:38Z</time>
      </trkpt>
      <trkpt lat="45.90321" lon="6.69889">
        <ele>626.9</ele>
        <time>2013-08-26T12:41:44Z</time>
      </trkpt>
      <trkpt lat="45.90322" lon="6.69892">
        <ele>626.9</ele>
        <time>2013-08-26T12:41:45Z</time>
      </trkpt>
      <trkpt lat="45.90323" lon="6.69895">
        <ele>626.9</ele>
        <time>2013-08-26T12:41:46Z</time>
      </trkpt>
      <trkpt lat="45.90326" lon="6.69943">
        <ele>630.8</ele>
        <time>2013-08-26T12:42:01Z</time>
      </trkpt>
      <trkpt lat="45.90322" lon="6.69988">
        <ele>632.7</ele>
        <time>2013-08-26T12:42:16Z</time>
      </trkpt>
      <trkpt lat="45.90325" lon="6.70045">
        <ele>636.1</ele>
        <time>2013-08-26T12:42:33Z</time>
      </trkpt>
      <trkpt lat="45.90324" lon="6.70099">
        <ele>638.5</ele>
        <time>2013-08-26T12:42:49Z</time>
      </trkpt>
      <trkpt lat="45.90322" lon="6.70101">
        <ele>638.5</ele>
        <time>2013-08-26T12:42:50Z</time>
      </trkpt>
      <trkpt lat="45.9032" lon="6.70102">
        <ele>639.4</ele>
        <time>2013-08-26T12:42:51Z</time>
      </trkpt>
      <trkpt lat="45.90318" lon="6.70103">
        <ele>639.4</ele>
        <time>2013-08-26T12:42:52Z</time>
      </trkpt>
      <trkpt lat="45.90316" lon="6.70103">
        <ele>639.4</ele>
        <time>2013-08-26T12:42:53Z</time>
      </trkpt>
      <trkpt lat="45.90314" lon="6.70103">
        <ele>639.4</ele>
        <time>2013-08-26T12:42:54Z</time>
      </trkpt>
      <trkpt lat="45.90312" lon="6.70101">
        <ele>639.9</ele>
        <time>2013-08-26T12:42:55Z</time>
      </trkpt>
      <trkpt lat="45.90311" lon="6.701">
        <ele>640.4</ele>
        <time>2013-08-26T12:42:56Z</time>
      </trkpt>
      <trkpt lat="45.90309" lon="6.70097">
        <ele>640.4</ele>
        <time>2013-08-26T12:42:57Z</time>
      </trkpt>
      <trkpt lat="45.90301" lon="6.70057">
        <ele>643.7</ele>
        <time>2013-08-26T12:43:11Z</time>
      </trkpt>
      <trkpt lat="45.90295" lon="6.70008">
        <ele>646.6</ele>
        <time>2013-08-26T12:43:27Z</time>
      </trkpt>
      <trkpt lat="45.90287" lon="6.6997">
        <ele>649</ele>
        <time>2013-08-26T12:43:40Z</time>
      </trkpt>
      <trkpt lat="45.90274" lon="6.69933">
        <ele>651</ele>
        <time>2013-08-26T12:43:53Z</time>
      </trkpt>
      <trkpt lat="45.90245" lon="6.69924">
        <ele>652.9</ele>
        <time>2013-08-26T12:44:08Z</time>
      </trkpt>
      <trkpt lat="45.90235" lon="6.69955">
        <ele>656.2</ele>
        <time>2013-08-26T12:44:19Z</time>
      </trkpt>
      <trkpt lat="45.9022" lon="6.69982">
        <ele>657.7</ele>
        <time>2013-08-26T12:44:31Z</time>
      </trkpt>
      <trkpt lat="45.90191" lon="6.70002">
        <ele>660.6</ele>
        <time>2013-08-26T12:44:46Z</time>
      </trkpt>
      <trkpt lat="45.90169" lon="6.70034">
        <ele>663</ele>
        <time>2013-08-26T12:45:00Z</time>
      </trkpt>
      <trkpt lat="45.90177" lon="6.70074">
        <ele>665.4</ele>
        <time>2013-08-26T12:45:13Z</time>
      </trkpt>
      <trkpt lat="45.90178" lon="6.70085">
        <ele>665.4</ele>
        <time>2013-08-26T12:45:16Z</time>
      </trkpt>
      <trkpt lat="45.90177" lon="6.70089">
        <ele>665.4</ele>
        <time>2013-08-26T12:45:17Z</time>
      </trkpt>
      <trkpt lat="45.90176" lon="6.70093">
        <ele>665.9</ele>
        <time>2013-08-26T12:45:18Z</time>
      </trkpt>
      <trkpt lat="45.90174" lon="6.70096">
        <ele>665.4</ele>
        <time>2013-08-26T12:45:19Z</time>
      </trkpt>
      <trkpt lat="45.90171" lon="6.70098">
        <ele>665.9</ele>
        <time>2013-08-26T12:45:20Z</time>
      </trkpt>
      <trkpt lat="45.90168" lon="6.70099">
        <ele>665.9</ele>
        <time>2013-08-26T12:45:21Z</time>
      </trkpt>
      <trkpt lat="45.90166" lon="6.70099">
        <ele>666.3</ele>
        <time>2013-08-26T12:45:22Z</time>
      </trkpt>
      <trkpt lat="45.90164" lon="6.70099">
        <ele>666.3</ele>
        <time>2013-08-26T12:45:23Z</time>
      </trkpt>
      <trkpt lat="45.90161" lon="6.70098">
        <ele>666.8</ele>
        <time>2013-08-26T12:45:24Z</time>
      </trkpt>
      <trkpt lat="45.90134" lon="6.70068">
        <ele>670.2</ele>
        <time>2013-08-26T12:45:40Z</time>
      </trkpt>
      <trkpt lat="45.90114" lon="6.70034">
        <ele>673.1</ele>
        <time>2013-08-26T12:45:55Z</time>
      </trkpt>
      <trkpt lat="45.90099" lon="6.69995">
        <ele>675.5</ele>
        <time>2013-08-26T12:46:10Z</time>
      </trkpt>
      <trkpt lat="45.90113" lon="6.69937">
        <ele>677.4</ele>
        <time>2013-08-26T12:46:25Z</time>
      </trkpt>
      <trkpt lat="45.90103" lon="6.69908">
        <ele>679.8</ele>
        <time>2013-08-26T12:46:36Z</time>
      </trkpt>
      <trkpt lat="45.90094" lon="6.69913">
        <ele>680.8</ele>
        <time>2013-08-26T12:46:41Z</time>
      </trkpt>
      <trkpt lat="45.90081" lon="6.69952">
        <ele>683.2</ele>
        <time>2013-08-26T12:46:56Z</time>
      </trkpt>
      <trkpt lat="45.90074" lon="6.69967">
        <ele>684.6</ele>
        <time>2013-08-26T12:47:02Z</time>
      </trkpt>
      <trkpt lat="45.90073" lon="6.69968">
        <ele>684.6</ele>
        <time>2013-08-26T12:47:03Z</time>
      </trkpt>
      <trkpt lat="45.90072" lon="6.6997">
        <ele>685.1</ele>
        <time>2013-08-26T12:47:04Z</time>
      </trkpt>
      <trkpt lat="45.9007" lon="6.69971">
        <ele>685.6</ele>
        <time>2013-08-26T12:47:05Z</time>
      </trkpt>
      <trkpt lat="45.90069" lon="6.69973">
        <ele>686.5</ele>
        <time>2013-08-26T12:47:06Z</time>
      </trkpt>
      <trkpt lat="45.90042" lon="6.70004">
        <ele>688.9</ele>
        <time>2013-08-26T12:47:24Z</time>
      </trkpt>
      <trkpt lat="45.9002" lon="6.70031">
        <ele>691.3</ele>
        <time>2013-08-26T12:47:39Z</time>
      </trkpt>
      <trkpt lat="45.90019" lon="6.70033">
        <ele>691.8</ele>
        <time>2013-08-26T12:47:40Z</time>
      </trkpt>
      <trkpt lat="45.90018" lon="6.70035">
        <ele>692.3</ele>
        <time>2013-08-26T12:47:41Z</time>
      </trkpt>
      <trkpt lat="45.90017" lon="6.70038">
        <ele>692.3</ele>
        <time>2013-08-26T12:47:42Z</time>
      </trkpt>
      <trkpt lat="45.90013" lon="6.7005">
        <ele>693.3</ele>
        <time>2013-08-26T12:47:47Z</time>
      </trkpt>
      <trkpt lat="45.90012" lon="6.70051">
        <ele>693.7</ele>
        <time>2013-08-26T12:47:48Z</time>
      </trkpt>
      <trkpt lat="45.90011" lon="6.70053">
        <ele>693.7</ele>
        <time>2013-08-26T12:47:49Z</time>
      </trkpt>
      <trkpt lat="45.9001" lon="6.70056">
        <ele>693.7</ele>
        <time>2013-08-26T12:47:51Z</time>
      </trkpt>
      <trkpt lat="45.90009" lon="6.70057">
        <ele>694.2</ele>
        <time>2013-08-26T12:47:52Z</time>
      </trkpt>
      <trkpt lat="45.90008" lon="6.70061">
        <ele>694.7</ele>
        <time>2013-08-26T12:47:54Z</time>
      </trkpt>
      <trkpt lat="45.90008" lon="6.70063">
        <ele>694.2</ele>
        <time>2013-08-26T12:47:55Z</time>
      </trkpt>
      <trkpt lat="45.90007" lon="6.70065">
        <ele>694.7</ele>
        <time>2013-08-26T12:47:56Z</time>
      </trkpt>
      <trkpt lat="45.90007" lon="6.70067">
        <ele>694.7</ele>
        <time>2013-08-26T12:47:57Z</time>
      </trkpt>
      <trkpt lat="45.90005" lon="6.70069">
        <ele>695.2</ele>
        <time>2013-08-26T12:47:58Z</time>
      </trkpt>
      <trkpt lat="45.90004" lon="6.70071">
        <ele>695.2</ele>
        <time>2013-08-26T12:47:59Z</time>
      </trkpt>
      <trkpt lat="45.90003" lon="6.70072">
        <ele>695.2</ele>
        <time>2013-08-26T12:48:00Z</time>
      </trkpt>
      <trkpt lat="45.90002" lon="6.70074">
        <ele>695.7</ele>
        <time>2013-08-26T12:48:01Z</time>
      </trkpt>
      <trkpt lat="45.90001" lon="6.70075">
        <ele>695.7</ele>
        <time>2013-08-26T12:48:02Z</time>
      </trkpt>
      <trkpt lat="45.9" lon="6.70076">
        <ele>696.1</ele>
        <time>2013-08-26T12:48:03Z</time>
      </trkpt>
      <trkpt lat="45.89999" lon="6.70078">
        <ele>696.1</ele>
        <time>2013-08-26T12:48:04Z</time>
      </trkpt>
      <trkpt lat="45.89998" lon="6.7008">
        <ele>696.1</ele>
        <time>2013-08-26T12:48:05Z</time>
      </trkpt>
      <trkpt lat="45.89998" lon="6.70082">
        <ele>696.1</ele>
        <time>2013-08-26T12:48:06Z</time>
      </trkpt>
      <trkpt lat="45.89996" lon="6.7009">
        <ele>696.6</ele>
        <time>2013-08-26T12:48:09Z</time>
      </trkpt>
      <trkpt lat="45.89995" lon="6.70092">
        <ele>697.1</ele>
        <time>2013-08-26T12:48:10Z</time>
      </trkpt>
      <trkpt lat="45.89994" lon="6.70095">
        <ele>697.1</ele>
        <time>2013-08-26T12:48:11Z</time>
      </trkpt>
      <trkpt lat="45.89993" lon="6.70097">
        <ele>697.1</ele>
        <time>2013-08-26T12:48:12Z</time>
      </trkpt>
      <trkpt lat="45.89992" lon="6.701">
        <ele>697.6</ele>
        <time>2013-08-26T12:48:13Z</time>
      </trkpt>
      <trkpt lat="45.89978" lon="6.70127">
        <ele>699.5</ele>
        <time>2013-08-26T12:48:26Z</time>
      </trkpt>
      <trkpt lat="45.89967" lon="6.70158">
        <ele>702.4</ele>
        <time>2013-08-26T12:48:39Z</time>
      </trkpt>
      <trkpt lat="45.89965" lon="6.70186">
        <ele>704.3</ele>
        <time>2013-08-26T12:48:50Z</time>
      </trkpt>
      <trkpt lat="45.89966" lon="6.70189">
        <ele>704.3</ele>
        <time>2013-08-26T12:48:51Z</time>
      </trkpt>
      <trkpt lat="45.89966" lon="6.70193">
        <ele>704.8</ele>
        <time>2013-08-26T12:48:52Z</time>
      </trkpt>
      <trkpt lat="45.89966" lon="6.70196">
        <ele>704.8</ele>
        <time>2013-08-26T12:48:53Z</time>
      </trkpt>
      <trkpt lat="45.89967" lon="6.70199">
        <ele>705.3</ele>
        <time>2013-08-26T12:48:54Z</time>
      </trkpt>
      <trkpt lat="45.89967" lon="6.70202">
        <ele>705.3</ele>
        <time>2013-08-26T12:48:55Z</time>
      </trkpt>
      <trkpt lat="45.89966" lon="6.70244">
        <ele>708.6</ele>
        <time>2013-08-26T12:49:11Z</time>
      </trkpt>
      <trkpt lat="45.89964" lon="6.70279">
        <ele>710.6</ele>
        <time>2013-08-26T12:49:25Z</time>
      </trkpt>
      <trkpt lat="45.89956" lon="6.70301">
        <ele>713</ele>
        <time>2013-08-26T12:49:35Z</time>
      </trkpt>
      <trkpt lat="45.89955" lon="6.70303">
        <ele>713</ele>
        <time>2013-08-26T12:49:36Z</time>
      </trkpt>
      <trkpt lat="45.89947" lon="6.70341">
        <ele>715.4</ele>
        <time>2013-08-26T12:49:51Z</time>
      </trkpt>
      <trkpt lat="45.8993" lon="6.70327">
        <ele>718.2</ele>
        <time>2013-08-26T12:50:03Z</time>
      </trkpt>
      <trkpt lat="45.89909" lon="6.70301">
        <ele>721.1</ele>
        <time>2013-08-26T12:50:18Z</time>
      </trkpt>
      <trkpt lat="45.89893" lon="6.70264">
        <ele>724.5</ele>
        <time>2013-08-26T12:50:34Z</time>
      </trkpt>
      <trkpt lat="45.89885" lon="6.70217">
        <ele>727.9</ele>
        <time>2013-08-26T12:50:51Z</time>
      </trkpt>
      <trkpt lat="45.89872" lon="6.70179">
        <ele>730.7</ele>
        <time>2013-08-26T12:51:07Z</time>
      </trkpt>
      <trkpt lat="45.89861" lon="6.70143">
        <ele>733.6</ele>
        <time>2013-08-26T12:51:20Z</time>
      </trkpt>
      <trkpt lat="45.89868" lon="6.70101">
        <ele>734.6</ele>
        <time>2013-08-26T12:51:32Z</time>
      </trkpt>
      <trkpt lat="45.89879" lon="6.70053">
        <ele>737</ele>
        <time>2013-08-26T12:51:47Z</time>
      </trkpt>
      <trkpt lat="45.89872" lon="6.70003">
        <ele>738.4</ele>
        <time>2013-08-26T12:52:00Z</time>
      </trkpt>
      <trkpt lat="45.89849" lon="6.69962">
        <ele>740.8</ele>
        <time>2013-08-26T12:52:16Z</time>
      </trkpt>
      <trkpt lat="45.89843" lon="6.69927">
        <ele>742.8</ele>
        <time>2013-08-26T12:52:27Z</time>
      </trkpt>
      <trkpt lat="45.89838" lon="6.69892">
        <ele>745.2</ele>
        <time>2013-08-26T12:52:38Z</time>
      </trkpt>
      <trkpt lat="45.89834" lon="6.69854">
        <ele>747.1</ele>
        <time>2013-08-26T12:52:50Z</time>
      </trkpt>
      <trkpt lat="45.89832" lon="6.69813">
        <ele>750</ele>
        <time>2013-08-26T12:53:04Z</time>
      </trkpt>
      <trkpt lat="45.89828" lon="6.69789">
        <ele>751.9</ele>
        <time>2013-08-26T12:53:14Z</time>
      </trkpt>
      <trkpt lat="45.89827" lon="6.69786">
        <ele>751.9</ele>
        <time>2013-08-26T12:53:15Z</time>
      </trkpt>
      <trkpt lat="45.89826" lon="6.69784">
        <ele>752.4</ele>
        <time>2013-08-26T12:53:16Z</time>
      </trkpt>
      <trkpt lat="45.89826" lon="6.69781">
        <ele>752.4</ele>
        <time>2013-08-26T12:53:17Z</time>
      </trkpt>
      <trkpt lat="45.89825" lon="6.69779">
        <ele>752.4</ele>
        <time>2013-08-26T12:53:18Z</time>
      </trkpt>
      <trkpt lat="45.89814" lon="6.69731">
        <ele>754.8</ele>
        <time>2013-08-26T12:53:32Z</time>
      </trkpt>
      <trkpt lat="45.89803" lon="6.69681">
        <ele>758.1</ele>
        <time>2013-08-26T12:53:47Z</time>
      </trkpt>
      <trkpt lat="45.89789" lon="6.6964">
        <ele>760.5</ele>
        <time>2013-08-26T12:54:01Z</time>
      </trkpt>
      <trkpt lat="45.89769" lon="6.69582">
        <ele>763.4</ele>
        <time>2013-08-26T12:54:21Z</time>
      </trkpt>
      <trkpt lat="45.89758" lon="6.69533">
        <ele>766.8</ele>
        <time>2013-08-26T12:54:37Z</time>
      </trkpt>
      <trkpt lat="45.89751" lon="6.69482">
        <ele>769.2</ele>
        <time>2013-08-26T12:54:53Z</time>
      </trkpt>
      <trkpt lat="45.89746" lon="6.6944">
        <ele>771.6</ele>
        <time>2013-08-26T12:55:05Z</time>
      </trkpt>
      <trkpt lat="45.89745" lon="6.694">
        <ele>773.5</ele>
        <time>2013-08-26T12:55:17Z</time>
      </trkpt>
      <trkpt lat="45.89746" lon="6.69361">
        <ele>776.4</ele>
        <time>2013-08-26T12:55:29Z</time>
      </trkpt>
      <trkpt lat="45.89746" lon="6.69322">
        <ele>778.3</ele>
        <time>2013-08-26T12:55:41Z</time>
      </trkpt>
      <trkpt lat="45.89738" lon="6.69283">
        <ele>781.2</ele>
        <time>2013-08-26T12:55:54Z</time>
      </trkpt>
      <trkpt lat="45.89724" lon="6.69232">
        <ele>784.1</ele>
        <time>2013-08-26T12:56:12Z</time>
      </trkpt>
      <trkpt lat="45.89695" lon="6.69197">
        <ele>787</ele>
        <time>2013-08-26T12:56:29Z</time>
      </trkpt>
      <trkpt lat="45.89669" lon="6.69167">
        <ele>789.4</ele>
        <time>2013-08-26T12:56:44Z</time>
      </trkpt>
      <trkpt lat="45.89642" lon="6.6913">
        <ele>792.7</ele>
        <time>2013-08-26T12:57:01Z</time>
      </trkpt>
      <trkpt lat="45.89612" lon="6.69092">
        <ele>797.1</ele>
        <time>2013-08-26T12:57:19Z</time>
      </trkpt>
      <trkpt lat="45.89587" lon="6.69061">
        <ele>798.5</ele>
        <time>2013-08-26T12:57:34Z</time>
      </trkpt>
      <trkpt lat="45.89565" lon="6.69023">
        <ele>801.4</ele>
        <time>2013-08-26T12:57:50Z</time>
      </trkpt>
      <trkpt lat="45.89542" lon="6.68998">
        <ele>803.3</ele>
        <time>2013-08-26T12:58:03Z</time>
      </trkpt>
      <trkpt lat="45.8954" lon="6.69">
        <ele>803.8</ele>
        <time>2013-08-26T12:58:04Z</time>
      </trkpt>
      <trkpt lat="45.89538" lon="6.69001">
        <ele>803.8</ele>
        <time>2013-08-26T12:58:05Z</time>
      </trkpt>
      <trkpt lat="45.89537" lon="6.69002">
        <ele>804.3</ele>
        <time>2013-08-26T12:58:06Z</time>
      </trkpt>
      <trkpt lat="45.89535" lon="6.69003">
        <ele>804.8</ele>
        <time>2013-08-26T12:58:07Z</time>
      </trkpt>
      <trkpt lat="45.89533" lon="6.69004">
        <ele>804.3</ele>
        <time>2013-08-26T12:58:08Z</time>
      </trkpt>
      <trkpt lat="45.89532" lon="6.69006">
        <ele>804.8</ele>
        <time>2013-08-26T12:58:09Z</time>
      </trkpt>
      <trkpt lat="45.89531" lon="6.69008">
        <ele>804.8</ele>
        <time>2013-08-26T12:58:10Z</time>
      </trkpt>
      <trkpt lat="45.89529" lon="6.69009">
        <ele>804.8</ele>
        <time>2013-08-26T12:58:11Z</time>
      </trkpt>
      <trkpt lat="45.89529" lon="6.69011">
        <ele>804.8</ele>
        <time>2013-08-26T12:58:12Z</time>
      </trkpt>
      <trkpt lat="45.89529" lon="6.69013">
        <ele>805.2</ele>
        <time>2013-08-26T12:58:13Z</time>
      </trkpt>
      <trkpt lat="45.89531" lon="6.69015">
        <ele>805.2</ele>
        <time>2013-08-26T12:58:14Z</time>
      </trkpt>
      <trkpt lat="45.89532" lon="6.69018">
        <ele>805.2</ele>
        <time>2013-08-26T12:58:15Z</time>
      </trkpt>
      <trkpt lat="45.89537" lon="6.69029">
        <ele>806.2</ele>
        <time>2013-08-26T12:58:19Z</time>
      </trkpt>
      <trkpt lat="45.89551" lon="6.6906">
        <ele>807.2</ele>
        <time>2013-08-26T12:58:28Z</time>
      </trkpt>
      <trkpt lat="45.89552" lon="6.69064">
        <ele>807.6</ele>
        <time>2013-08-26T12:58:29Z</time>
      </trkpt>
      <trkpt lat="45.89553" lon="6.69067">
        <ele>807.6</ele>
        <time>2013-08-26T12:58:30Z</time>
      </trkpt>
      <trkpt lat="45.89554" lon="6.69111">
        <ele>810.1</ele>
        <time>2013-08-26T12:58:43Z</time>
      </trkpt>
      <trkpt lat="45.8955" lon="6.69153">
        <ele>812</ele>
        <time>2013-08-26T12:58:56Z</time>
      </trkpt>
      <trkpt lat="45.89549" lon="6.69205">
        <ele>815.3</ele>
        <time>2013-08-26T12:59:11Z</time>
      </trkpt>
      <trkpt lat="45.89551" lon="6.69225">
        <ele>816.3</ele>
        <time>2013-08-26T12:59:17Z</time>
      </trkpt>
      <trkpt lat="45.89556" lon="6.69247">
        <ele>818.2</ele>
        <time>2013-08-26T12:59:26Z</time>
      </trkpt>
      <trkpt lat="45.89555" lon="6.69251">
        <ele>818.7</ele>
        <time>2013-08-26T12:59:27Z</time>
      </trkpt>
      <trkpt lat="45.89555" lon="6.69254">
        <ele>818.7</ele>
        <time>2013-08-26T12:59:28Z</time>
      </trkpt>
      <trkpt lat="45.89556" lon="6.69258">
        <ele>819.2</ele>
        <time>2013-08-26T12:59:29Z</time>
      </trkpt>
      <trkpt lat="45.89556" lon="6.69262">
        <ele>818.7</ele>
        <time>2013-08-26T12:59:30Z</time>
      </trkpt>
      <trkpt lat="45.89556" lon="6.69267">
        <ele>819.2</ele>
        <time>2013-08-26T12:59:31Z</time>
      </trkpt>
      <trkpt lat="45.89556" lon="6.69272">
        <ele>819.7</ele>
        <time>2013-08-26T12:59:32Z</time>
      </trkpt>
      <trkpt lat="45.89549" lon="6.69325">
        <ele>822.1</ele>
        <time>2013-08-26T12:59:47Z</time>
      </trkpt>
      <trkpt lat="45.89547" lon="6.69335">
        <ele>822.6</ele>
        <time>2013-08-26T12:59:50Z</time>
      </trkpt>
      <trkpt lat="45.89547" lon="6.69338">
        <ele>822.6</ele>
        <time>2013-08-26T12:59:51Z</time>
      </trkpt>
      <trkpt lat="45.89547" lon="6.69346">
        <ele>823.5</ele>
        <time>2013-08-26T12:59:54Z</time>
      </trkpt>
      <trkpt lat="45.89542" lon="6.69377">
        <ele>825.4</ele>
        <time>2013-08-26T13:00:05Z</time>
      </trkpt>
      <trkpt lat="45.89542" lon="6.6938">
        <ele>825.4</ele>
        <time>2013-08-26T13:00:06Z</time>
      </trkpt>
      <trkpt lat="45.89542" lon="6.69382">
        <ele>825.4</ele>
        <time>2013-08-26T13:00:07Z</time>
      </trkpt>
      <trkpt lat="45.89542" lon="6.69385">
        <ele>825.4</ele>
        <time>2013-08-26T13:00:08Z</time>
      </trkpt>
      <trkpt lat="45.89543" lon="6.69389">
        <ele>825.9</ele>
        <time>2013-08-26T13:00:09Z</time>
      </trkpt>
      <trkpt lat="45.89543" lon="6.69393">
        <ele>825.4</ele>
        <time>2013-08-26T13:00:10Z</time>
      </trkpt>
      <trkpt lat="45.89543" lon="6.69397">
        <ele>825.9</ele>
        <time>2013-08-26T13:00:11Z</time>
      </trkpt>
      <trkpt lat="45.89542" lon="6.69409">
        <ele>827.4</ele>
        <time>2013-08-26T13:00:15Z</time>
      </trkpt>
      <trkpt lat="45.89543" lon="6.69413">
        <ele>826.9</ele>
        <time>2013-08-26T13:00:16Z</time>
      </trkpt>
      <trkpt lat="45.89543" lon="6.69416">
        <ele>827.4</ele>
        <time>2013-08-26T13:00:17Z</time>
      </trkpt>
      <trkpt lat="45.89543" lon="6.69419">
        <ele>827.8</ele>
        <time>2013-08-26T13:00:18Z</time>
      </trkpt>
      <trkpt lat="45.89543" lon="6.69423">
        <ele>827.8</ele>
        <time>2013-08-26T13:00:19Z</time>
      </trkpt>
      <trkpt lat="45.89543" lon="6.69426">
        <ele>827.8</ele>
        <time>2013-08-26T13:00:20Z</time>
      </trkpt>
      <trkpt lat="45.89538" lon="6.69469">
        <ele>829.8</ele>
        <time>2013-08-26T13:00:33Z</time>
      </trkpt>
      <trkpt lat="45.89536" lon="6.69525">
        <ele>832.6</ele>
        <time>2013-08-26T13:00:47Z</time>
      </trkpt>
      <trkpt lat="45.89529" lon="6.69565">
        <ele>835</ele>
        <time>2013-08-26T13:01:01Z</time>
      </trkpt>
      <trkpt lat="45.89525" lon="6.69613">
        <ele>837.5</ele>
        <time>2013-08-26T13:01:17Z</time>
      </trkpt>
      <trkpt lat="45.8952" lon="6.69655">
        <ele>840.3</ele>
        <time>2013-08-26T13:01:31Z</time>
      </trkpt>
      <trkpt lat="45.89513" lon="6.69706">
        <ele>842.7</ele>
        <time>2013-08-26T13:01:45Z</time>
      </trkpt>
      <trkpt lat="45.89507" lon="6.69742">
        <ele>845.1</ele>
        <time>2013-08-26T13:01:57Z</time>
      </trkpt>
      <trkpt lat="45.89494" lon="6.69782">
        <ele>848</ele>
        <time>2013-08-26T13:02:12Z</time>
      </trkpt>
      <trkpt lat="45.8949" lon="6.69798">
        <ele>849</ele>
        <time>2013-08-26T13:02:18Z</time>
      </trkpt>
      <trkpt lat="45.8949" lon="6.698">
        <ele>849</ele>
        <time>2013-08-26T13:02:19Z</time>
      </trkpt>
      <trkpt lat="45.89487" lon="6.69813">
        <ele>850.4</ele>
        <time>2013-08-26T13:02:26Z</time>
      </trkpt>
      <trkpt lat="45.89482" lon="6.69839">
        <ele>852.4</ele>
        <time>2013-08-26T13:02:35Z</time>
      </trkpt>
      <trkpt lat="45.89468" lon="6.69878">
        <ele>854.8</ele>
        <time>2013-08-26T13:02:49Z</time>
      </trkpt>
      <trkpt lat="45.89463" lon="6.69882">
        <ele>856.7</ele>
        <time>2013-08-26T13:02:54Z</time>
      </trkpt>
      <trkpt lat="45.89464" lon="6.69872">
        <ele>856.7</ele>
        <time>2013-08-26T13:03:01Z</time>
      </trkpt>
      <trkpt lat="45.89465" lon="6.69868">
        <ele>858.1</ele>
        <time>2013-08-26T13:03:02Z</time>
      </trkpt>
      <trkpt lat="45.89466" lon="6.69864">
        <ele>857.6</ele>
        <time>2013-08-26T13:03:03Z</time>
      </trkpt>
      <trkpt lat="45.89466" lon="6.6986">
        <ele>857.6</ele>
        <time>2013-08-26T13:03:04Z</time>
      </trkpt>
      <trkpt lat="45.89466" lon="6.69857">
        <ele>857.6</ele>
        <time>2013-08-26T13:03:05Z</time>
      </trkpt>
      <trkpt lat="45.89468" lon="6.69802">
        <ele>861</ele>
        <time>2013-08-26T13:03:20Z</time>
      </trkpt>
      <trkpt lat="45.89461" lon="6.69754">
        <ele>862.4</ele>
        <time>2013-08-26T13:03:34Z</time>
      </trkpt>
      <trkpt lat="45.89446" lon="6.69687">
        <ele>865.3</ele>
        <time>2013-08-26T13:03:51Z</time>
      </trkpt>
      <trkpt lat="45.89434" lon="6.69648">
        <ele>867.3</ele>
        <time>2013-08-26T13:04:02Z</time>
      </trkpt>
      <trkpt lat="45.89432" lon="6.69649">
        <ele>866.8</ele>
        <time>2013-08-26T13:04:03Z</time>
      </trkpt>
      <trkpt lat="45.89429" lon="6.69649">
        <ele>866.8</ele>
        <time>2013-08-26T13:04:04Z</time>
      </trkpt>
      <trkpt lat="45.89426" lon="6.69651">
        <ele>867.3</ele>
        <time>2013-08-26T13:04:05Z</time>
      </trkpt>
      <trkpt lat="45.89424" lon="6.69653">
        <ele>867.3</ele>
        <time>2013-08-26T13:04:06Z</time>
      </trkpt>
      <trkpt lat="45.89422" lon="6.69656">
        <ele>867.3</ele>
        <time>2013-08-26T13:04:07Z</time>
      </trkpt>
      <trkpt lat="45.8942" lon="6.69658">
        <ele>868.2</ele>
        <time>2013-08-26T13:04:08Z</time>
      </trkpt>
      <trkpt lat="45.89419" lon="6.69661">
        <ele>868.2</ele>
        <time>2013-08-26T13:04:09Z</time>
      </trkpt>
      <trkpt lat="45.89417" lon="6.69664">
        <ele>868.7</ele>
        <time>2013-08-26T13:04:10Z</time>
      </trkpt>
      <trkpt lat="45.89416" lon="6.69667">
        <ele>868.7</ele>
        <time>2013-08-26T13:04:11Z</time>
      </trkpt>
      <trkpt lat="45.89415" lon="6.6967">
        <ele>869.2</ele>
        <time>2013-08-26T13:04:12Z</time>
      </trkpt>
      <trkpt lat="45.89414" lon="6.69673">
        <ele>869.7</ele>
        <time>2013-08-26T13:04:13Z</time>
      </trkpt>
      <trkpt lat="45.89412" lon="6.69683">
        <ele>869.7</ele>
        <time>2013-08-26T13:04:22Z</time>
      </trkpt>
      <trkpt lat="45.89412" lon="6.69686">
        <ele>870.1</ele>
        <time>2013-08-26T13:04:23Z</time>
      </trkpt>
      <trkpt lat="45.89412" lon="6.69688">
        <ele>870.1</ele>
        <time>2013-08-26T13:04:24Z</time>
      </trkpt>
      <trkpt lat="45.89413" lon="6.69691">
        <ele>870.6</ele>
        <time>2013-08-26T13:04:25Z</time>
      </trkpt>
      <trkpt lat="45.89413" lon="6.69694">
        <ele>870.6</ele>
        <time>2013-08-26T13:04:26Z</time>
      </trkpt>
      <trkpt lat="45.89414" lon="6.69737">
        <ele>873.5</ele>
        <time>2013-08-26T13:04:39Z</time>
      </trkpt>
      <trkpt lat="45.89416" lon="6.69757">
        <ele>874.9</ele>
        <time>2013-08-26T13:04:45Z</time>
      </trkpt>
      <trkpt lat="45.89419" lon="6.69795">
        <ele>877.3</ele>
        <time>2013-08-26T13:04:57Z</time>
      </trkpt>
      <trkpt lat="45.89418" lon="6.69829">
        <ele>880.2</ele>
        <time>2013-08-26T13:05:09Z</time>
      </trkpt>
      <trkpt lat="45.894" lon="6.69866">
        <ele>883.1</ele>
        <time>2013-08-26T13:05:23Z</time>
      </trkpt>
      <trkpt lat="45.89379" lon="6.69915">
        <ele>885.5</ele>
        <time>2013-08-26T13:05:39Z</time>
      </trkpt>
      <trkpt lat="45.89361" lon="6.69944">
        <ele>887</ele>
        <time>2013-08-26T13:05:53Z</time>
      </trkpt>
      <trkpt lat="45.89357" lon="6.69943">
        <ele>887</ele>
        <time>2013-08-26T13:05:55Z</time>
      </trkpt>
      <trkpt lat="45.89356" lon="6.69942">
        <ele>887.4</ele>
        <time>2013-08-26T13:05:56Z</time>
      </trkpt>
      <trkpt lat="45.89355" lon="6.69938">
        <ele>887.9</ele>
        <time>2013-08-26T13:05:59Z</time>
      </trkpt>
      <trkpt lat="45.89355" lon="6.69937">
        <ele>887.4</ele>
        <time>2013-08-26T13:06:00Z</time>
      </trkpt>
      <trkpt lat="45.89352" lon="6.69932">
        <ele>888.4</ele>
        <time>2013-08-26T13:06:03Z</time>
      </trkpt>
      <trkpt lat="45.89352" lon="6.6993">
        <ele>888.4</ele>
        <time>2013-08-26T13:06:04Z</time>
      </trkpt>
      <trkpt lat="45.89353" lon="6.69928">
        <ele>889.4</ele>
        <time>2013-08-26T13:06:05Z</time>
      </trkpt>
      <trkpt lat="45.89354" lon="6.69927">
        <ele>888.4</ele>
        <time>2013-08-26T13:06:06Z</time>
      </trkpt>
      <trkpt lat="45.89355" lon="6.69925">
        <ele>889.4</ele>
        <time>2013-08-26T13:06:07Z</time>
      </trkpt>
      <trkpt lat="45.89355" lon="6.69922">
        <ele>889.4</ele>
        <time>2013-08-26T13:06:08Z</time>
      </trkpt>
      <trkpt lat="45.89357" lon="6.69917">
        <ele>889.8</ele>
        <time>2013-08-26T13:06:10Z</time>
      </trkpt>
      <trkpt lat="45.89359" lon="6.69915">
        <ele>890.3</ele>
        <time>2013-08-26T13:06:11Z</time>
      </trkpt>
      <trkpt lat="45.89365" lon="6.69902">
        <ele>890.8</ele>
        <time>2013-08-26T13:06:16Z</time>
      </trkpt>
      <trkpt lat="45.89366" lon="6.69899">
        <ele>891.3</ele>
        <time>2013-08-26T13:06:17Z</time>
      </trkpt>
      <trkpt lat="45.89367" lon="6.69896">
        <ele>891.3</ele>
        <time>2013-08-26T13:06:18Z</time>
      </trkpt>
      <trkpt lat="45.89373" lon="6.69851">
        <ele>894.6</ele>
        <time>2013-08-26T13:06:35Z</time>
      </trkpt>
      <trkpt lat="45.89358" lon="6.69818">
        <ele>898</ele>
        <time>2013-08-26T13:06:50Z</time>
      </trkpt>
      <trkpt lat="45.89342" lon="6.69794">
        <ele>899.9</ele>
        <time>2013-08-26T13:07:03Z</time>
      </trkpt>
      <trkpt lat="45.89313" lon="6.69796">
        <ele>902.8</ele>
        <time>2013-08-26T13:07:18Z</time>
      </trkpt>
      <trkpt lat="45.89287" lon="6.69811">
        <ele>905.7</ele>
        <time>2013-08-26T13:07:34Z</time>
      </trkpt>
      <trkpt lat="45.89264" lon="6.69837">
        <ele>908.1</ele>
        <time>2013-08-26T13:07:49Z</time>
      </trkpt>
      <trkpt lat="45.89248" lon="6.69883">
        <ele>910.5</ele>
        <time>2013-08-26T13:08:07Z</time>
      </trkpt>
      <trkpt lat="45.8923" lon="6.69896">
        <ele>913.4</ele>
        <time>2013-08-26T13:08:18Z</time>
      </trkpt>
      <trkpt lat="45.89229" lon="6.69894">
        <ele>912.9</ele>
        <time>2013-08-26T13:08:19Z</time>
      </trkpt>
      <trkpt lat="45.89228" lon="6.69892">
        <ele>913.9</ele>
        <time>2013-08-26T13:08:20Z</time>
      </trkpt>
      <trkpt lat="45.89227" lon="6.69889">
        <ele>913.4</ele>
        <time>2013-08-26T13:08:21Z</time>
      </trkpt>
      <trkpt lat="45.89227" lon="6.69887">
        <ele>914.4</ele>
        <time>2013-08-26T13:08:22Z</time>
      </trkpt>
      <trkpt lat="45.89228" lon="6.69885">
        <ele>914.4</ele>
        <time>2013-08-26T13:08:23Z</time>
      </trkpt>
      <trkpt lat="45.89228" lon="6.69882">
        <ele>915.3</ele>
        <time>2013-08-26T13:08:24Z</time>
      </trkpt>
      <trkpt lat="45.89229" lon="6.69879">
        <ele>914.8</ele>
        <time>2013-08-26T13:08:25Z</time>
      </trkpt>
      <trkpt lat="45.8923" lon="6.69876">
        <ele>914.8</ele>
        <time>2013-08-26T13:08:26Z</time>
      </trkpt>
      <trkpt lat="45.8923" lon="6.69874">
        <ele>915.3</ele>
        <time>2013-08-26T13:08:27Z</time>
      </trkpt>
      <trkpt lat="45.8924" lon="6.69831">
        <ele>918.2</ele>
        <time>2013-08-26T13:08:43Z</time>
      </trkpt>
      <trkpt lat="45.8923" lon="6.69781">
        <ele>919.6</ele>
        <time>2013-08-26T13:08:59Z</time>
      </trkpt>
      <trkpt lat="45.89236" lon="6.69738">
        <ele>922.5</ele>
        <time>2013-08-26T13:09:13Z</time>
      </trkpt>
      <trkpt lat="45.89221" lon="6.69717">
        <ele>924</ele>
        <time>2013-08-26T13:09:24Z</time>
      </trkpt>
      <trkpt lat="45.89197" lon="6.6974">
        <ele>925.9</ele>
        <time>2013-08-26T13:09:36Z</time>
      </trkpt>
      <trkpt lat="45.89179" lon="6.69753">
        <ele>926.9</ele>
        <time>2013-08-26T13:09:45Z</time>
      </trkpt>
      <trkpt lat="45.89177" lon="6.69753">
        <ele>927.3</ele>
        <time>2013-08-26T13:09:46Z</time>
      </trkpt>
      <trkpt lat="45.89174" lon="6.69751">
        <ele>927.3</ele>
        <time>2013-08-26T13:09:47Z</time>
      </trkpt>
      <trkpt lat="45.89172" lon="6.69749">
        <ele>927.3</ele>
        <time>2013-08-26T13:09:48Z</time>
      </trkpt>
      <trkpt lat="45.89171" lon="6.69746">
        <ele>927.3</ele>
        <time>2013-08-26T13:09:49Z</time>
      </trkpt>
      <trkpt lat="45.8917" lon="6.69743">
        <ele>927.8</ele>
        <time>2013-08-26T13:09:50Z</time>
      </trkpt>
      <trkpt lat="45.8917" lon="6.6974">
        <ele>927.8</ele>
        <time>2013-08-26T13:09:51Z</time>
      </trkpt>
      <trkpt lat="45.8917" lon="6.69736">
        <ele>928.3</ele>
        <time>2013-08-26T13:09:52Z</time>
      </trkpt>
      <trkpt lat="45.89171" lon="6.69733">
        <ele>927.8</ele>
        <time>2013-08-26T13:09:53Z</time>
      </trkpt>
      <trkpt lat="45.89172" lon="6.6973">
        <ele>928.3</ele>
        <time>2013-08-26T13:09:54Z</time>
      </trkpt>
      <trkpt lat="45.89174" lon="6.69727">
        <ele>928.3</ele>
        <time>2013-08-26T13:09:55Z</time>
      </trkpt>
      <trkpt lat="45.89193" lon="6.69684">
        <ele>931.2</ele>
        <time>2013-08-26T13:10:10Z</time>
      </trkpt>
      <trkpt lat="45.89197" lon="6.69668">
        <ele>932.6</ele>
        <time>2013-08-26T13:10:15Z</time>
      </trkpt>
      <trkpt lat="45.89197" lon="6.69662">
        <ele>932.1</ele>
        <time>2013-08-26T13:10:17Z</time>
      </trkpt>
      <trkpt lat="45.89196" lon="6.69659">
        <ele>932.1</ele>
        <time>2013-08-26T13:10:18Z</time>
      </trkpt>
      <trkpt lat="45.89195" lon="6.69656">
        <ele>932.1</ele>
        <time>2013-08-26T13:10:19Z</time>
      </trkpt>
      <trkpt lat="45.89194" lon="6.69654">
        <ele>933.1</ele>
        <time>2013-08-26T13:10:20Z</time>
      </trkpt>
      <trkpt lat="45.89192" lon="6.69653">
        <ele>933.1</ele>
        <time>2013-08-26T13:10:21Z</time>
      </trkpt>
      <trkpt lat="45.8919" lon="6.69652">
        <ele>933.6</ele>
        <time>2013-08-26T13:10:22Z</time>
      </trkpt>
      <trkpt lat="45.89188" lon="6.69652">
        <ele>933.6</ele>
        <time>2013-08-26T13:10:23Z</time>
      </trkpt>
      <trkpt lat="45.89186" lon="6.69653">
        <ele>933.6</ele>
        <time>2013-08-26T13:10:24Z</time>
      </trkpt>
      <trkpt lat="45.89184" lon="6.69654">
        <ele>933.6</ele>
        <time>2013-08-26T13:10:25Z</time>
      </trkpt>
      <trkpt lat="45.89183" lon="6.69655">
        <ele>934.1</ele>
        <time>2013-08-26T13:10:26Z</time>
      </trkpt>
      <trkpt lat="45.89181" lon="6.69657">
        <ele>933.6</ele>
        <time>2013-08-26T13:10:27Z</time>
      </trkpt>
      <trkpt lat="45.89179" lon="6.69659">
        <ele>934.1</ele>
        <time>2013-08-26T13:10:28Z</time>
      </trkpt>
      <trkpt lat="45.89177" lon="6.69661">
        <ele>934.1</ele>
        <time>2013-08-26T13:10:29Z</time>
      </trkpt>
      <trkpt lat="45.89175" lon="6.69662">
        <ele>934.5</ele>
        <time>2013-08-26T13:10:30Z</time>
      </trkpt>
      <trkpt lat="45.89173" lon="6.69664">
        <ele>934.5</ele>
        <time>2013-08-26T13:10:31Z</time>
      </trkpt>
      <trkpt lat="45.89171" lon="6.69666">
        <ele>935</ele>
        <time>2013-08-26T13:10:32Z</time>
      </trkpt>
      <trkpt lat="45.89135" lon="6.69696">
        <ele>936.9</ele>
        <time>2013-08-26T13:10:50Z</time>
      </trkpt>
      <trkpt lat="45.89119" lon="6.69726">
        <ele>939.4</ele>
        <time>2013-08-26T13:11:01Z</time>
      </trkpt>
      <trkpt lat="45.89118" lon="6.69729">
        <ele>939.4</ele>
        <time>2013-08-26T13:11:02Z</time>
      </trkpt>
      <trkpt lat="45.89117" lon="6.69732">
        <ele>939.8</ele>
        <time>2013-08-26T13:11:03Z</time>
      </trkpt>
      <trkpt lat="45.89095" lon="6.6977">
        <ele>941.8</ele>
        <time>2013-08-26T13:11:17Z</time>
      </trkpt>
      <trkpt lat="45.89069" lon="6.698">
        <ele>944.2</ele>
        <time>2013-08-26T13:11:30Z</time>
      </trkpt>
      <trkpt lat="45.89048" lon="6.69826">
        <ele>946.1</ele>
        <time>2013-08-26T13:11:41Z</time>
      </trkpt>
      <trkpt lat="45.89017" lon="6.69873">
        <ele>949.4</ele>
        <time>2013-08-26T13:11:59Z</time>
      </trkpt>
      <trkpt lat="45.88979" lon="6.69908">
        <ele>950.4</ele>
        <time>2013-08-26T13:12:16Z</time>
      </trkpt>
      <trkpt lat="45.88942" lon="6.69919">
        <ele>951.4</ele>
        <time>2013-08-26T13:12:27Z</time>
      </trkpt>
      <trkpt lat="45.88941" lon="6.69916">
        <ele>952.8</ele>
        <time>2013-08-26T13:12:28Z</time>
      </trkpt>
      <trkpt lat="45.88941" lon="6.69913">
        <ele>951.4</ele>
        <time>2013-08-26T13:12:29Z</time>
      </trkpt>
      <trkpt lat="45.88941" lon="6.6991">
        <ele>951.8</ele>
        <time>2013-08-26T13:12:30Z</time>
      </trkpt>
      <trkpt lat="45.88942" lon="6.69908">
        <ele>952.3</ele>
        <time>2013-08-26T13:12:31Z</time>
      </trkpt>
      <trkpt lat="45.88943" lon="6.69906">
        <ele>952.8</ele>
        <time>2013-08-26T13:12:32Z</time>
      </trkpt>
      <trkpt lat="45.88949" lon="6.69879">
        <ele>955.2</ele>
        <time>2013-08-26T13:12:43Z</time>
      </trkpt>
      <trkpt lat="45.88938" lon="6.6985">
        <ele>958.6</ele>
        <time>2013-08-26T13:12:57Z</time>
      </trkpt>
      <trkpt lat="45.88936" lon="6.69845">
        <ele>959.1</ele>
        <time>2013-08-26T13:13:00Z</time>
      </trkpt>
      <trkpt lat="45.88934" lon="6.69844">
        <ele>959.1</ele>
        <time>2013-08-26T13:13:01Z</time>
      </trkpt>
      <trkpt lat="45.88932" lon="6.69843">
        <ele>959.5</ele>
        <time>2013-08-26T13:13:02Z</time>
      </trkpt>
      <trkpt lat="45.88929" lon="6.69842">
        <ele>959.1</ele>
        <time>2013-08-26T13:13:15Z</time>
      </trkpt>
      <trkpt lat="45.88931" lon="6.69836">
        <ele>960</ele>
        <time>2013-08-26T13:13:39Z</time>
      </trkpt>
      <trkpt lat="45.88931" lon="6.69834">
        <ele>959.5</ele>
        <time>2013-08-26T13:13:40Z</time>
      </trkpt>
      <trkpt lat="45.88928" lon="6.698">
        <ele>962.9</ele>
        <time>2013-08-26T13:13:53Z</time>
      </trkpt>
      <trkpt lat="45.88925" lon="6.69785">
        <ele>963.9</ele>
        <time>2013-08-26T13:13:59Z</time>
      </trkpt>
      <trkpt lat="45.88924" lon="6.69782">
        <ele>964.3</ele>
        <time>2013-08-26T13:14:00Z</time>
      </trkpt>
      <trkpt lat="45.88922" lon="6.69742">
        <ele>967.2</ele>
        <time>2013-08-26T13:14:15Z</time>
      </trkpt>
      <trkpt lat="45.88934" lon="6.69706">
        <ele>970.6</ele>
        <time>2013-08-26T13:14:30Z</time>
      </trkpt>
      <trkpt lat="45.88949" lon="6.69662">
        <ele>973.5</ele>
        <time>2013-08-26T13:14:46Z</time>
      </trkpt>
      <trkpt lat="45.8896" lon="6.69614">
        <ele>976.8</ele>
        <time>2013-08-26T13:15:04Z</time>
      </trkpt>
      <trkpt lat="45.88963" lon="6.69572">
        <ele>979.7</ele>
        <time>2013-08-26T13:15:18Z</time>
      </trkpt>
      <trkpt lat="45.88961" lon="6.69549">
        <ele>980.7</ele>
        <time>2013-08-26T13:15:26Z</time>
      </trkpt>
      <trkpt lat="45.88959" lon="6.69547">
        <ele>981.2</ele>
        <time>2013-08-26T13:15:27Z</time>
      </trkpt>
      <trkpt lat="45.88957" lon="6.69545">
        <ele>981.2</ele>
        <time>2013-08-26T13:15:28Z</time>
      </trkpt>
      <trkpt lat="45.88955" lon="6.69544">
        <ele>981.6</ele>
        <time>2013-08-26T13:15:29Z</time>
      </trkpt>
      <trkpt lat="45.88954" lon="6.69544">
        <ele>982.1</ele>
        <time>2013-08-26T13:15:30Z</time>
      </trkpt>
      <trkpt lat="45.88951" lon="6.69545">
        <ele>982.1</ele>
        <time>2013-08-26T13:15:31Z</time>
      </trkpt>
      <trkpt lat="45.8895" lon="6.69546">
        <ele>982.1</ele>
        <time>2013-08-26T13:15:32Z</time>
      </trkpt>
      <trkpt lat="45.88948" lon="6.69548">
        <ele>981.6</ele>
        <time>2013-08-26T13:15:33Z</time>
      </trkpt>
      <trkpt lat="45.88946" lon="6.6955">
        <ele>982.1</ele>
        <time>2013-08-26T13:15:34Z</time>
      </trkpt>
      <trkpt lat="45.8892" lon="6.69589">
        <ele>985</ele>
        <time>2013-08-26T13:15:50Z</time>
      </trkpt>
      <trkpt lat="45.88886" lon="6.69624">
        <ele>986.9</ele>
        <time>2013-08-26T13:16:08Z</time>
      </trkpt>
      <trkpt lat="45.88867" lon="6.69651">
        <ele>989.8</ele>
        <time>2013-08-26T13:16:23Z</time>
      </trkpt>
      <trkpt lat="45.88857" lon="6.69676">
        <ele>993.2</ele>
        <time>2013-08-26T13:16:34Z</time>
      </trkpt>
      <trkpt lat="45.8884" lon="6.69712">
        <ele>995.6</ele>
        <time>2013-08-26T13:16:49Z</time>
      </trkpt>
      <trkpt lat="45.88824" lon="6.69738">
        <ele>998.5</ele>
        <time>2013-08-26T13:17:02Z</time>
      </trkpt>
      <trkpt lat="45.888" lon="6.69746">
        <ele>1000.9</ele>
        <time>2013-08-26T13:17:17Z</time>
      </trkpt>
      <trkpt lat="45.88792" lon="6.69747">
        <ele>1002.8</ele>
        <time>2013-08-26T13:17:22Z</time>
      </trkpt>
      <trkpt lat="45.88765" lon="6.69748">
        <ele>1004.7</ele>
        <time>2013-08-26T13:17:38Z</time>
      </trkpt>
      <trkpt lat="45.88759" lon="6.69748">
        <ele>1005.2</ele>
        <time>2013-08-26T13:17:42Z</time>
      </trkpt>
      <trkpt lat="45.88758" lon="6.69748">
        <ele>1005.7</ele>
        <time>2013-08-26T13:17:43Z</time>
      </trkpt>
      <trkpt lat="45.88756" lon="6.69748">
        <ele>1005.7</ele>
        <time>2013-08-26T13:17:44Z</time>
      </trkpt>
      <trkpt lat="45.88754" lon="6.69748">
        <ele>1005.7</ele>
        <time>2013-08-26T13:17:45Z</time>
      </trkpt>
      <trkpt lat="45.88752" lon="6.69748">
        <ele>1005.7</ele>
        <time>2013-08-26T13:17:46Z</time>
      </trkpt>
      <trkpt lat="45.88735" lon="6.69751">
        <ele>1007.1</ele>
        <time>2013-08-26T13:17:57Z</time>
      </trkpt>
      <trkpt lat="45.88701" lon="6.69767">
        <ele>1010</ele>
        <time>2013-08-26T13:18:15Z</time>
      </trkpt>
      <trkpt lat="45.88673" lon="6.69776">
        <ele>1012.9</ele>
        <time>2013-08-26T13:18:30Z</time>
      </trkpt>
      <trkpt lat="45.88644" lon="6.69778">
        <ele>1016.3</ele>
        <time>2013-08-26T13:18:46Z</time>
      </trkpt>
      <trkpt lat="45.88617" lon="6.69791">
        <ele>1018.7</ele>
        <time>2013-08-26T13:19:03Z</time>
      </trkpt>
      <trkpt lat="45.88604" lon="6.69787">
        <ele>1019.6</ele>
        <time>2013-08-26T13:19:11Z</time>
      </trkpt>
      <trkpt lat="45.88603" lon="6.69784">
        <ele>1020.6</ele>
        <time>2013-08-26T13:19:12Z</time>
      </trkpt>
      <trkpt lat="45.88604" lon="6.69775">
        <ele>1021.5</ele>
        <time>2013-08-26T13:19:16Z</time>
      </trkpt>
      <trkpt lat="45.88606" lon="6.69772">
        <ele>1022</ele>
        <time>2013-08-26T13:19:18Z</time>
      </trkpt>
      <trkpt lat="45.88608" lon="6.69771">
        <ele>1022</ele>
        <time>2013-08-26T13:19:19Z</time>
      </trkpt>
      <trkpt lat="45.8861" lon="6.69769">
        <ele>1022.5</ele>
        <time>2013-08-26T13:19:20Z</time>
      </trkpt>
      <trkpt lat="45.88621" lon="6.69762">
        <ele>1023.5</ele>
        <time>2013-08-26T13:19:27Z</time>
      </trkpt>
      <trkpt lat="45.88646" lon="6.6974">
        <ele>1025.4</ele>
        <time>2013-08-26T13:19:40Z</time>
      </trkpt>
      <trkpt lat="45.88663" lon="6.69702">
        <ele>1027.8</ele>
        <time>2013-08-26T13:19:55Z</time>
      </trkpt>
      <trkpt lat="45.88663" lon="6.69664">
        <ele>1030.2</ele>
        <time>2013-08-26T13:20:08Z</time>
      </trkpt>
      <trkpt lat="45.88688" lon="6.69638">
        <ele>1031.6</ele>
        <time>2013-08-26T13:20:20Z</time>
      </trkpt>
      <trkpt lat="45.88712" lon="6.69601">
        <ele>1033.1</ele>
        <time>2013-08-26T13:20:36Z</time>
      </trkpt>
      <trkpt lat="45.88709" lon="6.69558">
        <ele>1036</ele>
        <time>2013-08-26T13:20:52Z</time>
      </trkpt>
      <trkpt lat="45.88687" lon="6.69525">
        <ele>1038.8</ele>
        <time>2013-08-26T13:21:08Z</time>
      </trkpt>
      <trkpt lat="45.88686" lon="6.69514">
        <ele>1040.3</ele>
        <time>2013-08-26T13:21:12Z</time>
      </trkpt>
      <trkpt lat="45.88686" lon="6.69511">
        <ele>1040.3</ele>
        <time>2013-08-26T13:21:13Z</time>
      </trkpt>
      <trkpt lat="45.88687" lon="6.69508">
        <ele>1040.8</ele>
        <time>2013-08-26T13:21:14Z</time>
      </trkpt>
      <trkpt lat="45.88688" lon="6.69506">
        <ele>1040.8</ele>
        <time>2013-08-26T13:21:15Z</time>
      </trkpt>
      <trkpt lat="45.88689" lon="6.69504">
        <ele>1040.8</ele>
        <time>2013-08-26T13:21:16Z</time>
      </trkpt>
      <trkpt lat="45.88691" lon="6.69502">
        <ele>1041.3</ele>
        <time>2013-08-26T13:21:17Z</time>
      </trkpt>
      <trkpt lat="45.88692" lon="6.695">
        <ele>1041.3</ele>
        <time>2013-08-26T13:21:18Z</time>
      </trkpt>
      <trkpt lat="45.88693" lon="6.69498">
        <ele>1041.3</ele>
        <time>2013-08-26T13:21:19Z</time>
      </trkpt>
      <trkpt lat="45.88695" lon="6.69497">
        <ele>1041.7</ele>
        <time>2013-08-26T13:21:20Z</time>
      </trkpt>
      <trkpt lat="45.8872" lon="6.69468">
        <ele>1045.1</ele>
        <time>2013-08-26T13:21:37Z</time>
      </trkpt>
      <trkpt lat="45.88741" lon="6.69435">
        <ele>1047.5</ele>
        <time>2013-08-26T13:21:53Z</time>
      </trkpt>
      <trkpt lat="45.88757" lon="6.69407">
        <ele>1049.9</ele>
        <time>2013-08-26T13:22:07Z</time>
      </trkpt>
      <trkpt lat="45.88763" lon="6.6938">
        <ele>1052.8</ele>
        <time>2013-08-26T13:22:19Z</time>
      </trkpt>
      <trkpt lat="45.88766" lon="6.69362">
        <ele>1054.2</ele>
        <time>2013-08-26T13:22:26Z</time>
      </trkpt>
      <trkpt lat="45.88766" lon="6.69359">
        <ele>1054.2</ele>
        <time>2013-08-26T13:22:27Z</time>
      </trkpt>
      <trkpt lat="45.88766" lon="6.69357">
        <ele>1054.7</ele>
        <time>2013-08-26T13:22:28Z</time>
      </trkpt>
      <trkpt lat="45.88768" lon="6.69323">
        <ele>1057.1</ele>
        <time>2013-08-26T13:22:43Z</time>
      </trkpt>
      <trkpt lat="45.88768" lon="6.69304">
        <ele>1058.6</ele>
        <time>2013-08-26T13:22:50Z</time>
      </trkpt>
      <trkpt lat="45.88768" lon="6.69302">
        <ele>1059</ele>
        <time>2013-08-26T13:22:51Z</time>
      </trkpt>
      <trkpt lat="45.88769" lon="6.69299">
        <ele>1059</ele>
        <time>2013-08-26T13:22:52Z</time>
      </trkpt>
      <trkpt lat="45.8877" lon="6.69292">
        <ele>1060</ele>
        <time>2013-08-26T13:22:55Z</time>
      </trkpt>
      <trkpt lat="45.8877" lon="6.6929">
        <ele>1060</ele>
        <time>2013-08-26T13:22:56Z</time>
      </trkpt>
      <trkpt lat="45.88771" lon="6.69287">
        <ele>1060</ele>
        <time>2013-08-26T13:22:57Z</time>
      </trkpt>
      <trkpt lat="45.88772" lon="6.69282">
        <ele>1060.5</ele>
        <time>2013-08-26T13:22:59Z</time>
      </trkpt>
      <trkpt lat="45.88772" lon="6.6928">
        <ele>1060.5</ele>
        <time>2013-08-26T13:23:00Z</time>
      </trkpt>
      <trkpt lat="45.88773" lon="6.69277">
        <ele>1061</ele>
        <time>2013-08-26T13:23:01Z</time>
      </trkpt>
      <trkpt lat="45.88774" lon="6.69275">
        <ele>1061.4</ele>
        <time>2013-08-26T13:23:02Z</time>
      </trkpt>
      <trkpt lat="45.88774" lon="6.69273">
        <ele>1061.4</ele>
        <time>2013-08-26T13:23:03Z</time>
      </trkpt>
      <trkpt lat="45.88775" lon="6.69271">
        <ele>1061.9</ele>
        <time>2013-08-26T13:23:04Z</time>
      </trkpt>
      <trkpt lat="45.88776" lon="6.69268">
        <ele>1062.4</ele>
        <time>2013-08-26T13:23:05Z</time>
      </trkpt>
      <trkpt lat="45.88776" lon="6.69266">
        <ele>1062.4</ele>
        <time>2013-08-26T13:23:06Z</time>
      </trkpt>
      <trkpt lat="45.88777" lon="6.69264">
        <ele>1062.4</ele>
        <time>2013-08-26T13:23:07Z</time>
      </trkpt>
      <trkpt lat="45.88779" lon="6.69236">
        <ele>1064.8</ele>
        <time>2013-08-26T13:23:19Z</time>
      </trkpt>
      <trkpt lat="45.88781" lon="6.69221">
        <ele>1066.7</ele>
        <time>2013-08-26T13:23:26Z</time>
      </trkpt>
      <trkpt lat="45.88783" lon="6.69199">
        <ele>1068.2</ele>
        <time>2013-08-26T13:23:35Z</time>
      </trkpt>
      <trkpt lat="45.88784" lon="6.6919">
        <ele>1068.6</ele>
        <time>2013-08-26T13:23:39Z</time>
      </trkpt>
      <trkpt lat="45.88786" lon="6.69175">
        <ele>1070.1</ele>
        <time>2013-08-26T13:23:48Z</time>
      </trkpt>
      <trkpt lat="45.88787" lon="6.69171">
        <ele>1070.6</ele>
        <time>2013-08-26T13:23:50Z</time>
      </trkpt>
      <trkpt lat="45.88787" lon="6.69168">
        <ele>1071.1</ele>
        <time>2013-08-26T13:23:51Z</time>
      </trkpt>
      <trkpt lat="45.88788" lon="6.69153">
        <ele>1072</ele>
        <time>2013-08-26T13:23:58Z</time>
      </trkpt>
      <trkpt lat="45.88786" lon="6.69133">
        <ele>1073.5</ele>
        <time>2013-08-26T13:24:06Z</time>
      </trkpt>
      <trkpt lat="45.88786" lon="6.69131">
        <ele>1073.9</ele>
        <time>2013-08-26T13:24:07Z</time>
      </trkpt>
      <trkpt lat="45.88784" lon="6.69129">
        <ele>1073.9</ele>
        <time>2013-08-26T13:24:08Z</time>
      </trkpt>
      <trkpt lat="45.88783" lon="6.69127">
        <ele>1073.9</ele>
        <time>2013-08-26T13:24:09Z</time>
      </trkpt>
      <trkpt lat="45.88783" lon="6.69125">
        <ele>1073.5</ele>
        <time>2013-08-26T13:24:10Z</time>
      </trkpt>
      <trkpt lat="45.88783" lon="6.69123">
        <ele>1073.9</ele>
        <time>2013-08-26T13:24:11Z</time>
      </trkpt>
      <trkpt lat="45.88783" lon="6.6912">
        <ele>1073.9</ele>
        <time>2013-08-26T13:24:12Z</time>
      </trkpt>
      <trkpt lat="45.88783" lon="6.69118">
        <ele>1074.4</ele>
        <time>2013-08-26T13:24:13Z</time>
      </trkpt>
      <trkpt lat="45.88782" lon="6.69116">
        <ele>1074.9</ele>
        <time>2013-08-26T13:24:14Z</time>
      </trkpt>
      <trkpt lat="45.88782" lon="6.69114">
        <ele>1075.4</ele>
        <time>2013-08-26T13:24:15Z</time>
      </trkpt>
      <trkpt lat="45.88782" lon="6.69112">
        <ele>1075.9</ele>
        <time>2013-08-26T13:24:16Z</time>
      </trkpt>
      <trkpt lat="45.88782" lon="6.6911">
        <ele>1075.9</ele>
        <time>2013-08-26T13:24:17Z</time>
      </trkpt>
      <trkpt lat="45.88782" lon="6.69108">
        <ele>1075.9</ele>
        <time>2013-08-26T13:24:18Z</time>
      </trkpt>
      <trkpt lat="45.88782" lon="6.69096">
        <ele>1076.8</ele>
        <time>2013-08-26T13:24:23Z</time>
      </trkpt>
      <trkpt lat="45.88782" lon="6.69094">
        <ele>1077.3</ele>
        <time>2013-08-26T13:24:24Z</time>
      </trkpt>
      <trkpt lat="45.88782" lon="6.69092">
        <ele>1077.3</ele>
        <time>2013-08-26T13:24:25Z</time>
      </trkpt>
      <trkpt lat="45.88782" lon="6.69089">
        <ele>1077.3</ele>
        <time>2013-08-26T13:24:26Z</time>
      </trkpt>
      <trkpt lat="45.88781" lon="6.69087">
        <ele>1077.3</ele>
        <time>2013-08-26T13:24:27Z</time>
      </trkpt>
      <trkpt lat="45.88781" lon="6.69085">
        <ele>1077.8</ele>
        <time>2013-08-26T13:24:28Z</time>
      </trkpt>
      <trkpt lat="45.88781" lon="6.69082">
        <ele>1078.3</ele>
        <time>2013-08-26T13:24:29Z</time>
      </trkpt>
      <trkpt lat="45.88781" lon="6.6908">
        <ele>1077.8</ele>
        <time>2013-08-26T13:24:30Z</time>
      </trkpt>
      <trkpt lat="45.88781" lon="6.69067">
        <ele>1079.2</ele>
        <time>2013-08-26T13:24:36Z</time>
      </trkpt>
      <trkpt lat="45.88781" lon="6.69065">
        <ele>1079.7</ele>
        <time>2013-08-26T13:24:37Z</time>
      </trkpt>
      <trkpt lat="45.8878" lon="6.69062">
        <ele>1079.2</ele>
        <time>2013-08-26T13:24:38Z</time>
      </trkpt>
      <trkpt lat="45.8878" lon="6.6906">
        <ele>1079.7</ele>
        <time>2013-08-26T13:24:39Z</time>
      </trkpt>
      <trkpt lat="45.8878" lon="6.69058">
        <ele>1080.2</ele>
        <time>2013-08-26T13:24:40Z</time>
      </trkpt>
      <trkpt lat="45.8878" lon="6.69056">
        <ele>1080.7</ele>
        <time>2013-08-26T13:24:41Z</time>
      </trkpt>
      <trkpt lat="45.8878" lon="6.69054">
        <ele>1080.2</ele>
        <time>2013-08-26T13:24:42Z</time>
      </trkpt>
      <trkpt lat="45.8878" lon="6.69052">
        <ele>1080.7</ele>
        <time>2013-08-26T13:24:43Z</time>
      </trkpt>
      <trkpt lat="45.88779" lon="6.6905">
        <ele>1080.7</ele>
        <time>2013-08-26T13:24:44Z</time>
      </trkpt>
      <trkpt lat="45.88779" lon="6.69044">
        <ele>1081.1</ele>
        <time>2013-08-26T13:24:47Z</time>
      </trkpt>
      <trkpt lat="45.88779" lon="6.69042">
        <ele>1081.1</ele>
        <time>2013-08-26T13:24:48Z</time>
      </trkpt>
      <trkpt lat="45.88775" lon="6.69016">
        <ele>1084</ele>
        <time>2013-08-26T13:25:01Z</time>
      </trkpt>
      <trkpt lat="45.88765" lon="6.68987">
        <ele>1086.4</ele>
        <time>2013-08-26T13:25:14Z</time>
      </trkpt>
      <trkpt lat="45.88757" lon="6.68973">
        <ele>1087.9</ele>
        <time>2013-08-26T13:25:22Z</time>
      </trkpt>
      <trkpt lat="45.88756" lon="6.68971">
        <ele>1088.8</ele>
        <time>2013-08-26T13:25:23Z</time>
      </trkpt>
      <trkpt lat="45.88755" lon="6.68969">
        <ele>1088.8</ele>
        <time>2013-08-26T13:25:24Z</time>
      </trkpt>
      <trkpt lat="45.88755" lon="6.68967">
        <ele>1088.4</ele>
        <time>2013-08-26T13:25:25Z</time>
      </trkpt>
      <trkpt lat="45.88754" lon="6.68965">
        <ele>1089.3</ele>
        <time>2013-08-26T13:25:26Z</time>
      </trkpt>
      <trkpt lat="45.88752" lon="6.68963">
        <ele>1089.3</ele>
        <time>2013-08-26T13:25:27Z</time>
      </trkpt>
      <trkpt lat="45.88751" lon="6.68961">
        <ele>1089.3</ele>
        <time>2013-08-26T13:25:28Z</time>
      </trkpt>
      <trkpt lat="45.8875" lon="6.68959">
        <ele>1089.8</ele>
        <time>2013-08-26T13:25:29Z</time>
      </trkpt>
      <trkpt lat="45.8875" lon="6.68956">
        <ele>1089.3</ele>
        <time>2013-08-26T13:25:30Z</time>
      </trkpt>
      <trkpt lat="45.88749" lon="6.68954">
        <ele>1089.8</ele>
        <time>2013-08-26T13:25:31Z</time>
      </trkpt>
      <trkpt lat="45.88749" lon="6.68952">
        <ele>1089.8</ele>
        <time>2013-08-26T13:25:32Z</time>
      </trkpt>
      <trkpt lat="45.88748" lon="6.68947">
        <ele>1090.3</ele>
        <time>2013-08-26T13:25:34Z</time>
      </trkpt>
      <trkpt lat="45.88747" lon="6.68945">
        <ele>1090.3</ele>
        <time>2013-08-26T13:25:35Z</time>
      </trkpt>
      <trkpt lat="45.88747" lon="6.68943">
        <ele>1090.8</ele>
        <time>2013-08-26T13:25:36Z</time>
      </trkpt>
      <trkpt lat="45.88731" lon="6.68938">
        <ele>1092.7</ele>
        <time>2013-08-26T13:25:49Z</time>
      </trkpt>
      <trkpt lat="45.88729" lon="6.68941">
        <ele>1092.7</ele>
        <time>2013-08-26T13:25:51Z</time>
      </trkpt>
      <trkpt lat="45.88729" lon="6.68943">
        <ele>1092.7</ele>
        <time>2013-08-26T13:25:52Z</time>
      </trkpt>
      <trkpt lat="45.88728" lon="6.68945">
        <ele>1093.2</ele>
        <time>2013-08-26T13:25:53Z</time>
      </trkpt>
      <trkpt lat="45.88728" lon="6.68947">
        <ele>1093.2</ele>
        <time>2013-08-26T13:25:54Z</time>
      </trkpt>
      <trkpt lat="45.88728" lon="6.68949">
        <ele>1093.2</ele>
        <time>2013-08-26T13:25:55Z</time>
      </trkpt>
      <trkpt lat="45.88729" lon="6.68956">
        <ele>1093.2</ele>
        <time>2013-08-26T13:25:58Z</time>
      </trkpt>
      <trkpt lat="45.88729" lon="6.68958">
        <ele>1093.2</ele>
        <time>2013-08-26T13:25:59Z</time>
      </trkpt>
      <trkpt lat="45.88729" lon="6.6896">
        <ele>1093.6</ele>
        <time>2013-08-26T13:26:00Z</time>
      </trkpt>
      <trkpt lat="45.88729" lon="6.68962">
        <ele>1094.1</ele>
        <time>2013-08-26T13:26:01Z</time>
      </trkpt>
      <trkpt lat="45.88729" lon="6.68964">
        <ele>1093.6</ele>
        <time>2013-08-26T13:26:02Z</time>
      </trkpt>
      <trkpt lat="45.88727" lon="6.68997">
        <ele>1096</ele>
        <time>2013-08-26T13:26:17Z</time>
      </trkpt>
      <trkpt lat="45.88724" lon="6.69029">
        <ele>1099.4</ele>
        <time>2013-08-26T13:26:32Z</time>
      </trkpt>
      <trkpt lat="45.8871" lon="6.69066">
        <ele>1101.8</ele>
        <time>2013-08-26T13:26:52Z</time>
      </trkpt>
      <trkpt lat="45.887" lon="6.69086">
        <ele>1103.3</ele>
        <time>2013-08-26T13:27:03Z</time>
      </trkpt>
      <trkpt lat="45.887" lon="6.69088">
        <ele>1103.7</ele>
        <time>2013-08-26T13:27:04Z</time>
      </trkpt>
      <trkpt lat="45.887" lon="6.69089">
        <ele>1103.3</ele>
        <time>2013-08-26T13:27:05Z</time>
      </trkpt>
      <trkpt lat="45.887" lon="6.69091">
        <ele>1103.7</ele>
        <time>2013-08-26T13:27:06Z</time>
      </trkpt>
      <trkpt lat="45.887" lon="6.69093">
        <ele>1103.7</ele>
        <time>2013-08-26T13:27:07Z</time>
      </trkpt>
      <trkpt lat="45.887" lon="6.69095">
        <ele>1103.7</ele>
        <time>2013-08-26T13:27:08Z</time>
      </trkpt>
      <trkpt lat="45.88701" lon="6.69097">
        <ele>1103.7</ele>
        <time>2013-08-26T13:27:09Z</time>
      </trkpt>
      <trkpt lat="45.88701" lon="6.69099">
        <ele>1103.7</ele>
        <time>2013-08-26T13:27:10Z</time>
      </trkpt>
      <trkpt lat="45.88701" lon="6.69101">
        <ele>1103.7</ele>
        <time>2013-08-26T13:27:11Z</time>
      </trkpt>
      <trkpt lat="45.88701" lon="6.69103">
        <ele>1104.2</ele>
        <time>2013-08-26T13:27:12Z</time>
      </trkpt>
      <trkpt lat="45.88701" lon="6.69105">
        <ele>1104.2</ele>
        <time>2013-08-26T13:27:13Z</time>
      </trkpt>
      <trkpt lat="45.88696" lon="6.69117">
        <ele>1105.2</ele>
        <time>2013-08-26T13:27:20Z</time>
      </trkpt>
      <trkpt lat="45.88696" lon="6.69119">
        <ele>1105.2</ele>
        <time>2013-08-26T13:27:21Z</time>
      </trkpt>
      <trkpt lat="45.88696" lon="6.69121">
        <ele>1105.7</ele>
        <time>2013-08-26T13:27:22Z</time>
      </trkpt>
      <trkpt lat="45.88696" lon="6.69123">
        <ele>1105.7</ele>
        <time>2013-08-26T13:27:23Z</time>
      </trkpt>
      <trkpt lat="45.88695" lon="6.69125">
        <ele>1105.7</ele>
        <time>2013-08-26T13:27:24Z</time>
      </trkpt>
      <trkpt lat="45.88692" lon="6.69138">
        <ele>1106.6</ele>
        <time>2013-08-26T13:27:31Z</time>
      </trkpt>
      <trkpt lat="45.88691" lon="6.6914">
        <ele>1106.1</ele>
        <time>2013-08-26T13:27:32Z</time>
      </trkpt>
      <trkpt lat="45.8869" lon="6.69141">
        <ele>1106.6</ele>
        <time>2013-08-26T13:27:33Z</time>
      </trkpt>
      <trkpt lat="45.88688" lon="6.69142">
        <ele>1107.1</ele>
        <time>2013-08-26T13:27:34Z</time>
      </trkpt>
      <trkpt lat="45.88687" lon="6.69143">
        <ele>1107.1</ele>
        <time>2013-08-26T13:27:35Z</time>
      </trkpt>
      <trkpt lat="45.88687" lon="6.69145">
        <ele>1107.1</ele>
        <time>2013-08-26T13:27:36Z</time>
      </trkpt>
      <trkpt lat="45.88687" lon="6.69146">
        <ele>1107.1</ele>
        <time>2013-08-26T13:27:37Z</time>
      </trkpt>
      <trkpt lat="45.88687" lon="6.69148">
        <ele>1107.6</ele>
        <time>2013-08-26T13:27:38Z</time>
      </trkpt>
      <trkpt lat="45.88687" lon="6.6915">
        <ele>1107.1</ele>
        <time>2013-08-26T13:27:39Z</time>
      </trkpt>
      <trkpt lat="45.88685" lon="6.6915">
        <ele>1107.6</ele>
        <time>2013-08-26T13:27:44Z</time>
      </trkpt>
      <trkpt lat="45.88686" lon="6.69148">
        <ele>1107.6</ele>
        <time>2013-08-26T13:27:45Z</time>
      </trkpt>
      <trkpt lat="45.88687" lon="6.69145">
        <ele>1107.1</ele>
        <time>2013-08-26T13:27:46Z</time>
      </trkpt>
      <trkpt lat="45.88687" lon="6.69143">
        <ele>1106.6</ele>
        <time>2013-08-26T13:27:47Z</time>
      </trkpt>
      <trkpt lat="45.88687" lon="6.6914">
        <ele>1106.1</ele>
        <time>2013-08-26T13:27:48Z</time>
      </trkpt>
      <trkpt lat="45.88687" lon="6.69138">
        <ele>1106.1</ele>
        <time>2013-08-26T13:27:49Z</time>
      </trkpt>
      <trkpt lat="45.88689" lon="6.69134">
        <ele>1106.1</ele>
        <time>2013-08-26T13:27:59Z</time>
      </trkpt>
      <trkpt lat="45.88687" lon="6.69137">
        <ele>1106.6</ele>
        <time>2013-08-26T13:28:13Z</time>
      </trkpt>
      <trkpt lat="45.8869" lon="6.69138">
        <ele>1106.6</ele>
        <time>2013-08-26T13:28:41Z</time>
      </trkpt>
      <trkpt lat="45.88691" lon="6.69139">
        <ele>1107.1</ele>
        <time>2013-08-26T13:29:15Z</time>
      </trkpt>
      <trkpt lat="45.88692" lon="6.69138">
        <ele>1107.1</ele>
        <time>2013-08-26T13:29:50Z</time>
      </trkpt>
      <trkpt lat="45.88688" lon="6.69142">
        <ele>1107.1</ele>
        <time>2013-08-26T13:30:12Z</time>
      </trkpt>
      <trkpt lat="45.88686" lon="6.69141">
        <ele>1107.6</ele>
        <time>2013-08-26T13:30:28Z</time>
      </trkpt>
      <trkpt lat="45.88687" lon="6.69147">
        <ele>1108.1</ele>
        <time>2013-08-26T13:30:50Z</time>
      </trkpt>
      <trkpt lat="45.88686" lon="6.6915">
        <ele>1108.1</ele>
        <time>2013-08-26T13:30:56Z</time>
      </trkpt>
      <trkpt lat="45.88681" lon="6.69167">
        <ele>1109.5</ele>
        <time>2013-08-26T13:31:06Z</time>
      </trkpt>
      <trkpt lat="45.8868" lon="6.69168">
        <ele>1109.5</ele>
        <time>2013-08-26T13:31:07Z</time>
      </trkpt>
      <trkpt lat="45.88678" lon="6.69173">
        <ele>1110</ele>
        <time>2013-08-26T13:31:10Z</time>
      </trkpt>
      <trkpt lat="45.88672" lon="6.69187">
        <ele>1111.9</ele>
        <time>2013-08-26T13:31:18Z</time>
      </trkpt>
      <trkpt lat="45.88657" lon="6.6921">
        <ele>1113.8</ele>
        <time>2013-08-26T13:31:32Z</time>
      </trkpt>
      <trkpt lat="45.88648" lon="6.69222">
        <ele>1115.3</ele>
        <time>2013-08-26T13:31:44Z</time>
      </trkpt>
      <trkpt lat="45.88647" lon="6.69223">
        <ele>1114.8</ele>
        <time>2013-08-26T13:31:45Z</time>
      </trkpt>
      <trkpt lat="45.88646" lon="6.69224">
        <ele>1115.3</ele>
        <time>2013-08-26T13:31:46Z</time>
      </trkpt>
      <trkpt lat="45.88624" lon="6.6925">
        <ele>1118.6</ele>
        <time>2013-08-26T13:32:04Z</time>
      </trkpt>
      <trkpt lat="45.886" lon="6.69267">
        <ele>1121.5</ele>
        <time>2013-08-26T13:32:20Z</time>
      </trkpt>
      <trkpt lat="45.88577" lon="6.69288">
        <ele>1124.4</ele>
        <time>2013-08-26T13:32:35Z</time>
      </trkpt>
      <trkpt lat="45.8856" lon="6.69276">
        <ele>1125.4</ele>
        <time>2013-08-26T13:32:47Z</time>
      </trkpt>
      <trkpt lat="45.88577" lon="6.69253">
        <ele>1127.3</ele>
        <time>2013-08-26T13:32:59Z</time>
      </trkpt>
      <trkpt lat="45.88586" lon="6.69245">
        <ele>1128.7</ele>
        <time>2013-08-26T13:33:06Z</time>
      </trkpt>
      <trkpt lat="45.88601" lon="6.6922">
        <ele>1131.6</ele>
        <time>2013-08-26T13:33:20Z</time>
      </trkpt>
      <trkpt lat="45.88613" lon="6.69182">
        <ele>1134</ele>
        <time>2013-08-26T13:33:36Z</time>
      </trkpt>
      <trkpt lat="45.88614" lon="6.69175">
        <ele>1134.5</ele>
        <time>2013-08-26T13:33:39Z</time>
      </trkpt>
      <trkpt lat="45.88612" lon="6.69163">
        <ele>1135.9</ele>
        <time>2013-08-26T13:33:45Z</time>
      </trkpt>
      <trkpt lat="45.88611" lon="6.6916">
        <ele>1135.9</ele>
        <time>2013-08-26T13:33:46Z</time>
      </trkpt>
      <trkpt lat="45.8861" lon="6.69158">
        <ele>1135.9</ele>
        <time>2013-08-26T13:33:47Z</time>
      </trkpt>
      <trkpt lat="45.8861" lon="6.69155">
        <ele>1135.9</ele>
        <time>2013-08-26T13:33:48Z</time>
      </trkpt>
      <trkpt lat="45.88609" lon="6.69152">
        <ele>1136.4</ele>
        <time>2013-08-26T13:33:49Z</time>
      </trkpt>
      <trkpt lat="45.88609" lon="6.6915">
        <ele>1136.9</ele>
        <time>2013-08-26T13:33:50Z</time>
      </trkpt>
      <trkpt lat="45.88603" lon="6.69129">
        <ele>1138.3</ele>
        <time>2013-08-26T13:33:59Z</time>
      </trkpt>
      <trkpt lat="45.88596" lon="6.69073">
        <ele>1139.8</ele>
        <time>2013-08-26T13:34:15Z</time>
      </trkpt>
      <trkpt lat="45.88598" lon="6.6904">
        <ele>1142.7</ele>
        <time>2013-08-26T13:34:27Z</time>
      </trkpt>
      <trkpt lat="45.88596" lon="6.68995">
        <ele>1146</ele>
        <time>2013-08-26T13:34:43Z</time>
      </trkpt>
      <trkpt lat="45.88597" lon="6.68974">
        <ele>1146.5</ele>
        <time>2013-08-26T13:34:51Z</time>
      </trkpt>
      <trkpt lat="45.88597" lon="6.68973">
        <ele>1147</ele>
        <time>2013-08-26T13:34:52Z</time>
      </trkpt>
      <trkpt lat="45.88597" lon="6.68971">
        <ele>1146.5</ele>
        <time>2013-08-26T13:34:53Z</time>
      </trkpt>
      <trkpt lat="45.88597" lon="6.68969">
        <ele>1147</ele>
        <time>2013-08-26T13:34:54Z</time>
      </trkpt>
      <trkpt lat="45.88597" lon="6.68966">
        <ele>1147</ele>
        <time>2013-08-26T13:34:55Z</time>
      </trkpt>
      <trkpt lat="45.88597" lon="6.68963">
        <ele>1147</ele>
        <time>2013-08-26T13:34:56Z</time>
      </trkpt>
      <trkpt lat="45.8859" lon="6.68924">
        <ele>1148.9</ele>
        <time>2013-08-26T13:35:09Z</time>
      </trkpt>
      <trkpt lat="45.88564" lon="6.68888">
        <ele>1150.4</ele>
        <time>2013-08-26T13:35:23Z</time>
      </trkpt>
      <trkpt lat="45.88534" lon="6.68854">
        <ele>1151.8</ele>
        <time>2013-08-26T13:35:35Z</time>
      </trkpt>
      <trkpt lat="45.8852" lon="6.68831">
        <ele>1154.2</ele>
        <time>2013-08-26T13:35:47Z</time>
      </trkpt>
      <trkpt lat="45.88504" lon="6.68807">
        <ele>1157.1</ele>
        <time>2013-08-26T13:35:59Z</time>
      </trkpt>
      <trkpt lat="45.88489" lon="6.68783">
        <ele>1159</ele>
        <time>2013-08-26T13:36:11Z</time>
      </trkpt>
      <trkpt lat="45.88466" lon="6.68758">
        <ele>1161.4</ele>
        <time>2013-08-26T13:36:25Z</time>
      </trkpt>
      <trkpt lat="45.88455" lon="6.6871">
        <ele>1164.3</ele>
        <time>2013-08-26T13:36:42Z</time>
      </trkpt>
      <trkpt lat="45.88431" lon="6.68677">
        <ele>1165.7</ele>
        <time>2013-08-26T13:36:57Z</time>
      </trkpt>
      <trkpt lat="45.88415" lon="6.68697">
        <ele>1168.1</ele>
        <time>2013-08-26T13:37:08Z</time>
      </trkpt>
      <trkpt lat="45.88413" lon="6.68733">
        <ele>1171</ele>
        <time>2013-08-26T13:37:21Z</time>
      </trkpt>
      <trkpt lat="45.88406" lon="6.68773">
        <ele>1174.4</ele>
        <time>2013-08-26T13:37:37Z</time>
      </trkpt>
      <trkpt lat="45.88402" lon="6.68821">
        <ele>1176.8</ele>
        <time>2013-08-26T13:37:55Z</time>
      </trkpt>
      <trkpt lat="45.88409" lon="6.68879">
        <ele>1179.7</ele>
        <time>2013-08-26T13:38:15Z</time>
      </trkpt>
      <trkpt lat="45.88417" lon="6.68924">
        <ele>1182.6</ele>
        <time>2013-08-26T13:38:31Z</time>
      </trkpt>
      <trkpt lat="45.88422" lon="6.68962">
        <ele>1184.5</ele>
        <time>2013-08-26T13:38:45Z</time>
      </trkpt>
      <trkpt lat="45.88422" lon="6.68965">
        <ele>1185</ele>
        <time>2013-08-26T13:38:46Z</time>
      </trkpt>
      <trkpt lat="45.88422" lon="6.68968">
        <ele>1185</ele>
        <time>2013-08-26T13:38:47Z</time>
      </trkpt>
      <trkpt lat="45.88402" lon="6.69009">
        <ele>1186.4</ele>
        <time>2013-08-26T13:39:03Z</time>
      </trkpt>
      <trkpt lat="45.8839" lon="6.69011">
        <ele>1188.3</ele>
        <time>2013-08-26T13:39:08Z</time>
      </trkpt>
      <trkpt lat="45.88352" lon="6.69014">
        <ele>1190.7</ele>
        <time>2013-08-26T13:39:25Z</time>
      </trkpt>
      <trkpt lat="45.88339" lon="6.69046">
        <ele>1193.1</ele>
        <time>2013-08-26T13:39:41Z</time>
      </trkpt>
      <trkpt lat="45.88323" lon="6.69064">
        <ele>1195.1</ele>
        <time>2013-08-26T13:39:52Z</time>
      </trkpt>
      <trkpt lat="45.88307" lon="6.69084">
        <ele>1197</ele>
        <time>2013-08-26T13:40:04Z</time>
      </trkpt>
      <trkpt lat="45.88292" lon="6.69107">
        <ele>1198.9</ele>
        <time>2013-08-26T13:40:16Z</time>
      </trkpt>
      <trkpt lat="45.88279" lon="6.69129">
        <ele>1201.8</ele>
        <time>2013-08-26T13:40:28Z</time>
      </trkpt>
      <trkpt lat="45.8827" lon="6.69133">
        <ele>1202.3</ele>
        <time>2013-08-26T13:40:33Z</time>
      </trkpt>
      <trkpt lat="45.88269" lon="6.69132">
        <ele>1202.3</ele>
        <time>2013-08-26T13:40:34Z</time>
      </trkpt>
      <trkpt lat="45.88266" lon="6.69126">
        <ele>1203.2</ele>
        <time>2013-08-26T13:40:37Z</time>
      </trkpt>
      <trkpt lat="45.88266" lon="6.69123">
        <ele>1203.7</ele>
        <time>2013-08-26T13:40:38Z</time>
      </trkpt>
      <trkpt lat="45.88266" lon="6.6912">
        <ele>1203.7</ele>
        <time>2013-08-26T13:40:39Z</time>
      </trkpt>
      <trkpt lat="45.88266" lon="6.69117">
        <ele>1204.2</ele>
        <time>2013-08-26T13:40:40Z</time>
      </trkpt>
      <trkpt lat="45.88267" lon="6.69115">
        <ele>1203.7</ele>
        <time>2013-08-26T13:40:41Z</time>
      </trkpt>
      <trkpt lat="45.88267" lon="6.69112">
        <ele>1204.2</ele>
        <time>2013-08-26T13:40:42Z</time>
      </trkpt>
      <trkpt lat="45.88268" lon="6.69109">
        <ele>1204.7</ele>
        <time>2013-08-26T13:40:43Z</time>
      </trkpt>
      <trkpt lat="45.88274" lon="6.69067">
        <ele>1207.6</ele>
        <time>2013-08-26T13:40:59Z</time>
      </trkpt>
      <trkpt lat="45.88267" lon="6.69016">
        <ele>1210</ele>
        <time>2013-08-26T13:41:18Z</time>
      </trkpt>
      <trkpt lat="45.88264" lon="6.69005">
        <ele>1211.4</ele>
        <time>2013-08-26T13:41:22Z</time>
      </trkpt>
      <trkpt lat="45.88258" lon="6.68984">
        <ele>1212.4</ele>
        <time>2013-08-26T13:41:32Z</time>
      </trkpt>
      <trkpt lat="45.88256" lon="6.68983">
        <ele>1212.4</ele>
        <time>2013-08-26T13:41:33Z</time>
      </trkpt>
      <trkpt lat="45.88254" lon="6.68983">
        <ele>1212.8</ele>
        <time>2013-08-26T13:41:34Z</time>
      </trkpt>
      <trkpt lat="45.88252" lon="6.68982">
        <ele>1213.3</ele>
        <time>2013-08-26T13:41:35Z</time>
      </trkpt>
      <trkpt lat="45.8825" lon="6.68983">
        <ele>1213.3</ele>
        <time>2013-08-26T13:41:36Z</time>
      </trkpt>
      <trkpt lat="45.88248" lon="6.68983">
        <ele>1213.3</ele>
        <time>2013-08-26T13:41:37Z</time>
      </trkpt>
      <trkpt lat="45.88246" lon="6.68984">
        <ele>1213.8</ele>
        <time>2013-08-26T13:41:38Z</time>
      </trkpt>
      <trkpt lat="45.88244" lon="6.68986">
        <ele>1214.3</ele>
        <time>2013-08-26T13:41:39Z</time>
      </trkpt>
      <trkpt lat="45.88243" lon="6.68988">
        <ele>1214.3</ele>
        <time>2013-08-26T13:41:40Z</time>
      </trkpt>
      <trkpt lat="45.88242" lon="6.6899">
        <ele>1214.3</ele>
        <time>2013-08-26T13:41:41Z</time>
      </trkpt>
      <trkpt lat="45.88242" lon="6.68993">
        <ele>1214.3</ele>
        <time>2013-08-26T13:41:42Z</time>
      </trkpt>
      <trkpt lat="45.88233" lon="6.69031">
        <ele>1217.2</ele>
        <time>2013-08-26T13:41:57Z</time>
      </trkpt>
      <trkpt lat="45.88225" lon="6.69062">
        <ele>1219.6</ele>
        <time>2013-08-26T13:42:10Z</time>
      </trkpt>
      <trkpt lat="45.88223" lon="6.69064">
        <ele>1220.1</ele>
        <time>2013-08-26T13:42:11Z</time>
      </trkpt>
      <trkpt lat="45.88222" lon="6.69066">
        <ele>1220.1</ele>
        <time>2013-08-26T13:42:12Z</time>
      </trkpt>
      <trkpt lat="45.88218" lon="6.69067">
        <ele>1221</ele>
        <time>2013-08-26T13:42:15Z</time>
      </trkpt>
      <trkpt lat="45.88217" lon="6.69066">
        <ele>1221</ele>
        <time>2013-08-26T13:42:16Z</time>
      </trkpt>
      <trkpt lat="45.88216" lon="6.69065">
        <ele>1221.5</ele>
        <time>2013-08-26T13:42:17Z</time>
      </trkpt>
      <trkpt lat="45.88214" lon="6.69062">
        <ele>1221.5</ele>
        <time>2013-08-26T13:42:18Z</time>
      </trkpt>
      <trkpt lat="45.88213" lon="6.6906">
        <ele>1221</ele>
        <time>2013-08-26T13:42:19Z</time>
      </trkpt>
      <trkpt lat="45.88212" lon="6.69057">
        <ele>1222</ele>
        <time>2013-08-26T13:42:20Z</time>
      </trkpt>
      <trkpt lat="45.88211" lon="6.69054">
        <ele>1221.5</ele>
        <time>2013-08-26T13:42:21Z</time>
      </trkpt>
      <trkpt lat="45.88211" lon="6.69051">
        <ele>1221.5</ele>
        <time>2013-08-26T13:42:22Z</time>
      </trkpt>
      <trkpt lat="45.88209" lon="6.69049">
        <ele>1222</ele>
        <time>2013-08-26T13:42:23Z</time>
      </trkpt>
      <trkpt lat="45.88208" lon="6.69046">
        <ele>1222</ele>
        <time>2013-08-26T13:42:24Z</time>
      </trkpt>
      <trkpt lat="45.88207" lon="6.69044">
        <ele>1222</ele>
        <time>2013-08-26T13:42:25Z</time>
      </trkpt>
      <trkpt lat="45.88206" lon="6.69041">
        <ele>1222.5</ele>
        <time>2013-08-26T13:42:26Z</time>
      </trkpt>
      <trkpt lat="45.88206" lon="6.69039">
        <ele>1222.5</ele>
        <time>2013-08-26T13:42:27Z</time>
      </trkpt>
      <trkpt lat="45.882" lon="6.68986">
        <ele>1224.9</ele>
        <time>2013-08-26T13:42:46Z</time>
      </trkpt>
      <trkpt lat="45.88199" lon="6.68976">
        <ele>1226.3</ele>
        <time>2013-08-26T13:42:52Z</time>
      </trkpt>
      <trkpt lat="45.88191" lon="6.68936">
        <ele>1227.7</ele>
        <time>2013-08-26T13:43:06Z</time>
      </trkpt>
      <trkpt lat="45.88189" lon="6.68929">
        <ele>1228.7</ele>
        <time>2013-08-26T13:43:08Z</time>
      </trkpt>
      <trkpt lat="45.88193" lon="6.68898">
        <ele>1230.6</ele>
        <time>2013-08-26T13:43:20Z</time>
      </trkpt>
      <trkpt lat="45.88193" lon="6.68888">
        <ele>1231.6</ele>
        <time>2013-08-26T13:43:24Z</time>
      </trkpt>
      <trkpt lat="45.88192" lon="6.68886">
        <ele>1232.1</ele>
        <time>2013-08-26T13:43:25Z</time>
      </trkpt>
      <trkpt lat="45.88186" lon="6.6885">
        <ele>1234</ele>
        <time>2013-08-26T13:43:39Z</time>
      </trkpt>
      <trkpt lat="45.88184" lon="6.68843">
        <ele>1234</ele>
        <time>2013-08-26T13:43:42Z</time>
      </trkpt>
      <trkpt lat="45.88168" lon="6.68811">
        <ele>1236.9</ele>
        <time>2013-08-26T13:43:56Z</time>
      </trkpt>
      <trkpt lat="45.88153" lon="6.6878">
        <ele>1238.8</ele>
        <time>2013-08-26T13:44:10Z</time>
      </trkpt>
      <trkpt lat="45.88141" lon="6.68744">
        <ele>1242.2</ele>
        <time>2013-08-26T13:44:25Z</time>
      </trkpt>
      <trkpt lat="45.88131" lon="6.68699">
        <ele>1244.6</ele>
        <time>2013-08-26T13:44:40Z</time>
      </trkpt>
      <trkpt lat="45.88119" lon="6.68686">
        <ele>1245.5</ele>
        <time>2013-08-26T13:44:47Z</time>
      </trkpt>
      <trkpt lat="45.88118" lon="6.68688">
        <ele>1245.5</ele>
        <time>2013-08-26T13:44:48Z</time>
      </trkpt>
      <trkpt lat="45.88113" lon="6.68702">
        <ele>1247.5</ele>
        <time>2013-08-26T13:44:55Z</time>
      </trkpt>
      <trkpt lat="45.88111" lon="6.68703">
        <ele>1247.5</ele>
        <time>2013-08-26T13:44:56Z</time>
      </trkpt>
      <trkpt lat="45.88103" lon="6.68714">
        <ele>1248.9</ele>
        <time>2013-08-26T13:45:01Z</time>
      </trkpt>
      <trkpt lat="45.88103" lon="6.68717">
        <ele>1249.4</ele>
        <time>2013-08-26T13:45:02Z</time>
      </trkpt>
      <trkpt lat="45.88103" lon="6.6872">
        <ele>1249.4</ele>
        <time>2013-08-26T13:45:03Z</time>
      </trkpt>
      <trkpt lat="45.88103" lon="6.68723">
        <ele>1249.9</ele>
        <time>2013-08-26T13:45:04Z</time>
      </trkpt>
      <trkpt lat="45.88102" lon="6.68725">
        <ele>1249.9</ele>
        <time>2013-08-26T13:45:05Z</time>
      </trkpt>
      <trkpt lat="45.88097" lon="6.68751">
        <ele>1251.8</ele>
        <time>2013-08-26T13:45:17Z</time>
      </trkpt>
      <trkpt lat="45.88097" lon="6.68754">
        <ele>1251.8</ele>
        <time>2013-08-26T13:45:18Z</time>
      </trkpt>
      <trkpt lat="45.88097" lon="6.68756">
        <ele>1252.3</ele>
        <time>2013-08-26T13:45:19Z</time>
      </trkpt>
      <trkpt lat="45.88097" lon="6.68758">
        <ele>1252.3</ele>
        <time>2013-08-26T13:45:20Z</time>
      </trkpt>
      <trkpt lat="45.88097" lon="6.6876">
        <ele>1252.3</ele>
        <time>2013-08-26T13:45:21Z</time>
      </trkpt>
      <trkpt lat="45.88096" lon="6.68763">
        <ele>1252.7</ele>
        <time>2013-08-26T13:45:22Z</time>
      </trkpt>
      <trkpt lat="45.88081" lon="6.6879">
        <ele>1255.6</ele>
        <time>2013-08-26T13:45:36Z</time>
      </trkpt>
      <trkpt lat="45.8807" lon="6.68824">
        <ele>1258.5</ele>
        <time>2013-08-26T13:45:51Z</time>
      </trkpt>
      <trkpt lat="45.88057" lon="6.68848">
        <ele>1260.9</ele>
        <time>2013-08-26T13:46:05Z</time>
      </trkpt>
      <trkpt lat="45.88055" lon="6.6885">
        <ele>1260.9</ele>
        <time>2013-08-26T13:46:06Z</time>
      </trkpt>
      <trkpt lat="45.8805" lon="6.68866">
        <ele>1262.8</ele>
        <time>2013-08-26T13:46:16Z</time>
      </trkpt>
      <trkpt lat="45.88051" lon="6.68866">
        <ele>1262.8</ele>
        <time>2013-08-26T13:46:17Z</time>
      </trkpt>
      <trkpt lat="45.88053" lon="6.68865">
        <ele>1262.4</ele>
        <time>2013-08-26T13:46:18Z</time>
      </trkpt>
      <trkpt lat="45.88054" lon="6.68864">
        <ele>1262.4</ele>
        <time>2013-08-26T13:46:19Z</time>
      </trkpt>
      <trkpt lat="45.88055" lon="6.68863">
        <ele>1261.9</ele>
        <time>2013-08-26T13:46:20Z</time>
      </trkpt>
      <trkpt lat="45.88056" lon="6.68862">
        <ele>1261.9</ele>
        <time>2013-08-26T13:46:21Z</time>
      </trkpt>
      <trkpt lat="45.88058" lon="6.68861">
        <ele>1261.4</ele>
        <time>2013-08-26T13:46:22Z</time>
      </trkpt>
      <trkpt lat="45.88059" lon="6.6886">
        <ele>1261.9</ele>
        <time>2013-08-26T13:46:23Z</time>
      </trkpt>
      <trkpt lat="45.88058" lon="6.68857">
        <ele>1261.4</ele>
        <time>2013-08-26T13:46:32Z</time>
      </trkpt>
      <trkpt lat="45.88058" lon="6.68859">
        <ele>1261.4</ele>
        <time>2013-08-26T13:46:33Z</time>
      </trkpt>
      <trkpt lat="45.88048" lon="6.68874">
        <ele>1263.3</ele>
        <time>2013-08-26T13:46:44Z</time>
      </trkpt>
      <trkpt lat="45.88022" lon="6.68901">
        <ele>1266.7</ele>
        <time>2013-08-26T13:47:00Z</time>
      </trkpt>
      <trkpt lat="45.87999" lon="6.68924">
        <ele>1269.6</ele>
        <time>2013-08-26T13:47:16Z</time>
      </trkpt>
      <trkpt lat="45.87979" lon="6.68942">
        <ele>1272.9</ele>
        <time>2013-08-26T13:47:31Z</time>
      </trkpt>
      <trkpt lat="45.87957" lon="6.68971">
        <ele>1275.8</ele>
        <time>2013-08-26T13:47:49Z</time>
      </trkpt>
      <trkpt lat="45.8794" lon="6.68996">
        <ele>1277.7</ele>
        <time>2013-08-26T13:48:02Z</time>
      </trkpt>
      <trkpt lat="45.87934" lon="6.69001">
        <ele>1278.2</ele>
        <time>2013-08-26T13:48:06Z</time>
      </trkpt>
      <trkpt lat="45.87933" lon="6.69">
        <ele>1279.2</ele>
        <time>2013-08-26T13:48:07Z</time>
      </trkpt>
      <trkpt lat="45.87932" lon="6.68999">
        <ele>1279.2</ele>
        <time>2013-08-26T13:48:08Z</time>
      </trkpt>
      <trkpt lat="45.87932" lon="6.68996">
        <ele>1279.7</ele>
        <time>2013-08-26T13:48:09Z</time>
      </trkpt>
      <trkpt lat="45.87932" lon="6.68993">
        <ele>1279.7</ele>
        <time>2013-08-26T13:48:10Z</time>
      </trkpt>
      <trkpt lat="45.87937" lon="6.6896">
        <ele>1281.6</ele>
        <time>2013-08-26T13:48:22Z</time>
      </trkpt>
      <trkpt lat="45.87935" lon="6.68908">
        <ele>1284.9</ele>
        <time>2013-08-26T13:48:41Z</time>
      </trkpt>
      <trkpt lat="45.87939" lon="6.68869">
        <ele>1287.3</ele>
        <time>2013-08-26T13:48:57Z</time>
      </trkpt>
      <trkpt lat="45.87942" lon="6.68838">
        <ele>1290.2</ele>
        <time>2013-08-26T13:49:11Z</time>
      </trkpt>
      <trkpt lat="45.87942" lon="6.68836">
        <ele>1290.2</ele>
        <time>2013-08-26T13:49:12Z</time>
      </trkpt>
      <trkpt lat="45.87942" lon="6.68833">
        <ele>1290.7</ele>
        <time>2013-08-26T13:49:13Z</time>
      </trkpt>
      <trkpt lat="45.87943" lon="6.68831">
        <ele>1290.7</ele>
        <time>2013-08-26T13:49:14Z</time>
      </trkpt>
      <trkpt lat="45.87943" lon="6.68828">
        <ele>1290.7</ele>
        <time>2013-08-26T13:49:15Z</time>
      </trkpt>
      <trkpt lat="45.87943" lon="6.68826">
        <ele>1291.2</ele>
        <time>2013-08-26T13:49:16Z</time>
      </trkpt>
      <trkpt lat="45.87944" lon="6.68824">
        <ele>1291.2</ele>
        <time>2013-08-26T13:49:17Z</time>
      </trkpt>
      <trkpt lat="45.87942" lon="6.68797">
        <ele>1293.6</ele>
        <time>2013-08-26T13:49:30Z</time>
      </trkpt>
      <trkpt lat="45.8794" lon="6.68793">
        <ele>1293.6</ele>
        <time>2013-08-26T13:49:32Z</time>
      </trkpt>
      <trkpt lat="45.87939" lon="6.68791">
        <ele>1294.1</ele>
        <time>2013-08-26T13:49:33Z</time>
      </trkpt>
      <trkpt lat="45.87938" lon="6.68788">
        <ele>1294.1</ele>
        <time>2013-08-26T13:49:34Z</time>
      </trkpt>
      <trkpt lat="45.87937" lon="6.68786">
        <ele>1294.1</ele>
        <time>2013-08-26T13:49:35Z</time>
      </trkpt>
      <trkpt lat="45.87936" lon="6.68783">
        <ele>1294.6</ele>
        <time>2013-08-26T13:49:36Z</time>
      </trkpt>
      <trkpt lat="45.87935" lon="6.68781">
        <ele>1295</ele>
        <time>2013-08-26T13:49:37Z</time>
      </trkpt>
      <trkpt lat="45.87932" lon="6.68769">
        <ele>1295.5</ele>
        <time>2013-08-26T13:49:42Z</time>
      </trkpt>
      <trkpt lat="45.87932" lon="6.68767">
        <ele>1295.5</ele>
        <time>2013-08-26T13:49:43Z</time>
      </trkpt>
      <trkpt lat="45.87931" lon="6.68755">
        <ele>1297</ele>
        <time>2013-08-26T13:49:49Z</time>
      </trkpt>
      <trkpt lat="45.87928" lon="6.68723">
        <ele>1298.9</ele>
        <time>2013-08-26T13:50:03Z</time>
      </trkpt>
      <trkpt lat="45.87924" lon="6.68703">
        <ele>1300.8</ele>
        <time>2013-08-26T13:50:12Z</time>
      </trkpt>
      <trkpt lat="45.87922" lon="6.68699">
        <ele>1300.8</ele>
        <time>2013-08-26T13:50:14Z</time>
      </trkpt>
      <trkpt lat="45.87921" lon="6.68697">
        <ele>1300.8</ele>
        <time>2013-08-26T13:50:15Z</time>
      </trkpt>
      <trkpt lat="45.87918" lon="6.68696">
        <ele>1301.3</ele>
        <time>2013-08-26T13:50:16Z</time>
      </trkpt>
      <trkpt lat="45.87916" lon="6.68695">
        <ele>1301.3</ele>
        <time>2013-08-26T13:50:17Z</time>
      </trkpt>
      <trkpt lat="45.87913" lon="6.68694">
        <ele>1301.8</ele>
        <time>2013-08-26T13:50:19Z</time>
      </trkpt>
      <trkpt lat="45.87907" lon="6.68722">
        <ele>1302.7</ele>
        <time>2013-08-26T13:50:32Z</time>
      </trkpt>
      <trkpt lat="45.87893" lon="6.68755">
        <ele>1306.1</ele>
        <time>2013-08-26T13:50:45Z</time>
      </trkpt>
      <trkpt lat="45.87892" lon="6.68757">
        <ele>1305.6</ele>
        <time>2013-08-26T13:50:46Z</time>
      </trkpt>
      <trkpt lat="45.87892" lon="6.6876">
        <ele>1305.6</ele>
        <time>2013-08-26T13:50:47Z</time>
      </trkpt>
      <trkpt lat="45.8789" lon="6.68763">
        <ele>1306.1</ele>
        <time>2013-08-26T13:50:48Z</time>
      </trkpt>
      <trkpt lat="45.87889" lon="6.68765">
        <ele>1306.1</ele>
        <time>2013-08-26T13:50:49Z</time>
      </trkpt>
      <trkpt lat="45.87887" lon="6.68768">
        <ele>1307.1</ele>
        <time>2013-08-26T13:50:50Z</time>
      </trkpt>
      <trkpt lat="45.87861" lon="6.68792">
        <ele>1309.5</ele>
        <time>2013-08-26T13:51:06Z</time>
      </trkpt>
      <trkpt lat="45.87842" lon="6.68816">
        <ele>1312.8</ele>
        <time>2013-08-26T13:51:22Z</time>
      </trkpt>
      <trkpt lat="45.87821" lon="6.68839">
        <ele>1315.7</ele>
        <time>2013-08-26T13:51:37Z</time>
      </trkpt>
      <trkpt lat="45.87805" lon="6.68862">
        <ele>1318.6</ele>
        <time>2013-08-26T13:51:52Z</time>
      </trkpt>
      <trkpt lat="45.87786" lon="6.68865">
        <ele>1321</ele>
        <time>2013-08-26T13:52:04Z</time>
      </trkpt>
      <trkpt lat="45.87785" lon="6.68864">
        <ele>1321</ele>
        <time>2013-08-26T13:52:05Z</time>
      </trkpt>
      <trkpt lat="45.87763" lon="6.68847">
        <ele>1324.4</ele>
        <time>2013-08-26T13:52:23Z</time>
      </trkpt>
      <trkpt lat="45.87742" lon="6.68859">
        <ele>1327.2</ele>
        <time>2013-08-26T13:52:38Z</time>
      </trkpt>
      <trkpt lat="45.87718" lon="6.68875">
        <ele>1330.1</ele>
        <time>2013-08-26T13:52:52Z</time>
      </trkpt>
      <trkpt lat="45.87712" lon="6.68879">
        <ele>1330.1</ele>
        <time>2013-08-26T13:52:57Z</time>
      </trkpt>
      <trkpt lat="45.87711" lon="6.68879">
        <ele>1331.1</ele>
        <time>2013-08-26T13:52:58Z</time>
      </trkpt>
      <trkpt lat="45.87708" lon="6.6888">
        <ele>1331.6</ele>
        <time>2013-08-26T13:53:01Z</time>
      </trkpt>
      <trkpt lat="45.87706" lon="6.6888">
        <ele>1332</ele>
        <time>2013-08-26T13:53:02Z</time>
      </trkpt>
      <trkpt lat="45.87705" lon="6.6888">
        <ele>1331.1</ele>
        <time>2013-08-26T13:53:03Z</time>
      </trkpt>
      <trkpt lat="45.87703" lon="6.68881">
        <ele>1331.6</ele>
        <time>2013-08-26T13:53:04Z</time>
      </trkpt>
      <trkpt lat="45.87702" lon="6.68882">
        <ele>1332</ele>
        <time>2013-08-26T13:53:05Z</time>
      </trkpt>
      <trkpt lat="45.87701" lon="6.68882">
        <ele>1333</ele>
        <time>2013-08-26T13:53:06Z</time>
      </trkpt>
      <trkpt lat="45.87699" lon="6.68883">
        <ele>1333.5</ele>
        <time>2013-08-26T13:53:08Z</time>
      </trkpt>
      <trkpt lat="45.87697" lon="6.68883">
        <ele>1333</ele>
        <time>2013-08-26T13:53:09Z</time>
      </trkpt>
      <trkpt lat="45.87695" lon="6.68883">
        <ele>1333.5</ele>
        <time>2013-08-26T13:53:10Z</time>
      </trkpt>
      <trkpt lat="45.87689" lon="6.68887">
        <ele>1334</ele>
        <time>2013-08-26T13:53:17Z</time>
      </trkpt>
      <trkpt lat="45.87685" lon="6.68887">
        <ele>1334.5</ele>
        <time>2013-08-26T13:53:20Z</time>
      </trkpt>
      <trkpt lat="45.87684" lon="6.68886">
        <ele>1334.9</ele>
        <time>2013-08-26T13:53:21Z</time>
      </trkpt>
      <trkpt lat="45.87682" lon="6.68885">
        <ele>1335.4</ele>
        <time>2013-08-26T13:53:22Z</time>
      </trkpt>
      <trkpt lat="45.8768" lon="6.68885">
        <ele>1334.9</ele>
        <time>2013-08-26T13:53:23Z</time>
      </trkpt>
      <trkpt lat="45.87679" lon="6.68885">
        <ele>1335.4</ele>
        <time>2013-08-26T13:53:24Z</time>
      </trkpt>
      <trkpt lat="45.87675" lon="6.68888">
        <ele>1335.4</ele>
        <time>2013-08-26T13:53:27Z</time>
      </trkpt>
      <trkpt lat="45.87674" lon="6.68889">
        <ele>1335.9</ele>
        <time>2013-08-26T13:53:28Z</time>
      </trkpt>
      <trkpt lat="45.87669" lon="6.68891">
        <ele>1337.3</ele>
        <time>2013-08-26T13:53:31Z</time>
      </trkpt>
      <trkpt lat="45.87647" lon="6.68911">
        <ele>1340.2</ele>
        <time>2013-08-26T13:53:48Z</time>
      </trkpt>
      <trkpt lat="45.87632" lon="6.68922">
        <ele>1341.7</ele>
        <time>2013-08-26T13:54:00Z</time>
      </trkpt>
      <trkpt lat="45.87619" lon="6.68917">
        <ele>1344.5</ele>
        <time>2013-08-26T13:54:12Z</time>
      </trkpt>
      <trkpt lat="45.87606" lon="6.68912">
        <ele>1346</ele>
        <time>2013-08-26T13:54:24Z</time>
      </trkpt>
      <trkpt lat="45.87605" lon="6.68913">
        <ele>1346</ele>
        <time>2013-08-26T13:54:25Z</time>
      </trkpt>
      <trkpt lat="45.87604" lon="6.68912">
        <ele>1346</ele>
        <time>2013-08-26T13:54:26Z</time>
      </trkpt>
      <trkpt lat="45.87602" lon="6.68911">
        <ele>1346.5</ele>
        <time>2013-08-26T13:54:27Z</time>
      </trkpt>
      <trkpt lat="45.87601" lon="6.68909">
        <ele>1346.5</ele>
        <time>2013-08-26T13:54:28Z</time>
      </trkpt>
      <trkpt lat="45.876" lon="6.68908">
        <ele>1346.9</ele>
        <time>2013-08-26T13:54:29Z</time>
      </trkpt>
      <trkpt lat="45.87594" lon="6.68899">
        <ele>1346.9</ele>
        <time>2013-08-26T13:54:35Z</time>
      </trkpt>
      <trkpt lat="45.87591" lon="6.68892">
        <ele>1347.9</ele>
        <time>2013-08-26T13:54:38Z</time>
      </trkpt>
      <trkpt lat="45.8759" lon="6.6889">
        <ele>1347.9</ele>
        <time>2013-08-26T13:54:40Z</time>
      </trkpt>
      <trkpt lat="45.87585" lon="6.68883">
        <ele>1349.4</ele>
        <time>2013-08-26T13:54:45Z</time>
      </trkpt>
      <trkpt lat="45.87558" lon="6.68885">
        <ele>1350.8</ele>
        <time>2013-08-26T13:54:59Z</time>
      </trkpt>
      <trkpt lat="45.87549" lon="6.68888">
        <ele>1351.8</ele>
        <time>2013-08-26T13:55:04Z</time>
      </trkpt>
      <trkpt lat="45.87525" lon="6.68902">
        <ele>1354.6</ele>
        <time>2013-08-26T13:55:18Z</time>
      </trkpt>
      <trkpt lat="45.87511" lon="6.68912">
        <ele>1356.6</ele>
        <time>2013-08-26T13:55:27Z</time>
      </trkpt>
      <trkpt lat="45.87485" lon="6.68914">
        <ele>1359</ele>
        <time>2013-08-26T13:55:44Z</time>
      </trkpt>
      <trkpt lat="45.87459" lon="6.68912">
        <ele>1361.4</ele>
        <time>2013-08-26T13:55:58Z</time>
      </trkpt>
      <trkpt lat="45.87437" lon="6.68914">
        <ele>1362.8</ele>
        <time>2013-08-26T13:56:10Z</time>
      </trkpt>
      <trkpt lat="45.87415" lon="6.68898">
        <ele>1365.7</ele>
        <time>2013-08-26T13:56:26Z</time>
      </trkpt>
      <trkpt lat="45.87423" lon="6.68874">
        <ele>1368.6</ele>
        <time>2013-08-26T13:56:39Z</time>
      </trkpt>
      <trkpt lat="45.87432" lon="6.68852">
        <ele>1370</ele>
        <time>2013-08-26T13:56:51Z</time>
      </trkpt>
      <trkpt lat="45.87433" lon="6.68851">
        <ele>1369.1</ele>
        <time>2013-08-26T13:56:52Z</time>
      </trkpt>
      <trkpt lat="45.87433" lon="6.68849">
        <ele>1370</ele>
        <time>2013-08-26T13:56:53Z</time>
      </trkpt>
      <trkpt lat="45.87433" lon="6.68848">
        <ele>1370</ele>
        <time>2013-08-26T13:56:54Z</time>
      </trkpt>
      <trkpt lat="45.87432" lon="6.68846">
        <ele>1369.5</ele>
        <time>2013-08-26T13:56:55Z</time>
      </trkpt>
      <trkpt lat="45.87432" lon="6.68844">
        <ele>1371</ele>
        <time>2013-08-26T13:56:56Z</time>
      </trkpt>
      <trkpt lat="45.87431" lon="6.68842">
        <ele>1369.5</ele>
        <time>2013-08-26T13:56:57Z</time>
      </trkpt>
      <trkpt lat="45.87431" lon="6.6884">
        <ele>1371</ele>
        <time>2013-08-26T13:56:58Z</time>
      </trkpt>
      <trkpt lat="45.87436" lon="6.68809">
        <ele>1372.9</ele>
        <time>2013-08-26T13:57:12Z</time>
      </trkpt>
      <trkpt lat="45.87452" lon="6.68774">
        <ele>1375.3</ele>
        <time>2013-08-26T13:57:27Z</time>
      </trkpt>
      <trkpt lat="45.87457" lon="6.68747">
        <ele>1376.8</ele>
        <time>2013-08-26T13:57:37Z</time>
      </trkpt>
      <trkpt lat="45.87458" lon="6.68744">
        <ele>1376.3</ele>
        <time>2013-08-26T13:57:38Z</time>
      </trkpt>
      <trkpt lat="45.87459" lon="6.68741">
        <ele>1377.2</ele>
        <time>2013-08-26T13:57:39Z</time>
      </trkpt>
      <trkpt lat="45.8746" lon="6.68739">
        <ele>1377.2</ele>
        <time>2013-08-26T13:57:40Z</time>
      </trkpt>
      <trkpt lat="45.8746" lon="6.68736">
        <ele>1376.8</ele>
        <time>2013-08-26T13:57:41Z</time>
      </trkpt>
      <trkpt lat="45.87473" lon="6.68694">
        <ele>1380.6</ele>
        <time>2013-08-26T13:57:59Z</time>
      </trkpt>
      <trkpt lat="45.87483" lon="6.68664">
        <ele>1383.5</ele>
        <time>2013-08-26T13:58:14Z</time>
      </trkpt>
      <trkpt lat="45.87483" lon="6.6866">
        <ele>1383</ele>
        <time>2013-08-26T13:58:16Z</time>
      </trkpt>
      <trkpt lat="45.87492" lon="6.68632">
        <ele>1386.4</ele>
        <time>2013-08-26T13:58:30Z</time>
      </trkpt>
      <trkpt lat="45.87497" lon="6.68602">
        <ele>1390.2</ele>
        <time>2013-08-26T13:58:45Z</time>
      </trkpt>
      <trkpt lat="45.87497" lon="6.68598">
        <ele>1388.8</ele>
        <time>2013-08-26T13:58:47Z</time>
      </trkpt>
      <trkpt lat="45.87497" lon="6.68597">
        <ele>1389.7</ele>
        <time>2013-08-26T13:58:48Z</time>
      </trkpt>
      <trkpt lat="45.875" lon="6.68592">
        <ele>1390.2</ele>
        <time>2013-08-26T13:58:51Z</time>
      </trkpt>
      <trkpt lat="45.87501" lon="6.6859">
        <ele>1389.2</ele>
        <time>2013-08-26T13:58:52Z</time>
      </trkpt>
      <trkpt lat="45.87501" lon="6.68588">
        <ele>1389.2</ele>
        <time>2013-08-26T13:58:53Z</time>
      </trkpt>
      <trkpt lat="45.87506" lon="6.68571">
        <ele>1392.1</ele>
        <time>2013-08-26T13:59:01Z</time>
      </trkpt>
      <trkpt lat="45.87507" lon="6.68567">
        <ele>1390.7</ele>
        <time>2013-08-26T13:59:03Z</time>
      </trkpt>
      <trkpt lat="45.87507" lon="6.68559">
        <ele>1393.6</ele>
        <time>2013-08-26T13:59:07Z</time>
      </trkpt>
      <trkpt lat="45.87514" lon="6.68528">
        <ele>1396</ele>
        <time>2013-08-26T13:59:24Z</time>
      </trkpt>
      <trkpt lat="45.87512" lon="6.68525">
        <ele>1396</ele>
        <time>2013-08-26T13:59:27Z</time>
      </trkpt>
      <trkpt lat="45.8751" lon="6.68524">
        <ele>1396.5</ele>
        <time>2013-08-26T13:59:28Z</time>
      </trkpt>
      <trkpt lat="45.87484" lon="6.68528">
        <ele>1398.4</ele>
        <time>2013-08-26T13:59:44Z</time>
      </trkpt>
      <trkpt lat="45.87482" lon="6.6853">
        <ele>1398.4</ele>
        <time>2013-08-26T13:59:46Z</time>
      </trkpt>
      <trkpt lat="45.87481" lon="6.6853">
        <ele>1397.9</ele>
        <time>2013-08-26T13:59:47Z</time>
      </trkpt>
      <trkpt lat="45.87479" lon="6.68533">
        <ele>1396.9</ele>
        <time>2013-08-26T13:59:49Z</time>
      </trkpt>
      <trkpt lat="45.87478" lon="6.68534">
        <ele>1397.9</ele>
        <time>2013-08-26T13:59:50Z</time>
      </trkpt>
      <trkpt lat="45.87477" lon="6.68537">
        <ele>1398.9</ele>
        <time>2013-08-26T13:59:51Z</time>
      </trkpt>
      <trkpt lat="45.87476" lon="6.6854">
        <ele>1398.9</ele>
        <time>2013-08-26T13:59:52Z</time>
      </trkpt>
      <trkpt lat="45.87471" lon="6.68553">
        <ele>1398.9</ele>
        <time>2013-08-26T13:59:57Z</time>
      </trkpt>
      <trkpt lat="45.87469" lon="6.68555">
        <ele>1397.9</ele>
        <time>2013-08-26T13:59:58Z</time>
      </trkpt>
      <trkpt lat="45.87467" lon="6.68559">
        <ele>1399.3</ele>
        <time>2013-08-26T14:00:00Z</time>
      </trkpt>
      <trkpt lat="45.87466" lon="6.68571">
        <ele>1400.3</ele>
        <time>2013-08-26T14:00:12Z</time>
      </trkpt>
      <trkpt lat="45.87468" lon="6.68569">
        <ele>1399.8</ele>
        <time>2013-08-26T14:00:25Z</time>
      </trkpt>
      <trkpt lat="45.87467" lon="6.68569">
        <ele>1399.8</ele>
        <time>2013-08-26T14:00:38Z</time>
      </trkpt>
      <trkpt lat="45.87467" lon="6.68569">
        <ele>1401.7</ele>
        <time>2013-08-26T14:00:39Z</time>
      </trkpt>
      <trkpt lat="45.87467" lon="6.68569">
        <ele>1400.3</ele>
        <time>2013-08-26T14:00:40Z</time>
      </trkpt>
      <trkpt lat="45.87467" lon="6.68568">
        <ele>1399.8</ele>
        <time>2013-08-26T14:00:42Z</time>
      </trkpt>
      <trkpt lat="45.87467" lon="6.68568">
        <ele>1400.8</ele>
        <time>2013-08-26T14:00:43Z</time>
      </trkpt>
      <trkpt lat="45.87466" lon="6.68568">
        <ele>1401.7</ele>
        <time>2013-08-26T14:00:45Z</time>
      </trkpt>
      <trkpt lat="45.87466" lon="6.68568">
        <ele>1399.8</ele>
        <time>2013-08-26T14:00:46Z</time>
      </trkpt>
      <trkpt lat="45.87462" lon="6.68567">
        <ele>1401.3</ele>
        <time>2013-08-26T14:00:57Z</time>
      </trkpt>
      <trkpt lat="45.8746" lon="6.68572">
        <ele>1399.8</ele>
        <time>2013-08-26T14:01:07Z</time>
      </trkpt>
      <trkpt lat="45.87451" lon="6.68575">
        <ele>1401.3</ele>
        <time>2013-08-26T14:01:19Z</time>
      </trkpt>
      <trkpt lat="45.87447" lon="6.68575">
        <ele>1401.7</ele>
        <time>2013-08-26T14:01:24Z</time>
      </trkpt>
      <trkpt lat="45.87444" lon="6.68573">
        <ele>1401.3</ele>
        <time>2013-08-26T14:01:28Z</time>
      </trkpt>
      <trkpt lat="45.87442" lon="6.68572">
        <ele>1402.7</ele>
        <time>2013-08-26T14:01:31Z</time>
      </trkpt>
      <trkpt lat="45.87435" lon="6.68569">
        <ele>1402.7</ele>
        <time>2013-08-26T14:01:46Z</time>
      </trkpt>
      <trkpt lat="45.87437" lon="6.68579">
        <ele>1401.7</ele>
        <time>2013-08-26T14:01:58Z</time>
      </trkpt>
      <trkpt lat="45.87442" lon="6.68574">
        <ele>1402.7</ele>
        <time>2013-08-26T14:02:23Z</time>
      </trkpt>
      <trkpt lat="45.87431" lon="6.68581">
        <ele>1403.2</ele>
        <time>2013-08-26T14:02:36Z</time>
      </trkpt>
      <trkpt lat="45.8743" lon="6.68581">
        <ele>1404.1</ele>
        <time>2013-08-26T14:02:45Z</time>
      </trkpt>
      <trkpt lat="45.8743" lon="6.68581">
        <ele>1404.1</ele>
        <time>2013-08-26T14:02:46Z</time>
      </trkpt>
      <trkpt lat="45.8743" lon="6.68581">
        <ele>1385.4</ele>
        <time>2013-08-26T14:34:24Z</time>
      </trkpt>
      <trkpt lat="45.87307" lon="6.68695">
        <ele>1388.8</ele>
        <time>2013-08-26T14:34:38Z</time>
      </trkpt>
      <trkpt lat="45.87307" lon="6.68694">
        <ele>1388.8</ele>
        <time>2013-08-26T14:34:39Z</time>
      </trkpt>
      <trkpt lat="45.87306" lon="6.68694">
        <ele>1390.7</ele>
        <time>2013-08-26T14:34:45Z</time>
      </trkpt>
      <trkpt lat="45.8728" lon="6.68695">
        <ele>1394.1</ele>
        <time>2013-08-26T14:34:54Z</time>
      </trkpt>
      <trkpt lat="45.87276" lon="6.68694">
        <ele>1394.1</ele>
        <time>2013-08-26T14:34:55Z</time>
      </trkpt>
      <trkpt lat="45.87264" lon="6.68688">
        <ele>1395.5</ele>
        <time>2013-08-26T14:34:58Z</time>
      </trkpt>
      <trkpt lat="45.87256" lon="6.68683">
        <ele>1396</ele>
        <time>2013-08-26T14:35:00Z</time>
      </trkpt>
      <trkpt lat="45.87252" lon="6.68681">
        <ele>1396.9</ele>
        <time>2013-08-26T14:35:01Z</time>
      </trkpt>
      <trkpt lat="45.87243" lon="6.68679">
        <ele>1397.9</ele>
        <time>2013-08-26T14:35:03Z</time>
      </trkpt>
      <trkpt lat="45.87239" lon="6.68679">
        <ele>1398.4</ele>
        <time>2013-08-26T14:35:04Z</time>
      </trkpt>
      <trkpt lat="45.87235" lon="6.68679">
        <ele>1398.4</ele>
        <time>2013-08-26T14:35:05Z</time>
      </trkpt>
      <trkpt lat="45.87206" lon="6.68688">
        <ele>1401.3</ele>
        <time>2013-08-26T14:35:15Z</time>
      </trkpt>
      <trkpt lat="45.87186" lon="6.68702">
        <ele>1404.1</ele>
        <time>2013-08-26T14:35:23Z</time>
      </trkpt>
      <trkpt lat="45.87159" lon="6.68723">
        <ele>1406.6</ele>
        <time>2013-08-26T14:35:36Z</time>
      </trkpt>
      <trkpt lat="45.87129" lon="6.68714">
        <ele>1408.5</ele>
        <time>2013-08-26T14:35:47Z</time>
      </trkpt>
      <trkpt lat="45.87109" lon="6.68694">
        <ele>1411.8</ele>
        <time>2013-08-26T14:35:59Z</time>
      </trkpt>
      <trkpt lat="45.87094" lon="6.68672">
        <ele>1414.2</ele>
        <time>2013-08-26T14:36:09Z</time>
      </trkpt>
      <trkpt lat="45.8708" lon="6.68651">
        <ele>1417.1</ele>
        <time>2013-08-26T14:36:20Z</time>
      </trkpt>
      <trkpt lat="45.87074" lon="6.68643">
        <ele>1418.6</ele>
        <time>2013-08-26T14:36:25Z</time>
      </trkpt>
      <trkpt lat="45.87072" lon="6.68643">
        <ele>1418.6</ele>
        <time>2013-08-26T14:36:26Z</time>
      </trkpt>
      <trkpt lat="45.87071" lon="6.68641">
        <ele>1418.1</ele>
        <time>2013-08-26T14:36:27Z</time>
      </trkpt>
      <trkpt lat="45.87058" lon="6.68628">
        <ele>1419</ele>
        <time>2013-08-26T14:36:36Z</time>
      </trkpt>
      <trkpt lat="45.87057" lon="6.68626">
        <ele>1419.5</ele>
        <time>2013-08-26T14:36:37Z</time>
      </trkpt>
      <trkpt lat="45.87035" lon="6.68599">
        <ele>1419.5</ele>
        <time>2013-08-26T14:36:48Z</time>
      </trkpt>
      <trkpt lat="45.87023" lon="6.68582">
        <ele>1419.5</ele>
        <time>2013-08-26T14:36:56Z</time>
      </trkpt>
      <trkpt lat="45.8699" lon="6.68566">
        <ele>1421.9</ele>
        <time>2013-08-26T14:37:07Z</time>
      </trkpt>
      <trkpt lat="45.86958" lon="6.6853">
        <ele>1423.9</ele>
        <time>2013-08-26T14:37:23Z</time>
      </trkpt>
      <trkpt lat="45.86931" lon="6.68503">
        <ele>1423.4</ele>
        <time>2013-08-26T14:37:34Z</time>
      </trkpt>
      <trkpt lat="45.86912" lon="6.6849">
        <ele>1421</ele>
        <time>2013-08-26T14:37:38Z</time>
      </trkpt>
      <trkpt lat="45.86906" lon="6.68488">
        <ele>1421</ele>
        <time>2013-08-26T14:37:39Z</time>
      </trkpt>
      <trkpt lat="45.869" lon="6.68486">
        <ele>1420.5</ele>
        <time>2013-08-26T14:37:40Z</time>
      </trkpt>
      <trkpt lat="45.86894" lon="6.68483">
        <ele>1420.5</ele>
        <time>2013-08-26T14:37:41Z</time>
      </trkpt>
      <trkpt lat="45.86875" lon="6.68475">
        <ele>1419</ele>
        <time>2013-08-26T14:37:44Z</time>
      </trkpt>
      <trkpt lat="45.86852" lon="6.68467">
        <ele>1418.1</ele>
        <time>2013-08-26T14:37:48Z</time>
      </trkpt>
      <trkpt lat="45.86849" lon="6.68461">
        <ele>1417.1</ele>
        <time>2013-08-26T14:37:49Z</time>
      </trkpt>
      <trkpt lat="45.86847" lon="6.68455">
        <ele>1417.6</ele>
        <time>2013-08-26T14:37:50Z</time>
      </trkpt>
      <trkpt lat="45.86846" lon="6.68448">
        <ele>1417.1</ele>
        <time>2013-08-26T14:37:51Z</time>
      </trkpt>
      <trkpt lat="45.86844" lon="6.68441">
        <ele>1416.6</ele>
        <time>2013-08-26T14:37:52Z</time>
      </trkpt>
      <trkpt lat="45.86843" lon="6.68433">
        <ele>1416.6</ele>
        <time>2013-08-26T14:37:53Z</time>
      </trkpt>
      <trkpt lat="45.86841" lon="6.68418">
        <ele>1415.7</ele>
        <time>2013-08-26T14:37:55Z</time>
      </trkpt>
      <trkpt lat="45.86839" lon="6.68412">
        <ele>1416.2</ele>
        <time>2013-08-26T14:37:56Z</time>
      </trkpt>
      <trkpt lat="45.86836" lon="6.68409">
        <ele>1416.2</ele>
        <time>2013-08-26T14:37:57Z</time>
      </trkpt>
      <trkpt lat="45.86831" lon="6.68408">
        <ele>1416.2</ele>
        <time>2013-08-26T14:37:58Z</time>
      </trkpt>
      <trkpt lat="45.86826" lon="6.68409">
        <ele>1416.2</ele>
        <time>2013-08-26T14:37:59Z</time>
      </trkpt>
      <trkpt lat="45.86822" lon="6.68414">
        <ele>1415.7</ele>
        <time>2013-08-26T14:38:00Z</time>
      </trkpt>
      <trkpt lat="45.86821" lon="6.68421">
        <ele>1416.2</ele>
        <time>2013-08-26T14:38:01Z</time>
      </trkpt>
      <trkpt lat="45.86821" lon="6.68425">
        <ele>1415.7</ele>
        <time>2013-08-26T14:38:02Z</time>
      </trkpt>
      <trkpt lat="45.86821" lon="6.68429">
        <ele>1416.2</ele>
        <time>2013-08-26T14:38:03Z</time>
      </trkpt>
      <trkpt lat="45.8682" lon="6.68433">
        <ele>1416.2</ele>
        <time>2013-08-26T14:38:04Z</time>
      </trkpt>
      <trkpt lat="45.86819" lon="6.68436">
        <ele>1416.6</ele>
        <time>2013-08-26T14:38:05Z</time>
      </trkpt>
      <trkpt lat="45.86818" lon="6.68439">
        <ele>1416.2</ele>
        <time>2013-08-26T14:38:06Z</time>
      </trkpt>
      <trkpt lat="45.86816" lon="6.68443">
        <ele>1416.2</ele>
        <time>2013-08-26T14:38:07Z</time>
      </trkpt>
      <trkpt lat="45.8679" lon="6.6847">
        <ele>1415.2</ele>
        <time>2013-08-26T14:38:15Z</time>
      </trkpt>
      <trkpt lat="45.86785" lon="6.68472">
        <ele>1415.7</ele>
        <time>2013-08-26T14:38:16Z</time>
      </trkpt>
      <trkpt lat="45.86781" lon="6.68474">
        <ele>1415.7</ele>
        <time>2013-08-26T14:38:17Z</time>
      </trkpt>
      <trkpt lat="45.86776" lon="6.68475">
        <ele>1416.2</ele>
        <time>2013-08-26T14:38:18Z</time>
      </trkpt>
      <trkpt lat="45.86772" lon="6.68476">
        <ele>1416.2</ele>
        <time>2013-08-26T14:38:19Z</time>
      </trkpt>
      <trkpt lat="45.86767" lon="6.68477">
        <ele>1416.2</ele>
        <time>2013-08-26T14:38:20Z</time>
      </trkpt>
      <trkpt lat="45.86764" lon="6.68478">
        <ele>1416.2</ele>
        <time>2013-08-26T14:38:21Z</time>
      </trkpt>
      <trkpt lat="45.86758" lon="6.6848">
        <ele>1417.6</ele>
        <time>2013-08-26T14:38:23Z</time>
      </trkpt>
      <trkpt lat="45.86725" lon="6.68499">
        <ele>1418.6</ele>
        <time>2013-08-26T14:38:35Z</time>
      </trkpt>
      <trkpt lat="45.86695" lon="6.68504">
        <ele>1421</ele>
        <time>2013-08-26T14:38:47Z</time>
      </trkpt>
      <trkpt lat="45.86677" lon="6.6851">
        <ele>1421.9</ele>
        <time>2013-08-26T14:38:58Z</time>
      </trkpt>
      <trkpt lat="45.86675" lon="6.68511">
        <ele>1422.9</ele>
        <time>2013-08-26T14:39:16Z</time>
      </trkpt>
      <trkpt lat="45.86675" lon="6.68506">
        <ele>1422.9</ele>
        <time>2013-08-26T14:39:29Z</time>
      </trkpt>
      <trkpt lat="45.86675" lon="6.68503">
        <ele>1422.4</ele>
        <time>2013-08-26T14:39:31Z</time>
      </trkpt>
      <trkpt lat="45.86674" lon="6.68502">
        <ele>1423.4</ele>
        <time>2013-08-26T14:39:32Z</time>
      </trkpt>
      <trkpt lat="45.86672" lon="6.68501">
        <ele>1423.4</ele>
        <time>2013-08-26T14:39:33Z</time>
      </trkpt>
      <trkpt lat="45.86671" lon="6.685">
        <ele>1423.4</ele>
        <time>2013-08-26T14:39:34Z</time>
      </trkpt>
      <trkpt lat="45.86669" lon="6.685">
        <ele>1423.4</ele>
        <time>2013-08-26T14:39:35Z</time>
      </trkpt>
      <trkpt lat="45.86668" lon="6.68501">
        <ele>1423.9</ele>
        <time>2013-08-26T14:39:36Z</time>
      </trkpt>
      <trkpt lat="45.86667" lon="6.68501">
        <ele>1423.9</ele>
        <time>2013-08-26T14:39:37Z</time>
      </trkpt>
      <trkpt lat="45.86665" lon="6.68501">
        <ele>1423.9</ele>
        <time>2013-08-26T14:39:38Z</time>
      </trkpt>
      <trkpt lat="45.86663" lon="6.685">
        <ele>1424.3</ele>
        <time>2013-08-26T14:39:39Z</time>
      </trkpt>
      <trkpt lat="45.86661" lon="6.68499">
        <ele>1424.3</ele>
        <time>2013-08-26T14:39:40Z</time>
      </trkpt>
      <trkpt lat="45.8666" lon="6.68499">
        <ele>1425.3</ele>
        <time>2013-08-26T14:39:41Z</time>
      </trkpt>
      <trkpt lat="45.86658" lon="6.68498">
        <ele>1425.3</ele>
        <time>2013-08-26T14:39:42Z</time>
      </trkpt>
      <trkpt lat="45.86656" lon="6.68499">
        <ele>1426.3</ele>
        <time>2013-08-26T14:39:43Z</time>
      </trkpt>
      <trkpt lat="45.86654" lon="6.68498">
        <ele>1426.3</ele>
        <time>2013-08-26T14:39:44Z</time>
      </trkpt>
      <trkpt lat="45.86653" lon="6.68498">
        <ele>1426.3</ele>
        <time>2013-08-26T14:39:45Z</time>
      </trkpt>
      <trkpt lat="45.86651" lon="6.68497">
        <ele>1426.7</ele>
        <time>2013-08-26T14:39:46Z</time>
      </trkpt>
      <trkpt lat="45.8665" lon="6.68496">
        <ele>1427.2</ele>
        <time>2013-08-26T14:39:47Z</time>
      </trkpt>
      <trkpt lat="45.86646" lon="6.68493">
        <ele>1428.2</ele>
        <time>2013-08-26T14:39:50Z</time>
      </trkpt>
      <trkpt lat="45.86645" lon="6.68493">
        <ele>1428.7</ele>
        <time>2013-08-26T14:39:51Z</time>
      </trkpt>
      <trkpt lat="45.86639" lon="6.68494">
        <ele>1429.1</ele>
        <time>2013-08-26T14:40:02Z</time>
      </trkpt>
      <trkpt lat="45.86638" lon="6.68494">
        <ele>1429.6</ele>
        <time>2013-08-26T14:40:03Z</time>
      </trkpt>
      <trkpt lat="45.86637" lon="6.68494">
        <ele>1429.6</ele>
        <time>2013-08-26T14:40:04Z</time>
      </trkpt>
      <trkpt lat="45.86634" lon="6.68494">
        <ele>1430.1</ele>
        <time>2013-08-26T14:40:06Z</time>
      </trkpt>
      <trkpt lat="45.86631" lon="6.68493">
        <ele>1430.6</ele>
        <time>2013-08-26T14:40:08Z</time>
      </trkpt>
      <trkpt lat="45.86629" lon="6.68492">
        <ele>1431.1</ele>
        <time>2013-08-26T14:40:09Z</time>
      </trkpt>
      <trkpt lat="45.86628" lon="6.6849">
        <ele>1431.5</ele>
        <time>2013-08-26T14:40:10Z</time>
      </trkpt>
      <trkpt lat="45.86626" lon="6.68489">
        <ele>1431.1</ele>
        <time>2013-08-26T14:40:11Z</time>
      </trkpt>
      <trkpt lat="45.86624" lon="6.68488">
        <ele>1431.5</ele>
        <time>2013-08-26T14:40:12Z</time>
      </trkpt>
      <trkpt lat="45.86623" lon="6.68487">
        <ele>1431.5</ele>
        <time>2013-08-26T14:40:13Z</time>
      </trkpt>
      <trkpt lat="45.86621" lon="6.68487">
        <ele>1432</ele>
        <time>2013-08-26T14:40:14Z</time>
      </trkpt>
      <trkpt lat="45.86619" lon="6.68486">
        <ele>1432</ele>
        <time>2013-08-26T14:40:15Z</time>
      </trkpt>
      <trkpt lat="45.86616" lon="6.68485">
        <ele>1432</ele>
        <time>2013-08-26T14:40:16Z</time>
      </trkpt>
      <trkpt lat="45.86591" lon="6.68488">
        <ele>1431.5</ele>
        <time>2013-08-26T14:40:27Z</time>
      </trkpt>
      <trkpt lat="45.86564" lon="6.68483">
        <ele>1428.7</ele>
        <time>2013-08-26T14:40:32Z</time>
      </trkpt>
      <trkpt lat="45.8656" lon="6.68481">
        <ele>1428.2</ele>
        <time>2013-08-26T14:40:33Z</time>
      </trkpt>
      <trkpt lat="45.86551" lon="6.68477">
        <ele>1428.2</ele>
        <time>2013-08-26T14:40:35Z</time>
      </trkpt>
      <trkpt lat="45.86505" lon="6.68446">
        <ele>1429.1</ele>
        <time>2013-08-26T14:40:48Z</time>
      </trkpt>
      <trkpt lat="45.86485" lon="6.68435">
        <ele>1432</ele>
        <time>2013-08-26T14:41:01Z</time>
      </trkpt>
      <trkpt lat="45.86464" lon="6.68422">
        <ele>1434.4</ele>
        <time>2013-08-26T14:41:15Z</time>
      </trkpt>
      <trkpt lat="45.8646" lon="6.6842">
        <ele>1434.4</ele>
        <time>2013-08-26T14:41:27Z</time>
      </trkpt>
      <trkpt lat="45.8646" lon="6.6842">
        <ele>1434.9</ele>
        <time>2013-08-26T14:41:29Z</time>
      </trkpt>
      <trkpt lat="45.86457" lon="6.68419">
        <ele>1434.9</ele>
        <time>2013-08-26T14:41:32Z</time>
      </trkpt>
      <trkpt lat="45.86455" lon="6.68418">
        <ele>1434.4</ele>
        <time>2013-08-26T14:41:33Z</time>
      </trkpt>
      <trkpt lat="45.86453" lon="6.68417">
        <ele>1434.9</ele>
        <time>2013-08-26T14:41:34Z</time>
      </trkpt>
      <trkpt lat="45.86452" lon="6.68416">
        <ele>1434.9</ele>
        <time>2013-08-26T14:41:35Z</time>
      </trkpt>
      <trkpt lat="45.8645" lon="6.68415">
        <ele>1434.9</ele>
        <time>2013-08-26T14:41:36Z</time>
      </trkpt>
      <trkpt lat="45.86449" lon="6.68413">
        <ele>1434.4</ele>
        <time>2013-08-26T14:41:37Z</time>
      </trkpt>
      <trkpt lat="45.86448" lon="6.68412">
        <ele>1434.9</ele>
        <time>2013-08-26T14:41:38Z</time>
      </trkpt>
      <trkpt lat="45.86447" lon="6.68411">
        <ele>1434.9</ele>
        <time>2013-08-26T14:41:39Z</time>
      </trkpt>
      <trkpt lat="45.86445" lon="6.68411">
        <ele>1434.9</ele>
        <time>2013-08-26T14:41:40Z</time>
      </trkpt>
      <trkpt lat="45.86444" lon="6.6841">
        <ele>1434.9</ele>
        <time>2013-08-26T14:41:41Z</time>
      </trkpt>
      <trkpt lat="45.86442" lon="6.68409">
        <ele>1435.4</ele>
        <time>2013-08-26T14:41:42Z</time>
      </trkpt>
      <trkpt lat="45.86441" lon="6.68407">
        <ele>1435.4</ele>
        <time>2013-08-26T14:41:43Z</time>
      </trkpt>
      <trkpt lat="45.8644" lon="6.68406">
        <ele>1435.4</ele>
        <time>2013-08-26T14:41:44Z</time>
      </trkpt>
      <trkpt lat="45.86438" lon="6.68405">
        <ele>1435.4</ele>
        <time>2013-08-26T14:41:45Z</time>
      </trkpt>
      <trkpt lat="45.86437" lon="6.68405">
        <ele>1435.9</ele>
        <time>2013-08-26T14:41:46Z</time>
      </trkpt>
      <trkpt lat="45.86435" lon="6.68405">
        <ele>1435.9</ele>
        <time>2013-08-26T14:41:47Z</time>
      </trkpt>
      <trkpt lat="45.86434" lon="6.68405">
        <ele>1435.9</ele>
        <time>2013-08-26T14:41:48Z</time>
      </trkpt>
      <trkpt lat="45.86432" lon="6.68405">
        <ele>1436.4</ele>
        <time>2013-08-26T14:41:49Z</time>
      </trkpt>
      <trkpt lat="45.86419" lon="6.68401">
        <ele>1438.3</ele>
        <time>2013-08-26T14:41:58Z</time>
      </trkpt>
      <trkpt lat="45.86417" lon="6.684">
        <ele>1438.3</ele>
        <time>2013-08-26T14:41:59Z</time>
      </trkpt>
      <trkpt lat="45.86415" lon="6.68399">
        <ele>1438.8</ele>
        <time>2013-08-26T14:42:00Z</time>
      </trkpt>
      <trkpt lat="45.86397" lon="6.68389">
        <ele>1440.7</ele>
        <time>2013-08-26T14:42:13Z</time>
      </trkpt>
      <trkpt lat="45.86379" lon="6.68375">
        <ele>1442.1</ele>
        <time>2013-08-26T14:42:27Z</time>
      </trkpt>
      <trkpt lat="45.86368" lon="6.68352">
        <ele>1443.6</ele>
        <time>2013-08-26T14:42:40Z</time>
      </trkpt>
      <trkpt lat="45.86367" lon="6.68346">
        <ele>1444</ele>
        <time>2013-08-26T14:42:44Z</time>
      </trkpt>
      <trkpt lat="45.86365" lon="6.68344">
        <ele>1443.6</ele>
        <time>2013-08-26T14:42:45Z</time>
      </trkpt>
      <trkpt lat="45.86364" lon="6.68344">
        <ele>1443.1</ele>
        <time>2013-08-26T14:42:46Z</time>
      </trkpt>
      <trkpt lat="45.86337" lon="6.68327">
        <ele>1445</ele>
        <time>2013-08-26T14:43:01Z</time>
      </trkpt>
      <trkpt lat="45.86314" lon="6.68302">
        <ele>1446.9</ele>
        <time>2013-08-26T14:43:16Z</time>
      </trkpt>
      <trkpt lat="45.86307" lon="6.68277">
        <ele>1450.3</ele>
        <time>2013-08-26T14:43:29Z</time>
      </trkpt>
      <trkpt lat="45.86302" lon="6.68257">
        <ele>1452.2</ele>
        <time>2013-08-26T14:43:42Z</time>
      </trkpt>
      <trkpt lat="45.86293" lon="6.68239">
        <ele>1452.2</ele>
        <time>2013-08-26T14:43:52Z</time>
      </trkpt>
      <trkpt lat="45.86292" lon="6.6824">
        <ele>1451.3</ele>
        <time>2013-08-26T14:43:53Z</time>
      </trkpt>
      <trkpt lat="45.8629" lon="6.68241">
        <ele>1451.3</ele>
        <time>2013-08-26T14:43:54Z</time>
      </trkpt>
      <trkpt lat="45.86289" lon="6.68242">
        <ele>1451.3</ele>
        <time>2013-08-26T14:43:55Z</time>
      </trkpt>
      <trkpt lat="45.86287" lon="6.68243">
        <ele>1451.3</ele>
        <time>2013-08-26T14:43:56Z</time>
      </trkpt>
      <trkpt lat="45.86284" lon="6.68251">
        <ele>1452.7</ele>
        <time>2013-08-26T14:44:01Z</time>
      </trkpt>
      <trkpt lat="45.86284" lon="6.68254">
        <ele>1453.7</ele>
        <time>2013-08-26T14:44:04Z</time>
      </trkpt>
      <trkpt lat="45.86285" lon="6.68257">
        <ele>1454.1</ele>
        <time>2013-08-26T14:44:09Z</time>
      </trkpt>
      <trkpt lat="45.86285" lon="6.68259">
        <ele>1454.1</ele>
        <time>2013-08-26T14:44:10Z</time>
      </trkpt>
      <trkpt lat="45.86285" lon="6.6826">
        <ele>1454.6</ele>
        <time>2013-08-26T14:44:11Z</time>
      </trkpt>
      <trkpt lat="45.86276" lon="6.68279">
        <ele>1458</ele>
        <time>2013-08-26T14:44:22Z</time>
      </trkpt>
      <trkpt lat="45.86272" lon="6.68285">
        <ele>1458.9</ele>
        <time>2013-08-26T14:44:25Z</time>
      </trkpt>
      <trkpt lat="45.86269" lon="6.68286">
        <ele>1458.5</ele>
        <time>2013-08-26T14:44:26Z</time>
      </trkpt>
      <trkpt lat="45.86267" lon="6.68286">
        <ele>1458</ele>
        <time>2013-08-26T14:44:27Z</time>
      </trkpt>
      <trkpt lat="45.86264" lon="6.68287">
        <ele>1458.9</ele>
        <time>2013-08-26T14:44:28Z</time>
      </trkpt>
      <trkpt lat="45.86263" lon="6.68287">
        <ele>1458.9</ele>
        <time>2013-08-26T14:44:29Z</time>
      </trkpt>
      <trkpt lat="45.86238" lon="6.6829">
        <ele>1460.9</ele>
        <time>2013-08-26T14:44:43Z</time>
      </trkpt>
      <trkpt lat="45.86228" lon="6.68305">
        <ele>1460.4</ele>
        <time>2013-08-26T14:44:50Z</time>
      </trkpt>
      <trkpt lat="45.86244" lon="6.6832">
        <ele>1463.3</ele>
        <time>2013-08-26T14:45:02Z</time>
      </trkpt>
      <trkpt lat="45.86254" lon="6.68332">
        <ele>1464.7</ele>
        <time>2013-08-26T14:45:09Z</time>
      </trkpt>
      <trkpt lat="45.86254" lon="6.68333">
        <ele>1464.2</ele>
        <time>2013-08-26T14:45:10Z</time>
      </trkpt>
      <trkpt lat="45.86255" lon="6.68335">
        <ele>1464.2</ele>
        <time>2013-08-26T14:45:11Z</time>
      </trkpt>
      <trkpt lat="45.86256" lon="6.68336">
        <ele>1464.7</ele>
        <time>2013-08-26T14:45:12Z</time>
      </trkpt>
      <trkpt lat="45.86257" lon="6.68337">
        <ele>1465.2</ele>
        <time>2013-08-26T14:45:13Z</time>
      </trkpt>
      <trkpt lat="45.86258" lon="6.68338">
        <ele>1465.2</ele>
        <time>2013-08-26T14:45:14Z</time>
      </trkpt>
      <trkpt lat="45.86259" lon="6.6834">
        <ele>1465.2</ele>
        <time>2013-08-26T14:45:15Z</time>
      </trkpt>
      <trkpt lat="45.86261" lon="6.68342">
        <ele>1465.2</ele>
        <time>2013-08-26T14:45:16Z</time>
      </trkpt>
      <trkpt lat="45.8627" lon="6.68352">
        <ele>1466.6</ele>
        <time>2013-08-26T14:45:22Z</time>
      </trkpt>
      <trkpt lat="45.86272" lon="6.68355">
        <ele>1466.6</ele>
        <time>2013-08-26T14:45:23Z</time>
      </trkpt>
      <trkpt lat="45.86287" lon="6.6838">
        <ele>1466.2</ele>
        <time>2013-08-26T14:45:31Z</time>
      </trkpt>
      <trkpt lat="45.8629" lon="6.68383">
        <ele>1466.6</ele>
        <time>2013-08-26T14:45:33Z</time>
      </trkpt>
      <trkpt lat="45.86291" lon="6.68386">
        <ele>1466.2</ele>
        <time>2013-08-26T14:45:35Z</time>
      </trkpt>
      <trkpt lat="45.86292" lon="6.68387">
        <ele>1466.2</ele>
        <time>2013-08-26T14:45:36Z</time>
      </trkpt>
      <trkpt lat="45.86293" lon="6.68388">
        <ele>1465.7</ele>
        <time>2013-08-26T14:45:37Z</time>
      </trkpt>
      <trkpt lat="45.86294" lon="6.6839">
        <ele>1465.7</ele>
        <time>2013-08-26T14:45:38Z</time>
      </trkpt>
      <trkpt lat="45.86296" lon="6.68392">
        <ele>1465.7</ele>
        <time>2013-08-26T14:45:39Z</time>
      </trkpt>
      <trkpt lat="45.86297" lon="6.68395">
        <ele>1466.2</ele>
        <time>2013-08-26T14:45:40Z</time>
      </trkpt>
      <trkpt lat="45.86299" lon="6.684">
        <ele>1465.7</ele>
        <time>2013-08-26T14:45:41Z</time>
      </trkpt>
      <trkpt lat="45.86298" lon="6.6844">
        <ele>1466.6</ele>
        <time>2013-08-26T14:45:50Z</time>
      </trkpt>
      <trkpt lat="45.86299" lon="6.68444">
        <ele>1466.6</ele>
        <time>2013-08-26T14:45:51Z</time>
      </trkpt>
      <trkpt lat="45.86301" lon="6.68483">
        <ele>1466.2</ele>
        <time>2013-08-26T14:46:02Z</time>
      </trkpt>
      <trkpt lat="45.86304" lon="6.68516">
        <ele>1468.1</ele>
        <time>2013-08-26T14:46:11Z</time>
      </trkpt>
      <trkpt lat="45.86304" lon="6.68518">
        <ele>1467.6</ele>
        <time>2013-08-26T14:46:12Z</time>
      </trkpt>
      <trkpt lat="45.86304" lon="6.68521">
        <ele>1467.6</ele>
        <time>2013-08-26T14:46:13Z</time>
      </trkpt>
      <trkpt lat="45.86304" lon="6.68523">
        <ele>1468.6</ele>
        <time>2013-08-26T14:46:14Z</time>
      </trkpt>
      <trkpt lat="45.86299" lon="6.68526">
        <ele>1467.1</ele>
        <time>2013-08-26T14:46:25Z</time>
      </trkpt>
      <trkpt lat="45.86301" lon="6.68525">
        <ele>1468.6</ele>
        <time>2013-08-26T14:46:43Z</time>
      </trkpt>
      <trkpt lat="45.86303" lon="6.68521">
        <ele>1469.5</ele>
        <time>2013-08-26T14:47:01Z</time>
      </trkpt>
      <trkpt lat="45.863" lon="6.68526">
        <ele>1469.5</ele>
        <time>2013-08-26T14:47:22Z</time>
      </trkpt>
      <trkpt lat="45.86302" lon="6.68532">
        <ele>1469.5</ele>
        <time>2013-08-26T14:47:27Z</time>
      </trkpt>
      <trkpt lat="45.86302" lon="6.68534">
        <ele>1468.1</ele>
        <time>2013-08-26T14:47:28Z</time>
      </trkpt>
      <trkpt lat="45.863" lon="6.68542">
        <ele>1469</ele>
        <time>2013-08-26T14:47:32Z</time>
      </trkpt>
      <trkpt lat="45.86298" lon="6.68544">
        <ele>1469</ele>
        <time>2013-08-26T14:47:33Z</time>
      </trkpt>
      <trkpt lat="45.86298" lon="6.68546">
        <ele>1469</ele>
        <time>2013-08-26T14:47:34Z</time>
      </trkpt>
      <trkpt lat="45.86298" lon="6.68549">
        <ele>1469.5</ele>
        <time>2013-08-26T14:47:35Z</time>
      </trkpt>
      <trkpt lat="45.86297" lon="6.68553">
        <ele>1469</ele>
        <time>2013-08-26T14:47:36Z</time>
      </trkpt>
      <trkpt lat="45.86298" lon="6.68557">
        <ele>1469</ele>
        <time>2013-08-26T14:47:37Z</time>
      </trkpt>
      <trkpt lat="45.86295" lon="6.68574">
        <ele>1468.1</ele>
        <time>2013-08-26T14:47:41Z</time>
      </trkpt>
      <trkpt lat="45.86293" lon="6.68576">
        <ele>1468.1</ele>
        <time>2013-08-26T14:47:42Z</time>
      </trkpt>
      <trkpt lat="45.8628" lon="6.68578">
        <ele>1466.6</ele>
        <time>2013-08-26T14:47:46Z</time>
      </trkpt>
      <trkpt lat="45.86278" lon="6.68576">
        <ele>1468.6</ele>
        <time>2013-08-26T14:47:47Z</time>
      </trkpt>
      <trkpt lat="45.86275" lon="6.68576">
        <ele>1468.1</ele>
        <time>2013-08-26T14:47:48Z</time>
      </trkpt>
      <trkpt lat="45.86274" lon="6.68576">
        <ele>1467.6</ele>
        <time>2013-08-26T14:47:49Z</time>
      </trkpt>
      <trkpt lat="45.86272" lon="6.68576">
        <ele>1468.6</ele>
        <time>2013-08-26T14:47:50Z</time>
      </trkpt>
      <trkpt lat="45.8627" lon="6.68576">
        <ele>1468.6</ele>
        <time>2013-08-26T14:47:51Z</time>
      </trkpt>
      <trkpt lat="45.86253" lon="6.68578">
        <ele>1471.9</ele>
        <time>2013-08-26T14:48:03Z</time>
      </trkpt>
      <trkpt lat="45.86252" lon="6.68578">
        <ele>1471.9</ele>
        <time>2013-08-26T14:48:04Z</time>
      </trkpt>
      <trkpt lat="45.8624" lon="6.68569">
        <ele>1473.4</ele>
        <time>2013-08-26T14:48:16Z</time>
      </trkpt>
      <trkpt lat="45.86242" lon="6.68569">
        <ele>1473.8</ele>
        <time>2013-08-26T14:48:40Z</time>
      </trkpt>
      <trkpt lat="45.8624" lon="6.68573">
        <ele>1473.8</ele>
        <time>2013-08-26T14:49:20Z</time>
      </trkpt>
      <trkpt lat="45.86242" lon="6.68569">
        <ele>1473.8</ele>
        <time>2013-08-26T14:49:52Z</time>
      </trkpt>
      <trkpt lat="45.86244" lon="6.68562">
        <ele>1474.8</ele>
        <time>2013-08-26T14:50:15Z</time>
      </trkpt>
      <trkpt lat="45.86241" lon="6.6856">
        <ele>1475.3</ele>
        <time>2013-08-26T14:50:40Z</time>
      </trkpt>
      <trkpt lat="45.86241" lon="6.68554">
        <ele>1476.2</ele>
        <time>2013-08-26T14:50:47Z</time>
      </trkpt>
      <trkpt lat="45.86244" lon="6.68547">
        <ele>1477.7</ele>
        <time>2013-08-26T14:50:52Z</time>
      </trkpt>
      <trkpt lat="45.86249" lon="6.6854">
        <ele>1479.1</ele>
        <time>2013-08-26T14:50:59Z</time>
      </trkpt>
      <trkpt lat="45.86251" lon="6.68539">
        <ele>1479.1</ele>
        <time>2013-08-26T14:51:00Z</time>
      </trkpt>
      <trkpt lat="45.86253" lon="6.68538">
        <ele>1479.6</ele>
        <time>2013-08-26T14:51:01Z</time>
      </trkpt>
      <trkpt lat="45.86256" lon="6.68533">
        <ele>1479.6</ele>
        <time>2013-08-26T14:51:04Z</time>
      </trkpt>
      <trkpt lat="45.86256" lon="6.6853">
        <ele>1480.6</ele>
        <time>2013-08-26T14:51:05Z</time>
      </trkpt>
      <trkpt lat="45.86256" lon="6.68528">
        <ele>1480.6</ele>
        <time>2013-08-26T14:51:06Z</time>
      </trkpt>
      <trkpt lat="45.86244" lon="6.68513">
        <ele>1483.5</ele>
        <time>2013-08-26T14:51:20Z</time>
      </trkpt>
      <trkpt lat="45.86228" lon="6.6851">
        <ele>1485.9</ele>
        <time>2013-08-26T14:51:32Z</time>
      </trkpt>
      <trkpt lat="45.86227" lon="6.68509">
        <ele>1485.4</ele>
        <time>2013-08-26T14:51:33Z</time>
      </trkpt>
      <trkpt lat="45.86225" lon="6.68508">
        <ele>1486.8</ele>
        <time>2013-08-26T14:51:34Z</time>
      </trkpt>
      <trkpt lat="45.86225" lon="6.68506">
        <ele>1485.9</ele>
        <time>2013-08-26T14:51:35Z</time>
      </trkpt>
      <trkpt lat="45.86224" lon="6.68505">
        <ele>1485.9</ele>
        <time>2013-08-26T14:51:36Z</time>
      </trkpt>
      <trkpt lat="45.86212" lon="6.68498">
        <ele>1487.8</ele>
        <time>2013-08-26T14:51:45Z</time>
      </trkpt>
      <trkpt lat="45.86211" lon="6.68497">
        <ele>1488.7</ele>
        <time>2013-08-26T14:51:46Z</time>
      </trkpt>
      <trkpt lat="45.8621" lon="6.68496">
        <ele>1488.3</ele>
        <time>2013-08-26T14:51:47Z</time>
      </trkpt>
      <trkpt lat="45.86202" lon="6.68491">
        <ele>1490.7</ele>
        <time>2013-08-26T14:51:54Z</time>
      </trkpt>
      <trkpt lat="45.86201" lon="6.68489">
        <ele>1490.2</ele>
        <time>2013-08-26T14:51:55Z</time>
      </trkpt>
      <trkpt lat="45.86201" lon="6.68488">
        <ele>1490.7</ele>
        <time>2013-08-26T14:51:56Z</time>
      </trkpt>
      <trkpt lat="45.862" lon="6.68486">
        <ele>1490.2</ele>
        <time>2013-08-26T14:51:57Z</time>
      </trkpt>
      <trkpt lat="45.86199" lon="6.68484">
        <ele>1490.7</ele>
        <time>2013-08-26T14:51:58Z</time>
      </trkpt>
      <trkpt lat="45.8619" lon="6.6847">
        <ele>1493.1</ele>
        <time>2013-08-26T14:52:09Z</time>
      </trkpt>
      <trkpt lat="45.8619" lon="6.68468">
        <ele>1492.6</ele>
        <time>2013-08-26T14:52:10Z</time>
      </trkpt>
      <trkpt lat="45.8619" lon="6.68466">
        <ele>1493.6</ele>
        <time>2013-08-26T14:52:11Z</time>
      </trkpt>
      <trkpt lat="45.86189" lon="6.68465">
        <ele>1494</ele>
        <time>2013-08-26T14:52:12Z</time>
      </trkpt>
      <trkpt lat="45.86188" lon="6.68464">
        <ele>1493.6</ele>
        <time>2013-08-26T14:52:13Z</time>
      </trkpt>
      <trkpt lat="45.86188" lon="6.68462">
        <ele>1494.5</ele>
        <time>2013-08-26T14:52:14Z</time>
      </trkpt>
      <trkpt lat="45.86174" lon="6.68441">
        <ele>1497.4</ele>
        <time>2013-08-26T14:52:31Z</time>
      </trkpt>
      <trkpt lat="45.8617" lon="6.68437">
        <ele>1497.9</ele>
        <time>2013-08-26T14:52:35Z</time>
      </trkpt>
      <trkpt lat="45.86169" lon="6.68436">
        <ele>1498.4</ele>
        <time>2013-08-26T14:52:36Z</time>
      </trkpt>
      <trkpt lat="45.86169" lon="6.68435">
        <ele>1498.4</ele>
        <time>2013-08-26T14:52:37Z</time>
      </trkpt>
      <trkpt lat="45.86158" lon="6.68423">
        <ele>1500.8</ele>
        <time>2013-08-26T14:52:49Z</time>
      </trkpt>
      <trkpt lat="45.86153" lon="6.68414">
        <ele>1503.6</ele>
        <time>2013-08-26T14:52:57Z</time>
      </trkpt>
      <trkpt lat="45.86146" lon="6.68408">
        <ele>1506</ele>
        <time>2013-08-26T14:53:05Z</time>
      </trkpt>
      <trkpt lat="45.8614" lon="6.68405">
        <ele>1507.5</ele>
        <time>2013-08-26T14:53:13Z</time>
      </trkpt>
      <trkpt lat="45.86137" lon="6.68405">
        <ele>1508</ele>
        <time>2013-08-26T14:53:16Z</time>
      </trkpt>
      <trkpt lat="45.86129" lon="6.68403">
        <ele>1509.4</ele>
        <time>2013-08-26T14:53:28Z</time>
      </trkpt>
      <trkpt lat="45.86123" lon="6.68397">
        <ele>1512.3</ele>
        <time>2013-08-26T14:53:42Z</time>
      </trkpt>
      <trkpt lat="45.86118" lon="6.68388">
        <ele>1513.7</ele>
        <time>2013-08-26T14:54:03Z</time>
      </trkpt>
      <trkpt lat="45.86106" lon="6.68378">
        <ele>1515.2</ele>
        <time>2013-08-26T14:54:16Z</time>
      </trkpt>
      <trkpt lat="45.86095" lon="6.68384">
        <ele>1516.6</ele>
        <time>2013-08-26T14:54:31Z</time>
      </trkpt>
      <trkpt lat="45.8609" lon="6.68385">
        <ele>1518.1</ele>
        <time>2013-08-26T14:54:46Z</time>
      </trkpt>
      <trkpt lat="45.86089" lon="6.68385">
        <ele>1517.6</ele>
        <time>2013-08-26T14:54:47Z</time>
      </trkpt>
      <trkpt lat="45.86087" lon="6.68387">
        <ele>1519</ele>
        <time>2013-08-26T14:54:50Z</time>
      </trkpt>
      <trkpt lat="45.86081" lon="6.68392">
        <ele>1520.5</ele>
        <time>2013-08-26T14:54:56Z</time>
      </trkpt>
      <trkpt lat="45.8608" lon="6.68393">
        <ele>1520.5</ele>
        <time>2013-08-26T14:54:57Z</time>
      </trkpt>
      <trkpt lat="45.8608" lon="6.68395">
        <ele>1520.5</ele>
        <time>2013-08-26T14:54:58Z</time>
      </trkpt>
      <trkpt lat="45.86079" lon="6.68396">
        <ele>1520.9</ele>
        <time>2013-08-26T14:54:59Z</time>
      </trkpt>
      <trkpt lat="45.86069" lon="6.68404">
        <ele>1522.9</ele>
        <time>2013-08-26T14:55:09Z</time>
      </trkpt>
      <trkpt lat="45.86067" lon="6.68407">
        <ele>1523.4</ele>
        <time>2013-08-26T14:55:12Z</time>
      </trkpt>
      <trkpt lat="45.86066" lon="6.68407">
        <ele>1523.8</ele>
        <time>2013-08-26T14:55:13Z</time>
      </trkpt>
      <trkpt lat="45.86065" lon="6.68407">
        <ele>1523.4</ele>
        <time>2013-08-26T14:55:14Z</time>
      </trkpt>
      <trkpt lat="45.86052" lon="6.68414">
        <ele>1525.3</ele>
        <time>2013-08-26T14:55:31Z</time>
      </trkpt>
      <trkpt lat="45.8605" lon="6.68416">
        <ele>1525.3</ele>
        <time>2013-08-26T14:55:46Z</time>
      </trkpt>
      <trkpt lat="45.86035" lon="6.68424">
        <ele>1527.7</ele>
        <time>2013-08-26T14:55:58Z</time>
      </trkpt>
      <trkpt lat="45.86012" lon="6.68428">
        <ele>1530.1</ele>
        <time>2013-08-26T14:56:14Z</time>
      </trkpt>
      <trkpt lat="45.85994" lon="6.6843">
        <ele>1533.9</ele>
        <time>2013-08-26T14:56:28Z</time>
      </trkpt>
      <trkpt lat="45.85992" lon="6.6843">
        <ele>1533.9</ele>
        <time>2013-08-26T14:56:29Z</time>
      </trkpt>
      <trkpt lat="45.85973" lon="6.68425">
        <ele>1535.8</ele>
        <time>2013-08-26T14:56:44Z</time>
      </trkpt>
      <trkpt lat="45.85969" lon="6.68423">
        <ele>1536.3</ele>
        <time>2013-08-26T14:56:47Z</time>
      </trkpt>
      <trkpt lat="45.85968" lon="6.68423">
        <ele>1536.8</ele>
        <time>2013-08-26T14:56:48Z</time>
      </trkpt>
      <trkpt lat="45.85967" lon="6.68422">
        <ele>1536.8</ele>
        <time>2013-08-26T14:56:49Z</time>
      </trkpt>
      <trkpt lat="45.85965" lon="6.68422">
        <ele>1536.8</ele>
        <time>2013-08-26T14:56:50Z</time>
      </trkpt>
      <trkpt lat="45.85964" lon="6.68421">
        <ele>1536.8</ele>
        <time>2013-08-26T14:56:51Z</time>
      </trkpt>
      <trkpt lat="45.85963" lon="6.68421">
        <ele>1537.3</ele>
        <time>2013-08-26T14:56:52Z</time>
      </trkpt>
      <trkpt lat="45.8594" lon="6.68414">
        <ele>1539.7</ele>
        <time>2013-08-26T14:57:08Z</time>
      </trkpt>
      <trkpt lat="45.85926" lon="6.6841">
        <ele>1541.6</ele>
        <time>2013-08-26T14:57:23Z</time>
      </trkpt>
      <trkpt lat="45.85914" lon="6.68409">
        <ele>1544</ele>
        <time>2013-08-26T14:57:40Z</time>
      </trkpt>
      <trkpt lat="45.85904" lon="6.68415">
        <ele>1545.9</ele>
        <time>2013-08-26T14:57:57Z</time>
      </trkpt>
      <trkpt lat="45.85896" lon="6.68423">
        <ele>1548.8</ele>
        <time>2013-08-26T14:58:10Z</time>
      </trkpt>
      <trkpt lat="45.85883" lon="6.68432">
        <ele>1551.7</ele>
        <time>2013-08-26T14:58:28Z</time>
      </trkpt>
      <trkpt lat="45.85874" lon="6.68436">
        <ele>1554.1</ele>
        <time>2013-08-26T14:58:42Z</time>
      </trkpt>
      <trkpt lat="45.85866" lon="6.68438">
        <ele>1555.1</ele>
        <time>2013-08-26T14:58:56Z</time>
      </trkpt>
      <trkpt lat="45.85852" lon="6.68445">
        <ele>1557.5</ele>
        <time>2013-08-26T14:59:13Z</time>
      </trkpt>
      <trkpt lat="45.85839" lon="6.68451">
        <ele>1561.3</ele>
        <time>2013-08-26T14:59:31Z</time>
      </trkpt>
      <trkpt lat="45.85823" lon="6.68459">
        <ele>1564.2</ele>
        <time>2013-08-26T14:59:54Z</time>
      </trkpt>
      <trkpt lat="45.8581" lon="6.68466">
        <ele>1567.1</ele>
        <time>2013-08-26T15:00:14Z</time>
      </trkpt>
      <trkpt lat="45.85798" lon="6.68474">
        <ele>1570</ele>
        <time>2013-08-26T15:00:31Z</time>
      </trkpt>
      <trkpt lat="45.85788" lon="6.68463">
        <ele>1572.9</ele>
        <time>2013-08-26T15:00:49Z</time>
      </trkpt>
      <trkpt lat="45.85787" lon="6.6846">
        <ele>1572.9</ele>
        <time>2013-08-26T15:01:09Z</time>
      </trkpt>
      <trkpt lat="45.85788" lon="6.68461">
        <ele>1573.8</ele>
        <time>2013-08-26T15:01:31Z</time>
      </trkpt>
      <trkpt lat="45.85785" lon="6.68452">
        <ele>1575.3</ele>
        <time>2013-08-26T15:01:49Z</time>
      </trkpt>
      <trkpt lat="45.85784" lon="6.68447">
        <ele>1575.3</ele>
        <time>2013-08-26T15:02:06Z</time>
      </trkpt>
      <trkpt lat="45.85778" lon="6.68444">
        <ele>1576.7</ele>
        <time>2013-08-26T15:02:29Z</time>
      </trkpt>
      <trkpt lat="45.85775" lon="6.68443">
        <ele>1578.1</ele>
        <time>2013-08-26T15:02:33Z</time>
      </trkpt>
      <trkpt lat="45.85765" lon="6.68436">
        <ele>1581</ele>
        <time>2013-08-26T15:02:50Z</time>
      </trkpt>
      <trkpt lat="45.85759" lon="6.68436">
        <ele>1583</ele>
        <time>2013-08-26T15:02:59Z</time>
      </trkpt>
      <trkpt lat="45.85747" lon="6.6844">
        <ele>1585.8</ele>
        <time>2013-08-26T15:03:18Z</time>
      </trkpt>
      <trkpt lat="45.85734" lon="6.68443">
        <ele>1588.2</ele>
        <time>2013-08-26T15:03:35Z</time>
      </trkpt>
      <trkpt lat="45.8572" lon="6.68443">
        <ele>1591.6</ele>
        <time>2013-08-26T15:03:53Z</time>
      </trkpt>
      <trkpt lat="45.85711" lon="6.68435">
        <ele>1594.5</ele>
        <time>2013-08-26T15:04:10Z</time>
      </trkpt>
      <trkpt lat="45.85713" lon="6.68417">
        <ele>1595.9</ele>
        <time>2013-08-26T15:04:29Z</time>
      </trkpt>
      <trkpt lat="45.85713" lon="6.68415">
        <ele>1595.5</ele>
        <time>2013-08-26T15:04:31Z</time>
      </trkpt>
      <trkpt lat="45.85713" lon="6.68413">
        <ele>1595.5</ele>
        <time>2013-08-26T15:04:32Z</time>
      </trkpt>
      <trkpt lat="45.8571" lon="6.68398">
        <ele>1598.3</ele>
        <time>2013-08-26T15:04:47Z</time>
      </trkpt>
      <trkpt lat="45.85702" lon="6.68389">
        <ele>1600.7</ele>
        <time>2013-08-26T15:05:04Z</time>
      </trkpt>
      <trkpt lat="45.85695" lon="6.68379">
        <ele>1602.2</ele>
        <time>2013-08-26T15:05:25Z</time>
      </trkpt>
      <trkpt lat="45.85693" lon="6.68377">
        <ele>1604.1</ele>
        <time>2013-08-26T15:05:31Z</time>
      </trkpt>
      <trkpt lat="45.85682" lon="6.6837">
        <ele>1607</ele>
        <time>2013-08-26T15:05:51Z</time>
      </trkpt>
      <trkpt lat="45.85671" lon="6.68379">
        <ele>1610.4</ele>
        <time>2013-08-26T15:06:10Z</time>
      </trkpt>
      <trkpt lat="45.85661" lon="6.68388">
        <ele>1612.8</ele>
        <time>2013-08-26T15:06:28Z</time>
      </trkpt>
      <trkpt lat="45.85649" lon="6.68393">
        <ele>1615.2</ele>
        <time>2013-08-26T15:06:45Z</time>
      </trkpt>
      <trkpt lat="45.8564" lon="6.68387">
        <ele>1618</ele>
        <time>2013-08-26T15:07:03Z</time>
      </trkpt>
      <trkpt lat="45.85641" lon="6.68374">
        <ele>1620.9</ele>
        <time>2013-08-26T15:07:19Z</time>
      </trkpt>
      <trkpt lat="45.85638" lon="6.68363">
        <ele>1622.4</ele>
        <time>2013-08-26T15:07:39Z</time>
      </trkpt>
      <trkpt lat="45.85636" lon="6.68347">
        <ele>1625.7</ele>
        <time>2013-08-26T15:07:56Z</time>
      </trkpt>
      <trkpt lat="45.85626" lon="6.68341">
        <ele>1628.1</ele>
        <time>2013-08-26T15:08:15Z</time>
      </trkpt>
      <trkpt lat="45.8562" lon="6.68346">
        <ele>1631.5</ele>
        <time>2013-08-26T15:08:30Z</time>
      </trkpt>
      <trkpt lat="45.85613" lon="6.68355">
        <ele>1633.4</ele>
        <time>2013-08-26T15:08:47Z</time>
      </trkpt>
      <trkpt lat="45.85604" lon="6.68363">
        <ele>1636.3</ele>
        <time>2013-08-26T15:09:06Z</time>
      </trkpt>
      <trkpt lat="45.85594" lon="6.68369">
        <ele>1638.2</ele>
        <time>2013-08-26T15:09:22Z</time>
      </trkpt>
      <trkpt lat="45.85582" lon="6.68373">
        <ele>1641.6</ele>
        <time>2013-08-26T15:09:42Z</time>
      </trkpt>
      <trkpt lat="45.85572" lon="6.6838">
        <ele>1645</ele>
        <time>2013-08-26T15:10:01Z</time>
      </trkpt>
      <trkpt lat="45.85568" lon="6.68382">
        <ele>1645.4</ele>
        <time>2013-08-26T15:10:19Z</time>
      </trkpt>
      <trkpt lat="45.8556" lon="6.68386">
        <ele>1647.8</ele>
        <time>2013-08-26T15:10:36Z</time>
      </trkpt>
      <trkpt lat="45.85549" lon="6.6839">
        <ele>1650.7</ele>
        <time>2013-08-26T15:10:54Z</time>
      </trkpt>
      <trkpt lat="45.85548" lon="6.68391">
        <ele>1652.2</ele>
        <time>2013-08-26T15:10:56Z</time>
      </trkpt>
      <trkpt lat="45.85542" lon="6.68394">
        <ele>1653.6</ele>
        <time>2013-08-26T15:11:07Z</time>
      </trkpt>
      <trkpt lat="45.85532" lon="6.68398">
        <ele>1657</ele>
        <time>2013-08-26T15:11:26Z</time>
      </trkpt>
      <trkpt lat="45.85521" lon="6.68404">
        <ele>1659.9</ele>
        <time>2013-08-26T15:11:46Z</time>
      </trkpt>
      <trkpt lat="45.85514" lon="6.68408">
        <ele>1661.8</ele>
        <time>2013-08-26T15:12:00Z</time>
      </trkpt>
      <trkpt lat="45.85502" lon="6.6841">
        <ele>1664.7</ele>
        <time>2013-08-26T15:12:18Z</time>
      </trkpt>
      <trkpt lat="45.85491" lon="6.68409">
        <ele>1666.6</ele>
        <time>2013-08-26T15:12:36Z</time>
      </trkpt>
      <trkpt lat="45.85478" lon="6.68404">
        <ele>1669.5</ele>
        <time>2013-08-26T15:12:55Z</time>
      </trkpt>
      <trkpt lat="45.8547" lon="6.6839">
        <ele>1671.4</ele>
        <time>2013-08-26T15:13:14Z</time>
      </trkpt>
      <trkpt lat="45.8547" lon="6.68388">
        <ele>1670.9</ele>
        <time>2013-08-26T15:13:27Z</time>
      </trkpt>
      <trkpt lat="45.8547" lon="6.68388">
        <ele>1670.9</ele>
        <time>2013-08-26T15:13:59Z</time>
      </trkpt>
      <trkpt lat="45.85471" lon="6.68384">
        <ele>1671.4</ele>
        <time>2013-08-26T15:14:03Z</time>
      </trkpt>
      <trkpt lat="45.85472" lon="6.68383">
        <ele>1670.9</ele>
        <time>2013-08-26T15:14:04Z</time>
      </trkpt>
      <trkpt lat="45.85472" lon="6.68381">
        <ele>1670.9</ele>
        <time>2013-08-26T15:14:05Z</time>
      </trkpt>
      <trkpt lat="45.85477" lon="6.68356">
        <ele>1674.3</ele>
        <time>2013-08-26T15:14:20Z</time>
      </trkpt>
      <trkpt lat="45.85476" lon="6.68332">
        <ele>1676.7</ele>
        <time>2013-08-26T15:14:35Z</time>
      </trkpt>
      <trkpt lat="45.85477" lon="6.68319">
        <ele>1679.1</ele>
        <time>2013-08-26T15:14:44Z</time>
      </trkpt>
      <trkpt lat="45.85479" lon="6.68314">
        <ele>1680</ele>
        <time>2013-08-26T15:14:48Z</time>
      </trkpt>
      <trkpt lat="45.85479" lon="6.68312">
        <ele>1680</ele>
        <time>2013-08-26T15:14:49Z</time>
      </trkpt>
      <trkpt lat="45.85479" lon="6.6831">
        <ele>1680</ele>
        <time>2013-08-26T15:14:50Z</time>
      </trkpt>
      <trkpt lat="45.85479" lon="6.68309">
        <ele>1680.5</ele>
        <time>2013-08-26T15:14:51Z</time>
      </trkpt>
      <trkpt lat="45.8548" lon="6.68307">
        <ele>1680</ele>
        <time>2013-08-26T15:14:52Z</time>
      </trkpt>
      <trkpt lat="45.8548" lon="6.68306">
        <ele>1680.5</ele>
        <time>2013-08-26T15:14:53Z</time>
      </trkpt>
      <trkpt lat="45.8548" lon="6.68304">
        <ele>1681</ele>
        <time>2013-08-26T15:14:54Z</time>
      </trkpt>
      <trkpt lat="45.8548" lon="6.68303">
        <ele>1681.5</ele>
        <time>2013-08-26T15:14:55Z</time>
      </trkpt>
      <trkpt lat="45.8548" lon="6.68301">
        <ele>1681</ele>
        <time>2013-08-26T15:14:56Z</time>
      </trkpt>
      <trkpt lat="45.8548" lon="6.68299">
        <ele>1682</ele>
        <time>2013-08-26T15:14:57Z</time>
      </trkpt>
      <trkpt lat="45.8548" lon="6.68294">
        <ele>1682.4</ele>
        <time>2013-08-26T15:15:00Z</time>
      </trkpt>
      <trkpt lat="45.85481" lon="6.68293">
        <ele>1682.9</ele>
        <time>2013-08-26T15:15:01Z</time>
      </trkpt>
      <trkpt lat="45.85481" lon="6.68291">
        <ele>1682.9</ele>
        <time>2013-08-26T15:15:02Z</time>
      </trkpt>
      <trkpt lat="45.85482" lon="6.68271">
        <ele>1685.8</ele>
        <time>2013-08-26T15:15:15Z</time>
      </trkpt>
      <trkpt lat="45.85486" lon="6.68255">
        <ele>1689.2</ele>
        <time>2013-08-26T15:15:26Z</time>
      </trkpt>
      <trkpt lat="45.85487" lon="6.68252">
        <ele>1689.2</ele>
        <time>2013-08-26T15:15:29Z</time>
      </trkpt>
      <trkpt lat="45.85488" lon="6.6825">
        <ele>1689.7</ele>
        <time>2013-08-26T15:15:30Z</time>
      </trkpt>
      <trkpt lat="45.85492" lon="6.68242">
        <ele>1690.6</ele>
        <time>2013-08-26T15:15:37Z</time>
      </trkpt>
      <trkpt lat="45.85493" lon="6.68241">
        <ele>1691.1</ele>
        <time>2013-08-26T15:15:38Z</time>
      </trkpt>
      <trkpt lat="45.85494" lon="6.68239">
        <ele>1691.6</ele>
        <time>2013-08-26T15:15:40Z</time>
      </trkpt>
      <trkpt lat="45.85496" lon="6.68234">
        <ele>1692.5</ele>
        <time>2013-08-26T15:15:44Z</time>
      </trkpt>
      <trkpt lat="45.85506" lon="6.68211">
        <ele>1695.9</ele>
        <time>2013-08-26T15:16:02Z</time>
      </trkpt>
      <trkpt lat="45.85508" lon="6.68184">
        <ele>1698.8</ele>
        <time>2013-08-26T15:16:20Z</time>
      </trkpt>
      <trkpt lat="45.85508" lon="6.68179">
        <ele>1699.8</ele>
        <time>2013-08-26T15:16:24Z</time>
      </trkpt>
      <trkpt lat="45.85508" lon="6.68153">
        <ele>1701.7</ele>
        <time>2013-08-26T15:16:39Z</time>
      </trkpt>
      <trkpt lat="45.85503" lon="6.68139">
        <ele>1703.6</ele>
        <time>2013-08-26T15:16:50Z</time>
      </trkpt>
      <trkpt lat="45.85498" lon="6.68138">
        <ele>1705</ele>
        <time>2013-08-26T15:17:01Z</time>
      </trkpt>
      <trkpt lat="45.85488" lon="6.68141">
        <ele>1708.4</ele>
        <time>2013-08-26T15:17:18Z</time>
      </trkpt>
      <trkpt lat="45.85475" lon="6.68142">
        <ele>1709.8</ele>
        <time>2013-08-26T15:17:36Z</time>
      </trkpt>
      <trkpt lat="45.85463" lon="6.68145">
        <ele>1713.2</ele>
        <time>2013-08-26T15:17:52Z</time>
      </trkpt>
      <trkpt lat="45.85458" lon="6.68147">
        <ele>1714.2</ele>
        <time>2013-08-26T15:18:07Z</time>
      </trkpt>
      <trkpt lat="45.85449" lon="6.68139">
        <ele>1716.6</ele>
        <time>2013-08-26T15:18:25Z</time>
      </trkpt>
      <trkpt lat="45.85438" lon="6.68129">
        <ele>1719</ele>
        <time>2013-08-26T15:18:42Z</time>
      </trkpt>
      <trkpt lat="45.8543" lon="6.68122">
        <ele>1720.4</ele>
        <time>2013-08-26T15:18:59Z</time>
      </trkpt>
      <trkpt lat="45.85422" lon="6.6812">
        <ele>1720.4</ele>
        <time>2013-08-26T15:19:11Z</time>
      </trkpt>
      <trkpt lat="45.85408" lon="6.68116">
        <ele>1722.8</ele>
        <time>2013-08-26T15:19:24Z</time>
      </trkpt>
      <trkpt lat="45.85382" lon="6.68103">
        <ele>1724.7</ele>
        <time>2013-08-26T15:19:42Z</time>
      </trkpt>
      <trkpt lat="45.85359" lon="6.68084">
        <ele>1726.7</ele>
        <time>2013-08-26T15:19:59Z</time>
      </trkpt>
      <trkpt lat="45.8534" lon="6.68065">
        <ele>1730</ele>
        <time>2013-08-26T15:20:16Z</time>
      </trkpt>
      <trkpt lat="45.85337" lon="6.68064">
        <ele>1731</ele>
        <time>2013-08-26T15:20:19Z</time>
      </trkpt>
      <trkpt lat="45.85336" lon="6.68064">
        <ele>1730.5</ele>
        <time>2013-08-26T15:20:20Z</time>
      </trkpt>
      <trkpt lat="45.85335" lon="6.68063">
        <ele>1731</ele>
        <time>2013-08-26T15:20:21Z</time>
      </trkpt>
      <trkpt lat="45.85318" lon="6.68053">
        <ele>1734.4</ele>
        <time>2013-08-26T15:20:37Z</time>
      </trkpt>
      <trkpt lat="45.85315" lon="6.68053">
        <ele>1734.4</ele>
        <time>2013-08-26T15:20:40Z</time>
      </trkpt>
      <trkpt lat="45.85314" lon="6.68052">
        <ele>1734.8</ele>
        <time>2013-08-26T15:20:41Z</time>
      </trkpt>
      <trkpt lat="45.85313" lon="6.68051">
        <ele>1735.3</ele>
        <time>2013-08-26T15:20:42Z</time>
      </trkpt>
      <trkpt lat="45.85299" lon="6.68042">
        <ele>1738.2</ele>
        <time>2013-08-26T15:20:57Z</time>
      </trkpt>
      <trkpt lat="45.85292" lon="6.68037">
        <ele>1739.2</ele>
        <time>2013-08-26T15:21:05Z</time>
      </trkpt>
      <trkpt lat="45.85288" lon="6.68032">
        <ele>1740.1</ele>
        <time>2013-08-26T15:21:09Z</time>
      </trkpt>
      <trkpt lat="45.85273" lon="6.68016">
        <ele>1742.5</ele>
        <time>2013-08-26T15:21:26Z</time>
      </trkpt>
      <trkpt lat="45.85263" lon="6.68006">
        <ele>1744.5</ele>
        <time>2013-08-26T15:21:37Z</time>
      </trkpt>
      <trkpt lat="45.85261" lon="6.68003">
        <ele>1744.9</ele>
        <time>2013-08-26T15:21:40Z</time>
      </trkpt>
      <trkpt lat="45.8526" lon="6.68002">
        <ele>1744.9</ele>
        <time>2013-08-26T15:21:41Z</time>
      </trkpt>
      <trkpt lat="45.85259" lon="6.68001">
        <ele>1745.4</ele>
        <time>2013-08-26T15:21:42Z</time>
      </trkpt>
      <trkpt lat="45.85259" lon="6.68">
        <ele>1744.9</ele>
        <time>2013-08-26T15:21:43Z</time>
      </trkpt>
      <trkpt lat="45.85258" lon="6.67999">
        <ele>1745.9</ele>
        <time>2013-08-26T15:21:44Z</time>
      </trkpt>
      <trkpt lat="45.85257" lon="6.67998">
        <ele>1745.9</ele>
        <time>2013-08-26T15:21:45Z</time>
      </trkpt>
      <trkpt lat="45.85256" lon="6.67997">
        <ele>1745.9</ele>
        <time>2013-08-26T15:21:46Z</time>
      </trkpt>
      <trkpt lat="45.85254" lon="6.67994">
        <ele>1747.3</ele>
        <time>2013-08-26T15:21:49Z</time>
      </trkpt>
      <trkpt lat="45.85246" lon="6.67986">
        <ele>1749.7</ele>
        <time>2013-08-26T15:21:58Z</time>
      </trkpt>
      <trkpt lat="45.85232" lon="6.67969">
        <ele>1752.6</ele>
        <time>2013-08-26T15:22:17Z</time>
      </trkpt>
      <trkpt lat="45.8523" lon="6.67968">
        <ele>1753.1</ele>
        <time>2013-08-26T15:22:19Z</time>
      </trkpt>
      <trkpt lat="45.85229" lon="6.67967">
        <ele>1753.6</ele>
        <time>2013-08-26T15:22:20Z</time>
      </trkpt>
      <trkpt lat="45.85225" lon="6.67964">
        <ele>1754.1</ele>
        <time>2013-08-26T15:22:24Z</time>
      </trkpt>
      <trkpt lat="45.85206" lon="6.67956">
        <ele>1756.5</ele>
        <time>2013-08-26T15:22:42Z</time>
      </trkpt>
      <trkpt lat="45.85189" lon="6.67957">
        <ele>1758.9</ele>
        <time>2013-08-26T15:22:57Z</time>
      </trkpt>
      <trkpt lat="45.85168" lon="6.67962">
        <ele>1760.8</ele>
        <time>2013-08-26T15:23:14Z</time>
      </trkpt>
      <trkpt lat="45.8515" lon="6.6796">
        <ele>1763.7</ele>
        <time>2013-08-26T15:23:30Z</time>
      </trkpt>
      <trkpt lat="45.85135" lon="6.67959">
        <ele>1766.1</ele>
        <time>2013-08-26T15:23:44Z</time>
      </trkpt>
      <trkpt lat="45.85134" lon="6.67958">
        <ele>1767</ele>
        <time>2013-08-26T15:23:45Z</time>
      </trkpt>
      <trkpt lat="45.85133" lon="6.67958">
        <ele>1767</ele>
        <time>2013-08-26T15:23:46Z</time>
      </trkpt>
      <trkpt lat="45.85126" lon="6.67955">
        <ele>1768.5</ele>
        <time>2013-08-26T15:23:52Z</time>
      </trkpt>
      <trkpt lat="45.85118" lon="6.67952">
        <ele>1769.9</ele>
        <time>2013-08-26T15:24:05Z</time>
      </trkpt>
      <trkpt lat="45.85111" lon="6.67951">
        <ele>1771.9</ele>
        <time>2013-08-26T15:24:20Z</time>
      </trkpt>
      <trkpt lat="45.85101" lon="6.67952">
        <ele>1775.2</ele>
        <time>2013-08-26T15:24:36Z</time>
      </trkpt>
      <trkpt lat="45.85097" lon="6.67955">
        <ele>1775.2</ele>
        <time>2013-08-26T15:24:42Z</time>
      </trkpt>
      <trkpt lat="45.85091" lon="6.67959">
        <ele>1776.7</ele>
        <time>2013-08-26T15:24:56Z</time>
      </trkpt>
      <trkpt lat="45.8509" lon="6.67957">
        <ele>1776.7</ele>
        <time>2013-08-26T15:25:23Z</time>
      </trkpt>
      <trkpt lat="45.85084" lon="6.67965">
        <ele>1779.1</ele>
        <time>2013-08-26T15:25:40Z</time>
      </trkpt>
      <trkpt lat="45.85074" lon="6.67974">
        <ele>1781.5</ele>
        <time>2013-08-26T15:25:56Z</time>
      </trkpt>
      <trkpt lat="45.85065" lon="6.67979">
        <ele>1785.3</ele>
        <time>2013-08-26T15:26:16Z</time>
      </trkpt>
      <trkpt lat="45.85063" lon="6.67978">
        <ele>1784.8</ele>
        <time>2013-08-26T15:26:33Z</time>
      </trkpt>
      <trkpt lat="45.85064" lon="6.6798">
        <ele>1784.3</ele>
        <time>2013-08-26T15:27:00Z</time>
      </trkpt>
      <trkpt lat="45.85065" lon="6.67985">
        <ele>1784.3</ele>
        <time>2013-08-26T15:27:27Z</time>
      </trkpt>
      <trkpt lat="45.8506" lon="6.67984">
        <ele>1785.8</ele>
        <time>2013-08-26T15:27:57Z</time>
      </trkpt>
      <trkpt lat="45.8505" lon="6.67988">
        <ele>1789.2</ele>
        <time>2013-08-26T15:28:13Z</time>
      </trkpt>
      <trkpt lat="45.85038" lon="6.67988">
        <ele>1792</ele>
        <time>2013-08-26T15:28:31Z</time>
      </trkpt>
      <trkpt lat="45.85026" lon="6.67982">
        <ele>1794.4</ele>
        <time>2013-08-26T15:28:49Z</time>
      </trkpt>
      <trkpt lat="45.85013" lon="6.67974">
        <ele>1796.8</ele>
        <time>2013-08-26T15:29:08Z</time>
      </trkpt>
      <trkpt lat="45.85" lon="6.6797">
        <ele>1800.2</ele>
        <time>2013-08-26T15:29:26Z</time>
      </trkpt>
      <trkpt lat="45.84987" lon="6.67966">
        <ele>1802.6</ele>
        <time>2013-08-26T15:29:45Z</time>
      </trkpt>
      <trkpt lat="45.84981" lon="6.67964">
        <ele>1803.6</ele>
        <time>2013-08-26T15:29:53Z</time>
      </trkpt>
      <trkpt lat="45.8498" lon="6.67964">
        <ele>1803.6</ele>
        <time>2013-08-26T15:29:54Z</time>
      </trkpt>
      <trkpt lat="45.84977" lon="6.67963">
        <ele>1803.6</ele>
        <time>2013-08-26T15:29:57Z</time>
      </trkpt>
      <trkpt lat="45.84966" lon="6.6796">
        <ele>1806</ele>
        <time>2013-08-26T15:30:11Z</time>
      </trkpt>
      <trkpt lat="45.84951" lon="6.67958">
        <ele>1808.9</ele>
        <time>2013-08-26T15:30:31Z</time>
      </trkpt>
      <trkpt lat="45.84937" lon="6.67954">
        <ele>1810.3</ele>
        <time>2013-08-26T15:30:46Z</time>
      </trkpt>
      <trkpt lat="45.84928" lon="6.67938">
        <ele>1812.2</ele>
        <time>2013-08-26T15:31:05Z</time>
      </trkpt>
      <trkpt lat="45.84922" lon="6.67935">
        <ele>1812.7</ele>
        <time>2013-08-26T15:31:19Z</time>
      </trkpt>
      <trkpt lat="45.8492" lon="6.67935">
        <ele>1812.7</ele>
        <time>2013-08-26T15:31:20Z</time>
      </trkpt>
      <trkpt lat="45.84911" lon="6.67929">
        <ele>1814.2</ele>
        <time>2013-08-26T15:31:34Z</time>
      </trkpt>
      <trkpt lat="45.84909" lon="6.67927">
        <ele>1814.2</ele>
        <time>2013-08-26T15:31:47Z</time>
      </trkpt>
      <trkpt lat="45.84908" lon="6.67926">
        <ele>1814.6</ele>
        <time>2013-08-26T15:31:48Z</time>
      </trkpt>
      <trkpt lat="45.84893" lon="6.67916">
        <ele>1816.6</ele>
        <time>2013-08-26T15:32:02Z</time>
      </trkpt>
      <trkpt lat="45.84892" lon="6.67916">
        <ele>1817</ele>
        <time>2013-08-26T15:32:03Z</time>
      </trkpt>
      <trkpt lat="45.84891" lon="6.67915">
        <ele>1816.6</ele>
        <time>2013-08-26T15:32:04Z</time>
      </trkpt>
      <trkpt lat="45.84889" lon="6.67914">
        <ele>1816.6</ele>
        <time>2013-08-26T15:32:05Z</time>
      </trkpt>
      <trkpt lat="45.84888" lon="6.67914">
        <ele>1817</ele>
        <time>2013-08-26T15:32:06Z</time>
      </trkpt>
      <trkpt lat="45.84887" lon="6.67913">
        <ele>1817</ele>
        <time>2013-08-26T15:32:07Z</time>
      </trkpt>
      <trkpt lat="45.84886" lon="6.67912">
        <ele>1817</ele>
        <time>2013-08-26T15:32:08Z</time>
      </trkpt>
      <trkpt lat="45.84885" lon="6.67912">
        <ele>1817</ele>
        <time>2013-08-26T15:32:09Z</time>
      </trkpt>
      <trkpt lat="45.8488" lon="6.67909">
        <ele>1817.5</ele>
        <time>2013-08-26T15:32:14Z</time>
      </trkpt>
      <trkpt lat="45.84879" lon="6.67908">
        <ele>1818.5</ele>
        <time>2013-08-26T15:32:15Z</time>
      </trkpt>
      <trkpt lat="45.84874" lon="6.67905">
        <ele>1819.9</ele>
        <time>2013-08-26T15:32:20Z</time>
      </trkpt>
      <trkpt lat="45.84873" lon="6.67904">
        <ele>1819.9</ele>
        <time>2013-08-26T15:32:21Z</time>
      </trkpt>
      <trkpt lat="45.84862" lon="6.67897">
        <ele>1821.8</ele>
        <time>2013-08-26T15:32:35Z</time>
      </trkpt>
      <trkpt lat="45.84861" lon="6.67897">
        <ele>1821.8</ele>
        <time>2013-08-26T15:32:36Z</time>
      </trkpt>
      <trkpt lat="45.8486" lon="6.67897">
        <ele>1821.8</ele>
        <time>2013-08-26T15:32:37Z</time>
      </trkpt>
      <trkpt lat="45.8486" lon="6.67896">
        <ele>1822.3</ele>
        <time>2013-08-26T15:32:38Z</time>
      </trkpt>
      <trkpt lat="45.84854" lon="6.67892">
        <ele>1822.8</ele>
        <time>2013-08-26T15:32:44Z</time>
      </trkpt>
      <trkpt lat="45.84849" lon="6.6789">
        <ele>1823.8</ele>
        <time>2013-08-26T15:32:50Z</time>
      </trkpt>
      <trkpt lat="45.84848" lon="6.67889">
        <ele>1823.8</ele>
        <time>2013-08-26T15:32:51Z</time>
      </trkpt>
      <trkpt lat="45.84847" lon="6.67889">
        <ele>1823.8</ele>
        <time>2013-08-26T15:32:52Z</time>
      </trkpt>
      <trkpt lat="45.84846" lon="6.67889">
        <ele>1824.2</ele>
        <time>2013-08-26T15:32:53Z</time>
      </trkpt>
      <trkpt lat="45.84845" lon="6.67888">
        <ele>1823.8</ele>
        <time>2013-08-26T15:32:54Z</time>
      </trkpt>
      <trkpt lat="45.84844" lon="6.67888">
        <ele>1824.2</ele>
        <time>2013-08-26T15:32:55Z</time>
      </trkpt>
      <trkpt lat="45.84843" lon="6.67888">
        <ele>1824.2</ele>
        <time>2013-08-26T15:32:56Z</time>
      </trkpt>
      <trkpt lat="45.84838" lon="6.67887">
        <ele>1825.2</ele>
        <time>2013-08-26T15:33:01Z</time>
      </trkpt>
      <trkpt lat="45.84837" lon="6.67887">
        <ele>1825.2</ele>
        <time>2013-08-26T15:33:02Z</time>
      </trkpt>
      <trkpt lat="45.84836" lon="6.67888">
        <ele>1825.7</ele>
        <time>2013-08-26T15:33:03Z</time>
      </trkpt>
      <trkpt lat="45.84835" lon="6.67888">
        <ele>1825.7</ele>
        <time>2013-08-26T15:33:04Z</time>
      </trkpt>
      <trkpt lat="45.84834" lon="6.67888">
        <ele>1826.2</ele>
        <time>2013-08-26T15:33:05Z</time>
      </trkpt>
      <trkpt lat="45.84833" lon="6.67888">
        <ele>1825.7</ele>
        <time>2013-08-26T15:33:06Z</time>
      </trkpt>
      <trkpt lat="45.8482" lon="6.67885">
        <ele>1828.1</ele>
        <time>2013-08-26T15:33:19Z</time>
      </trkpt>
      <trkpt lat="45.84818" lon="6.67886">
        <ele>1829.1</ele>
        <time>2013-08-26T15:33:21Z</time>
      </trkpt>
      <trkpt lat="45.84817" lon="6.67888">
        <ele>1829.1</ele>
        <time>2013-08-26T15:33:23Z</time>
      </trkpt>
      <trkpt lat="45.84815" lon="6.67888">
        <ele>1829.5</ele>
        <time>2013-08-26T15:33:25Z</time>
      </trkpt>
      <trkpt lat="45.84814" lon="6.67888">
        <ele>1830</ele>
        <time>2013-08-26T15:33:26Z</time>
      </trkpt>
      <trkpt lat="45.84813" lon="6.67887">
        <ele>1830.5</ele>
        <time>2013-08-26T15:33:27Z</time>
      </trkpt>
      <trkpt lat="45.84812" lon="6.67887">
        <ele>1831</ele>
        <time>2013-08-26T15:33:28Z</time>
      </trkpt>
      <trkpt lat="45.84811" lon="6.67887">
        <ele>1830.5</ele>
        <time>2013-08-26T15:33:29Z</time>
      </trkpt>
      <trkpt lat="45.8481" lon="6.67888">
        <ele>1830.5</ele>
        <time>2013-08-26T15:33:30Z</time>
      </trkpt>
      <trkpt lat="45.84809" lon="6.67887">
        <ele>1830.5</ele>
        <time>2013-08-26T15:33:31Z</time>
      </trkpt>
      <trkpt lat="45.84794" lon="6.67888">
        <ele>1833.4</ele>
        <time>2013-08-26T15:33:45Z</time>
      </trkpt>
      <trkpt lat="45.84789" lon="6.67889">
        <ele>1834.3</ele>
        <time>2013-08-26T15:33:50Z</time>
      </trkpt>
      <trkpt lat="45.84788" lon="6.67889">
        <ele>1834.3</ele>
        <time>2013-08-26T15:33:51Z</time>
      </trkpt>
      <trkpt lat="45.84787" lon="6.67889">
        <ele>1834.8</ele>
        <time>2013-08-26T15:33:52Z</time>
      </trkpt>
      <trkpt lat="45.84786" lon="6.67889">
        <ele>1834.3</ele>
        <time>2013-08-26T15:33:53Z</time>
      </trkpt>
      <trkpt lat="45.84785" lon="6.67889">
        <ele>1835.3</ele>
        <time>2013-08-26T15:33:54Z</time>
      </trkpt>
      <trkpt lat="45.84783" lon="6.67889">
        <ele>1835.3</ele>
        <time>2013-08-26T15:33:55Z</time>
      </trkpt>
      <trkpt lat="45.84782" lon="6.67888">
        <ele>1835.3</ele>
        <time>2013-08-26T15:33:56Z</time>
      </trkpt>
      <trkpt lat="45.84781" lon="6.67888">
        <ele>1835.3</ele>
        <time>2013-08-26T15:33:57Z</time>
      </trkpt>
      <trkpt lat="45.84765" lon="6.67886">
        <ele>1838.2</ele>
        <time>2013-08-26T15:34:12Z</time>
      </trkpt>
      <trkpt lat="45.84763" lon="6.67886">
        <ele>1838.7</ele>
        <time>2013-08-26T15:34:15Z</time>
      </trkpt>
      <trkpt lat="45.84762" lon="6.67886">
        <ele>1838.7</ele>
        <time>2013-08-26T15:34:16Z</time>
      </trkpt>
      <trkpt lat="45.84761" lon="6.67885">
        <ele>1838.7</ele>
        <time>2013-08-26T15:34:17Z</time>
      </trkpt>
      <trkpt lat="45.84749" lon="6.67883">
        <ele>1841.1</ele>
        <time>2013-08-26T15:34:29Z</time>
      </trkpt>
      <trkpt lat="45.84737" lon="6.6788">
        <ele>1842.5</ele>
        <time>2013-08-26T15:34:39Z</time>
      </trkpt>
      <trkpt lat="45.84731" lon="6.6788">
        <ele>1844</ele>
        <time>2013-08-26T15:34:44Z</time>
      </trkpt>
      <trkpt lat="45.8473" lon="6.67879">
        <ele>1843.5</ele>
        <time>2013-08-26T15:34:45Z</time>
      </trkpt>
      <trkpt lat="45.84714" lon="6.67872">
        <ele>1846.4</ele>
        <time>2013-08-26T15:34:59Z</time>
      </trkpt>
      <trkpt lat="45.84707" lon="6.6787">
        <ele>1847.3</ele>
        <time>2013-08-26T15:35:06Z</time>
      </trkpt>
      <trkpt lat="45.84706" lon="6.6787">
        <ele>1847.3</ele>
        <time>2013-08-26T15:35:07Z</time>
      </trkpt>
      <trkpt lat="45.84704" lon="6.6787">
        <ele>1847.8</ele>
        <time>2013-08-26T15:35:08Z</time>
      </trkpt>
      <trkpt lat="45.84703" lon="6.67869">
        <ele>1847.8</ele>
        <time>2013-08-26T15:35:09Z</time>
      </trkpt>
      <trkpt lat="45.84701" lon="6.67869">
        <ele>1848.8</ele>
        <time>2013-08-26T15:35:11Z</time>
      </trkpt>
      <trkpt lat="45.84695" lon="6.67868">
        <ele>1849.7</ele>
        <time>2013-08-26T15:35:17Z</time>
      </trkpt>
      <trkpt lat="45.84692" lon="6.67866">
        <ele>1850.2</ele>
        <time>2013-08-26T15:35:20Z</time>
      </trkpt>
      <trkpt lat="45.84688" lon="6.67865">
        <ele>1851.2</ele>
        <time>2013-08-26T15:35:24Z</time>
      </trkpt>
      <trkpt lat="45.84671" lon="6.67868">
        <ele>1853.6</ele>
        <time>2013-08-26T15:35:40Z</time>
      </trkpt>
      <trkpt lat="45.84668" lon="6.67868">
        <ele>1855</ele>
        <time>2013-08-26T15:35:43Z</time>
      </trkpt>
      <trkpt lat="45.84655" lon="6.67874">
        <ele>1856</ele>
        <time>2013-08-26T15:35:54Z</time>
      </trkpt>
      <trkpt lat="45.84652" lon="6.67881">
        <ele>1856.4</ele>
        <time>2013-08-26T15:35:59Z</time>
      </trkpt>
      <trkpt lat="45.84637" lon="6.67894">
        <ele>1859.3</ele>
        <time>2013-08-26T15:36:15Z</time>
      </trkpt>
      <trkpt lat="45.84627" lon="6.67905">
        <ele>1861.7</ele>
        <time>2013-08-26T15:36:26Z</time>
      </trkpt>
      <trkpt lat="45.84622" lon="6.6791">
        <ele>1862.2</ele>
        <time>2013-08-26T15:36:32Z</time>
      </trkpt>
      <trkpt lat="45.84612" lon="6.67918">
        <ele>1863.7</ele>
        <time>2013-08-26T15:36:43Z</time>
      </trkpt>
      <trkpt lat="45.84595" lon="6.6793">
        <ele>1867.5</ele>
        <time>2013-08-26T15:37:00Z</time>
      </trkpt>
      <trkpt lat="45.84577" lon="6.67948">
        <ele>1869.4</ele>
        <time>2013-08-26T15:37:19Z</time>
      </trkpt>
      <trkpt lat="45.84566" lon="6.67961">
        <ele>1872.8</ele>
        <time>2013-08-26T15:37:32Z</time>
      </trkpt>
      <trkpt lat="45.84558" lon="6.6797">
        <ele>1874.2</ele>
        <time>2013-08-26T15:37:42Z</time>
      </trkpt>
      <trkpt lat="45.84553" lon="6.67978">
        <ele>1875.2</ele>
        <time>2013-08-26T15:37:49Z</time>
      </trkpt>
      <trkpt lat="45.8454" lon="6.67993">
        <ele>1878.6</ele>
        <time>2013-08-26T15:38:05Z</time>
      </trkpt>
      <trkpt lat="45.84532" lon="6.68">
        <ele>1880</ele>
        <time>2013-08-26T15:38:14Z</time>
      </trkpt>
      <trkpt lat="45.84522" lon="6.68009">
        <ele>1883.4</ele>
        <time>2013-08-26T15:38:30Z</time>
      </trkpt>
      <trkpt lat="45.84521" lon="6.6801">
        <ele>1883.4</ele>
        <time>2013-08-26T15:38:50Z</time>
      </trkpt>
      <trkpt lat="45.84509" lon="6.68022">
        <ele>1886.7</ele>
        <time>2013-08-26T15:39:11Z</time>
      </trkpt>
      <trkpt lat="45.84499" lon="6.68031">
        <ele>1889.1</ele>
        <time>2013-08-26T15:39:30Z</time>
      </trkpt>
      <trkpt lat="45.84494" lon="6.68038">
        <ele>1891.1</ele>
        <time>2013-08-26T15:39:44Z</time>
      </trkpt>
      <trkpt lat="45.84484" lon="6.68053">
        <ele>1892.5</ele>
        <time>2013-08-26T15:39:58Z</time>
      </trkpt>
      <trkpt lat="45.84476" lon="6.68067">
        <ele>1894.4</ele>
        <time>2013-08-26T15:40:08Z</time>
      </trkpt>
      <trkpt lat="45.84466" lon="6.68084">
        <ele>1896.8</ele>
        <time>2013-08-26T15:40:22Z</time>
      </trkpt>
      <trkpt lat="45.84458" lon="6.68097">
        <ele>1898.3</ele>
        <time>2013-08-26T15:40:37Z</time>
      </trkpt>
      <trkpt lat="45.84452" lon="6.68106">
        <ele>1899.2</ele>
        <time>2013-08-26T15:40:52Z</time>
      </trkpt>
      <trkpt lat="45.8445" lon="6.6811">
        <ele>1900.2</ele>
        <time>2013-08-26T15:41:06Z</time>
      </trkpt>
      <trkpt lat="45.84448" lon="6.6811">
        <ele>1899.7</ele>
        <time>2013-08-26T15:41:19Z</time>
      </trkpt>
      <trkpt lat="45.84446" lon="6.68108">
        <ele>1899.7</ele>
        <time>2013-08-26T15:41:38Z</time>
      </trkpt>
      <trkpt lat="45.84447" lon="6.68109">
        <ele>1899.2</ele>
        <time>2013-08-26T15:41:57Z</time>
      </trkpt>
      <trkpt lat="45.8445" lon="6.6811">
        <ele>1899.2</ele>
        <time>2013-08-26T15:42:11Z</time>
      </trkpt>
      <trkpt lat="45.84447" lon="6.68112">
        <ele>1899.2</ele>
        <time>2013-08-26T15:42:29Z</time>
      </trkpt>
      <trkpt lat="45.84445" lon="6.68116">
        <ele>1899.7</ele>
        <time>2013-08-26T15:42:39Z</time>
      </trkpt>
      <trkpt lat="45.84442" lon="6.68117">
        <ele>1899.7</ele>
        <time>2013-08-26T15:43:06Z</time>
      </trkpt>
      <trkpt lat="45.84441" lon="6.68119">
        <ele>1899.2</ele>
        <time>2013-08-26T15:43:10Z</time>
      </trkpt>
      <trkpt lat="45.84439" lon="6.68118">
        <ele>1899.7</ele>
        <time>2013-08-26T15:43:12Z</time>
      </trkpt>
      <trkpt lat="45.84432" lon="6.68139">
        <ele>1901.1</ele>
        <time>2013-08-26T15:43:26Z</time>
      </trkpt>
      <trkpt lat="45.84426" lon="6.68161">
        <ele>1903.1</ele>
        <time>2013-08-26T15:43:36Z</time>
      </trkpt>
      <trkpt lat="45.84416" lon="6.68198">
        <ele>1905.5</ele>
        <time>2013-08-26T15:43:53Z</time>
      </trkpt>
      <trkpt lat="45.84403" lon="6.68246">
        <ele>1906</ele>
        <time>2013-08-26T15:44:10Z</time>
      </trkpt>
      <trkpt lat="45.84388" lon="6.68305">
        <ele>1907.4</ele>
        <time>2013-08-26T15:44:26Z</time>
      </trkpt>
      <trkpt lat="45.84378" lon="6.68353">
        <ele>1907.9</ele>
        <time>2013-08-26T15:44:39Z</time>
      </trkpt>
      <trkpt lat="45.8437" lon="6.68413">
        <ele>1909.8</ele>
        <time>2013-08-26T15:44:56Z</time>
      </trkpt>
      <trkpt lat="45.84357" lon="6.68468">
        <ele>1912.2</ele>
        <time>2013-08-26T15:45:14Z</time>
      </trkpt>
      <trkpt lat="45.84344" lon="6.68518">
        <ele>1914.6</ele>
        <time>2013-08-26T15:45:32Z</time>
      </trkpt>
      <trkpt lat="45.84332" lon="6.68563">
        <ele>1916.5</ele>
        <time>2013-08-26T15:45:48Z</time>
      </trkpt>
      <trkpt lat="45.84321" lon="6.68598">
        <ele>1918.5</ele>
        <time>2013-08-26T15:46:01Z</time>
      </trkpt>
      <trkpt lat="45.84304" lon="6.68639">
        <ele>1920.4</ele>
        <time>2013-08-26T15:46:19Z</time>
      </trkpt>
      <trkpt lat="45.84284" lon="6.68678">
        <ele>1922.8</ele>
        <time>2013-08-26T15:46:36Z</time>
      </trkpt>
      <trkpt lat="45.84264" lon="6.68715">
        <ele>1924.7</ele>
        <time>2013-08-26T15:46:53Z</time>
      </trkpt>
      <trkpt lat="45.84244" lon="6.68732">
        <ele>1927.1</ele>
        <time>2013-08-26T15:47:06Z</time>
      </trkpt>
      <trkpt lat="45.84221" lon="6.68754">
        <ele>1930</ele>
        <time>2013-08-26T15:47:23Z</time>
      </trkpt>
      <trkpt lat="45.8421" lon="6.68765">
        <ele>1931.4</ele>
        <time>2013-08-26T15:47:33Z</time>
      </trkpt>
      <trkpt lat="45.84209" lon="6.68767">
        <ele>1931.9</ele>
        <time>2013-08-26T15:47:34Z</time>
      </trkpt>
      <trkpt lat="45.84191" lon="6.68785">
        <ele>1934.3</ele>
        <time>2013-08-26T15:47:49Z</time>
      </trkpt>
      <trkpt lat="45.84177" lon="6.68805">
        <ele>1937.2</ele>
        <time>2013-08-26T15:48:04Z</time>
      </trkpt>
      <trkpt lat="45.84174" lon="6.68811">
        <ele>1938.2</ele>
        <time>2013-08-26T15:48:08Z</time>
      </trkpt>
      <trkpt lat="45.84173" lon="6.68813">
        <ele>1938.2</ele>
        <time>2013-08-26T15:48:09Z</time>
      </trkpt>
      <trkpt lat="45.84172" lon="6.68814">
        <ele>1938.6</ele>
        <time>2013-08-26T15:48:10Z</time>
      </trkpt>
      <trkpt lat="45.84171" lon="6.68815">
        <ele>1938.6</ele>
        <time>2013-08-26T15:48:11Z</time>
      </trkpt>
      <trkpt lat="45.8417" lon="6.68817">
        <ele>1939.6</ele>
        <time>2013-08-26T15:48:12Z</time>
      </trkpt>
      <trkpt lat="45.84158" lon="6.68837">
        <ele>1942.5</ele>
        <time>2013-08-26T15:48:27Z</time>
      </trkpt>
      <trkpt lat="45.84154" lon="6.68846">
        <ele>1944.4</ele>
        <time>2013-08-26T15:48:39Z</time>
      </trkpt>
      <trkpt lat="45.84151" lon="6.68851">
        <ele>1944.9</ele>
        <time>2013-08-26T15:48:54Z</time>
      </trkpt>
      <trkpt lat="45.84146" lon="6.6886">
        <ele>1945.9</ele>
        <time>2013-08-26T15:49:16Z</time>
      </trkpt>
      <trkpt lat="45.84138" lon="6.68872">
        <ele>1948.7</ele>
        <time>2013-08-26T15:49:31Z</time>
      </trkpt>
      <trkpt lat="45.84133" lon="6.68888">
        <ele>1951.6</ele>
        <time>2013-08-26T15:49:49Z</time>
      </trkpt>
      <trkpt lat="45.84124" lon="6.68902">
        <ele>1953.5</ele>
        <time>2013-08-26T15:50:07Z</time>
      </trkpt>
      <trkpt lat="45.84115" lon="6.68914">
        <ele>1955.9</ele>
        <time>2013-08-26T15:50:24Z</time>
      </trkpt>
      <trkpt lat="45.84105" lon="6.68926">
        <ele>1957.9</ele>
        <time>2013-08-26T15:50:41Z</time>
      </trkpt>
      <trkpt lat="45.84099" lon="6.68937">
        <ele>1960.8</ele>
        <time>2013-08-26T15:50:56Z</time>
      </trkpt>
      <trkpt lat="45.8409" lon="6.6895">
        <ele>1962.7</ele>
        <time>2013-08-26T15:51:13Z</time>
      </trkpt>
      <trkpt lat="45.84081" lon="6.68966">
        <ele>1965.6</ele>
        <time>2013-08-26T15:51:32Z</time>
      </trkpt>
      <trkpt lat="45.84079" lon="6.68971">
        <ele>1966.5</ele>
        <time>2013-08-26T15:51:50Z</time>
      </trkpt>
      <trkpt lat="45.84073" lon="6.68988">
        <ele>1969.4</ele>
        <time>2013-08-26T15:52:10Z</time>
      </trkpt>
      <trkpt lat="45.84073" lon="6.6899">
        <ele>1970.4</ele>
        <time>2013-08-26T15:52:26Z</time>
      </trkpt>
      <trkpt lat="45.84071" lon="6.68998">
        <ele>1971.3</ele>
        <time>2013-08-26T15:52:42Z</time>
      </trkpt>
      <trkpt lat="45.8407" lon="6.69003">
        <ele>1971.8</ele>
        <time>2013-08-26T15:52:52Z</time>
      </trkpt>
      <trkpt lat="45.84069" lon="6.69004">
        <ele>1972.3</ele>
        <time>2013-08-26T15:52:53Z</time>
      </trkpt>
      <trkpt lat="45.84069" lon="6.69006">
        <ele>1972.3</ele>
        <time>2013-08-26T15:52:54Z</time>
      </trkpt>
      <trkpt lat="45.84063" lon="6.69025">
        <ele>1975.7</ele>
        <time>2013-08-26T15:53:13Z</time>
      </trkpt>
      <trkpt lat="45.84058" lon="6.69042">
        <ele>1978.5</ele>
        <time>2013-08-26T15:53:33Z</time>
      </trkpt>
      <trkpt lat="45.84054" lon="6.69058">
        <ele>1980.9</ele>
        <time>2013-08-26T15:53:51Z</time>
      </trkpt>
      <trkpt lat="45.84049" lon="6.69073">
        <ele>1983.8</ele>
        <time>2013-08-26T15:54:08Z</time>
      </trkpt>
      <trkpt lat="45.84047" lon="6.69078">
        <ele>1985.3</ele>
        <time>2013-08-26T15:54:15Z</time>
      </trkpt>
      <trkpt lat="45.84043" lon="6.69095">
        <ele>1987.7</ele>
        <time>2013-08-26T15:54:33Z</time>
      </trkpt>
      <trkpt lat="45.84038" lon="6.69111">
        <ele>1990.1</ele>
        <time>2013-08-26T15:54:52Z</time>
      </trkpt>
      <trkpt lat="45.84031" lon="6.69128">
        <ele>1993</ele>
        <time>2013-08-26T15:55:11Z</time>
      </trkpt>
      <trkpt lat="45.84031" lon="6.69128">
        <ele>1993.4</ele>
        <time>2013-08-26T15:55:27Z</time>
      </trkpt>
      <trkpt lat="45.8403" lon="6.69132">
        <ele>1994.4</ele>
        <time>2013-08-26T15:55:49Z</time>
      </trkpt>
      <trkpt lat="45.84025" lon="6.69145">
        <ele>1996.8</ele>
        <time>2013-08-26T15:56:06Z</time>
      </trkpt>
      <trkpt lat="45.84024" lon="6.69161">
        <ele>1999.7</ele>
        <time>2013-08-26T15:56:27Z</time>
      </trkpt>
      <trkpt lat="45.84022" lon="6.69174">
        <ele>2001.6</ele>
        <time>2013-08-26T15:56:45Z</time>
      </trkpt>
      <trkpt lat="45.84021" lon="6.69177">
        <ele>2002.6</ele>
        <time>2013-08-26T15:56:52Z</time>
      </trkpt>
      <trkpt lat="45.84019" lon="6.6918">
        <ele>2002.1</ele>
        <time>2013-08-26T15:57:10Z</time>
      </trkpt>
      <trkpt lat="45.8402" lon="6.6919">
        <ele>2002.1</ele>
        <time>2013-08-26T15:57:30Z</time>
      </trkpt>
      <trkpt lat="45.84017" lon="6.69194">
        <ele>2002.1</ele>
        <time>2013-08-26T15:57:46Z</time>
      </trkpt>
      <trkpt lat="45.84018" lon="6.69196">
        <ele>2002.1</ele>
        <time>2013-08-26T15:58:11Z</time>
      </trkpt>
      <trkpt lat="45.84017" lon="6.69194">
        <ele>2001.6</ele>
        <time>2013-08-26T15:58:41Z</time>
      </trkpt>
      <trkpt lat="45.84017" lon="6.69193">
        <ele>2000.2</ele>
        <time>2013-08-26T15:59:01Z</time>
      </trkpt>
      <trkpt lat="45.83971" lon="6.69202">
        <ele>1989.1</ele>
        <time>2013-08-27T05:21:07Z</time>
      </trkpt>
      <trkpt lat="45.83943" lon="6.69205">
        <ele>1991.5</ele>
        <time>2013-08-27T05:21:26Z</time>
      </trkpt>
      <trkpt lat="45.83927" lon="6.69199">
        <ele>1994.9</ele>
        <time>2013-08-27T05:21:41Z</time>
      </trkpt>
      <trkpt lat="45.83925" lon="6.692">
        <ele>1995.8</ele>
        <time>2013-08-27T05:21:43Z</time>
      </trkpt>
      <trkpt lat="45.83915" lon="6.69197">
        <ele>1998.2</ele>
        <time>2013-08-27T05:21:50Z</time>
      </trkpt>
      <trkpt lat="45.83903" lon="6.69194">
        <ele>2002.1</ele>
        <time>2013-08-27T05:21:59Z</time>
      </trkpt>
      <trkpt lat="45.83901" lon="6.69194">
        <ele>2002.1</ele>
        <time>2013-08-27T05:22:00Z</time>
      </trkpt>
      <trkpt lat="45.83895" lon="6.69194">
        <ele>2003.5</ele>
        <time>2013-08-27T05:22:04Z</time>
      </trkpt>
      <trkpt lat="45.83883" lon="6.69191">
        <ele>2006.9</ele>
        <time>2013-08-27T05:22:13Z</time>
      </trkpt>
      <trkpt lat="45.83873" lon="6.69188">
        <ele>2010.7</ele>
        <time>2013-08-27T05:22:21Z</time>
      </trkpt>
      <trkpt lat="45.83868" lon="6.69187">
        <ele>2011.7</ele>
        <time>2013-08-27T05:22:25Z</time>
      </trkpt>
      <trkpt lat="45.8386" lon="6.69184">
        <ele>2013.1</ele>
        <time>2013-08-27T05:22:31Z</time>
      </trkpt>
      <trkpt lat="45.83843" lon="6.69181">
        <ele>2016.5</ele>
        <time>2013-08-27T05:22:43Z</time>
      </trkpt>
      <trkpt lat="45.83829" lon="6.69178">
        <ele>2019.9</ele>
        <time>2013-08-27T05:22:54Z</time>
      </trkpt>
      <trkpt lat="45.83828" lon="6.69178">
        <ele>2019.9</ele>
        <time>2013-08-27T05:22:55Z</time>
      </trkpt>
      <trkpt lat="45.83812" lon="6.69171">
        <ele>2023.7</ele>
        <time>2013-08-27T05:23:07Z</time>
      </trkpt>
      <trkpt lat="45.83788" lon="6.69161">
        <ele>2026.1</ele>
        <time>2013-08-27T05:23:25Z</time>
      </trkpt>
      <trkpt lat="45.83765" lon="6.69146">
        <ele>2029.5</ele>
        <time>2013-08-27T05:23:42Z</time>
      </trkpt>
      <trkpt lat="45.83737" lon="6.69128">
        <ele>2031.4</ele>
        <time>2013-08-27T05:24:01Z</time>
      </trkpt>
      <trkpt lat="45.83729" lon="6.69122">
        <ele>2031.9</ele>
        <time>2013-08-27T05:24:06Z</time>
      </trkpt>
      <trkpt lat="45.83716" lon="6.69093">
        <ele>2034.3</ele>
        <time>2013-08-27T05:24:23Z</time>
      </trkpt>
      <trkpt lat="45.83706" lon="6.69067">
        <ele>2034.3</ele>
        <time>2013-08-27T05:24:34Z</time>
      </trkpt>
      <trkpt lat="45.83685" lon="6.69031">
        <ele>2035.7</ele>
        <time>2013-08-27T05:24:52Z</time>
      </trkpt>
      <trkpt lat="45.83675" lon="6.69016">
        <ele>2037.2</ele>
        <time>2013-08-27T05:25:01Z</time>
      </trkpt>
      <trkpt lat="45.83659" lon="6.69002">
        <ele>2041</ele>
        <time>2013-08-27T05:25:13Z</time>
      </trkpt>
      <trkpt lat="45.83658" lon="6.69002">
        <ele>2040.5</ele>
        <time>2013-08-27T05:25:24Z</time>
      </trkpt>
      <trkpt lat="45.83648" lon="6.68997">
        <ele>2042.9</ele>
        <time>2013-08-27T05:25:41Z</time>
      </trkpt>
      <trkpt lat="45.8364" lon="6.68996">
        <ele>2045.8</ele>
        <time>2013-08-27T05:25:55Z</time>
      </trkpt>
      <trkpt lat="45.83632" lon="6.69001">
        <ele>2049.2</ele>
        <time>2013-08-27T05:26:09Z</time>
      </trkpt>
      <trkpt lat="45.83627" lon="6.69006">
        <ele>2050.6</ele>
        <time>2013-08-27T05:26:28Z</time>
      </trkpt>
      <trkpt lat="45.83622" lon="6.69014">
        <ele>2054</ele>
        <time>2013-08-27T05:26:44Z</time>
      </trkpt>
      <trkpt lat="45.83613" lon="6.69017">
        <ele>2056.9</ele>
        <time>2013-08-27T05:27:02Z</time>
      </trkpt>
      <trkpt lat="45.83603" lon="6.69011">
        <ele>2059.3</ele>
        <time>2013-08-27T05:27:19Z</time>
      </trkpt>
      <trkpt lat="45.83599" lon="6.69">
        <ele>2061.2</ele>
        <time>2013-08-27T05:27:32Z</time>
      </trkpt>
      <trkpt lat="45.83597" lon="6.68996">
        <ele>2061.2</ele>
        <time>2013-08-27T05:27:35Z</time>
      </trkpt>
      <trkpt lat="45.83596" lon="6.68994">
        <ele>2060.7</ele>
        <time>2013-08-27T05:27:36Z</time>
      </trkpt>
      <trkpt lat="45.83595" lon="6.68993">
        <ele>2061.2</ele>
        <time>2013-08-27T05:27:37Z</time>
      </trkpt>
      <trkpt lat="45.83585" lon="6.68981">
        <ele>2063.1</ele>
        <time>2013-08-27T05:27:54Z</time>
      </trkpt>
      <trkpt lat="45.83575" lon="6.68973">
        <ele>2066</ele>
        <time>2013-08-27T05:28:12Z</time>
      </trkpt>
      <trkpt lat="45.83567" lon="6.6897">
        <ele>2069.4</ele>
        <time>2013-08-27T05:28:25Z</time>
      </trkpt>
      <trkpt lat="45.83558" lon="6.68972">
        <ele>2072.3</ele>
        <time>2013-08-27T05:28:41Z</time>
      </trkpt>
      <trkpt lat="45.83559" lon="6.68984">
        <ele>2075.1</ele>
        <time>2013-08-27T05:28:58Z</time>
      </trkpt>
      <trkpt lat="45.8356" lon="6.68993">
        <ele>2077.6</ele>
        <time>2013-08-27T05:29:18Z</time>
      </trkpt>
      <trkpt lat="45.83559" lon="6.69002">
        <ele>2080.9</ele>
        <time>2013-08-27T05:29:34Z</time>
      </trkpt>
      <trkpt lat="45.8356" lon="6.69009">
        <ele>2082.4</ele>
        <time>2013-08-27T05:29:47Z</time>
      </trkpt>
      <trkpt lat="45.83561" lon="6.69017">
        <ele>2084.3</ele>
        <time>2013-08-27T05:30:01Z</time>
      </trkpt>
      <trkpt lat="45.83559" lon="6.69024">
        <ele>2086.2</ele>
        <time>2013-08-27T05:30:17Z</time>
      </trkpt>
      <trkpt lat="45.83558" lon="6.69031">
        <ele>2089.1</ele>
        <time>2013-08-27T05:30:28Z</time>
      </trkpt>
      <trkpt lat="45.83555" lon="6.69039">
        <ele>2092.5</ele>
        <time>2013-08-27T05:30:40Z</time>
      </trkpt>
      <trkpt lat="45.83551" lon="6.69045">
        <ele>2093.4</ele>
        <time>2013-08-27T05:30:55Z</time>
      </trkpt>
      <trkpt lat="45.83545" lon="6.69043">
        <ele>2094.9</ele>
        <time>2013-08-27T05:31:08Z</time>
      </trkpt>
      <trkpt lat="45.83536" lon="6.69039">
        <ele>2098.2</ele>
        <time>2013-08-27T05:31:25Z</time>
      </trkpt>
      <trkpt lat="45.83524" lon="6.69038">
        <ele>2100.1</ele>
        <time>2013-08-27T05:31:43Z</time>
      </trkpt>
      <trkpt lat="45.83515" lon="6.69034">
        <ele>2102.5</ele>
        <time>2013-08-27T05:32:00Z</time>
      </trkpt>
      <trkpt lat="45.83503" lon="6.69028">
        <ele>2104.9</ele>
        <time>2013-08-27T05:32:18Z</time>
      </trkpt>
      <trkpt lat="45.83498" lon="6.6902">
        <ele>2107.8</ele>
        <time>2013-08-27T05:32:34Z</time>
      </trkpt>
      <trkpt lat="45.83492" lon="6.69017">
        <ele>2109.3</ele>
        <time>2013-08-27T05:32:53Z</time>
      </trkpt>
      <trkpt lat="45.83488" lon="6.69011">
        <ele>2112.2</ele>
        <time>2013-08-27T05:33:06Z</time>
      </trkpt>
      <trkpt lat="45.83482" lon="6.69003">
        <ele>2115</ele>
        <time>2013-08-27T05:33:23Z</time>
      </trkpt>
      <trkpt lat="45.83478" lon="6.68999">
        <ele>2117</ele>
        <time>2013-08-27T05:33:39Z</time>
      </trkpt>
      <trkpt lat="45.83472" lon="6.6899">
        <ele>2119.4</ele>
        <time>2013-08-27T05:33:57Z</time>
      </trkpt>
      <trkpt lat="45.83466" lon="6.68983">
        <ele>2121.8</ele>
        <time>2013-08-27T05:34:12Z</time>
      </trkpt>
      <trkpt lat="45.83461" lon="6.68975">
        <ele>2124.2</ele>
        <time>2013-08-27T05:34:28Z</time>
      </trkpt>
      <trkpt lat="45.83455" lon="6.68969">
        <ele>2126.1</ele>
        <time>2013-08-27T05:34:49Z</time>
      </trkpt>
      <trkpt lat="45.83447" lon="6.68963">
        <ele>2129.5</ele>
        <time>2013-08-27T05:35:04Z</time>
      </trkpt>
      <trkpt lat="45.8344" lon="6.68955">
        <ele>2132.3</ele>
        <time>2013-08-27T05:35:20Z</time>
      </trkpt>
      <trkpt lat="45.83435" lon="6.68949">
        <ele>2135.7</ele>
        <time>2013-08-27T05:35:33Z</time>
      </trkpt>
      <trkpt lat="45.83429" lon="6.68941">
        <ele>2138.6</ele>
        <time>2013-08-27T05:35:49Z</time>
      </trkpt>
      <trkpt lat="45.83426" lon="6.68938">
        <ele>2139.6</ele>
        <time>2013-08-27T05:36:06Z</time>
      </trkpt>
      <trkpt lat="45.83426" lon="6.68938">
        <ele>2139.6</ele>
        <time>2013-08-27T05:36:23Z</time>
      </trkpt>
      <trkpt lat="45.83421" lon="6.68931">
        <ele>2141</ele>
        <time>2013-08-27T05:36:36Z</time>
      </trkpt>
      <trkpt lat="45.83416" lon="6.68922">
        <ele>2143.9</ele>
        <time>2013-08-27T05:36:48Z</time>
      </trkpt>
      <trkpt lat="45.83409" lon="6.68918">
        <ele>2146.3</ele>
        <time>2013-08-27T05:37:05Z</time>
      </trkpt>
      <trkpt lat="45.83401" lon="6.68917">
        <ele>2149.2</ele>
        <time>2013-08-27T05:37:21Z</time>
      </trkpt>
      <trkpt lat="45.83394" lon="6.68912">
        <ele>2152.1</ele>
        <time>2013-08-27T05:37:36Z</time>
      </trkpt>
      <trkpt lat="45.83389" lon="6.68901">
        <ele>2154.9</ele>
        <time>2013-08-27T05:37:52Z</time>
      </trkpt>
      <trkpt lat="45.83384" lon="6.68895">
        <ele>2157.3</ele>
        <time>2013-08-27T05:38:05Z</time>
      </trkpt>
      <trkpt lat="45.83377" lon="6.68891">
        <ele>2160.2</ele>
        <time>2013-08-27T05:38:21Z</time>
      </trkpt>
      <trkpt lat="45.83371" lon="6.68882">
        <ele>2162.6</ele>
        <time>2013-08-27T05:38:35Z</time>
      </trkpt>
      <trkpt lat="45.83365" lon="6.68872">
        <ele>2164.1</ele>
        <time>2013-08-27T05:38:50Z</time>
      </trkpt>
      <trkpt lat="45.83362" lon="6.68873">
        <ele>2164.6</ele>
        <time>2013-08-27T05:39:06Z</time>
      </trkpt>
      <trkpt lat="45.83357" lon="6.68878">
        <ele>2167</ele>
        <time>2013-08-27T05:39:18Z</time>
      </trkpt>
      <trkpt lat="45.83355" lon="6.68882">
        <ele>2168.4</ele>
        <time>2013-08-27T05:39:35Z</time>
      </trkpt>
      <trkpt lat="45.8335" lon="6.68889">
        <ele>2170.8</ele>
        <time>2013-08-27T05:39:50Z</time>
      </trkpt>
      <trkpt lat="45.83349" lon="6.68892">
        <ele>2172.7</ele>
        <time>2013-08-27T05:40:04Z</time>
      </trkpt>
      <trkpt lat="45.83348" lon="6.6889">
        <ele>2172.7</ele>
        <time>2013-08-27T05:40:22Z</time>
      </trkpt>
      <trkpt lat="45.83347" lon="6.68893">
        <ele>2173.2</ele>
        <time>2013-08-27T05:40:41Z</time>
      </trkpt>
      <trkpt lat="45.83343" lon="6.68898">
        <ele>2176.6</ele>
        <time>2013-08-27T05:40:53Z</time>
      </trkpt>
      <trkpt lat="45.83342" lon="6.68906">
        <ele>2178</ele>
        <time>2013-08-27T05:41:06Z</time>
      </trkpt>
      <trkpt lat="45.83339" lon="6.6891">
        <ele>2179.9</ele>
        <time>2013-08-27T05:41:23Z</time>
      </trkpt>
      <trkpt lat="45.83337" lon="6.68917">
        <ele>2183.3</ele>
        <time>2013-08-27T05:41:37Z</time>
      </trkpt>
      <trkpt lat="45.83335" lon="6.6892">
        <ele>2183.3</ele>
        <time>2013-08-27T05:41:58Z</time>
      </trkpt>
      <trkpt lat="45.83331" lon="6.68924">
        <ele>2186.7</ele>
        <time>2013-08-27T05:42:08Z</time>
      </trkpt>
      <trkpt lat="45.83329" lon="6.68929">
        <ele>2187.6</ele>
        <time>2013-08-27T05:42:20Z</time>
      </trkpt>
      <trkpt lat="45.83324" lon="6.68937">
        <ele>2191</ele>
        <time>2013-08-27T05:42:34Z</time>
      </trkpt>
      <trkpt lat="45.83321" lon="6.68939">
        <ele>2192.9</ele>
        <time>2013-08-27T05:42:50Z</time>
      </trkpt>
      <trkpt lat="45.83313" lon="6.6894">
        <ele>2193.9</ele>
        <time>2013-08-27T05:43:04Z</time>
      </trkpt>
      <trkpt lat="45.83304" lon="6.6894">
        <ele>2197.2</ele>
        <time>2013-08-27T05:43:18Z</time>
      </trkpt>
      <trkpt lat="45.83295" lon="6.6894">
        <ele>2200.6</ele>
        <time>2013-08-27T05:43:33Z</time>
      </trkpt>
      <trkpt lat="45.83284" lon="6.6894">
        <ele>2204</ele>
        <time>2013-08-27T05:43:51Z</time>
      </trkpt>
      <trkpt lat="45.83274" lon="6.68941">
        <ele>2206.8</ele>
        <time>2013-08-27T05:44:09Z</time>
      </trkpt>
      <trkpt lat="45.83265" lon="6.68939">
        <ele>2210.2</ele>
        <time>2013-08-27T05:44:26Z</time>
      </trkpt>
      <trkpt lat="45.83254" lon="6.68935">
        <ele>2213.1</ele>
        <time>2013-08-27T05:44:43Z</time>
      </trkpt>
      <trkpt lat="45.83242" lon="6.68932">
        <ele>2216.5</ele>
        <time>2013-08-27T05:45:00Z</time>
      </trkpt>
      <trkpt lat="45.83231" lon="6.68933">
        <ele>2218.9</ele>
        <time>2013-08-27T05:45:17Z</time>
      </trkpt>
      <trkpt lat="45.83221" lon="6.68933">
        <ele>2221.3</ele>
        <time>2013-08-27T05:45:31Z</time>
      </trkpt>
      <trkpt lat="45.83208" lon="6.68934">
        <ele>2223.7</ele>
        <time>2013-08-27T05:45:48Z</time>
      </trkpt>
      <trkpt lat="45.83196" lon="6.68932">
        <ele>2226.1</ele>
        <time>2013-08-27T05:46:03Z</time>
      </trkpt>
      <trkpt lat="45.83184" lon="6.68933">
        <ele>2229.4</ele>
        <time>2013-08-27T05:46:20Z</time>
      </trkpt>
      <trkpt lat="45.8318" lon="6.68934">
        <ele>2230.4</ele>
        <time>2013-08-27T05:46:25Z</time>
      </trkpt>
      <trkpt lat="45.83169" lon="6.68936">
        <ele>2232.8</ele>
        <time>2013-08-27T05:46:41Z</time>
      </trkpt>
      <trkpt lat="45.83157" lon="6.68938">
        <ele>2236.2</ele>
        <time>2013-08-27T05:46:58Z</time>
      </trkpt>
      <trkpt lat="45.83144" lon="6.68937">
        <ele>2238.6</ele>
        <time>2013-08-27T05:47:15Z</time>
      </trkpt>
      <trkpt lat="45.83136" lon="6.68941">
        <ele>2241.5</ele>
        <time>2013-08-27T05:47:27Z</time>
      </trkpt>
      <trkpt lat="45.83126" lon="6.68941">
        <ele>2243.9</ele>
        <time>2013-08-27T05:47:42Z</time>
      </trkpt>
      <trkpt lat="45.83116" lon="6.68943">
        <ele>2247.2</ele>
        <time>2013-08-27T05:47:58Z</time>
      </trkpt>
      <trkpt lat="45.83105" lon="6.68948">
        <ele>2250.1</ele>
        <time>2013-08-27T05:48:14Z</time>
      </trkpt>
      <trkpt lat="45.83095" lon="6.68952">
        <ele>2252.5</ele>
        <time>2013-08-27T05:48:30Z</time>
      </trkpt>
      <trkpt lat="45.83086" lon="6.68956">
        <ele>2255.4</ele>
        <time>2013-08-27T05:48:44Z</time>
      </trkpt>
      <trkpt lat="45.83074" lon="6.6896">
        <ele>2257.3</ele>
        <time>2013-08-27T05:49:01Z</time>
      </trkpt>
      <trkpt lat="45.83068" lon="6.68966">
        <ele>2259.2</ele>
        <time>2013-08-27T05:49:13Z</time>
      </trkpt>
      <trkpt lat="45.83061" lon="6.68974">
        <ele>2261.6</ele>
        <time>2013-08-27T05:49:26Z</time>
      </trkpt>
      <trkpt lat="45.8306" lon="6.6898">
        <ele>2264</ele>
        <time>2013-08-27T05:49:39Z</time>
      </trkpt>
      <trkpt lat="45.83062" lon="6.68979">
        <ele>2263.6</ele>
        <time>2013-08-27T05:49:51Z</time>
      </trkpt>
      <trkpt lat="45.83066" lon="6.68977">
        <ele>2263.1</ele>
        <time>2013-08-27T05:50:03Z</time>
      </trkpt>
      <trkpt lat="45.83083" lon="6.68978">
        <ele>2264.5</ele>
        <time>2013-08-27T05:50:15Z</time>
      </trkpt>
      <trkpt lat="45.83084" lon="6.68978">
        <ele>2265.5</ele>
        <time>2013-08-27T05:50:16Z</time>
      </trkpt>
      <trkpt lat="45.83085" lon="6.68978">
        <ele>2264.5</ele>
        <time>2013-08-27T05:50:17Z</time>
      </trkpt>
      <trkpt lat="45.83101" lon="6.68984">
        <ele>2267.9</ele>
        <time>2013-08-27T05:50:30Z</time>
      </trkpt>
      <trkpt lat="45.83102" lon="6.68984">
        <ele>2268.4</ele>
        <time>2013-08-27T05:50:31Z</time>
      </trkpt>
      <trkpt lat="45.83103" lon="6.68984">
        <ele>2268.4</ele>
        <time>2013-08-27T05:50:32Z</time>
      </trkpt>
      <trkpt lat="45.83104" lon="6.68984">
        <ele>2267.9</ele>
        <time>2013-08-27T05:50:33Z</time>
      </trkpt>
      <trkpt lat="45.83105" lon="6.68985">
        <ele>2268.9</ele>
        <time>2013-08-27T05:50:34Z</time>
      </trkpt>
      <trkpt lat="45.83106" lon="6.68985">
        <ele>2268.9</ele>
        <time>2013-08-27T05:50:35Z</time>
      </trkpt>
      <trkpt lat="45.83109" lon="6.68989">
        <ele>2269.8</ele>
        <time>2013-08-27T05:50:48Z</time>
      </trkpt>
      <trkpt lat="45.83113" lon="6.68991">
        <ele>2270.8</ele>
        <time>2013-08-27T05:51:00Z</time>
      </trkpt>
      <trkpt lat="45.83117" lon="6.68995">
        <ele>2270.8</ele>
        <time>2013-08-27T05:51:11Z</time>
      </trkpt>
      <trkpt lat="45.83129" lon="6.69002">
        <ele>2274.1</ele>
        <time>2013-08-27T05:51:27Z</time>
      </trkpt>
      <trkpt lat="45.83139" lon="6.69011">
        <ele>2276.5</ele>
        <time>2013-08-27T05:51:44Z</time>
      </trkpt>
      <trkpt lat="45.8315" lon="6.69019">
        <ele>2278</ele>
        <time>2013-08-27T05:52:00Z</time>
      </trkpt>
      <trkpt lat="45.83158" lon="6.69027">
        <ele>2280.4</ele>
        <time>2013-08-27T05:52:18Z</time>
      </trkpt>
      <trkpt lat="45.83166" lon="6.69033">
        <ele>2281.8</ele>
        <time>2013-08-27T05:52:36Z</time>
      </trkpt>
      <trkpt lat="45.83177" lon="6.69043">
        <ele>2284.2</ele>
        <time>2013-08-27T05:52:53Z</time>
      </trkpt>
      <trkpt lat="45.83187" lon="6.69053">
        <ele>2286.6</ele>
        <time>2013-08-27T05:53:10Z</time>
      </trkpt>
      <trkpt lat="45.83197" lon="6.69066">
        <ele>2289</ele>
        <time>2013-08-27T05:53:27Z</time>
      </trkpt>
      <trkpt lat="45.83204" lon="6.69077">
        <ele>2291.9</ele>
        <time>2013-08-27T05:53:41Z</time>
      </trkpt>
      <trkpt lat="45.83211" lon="6.69087">
        <ele>2294.3</ele>
        <time>2013-08-27T05:53:57Z</time>
      </trkpt>
      <trkpt lat="45.83217" lon="6.69096">
        <ele>2295.8</ele>
        <time>2013-08-27T05:54:10Z</time>
      </trkpt>
      <trkpt lat="45.83226" lon="6.69111">
        <ele>2298.2</ele>
        <time>2013-08-27T05:54:26Z</time>
      </trkpt>
      <trkpt lat="45.83226" lon="6.69112">
        <ele>2298.2</ele>
        <time>2013-08-27T05:54:27Z</time>
      </trkpt>
      <trkpt lat="45.83234" lon="6.69125">
        <ele>2300.1</ele>
        <time>2013-08-27T05:54:42Z</time>
      </trkpt>
      <trkpt lat="45.83241" lon="6.69141">
        <ele>2303</ele>
        <time>2013-08-27T05:54:59Z</time>
      </trkpt>
      <trkpt lat="45.83247" lon="6.69158">
        <ele>2306.3</ele>
        <time>2013-08-27T05:55:16Z</time>
      </trkpt>
      <trkpt lat="45.8325" lon="6.69172">
        <ele>2308.3</ele>
        <time>2013-08-27T05:55:31Z</time>
      </trkpt>
      <trkpt lat="45.83251" lon="6.69184">
        <ele>2310.2</ele>
        <time>2013-08-27T05:55:46Z</time>
      </trkpt>
      <trkpt lat="45.83252" lon="6.69195">
        <ele>2313.1</ele>
        <time>2013-08-27T05:56:00Z</time>
      </trkpt>
      <trkpt lat="45.83253" lon="6.69204">
        <ele>2314</ele>
        <time>2013-08-27T05:56:11Z</time>
      </trkpt>
      <trkpt lat="45.83254" lon="6.69213">
        <ele>2316.4</ele>
        <time>2013-08-27T05:56:25Z</time>
      </trkpt>
      <trkpt lat="45.83253" lon="6.69221">
        <ele>2318.8</ele>
        <time>2013-08-27T05:56:41Z</time>
      </trkpt>
      <trkpt lat="45.83252" lon="6.69231">
        <ele>2321.7</ele>
        <time>2013-08-27T05:56:55Z</time>
      </trkpt>
      <trkpt lat="45.83248" lon="6.69241">
        <ele>2324.6</ele>
        <time>2013-08-27T05:57:12Z</time>
      </trkpt>
      <trkpt lat="45.8324" lon="6.69242">
        <ele>2327.5</ele>
        <time>2013-08-27T05:57:27Z</time>
      </trkpt>
      <trkpt lat="45.83234" lon="6.69241">
        <ele>2329.9</ele>
        <time>2013-08-27T05:57:40Z</time>
      </trkpt>
      <trkpt lat="45.83228" lon="6.69245">
        <ele>2331.3</ele>
        <time>2013-08-27T05:57:57Z</time>
      </trkpt>
      <trkpt lat="45.83222" lon="6.69249">
        <ele>2334.2</ele>
        <time>2013-08-27T05:58:10Z</time>
      </trkpt>
      <trkpt lat="45.83218" lon="6.69253">
        <ele>2336.1</ele>
        <time>2013-08-27T05:58:21Z</time>
      </trkpt>
      <trkpt lat="45.83214" lon="6.69252">
        <ele>2336.6</ele>
        <time>2013-08-27T05:58:35Z</time>
      </trkpt>
      <trkpt lat="45.83213" lon="6.69252">
        <ele>2337.1</ele>
        <time>2013-08-27T05:58:54Z</time>
      </trkpt>
      <trkpt lat="45.8321" lon="6.69249">
        <ele>2336.6</ele>
        <time>2013-08-27T05:59:06Z</time>
      </trkpt>
      <trkpt lat="45.83205" lon="6.69248">
        <ele>2337.6</ele>
        <time>2013-08-27T05:59:20Z</time>
      </trkpt>
      <trkpt lat="45.83194" lon="6.69245">
        <ele>2340</ele>
        <time>2013-08-27T05:59:31Z</time>
      </trkpt>
      <trkpt lat="45.83183" lon="6.69237">
        <ele>2340.5</ele>
        <time>2013-08-27T05:59:39Z</time>
      </trkpt>
      <trkpt lat="45.83163" lon="6.69228">
        <ele>2342.4</ele>
        <time>2013-08-27T05:59:54Z</time>
      </trkpt>
      <trkpt lat="45.83149" lon="6.69223">
        <ele>2344.8</ele>
        <time>2013-08-27T06:00:07Z</time>
      </trkpt>
      <trkpt lat="45.83127" lon="6.69221">
        <ele>2348.6</ele>
        <time>2013-08-27T06:00:25Z</time>
      </trkpt>
      <trkpt lat="45.83111" lon="6.69225">
        <ele>2350.1</ele>
        <time>2013-08-27T06:00:40Z</time>
      </trkpt>
      <trkpt lat="45.83102" lon="6.69229">
        <ele>2353.4</ele>
        <time>2013-08-27T06:00:55Z</time>
      </trkpt>
      <trkpt lat="45.8309" lon="6.69233">
        <ele>2354.9</ele>
        <time>2013-08-27T06:01:10Z</time>
      </trkpt>
      <trkpt lat="45.83086" lon="6.69236">
        <ele>2355.9</ele>
        <time>2013-08-27T06:01:15Z</time>
      </trkpt>
      <trkpt lat="45.83082" lon="6.69239">
        <ele>2355.9</ele>
        <time>2013-08-27T06:01:25Z</time>
      </trkpt>
      <trkpt lat="45.83051" lon="6.69265">
        <ele>2356.3</ele>
        <time>2013-08-27T06:01:42Z</time>
      </trkpt>
      <trkpt lat="45.83026" lon="6.69274">
        <ele>2359.2</ele>
        <time>2013-08-27T06:01:56Z</time>
      </trkpt>
      <trkpt lat="45.83017" lon="6.69278">
        <ele>2360.7</ele>
        <time>2013-08-27T06:02:02Z</time>
      </trkpt>
      <trkpt lat="45.83011" lon="6.69275">
        <ele>2362.1</ele>
        <time>2013-08-27T06:02:14Z</time>
      </trkpt>
      <trkpt lat="45.83009" lon="6.69277">
        <ele>2362.1</ele>
        <time>2013-08-27T06:02:30Z</time>
      </trkpt>
      <trkpt lat="45.83002" lon="6.69281">
        <ele>2363.5</ele>
        <time>2013-08-27T06:02:44Z</time>
      </trkpt>
      <trkpt lat="45.82993" lon="6.69279">
        <ele>2366.4</ele>
        <time>2013-08-27T06:02:59Z</time>
      </trkpt>
      <trkpt lat="45.82987" lon="6.6928">
        <ele>2368.8</ele>
        <time>2013-08-27T06:03:15Z</time>
      </trkpt>
      <trkpt lat="45.82983" lon="6.69278">
        <ele>2370.8</ele>
        <time>2013-08-27T06:03:23Z</time>
      </trkpt>
      <trkpt lat="45.82974" lon="6.69282">
        <ele>2372.2</ele>
        <time>2013-08-27T06:03:37Z</time>
      </trkpt>
      <trkpt lat="45.82965" lon="6.69284">
        <ele>2375.6</ele>
        <time>2013-08-27T06:03:52Z</time>
      </trkpt>
      <trkpt lat="45.82958" lon="6.69285">
        <ele>2377.5</ele>
        <time>2013-08-27T06:04:08Z</time>
      </trkpt>
      <trkpt lat="45.82951" lon="6.69284">
        <ele>2380.4</ele>
        <time>2013-08-27T06:04:22Z</time>
      </trkpt>
      <trkpt lat="45.82943" lon="6.69284">
        <ele>2381.8</ele>
        <time>2013-08-27T06:04:34Z</time>
      </trkpt>
      <trkpt lat="45.82934" lon="6.69285">
        <ele>2384.2</ele>
        <time>2013-08-27T06:04:49Z</time>
      </trkpt>
      <trkpt lat="45.82925" lon="6.69283">
        <ele>2386.1</ele>
        <time>2013-08-27T06:05:04Z</time>
      </trkpt>
      <trkpt lat="45.82921" lon="6.69283">
        <ele>2389</ele>
        <time>2013-08-27T06:05:14Z</time>
      </trkpt>
      <trkpt lat="45.82913" lon="6.69283">
        <ele>2390.5</ele>
        <time>2013-08-27T06:05:28Z</time>
      </trkpt>
      <trkpt lat="45.82907" lon="6.69281">
        <ele>2392.4</ele>
        <time>2013-08-27T06:05:42Z</time>
      </trkpt>
      <trkpt lat="45.82897" lon="6.69279">
        <ele>2394.3</ele>
        <time>2013-08-27T06:05:57Z</time>
      </trkpt>
      <trkpt lat="45.82889" lon="6.69279">
        <ele>2396.7</ele>
        <time>2013-08-27T06:06:13Z</time>
      </trkpt>
      <trkpt lat="45.82885" lon="6.69281">
        <ele>2398.6</ele>
        <time>2013-08-27T06:06:25Z</time>
      </trkpt>
      <trkpt lat="45.8288" lon="6.69282">
        <ele>2400.6</ele>
        <time>2013-08-27T06:06:37Z</time>
      </trkpt>
      <trkpt lat="45.82878" lon="6.69287">
        <ele>2401.5</ele>
        <time>2013-08-27T06:06:51Z</time>
      </trkpt>
      <trkpt lat="45.82873" lon="6.69289">
        <ele>2403</ele>
        <time>2013-08-27T06:07:05Z</time>
      </trkpt>
      <trkpt lat="45.82872" lon="6.69295">
        <ele>2405.4</ele>
        <time>2013-08-27T06:07:20Z</time>
      </trkpt>
      <trkpt lat="45.82866" lon="6.69297">
        <ele>2407.3</ele>
        <time>2013-08-27T06:07:34Z</time>
      </trkpt>
      <trkpt lat="45.82858" lon="6.69293">
        <ele>2409.7</ele>
        <time>2013-08-27T06:07:49Z</time>
      </trkpt>
      <trkpt lat="45.82849" lon="6.69292">
        <ele>2410.6</ele>
        <time>2013-08-27T06:08:03Z</time>
      </trkpt>
      <trkpt lat="45.82845" lon="6.69293">
        <ele>2414</ele>
        <time>2013-08-27T06:08:15Z</time>
      </trkpt>
      <trkpt lat="45.82843" lon="6.69297">
        <ele>2415.5</ele>
        <time>2013-08-27T06:08:27Z</time>
      </trkpt>
      <trkpt lat="45.82841" lon="6.69303">
        <ele>2416.9</ele>
        <time>2013-08-27T06:08:41Z</time>
      </trkpt>
      <trkpt lat="45.82836" lon="6.69303">
        <ele>2419.3</ele>
        <time>2013-08-27T06:08:55Z</time>
      </trkpt>
      <trkpt lat="45.82829" lon="6.69304">
        <ele>2421.7</ele>
        <time>2013-08-27T06:09:10Z</time>
      </trkpt>
      <trkpt lat="45.8282" lon="6.69299">
        <ele>2424.1</ele>
        <time>2013-08-27T06:09:27Z</time>
      </trkpt>
      <trkpt lat="45.82816" lon="6.693">
        <ele>2426</ele>
        <time>2013-08-27T06:09:39Z</time>
      </trkpt>
      <trkpt lat="45.82809" lon="6.69304">
        <ele>2428</ele>
        <time>2013-08-27T06:09:52Z</time>
      </trkpt>
      <trkpt lat="45.82802" lon="6.69303">
        <ele>2429.9</ele>
        <time>2013-08-27T06:10:07Z</time>
      </trkpt>
      <trkpt lat="45.82797" lon="6.69308">
        <ele>2431.8</ele>
        <time>2013-08-27T06:10:23Z</time>
      </trkpt>
      <trkpt lat="45.82795" lon="6.69308">
        <ele>2432.8</ele>
        <time>2013-08-27T06:10:45Z</time>
      </trkpt>
      <trkpt lat="45.82795" lon="6.69311">
        <ele>2432.8</ele>
        <time>2013-08-27T06:11:06Z</time>
      </trkpt>
      <trkpt lat="45.82795" lon="6.69312">
        <ele>2433.2</ele>
        <time>2013-08-27T06:11:26Z</time>
      </trkpt>
      <trkpt lat="45.82791" lon="6.69307">
        <ele>2435.6</ele>
        <time>2013-08-27T06:11:39Z</time>
      </trkpt>
      <trkpt lat="45.82784" lon="6.69303">
        <ele>2438</ele>
        <time>2013-08-27T06:11:54Z</time>
      </trkpt>
      <trkpt lat="45.82781" lon="6.69302">
        <ele>2439.5</ele>
        <time>2013-08-27T06:12:02Z</time>
      </trkpt>
      <trkpt lat="45.82775" lon="6.69295">
        <ele>2440.9</ele>
        <time>2013-08-27T06:12:16Z</time>
      </trkpt>
      <trkpt lat="45.82769" lon="6.69289">
        <ele>2442.4</ele>
        <time>2013-08-27T06:12:29Z</time>
      </trkpt>
      <trkpt lat="45.82764" lon="6.69284">
        <ele>2443.8</ele>
        <time>2013-08-27T06:12:44Z</time>
      </trkpt>
      <trkpt lat="45.82759" lon="6.69276">
        <ele>2443.8</ele>
        <time>2013-08-27T06:12:56Z</time>
      </trkpt>
      <trkpt lat="45.82751" lon="6.69271">
        <ele>2446.2</ele>
        <time>2013-08-27T06:13:11Z</time>
      </trkpt>
      <trkpt lat="45.82746" lon="6.69264">
        <ele>2446.7</ele>
        <time>2013-08-27T06:13:23Z</time>
      </trkpt>
      <trkpt lat="45.82738" lon="6.69261">
        <ele>2448.6</ele>
        <time>2013-08-27T06:13:39Z</time>
      </trkpt>
      <trkpt lat="45.82734" lon="6.69264">
        <ele>2451</ele>
        <time>2013-08-27T06:13:56Z</time>
      </trkpt>
      <trkpt lat="45.82729" lon="6.69259">
        <ele>2452.9</ele>
        <time>2013-08-27T06:14:08Z</time>
      </trkpt>
      <trkpt lat="45.82724" lon="6.69258">
        <ele>2454.9</ele>
        <time>2013-08-27T06:14:22Z</time>
      </trkpt>
      <trkpt lat="45.82717" lon="6.69253">
        <ele>2455.8</ele>
        <time>2013-08-27T06:14:38Z</time>
      </trkpt>
      <trkpt lat="45.82711" lon="6.69252">
        <ele>2458.2</ele>
        <time>2013-08-27T06:14:51Z</time>
      </trkpt>
      <trkpt lat="45.82706" lon="6.6925">
        <ele>2461.1</ele>
        <time>2013-08-27T06:15:05Z</time>
      </trkpt>
      <trkpt lat="45.827" lon="6.69249">
        <ele>2462.6</ele>
        <time>2013-08-27T06:15:21Z</time>
      </trkpt>
      <trkpt lat="45.82695" lon="6.69245">
        <ele>2464</ele>
        <time>2013-08-27T06:15:33Z</time>
      </trkpt>
      <trkpt lat="45.82691" lon="6.69244">
        <ele>2464.5</ele>
        <time>2013-08-27T06:15:45Z</time>
      </trkpt>
      <trkpt lat="45.82684" lon="6.69243">
        <ele>2467.8</ele>
        <time>2013-08-27T06:15:59Z</time>
      </trkpt>
      <trkpt lat="45.82675" lon="6.69237">
        <ele>2469.3</ele>
        <time>2013-08-27T06:16:14Z</time>
      </trkpt>
      <trkpt lat="45.82668" lon="6.69238">
        <ele>2472.7</ele>
        <time>2013-08-27T06:16:29Z</time>
      </trkpt>
      <trkpt lat="45.82663" lon="6.69234">
        <ele>2473.1</ele>
        <time>2013-08-27T06:16:39Z</time>
      </trkpt>
      <trkpt lat="45.82654" lon="6.69232">
        <ele>2475.1</ele>
        <time>2013-08-27T06:16:55Z</time>
      </trkpt>
      <trkpt lat="45.82652" lon="6.69232">
        <ele>2475.5</ele>
        <time>2013-08-27T06:17:06Z</time>
      </trkpt>
      <trkpt lat="45.8265" lon="6.69231">
        <ele>2475.1</ele>
        <time>2013-08-27T06:17:21Z</time>
      </trkpt>
      <trkpt lat="45.82643" lon="6.69229">
        <ele>2477.5</ele>
        <time>2013-08-27T06:17:34Z</time>
      </trkpt>
      <trkpt lat="45.82634" lon="6.69228">
        <ele>2479.9</ele>
        <time>2013-08-27T06:17:46Z</time>
      </trkpt>
      <trkpt lat="45.82626" lon="6.69226">
        <ele>2482.7</ele>
        <time>2013-08-27T06:18:02Z</time>
      </trkpt>
      <trkpt lat="45.8262" lon="6.69227">
        <ele>2485.6</ele>
        <time>2013-08-27T06:18:15Z</time>
      </trkpt>
      <trkpt lat="45.82616" lon="6.69229">
        <ele>2487.6</ele>
        <time>2013-08-27T06:18:28Z</time>
      </trkpt>
      <trkpt lat="45.82615" lon="6.69229">
        <ele>2488.5</ele>
        <time>2013-08-27T06:18:30Z</time>
      </trkpt>
      <trkpt lat="45.82607" lon="6.6923">
        <ele>2490.9</ele>
        <time>2013-08-27T06:18:44Z</time>
      </trkpt>
      <trkpt lat="45.826" lon="6.69229">
        <ele>2492.8</ele>
        <time>2013-08-27T06:18:58Z</time>
      </trkpt>
      <trkpt lat="45.82592" lon="6.69225">
        <ele>2494.8</ele>
        <time>2013-08-27T06:19:11Z</time>
      </trkpt>
      <trkpt lat="45.82581" lon="6.69225">
        <ele>2497.2</ele>
        <time>2013-08-27T06:19:27Z</time>
      </trkpt>
      <trkpt lat="45.82572" lon="6.69222">
        <ele>2499.1</ele>
        <time>2013-08-27T06:19:41Z</time>
      </trkpt>
      <trkpt lat="45.82562" lon="6.6922">
        <ele>2500.5</ele>
        <time>2013-08-27T06:19:56Z</time>
      </trkpt>
      <trkpt lat="45.82556" lon="6.69224">
        <ele>2503.9</ele>
        <time>2013-08-27T06:20:10Z</time>
      </trkpt>
      <trkpt lat="45.82552" lon="6.69224">
        <ele>2504.9</ele>
        <time>2013-08-27T06:20:25Z</time>
      </trkpt>
      <trkpt lat="45.8255" lon="6.69224">
        <ele>2504.9</ele>
        <time>2013-08-27T06:20:42Z</time>
      </trkpt>
      <trkpt lat="45.82551" lon="6.69225">
        <ele>2503.9</ele>
        <time>2013-08-27T06:20:56Z</time>
      </trkpt>
      <trkpt lat="45.8255" lon="6.69225">
        <ele>2498.6</ele>
        <time>2013-08-27T06:30:21Z</time>
      </trkpt>
      <trkpt lat="45.82547" lon="6.6922">
        <ele>2497.2</ele>
        <time>2013-08-27T06:30:22Z</time>
      </trkpt>
      <trkpt lat="45.8254" lon="6.69214">
        <ele>2497.2</ele>
        <time>2013-08-27T06:30:37Z</time>
      </trkpt>
      <trkpt lat="45.82538" lon="6.69213">
        <ele>2496.7</ele>
        <time>2013-08-27T06:30:40Z</time>
      </trkpt>
      <trkpt lat="45.82527" lon="6.6921">
        <ele>2494.8</ele>
        <time>2013-08-27T06:30:56Z</time>
      </trkpt>
      <trkpt lat="45.82527" lon="6.69206">
        <ele>2493.8</ele>
        <time>2013-08-27T06:31:10Z</time>
      </trkpt>
      <trkpt lat="45.82522" lon="6.69204">
        <ele>2491.9</ele>
        <time>2013-08-27T06:31:23Z</time>
      </trkpt>
      <trkpt lat="45.82522" lon="6.69202">
        <ele>2491.4</ele>
        <time>2013-08-27T06:31:27Z</time>
      </trkpt>
      <trkpt lat="45.82513" lon="6.692">
        <ele>2492.8</ele>
        <time>2013-08-27T06:31:41Z</time>
      </trkpt>
      <trkpt lat="45.82508" lon="6.69205">
        <ele>2494.8</ele>
        <time>2013-08-27T06:31:53Z</time>
      </trkpt>
      <trkpt lat="45.82504" lon="6.69205">
        <ele>2494.8</ele>
        <time>2013-08-27T06:31:58Z</time>
      </trkpt>
      <trkpt lat="45.82494" lon="6.69206">
        <ele>2494.3</ele>
        <time>2013-08-27T06:32:12Z</time>
      </trkpt>
      <trkpt lat="45.82487" lon="6.69204">
        <ele>2492.8</ele>
        <time>2013-08-27T06:32:23Z</time>
      </trkpt>
      <trkpt lat="45.82478" lon="6.69205">
        <ele>2490.9</ele>
        <time>2013-08-27T06:32:35Z</time>
      </trkpt>
      <trkpt lat="45.82476" lon="6.69203">
        <ele>2490.9</ele>
        <time>2013-08-27T06:32:39Z</time>
      </trkpt>
      <trkpt lat="45.82466" lon="6.69201">
        <ele>2487.6</ele>
        <time>2013-08-27T06:32:54Z</time>
      </trkpt>
      <trkpt lat="45.8246" lon="6.69202">
        <ele>2486.6</ele>
        <time>2013-08-27T06:33:02Z</time>
      </trkpt>
      <trkpt lat="45.82454" lon="6.69199">
        <ele>2485.2</ele>
        <time>2013-08-27T06:33:10Z</time>
      </trkpt>
      <trkpt lat="45.82447" lon="6.69198">
        <ele>2483.7</ele>
        <time>2013-08-27T06:33:17Z</time>
      </trkpt>
      <trkpt lat="45.82445" lon="6.692">
        <ele>2483.2</ele>
        <time>2013-08-27T06:33:30Z</time>
      </trkpt>
      <trkpt lat="45.8244" lon="6.69198">
        <ele>2483.7</ele>
        <time>2013-08-27T06:33:43Z</time>
      </trkpt>
      <trkpt lat="45.8243" lon="6.69197">
        <ele>2482.7</ele>
        <time>2013-08-27T06:33:54Z</time>
      </trkpt>
      <trkpt lat="45.8241" lon="6.6919">
        <ele>2482.7</ele>
        <time>2013-08-27T06:34:11Z</time>
      </trkpt>
      <trkpt lat="45.82395" lon="6.69189">
        <ele>2483.7</ele>
        <time>2013-08-27T06:34:26Z</time>
      </trkpt>
      <trkpt lat="45.82384" lon="6.69187">
        <ele>2484.7</ele>
        <time>2013-08-27T06:34:35Z</time>
      </trkpt>
      <trkpt lat="45.82366" lon="6.69187">
        <ele>2485.2</ele>
        <time>2013-08-27T06:34:51Z</time>
      </trkpt>
      <trkpt lat="45.82361" lon="6.69188">
        <ele>2485.6</ele>
        <time>2013-08-27T06:34:56Z</time>
      </trkpt>
      <trkpt lat="45.82352" lon="6.69184">
        <ele>2486.6</ele>
        <time>2013-08-27T06:35:06Z</time>
      </trkpt>
      <trkpt lat="45.82347" lon="6.69184">
        <ele>2487.1</ele>
        <time>2013-08-27T06:35:11Z</time>
      </trkpt>
      <trkpt lat="45.82332" lon="6.69177">
        <ele>2488</ele>
        <time>2013-08-27T06:35:27Z</time>
      </trkpt>
      <trkpt lat="45.8233" lon="6.69177">
        <ele>2488.5</ele>
        <time>2013-08-27T06:35:37Z</time>
      </trkpt>
      <trkpt lat="45.82324" lon="6.69176">
        <ele>2488.5</ele>
        <time>2013-08-27T06:35:50Z</time>
      </trkpt>
      <trkpt lat="45.82306" lon="6.69169">
        <ele>2489</ele>
        <time>2013-08-27T06:36:01Z</time>
      </trkpt>
      <trkpt lat="45.82301" lon="6.69166">
        <ele>2489.5</ele>
        <time>2013-08-27T06:36:06Z</time>
      </trkpt>
      <trkpt lat="45.82296" lon="6.69163">
        <ele>2490</ele>
        <time>2013-08-27T06:36:14Z</time>
      </trkpt>
      <trkpt lat="45.82288" lon="6.69155">
        <ele>2490.9</ele>
        <time>2013-08-27T06:36:27Z</time>
      </trkpt>
      <trkpt lat="45.82258" lon="6.69136">
        <ele>2491.4</ele>
        <time>2013-08-27T06:36:44Z</time>
      </trkpt>
      <trkpt lat="45.82235" lon="6.69107">
        <ele>2494.3</ele>
        <time>2013-08-27T06:37:01Z</time>
      </trkpt>
      <trkpt lat="45.82217" lon="6.69081">
        <ele>2495.7</ele>
        <time>2013-08-27T06:37:18Z</time>
      </trkpt>
      <trkpt lat="45.82207" lon="6.69068">
        <ele>2496.7</ele>
        <time>2013-08-27T06:37:34Z</time>
      </trkpt>
      <trkpt lat="45.82205" lon="6.69062">
        <ele>2496.2</ele>
        <time>2013-08-27T06:37:49Z</time>
      </trkpt>
      <trkpt lat="45.82202" lon="6.69054">
        <ele>2494.3</ele>
        <time>2013-08-27T06:38:04Z</time>
      </trkpt>
      <trkpt lat="45.822" lon="6.69051">
        <ele>2495.7</ele>
        <time>2013-08-27T06:38:17Z</time>
      </trkpt>
      <trkpt lat="45.82199" lon="6.6905">
        <ele>2494.3</ele>
        <time>2013-08-27T06:38:29Z</time>
      </trkpt>
      <trkpt lat="45.82196" lon="6.69045">
        <ele>2492.8</ele>
        <time>2013-08-27T06:38:41Z</time>
      </trkpt>
      <trkpt lat="45.82192" lon="6.69038">
        <ele>2491.4</ele>
        <time>2013-08-27T06:38:53Z</time>
      </trkpt>
      <trkpt lat="45.82186" lon="6.69026">
        <ele>2489</ele>
        <time>2013-08-27T06:39:06Z</time>
      </trkpt>
      <trkpt lat="45.82186" lon="6.69025">
        <ele>2489</ele>
        <time>2013-08-27T06:39:07Z</time>
      </trkpt>
      <trkpt lat="45.82179" lon="6.69015">
        <ele>2487.6</ele>
        <time>2013-08-27T06:39:19Z</time>
      </trkpt>
      <trkpt lat="45.82178" lon="6.69015">
        <ele>2487.6</ele>
        <time>2013-08-27T06:39:20Z</time>
      </trkpt>
      <trkpt lat="45.82174" lon="6.6901">
        <ele>2486.6</ele>
        <time>2013-08-27T06:39:26Z</time>
      </trkpt>
      <trkpt lat="45.82173" lon="6.69009">
        <ele>2485.6</ele>
        <time>2013-08-27T06:39:27Z</time>
      </trkpt>
      <trkpt lat="45.82171" lon="6.69006">
        <ele>2485.6</ele>
        <time>2013-08-27T06:39:30Z</time>
      </trkpt>
      <trkpt lat="45.82167" lon="6.68996">
        <ele>2485.2</ele>
        <time>2013-08-27T06:39:39Z</time>
      </trkpt>
      <trkpt lat="45.82166" lon="6.68994">
        <ele>2484.7</ele>
        <time>2013-08-27T06:39:40Z</time>
      </trkpt>
      <trkpt lat="45.82155" lon="6.68979">
        <ele>2483.2</ele>
        <time>2013-08-27T06:39:53Z</time>
      </trkpt>
      <trkpt lat="45.82154" lon="6.68979">
        <ele>2483.7</ele>
        <time>2013-08-27T06:39:54Z</time>
      </trkpt>
      <trkpt lat="45.82147" lon="6.68972">
        <ele>2483.2</ele>
        <time>2013-08-27T06:40:03Z</time>
      </trkpt>
      <trkpt lat="45.82143" lon="6.68967">
        <ele>2482.7</ele>
        <time>2013-08-27T06:40:16Z</time>
      </trkpt>
      <trkpt lat="45.82143" lon="6.68966">
        <ele>2481.8</ele>
        <time>2013-08-27T06:40:31Z</time>
      </trkpt>
      <trkpt lat="45.82139" lon="6.6896">
        <ele>2480.3</ele>
        <time>2013-08-27T06:40:37Z</time>
      </trkpt>
      <trkpt lat="45.82136" lon="6.68958">
        <ele>2479.9</ele>
        <time>2013-08-27T06:40:39Z</time>
      </trkpt>
      <trkpt lat="45.82135" lon="6.68956">
        <ele>2479.9</ele>
        <time>2013-08-27T06:40:40Z</time>
      </trkpt>
      <trkpt lat="45.82132" lon="6.68952">
        <ele>2478.4</ele>
        <time>2013-08-27T06:40:42Z</time>
      </trkpt>
      <trkpt lat="45.82128" lon="6.68942">
        <ele>2477</ele>
        <time>2013-08-27T06:40:45Z</time>
      </trkpt>
      <trkpt lat="45.82109" lon="6.68885">
        <ele>2475.1</ele>
        <time>2013-08-27T06:40:59Z</time>
      </trkpt>
      <trkpt lat="45.82104" lon="6.68875">
        <ele>2474.6</ele>
        <time>2013-08-27T06:41:08Z</time>
      </trkpt>
      <trkpt lat="45.82102" lon="6.68862">
        <ele>2473.6</ele>
        <time>2013-08-27T06:41:20Z</time>
      </trkpt>
      <trkpt lat="45.82101" lon="6.68859">
        <ele>2473.6</ele>
        <time>2013-08-27T06:41:33Z</time>
      </trkpt>
      <trkpt lat="45.82099" lon="6.68855">
        <ele>2474.1</ele>
        <time>2013-08-27T06:41:45Z</time>
      </trkpt>
      <trkpt lat="45.82096" lon="6.68854">
        <ele>2472.7</ele>
        <time>2013-08-27T06:41:56Z</time>
      </trkpt>
      <trkpt lat="45.82096" lon="6.68856">
        <ele>2471.2</ele>
        <time>2013-08-27T06:42:07Z</time>
      </trkpt>
      <trkpt lat="45.82093" lon="6.68852">
        <ele>2469.8</ele>
        <time>2013-08-27T06:42:21Z</time>
      </trkpt>
      <trkpt lat="45.8209" lon="6.6885">
        <ele>2468.8</ele>
        <time>2013-08-27T06:42:26Z</time>
      </trkpt>
      <trkpt lat="45.82087" lon="6.68848">
        <ele>2466.4</ele>
        <time>2013-08-27T06:42:36Z</time>
      </trkpt>
      <trkpt lat="45.82082" lon="6.68845">
        <ele>2464.5</ele>
        <time>2013-08-27T06:42:49Z</time>
      </trkpt>
      <trkpt lat="45.82079" lon="6.68842">
        <ele>2463.5</ele>
        <time>2013-08-27T06:42:54Z</time>
      </trkpt>
      <trkpt lat="45.82079" lon="6.68842">
        <ele>2462.6</ele>
        <time>2013-08-27T06:42:55Z</time>
      </trkpt>
      <trkpt lat="45.82078" lon="6.6884">
        <ele>2463</ele>
        <time>2013-08-27T06:42:56Z</time>
      </trkpt>
      <trkpt lat="45.8207" lon="6.6883">
        <ele>2459.2</ele>
        <time>2013-08-27T06:43:08Z</time>
      </trkpt>
      <trkpt lat="45.82064" lon="6.68823">
        <ele>2457.3</ele>
        <time>2013-08-27T06:43:20Z</time>
      </trkpt>
      <trkpt lat="45.8206" lon="6.68817">
        <ele>2454.4</ele>
        <time>2013-08-27T06:43:32Z</time>
      </trkpt>
      <trkpt lat="45.8206" lon="6.68816">
        <ele>2454.4</ele>
        <time>2013-08-27T06:43:33Z</time>
      </trkpt>
      <trkpt lat="45.82056" lon="6.68814">
        <ele>2452.9</ele>
        <time>2013-08-27T06:43:42Z</time>
      </trkpt>
      <trkpt lat="45.82052" lon="6.6881">
        <ele>2450.1</ele>
        <time>2013-08-27T06:43:52Z</time>
      </trkpt>
      <trkpt lat="45.82048" lon="6.68817">
        <ele>2448.1</ele>
        <time>2013-08-27T06:44:04Z</time>
      </trkpt>
      <trkpt lat="45.82046" lon="6.68818">
        <ele>2446.2</ele>
        <time>2013-08-27T06:44:10Z</time>
      </trkpt>
      <trkpt lat="45.82045" lon="6.68816">
        <ele>2445.7</ele>
        <time>2013-08-27T06:44:11Z</time>
      </trkpt>
      <trkpt lat="45.82042" lon="6.68808">
        <ele>2443.3</ele>
        <time>2013-08-27T06:44:22Z</time>
      </trkpt>
      <trkpt lat="45.82037" lon="6.688">
        <ele>2440.9</ele>
        <time>2013-08-27T06:44:33Z</time>
      </trkpt>
      <trkpt lat="45.82037" lon="6.68795">
        <ele>2439.5</ele>
        <time>2013-08-27T06:44:39Z</time>
      </trkpt>
      <trkpt lat="45.82031" lon="6.68793">
        <ele>2437.1</ele>
        <time>2013-08-27T06:44:50Z</time>
      </trkpt>
      <trkpt lat="45.82024" lon="6.68796">
        <ele>2434.2</ele>
        <time>2013-08-27T06:45:01Z</time>
      </trkpt>
      <trkpt lat="45.82024" lon="6.68795">
        <ele>2434.2</ele>
        <time>2013-08-27T06:45:02Z</time>
      </trkpt>
      <trkpt lat="45.8202" lon="6.68793">
        <ele>2432.8</ele>
        <time>2013-08-27T06:45:14Z</time>
      </trkpt>
      <trkpt lat="45.82016" lon="6.68792">
        <ele>2432.3</ele>
        <time>2013-08-27T06:45:29Z</time>
      </trkpt>
      <trkpt lat="45.82009" lon="6.68785">
        <ele>2429.4</ele>
        <time>2013-08-27T06:45:34Z</time>
      </trkpt>
      <trkpt lat="45.81993" lon="6.68776">
        <ele>2426.5</ele>
        <time>2013-08-27T06:45:42Z</time>
      </trkpt>
      <trkpt lat="45.81981" lon="6.68767">
        <ele>2425.5</ele>
        <time>2013-08-27T06:45:53Z</time>
      </trkpt>
      <trkpt lat="45.81975" lon="6.68761">
        <ele>2424.6</ele>
        <time>2013-08-27T06:46:07Z</time>
      </trkpt>
      <trkpt lat="45.81975" lon="6.6876">
        <ele>2424.1</ele>
        <time>2013-08-27T06:46:08Z</time>
      </trkpt>
      <trkpt lat="45.81975" lon="6.68759">
        <ele>2425.1</ele>
        <time>2013-08-27T06:46:09Z</time>
      </trkpt>
      <trkpt lat="45.81967" lon="6.68756">
        <ele>2422.7</ele>
        <time>2013-08-27T06:46:22Z</time>
      </trkpt>
      <trkpt lat="45.81966" lon="6.68755">
        <ele>2422.7</ele>
        <time>2013-08-27T06:46:23Z</time>
      </trkpt>
      <trkpt lat="45.81964" lon="6.68752">
        <ele>2422.7</ele>
        <time>2013-08-27T06:46:28Z</time>
      </trkpt>
      <trkpt lat="45.81963" lon="6.68751">
        <ele>2422.2</ele>
        <time>2013-08-27T06:46:29Z</time>
      </trkpt>
      <trkpt lat="45.81956" lon="6.68748">
        <ele>2420.3</ele>
        <time>2013-08-27T06:46:42Z</time>
      </trkpt>
      <trkpt lat="45.81954" lon="6.68746">
        <ele>2419.8</ele>
        <time>2013-08-27T06:46:43Z</time>
      </trkpt>
      <trkpt lat="45.81951" lon="6.68745">
        <ele>2419.3</ele>
        <time>2013-08-27T06:46:44Z</time>
      </trkpt>
      <trkpt lat="45.81949" lon="6.68743">
        <ele>2419.3</ele>
        <time>2013-08-27T06:46:45Z</time>
      </trkpt>
      <trkpt lat="45.81947" lon="6.68742">
        <ele>2418.8</ele>
        <time>2013-08-27T06:46:46Z</time>
      </trkpt>
      <trkpt lat="45.81936" lon="6.68737">
        <ele>2416.9</ele>
        <time>2013-08-27T06:46:55Z</time>
      </trkpt>
      <trkpt lat="45.81935" lon="6.68736">
        <ele>2416.9</ele>
        <time>2013-08-27T06:46:56Z</time>
      </trkpt>
      <trkpt lat="45.81933" lon="6.68735">
        <ele>2415.9</ele>
        <time>2013-08-27T06:46:57Z</time>
      </trkpt>
      <trkpt lat="45.8193" lon="6.68735">
        <ele>2415</ele>
        <time>2013-08-27T06:46:58Z</time>
      </trkpt>
      <trkpt lat="45.81927" lon="6.68734">
        <ele>2415</ele>
        <time>2013-08-27T06:46:59Z</time>
      </trkpt>
      <trkpt lat="45.81925" lon="6.68733">
        <ele>2415</ele>
        <time>2013-08-27T06:47:00Z</time>
      </trkpt>
      <trkpt lat="45.81919" lon="6.68729">
        <ele>2414.5</ele>
        <time>2013-08-27T06:47:10Z</time>
      </trkpt>
      <trkpt lat="45.81909" lon="6.68724">
        <ele>2414</ele>
        <time>2013-08-27T06:47:22Z</time>
      </trkpt>
      <trkpt lat="45.81889" lon="6.68716">
        <ele>2414.5</ele>
        <time>2013-08-27T06:47:34Z</time>
      </trkpt>
      <trkpt lat="45.81888" lon="6.68714">
        <ele>2414.5</ele>
        <time>2013-08-27T06:48:07Z</time>
      </trkpt>
      <trkpt lat="45.81886" lon="6.68716">
        <ele>2414.5</ele>
        <time>2013-08-27T06:48:12Z</time>
      </trkpt>
      <trkpt lat="45.81885" lon="6.68717">
        <ele>2414</ele>
        <time>2013-08-27T06:48:13Z</time>
      </trkpt>
      <trkpt lat="45.81883" lon="6.68718">
        <ele>2413.5</ele>
        <time>2013-08-27T06:48:14Z</time>
      </trkpt>
      <trkpt lat="45.81881" lon="6.68718">
        <ele>2414</ele>
        <time>2013-08-27T06:48:15Z</time>
      </trkpt>
      <trkpt lat="45.81879" lon="6.68719">
        <ele>2414</ele>
        <time>2013-08-27T06:48:16Z</time>
      </trkpt>
      <trkpt lat="45.81877" lon="6.6872">
        <ele>2413.1</ele>
        <time>2013-08-27T06:48:17Z</time>
      </trkpt>
      <trkpt lat="45.81845" lon="6.68717">
        <ele>2410.6</ele>
        <time>2013-08-27T06:48:28Z</time>
      </trkpt>
      <trkpt lat="45.81818" lon="6.6871">
        <ele>2406.8</ele>
        <time>2013-08-27T06:48:39Z</time>
      </trkpt>
      <trkpt lat="45.81808" lon="6.68709">
        <ele>2404.9</ele>
        <time>2013-08-27T06:48:48Z</time>
      </trkpt>
      <trkpt lat="45.81814" lon="6.68715">
        <ele>2403.9</ele>
        <time>2013-08-27T06:48:59Z</time>
      </trkpt>
      <trkpt lat="45.81814" lon="6.68716">
        <ele>2403.9</ele>
        <time>2013-08-27T06:49:00Z</time>
      </trkpt>
      <trkpt lat="45.81817" lon="6.68721">
        <ele>2402</ele>
        <time>2013-08-27T06:49:04Z</time>
      </trkpt>
      <trkpt lat="45.81818" lon="6.68725">
        <ele>2401</ele>
        <time>2013-08-27T06:49:12Z</time>
      </trkpt>
      <trkpt lat="45.81812" lon="6.68728">
        <ele>2400.1</ele>
        <time>2013-08-27T06:49:23Z</time>
      </trkpt>
      <trkpt lat="45.81809" lon="6.68727">
        <ele>2399.6</ele>
        <time>2013-08-27T06:49:30Z</time>
      </trkpt>
      <trkpt lat="45.81807" lon="6.68727">
        <ele>2399.1</ele>
        <time>2013-08-27T06:49:31Z</time>
      </trkpt>
      <trkpt lat="45.81806" lon="6.68727">
        <ele>2398.2</ele>
        <time>2013-08-27T06:49:32Z</time>
      </trkpt>
      <trkpt lat="45.81805" lon="6.68728">
        <ele>2398.6</ele>
        <time>2013-08-27T06:49:33Z</time>
      </trkpt>
      <trkpt lat="45.81804" lon="6.68729">
        <ele>2396.7</ele>
        <time>2013-08-27T06:49:37Z</time>
      </trkpt>
      <trkpt lat="45.81806" lon="6.68731">
        <ele>2396.7</ele>
        <time>2013-08-27T06:49:48Z</time>
      </trkpt>
      <trkpt lat="45.81807" lon="6.68732">
        <ele>2396.7</ele>
        <time>2013-08-27T06:49:49Z</time>
      </trkpt>
      <trkpt lat="45.81816" lon="6.68744">
        <ele>2394.3</ele>
        <time>2013-08-27T06:49:54Z</time>
      </trkpt>
      <trkpt lat="45.81823" lon="6.68755">
        <ele>2391.4</ele>
        <time>2013-08-27T06:49:59Z</time>
      </trkpt>
      <trkpt lat="45.81826" lon="6.68758">
        <ele>2389.5</ele>
        <time>2013-08-27T06:50:03Z</time>
      </trkpt>
      <trkpt lat="45.81823" lon="6.68761">
        <ele>2390</ele>
        <time>2013-08-27T06:50:11Z</time>
      </trkpt>
      <trkpt lat="45.8182" lon="6.68761">
        <ele>2388.5</ele>
        <time>2013-08-27T06:50:13Z</time>
      </trkpt>
      <trkpt lat="45.81805" lon="6.68769">
        <ele>2385.2</ele>
        <time>2013-08-27T06:50:21Z</time>
      </trkpt>
      <trkpt lat="45.81791" lon="6.68774">
        <ele>2383.7</ele>
        <time>2013-08-27T06:50:32Z</time>
      </trkpt>
      <trkpt lat="45.81788" lon="6.68776">
        <ele>2383.3</ele>
        <time>2013-08-27T06:50:46Z</time>
      </trkpt>
      <trkpt lat="45.81775" lon="6.68784">
        <ele>2380.8</ele>
        <time>2013-08-27T06:51:00Z</time>
      </trkpt>
      <trkpt lat="45.81764" lon="6.68794">
        <ele>2378</ele>
        <time>2013-08-27T06:51:14Z</time>
      </trkpt>
      <trkpt lat="45.81758" lon="6.688">
        <ele>2375.1</ele>
        <time>2013-08-27T06:51:27Z</time>
      </trkpt>
      <trkpt lat="45.81758" lon="6.68803">
        <ele>2375.1</ele>
        <time>2013-08-27T06:51:31Z</time>
      </trkpt>
      <trkpt lat="45.81755" lon="6.68809">
        <ele>2374.1</ele>
        <time>2013-08-27T06:51:37Z</time>
      </trkpt>
      <trkpt lat="45.81749" lon="6.68818">
        <ele>2370.3</ele>
        <time>2013-08-27T06:51:47Z</time>
      </trkpt>
      <trkpt lat="45.81748" lon="6.68818">
        <ele>2370.3</ele>
        <time>2013-08-27T06:51:48Z</time>
      </trkpt>
      <trkpt lat="45.81744" lon="6.68819">
        <ele>2368.8</ele>
        <time>2013-08-27T06:51:59Z</time>
      </trkpt>
      <trkpt lat="45.8174" lon="6.68827">
        <ele>2366.9</ele>
        <time>2013-08-27T06:52:05Z</time>
      </trkpt>
      <trkpt lat="45.8174" lon="6.6883">
        <ele>2365</ele>
        <time>2013-08-27T06:52:09Z</time>
      </trkpt>
      <trkpt lat="45.81737" lon="6.68837">
        <ele>2362.1</ele>
        <time>2013-08-27T06:52:22Z</time>
      </trkpt>
      <trkpt lat="45.81737" lon="6.68838">
        <ele>2361.6</ele>
        <time>2013-08-27T06:52:23Z</time>
      </trkpt>
      <trkpt lat="45.81736" lon="6.6884">
        <ele>2360.7</ele>
        <time>2013-08-27T06:52:25Z</time>
      </trkpt>
      <trkpt lat="45.81735" lon="6.68841">
        <ele>2359.2</ele>
        <time>2013-08-27T06:52:36Z</time>
      </trkpt>
      <trkpt lat="45.81733" lon="6.68847">
        <ele>2356.8</ele>
        <time>2013-08-27T06:52:43Z</time>
      </trkpt>
      <trkpt lat="45.81731" lon="6.68857">
        <ele>2353.4</ele>
        <time>2013-08-27T06:52:52Z</time>
      </trkpt>
      <trkpt lat="45.81724" lon="6.68863">
        <ele>2350.1</ele>
        <time>2013-08-27T06:53:06Z</time>
      </trkpt>
      <trkpt lat="45.81722" lon="6.68865">
        <ele>2349.1</ele>
        <time>2013-08-27T06:53:09Z</time>
      </trkpt>
      <trkpt lat="45.81716" lon="6.68867">
        <ele>2348.2</ele>
        <time>2013-08-27T06:53:14Z</time>
      </trkpt>
      <trkpt lat="45.81716" lon="6.68873">
        <ele>2345.3</ele>
        <time>2013-08-27T06:53:27Z</time>
      </trkpt>
      <trkpt lat="45.81713" lon="6.68882">
        <ele>2342.9</ele>
        <time>2013-08-27T06:53:41Z</time>
      </trkpt>
      <trkpt lat="45.81711" lon="6.68888">
        <ele>2340.5</ele>
        <time>2013-08-27T06:53:52Z</time>
      </trkpt>
      <trkpt lat="45.8171" lon="6.68893">
        <ele>2337.6</ele>
        <time>2013-08-27T06:54:04Z</time>
      </trkpt>
      <trkpt lat="45.81709" lon="6.68896">
        <ele>2336.6</ele>
        <time>2013-08-27T06:54:07Z</time>
      </trkpt>
      <trkpt lat="45.81709" lon="6.68901">
        <ele>2334.7</ele>
        <time>2013-08-27T06:54:21Z</time>
      </trkpt>
      <trkpt lat="45.81709" lon="6.68915">
        <ele>2330.9</ele>
        <time>2013-08-27T06:54:31Z</time>
      </trkpt>
      <trkpt lat="45.81709" lon="6.68925">
        <ele>2327.5</ele>
        <time>2013-08-27T06:54:37Z</time>
      </trkpt>
      <trkpt lat="45.81709" lon="6.68929">
        <ele>2326.5</ele>
        <time>2013-08-27T06:54:39Z</time>
      </trkpt>
      <trkpt lat="45.81708" lon="6.68934">
        <ele>2324.6</ele>
        <time>2013-08-27T06:54:43Z</time>
      </trkpt>
      <trkpt lat="45.81707" lon="6.68941">
        <ele>2321.7</ele>
        <time>2013-08-27T06:54:50Z</time>
      </trkpt>
      <trkpt lat="45.81704" lon="6.68947">
        <ele>2320.3</ele>
        <time>2013-08-27T06:54:55Z</time>
      </trkpt>
      <trkpt lat="45.81704" lon="6.68948">
        <ele>2320.3</ele>
        <time>2013-08-27T06:54:56Z</time>
      </trkpt>
      <trkpt lat="45.81704" lon="6.68951">
        <ele>2318.4</ele>
        <time>2013-08-27T06:54:59Z</time>
      </trkpt>
      <trkpt lat="45.817" lon="6.68961">
        <ele>2315</ele>
        <time>2013-08-27T06:55:06Z</time>
      </trkpt>
      <trkpt lat="45.817" lon="6.68962">
        <ele>2315</ele>
        <time>2013-08-27T06:55:07Z</time>
      </trkpt>
      <trkpt lat="45.81698" lon="6.68969">
        <ele>2312.1</ele>
        <time>2013-08-27T06:55:14Z</time>
      </trkpt>
      <trkpt lat="45.81699" lon="6.6897">
        <ele>2311.2</ele>
        <time>2013-08-27T06:55:24Z</time>
      </trkpt>
      <trkpt lat="45.81699" lon="6.68972">
        <ele>2311.6</ele>
        <time>2013-08-27T06:55:31Z</time>
      </trkpt>
      <trkpt lat="45.81701" lon="6.68986">
        <ele>2309.2</ele>
        <time>2013-08-27T06:55:37Z</time>
      </trkpt>
      <trkpt lat="45.81699" lon="6.68987">
        <ele>2309.2</ele>
        <time>2013-08-27T06:55:39Z</time>
      </trkpt>
      <trkpt lat="45.81697" lon="6.68987">
        <ele>2308.7</ele>
        <time>2013-08-27T06:55:40Z</time>
      </trkpt>
      <trkpt lat="45.81695" lon="6.68989">
        <ele>2308.3</ele>
        <time>2013-08-27T06:55:41Z</time>
      </trkpt>
      <trkpt lat="45.81689" lon="6.68998">
        <ele>2305.4</ele>
        <time>2013-08-27T06:55:49Z</time>
      </trkpt>
      <trkpt lat="45.81687" lon="6.69009">
        <ele>2303.5</ele>
        <time>2013-08-27T06:55:54Z</time>
      </trkpt>
      <trkpt lat="45.81687" lon="6.69012">
        <ele>2302.5</ele>
        <time>2013-08-27T06:55:59Z</time>
      </trkpt>
      <trkpt lat="45.81688" lon="6.69014">
        <ele>2302.5</ele>
        <time>2013-08-27T06:56:00Z</time>
      </trkpt>
      <trkpt lat="45.81688" lon="6.69033">
        <ele>2300.1</ele>
        <time>2013-08-27T06:56:13Z</time>
      </trkpt>
      <trkpt lat="45.8169" lon="6.69039">
        <ele>2299.6</ele>
        <time>2013-08-27T06:56:23Z</time>
      </trkpt>
      <trkpt lat="45.8169" lon="6.69041">
        <ele>2299.1</ele>
        <time>2013-08-27T06:56:24Z</time>
      </trkpt>
      <trkpt lat="45.81687" lon="6.69055">
        <ele>2297.2</ele>
        <time>2013-08-27T06:56:30Z</time>
      </trkpt>
      <trkpt lat="45.81686" lon="6.69056">
        <ele>2296.3</ele>
        <time>2013-08-27T06:56:31Z</time>
      </trkpt>
      <trkpt lat="45.81684" lon="6.69057">
        <ele>2296.7</ele>
        <time>2013-08-27T06:56:32Z</time>
      </trkpt>
      <trkpt lat="45.81683" lon="6.69059">
        <ele>2295.8</ele>
        <time>2013-08-27T06:56:33Z</time>
      </trkpt>
      <trkpt lat="45.81678" lon="6.69057">
        <ele>2294.3</ele>
        <time>2013-08-27T06:56:43Z</time>
      </trkpt>
      <trkpt lat="45.81673" lon="6.69061">
        <ele>2292.9</ele>
        <time>2013-08-27T06:56:53Z</time>
      </trkpt>
      <trkpt lat="45.81673" lon="6.69063">
        <ele>2292.4</ele>
        <time>2013-08-27T06:56:54Z</time>
      </trkpt>
      <trkpt lat="45.81675" lon="6.69065">
        <ele>2291</ele>
        <time>2013-08-27T06:57:07Z</time>
      </trkpt>
      <trkpt lat="45.81676" lon="6.69072">
        <ele>2290</ele>
        <time>2013-08-27T06:57:17Z</time>
      </trkpt>
      <trkpt lat="45.81675" lon="6.69081">
        <ele>2287.1</ele>
        <time>2013-08-27T06:57:23Z</time>
      </trkpt>
      <trkpt lat="45.81675" lon="6.69086">
        <ele>2285.7</ele>
        <time>2013-08-27T06:57:27Z</time>
      </trkpt>
      <trkpt lat="45.8168" lon="6.69102">
        <ele>2282.3</ele>
        <time>2013-08-27T06:57:39Z</time>
      </trkpt>
      <trkpt lat="45.81683" lon="6.69117">
        <ele>2278.5</ele>
        <time>2013-08-27T06:57:50Z</time>
      </trkpt>
      <trkpt lat="45.81685" lon="6.69122">
        <ele>2277.5</ele>
        <time>2013-08-27T06:57:54Z</time>
      </trkpt>
      <trkpt lat="45.81689" lon="6.69133">
        <ele>2274.1</ele>
        <time>2013-08-27T06:58:05Z</time>
      </trkpt>
      <trkpt lat="45.8169" lon="6.69139">
        <ele>2273.2</ele>
        <time>2013-08-27T06:58:19Z</time>
      </trkpt>
      <trkpt lat="45.8169" lon="6.69141">
        <ele>2273.2</ele>
        <time>2013-08-27T06:58:21Z</time>
      </trkpt>
      <trkpt lat="45.81697" lon="6.69153">
        <ele>2269.8</ele>
        <time>2013-08-27T06:58:31Z</time>
      </trkpt>
      <trkpt lat="45.81699" lon="6.69163">
        <ele>2266.9</ele>
        <time>2013-08-27T06:58:45Z</time>
      </trkpt>
      <trkpt lat="45.81698" lon="6.69164">
        <ele>2266.5</ele>
        <time>2013-08-27T06:58:46Z</time>
      </trkpt>
      <trkpt lat="45.81694" lon="6.69169">
        <ele>2263.6</ele>
        <time>2013-08-27T06:58:52Z</time>
      </trkpt>
      <trkpt lat="45.81691" lon="6.69171">
        <ele>2262.6</ele>
        <time>2013-08-27T06:58:56Z</time>
      </trkpt>
      <trkpt lat="45.8169" lon="6.69174">
        <ele>2261.6</ele>
        <time>2013-08-27T06:59:00Z</time>
      </trkpt>
      <trkpt lat="45.81687" lon="6.69176">
        <ele>2260.2</ele>
        <time>2013-08-27T06:59:03Z</time>
      </trkpt>
      <trkpt lat="45.81686" lon="6.69176">
        <ele>2260.2</ele>
        <time>2013-08-27T06:59:04Z</time>
      </trkpt>
      <trkpt lat="45.81679" lon="6.69178">
        <ele>2256.4</ele>
        <time>2013-08-27T06:59:15Z</time>
      </trkpt>
      <trkpt lat="45.81671" lon="6.69183">
        <ele>2253.5</ele>
        <time>2013-08-27T06:59:28Z</time>
      </trkpt>
      <trkpt lat="45.81669" lon="6.69183">
        <ele>2251.5</ele>
        <time>2013-08-27T06:59:31Z</time>
      </trkpt>
      <trkpt lat="45.81656" lon="6.69182">
        <ele>2249.1</ele>
        <time>2013-08-27T06:59:45Z</time>
      </trkpt>
      <trkpt lat="45.81646" lon="6.69178">
        <ele>2247.2</ele>
        <time>2013-08-27T06:59:55Z</time>
      </trkpt>
      <trkpt lat="45.81637" lon="6.69184">
        <ele>2243.9</ele>
        <time>2013-08-27T07:00:06Z</time>
      </trkpt>
      <trkpt lat="45.81638" lon="6.69185">
        <ele>2244.3</ele>
        <time>2013-08-27T07:00:07Z</time>
      </trkpt>
      <trkpt lat="45.81637" lon="6.69187">
        <ele>2243.4</ele>
        <time>2013-08-27T07:00:19Z</time>
      </trkpt>
      <trkpt lat="45.81637" lon="6.69194">
        <ele>2241.9</ele>
        <time>2013-08-27T07:00:26Z</time>
      </trkpt>
      <trkpt lat="45.81639" lon="6.69203">
        <ele>2239.5</ele>
        <time>2013-08-27T07:00:38Z</time>
      </trkpt>
      <trkpt lat="45.81639" lon="6.69205">
        <ele>2239.5</ele>
        <time>2013-08-27T07:00:39Z</time>
      </trkpt>
      <trkpt lat="45.8164" lon="6.69207">
        <ele>2240</ele>
        <time>2013-08-27T07:00:40Z</time>
      </trkpt>
      <trkpt lat="45.8164" lon="6.6921">
        <ele>2238.6</ele>
        <time>2013-08-27T07:00:41Z</time>
      </trkpt>
      <trkpt lat="45.8164" lon="6.69214">
        <ele>2238.1</ele>
        <time>2013-08-27T07:00:42Z</time>
      </trkpt>
      <trkpt lat="45.81646" lon="6.69231">
        <ele>2234.7</ele>
        <time>2013-08-27T07:00:47Z</time>
      </trkpt>
      <trkpt lat="45.81652" lon="6.69241">
        <ele>2232.3</ele>
        <time>2013-08-27T07:00:52Z</time>
      </trkpt>
      <trkpt lat="45.81652" lon="6.69247">
        <ele>2231.4</ele>
        <time>2013-08-27T07:01:00Z</time>
      </trkpt>
      <trkpt lat="45.81652" lon="6.69248">
        <ele>2230.4</ele>
        <time>2013-08-27T07:01:01Z</time>
      </trkpt>
      <trkpt lat="45.81652" lon="6.6925">
        <ele>2230.4</ele>
        <time>2013-08-27T07:01:02Z</time>
      </trkpt>
      <trkpt lat="45.81653" lon="6.69252">
        <ele>2229</ele>
        <time>2013-08-27T07:01:03Z</time>
      </trkpt>
      <trkpt lat="45.81655" lon="6.69254">
        <ele>2228.5</ele>
        <time>2013-08-27T07:01:05Z</time>
      </trkpt>
      <trkpt lat="45.81656" lon="6.69256">
        <ele>2229</ele>
        <time>2013-08-27T07:01:06Z</time>
      </trkpt>
      <trkpt lat="45.81658" lon="6.69257">
        <ele>2228</ele>
        <time>2013-08-27T07:01:07Z</time>
      </trkpt>
      <trkpt lat="45.81661" lon="6.69257">
        <ele>2227.5</ele>
        <time>2013-08-27T07:01:08Z</time>
      </trkpt>
      <trkpt lat="45.81663" lon="6.69258">
        <ele>2227.5</ele>
        <time>2013-08-27T07:01:09Z</time>
      </trkpt>
      <trkpt lat="45.81664" lon="6.69259">
        <ele>2227</ele>
        <time>2013-08-27T07:01:10Z</time>
      </trkpt>
      <trkpt lat="45.81664" lon="6.69262">
        <ele>2226.6</ele>
        <time>2013-08-27T07:01:11Z</time>
      </trkpt>
      <trkpt lat="45.81664" lon="6.69265">
        <ele>2226.6</ele>
        <time>2013-08-27T07:01:12Z</time>
      </trkpt>
      <trkpt lat="45.81664" lon="6.69268">
        <ele>2224.6</ele>
        <time>2013-08-27T07:01:19Z</time>
      </trkpt>
      <trkpt lat="45.81662" lon="6.69269">
        <ele>2225.1</ele>
        <time>2013-08-27T07:01:22Z</time>
      </trkpt>
      <trkpt lat="45.8166" lon="6.69269">
        <ele>2224.2</ele>
        <time>2013-08-27T07:01:24Z</time>
      </trkpt>
      <trkpt lat="45.81655" lon="6.69274">
        <ele>2222.7</ele>
        <time>2013-08-27T07:01:36Z</time>
      </trkpt>
      <trkpt lat="45.8165" lon="6.69277">
        <ele>2220.3</ele>
        <time>2013-08-27T07:01:52Z</time>
      </trkpt>
      <trkpt lat="45.8164" lon="6.69282">
        <ele>2217.4</ele>
        <time>2013-08-27T07:02:03Z</time>
      </trkpt>
      <trkpt lat="45.81638" lon="6.69287">
        <ele>2216.9</ele>
        <time>2013-08-27T07:02:17Z</time>
      </trkpt>
      <trkpt lat="45.81635" lon="6.69291">
        <ele>2216</ele>
        <time>2013-08-27T07:02:42Z</time>
      </trkpt>
      <trkpt lat="45.81634" lon="6.69292">
        <ele>2216.5</ele>
        <time>2013-08-27T07:02:43Z</time>
      </trkpt>
      <trkpt lat="45.81626" lon="6.693">
        <ele>2214.1</ele>
        <time>2013-08-27T07:02:52Z</time>
      </trkpt>
      <trkpt lat="45.81626" lon="6.69301">
        <ele>2213.6</ele>
        <time>2013-08-27T07:02:53Z</time>
      </trkpt>
      <trkpt lat="45.81625" lon="6.69303">
        <ele>2213.6</ele>
        <time>2013-08-27T07:02:54Z</time>
      </trkpt>
      <trkpt lat="45.81624" lon="6.69304">
        <ele>2213.1</ele>
        <time>2013-08-27T07:02:55Z</time>
      </trkpt>
      <trkpt lat="45.81618" lon="6.69307">
        <ele>2210.2</ele>
        <time>2013-08-27T07:03:02Z</time>
      </trkpt>
      <trkpt lat="45.81615" lon="6.69308">
        <ele>2209.3</ele>
        <time>2013-08-27T07:03:06Z</time>
      </trkpt>
      <trkpt lat="45.81613" lon="6.69308">
        <ele>2209.3</ele>
        <time>2013-08-27T07:03:07Z</time>
      </trkpt>
      <trkpt lat="45.81609" lon="6.69308">
        <ele>2208.8</ele>
        <time>2013-08-27T07:03:12Z</time>
      </trkpt>
      <trkpt lat="45.81606" lon="6.69307">
        <ele>2207.8</ele>
        <time>2013-08-27T07:03:15Z</time>
      </trkpt>
      <trkpt lat="45.81605" lon="6.69307">
        <ele>2207.8</ele>
        <time>2013-08-27T07:03:27Z</time>
      </trkpt>
      <trkpt lat="45.81591" lon="6.693">
        <ele>2205.9</ele>
        <time>2013-08-27T07:03:41Z</time>
      </trkpt>
      <trkpt lat="45.81586" lon="6.69296">
        <ele>2204.9</ele>
        <time>2013-08-27T07:03:43Z</time>
      </trkpt>
      <trkpt lat="45.81568" lon="6.69284">
        <ele>2201.6</ele>
        <time>2013-08-27T07:03:50Z</time>
      </trkpt>
      <trkpt lat="45.81565" lon="6.69283">
        <ele>2201.6</ele>
        <time>2013-08-27T07:03:51Z</time>
      </trkpt>
      <trkpt lat="45.8155" lon="6.69276">
        <ele>2198.2</ele>
        <time>2013-08-27T07:03:57Z</time>
      </trkpt>
      <trkpt lat="45.81546" lon="6.69277">
        <ele>2196.8</ele>
        <time>2013-08-27T07:03:59Z</time>
      </trkpt>
      <trkpt lat="45.81545" lon="6.69279">
        <ele>2196.8</ele>
        <time>2013-08-27T07:04:00Z</time>
      </trkpt>
      <trkpt lat="45.81545" lon="6.69282">
        <ele>2196.8</ele>
        <time>2013-08-27T07:04:01Z</time>
      </trkpt>
      <trkpt lat="45.81545" lon="6.69285">
        <ele>2196.3</ele>
        <time>2013-08-27T07:04:02Z</time>
      </trkpt>
      <trkpt lat="45.81546" lon="6.69288">
        <ele>2195.8</ele>
        <time>2013-08-27T07:04:03Z</time>
      </trkpt>
      <trkpt lat="45.81547" lon="6.6929">
        <ele>2196.3</ele>
        <time>2013-08-27T07:04:04Z</time>
      </trkpt>
      <trkpt lat="45.81548" lon="6.69294">
        <ele>2195.3</ele>
        <time>2013-08-27T07:04:05Z</time>
      </trkpt>
      <trkpt lat="45.81548" lon="6.69297">
        <ele>2194.8</ele>
        <time>2013-08-27T07:04:06Z</time>
      </trkpt>
      <trkpt lat="45.81548" lon="6.69322">
        <ele>2191.9</ele>
        <time>2013-08-27T07:04:11Z</time>
      </trkpt>
      <trkpt lat="45.8155" lon="6.69334">
        <ele>2191</ele>
        <time>2013-08-27T07:04:13Z</time>
      </trkpt>
      <trkpt lat="45.81551" lon="6.69344">
        <ele>2189.5</ele>
        <time>2013-08-27T07:04:15Z</time>
      </trkpt>
      <trkpt lat="45.81551" lon="6.69351">
        <ele>2188.6</ele>
        <time>2013-08-27T07:04:16Z</time>
      </trkpt>
      <trkpt lat="45.81551" lon="6.69357">
        <ele>2187.6</ele>
        <time>2013-08-27T07:04:17Z</time>
      </trkpt>
      <trkpt lat="45.81552" lon="6.6937">
        <ele>2186.2</ele>
        <time>2013-08-27T07:04:19Z</time>
      </trkpt>
      <trkpt lat="45.81554" lon="6.69388">
        <ele>2184.3</ele>
        <time>2013-08-27T07:04:22Z</time>
      </trkpt>
      <trkpt lat="45.81555" lon="6.69399">
        <ele>2182.3</ele>
        <time>2013-08-27T07:04:30Z</time>
      </trkpt>
      <trkpt lat="45.81554" lon="6.69403">
        <ele>2181.9</ele>
        <time>2013-08-27T07:04:36Z</time>
      </trkpt>
      <trkpt lat="45.81553" lon="6.69404">
        <ele>2180.9</ele>
        <time>2013-08-27T07:04:37Z</time>
      </trkpt>
      <trkpt lat="45.81552" lon="6.69404">
        <ele>2180.9</ele>
        <time>2013-08-27T07:04:38Z</time>
      </trkpt>
      <trkpt lat="45.81551" lon="6.69405">
        <ele>2180.4</ele>
        <time>2013-08-27T07:04:39Z</time>
      </trkpt>
      <trkpt lat="45.81549" lon="6.69405">
        <ele>2179.9</ele>
        <time>2013-08-27T07:04:40Z</time>
      </trkpt>
      <trkpt lat="45.81548" lon="6.69407">
        <ele>2179.5</ele>
        <time>2013-08-27T07:04:41Z</time>
      </trkpt>
      <trkpt lat="45.81548" lon="6.69409">
        <ele>2179</ele>
        <time>2013-08-27T07:04:42Z</time>
      </trkpt>
      <trkpt lat="45.81548" lon="6.69412">
        <ele>2178.5</ele>
        <time>2013-08-27T07:04:49Z</time>
      </trkpt>
      <trkpt lat="45.81548" lon="6.69415">
        <ele>2179</ele>
        <time>2013-08-27T07:04:50Z</time>
      </trkpt>
      <trkpt lat="45.81548" lon="6.69418">
        <ele>2178</ele>
        <time>2013-08-27T07:04:51Z</time>
      </trkpt>
      <trkpt lat="45.81548" lon="6.69421">
        <ele>2178</ele>
        <time>2013-08-27T07:04:52Z</time>
      </trkpt>
      <trkpt lat="45.81548" lon="6.69425">
        <ele>2177.5</ele>
        <time>2013-08-27T07:04:53Z</time>
      </trkpt>
      <trkpt lat="45.81549" lon="6.69427">
        <ele>2177</ele>
        <time>2013-08-27T07:04:54Z</time>
      </trkpt>
      <trkpt lat="45.8155" lon="6.69429">
        <ele>2176.6</ele>
        <time>2013-08-27T07:04:55Z</time>
      </trkpt>
      <trkpt lat="45.81551" lon="6.69432">
        <ele>2175.6</ele>
        <time>2013-08-27T07:04:56Z</time>
      </trkpt>
      <trkpt lat="45.81553" lon="6.69435">
        <ele>2176.1</ele>
        <time>2013-08-27T07:04:57Z</time>
      </trkpt>
      <trkpt lat="45.81554" lon="6.69438">
        <ele>2174.6</ele>
        <time>2013-08-27T07:04:58Z</time>
      </trkpt>
      <trkpt lat="45.81554" lon="6.69439">
        <ele>2174.6</ele>
        <time>2013-08-27T07:04:59Z</time>
      </trkpt>
      <trkpt lat="45.81546" lon="6.69444">
        <ele>2172.2</ele>
        <time>2013-08-27T07:05:07Z</time>
      </trkpt>
      <trkpt lat="45.81544" lon="6.69444">
        <ele>2171.8</ele>
        <time>2013-08-27T07:05:08Z</time>
      </trkpt>
      <trkpt lat="45.81542" lon="6.69445">
        <ele>2171.3</ele>
        <time>2013-08-27T07:05:09Z</time>
      </trkpt>
      <trkpt lat="45.8154" lon="6.69446">
        <ele>2170.8</ele>
        <time>2013-08-27T07:05:10Z</time>
      </trkpt>
      <trkpt lat="45.8154" lon="6.69448">
        <ele>2170.3</ele>
        <time>2013-08-27T07:05:11Z</time>
      </trkpt>
      <trkpt lat="45.8154" lon="6.69451">
        <ele>2169.8</ele>
        <time>2013-08-27T07:05:12Z</time>
      </trkpt>
      <trkpt lat="45.81541" lon="6.69454">
        <ele>2169.4</ele>
        <time>2013-08-27T07:05:13Z</time>
      </trkpt>
      <trkpt lat="45.81542" lon="6.69457">
        <ele>2168.9</ele>
        <time>2013-08-27T07:05:14Z</time>
      </trkpt>
      <trkpt lat="45.81541" lon="6.6946">
        <ele>2168.4</ele>
        <time>2013-08-27T07:05:15Z</time>
      </trkpt>
      <trkpt lat="45.81541" lon="6.69465">
        <ele>2167.4</ele>
        <time>2013-08-27T07:05:16Z</time>
      </trkpt>
      <trkpt lat="45.81541" lon="6.69469">
        <ele>2167.4</ele>
        <time>2013-08-27T07:05:17Z</time>
      </trkpt>
      <trkpt lat="45.81541" lon="6.69472">
        <ele>2166.5</ele>
        <time>2013-08-27T07:05:18Z</time>
      </trkpt>
      <trkpt lat="45.81544" lon="6.69483">
        <ele>2164.1</ele>
        <time>2013-08-27T07:05:21Z</time>
      </trkpt>
      <trkpt lat="45.81543" lon="6.69485">
        <ele>2163.6</ele>
        <time>2013-08-27T07:05:22Z</time>
      </trkpt>
      <trkpt lat="45.81541" lon="6.69485">
        <ele>2163.6</ele>
        <time>2013-08-27T07:05:23Z</time>
      </trkpt>
      <trkpt lat="45.81538" lon="6.69486">
        <ele>2163.6</ele>
        <time>2013-08-27T07:05:24Z</time>
      </trkpt>
      <trkpt lat="45.81536" lon="6.69487">
        <ele>2163.1</ele>
        <time>2013-08-27T07:05:25Z</time>
      </trkpt>
      <trkpt lat="45.81537" lon="6.69494">
        <ele>2161.7</ele>
        <time>2013-08-27T07:05:28Z</time>
      </trkpt>
      <trkpt lat="45.81539" lon="6.69498">
        <ele>2161.2</ele>
        <time>2013-08-27T07:05:29Z</time>
      </trkpt>
      <trkpt lat="45.81541" lon="6.69504">
        <ele>2161.7</ele>
        <time>2013-08-27T07:05:31Z</time>
      </trkpt>
      <trkpt lat="45.81543" lon="6.69506">
        <ele>2160.2</ele>
        <time>2013-08-27T07:05:32Z</time>
      </trkpt>
      <trkpt lat="45.81544" lon="6.69508">
        <ele>2159.7</ele>
        <time>2013-08-27T07:05:33Z</time>
      </trkpt>
      <trkpt lat="45.81544" lon="6.69509">
        <ele>2159.7</ele>
        <time>2013-08-27T07:05:34Z</time>
      </trkpt>
      <trkpt lat="45.81543" lon="6.6951">
        <ele>2158.8</ele>
        <time>2013-08-27T07:05:35Z</time>
      </trkpt>
      <trkpt lat="45.8154" lon="6.69511">
        <ele>2157.8</ele>
        <time>2013-08-27T07:05:36Z</time>
      </trkpt>
      <trkpt lat="45.81537" lon="6.69512">
        <ele>2158.8</ele>
        <time>2013-08-27T07:05:37Z</time>
      </trkpt>
      <trkpt lat="45.81534" lon="6.69513">
        <ele>2158.3</ele>
        <time>2013-08-27T07:05:38Z</time>
      </trkpt>
      <trkpt lat="45.81532" lon="6.69515">
        <ele>2157.3</ele>
        <time>2013-08-27T07:05:39Z</time>
      </trkpt>
      <trkpt lat="45.8153" lon="6.69516">
        <ele>2157.3</ele>
        <time>2013-08-27T07:05:40Z</time>
      </trkpt>
      <trkpt lat="45.81529" lon="6.69519">
        <ele>2156.9</ele>
        <time>2013-08-27T07:05:42Z</time>
      </trkpt>
      <trkpt lat="45.81528" lon="6.69521">
        <ele>2154.9</ele>
        <time>2013-08-27T07:05:43Z</time>
      </trkpt>
      <trkpt lat="45.81528" lon="6.69523">
        <ele>2155.4</ele>
        <time>2013-08-27T07:05:44Z</time>
      </trkpt>
      <trkpt lat="45.81529" lon="6.69526">
        <ele>2154.5</ele>
        <time>2013-08-27T07:05:45Z</time>
      </trkpt>
      <trkpt lat="45.8153" lon="6.6953">
        <ele>2154</ele>
        <time>2013-08-27T07:05:46Z</time>
      </trkpt>
      <trkpt lat="45.81531" lon="6.69534">
        <ele>2153.5</ele>
        <time>2013-08-27T07:05:47Z</time>
      </trkpt>
      <trkpt lat="45.81532" lon="6.69537">
        <ele>2153</ele>
        <time>2013-08-27T07:05:48Z</time>
      </trkpt>
      <trkpt lat="45.81534" lon="6.69538">
        <ele>2151.6</ele>
        <time>2013-08-27T07:05:49Z</time>
      </trkpt>
      <trkpt lat="45.81536" lon="6.6954">
        <ele>2151.6</ele>
        <time>2013-08-27T07:05:50Z</time>
      </trkpt>
      <trkpt lat="45.8154" lon="6.69546">
        <ele>2150.1</ele>
        <time>2013-08-27T07:06:00Z</time>
      </trkpt>
      <trkpt lat="45.81539" lon="6.69547">
        <ele>2149.7</ele>
        <time>2013-08-27T07:06:01Z</time>
      </trkpt>
      <trkpt lat="45.81537" lon="6.69549">
        <ele>2149.2</ele>
        <time>2013-08-27T07:06:03Z</time>
      </trkpt>
      <trkpt lat="45.81535" lon="6.69549">
        <ele>2148.7</ele>
        <time>2013-08-27T07:06:04Z</time>
      </trkpt>
      <trkpt lat="45.81534" lon="6.6955">
        <ele>2148.7</ele>
        <time>2013-08-27T07:06:05Z</time>
      </trkpt>
      <trkpt lat="45.81534" lon="6.69551">
        <ele>2148.2</ele>
        <time>2013-08-27T07:06:06Z</time>
      </trkpt>
      <trkpt lat="45.81534" lon="6.69553">
        <ele>2148.2</ele>
        <time>2013-08-27T07:06:07Z</time>
      </trkpt>
      <trkpt lat="45.81535" lon="6.69556">
        <ele>2147.2</ele>
        <time>2013-08-27T07:06:08Z</time>
      </trkpt>
      <trkpt lat="45.81536" lon="6.69559">
        <ele>2146.3</ele>
        <time>2013-08-27T07:06:09Z</time>
      </trkpt>
      <trkpt lat="45.81537" lon="6.69562">
        <ele>2146.8</ele>
        <time>2013-08-27T07:06:10Z</time>
      </trkpt>
      <trkpt lat="45.81536" lon="6.69564">
        <ele>2145.8</ele>
        <time>2013-08-27T07:06:11Z</time>
      </trkpt>
      <trkpt lat="45.81534" lon="6.69566">
        <ele>2145.8</ele>
        <time>2013-08-27T07:06:12Z</time>
      </trkpt>
      <trkpt lat="45.81531" lon="6.69568">
        <ele>2144.8</ele>
        <time>2013-08-27T07:06:13Z</time>
      </trkpt>
      <trkpt lat="45.81529" lon="6.6957">
        <ele>2143.9</ele>
        <time>2013-08-27T07:06:14Z</time>
      </trkpt>
      <trkpt lat="45.81526" lon="6.69572">
        <ele>2143.9</ele>
        <time>2013-08-27T07:06:15Z</time>
      </trkpt>
      <trkpt lat="45.81521" lon="6.69576">
        <ele>2141.5</ele>
        <time>2013-08-27T07:06:18Z</time>
      </trkpt>
      <trkpt lat="45.81522" lon="6.69579">
        <ele>2141.5</ele>
        <time>2013-08-27T07:06:19Z</time>
      </trkpt>
      <trkpt lat="45.81524" lon="6.69582">
        <ele>2141</ele>
        <time>2013-08-27T07:06:20Z</time>
      </trkpt>
      <trkpt lat="45.81526" lon="6.69585">
        <ele>2141.5</ele>
        <time>2013-08-27T07:06:21Z</time>
      </trkpt>
      <trkpt lat="45.81528" lon="6.69588">
        <ele>2141</ele>
        <time>2013-08-27T07:06:22Z</time>
      </trkpt>
      <trkpt lat="45.8153" lon="6.69591">
        <ele>2140</ele>
        <time>2013-08-27T07:06:23Z</time>
      </trkpt>
      <trkpt lat="45.81532" lon="6.69593">
        <ele>2139.6</ele>
        <time>2013-08-27T07:06:24Z</time>
      </trkpt>
      <trkpt lat="45.81534" lon="6.69595">
        <ele>2139.1</ele>
        <time>2013-08-27T07:06:25Z</time>
      </trkpt>
      <trkpt lat="45.81534" lon="6.69598">
        <ele>2138.1</ele>
        <time>2013-08-27T07:06:26Z</time>
      </trkpt>
      <trkpt lat="45.81532" lon="6.69602">
        <ele>2138.1</ele>
        <time>2013-08-27T07:06:27Z</time>
      </trkpt>
      <trkpt lat="45.81529" lon="6.69605">
        <ele>2137.2</ele>
        <time>2013-08-27T07:06:28Z</time>
      </trkpt>
      <trkpt lat="45.81523" lon="6.69613">
        <ele>2135.7</ele>
        <time>2013-08-27T07:06:31Z</time>
      </trkpt>
      <trkpt lat="45.81515" lon="6.69619">
        <ele>2132.8</ele>
        <time>2013-08-27T07:06:35Z</time>
      </trkpt>
      <trkpt lat="45.81515" lon="6.69621">
        <ele>2133.3</ele>
        <time>2013-08-27T07:06:36Z</time>
      </trkpt>
      <trkpt lat="45.81516" lon="6.69624">
        <ele>2133.3</ele>
        <time>2013-08-27T07:06:37Z</time>
      </trkpt>
      <trkpt lat="45.81519" lon="6.69633">
        <ele>2131.4</ele>
        <time>2013-08-27T07:06:41Z</time>
      </trkpt>
      <trkpt lat="45.8152" lon="6.69637">
        <ele>2130.4</ele>
        <time>2013-08-27T07:06:43Z</time>
      </trkpt>
      <trkpt lat="45.81519" lon="6.69635">
        <ele>2130.9</ele>
        <time>2013-08-27T07:06:49Z</time>
      </trkpt>
      <trkpt lat="45.81512" lon="6.69646">
        <ele>2128</ele>
        <time>2013-08-27T07:06:58Z</time>
      </trkpt>
      <trkpt lat="45.81513" lon="6.6965">
        <ele>2127.1</ele>
        <time>2013-08-27T07:06:59Z</time>
      </trkpt>
      <trkpt lat="45.81514" lon="6.69652">
        <ele>2127.1</ele>
        <time>2013-08-27T07:07:00Z</time>
      </trkpt>
      <trkpt lat="45.81515" lon="6.69655">
        <ele>2126.6</ele>
        <time>2013-08-27T07:07:01Z</time>
      </trkpt>
      <trkpt lat="45.81515" lon="6.69656">
        <ele>2125.1</ele>
        <time>2013-08-27T07:07:02Z</time>
      </trkpt>
      <trkpt lat="45.81513" lon="6.69657">
        <ele>2125.1</ele>
        <time>2013-08-27T07:07:03Z</time>
      </trkpt>
      <trkpt lat="45.81511" lon="6.69657">
        <ele>2125.1</ele>
        <time>2013-08-27T07:07:04Z</time>
      </trkpt>
      <trkpt lat="45.81508" lon="6.69662">
        <ele>2123.7</ele>
        <time>2013-08-27T07:07:07Z</time>
      </trkpt>
      <trkpt lat="45.81509" lon="6.69665">
        <ele>2123.7</ele>
        <time>2013-08-27T07:07:08Z</time>
      </trkpt>
      <trkpt lat="45.8151" lon="6.69668">
        <ele>2122.3</ele>
        <time>2013-08-27T07:07:09Z</time>
      </trkpt>
      <trkpt lat="45.81513" lon="6.69675">
        <ele>2121.8</ele>
        <time>2013-08-27T07:07:11Z</time>
      </trkpt>
      <trkpt lat="45.81511" lon="6.69678">
        <ele>2120.8</ele>
        <time>2013-08-27T07:07:13Z</time>
      </trkpt>
      <trkpt lat="45.81509" lon="6.6968">
        <ele>2120.8</ele>
        <time>2013-08-27T07:07:14Z</time>
      </trkpt>
      <trkpt lat="45.81506" lon="6.69682">
        <ele>2119.8</ele>
        <time>2013-08-27T07:07:15Z</time>
      </trkpt>
      <trkpt lat="45.81503" lon="6.69683">
        <ele>2119.4</ele>
        <time>2013-08-27T07:07:16Z</time>
      </trkpt>
      <trkpt lat="45.815" lon="6.69684">
        <ele>2118.4</ele>
        <time>2013-08-27T07:07:17Z</time>
      </trkpt>
      <trkpt lat="45.81497" lon="6.69685">
        <ele>2118.4</ele>
        <time>2013-08-27T07:07:18Z</time>
      </trkpt>
      <trkpt lat="45.81495" lon="6.69687">
        <ele>2117.9</ele>
        <time>2013-08-27T07:07:19Z</time>
      </trkpt>
      <trkpt lat="45.81496" lon="6.6969">
        <ele>2117.4</ele>
        <time>2013-08-27T07:07:20Z</time>
      </trkpt>
      <trkpt lat="45.81496" lon="6.69694">
        <ele>2117</ele>
        <time>2013-08-27T07:07:21Z</time>
      </trkpt>
      <trkpt lat="45.81497" lon="6.69698">
        <ele>2116.5</ele>
        <time>2013-08-27T07:07:22Z</time>
      </trkpt>
      <trkpt lat="45.81498" lon="6.69703">
        <ele>2116</ele>
        <time>2013-08-27T07:07:23Z</time>
      </trkpt>
      <trkpt lat="45.81499" lon="6.69707">
        <ele>2115</ele>
        <time>2013-08-27T07:07:24Z</time>
      </trkpt>
      <trkpt lat="45.81501" lon="6.69711">
        <ele>2114.6</ele>
        <time>2013-08-27T07:07:25Z</time>
      </trkpt>
      <trkpt lat="45.81502" lon="6.69714">
        <ele>2113.6</ele>
        <time>2013-08-27T07:07:26Z</time>
      </trkpt>
      <trkpt lat="45.81503" lon="6.69718">
        <ele>2113.6</ele>
        <time>2013-08-27T07:07:27Z</time>
      </trkpt>
      <trkpt lat="45.81504" lon="6.69721">
        <ele>2112.6</ele>
        <time>2013-08-27T07:07:28Z</time>
      </trkpt>
      <trkpt lat="45.81503" lon="6.69724">
        <ele>2112.2</ele>
        <time>2013-08-27T07:07:29Z</time>
      </trkpt>
      <trkpt lat="45.81502" lon="6.69727">
        <ele>2111.7</ele>
        <time>2013-08-27T07:07:30Z</time>
      </trkpt>
      <trkpt lat="45.81486" lon="6.69746">
        <ele>2108.8</ele>
        <time>2013-08-27T07:07:38Z</time>
      </trkpt>
      <trkpt lat="45.81484" lon="6.69744">
        <ele>2107.4</ele>
        <time>2013-08-27T07:07:39Z</time>
      </trkpt>
      <trkpt lat="45.81482" lon="6.69743">
        <ele>2107.4</ele>
        <time>2013-08-27T07:07:40Z</time>
      </trkpt>
      <trkpt lat="45.81481" lon="6.69741">
        <ele>2106.9</ele>
        <time>2013-08-27T07:07:41Z</time>
      </trkpt>
      <trkpt lat="45.81478" lon="6.69739">
        <ele>2107.4</ele>
        <time>2013-08-27T07:07:42Z</time>
      </trkpt>
      <trkpt lat="45.8147" lon="6.69721">
        <ele>2103.5</ele>
        <time>2013-08-27T07:07:47Z</time>
      </trkpt>
      <trkpt lat="45.8146" lon="6.69694">
        <ele>2101.1</ele>
        <time>2013-08-27T07:07:53Z</time>
      </trkpt>
      <trkpt lat="45.81459" lon="6.69689">
        <ele>2100.6</ele>
        <time>2013-08-27T07:07:54Z</time>
      </trkpt>
      <trkpt lat="45.81458" lon="6.69685">
        <ele>2099.7</ele>
        <time>2013-08-27T07:07:55Z</time>
      </trkpt>
      <trkpt lat="45.81457" lon="6.69681">
        <ele>2100.1</ele>
        <time>2013-08-27T07:07:56Z</time>
      </trkpt>
      <trkpt lat="45.81456" lon="6.69678">
        <ele>2098.7</ele>
        <time>2013-08-27T07:07:57Z</time>
      </trkpt>
      <trkpt lat="45.81454" lon="6.69676">
        <ele>2098.2</ele>
        <time>2013-08-27T07:07:58Z</time>
      </trkpt>
      <trkpt lat="45.81453" lon="6.69674">
        <ele>2097.7</ele>
        <time>2013-08-27T07:07:59Z</time>
      </trkpt>
      <trkpt lat="45.81452" lon="6.69673">
        <ele>2097.7</ele>
        <time>2013-08-27T07:08:00Z</time>
      </trkpt>
      <trkpt lat="45.81451" lon="6.69673">
        <ele>2096.3</ele>
        <time>2013-08-27T07:08:01Z</time>
      </trkpt>
      <trkpt lat="45.8145" lon="6.69675">
        <ele>2095.8</ele>
        <time>2013-08-27T07:08:02Z</time>
      </trkpt>
      <trkpt lat="45.8145" lon="6.69677">
        <ele>2095.8</ele>
        <time>2013-08-27T07:08:03Z</time>
      </trkpt>
      <trkpt lat="45.8145" lon="6.6968">
        <ele>2095.3</ele>
        <time>2013-08-27T07:08:04Z</time>
      </trkpt>
      <trkpt lat="45.8145" lon="6.69683">
        <ele>2095.3</ele>
        <time>2013-08-27T07:08:05Z</time>
      </trkpt>
      <trkpt lat="45.81448" lon="6.69687">
        <ele>2092.9</ele>
        <time>2013-08-27T07:08:15Z</time>
      </trkpt>
      <trkpt lat="45.81447" lon="6.69684">
        <ele>2092.5</ele>
        <time>2013-08-27T07:08:28Z</time>
      </trkpt>
      <trkpt lat="45.81446" lon="6.69684">
        <ele>2092</ele>
        <time>2013-08-27T07:08:55Z</time>
      </trkpt>
      <trkpt lat="45.81446" lon="6.69683">
        <ele>2092.9</ele>
        <time>2013-08-27T07:08:58Z</time>
      </trkpt>
      <trkpt lat="45.81445" lon="6.69681">
        <ele>2091.5</ele>
        <time>2013-08-27T07:08:59Z</time>
      </trkpt>
      <trkpt lat="45.81444" lon="6.69678">
        <ele>2091.5</ele>
        <time>2013-08-27T07:09:00Z</time>
      </trkpt>
      <trkpt lat="45.8144" lon="6.69664">
        <ele>2088.1</ele>
        <time>2013-08-27T07:09:04Z</time>
      </trkpt>
      <trkpt lat="45.81437" lon="6.69655">
        <ele>2086.7</ele>
        <time>2013-08-27T07:09:07Z</time>
      </trkpt>
      <trkpt lat="45.81434" lon="6.69645">
        <ele>2084.3</ele>
        <time>2013-08-27T07:09:10Z</time>
      </trkpt>
      <trkpt lat="45.8143" lon="6.69632">
        <ele>2080.4</ele>
        <time>2013-08-27T07:09:15Z</time>
      </trkpt>
      <trkpt lat="45.81427" lon="6.69624">
        <ele>2078</ele>
        <time>2013-08-27T07:09:26Z</time>
      </trkpt>
      <trkpt lat="45.81426" lon="6.69625">
        <ele>2078</ele>
        <time>2013-08-27T07:09:42Z</time>
      </trkpt>
      <trkpt lat="45.81426" lon="6.69625">
        <ele>2078</ele>
        <time>2013-08-27T07:10:07Z</time>
      </trkpt>
      <trkpt lat="45.81425" lon="6.69627">
        <ele>2077.6</ele>
        <time>2013-08-27T07:10:10Z</time>
      </trkpt>
      <trkpt lat="45.81424" lon="6.69629">
        <ele>2077.6</ele>
        <time>2013-08-27T07:10:11Z</time>
      </trkpt>
      <trkpt lat="45.81424" lon="6.69633">
        <ele>2077.1</ele>
        <time>2013-08-27T07:10:12Z</time>
      </trkpt>
      <trkpt lat="45.8142" lon="6.69648">
        <ele>2073.7</ele>
        <time>2013-08-27T07:10:16Z</time>
      </trkpt>
      <trkpt lat="45.81419" lon="6.69652">
        <ele>2073.7</ele>
        <time>2013-08-27T07:10:17Z</time>
      </trkpt>
      <trkpt lat="45.81416" lon="6.69666">
        <ele>2070.8</ele>
        <time>2013-08-27T07:10:21Z</time>
      </trkpt>
      <trkpt lat="45.81414" lon="6.69671">
        <ele>2069.4</ele>
        <time>2013-08-27T07:10:23Z</time>
      </trkpt>
      <trkpt lat="45.81411" lon="6.69681">
        <ele>2066</ele>
        <time>2013-08-27T07:10:26Z</time>
      </trkpt>
      <trkpt lat="45.81407" lon="6.69697">
        <ele>2062.7</ele>
        <time>2013-08-27T07:10:31Z</time>
      </trkpt>
      <trkpt lat="45.81406" lon="6.69705">
        <ele>2060.2</ele>
        <time>2013-08-27T07:10:34Z</time>
      </trkpt>
      <trkpt lat="45.81403" lon="6.69701">
        <ele>2057.8</ele>
        <time>2013-08-27T07:10:47Z</time>
      </trkpt>
      <trkpt lat="45.81398" lon="6.69692">
        <ele>2055</ele>
        <time>2013-08-27T07:10:59Z</time>
      </trkpt>
      <trkpt lat="45.81397" lon="6.6969">
        <ele>2054.5</ele>
        <time>2013-08-27T07:11:00Z</time>
      </trkpt>
      <trkpt lat="45.81397" lon="6.69689">
        <ele>2054.5</ele>
        <time>2013-08-27T07:11:01Z</time>
      </trkpt>
      <trkpt lat="45.81394" lon="6.69683">
        <ele>2053</ele>
        <time>2013-08-27T07:11:06Z</time>
      </trkpt>
      <trkpt lat="45.81393" lon="6.69681">
        <ele>2052.1</ele>
        <time>2013-08-27T07:11:09Z</time>
      </trkpt>
      <trkpt lat="45.81392" lon="6.69676">
        <ele>2051.6</ele>
        <time>2013-08-27T07:11:23Z</time>
      </trkpt>
      <trkpt lat="45.81388" lon="6.69662">
        <ele>2050.2</ele>
        <time>2013-08-27T07:11:31Z</time>
      </trkpt>
      <trkpt lat="45.81387" lon="6.69661">
        <ele>2049.2</ele>
        <time>2013-08-27T07:11:41Z</time>
      </trkpt>
      <trkpt lat="45.81386" lon="6.69661">
        <ele>2048.7</ele>
        <time>2013-08-27T07:11:42Z</time>
      </trkpt>
      <trkpt lat="45.81386" lon="6.69662">
        <ele>2048.7</ele>
        <time>2013-08-27T07:11:43Z</time>
      </trkpt>
      <trkpt lat="45.81386" lon="6.69664">
        <ele>2048.2</ele>
        <time>2013-08-27T07:11:57Z</time>
      </trkpt>
      <trkpt lat="45.81386" lon="6.69665">
        <ele>2047.8</ele>
        <time>2013-08-27T07:11:58Z</time>
      </trkpt>
      <trkpt lat="45.8138" lon="6.69687">
        <ele>2043.9</ele>
        <time>2013-08-27T07:12:05Z</time>
      </trkpt>
      <trkpt lat="45.81378" lon="6.69691">
        <ele>2043.4</ele>
        <time>2013-08-27T07:12:06Z</time>
      </trkpt>
      <trkpt lat="45.81376" lon="6.69696">
        <ele>2041.5</ele>
        <time>2013-08-27T07:12:07Z</time>
      </trkpt>
      <trkpt lat="45.81375" lon="6.697">
        <ele>2040.5</ele>
        <time>2013-08-27T07:12:08Z</time>
      </trkpt>
      <trkpt lat="45.81375" lon="6.69703">
        <ele>2040.5</ele>
        <time>2013-08-27T07:12:09Z</time>
      </trkpt>
      <trkpt lat="45.81374" lon="6.69705">
        <ele>2040.1</ele>
        <time>2013-08-27T07:12:10Z</time>
      </trkpt>
      <trkpt lat="45.81374" lon="6.69708">
        <ele>2039.6</ele>
        <time>2013-08-27T07:12:11Z</time>
      </trkpt>
      <trkpt lat="45.81375" lon="6.6971">
        <ele>2039.1</ele>
        <time>2013-08-27T07:12:12Z</time>
      </trkpt>
      <trkpt lat="45.81376" lon="6.69713">
        <ele>2038.6</ele>
        <time>2013-08-27T07:12:13Z</time>
      </trkpt>
      <trkpt lat="45.81378" lon="6.69716">
        <ele>2038.1</ele>
        <time>2013-08-27T07:12:14Z</time>
      </trkpt>
      <trkpt lat="45.81378" lon="6.69719">
        <ele>2038.1</ele>
        <time>2013-08-27T07:12:15Z</time>
      </trkpt>
      <trkpt lat="45.81378" lon="6.69722">
        <ele>2037.7</ele>
        <time>2013-08-27T07:12:16Z</time>
      </trkpt>
      <trkpt lat="45.81376" lon="6.69725">
        <ele>2037.2</ele>
        <time>2013-08-27T07:12:17Z</time>
      </trkpt>
      <trkpt lat="45.81375" lon="6.69727">
        <ele>2036.2</ele>
        <time>2013-08-27T07:12:18Z</time>
      </trkpt>
      <trkpt lat="45.81374" lon="6.69728">
        <ele>2037.2</ele>
        <time>2013-08-27T07:12:19Z</time>
      </trkpt>
      <trkpt lat="45.81373" lon="6.6973">
        <ele>2035.7</ele>
        <time>2013-08-27T07:12:20Z</time>
      </trkpt>
      <trkpt lat="45.81372" lon="6.69731">
        <ele>2036.2</ele>
        <time>2013-08-27T07:12:21Z</time>
      </trkpt>
      <trkpt lat="45.81371" lon="6.69734">
        <ele>2034.8</ele>
        <time>2013-08-27T07:12:22Z</time>
      </trkpt>
      <trkpt lat="45.81368" lon="6.69742">
        <ele>2031.4</ele>
        <time>2013-08-27T07:12:25Z</time>
      </trkpt>
      <trkpt lat="45.81367" lon="6.69746">
        <ele>2031.4</ele>
        <time>2013-08-27T07:12:26Z</time>
      </trkpt>
      <trkpt lat="45.81364" lon="6.69754">
        <ele>2030</ele>
        <time>2013-08-27T07:12:28Z</time>
      </trkpt>
      <trkpt lat="45.81362" lon="6.69761">
        <ele>2028</ele>
        <time>2013-08-27T07:12:30Z</time>
      </trkpt>
      <trkpt lat="45.81362" lon="6.69769">
        <ele>2026.6</ele>
        <time>2013-08-27T07:12:32Z</time>
      </trkpt>
      <trkpt lat="45.81358" lon="6.69786">
        <ele>2023.2</ele>
        <time>2013-08-27T07:12:37Z</time>
      </trkpt>
      <trkpt lat="45.81355" lon="6.69792">
        <ele>2020.4</ele>
        <time>2013-08-27T07:12:40Z</time>
      </trkpt>
      <trkpt lat="45.81354" lon="6.69796">
        <ele>2020.4</ele>
        <time>2013-08-27T07:12:41Z</time>
      </trkpt>
      <trkpt lat="45.81353" lon="6.69805">
        <ele>2018.9</ele>
        <time>2013-08-27T07:12:43Z</time>
      </trkpt>
      <trkpt lat="45.81348" lon="6.69818">
        <ele>2015.5</ele>
        <time>2013-08-27T07:12:46Z</time>
      </trkpt>
      <trkpt lat="45.81342" lon="6.69838">
        <ele>2012.2</ele>
        <time>2013-08-27T07:12:49Z</time>
      </trkpt>
      <trkpt lat="45.81338" lon="6.69856">
        <ele>2009.3</ele>
        <time>2013-08-27T07:12:52Z</time>
      </trkpt>
      <trkpt lat="45.81336" lon="6.69865">
        <ele>2008.3</ele>
        <time>2013-08-27T07:12:54Z</time>
      </trkpt>
      <trkpt lat="45.81336" lon="6.69871">
        <ele>2006.4</ele>
        <time>2013-08-27T07:12:56Z</time>
      </trkpt>
      <trkpt lat="45.81333" lon="6.69869">
        <ele>2005.9</ele>
        <time>2013-08-27T07:13:05Z</time>
      </trkpt>
      <trkpt lat="45.81327" lon="6.69846">
        <ele>2002.6</ele>
        <time>2013-08-27T07:13:11Z</time>
      </trkpt>
      <trkpt lat="45.81325" lon="6.69841">
        <ele>2001.6</ele>
        <time>2013-08-27T07:13:12Z</time>
      </trkpt>
      <trkpt lat="45.81324" lon="6.69834">
        <ele>2001.1</ele>
        <time>2013-08-27T07:13:13Z</time>
      </trkpt>
      <trkpt lat="45.81321" lon="6.69823">
        <ele>1999.7</ele>
        <time>2013-08-27T07:13:15Z</time>
      </trkpt>
      <trkpt lat="45.8132" lon="6.69818">
        <ele>1998.7</ele>
        <time>2013-08-27T07:13:16Z</time>
      </trkpt>
      <trkpt lat="45.81316" lon="6.69807">
        <ele>1997.3</ele>
        <time>2013-08-27T07:13:18Z</time>
      </trkpt>
      <trkpt lat="45.8131" lon="6.6979">
        <ele>1993.9</ele>
        <time>2013-08-27T07:13:21Z</time>
      </trkpt>
      <trkpt lat="45.81305" lon="6.69773">
        <ele>1991</ele>
        <time>2013-08-27T07:13:25Z</time>
      </trkpt>
      <trkpt lat="45.81304" lon="6.69774">
        <ele>1990.6</ele>
        <time>2013-08-27T07:13:26Z</time>
      </trkpt>
      <trkpt lat="45.81304" lon="6.69776">
        <ele>1989.6</ele>
        <time>2013-08-27T07:13:27Z</time>
      </trkpt>
      <trkpt lat="45.81299" lon="6.69796">
        <ele>1986.2</ele>
        <time>2013-08-27T07:13:33Z</time>
      </trkpt>
      <trkpt lat="45.81298" lon="6.69798">
        <ele>1985.7</ele>
        <time>2013-08-27T07:13:34Z</time>
      </trkpt>
      <trkpt lat="45.81296" lon="6.69798">
        <ele>1985.3</ele>
        <time>2013-08-27T07:13:35Z</time>
      </trkpt>
      <trkpt lat="45.81295" lon="6.69796">
        <ele>1984.3</ele>
        <time>2013-08-27T07:13:36Z</time>
      </trkpt>
      <trkpt lat="45.81294" lon="6.69793">
        <ele>1984.8</ele>
        <time>2013-08-27T07:13:37Z</time>
      </trkpt>
      <trkpt lat="45.81294" lon="6.69789">
        <ele>1984.3</ele>
        <time>2013-08-27T07:13:38Z</time>
      </trkpt>
      <trkpt lat="45.81294" lon="6.69787">
        <ele>1983.8</ele>
        <time>2013-08-27T07:13:39Z</time>
      </trkpt>
      <trkpt lat="45.81292" lon="6.69786">
        <ele>1982.9</ele>
        <time>2013-08-27T07:13:40Z</time>
      </trkpt>
      <trkpt lat="45.81291" lon="6.69788">
        <ele>1982.9</ele>
        <time>2013-08-27T07:13:41Z</time>
      </trkpt>
      <trkpt lat="45.8129" lon="6.69791">
        <ele>1982.4</ele>
        <time>2013-08-27T07:13:42Z</time>
      </trkpt>
      <trkpt lat="45.81288" lon="6.69795">
        <ele>1980.9</ele>
        <time>2013-08-27T07:13:43Z</time>
      </trkpt>
      <trkpt lat="45.81288" lon="6.69799">
        <ele>1980.5</ele>
        <time>2013-08-27T07:13:44Z</time>
      </trkpt>
      <trkpt lat="45.81288" lon="6.69803">
        <ele>1980</ele>
        <time>2013-08-27T07:13:45Z</time>
      </trkpt>
      <trkpt lat="45.81292" lon="6.69808">
        <ele>1978.1</ele>
        <time>2013-08-27T07:13:47Z</time>
      </trkpt>
      <trkpt lat="45.81302" lon="6.69809">
        <ele>1975.2</ele>
        <time>2013-08-27T07:13:51Z</time>
      </trkpt>
      <trkpt lat="45.81306" lon="6.69806">
        <ele>1973.2</ele>
        <time>2013-08-27T07:13:53Z</time>
      </trkpt>
      <trkpt lat="45.81311" lon="6.69806">
        <ele>1972.3</ele>
        <time>2013-08-27T07:13:55Z</time>
      </trkpt>
      <trkpt lat="45.81317" lon="6.69805">
        <ele>1970.4</ele>
        <time>2013-08-27T07:13:57Z</time>
      </trkpt>
      <trkpt lat="45.81329" lon="6.69808">
        <ele>1967</ele>
        <time>2013-08-27T07:14:01Z</time>
      </trkpt>
      <trkpt lat="45.81335" lon="6.6981">
        <ele>1965.1</ele>
        <time>2013-08-27T07:14:03Z</time>
      </trkpt>
      <trkpt lat="45.81335" lon="6.69813">
        <ele>1962.7</ele>
        <time>2013-08-27T07:14:07Z</time>
      </trkpt>
      <trkpt lat="45.81328" lon="6.69815">
        <ele>1962.2</ele>
        <time>2013-08-27T07:14:08Z</time>
      </trkpt>
      <trkpt lat="45.81323" lon="6.69814">
        <ele>1960.8</ele>
        <time>2013-08-27T07:14:09Z</time>
      </trkpt>
      <trkpt lat="45.8132" lon="6.69813">
        <ele>1960.8</ele>
        <time>2013-08-27T07:14:10Z</time>
      </trkpt>
      <trkpt lat="45.81316" lon="6.69811">
        <ele>1961.2</ele>
        <time>2013-08-27T07:14:11Z</time>
      </trkpt>
      <trkpt lat="45.81312" lon="6.6981">
        <ele>1959.8</ele>
        <time>2013-08-27T07:14:12Z</time>
      </trkpt>
      <trkpt lat="45.81314" lon="6.69808">
        <ele>1959.8</ele>
        <time>2013-08-27T07:14:22Z</time>
      </trkpt>
      <trkpt lat="45.81329" lon="6.69797">
        <ele>1959.8</ele>
        <time>2013-08-27T07:14:51Z</time>
      </trkpt>
      <trkpt lat="45.81301" lon="6.69801">
        <ele>1959.3</ele>
        <time>2013-08-27T07:15:13Z</time>
      </trkpt>
      <trkpt lat="45.81294" lon="6.69803">
        <ele>1958.3</ele>
        <time>2013-08-27T07:15:14Z</time>
      </trkpt>
      <trkpt lat="45.81251" lon="6.69804">
        <ele>1955</ele>
        <time>2013-08-27T07:15:20Z</time>
      </trkpt>
      <trkpt lat="45.81242" lon="6.69798">
        <ele>1953.5</ele>
        <time>2013-08-27T07:15:23Z</time>
      </trkpt>
      <trkpt lat="45.81239" lon="6.69796">
        <ele>1952.6</ele>
        <time>2013-08-27T07:15:24Z</time>
      </trkpt>
      <trkpt lat="45.81237" lon="6.69797">
        <ele>1951.6</ele>
        <time>2013-08-27T07:15:25Z</time>
      </trkpt>
      <trkpt lat="45.81235" lon="6.698">
        <ele>1952.1</ele>
        <time>2013-08-27T07:15:26Z</time>
      </trkpt>
      <trkpt lat="45.81235" lon="6.69806">
        <ele>1951.1</ele>
        <time>2013-08-27T07:15:27Z</time>
      </trkpt>
      <trkpt lat="45.81235" lon="6.69811">
        <ele>1950.2</ele>
        <time>2013-08-27T07:15:28Z</time>
      </trkpt>
      <trkpt lat="45.81235" lon="6.69816">
        <ele>1950.2</ele>
        <time>2013-08-27T07:15:29Z</time>
      </trkpt>
      <trkpt lat="45.81234" lon="6.69821">
        <ele>1949.7</ele>
        <time>2013-08-27T07:15:30Z</time>
      </trkpt>
      <trkpt lat="45.81234" lon="6.69829">
        <ele>1949.7</ele>
        <time>2013-08-27T07:15:31Z</time>
      </trkpt>
      <trkpt lat="45.81233" lon="6.69836">
        <ele>1948.3</ele>
        <time>2013-08-27T07:15:32Z</time>
      </trkpt>
      <trkpt lat="45.81233" lon="6.69842">
        <ele>1948.3</ele>
        <time>2013-08-27T07:15:33Z</time>
      </trkpt>
      <trkpt lat="45.81232" lon="6.69849">
        <ele>1947.3</ele>
        <time>2013-08-27T07:15:34Z</time>
      </trkpt>
      <trkpt lat="45.8123" lon="6.6986">
        <ele>1946.3</ele>
        <time>2013-08-27T07:15:36Z</time>
      </trkpt>
      <trkpt lat="45.81231" lon="6.69875">
        <ele>1942.5</ele>
        <time>2013-08-27T07:15:40Z</time>
      </trkpt>
      <trkpt lat="45.81233" lon="6.69877">
        <ele>1942</ele>
        <time>2013-08-27T07:15:41Z</time>
      </trkpt>
      <trkpt lat="45.81239" lon="6.6988">
        <ele>1938.6</ele>
        <time>2013-08-27T07:15:45Z</time>
      </trkpt>
      <trkpt lat="45.81241" lon="6.69879">
        <ele>1938.2</ele>
        <time>2013-08-27T07:15:46Z</time>
      </trkpt>
      <trkpt lat="45.81245" lon="6.69878">
        <ele>1936.7</ele>
        <time>2013-08-27T07:15:47Z</time>
      </trkpt>
      <trkpt lat="45.8126" lon="6.69881">
        <ele>1933.4</ele>
        <time>2013-08-27T07:15:51Z</time>
      </trkpt>
      <trkpt lat="45.81263" lon="6.69882">
        <ele>1932.9</ele>
        <time>2013-08-27T07:15:52Z</time>
      </trkpt>
      <trkpt lat="45.81277" lon="6.6989">
        <ele>1929</ele>
        <time>2013-08-27T07:15:57Z</time>
      </trkpt>
      <trkpt lat="45.81289" lon="6.69897">
        <ele>1926.6</ele>
        <time>2013-08-27T07:16:07Z</time>
      </trkpt>
      <trkpt lat="45.81283" lon="6.69905">
        <ele>1925.2</ele>
        <time>2013-08-27T07:16:10Z</time>
      </trkpt>
      <trkpt lat="45.81282" lon="6.699">
        <ele>1925.2</ele>
        <time>2013-08-27T07:16:16Z</time>
      </trkpt>
      <trkpt lat="45.81239" lon="6.69898">
        <ele>1921.3</ele>
        <time>2013-08-27T07:16:24Z</time>
      </trkpt>
      <trkpt lat="45.81218" lon="6.69886">
        <ele>1918</ele>
        <time>2013-08-27T07:16:30Z</time>
      </trkpt>
      <trkpt lat="45.81204" lon="6.69873">
        <ele>1915.6</ele>
        <time>2013-08-27T07:16:34Z</time>
      </trkpt>
      <trkpt lat="45.81176" lon="6.69875">
        <ele>1912.2</ele>
        <time>2013-08-27T07:16:38Z</time>
      </trkpt>
      <trkpt lat="45.81175" lon="6.69879">
        <ele>1912.7</ele>
        <time>2013-08-27T07:16:39Z</time>
      </trkpt>
      <trkpt lat="45.81175" lon="6.69883">
        <ele>1911.2</ele>
        <time>2013-08-27T07:16:40Z</time>
      </trkpt>
      <trkpt lat="45.81176" lon="6.69888">
        <ele>1911.2</ele>
        <time>2013-08-27T07:16:41Z</time>
      </trkpt>
      <trkpt lat="45.81176" lon="6.6989">
        <ele>1910.3</ele>
        <time>2013-08-27T07:16:42Z</time>
      </trkpt>
      <trkpt lat="45.81186" lon="6.69904">
        <ele>1906.4</ele>
        <time>2013-08-27T07:16:46Z</time>
      </trkpt>
      <trkpt lat="45.81198" lon="6.69912">
        <ele>1902.6</ele>
        <time>2013-08-27T07:16:50Z</time>
      </trkpt>
      <trkpt lat="45.81213" lon="6.69922">
        <ele>1899.7</ele>
        <time>2013-08-27T07:16:55Z</time>
      </trkpt>
      <trkpt lat="45.8122" lon="6.69923">
        <ele>1897.3</ele>
        <time>2013-08-27T07:16:59Z</time>
      </trkpt>
      <trkpt lat="45.81219" lon="6.6992">
        <ele>1896.8</ele>
        <time>2013-08-27T07:17:00Z</time>
      </trkpt>
      <trkpt lat="45.81219" lon="6.69916">
        <ele>1896.3</ele>
        <time>2013-08-27T07:17:01Z</time>
      </trkpt>
      <trkpt lat="45.81215" lon="6.69913">
        <ele>1896.3</ele>
        <time>2013-08-27T07:17:02Z</time>
      </trkpt>
      <trkpt lat="45.81187" lon="6.69897">
        <ele>1892.5</ele>
        <time>2013-08-27T07:17:09Z</time>
      </trkpt>
      <trkpt lat="45.81179" lon="6.69891">
        <ele>1891.5</ele>
        <time>2013-08-27T07:17:11Z</time>
      </trkpt>
      <trkpt lat="45.81163" lon="6.69877">
        <ele>1888.2</ele>
        <time>2013-08-27T07:17:16Z</time>
      </trkpt>
      <trkpt lat="45.8116" lon="6.69875">
        <ele>1888.2</ele>
        <time>2013-08-27T07:17:17Z</time>
      </trkpt>
      <trkpt lat="45.81158" lon="6.69874">
        <ele>1887.2</ele>
        <time>2013-08-27T07:17:18Z</time>
      </trkpt>
      <trkpt lat="45.81156" lon="6.69882">
        <ele>1886.2</ele>
        <time>2013-08-27T07:17:20Z</time>
      </trkpt>
      <trkpt lat="45.81156" lon="6.69887">
        <ele>1886.2</ele>
        <time>2013-08-27T07:17:21Z</time>
      </trkpt>
      <trkpt lat="45.81158" lon="6.69903">
        <ele>1882.4</ele>
        <time>2013-08-27T07:17:24Z</time>
      </trkpt>
      <trkpt lat="45.81165" lon="6.69919">
        <ele>1879.5</ele>
        <time>2013-08-27T07:17:28Z</time>
      </trkpt>
      <trkpt lat="45.81167" lon="6.69923">
        <ele>1877.1</ele>
        <time>2013-08-27T07:17:32Z</time>
      </trkpt>
      <trkpt lat="45.81169" lon="6.69924">
        <ele>1875.2</ele>
        <time>2013-08-27T07:17:34Z</time>
      </trkpt>
      <trkpt lat="45.81178" lon="6.69933">
        <ele>1872.3</ele>
        <time>2013-08-27T07:17:39Z</time>
      </trkpt>
      <trkpt lat="45.81171" lon="6.69937">
        <ele>1871.3</ele>
        <time>2013-08-27T07:17:40Z</time>
      </trkpt>
      <trkpt lat="45.81164" lon="6.69941">
        <ele>1870.9</ele>
        <time>2013-08-27T07:17:41Z</time>
      </trkpt>
      <trkpt lat="45.81156" lon="6.69943">
        <ele>1870.4</ele>
        <time>2013-08-27T07:17:42Z</time>
      </trkpt>
      <trkpt lat="45.8115" lon="6.69945">
        <ele>1869.4</ele>
        <time>2013-08-27T07:17:43Z</time>
      </trkpt>
      <trkpt lat="45.81144" lon="6.69945">
        <ele>1868.5</ele>
        <time>2013-08-27T07:17:44Z</time>
      </trkpt>
      <trkpt lat="45.81139" lon="6.69944">
        <ele>1868.5</ele>
        <time>2013-08-27T07:17:45Z</time>
      </trkpt>
      <trkpt lat="45.81123" lon="6.69937">
        <ele>1865.6</ele>
        <time>2013-08-27T07:17:49Z</time>
      </trkpt>
      <trkpt lat="45.81111" lon="6.69927">
        <ele>1862.2</ele>
        <time>2013-08-27T07:17:53Z</time>
      </trkpt>
      <trkpt lat="45.81108" lon="6.69924">
        <ele>1861.7</ele>
        <time>2013-08-27T07:17:54Z</time>
      </trkpt>
      <trkpt lat="45.81105" lon="6.69923">
        <ele>1861.3</ele>
        <time>2013-08-27T07:17:55Z</time>
      </trkpt>
      <trkpt lat="45.81103" lon="6.69923">
        <ele>1860.8</ele>
        <time>2013-08-27T07:17:56Z</time>
      </trkpt>
      <trkpt lat="45.81103" lon="6.69925">
        <ele>1859.8</ele>
        <time>2013-08-27T07:17:57Z</time>
      </trkpt>
      <trkpt lat="45.81102" lon="6.69928">
        <ele>1858.4</ele>
        <time>2013-08-27T07:17:58Z</time>
      </trkpt>
      <trkpt lat="45.81104" lon="6.69939">
        <ele>1856.4</ele>
        <time>2013-08-27T07:18:01Z</time>
      </trkpt>
      <trkpt lat="45.81111" lon="6.69942">
        <ele>1854.5</ele>
        <time>2013-08-27T07:18:12Z</time>
      </trkpt>
      <trkpt lat="45.81117" lon="6.69938">
        <ele>1852.6</ele>
        <time>2013-08-27T07:18:22Z</time>
      </trkpt>
      <trkpt lat="45.81113" lon="6.69944">
        <ele>1851.6</ele>
        <time>2013-08-27T07:18:26Z</time>
      </trkpt>
      <trkpt lat="45.81106" lon="6.6995">
        <ele>1851.6</ele>
        <time>2013-08-27T07:18:27Z</time>
      </trkpt>
      <trkpt lat="45.81087" lon="6.69964">
        <ele>1851.2</ele>
        <time>2013-08-27T07:18:32Z</time>
      </trkpt>
      <trkpt lat="45.81081" lon="6.69959">
        <ele>1850.7</ele>
        <time>2013-08-27T07:18:34Z</time>
      </trkpt>
      <trkpt lat="45.81078" lon="6.69956">
        <ele>1850.7</ele>
        <time>2013-08-27T07:18:35Z</time>
      </trkpt>
      <trkpt lat="45.81076" lon="6.69953">
        <ele>1850.2</ele>
        <time>2013-08-27T07:18:36Z</time>
      </trkpt>
      <trkpt lat="45.81069" lon="6.69947">
        <ele>1846.8</ele>
        <time>2013-08-27T07:18:39Z</time>
      </trkpt>
      <trkpt lat="45.81055" lon="6.69954">
        <ele>1846.8</ele>
        <time>2013-08-27T07:18:40Z</time>
      </trkpt>
      <trkpt lat="45.81044" lon="6.69946">
        <ele>1844.4</ele>
        <time>2013-08-27T07:18:45Z</time>
      </trkpt>
      <trkpt lat="45.81039" lon="6.69947">
        <ele>1843.5</ele>
        <time>2013-08-27T07:18:58Z</time>
      </trkpt>
      <trkpt lat="45.81042" lon="6.69943">
        <ele>1844</ele>
        <time>2013-08-27T07:19:27Z</time>
      </trkpt>
      <trkpt lat="45.81041" lon="6.69939">
        <ele>1842.5</ele>
        <time>2013-08-27T07:19:46Z</time>
      </trkpt>
      <trkpt lat="45.81039" lon="6.6994">
        <ele>1843.5</ele>
        <time>2013-08-27T07:19:59Z</time>
      </trkpt>
      <trkpt lat="45.81038" lon="6.69941">
        <ele>1843</ele>
        <time>2013-08-27T07:20:00Z</time>
      </trkpt>
      <trkpt lat="45.81037" lon="6.69945">
        <ele>1841.5</ele>
        <time>2013-08-27T07:20:02Z</time>
      </trkpt>
      <trkpt lat="45.81036" lon="6.69947">
        <ele>1841.5</ele>
        <time>2013-08-27T07:20:03Z</time>
      </trkpt>
      <trkpt lat="45.8103" lon="6.69962">
        <ele>1839.6</ele>
        <time>2013-08-27T07:20:07Z</time>
      </trkpt>
      <trkpt lat="45.81025" lon="6.69979">
        <ele>1837.2</ele>
        <time>2013-08-27T07:20:10Z</time>
      </trkpt>
      <trkpt lat="45.81023" lon="6.69984">
        <ele>1836.7</ele>
        <time>2013-08-27T07:20:11Z</time>
      </trkpt>
      <trkpt lat="45.81021" lon="6.69989">
        <ele>1835.8</ele>
        <time>2013-08-27T07:20:12Z</time>
      </trkpt>
      <trkpt lat="45.81019" lon="6.69995">
        <ele>1834.8</ele>
        <time>2013-08-27T07:20:13Z</time>
      </trkpt>
      <trkpt lat="45.81018" lon="6.7">
        <ele>1834.3</ele>
        <time>2013-08-27T07:20:14Z</time>
      </trkpt>
      <trkpt lat="45.8102" lon="6.70015">
        <ele>1831.9</ele>
        <time>2013-08-27T07:20:18Z</time>
      </trkpt>
      <trkpt lat="45.81031" lon="6.70024">
        <ele>1831</ele>
        <time>2013-08-27T07:20:21Z</time>
      </trkpt>
      <trkpt lat="45.81039" lon="6.70035">
        <ele>1827.6</ele>
        <time>2013-08-27T07:20:24Z</time>
      </trkpt>
      <trkpt lat="45.8104" lon="6.70037">
        <ele>1827.6</ele>
        <time>2013-08-27T07:20:25Z</time>
      </trkpt>
      <trkpt lat="45.81039" lon="6.70044">
        <ele>1826.6</ele>
        <time>2013-08-27T07:20:35Z</time>
      </trkpt>
      <trkpt lat="45.81045" lon="6.70065">
        <ele>1823.3</ele>
        <time>2013-08-27T07:20:46Z</time>
      </trkpt>
      <trkpt lat="45.81046" lon="6.70069">
        <ele>1823.8</ele>
        <time>2013-08-27T07:20:47Z</time>
      </trkpt>
      <trkpt lat="45.81053" lon="6.70083">
        <ele>1820.4</ele>
        <time>2013-08-27T07:20:50Z</time>
      </trkpt>
      <trkpt lat="45.81055" lon="6.70089">
        <ele>1820.9</ele>
        <time>2013-08-27T07:20:51Z</time>
      </trkpt>
      <trkpt lat="45.81059" lon="6.70098">
        <ele>1819</ele>
        <time>2013-08-27T07:20:53Z</time>
      </trkpt>
      <trkpt lat="45.81065" lon="6.70127">
        <ele>1816.6</ele>
        <time>2013-08-27T07:20:58Z</time>
      </trkpt>
      <trkpt lat="45.81067" lon="6.70132">
        <ele>1816.1</ele>
        <time>2013-08-27T07:20:59Z</time>
      </trkpt>
      <trkpt lat="45.81073" lon="6.70141">
        <ele>1815.1</ele>
        <time>2013-08-27T07:21:01Z</time>
      </trkpt>
      <trkpt lat="45.81078" lon="6.70152">
        <ele>1814.2</ele>
        <time>2013-08-27T07:21:03Z</time>
      </trkpt>
      <trkpt lat="45.81088" lon="6.70158">
        <ele>1812.7</ele>
        <time>2013-08-27T07:21:12Z</time>
      </trkpt>
      <trkpt lat="45.81092" lon="6.70164">
        <ele>1812.2</ele>
        <time>2013-08-27T07:21:25Z</time>
      </trkpt>
      <trkpt lat="45.81107" lon="6.70174">
        <ele>1808.9</ele>
        <time>2013-08-27T07:21:36Z</time>
      </trkpt>
      <trkpt lat="45.81109" lon="6.70177">
        <ele>1807.4</ele>
        <time>2013-08-27T07:21:37Z</time>
      </trkpt>
      <trkpt lat="45.81111" lon="6.7018">
        <ele>1807.4</ele>
        <time>2013-08-27T07:21:38Z</time>
      </trkpt>
      <trkpt lat="45.81113" lon="6.70191">
        <ele>1806.5</ele>
        <time>2013-08-27T07:21:40Z</time>
      </trkpt>
      <trkpt lat="45.81118" lon="6.70206">
        <ele>1804.1</ele>
        <time>2013-08-27T07:21:44Z</time>
      </trkpt>
      <trkpt lat="45.81118" lon="6.70209">
        <ele>1803.1</ele>
        <time>2013-08-27T07:21:46Z</time>
      </trkpt>
      <trkpt lat="45.8109" lon="6.7023">
        <ele>1801.7</ele>
        <time>2013-08-27T07:21:55Z</time>
      </trkpt>
      <trkpt lat="45.81061" lon="6.70245">
        <ele>1799.2</ele>
        <time>2013-08-27T07:22:05Z</time>
      </trkpt>
      <trkpt lat="45.8105" lon="6.70252">
        <ele>1795.9</ele>
        <time>2013-08-27T07:22:10Z</time>
      </trkpt>
      <trkpt lat="45.81046" lon="6.70252">
        <ele>1795.4</ele>
        <time>2013-08-27T07:22:12Z</time>
      </trkpt>
      <trkpt lat="45.81044" lon="6.70248">
        <ele>1794.9</ele>
        <time>2013-08-27T07:22:24Z</time>
      </trkpt>
      <trkpt lat="45.81043" lon="6.70244">
        <ele>1795.4</ele>
        <time>2013-08-27T07:22:50Z</time>
      </trkpt>
      <trkpt lat="45.81035" lon="6.70236">
        <ele>1794</ele>
        <time>2013-08-27T07:23:09Z</time>
      </trkpt>
      <trkpt lat="45.81036" lon="6.7024">
        <ele>1793</ele>
        <time>2013-08-27T07:23:21Z</time>
      </trkpt>
      <trkpt lat="45.81031" lon="6.70236">
        <ele>1791.1</ele>
        <time>2013-08-27T07:23:32Z</time>
      </trkpt>
      <trkpt lat="45.81022" lon="6.70233">
        <ele>1788.2</ele>
        <time>2013-08-27T07:23:41Z</time>
      </trkpt>
      <trkpt lat="45.81012" lon="6.70231">
        <ele>1784.8</ele>
        <time>2013-08-27T07:23:53Z</time>
      </trkpt>
      <trkpt lat="45.8101" lon="6.70226">
        <ele>1783.4</ele>
        <time>2013-08-27T07:24:07Z</time>
      </trkpt>
      <trkpt lat="45.81012" lon="6.70226">
        <ele>1783.4</ele>
        <time>2013-08-27T07:24:25Z</time>
      </trkpt>
      <trkpt lat="45.81011" lon="6.70226">
        <ele>1782.4</ele>
        <time>2013-08-27T07:24:49Z</time>
      </trkpt>
      <trkpt lat="45.81011" lon="6.70225">
        <ele>1782.4</ele>
        <time>2013-08-27T07:25:11Z</time>
      </trkpt>
      <trkpt lat="45.81012" lon="6.70226">
        <ele>1782.9</ele>
        <time>2013-08-27T07:25:37Z</time>
      </trkpt>
      <trkpt lat="45.8101" lon="6.70226">
        <ele>1782.4</ele>
        <time>2013-08-27T07:26:00Z</time>
      </trkpt>
      <trkpt lat="45.81009" lon="6.70225">
        <ele>1782.4</ele>
        <time>2013-08-27T07:26:30Z</time>
      </trkpt>
      <trkpt lat="45.8101" lon="6.70225">
        <ele>1783.4</ele>
        <time>2013-08-27T07:27:02Z</time>
      </trkpt>
      <trkpt lat="45.8101" lon="6.70224">
        <ele>1782.4</ele>
        <time>2013-08-27T07:27:33Z</time>
      </trkpt>
      <trkpt lat="45.81009" lon="6.70223">
        <ele>1781.9</ele>
        <time>2013-08-27T07:28:06Z</time>
      </trkpt>
      <trkpt lat="45.81007" lon="6.7022">
        <ele>1782.4</ele>
        <time>2013-08-27T07:28:25Z</time>
      </trkpt>
      <trkpt lat="45.81007" lon="6.70222">
        <ele>1781.5</ele>
        <time>2013-08-27T07:28:49Z</time>
      </trkpt>
      <trkpt lat="45.81004" lon="6.70217">
        <ele>1781.9</ele>
        <time>2013-08-27T07:29:16Z</time>
      </trkpt>
      <trkpt lat="45.81004" lon="6.70212">
        <ele>1781</ele>
        <time>2013-08-27T07:29:33Z</time>
      </trkpt>
      <trkpt lat="45.81003" lon="6.70212">
        <ele>1780.5</ele>
        <time>2013-08-27T07:29:40Z</time>
      </trkpt>
      <trkpt lat="45.81002" lon="6.7021">
        <ele>1780.5</ele>
        <time>2013-08-27T07:29:41Z</time>
      </trkpt>
      <trkpt lat="45.81001" lon="6.70207">
        <ele>1781</ele>
        <time>2013-08-27T07:29:42Z</time>
      </trkpt>
      <trkpt lat="45.81" lon="6.70205">
        <ele>1780.5</ele>
        <time>2013-08-27T07:29:43Z</time>
      </trkpt>
      <trkpt lat="45.80998" lon="6.70203">
        <ele>1780</ele>
        <time>2013-08-27T07:29:44Z</time>
      </trkpt>
      <trkpt lat="45.80996" lon="6.70201">
        <ele>1780</ele>
        <time>2013-08-27T07:29:45Z</time>
      </trkpt>
      <trkpt lat="45.80993" lon="6.70199">
        <ele>1780.5</ele>
        <time>2013-08-27T07:29:46Z</time>
      </trkpt>
      <trkpt lat="45.80973" lon="6.70183">
        <ele>1779.1</ele>
        <time>2013-08-27T07:29:55Z</time>
      </trkpt>
      <trkpt lat="45.80971" lon="6.70184">
        <ele>1778.1</ele>
        <time>2013-08-27T07:29:56Z</time>
      </trkpt>
      <trkpt lat="45.80969" lon="6.70184">
        <ele>1777.6</ele>
        <time>2013-08-27T07:29:57Z</time>
      </trkpt>
      <trkpt lat="45.80966" lon="6.70184">
        <ele>1776.7</ele>
        <time>2013-08-27T07:30:00Z</time>
      </trkpt>
      <trkpt lat="45.80965" lon="6.70186">
        <ele>1776.2</ele>
        <time>2013-08-27T07:30:01Z</time>
      </trkpt>
      <trkpt lat="45.80965" lon="6.70189">
        <ele>1775.7</ele>
        <time>2013-08-27T07:30:02Z</time>
      </trkpt>
      <trkpt lat="45.80965" lon="6.70196">
        <ele>1774.3</ele>
        <time>2013-08-27T07:30:05Z</time>
      </trkpt>
      <trkpt lat="45.80968" lon="6.70209">
        <ele>1772.3</ele>
        <time>2013-08-27T07:30:10Z</time>
      </trkpt>
      <trkpt lat="45.80968" lon="6.70218">
        <ele>1769.9</ele>
        <time>2013-08-27T07:30:20Z</time>
      </trkpt>
      <trkpt lat="45.80967" lon="6.70218">
        <ele>1770.4</ele>
        <time>2013-08-27T07:30:21Z</time>
      </trkpt>
      <trkpt lat="45.8096" lon="6.70214">
        <ele>1768</ele>
        <time>2013-08-27T07:30:32Z</time>
      </trkpt>
      <trkpt lat="45.80954" lon="6.70216">
        <ele>1765.6</ele>
        <time>2013-08-27T07:30:39Z</time>
      </trkpt>
      <trkpt lat="45.80956" lon="6.7022">
        <ele>1764.6</ele>
        <time>2013-08-27T07:30:44Z</time>
      </trkpt>
      <trkpt lat="45.80957" lon="6.70222">
        <ele>1765.1</ele>
        <time>2013-08-27T07:30:45Z</time>
      </trkpt>
      <trkpt lat="45.80959" lon="6.70225">
        <ele>1764.6</ele>
        <time>2013-08-27T07:30:46Z</time>
      </trkpt>
      <trkpt lat="45.8096" lon="6.70227">
        <ele>1765.1</ele>
        <time>2013-08-27T07:30:47Z</time>
      </trkpt>
      <trkpt lat="45.80961" lon="6.70229">
        <ele>1765.1</ele>
        <time>2013-08-27T07:30:48Z</time>
      </trkpt>
      <trkpt lat="45.80961" lon="6.70235">
        <ele>1763.2</ele>
        <time>2013-08-27T07:30:53Z</time>
      </trkpt>
      <trkpt lat="45.8096" lon="6.70236">
        <ele>1763.2</ele>
        <time>2013-08-27T07:30:54Z</time>
      </trkpt>
      <trkpt lat="45.8096" lon="6.70238">
        <ele>1762.2</ele>
        <time>2013-08-27T07:30:55Z</time>
      </trkpt>
      <trkpt lat="45.80961" lon="6.70239">
        <ele>1761.8</ele>
        <time>2013-08-27T07:30:56Z</time>
      </trkpt>
      <trkpt lat="45.80962" lon="6.7024">
        <ele>1762.2</ele>
        <time>2013-08-27T07:30:57Z</time>
      </trkpt>
      <trkpt lat="45.80964" lon="6.70245">
        <ele>1760.3</ele>
        <time>2013-08-27T07:31:02Z</time>
      </trkpt>
      <trkpt lat="45.80963" lon="6.70248">
        <ele>1760.3</ele>
        <time>2013-08-27T07:31:03Z</time>
      </trkpt>
      <trkpt lat="45.80964" lon="6.70251">
        <ele>1759.8</ele>
        <time>2013-08-27T07:31:04Z</time>
      </trkpt>
      <trkpt lat="45.80965" lon="6.70254">
        <ele>1759.4</ele>
        <time>2013-08-27T07:31:05Z</time>
      </trkpt>
      <trkpt lat="45.80966" lon="6.70256">
        <ele>1758.4</ele>
        <time>2013-08-27T07:31:06Z</time>
      </trkpt>
      <trkpt lat="45.80966" lon="6.70258">
        <ele>1757.9</ele>
        <time>2013-08-27T07:31:07Z</time>
      </trkpt>
      <trkpt lat="45.80965" lon="6.70261">
        <ele>1757</ele>
        <time>2013-08-27T07:31:08Z</time>
      </trkpt>
      <trkpt lat="45.80965" lon="6.70264">
        <ele>1756.5</ele>
        <time>2013-08-27T07:31:09Z</time>
      </trkpt>
      <trkpt lat="45.80964" lon="6.70267">
        <ele>1756.5</ele>
        <time>2013-08-27T07:31:10Z</time>
      </trkpt>
      <trkpt lat="45.80964" lon="6.7027">
        <ele>1755</ele>
        <time>2013-08-27T07:31:11Z</time>
      </trkpt>
      <trkpt lat="45.80964" lon="6.70273">
        <ele>1754.1</ele>
        <time>2013-08-27T07:31:12Z</time>
      </trkpt>
      <trkpt lat="45.80963" lon="6.70275">
        <ele>1753.1</ele>
        <time>2013-08-27T07:31:13Z</time>
      </trkpt>
      <trkpt lat="45.80963" lon="6.70277">
        <ele>1752.6</ele>
        <time>2013-08-27T07:31:14Z</time>
      </trkpt>
      <trkpt lat="45.80963" lon="6.7028">
        <ele>1752.1</ele>
        <time>2013-08-27T07:31:15Z</time>
      </trkpt>
      <trkpt lat="45.80965" lon="6.70283">
        <ele>1752.1</ele>
        <time>2013-08-27T07:31:16Z</time>
      </trkpt>
      <trkpt lat="45.80966" lon="6.70287">
        <ele>1751.2</ele>
        <time>2013-08-27T07:31:17Z</time>
      </trkpt>
      <trkpt lat="45.80965" lon="6.70291">
        <ele>1751.2</ele>
        <time>2013-08-27T07:31:18Z</time>
      </trkpt>
      <trkpt lat="45.80967" lon="6.70314">
        <ele>1747.8</ele>
        <time>2013-08-27T07:31:24Z</time>
      </trkpt>
      <trkpt lat="45.80965" lon="6.70324">
        <ele>1746.4</ele>
        <time>2013-08-27T07:31:29Z</time>
      </trkpt>
      <trkpt lat="45.80964" lon="6.70324">
        <ele>1745.9</ele>
        <time>2013-08-27T07:31:30Z</time>
      </trkpt>
      <trkpt lat="45.80961" lon="6.70324">
        <ele>1744.9</ele>
        <time>2013-08-27T07:31:31Z</time>
      </trkpt>
      <trkpt lat="45.8096" lon="6.70324">
        <ele>1744.5</ele>
        <time>2013-08-27T07:31:32Z</time>
      </trkpt>
      <trkpt lat="45.80958" lon="6.70325">
        <ele>1744</ele>
        <time>2013-08-27T07:31:33Z</time>
      </trkpt>
      <trkpt lat="45.80957" lon="6.70324">
        <ele>1743</ele>
        <time>2013-08-27T07:31:34Z</time>
      </trkpt>
      <trkpt lat="45.80955" lon="6.70323">
        <ele>1743.5</ele>
        <time>2013-08-27T07:31:35Z</time>
      </trkpt>
      <trkpt lat="45.80945" lon="6.70313">
        <ele>1741.6</ele>
        <time>2013-08-27T07:31:40Z</time>
      </trkpt>
      <trkpt lat="45.80943" lon="6.70311">
        <ele>1740.6</ele>
        <time>2013-08-27T07:31:41Z</time>
      </trkpt>
      <trkpt lat="45.80939" lon="6.70308">
        <ele>1740.6</ele>
        <time>2013-08-27T07:31:43Z</time>
      </trkpt>
      <trkpt lat="45.80937" lon="6.70305">
        <ele>1739.6</ele>
        <time>2013-08-27T07:31:44Z</time>
      </trkpt>
      <trkpt lat="45.80925" lon="6.70284">
        <ele>1738.2</ele>
        <time>2013-08-27T07:31:50Z</time>
      </trkpt>
      <trkpt lat="45.80923" lon="6.70284">
        <ele>1738.7</ele>
        <time>2013-08-27T07:31:51Z</time>
      </trkpt>
      <trkpt lat="45.80922" lon="6.70286">
        <ele>1738.2</ele>
        <time>2013-08-27T07:31:52Z</time>
      </trkpt>
      <trkpt lat="45.80922" lon="6.7029">
        <ele>1737.2</ele>
        <time>2013-08-27T07:31:53Z</time>
      </trkpt>
      <trkpt lat="45.80922" lon="6.70294">
        <ele>1737.2</ele>
        <time>2013-08-27T07:31:54Z</time>
      </trkpt>
      <trkpt lat="45.80923" lon="6.70298">
        <ele>1736.8</ele>
        <time>2013-08-27T07:31:55Z</time>
      </trkpt>
      <trkpt lat="45.80924" lon="6.70303">
        <ele>1736.3</ele>
        <time>2013-08-27T07:31:56Z</time>
      </trkpt>
      <trkpt lat="45.80927" lon="6.70322">
        <ele>1733.9</ele>
        <time>2013-08-27T07:32:00Z</time>
      </trkpt>
      <trkpt lat="45.80926" lon="6.70338">
        <ele>1731</ele>
        <time>2013-08-27T07:32:04Z</time>
      </trkpt>
      <trkpt lat="45.80924" lon="6.70342">
        <ele>1730.5</ele>
        <time>2013-08-27T07:32:05Z</time>
      </trkpt>
      <trkpt lat="45.80922" lon="6.70345">
        <ele>1729.6</ele>
        <time>2013-08-27T07:32:06Z</time>
      </trkpt>
      <trkpt lat="45.80921" lon="6.70353">
        <ele>1727.6</ele>
        <time>2013-08-27T07:32:08Z</time>
      </trkpt>
      <trkpt lat="45.8093" lon="6.7037">
        <ele>1725.7</ele>
        <time>2013-08-27T07:32:12Z</time>
      </trkpt>
      <trkpt lat="45.80933" lon="6.70381">
        <ele>1724.7</ele>
        <time>2013-08-27T07:32:15Z</time>
      </trkpt>
      <trkpt lat="45.80932" lon="6.70384">
        <ele>1723.3</ele>
        <time>2013-08-27T07:32:16Z</time>
      </trkpt>
      <trkpt lat="45.8093" lon="6.70387">
        <ele>1723.3</ele>
        <time>2013-08-27T07:32:17Z</time>
      </trkpt>
      <trkpt lat="45.80929" lon="6.70389">
        <ele>1722.3</ele>
        <time>2013-08-27T07:32:18Z</time>
      </trkpt>
      <trkpt lat="45.80926" lon="6.70393">
        <ele>1721.9</ele>
        <time>2013-08-27T07:32:30Z</time>
      </trkpt>
      <trkpt lat="45.80926" lon="6.70394">
        <ele>1721.9</ele>
        <time>2013-08-27T07:32:42Z</time>
      </trkpt>
      <trkpt lat="45.80924" lon="6.70394">
        <ele>1721.9</ele>
        <time>2013-08-27T07:32:43Z</time>
      </trkpt>
      <trkpt lat="45.80921" lon="6.70393">
        <ele>1720.4</ele>
        <time>2013-08-27T07:32:44Z</time>
      </trkpt>
      <trkpt lat="45.80919" lon="6.70391">
        <ele>1720.4</ele>
        <time>2013-08-27T07:32:45Z</time>
      </trkpt>
      <trkpt lat="45.80917" lon="6.70389">
        <ele>1720.9</ele>
        <time>2013-08-27T07:32:46Z</time>
      </trkpt>
      <trkpt lat="45.80915" lon="6.70387">
        <ele>1720.4</ele>
        <time>2013-08-27T07:32:47Z</time>
      </trkpt>
      <trkpt lat="45.80912" lon="6.70386">
        <ele>1719.5</ele>
        <time>2013-08-27T07:32:48Z</time>
      </trkpt>
      <trkpt lat="45.80909" lon="6.70384">
        <ele>1719</ele>
        <time>2013-08-27T07:32:49Z</time>
      </trkpt>
      <trkpt lat="45.80907" lon="6.7038">
        <ele>1717.5</ele>
        <time>2013-08-27T07:32:50Z</time>
      </trkpt>
      <trkpt lat="45.80904" lon="6.70377">
        <ele>1717.5</ele>
        <time>2013-08-27T07:32:51Z</time>
      </trkpt>
      <trkpt lat="45.80896" lon="6.70366">
        <ele>1714.7</ele>
        <time>2013-08-27T07:32:55Z</time>
      </trkpt>
      <trkpt lat="45.80894" lon="6.70364">
        <ele>1714.2</ele>
        <time>2013-08-27T07:32:56Z</time>
      </trkpt>
      <trkpt lat="45.80891" lon="6.70359">
        <ele>1712.7</ele>
        <time>2013-08-27T07:32:58Z</time>
      </trkpt>
      <trkpt lat="45.80889" lon="6.70357">
        <ele>1712.7</ele>
        <time>2013-08-27T07:32:59Z</time>
      </trkpt>
      <trkpt lat="45.80885" lon="6.70354">
        <ele>1711.3</ele>
        <time>2013-08-27T07:33:00Z</time>
      </trkpt>
      <trkpt lat="45.80882" lon="6.7035">
        <ele>1710.8</ele>
        <time>2013-08-27T07:33:01Z</time>
      </trkpt>
      <trkpt lat="45.8088" lon="6.70345">
        <ele>1709.4</ele>
        <time>2013-08-27T07:33:02Z</time>
      </trkpt>
      <trkpt lat="45.80878" lon="6.7034">
        <ele>1709.8</ele>
        <time>2013-08-27T07:33:03Z</time>
      </trkpt>
      <trkpt lat="45.80874" lon="6.70335">
        <ele>1708.9</ele>
        <time>2013-08-27T07:33:04Z</time>
      </trkpt>
      <trkpt lat="45.8087" lon="6.70331">
        <ele>1707.9</ele>
        <time>2013-08-27T07:33:05Z</time>
      </trkpt>
      <trkpt lat="45.80866" lon="6.70329">
        <ele>1707</ele>
        <time>2013-08-27T07:33:06Z</time>
      </trkpt>
      <trkpt lat="45.80862" lon="6.70327">
        <ele>1706</ele>
        <time>2013-08-27T07:33:07Z</time>
      </trkpt>
      <trkpt lat="45.80859" lon="6.70324">
        <ele>1706</ele>
        <time>2013-08-27T07:33:08Z</time>
      </trkpt>
      <trkpt lat="45.80855" lon="6.70319">
        <ele>1705</ele>
        <time>2013-08-27T07:33:09Z</time>
      </trkpt>
      <trkpt lat="45.80852" lon="6.70314">
        <ele>1704.6</ele>
        <time>2013-08-27T07:33:10Z</time>
      </trkpt>
      <trkpt lat="45.80849" lon="6.70309">
        <ele>1704.1</ele>
        <time>2013-08-27T07:33:11Z</time>
      </trkpt>
      <trkpt lat="45.80846" lon="6.70305">
        <ele>1703.1</ele>
        <time>2013-08-27T07:33:12Z</time>
      </trkpt>
      <trkpt lat="45.80843" lon="6.70303">
        <ele>1702.6</ele>
        <time>2013-08-27T07:33:13Z</time>
      </trkpt>
      <trkpt lat="45.8084" lon="6.70302">
        <ele>1701.7</ele>
        <time>2013-08-27T07:33:14Z</time>
      </trkpt>
      <trkpt lat="45.80837" lon="6.70304">
        <ele>1700.7</ele>
        <time>2013-08-27T07:33:15Z</time>
      </trkpt>
      <trkpt lat="45.80835" lon="6.70305">
        <ele>1699.3</ele>
        <time>2013-08-27T07:33:16Z</time>
      </trkpt>
      <trkpt lat="45.80832" lon="6.70304">
        <ele>1699.3</ele>
        <time>2013-08-27T07:33:17Z</time>
      </trkpt>
      <trkpt lat="45.80829" lon="6.70301">
        <ele>1697.8</ele>
        <time>2013-08-27T07:33:18Z</time>
      </trkpt>
      <trkpt lat="45.80826" lon="6.70297">
        <ele>1696.9</ele>
        <time>2013-08-27T07:33:19Z</time>
      </trkpt>
      <trkpt lat="45.80823" lon="6.70292">
        <ele>1696.9</ele>
        <time>2013-08-27T07:33:20Z</time>
      </trkpt>
      <trkpt lat="45.8082" lon="6.70285">
        <ele>1696.4</ele>
        <time>2013-08-27T07:33:21Z</time>
      </trkpt>
      <trkpt lat="45.80817" lon="6.7028">
        <ele>1695.9</ele>
        <time>2013-08-27T07:33:22Z</time>
      </trkpt>
      <trkpt lat="45.80813" lon="6.70276">
        <ele>1694.9</ele>
        <time>2013-08-27T07:33:23Z</time>
      </trkpt>
      <trkpt lat="45.80811" lon="6.70275">
        <ele>1694.5</ele>
        <time>2013-08-27T07:33:24Z</time>
      </trkpt>
      <trkpt lat="45.80808" lon="6.70274">
        <ele>1694</ele>
        <time>2013-08-27T07:33:25Z</time>
      </trkpt>
      <trkpt lat="45.80804" lon="6.70272">
        <ele>1693.5</ele>
        <time>2013-08-27T07:33:26Z</time>
      </trkpt>
      <trkpt lat="45.80802" lon="6.7027">
        <ele>1694</ele>
        <time>2013-08-27T07:33:27Z</time>
      </trkpt>
      <trkpt lat="45.80798" lon="6.70269">
        <ele>1692.5</ele>
        <time>2013-08-27T07:33:28Z</time>
      </trkpt>
      <trkpt lat="45.80796" lon="6.7027">
        <ele>1692.5</ele>
        <time>2013-08-27T07:33:29Z</time>
      </trkpt>
      <trkpt lat="45.80794" lon="6.70272">
        <ele>1691.6</ele>
        <time>2013-08-27T07:33:30Z</time>
      </trkpt>
      <trkpt lat="45.80792" lon="6.70275">
        <ele>1690.1</ele>
        <time>2013-08-27T07:33:31Z</time>
      </trkpt>
      <trkpt lat="45.80793" lon="6.70284">
        <ele>1689.7</ele>
        <time>2013-08-27T07:33:32Z</time>
      </trkpt>
      <trkpt lat="45.80795" lon="6.70297">
        <ele>1687.7</ele>
        <time>2013-08-27T07:33:34Z</time>
      </trkpt>
      <trkpt lat="45.80797" lon="6.70308">
        <ele>1685.8</ele>
        <time>2013-08-27T07:33:42Z</time>
      </trkpt>
      <trkpt lat="45.80805" lon="6.70327">
        <ele>1682.4</ele>
        <time>2013-08-27T07:33:58Z</time>
      </trkpt>
      <trkpt lat="45.80807" lon="6.70337">
        <ele>1681.5</ele>
        <time>2013-08-27T07:34:01Z</time>
      </trkpt>
      <trkpt lat="45.80809" lon="6.70353">
        <ele>1678.1</ele>
        <time>2013-08-27T07:34:05Z</time>
      </trkpt>
      <trkpt lat="45.80809" lon="6.70368">
        <ele>1674.8</ele>
        <time>2013-08-27T07:34:10Z</time>
      </trkpt>
      <trkpt lat="45.8081" lon="6.7037">
        <ele>1673.8</ele>
        <time>2013-08-27T07:34:11Z</time>
      </trkpt>
      <trkpt lat="45.8081" lon="6.70372">
        <ele>1673.8</ele>
        <time>2013-08-27T07:34:12Z</time>
      </trkpt>
      <trkpt lat="45.8081" lon="6.70384">
        <ele>1670.4</ele>
        <time>2013-08-27T07:34:16Z</time>
      </trkpt>
      <trkpt lat="45.80808" lon="6.70385">
        <ele>1669.5</ele>
        <time>2013-08-27T07:34:17Z</time>
      </trkpt>
      <trkpt lat="45.80806" lon="6.70386">
        <ele>1669</ele>
        <time>2013-08-27T07:34:18Z</time>
      </trkpt>
      <trkpt lat="45.80804" lon="6.70386">
        <ele>1668.5</ele>
        <time>2013-08-27T07:34:19Z</time>
      </trkpt>
      <trkpt lat="45.80802" lon="6.70387">
        <ele>1668</ele>
        <time>2013-08-27T07:34:20Z</time>
      </trkpt>
      <trkpt lat="45.808" lon="6.70389">
        <ele>1667.5</ele>
        <time>2013-08-27T07:34:21Z</time>
      </trkpt>
      <trkpt lat="45.808" lon="6.70391">
        <ele>1667.5</ele>
        <time>2013-08-27T07:34:22Z</time>
      </trkpt>
      <trkpt lat="45.80802" lon="6.70391">
        <ele>1667.1</ele>
        <time>2013-08-27T07:34:36Z</time>
      </trkpt>
      <trkpt lat="45.80801" lon="6.70391">
        <ele>1666.6</ele>
        <time>2013-08-27T07:34:53Z</time>
      </trkpt>
      <trkpt lat="45.80802" lon="6.70393">
        <ele>1666.6</ele>
        <time>2013-08-27T07:35:04Z</time>
      </trkpt>
      <trkpt lat="45.80803" lon="6.70393">
        <ele>1665.1</ele>
        <time>2013-08-27T07:35:19Z</time>
      </trkpt>
      <trkpt lat="45.80804" lon="6.70392">
        <ele>1665.6</ele>
        <time>2013-08-27T07:35:44Z</time>
      </trkpt>
      <trkpt lat="45.80804" lon="6.70392">
        <ele>1665.6</ele>
        <time>2013-08-27T07:36:11Z</time>
      </trkpt>
      <trkpt lat="45.80806" lon="6.70394">
        <ele>1664.7</ele>
        <time>2013-08-27T07:36:31Z</time>
      </trkpt>
      <trkpt lat="45.80808" lon="6.70401">
        <ele>1664.2</ele>
        <time>2013-08-27T07:36:48Z</time>
      </trkpt>
      <trkpt lat="45.80806" lon="6.70404">
        <ele>1663.2</ele>
        <time>2013-08-27T07:37:05Z</time>
      </trkpt>
      <trkpt lat="45.80806" lon="6.70406">
        <ele>1663.2</ele>
        <time>2013-08-27T07:37:20Z</time>
      </trkpt>
      <trkpt lat="45.80807" lon="6.70403">
        <ele>1663.2</ele>
        <time>2013-08-27T07:37:36Z</time>
      </trkpt>
      <trkpt lat="45.808" lon="6.70408">
        <ele>1660.8</ele>
        <time>2013-08-27T07:37:50Z</time>
      </trkpt>
      <trkpt lat="45.80802" lon="6.70421">
        <ele>1661.3</ele>
        <time>2013-08-27T07:38:01Z</time>
      </trkpt>
      <trkpt lat="45.80802" lon="6.70425">
        <ele>1660.3</ele>
        <time>2013-08-27T07:38:02Z</time>
      </trkpt>
      <trkpt lat="45.80802" lon="6.70429">
        <ele>1659.9</ele>
        <time>2013-08-27T07:38:03Z</time>
      </trkpt>
      <trkpt lat="45.80801" lon="6.70433">
        <ele>1659.9</ele>
        <time>2013-08-27T07:38:04Z</time>
      </trkpt>
      <trkpt lat="45.808" lon="6.70437">
        <ele>1658.9</ele>
        <time>2013-08-27T07:38:05Z</time>
      </trkpt>
      <trkpt lat="45.80799" lon="6.70442">
        <ele>1657.9</ele>
        <time>2013-08-27T07:38:06Z</time>
      </trkpt>
      <trkpt lat="45.80794" lon="6.7046">
        <ele>1653.1</ele>
        <time>2013-08-27T07:38:10Z</time>
      </trkpt>
      <trkpt lat="45.80792" lon="6.70465">
        <ele>1652.2</ele>
        <time>2013-08-27T07:38:11Z</time>
      </trkpt>
      <trkpt lat="45.80785" lon="6.70487">
        <ele>1647.4</ele>
        <time>2013-08-27T07:38:15Z</time>
      </trkpt>
      <trkpt lat="45.80779" lon="6.70505">
        <ele>1644</ele>
        <time>2013-08-27T07:38:19Z</time>
      </trkpt>
      <trkpt lat="45.80778" lon="6.7051">
        <ele>1643</ele>
        <time>2013-08-27T07:38:20Z</time>
      </trkpt>
      <trkpt lat="45.80779" lon="6.70534">
        <ele>1641.1</ele>
        <time>2013-08-27T07:38:25Z</time>
      </trkpt>
      <trkpt lat="45.80783" lon="6.7055">
        <ele>1637.7</ele>
        <time>2013-08-27T07:38:28Z</time>
      </trkpt>
      <trkpt lat="45.80785" lon="6.70563">
        <ele>1635.3</ele>
        <time>2013-08-27T07:38:30Z</time>
      </trkpt>
      <trkpt lat="45.80787" lon="6.70579">
        <ele>1633.9</ele>
        <time>2013-08-27T07:38:32Z</time>
      </trkpt>
      <trkpt lat="45.80788" lon="6.70588">
        <ele>1632.5</ele>
        <time>2013-08-27T07:38:33Z</time>
      </trkpt>
      <trkpt lat="45.80791" lon="6.70597">
        <ele>1631.5</ele>
        <time>2013-08-27T07:38:34Z</time>
      </trkpt>
      <trkpt lat="45.80794" lon="6.70605">
        <ele>1631.5</ele>
        <time>2013-08-27T07:38:35Z</time>
      </trkpt>
      <trkpt lat="45.80796" lon="6.70612">
        <ele>1630.1</ele>
        <time>2013-08-27T07:38:36Z</time>
      </trkpt>
      <trkpt lat="45.80798" lon="6.70618">
        <ele>1629.6</ele>
        <time>2013-08-27T07:38:37Z</time>
      </trkpt>
      <trkpt lat="45.80804" lon="6.70637">
        <ele>1626.7</ele>
        <time>2013-08-27T07:38:40Z</time>
      </trkpt>
      <trkpt lat="45.80804" lon="6.70642">
        <ele>1626.7</ele>
        <time>2013-08-27T07:38:41Z</time>
      </trkpt>
      <trkpt lat="45.80803" lon="6.70647">
        <ele>1625.7</ele>
        <time>2013-08-27T07:38:42Z</time>
      </trkpt>
      <trkpt lat="45.80801" lon="6.70651">
        <ele>1624.8</ele>
        <time>2013-08-27T07:38:43Z</time>
      </trkpt>
      <trkpt lat="45.80801" lon="6.70654">
        <ele>1624.3</ele>
        <time>2013-08-27T07:38:44Z</time>
      </trkpt>
      <trkpt lat="45.808" lon="6.70656">
        <ele>1622.8</ele>
        <time>2013-08-27T07:38:45Z</time>
      </trkpt>
      <trkpt lat="45.80797" lon="6.70657">
        <ele>1622.8</ele>
        <time>2013-08-27T07:38:46Z</time>
      </trkpt>
      <trkpt lat="45.80795" lon="6.70658">
        <ele>1621.9</ele>
        <time>2013-08-27T07:38:47Z</time>
      </trkpt>
      <trkpt lat="45.80788" lon="6.70658">
        <ele>1620.9</ele>
        <time>2013-08-27T07:38:49Z</time>
      </trkpt>
      <trkpt lat="45.80783" lon="6.70657">
        <ele>1620.4</ele>
        <time>2013-08-27T07:38:51Z</time>
      </trkpt>
      <trkpt lat="45.80779" lon="6.70654">
        <ele>1620</ele>
        <time>2013-08-27T07:38:52Z</time>
      </trkpt>
      <trkpt lat="45.80767" lon="6.70644">
        <ele>1618.5</ele>
        <time>2013-08-27T07:38:55Z</time>
      </trkpt>
      <trkpt lat="45.8076" lon="6.70635">
        <ele>1617.1</ele>
        <time>2013-08-27T07:38:57Z</time>
      </trkpt>
      <trkpt lat="45.80756" lon="6.70635">
        <ele>1616.1</ele>
        <time>2013-08-27T07:38:58Z</time>
      </trkpt>
      <trkpt lat="45.80753" lon="6.70637">
        <ele>1615.2</ele>
        <time>2013-08-27T07:38:59Z</time>
      </trkpt>
      <trkpt lat="45.80751" lon="6.70642">
        <ele>1614.7</ele>
        <time>2013-08-27T07:39:00Z</time>
      </trkpt>
      <trkpt lat="45.80747" lon="6.70665">
        <ele>1611.8</ele>
        <time>2013-08-27T07:39:05Z</time>
      </trkpt>
      <trkpt lat="45.80745" lon="6.7068">
        <ele>1608.4</ele>
        <time>2013-08-27T07:39:08Z</time>
      </trkpt>
      <trkpt lat="45.80742" lon="6.7069">
        <ele>1606.5</ele>
        <time>2013-08-27T07:39:10Z</time>
      </trkpt>
      <trkpt lat="45.80741" lon="6.70706">
        <ele>1602.7</ele>
        <time>2013-08-27T07:39:13Z</time>
      </trkpt>
      <trkpt lat="45.80741" lon="6.70711">
        <ele>1602.7</ele>
        <time>2013-08-27T07:39:14Z</time>
      </trkpt>
      <trkpt lat="45.80743" lon="6.70728">
        <ele>1599.8</ele>
        <time>2013-08-27T07:39:18Z</time>
      </trkpt>
      <trkpt lat="45.80746" lon="6.70741">
        <ele>1597.4</ele>
        <time>2013-08-27T07:39:24Z</time>
      </trkpt>
      <trkpt lat="45.80752" lon="6.70741">
        <ele>1597.9</ele>
        <time>2013-08-27T07:39:31Z</time>
      </trkpt>
      <trkpt lat="45.80752" lon="6.70743">
        <ele>1597.4</ele>
        <time>2013-08-27T07:39:32Z</time>
      </trkpt>
      <trkpt lat="45.80751" lon="6.70746">
        <ele>1596.9</ele>
        <time>2013-08-27T07:39:33Z</time>
      </trkpt>
      <trkpt lat="45.8075" lon="6.70751">
        <ele>1596.4</ele>
        <time>2013-08-27T07:39:34Z</time>
      </trkpt>
      <trkpt lat="45.80749" lon="6.70756">
        <ele>1595</ele>
        <time>2013-08-27T07:39:35Z</time>
      </trkpt>
      <trkpt lat="45.8075" lon="6.70761">
        <ele>1595</ele>
        <time>2013-08-27T07:39:36Z</time>
      </trkpt>
      <trkpt lat="45.80751" lon="6.70766">
        <ele>1594.5</ele>
        <time>2013-08-27T07:39:37Z</time>
      </trkpt>
      <trkpt lat="45.80752" lon="6.70771">
        <ele>1592.6</ele>
        <time>2013-08-27T07:39:38Z</time>
      </trkpt>
      <trkpt lat="45.80754" lon="6.70785">
        <ele>1590.2</ele>
        <time>2013-08-27T07:39:40Z</time>
      </trkpt>
      <trkpt lat="45.80754" lon="6.70791">
        <ele>1589.2</ele>
        <time>2013-08-27T07:39:41Z</time>
      </trkpt>
      <trkpt lat="45.80752" lon="6.70796">
        <ele>1589.2</ele>
        <time>2013-08-27T07:39:42Z</time>
      </trkpt>
      <trkpt lat="45.8075" lon="6.70801">
        <ele>1587.3</ele>
        <time>2013-08-27T07:39:43Z</time>
      </trkpt>
      <trkpt lat="45.80749" lon="6.70806">
        <ele>1587.3</ele>
        <time>2013-08-27T07:39:44Z</time>
      </trkpt>
      <trkpt lat="45.80746" lon="6.7081">
        <ele>1586.3</ele>
        <time>2013-08-27T07:39:45Z</time>
      </trkpt>
      <trkpt lat="45.80745" lon="6.70812">
        <ele>1585.8</ele>
        <time>2013-08-27T07:39:46Z</time>
      </trkpt>
      <trkpt lat="45.80741" lon="6.70816">
        <ele>1584.4</ele>
        <time>2013-08-27T07:39:47Z</time>
      </trkpt>
      <trkpt lat="45.80731" lon="6.70824">
        <ele>1581.5</ele>
        <time>2013-08-27T07:39:52Z</time>
      </trkpt>
      <trkpt lat="45.80727" lon="6.70825">
        <ele>1582</ele>
        <time>2013-08-27T07:39:53Z</time>
      </trkpt>
      <trkpt lat="45.80712" lon="6.70821">
        <ele>1578.6</ele>
        <time>2013-08-27T07:39:57Z</time>
      </trkpt>
      <trkpt lat="45.80696" lon="6.70815">
        <ele>1574.8</ele>
        <time>2013-08-27T07:40:01Z</time>
      </trkpt>
      <trkpt lat="45.80683" lon="6.70809">
        <ele>1571.4</ele>
        <time>2013-08-27T07:40:05Z</time>
      </trkpt>
      <trkpt lat="45.80675" lon="6.70803">
        <ele>1569.5</ele>
        <time>2013-08-27T07:40:07Z</time>
      </trkpt>
      <trkpt lat="45.80667" lon="6.70799">
        <ele>1568.5</ele>
        <time>2013-08-27T07:40:09Z</time>
      </trkpt>
      <trkpt lat="45.80654" lon="6.70792">
        <ele>1563.2</ele>
        <time>2013-08-27T07:40:12Z</time>
      </trkpt>
      <trkpt lat="45.80651" lon="6.70791">
        <ele>1563.7</ele>
        <time>2013-08-27T07:40:13Z</time>
      </trkpt>
      <trkpt lat="45.80644" lon="6.70783">
        <ele>1561.8</ele>
        <time>2013-08-27T07:40:14Z</time>
      </trkpt>
      <trkpt lat="45.80629" lon="6.70767">
        <ele>1560.4</ele>
        <time>2013-08-27T07:40:17Z</time>
      </trkpt>
      <trkpt lat="45.80624" lon="6.70765">
        <ele>1559.4</ele>
        <time>2013-08-27T07:40:18Z</time>
      </trkpt>
      <trkpt lat="45.80618" lon="6.70767">
        <ele>1556.5</ele>
        <time>2013-08-27T07:40:19Z</time>
      </trkpt>
      <trkpt lat="45.80613" lon="6.70768">
        <ele>1557</ele>
        <time>2013-08-27T07:40:20Z</time>
      </trkpt>
      <trkpt lat="45.8061" lon="6.70775">
        <ele>1556.5</ele>
        <time>2013-08-27T07:40:21Z</time>
      </trkpt>
      <trkpt lat="45.80606" lon="6.70785">
        <ele>1554.1</ele>
        <time>2013-08-27T07:40:23Z</time>
      </trkpt>
      <trkpt lat="45.80598" lon="6.70801">
        <ele>1550.3</ele>
        <time>2013-08-27T07:40:26Z</time>
      </trkpt>
      <trkpt lat="45.80596" lon="6.70806">
        <ele>1551.2</ele>
        <time>2013-08-27T07:40:27Z</time>
      </trkpt>
      <trkpt lat="45.80594" lon="6.70813">
        <ele>1551.7</ele>
        <time>2013-08-27T07:40:28Z</time>
      </trkpt>
      <trkpt lat="45.80591" lon="6.70827">
        <ele>1548.3</ele>
        <time>2013-08-27T07:40:30Z</time>
      </trkpt>
      <trkpt lat="45.80589" lon="6.70838">
        <ele>1543.5</ele>
        <time>2013-08-27T07:40:32Z</time>
      </trkpt>
      <trkpt lat="45.80588" lon="6.70843">
        <ele>1544</ele>
        <time>2013-08-27T07:40:33Z</time>
      </trkpt>
      <trkpt lat="45.80587" lon="6.70852">
        <ele>1540.7</ele>
        <time>2013-08-27T07:40:36Z</time>
      </trkpt>
      <trkpt lat="45.80578" lon="6.70868">
        <ele>1539.2</ele>
        <time>2013-08-27T07:40:40Z</time>
      </trkpt>
      <trkpt lat="45.80576" lon="6.70872">
        <ele>1536.8</ele>
        <time>2013-08-27T07:40:41Z</time>
      </trkpt>
      <trkpt lat="45.80565" lon="6.70885">
        <ele>1531</ele>
        <time>2013-08-27T07:40:45Z</time>
      </trkpt>
      <trkpt lat="45.80563" lon="6.70888">
        <ele>1531.5</ele>
        <time>2013-08-27T07:40:46Z</time>
      </trkpt>
      <trkpt lat="45.80553" lon="6.70902">
        <ele>1527.7</ele>
        <time>2013-08-27T07:40:50Z</time>
      </trkpt>
      <trkpt lat="45.80551" lon="6.70907">
        <ele>1528.2</ele>
        <time>2013-08-27T07:40:51Z</time>
      </trkpt>
      <trkpt lat="45.80545" lon="6.70914">
        <ele>1522.4</ele>
        <time>2013-08-27T07:40:53Z</time>
      </trkpt>
      <trkpt lat="45.80542" lon="6.70917">
        <ele>1522.4</ele>
        <time>2013-08-27T07:40:54Z</time>
      </trkpt>
      <trkpt lat="45.80533" lon="6.70926">
        <ele>1520</ele>
        <time>2013-08-27T07:40:57Z</time>
      </trkpt>
      <trkpt lat="45.80526" lon="6.70934">
        <ele>1520.5</ele>
        <time>2013-08-27T07:41:00Z</time>
      </trkpt>
      <trkpt lat="45.80524" lon="6.70939">
        <ele>1516.6</ele>
        <time>2013-08-27T07:41:02Z</time>
      </trkpt>
      <trkpt lat="45.80525" lon="6.70944">
        <ele>1518.1</ele>
        <time>2013-08-27T07:41:05Z</time>
      </trkpt>
      <trkpt lat="45.80529" lon="6.70942">
        <ele>1515.7</ele>
        <time>2013-08-27T07:41:07Z</time>
      </trkpt>
      <trkpt lat="45.80531" lon="6.70941">
        <ele>1517.1</ele>
        <time>2013-08-27T07:41:09Z</time>
      </trkpt>
      <trkpt lat="45.80533" lon="6.70942">
        <ele>1514.7</ele>
        <time>2013-08-27T07:41:11Z</time>
      </trkpt>
      <trkpt lat="45.80534" lon="6.70942">
        <ele>1518.5</ele>
        <time>2013-08-27T07:41:13Z</time>
      </trkpt>
      <trkpt lat="45.80537" lon="6.70941">
        <ele>1515.2</ele>
        <time>2013-08-27T07:41:15Z</time>
      </trkpt>
      <trkpt lat="45.80538" lon="6.70941">
        <ele>1516.6</ele>
        <time>2013-08-27T07:41:16Z</time>
      </trkpt>
      <trkpt lat="45.80541" lon="6.7094">
        <ele>1513.3</ele>
        <time>2013-08-27T07:41:19Z</time>
      </trkpt>
      <trkpt lat="45.80542" lon="6.7094">
        <ele>1518.5</ele>
        <time>2013-08-27T07:41:21Z</time>
      </trkpt>
      <trkpt lat="45.80544" lon="6.7094">
        <ele>1514.7</ele>
        <time>2013-08-27T07:41:24Z</time>
      </trkpt>
      <trkpt lat="45.80544" lon="6.7094">
        <ele>1514.7</ele>
        <time>2013-08-27T07:41:25Z</time>
      </trkpt>
      <trkpt lat="45.80544" lon="6.7094">
        <ele>1518.1</ele>
        <time>2013-08-27T07:41:27Z</time>
      </trkpt>
      <trkpt lat="45.80545" lon="6.7094">
        <ele>1518.5</ele>
        <time>2013-08-27T07:41:29Z</time>
      </trkpt>
      <trkpt lat="45.80546" lon="6.70942">
        <ele>1516.6</ele>
        <time>2013-08-27T07:41:31Z</time>
      </trkpt>
      <trkpt lat="45.80547" lon="6.70943">
        <ele>1520.5</ele>
        <time>2013-08-27T07:41:32Z</time>
      </trkpt>
      <trkpt lat="45.80548" lon="6.70944">
        <ele>1514.7</ele>
        <time>2013-08-27T07:41:33Z</time>
      </trkpt>
      <trkpt lat="45.80548" lon="6.70944">
        <ele>1518.5</ele>
        <time>2013-08-27T07:41:34Z</time>
      </trkpt>
      <trkpt lat="45.80549" lon="6.70945">
        <ele>1520</ele>
        <time>2013-08-27T07:41:36Z</time>
      </trkpt>
      <trkpt lat="45.8055" lon="6.70946">
        <ele>1515.7</ele>
        <time>2013-08-27T07:41:38Z</time>
      </trkpt>
      <trkpt lat="45.80549" lon="6.70946">
        <ele>1519.5</ele>
        <time>2013-08-27T07:41:39Z</time>
      </trkpt>
      <trkpt lat="45.80551" lon="6.70946">
        <ele>1514.7</ele>
        <time>2013-08-27T07:41:41Z</time>
      </trkpt>
      <trkpt lat="45.80551" lon="6.70945">
        <ele>1519.5</ele>
        <time>2013-08-27T07:41:42Z</time>
      </trkpt>
      <trkpt lat="45.8055" lon="6.70944">
        <ele>1516.1</ele>
        <time>2013-08-27T07:41:43Z</time>
      </trkpt>
      <trkpt lat="45.80546" lon="6.70936">
        <ele>1516.6</ele>
        <time>2013-08-27T07:41:56Z</time>
      </trkpt>
      <trkpt lat="45.80545" lon="6.70938">
        <ele>1517.6</ele>
        <time>2013-08-27T07:42:05Z</time>
      </trkpt>
      <trkpt lat="45.80536" lon="6.70901">
        <ele>1518.5</ele>
        <time>2013-08-27T07:42:20Z</time>
      </trkpt>
      <trkpt lat="45.80528" lon="6.70868">
        <ele>1521.9</ele>
        <time>2013-08-27T07:42:33Z</time>
      </trkpt>
      <trkpt lat="45.80524" lon="6.70858">
        <ele>1519</ele>
        <time>2013-08-27T07:42:37Z</time>
      </trkpt>
      <trkpt lat="45.80524" lon="6.70855">
        <ele>1522.9</ele>
        <time>2013-08-27T07:42:38Z</time>
      </trkpt>
      <trkpt lat="45.80523" lon="6.70853">
        <ele>1519.5</ele>
        <time>2013-08-27T07:42:39Z</time>
      </trkpt>
      <trkpt lat="45.80522" lon="6.7085">
        <ele>1522.9</ele>
        <time>2013-08-27T07:42:40Z</time>
      </trkpt>
      <trkpt lat="45.80505" lon="6.70799">
        <ele>1522.9</ele>
        <time>2013-08-27T07:42:58Z</time>
      </trkpt>
      <trkpt lat="45.80498" lon="6.70784">
        <ele>1526.2</ele>
        <time>2013-08-27T07:43:03Z</time>
      </trkpt>
      <trkpt lat="45.80494" lon="6.70775">
        <ele>1522.9</ele>
        <time>2013-08-27T07:43:06Z</time>
      </trkpt>
      <trkpt lat="45.80493" lon="6.70771">
        <ele>1526.7</ele>
        <time>2013-08-27T07:43:07Z</time>
      </trkpt>
      <trkpt lat="45.80491" lon="6.70768">
        <ele>1523.4</ele>
        <time>2013-08-27T07:43:08Z</time>
      </trkpt>
      <trkpt lat="45.8049" lon="6.70765">
        <ele>1526.7</ele>
        <time>2013-08-27T07:43:09Z</time>
      </trkpt>
      <trkpt lat="45.80488" lon="6.70762">
        <ele>1523.4</ele>
        <time>2013-08-27T07:43:10Z</time>
      </trkpt>
      <trkpt lat="45.80481" lon="6.7074">
        <ele>1522.9</ele>
        <time>2013-08-27T07:43:15Z</time>
      </trkpt>
      <trkpt lat="45.80479" lon="6.70734">
        <ele>1522.4</ele>
        <time>2013-08-27T07:43:16Z</time>
      </trkpt>
      <trkpt lat="45.80479" lon="6.70728">
        <ele>1521.9</ele>
        <time>2013-08-27T07:43:17Z</time>
      </trkpt>
      <trkpt lat="45.80478" lon="6.70721">
        <ele>1524.8</ele>
        <time>2013-08-27T07:43:18Z</time>
      </trkpt>
      <trkpt lat="45.80478" lon="6.70714">
        <ele>1522.9</ele>
        <time>2013-08-27T07:43:19Z</time>
      </trkpt>
      <trkpt lat="45.80479" lon="6.70708">
        <ele>1522.4</ele>
        <time>2013-08-27T07:43:20Z</time>
      </trkpt>
      <trkpt lat="45.80478" lon="6.70687">
        <ele>1521.4</ele>
        <time>2013-08-27T07:43:25Z</time>
      </trkpt>
      <trkpt lat="45.80468" lon="6.70669">
        <ele>1517.1</ele>
        <time>2013-08-27T07:43:31Z</time>
      </trkpt>
      <trkpt lat="45.80465" lon="6.70665">
        <ele>1518.5</ele>
        <time>2013-08-27T07:43:32Z</time>
      </trkpt>
      <trkpt lat="45.80458" lon="6.70659">
        <ele>1515.7</ele>
        <time>2013-08-27T07:43:34Z</time>
      </trkpt>
      <trkpt lat="45.80438" lon="6.70634">
        <ele>1512.3</ele>
        <time>2013-08-27T07:43:39Z</time>
      </trkpt>
      <trkpt lat="45.80428" lon="6.70624">
        <ele>1506.5</ele>
        <time>2013-08-27T07:43:41Z</time>
      </trkpt>
      <trkpt lat="45.80418" lon="6.70616">
        <ele>1504.1</ele>
        <time>2013-08-27T07:43:43Z</time>
      </trkpt>
      <trkpt lat="45.80414" lon="6.70614">
        <ele>1505.1</ele>
        <time>2013-08-27T07:43:44Z</time>
      </trkpt>
      <trkpt lat="45.8041" lon="6.70615">
        <ele>1504.1</ele>
        <time>2013-08-27T07:43:45Z</time>
      </trkpt>
      <trkpt lat="45.80407" lon="6.70618">
        <ele>1506</ele>
        <time>2013-08-27T07:43:46Z</time>
      </trkpt>
      <trkpt lat="45.80406" lon="6.70622">
        <ele>1506</ele>
        <time>2013-08-27T07:43:47Z</time>
      </trkpt>
      <trkpt lat="45.80406" lon="6.70632">
        <ele>1504.6</ele>
        <time>2013-08-27T07:43:50Z</time>
      </trkpt>
      <trkpt lat="45.80407" lon="6.70637">
        <ele>1503.2</ele>
        <time>2013-08-27T07:43:51Z</time>
      </trkpt>
      <trkpt lat="45.80408" lon="6.70651">
        <ele>1500.8</ele>
        <time>2013-08-27T07:43:54Z</time>
      </trkpt>
      <trkpt lat="45.80408" lon="6.70657">
        <ele>1499.8</ele>
        <time>2013-08-27T07:43:55Z</time>
      </trkpt>
      <trkpt lat="45.80408" lon="6.70662">
        <ele>1498.4</ele>
        <time>2013-08-27T07:43:56Z</time>
      </trkpt>
      <trkpt lat="45.80407" lon="6.70686">
        <ele>1495</ele>
        <time>2013-08-27T07:44:00Z</time>
      </trkpt>
      <trkpt lat="45.80406" lon="6.70692">
        <ele>1491.1</ele>
        <time>2013-08-27T07:44:01Z</time>
      </trkpt>
      <trkpt lat="45.80404" lon="6.70697">
        <ele>1492.6</ele>
        <time>2013-08-27T07:44:02Z</time>
      </trkpt>
      <trkpt lat="45.80402" lon="6.70702">
        <ele>1493.1</ele>
        <time>2013-08-27T07:44:03Z</time>
      </trkpt>
      <trkpt lat="45.804" lon="6.70707">
        <ele>1491.6</ele>
        <time>2013-08-27T07:44:04Z</time>
      </trkpt>
      <trkpt lat="45.80397" lon="6.70712">
        <ele>1488.3</ele>
        <time>2013-08-27T07:44:05Z</time>
      </trkpt>
      <trkpt lat="45.80395" lon="6.70717">
        <ele>1485.4</ele>
        <time>2013-08-27T07:44:06Z</time>
      </trkpt>
      <trkpt lat="45.80392" lon="6.70723">
        <ele>1485.9</ele>
        <time>2013-08-27T07:44:07Z</time>
      </trkpt>
      <trkpt lat="45.80389" lon="6.7073">
        <ele>1485.4</ele>
        <time>2013-08-27T07:44:08Z</time>
      </trkpt>
      <trkpt lat="45.80387" lon="6.70737">
        <ele>1486.8</ele>
        <time>2013-08-27T07:44:09Z</time>
      </trkpt>
      <trkpt lat="45.80385" lon="6.70745">
        <ele>1483</ele>
        <time>2013-08-27T07:44:10Z</time>
      </trkpt>
      <trkpt lat="45.80383" lon="6.70755">
        <ele>1480.1</ele>
        <time>2013-08-27T07:44:11Z</time>
      </trkpt>
      <trkpt lat="45.80375" lon="6.70787">
        <ele>1475.8</ele>
        <time>2013-08-27T07:44:15Z</time>
      </trkpt>
      <trkpt lat="45.80368" lon="6.70819">
        <ele>1472.4</ele>
        <time>2013-08-27T07:44:20Z</time>
      </trkpt>
      <trkpt lat="45.80365" lon="6.70825">
        <ele>1473.4</ele>
        <time>2013-08-27T07:44:21Z</time>
      </trkpt>
      <trkpt lat="45.80364" lon="6.70832">
        <ele>1470.5</ele>
        <time>2013-08-27T07:44:22Z</time>
      </trkpt>
      <trkpt lat="45.8036" lon="6.70854">
        <ele>1466.6</ele>
        <time>2013-08-27T07:44:26Z</time>
      </trkpt>
      <trkpt lat="45.80363" lon="6.70866">
        <ele>1464.2</ele>
        <time>2013-08-27T07:44:28Z</time>
      </trkpt>
      <trkpt lat="45.80362" lon="6.70871">
        <ele>1466.6</ele>
        <time>2013-08-27T07:44:29Z</time>
      </trkpt>
      <trkpt lat="45.8036" lon="6.70874">
        <ele>1462.8</ele>
        <time>2013-08-27T07:44:30Z</time>
      </trkpt>
      <trkpt lat="45.80357" lon="6.70882">
        <ele>1460.9</ele>
        <time>2013-08-27T07:44:32Z</time>
      </trkpt>
      <trkpt lat="45.80344" lon="6.70891">
        <ele>1457.5</ele>
        <time>2013-08-27T07:44:36Z</time>
      </trkpt>
      <trkpt lat="45.80331" lon="6.70896">
        <ele>1454.1</ele>
        <time>2013-08-27T07:44:39Z</time>
      </trkpt>
      <trkpt lat="45.80322" lon="6.70899">
        <ele>1452.2</ele>
        <time>2013-08-27T07:44:41Z</time>
      </trkpt>
      <trkpt lat="45.80318" lon="6.70901">
        <ele>1451.7</ele>
        <time>2013-08-27T07:44:42Z</time>
      </trkpt>
      <trkpt lat="45.80313" lon="6.70905">
        <ele>1450.3</ele>
        <time>2013-08-27T07:44:43Z</time>
      </trkpt>
      <trkpt lat="45.8031" lon="6.70909">
        <ele>1449.3</ele>
        <time>2013-08-27T07:44:44Z</time>
      </trkpt>
      <trkpt lat="45.80303" lon="6.70918">
        <ele>1447.4</ele>
        <time>2013-08-27T07:44:46Z</time>
      </trkpt>
      <trkpt lat="45.80293" lon="6.70925">
        <ele>1445.5</ele>
        <time>2013-08-27T07:44:48Z</time>
      </trkpt>
      <trkpt lat="45.80278" lon="6.70925">
        <ele>1442.6</ele>
        <time>2013-08-27T07:44:52Z</time>
      </trkpt>
      <trkpt lat="45.80273" lon="6.7092">
        <ele>1441.6</ele>
        <time>2013-08-27T07:44:53Z</time>
      </trkpt>
      <trkpt lat="45.80268" lon="6.70915">
        <ele>1441.6</ele>
        <time>2013-08-27T07:44:54Z</time>
      </trkpt>
      <trkpt lat="45.80263" lon="6.70909">
        <ele>1440.2</ele>
        <time>2013-08-27T07:44:55Z</time>
      </trkpt>
      <trkpt lat="45.80254" lon="6.70897">
        <ele>1438.3</ele>
        <time>2013-08-27T07:44:57Z</time>
      </trkpt>
      <trkpt lat="45.80239" lon="6.70881">
        <ele>1434.9</ele>
        <time>2013-08-27T07:45:01Z</time>
      </trkpt>
      <trkpt lat="45.80235" lon="6.70881">
        <ele>1433.9</ele>
        <time>2013-08-27T07:45:02Z</time>
      </trkpt>
      <trkpt lat="45.80232" lon="6.70883">
        <ele>1434.4</ele>
        <time>2013-08-27T07:45:03Z</time>
      </trkpt>
      <trkpt lat="45.80228" lon="6.70885">
        <ele>1434.4</ele>
        <time>2013-08-27T07:45:04Z</time>
      </trkpt>
      <trkpt lat="45.80221" lon="6.70891">
        <ele>1434.4</ele>
        <time>2013-08-27T07:45:09Z</time>
      </trkpt>
      <trkpt lat="45.80219" lon="6.70894">
        <ele>1435.4</ele>
        <time>2013-08-27T07:45:11Z</time>
      </trkpt>
      <trkpt lat="45.80215" lon="6.70898">
        <ele>1436.4</ele>
        <time>2013-08-27T07:45:23Z</time>
      </trkpt>
      <trkpt lat="45.80209" lon="6.709">
        <ele>1438.3</ele>
        <time>2013-08-27T07:45:37Z</time>
      </trkpt>
      <trkpt lat="45.80221" lon="6.70904">
        <ele>1440.2</ele>
        <time>2013-08-27T07:45:49Z</time>
      </trkpt>
      <trkpt lat="45.80251" lon="6.70911">
        <ele>1443.1</ele>
        <time>2013-08-27T07:46:04Z</time>
      </trkpt>
      <trkpt lat="45.80274" lon="6.70918">
        <ele>1446</ele>
        <time>2013-08-27T07:46:17Z</time>
      </trkpt>
      <trkpt lat="45.80298" lon="6.70933">
        <ele>1448.8</ele>
        <time>2013-08-27T07:46:32Z</time>
      </trkpt>
      <trkpt lat="45.80292" lon="6.70949">
        <ele>1451.3</ele>
        <time>2013-08-27T07:46:49Z</time>
      </trkpt>
      <trkpt lat="45.80283" lon="6.7095">
        <ele>1454.1</ele>
        <time>2013-08-27T07:47:01Z</time>
      </trkpt>
      <trkpt lat="45.80274" lon="6.70952">
        <ele>1456.1</ele>
        <time>2013-08-27T07:47:15Z</time>
      </trkpt>
      <trkpt lat="45.80276" lon="6.70959">
        <ele>1458.9</ele>
        <time>2013-08-27T07:47:30Z</time>
      </trkpt>
      <trkpt lat="45.8028" lon="6.70966">
        <ele>1461.3</ele>
        <time>2013-08-27T07:47:48Z</time>
      </trkpt>
      <trkpt lat="45.80285" lon="6.70983">
        <ele>1463.3</ele>
        <time>2013-08-27T07:48:03Z</time>
      </trkpt>
      <trkpt lat="45.80285" lon="6.70993">
        <ele>1465.7</ele>
        <time>2013-08-27T07:48:17Z</time>
      </trkpt>
      <trkpt lat="45.80281" lon="6.71006">
        <ele>1468.6</ele>
        <time>2013-08-27T07:48:32Z</time>
      </trkpt>
      <trkpt lat="45.80282" lon="6.71015">
        <ele>1471</ele>
        <time>2013-08-27T07:48:46Z</time>
      </trkpt>
      <trkpt lat="45.8028" lon="6.71019">
        <ele>1473.4</ele>
        <time>2013-08-27T07:49:00Z</time>
      </trkpt>
      <trkpt lat="45.80283" lon="6.71024">
        <ele>1475.3</ele>
        <time>2013-08-27T07:49:14Z</time>
      </trkpt>
      <trkpt lat="45.8028" lon="6.71034">
        <ele>1477.2</ele>
        <time>2013-08-27T07:49:26Z</time>
      </trkpt>
      <trkpt lat="45.80274" lon="6.71039">
        <ele>1477.7</ele>
        <time>2013-08-27T07:49:48Z</time>
      </trkpt>
      <trkpt lat="45.80273" lon="6.71041">
        <ele>1477.7</ele>
        <time>2013-08-27T07:49:54Z</time>
      </trkpt>
      <trkpt lat="45.80263" lon="6.71038">
        <ele>1476.7</ele>
        <time>2013-08-27T07:49:59Z</time>
      </trkpt>
      <trkpt lat="45.80252" lon="6.71031">
        <ele>1475.3</ele>
        <time>2013-08-27T07:50:05Z</time>
      </trkpt>
      <trkpt lat="45.80248" lon="6.71028">
        <ele>1474.8</ele>
        <time>2013-08-27T07:50:07Z</time>
      </trkpt>
      <trkpt lat="45.80246" lon="6.71026">
        <ele>1473.4</ele>
        <time>2013-08-27T07:50:08Z</time>
      </trkpt>
      <trkpt lat="45.80231" lon="6.71024">
        <ele>1472.4</ele>
        <time>2013-08-27T07:50:26Z</time>
      </trkpt>
      <trkpt lat="45.80228" lon="6.71024">
        <ele>1471.9</ele>
        <time>2013-08-27T07:50:40Z</time>
      </trkpt>
      <trkpt lat="45.80216" lon="6.71029">
        <ele>1470</ele>
        <time>2013-08-27T07:50:52Z</time>
      </trkpt>
      <trkpt lat="45.80215" lon="6.71029">
        <ele>1470.5</ele>
        <time>2013-08-27T07:50:55Z</time>
      </trkpt>
      <trkpt lat="45.80201" lon="6.71019">
        <ele>1472.9</ele>
        <time>2013-08-27T07:51:07Z</time>
      </trkpt>
      <trkpt lat="45.80199" lon="6.71018">
        <ele>1473.4</ele>
        <time>2013-08-27T07:51:09Z</time>
      </trkpt>
      <trkpt lat="45.80193" lon="6.71013">
        <ele>1475.3</ele>
        <time>2013-08-27T07:51:26Z</time>
      </trkpt>
      <trkpt lat="45.80201" lon="6.71012">
        <ele>1475.8</ele>
        <time>2013-08-27T07:51:51Z</time>
      </trkpt>
      <trkpt lat="45.80199" lon="6.71017">
        <ele>1476.2</ele>
        <time>2013-08-27T07:51:54Z</time>
      </trkpt>
      <trkpt lat="45.80198" lon="6.71033">
        <ele>1479.1</ele>
        <time>2013-08-27T07:52:04Z</time>
      </trkpt>
      <trkpt lat="45.80209" lon="6.7105">
        <ele>1480.1</ele>
        <time>2013-08-27T07:52:17Z</time>
      </trkpt>
      <trkpt lat="45.80211" lon="6.71056">
        <ele>1482</ele>
        <time>2013-08-27T07:52:21Z</time>
      </trkpt>
      <trkpt lat="45.80214" lon="6.71087">
        <ele>1485.4</ele>
        <time>2013-08-27T07:52:34Z</time>
      </trkpt>
      <trkpt lat="45.80214" lon="6.71089">
        <ele>1484.9</ele>
        <time>2013-08-27T07:52:35Z</time>
      </trkpt>
      <trkpt lat="45.80205" lon="6.71114">
        <ele>1485.9</ele>
        <time>2013-08-27T07:52:46Z</time>
      </trkpt>
      <trkpt lat="45.80199" lon="6.71131">
        <ele>1488.3</ele>
        <time>2013-08-27T07:52:55Z</time>
      </trkpt>
      <trkpt lat="45.80209" lon="6.71156">
        <ele>1487.8</ele>
        <time>2013-08-27T07:53:09Z</time>
      </trkpt>
      <trkpt lat="45.80213" lon="6.71158">
        <ele>1487.3</ele>
        <time>2013-08-27T07:53:12Z</time>
      </trkpt>
      <trkpt lat="45.80215" lon="6.71161">
        <ele>1487.8</ele>
        <time>2013-08-27T07:53:13Z</time>
      </trkpt>
      <trkpt lat="45.80216" lon="6.71163">
        <ele>1486.8</ele>
        <time>2013-08-27T07:53:14Z</time>
      </trkpt>
      <trkpt lat="45.80216" lon="6.71167">
        <ele>1487.3</ele>
        <time>2013-08-27T07:53:15Z</time>
      </trkpt>
      <trkpt lat="45.80233" lon="6.71192">
        <ele>1486.8</ele>
        <time>2013-08-27T07:53:25Z</time>
      </trkpt>
      <trkpt lat="45.80251" lon="6.71221">
        <ele>1486.8</ele>
        <time>2013-08-27T07:53:38Z</time>
      </trkpt>
      <trkpt lat="45.80265" lon="6.71259">
        <ele>1490.7</ele>
        <time>2013-08-27T07:53:52Z</time>
      </trkpt>
      <trkpt lat="45.80271" lon="6.71269">
        <ele>1491.6</ele>
        <time>2013-08-27T07:53:56Z</time>
      </trkpt>
      <trkpt lat="45.80277" lon="6.71295">
        <ele>1492.6</ele>
        <time>2013-08-27T07:54:06Z</time>
      </trkpt>
      <trkpt lat="45.80277" lon="6.71297">
        <ele>1493.1</ele>
        <time>2013-08-27T07:54:07Z</time>
      </trkpt>
      <trkpt lat="45.80278" lon="6.71299">
        <ele>1493.1</ele>
        <time>2013-08-27T07:54:08Z</time>
      </trkpt>
      <trkpt lat="45.8029" lon="6.71317">
        <ele>1496.4</ele>
        <time>2013-08-27T07:54:21Z</time>
      </trkpt>
      <trkpt lat="45.80291" lon="6.71318">
        <ele>1496</ele>
        <time>2013-08-27T07:54:36Z</time>
      </trkpt>
      <trkpt lat="45.8029" lon="6.71317">
        <ele>1496.4</ele>
        <time>2013-08-27T07:54:38Z</time>
      </trkpt>
      <trkpt lat="45.80289" lon="6.71315">
        <ele>1496.9</ele>
        <time>2013-08-27T07:54:40Z</time>
      </trkpt>
      <trkpt lat="45.80288" lon="6.71305">
        <ele>1497.4</ele>
        <time>2013-08-27T07:54:50Z</time>
      </trkpt>
      <trkpt lat="45.8029" lon="6.71307">
        <ele>1498.4</ele>
        <time>2013-08-27T07:54:52Z</time>
      </trkpt>
      <trkpt lat="45.80295" lon="6.71316">
        <ele>1499.8</ele>
        <time>2013-08-27T07:55:02Z</time>
      </trkpt>
      <trkpt lat="45.80302" lon="6.71328">
        <ele>1501.2</ele>
        <time>2013-08-27T07:55:14Z</time>
      </trkpt>
      <trkpt lat="45.80305" lon="6.71335">
        <ele>1501.2</ele>
        <time>2013-08-27T07:55:26Z</time>
      </trkpt>
      <trkpt lat="45.80303" lon="6.71346">
        <ele>1500.8</ele>
        <time>2013-08-27T07:55:37Z</time>
      </trkpt>
      <trkpt lat="45.80301" lon="6.71349">
        <ele>1500.8</ele>
        <time>2013-08-27T07:55:58Z</time>
      </trkpt>
      <trkpt lat="45.80295" lon="6.71359">
        <ele>1503.2</ele>
        <time>2013-08-27T07:56:15Z</time>
      </trkpt>
      <trkpt lat="45.80297" lon="6.71358">
        <ele>1500.8</ele>
        <time>2013-08-27T07:56:17Z</time>
      </trkpt>
      <trkpt lat="45.803" lon="6.7136">
        <ele>1500.3</ele>
        <time>2013-08-27T07:56:28Z</time>
      </trkpt>
      <trkpt lat="45.80301" lon="6.71357">
        <ele>1499.8</ele>
        <time>2013-08-27T07:56:47Z</time>
      </trkpt>
      <trkpt lat="45.80305" lon="6.71335">
        <ele>1498.4</ele>
        <time>2013-08-27T07:57:13Z</time>
      </trkpt>
      <trkpt lat="45.80299" lon="6.71343">
        <ele>1498.4</ele>
        <time>2013-08-27T07:57:21Z</time>
      </trkpt>
      <trkpt lat="45.80295" lon="6.7135">
        <ele>1495</ele>
        <time>2013-08-27T07:57:28Z</time>
      </trkpt>
      <trkpt lat="45.80294" lon="6.71351">
        <ele>1503.6</ele>
        <time>2013-08-27T07:57:29Z</time>
      </trkpt>
      <trkpt lat="45.80293" lon="6.71352">
        <ele>1503.6</ele>
        <time>2013-08-27T07:57:30Z</time>
      </trkpt>
      <trkpt lat="45.80293" lon="6.71352">
        <ele>1498.8</ele>
        <time>2013-08-27T07:57:31Z</time>
      </trkpt>
      <trkpt lat="45.80293" lon="6.71353">
        <ele>1498.8</ele>
        <time>2013-08-27T07:57:32Z</time>
      </trkpt>
      <trkpt lat="45.80296" lon="6.7135">
        <ele>1497.9</ele>
        <time>2013-08-27T07:57:54Z</time>
      </trkpt>
      <trkpt lat="45.80311" lon="6.71342">
        <ele>1498.8</ele>
        <time>2013-08-27T07:58:14Z</time>
      </trkpt>
      <trkpt lat="45.80299" lon="6.71342">
        <ele>1497.9</ele>
        <time>2013-08-27T07:58:40Z</time>
      </trkpt>
      <trkpt lat="45.80297" lon="6.71351">
        <ele>1495.5</ele>
        <time>2013-08-27T07:59:09Z</time>
      </trkpt>
      <trkpt lat="45.80305" lon="6.71343">
        <ele>1496.9</ele>
        <time>2013-08-27T07:59:32Z</time>
      </trkpt>
      <trkpt lat="45.80309" lon="6.71342">
        <ele>1496.9</ele>
        <time>2013-08-27T07:59:54Z</time>
      </trkpt>
      <trkpt lat="45.80313" lon="6.71339">
        <ele>1496.4</ele>
        <time>2013-08-27T08:00:24Z</time>
      </trkpt>
      <trkpt lat="45.80316" lon="6.71326">
        <ele>1497.4</ele>
        <time>2013-08-27T08:00:51Z</time>
      </trkpt>
      <trkpt lat="45.80305" lon="6.71321">
        <ele>1496.4</ele>
        <time>2013-08-27T08:01:05Z</time>
      </trkpt>
      <trkpt lat="45.80294" lon="6.71328">
        <ele>1497.4</ele>
        <time>2013-08-27T08:01:06Z</time>
      </trkpt>
      <trkpt lat="45.80276" lon="6.71311">
        <ele>1500.3</ele>
        <time>2013-08-27T08:01:14Z</time>
      </trkpt>
      <trkpt lat="45.80221" lon="6.71267">
        <ele>1502.2</ele>
        <time>2013-08-27T08:01:27Z</time>
      </trkpt>
      <trkpt lat="45.802" lon="6.71239">
        <ele>1505.6</ele>
        <time>2013-08-27T08:01:37Z</time>
      </trkpt>
      <trkpt lat="45.80166" lon="6.71198">
        <ele>1506</ele>
        <time>2013-08-27T08:01:52Z</time>
      </trkpt>
      <trkpt lat="45.80137" lon="6.71162">
        <ele>1509.4</ele>
        <time>2013-08-27T08:02:05Z</time>
      </trkpt>
      <trkpt lat="45.80116" lon="6.71136">
        <ele>1512.8</ele>
        <time>2013-08-27T08:02:15Z</time>
      </trkpt>
      <trkpt lat="45.80114" lon="6.71133">
        <ele>1512.8</ele>
        <time>2013-08-27T08:02:16Z</time>
      </trkpt>
      <trkpt lat="45.80076" lon="6.71087">
        <ele>1517.1</ele>
        <time>2013-08-27T08:02:34Z</time>
      </trkpt>
      <trkpt lat="45.80073" lon="6.71085">
        <ele>1516.6</ele>
        <time>2013-08-27T08:02:35Z</time>
      </trkpt>
      <trkpt lat="45.80068" lon="6.71078">
        <ele>1519</ele>
        <time>2013-08-27T08:02:37Z</time>
      </trkpt>
      <trkpt lat="45.8006" lon="6.7107">
        <ele>1520.9</ele>
        <time>2013-08-27T08:02:40Z</time>
      </trkpt>
      <trkpt lat="45.80055" lon="6.71064">
        <ele>1522.4</ele>
        <time>2013-08-27T08:02:42Z</time>
      </trkpt>
      <trkpt lat="45.80049" lon="6.71056">
        <ele>1525.8</ele>
        <time>2013-08-27T08:02:44Z</time>
      </trkpt>
      <trkpt lat="45.80047" lon="6.71054">
        <ele>1526.2</ele>
        <time>2013-08-27T08:02:45Z</time>
      </trkpt>
      <trkpt lat="45.80039" lon="6.71047">
        <ele>1530.1</ele>
        <time>2013-08-27T08:02:48Z</time>
      </trkpt>
      <trkpt lat="45.80037" lon="6.71044">
        <ele>1529.6</ele>
        <time>2013-08-27T08:02:49Z</time>
      </trkpt>
      <trkpt lat="45.80023" lon="6.71027">
        <ele>1533.9</ele>
        <time>2013-08-27T08:02:55Z</time>
      </trkpt>
      <trkpt lat="45.80006" lon="6.71008">
        <ele>1537.3</ele>
        <time>2013-08-27T08:03:02Z</time>
      </trkpt>
      <trkpt lat="45.79999" lon="6.71">
        <ele>1540.7</ele>
        <time>2013-08-27T08:03:05Z</time>
      </trkpt>
      <trkpt lat="45.79997" lon="6.70997">
        <ele>1540.7</ele>
        <time>2013-08-27T08:03:06Z</time>
      </trkpt>
      <trkpt lat="45.79987" lon="6.70986">
        <ele>1543.5</ele>
        <time>2013-08-27T08:03:10Z</time>
      </trkpt>
      <trkpt lat="45.79985" lon="6.7098">
        <ele>1545</ele>
        <time>2013-08-27T08:03:12Z</time>
      </trkpt>
      <trkpt lat="45.79977" lon="6.70967">
        <ele>1548.3</ele>
        <time>2013-08-27T08:03:16Z</time>
      </trkpt>
      <trkpt lat="45.79971" lon="6.70958">
        <ele>1551.2</ele>
        <time>2013-08-27T08:03:19Z</time>
      </trkpt>
      <trkpt lat="45.79961" lon="6.70947">
        <ele>1554.1</ele>
        <time>2013-08-27T08:03:23Z</time>
      </trkpt>
      <trkpt lat="45.79956" lon="6.7094">
        <ele>1555.6</ele>
        <time>2013-08-27T08:03:25Z</time>
      </trkpt>
      <trkpt lat="45.7995" lon="6.70931">
        <ele>1558.4</ele>
        <time>2013-08-27T08:03:28Z</time>
      </trkpt>
      <trkpt lat="45.79941" lon="6.7092">
        <ele>1562.3</ele>
        <time>2013-08-27T08:03:32Z</time>
      </trkpt>
      <trkpt lat="45.79935" lon="6.70913">
        <ele>1565.6</ele>
        <time>2013-08-27T08:03:35Z</time>
      </trkpt>
      <trkpt lat="45.79933" lon="6.70911">
        <ele>1565.2</ele>
        <time>2013-08-27T08:03:36Z</time>
      </trkpt>
      <trkpt lat="45.79929" lon="6.70905">
        <ele>1568.5</ele>
        <time>2013-08-27T08:03:38Z</time>
      </trkpt>
      <trkpt lat="45.79919" lon="6.70893">
        <ele>1573.3</ele>
        <time>2013-08-27T08:03:43Z</time>
      </trkpt>
      <trkpt lat="45.79903" lon="6.7087">
        <ele>1579.1</ele>
        <time>2013-08-27T08:03:52Z</time>
      </trkpt>
      <trkpt lat="45.79901" lon="6.70867">
        <ele>1577.7</ele>
        <time>2013-08-27T08:03:53Z</time>
      </trkpt>
      <trkpt lat="45.79896" lon="6.70862">
        <ele>1581</ele>
        <time>2013-08-27T08:03:55Z</time>
      </trkpt>
      <trkpt lat="45.79885" lon="6.7085">
        <ele>1584.9</ele>
        <time>2013-08-27T08:03:59Z</time>
      </trkpt>
      <trkpt lat="45.79883" lon="6.70846">
        <ele>1584.9</ele>
        <time>2013-08-27T08:04:00Z</time>
      </trkpt>
      <trkpt lat="45.79873" lon="6.70835">
        <ele>1588.2</ele>
        <time>2013-08-27T08:04:04Z</time>
      </trkpt>
      <trkpt lat="45.79861" lon="6.70819">
        <ele>1592.6</ele>
        <time>2013-08-27T08:04:10Z</time>
      </trkpt>
      <trkpt lat="45.79855" lon="6.70811">
        <ele>1596.4</ele>
        <time>2013-08-27T08:04:13Z</time>
      </trkpt>
      <trkpt lat="45.7985" lon="6.70805">
        <ele>1597.4</ele>
        <time>2013-08-27T08:04:15Z</time>
      </trkpt>
      <trkpt lat="45.79842" lon="6.70795">
        <ele>1601.7</ele>
        <time>2013-08-27T08:04:19Z</time>
      </trkpt>
      <trkpt lat="45.79839" lon="6.70792">
        <ele>1601.7</ele>
        <time>2013-08-27T08:04:20Z</time>
      </trkpt>
      <trkpt lat="45.79828" lon="6.7078">
        <ele>1605.5</ele>
        <time>2013-08-27T08:04:25Z</time>
      </trkpt>
      <trkpt lat="45.79826" lon="6.70778">
        <ele>1604.6</ele>
        <time>2013-08-27T08:04:26Z</time>
      </trkpt>
      <trkpt lat="45.79818" lon="6.7077">
        <ele>1607</ele>
        <time>2013-08-27T08:04:29Z</time>
      </trkpt>
      <trkpt lat="45.79811" lon="6.70763">
        <ele>1610.4</ele>
        <time>2013-08-27T08:04:32Z</time>
      </trkpt>
      <trkpt lat="45.79809" lon="6.7076">
        <ele>1609.9</ele>
        <time>2013-08-27T08:04:33Z</time>
      </trkpt>
      <trkpt lat="45.79803" lon="6.70752">
        <ele>1611.8</ele>
        <time>2013-08-27T08:04:36Z</time>
      </trkpt>
      <trkpt lat="45.79797" lon="6.70745">
        <ele>1615.2</ele>
        <time>2013-08-27T08:04:39Z</time>
      </trkpt>
      <trkpt lat="45.79794" lon="6.70743">
        <ele>1615.2</ele>
        <time>2013-08-27T08:04:40Z</time>
      </trkpt>
      <trkpt lat="45.7979" lon="6.70737">
        <ele>1616.6</ele>
        <time>2013-08-27T08:04:42Z</time>
      </trkpt>
      <trkpt lat="45.79781" lon="6.70726">
        <ele>1620</ele>
        <time>2013-08-27T08:04:46Z</time>
      </trkpt>
      <trkpt lat="45.79775" lon="6.70718">
        <ele>1622.4</ele>
        <time>2013-08-27T08:04:49Z</time>
      </trkpt>
      <trkpt lat="45.79768" lon="6.70712">
        <ele>1625.7</ele>
        <time>2013-08-27T08:04:52Z</time>
      </trkpt>
      <trkpt lat="45.79761" lon="6.70702">
        <ele>1629.1</ele>
        <time>2013-08-27T08:04:56Z</time>
      </trkpt>
      <trkpt lat="45.79757" lon="6.70697">
        <ele>1630.1</ele>
        <time>2013-08-27T08:04:58Z</time>
      </trkpt>
      <trkpt lat="45.7975" lon="6.70687">
        <ele>1632.5</ele>
        <time>2013-08-27T08:05:02Z</time>
      </trkpt>
      <trkpt lat="45.79738" lon="6.70671">
        <ele>1635.8</ele>
        <time>2013-08-27T08:05:07Z</time>
      </trkpt>
      <trkpt lat="45.79727" lon="6.7066">
        <ele>1638.7</ele>
        <time>2013-08-27T08:05:11Z</time>
      </trkpt>
      <trkpt lat="45.79714" lon="6.70645">
        <ele>1642.1</ele>
        <time>2013-08-27T08:05:16Z</time>
      </trkpt>
      <trkpt lat="45.79709" lon="6.7064">
        <ele>1643</ele>
        <time>2013-08-27T08:05:18Z</time>
      </trkpt>
      <trkpt lat="45.79699" lon="6.70628">
        <ele>1646.4</ele>
        <time>2013-08-27T08:05:22Z</time>
      </trkpt>
      <trkpt lat="45.7969" lon="6.70618">
        <ele>1650.7</ele>
        <time>2013-08-27T08:05:26Z</time>
      </trkpt>
      <trkpt lat="45.79688" lon="6.70615">
        <ele>1650.7</ele>
        <time>2013-08-27T08:05:27Z</time>
      </trkpt>
      <trkpt lat="45.7968" lon="6.70606">
        <ele>1654.6</ele>
        <time>2013-08-27T08:05:31Z</time>
      </trkpt>
      <trkpt lat="45.79672" lon="6.70596">
        <ele>1658.9</ele>
        <time>2013-08-27T08:05:35Z</time>
      </trkpt>
      <trkpt lat="45.7967" lon="6.70594">
        <ele>1658.9</ele>
        <time>2013-08-27T08:05:36Z</time>
      </trkpt>
      <trkpt lat="45.79662" lon="6.70584">
        <ele>1663.2</ele>
        <time>2013-08-27T08:05:40Z</time>
      </trkpt>
      <trkpt lat="45.7966" lon="6.70582">
        <ele>1663.2</ele>
        <time>2013-08-27T08:05:41Z</time>
      </trkpt>
      <trkpt lat="45.79653" lon="6.70574">
        <ele>1666.6</ele>
        <time>2013-08-27T08:05:44Z</time>
      </trkpt>
      <trkpt lat="45.79643" lon="6.70561">
        <ele>1670.4</ele>
        <time>2013-08-27T08:05:49Z</time>
      </trkpt>
      <trkpt lat="45.79634" lon="6.7055">
        <ele>1672.4</ele>
        <time>2013-08-27T08:05:53Z</time>
      </trkpt>
      <trkpt lat="45.79625" lon="6.70539">
        <ele>1675.7</ele>
        <time>2013-08-27T08:05:57Z</time>
      </trkpt>
      <trkpt lat="45.79623" lon="6.70536">
        <ele>1675.7</ele>
        <time>2013-08-27T08:05:58Z</time>
      </trkpt>
      <trkpt lat="45.79614" lon="6.70525">
        <ele>1679.1</ele>
        <time>2013-08-27T08:06:02Z</time>
      </trkpt>
      <trkpt lat="45.79603" lon="6.70512">
        <ele>1683.4</ele>
        <time>2013-08-27T08:06:07Z</time>
      </trkpt>
      <trkpt lat="45.79595" lon="6.70501">
        <ele>1685.3</ele>
        <time>2013-08-27T08:06:11Z</time>
      </trkpt>
      <trkpt lat="45.7959" lon="6.70496">
        <ele>1687.7</ele>
        <time>2013-08-27T08:06:13Z</time>
      </trkpt>
      <trkpt lat="45.79582" lon="6.70485">
        <ele>1691.6</ele>
        <time>2013-08-27T08:06:17Z</time>
      </trkpt>
      <trkpt lat="45.79574" lon="6.70475">
        <ele>1695.4</ele>
        <time>2013-08-27T08:06:21Z</time>
      </trkpt>
      <trkpt lat="45.79566" lon="6.70466">
        <ele>1698.3</ele>
        <time>2013-08-27T08:06:25Z</time>
      </trkpt>
      <trkpt lat="45.79556" lon="6.70454">
        <ele>1702.2</ele>
        <time>2013-08-27T08:06:30Z</time>
      </trkpt>
      <trkpt lat="45.79541" lon="6.70438">
        <ele>1706</ele>
        <time>2013-08-27T08:06:36Z</time>
      </trkpt>
      <trkpt lat="45.79527" lon="6.7042">
        <ele>1710.3</ele>
        <time>2013-08-27T08:06:42Z</time>
      </trkpt>
      <trkpt lat="45.79518" lon="6.70409">
        <ele>1713.7</ele>
        <time>2013-08-27T08:06:46Z</time>
      </trkpt>
      <trkpt lat="45.79508" lon="6.70397">
        <ele>1717.1</ele>
        <time>2013-08-27T08:06:50Z</time>
      </trkpt>
      <trkpt lat="45.795" lon="6.70387">
        <ele>1720.4</ele>
        <time>2013-08-27T08:06:54Z</time>
      </trkpt>
      <trkpt lat="45.79491" lon="6.70377">
        <ele>1723.8</ele>
        <time>2013-08-27T08:06:58Z</time>
      </trkpt>
      <trkpt lat="45.79482" lon="6.70366">
        <ele>1726.7</ele>
        <time>2013-08-27T08:07:02Z</time>
      </trkpt>
      <trkpt lat="45.79475" lon="6.70358">
        <ele>1728.6</ele>
        <time>2013-08-27T08:07:05Z</time>
      </trkpt>
      <trkpt lat="45.79469" lon="6.7035">
        <ele>1731.5</ele>
        <time>2013-08-27T08:07:08Z</time>
      </trkpt>
      <trkpt lat="45.79466" lon="6.70347">
        <ele>1731.5</ele>
        <time>2013-08-27T08:07:09Z</time>
      </trkpt>
      <trkpt lat="45.79459" lon="6.70339">
        <ele>1733.4</ele>
        <time>2013-08-27T08:07:12Z</time>
      </trkpt>
      <trkpt lat="45.7945" lon="6.70328">
        <ele>1737.2</ele>
        <time>2013-08-27T08:07:16Z</time>
      </trkpt>
      <trkpt lat="45.79448" lon="6.70325">
        <ele>1737.2</ele>
        <time>2013-08-27T08:07:17Z</time>
      </trkpt>
      <trkpt lat="45.79439" lon="6.70314">
        <ele>1741.1</ele>
        <time>2013-08-27T08:07:21Z</time>
      </trkpt>
      <trkpt lat="45.7943" lon="6.70304">
        <ele>1744.5</ele>
        <time>2013-08-27T08:07:25Z</time>
      </trkpt>
      <trkpt lat="45.79424" lon="6.70296">
        <ele>1746.9</ele>
        <time>2013-08-27T08:07:28Z</time>
      </trkpt>
      <trkpt lat="45.7941" lon="6.70281">
        <ele>1749.3</ele>
        <time>2013-08-27T08:07:34Z</time>
      </trkpt>
      <trkpt lat="45.79399" lon="6.70267">
        <ele>1752.6</ele>
        <time>2013-08-27T08:07:39Z</time>
      </trkpt>
      <trkpt lat="45.79392" lon="6.70258">
        <ele>1755</ele>
        <time>2013-08-27T08:07:42Z</time>
      </trkpt>
      <trkpt lat="45.79381" lon="6.70245">
        <ele>1757.9</ele>
        <time>2013-08-27T08:07:47Z</time>
      </trkpt>
      <trkpt lat="45.79372" lon="6.70235">
        <ele>1760.3</ele>
        <time>2013-08-27T08:07:51Z</time>
      </trkpt>
      <trkpt lat="45.79355" lon="6.70215">
        <ele>1763.7</ele>
        <time>2013-08-27T08:07:58Z</time>
      </trkpt>
      <trkpt lat="45.79338" lon="6.70192">
        <ele>1767</ele>
        <time>2013-08-27T08:08:06Z</time>
      </trkpt>
      <trkpt lat="45.79324" lon="6.70176">
        <ele>1769.9</ele>
        <time>2013-08-27T08:08:12Z</time>
      </trkpt>
      <trkpt lat="45.79322" lon="6.70173">
        <ele>1770.4</ele>
        <time>2013-08-27T08:08:13Z</time>
      </trkpt>
      <trkpt lat="45.79315" lon="6.70165">
        <ele>1771.9</ele>
        <time>2013-08-27T08:08:16Z</time>
      </trkpt>
      <trkpt lat="45.79306" lon="6.70155">
        <ele>1774.3</ele>
        <time>2013-08-27T08:08:20Z</time>
      </trkpt>
      <trkpt lat="45.79295" lon="6.70141">
        <ele>1777.6</ele>
        <time>2013-08-27T08:08:25Z</time>
      </trkpt>
      <trkpt lat="45.79293" lon="6.70138">
        <ele>1777.6</ele>
        <time>2013-08-27T08:08:26Z</time>
      </trkpt>
      <trkpt lat="45.79282" lon="6.70124">
        <ele>1780.5</ele>
        <time>2013-08-27T08:08:31Z</time>
      </trkpt>
      <trkpt lat="45.79271" lon="6.7011">
        <ele>1783.9</ele>
        <time>2013-08-27T08:08:36Z</time>
      </trkpt>
      <trkpt lat="45.79262" lon="6.701">
        <ele>1787.2</ele>
        <time>2013-08-27T08:08:40Z</time>
      </trkpt>
      <trkpt lat="45.79255" lon="6.70092">
        <ele>1788.7</ele>
        <time>2013-08-27T08:08:43Z</time>
      </trkpt>
      <trkpt lat="45.79248" lon="6.70084">
        <ele>1790.6</ele>
        <time>2013-08-27T08:08:46Z</time>
      </trkpt>
      <trkpt lat="45.79239" lon="6.70073">
        <ele>1794</ele>
        <time>2013-08-27T08:08:50Z</time>
      </trkpt>
      <trkpt lat="45.7923" lon="6.70063">
        <ele>1796.4</ele>
        <time>2013-08-27T08:08:54Z</time>
      </trkpt>
      <trkpt lat="45.79221" lon="6.70053">
        <ele>1800.7</ele>
        <time>2013-08-27T08:08:58Z</time>
      </trkpt>
      <trkpt lat="45.79219" lon="6.7005">
        <ele>1800.7</ele>
        <time>2013-08-27T08:08:59Z</time>
      </trkpt>
      <trkpt lat="45.79212" lon="6.70043">
        <ele>1803.6</ele>
        <time>2013-08-27T08:09:02Z</time>
      </trkpt>
      <trkpt lat="45.7921" lon="6.7004">
        <ele>1803.6</ele>
        <time>2013-08-27T08:09:03Z</time>
      </trkpt>
      <trkpt lat="45.79189" lon="6.70016">
        <ele>1806.9</ele>
        <time>2013-08-27T08:09:13Z</time>
      </trkpt>
      <trkpt lat="45.79167" lon="6.69989">
        <ele>1809.8</ele>
        <time>2013-08-27T08:09:23Z</time>
      </trkpt>
      <trkpt lat="45.79148" lon="6.69965">
        <ele>1813.7</ele>
        <time>2013-08-27T08:09:31Z</time>
      </trkpt>
      <trkpt lat="45.79137" lon="6.69951">
        <ele>1816.1</ele>
        <time>2013-08-27T08:09:36Z</time>
      </trkpt>
      <trkpt lat="45.79123" lon="6.69935">
        <ele>1819</ele>
        <time>2013-08-27T08:09:42Z</time>
      </trkpt>
      <trkpt lat="45.79121" lon="6.69933">
        <ele>1819.4</ele>
        <time>2013-08-27T08:09:43Z</time>
      </trkpt>
      <trkpt lat="45.79089" lon="6.69894">
        <ele>1822.8</ele>
        <time>2013-08-27T08:09:57Z</time>
      </trkpt>
      <trkpt lat="45.79076" lon="6.69877">
        <ele>1824.7</ele>
        <time>2013-08-27T08:10:03Z</time>
      </trkpt>
      <trkpt lat="45.79058" lon="6.69855">
        <ele>1828.1</ele>
        <time>2013-08-27T08:10:11Z</time>
      </trkpt>
      <trkpt lat="45.79042" lon="6.69837">
        <ele>1830.5</ele>
        <time>2013-08-27T08:10:18Z</time>
      </trkpt>
      <trkpt lat="45.79027" lon="6.69818">
        <ele>1833.9</ele>
        <time>2013-08-27T08:10:25Z</time>
      </trkpt>
      <trkpt lat="45.79011" lon="6.69798">
        <ele>1837.2</ele>
        <time>2013-08-27T08:10:32Z</time>
      </trkpt>
      <trkpt lat="45.79009" lon="6.69795">
        <ele>1837.7</ele>
        <time>2013-08-27T08:10:33Z</time>
      </trkpt>
      <trkpt lat="45.78998" lon="6.69782">
        <ele>1840.1</ele>
        <time>2013-08-27T08:10:38Z</time>
      </trkpt>
      <trkpt lat="45.78991" lon="6.69773">
        <ele>1842</ele>
        <time>2013-08-27T08:10:41Z</time>
      </trkpt>
      <trkpt lat="45.78983" lon="6.69763">
        <ele>1844</ele>
        <time>2013-08-27T08:10:45Z</time>
      </trkpt>
      <trkpt lat="45.78955" lon="6.6973">
        <ele>1847.3</ele>
        <time>2013-08-27T08:10:57Z</time>
      </trkpt>
      <trkpt lat="45.78931" lon="6.69701">
        <ele>1850.2</ele>
        <time>2013-08-27T08:11:08Z</time>
      </trkpt>
      <trkpt lat="45.78896" lon="6.69659">
        <ele>1854</ele>
        <time>2013-08-27T08:11:23Z</time>
      </trkpt>
      <trkpt lat="45.78892" lon="6.69653">
        <ele>1855</ele>
        <time>2013-08-27T08:11:25Z</time>
      </trkpt>
      <trkpt lat="45.78871" lon="6.6963">
        <ele>1857.9</ele>
        <time>2013-08-27T08:11:34Z</time>
      </trkpt>
      <trkpt lat="45.78852" lon="6.69608">
        <ele>1861.7</ele>
        <time>2013-08-27T08:11:42Z</time>
      </trkpt>
      <trkpt lat="45.78837" lon="6.69589">
        <ele>1864.6</ele>
        <time>2013-08-27T08:11:49Z</time>
      </trkpt>
      <trkpt lat="45.78826" lon="6.69576">
        <ele>1868</ele>
        <time>2013-08-27T08:11:54Z</time>
      </trkpt>
      <trkpt lat="45.78824" lon="6.69573">
        <ele>1868</ele>
        <time>2013-08-27T08:11:55Z</time>
      </trkpt>
      <trkpt lat="45.78792" lon="6.69535">
        <ele>1870.9</ele>
        <time>2013-08-27T08:12:09Z</time>
      </trkpt>
      <trkpt lat="45.78776" lon="6.69515">
        <ele>1874.2</ele>
        <time>2013-08-27T08:12:16Z</time>
      </trkpt>
      <trkpt lat="45.78756" lon="6.6949">
        <ele>1877.6</ele>
        <time>2013-08-27T08:12:25Z</time>
      </trkpt>
      <trkpt lat="45.78753" lon="6.69487">
        <ele>1877.6</ele>
        <time>2013-08-27T08:12:26Z</time>
      </trkpt>
      <trkpt lat="45.78739" lon="6.69471">
        <ele>1880.5</ele>
        <time>2013-08-27T08:12:32Z</time>
      </trkpt>
      <trkpt lat="45.78722" lon="6.69449">
        <ele>1881.9</ele>
        <time>2013-08-27T08:12:47Z</time>
      </trkpt>
      <trkpt lat="45.78719" lon="6.69448">
        <ele>1881.9</ele>
        <time>2013-08-27T08:13:05Z</time>
      </trkpt>
      <trkpt lat="45.78712" lon="6.69438">
        <ele>1881.4</ele>
        <time>2013-08-27T08:13:29Z</time>
      </trkpt>
      <trkpt lat="45.78703" lon="6.69429">
        <ele>1881.4</ele>
        <time>2013-08-27T08:13:47Z</time>
      </trkpt>
      <trkpt lat="45.78694" lon="6.69424">
        <ele>1881.9</ele>
        <time>2013-08-27T08:14:00Z</time>
      </trkpt>
      <trkpt lat="45.78699" lon="6.69431">
        <ele>1879</ele>
        <time>2013-08-27T08:14:17Z</time>
      </trkpt>
      <trkpt lat="45.78698" lon="6.69429">
        <ele>1878.6</ele>
        <time>2013-08-27T08:14:21Z</time>
      </trkpt>
      <trkpt lat="45.78693" lon="6.6943">
        <ele>1877.6</ele>
        <time>2013-08-27T08:14:27Z</time>
      </trkpt>
      <trkpt lat="45.78687" lon="6.69422">
        <ele>1873.3</ele>
        <time>2013-08-27T08:14:40Z</time>
      </trkpt>
      <trkpt lat="45.78687" lon="6.69422">
        <ele>1879.5</ele>
        <time>2013-08-27T08:14:41Z</time>
      </trkpt>
      <trkpt lat="45.78688" lon="6.69422">
        <ele>1875.2</ele>
        <time>2013-08-27T08:14:49Z</time>
      </trkpt>
      <trkpt lat="45.78688" lon="6.69422">
        <ele>1879</ele>
        <time>2013-08-27T08:14:50Z</time>
      </trkpt>
      <trkpt lat="45.78689" lon="6.69422">
        <ele>1873.8</ele>
        <time>2013-08-27T08:14:52Z</time>
      </trkpt>
      <trkpt lat="45.78689" lon="6.69422">
        <ele>1880.5</ele>
        <time>2013-08-27T08:14:53Z</time>
      </trkpt>
      <trkpt lat="45.78689" lon="6.69422">
        <ele>1872.3</ele>
        <time>2013-08-27T08:14:54Z</time>
      </trkpt>
      <trkpt lat="45.78688" lon="6.69422">
        <ele>1884.3</ele>
        <time>2013-08-27T08:14:55Z</time>
      </trkpt>
      <trkpt lat="45.78688" lon="6.69422">
        <ele>1880</ele>
        <time>2013-08-27T08:14:56Z</time>
      </trkpt>
      <trkpt lat="45.78687" lon="6.69422">
        <ele>1878.6</ele>
        <time>2013-08-27T08:14:58Z</time>
      </trkpt>
      <trkpt lat="45.78676" lon="6.69406">
        <ele>1878.6</ele>
        <time>2013-08-27T08:15:11Z</time>
      </trkpt>
      <trkpt lat="45.78672" lon="6.69399">
        <ele>1878.1</ele>
        <time>2013-08-27T08:15:15Z</time>
      </trkpt>
      <trkpt lat="45.78672" lon="6.69398">
        <ele>1878.1</ele>
        <time>2013-08-27T08:15:16Z</time>
      </trkpt>
      <trkpt lat="45.78671" lon="6.69397">
        <ele>1879</ele>
        <time>2013-08-27T08:15:17Z</time>
      </trkpt>
      <trkpt lat="45.78663" lon="6.69378">
        <ele>1879</ele>
        <time>2013-08-27T08:15:30Z</time>
      </trkpt>
      <trkpt lat="45.78662" lon="6.69376">
        <ele>1879</ele>
        <time>2013-08-27T08:15:31Z</time>
      </trkpt>
      <trkpt lat="45.78662" lon="6.69374">
        <ele>1879.5</ele>
        <time>2013-08-27T08:15:32Z</time>
      </trkpt>
      <trkpt lat="45.78661" lon="6.69371">
        <ele>1880</ele>
        <time>2013-08-27T08:15:33Z</time>
      </trkpt>
      <trkpt lat="45.78661" lon="6.6937">
        <ele>1879</ele>
        <time>2013-08-27T08:15:34Z</time>
      </trkpt>
      <trkpt lat="45.7866" lon="6.69368">
        <ele>1880</ele>
        <time>2013-08-27T08:15:35Z</time>
      </trkpt>
      <trkpt lat="45.78659" lon="6.69367">
        <ele>1880.5</ele>
        <time>2013-08-27T08:15:47Z</time>
      </trkpt>
      <trkpt lat="45.78657" lon="6.69367">
        <ele>1879.5</ele>
        <time>2013-08-27T08:16:19Z</time>
      </trkpt>
      <trkpt lat="45.78656" lon="6.69365">
        <ele>1880.5</ele>
        <time>2013-08-27T08:16:58Z</time>
      </trkpt>
      <trkpt lat="45.78658" lon="6.69365">
        <ele>1879.5</ele>
        <time>2013-08-27T08:17:36Z</time>
      </trkpt>
      <trkpt lat="45.78658" lon="6.69363">
        <ele>1879.5</ele>
        <time>2013-08-27T08:18:08Z</time>
      </trkpt>
      <trkpt lat="45.78661" lon="6.69372">
        <ele>1879</ele>
        <time>2013-08-27T08:18:27Z</time>
      </trkpt>
      <trkpt lat="45.78661" lon="6.69372">
        <ele>1880</ele>
        <time>2013-08-27T08:18:51Z</time>
      </trkpt>
      <trkpt lat="45.78653" lon="6.69371">
        <ele>1880</ele>
        <time>2013-08-27T08:19:07Z</time>
      </trkpt>
      <trkpt lat="45.78652" lon="6.69372">
        <ele>1879.5</ele>
        <time>2013-08-27T08:19:32Z</time>
      </trkpt>
      <trkpt lat="45.78652" lon="6.69369">
        <ele>1879.5</ele>
        <time>2013-08-27T08:19:49Z</time>
      </trkpt>
      <trkpt lat="45.7865" lon="6.69368">
        <ele>1878.6</ele>
        <time>2013-08-27T08:19:50Z</time>
      </trkpt>
      <trkpt lat="45.78621" lon="6.69369">
        <ele>1878.1</ele>
        <time>2013-08-27T08:20:04Z</time>
      </trkpt>
      <trkpt lat="45.7859" lon="6.69357">
        <ele>1878.1</ele>
        <time>2013-08-27T08:20:17Z</time>
      </trkpt>
      <trkpt lat="45.78567" lon="6.6934">
        <ele>1877.6</ele>
        <time>2013-08-27T08:20:30Z</time>
      </trkpt>
      <trkpt lat="45.78536" lon="6.69341">
        <ele>1876.6</ele>
        <time>2013-08-27T08:20:45Z</time>
      </trkpt>
      <trkpt lat="45.78529" lon="6.69342">
        <ele>1875.2</ele>
        <time>2013-08-27T08:20:47Z</time>
      </trkpt>
      <trkpt lat="45.78505" lon="6.69369">
        <ele>1871.3</ele>
        <time>2013-08-27T08:20:55Z</time>
      </trkpt>
      <trkpt lat="45.78502" lon="6.69373">
        <ele>1871.3</ele>
        <time>2013-08-27T08:20:56Z</time>
      </trkpt>
      <trkpt lat="45.78493" lon="6.69384">
        <ele>1868.9</ele>
        <time>2013-08-27T08:20:59Z</time>
      </trkpt>
      <trkpt lat="45.78488" lon="6.69391">
        <ele>1867.5</ele>
        <time>2013-08-27T08:21:01Z</time>
      </trkpt>
      <trkpt lat="45.7848" lon="6.69397">
        <ele>1865.6</ele>
        <time>2013-08-27T08:21:05Z</time>
      </trkpt>
      <trkpt lat="45.7848" lon="6.69398">
        <ele>1865.1</ele>
        <time>2013-08-27T08:21:19Z</time>
      </trkpt>
      <trkpt lat="45.78479" lon="6.69398">
        <ele>1865.1</ele>
        <time>2013-08-27T08:21:20Z</time>
      </trkpt>
      <trkpt lat="45.78478" lon="6.69398">
        <ele>1865.1</ele>
        <time>2013-08-27T08:21:21Z</time>
      </trkpt>
      <trkpt lat="45.78476" lon="6.69399">
        <ele>1865.1</ele>
        <time>2013-08-27T08:21:22Z</time>
      </trkpt>
      <trkpt lat="45.78474" lon="6.694">
        <ele>1865.6</ele>
        <time>2013-08-27T08:21:23Z</time>
      </trkpt>
      <trkpt lat="45.78472" lon="6.69402">
        <ele>1865.1</ele>
        <time>2013-08-27T08:21:24Z</time>
      </trkpt>
      <trkpt lat="45.78444" lon="6.69425">
        <ele>1864.6</ele>
        <time>2013-08-27T08:21:37Z</time>
      </trkpt>
      <trkpt lat="45.7841" lon="6.69422">
        <ele>1865.1</ele>
        <time>2013-08-27T08:21:50Z</time>
      </trkpt>
      <trkpt lat="45.78395" lon="6.69412">
        <ele>1864.1</ele>
        <time>2013-08-27T08:21:55Z</time>
      </trkpt>
      <trkpt lat="45.78391" lon="6.6941">
        <ele>1863.2</ele>
        <time>2013-08-27T08:21:56Z</time>
      </trkpt>
      <trkpt lat="45.78363" lon="6.69397">
        <ele>1859.8</ele>
        <time>2013-08-27T08:22:01Z</time>
      </trkpt>
      <trkpt lat="45.78346" lon="6.69381">
        <ele>1856</ele>
        <time>2013-08-27T08:22:04Z</time>
      </trkpt>
      <trkpt lat="45.78333" lon="6.69371">
        <ele>1854</ele>
        <time>2013-08-27T08:22:06Z</time>
      </trkpt>
      <trkpt lat="45.78328" lon="6.69369">
        <ele>1853.6</ele>
        <time>2013-08-27T08:22:07Z</time>
      </trkpt>
      <trkpt lat="45.78322" lon="6.69369">
        <ele>1853.1</ele>
        <time>2013-08-27T08:22:08Z</time>
      </trkpt>
      <trkpt lat="45.78318" lon="6.6937">
        <ele>1853.1</ele>
        <time>2013-08-27T08:22:09Z</time>
      </trkpt>
      <trkpt lat="45.78315" lon="6.6937">
        <ele>1853.1</ele>
        <time>2013-08-27T08:22:10Z</time>
      </trkpt>
      <trkpt lat="45.78312" lon="6.69369">
        <ele>1853.6</ele>
        <time>2013-08-27T08:22:11Z</time>
      </trkpt>
      <trkpt lat="45.78309" lon="6.69368">
        <ele>1854</ele>
        <time>2013-08-27T08:22:12Z</time>
      </trkpt>
      <trkpt lat="45.78307" lon="6.69365">
        <ele>1853.6</ele>
        <time>2013-08-27T08:22:13Z</time>
      </trkpt>
      <trkpt lat="45.78304" lon="6.69361">
        <ele>1853.6</ele>
        <time>2013-08-27T08:22:14Z</time>
      </trkpt>
      <trkpt lat="45.78301" lon="6.69357">
        <ele>1853.1</ele>
        <time>2013-08-27T08:22:15Z</time>
      </trkpt>
      <trkpt lat="45.78273" lon="6.69327">
        <ele>1850.7</ele>
        <time>2013-08-27T08:22:21Z</time>
      </trkpt>
      <trkpt lat="45.78262" lon="6.69314">
        <ele>1849.7</ele>
        <time>2013-08-27T08:22:23Z</time>
      </trkpt>
      <trkpt lat="45.78255" lon="6.69309">
        <ele>1848.8</ele>
        <time>2013-08-27T08:22:24Z</time>
      </trkpt>
      <trkpt lat="45.78248" lon="6.69307">
        <ele>1848.3</ele>
        <time>2013-08-27T08:22:25Z</time>
      </trkpt>
      <trkpt lat="45.78241" lon="6.69304">
        <ele>1847.3</ele>
        <time>2013-08-27T08:22:26Z</time>
      </trkpt>
      <trkpt lat="45.78234" lon="6.69301">
        <ele>1847.8</ele>
        <time>2013-08-27T08:22:27Z</time>
      </trkpt>
      <trkpt lat="45.78226" lon="6.69299">
        <ele>1847.3</ele>
        <time>2013-08-27T08:22:28Z</time>
      </trkpt>
      <trkpt lat="45.78219" lon="6.69298">
        <ele>1847.3</ele>
        <time>2013-08-27T08:22:29Z</time>
      </trkpt>
      <trkpt lat="45.78212" lon="6.693">
        <ele>1845.9</ele>
        <time>2013-08-27T08:22:30Z</time>
      </trkpt>
      <trkpt lat="45.78206" lon="6.69302">
        <ele>1845.9</ele>
        <time>2013-08-27T08:22:31Z</time>
      </trkpt>
      <trkpt lat="45.78186" lon="6.69313">
        <ele>1844.9</ele>
        <time>2013-08-27T08:22:36Z</time>
      </trkpt>
      <trkpt lat="45.78184" lon="6.69318">
        <ele>1843.5</ele>
        <time>2013-08-27T08:22:37Z</time>
      </trkpt>
      <trkpt lat="45.78183" lon="6.69322">
        <ele>1843.5</ele>
        <time>2013-08-27T08:22:38Z</time>
      </trkpt>
      <trkpt lat="45.78184" lon="6.69327">
        <ele>1843.5</ele>
        <time>2013-08-27T08:22:39Z</time>
      </trkpt>
      <trkpt lat="45.78184" lon="6.69332">
        <ele>1843</ele>
        <time>2013-08-27T08:22:40Z</time>
      </trkpt>
      <trkpt lat="45.78183" lon="6.69337">
        <ele>1843</ele>
        <time>2013-08-27T08:22:41Z</time>
      </trkpt>
      <trkpt lat="45.78181" lon="6.69341">
        <ele>1842</ele>
        <time>2013-08-27T08:22:42Z</time>
      </trkpt>
      <trkpt lat="45.78177" lon="6.69343">
        <ele>1842</ele>
        <time>2013-08-27T08:22:43Z</time>
      </trkpt>
      <trkpt lat="45.78172" lon="6.69346">
        <ele>1841.1</ele>
        <time>2013-08-27T08:22:44Z</time>
      </trkpt>
      <trkpt lat="45.78167" lon="6.69349">
        <ele>1840.1</ele>
        <time>2013-08-27T08:22:45Z</time>
      </trkpt>
      <trkpt lat="45.78157" lon="6.69357">
        <ele>1838.2</ele>
        <time>2013-08-27T08:22:47Z</time>
      </trkpt>
      <trkpt lat="45.78141" lon="6.69376">
        <ele>1833.9</ele>
        <time>2013-08-27T08:22:50Z</time>
      </trkpt>
      <trkpt lat="45.78122" lon="6.69395">
        <ele>1831.9</ele>
        <time>2013-08-27T08:22:54Z</time>
      </trkpt>
      <trkpt lat="45.78108" lon="6.69405">
        <ele>1828.1</ele>
        <time>2013-08-27T08:22:57Z</time>
      </trkpt>
      <trkpt lat="45.78104" lon="6.69409">
        <ele>1827.1</ele>
        <time>2013-08-27T08:22:58Z</time>
      </trkpt>
      <trkpt lat="45.78101" lon="6.69415">
        <ele>1826.2</ele>
        <time>2013-08-27T08:22:59Z</time>
      </trkpt>
      <trkpt lat="45.781" lon="6.69419">
        <ele>1826.6</ele>
        <time>2013-08-27T08:23:00Z</time>
      </trkpt>
      <trkpt lat="45.781" lon="6.69422">
        <ele>1827.1</ele>
        <time>2013-08-27T08:23:01Z</time>
      </trkpt>
      <trkpt lat="45.781" lon="6.69424">
        <ele>1826.6</ele>
        <time>2013-08-27T08:23:12Z</time>
      </trkpt>
      <trkpt lat="45.781" lon="6.69423">
        <ele>1827.6</ele>
        <time>2013-08-27T08:23:21Z</time>
      </trkpt>
      <trkpt lat="45.78101" lon="6.69424">
        <ele>1828.1</ele>
        <time>2013-08-27T08:23:37Z</time>
      </trkpt>
      <trkpt lat="45.78102" lon="6.69426">
        <ele>1827.6</ele>
        <time>2013-08-27T08:23:38Z</time>
      </trkpt>
      <trkpt lat="45.78103" lon="6.69429">
        <ele>1827.6</ele>
        <time>2013-08-27T08:23:39Z</time>
      </trkpt>
      <trkpt lat="45.78105" lon="6.69432">
        <ele>1827.6</ele>
        <time>2013-08-27T08:23:40Z</time>
      </trkpt>
      <trkpt lat="45.78106" lon="6.69435">
        <ele>1827.1</ele>
        <time>2013-08-27T08:23:41Z</time>
      </trkpt>
      <trkpt lat="45.78107" lon="6.69437">
        <ele>1826.6</ele>
        <time>2013-08-27T08:23:42Z</time>
      </trkpt>
      <trkpt lat="45.78116" lon="6.69459">
        <ele>1824.2</ele>
        <time>2013-08-27T08:23:49Z</time>
      </trkpt>
      <trkpt lat="45.78127" lon="6.69492">
        <ele>1820.9</ele>
        <time>2013-08-27T08:23:55Z</time>
      </trkpt>
      <trkpt lat="45.78128" lon="6.69497">
        <ele>1819.9</ele>
        <time>2013-08-27T08:23:56Z</time>
      </trkpt>
      <trkpt lat="45.78129" lon="6.69503">
        <ele>1819</ele>
        <time>2013-08-27T08:23:57Z</time>
      </trkpt>
      <trkpt lat="45.7813" lon="6.69515">
        <ele>1818</ele>
        <time>2013-08-27T08:23:59Z</time>
      </trkpt>
      <trkpt lat="45.78131" lon="6.69522">
        <ele>1816.6</ele>
        <time>2013-08-27T08:24:00Z</time>
      </trkpt>
      <trkpt lat="45.78132" lon="6.69529">
        <ele>1815.6</ele>
        <time>2013-08-27T08:24:01Z</time>
      </trkpt>
      <trkpt lat="45.78134" lon="6.69536">
        <ele>1813.7</ele>
        <time>2013-08-27T08:24:02Z</time>
      </trkpt>
      <trkpt lat="45.78135" lon="6.69543">
        <ele>1813.2</ele>
        <time>2013-08-27T08:24:03Z</time>
      </trkpt>
      <trkpt lat="45.78134" lon="6.69549">
        <ele>1812.7</ele>
        <time>2013-08-27T08:24:04Z</time>
      </trkpt>
      <trkpt lat="45.78133" lon="6.69554">
        <ele>1811.7</ele>
        <time>2013-08-27T08:24:05Z</time>
      </trkpt>
      <trkpt lat="45.78131" lon="6.69558">
        <ele>1811.3</ele>
        <time>2013-08-27T08:24:06Z</time>
      </trkpt>
      <trkpt lat="45.78129" lon="6.69562">
        <ele>1810.8</ele>
        <time>2013-08-27T08:24:07Z</time>
      </trkpt>
      <trkpt lat="45.78126" lon="6.69566">
        <ele>1809.8</ele>
        <time>2013-08-27T08:24:08Z</time>
      </trkpt>
      <trkpt lat="45.78124" lon="6.6957">
        <ele>1809.8</ele>
        <time>2013-08-27T08:24:09Z</time>
      </trkpt>
      <trkpt lat="45.78121" lon="6.69584">
        <ele>1806.9</ele>
        <time>2013-08-27T08:24:12Z</time>
      </trkpt>
      <trkpt lat="45.78124" lon="6.69598">
        <ele>1803.6</ele>
        <time>2013-08-27T08:24:15Z</time>
      </trkpt>
      <trkpt lat="45.78124" lon="6.6961">
        <ele>1802.6</ele>
        <time>2013-08-27T08:24:18Z</time>
      </trkpt>
      <trkpt lat="45.78122" lon="6.69612">
        <ele>1803.6</ele>
        <time>2013-08-27T08:24:23Z</time>
      </trkpt>
      <trkpt lat="45.78122" lon="6.69613">
        <ele>1804.1</ele>
        <time>2013-08-27T08:24:24Z</time>
      </trkpt>
      <trkpt lat="45.78112" lon="6.69636">
        <ele>1807.4</ele>
        <time>2013-08-27T08:24:45Z</time>
      </trkpt>
      <trkpt lat="45.7811" lon="6.69639">
        <ele>1806</ele>
        <time>2013-08-27T08:24:57Z</time>
      </trkpt>
      <trkpt lat="45.7811" lon="6.6964">
        <ele>1804.5</ele>
        <time>2013-08-27T08:25:01Z</time>
      </trkpt>
      <trkpt lat="45.7811" lon="6.6964">
        <ele>1809.3</ele>
        <time>2013-08-27T08:25:02Z</time>
      </trkpt>
      <trkpt lat="45.7811" lon="6.6964">
        <ele>1804.1</ele>
        <time>2013-08-27T08:25:03Z</time>
      </trkpt>
      <trkpt lat="45.7811" lon="6.69639">
        <ele>1805.5</ele>
        <time>2013-08-27T08:25:05Z</time>
      </trkpt>
      <trkpt lat="45.78112" lon="6.69643">
        <ele>1807.4</ele>
        <time>2013-08-27T08:39:18Z</time>
      </trkpt>
      <trkpt lat="45.78095" lon="6.69646">
        <ele>1807.9</ele>
        <time>2013-08-27T08:39:32Z</time>
      </trkpt>
      <trkpt lat="45.7809" lon="6.6965">
        <ele>1808.4</ele>
        <time>2013-08-27T08:39:45Z</time>
      </trkpt>
      <trkpt lat="45.78078" lon="6.69654">
        <ele>1810.3</ele>
        <time>2013-08-27T08:40:02Z</time>
      </trkpt>
      <trkpt lat="45.78065" lon="6.69658">
        <ele>1813.2</ele>
        <time>2013-08-27T08:40:22Z</time>
      </trkpt>
      <trkpt lat="45.7805" lon="6.69663">
        <ele>1814.6</ele>
        <time>2013-08-27T08:40:40Z</time>
      </trkpt>
      <trkpt lat="45.78049" lon="6.69664">
        <ele>1814.2</ele>
        <time>2013-08-27T08:40:41Z</time>
      </trkpt>
      <trkpt lat="45.78045" lon="6.69669">
        <ele>1815.1</ele>
        <time>2013-08-27T08:40:54Z</time>
      </trkpt>
      <trkpt lat="45.78038" lon="6.69674">
        <ele>1816.1</ele>
        <time>2013-08-27T08:41:08Z</time>
      </trkpt>
      <trkpt lat="45.78031" lon="6.69683">
        <ele>1818</ele>
        <time>2013-08-27T08:41:20Z</time>
      </trkpt>
      <trkpt lat="45.78025" lon="6.69693">
        <ele>1819</ele>
        <time>2013-08-27T08:41:34Z</time>
      </trkpt>
      <trkpt lat="45.78021" lon="6.69703">
        <ele>1819.4</ele>
        <time>2013-08-27T08:41:44Z</time>
      </trkpt>
      <trkpt lat="45.78014" lon="6.6971">
        <ele>1821.8</ele>
        <time>2013-08-27T08:41:58Z</time>
      </trkpt>
      <trkpt lat="45.78012" lon="6.69709">
        <ele>1821.8</ele>
        <time>2013-08-27T08:42:01Z</time>
      </trkpt>
      <trkpt lat="45.7801" lon="6.6972">
        <ele>1822.8</ele>
        <time>2013-08-27T08:42:14Z</time>
      </trkpt>
      <trkpt lat="45.78008" lon="6.69726">
        <ele>1823.8</ele>
        <time>2013-08-27T08:42:25Z</time>
      </trkpt>
      <trkpt lat="45.78008" lon="6.69728">
        <ele>1824.2</ele>
        <time>2013-08-27T08:42:39Z</time>
      </trkpt>
      <trkpt lat="45.78008" lon="6.69742">
        <ele>1822.8</ele>
        <time>2013-08-27T08:42:54Z</time>
      </trkpt>
      <trkpt lat="45.78006" lon="6.69744">
        <ele>1823.8</ele>
        <time>2013-08-27T08:43:07Z</time>
      </trkpt>
      <trkpt lat="45.78006" lon="6.69743">
        <ele>1823.3</ele>
        <time>2013-08-27T08:43:24Z</time>
      </trkpt>
      <trkpt lat="45.78009" lon="6.69749">
        <ele>1823.8</ele>
        <time>2013-08-27T08:43:37Z</time>
      </trkpt>
      <trkpt lat="45.78009" lon="6.6975">
        <ele>1822.8</ele>
        <time>2013-08-27T08:43:38Z</time>
      </trkpt>
      <trkpt lat="45.78008" lon="6.69766">
        <ele>1823.3</ele>
        <time>2013-08-27T08:43:52Z</time>
      </trkpt>
      <trkpt lat="45.78009" lon="6.69769">
        <ele>1822.8</ele>
        <time>2013-08-27T08:44:01Z</time>
      </trkpt>
      <trkpt lat="45.78009" lon="6.69773">
        <ele>1822.8</ele>
        <time>2013-08-27T08:44:08Z</time>
      </trkpt>
      <trkpt lat="45.7801" lon="6.69781">
        <ele>1821.8</ele>
        <time>2013-08-27T08:44:24Z</time>
      </trkpt>
      <trkpt lat="45.78009" lon="6.69782">
        <ele>1821.4</ele>
        <time>2013-08-27T08:44:34Z</time>
      </trkpt>
      <trkpt lat="45.78008" lon="6.69792">
        <ele>1820.4</ele>
        <time>2013-08-27T08:44:38Z</time>
      </trkpt>
      <trkpt lat="45.78007" lon="6.69794">
        <ele>1820.4</ele>
        <time>2013-08-27T08:44:39Z</time>
      </trkpt>
      <trkpt lat="45.78007" lon="6.69796">
        <ele>1820.9</ele>
        <time>2013-08-27T08:44:40Z</time>
      </trkpt>
      <trkpt lat="45.78007" lon="6.69798">
        <ele>1819.9</ele>
        <time>2013-08-27T08:44:41Z</time>
      </trkpt>
      <trkpt lat="45.78007" lon="6.69802">
        <ele>1819.9</ele>
        <time>2013-08-27T08:44:42Z</time>
      </trkpt>
      <trkpt lat="45.78007" lon="6.69806">
        <ele>1819.4</ele>
        <time>2013-08-27T08:44:43Z</time>
      </trkpt>
      <trkpt lat="45.78006" lon="6.69809">
        <ele>1819</ele>
        <time>2013-08-27T08:44:44Z</time>
      </trkpt>
      <trkpt lat="45.78003" lon="6.69828">
        <ele>1820.9</ele>
        <time>2013-08-27T08:44:52Z</time>
      </trkpt>
      <trkpt lat="45.77999" lon="6.69845">
        <ele>1824.2</ele>
        <time>2013-08-27T08:45:02Z</time>
      </trkpt>
      <trkpt lat="45.77997" lon="6.69845">
        <ele>1824.2</ele>
        <time>2013-08-27T08:45:17Z</time>
      </trkpt>
      <trkpt lat="45.77993" lon="6.69856">
        <ele>1824.7</ele>
        <time>2013-08-27T08:45:30Z</time>
      </trkpt>
      <trkpt lat="45.77993" lon="6.69862">
        <ele>1824.7</ele>
        <time>2013-08-27T08:45:34Z</time>
      </trkpt>
      <trkpt lat="45.77987" lon="6.69872">
        <ele>1823.8</ele>
        <time>2013-08-27T08:45:46Z</time>
      </trkpt>
      <trkpt lat="45.77985" lon="6.69879">
        <ele>1824.7</ele>
        <time>2013-08-27T08:45:54Z</time>
      </trkpt>
      <trkpt lat="45.7798" lon="6.69893">
        <ele>1827.1</ele>
        <time>2013-08-27T08:46:09Z</time>
      </trkpt>
      <trkpt lat="45.77976" lon="6.69908">
        <ele>1826.6</ele>
        <time>2013-08-27T08:46:23Z</time>
      </trkpt>
      <trkpt lat="45.77973" lon="6.69923">
        <ele>1824.2</ele>
        <time>2013-08-27T08:46:36Z</time>
      </trkpt>
      <trkpt lat="45.77973" lon="6.69933">
        <ele>1823.3</ele>
        <time>2013-08-27T08:46:44Z</time>
      </trkpt>
      <trkpt lat="45.77973" lon="6.69936">
        <ele>1822.8</ele>
        <time>2013-08-27T08:46:46Z</time>
      </trkpt>
      <trkpt lat="45.77972" lon="6.69941">
        <ele>1821.8</ele>
        <time>2013-08-27T08:46:50Z</time>
      </trkpt>
      <trkpt lat="45.77978" lon="6.69959">
        <ele>1820.9</ele>
        <time>2013-08-27T08:47:04Z</time>
      </trkpt>
      <trkpt lat="45.77985" lon="6.6997">
        <ele>1819.4</ele>
        <time>2013-08-27T08:47:17Z</time>
      </trkpt>
      <trkpt lat="45.77993" lon="6.69981">
        <ele>1817.5</ele>
        <time>2013-08-27T08:47:32Z</time>
      </trkpt>
      <trkpt lat="45.77996" lon="6.69993">
        <ele>1816.1</ele>
        <time>2013-08-27T08:47:45Z</time>
      </trkpt>
      <trkpt lat="45.77997" lon="6.70009">
        <ele>1815.6</ele>
        <time>2013-08-27T08:47:59Z</time>
      </trkpt>
      <trkpt lat="45.77996" lon="6.70014">
        <ele>1814.6</ele>
        <time>2013-08-27T08:48:04Z</time>
      </trkpt>
      <trkpt lat="45.77993" lon="6.70024">
        <ele>1813.7</ele>
        <time>2013-08-27T08:48:13Z</time>
      </trkpt>
      <trkpt lat="45.77991" lon="6.70028">
        <ele>1812.7</ele>
        <time>2013-08-27T08:48:17Z</time>
      </trkpt>
      <trkpt lat="45.77989" lon="6.70029">
        <ele>1812.2</ele>
        <time>2013-08-27T08:48:18Z</time>
      </trkpt>
      <trkpt lat="45.77988" lon="6.70029">
        <ele>1812.2</ele>
        <time>2013-08-27T08:48:19Z</time>
      </trkpt>
      <trkpt lat="45.77985" lon="6.7003">
        <ele>1812.2</ele>
        <time>2013-08-27T08:48:23Z</time>
      </trkpt>
      <trkpt lat="45.77981" lon="6.7004">
        <ele>1813.7</ele>
        <time>2013-08-27T08:48:34Z</time>
      </trkpt>
      <trkpt lat="45.77982" lon="6.70045">
        <ele>1813.2</ele>
        <time>2013-08-27T08:48:38Z</time>
      </trkpt>
      <trkpt lat="45.77979" lon="6.70062">
        <ele>1814.2</ele>
        <time>2013-08-27T08:48:53Z</time>
      </trkpt>
      <trkpt lat="45.77973" lon="6.70073">
        <ele>1814.6</ele>
        <time>2013-08-27T08:49:04Z</time>
      </trkpt>
      <trkpt lat="45.77971" lon="6.70075">
        <ele>1814.6</ele>
        <time>2013-08-27T08:49:06Z</time>
      </trkpt>
      <trkpt lat="45.77961" lon="6.70079">
        <ele>1816.1</ele>
        <time>2013-08-27T08:49:19Z</time>
      </trkpt>
      <trkpt lat="45.7796" lon="6.70081">
        <ele>1815.1</ele>
        <time>2013-08-27T08:49:20Z</time>
      </trkpt>
      <trkpt lat="45.77959" lon="6.70081">
        <ele>1816.1</ele>
        <time>2013-08-27T08:49:21Z</time>
      </trkpt>
      <trkpt lat="45.77957" lon="6.70083">
        <ele>1816.1</ele>
        <time>2013-08-27T08:49:23Z</time>
      </trkpt>
      <trkpt lat="45.77956" lon="6.70085">
        <ele>1815.6</ele>
        <time>2013-08-27T08:49:24Z</time>
      </trkpt>
      <trkpt lat="45.7795" lon="6.70099">
        <ele>1818</ele>
        <time>2013-08-27T08:49:39Z</time>
      </trkpt>
      <trkpt lat="45.77948" lon="6.70106">
        <ele>1819.4</ele>
        <time>2013-08-27T08:49:50Z</time>
      </trkpt>
      <trkpt lat="45.77944" lon="6.70114">
        <ele>1821.8</ele>
        <time>2013-08-27T08:50:03Z</time>
      </trkpt>
      <trkpt lat="45.77943" lon="6.70127">
        <ele>1823.8</ele>
        <time>2013-08-27T08:50:18Z</time>
      </trkpt>
      <trkpt lat="45.7794" lon="6.70139">
        <ele>1825.7</ele>
        <time>2013-08-27T08:50:33Z</time>
      </trkpt>
      <trkpt lat="45.77938" lon="6.70149">
        <ele>1828.6</ele>
        <time>2013-08-27T08:50:44Z</time>
      </trkpt>
      <trkpt lat="45.77937" lon="6.7015">
        <ele>1828.6</ele>
        <time>2013-08-27T08:50:45Z</time>
      </trkpt>
      <trkpt lat="45.77932" lon="6.70173">
        <ele>1829.5</ele>
        <time>2013-08-27T08:51:03Z</time>
      </trkpt>
      <trkpt lat="45.7793" lon="6.70176">
        <ele>1830</ele>
        <time>2013-08-27T08:51:06Z</time>
      </trkpt>
      <trkpt lat="45.77917" lon="6.70182">
        <ele>1828.1</ele>
        <time>2013-08-27T08:51:20Z</time>
      </trkpt>
      <trkpt lat="45.77909" lon="6.70187">
        <ele>1824.7</ele>
        <time>2013-08-27T08:51:33Z</time>
      </trkpt>
      <trkpt lat="45.77908" lon="6.70188">
        <ele>1825.2</ele>
        <time>2013-08-27T08:51:34Z</time>
      </trkpt>
      <trkpt lat="45.77907" lon="6.70188">
        <ele>1825.2</ele>
        <time>2013-08-27T08:51:35Z</time>
      </trkpt>
      <trkpt lat="45.77899" lon="6.70188">
        <ele>1824.2</ele>
        <time>2013-08-27T08:51:42Z</time>
      </trkpt>
      <trkpt lat="45.77896" lon="6.7019">
        <ele>1824.7</ele>
        <time>2013-08-27T08:51:45Z</time>
      </trkpt>
      <trkpt lat="45.77895" lon="6.70195">
        <ele>1824.2</ele>
        <time>2013-08-27T08:51:59Z</time>
      </trkpt>
      <trkpt lat="45.77893" lon="6.70199">
        <ele>1823.3</ele>
        <time>2013-08-27T08:52:07Z</time>
      </trkpt>
      <trkpt lat="45.77892" lon="6.70202">
        <ele>1822.8</ele>
        <time>2013-08-27T08:52:08Z</time>
      </trkpt>
      <trkpt lat="45.77889" lon="6.70205">
        <ele>1822.3</ele>
        <time>2013-08-27T08:52:09Z</time>
      </trkpt>
      <trkpt lat="45.77887" lon="6.70207">
        <ele>1822.3</ele>
        <time>2013-08-27T08:52:10Z</time>
      </trkpt>
      <trkpt lat="45.77887" lon="6.7021">
        <ele>1822.3</ele>
        <time>2013-08-27T08:52:12Z</time>
      </trkpt>
      <trkpt lat="45.77885" lon="6.70215">
        <ele>1820.9</ele>
        <time>2013-08-27T08:52:20Z</time>
      </trkpt>
      <trkpt lat="45.77882" lon="6.70219">
        <ele>1819.4</ele>
        <time>2013-08-27T08:52:30Z</time>
      </trkpt>
      <trkpt lat="45.77877" lon="6.70221">
        <ele>1817</ele>
        <time>2013-08-27T08:52:39Z</time>
      </trkpt>
      <trkpt lat="45.77875" lon="6.70222">
        <ele>1817</ele>
        <time>2013-08-27T08:52:40Z</time>
      </trkpt>
      <trkpt lat="45.77872" lon="6.70224">
        <ele>1816.6</ele>
        <time>2013-08-27T08:52:41Z</time>
      </trkpt>
      <trkpt lat="45.77869" lon="6.70226">
        <ele>1815.6</ele>
        <time>2013-08-27T08:52:42Z</time>
      </trkpt>
      <trkpt lat="45.77866" lon="6.70226">
        <ele>1816.1</ele>
        <time>2013-08-27T08:52:43Z</time>
      </trkpt>
      <trkpt lat="45.77865" lon="6.70226">
        <ele>1815.1</ele>
        <time>2013-08-27T08:52:51Z</time>
      </trkpt>
      <trkpt lat="45.77863" lon="6.70227">
        <ele>1815.6</ele>
        <time>2013-08-27T08:53:06Z</time>
      </trkpt>
      <trkpt lat="45.77859" lon="6.7024">
        <ele>1813.7</ele>
        <time>2013-08-27T08:53:19Z</time>
      </trkpt>
      <trkpt lat="45.77857" lon="6.70244">
        <ele>1813.7</ele>
        <time>2013-08-27T08:53:23Z</time>
      </trkpt>
      <trkpt lat="45.77848" lon="6.70247">
        <ele>1815.1</ele>
        <time>2013-08-27T08:53:36Z</time>
      </trkpt>
      <trkpt lat="45.77837" lon="6.70254">
        <ele>1817.5</ele>
        <time>2013-08-27T08:53:52Z</time>
      </trkpt>
      <trkpt lat="45.77831" lon="6.70258">
        <ele>1818</ele>
        <time>2013-08-27T08:54:01Z</time>
      </trkpt>
      <trkpt lat="45.77831" lon="6.70259">
        <ele>1818.5</ele>
        <time>2013-08-27T08:54:02Z</time>
      </trkpt>
      <trkpt lat="45.77825" lon="6.70264">
        <ele>1819</ele>
        <time>2013-08-27T08:54:11Z</time>
      </trkpt>
      <trkpt lat="45.77815" lon="6.70267">
        <ele>1819.9</ele>
        <time>2013-08-27T08:54:23Z</time>
      </trkpt>
      <trkpt lat="45.77805" lon="6.70269">
        <ele>1821.8</ele>
        <time>2013-08-27T08:54:37Z</time>
      </trkpt>
      <trkpt lat="45.77795" lon="6.70271">
        <ele>1822.3</ele>
        <time>2013-08-27T08:54:51Z</time>
      </trkpt>
      <trkpt lat="45.77789" lon="6.70281">
        <ele>1819.9</ele>
        <time>2013-08-27T08:55:02Z</time>
      </trkpt>
      <trkpt lat="45.77789" lon="6.70282">
        <ele>1819.4</ele>
        <time>2013-08-27T08:55:03Z</time>
      </trkpt>
      <trkpt lat="45.77788" lon="6.70284">
        <ele>1819.4</ele>
        <time>2013-08-27T08:55:04Z</time>
      </trkpt>
      <trkpt lat="45.77787" lon="6.70285">
        <ele>1819.4</ele>
        <time>2013-08-27T08:55:05Z</time>
      </trkpt>
      <trkpt lat="45.77785" lon="6.70285">
        <ele>1819</ele>
        <time>2013-08-27T08:55:06Z</time>
      </trkpt>
      <trkpt lat="45.77784" lon="6.70286">
        <ele>1819</ele>
        <time>2013-08-27T08:55:07Z</time>
      </trkpt>
      <trkpt lat="45.77773" lon="6.70292">
        <ele>1817.5</ele>
        <time>2013-08-27T08:55:20Z</time>
      </trkpt>
      <trkpt lat="45.77772" lon="6.70293">
        <ele>1816.6</ele>
        <time>2013-08-27T08:55:21Z</time>
      </trkpt>
      <trkpt lat="45.77771" lon="6.70293">
        <ele>1816.6</ele>
        <time>2013-08-27T08:55:22Z</time>
      </trkpt>
      <trkpt lat="45.77764" lon="6.70295">
        <ele>1816.6</ele>
        <time>2013-08-27T08:55:35Z</time>
      </trkpt>
      <trkpt lat="45.77756" lon="6.70302">
        <ele>1815.6</ele>
        <time>2013-08-27T08:55:46Z</time>
      </trkpt>
      <trkpt lat="45.77755" lon="6.70307">
        <ele>1815.6</ele>
        <time>2013-08-27T08:55:50Z</time>
      </trkpt>
      <trkpt lat="45.7775" lon="6.70317">
        <ele>1815.6</ele>
        <time>2013-08-27T08:56:02Z</time>
      </trkpt>
      <trkpt lat="45.77749" lon="6.7032">
        <ele>1815.6</ele>
        <time>2013-08-27T08:56:04Z</time>
      </trkpt>
      <trkpt lat="45.77749" lon="6.70321">
        <ele>1814.6</ele>
        <time>2013-08-27T08:56:05Z</time>
      </trkpt>
      <trkpt lat="45.77742" lon="6.7033">
        <ele>1813.2</ele>
        <time>2013-08-27T08:56:17Z</time>
      </trkpt>
      <trkpt lat="45.77741" lon="6.70334">
        <ele>1812.7</ele>
        <time>2013-08-27T08:56:21Z</time>
      </trkpt>
      <trkpt lat="45.77741" lon="6.70335">
        <ele>1812.2</ele>
        <time>2013-08-27T08:56:22Z</time>
      </trkpt>
      <trkpt lat="45.77739" lon="6.70337">
        <ele>1811.7</ele>
        <time>2013-08-27T08:56:24Z</time>
      </trkpt>
      <trkpt lat="45.77738" lon="6.70337">
        <ele>1812.2</ele>
        <time>2013-08-27T08:56:25Z</time>
      </trkpt>
      <trkpt lat="45.77736" lon="6.70337">
        <ele>1812.2</ele>
        <time>2013-08-27T08:56:26Z</time>
      </trkpt>
      <trkpt lat="45.77735" lon="6.70337">
        <ele>1811.7</ele>
        <time>2013-08-27T08:56:27Z</time>
      </trkpt>
      <trkpt lat="45.77733" lon="6.70336">
        <ele>1811.7</ele>
        <time>2013-08-27T08:56:29Z</time>
      </trkpt>
      <trkpt lat="45.77729" lon="6.7034">
        <ele>1810.8</ele>
        <time>2013-08-27T08:56:35Z</time>
      </trkpt>
      <trkpt lat="45.77723" lon="6.70341">
        <ele>1812.2</ele>
        <time>2013-08-27T08:56:47Z</time>
      </trkpt>
      <trkpt lat="45.77718" lon="6.70336">
        <ele>1814.6</ele>
        <time>2013-08-27T08:57:03Z</time>
      </trkpt>
      <trkpt lat="45.77709" lon="6.70338">
        <ele>1816.6</ele>
        <time>2013-08-27T08:57:16Z</time>
      </trkpt>
      <trkpt lat="45.77703" lon="6.70344">
        <ele>1815.6</ele>
        <time>2013-08-27T08:57:27Z</time>
      </trkpt>
      <trkpt lat="45.77696" lon="6.70348">
        <ele>1814.2</ele>
        <time>2013-08-27T08:57:41Z</time>
      </trkpt>
      <trkpt lat="45.77689" lon="6.70348">
        <ele>1814.2</ele>
        <time>2013-08-27T08:57:54Z</time>
      </trkpt>
      <trkpt lat="45.77687" lon="6.70347">
        <ele>1814.2</ele>
        <time>2013-08-27T08:57:58Z</time>
      </trkpt>
      <trkpt lat="45.77683" lon="6.7035">
        <ele>1812.7</ele>
        <time>2013-08-27T08:58:03Z</time>
      </trkpt>
      <trkpt lat="45.77675" lon="6.70358">
        <ele>1812.2</ele>
        <time>2013-08-27T08:58:16Z</time>
      </trkpt>
      <trkpt lat="45.77672" lon="6.7037">
        <ele>1809.8</ele>
        <time>2013-08-27T08:58:31Z</time>
      </trkpt>
      <trkpt lat="45.77667" lon="6.70378">
        <ele>1807.9</ele>
        <time>2013-08-27T08:58:43Z</time>
      </trkpt>
      <trkpt lat="45.77668" lon="6.70385">
        <ele>1806</ele>
        <time>2013-08-27T08:58:53Z</time>
      </trkpt>
      <trkpt lat="45.77669" lon="6.70394">
        <ele>1804.1</ele>
        <time>2013-08-27T08:59:05Z</time>
      </trkpt>
      <trkpt lat="45.77667" lon="6.70398">
        <ele>1802.6</ele>
        <time>2013-08-27T08:59:20Z</time>
      </trkpt>
      <trkpt lat="45.77665" lon="6.70406">
        <ele>1800.7</ele>
        <time>2013-08-27T08:59:32Z</time>
      </trkpt>
      <trkpt lat="45.77659" lon="6.70412">
        <ele>1798.8</ele>
        <time>2013-08-27T08:59:46Z</time>
      </trkpt>
      <trkpt lat="45.77655" lon="6.70409">
        <ele>1800.7</ele>
        <time>2013-08-27T08:59:57Z</time>
      </trkpt>
      <trkpt lat="45.77649" lon="6.70409">
        <ele>1800.2</ele>
        <time>2013-08-27T09:00:10Z</time>
      </trkpt>
      <trkpt lat="45.77648" lon="6.7041">
        <ele>1799.7</ele>
        <time>2013-08-27T09:00:23Z</time>
      </trkpt>
      <trkpt lat="45.77642" lon="6.70417">
        <ele>1797.8</ele>
        <time>2013-08-27T09:00:36Z</time>
      </trkpt>
      <trkpt lat="45.77637" lon="6.70422">
        <ele>1796.8</ele>
        <time>2013-08-27T09:00:47Z</time>
      </trkpt>
      <trkpt lat="45.77632" lon="6.70422">
        <ele>1796.8</ele>
        <time>2013-08-27T09:01:00Z</time>
      </trkpt>
      <trkpt lat="45.77622" lon="6.70421">
        <ele>1794.9</ele>
        <time>2013-08-27T09:01:11Z</time>
      </trkpt>
      <trkpt lat="45.77617" lon="6.70421">
        <ele>1795.4</ele>
        <time>2013-08-27T09:01:26Z</time>
      </trkpt>
      <trkpt lat="45.77614" lon="6.70423">
        <ele>1795.4</ele>
        <time>2013-08-27T09:01:33Z</time>
      </trkpt>
      <trkpt lat="45.77608" lon="6.70428">
        <ele>1794</ele>
        <time>2013-08-27T09:01:47Z</time>
      </trkpt>
      <trkpt lat="45.77602" lon="6.70438">
        <ele>1791.6</ele>
        <time>2013-08-27T09:02:01Z</time>
      </trkpt>
      <trkpt lat="45.77592" lon="6.70438">
        <ele>1792.5</ele>
        <time>2013-08-27T09:02:15Z</time>
      </trkpt>
      <trkpt lat="45.77582" lon="6.70447">
        <ele>1792.5</ele>
        <time>2013-08-27T09:02:28Z</time>
      </trkpt>
      <trkpt lat="45.7758" lon="6.70449">
        <ele>1793.5</ele>
        <time>2013-08-27T09:02:32Z</time>
      </trkpt>
      <trkpt lat="45.77576" lon="6.70455">
        <ele>1793</ele>
        <time>2013-08-27T09:02:45Z</time>
      </trkpt>
      <trkpt lat="45.77571" lon="6.70463">
        <ele>1791.6</ele>
        <time>2013-08-27T09:02:56Z</time>
      </trkpt>
      <trkpt lat="45.77568" lon="6.70469">
        <ele>1791.1</ele>
        <time>2013-08-27T09:03:01Z</time>
      </trkpt>
      <trkpt lat="45.7756" lon="6.70481">
        <ele>1789.2</ele>
        <time>2013-08-27T09:03:15Z</time>
      </trkpt>
      <trkpt lat="45.77559" lon="6.70482">
        <ele>1787.7</ele>
        <time>2013-08-27T09:03:17Z</time>
      </trkpt>
      <trkpt lat="45.77554" lon="6.7049">
        <ele>1786.3</ele>
        <time>2013-08-27T09:03:26Z</time>
      </trkpt>
      <trkpt lat="45.77544" lon="6.70506">
        <ele>1783.9</ele>
        <time>2013-08-27T09:03:40Z</time>
      </trkpt>
      <trkpt lat="45.77537" lon="6.70514">
        <ele>1781.9</ele>
        <time>2013-08-27T09:03:51Z</time>
      </trkpt>
      <trkpt lat="45.77534" lon="6.70517">
        <ele>1781.5</ele>
        <time>2013-08-27T09:03:56Z</time>
      </trkpt>
      <trkpt lat="45.77532" lon="6.70521">
        <ele>1780</ele>
        <time>2013-08-27T09:04:09Z</time>
      </trkpt>
      <trkpt lat="45.77529" lon="6.70523">
        <ele>1779.5</ele>
        <time>2013-08-27T09:04:21Z</time>
      </trkpt>
      <trkpt lat="45.77528" lon="6.70524">
        <ele>1780</ele>
        <time>2013-08-27T09:04:22Z</time>
      </trkpt>
      <trkpt lat="45.77512" lon="6.70535">
        <ele>1778.6</ele>
        <time>2013-08-27T09:04:31Z</time>
      </trkpt>
      <trkpt lat="45.77511" lon="6.70536">
        <ele>1778.6</ele>
        <time>2013-08-27T09:04:32Z</time>
      </trkpt>
      <trkpt lat="45.77509" lon="6.70537">
        <ele>1779.5</ele>
        <time>2013-08-27T09:04:33Z</time>
      </trkpt>
      <trkpt lat="45.77508" lon="6.70538">
        <ele>1779.1</ele>
        <time>2013-08-27T09:04:34Z</time>
      </trkpt>
      <trkpt lat="45.77506" lon="6.70538">
        <ele>1779.1</ele>
        <time>2013-08-27T09:04:47Z</time>
      </trkpt>
      <trkpt lat="45.77504" lon="6.70543">
        <ele>1779.1</ele>
        <time>2013-08-27T09:04:59Z</time>
      </trkpt>
      <trkpt lat="45.77496" lon="6.70547">
        <ele>1781.5</ele>
        <time>2013-08-27T09:05:22Z</time>
      </trkpt>
      <trkpt lat="45.77486" lon="6.70553">
        <ele>1782.9</ele>
        <time>2013-08-27T09:05:38Z</time>
      </trkpt>
      <trkpt lat="45.77479" lon="6.70558">
        <ele>1784.3</ele>
        <time>2013-08-27T09:05:54Z</time>
      </trkpt>
      <trkpt lat="45.77474" lon="6.70561">
        <ele>1786.8</ele>
        <time>2013-08-27T09:06:10Z</time>
      </trkpt>
      <trkpt lat="45.77464" lon="6.70567">
        <ele>1789.2</ele>
        <time>2013-08-27T09:06:28Z</time>
      </trkpt>
      <trkpt lat="45.77457" lon="6.70567">
        <ele>1790.1</ele>
        <time>2013-08-27T09:06:44Z</time>
      </trkpt>
      <trkpt lat="45.77445" lon="6.70565">
        <ele>1793</ele>
        <time>2013-08-27T09:06:58Z</time>
      </trkpt>
      <trkpt lat="45.77445" lon="6.70558">
        <ele>1794.4</ele>
        <time>2013-08-27T09:07:13Z</time>
      </trkpt>
      <trkpt lat="45.77452" lon="6.70548">
        <ele>1797.8</ele>
        <time>2013-08-27T09:07:32Z</time>
      </trkpt>
      <trkpt lat="45.77455" lon="6.7054">
        <ele>1798.3</ele>
        <time>2013-08-27T09:07:44Z</time>
      </trkpt>
      <trkpt lat="45.77455" lon="6.70535">
        <ele>1800.2</ele>
        <time>2013-08-27T09:07:59Z</time>
      </trkpt>
      <trkpt lat="45.77447" lon="6.70535">
        <ele>1803.6</ele>
        <time>2013-08-27T09:08:14Z</time>
      </trkpt>
      <trkpt lat="45.77442" lon="6.70536">
        <ele>1805.5</ele>
        <time>2013-08-27T09:08:32Z</time>
      </trkpt>
      <trkpt lat="45.77437" lon="6.70533">
        <ele>1807.4</ele>
        <time>2013-08-27T09:08:50Z</time>
      </trkpt>
      <trkpt lat="45.77442" lon="6.70522">
        <ele>1810.3</ele>
        <time>2013-08-27T09:09:07Z</time>
      </trkpt>
      <trkpt lat="45.77441" lon="6.70522">
        <ele>1811.7</ele>
        <time>2013-08-27T09:09:33Z</time>
      </trkpt>
      <trkpt lat="45.77428" lon="6.70528">
        <ele>1815.1</ele>
        <time>2013-08-27T09:09:53Z</time>
      </trkpt>
      <trkpt lat="45.7742" lon="6.70532">
        <ele>1818.5</ele>
        <time>2013-08-27T09:10:10Z</time>
      </trkpt>
      <trkpt lat="45.77412" lon="6.70537">
        <ele>1819</ele>
        <time>2013-08-27T09:10:26Z</time>
      </trkpt>
      <trkpt lat="45.77411" lon="6.70538">
        <ele>1819</ele>
        <time>2013-08-27T09:10:42Z</time>
      </trkpt>
      <trkpt lat="45.77405" lon="6.7054">
        <ele>1821.4</ele>
        <time>2013-08-27T09:11:00Z</time>
      </trkpt>
      <trkpt lat="45.77403" lon="6.70534">
        <ele>1823.8</ele>
        <time>2013-08-27T09:11:15Z</time>
      </trkpt>
      <trkpt lat="45.77396" lon="6.70543">
        <ele>1825.2</ele>
        <time>2013-08-27T09:11:30Z</time>
      </trkpt>
      <trkpt lat="45.77395" lon="6.70544">
        <ele>1824.7</ele>
        <time>2013-08-27T09:11:31Z</time>
      </trkpt>
      <trkpt lat="45.77394" lon="6.70544">
        <ele>1825.2</ele>
        <time>2013-08-27T09:11:32Z</time>
      </trkpt>
      <trkpt lat="45.77383" lon="6.7055">
        <ele>1827.1</ele>
        <time>2013-08-27T09:11:46Z</time>
      </trkpt>
      <trkpt lat="45.77373" lon="6.70558">
        <ele>1829.1</ele>
        <time>2013-08-27T09:12:00Z</time>
      </trkpt>
      <trkpt lat="45.7736" lon="6.70563">
        <ele>1830.5</ele>
        <time>2013-08-27T09:12:15Z</time>
      </trkpt>
      <trkpt lat="45.77353" lon="6.70566">
        <ele>1832.9</ele>
        <time>2013-08-27T09:12:28Z</time>
      </trkpt>
      <trkpt lat="45.77346" lon="6.70566">
        <ele>1834.8</ele>
        <time>2013-08-27T09:12:44Z</time>
      </trkpt>
      <trkpt lat="45.7734" lon="6.70564">
        <ele>1837.2</ele>
        <time>2013-08-27T09:12:58Z</time>
      </trkpt>
      <trkpt lat="45.77334" lon="6.70572">
        <ele>1839.1</ele>
        <time>2013-08-27T09:13:13Z</time>
      </trkpt>
      <trkpt lat="45.77333" lon="6.70577">
        <ele>1839.6</ele>
        <time>2013-08-27T09:13:17Z</time>
      </trkpt>
      <trkpt lat="45.77333" lon="6.7058">
        <ele>1839.6</ele>
        <time>2013-08-27T09:13:19Z</time>
      </trkpt>
      <trkpt lat="45.77333" lon="6.70582">
        <ele>1839.1</ele>
        <time>2013-08-27T09:13:20Z</time>
      </trkpt>
      <trkpt lat="45.77332" lon="6.70593">
        <ele>1839.1</ele>
        <time>2013-08-27T09:13:33Z</time>
      </trkpt>
      <trkpt lat="45.77334" lon="6.70603">
        <ele>1839.1</ele>
        <time>2013-08-27T09:13:47Z</time>
      </trkpt>
      <trkpt lat="45.77334" lon="6.70608">
        <ele>1840.6</ele>
        <time>2013-08-27T09:14:02Z</time>
      </trkpt>
      <trkpt lat="45.77337" lon="6.70635">
        <ele>1839.6</ele>
        <time>2013-08-27T09:14:13Z</time>
      </trkpt>
      <trkpt lat="45.77338" lon="6.70653">
        <ele>1840.6</ele>
        <time>2013-08-27T09:14:21Z</time>
      </trkpt>
      <trkpt lat="45.77339" lon="6.70655">
        <ele>1841.1</ele>
        <time>2013-08-27T09:14:22Z</time>
      </trkpt>
      <trkpt lat="45.77338" lon="6.70662">
        <ele>1841.5</ele>
        <time>2013-08-27T09:14:25Z</time>
      </trkpt>
      <trkpt lat="45.77339" lon="6.70669">
        <ele>1841.5</ele>
        <time>2013-08-27T09:14:35Z</time>
      </trkpt>
      <trkpt lat="45.7734" lon="6.70671">
        <ele>1842</ele>
        <time>2013-08-27T09:14:36Z</time>
      </trkpt>
      <trkpt lat="45.77341" lon="6.70676">
        <ele>1842.5</ele>
        <time>2013-08-27T09:14:39Z</time>
      </trkpt>
      <trkpt lat="45.77341" lon="6.70678">
        <ele>1842</ele>
        <time>2013-08-27T09:14:40Z</time>
      </trkpt>
      <trkpt lat="45.7734" lon="6.7068">
        <ele>1843</ele>
        <time>2013-08-27T09:14:41Z</time>
      </trkpt>
      <trkpt lat="45.77339" lon="6.70681">
        <ele>1843</ele>
        <time>2013-08-27T09:14:42Z</time>
      </trkpt>
      <trkpt lat="45.77338" lon="6.70682">
        <ele>1843</ele>
        <time>2013-08-27T09:14:43Z</time>
      </trkpt>
      <trkpt lat="45.77338" lon="6.70683">
        <ele>1843</ele>
        <time>2013-08-27T09:14:44Z</time>
      </trkpt>
      <trkpt lat="45.77337" lon="6.70685">
        <ele>1843.5</ele>
        <time>2013-08-27T09:14:45Z</time>
      </trkpt>
      <trkpt lat="45.77335" lon="6.70686">
        <ele>1843</ele>
        <time>2013-08-27T09:14:46Z</time>
      </trkpt>
      <trkpt lat="45.7733" lon="6.70694">
        <ele>1844.4</ele>
        <time>2013-08-27T09:14:57Z</time>
      </trkpt>
      <trkpt lat="45.77326" lon="6.70702">
        <ele>1847.3</ele>
        <time>2013-08-27T09:15:08Z</time>
      </trkpt>
      <trkpt lat="45.77327" lon="6.7071">
        <ele>1848.8</ele>
        <time>2013-08-27T09:15:17Z</time>
      </trkpt>
      <trkpt lat="45.7733" lon="6.70725">
        <ele>1850.2</ele>
        <time>2013-08-27T09:15:33Z</time>
      </trkpt>
      <trkpt lat="45.77326" lon="6.70733">
        <ele>1852.1</ele>
        <time>2013-08-27T09:15:47Z</time>
      </trkpt>
      <trkpt lat="45.7732" lon="6.70741">
        <ele>1854</ele>
        <time>2013-08-27T09:16:02Z</time>
      </trkpt>
      <trkpt lat="45.77316" lon="6.70748">
        <ele>1855.5</ele>
        <time>2013-08-27T09:16:19Z</time>
      </trkpt>
      <trkpt lat="45.77316" lon="6.70751">
        <ele>1855.5</ele>
        <time>2013-08-27T09:16:49Z</time>
      </trkpt>
      <trkpt lat="45.77317" lon="6.70755">
        <ele>1855</ele>
        <time>2013-08-27T09:16:52Z</time>
      </trkpt>
      <trkpt lat="45.77316" lon="6.70758">
        <ele>1854.5</ele>
        <time>2013-08-27T09:16:53Z</time>
      </trkpt>
      <trkpt lat="45.77312" lon="6.70777">
        <ele>1852.1</ele>
        <time>2013-08-27T09:16:59Z</time>
      </trkpt>
      <trkpt lat="45.77306" lon="6.70792">
        <ele>1848.3</ele>
        <time>2013-08-27T09:17:03Z</time>
      </trkpt>
      <trkpt lat="45.7729" lon="6.70799">
        <ele>1845.4</ele>
        <time>2013-08-27T09:17:10Z</time>
      </trkpt>
      <trkpt lat="45.77279" lon="6.708">
        <ele>1843.5</ele>
        <time>2013-08-27T09:17:13Z</time>
      </trkpt>
      <trkpt lat="45.7726" lon="6.70802">
        <ele>1840.1</ele>
        <time>2013-08-27T09:17:18Z</time>
      </trkpt>
      <trkpt lat="45.77252" lon="6.70802">
        <ele>1839.6</ele>
        <time>2013-08-27T09:17:20Z</time>
      </trkpt>
      <trkpt lat="45.77248" lon="6.70803">
        <ele>1839.1</ele>
        <time>2013-08-27T09:17:21Z</time>
      </trkpt>
      <trkpt lat="45.77244" lon="6.70805">
        <ele>1838.7</ele>
        <time>2013-08-27T09:17:22Z</time>
      </trkpt>
      <trkpt lat="45.7724" lon="6.70809">
        <ele>1838.2</ele>
        <time>2013-08-27T09:17:23Z</time>
      </trkpt>
      <trkpt lat="45.77237" lon="6.70812">
        <ele>1837.2</ele>
        <time>2013-08-27T09:17:24Z</time>
      </trkpt>
      <trkpt lat="45.77229" lon="6.70819">
        <ele>1835.8</ele>
        <time>2013-08-27T09:17:27Z</time>
      </trkpt>
      <trkpt lat="45.77222" lon="6.7082">
        <ele>1834.3</ele>
        <time>2013-08-27T09:17:30Z</time>
      </trkpt>
      <trkpt lat="45.77219" lon="6.70818">
        <ele>1833.9</ele>
        <time>2013-08-27T09:17:31Z</time>
      </trkpt>
      <trkpt lat="45.77197" lon="6.70795">
        <ele>1833.4</ele>
        <time>2013-08-27T09:17:41Z</time>
      </trkpt>
      <trkpt lat="45.77174" lon="6.70763">
        <ele>1830.5</ele>
        <time>2013-08-27T09:17:50Z</time>
      </trkpt>
      <trkpt lat="45.77171" lon="6.70759">
        <ele>1828.6</ele>
        <time>2013-08-27T09:17:59Z</time>
      </trkpt>
      <trkpt lat="45.7717" lon="6.70759">
        <ele>1828.6</ele>
        <time>2013-08-27T09:18:00Z</time>
      </trkpt>
      <trkpt lat="45.77165" lon="6.70756">
        <ele>1828.1</ele>
        <time>2013-08-27T09:18:06Z</time>
      </trkpt>
      <trkpt lat="45.77164" lon="6.70756">
        <ele>1827.6</ele>
        <time>2013-08-27T09:18:07Z</time>
      </trkpt>
      <trkpt lat="45.77163" lon="6.70756">
        <ele>1827.1</ele>
        <time>2013-08-27T09:18:08Z</time>
      </trkpt>
      <trkpt lat="45.77148" lon="6.70747">
        <ele>1826.2</ele>
        <time>2013-08-27T09:18:23Z</time>
      </trkpt>
      <trkpt lat="45.77145" lon="6.70747">
        <ele>1826.2</ele>
        <time>2013-08-27T09:18:35Z</time>
      </trkpt>
      <trkpt lat="45.77143" lon="6.70749">
        <ele>1826.2</ele>
        <time>2013-08-27T09:18:37Z</time>
      </trkpt>
      <trkpt lat="45.77119" lon="6.70741">
        <ele>1824.2</ele>
        <time>2013-08-27T09:18:48Z</time>
      </trkpt>
      <trkpt lat="45.77108" lon="6.70732">
        <ele>1823.3</ele>
        <time>2013-08-27T09:18:51Z</time>
      </trkpt>
      <trkpt lat="45.771" lon="6.70727">
        <ele>1822.3</ele>
        <time>2013-08-27T09:18:53Z</time>
      </trkpt>
      <trkpt lat="45.77095" lon="6.70725">
        <ele>1821.8</ele>
        <time>2013-08-27T09:18:54Z</time>
      </trkpt>
      <trkpt lat="45.77091" lon="6.70723">
        <ele>1820.9</ele>
        <time>2013-08-27T09:18:55Z</time>
      </trkpt>
      <trkpt lat="45.77087" lon="6.7072">
        <ele>1820.9</ele>
        <time>2013-08-27T09:18:56Z</time>
      </trkpt>
      <trkpt lat="45.77083" lon="6.70718">
        <ele>1820.4</ele>
        <time>2013-08-27T09:18:57Z</time>
      </trkpt>
      <trkpt lat="45.77067" lon="6.70711">
        <ele>1818</ele>
        <time>2013-08-27T09:19:01Z</time>
      </trkpt>
      <trkpt lat="45.77062" lon="6.70711">
        <ele>1818</ele>
        <time>2013-08-27T09:19:02Z</time>
      </trkpt>
      <trkpt lat="45.77037" lon="6.70708">
        <ele>1816.1</ele>
        <time>2013-08-27T09:19:08Z</time>
      </trkpt>
      <trkpt lat="45.77033" lon="6.70707">
        <ele>1815.1</ele>
        <time>2013-08-27T09:19:09Z</time>
      </trkpt>
      <trkpt lat="45.77028" lon="6.70706">
        <ele>1814.6</ele>
        <time>2013-08-27T09:19:10Z</time>
      </trkpt>
      <trkpt lat="45.77024" lon="6.70705">
        <ele>1814.2</ele>
        <time>2013-08-27T09:19:11Z</time>
      </trkpt>
      <trkpt lat="45.7702" lon="6.70705">
        <ele>1813.2</ele>
        <time>2013-08-27T09:19:12Z</time>
      </trkpt>
      <trkpt lat="45.77016" lon="6.70705">
        <ele>1812.2</ele>
        <time>2013-08-27T09:19:13Z</time>
      </trkpt>
      <trkpt lat="45.77013" lon="6.70704">
        <ele>1812.2</ele>
        <time>2013-08-27T09:19:14Z</time>
      </trkpt>
      <trkpt lat="45.77011" lon="6.70704">
        <ele>1811.7</ele>
        <time>2013-08-27T09:19:15Z</time>
      </trkpt>
      <trkpt lat="45.76998" lon="6.70702">
        <ele>1809.8</ele>
        <time>2013-08-27T09:19:25Z</time>
      </trkpt>
      <trkpt lat="45.76996" lon="6.70701">
        <ele>1809.8</ele>
        <time>2013-08-27T09:19:26Z</time>
      </trkpt>
      <trkpt lat="45.76994" lon="6.70701">
        <ele>1810.3</ele>
        <time>2013-08-27T09:19:27Z</time>
      </trkpt>
      <trkpt lat="45.76992" lon="6.70702">
        <ele>1809.8</ele>
        <time>2013-08-27T09:19:28Z</time>
      </trkpt>
      <trkpt lat="45.76991" lon="6.70703">
        <ele>1808.9</ele>
        <time>2013-08-27T09:19:29Z</time>
      </trkpt>
      <trkpt lat="45.76986" lon="6.70705">
        <ele>1808.4</ele>
        <time>2013-08-27T09:19:33Z</time>
      </trkpt>
      <trkpt lat="45.76984" lon="6.70707">
        <ele>1807.9</ele>
        <time>2013-08-27T09:19:35Z</time>
      </trkpt>
      <trkpt lat="45.76983" lon="6.70707">
        <ele>1807.9</ele>
        <time>2013-08-27T09:19:36Z</time>
      </trkpt>
      <trkpt lat="45.76982" lon="6.70706">
        <ele>1807.4</ele>
        <time>2013-08-27T09:19:37Z</time>
      </trkpt>
      <trkpt lat="45.7698" lon="6.70705">
        <ele>1807.4</ele>
        <time>2013-08-27T09:19:38Z</time>
      </trkpt>
      <trkpt lat="45.76979" lon="6.70703">
        <ele>1808.4</ele>
        <time>2013-08-27T09:19:39Z</time>
      </trkpt>
      <trkpt lat="45.76977" lon="6.70701">
        <ele>1808.4</ele>
        <time>2013-08-27T09:19:40Z</time>
      </trkpt>
      <trkpt lat="45.76976" lon="6.707">
        <ele>1808.9</ele>
        <time>2013-08-27T09:19:41Z</time>
      </trkpt>
      <trkpt lat="45.76975" lon="6.70698">
        <ele>1809.3</ele>
        <time>2013-08-27T09:19:42Z</time>
      </trkpt>
      <trkpt lat="45.76974" lon="6.70697">
        <ele>1809.3</ele>
        <time>2013-08-27T09:19:43Z</time>
      </trkpt>
      <trkpt lat="45.76973" lon="6.70696">
        <ele>1809.3</ele>
        <time>2013-08-27T09:19:44Z</time>
      </trkpt>
      <trkpt lat="45.76972" lon="6.70695">
        <ele>1809.8</ele>
        <time>2013-08-27T09:19:45Z</time>
      </trkpt>
      <trkpt lat="45.76967" lon="6.70693">
        <ele>1810.3</ele>
        <time>2013-08-27T09:19:58Z</time>
      </trkpt>
      <trkpt lat="45.76961" lon="6.70688">
        <ele>1812.2</ele>
        <time>2013-08-27T09:20:20Z</time>
      </trkpt>
      <trkpt lat="45.7696" lon="6.70687">
        <ele>1813.7</ele>
        <time>2013-08-27T09:20:40Z</time>
      </trkpt>
      <trkpt lat="45.76957" lon="6.70683">
        <ele>1814.2</ele>
        <time>2013-08-27T09:20:56Z</time>
      </trkpt>
      <trkpt lat="45.76949" lon="6.70676">
        <ele>1816.1</ele>
        <time>2013-08-27T09:21:10Z</time>
      </trkpt>
      <trkpt lat="45.76939" lon="6.70674">
        <ele>1818.5</ele>
        <time>2013-08-27T09:21:25Z</time>
      </trkpt>
      <trkpt lat="45.7694" lon="6.70661">
        <ele>1821.8</ele>
        <time>2013-08-27T09:21:41Z</time>
      </trkpt>
      <trkpt lat="45.76946" lon="6.70649">
        <ele>1824.2</ele>
        <time>2013-08-27T09:21:57Z</time>
      </trkpt>
      <trkpt lat="45.76948" lon="6.70644">
        <ele>1825.7</ele>
        <time>2013-08-27T09:22:04Z</time>
      </trkpt>
      <trkpt lat="45.76944" lon="6.7063">
        <ele>1827.6</ele>
        <time>2013-08-27T09:22:19Z</time>
      </trkpt>
      <trkpt lat="45.76934" lon="6.70621">
        <ele>1830.5</ele>
        <time>2013-08-27T09:22:36Z</time>
      </trkpt>
      <trkpt lat="45.76927" lon="6.70623">
        <ele>1833.4</ele>
        <time>2013-08-27T09:22:49Z</time>
      </trkpt>
      <trkpt lat="45.76917" lon="6.70625">
        <ele>1835.8</ele>
        <time>2013-08-27T09:23:05Z</time>
      </trkpt>
      <trkpt lat="45.76913" lon="6.70626">
        <ele>1836.3</ele>
        <time>2013-08-27T09:23:17Z</time>
      </trkpt>
      <trkpt lat="45.76902" lon="6.70628">
        <ele>1839.1</ele>
        <time>2013-08-27T09:23:34Z</time>
      </trkpt>
      <trkpt lat="45.769" lon="6.70629">
        <ele>1839.6</ele>
        <time>2013-08-27T09:23:49Z</time>
      </trkpt>
      <trkpt lat="45.76897" lon="6.70633">
        <ele>1839.6</ele>
        <time>2013-08-27T09:24:00Z</time>
      </trkpt>
      <trkpt lat="45.76889" lon="6.70645">
        <ele>1843</ele>
        <time>2013-08-27T09:24:14Z</time>
      </trkpt>
      <trkpt lat="45.76879" lon="6.7065">
        <ele>1844</ele>
        <time>2013-08-27T09:24:25Z</time>
      </trkpt>
      <trkpt lat="45.7686" lon="6.70655">
        <ele>1846.8</ele>
        <time>2013-08-27T09:24:46Z</time>
      </trkpt>
      <trkpt lat="45.76854" lon="6.70655">
        <ele>1847.3</ele>
        <time>2013-08-27T09:25:00Z</time>
      </trkpt>
      <trkpt lat="45.7685" lon="6.70653">
        <ele>1847.8</ele>
        <time>2013-08-27T09:25:11Z</time>
      </trkpt>
      <trkpt lat="45.76829" lon="6.7065">
        <ele>1848.8</ele>
        <time>2013-08-27T09:25:25Z</time>
      </trkpt>
      <trkpt lat="45.76809" lon="6.70643">
        <ele>1851.2</ele>
        <time>2013-08-27T09:25:40Z</time>
      </trkpt>
      <trkpt lat="45.7679" lon="6.70622">
        <ele>1853.6</ele>
        <time>2013-08-27T09:25:57Z</time>
      </trkpt>
      <trkpt lat="45.76779" lon="6.70589">
        <ele>1856</ele>
        <time>2013-08-27T09:26:15Z</time>
      </trkpt>
      <trkpt lat="45.76777" lon="6.70578">
        <ele>1857.9</ele>
        <time>2013-08-27T09:26:21Z</time>
      </trkpt>
      <trkpt lat="45.76776" lon="6.70569">
        <ele>1858.9</ele>
        <time>2013-08-27T09:26:26Z</time>
      </trkpt>
      <trkpt lat="45.76774" lon="6.70541">
        <ele>1861.3</ele>
        <time>2013-08-27T09:26:42Z</time>
      </trkpt>
      <trkpt lat="45.7677" lon="6.70517">
        <ele>1864.1</ele>
        <time>2013-08-27T09:26:56Z</time>
      </trkpt>
      <trkpt lat="45.76768" lon="6.70508">
        <ele>1864.1</ele>
        <time>2013-08-27T09:27:01Z</time>
      </trkpt>
      <trkpt lat="45.76768" lon="6.70506">
        <ele>1864.6</ele>
        <time>2013-08-27T09:27:02Z</time>
      </trkpt>
      <trkpt lat="45.76756" lon="6.70491">
        <ele>1868</ele>
        <time>2013-08-27T09:27:17Z</time>
      </trkpt>
      <trkpt lat="45.76742" lon="6.70481">
        <ele>1870.9</ele>
        <time>2013-08-27T09:27:34Z</time>
      </trkpt>
      <trkpt lat="45.76731" lon="6.7047">
        <ele>1874.2</ele>
        <time>2013-08-27T09:27:47Z</time>
      </trkpt>
      <trkpt lat="45.76723" lon="6.70454">
        <ele>1875.7</ele>
        <time>2013-08-27T09:27:59Z</time>
      </trkpt>
      <trkpt lat="45.7673" lon="6.70435">
        <ele>1879</ele>
        <time>2013-08-27T09:28:13Z</time>
      </trkpt>
      <trkpt lat="45.76749" lon="6.70428">
        <ele>1880.5</ele>
        <time>2013-08-27T09:28:29Z</time>
      </trkpt>
      <trkpt lat="45.76767" lon="6.70416">
        <ele>1883.8</ele>
        <time>2013-08-27T09:28:45Z</time>
      </trkpt>
      <trkpt lat="45.76782" lon="6.70402">
        <ele>1887.7</ele>
        <time>2013-08-27T09:29:01Z</time>
      </trkpt>
      <trkpt lat="45.76783" lon="6.70398">
        <ele>1887.7</ele>
        <time>2013-08-27T09:29:04Z</time>
      </trkpt>
      <trkpt lat="45.76783" lon="6.70396">
        <ele>1888.2</ele>
        <time>2013-08-27T09:29:05Z</time>
      </trkpt>
      <trkpt lat="45.76782" lon="6.70395">
        <ele>1888.2</ele>
        <time>2013-08-27T09:29:06Z</time>
      </trkpt>
      <trkpt lat="45.76782" lon="6.70391">
        <ele>1889.1</ele>
        <time>2013-08-27T09:29:08Z</time>
      </trkpt>
      <trkpt lat="45.76783" lon="6.70387">
        <ele>1889.6</ele>
        <time>2013-08-27T09:29:11Z</time>
      </trkpt>
      <trkpt lat="45.76778" lon="6.70363">
        <ele>1892</ele>
        <time>2013-08-27T09:29:28Z</time>
      </trkpt>
      <trkpt lat="45.76766" lon="6.70339">
        <ele>1895.4</ele>
        <time>2013-08-27T09:29:45Z</time>
      </trkpt>
      <trkpt lat="45.7675" lon="6.70319">
        <ele>1897.3</ele>
        <time>2013-08-27T09:30:00Z</time>
      </trkpt>
      <trkpt lat="45.76735" lon="6.70301">
        <ele>1900.7</ele>
        <time>2013-08-27T09:30:15Z</time>
      </trkpt>
      <trkpt lat="45.7672" lon="6.70276">
        <ele>1903.1</ele>
        <time>2013-08-27T09:30:34Z</time>
      </trkpt>
      <trkpt lat="45.76707" lon="6.70263">
        <ele>1906</ele>
        <time>2013-08-27T09:30:46Z</time>
      </trkpt>
      <trkpt lat="45.76686" lon="6.70256">
        <ele>1909.3</ele>
        <time>2013-08-27T09:31:04Z</time>
      </trkpt>
      <trkpt lat="45.76673" lon="6.70236">
        <ele>1912.7</ele>
        <time>2013-08-27T09:31:20Z</time>
      </trkpt>
      <trkpt lat="45.76664" lon="6.70212">
        <ele>1916</ele>
        <time>2013-08-27T09:31:36Z</time>
      </trkpt>
      <trkpt lat="45.7666" lon="6.70203">
        <ele>1916</ele>
        <time>2013-08-27T09:31:42Z</time>
      </trkpt>
      <trkpt lat="45.76659" lon="6.70201">
        <ele>1917</ele>
        <time>2013-08-27T09:31:43Z</time>
      </trkpt>
      <trkpt lat="45.76649" lon="6.70174">
        <ele>1920.4</ele>
        <time>2013-08-27T09:32:01Z</time>
      </trkpt>
      <trkpt lat="45.76642" lon="6.70146">
        <ele>1922.3</ele>
        <time>2013-08-27T09:32:18Z</time>
      </trkpt>
      <trkpt lat="45.76641" lon="6.70138">
        <ele>1923.3</ele>
        <time>2013-08-27T09:32:24Z</time>
      </trkpt>
      <trkpt lat="45.7664" lon="6.70136">
        <ele>1923.3</ele>
        <time>2013-08-27T09:32:25Z</time>
      </trkpt>
      <trkpt lat="45.7664" lon="6.70134">
        <ele>1923.3</ele>
        <time>2013-08-27T09:32:26Z</time>
      </trkpt>
      <trkpt lat="45.76639" lon="6.70133">
        <ele>1923.3</ele>
        <time>2013-08-27T09:32:27Z</time>
      </trkpt>
      <trkpt lat="45.76638" lon="6.70131">
        <ele>1923.7</ele>
        <time>2013-08-27T09:32:28Z</time>
      </trkpt>
      <trkpt lat="45.76638" lon="6.70129">
        <ele>1923.3</ele>
        <time>2013-08-27T09:32:29Z</time>
      </trkpt>
      <trkpt lat="45.76637" lon="6.70127">
        <ele>1923.7</ele>
        <time>2013-08-27T09:32:30Z</time>
      </trkpt>
      <trkpt lat="45.76623" lon="6.70108">
        <ele>1926.1</ele>
        <time>2013-08-27T09:32:44Z</time>
      </trkpt>
      <trkpt lat="45.76605" lon="6.701">
        <ele>1929.5</ele>
        <time>2013-08-27T09:32:58Z</time>
      </trkpt>
      <trkpt lat="45.76585" lon="6.70099">
        <ele>1931</ele>
        <time>2013-08-27T09:33:12Z</time>
      </trkpt>
      <trkpt lat="45.76554" lon="6.70099">
        <ele>1932.9</ele>
        <time>2013-08-27T09:33:29Z</time>
      </trkpt>
      <trkpt lat="45.7652" lon="6.70095">
        <ele>1935.3</ele>
        <time>2013-08-27T09:33:45Z</time>
      </trkpt>
      <trkpt lat="45.76491" lon="6.70098">
        <ele>1936.7</ele>
        <time>2013-08-27T09:34:00Z</time>
      </trkpt>
      <trkpt lat="45.76465" lon="6.70097">
        <ele>1939.1</ele>
        <time>2013-08-27T09:34:15Z</time>
      </trkpt>
      <trkpt lat="45.76456" lon="6.70096">
        <ele>1940.6</ele>
        <time>2013-08-27T09:34:20Z</time>
      </trkpt>
      <trkpt lat="45.76439" lon="6.7008">
        <ele>1942</ele>
        <time>2013-08-27T09:34:33Z</time>
      </trkpt>
      <trkpt lat="45.76422" lon="6.70071">
        <ele>1945.4</ele>
        <time>2013-08-27T09:34:47Z</time>
      </trkpt>
      <trkpt lat="45.76405" lon="6.70058">
        <ele>1948.3</ele>
        <time>2013-08-27T09:35:03Z</time>
      </trkpt>
      <trkpt lat="45.76384" lon="6.70065">
        <ele>1950.7</ele>
        <time>2013-08-27T09:35:19Z</time>
      </trkpt>
      <trkpt lat="45.76359" lon="6.70077">
        <ele>1949.2</ele>
        <time>2013-08-27T09:35:30Z</time>
      </trkpt>
      <trkpt lat="45.76333" lon="6.70075">
        <ele>1947.3</ele>
        <time>2013-08-27T09:35:36Z</time>
      </trkpt>
      <trkpt lat="45.76329" lon="6.70076">
        <ele>1946.3</ele>
        <time>2013-08-27T09:35:37Z</time>
      </trkpt>
      <trkpt lat="45.76321" lon="6.70081">
        <ele>1944.9</ele>
        <time>2013-08-27T09:35:39Z</time>
      </trkpt>
      <trkpt lat="45.76316" lon="6.70085">
        <ele>1943.9</ele>
        <time>2013-08-27T09:35:40Z</time>
      </trkpt>
      <trkpt lat="45.76312" lon="6.7009">
        <ele>1942.5</ele>
        <time>2013-08-27T09:35:41Z</time>
      </trkpt>
      <trkpt lat="45.76309" lon="6.70095">
        <ele>1941</ele>
        <time>2013-08-27T09:35:42Z</time>
      </trkpt>
      <trkpt lat="45.76305" lon="6.701">
        <ele>1941</ele>
        <time>2013-08-27T09:35:43Z</time>
      </trkpt>
      <trkpt lat="45.76301" lon="6.70104">
        <ele>1940.1</ele>
        <time>2013-08-27T09:35:44Z</time>
      </trkpt>
      <trkpt lat="45.76296" lon="6.70107">
        <ele>1939.6</ele>
        <time>2013-08-27T09:35:45Z</time>
      </trkpt>
      <trkpt lat="45.76281" lon="6.70122">
        <ele>1941</ele>
        <time>2013-08-27T09:35:53Z</time>
      </trkpt>
      <trkpt lat="45.76259" lon="6.70141">
        <ele>1941</ele>
        <time>2013-08-27T09:36:06Z</time>
      </trkpt>
      <trkpt lat="45.76243" lon="6.70154">
        <ele>1939.6</ele>
        <time>2013-08-27T09:36:14Z</time>
      </trkpt>
      <trkpt lat="45.76242" lon="6.70153">
        <ele>1939.6</ele>
        <time>2013-08-27T09:36:15Z</time>
      </trkpt>
      <trkpt lat="45.7624" lon="6.70153">
        <ele>1939.1</ele>
        <time>2013-08-27T09:36:16Z</time>
      </trkpt>
      <trkpt lat="45.76238" lon="6.70153">
        <ele>1939.6</ele>
        <time>2013-08-27T09:36:17Z</time>
      </trkpt>
      <trkpt lat="45.76235" lon="6.70154">
        <ele>1940.1</ele>
        <time>2013-08-27T09:36:18Z</time>
      </trkpt>
      <trkpt lat="45.76204" lon="6.70168">
        <ele>1941.5</ele>
        <time>2013-08-27T09:36:34Z</time>
      </trkpt>
      <trkpt lat="45.76189" lon="6.70179">
        <ele>1943</ele>
        <time>2013-08-27T09:36:42Z</time>
      </trkpt>
      <trkpt lat="45.76187" lon="6.70179">
        <ele>1942.5</ele>
        <time>2013-08-27T09:36:43Z</time>
      </trkpt>
      <trkpt lat="45.76185" lon="6.70178">
        <ele>1943</ele>
        <time>2013-08-27T09:36:44Z</time>
      </trkpt>
      <trkpt lat="45.76153" lon="6.70173">
        <ele>1943.4</ele>
        <time>2013-08-27T09:36:57Z</time>
      </trkpt>
      <trkpt lat="45.76125" lon="6.70198">
        <ele>1943</ele>
        <time>2013-08-27T09:37:06Z</time>
      </trkpt>
      <trkpt lat="45.76102" lon="6.70213">
        <ele>1942</ele>
        <time>2013-08-27T09:37:12Z</time>
      </trkpt>
      <trkpt lat="45.76097" lon="6.70215">
        <ele>1941.5</ele>
        <time>2013-08-27T09:37:13Z</time>
      </trkpt>
      <trkpt lat="45.76092" lon="6.70217">
        <ele>1941.5</ele>
        <time>2013-08-27T09:37:14Z</time>
      </trkpt>
      <trkpt lat="45.76082" lon="6.70219">
        <ele>1941</ele>
        <time>2013-08-27T09:37:16Z</time>
      </trkpt>
      <trkpt lat="45.76077" lon="6.70222">
        <ele>1940.1</ele>
        <time>2013-08-27T09:37:17Z</time>
      </trkpt>
      <trkpt lat="45.76067" lon="6.70228">
        <ele>1940.1</ele>
        <time>2013-08-27T09:37:19Z</time>
      </trkpt>
      <trkpt lat="45.76062" lon="6.70229">
        <ele>1940.1</ele>
        <time>2013-08-27T09:37:20Z</time>
      </trkpt>
      <trkpt lat="45.76057" lon="6.70228">
        <ele>1939.6</ele>
        <time>2013-08-27T09:37:21Z</time>
      </trkpt>
      <trkpt lat="45.76052" lon="6.70226">
        <ele>1939.6</ele>
        <time>2013-08-27T09:37:22Z</time>
      </trkpt>
      <trkpt lat="45.76047" lon="6.70224">
        <ele>1939.6</ele>
        <time>2013-08-27T09:37:23Z</time>
      </trkpt>
      <trkpt lat="45.76042" lon="6.70222">
        <ele>1939.6</ele>
        <time>2013-08-27T09:37:24Z</time>
      </trkpt>
      <trkpt lat="45.76037" lon="6.70221">
        <ele>1939.1</ele>
        <time>2013-08-27T09:37:25Z</time>
      </trkpt>
      <trkpt lat="45.76032" lon="6.70219">
        <ele>1939.1</ele>
        <time>2013-08-27T09:37:26Z</time>
      </trkpt>
      <trkpt lat="45.76016" lon="6.7021">
        <ele>1938.2</ele>
        <time>2013-08-27T09:37:29Z</time>
      </trkpt>
      <trkpt lat="45.76011" lon="6.70205">
        <ele>1937.7</ele>
        <time>2013-08-27T09:37:30Z</time>
      </trkpt>
      <trkpt lat="45.76005" lon="6.70201">
        <ele>1937.2</ele>
        <time>2013-08-27T09:37:31Z</time>
      </trkpt>
      <trkpt lat="45.75999" lon="6.70198">
        <ele>1936.7</ele>
        <time>2013-08-27T09:37:32Z</time>
      </trkpt>
      <trkpt lat="45.75993" lon="6.70198">
        <ele>1936.7</ele>
        <time>2013-08-27T09:37:33Z</time>
      </trkpt>
      <trkpt lat="45.75987" lon="6.70199">
        <ele>1937.2</ele>
        <time>2013-08-27T09:37:34Z</time>
      </trkpt>
      <trkpt lat="45.75982" lon="6.70199">
        <ele>1936.2</ele>
        <time>2013-08-27T09:37:35Z</time>
      </trkpt>
      <trkpt lat="45.75977" lon="6.70199">
        <ele>1936.7</ele>
        <time>2013-08-27T09:37:36Z</time>
      </trkpt>
      <trkpt lat="45.75964" lon="6.70198">
        <ele>1936.7</ele>
        <time>2013-08-27T09:37:43Z</time>
      </trkpt>
      <trkpt lat="45.75964" lon="6.70198">
        <ele>1937.2</ele>
        <time>2013-08-27T09:38:12Z</time>
      </trkpt>
      <trkpt lat="45.75952" lon="6.70196">
        <ele>1936.2</ele>
        <time>2013-08-27T09:38:20Z</time>
      </trkpt>
      <trkpt lat="45.75947" lon="6.70196">
        <ele>1935.8</ele>
        <time>2013-08-27T09:38:21Z</time>
      </trkpt>
      <trkpt lat="45.75943" lon="6.70195">
        <ele>1935.3</ele>
        <time>2013-08-27T09:38:22Z</time>
      </trkpt>
      <trkpt lat="45.75919" lon="6.70185">
        <ele>1932.4</ele>
        <time>2013-08-27T09:38:26Z</time>
      </trkpt>
      <trkpt lat="45.75913" lon="6.70179">
        <ele>1931</ele>
        <time>2013-08-27T09:38:27Z</time>
      </trkpt>
      <trkpt lat="45.75908" lon="6.70173">
        <ele>1930</ele>
        <time>2013-08-27T09:38:28Z</time>
      </trkpt>
      <trkpt lat="45.75899" lon="6.70161">
        <ele>1928.1</ele>
        <time>2013-08-27T09:38:30Z</time>
      </trkpt>
      <trkpt lat="45.75894" lon="6.70158">
        <ele>1926.6</ele>
        <time>2013-08-27T09:38:31Z</time>
      </trkpt>
      <trkpt lat="45.75888" lon="6.70157">
        <ele>1925.7</ele>
        <time>2013-08-27T09:38:32Z</time>
      </trkpt>
      <trkpt lat="45.75882" lon="6.70158">
        <ele>1925.7</ele>
        <time>2013-08-27T09:38:33Z</time>
      </trkpt>
      <trkpt lat="45.75876" lon="6.7016">
        <ele>1925.2</ele>
        <time>2013-08-27T09:38:34Z</time>
      </trkpt>
      <trkpt lat="45.75843" lon="6.70165">
        <ele>1923.3</ele>
        <time>2013-08-27T09:38:39Z</time>
      </trkpt>
      <trkpt lat="45.75836" lon="6.70164">
        <ele>1922.8</ele>
        <time>2013-08-27T09:38:40Z</time>
      </trkpt>
      <trkpt lat="45.75823" lon="6.7016">
        <ele>1921.8</ele>
        <time>2013-08-27T09:38:42Z</time>
      </trkpt>
      <trkpt lat="45.75809" lon="6.70155">
        <ele>1922.8</ele>
        <time>2013-08-27T09:38:45Z</time>
      </trkpt>
      <trkpt lat="45.75803" lon="6.70155">
        <ele>1921.8</ele>
        <time>2013-08-27T09:38:46Z</time>
      </trkpt>
      <trkpt lat="45.75784" lon="6.70157">
        <ele>1918.9</ele>
        <time>2013-08-27T09:38:49Z</time>
      </trkpt>
      <trkpt lat="45.75778" lon="6.70156">
        <ele>1919.4</ele>
        <time>2013-08-27T09:38:50Z</time>
      </trkpt>
      <trkpt lat="45.75759" lon="6.70154">
        <ele>1915.6</ele>
        <time>2013-08-27T09:38:53Z</time>
      </trkpt>
      <trkpt lat="45.75745" lon="6.70156">
        <ele>1913.2</ele>
        <time>2013-08-27T09:38:55Z</time>
      </trkpt>
      <trkpt lat="45.75739" lon="6.70158">
        <ele>1913.2</ele>
        <time>2013-08-27T09:38:56Z</time>
      </trkpt>
      <trkpt lat="45.75733" lon="6.70162">
        <ele>1913.2</ele>
        <time>2013-08-27T09:38:57Z</time>
      </trkpt>
      <trkpt lat="45.75724" lon="6.70172">
        <ele>1913.6</ele>
        <time>2013-08-27T09:38:59Z</time>
      </trkpt>
      <trkpt lat="45.75684" lon="6.70219">
        <ele>1913.6</ele>
        <time>2013-08-27T09:39:14Z</time>
      </trkpt>
      <trkpt lat="45.75651" lon="6.70251">
        <ele>1914.1</ele>
        <time>2013-08-27T09:39:28Z</time>
      </trkpt>
      <trkpt lat="45.75649" lon="6.7025">
        <ele>1914.6</ele>
        <time>2013-08-27T09:39:29Z</time>
      </trkpt>
      <trkpt lat="45.75648" lon="6.70248">
        <ele>1914.6</ele>
        <time>2013-08-27T09:39:30Z</time>
      </trkpt>
      <trkpt lat="45.75646" lon="6.70246">
        <ele>1914.6</ele>
        <time>2013-08-27T09:39:31Z</time>
      </trkpt>
      <trkpt lat="45.75645" lon="6.70243">
        <ele>1914.6</ele>
        <time>2013-08-27T09:39:32Z</time>
      </trkpt>
      <trkpt lat="45.75644" lon="6.70239">
        <ele>1915.1</ele>
        <time>2013-08-27T09:39:33Z</time>
      </trkpt>
      <trkpt lat="45.75643" lon="6.70235">
        <ele>1913.6</ele>
        <time>2013-08-27T09:39:34Z</time>
      </trkpt>
      <trkpt lat="45.75643" lon="6.70231">
        <ele>1914.1</ele>
        <time>2013-08-27T09:39:35Z</time>
      </trkpt>
      <trkpt lat="45.75642" lon="6.70228">
        <ele>1914.6</ele>
        <time>2013-08-27T09:39:36Z</time>
      </trkpt>
      <trkpt lat="45.75637" lon="6.7018">
        <ele>1915.6</ele>
        <time>2013-08-27T09:39:50Z</time>
      </trkpt>
      <trkpt lat="45.75639" lon="6.70147">
        <ele>1915.6</ele>
        <time>2013-08-27T09:39:59Z</time>
      </trkpt>
      <trkpt lat="45.75638" lon="6.70145">
        <ele>1915.6</ele>
        <time>2013-08-27T09:40:00Z</time>
      </trkpt>
      <trkpt lat="45.75632" lon="6.7014">
        <ele>1915.1</ele>
        <time>2013-08-27T09:40:03Z</time>
      </trkpt>
      <trkpt lat="45.75629" lon="6.70141">
        <ele>1915.1</ele>
        <time>2013-08-27T09:40:04Z</time>
      </trkpt>
      <trkpt lat="45.75625" lon="6.7014">
        <ele>1914.6</ele>
        <time>2013-08-27T09:40:05Z</time>
      </trkpt>
      <trkpt lat="45.75622" lon="6.7014">
        <ele>1914.1</ele>
        <time>2013-08-27T09:40:06Z</time>
      </trkpt>
      <trkpt lat="45.75619" lon="6.70139">
        <ele>1914.6</ele>
        <time>2013-08-27T09:40:07Z</time>
      </trkpt>
      <trkpt lat="45.75613" lon="6.70139">
        <ele>1916.5</ele>
        <time>2013-08-27T09:40:11Z</time>
      </trkpt>
      <trkpt lat="45.75612" lon="6.70138">
        <ele>1917</ele>
        <time>2013-08-27T09:40:12Z</time>
      </trkpt>
      <trkpt lat="45.75598" lon="6.70134">
        <ele>1919.4</ele>
        <time>2013-08-27T09:40:23Z</time>
      </trkpt>
      <trkpt lat="45.75597" lon="6.70135">
        <ele>1919.4</ele>
        <time>2013-08-27T09:40:24Z</time>
      </trkpt>
      <trkpt lat="45.75596" lon="6.70136">
        <ele>1918.9</ele>
        <time>2013-08-27T09:40:39Z</time>
      </trkpt>
      <trkpt lat="45.75594" lon="6.70136">
        <ele>1919.4</ele>
        <time>2013-08-27T09:40:52Z</time>
      </trkpt>
      <trkpt lat="45.75593" lon="6.70137">
        <ele>1919.4</ele>
        <time>2013-08-27T09:40:53Z</time>
      </trkpt>
      <trkpt lat="45.75573" lon="6.70161">
        <ele>1919.9</ele>
        <time>2013-08-27T09:41:06Z</time>
      </trkpt>
      <trkpt lat="45.75552" lon="6.70142">
        <ele>1918.9</ele>
        <time>2013-08-27T09:41:13Z</time>
      </trkpt>
      <trkpt lat="45.75547" lon="6.70141">
        <ele>1918</ele>
        <time>2013-08-27T09:41:14Z</time>
      </trkpt>
      <trkpt lat="45.75543" lon="6.7014">
        <ele>1918</ele>
        <time>2013-08-27T09:41:15Z</time>
      </trkpt>
      <trkpt lat="45.7554" lon="6.70141">
        <ele>1918.5</ele>
        <time>2013-08-27T09:41:16Z</time>
      </trkpt>
      <trkpt lat="45.75539" lon="6.70142">
        <ele>1918.5</ele>
        <time>2013-08-27T09:41:17Z</time>
      </trkpt>
      <trkpt lat="45.75537" lon="6.70143">
        <ele>1918.5</ele>
        <time>2013-08-27T09:41:18Z</time>
      </trkpt>
      <trkpt lat="45.75535" lon="6.70145">
        <ele>1918.5</ele>
        <time>2013-08-27T09:41:19Z</time>
      </trkpt>
      <trkpt lat="45.75534" lon="6.70146">
        <ele>1918.9</ele>
        <time>2013-08-27T09:41:20Z</time>
      </trkpt>
      <trkpt lat="45.75532" lon="6.7015">
        <ele>1918.5</ele>
        <time>2013-08-27T09:41:21Z</time>
      </trkpt>
      <trkpt lat="45.7553" lon="6.70154">
        <ele>1917.5</ele>
        <time>2013-08-27T09:41:22Z</time>
      </trkpt>
      <trkpt lat="45.75528" lon="6.7016">
        <ele>1917</ele>
        <time>2013-08-27T09:41:23Z</time>
      </trkpt>
      <trkpt lat="45.75526" lon="6.70167">
        <ele>1916.5</ele>
        <time>2013-08-27T09:41:24Z</time>
      </trkpt>
      <trkpt lat="45.75524" lon="6.70173">
        <ele>1915.6</ele>
        <time>2013-08-27T09:41:25Z</time>
      </trkpt>
      <trkpt lat="45.7552" lon="6.70184">
        <ele>1917</ele>
        <time>2013-08-27T09:41:28Z</time>
      </trkpt>
      <trkpt lat="45.75521" lon="6.70222">
        <ele>1916.5</ele>
        <time>2013-08-27T09:41:37Z</time>
      </trkpt>
      <trkpt lat="45.75523" lon="6.70255">
        <ele>1914.1</ele>
        <time>2013-08-27T09:41:43Z</time>
      </trkpt>
      <trkpt lat="45.75515" lon="6.70287">
        <ele>1911.2</ele>
        <time>2013-08-27T09:41:48Z</time>
      </trkpt>
      <trkpt lat="45.75512" lon="6.70296">
        <ele>1909.3</ele>
        <time>2013-08-27T09:41:49Z</time>
      </trkpt>
      <trkpt lat="45.75509" lon="6.70304">
        <ele>1908.8</ele>
        <time>2013-08-27T09:41:50Z</time>
      </trkpt>
      <trkpt lat="45.75502" lon="6.70322">
        <ele>1908.8</ele>
        <time>2013-08-27T09:41:53Z</time>
      </trkpt>
      <trkpt lat="45.75498" lon="6.70328">
        <ele>1908.4</ele>
        <time>2013-08-27T09:41:54Z</time>
      </trkpt>
      <trkpt lat="45.75495" lon="6.70332">
        <ele>1908.4</ele>
        <time>2013-08-27T09:41:55Z</time>
      </trkpt>
      <trkpt lat="45.75484" lon="6.70338">
        <ele>1907.9</ele>
        <time>2013-08-27T09:41:58Z</time>
      </trkpt>
      <trkpt lat="45.75481" lon="6.70338">
        <ele>1908.4</ele>
        <time>2013-08-27T09:41:59Z</time>
      </trkpt>
      <trkpt lat="45.75479" lon="6.70337">
        <ele>1907.9</ele>
        <time>2013-08-27T09:42:00Z</time>
      </trkpt>
      <trkpt lat="45.75476" lon="6.70336">
        <ele>1907.9</ele>
        <time>2013-08-27T09:42:01Z</time>
      </trkpt>
      <trkpt lat="45.75474" lon="6.70335">
        <ele>1907.4</ele>
        <time>2013-08-27T09:42:02Z</time>
      </trkpt>
      <trkpt lat="45.75472" lon="6.70335">
        <ele>1907.4</ele>
        <time>2013-08-27T09:42:03Z</time>
      </trkpt>
      <trkpt lat="45.75472" lon="6.70335">
        <ele>1908.4</ele>
        <time>2013-08-27T09:42:14Z</time>
      </trkpt>
      <trkpt lat="45.75454" lon="6.7032">
        <ele>1906.9</ele>
        <time>2013-08-27T09:42:28Z</time>
      </trkpt>
      <trkpt lat="45.7544" lon="6.70309">
        <ele>1905.5</ele>
        <time>2013-08-27T09:42:31Z</time>
      </trkpt>
      <trkpt lat="45.75418" lon="6.70295">
        <ele>1904</ele>
        <time>2013-08-27T09:42:39Z</time>
      </trkpt>
      <trkpt lat="45.75406" lon="6.70289">
        <ele>1902.6</ele>
        <time>2013-08-27T09:42:43Z</time>
      </trkpt>
      <trkpt lat="45.75397" lon="6.70286">
        <ele>1901.6</ele>
        <time>2013-08-27T09:42:45Z</time>
      </trkpt>
      <trkpt lat="45.75393" lon="6.70286">
        <ele>1901.6</ele>
        <time>2013-08-27T09:42:46Z</time>
      </trkpt>
      <trkpt lat="45.75391" lon="6.70287">
        <ele>1901.1</ele>
        <time>2013-08-27T09:42:47Z</time>
      </trkpt>
      <trkpt lat="45.75389" lon="6.70288">
        <ele>1902.1</ele>
        <time>2013-08-27T09:42:48Z</time>
      </trkpt>
      <trkpt lat="45.75384" lon="6.70291">
        <ele>1903.6</ele>
        <time>2013-08-27T09:42:56Z</time>
      </trkpt>
      <trkpt lat="45.75373" lon="6.70299">
        <ele>1905</ele>
        <time>2013-08-27T09:43:11Z</time>
      </trkpt>
      <trkpt lat="45.7537" lon="6.70307">
        <ele>1906</ele>
        <time>2013-08-27T09:43:22Z</time>
      </trkpt>
      <trkpt lat="45.75372" lon="6.70312">
        <ele>1905</ele>
        <time>2013-08-27T09:43:26Z</time>
      </trkpt>
      <trkpt lat="45.75373" lon="6.70313">
        <ele>1904.5</ele>
        <time>2013-08-27T09:43:27Z</time>
      </trkpt>
      <trkpt lat="45.75377" lon="6.70329">
        <ele>1904.5</ele>
        <time>2013-08-27T09:43:37Z</time>
      </trkpt>
      <trkpt lat="45.75377" lon="6.70335">
        <ele>1903.6</ele>
        <time>2013-08-27T09:43:38Z</time>
      </trkpt>
      <trkpt lat="45.75377" lon="6.7035">
        <ele>1902.6</ele>
        <time>2013-08-27T09:43:40Z</time>
      </trkpt>
      <trkpt lat="45.75377" lon="6.70388">
        <ele>1901.6</ele>
        <time>2013-08-27T09:43:49Z</time>
      </trkpt>
      <trkpt lat="45.75377" lon="6.704">
        <ele>1902.1</ele>
        <time>2013-08-27T09:43:53Z</time>
      </trkpt>
      <trkpt lat="45.75377" lon="6.70402">
        <ele>1902.1</ele>
        <time>2013-08-27T09:43:54Z</time>
      </trkpt>
      <trkpt lat="45.75373" lon="6.70425">
        <ele>1902.1</ele>
        <time>2013-08-27T09:44:05Z</time>
      </trkpt>
      <trkpt lat="45.75366" lon="6.70458">
        <ele>1900.7</ele>
        <time>2013-08-27T09:44:12Z</time>
      </trkpt>
      <trkpt lat="45.75366" lon="6.70464">
        <ele>1900.2</ele>
        <time>2013-08-27T09:44:13Z</time>
      </trkpt>
      <trkpt lat="45.75365" lon="6.70469">
        <ele>1899.7</ele>
        <time>2013-08-27T09:44:14Z</time>
      </trkpt>
      <trkpt lat="45.75364" lon="6.70474">
        <ele>1899.7</ele>
        <time>2013-08-27T09:44:15Z</time>
      </trkpt>
      <trkpt lat="45.75364" lon="6.70478">
        <ele>1899.2</ele>
        <time>2013-08-27T09:44:16Z</time>
      </trkpt>
      <trkpt lat="45.75363" lon="6.70482">
        <ele>1899.2</ele>
        <time>2013-08-27T09:44:17Z</time>
      </trkpt>
      <trkpt lat="45.75359" lon="6.70498">
        <ele>1898.7</ele>
        <time>2013-08-27T09:44:27Z</time>
      </trkpt>
      <trkpt lat="45.75358" lon="6.70505">
        <ele>1898.3</ele>
        <time>2013-08-27T09:44:38Z</time>
      </trkpt>
      <trkpt lat="45.75358" lon="6.70507">
        <ele>1898.7</ele>
        <time>2013-08-27T09:44:39Z</time>
      </trkpt>
      <trkpt lat="45.75355" lon="6.70518">
        <ele>1898.3</ele>
        <time>2013-08-27T09:44:53Z</time>
      </trkpt>
      <trkpt lat="45.75351" lon="6.70531">
        <ele>1897.3</ele>
        <time>2013-08-27T09:45:07Z</time>
      </trkpt>
      <trkpt lat="45.75351" lon="6.70537">
        <ele>1897.3</ele>
        <time>2013-08-27T09:45:11Z</time>
      </trkpt>
      <trkpt lat="45.75346" lon="6.70552">
        <ele>1896.8</ele>
        <time>2013-08-27T09:45:25Z</time>
      </trkpt>
      <trkpt lat="45.75339" lon="6.70574">
        <ele>1895.9</ele>
        <time>2013-08-27T09:45:42Z</time>
      </trkpt>
      <trkpt lat="45.75338" lon="6.70576">
        <ele>1895.9</ele>
        <time>2013-08-27T09:45:43Z</time>
      </trkpt>
      <trkpt lat="45.75331" lon="6.70593">
        <ele>1894.9</ele>
        <time>2013-08-27T09:45:58Z</time>
      </trkpt>
      <trkpt lat="45.75327" lon="6.70604">
        <ele>1894.9</ele>
        <time>2013-08-27T09:46:06Z</time>
      </trkpt>
      <trkpt lat="45.75326" lon="6.70605">
        <ele>1894.9</ele>
        <time>2013-08-27T09:46:07Z</time>
      </trkpt>
      <trkpt lat="45.75318" lon="6.70622">
        <ele>1894.9</ele>
        <time>2013-08-27T09:46:21Z</time>
      </trkpt>
      <trkpt lat="45.75317" lon="6.70623">
        <ele>1894.9</ele>
        <time>2013-08-27T09:46:22Z</time>
      </trkpt>
      <trkpt lat="45.75309" lon="6.70635">
        <ele>1893.5</ele>
        <time>2013-08-27T09:46:38Z</time>
      </trkpt>
      <trkpt lat="45.75297" lon="6.70649">
        <ele>1892</ele>
        <time>2013-08-27T09:46:48Z</time>
      </trkpt>
      <trkpt lat="45.75285" lon="6.70671">
        <ele>1891.1</ele>
        <time>2013-08-27T09:46:53Z</time>
      </trkpt>
      <trkpt lat="45.75283" lon="6.70676">
        <ele>1890.1</ele>
        <time>2013-08-27T09:46:54Z</time>
      </trkpt>
      <trkpt lat="45.75281" lon="6.70682">
        <ele>1889.6</ele>
        <time>2013-08-27T09:46:55Z</time>
      </trkpt>
      <trkpt lat="45.75267" lon="6.70728">
        <ele>1888.2</ele>
        <time>2013-08-27T09:47:05Z</time>
      </trkpt>
      <trkpt lat="45.75247" lon="6.70761">
        <ele>1888.7</ele>
        <time>2013-08-27T09:47:15Z</time>
      </trkpt>
      <trkpt lat="45.75244" lon="6.70765">
        <ele>1888.2</ele>
        <time>2013-08-27T09:47:16Z</time>
      </trkpt>
      <trkpt lat="45.75236" lon="6.70782">
        <ele>1888.2</ele>
        <time>2013-08-27T09:47:21Z</time>
      </trkpt>
      <trkpt lat="45.75235" lon="6.70783">
        <ele>1888.2</ele>
        <time>2013-08-27T09:47:25Z</time>
      </trkpt>
      <trkpt lat="45.75234" lon="6.70784">
        <ele>1888.2</ele>
        <time>2013-08-27T09:47:26Z</time>
      </trkpt>
      <trkpt lat="45.75228" lon="6.70805">
        <ele>1889.6</ele>
        <time>2013-08-27T09:47:42Z</time>
      </trkpt>
      <trkpt lat="45.75224" lon="6.70814">
        <ele>1889.6</ele>
        <time>2013-08-27T09:47:53Z</time>
      </trkpt>
      <trkpt lat="45.7522" lon="6.70823">
        <ele>1890.6</ele>
        <time>2013-08-27T09:47:59Z</time>
      </trkpt>
      <trkpt lat="45.7522" lon="6.70825">
        <ele>1890.6</ele>
        <time>2013-08-27T09:48:00Z</time>
      </trkpt>
      <trkpt lat="45.75219" lon="6.70827">
        <ele>1890.1</ele>
        <time>2013-08-27T09:48:01Z</time>
      </trkpt>
      <trkpt lat="45.75209" lon="6.70863">
        <ele>1891.5</ele>
        <time>2013-08-27T09:48:17Z</time>
      </trkpt>
      <trkpt lat="45.75209" lon="6.70865">
        <ele>1892</ele>
        <time>2013-08-27T09:48:31Z</time>
      </trkpt>
      <trkpt lat="45.75204" lon="6.70872">
        <ele>1893.5</ele>
        <time>2013-08-27T09:48:44Z</time>
      </trkpt>
      <trkpt lat="45.75198" lon="6.7088">
        <ele>1895.4</ele>
        <time>2013-08-27T09:48:57Z</time>
      </trkpt>
      <trkpt lat="45.75196" lon="6.70881">
        <ele>1896.3</ele>
        <time>2013-08-27T09:48:59Z</time>
      </trkpt>
      <trkpt lat="45.7519" lon="6.70887">
        <ele>1898.3</ele>
        <time>2013-08-27T09:49:12Z</time>
      </trkpt>
      <trkpt lat="45.75184" lon="6.70892">
        <ele>1900.2</ele>
        <time>2013-08-27T09:49:24Z</time>
      </trkpt>
      <trkpt lat="45.75178" lon="6.709">
        <ele>1901.6</ele>
        <time>2013-08-27T09:49:37Z</time>
      </trkpt>
      <trkpt lat="45.75172" lon="6.70907">
        <ele>1904</ele>
        <time>2013-08-27T09:49:50Z</time>
      </trkpt>
      <trkpt lat="45.75163" lon="6.70918">
        <ele>1906.4</ele>
        <time>2013-08-27T09:50:04Z</time>
      </trkpt>
      <trkpt lat="45.75154" lon="6.70925">
        <ele>1907.9</ele>
        <time>2013-08-27T09:50:16Z</time>
      </trkpt>
      <trkpt lat="45.75147" lon="6.70931">
        <ele>1909.8</ele>
        <time>2013-08-27T09:50:29Z</time>
      </trkpt>
      <trkpt lat="45.75135" lon="6.70944">
        <ele>1912.2</ele>
        <time>2013-08-27T09:50:45Z</time>
      </trkpt>
      <trkpt lat="45.75133" lon="6.70945">
        <ele>1911.7</ele>
        <time>2013-08-27T09:50:58Z</time>
      </trkpt>
      <trkpt lat="45.75132" lon="6.70949">
        <ele>1912.7</ele>
        <time>2013-08-27T09:51:06Z</time>
      </trkpt>
      <trkpt lat="45.75132" lon="6.70951">
        <ele>1912.2</ele>
        <time>2013-08-27T09:51:07Z</time>
      </trkpt>
      <trkpt lat="45.75131" lon="6.70953">
        <ele>1912.2</ele>
        <time>2013-08-27T09:51:08Z</time>
      </trkpt>
      <trkpt lat="45.75128" lon="6.70965">
        <ele>1913.2</ele>
        <time>2013-08-27T09:51:13Z</time>
      </trkpt>
      <trkpt lat="45.75128" lon="6.70983">
        <ele>1915.6</ele>
        <time>2013-08-27T09:51:24Z</time>
      </trkpt>
      <trkpt lat="45.75127" lon="6.70985">
        <ele>1916</ele>
        <time>2013-08-27T09:51:25Z</time>
      </trkpt>
      <trkpt lat="45.75126" lon="6.70987">
        <ele>1916</ele>
        <time>2013-08-27T09:51:26Z</time>
      </trkpt>
      <trkpt lat="45.75126" lon="6.70988">
        <ele>1916</ele>
        <time>2013-08-27T09:51:27Z</time>
      </trkpt>
      <trkpt lat="45.75125" lon="6.7099">
        <ele>1916</ele>
        <time>2013-08-27T09:51:28Z</time>
      </trkpt>
      <trkpt lat="45.75124" lon="6.70993">
        <ele>1916.5</ele>
        <time>2013-08-27T09:51:30Z</time>
      </trkpt>
      <trkpt lat="45.75123" lon="6.70994">
        <ele>1916.5</ele>
        <time>2013-08-27T09:51:31Z</time>
      </trkpt>
      <trkpt lat="45.75121" lon="6.70994">
        <ele>1916</ele>
        <time>2013-08-27T09:51:32Z</time>
      </trkpt>
      <trkpt lat="45.7512" lon="6.70995">
        <ele>1915.6</ele>
        <time>2013-08-27T09:51:33Z</time>
      </trkpt>
      <trkpt lat="45.75119" lon="6.70997">
        <ele>1916.5</ele>
        <time>2013-08-27T09:51:34Z</time>
      </trkpt>
      <trkpt lat="45.75099" lon="6.71018">
        <ele>1915.6</ele>
        <time>2013-08-27T09:51:47Z</time>
      </trkpt>
      <trkpt lat="45.7509" lon="6.71025">
        <ele>1914.1</ele>
        <time>2013-08-27T09:51:49Z</time>
      </trkpt>
      <trkpt lat="45.75084" lon="6.71028">
        <ele>1914.1</ele>
        <time>2013-08-27T09:51:50Z</time>
      </trkpt>
      <trkpt lat="45.75064" lon="6.71035">
        <ele>1913.6</ele>
        <time>2013-08-27T09:51:53Z</time>
      </trkpt>
      <trkpt lat="45.75059" lon="6.71039">
        <ele>1913.2</ele>
        <time>2013-08-27T09:51:54Z</time>
      </trkpt>
      <trkpt lat="45.75053" lon="6.71044">
        <ele>1913.2</ele>
        <time>2013-08-27T09:51:55Z</time>
      </trkpt>
      <trkpt lat="45.75049" lon="6.7105">
        <ele>1913.2</ele>
        <time>2013-08-27T09:51:56Z</time>
      </trkpt>
      <trkpt lat="45.75045" lon="6.71057">
        <ele>1912.7</ele>
        <time>2013-08-27T09:51:57Z</time>
      </trkpt>
      <trkpt lat="45.75042" lon="6.71064">
        <ele>1912.7</ele>
        <time>2013-08-27T09:51:58Z</time>
      </trkpt>
      <trkpt lat="45.7503" lon="6.71087">
        <ele>1914.6</ele>
        <time>2013-08-27T09:52:04Z</time>
      </trkpt>
      <trkpt lat="45.75024" lon="6.71093">
        <ele>1916.5</ele>
        <time>2013-08-27T09:52:09Z</time>
      </trkpt>
      <trkpt lat="45.75023" lon="6.71094">
        <ele>1916.5</ele>
        <time>2013-08-27T09:52:10Z</time>
      </trkpt>
      <trkpt lat="45.75023" lon="6.71095">
        <ele>1916.5</ele>
        <time>2013-08-27T09:52:11Z</time>
      </trkpt>
      <trkpt lat="45.75022" lon="6.71097">
        <ele>1916.5</ele>
        <time>2013-08-27T09:52:12Z</time>
      </trkpt>
      <trkpt lat="45.75022" lon="6.71099">
        <ele>1917</ele>
        <time>2013-08-27T09:52:13Z</time>
      </trkpt>
      <trkpt lat="45.75021" lon="6.71102">
        <ele>1916.5</ele>
        <time>2013-08-27T09:52:14Z</time>
      </trkpt>
      <trkpt lat="45.75021" lon="6.71105">
        <ele>1916.5</ele>
        <time>2013-08-27T09:52:15Z</time>
      </trkpt>
      <trkpt lat="45.75013" lon="6.71146">
        <ele>1916</ele>
        <time>2013-08-27T09:52:26Z</time>
      </trkpt>
      <trkpt lat="45.75009" lon="6.71156">
        <ele>1916</ele>
        <time>2013-08-27T09:52:35Z</time>
      </trkpt>
      <trkpt lat="45.75008" lon="6.71158">
        <ele>1915.1</ele>
        <time>2013-08-27T09:52:41Z</time>
      </trkpt>
      <trkpt lat="45.75008" lon="6.71158">
        <ele>1917</ele>
        <time>2013-08-27T09:52:43Z</time>
      </trkpt>
      <trkpt lat="45.75007" lon="6.71154">
        <ele>1918</ele>
        <time>2013-08-27T09:52:56Z</time>
      </trkpt>
      <trkpt lat="45.75002" lon="6.71161">
        <ele>1917.5</ele>
        <time>2013-08-27T09:53:07Z</time>
      </trkpt>
      <trkpt lat="45.75001" lon="6.71164">
        <ele>1918</ele>
        <time>2013-08-27T09:53:09Z</time>
      </trkpt>
      <trkpt lat="45.74987" lon="6.71187">
        <ele>1920.9</ele>
        <time>2013-08-27T09:53:22Z</time>
      </trkpt>
      <trkpt lat="45.74968" lon="6.71218">
        <ele>1921.8</ele>
        <time>2013-08-27T09:53:35Z</time>
      </trkpt>
      <trkpt lat="45.74949" lon="6.71249">
        <ele>1922.3</ele>
        <time>2013-08-27T09:53:47Z</time>
      </trkpt>
      <trkpt lat="45.74937" lon="6.71294">
        <ele>1922.8</ele>
        <time>2013-08-27T09:54:01Z</time>
      </trkpt>
      <trkpt lat="45.74923" lon="6.71328">
        <ele>1925.2</ele>
        <time>2013-08-27T09:54:15Z</time>
      </trkpt>
      <trkpt lat="45.74899" lon="6.71361">
        <ele>1927.6</ele>
        <time>2013-08-27T09:54:32Z</time>
      </trkpt>
      <trkpt lat="45.7488" lon="6.71395">
        <ele>1929.5</ele>
        <time>2013-08-27T09:54:46Z</time>
      </trkpt>
      <trkpt lat="45.74852" lon="6.71427">
        <ele>1930</ele>
        <time>2013-08-27T09:55:00Z</time>
      </trkpt>
      <trkpt lat="45.74838" lon="6.71431">
        <ele>1930</ele>
        <time>2013-08-27T09:55:07Z</time>
      </trkpt>
      <trkpt lat="45.74836" lon="6.71431">
        <ele>1931</ele>
        <time>2013-08-27T09:55:08Z</time>
      </trkpt>
      <trkpt lat="45.74808" lon="6.71446">
        <ele>1931.9</ele>
        <time>2013-08-27T09:55:23Z</time>
      </trkpt>
      <trkpt lat="45.74787" lon="6.71455">
        <ele>1933.4</ele>
        <time>2013-08-27T09:55:36Z</time>
      </trkpt>
      <trkpt lat="45.74771" lon="6.71463">
        <ele>1935.8</ele>
        <time>2013-08-27T09:55:47Z</time>
      </trkpt>
      <trkpt lat="45.74769" lon="6.71487">
        <ele>1936.7</ele>
        <time>2013-08-27T09:56:00Z</time>
      </trkpt>
      <trkpt lat="45.7477" lon="6.71487">
        <ele>1936.7</ele>
        <time>2013-08-27T09:56:13Z</time>
      </trkpt>
      <trkpt lat="45.74772" lon="6.71489">
        <ele>1937.7</ele>
        <time>2013-08-27T09:56:30Z</time>
      </trkpt>
      <trkpt lat="45.74776" lon="6.71492">
        <ele>1938.2</ele>
        <time>2013-08-27T09:56:42Z</time>
      </trkpt>
      <trkpt lat="45.74774" lon="6.71497">
        <ele>1940.1</ele>
        <time>2013-08-27T09:56:53Z</time>
      </trkpt>
      <trkpt lat="45.74771" lon="6.71501">
        <ele>1941</ele>
        <time>2013-08-27T09:57:05Z</time>
      </trkpt>
      <trkpt lat="45.74765" lon="6.71503">
        <ele>1943.4</ele>
        <time>2013-08-27T09:57:19Z</time>
      </trkpt>
      <trkpt lat="45.74756" lon="6.71515">
        <ele>1945.9</ele>
        <time>2013-08-27T09:57:35Z</time>
      </trkpt>
      <trkpt lat="45.74755" lon="6.71515">
        <ele>1945.9</ele>
        <time>2013-08-27T09:57:36Z</time>
      </trkpt>
      <trkpt lat="45.74746" lon="6.71518">
        <ele>1945.9</ele>
        <time>2013-08-27T09:57:44Z</time>
      </trkpt>
      <trkpt lat="45.74745" lon="6.71518">
        <ele>1946.8</ele>
        <time>2013-08-27T09:57:45Z</time>
      </trkpt>
      <trkpt lat="45.74735" lon="6.71522">
        <ele>1946.3</ele>
        <time>2013-08-27T09:57:53Z</time>
      </trkpt>
      <trkpt lat="45.74735" lon="6.71524">
        <ele>1946.3</ele>
        <time>2013-08-27T09:57:54Z</time>
      </trkpt>
      <trkpt lat="45.74728" lon="6.71531">
        <ele>1947.8</ele>
        <time>2013-08-27T09:58:07Z</time>
      </trkpt>
      <trkpt lat="45.74722" lon="6.71541">
        <ele>1950.7</ele>
        <time>2013-08-27T09:58:19Z</time>
      </trkpt>
      <trkpt lat="45.7472" lon="6.71557">
        <ele>1952.1</ele>
        <time>2013-08-27T09:58:33Z</time>
      </trkpt>
      <trkpt lat="45.74718" lon="6.7156">
        <ele>1953.1</ele>
        <time>2013-08-27T09:58:39Z</time>
      </trkpt>
      <trkpt lat="45.74711" lon="6.71577">
        <ele>1953.5</ele>
        <time>2013-08-27T09:58:54Z</time>
      </trkpt>
      <trkpt lat="45.74706" lon="6.71593">
        <ele>1955.9</ele>
        <time>2013-08-27T09:59:09Z</time>
      </trkpt>
      <trkpt lat="45.74705" lon="6.71597">
        <ele>1955.9</ele>
        <time>2013-08-27T09:59:15Z</time>
      </trkpt>
      <trkpt lat="45.74703" lon="6.71605">
        <ele>1957.4</ele>
        <time>2013-08-27T09:59:28Z</time>
      </trkpt>
      <trkpt lat="45.74697" lon="6.71618">
        <ele>1959.3</ele>
        <time>2013-08-27T09:59:44Z</time>
      </trkpt>
      <trkpt lat="45.74695" lon="6.7162">
        <ele>1959.3</ele>
        <time>2013-08-27T09:59:46Z</time>
      </trkpt>
      <trkpt lat="45.74695" lon="6.71622">
        <ele>1959.8</ele>
        <time>2013-08-27T09:59:47Z</time>
      </trkpt>
      <trkpt lat="45.74694" lon="6.71624">
        <ele>1959.8</ele>
        <time>2013-08-27T09:59:48Z</time>
      </trkpt>
      <trkpt lat="45.74695" lon="6.71639">
        <ele>1960.8</ele>
        <time>2013-08-27T10:00:02Z</time>
      </trkpt>
      <trkpt lat="45.74691" lon="6.71646">
        <ele>1962.7</ele>
        <time>2013-08-27T10:00:15Z</time>
      </trkpt>
      <trkpt lat="45.74687" lon="6.71659">
        <ele>1965.1</ele>
        <time>2013-08-27T10:00:27Z</time>
      </trkpt>
      <trkpt lat="45.74686" lon="6.7166">
        <ele>1965.1</ele>
        <time>2013-08-27T10:00:28Z</time>
      </trkpt>
      <trkpt lat="45.74679" lon="6.71674">
        <ele>1967</ele>
        <time>2013-08-27T10:00:42Z</time>
      </trkpt>
      <trkpt lat="45.74673" lon="6.71687">
        <ele>1968</ele>
        <time>2013-08-27T10:00:55Z</time>
      </trkpt>
      <trkpt lat="45.74672" lon="6.71698">
        <ele>1968.4</ele>
        <time>2013-08-27T10:01:04Z</time>
      </trkpt>
      <trkpt lat="45.74668" lon="6.71709">
        <ele>1970.4</ele>
        <time>2013-08-27T10:01:16Z</time>
      </trkpt>
      <trkpt lat="45.74663" lon="6.71723">
        <ele>1972.3</ele>
        <time>2013-08-27T10:01:30Z</time>
      </trkpt>
      <trkpt lat="45.74657" lon="6.71732">
        <ele>1973.7</ele>
        <time>2013-08-27T10:01:42Z</time>
      </trkpt>
      <trkpt lat="45.74657" lon="6.71744">
        <ele>1975.2</ele>
        <time>2013-08-27T10:01:55Z</time>
      </trkpt>
      <trkpt lat="45.74659" lon="6.71761">
        <ele>1976.6</ele>
        <time>2013-08-27T10:02:07Z</time>
      </trkpt>
      <trkpt lat="45.7466" lon="6.71762">
        <ele>1976.6</ele>
        <time>2013-08-27T10:02:08Z</time>
      </trkpt>
      <trkpt lat="45.7466" lon="6.71764">
        <ele>1976.1</ele>
        <time>2013-08-27T10:02:09Z</time>
      </trkpt>
      <trkpt lat="45.74661" lon="6.71765">
        <ele>1976.6</ele>
        <time>2013-08-27T10:02:10Z</time>
      </trkpt>
      <trkpt lat="45.74661" lon="6.71767">
        <ele>1976.1</ele>
        <time>2013-08-27T10:02:11Z</time>
      </trkpt>
      <trkpt lat="45.74661" lon="6.71768">
        <ele>1976.6</ele>
        <time>2013-08-27T10:02:12Z</time>
      </trkpt>
      <trkpt lat="45.74662" lon="6.7177">
        <ele>1976.1</ele>
        <time>2013-08-27T10:02:13Z</time>
      </trkpt>
      <trkpt lat="45.74665" lon="6.71784">
        <ele>1977.6</ele>
        <time>2013-08-27T10:02:26Z</time>
      </trkpt>
      <trkpt lat="45.74666" lon="6.71797">
        <ele>1979</ele>
        <time>2013-08-27T10:02:39Z</time>
      </trkpt>
      <trkpt lat="45.74665" lon="6.71813">
        <ele>1980.5</ele>
        <time>2013-08-27T10:02:53Z</time>
      </trkpt>
      <trkpt lat="45.74658" lon="6.71806">
        <ele>1982.4</ele>
        <time>2013-08-27T10:03:07Z</time>
      </trkpt>
      <trkpt lat="45.74658" lon="6.71805">
        <ele>1982.4</ele>
        <time>2013-08-27T10:03:08Z</time>
      </trkpt>
      <trkpt lat="45.74648" lon="6.71795">
        <ele>1984.3</ele>
        <time>2013-08-27T10:03:24Z</time>
      </trkpt>
      <trkpt lat="45.74638" lon="6.71784">
        <ele>1986.7</ele>
        <time>2013-08-27T10:03:40Z</time>
      </trkpt>
      <trkpt lat="45.74629" lon="6.71769">
        <ele>1987.7</ele>
        <time>2013-08-27T10:03:55Z</time>
      </trkpt>
      <trkpt lat="45.74623" lon="6.71763">
        <ele>1990.6</ele>
        <time>2013-08-27T10:04:07Z</time>
      </trkpt>
      <trkpt lat="45.74614" lon="6.71753">
        <ele>1993.4</ele>
        <time>2013-08-27T10:04:24Z</time>
      </trkpt>
      <trkpt lat="45.74608" lon="6.71747">
        <ele>1996.3</ele>
        <time>2013-08-27T10:04:40Z</time>
      </trkpt>
      <trkpt lat="45.74603" lon="6.71738">
        <ele>1998.2</ele>
        <time>2013-08-27T10:04:54Z</time>
      </trkpt>
      <trkpt lat="45.74597" lon="6.71731">
        <ele>1999.7</ele>
        <time>2013-08-27T10:05:07Z</time>
      </trkpt>
      <trkpt lat="45.74587" lon="6.71725">
        <ele>2002.6</ele>
        <time>2013-08-27T10:05:23Z</time>
      </trkpt>
      <trkpt lat="45.74584" lon="6.71721">
        <ele>2004.5</ele>
        <time>2013-08-27T10:05:36Z</time>
      </trkpt>
      <trkpt lat="45.74578" lon="6.71718">
        <ele>2005.9</ele>
        <time>2013-08-27T10:05:52Z</time>
      </trkpt>
      <trkpt lat="45.74571" lon="6.71713">
        <ele>2008.3</ele>
        <time>2013-08-27T10:06:06Z</time>
      </trkpt>
      <trkpt lat="45.74567" lon="6.71711">
        <ele>2010.7</ele>
        <time>2013-08-27T10:06:20Z</time>
      </trkpt>
      <trkpt lat="45.7456" lon="6.71707">
        <ele>2012.7</ele>
        <time>2013-08-27T10:06:37Z</time>
      </trkpt>
      <trkpt lat="45.74555" lon="6.71702">
        <ele>2015.1</ele>
        <time>2013-08-27T10:06:51Z</time>
      </trkpt>
      <trkpt lat="45.74553" lon="6.71707">
        <ele>2016.5</ele>
        <time>2013-08-27T10:07:02Z</time>
      </trkpt>
      <trkpt lat="45.74548" lon="6.71702">
        <ele>2018.4</ele>
        <time>2013-08-27T10:07:16Z</time>
      </trkpt>
      <trkpt lat="45.74541" lon="6.71704">
        <ele>2020.8</ele>
        <time>2013-08-27T10:07:31Z</time>
      </trkpt>
      <trkpt lat="45.74536" lon="6.71707">
        <ele>2022.8</ele>
        <time>2013-08-27T10:07:44Z</time>
      </trkpt>
      <trkpt lat="45.74532" lon="6.71702">
        <ele>2024.2</ele>
        <time>2013-08-27T10:07:56Z</time>
      </trkpt>
      <trkpt lat="45.74528" lon="6.71697">
        <ele>2026.1</ele>
        <time>2013-08-27T10:08:10Z</time>
      </trkpt>
      <trkpt lat="45.74524" lon="6.71695">
        <ele>2028</ele>
        <time>2013-08-27T10:08:21Z</time>
      </trkpt>
      <trkpt lat="45.74523" lon="6.71686">
        <ele>2029.5</ele>
        <time>2013-08-27T10:08:35Z</time>
      </trkpt>
      <trkpt lat="45.74521" lon="6.7168">
        <ele>2031.4</ele>
        <time>2013-08-27T10:08:48Z</time>
      </trkpt>
      <trkpt lat="45.74516" lon="6.71674">
        <ele>2033.3</ele>
        <time>2013-08-27T10:09:02Z</time>
      </trkpt>
      <trkpt lat="45.74512" lon="6.71666">
        <ele>2035.7</ele>
        <time>2013-08-27T10:09:17Z</time>
      </trkpt>
      <trkpt lat="45.74508" lon="6.71662">
        <ele>2038.6</ele>
        <time>2013-08-27T10:09:31Z</time>
      </trkpt>
      <trkpt lat="45.74503" lon="6.71658">
        <ele>2040.5</ele>
        <time>2013-08-27T10:09:45Z</time>
      </trkpt>
      <trkpt lat="45.74499" lon="6.71651">
        <ele>2041.5</ele>
        <time>2013-08-27T10:09:59Z</time>
      </trkpt>
      <trkpt lat="45.74498" lon="6.71651">
        <ele>2041.5</ele>
        <time>2013-08-27T10:10:00Z</time>
      </trkpt>
      <trkpt lat="45.74493" lon="6.71652">
        <ele>2042.9</ele>
        <time>2013-08-27T10:10:12Z</time>
      </trkpt>
      <trkpt lat="45.7449" lon="6.71643">
        <ele>2044.4</ele>
        <time>2013-08-27T10:10:26Z</time>
      </trkpt>
      <trkpt lat="45.74484" lon="6.71635">
        <ele>2046.3</ele>
        <time>2013-08-27T10:10:39Z</time>
      </trkpt>
      <trkpt lat="45.7448" lon="6.7162">
        <ele>2047.3</ele>
        <time>2013-08-27T10:10:55Z</time>
      </trkpt>
      <trkpt lat="45.74474" lon="6.71609">
        <ele>2050.6</ele>
        <time>2013-08-27T10:11:12Z</time>
      </trkpt>
      <trkpt lat="45.74466" lon="6.71604">
        <ele>2052.1</ele>
        <time>2013-08-27T10:11:26Z</time>
      </trkpt>
      <trkpt lat="45.74454" lon="6.71601">
        <ele>2055</ele>
        <time>2013-08-27T10:11:42Z</time>
      </trkpt>
      <trkpt lat="45.74442" lon="6.71599">
        <ele>2056.4</ele>
        <time>2013-08-27T10:11:58Z</time>
      </trkpt>
      <trkpt lat="45.74433" lon="6.71599">
        <ele>2058.8</ele>
        <time>2013-08-27T10:12:10Z</time>
      </trkpt>
      <trkpt lat="45.74425" lon="6.71596">
        <ele>2061.7</ele>
        <time>2013-08-27T10:12:24Z</time>
      </trkpt>
      <trkpt lat="45.74416" lon="6.71592">
        <ele>2062.7</ele>
        <time>2013-08-27T10:12:38Z</time>
      </trkpt>
      <trkpt lat="45.74409" lon="6.7159">
        <ele>2064.1</ele>
        <time>2013-08-27T10:12:53Z</time>
      </trkpt>
      <trkpt lat="45.74402" lon="6.71582">
        <ele>2067</ele>
        <time>2013-08-27T10:13:08Z</time>
      </trkpt>
      <trkpt lat="45.74394" lon="6.71573">
        <ele>2068.4</ele>
        <time>2013-08-27T10:13:23Z</time>
      </trkpt>
      <trkpt lat="45.74386" lon="6.7157">
        <ele>2070.8</ele>
        <time>2013-08-27T10:13:37Z</time>
      </trkpt>
      <trkpt lat="45.74377" lon="6.71568">
        <ele>2071.8</ele>
        <time>2013-08-27T10:13:51Z</time>
      </trkpt>
      <trkpt lat="45.7437" lon="6.71562">
        <ele>2073.2</ele>
        <time>2013-08-27T10:14:06Z</time>
      </trkpt>
      <trkpt lat="45.74358" lon="6.7156">
        <ele>2075.1</ele>
        <time>2013-08-27T10:14:22Z</time>
      </trkpt>
      <trkpt lat="45.74355" lon="6.7156">
        <ele>2075.1</ele>
        <time>2013-08-27T10:14:34Z</time>
      </trkpt>
      <trkpt lat="45.74354" lon="6.71558">
        <ele>2074.2</ele>
        <time>2013-08-27T10:14:50Z</time>
      </trkpt>
      <trkpt lat="45.74348" lon="6.71558">
        <ele>2075.1</ele>
        <time>2013-08-27T10:15:12Z</time>
      </trkpt>
      <trkpt lat="45.7433" lon="6.7156">
        <ele>2077.1</ele>
        <time>2013-08-27T10:15:23Z</time>
      </trkpt>
      <trkpt lat="45.74328" lon="6.71559">
        <ele>2076.6</ele>
        <time>2013-08-27T10:15:24Z</time>
      </trkpt>
      <trkpt lat="45.74305" lon="6.71551">
        <ele>2078.5</ele>
        <time>2013-08-27T10:15:37Z</time>
      </trkpt>
      <trkpt lat="45.74301" lon="6.7155">
        <ele>2078.5</ele>
        <time>2013-08-27T10:15:40Z</time>
      </trkpt>
      <trkpt lat="45.743" lon="6.71549">
        <ele>2079.5</ele>
        <time>2013-08-27T10:15:41Z</time>
      </trkpt>
      <trkpt lat="45.74298" lon="6.71548">
        <ele>2079.5</ele>
        <time>2013-08-27T10:15:42Z</time>
      </trkpt>
      <trkpt lat="45.74297" lon="6.71547">
        <ele>2079</ele>
        <time>2013-08-27T10:15:43Z</time>
      </trkpt>
      <trkpt lat="45.74295" lon="6.71547">
        <ele>2079.5</ele>
        <time>2013-08-27T10:15:44Z</time>
      </trkpt>
      <trkpt lat="45.74294" lon="6.71546">
        <ele>2080</ele>
        <time>2013-08-27T10:15:45Z</time>
      </trkpt>
      <trkpt lat="45.74292" lon="6.71545">
        <ele>2080</ele>
        <time>2013-08-27T10:15:46Z</time>
      </trkpt>
      <trkpt lat="45.74291" lon="6.71543">
        <ele>2080</ele>
        <time>2013-08-27T10:15:47Z</time>
      </trkpt>
      <trkpt lat="45.7429" lon="6.71541">
        <ele>2080.4</ele>
        <time>2013-08-27T10:15:48Z</time>
      </trkpt>
      <trkpt lat="45.74289" lon="6.71539">
        <ele>2080</ele>
        <time>2013-08-27T10:15:49Z</time>
      </trkpt>
      <trkpt lat="45.74287" lon="6.71538">
        <ele>2080</ele>
        <time>2013-08-27T10:15:50Z</time>
      </trkpt>
      <trkpt lat="45.74285" lon="6.71538">
        <ele>2080</ele>
        <time>2013-08-27T10:15:51Z</time>
      </trkpt>
      <trkpt lat="45.74282" lon="6.71537">
        <ele>2080</ele>
        <time>2013-08-27T10:15:52Z</time>
      </trkpt>
      <trkpt lat="45.7428" lon="6.71537">
        <ele>2079.5</ele>
        <time>2013-08-27T10:15:53Z</time>
      </trkpt>
      <trkpt lat="45.74277" lon="6.71536">
        <ele>2079.5</ele>
        <time>2013-08-27T10:15:54Z</time>
      </trkpt>
      <trkpt lat="45.74275" lon="6.71535">
        <ele>2079.5</ele>
        <time>2013-08-27T10:15:55Z</time>
      </trkpt>
      <trkpt lat="45.74273" lon="6.71533">
        <ele>2080</ele>
        <time>2013-08-27T10:15:56Z</time>
      </trkpt>
      <trkpt lat="45.74272" lon="6.71531">
        <ele>2080</ele>
        <time>2013-08-27T10:15:57Z</time>
      </trkpt>
      <trkpt lat="45.74271" lon="6.71528">
        <ele>2079.5</ele>
        <time>2013-08-27T10:15:58Z</time>
      </trkpt>
      <trkpt lat="45.74262" lon="6.71505">
        <ele>2081.9</ele>
        <time>2013-08-27T10:16:10Z</time>
      </trkpt>
      <trkpt lat="45.7426" lon="6.71502">
        <ele>2082.4</ele>
        <time>2013-08-27T10:16:12Z</time>
      </trkpt>
      <trkpt lat="45.74259" lon="6.715">
        <ele>2082.4</ele>
        <time>2013-08-27T10:16:13Z</time>
      </trkpt>
      <trkpt lat="45.74258" lon="6.71499">
        <ele>2082.8</ele>
        <time>2013-08-27T10:16:14Z</time>
      </trkpt>
      <trkpt lat="45.74256" lon="6.71498">
        <ele>2081.9</ele>
        <time>2013-08-27T10:16:15Z</time>
      </trkpt>
      <trkpt lat="45.74255" lon="6.71497">
        <ele>2082.4</ele>
        <time>2013-08-27T10:16:16Z</time>
      </trkpt>
      <trkpt lat="45.7424" lon="6.71483">
        <ele>2084.3</ele>
        <time>2013-08-27T10:16:28Z</time>
      </trkpt>
      <trkpt lat="45.74238" lon="6.71481">
        <ele>2085.2</ele>
        <time>2013-08-27T10:16:29Z</time>
      </trkpt>
      <trkpt lat="45.74238" lon="6.71479">
        <ele>2084.8</ele>
        <time>2013-08-27T10:16:30Z</time>
      </trkpt>
      <trkpt lat="45.74237" lon="6.71477">
        <ele>2085.2</ele>
        <time>2013-08-27T10:16:31Z</time>
      </trkpt>
      <trkpt lat="45.74236" lon="6.71476">
        <ele>2085.7</ele>
        <time>2013-08-27T10:16:32Z</time>
      </trkpt>
      <trkpt lat="45.74235" lon="6.71475">
        <ele>2085.2</ele>
        <time>2013-08-27T10:16:33Z</time>
      </trkpt>
      <trkpt lat="45.74233" lon="6.71474">
        <ele>2085.7</ele>
        <time>2013-08-27T10:16:34Z</time>
      </trkpt>
      <trkpt lat="45.74218" lon="6.71461">
        <ele>2088.6</ele>
        <time>2013-08-27T10:16:47Z</time>
      </trkpt>
      <trkpt lat="45.74196" lon="6.71452">
        <ele>2091</ele>
        <time>2013-08-27T10:17:04Z</time>
      </trkpt>
      <trkpt lat="45.74195" lon="6.7145">
        <ele>2091</ele>
        <time>2013-08-27T10:17:05Z</time>
      </trkpt>
      <trkpt lat="45.74195" lon="6.71448">
        <ele>2091</ele>
        <time>2013-08-27T10:17:06Z</time>
      </trkpt>
      <trkpt lat="45.74193" lon="6.71447">
        <ele>2090.5</ele>
        <time>2013-08-27T10:17:11Z</time>
      </trkpt>
      <trkpt lat="45.7419" lon="6.71442">
        <ele>2091.5</ele>
        <time>2013-08-27T10:17:22Z</time>
      </trkpt>
      <trkpt lat="45.74188" lon="6.71439">
        <ele>2092</ele>
        <time>2013-08-27T10:17:29Z</time>
      </trkpt>
      <trkpt lat="45.74187" lon="6.71438">
        <ele>2091.5</ele>
        <time>2013-08-27T10:17:30Z</time>
      </trkpt>
      <trkpt lat="45.74186" lon="6.71437">
        <ele>2092</ele>
        <time>2013-08-27T10:17:31Z</time>
      </trkpt>
      <trkpt lat="45.74162" lon="6.71413">
        <ele>2094.4</ele>
        <time>2013-08-27T10:17:45Z</time>
      </trkpt>
      <trkpt lat="45.74139" lon="6.71396">
        <ele>2093.9</ele>
        <time>2013-08-27T10:17:57Z</time>
      </trkpt>
      <trkpt lat="45.74131" lon="6.7139">
        <ele>2095.8</ele>
        <time>2013-08-27T10:18:03Z</time>
      </trkpt>
      <trkpt lat="45.7413" lon="6.71389">
        <ele>2095.8</ele>
        <time>2013-08-27T10:18:04Z</time>
      </trkpt>
      <trkpt lat="45.74129" lon="6.71388">
        <ele>2096.3</ele>
        <time>2013-08-27T10:18:05Z</time>
      </trkpt>
      <trkpt lat="45.74128" lon="6.71386">
        <ele>2096.3</ele>
        <time>2013-08-27T10:18:06Z</time>
      </trkpt>
      <trkpt lat="45.74126" lon="6.71386">
        <ele>2096.8</ele>
        <time>2013-08-27T10:18:07Z</time>
      </trkpt>
      <trkpt lat="45.74125" lon="6.71385">
        <ele>2096.8</ele>
        <time>2013-08-27T10:18:08Z</time>
      </trkpt>
      <trkpt lat="45.74123" lon="6.71385">
        <ele>2096.8</ele>
        <time>2013-08-27T10:18:09Z</time>
      </trkpt>
      <trkpt lat="45.74123" lon="6.71387">
        <ele>2097.7</ele>
        <time>2013-08-27T10:18:23Z</time>
      </trkpt>
      <trkpt lat="45.74118" lon="6.71383">
        <ele>2098.7</ele>
        <time>2013-08-27T10:18:33Z</time>
      </trkpt>
      <trkpt lat="45.74116" lon="6.7138">
        <ele>2099.2</ele>
        <time>2013-08-27T10:18:36Z</time>
      </trkpt>
      <trkpt lat="45.74106" lon="6.71379">
        <ele>2101.6</ele>
        <time>2013-08-27T10:18:47Z</time>
      </trkpt>
      <trkpt lat="45.74097" lon="6.71376">
        <ele>2103</ele>
        <time>2013-08-27T10:19:01Z</time>
      </trkpt>
      <trkpt lat="45.74094" lon="6.71377">
        <ele>2103</ele>
        <time>2013-08-27T10:19:18Z</time>
      </trkpt>
      <trkpt lat="45.74083" lon="6.7137">
        <ele>2104</ele>
        <time>2013-08-27T10:19:31Z</time>
      </trkpt>
      <trkpt lat="45.74073" lon="6.71363">
        <ele>2106.4</ele>
        <time>2013-08-27T10:19:47Z</time>
      </trkpt>
      <trkpt lat="45.74066" lon="6.71352">
        <ele>2107.8</ele>
        <time>2013-08-27T10:20:00Z</time>
      </trkpt>
      <trkpt lat="45.74062" lon="6.71335">
        <ele>2109.3</ele>
        <time>2013-08-27T10:20:17Z</time>
      </trkpt>
      <trkpt lat="45.74053" lon="6.71325">
        <ele>2111.2</ele>
        <time>2013-08-27T10:20:31Z</time>
      </trkpt>
      <trkpt lat="45.74047" lon="6.71314">
        <ele>2112.6</ele>
        <time>2013-08-27T10:20:45Z</time>
      </trkpt>
      <trkpt lat="45.74043" lon="6.71314">
        <ele>2113.6</ele>
        <time>2013-08-27T10:20:50Z</time>
      </trkpt>
      <trkpt lat="45.7404" lon="6.71312">
        <ele>2114.1</ele>
        <time>2013-08-27T10:20:56Z</time>
      </trkpt>
      <trkpt lat="45.7403" lon="6.71303">
        <ele>2115.5</ele>
        <time>2013-08-27T10:21:11Z</time>
      </trkpt>
      <trkpt lat="45.74019" lon="6.71298">
        <ele>2117</ele>
        <time>2013-08-27T10:21:24Z</time>
      </trkpt>
      <trkpt lat="45.7401" lon="6.71295">
        <ele>2118.4</ele>
        <time>2013-08-27T10:21:36Z</time>
      </trkpt>
      <trkpt lat="45.74003" lon="6.71282">
        <ele>2118.4</ele>
        <time>2013-08-27T10:21:51Z</time>
      </trkpt>
      <trkpt lat="45.73997" lon="6.71275">
        <ele>2119.8</ele>
        <time>2013-08-27T10:22:03Z</time>
      </trkpt>
      <trkpt lat="45.73991" lon="6.71268">
        <ele>2121.8</ele>
        <time>2013-08-27T10:22:17Z</time>
      </trkpt>
      <trkpt lat="45.73981" lon="6.71263">
        <ele>2123.2</ele>
        <time>2013-08-27T10:22:31Z</time>
      </trkpt>
      <trkpt lat="45.73971" lon="6.7126">
        <ele>2125.6</ele>
        <time>2013-08-27T10:22:48Z</time>
      </trkpt>
      <trkpt lat="45.7397" lon="6.71259">
        <ele>2126.1</ele>
        <time>2013-08-27T10:22:50Z</time>
      </trkpt>
      <trkpt lat="45.7396" lon="6.71253">
        <ele>2127.1</ele>
        <time>2013-08-27T10:23:06Z</time>
      </trkpt>
      <trkpt lat="45.73955" lon="6.71242">
        <ele>2128.5</ele>
        <time>2013-08-27T10:23:20Z</time>
      </trkpt>
      <trkpt lat="45.73951" lon="6.71235">
        <ele>2129.9</ele>
        <time>2013-08-27T10:23:33Z</time>
      </trkpt>
      <trkpt lat="45.73948" lon="6.71227">
        <ele>2131.4</ele>
        <time>2013-08-27T10:23:45Z</time>
      </trkpt>
      <trkpt lat="45.73944" lon="6.71218">
        <ele>2132.8</ele>
        <time>2013-08-27T10:23:58Z</time>
      </trkpt>
      <trkpt lat="45.7394" lon="6.71211">
        <ele>2134.7</ele>
        <time>2013-08-27T10:24:12Z</time>
      </trkpt>
      <trkpt lat="45.73942" lon="6.71209">
        <ele>2135.7</ele>
        <time>2013-08-27T10:24:17Z</time>
      </trkpt>
      <trkpt lat="45.73938" lon="6.71206">
        <ele>2137.6</ele>
        <time>2013-08-27T10:24:32Z</time>
      </trkpt>
      <trkpt lat="45.73935" lon="6.71201">
        <ele>2140</ele>
        <time>2013-08-27T10:24:46Z</time>
      </trkpt>
      <trkpt lat="45.7393" lon="6.71195">
        <ele>2142</ele>
        <time>2013-08-27T10:25:02Z</time>
      </trkpt>
      <trkpt lat="45.73932" lon="6.71188">
        <ele>2143.9</ele>
        <time>2013-08-27T10:25:14Z</time>
      </trkpt>
      <trkpt lat="45.73926" lon="6.71187">
        <ele>2144.8</ele>
        <time>2013-08-27T10:25:26Z</time>
      </trkpt>
      <trkpt lat="45.73922" lon="6.71183">
        <ele>2146.3</ele>
        <time>2013-08-27T10:25:38Z</time>
      </trkpt>
      <trkpt lat="45.73911" lon="6.71176">
        <ele>2148.2</ele>
        <time>2013-08-27T10:25:55Z</time>
      </trkpt>
      <trkpt lat="45.7391" lon="6.71174">
        <ele>2148.2</ele>
        <time>2013-08-27T10:25:58Z</time>
      </trkpt>
      <trkpt lat="45.73901" lon="6.71165">
        <ele>2150.1</ele>
        <time>2013-08-27T10:26:12Z</time>
      </trkpt>
      <trkpt lat="45.7389" lon="6.71149">
        <ele>2151.1</ele>
        <time>2013-08-27T10:26:26Z</time>
      </trkpt>
      <trkpt lat="45.73882" lon="6.71135">
        <ele>2153.5</ele>
        <time>2013-08-27T10:26:42Z</time>
      </trkpt>
      <trkpt lat="45.73874" lon="6.7113">
        <ele>2155.9</ele>
        <time>2013-08-27T10:26:55Z</time>
      </trkpt>
      <trkpt lat="45.73866" lon="6.71117">
        <ele>2157.3</ele>
        <time>2013-08-27T10:27:11Z</time>
      </trkpt>
      <trkpt lat="45.73861" lon="6.71113">
        <ele>2158.3</ele>
        <time>2013-08-27T10:27:18Z</time>
      </trkpt>
      <trkpt lat="45.73856" lon="6.71108">
        <ele>2159.3</ele>
        <time>2013-08-27T10:27:25Z</time>
      </trkpt>
      <trkpt lat="45.73851" lon="6.71104">
        <ele>2160.7</ele>
        <time>2013-08-27T10:27:36Z</time>
      </trkpt>
      <trkpt lat="45.7385" lon="6.71103">
        <ele>2161.2</ele>
        <time>2013-08-27T10:27:38Z</time>
      </trkpt>
      <trkpt lat="45.73849" lon="6.71102">
        <ele>2161.2</ele>
        <time>2013-08-27T10:27:39Z</time>
      </trkpt>
      <trkpt lat="45.73842" lon="6.71093">
        <ele>2162.1</ele>
        <time>2013-08-27T10:27:52Z</time>
      </trkpt>
      <trkpt lat="45.7384" lon="6.71091">
        <ele>2162.1</ele>
        <time>2013-08-27T10:27:56Z</time>
      </trkpt>
      <trkpt lat="45.73835" lon="6.7109">
        <ele>2164.1</ele>
        <time>2013-08-27T10:28:08Z</time>
      </trkpt>
      <trkpt lat="45.73829" lon="6.71084">
        <ele>2166.5</ele>
        <time>2013-08-27T10:28:21Z</time>
      </trkpt>
      <trkpt lat="45.73826" lon="6.71076">
        <ele>2168.4</ele>
        <time>2013-08-27T10:28:34Z</time>
      </trkpt>
      <trkpt lat="45.73828" lon="6.71071">
        <ele>2170.3</ele>
        <time>2013-08-27T10:28:48Z</time>
      </trkpt>
      <trkpt lat="45.73827" lon="6.7107">
        <ele>2171.8</ele>
        <time>2013-08-27T10:28:52Z</time>
      </trkpt>
      <trkpt lat="45.73824" lon="6.71065">
        <ele>2173.2</ele>
        <time>2013-08-27T10:29:06Z</time>
      </trkpt>
      <trkpt lat="45.7382" lon="6.71058">
        <ele>2175.1</ele>
        <time>2013-08-27T10:29:20Z</time>
      </trkpt>
      <trkpt lat="45.73818" lon="6.71051">
        <ele>2177</ele>
        <time>2013-08-27T10:29:35Z</time>
      </trkpt>
      <trkpt lat="45.73817" lon="6.71044">
        <ele>2179</ele>
        <time>2013-08-27T10:29:48Z</time>
      </trkpt>
      <trkpt lat="45.73816" lon="6.71036">
        <ele>2181.4</ele>
        <time>2013-08-27T10:30:01Z</time>
      </trkpt>
      <trkpt lat="45.73817" lon="6.71029">
        <ele>2183.3</ele>
        <time>2013-08-27T10:30:15Z</time>
      </trkpt>
      <trkpt lat="45.73814" lon="6.71025">
        <ele>2184.7</ele>
        <time>2013-08-27T10:30:28Z</time>
      </trkpt>
      <trkpt lat="45.73809" lon="6.71019">
        <ele>2186.2</ele>
        <time>2013-08-27T10:30:42Z</time>
      </trkpt>
      <trkpt lat="45.73809" lon="6.71014">
        <ele>2188.1</ele>
        <time>2013-08-27T10:30:54Z</time>
      </trkpt>
      <trkpt lat="45.73811" lon="6.7101">
        <ele>2189.1</ele>
        <time>2013-08-27T10:31:05Z</time>
      </trkpt>
      <trkpt lat="45.73811" lon="6.71005">
        <ele>2191.9</ele>
        <time>2013-08-27T10:31:20Z</time>
      </trkpt>
      <trkpt lat="45.7381" lon="6.71003">
        <ele>2192.9</ele>
        <time>2013-08-27T10:31:33Z</time>
      </trkpt>
      <trkpt lat="45.73811" lon="6.70995">
        <ele>2195.3</ele>
        <time>2013-08-27T10:31:47Z</time>
      </trkpt>
      <trkpt lat="45.73813" lon="6.70995">
        <ele>2196.8</ele>
        <time>2013-08-27T10:31:59Z</time>
      </trkpt>
      <trkpt lat="45.73817" lon="6.70998">
        <ele>2198.7</ele>
        <time>2013-08-27T10:32:14Z</time>
      </trkpt>
      <trkpt lat="45.73816" lon="6.7099">
        <ele>2200.1</ele>
        <time>2013-08-27T10:32:27Z</time>
      </trkpt>
      <trkpt lat="45.73811" lon="6.70984">
        <ele>2201.6</ele>
        <time>2013-08-27T10:32:39Z</time>
      </trkpt>
      <trkpt lat="45.73811" lon="6.70979">
        <ele>2203.5</ele>
        <time>2013-08-27T10:32:53Z</time>
      </trkpt>
      <trkpt lat="45.73816" lon="6.70978">
        <ele>2205.4</ele>
        <time>2013-08-27T10:33:01Z</time>
      </trkpt>
      <trkpt lat="45.73813" lon="6.70972">
        <ele>2206.8</ele>
        <time>2013-08-27T10:33:15Z</time>
      </trkpt>
      <trkpt lat="45.73805" lon="6.70965">
        <ele>2208.8</ele>
        <time>2013-08-27T10:33:30Z</time>
      </trkpt>
      <trkpt lat="45.73804" lon="6.70965">
        <ele>2209.3</ele>
        <time>2013-08-27T10:33:31Z</time>
      </trkpt>
      <trkpt lat="45.73802" lon="6.70962">
        <ele>2211.2</ele>
        <time>2013-08-27T10:33:43Z</time>
      </trkpt>
      <trkpt lat="45.738" lon="6.70953">
        <ele>2213.1</ele>
        <time>2013-08-27T10:33:56Z</time>
      </trkpt>
      <trkpt lat="45.73797" lon="6.7095">
        <ele>2215.5</ele>
        <time>2013-08-27T10:34:08Z</time>
      </trkpt>
      <trkpt lat="45.73791" lon="6.70952">
        <ele>2216.9</ele>
        <time>2013-08-27T10:34:20Z</time>
      </trkpt>
      <trkpt lat="45.73789" lon="6.70946">
        <ele>2218.4</ele>
        <time>2013-08-27T10:34:34Z</time>
      </trkpt>
      <trkpt lat="45.73788" lon="6.70939">
        <ele>2220.3</ele>
        <time>2013-08-27T10:34:45Z</time>
      </trkpt>
      <trkpt lat="45.73784" lon="6.70938">
        <ele>2221.7</ele>
        <time>2013-08-27T10:34:58Z</time>
      </trkpt>
      <trkpt lat="45.7378" lon="6.7093">
        <ele>2224.2</ele>
        <time>2013-08-27T10:35:14Z</time>
      </trkpt>
      <trkpt lat="45.73776" lon="6.70924">
        <ele>2227.5</ele>
        <time>2013-08-27T10:35:30Z</time>
      </trkpt>
      <trkpt lat="45.73769" lon="6.70919">
        <ele>2229</ele>
        <time>2013-08-27T10:35:43Z</time>
      </trkpt>
      <trkpt lat="45.73766" lon="6.70911">
        <ele>2231.8</ele>
        <time>2013-08-27T10:35:59Z</time>
      </trkpt>
      <trkpt lat="45.73763" lon="6.70901">
        <ele>2233.3</ele>
        <time>2013-08-27T10:36:13Z</time>
      </trkpt>
      <trkpt lat="45.73758" lon="6.7089">
        <ele>2235.7</ele>
        <time>2013-08-27T10:36:27Z</time>
      </trkpt>
      <trkpt lat="45.7375" lon="6.70884">
        <ele>2237.6</ele>
        <time>2013-08-27T10:36:41Z</time>
      </trkpt>
      <trkpt lat="45.73746" lon="6.70878">
        <ele>2239.5</ele>
        <time>2013-08-27T10:36:52Z</time>
      </trkpt>
      <trkpt lat="45.73745" lon="6.70873">
        <ele>2241</ele>
        <time>2013-08-27T10:37:03Z</time>
      </trkpt>
      <trkpt lat="45.73752" lon="6.70865">
        <ele>2242.9</ele>
        <time>2013-08-27T10:37:15Z</time>
      </trkpt>
      <trkpt lat="45.73753" lon="6.70861">
        <ele>2243.9</ele>
        <time>2013-08-27T10:37:20Z</time>
      </trkpt>
      <trkpt lat="45.73749" lon="6.70854">
        <ele>2246.3</ele>
        <time>2013-08-27T10:37:32Z</time>
      </trkpt>
      <trkpt lat="45.73746" lon="6.70845">
        <ele>2248.2</ele>
        <time>2013-08-27T10:37:42Z</time>
      </trkpt>
      <trkpt lat="45.73745" lon="6.70844">
        <ele>2247.7</ele>
        <time>2013-08-27T10:37:43Z</time>
      </trkpt>
      <trkpt lat="45.7374" lon="6.7084">
        <ele>2249.1</ele>
        <time>2013-08-27T10:37:55Z</time>
      </trkpt>
      <trkpt lat="45.73734" lon="6.70836">
        <ele>2252</ele>
        <time>2013-08-27T10:38:08Z</time>
      </trkpt>
      <trkpt lat="45.73729" lon="6.70829">
        <ele>2254</ele>
        <time>2013-08-27T10:38:21Z</time>
      </trkpt>
      <trkpt lat="45.73723" lon="6.7082">
        <ele>2256.4</ele>
        <time>2013-08-27T10:38:34Z</time>
      </trkpt>
      <trkpt lat="45.73717" lon="6.70814">
        <ele>2258.3</ele>
        <time>2013-08-27T10:38:45Z</time>
      </trkpt>
      <trkpt lat="45.73713" lon="6.70809">
        <ele>2259.7</ele>
        <time>2013-08-27T10:38:58Z</time>
      </trkpt>
      <trkpt lat="45.73706" lon="6.70803">
        <ele>2262.6</ele>
        <time>2013-08-27T10:39:12Z</time>
      </trkpt>
      <trkpt lat="45.73701" lon="6.70801">
        <ele>2268.4</ele>
        <time>2013-08-27T10:39:28Z</time>
      </trkpt>
      <trkpt lat="45.73701" lon="6.70801">
        <ele>2265</ele>
        <time>2013-08-27T10:39:29Z</time>
      </trkpt>
      <trkpt lat="45.737" lon="6.70797">
        <ele>2266</ele>
        <time>2013-08-27T10:39:40Z</time>
      </trkpt>
      <trkpt lat="45.73694" lon="6.708">
        <ele>2267.9</ele>
        <time>2013-08-27T10:39:47Z</time>
      </trkpt>
      <trkpt lat="45.73691" lon="6.70794">
        <ele>2270.3</ele>
        <time>2013-08-27T10:39:59Z</time>
      </trkpt>
      <trkpt lat="45.73688" lon="6.70791">
        <ele>2272.2</ele>
        <time>2013-08-27T10:40:11Z</time>
      </trkpt>
      <trkpt lat="45.73689" lon="6.70789">
        <ele>2273.2</ele>
        <time>2013-08-27T10:40:12Z</time>
      </trkpt>
      <trkpt lat="45.73689" lon="6.70786">
        <ele>2272.7</ele>
        <time>2013-08-27T10:40:14Z</time>
      </trkpt>
      <trkpt lat="45.73683" lon="6.70781">
        <ele>2276.1</ele>
        <time>2013-08-27T10:40:27Z</time>
      </trkpt>
      <trkpt lat="45.73675" lon="6.70778">
        <ele>2278</ele>
        <time>2013-08-27T10:40:40Z</time>
      </trkpt>
      <trkpt lat="45.73665" lon="6.70779">
        <ele>2280.9</ele>
        <time>2013-08-27T10:40:55Z</time>
      </trkpt>
      <trkpt lat="45.73658" lon="6.70776">
        <ele>2283.3</ele>
        <time>2013-08-27T10:41:07Z</time>
      </trkpt>
      <trkpt lat="45.73651" lon="6.70774">
        <ele>2285.2</ele>
        <time>2013-08-27T10:41:19Z</time>
      </trkpt>
      <trkpt lat="45.73644" lon="6.70773">
        <ele>2288.6</ele>
        <time>2013-08-27T10:41:31Z</time>
      </trkpt>
      <trkpt lat="45.73637" lon="6.70767">
        <ele>2290.5</ele>
        <time>2013-08-27T10:41:43Z</time>
      </trkpt>
      <trkpt lat="45.73633" lon="6.70757">
        <ele>2292.4</ele>
        <time>2013-08-27T10:41:54Z</time>
      </trkpt>
      <trkpt lat="45.73629" lon="6.7075">
        <ele>2295.8</ele>
        <time>2013-08-27T10:42:08Z</time>
      </trkpt>
      <trkpt lat="45.73623" lon="6.70748">
        <ele>2298.7</ele>
        <time>2013-08-27T10:42:21Z</time>
      </trkpt>
      <trkpt lat="45.73615" lon="6.70747">
        <ele>2301.1</ele>
        <time>2013-08-27T10:42:34Z</time>
      </trkpt>
      <trkpt lat="45.73614" lon="6.70741">
        <ele>2300.6</ele>
        <time>2013-08-27T10:42:46Z</time>
      </trkpt>
      <trkpt lat="45.73612" lon="6.70741">
        <ele>2301.5</ele>
        <time>2013-08-27T10:43:22Z</time>
      </trkpt>
      <trkpt lat="45.7361" lon="6.70742">
        <ele>2301.5</ele>
        <time>2013-08-27T10:43:36Z</time>
      </trkpt>
      <trkpt lat="45.73602" lon="6.70738">
        <ele>2303.5</ele>
        <time>2013-08-27T10:43:52Z</time>
      </trkpt>
      <trkpt lat="45.73596" lon="6.7073">
        <ele>2305.9</ele>
        <time>2013-08-27T10:44:07Z</time>
      </trkpt>
      <trkpt lat="45.73594" lon="6.70725">
        <ele>2308.3</ele>
        <time>2013-08-27T10:44:21Z</time>
      </trkpt>
      <trkpt lat="45.73588" lon="6.70721">
        <ele>2309.7</ele>
        <time>2013-08-27T10:44:33Z</time>
      </trkpt>
      <trkpt lat="45.73581" lon="6.70713">
        <ele>2312.1</ele>
        <time>2013-08-27T10:44:47Z</time>
      </trkpt>
      <trkpt lat="45.73574" lon="6.70704">
        <ele>2313.6</ele>
        <time>2013-08-27T10:45:00Z</time>
      </trkpt>
      <trkpt lat="45.73568" lon="6.70696">
        <ele>2316.4</ele>
        <time>2013-08-27T10:45:15Z</time>
      </trkpt>
      <trkpt lat="45.73562" lon="6.70693">
        <ele>2317.9</ele>
        <time>2013-08-27T10:45:29Z</time>
      </trkpt>
      <trkpt lat="45.73556" lon="6.70689">
        <ele>2319.8</ele>
        <time>2013-08-27T10:45:42Z</time>
      </trkpt>
      <trkpt lat="45.73549" lon="6.70684">
        <ele>2322.2</ele>
        <time>2013-08-27T10:45:57Z</time>
      </trkpt>
      <trkpt lat="45.73542" lon="6.7068">
        <ele>2324.1</ele>
        <time>2013-08-27T10:46:11Z</time>
      </trkpt>
      <trkpt lat="45.73531" lon="6.70675">
        <ele>2326.1</ele>
        <time>2013-08-27T10:46:27Z</time>
      </trkpt>
      <trkpt lat="45.7352" lon="6.70669">
        <ele>2328.5</ele>
        <time>2013-08-27T10:46:43Z</time>
      </trkpt>
      <trkpt lat="45.73509" lon="6.70663">
        <ele>2329.9</ele>
        <time>2013-08-27T10:47:02Z</time>
      </trkpt>
      <trkpt lat="45.73503" lon="6.70658">
        <ele>2330.9</ele>
        <time>2013-08-27T10:47:17Z</time>
      </trkpt>
      <trkpt lat="45.73501" lon="6.70655">
        <ele>2330.9</ele>
        <time>2013-08-27T10:47:30Z</time>
      </trkpt>
      <trkpt lat="45.73498" lon="6.70651">
        <ele>2326.5</ele>
        <time>2013-08-27T10:47:41Z</time>
      </trkpt>
      <trkpt lat="45.73498" lon="6.70651">
        <ele>2331.8</ele>
        <time>2013-08-27T10:47:42Z</time>
      </trkpt>
      <trkpt lat="45.73498" lon="6.70651">
        <ele>2326.5</ele>
        <time>2013-08-27T10:47:43Z</time>
      </trkpt>
      <trkpt lat="45.73499" lon="6.70651">
        <ele>2319.8</ele>
        <time>2013-08-27T11:13:56Z</time>
      </trkpt>
      <trkpt lat="45.73504" lon="6.70641">
        <ele>2320.3</ele>
        <time>2013-08-27T11:13:58Z</time>
      </trkpt>
      <trkpt lat="45.735" lon="6.70653">
        <ele>2323.6</ele>
        <time>2013-08-27T11:14:12Z</time>
      </trkpt>
      <trkpt lat="45.73501" lon="6.70653">
        <ele>2325.6</ele>
        <time>2013-08-27T11:14:24Z</time>
      </trkpt>
      <trkpt lat="45.73502" lon="6.70655">
        <ele>2326.5</ele>
        <time>2013-08-27T11:14:30Z</time>
      </trkpt>
      <trkpt lat="45.73493" lon="6.70675">
        <ele>2327.5</ele>
        <time>2013-08-27T11:14:45Z</time>
      </trkpt>
      <trkpt lat="45.73479" lon="6.7069">
        <ele>2329.9</ele>
        <time>2013-08-27T11:15:00Z</time>
      </trkpt>
      <trkpt lat="45.73474" lon="6.70703">
        <ele>2332.8</ele>
        <time>2013-08-27T11:15:13Z</time>
      </trkpt>
      <trkpt lat="45.73473" lon="6.70705">
        <ele>2333.3</ele>
        <time>2013-08-27T11:15:15Z</time>
      </trkpt>
      <trkpt lat="45.73454" lon="6.70717">
        <ele>2335.2</ele>
        <time>2013-08-27T11:15:34Z</time>
      </trkpt>
      <trkpt lat="45.73444" lon="6.70726">
        <ele>2337.1</ele>
        <time>2013-08-27T11:15:49Z</time>
      </trkpt>
      <trkpt lat="45.73437" lon="6.70737">
        <ele>2339</ele>
        <time>2013-08-27T11:16:02Z</time>
      </trkpt>
      <trkpt lat="45.73432" lon="6.70761">
        <ele>2339.5</ele>
        <time>2013-08-27T11:16:19Z</time>
      </trkpt>
      <trkpt lat="45.73429" lon="6.70778">
        <ele>2341.4</ele>
        <time>2013-08-27T11:16:34Z</time>
      </trkpt>
      <trkpt lat="45.73427" lon="6.70785">
        <ele>2341.4</ele>
        <time>2013-08-27T11:16:46Z</time>
      </trkpt>
      <trkpt lat="45.73419" lon="6.70799">
        <ele>2342.4</ele>
        <time>2013-08-27T11:17:00Z</time>
      </trkpt>
      <trkpt lat="45.73412" lon="6.70802">
        <ele>2345.3</ele>
        <time>2013-08-27T11:17:13Z</time>
      </trkpt>
      <trkpt lat="45.73409" lon="6.70805">
        <ele>2345.8</ele>
        <time>2013-08-27T11:17:18Z</time>
      </trkpt>
      <trkpt lat="45.73406" lon="6.70801">
        <ele>2345.8</ele>
        <time>2013-08-27T11:17:32Z</time>
      </trkpt>
      <trkpt lat="45.73404" lon="6.70802">
        <ele>2345.8</ele>
        <time>2013-08-27T11:17:52Z</time>
      </trkpt>
      <trkpt lat="45.73404" lon="6.70802">
        <ele>2345.8</ele>
        <time>2013-08-27T11:18:17Z</time>
      </trkpt>
      <trkpt lat="45.73401" lon="6.70815">
        <ele>2346.2</ele>
        <time>2013-08-27T11:18:29Z</time>
      </trkpt>
      <trkpt lat="45.73396" lon="6.70833">
        <ele>2348.6</ele>
        <time>2013-08-27T11:18:43Z</time>
      </trkpt>
      <trkpt lat="45.73391" lon="6.70835">
        <ele>2347.7</ele>
        <time>2013-08-27T11:18:47Z</time>
      </trkpt>
      <trkpt lat="45.73382" lon="6.70844">
        <ele>2348.2</ele>
        <time>2013-08-27T11:19:01Z</time>
      </trkpt>
      <trkpt lat="45.73376" lon="6.70847">
        <ele>2351</ele>
        <time>2013-08-27T11:19:12Z</time>
      </trkpt>
      <trkpt lat="45.73372" lon="6.7085">
        <ele>2353</ele>
        <time>2013-08-27T11:19:24Z</time>
      </trkpt>
      <trkpt lat="45.73365" lon="6.70853">
        <ele>2354.9</ele>
        <time>2013-08-27T11:19:37Z</time>
      </trkpt>
      <trkpt lat="45.73358" lon="6.70856">
        <ele>2355.9</ele>
        <time>2013-08-27T11:19:44Z</time>
      </trkpt>
      <trkpt lat="45.73353" lon="6.70861">
        <ele>2357.3</ele>
        <time>2013-08-27T11:19:54Z</time>
      </trkpt>
      <trkpt lat="45.73344" lon="6.70864">
        <ele>2358.7</ele>
        <time>2013-08-27T11:20:07Z</time>
      </trkpt>
      <trkpt lat="45.73338" lon="6.70869">
        <ele>2362.1</ele>
        <time>2013-08-27T11:20:20Z</time>
      </trkpt>
      <trkpt lat="45.73336" lon="6.70871">
        <ele>2362.6</ele>
        <time>2013-08-27T11:20:33Z</time>
      </trkpt>
      <trkpt lat="45.73331" lon="6.70872">
        <ele>2364</ele>
        <time>2013-08-27T11:20:45Z</time>
      </trkpt>
      <trkpt lat="45.73328" lon="6.70871">
        <ele>2365.5</ele>
        <time>2013-08-27T11:20:57Z</time>
      </trkpt>
      <trkpt lat="45.73321" lon="6.7087">
        <ele>2367.4</ele>
        <time>2013-08-27T11:21:08Z</time>
      </trkpt>
      <trkpt lat="45.73319" lon="6.70869">
        <ele>2367.4</ele>
        <time>2013-08-27T11:21:11Z</time>
      </trkpt>
      <trkpt lat="45.73315" lon="6.7087">
        <ele>2367.4</ele>
        <time>2013-08-27T11:21:16Z</time>
      </trkpt>
      <trkpt lat="45.73312" lon="6.70867">
        <ele>2366.9</ele>
        <time>2013-08-27T11:21:19Z</time>
      </trkpt>
      <trkpt lat="45.73302" lon="6.70859">
        <ele>2367.4</ele>
        <time>2013-08-27T11:21:32Z</time>
      </trkpt>
      <trkpt lat="45.73297" lon="6.70855">
        <ele>2367.4</ele>
        <time>2013-08-27T11:21:37Z</time>
      </trkpt>
      <trkpt lat="45.73292" lon="6.70849">
        <ele>2367.4</ele>
        <time>2013-08-27T11:21:43Z</time>
      </trkpt>
      <trkpt lat="45.7328" lon="6.70848">
        <ele>2369.3</ele>
        <time>2013-08-27T11:21:59Z</time>
      </trkpt>
      <trkpt lat="45.73273" lon="6.70849">
        <ele>2371.7</ele>
        <time>2013-08-27T11:22:12Z</time>
      </trkpt>
      <trkpt lat="45.73268" lon="6.70844">
        <ele>2374.1</ele>
        <time>2013-08-27T11:22:23Z</time>
      </trkpt>
      <trkpt lat="45.73257" lon="6.70842">
        <ele>2376.5</ele>
        <time>2013-08-27T11:22:39Z</time>
      </trkpt>
      <trkpt lat="45.73257" lon="6.70841">
        <ele>2376.5</ele>
        <time>2013-08-27T11:22:40Z</time>
      </trkpt>
      <trkpt lat="45.73244" lon="6.70833">
        <ele>2378.4</ele>
        <time>2013-08-27T11:22:58Z</time>
      </trkpt>
      <trkpt lat="45.73236" lon="6.70831">
        <ele>2381.8</ele>
        <time>2013-08-27T11:23:10Z</time>
      </trkpt>
      <trkpt lat="45.73231" lon="6.70832">
        <ele>2382.8</ele>
        <time>2013-08-27T11:23:18Z</time>
      </trkpt>
      <trkpt lat="45.73229" lon="6.70833">
        <ele>2383.3</ele>
        <time>2013-08-27T11:23:20Z</time>
      </trkpt>
      <trkpt lat="45.73215" lon="6.70834">
        <ele>2384.7</ele>
        <time>2013-08-27T11:23:36Z</time>
      </trkpt>
      <trkpt lat="45.73206" lon="6.70831">
        <ele>2386.6</ele>
        <time>2013-08-27T11:23:49Z</time>
      </trkpt>
      <trkpt lat="45.732" lon="6.70835">
        <ele>2387.1</ele>
        <time>2013-08-27T11:24:03Z</time>
      </trkpt>
      <trkpt lat="45.73192" lon="6.70837">
        <ele>2384.7</ele>
        <time>2013-08-27T11:24:15Z</time>
      </trkpt>
      <trkpt lat="45.73171" lon="6.70838">
        <ele>2383.7</ele>
        <time>2013-08-27T11:24:33Z</time>
      </trkpt>
      <trkpt lat="45.73159" lon="6.7084">
        <ele>2385.7</ele>
        <time>2013-08-27T11:24:48Z</time>
      </trkpt>
      <trkpt lat="45.73153" lon="6.70843">
        <ele>2387.1</ele>
        <time>2013-08-27T11:25:00Z</time>
      </trkpt>
      <trkpt lat="45.7315" lon="6.70845">
        <ele>2388.5</ele>
        <time>2013-08-27T11:25:13Z</time>
      </trkpt>
      <trkpt lat="45.73146" lon="6.70842">
        <ele>2390</ele>
        <time>2013-08-27T11:25:27Z</time>
      </trkpt>
      <trkpt lat="45.73137" lon="6.70839">
        <ele>2392.4</ele>
        <time>2013-08-27T11:25:42Z</time>
      </trkpt>
      <trkpt lat="45.73132" lon="6.70843">
        <ele>2394.3</ele>
        <time>2013-08-27T11:25:55Z</time>
      </trkpt>
      <trkpt lat="45.73127" lon="6.70846">
        <ele>2396.2</ele>
        <time>2013-08-27T11:26:07Z</time>
      </trkpt>
      <trkpt lat="45.7312" lon="6.70851">
        <ele>2394.3</ele>
        <time>2013-08-27T11:26:21Z</time>
      </trkpt>
      <trkpt lat="45.73118" lon="6.70855">
        <ele>2393.8</ele>
        <time>2013-08-27T11:26:24Z</time>
      </trkpt>
      <trkpt lat="45.73097" lon="6.70854">
        <ele>2394.3</ele>
        <time>2013-08-27T11:26:40Z</time>
      </trkpt>
      <trkpt lat="45.73089" lon="6.70853">
        <ele>2395.7</ele>
        <time>2013-08-27T11:26:49Z</time>
      </trkpt>
      <trkpt lat="45.73082" lon="6.70854">
        <ele>2396.7</ele>
        <time>2013-08-27T11:27:03Z</time>
      </trkpt>
      <trkpt lat="45.73075" lon="6.70859">
        <ele>2397.7</ele>
        <time>2013-08-27T11:27:17Z</time>
      </trkpt>
      <trkpt lat="45.73074" lon="6.70867">
        <ele>2399.6</ele>
        <time>2013-08-27T11:27:31Z</time>
      </trkpt>
      <trkpt lat="45.73071" lon="6.70873">
        <ele>2402</ele>
        <time>2013-08-27T11:27:41Z</time>
      </trkpt>
      <trkpt lat="45.73073" lon="6.70883">
        <ele>2403.4</ele>
        <time>2013-08-27T11:27:54Z</time>
      </trkpt>
      <trkpt lat="45.73068" lon="6.70888">
        <ele>2405.4</ele>
        <time>2013-08-27T11:28:06Z</time>
      </trkpt>
      <trkpt lat="45.73061" lon="6.70898">
        <ele>2407.3</ele>
        <time>2013-08-27T11:28:19Z</time>
      </trkpt>
      <trkpt lat="45.73055" lon="6.70907">
        <ele>2409.2</ele>
        <time>2013-08-27T11:28:31Z</time>
      </trkpt>
      <trkpt lat="45.73049" lon="6.70914">
        <ele>2412.1</ele>
        <time>2013-08-27T11:28:44Z</time>
      </trkpt>
      <trkpt lat="45.73041" lon="6.70917">
        <ele>2413.1</ele>
        <time>2013-08-27T11:28:52Z</time>
      </trkpt>
      <trkpt lat="45.73031" lon="6.70906">
        <ele>2412.6</ele>
        <time>2013-08-27T11:29:07Z</time>
      </trkpt>
      <trkpt lat="45.73027" lon="6.70912">
        <ele>2411.1</ele>
        <time>2013-08-27T11:29:15Z</time>
      </trkpt>
      <trkpt lat="45.7302" lon="6.70916">
        <ele>2409.7</ele>
        <time>2013-08-27T11:29:25Z</time>
      </trkpt>
      <trkpt lat="45.7301" lon="6.70923">
        <ele>2411.1</ele>
        <time>2013-08-27T11:29:36Z</time>
      </trkpt>
      <trkpt lat="45.72996" lon="6.70933">
        <ele>2412.1</ele>
        <time>2013-08-27T11:29:49Z</time>
      </trkpt>
      <trkpt lat="45.72991" lon="6.70942">
        <ele>2414</ele>
        <time>2013-08-27T11:30:01Z</time>
      </trkpt>
      <trkpt lat="45.72981" lon="6.70942">
        <ele>2415.9</ele>
        <time>2013-08-27T11:30:13Z</time>
      </trkpt>
      <trkpt lat="45.72966" lon="6.70957">
        <ele>2416.9</ele>
        <time>2013-08-27T11:30:28Z</time>
      </trkpt>
      <trkpt lat="45.7296" lon="6.70978">
        <ele>2417.4</ele>
        <time>2013-08-27T11:30:41Z</time>
      </trkpt>
      <trkpt lat="45.72959" lon="6.7098">
        <ele>2417.4</ele>
        <time>2013-08-27T11:30:43Z</time>
      </trkpt>
      <trkpt lat="45.72951" lon="6.70983">
        <ele>2418.3</ele>
        <time>2013-08-27T11:30:55Z</time>
      </trkpt>
      <trkpt lat="45.72945" lon="6.70991">
        <ele>2421.2</ele>
        <time>2013-08-27T11:31:07Z</time>
      </trkpt>
      <trkpt lat="45.72943" lon="6.71001">
        <ele>2421.2</ele>
        <time>2013-08-27T11:31:15Z</time>
      </trkpt>
      <trkpt lat="45.72941" lon="6.7101">
        <ele>2421.2</ele>
        <time>2013-08-27T11:31:23Z</time>
      </trkpt>
      <trkpt lat="45.72934" lon="6.71025">
        <ele>2421.2</ele>
        <time>2013-08-27T11:31:37Z</time>
      </trkpt>
      <trkpt lat="45.72929" lon="6.71029">
        <ele>2422.7</ele>
        <time>2013-08-27T11:31:45Z</time>
      </trkpt>
      <trkpt lat="45.72913" lon="6.71033">
        <ele>2424.6</ele>
        <time>2013-08-27T11:32:02Z</time>
      </trkpt>
      <trkpt lat="45.72904" lon="6.71034">
        <ele>2425.1</ele>
        <time>2013-08-27T11:32:13Z</time>
      </trkpt>
      <trkpt lat="45.72885" lon="6.71032">
        <ele>2424.6</ele>
        <time>2013-08-27T11:32:31Z</time>
      </trkpt>
      <trkpt lat="45.72881" lon="6.71033">
        <ele>2424.1</ele>
        <time>2013-08-27T11:32:36Z</time>
      </trkpt>
      <trkpt lat="45.72877" lon="6.71034">
        <ele>2423.6</ele>
        <time>2013-08-27T11:32:40Z</time>
      </trkpt>
      <trkpt lat="45.72873" lon="6.71031">
        <ele>2422.7</ele>
        <time>2013-08-27T11:32:43Z</time>
      </trkpt>
      <trkpt lat="45.72871" lon="6.71028">
        <ele>2422.2</ele>
        <time>2013-08-27T11:32:45Z</time>
      </trkpt>
      <trkpt lat="45.72869" lon="6.71027">
        <ele>2421.2</ele>
        <time>2013-08-27T11:32:46Z</time>
      </trkpt>
      <trkpt lat="45.72864" lon="6.71031">
        <ele>2421.2</ele>
        <time>2013-08-27T11:32:50Z</time>
      </trkpt>
      <trkpt lat="45.72862" lon="6.71033">
        <ele>2421.2</ele>
        <time>2013-08-27T11:32:52Z</time>
      </trkpt>
      <trkpt lat="45.72858" lon="6.71034">
        <ele>2420.7</ele>
        <time>2013-08-27T11:32:56Z</time>
      </trkpt>
      <trkpt lat="45.72855" lon="6.71032">
        <ele>2419.8</ele>
        <time>2013-08-27T11:32:59Z</time>
      </trkpt>
      <trkpt lat="45.72843" lon="6.71033">
        <ele>2419.3</ele>
        <time>2013-08-27T11:33:10Z</time>
      </trkpt>
      <trkpt lat="45.72826" lon="6.71031">
        <ele>2417.4</ele>
        <time>2013-08-27T11:33:24Z</time>
      </trkpt>
      <trkpt lat="45.72812" lon="6.71036">
        <ele>2414</ele>
        <time>2013-08-27T11:33:32Z</time>
      </trkpt>
      <trkpt lat="45.72795" lon="6.71042">
        <ele>2415</ele>
        <time>2013-08-27T11:33:44Z</time>
      </trkpt>
      <trkpt lat="45.7279" lon="6.71049">
        <ele>2416.4</ele>
        <time>2013-08-27T11:33:54Z</time>
      </trkpt>
      <trkpt lat="45.72785" lon="6.71066">
        <ele>2418.3</ele>
        <time>2013-08-27T11:34:08Z</time>
      </trkpt>
      <trkpt lat="45.72786" lon="6.71076">
        <ele>2419.3</ele>
        <time>2013-08-27T11:34:18Z</time>
      </trkpt>
      <trkpt lat="45.72783" lon="6.71082">
        <ele>2421.7</ele>
        <time>2013-08-27T11:34:30Z</time>
      </trkpt>
      <trkpt lat="45.72781" lon="6.71085">
        <ele>2421.7</ele>
        <time>2013-08-27T11:34:33Z</time>
      </trkpt>
      <trkpt lat="45.7278" lon="6.71085">
        <ele>2421.7</ele>
        <time>2013-08-27T11:34:34Z</time>
      </trkpt>
      <trkpt lat="45.72778" lon="6.71086">
        <ele>2421.2</ele>
        <time>2013-08-27T11:34:35Z</time>
      </trkpt>
      <trkpt lat="45.72777" lon="6.71087">
        <ele>2421.2</ele>
        <time>2013-08-27T11:34:36Z</time>
      </trkpt>
      <trkpt lat="45.72775" lon="6.71089">
        <ele>2421.2</ele>
        <time>2013-08-27T11:34:37Z</time>
      </trkpt>
      <trkpt lat="45.72775" lon="6.71091">
        <ele>2420.7</ele>
        <time>2013-08-27T11:34:38Z</time>
      </trkpt>
      <trkpt lat="45.72772" lon="6.71095">
        <ele>2422.2</ele>
        <time>2013-08-27T11:34:42Z</time>
      </trkpt>
      <trkpt lat="45.72761" lon="6.71102">
        <ele>2421.7</ele>
        <time>2013-08-27T11:34:54Z</time>
      </trkpt>
      <trkpt lat="45.72748" lon="6.71109">
        <ele>2421.2</ele>
        <time>2013-08-27T11:35:06Z</time>
      </trkpt>
      <trkpt lat="45.72745" lon="6.71112">
        <ele>2421.7</ele>
        <time>2013-08-27T11:35:10Z</time>
      </trkpt>
      <trkpt lat="45.7274" lon="6.71118">
        <ele>2425.1</ele>
        <time>2013-08-27T11:35:19Z</time>
      </trkpt>
      <trkpt lat="45.72733" lon="6.71126">
        <ele>2427</ele>
        <time>2013-08-27T11:35:29Z</time>
      </trkpt>
      <trkpt lat="45.72727" lon="6.71129">
        <ele>2426</ele>
        <time>2013-08-27T11:35:39Z</time>
      </trkpt>
      <trkpt lat="45.72722" lon="6.7113">
        <ele>2425.5</ele>
        <time>2013-08-27T11:35:43Z</time>
      </trkpt>
      <trkpt lat="45.7272" lon="6.7113">
        <ele>2425.1</ele>
        <time>2013-08-27T11:35:45Z</time>
      </trkpt>
      <trkpt lat="45.7271" lon="6.71134">
        <ele>2424.1</ele>
        <time>2013-08-27T11:35:54Z</time>
      </trkpt>
      <trkpt lat="45.72709" lon="6.71134">
        <ele>2424.1</ele>
        <time>2013-08-27T11:35:55Z</time>
      </trkpt>
      <trkpt lat="45.72708" lon="6.71135">
        <ele>2423.1</ele>
        <time>2013-08-27T11:35:56Z</time>
      </trkpt>
      <trkpt lat="45.72702" lon="6.71137">
        <ele>2423.6</ele>
        <time>2013-08-27T11:36:01Z</time>
      </trkpt>
      <trkpt lat="45.72701" lon="6.71137">
        <ele>2423.1</ele>
        <time>2013-08-27T11:36:02Z</time>
      </trkpt>
      <trkpt lat="45.7269" lon="6.71144">
        <ele>2423.6</ele>
        <time>2013-08-27T11:36:14Z</time>
      </trkpt>
      <trkpt lat="45.72685" lon="6.7115">
        <ele>2426.5</ele>
        <time>2013-08-27T11:36:26Z</time>
      </trkpt>
      <trkpt lat="45.72684" lon="6.71158">
        <ele>2428.4</ele>
        <time>2013-08-27T11:36:39Z</time>
      </trkpt>
      <trkpt lat="45.72681" lon="6.71166">
        <ele>2430.4</ele>
        <time>2013-08-27T11:36:50Z</time>
      </trkpt>
      <trkpt lat="45.7268" lon="6.71167">
        <ele>2431.3</ele>
        <time>2013-08-27T11:36:51Z</time>
      </trkpt>
      <trkpt lat="45.72676" lon="6.71177">
        <ele>2431.8</ele>
        <time>2013-08-27T11:36:57Z</time>
      </trkpt>
      <trkpt lat="45.7267" lon="6.7119">
        <ele>2429.9</ele>
        <time>2013-08-27T11:37:04Z</time>
      </trkpt>
      <trkpt lat="45.72659" lon="6.7121">
        <ele>2430.4</ele>
        <time>2013-08-27T11:37:17Z</time>
      </trkpt>
      <trkpt lat="45.7265" lon="6.71228">
        <ele>2431.3</ele>
        <time>2013-08-27T11:37:31Z</time>
      </trkpt>
      <trkpt lat="45.72646" lon="6.71232">
        <ele>2431.3</ele>
        <time>2013-08-27T11:37:45Z</time>
      </trkpt>
      <trkpt lat="45.7264" lon="6.71234">
        <ele>2429.9</ele>
        <time>2013-08-27T11:37:56Z</time>
      </trkpt>
      <trkpt lat="45.72639" lon="6.71234">
        <ele>2429.9</ele>
        <time>2013-08-27T11:37:57Z</time>
      </trkpt>
      <trkpt lat="45.72637" lon="6.71235">
        <ele>2429.4</ele>
        <time>2013-08-27T11:37:58Z</time>
      </trkpt>
      <trkpt lat="45.72635" lon="6.71237">
        <ele>2429.4</ele>
        <time>2013-08-27T11:37:59Z</time>
      </trkpt>
      <trkpt lat="45.72631" lon="6.7124">
        <ele>2428</ele>
        <time>2013-08-27T11:38:03Z</time>
      </trkpt>
      <trkpt lat="45.72617" lon="6.71239">
        <ele>2425.1</ele>
        <time>2013-08-27T11:38:16Z</time>
      </trkpt>
      <trkpt lat="45.72614" lon="6.71237">
        <ele>2424.6</ele>
        <time>2013-08-27T11:38:20Z</time>
      </trkpt>
      <trkpt lat="45.7261" lon="6.71235">
        <ele>2424.6</ele>
        <time>2013-08-27T11:38:23Z</time>
      </trkpt>
      <trkpt lat="45.72607" lon="6.7124">
        <ele>2425.1</ele>
        <time>2013-08-27T11:38:29Z</time>
      </trkpt>
      <trkpt lat="45.72605" lon="6.71244">
        <ele>2425.5</ele>
        <time>2013-08-27T11:38:32Z</time>
      </trkpt>
      <trkpt lat="45.72603" lon="6.71265">
        <ele>2425.1</ele>
        <time>2013-08-27T11:38:45Z</time>
      </trkpt>
      <trkpt lat="45.72586" lon="6.71274">
        <ele>2425.1</ele>
        <time>2013-08-27T11:39:00Z</time>
      </trkpt>
      <trkpt lat="45.72578" lon="6.71277">
        <ele>2423.6</ele>
        <time>2013-08-27T11:39:11Z</time>
      </trkpt>
      <trkpt lat="45.72567" lon="6.71288">
        <ele>2424.6</ele>
        <time>2013-08-27T11:39:25Z</time>
      </trkpt>
      <trkpt lat="45.72563" lon="6.71303">
        <ele>2426</ele>
        <time>2013-08-27T11:39:39Z</time>
      </trkpt>
      <trkpt lat="45.72563" lon="6.71305">
        <ele>2426.5</ele>
        <time>2013-08-27T11:39:40Z</time>
      </trkpt>
      <trkpt lat="45.72565" lon="6.71311">
        <ele>2428</ele>
        <time>2013-08-27T11:39:50Z</time>
      </trkpt>
      <trkpt lat="45.72563" lon="6.71321">
        <ele>2428.9</ele>
        <time>2013-08-27T11:40:03Z</time>
      </trkpt>
      <trkpt lat="45.72558" lon="6.71327">
        <ele>2430.8</ele>
        <time>2013-08-27T11:40:16Z</time>
      </trkpt>
      <trkpt lat="45.72554" lon="6.71333">
        <ele>2432.3</ele>
        <time>2013-08-27T11:40:28Z</time>
      </trkpt>
      <trkpt lat="45.72551" lon="6.71337">
        <ele>2434.2</ele>
        <time>2013-08-27T11:40:35Z</time>
      </trkpt>
      <trkpt lat="45.72542" lon="6.71352">
        <ele>2434.2</ele>
        <time>2013-08-27T11:40:48Z</time>
      </trkpt>
      <trkpt lat="45.72539" lon="6.71355">
        <ele>2434.7</ele>
        <time>2013-08-27T11:40:51Z</time>
      </trkpt>
      <trkpt lat="45.7253" lon="6.71362">
        <ele>2436.1</ele>
        <time>2013-08-27T11:41:05Z</time>
      </trkpt>
      <trkpt lat="45.72529" lon="6.71365">
        <ele>2438</ele>
        <time>2013-08-27T11:41:19Z</time>
      </trkpt>
      <trkpt lat="45.72536" lon="6.71378">
        <ele>2440</ele>
        <time>2013-08-27T11:41:30Z</time>
      </trkpt>
      <trkpt lat="45.72536" lon="6.7139">
        <ele>2440.9</ele>
        <time>2013-08-27T11:41:41Z</time>
      </trkpt>
      <trkpt lat="45.72536" lon="6.71392">
        <ele>2440.9</ele>
        <time>2013-08-27T11:41:42Z</time>
      </trkpt>
      <trkpt lat="45.72536" lon="6.71393">
        <ele>2440</ele>
        <time>2013-08-27T11:41:43Z</time>
      </trkpt>
      <trkpt lat="45.72537" lon="6.71403">
        <ele>2441.4</ele>
        <time>2013-08-27T11:41:54Z</time>
      </trkpt>
      <trkpt lat="45.72533" lon="6.71418">
        <ele>2442.9</ele>
        <time>2013-08-27T11:42:08Z</time>
      </trkpt>
      <trkpt lat="45.7253" lon="6.71421">
        <ele>2443.3</ele>
        <time>2013-08-27T11:42:13Z</time>
      </trkpt>
      <trkpt lat="45.72529" lon="6.71423">
        <ele>2443.3</ele>
        <time>2013-08-27T11:42:14Z</time>
      </trkpt>
      <trkpt lat="45.72528" lon="6.71424">
        <ele>2443.3</ele>
        <time>2013-08-27T11:42:15Z</time>
      </trkpt>
      <trkpt lat="45.72527" lon="6.71426">
        <ele>2443.3</ele>
        <time>2013-08-27T11:42:16Z</time>
      </trkpt>
      <trkpt lat="45.72527" lon="6.71427">
        <ele>2443.3</ele>
        <time>2013-08-27T11:42:17Z</time>
      </trkpt>
      <trkpt lat="45.72526" lon="6.71429">
        <ele>2443.3</ele>
        <time>2013-08-27T11:42:18Z</time>
      </trkpt>
      <trkpt lat="45.72525" lon="6.71432">
        <ele>2443.8</ele>
        <time>2013-08-27T11:42:19Z</time>
      </trkpt>
      <trkpt lat="45.72525" lon="6.71434">
        <ele>2443.3</ele>
        <time>2013-08-27T11:42:20Z</time>
      </trkpt>
      <trkpt lat="45.72524" lon="6.71437">
        <ele>2443.8</ele>
        <time>2013-08-27T11:42:23Z</time>
      </trkpt>
      <trkpt lat="45.72522" lon="6.71438">
        <ele>2443.8</ele>
        <time>2013-08-27T11:42:24Z</time>
      </trkpt>
      <trkpt lat="45.72521" lon="6.71439">
        <ele>2443.3</ele>
        <time>2013-08-27T11:42:25Z</time>
      </trkpt>
      <trkpt lat="45.72521" lon="6.71441">
        <ele>2443.3</ele>
        <time>2013-08-27T11:42:26Z</time>
      </trkpt>
      <trkpt lat="45.72519" lon="6.71442">
        <ele>2443.3</ele>
        <time>2013-08-27T11:42:27Z</time>
      </trkpt>
      <trkpt lat="45.72518" lon="6.71443">
        <ele>2443.8</ele>
        <time>2013-08-27T11:42:28Z</time>
      </trkpt>
      <trkpt lat="45.72515" lon="6.71449">
        <ele>2443.8</ele>
        <time>2013-08-27T11:42:33Z</time>
      </trkpt>
      <trkpt lat="45.72514" lon="6.71451">
        <ele>2443.8</ele>
        <time>2013-08-27T11:42:34Z</time>
      </trkpt>
      <trkpt lat="45.72514" lon="6.71452">
        <ele>2443.8</ele>
        <time>2013-08-27T11:42:35Z</time>
      </trkpt>
      <trkpt lat="45.72514" lon="6.71454">
        <ele>2443.8</ele>
        <time>2013-08-27T11:42:36Z</time>
      </trkpt>
      <trkpt lat="45.72514" lon="6.71456">
        <ele>2443.8</ele>
        <time>2013-08-27T11:42:37Z</time>
      </trkpt>
      <trkpt lat="45.72514" lon="6.71467">
        <ele>2445.3</ele>
        <time>2013-08-27T11:42:46Z</time>
      </trkpt>
      <trkpt lat="45.72514" lon="6.71472">
        <ele>2445.7</ele>
        <time>2013-08-27T11:42:50Z</time>
      </trkpt>
      <trkpt lat="45.72514" lon="6.71474">
        <ele>2445.7</ele>
        <time>2013-08-27T11:42:51Z</time>
      </trkpt>
      <trkpt lat="45.72514" lon="6.71475">
        <ele>2444.8</ele>
        <time>2013-08-27T11:42:52Z</time>
      </trkpt>
      <trkpt lat="45.72519" lon="6.71491">
        <ele>2447.2</ele>
        <time>2013-08-27T11:43:06Z</time>
      </trkpt>
      <trkpt lat="45.72522" lon="6.715">
        <ele>2449.1</ele>
        <time>2013-08-27T11:43:16Z</time>
      </trkpt>
      <trkpt lat="45.72525" lon="6.71508">
        <ele>2452</ele>
        <time>2013-08-27T11:43:32Z</time>
      </trkpt>
      <trkpt lat="45.72529" lon="6.71521">
        <ele>2453.4</ele>
        <time>2013-08-27T11:43:46Z</time>
      </trkpt>
      <trkpt lat="45.72534" lon="6.71527">
        <ele>2456.3</ele>
        <time>2013-08-27T11:43:59Z</time>
      </trkpt>
      <trkpt lat="45.72536" lon="6.71537">
        <ele>2458.7</ele>
        <time>2013-08-27T11:44:13Z</time>
      </trkpt>
      <trkpt lat="45.72538" lon="6.71546">
        <ele>2459.7</ele>
        <time>2013-08-27T11:44:25Z</time>
      </trkpt>
      <trkpt lat="45.72542" lon="6.71553">
        <ele>2462.1</ele>
        <time>2013-08-27T11:44:39Z</time>
      </trkpt>
      <trkpt lat="45.72541" lon="6.71562">
        <ele>2462.6</ele>
        <time>2013-08-27T11:44:48Z</time>
      </trkpt>
      <trkpt lat="45.7254" lon="6.71574">
        <ele>2463</ele>
        <time>2013-08-27T11:45:00Z</time>
      </trkpt>
      <trkpt lat="45.72541" lon="6.71578">
        <ele>2465</ele>
        <time>2013-08-27T11:45:05Z</time>
      </trkpt>
      <trkpt lat="45.72544" lon="6.71582">
        <ele>2466.9</ele>
        <time>2013-08-27T11:45:18Z</time>
      </trkpt>
      <trkpt lat="45.72546" lon="6.71583">
        <ele>2467.8</ele>
        <time>2013-08-27T11:45:29Z</time>
      </trkpt>
      <trkpt lat="45.72547" lon="6.71586">
        <ele>2469.3</ele>
        <time>2013-08-27T11:45:41Z</time>
      </trkpt>
      <trkpt lat="45.72547" lon="6.71596">
        <ele>2471.2</ele>
        <time>2013-08-27T11:45:54Z</time>
      </trkpt>
      <trkpt lat="45.72548" lon="6.71604">
        <ele>2472.2</ele>
        <time>2013-08-27T11:46:10Z</time>
      </trkpt>
      <trkpt lat="45.72548" lon="6.71611">
        <ele>2474.6</ele>
        <time>2013-08-27T11:46:24Z</time>
      </trkpt>
      <trkpt lat="45.72545" lon="6.71614">
        <ele>2475.1</ele>
        <time>2013-08-27T11:46:38Z</time>
      </trkpt>
      <trkpt lat="45.72543" lon="6.71612">
        <ele>2477.5</ele>
        <time>2013-08-27T11:46:50Z</time>
      </trkpt>
      <trkpt lat="45.72537" lon="6.71609">
        <ele>2479.9</ele>
        <time>2013-08-27T11:46:58Z</time>
      </trkpt>
      <trkpt lat="45.72524" lon="6.7161">
        <ele>2480.8</ele>
        <time>2013-08-27T11:47:13Z</time>
      </trkpt>
      <trkpt lat="45.72519" lon="6.71612">
        <ele>2481.3</ele>
        <time>2013-08-27T11:47:20Z</time>
      </trkpt>
      <trkpt lat="45.72518" lon="6.71612">
        <ele>2481.3</ele>
        <time>2013-08-27T11:47:21Z</time>
      </trkpt>
      <trkpt lat="45.72514" lon="6.71615">
        <ele>2480.3</ele>
        <time>2013-08-27T11:47:33Z</time>
      </trkpt>
      <trkpt lat="45.72512" lon="6.71616">
        <ele>2480.8</ele>
        <time>2013-08-27T11:47:37Z</time>
      </trkpt>
      <trkpt lat="45.72511" lon="6.71617">
        <ele>2481.3</ele>
        <time>2013-08-27T11:47:38Z</time>
      </trkpt>
      <trkpt lat="45.7251" lon="6.71618">
        <ele>2480.8</ele>
        <time>2013-08-27T11:47:39Z</time>
      </trkpt>
      <trkpt lat="45.72509" lon="6.71619">
        <ele>2481.3</ele>
        <time>2013-08-27T11:47:40Z</time>
      </trkpt>
      <trkpt lat="45.72509" lon="6.71621">
        <ele>2480.8</ele>
        <time>2013-08-27T11:47:41Z</time>
      </trkpt>
      <trkpt lat="45.72508" lon="6.71623">
        <ele>2480.8</ele>
        <time>2013-08-27T11:47:42Z</time>
      </trkpt>
      <trkpt lat="45.72507" lon="6.71625">
        <ele>2480.8</ele>
        <time>2013-08-27T11:47:43Z</time>
      </trkpt>
      <trkpt lat="45.72506" lon="6.71627">
        <ele>2480.3</ele>
        <time>2013-08-27T11:47:44Z</time>
      </trkpt>
      <trkpt lat="45.72506" lon="6.71628">
        <ele>2480.3</ele>
        <time>2013-08-27T11:47:45Z</time>
      </trkpt>
      <trkpt lat="45.72505" lon="6.7163">
        <ele>2480.8</ele>
        <time>2013-08-27T11:47:46Z</time>
      </trkpt>
      <trkpt lat="45.72504" lon="6.71631">
        <ele>2480.8</ele>
        <time>2013-08-27T11:47:47Z</time>
      </trkpt>
      <trkpt lat="45.72503" lon="6.71632">
        <ele>2480.8</ele>
        <time>2013-08-27T11:47:48Z</time>
      </trkpt>
      <trkpt lat="45.72502" lon="6.71633">
        <ele>2481.3</ele>
        <time>2013-08-27T11:47:49Z</time>
      </trkpt>
      <trkpt lat="45.72498" lon="6.71631">
        <ele>2480.8</ele>
        <time>2013-08-27T11:47:55Z</time>
      </trkpt>
      <trkpt lat="45.72491" lon="6.71624">
        <ele>2479.4</ele>
        <time>2013-08-27T11:48:06Z</time>
      </trkpt>
      <trkpt lat="45.72489" lon="6.71623">
        <ele>2479.9</ele>
        <time>2013-08-27T11:48:15Z</time>
      </trkpt>
      <trkpt lat="45.72487" lon="6.71623">
        <ele>2479.9</ele>
        <time>2013-08-27T11:48:16Z</time>
      </trkpt>
      <trkpt lat="45.72486" lon="6.71623">
        <ele>2479.9</ele>
        <time>2013-08-27T11:48:17Z</time>
      </trkpt>
      <trkpt lat="45.72484" lon="6.71623">
        <ele>2479.9</ele>
        <time>2013-08-27T11:48:18Z</time>
      </trkpt>
      <trkpt lat="45.72482" lon="6.71622">
        <ele>2479.9</ele>
        <time>2013-08-27T11:48:19Z</time>
      </trkpt>
      <trkpt lat="45.7248" lon="6.71621">
        <ele>2480.3</ele>
        <time>2013-08-27T11:48:20Z</time>
      </trkpt>
      <trkpt lat="45.72477" lon="6.7162">
        <ele>2479.9</ele>
        <time>2013-08-27T11:48:21Z</time>
      </trkpt>
      <trkpt lat="45.72474" lon="6.71619">
        <ele>2479.4</ele>
        <time>2013-08-27T11:48:22Z</time>
      </trkpt>
      <trkpt lat="45.72471" lon="6.71618">
        <ele>2479.4</ele>
        <time>2013-08-27T11:48:23Z</time>
      </trkpt>
      <trkpt lat="45.72468" lon="6.71617">
        <ele>2479.4</ele>
        <time>2013-08-27T11:48:24Z</time>
      </trkpt>
      <trkpt lat="45.72464" lon="6.71617">
        <ele>2479.4</ele>
        <time>2013-08-27T11:48:26Z</time>
      </trkpt>
      <trkpt lat="45.72463" lon="6.71617">
        <ele>2479.9</ele>
        <time>2013-08-27T11:48:27Z</time>
      </trkpt>
      <trkpt lat="45.72461" lon="6.71617">
        <ele>2480.3</ele>
        <time>2013-08-27T11:48:28Z</time>
      </trkpt>
      <trkpt lat="45.7246" lon="6.71618">
        <ele>2480.3</ele>
        <time>2013-08-27T11:48:29Z</time>
      </trkpt>
      <trkpt lat="45.72459" lon="6.71618">
        <ele>2480.3</ele>
        <time>2013-08-27T11:48:30Z</time>
      </trkpt>
      <trkpt lat="45.72458" lon="6.71619">
        <ele>2479.4</ele>
        <time>2013-08-27T11:48:31Z</time>
      </trkpt>
      <trkpt lat="45.72457" lon="6.71619">
        <ele>2481.3</ele>
        <time>2013-08-27T11:48:32Z</time>
      </trkpt>
      <trkpt lat="45.72455" lon="6.71619">
        <ele>2479.9</ele>
        <time>2013-08-27T11:48:33Z</time>
      </trkpt>
      <trkpt lat="45.72453" lon="6.71619">
        <ele>2480.3</ele>
        <time>2013-08-27T11:48:34Z</time>
      </trkpt>
      <trkpt lat="45.72451" lon="6.7162">
        <ele>2481.3</ele>
        <time>2013-08-27T11:48:35Z</time>
      </trkpt>
      <trkpt lat="45.7245" lon="6.71621">
        <ele>2481.3</ele>
        <time>2013-08-27T11:48:36Z</time>
      </trkpt>
      <trkpt lat="45.72425" lon="6.71634">
        <ele>2480.3</ele>
        <time>2013-08-27T11:48:48Z</time>
      </trkpt>
      <trkpt lat="45.72423" lon="6.71634">
        <ele>2480.3</ele>
        <time>2013-08-27T11:48:49Z</time>
      </trkpt>
      <trkpt lat="45.72404" lon="6.71645">
        <ele>2480.3</ele>
        <time>2013-08-27T11:49:01Z</time>
      </trkpt>
      <trkpt lat="45.72398" lon="6.7165">
        <ele>2480.8</ele>
        <time>2013-08-27T11:49:10Z</time>
      </trkpt>
      <trkpt lat="45.72387" lon="6.71674">
        <ele>2477.5</ele>
        <time>2013-08-27T11:49:30Z</time>
      </trkpt>
      <trkpt lat="45.72382" lon="6.71682">
        <ele>2476</ele>
        <time>2013-08-27T11:49:33Z</time>
      </trkpt>
      <trkpt lat="45.72357" lon="6.71698">
        <ele>2473.6</ele>
        <time>2013-08-27T11:49:43Z</time>
      </trkpt>
      <trkpt lat="45.72352" lon="6.71702">
        <ele>2475.1</ele>
        <time>2013-08-27T11:49:46Z</time>
      </trkpt>
      <trkpt lat="45.72322" lon="6.71713">
        <ele>2473.1</ele>
        <time>2013-08-27T11:49:58Z</time>
      </trkpt>
      <trkpt lat="45.72312" lon="6.71714">
        <ele>2471.7</ele>
        <time>2013-08-27T11:50:01Z</time>
      </trkpt>
      <trkpt lat="45.72302" lon="6.71714">
        <ele>2468.8</ele>
        <time>2013-08-27T11:50:05Z</time>
      </trkpt>
      <trkpt lat="45.72288" lon="6.71715">
        <ele>2465.9</ele>
        <time>2013-08-27T11:50:11Z</time>
      </trkpt>
      <trkpt lat="45.72283" lon="6.71718">
        <ele>2465.4</ele>
        <time>2013-08-27T11:50:17Z</time>
      </trkpt>
      <trkpt lat="45.72282" lon="6.71719">
        <ele>2464</ele>
        <time>2013-08-27T11:50:18Z</time>
      </trkpt>
      <trkpt lat="45.72281" lon="6.71719">
        <ele>2465.4</ele>
        <time>2013-08-27T11:50:19Z</time>
      </trkpt>
      <trkpt lat="45.72275" lon="6.7172">
        <ele>2462.1</ele>
        <time>2013-08-27T11:50:30Z</time>
      </trkpt>
      <trkpt lat="45.72264" lon="6.71721">
        <ele>2461.1</ele>
        <time>2013-08-27T11:50:34Z</time>
      </trkpt>
      <trkpt lat="45.72261" lon="6.7172">
        <ele>2459.7</ele>
        <time>2013-08-27T11:50:35Z</time>
      </trkpt>
      <trkpt lat="45.72257" lon="6.7172">
        <ele>2459.2</ele>
        <time>2013-08-27T11:50:36Z</time>
      </trkpt>
      <trkpt lat="45.72254" lon="6.7172">
        <ele>2458.2</ele>
        <time>2013-08-27T11:50:37Z</time>
      </trkpt>
      <trkpt lat="45.7225" lon="6.7172">
        <ele>2457.3</ele>
        <time>2013-08-27T11:50:38Z</time>
      </trkpt>
      <trkpt lat="45.72248" lon="6.7172">
        <ele>2456.8</ele>
        <time>2013-08-27T11:50:39Z</time>
      </trkpt>
      <trkpt lat="45.72245" lon="6.7172">
        <ele>2456.8</ele>
        <time>2013-08-27T11:50:40Z</time>
      </trkpt>
      <trkpt lat="45.72243" lon="6.71721">
        <ele>2455.8</ele>
        <time>2013-08-27T11:50:41Z</time>
      </trkpt>
      <trkpt lat="45.7224" lon="6.71723">
        <ele>2455.3</ele>
        <time>2013-08-27T11:50:43Z</time>
      </trkpt>
      <trkpt lat="45.7224" lon="6.71724">
        <ele>2454.4</ele>
        <time>2013-08-27T11:50:58Z</time>
      </trkpt>
      <trkpt lat="45.72241" lon="6.71723">
        <ele>2455.3</ele>
        <time>2013-08-27T11:51:34Z</time>
      </trkpt>
      <trkpt lat="45.72241" lon="6.71722">
        <ele>2454.9</ele>
        <time>2013-08-27T11:52:08Z</time>
      </trkpt>
      <trkpt lat="45.72238" lon="6.71723">
        <ele>2454.9</ele>
        <time>2013-08-27T11:52:14Z</time>
      </trkpt>
      <trkpt lat="45.72235" lon="6.71724">
        <ele>2455.3</ele>
        <time>2013-08-27T11:52:15Z</time>
      </trkpt>
      <trkpt lat="45.72232" lon="6.71723">
        <ele>2454.9</ele>
        <time>2013-08-27T11:52:16Z</time>
      </trkpt>
      <trkpt lat="45.72229" lon="6.71722">
        <ele>2454.4</ele>
        <time>2013-08-27T11:52:17Z</time>
      </trkpt>
      <trkpt lat="45.72226" lon="6.71721">
        <ele>2452.9</ele>
        <time>2013-08-27T11:52:18Z</time>
      </trkpt>
      <trkpt lat="45.72215" lon="6.71717">
        <ele>2449.6</ele>
        <time>2013-08-27T11:52:22Z</time>
      </trkpt>
      <trkpt lat="45.72214" lon="6.71716">
        <ele>2449.1</ele>
        <time>2013-08-27T11:52:23Z</time>
      </trkpt>
      <trkpt lat="45.72215" lon="6.71717">
        <ele>2448.6</ele>
        <time>2013-08-27T11:52:45Z</time>
      </trkpt>
      <trkpt lat="45.72211" lon="6.71714">
        <ele>2449.1</ele>
        <time>2013-08-27T11:53:06Z</time>
      </trkpt>
      <trkpt lat="45.72205" lon="6.71711">
        <ele>2449.1</ele>
        <time>2013-08-27T11:53:10Z</time>
      </trkpt>
      <trkpt lat="45.72205" lon="6.71696">
        <ele>2446.2</ele>
        <time>2013-08-27T11:53:16Z</time>
      </trkpt>
      <trkpt lat="45.72206" lon="6.71693">
        <ele>2445.7</ele>
        <time>2013-08-27T11:53:17Z</time>
      </trkpt>
      <trkpt lat="45.72207" lon="6.7169">
        <ele>2445.7</ele>
        <time>2013-08-27T11:53:18Z</time>
      </trkpt>
      <trkpt lat="45.72208" lon="6.71686">
        <ele>2445.7</ele>
        <time>2013-08-27T11:53:19Z</time>
      </trkpt>
      <trkpt lat="45.72209" lon="6.71683">
        <ele>2445.3</ele>
        <time>2013-08-27T11:53:20Z</time>
      </trkpt>
      <trkpt lat="45.72209" lon="6.71679">
        <ele>2444.8</ele>
        <time>2013-08-27T11:53:21Z</time>
      </trkpt>
      <trkpt lat="45.7221" lon="6.71674">
        <ele>2443.8</ele>
        <time>2013-08-27T11:53:22Z</time>
      </trkpt>
      <trkpt lat="45.72211" lon="6.71669">
        <ele>2443.3</ele>
        <time>2013-08-27T11:53:23Z</time>
      </trkpt>
      <trkpt lat="45.72212" lon="6.71664">
        <ele>2442.4</ele>
        <time>2013-08-27T11:53:24Z</time>
      </trkpt>
      <trkpt lat="45.72212" lon="6.7166">
        <ele>2442.9</ele>
        <time>2013-08-27T11:53:25Z</time>
      </trkpt>
      <trkpt lat="45.72213" lon="6.71642">
        <ele>2441.4</ele>
        <time>2013-08-27T11:53:29Z</time>
      </trkpt>
      <trkpt lat="45.72209" lon="6.71625">
        <ele>2439.5</ele>
        <time>2013-08-27T11:53:33Z</time>
      </trkpt>
      <trkpt lat="45.72207" lon="6.71624">
        <ele>2439</ele>
        <time>2013-08-27T11:53:34Z</time>
      </trkpt>
      <trkpt lat="45.72204" lon="6.71621">
        <ele>2438</ele>
        <time>2013-08-27T11:53:36Z</time>
      </trkpt>
      <trkpt lat="45.72203" lon="6.71619">
        <ele>2437.6</ele>
        <time>2013-08-27T11:53:37Z</time>
      </trkpt>
      <trkpt lat="45.72203" lon="6.71617">
        <ele>2437.6</ele>
        <time>2013-08-27T11:53:38Z</time>
      </trkpt>
      <trkpt lat="45.72204" lon="6.71611">
        <ele>2436.6</ele>
        <time>2013-08-27T11:53:43Z</time>
      </trkpt>
      <trkpt lat="45.72203" lon="6.7161">
        <ele>2436.6</ele>
        <time>2013-08-27T11:53:44Z</time>
      </trkpt>
      <trkpt lat="45.72202" lon="6.71608">
        <ele>2435.6</ele>
        <time>2013-08-27T11:53:45Z</time>
      </trkpt>
      <trkpt lat="45.72201" lon="6.71607">
        <ele>2436.1</ele>
        <time>2013-08-27T11:53:46Z</time>
      </trkpt>
      <trkpt lat="45.72199" lon="6.71606">
        <ele>2436.1</ele>
        <time>2013-08-27T11:53:47Z</time>
      </trkpt>
      <trkpt lat="45.72197" lon="6.71605">
        <ele>2436.6</ele>
        <time>2013-08-27T11:53:48Z</time>
      </trkpt>
      <trkpt lat="45.72195" lon="6.71603">
        <ele>2435.6</ele>
        <time>2013-08-27T11:53:49Z</time>
      </trkpt>
      <trkpt lat="45.72193" lon="6.71601">
        <ele>2435.6</ele>
        <time>2013-08-27T11:53:50Z</time>
      </trkpt>
      <trkpt lat="45.72192" lon="6.71599">
        <ele>2435.6</ele>
        <time>2013-08-27T11:53:51Z</time>
      </trkpt>
      <trkpt lat="45.7219" lon="6.716">
        <ele>2435.6</ele>
        <time>2013-08-27T11:54:06Z</time>
      </trkpt>
      <trkpt lat="45.72189" lon="6.71598">
        <ele>2435.2</ele>
        <time>2013-08-27T11:54:12Z</time>
      </trkpt>
      <trkpt lat="45.7216" lon="6.71579">
        <ele>2432.3</ele>
        <time>2013-08-27T11:54:24Z</time>
      </trkpt>
      <trkpt lat="45.72152" lon="6.71574">
        <ele>2430.4</ele>
        <time>2013-08-27T11:54:26Z</time>
      </trkpt>
      <trkpt lat="45.72118" lon="6.71555">
        <ele>2430.8</ele>
        <time>2013-08-27T11:54:36Z</time>
      </trkpt>
      <trkpt lat="45.72114" lon="6.71552">
        <ele>2430.4</ele>
        <time>2013-08-27T11:54:37Z</time>
      </trkpt>
      <trkpt lat="45.72111" lon="6.7155">
        <ele>2430.8</ele>
        <time>2013-08-27T11:54:38Z</time>
      </trkpt>
      <trkpt lat="45.72109" lon="6.71547">
        <ele>2430.4</ele>
        <time>2013-08-27T11:54:39Z</time>
      </trkpt>
      <trkpt lat="45.72106" lon="6.71544">
        <ele>2429.9</ele>
        <time>2013-08-27T11:54:40Z</time>
      </trkpt>
      <trkpt lat="45.72089" lon="6.71515">
        <ele>2426.5</ele>
        <time>2013-08-27T11:54:48Z</time>
      </trkpt>
      <trkpt lat="45.72087" lon="6.71511">
        <ele>2426.5</ele>
        <time>2013-08-27T11:54:49Z</time>
      </trkpt>
      <trkpt lat="45.72086" lon="6.71508">
        <ele>2425.5</ele>
        <time>2013-08-27T11:54:50Z</time>
      </trkpt>
      <trkpt lat="45.72084" lon="6.71505">
        <ele>2425.5</ele>
        <time>2013-08-27T11:54:51Z</time>
      </trkpt>
      <trkpt lat="45.72082" lon="6.71501">
        <ele>2425.1</ele>
        <time>2013-08-27T11:54:52Z</time>
      </trkpt>
      <trkpt lat="45.7208" lon="6.71495">
        <ele>2423.6</ele>
        <time>2013-08-27T11:54:53Z</time>
      </trkpt>
      <trkpt lat="45.72078" lon="6.71488">
        <ele>2423.1</ele>
        <time>2013-08-27T11:54:54Z</time>
      </trkpt>
      <trkpt lat="45.72075" lon="6.71482">
        <ele>2423.1</ele>
        <time>2013-08-27T11:54:55Z</time>
      </trkpt>
      <trkpt lat="45.72071" lon="6.71477">
        <ele>2422.7</ele>
        <time>2013-08-27T11:54:56Z</time>
      </trkpt>
      <trkpt lat="45.72053" lon="6.71452">
        <ele>2419.8</ele>
        <time>2013-08-27T11:55:03Z</time>
      </trkpt>
      <trkpt lat="45.7205" lon="6.71451">
        <ele>2419.3</ele>
        <time>2013-08-27T11:55:04Z</time>
      </trkpt>
      <trkpt lat="45.72046" lon="6.71451">
        <ele>2418.8</ele>
        <time>2013-08-27T11:55:05Z</time>
      </trkpt>
      <trkpt lat="45.72035" lon="6.71451">
        <ele>2416.9</ele>
        <time>2013-08-27T11:55:07Z</time>
      </trkpt>
      <trkpt lat="45.72016" lon="6.71457">
        <ele>2415</ele>
        <time>2013-08-27T11:55:10Z</time>
      </trkpt>
      <trkpt lat="45.72003" lon="6.71464">
        <ele>2414</ele>
        <time>2013-08-27T11:55:12Z</time>
      </trkpt>
      <trkpt lat="45.71997" lon="6.71468">
        <ele>2413.5</ele>
        <time>2013-08-27T11:55:13Z</time>
      </trkpt>
      <trkpt lat="45.71964" lon="6.71492">
        <ele>2415.5</ele>
        <time>2013-08-27T11:55:21Z</time>
      </trkpt>
      <trkpt lat="45.71951" lon="6.71498">
        <ele>2418.3</ele>
        <time>2013-08-27T11:55:34Z</time>
      </trkpt>
      <trkpt lat="45.71941" lon="6.71503">
        <ele>2420.3</ele>
        <time>2013-08-27T11:55:49Z</time>
      </trkpt>
      <trkpt lat="45.71929" lon="6.71504">
        <ele>2422.7</ele>
        <time>2013-08-27T11:56:08Z</time>
      </trkpt>
      <trkpt lat="45.7192" lon="6.71499">
        <ele>2426</ele>
        <time>2013-08-27T11:56:24Z</time>
      </trkpt>
      <trkpt lat="45.71913" lon="6.71497">
        <ele>2428</ele>
        <time>2013-08-27T11:56:39Z</time>
      </trkpt>
      <trkpt lat="45.71904" lon="6.71492">
        <ele>2430.4</ele>
        <time>2013-08-27T11:56:56Z</time>
      </trkpt>
      <trkpt lat="45.71897" lon="6.71488">
        <ele>2433.2</ele>
        <time>2013-08-27T11:57:10Z</time>
      </trkpt>
      <trkpt lat="45.71884" lon="6.7148">
        <ele>2435.6</ele>
        <time>2013-08-27T11:57:30Z</time>
      </trkpt>
      <trkpt lat="45.71873" lon="6.71473">
        <ele>2437.1</ele>
        <time>2013-08-27T11:57:45Z</time>
      </trkpt>
      <trkpt lat="45.7186" lon="6.71465">
        <ele>2440</ele>
        <time>2013-08-27T11:58:01Z</time>
      </trkpt>
      <trkpt lat="45.71856" lon="6.71464">
        <ele>2440.9</ele>
        <time>2013-08-27T11:58:06Z</time>
      </trkpt>
      <trkpt lat="45.7184" lon="6.71461">
        <ele>2443.8</ele>
        <time>2013-08-27T11:58:24Z</time>
      </trkpt>
      <trkpt lat="45.71832" lon="6.7146">
        <ele>2445.3</ele>
        <time>2013-08-27T11:58:43Z</time>
      </trkpt>
      <trkpt lat="45.71827" lon="6.71461">
        <ele>2445.7</ele>
        <time>2013-08-27T11:58:59Z</time>
      </trkpt>
      <trkpt lat="45.71814" lon="6.71449">
        <ele>2447.2</ele>
        <time>2013-08-27T11:59:15Z</time>
      </trkpt>
      <trkpt lat="45.71803" lon="6.71442">
        <ele>2450.1</ele>
        <time>2013-08-27T11:59:33Z</time>
      </trkpt>
      <trkpt lat="45.71803" lon="6.71437">
        <ele>2451</ele>
        <time>2013-08-27T11:59:47Z</time>
      </trkpt>
      <trkpt lat="45.71808" lon="6.71438">
        <ele>2452</ele>
        <time>2013-08-27T11:59:57Z</time>
      </trkpt>
      <trkpt lat="45.7182" lon="6.71439">
        <ele>2453.4</ele>
        <time>2013-08-27T12:00:11Z</time>
      </trkpt>
      <trkpt lat="45.71824" lon="6.71436">
        <ele>2456.3</ele>
        <time>2013-08-27T12:00:26Z</time>
      </trkpt>
      <trkpt lat="45.71822" lon="6.71434">
        <ele>2456.3</ele>
        <time>2013-08-27T12:00:50Z</time>
      </trkpt>
      <trkpt lat="45.71817" lon="6.71424">
        <ele>2459.2</ele>
        <time>2013-08-27T12:01:09Z</time>
      </trkpt>
      <trkpt lat="45.7181" lon="6.71412">
        <ele>2462.6</ele>
        <time>2013-08-27T12:01:30Z</time>
      </trkpt>
      <trkpt lat="45.71809" lon="6.7141">
        <ele>2462.1</ele>
        <time>2013-08-27T12:01:37Z</time>
      </trkpt>
      <trkpt lat="45.71808" lon="6.71409">
        <ele>2462.6</ele>
        <time>2013-08-27T12:01:38Z</time>
      </trkpt>
      <trkpt lat="45.71791" lon="6.71383">
        <ele>2464</ele>
        <time>2013-08-27T12:01:54Z</time>
      </trkpt>
      <trkpt lat="45.71788" lon="6.71379">
        <ele>2465.4</ele>
        <time>2013-08-27T12:02:04Z</time>
      </trkpt>
      <trkpt lat="45.71781" lon="6.71372">
        <ele>2468.3</ele>
        <time>2013-08-27T12:02:20Z</time>
      </trkpt>
      <trkpt lat="45.71771" lon="6.71363">
        <ele>2470.2</ele>
        <time>2013-08-27T12:02:38Z</time>
      </trkpt>
      <trkpt lat="45.71764" lon="6.71354">
        <ele>2472.7</ele>
        <time>2013-08-27T12:02:56Z</time>
      </trkpt>
      <trkpt lat="45.71755" lon="6.71348">
        <ele>2475.5</ele>
        <time>2013-08-27T12:03:14Z</time>
      </trkpt>
      <trkpt lat="45.71746" lon="6.71351">
        <ele>2478.4</ele>
        <time>2013-08-27T12:03:32Z</time>
      </trkpt>
      <trkpt lat="45.71734" lon="6.7134">
        <ele>2479.9</ele>
        <time>2013-08-27T12:03:49Z</time>
      </trkpt>
      <trkpt lat="45.71726" lon="6.71331">
        <ele>2480.8</ele>
        <time>2013-08-27T12:04:03Z</time>
      </trkpt>
      <trkpt lat="45.71715" lon="6.71308">
        <ele>2484.7</ele>
        <time>2013-08-27T12:04:18Z</time>
      </trkpt>
      <trkpt lat="45.71699" lon="6.71277">
        <ele>2486.1</ele>
        <time>2013-08-27T12:04:34Z</time>
      </trkpt>
      <trkpt lat="45.71684" lon="6.7124">
        <ele>2486.1</ele>
        <time>2013-08-27T12:04:48Z</time>
      </trkpt>
      <trkpt lat="45.71677" lon="6.71213">
        <ele>2489</ele>
        <time>2013-08-27T12:05:01Z</time>
      </trkpt>
      <trkpt lat="45.71657" lon="6.71182">
        <ele>2489.5</ele>
        <time>2013-08-27T12:05:16Z</time>
      </trkpt>
      <trkpt lat="45.7163" lon="6.7117">
        <ele>2489.5</ele>
        <time>2013-08-27T12:05:27Z</time>
      </trkpt>
      <trkpt lat="45.71613" lon="6.71156">
        <ele>2492.8</ele>
        <time>2013-08-27T12:05:39Z</time>
      </trkpt>
      <trkpt lat="45.7159" lon="6.7113">
        <ele>2492.4</ele>
        <time>2013-08-27T12:05:53Z</time>
      </trkpt>
      <trkpt lat="45.71591" lon="6.71129">
        <ele>2492.4</ele>
        <time>2013-08-27T12:06:07Z</time>
      </trkpt>
      <trkpt lat="45.71582" lon="6.71122">
        <ele>2494.3</ele>
        <time>2013-08-27T12:06:23Z</time>
      </trkpt>
      <trkpt lat="45.71567" lon="6.71112">
        <ele>2496.7</ele>
        <time>2013-08-27T12:06:42Z</time>
      </trkpt>
      <trkpt lat="45.71556" lon="6.71109">
        <ele>2498.6</ele>
        <time>2013-08-27T12:06:58Z</time>
      </trkpt>
      <trkpt lat="45.71544" lon="6.71101">
        <ele>2501</ele>
        <time>2013-08-27T12:07:16Z</time>
      </trkpt>
      <trkpt lat="45.71534" lon="6.71091">
        <ele>2504.4</ele>
        <time>2013-08-27T12:07:36Z</time>
      </trkpt>
      <trkpt lat="45.71525" lon="6.71084">
        <ele>2504.4</ele>
        <time>2013-08-27T12:07:54Z</time>
      </trkpt>
      <trkpt lat="45.71517" lon="6.71083">
        <ele>2506.3</ele>
        <time>2013-08-27T12:08:09Z</time>
      </trkpt>
      <trkpt lat="45.71505" lon="6.71075">
        <ele>2509.7</ele>
        <time>2013-08-27T12:08:28Z</time>
      </trkpt>
      <trkpt lat="45.71491" lon="6.7107">
        <ele>2512.5</ele>
        <time>2013-08-27T12:08:45Z</time>
      </trkpt>
      <trkpt lat="45.7148" lon="6.71064">
        <ele>2514</ele>
        <time>2013-08-27T12:09:04Z</time>
      </trkpt>
      <trkpt lat="45.7147" lon="6.71071">
        <ele>2515.4</ele>
        <time>2013-08-27T12:09:20Z</time>
      </trkpt>
      <trkpt lat="45.71465" lon="6.71069">
        <ele>2515.9</ele>
        <time>2013-08-27T12:09:38Z</time>
      </trkpt>
      <trkpt lat="45.71454" lon="6.71068">
        <ele>2517.8</ele>
        <time>2013-08-27T12:09:54Z</time>
      </trkpt>
      <trkpt lat="45.71451" lon="6.71067">
        <ele>2517.8</ele>
        <time>2013-08-27T12:09:59Z</time>
      </trkpt>
      <trkpt lat="45.7145" lon="6.71066">
        <ele>2517.8</ele>
        <time>2013-08-27T12:10:00Z</time>
      </trkpt>
      <trkpt lat="45.71449" lon="6.71066">
        <ele>2517.8</ele>
        <time>2013-08-27T12:10:01Z</time>
      </trkpt>
      <trkpt lat="45.7143" lon="6.71061">
        <ele>2520.2</ele>
        <time>2013-08-27T12:10:18Z</time>
      </trkpt>
      <trkpt lat="45.71434" lon="6.71056">
        <ele>2521.2</ele>
        <time>2013-08-27T12:10:30Z</time>
      </trkpt>
      <trkpt lat="45.7145" lon="6.71051">
        <ele>2522.6</ele>
        <time>2013-08-27T12:10:42Z</time>
      </trkpt>
      <trkpt lat="45.71449" lon="6.71044">
        <ele>2524.6</ele>
        <time>2013-08-27T12:10:53Z</time>
      </trkpt>
      <trkpt lat="45.71447" lon="6.71041">
        <ele>2524.1</ele>
        <time>2013-08-27T12:11:00Z</time>
      </trkpt>
      <trkpt lat="45.71425" lon="6.71014">
        <ele>2526.5</ele>
        <time>2013-08-27T12:11:18Z</time>
      </trkpt>
      <trkpt lat="45.71394" lon="6.70986">
        <ele>2529.4</ele>
        <time>2013-08-27T12:11:36Z</time>
      </trkpt>
      <trkpt lat="45.71367" lon="6.70957">
        <ele>2530.8</ele>
        <time>2013-08-27T12:11:53Z</time>
      </trkpt>
      <trkpt lat="45.71349" lon="6.70938">
        <ele>2528.9</ele>
        <time>2013-08-27T12:12:07Z</time>
      </trkpt>
      <trkpt lat="45.71349" lon="6.70939">
        <ele>2527.9</ele>
        <time>2013-08-27T12:12:43Z</time>
      </trkpt>
      <trkpt lat="45.71347" lon="6.70936">
        <ele>2527.4</ele>
        <time>2013-08-27T12:13:05Z</time>
      </trkpt>
      <trkpt lat="45.71347" lon="6.70936">
        <ele>2528.9</ele>
        <time>2013-08-27T12:13:39Z</time>
      </trkpt>
      <trkpt lat="45.71347" lon="6.70936">
        <ele>2528.4</ele>
        <time>2013-08-27T12:14:11Z</time>
      </trkpt>
      <trkpt lat="45.71346" lon="6.70935">
        <ele>2528.4</ele>
        <time>2013-08-27T12:14:47Z</time>
      </trkpt>
      <trkpt lat="45.71343" lon="6.70936">
        <ele>2527.9</ele>
        <time>2013-08-27T12:15:18Z</time>
      </trkpt>
      <trkpt lat="45.71343" lon="6.70933">
        <ele>2527.9</ele>
        <time>2013-08-27T12:15:33Z</time>
      </trkpt>
      <trkpt lat="45.7134" lon="6.70933">
        <ele>2527.9</ele>
        <time>2013-08-27T12:16:00Z</time>
      </trkpt>
      <trkpt lat="45.71336" lon="6.70931">
        <ele>2528.4</ele>
        <time>2013-08-27T12:16:18Z</time>
      </trkpt>
      <trkpt lat="45.71327" lon="6.70923">
        <ele>2527.4</ele>
        <time>2013-08-27T12:16:30Z</time>
      </trkpt>
      <trkpt lat="45.713" lon="6.70906">
        <ele>2527.9</ele>
        <time>2013-08-27T12:16:44Z</time>
      </trkpt>
      <trkpt lat="45.71272" lon="6.7089">
        <ele>2529.4</ele>
        <time>2013-08-27T12:16:59Z</time>
      </trkpt>
      <trkpt lat="45.71251" lon="6.70854">
        <ele>2527.9</ele>
        <time>2013-08-27T12:17:11Z</time>
      </trkpt>
      <trkpt lat="45.71242" lon="6.70818">
        <ele>2525</ele>
        <time>2013-08-27T12:17:18Z</time>
      </trkpt>
      <trkpt lat="45.71236" lon="6.70796">
        <ele>2521.7</ele>
        <time>2013-08-27T12:17:22Z</time>
      </trkpt>
      <trkpt lat="45.71234" lon="6.70791">
        <ele>2522.2</ele>
        <time>2013-08-27T12:17:23Z</time>
      </trkpt>
      <trkpt lat="45.71232" lon="6.70785">
        <ele>2521.2</ele>
        <time>2013-08-27T12:17:24Z</time>
      </trkpt>
      <trkpt lat="45.7123" lon="6.7078">
        <ele>2520.7</ele>
        <time>2013-08-27T12:17:25Z</time>
      </trkpt>
      <trkpt lat="45.71226" lon="6.70768">
        <ele>2519.3</ele>
        <time>2013-08-27T12:17:27Z</time>
      </trkpt>
      <trkpt lat="45.71224" lon="6.70764">
        <ele>2518.8</ele>
        <time>2013-08-27T12:17:28Z</time>
      </trkpt>
      <trkpt lat="45.71222" lon="6.70762">
        <ele>2518.3</ele>
        <time>2013-08-27T12:17:29Z</time>
      </trkpt>
      <trkpt lat="45.71219" lon="6.7076">
        <ele>2517.8</ele>
        <time>2013-08-27T12:17:30Z</time>
      </trkpt>
      <trkpt lat="45.71216" lon="6.70757">
        <ele>2517.8</ele>
        <time>2013-08-27T12:17:31Z</time>
      </trkpt>
      <trkpt lat="45.71198" lon="6.70732">
        <ele>2514.5</ele>
        <time>2013-08-27T12:17:38Z</time>
      </trkpt>
      <trkpt lat="45.71191" lon="6.70724">
        <ele>2513</ele>
        <time>2013-08-27T12:17:40Z</time>
      </trkpt>
      <trkpt lat="45.71188" lon="6.70719">
        <ele>2512.5</ele>
        <time>2013-08-27T12:17:41Z</time>
      </trkpt>
      <trkpt lat="45.71185" lon="6.70715">
        <ele>2511.6</ele>
        <time>2013-08-27T12:17:42Z</time>
      </trkpt>
      <trkpt lat="45.71182" lon="6.7071">
        <ele>2511.1</ele>
        <time>2013-08-27T12:17:43Z</time>
      </trkpt>
      <trkpt lat="45.71179" lon="6.70704">
        <ele>2510.1</ele>
        <time>2013-08-27T12:17:44Z</time>
      </trkpt>
      <trkpt lat="45.71177" lon="6.70698">
        <ele>2509.2</ele>
        <time>2013-08-27T12:17:45Z</time>
      </trkpt>
      <trkpt lat="45.71174" lon="6.70692">
        <ele>2507.7</ele>
        <time>2013-08-27T12:17:46Z</time>
      </trkpt>
      <trkpt lat="45.71161" lon="6.70665">
        <ele>2503.9</ele>
        <time>2013-08-27T12:17:51Z</time>
      </trkpt>
      <trkpt lat="45.71159" lon="6.70658">
        <ele>2502.5</ele>
        <time>2013-08-27T12:17:52Z</time>
      </trkpt>
      <trkpt lat="45.71156" lon="6.70651">
        <ele>2502</ele>
        <time>2013-08-27T12:17:53Z</time>
      </trkpt>
      <trkpt lat="45.71151" lon="6.70636">
        <ele>2501</ele>
        <time>2013-08-27T12:17:55Z</time>
      </trkpt>
      <trkpt lat="45.71145" lon="6.70622">
        <ele>2499.1</ele>
        <time>2013-08-27T12:17:57Z</time>
      </trkpt>
      <trkpt lat="45.7113" lon="6.70571">
        <ele>2496.2</ele>
        <time>2013-08-27T12:18:04Z</time>
      </trkpt>
      <trkpt lat="45.71119" lon="6.70539">
        <ele>2492.8</ele>
        <time>2013-08-27T12:18:10Z</time>
      </trkpt>
      <trkpt lat="45.71109" lon="6.70516">
        <ele>2489.5</ele>
        <time>2013-08-27T12:18:16Z</time>
      </trkpt>
      <trkpt lat="45.71108" lon="6.70515">
        <ele>2489.5</ele>
        <time>2013-08-27T12:18:17Z</time>
      </trkpt>
      <trkpt lat="45.71106" lon="6.70511">
        <ele>2486.6</ele>
        <time>2013-08-27T12:18:33Z</time>
      </trkpt>
      <trkpt lat="45.71098" lon="6.70493">
        <ele>2483.7</ele>
        <time>2013-08-27T12:18:43Z</time>
      </trkpt>
      <trkpt lat="45.71096" lon="6.70488">
        <ele>2484.2</ele>
        <time>2013-08-27T12:18:44Z</time>
      </trkpt>
      <trkpt lat="45.7109" lon="6.70474">
        <ele>2482.7</ele>
        <time>2013-08-27T12:18:47Z</time>
      </trkpt>
      <trkpt lat="45.71083" lon="6.70459">
        <ele>2479.9</ele>
        <time>2013-08-27T12:18:50Z</time>
      </trkpt>
      <trkpt lat="45.7108" lon="6.70454">
        <ele>2479.9</ele>
        <time>2013-08-27T12:18:51Z</time>
      </trkpt>
      <trkpt lat="45.7107" lon="6.70432">
        <ele>2476.5</ele>
        <time>2013-08-27T12:18:55Z</time>
      </trkpt>
      <trkpt lat="45.71066" lon="6.7042">
        <ele>2474.1</ele>
        <time>2013-08-27T12:18:57Z</time>
      </trkpt>
      <trkpt lat="45.7106" lon="6.70402">
        <ele>2470.7</ele>
        <time>2013-08-27T12:19:01Z</time>
      </trkpt>
      <trkpt lat="45.71055" lon="6.70382">
        <ele>2467.8</ele>
        <time>2013-08-27T12:19:05Z</time>
      </trkpt>
      <trkpt lat="45.71052" lon="6.7037">
        <ele>2464.5</ele>
        <time>2013-08-27T12:19:08Z</time>
      </trkpt>
      <trkpt lat="45.7105" lon="6.70364">
        <ele>2464</ele>
        <time>2013-08-27T12:19:09Z</time>
      </trkpt>
      <trkpt lat="45.71048" lon="6.70359">
        <ele>2464</ele>
        <time>2013-08-27T12:19:10Z</time>
      </trkpt>
      <trkpt lat="45.71042" lon="6.7034">
        <ele>2460.6</ele>
        <time>2013-08-27T12:19:14Z</time>
      </trkpt>
      <trkpt lat="45.71038" lon="6.70324">
        <ele>2457.3</ele>
        <time>2013-08-27T12:19:17Z</time>
      </trkpt>
      <trkpt lat="45.71036" lon="6.70319">
        <ele>2457.3</ele>
        <time>2013-08-27T12:19:18Z</time>
      </trkpt>
      <trkpt lat="45.71028" lon="6.70299">
        <ele>2453.9</ele>
        <time>2013-08-27T12:19:22Z</time>
      </trkpt>
      <trkpt lat="45.71024" lon="6.70286">
        <ele>2452.5</ele>
        <time>2013-08-27T12:19:25Z</time>
      </trkpt>
      <trkpt lat="45.7102" lon="6.70276">
        <ele>2450.1</ele>
        <time>2013-08-27T12:19:28Z</time>
      </trkpt>
      <trkpt lat="45.71016" lon="6.70262">
        <ele>2446.2</ele>
        <time>2013-08-27T12:19:33Z</time>
      </trkpt>
      <trkpt lat="45.71013" lon="6.7026">
        <ele>2445.7</ele>
        <time>2013-08-27T12:19:45Z</time>
      </trkpt>
      <trkpt lat="45.71013" lon="6.70259">
        <ele>2445.7</ele>
        <time>2013-08-27T12:20:14Z</time>
      </trkpt>
      <trkpt lat="45.71013" lon="6.70249">
        <ele>2444.3</ele>
        <time>2013-08-27T12:20:25Z</time>
      </trkpt>
      <trkpt lat="45.71009" lon="6.70237">
        <ele>2441.4</ele>
        <time>2013-08-27T12:20:34Z</time>
      </trkpt>
      <trkpt lat="45.71008" lon="6.70233">
        <ele>2439.5</ele>
        <time>2013-08-27T12:20:39Z</time>
      </trkpt>
      <trkpt lat="45.71006" lon="6.70236">
        <ele>2439</ele>
        <time>2013-08-27T12:20:46Z</time>
      </trkpt>
      <trkpt lat="45.71004" lon="6.70252">
        <ele>2437.6</ele>
        <time>2013-08-27T12:20:56Z</time>
      </trkpt>
      <trkpt lat="45.71001" lon="6.70248">
        <ele>2434.7</ele>
        <time>2013-08-27T12:21:07Z</time>
      </trkpt>
      <trkpt lat="45.71001" lon="6.70246">
        <ele>2434.7</ele>
        <time>2013-08-27T12:21:08Z</time>
      </trkpt>
      <trkpt lat="45.71" lon="6.70226">
        <ele>2431.8</ele>
        <time>2013-08-27T12:21:18Z</time>
      </trkpt>
      <trkpt lat="45.71" lon="6.7022">
        <ele>2430.8</ele>
        <time>2013-08-27T12:21:29Z</time>
      </trkpt>
      <trkpt lat="45.70999" lon="6.70212">
        <ele>2429.4</ele>
        <time>2013-08-27T12:21:32Z</time>
      </trkpt>
      <trkpt lat="45.70998" lon="6.70209">
        <ele>2428.9</ele>
        <time>2013-08-27T12:21:33Z</time>
      </trkpt>
      <trkpt lat="45.70993" lon="6.70186">
        <ele>2427</ele>
        <time>2013-08-27T12:21:38Z</time>
      </trkpt>
      <trkpt lat="45.70985" lon="6.70158">
        <ele>2423.1</ele>
        <time>2013-08-27T12:21:42Z</time>
      </trkpt>
      <trkpt lat="45.70977" lon="6.70133">
        <ele>2420.3</ele>
        <time>2013-08-27T12:21:45Z</time>
      </trkpt>
      <trkpt lat="45.70975" lon="6.70125">
        <ele>2420.3</ele>
        <time>2013-08-27T12:21:46Z</time>
      </trkpt>
      <trkpt lat="45.70965" lon="6.70078">
        <ele>2422.2</ele>
        <time>2013-08-27T12:21:56Z</time>
      </trkpt>
      <trkpt lat="45.70948" lon="6.70018">
        <ele>2423.1</ele>
        <time>2013-08-27T12:22:13Z</time>
      </trkpt>
      <trkpt lat="45.70941" lon="6.69992">
        <ele>2425.5</ele>
        <time>2013-08-27T12:22:27Z</time>
      </trkpt>
      <trkpt lat="45.70939" lon="6.69982">
        <ele>2426</ele>
        <time>2013-08-27T12:22:47Z</time>
      </trkpt>
      <trkpt lat="45.70942" lon="6.69986">
        <ele>2424.1</ele>
        <time>2013-08-27T12:23:00Z</time>
      </trkpt>
      <trkpt lat="45.70943" lon="6.69984">
        <ele>2423.1</ele>
        <time>2013-08-27T12:23:05Z</time>
      </trkpt>
      <trkpt lat="45.70943" lon="6.69982">
        <ele>2422.7</ele>
        <time>2013-08-27T12:23:06Z</time>
      </trkpt>
      <trkpt lat="45.70943" lon="6.69981">
        <ele>2422.2</ele>
        <time>2013-08-27T12:23:07Z</time>
      </trkpt>
      <trkpt lat="45.70943" lon="6.69979">
        <ele>2422.2</ele>
        <time>2013-08-27T12:23:08Z</time>
      </trkpt>
      <trkpt lat="45.70943" lon="6.69977">
        <ele>2421.7</ele>
        <time>2013-08-27T12:23:09Z</time>
      </trkpt>
      <trkpt lat="45.70943" lon="6.69975">
        <ele>2421.7</ele>
        <time>2013-08-27T12:23:10Z</time>
      </trkpt>
      <trkpt lat="45.70946" lon="6.69983">
        <ele>2419.3</ele>
        <time>2013-08-27T12:23:19Z</time>
      </trkpt>
      <trkpt lat="45.70946" lon="6.69987">
        <ele>2418.3</ele>
        <time>2013-08-27T12:23:30Z</time>
      </trkpt>
      <trkpt lat="45.70947" lon="6.6999">
        <ele>2417.9</ele>
        <time>2013-08-27T12:23:31Z</time>
      </trkpt>
      <trkpt lat="45.70951" lon="6.70002">
        <ele>2416.4</ele>
        <time>2013-08-27T12:23:34Z</time>
      </trkpt>
      <trkpt lat="45.70953" lon="6.70011">
        <ele>2414</ele>
        <time>2013-08-27T12:23:37Z</time>
      </trkpt>
      <trkpt lat="45.70955" lon="6.70018">
        <ele>2412.6</ele>
        <time>2013-08-27T12:23:45Z</time>
      </trkpt>
      <trkpt lat="45.7095" lon="6.70016">
        <ele>2411.6</ele>
        <time>2013-08-27T12:23:54Z</time>
      </trkpt>
      <trkpt lat="45.70951" lon="6.70013">
        <ele>2411.1</ele>
        <time>2013-08-27T12:23:55Z</time>
      </trkpt>
      <trkpt lat="45.70951" lon="6.70007">
        <ele>2410.6</ele>
        <time>2013-08-27T12:23:56Z</time>
      </trkpt>
      <trkpt lat="45.70952" lon="6.70001">
        <ele>2410.2</ele>
        <time>2013-08-27T12:23:57Z</time>
      </trkpt>
      <trkpt lat="45.70952" lon="6.69996">
        <ele>2410.6</ele>
        <time>2013-08-27T12:23:58Z</time>
      </trkpt>
      <trkpt lat="45.70952" lon="6.69991">
        <ele>2409.2</ele>
        <time>2013-08-27T12:23:59Z</time>
      </trkpt>
      <trkpt lat="45.70953" lon="6.69985">
        <ele>2409.2</ele>
        <time>2013-08-27T12:24:00Z</time>
      </trkpt>
      <trkpt lat="45.70953" lon="6.69981">
        <ele>2408.7</ele>
        <time>2013-08-27T12:24:01Z</time>
      </trkpt>
      <trkpt lat="45.70953" lon="6.69977">
        <ele>2408.2</ele>
        <time>2013-08-27T12:24:02Z</time>
      </trkpt>
      <trkpt lat="45.70954" lon="6.69974">
        <ele>2408.2</ele>
        <time>2013-08-27T12:24:03Z</time>
      </trkpt>
      <trkpt lat="45.70955" lon="6.69971">
        <ele>2406.8</ele>
        <time>2013-08-27T12:24:04Z</time>
      </trkpt>
      <trkpt lat="45.70957" lon="6.69966">
        <ele>2405.8</ele>
        <time>2013-08-27T12:24:05Z</time>
      </trkpt>
      <trkpt lat="45.70958" lon="6.6996">
        <ele>2405.8</ele>
        <time>2013-08-27T12:24:06Z</time>
      </trkpt>
      <trkpt lat="45.7096" lon="6.69954">
        <ele>2405.4</ele>
        <time>2013-08-27T12:24:07Z</time>
      </trkpt>
      <trkpt lat="45.70962" lon="6.69948">
        <ele>2404.4</ele>
        <time>2013-08-27T12:24:08Z</time>
      </trkpt>
      <trkpt lat="45.70965" lon="6.69921">
        <ele>2401</ele>
        <time>2013-08-27T12:24:13Z</time>
      </trkpt>
      <trkpt lat="45.70966" lon="6.69912">
        <ele>2400.1</ele>
        <time>2013-08-27T12:24:15Z</time>
      </trkpt>
      <trkpt lat="45.70967" lon="6.69904">
        <ele>2399.1</ele>
        <time>2013-08-27T12:24:17Z</time>
      </trkpt>
      <trkpt lat="45.70969" lon="6.69897">
        <ele>2397.2</ele>
        <time>2013-08-27T12:24:26Z</time>
      </trkpt>
      <trkpt lat="45.7097" lon="6.69895">
        <ele>2396.2</ele>
        <time>2013-08-27T12:24:28Z</time>
      </trkpt>
      <trkpt lat="45.70971" lon="6.69892">
        <ele>2395.7</ele>
        <time>2013-08-27T12:24:32Z</time>
      </trkpt>
      <trkpt lat="45.70972" lon="6.69889">
        <ele>2396.2</ele>
        <time>2013-08-27T12:24:33Z</time>
      </trkpt>
      <trkpt lat="45.70976" lon="6.69877">
        <ele>2395.3</ele>
        <time>2013-08-27T12:24:36Z</time>
      </trkpt>
      <trkpt lat="45.70978" lon="6.69873">
        <ele>2394.3</ele>
        <time>2013-08-27T12:24:37Z</time>
      </trkpt>
      <trkpt lat="45.70979" lon="6.6987">
        <ele>2394.3</ele>
        <time>2013-08-27T12:24:38Z</time>
      </trkpt>
      <trkpt lat="45.70981" lon="6.69865">
        <ele>2393.3</ele>
        <time>2013-08-27T12:24:39Z</time>
      </trkpt>
      <trkpt lat="45.70982" lon="6.6986">
        <ele>2392.9</ele>
        <time>2013-08-27T12:24:40Z</time>
      </trkpt>
      <trkpt lat="45.70982" lon="6.69854">
        <ele>2391.9</ele>
        <time>2013-08-27T12:24:42Z</time>
      </trkpt>
      <trkpt lat="45.70981" lon="6.69853">
        <ele>2392.4</ele>
        <time>2013-08-27T12:24:52Z</time>
      </trkpt>
      <trkpt lat="45.70974" lon="6.69843">
        <ele>2390.9</ele>
        <time>2013-08-27T12:25:05Z</time>
      </trkpt>
      <trkpt lat="45.70971" lon="6.69835">
        <ele>2388.5</ele>
        <time>2013-08-27T12:25:09Z</time>
      </trkpt>
      <trkpt lat="45.70969" lon="6.69832">
        <ele>2388.5</ele>
        <time>2013-08-27T12:25:11Z</time>
      </trkpt>
      <trkpt lat="45.70969" lon="6.69829">
        <ele>2388.1</ele>
        <time>2013-08-27T12:25:12Z</time>
      </trkpt>
      <trkpt lat="45.70968" lon="6.69825">
        <ele>2386.6</ele>
        <time>2013-08-27T12:25:13Z</time>
      </trkpt>
      <trkpt lat="45.70967" lon="6.69821">
        <ele>2386.6</ele>
        <time>2013-08-27T12:25:14Z</time>
      </trkpt>
      <trkpt lat="45.70965" lon="6.69805">
        <ele>2383.3</ele>
        <time>2013-08-27T12:25:18Z</time>
      </trkpt>
      <trkpt lat="45.70965" lon="6.69802">
        <ele>2382.8</ele>
        <time>2013-08-27T12:25:19Z</time>
      </trkpt>
      <trkpt lat="45.70964" lon="6.69788">
        <ele>2379.4</ele>
        <time>2013-08-27T12:25:23Z</time>
      </trkpt>
      <trkpt lat="45.70963" lon="6.69779">
        <ele>2378.4</ele>
        <time>2013-08-27T12:25:25Z</time>
      </trkpt>
      <trkpt lat="45.70964" lon="6.69766">
        <ele>2376</ele>
        <time>2013-08-27T12:25:29Z</time>
      </trkpt>
      <trkpt lat="45.70965" lon="6.69753">
        <ele>2373.6</ele>
        <time>2013-08-27T12:25:34Z</time>
      </trkpt>
      <trkpt lat="45.70966" lon="6.69743">
        <ele>2373.6</ele>
        <time>2013-08-27T12:25:44Z</time>
      </trkpt>
      <trkpt lat="45.70967" lon="6.69724">
        <ele>2371.2</ele>
        <time>2013-08-27T12:25:59Z</time>
      </trkpt>
      <trkpt lat="45.70968" lon="6.69719">
        <ele>2369.3</ele>
        <time>2013-08-27T12:26:05Z</time>
      </trkpt>
      <trkpt lat="45.70969" lon="6.69694">
        <ele>2369.3</ele>
        <time>2013-08-27T12:26:14Z</time>
      </trkpt>
      <trkpt lat="45.70973" lon="6.69662">
        <ele>2365.9</ele>
        <time>2013-08-27T12:26:21Z</time>
      </trkpt>
      <trkpt lat="45.70974" lon="6.69655">
        <ele>2365.5</ele>
        <time>2013-08-27T12:26:23Z</time>
      </trkpt>
      <trkpt lat="45.70973" lon="6.6963">
        <ele>2365.5</ele>
        <time>2013-08-27T12:26:28Z</time>
      </trkpt>
      <trkpt lat="45.70975" lon="6.69625">
        <ele>2365</ele>
        <time>2013-08-27T12:26:29Z</time>
      </trkpt>
      <trkpt lat="45.70976" lon="6.6962">
        <ele>2364.5</ele>
        <time>2013-08-27T12:26:30Z</time>
      </trkpt>
      <trkpt lat="45.70976" lon="6.69616">
        <ele>2364</ele>
        <time>2013-08-27T12:26:31Z</time>
      </trkpt>
      <trkpt lat="45.70977" lon="6.6961">
        <ele>2363.5</ele>
        <time>2013-08-27T12:26:32Z</time>
      </trkpt>
      <trkpt lat="45.70978" lon="6.69605">
        <ele>2363.5</ele>
        <time>2013-08-27T12:26:33Z</time>
      </trkpt>
      <trkpt lat="45.70977" lon="6.69585">
        <ele>2361.6</ele>
        <time>2013-08-27T12:26:38Z</time>
      </trkpt>
      <trkpt lat="45.7097" lon="6.69573">
        <ele>2361.1</ele>
        <time>2013-08-27T12:26:43Z</time>
      </trkpt>
      <trkpt lat="45.70966" lon="6.6957">
        <ele>2357.3</ele>
        <time>2013-08-27T12:26:49Z</time>
      </trkpt>
      <trkpt lat="45.70966" lon="6.6957">
        <ele>2357.3</ele>
        <time>2013-08-27T12:26:50Z</time>
      </trkpt>
      <trkpt lat="45.70969" lon="6.69572">
        <ele>2357.3</ele>
        <time>2013-08-27T12:27:11Z</time>
      </trkpt>
      <trkpt lat="45.70972" lon="6.69572">
        <ele>2356.8</ele>
        <time>2013-08-27T12:27:12Z</time>
      </trkpt>
      <trkpt lat="45.70975" lon="6.69573">
        <ele>2356.3</ele>
        <time>2013-08-27T12:27:13Z</time>
      </trkpt>
      <trkpt lat="45.70981" lon="6.69576">
        <ele>2356.3</ele>
        <time>2013-08-27T12:27:16Z</time>
      </trkpt>
      <trkpt lat="45.70981" lon="6.6958">
        <ele>2355.4</ele>
        <time>2013-08-27T12:27:20Z</time>
      </trkpt>
      <trkpt lat="45.70982" lon="6.69582">
        <ele>2355.4</ele>
        <time>2013-08-27T12:27:21Z</time>
      </trkpt>
      <trkpt lat="45.7099" lon="6.69596">
        <ele>2352.5</ele>
        <time>2013-08-27T12:27:34Z</time>
      </trkpt>
      <trkpt lat="45.70992" lon="6.69603">
        <ele>2349.6</ele>
        <time>2013-08-27T12:27:46Z</time>
      </trkpt>
      <trkpt lat="45.70992" lon="6.69602">
        <ele>2350.1</ele>
        <time>2013-08-27T12:27:51Z</time>
      </trkpt>
      <trkpt lat="45.70997" lon="6.69584">
        <ele>2345.8</ele>
        <time>2013-08-27T12:27:57Z</time>
      </trkpt>
      <trkpt lat="45.71002" lon="6.69565">
        <ele>2341.9</ele>
        <time>2013-08-27T12:28:02Z</time>
      </trkpt>
      <trkpt lat="45.71004" lon="6.69564">
        <ele>2341.4</ele>
        <time>2013-08-27T12:28:03Z</time>
      </trkpt>
      <trkpt lat="45.71007" lon="6.69564">
        <ele>2341</ele>
        <time>2013-08-27T12:28:04Z</time>
      </trkpt>
      <trkpt lat="45.7101" lon="6.69565">
        <ele>2341</ele>
        <time>2013-08-27T12:28:05Z</time>
      </trkpt>
      <trkpt lat="45.71014" lon="6.69566">
        <ele>2341</ele>
        <time>2013-08-27T12:28:06Z</time>
      </trkpt>
      <trkpt lat="45.71027" lon="6.6957">
        <ele>2338.5</ele>
        <time>2013-08-27T12:28:09Z</time>
      </trkpt>
      <trkpt lat="45.71032" lon="6.69569">
        <ele>2338.5</ele>
        <time>2013-08-27T12:28:10Z</time>
      </trkpt>
      <trkpt lat="45.71052" lon="6.69558">
        <ele>2336.6</ele>
        <time>2013-08-27T12:28:16Z</time>
      </trkpt>
      <trkpt lat="45.71059" lon="6.69536">
        <ele>2334.7</ele>
        <time>2013-08-27T12:28:23Z</time>
      </trkpt>
      <trkpt lat="45.71061" lon="6.69536">
        <ele>2333.7</ele>
        <time>2013-08-27T12:28:24Z</time>
      </trkpt>
      <trkpt lat="45.71064" lon="6.69537">
        <ele>2333.7</ele>
        <time>2013-08-27T12:28:25Z</time>
      </trkpt>
      <trkpt lat="45.71066" lon="6.69536">
        <ele>2333.3</ele>
        <time>2013-08-27T12:28:26Z</time>
      </trkpt>
      <trkpt lat="45.71069" lon="6.69533">
        <ele>2332.3</ele>
        <time>2013-08-27T12:28:27Z</time>
      </trkpt>
      <trkpt lat="45.71073" lon="6.6953">
        <ele>2331.3</ele>
        <time>2013-08-27T12:28:28Z</time>
      </trkpt>
      <trkpt lat="45.71078" lon="6.69527">
        <ele>2329.9</ele>
        <time>2013-08-27T12:28:29Z</time>
      </trkpt>
      <trkpt lat="45.71087" lon="6.69525">
        <ele>2328.5</ele>
        <time>2013-08-27T12:28:31Z</time>
      </trkpt>
      <trkpt lat="45.71091" lon="6.69523">
        <ele>2328.5</ele>
        <time>2013-08-27T12:28:32Z</time>
      </trkpt>
      <trkpt lat="45.71094" lon="6.69519">
        <ele>2328.5</ele>
        <time>2013-08-27T12:28:33Z</time>
      </trkpt>
      <trkpt lat="45.71097" lon="6.69508">
        <ele>2328</ele>
        <time>2013-08-27T12:28:35Z</time>
      </trkpt>
      <trkpt lat="45.71099" lon="6.69502">
        <ele>2327.5</ele>
        <time>2013-08-27T12:28:36Z</time>
      </trkpt>
      <trkpt lat="45.71102" lon="6.69494">
        <ele>2326.1</ele>
        <time>2013-08-27T12:28:38Z</time>
      </trkpt>
      <trkpt lat="45.71105" lon="6.69492">
        <ele>2325.6</ele>
        <time>2013-08-27T12:28:39Z</time>
      </trkpt>
      <trkpt lat="45.71113" lon="6.69489">
        <ele>2324.1</ele>
        <time>2013-08-27T12:28:41Z</time>
      </trkpt>
      <trkpt lat="45.71117" lon="6.69484">
        <ele>2322.7</ele>
        <time>2013-08-27T12:28:42Z</time>
      </trkpt>
      <trkpt lat="45.71121" lon="6.69479">
        <ele>2322.2</ele>
        <time>2013-08-27T12:28:43Z</time>
      </trkpt>
      <trkpt lat="45.71125" lon="6.69473">
        <ele>2320.8</ele>
        <time>2013-08-27T12:28:44Z</time>
      </trkpt>
      <trkpt lat="45.71131" lon="6.69468">
        <ele>2320.3</ele>
        <time>2013-08-27T12:28:45Z</time>
      </trkpt>
      <trkpt lat="45.71137" lon="6.69464">
        <ele>2319.3</ele>
        <time>2013-08-27T12:28:46Z</time>
      </trkpt>
      <trkpt lat="45.71147" lon="6.69451">
        <ele>2318.8</ele>
        <time>2013-08-27T12:28:49Z</time>
      </trkpt>
      <trkpt lat="45.7115" lon="6.69446">
        <ele>2318.4</ele>
        <time>2013-08-27T12:28:50Z</time>
      </trkpt>
      <trkpt lat="45.71154" lon="6.69443">
        <ele>2317.9</ele>
        <time>2013-08-27T12:28:51Z</time>
      </trkpt>
      <trkpt lat="45.71159" lon="6.69441">
        <ele>2317.9</ele>
        <time>2013-08-27T12:28:52Z</time>
      </trkpt>
      <trkpt lat="45.71164" lon="6.69439">
        <ele>2317.4</ele>
        <time>2013-08-27T12:28:53Z</time>
      </trkpt>
      <trkpt lat="45.71171" lon="6.69437">
        <ele>2317.9</ele>
        <time>2013-08-27T12:29:00Z</time>
      </trkpt>
      <trkpt lat="45.71173" lon="6.69441">
        <ele>2317.4</ele>
        <time>2013-08-27T12:29:15Z</time>
      </trkpt>
      <trkpt lat="45.71171" lon="6.6944">
        <ele>2317.4</ele>
        <time>2013-08-27T12:29:59Z</time>
      </trkpt>
      <trkpt lat="45.71172" lon="6.69437">
        <ele>2317.4</ele>
        <time>2013-08-27T12:30:26Z</time>
      </trkpt>
      <trkpt lat="45.7118" lon="6.69432">
        <ele>2317.4</ele>
        <time>2013-08-27T12:30:36Z</time>
      </trkpt>
      <trkpt lat="45.71194" lon="6.69427">
        <ele>2316.4</ele>
        <time>2013-08-27T12:30:41Z</time>
      </trkpt>
      <trkpt lat="45.71195" lon="6.69425">
        <ele>2316.9</ele>
        <time>2013-08-27T12:30:42Z</time>
      </trkpt>
      <trkpt lat="45.71195" lon="6.69423">
        <ele>2316.4</ele>
        <time>2013-08-27T12:30:43Z</time>
      </trkpt>
      <trkpt lat="45.71192" lon="6.69418">
        <ele>2316</ele>
        <time>2013-08-27T12:30:52Z</time>
      </trkpt>
      <trkpt lat="45.71184" lon="6.69409">
        <ele>2312.6</ele>
        <time>2013-08-27T12:31:05Z</time>
      </trkpt>
      <trkpt lat="45.71177" lon="6.69399">
        <ele>2312.6</ele>
        <time>2013-08-27T12:31:18Z</time>
      </trkpt>
      <trkpt lat="45.71167" lon="6.69384">
        <ele>2311.2</ele>
        <time>2013-08-27T12:31:28Z</time>
      </trkpt>
      <trkpt lat="45.71145" lon="6.69371">
        <ele>2310.7</ele>
        <time>2013-08-27T12:31:39Z</time>
      </trkpt>
      <trkpt lat="45.7111" lon="6.69342">
        <ele>2309.7</ele>
        <time>2013-08-27T12:31:52Z</time>
      </trkpt>
      <trkpt lat="45.71093" lon="6.69317">
        <ele>2307.3</ele>
        <time>2013-08-27T12:32:02Z</time>
      </trkpt>
      <trkpt lat="45.7109" lon="6.69309">
        <ele>2306.3</ele>
        <time>2013-08-27T12:32:04Z</time>
      </trkpt>
      <trkpt lat="45.71083" lon="6.69298">
        <ele>2305.4</ele>
        <time>2013-08-27T12:32:13Z</time>
      </trkpt>
      <trkpt lat="45.7108" lon="6.69296">
        <ele>2304.9</ele>
        <time>2013-08-27T12:32:17Z</time>
      </trkpt>
      <trkpt lat="45.71079" lon="6.69296">
        <ele>2304.9</ele>
        <time>2013-08-27T12:32:18Z</time>
      </trkpt>
      <trkpt lat="45.71077" lon="6.69297">
        <ele>2304.9</ele>
        <time>2013-08-27T12:32:19Z</time>
      </trkpt>
      <trkpt lat="45.71076" lon="6.69296">
        <ele>2304.9</ele>
        <time>2013-08-27T12:32:20Z</time>
      </trkpt>
      <trkpt lat="45.71075" lon="6.69296">
        <ele>2304.9</ele>
        <time>2013-08-27T12:32:21Z</time>
      </trkpt>
      <trkpt lat="45.71065" lon="6.69293">
        <ele>2305.4</ele>
        <time>2013-08-27T12:32:31Z</time>
      </trkpt>
      <trkpt lat="45.71048" lon="6.69284">
        <ele>2304.4</ele>
        <time>2013-08-27T12:32:40Z</time>
      </trkpt>
      <trkpt lat="45.71039" lon="6.69277">
        <ele>2303</ele>
        <time>2013-08-27T12:32:59Z</time>
      </trkpt>
      <trkpt lat="45.71039" lon="6.69275">
        <ele>2303</ele>
        <time>2013-08-27T12:33:01Z</time>
      </trkpt>
      <trkpt lat="45.71038" lon="6.69273">
        <ele>2303</ele>
        <time>2013-08-27T12:33:02Z</time>
      </trkpt>
      <trkpt lat="45.71037" lon="6.6927">
        <ele>2302.5</ele>
        <time>2013-08-27T12:33:03Z</time>
      </trkpt>
      <trkpt lat="45.71036" lon="6.69267">
        <ele>2302.5</ele>
        <time>2013-08-27T12:33:04Z</time>
      </trkpt>
      <trkpt lat="45.71034" lon="6.69263">
        <ele>2302</ele>
        <time>2013-08-27T12:33:05Z</time>
      </trkpt>
      <trkpt lat="45.71026" lon="6.69246">
        <ele>2299.6</ele>
        <time>2013-08-27T12:33:09Z</time>
      </trkpt>
      <trkpt lat="45.71021" lon="6.69239">
        <ele>2298.2</ele>
        <time>2013-08-27T12:33:17Z</time>
      </trkpt>
      <trkpt lat="45.71017" lon="6.69231">
        <ele>2297.2</ele>
        <time>2013-08-27T12:33:30Z</time>
      </trkpt>
      <trkpt lat="45.71009" lon="6.69208">
        <ele>2296.3</ele>
        <time>2013-08-27T12:33:38Z</time>
      </trkpt>
      <trkpt lat="45.71007" lon="6.69203">
        <ele>2295.8</ele>
        <time>2013-08-27T12:33:39Z</time>
      </trkpt>
      <trkpt lat="45.71006" lon="6.69199">
        <ele>2295.8</ele>
        <time>2013-08-27T12:33:40Z</time>
      </trkpt>
      <trkpt lat="45.70999" lon="6.69185">
        <ele>2295.3</ele>
        <time>2013-08-27T12:33:44Z</time>
      </trkpt>
      <trkpt lat="45.70998" lon="6.69181">
        <ele>2295.3</ele>
        <time>2013-08-27T12:33:45Z</time>
      </trkpt>
      <trkpt lat="45.70995" lon="6.69136">
        <ele>2293.8</ele>
        <time>2013-08-27T12:33:57Z</time>
      </trkpt>
      <trkpt lat="45.70994" lon="6.69132">
        <ele>2293.8</ele>
        <time>2013-08-27T12:34:00Z</time>
      </trkpt>
      <trkpt lat="45.70993" lon="6.69131">
        <ele>2292.9</ele>
        <time>2013-08-27T12:34:01Z</time>
      </trkpt>
      <trkpt lat="45.70991" lon="6.69128">
        <ele>2291.9</ele>
        <time>2013-08-27T12:34:09Z</time>
      </trkpt>
      <trkpt lat="45.70998" lon="6.69104">
        <ele>2288.6</ele>
        <time>2013-08-27T12:34:18Z</time>
      </trkpt>
      <trkpt lat="45.71" lon="6.69091">
        <ele>2288.1</ele>
        <time>2013-08-27T12:34:20Z</time>
      </trkpt>
      <trkpt lat="45.71001" lon="6.69085">
        <ele>2287.6</ele>
        <time>2013-08-27T12:34:21Z</time>
      </trkpt>
      <trkpt lat="45.71001" lon="6.69082">
        <ele>2287.6</ele>
        <time>2013-08-27T12:34:22Z</time>
      </trkpt>
      <trkpt lat="45.71002" lon="6.69079">
        <ele>2287.1</ele>
        <time>2013-08-27T12:34:23Z</time>
      </trkpt>
      <trkpt lat="45.71003" lon="6.69078">
        <ele>2287.1</ele>
        <time>2013-08-27T12:34:24Z</time>
      </trkpt>
      <trkpt lat="45.71003" lon="6.69077">
        <ele>2287.6</ele>
        <time>2013-08-27T12:34:25Z</time>
      </trkpt>
      <trkpt lat="45.71004" lon="6.69075">
        <ele>2286.6</ele>
        <time>2013-08-27T12:34:26Z</time>
      </trkpt>
      <trkpt lat="45.71006" lon="6.69073">
        <ele>2286.2</ele>
        <time>2013-08-27T12:34:27Z</time>
      </trkpt>
      <trkpt lat="45.71008" lon="6.69066">
        <ele>2285.2</ele>
        <time>2013-08-27T12:34:31Z</time>
      </trkpt>
      <trkpt lat="45.71008" lon="6.69063">
        <ele>2285.2</ele>
        <time>2013-08-27T12:34:32Z</time>
      </trkpt>
      <trkpt lat="45.71007" lon="6.69057">
        <ele>2285.7</ele>
        <time>2013-08-27T12:34:34Z</time>
      </trkpt>
      <trkpt lat="45.71007" lon="6.69029">
        <ele>2284.7</ele>
        <time>2013-08-27T12:34:40Z</time>
      </trkpt>
      <trkpt lat="45.71005" lon="6.69011">
        <ele>2283.3</ele>
        <time>2013-08-27T12:34:43Z</time>
      </trkpt>
      <trkpt lat="45.71004" lon="6.69006">
        <ele>2282.8</ele>
        <time>2013-08-27T12:34:44Z</time>
      </trkpt>
      <trkpt lat="45.71001" lon="6.69001">
        <ele>2282.3</ele>
        <time>2013-08-27T12:34:45Z</time>
      </trkpt>
      <trkpt lat="45.70998" lon="6.68997">
        <ele>2282.8</ele>
        <time>2013-08-27T12:34:46Z</time>
      </trkpt>
      <trkpt lat="45.70994" lon="6.68996">
        <ele>2282.3</ele>
        <time>2013-08-27T12:34:47Z</time>
      </trkpt>
      <trkpt lat="45.7099" lon="6.68993">
        <ele>2281.8</ele>
        <time>2013-08-27T12:34:48Z</time>
      </trkpt>
      <trkpt lat="45.70987" lon="6.68991">
        <ele>2280.9</ele>
        <time>2013-08-27T12:34:49Z</time>
      </trkpt>
      <trkpt lat="45.70985" lon="6.6899">
        <ele>2281.4</ele>
        <time>2013-08-27T12:34:50Z</time>
      </trkpt>
      <trkpt lat="45.70983" lon="6.6899">
        <ele>2281.4</ele>
        <time>2013-08-27T12:34:51Z</time>
      </trkpt>
      <trkpt lat="45.7098" lon="6.6899">
        <ele>2281.4</ele>
        <time>2013-08-27T12:34:52Z</time>
      </trkpt>
      <trkpt lat="45.70978" lon="6.68989">
        <ele>2279.9</ele>
        <time>2013-08-27T12:34:53Z</time>
      </trkpt>
      <trkpt lat="45.70976" lon="6.68987">
        <ele>2279.9</ele>
        <time>2013-08-27T12:34:54Z</time>
      </trkpt>
      <trkpt lat="45.70974" lon="6.68985">
        <ele>2279.4</ele>
        <time>2013-08-27T12:34:55Z</time>
      </trkpt>
      <trkpt lat="45.70974" lon="6.68984">
        <ele>2280.4</ele>
        <time>2013-08-27T12:34:56Z</time>
      </trkpt>
      <trkpt lat="45.70969" lon="6.68977">
        <ele>2279.9</ele>
        <time>2013-08-27T12:35:07Z</time>
      </trkpt>
      <trkpt lat="45.70961" lon="6.68957">
        <ele>2277.5</ele>
        <time>2013-08-27T12:35:14Z</time>
      </trkpt>
      <trkpt lat="45.70961" lon="6.68953">
        <ele>2277.5</ele>
        <time>2013-08-27T12:35:15Z</time>
      </trkpt>
      <trkpt lat="45.70961" lon="6.68936">
        <ele>2276.5</ele>
        <time>2013-08-27T12:35:18Z</time>
      </trkpt>
      <trkpt lat="45.70962" lon="6.68932">
        <ele>2276.1</ele>
        <time>2013-08-27T12:35:19Z</time>
      </trkpt>
      <trkpt lat="45.70963" lon="6.68929">
        <ele>2276.1</ele>
        <time>2013-08-27T12:35:20Z</time>
      </trkpt>
      <trkpt lat="45.70967" lon="6.68923">
        <ele>2275.6</ele>
        <time>2013-08-27T12:35:23Z</time>
      </trkpt>
      <trkpt lat="45.70966" lon="6.68921">
        <ele>2275.1</ele>
        <time>2013-08-27T12:35:24Z</time>
      </trkpt>
      <trkpt lat="45.70966" lon="6.68918">
        <ele>2275.1</ele>
        <time>2013-08-27T12:35:25Z</time>
      </trkpt>
      <trkpt lat="45.70966" lon="6.68915">
        <ele>2275.1</ele>
        <time>2013-08-27T12:35:26Z</time>
      </trkpt>
      <trkpt lat="45.70967" lon="6.68907">
        <ele>2274.6</ele>
        <time>2013-08-27T12:35:29Z</time>
      </trkpt>
      <trkpt lat="45.70967" lon="6.689">
        <ele>2275.1</ele>
        <time>2013-08-27T12:35:32Z</time>
      </trkpt>
      <trkpt lat="45.70955" lon="6.6889">
        <ele>2272.7</ele>
        <time>2013-08-27T12:35:41Z</time>
      </trkpt>
      <trkpt lat="45.70947" lon="6.68884">
        <ele>2269.8</ele>
        <time>2013-08-27T12:35:48Z</time>
      </trkpt>
      <trkpt lat="45.70941" lon="6.68877">
        <ele>2267.9</ele>
        <time>2013-08-27T12:35:51Z</time>
      </trkpt>
      <trkpt lat="45.70939" lon="6.68875">
        <ele>2267.4</ele>
        <time>2013-08-27T12:35:52Z</time>
      </trkpt>
      <trkpt lat="45.70936" lon="6.68873">
        <ele>2267.4</ele>
        <time>2013-08-27T12:35:53Z</time>
      </trkpt>
      <trkpt lat="45.70932" lon="6.68873">
        <ele>2266.5</ele>
        <time>2013-08-27T12:35:54Z</time>
      </trkpt>
      <trkpt lat="45.70928" lon="6.68874">
        <ele>2266</ele>
        <time>2013-08-27T12:35:55Z</time>
      </trkpt>
      <trkpt lat="45.70924" lon="6.68876">
        <ele>2266</ele>
        <time>2013-08-27T12:35:56Z</time>
      </trkpt>
      <trkpt lat="45.70921" lon="6.68879">
        <ele>2265.5</ele>
        <time>2013-08-27T12:35:57Z</time>
      </trkpt>
      <trkpt lat="45.70918" lon="6.68881">
        <ele>2265.5</ele>
        <time>2013-08-27T12:35:58Z</time>
      </trkpt>
      <trkpt lat="45.70897" lon="6.68898">
        <ele>2261.6</ele>
        <time>2013-08-27T12:36:06Z</time>
      </trkpt>
      <trkpt lat="45.70896" lon="6.689">
        <ele>2261.6</ele>
        <time>2013-08-27T12:36:07Z</time>
      </trkpt>
      <trkpt lat="45.70889" lon="6.68905">
        <ele>2259.2</ele>
        <time>2013-08-27T12:36:21Z</time>
      </trkpt>
      <trkpt lat="45.70888" lon="6.68906">
        <ele>2259.2</ele>
        <time>2013-08-27T12:36:22Z</time>
      </trkpt>
      <trkpt lat="45.70887" lon="6.68906">
        <ele>2258.8</ele>
        <time>2013-08-27T12:36:23Z</time>
      </trkpt>
      <trkpt lat="45.70885" lon="6.68906">
        <ele>2257.3</ele>
        <time>2013-08-27T12:36:29Z</time>
      </trkpt>
      <trkpt lat="45.70883" lon="6.68905">
        <ele>2257.3</ele>
        <time>2013-08-27T12:36:30Z</time>
      </trkpt>
      <trkpt lat="45.70881" lon="6.68902">
        <ele>2256.8</ele>
        <time>2013-08-27T12:36:31Z</time>
      </trkpt>
      <trkpt lat="45.7088" lon="6.689">
        <ele>2256.8</ele>
        <time>2013-08-27T12:36:32Z</time>
      </trkpt>
      <trkpt lat="45.70879" lon="6.68897">
        <ele>2256.4</ele>
        <time>2013-08-27T12:36:33Z</time>
      </trkpt>
      <trkpt lat="45.70879" lon="6.68894">
        <ele>2255.9</ele>
        <time>2013-08-27T12:36:34Z</time>
      </trkpt>
      <trkpt lat="45.7088" lon="6.68878">
        <ele>2254</ele>
        <time>2013-08-27T12:36:39Z</time>
      </trkpt>
      <trkpt lat="45.7088" lon="6.68874">
        <ele>2253</ele>
        <time>2013-08-27T12:36:40Z</time>
      </trkpt>
      <trkpt lat="45.70881" lon="6.68865">
        <ele>2252.5</ele>
        <time>2013-08-27T12:36:42Z</time>
      </trkpt>
      <trkpt lat="45.70879" lon="6.68837">
        <ele>2249.1</ele>
        <time>2013-08-27T12:36:49Z</time>
      </trkpt>
      <trkpt lat="45.70876" lon="6.688">
        <ele>2245.8</ele>
        <time>2013-08-27T12:36:58Z</time>
      </trkpt>
      <trkpt lat="45.70874" lon="6.68787">
        <ele>2244.3</ele>
        <time>2013-08-27T12:37:01Z</time>
      </trkpt>
      <trkpt lat="45.70867" lon="6.68748">
        <ele>2242.9</ele>
        <time>2013-08-27T12:37:11Z</time>
      </trkpt>
      <trkpt lat="45.70862" lon="6.68728">
        <ele>2241.9</ele>
        <time>2013-08-27T12:37:20Z</time>
      </trkpt>
      <trkpt lat="45.70863" lon="6.68725">
        <ele>2242.4</ele>
        <time>2013-08-27T12:37:27Z</time>
      </trkpt>
      <trkpt lat="45.70862" lon="6.68724">
        <ele>2242.4</ele>
        <time>2013-08-27T12:37:28Z</time>
      </trkpt>
      <trkpt lat="45.70857" lon="6.68707">
        <ele>2241.5</ele>
        <time>2013-08-27T12:37:40Z</time>
      </trkpt>
      <trkpt lat="45.70854" lon="6.68698">
        <ele>2241</ele>
        <time>2013-08-27T12:37:46Z</time>
      </trkpt>
      <trkpt lat="45.70853" lon="6.68693">
        <ele>2241</ele>
        <time>2013-08-27T12:37:59Z</time>
      </trkpt>
      <trkpt lat="45.70853" lon="6.68689">
        <ele>2241</ele>
        <time>2013-08-27T12:38:04Z</time>
      </trkpt>
      <trkpt lat="45.70847" lon="6.68683">
        <ele>2240.5</ele>
        <time>2013-08-27T12:38:10Z</time>
      </trkpt>
      <trkpt lat="45.7084" lon="6.68675">
        <ele>2239.1</ele>
        <time>2013-08-27T12:38:23Z</time>
      </trkpt>
      <trkpt lat="45.70836" lon="6.68671">
        <ele>2238.6</ele>
        <time>2013-08-27T12:38:30Z</time>
      </trkpt>
      <trkpt lat="45.70835" lon="6.6867">
        <ele>2237.6</ele>
        <time>2013-08-27T12:38:31Z</time>
      </trkpt>
      <trkpt lat="45.70834" lon="6.68668">
        <ele>2237.6</ele>
        <time>2013-08-27T12:38:32Z</time>
      </trkpt>
      <trkpt lat="45.70833" lon="6.68666">
        <ele>2237.6</ele>
        <time>2013-08-27T12:38:33Z</time>
      </trkpt>
      <trkpt lat="45.7083" lon="6.68663">
        <ele>2236.6</ele>
        <time>2013-08-27T12:38:37Z</time>
      </trkpt>
      <trkpt lat="45.70823" lon="6.68656">
        <ele>2234.7</ele>
        <time>2013-08-27T12:38:40Z</time>
      </trkpt>
      <trkpt lat="45.70813" lon="6.68633">
        <ele>2231.4</ele>
        <time>2013-08-27T12:38:49Z</time>
      </trkpt>
      <trkpt lat="45.70811" lon="6.68628">
        <ele>2230.4</ele>
        <time>2013-08-27T12:38:51Z</time>
      </trkpt>
      <trkpt lat="45.70808" lon="6.68621">
        <ele>2229</ele>
        <time>2013-08-27T12:38:54Z</time>
      </trkpt>
      <trkpt lat="45.70801" lon="6.68609">
        <ele>2227</ele>
        <time>2013-08-27T12:38:58Z</time>
      </trkpt>
      <trkpt lat="45.70798" lon="6.68604">
        <ele>2226.1</ele>
        <time>2013-08-27T12:39:00Z</time>
      </trkpt>
      <trkpt lat="45.7079" lon="6.68595">
        <ele>2222.7</ele>
        <time>2013-08-27T12:39:13Z</time>
      </trkpt>
      <trkpt lat="45.70788" lon="6.68592">
        <ele>2222.2</ele>
        <time>2013-08-27T12:39:14Z</time>
      </trkpt>
      <trkpt lat="45.70786" lon="6.6859">
        <ele>2221.7</ele>
        <time>2013-08-27T12:39:15Z</time>
      </trkpt>
      <trkpt lat="45.7077" lon="6.68571">
        <ele>2218.4</ele>
        <time>2013-08-27T12:39:23Z</time>
      </trkpt>
      <trkpt lat="45.70767" lon="6.68565">
        <ele>2217.9</ele>
        <time>2013-08-27T12:39:25Z</time>
      </trkpt>
      <trkpt lat="45.70767" lon="6.68564">
        <ele>2217.9</ele>
        <time>2013-08-27T12:39:26Z</time>
      </trkpt>
      <trkpt lat="45.70764" lon="6.68562">
        <ele>2217.9</ele>
        <time>2013-08-27T12:39:34Z</time>
      </trkpt>
      <trkpt lat="45.70763" lon="6.68561">
        <ele>2217.9</ele>
        <time>2013-08-27T12:39:35Z</time>
      </trkpt>
      <trkpt lat="45.70762" lon="6.68561">
        <ele>2217.4</ele>
        <time>2013-08-27T12:39:36Z</time>
      </trkpt>
      <trkpt lat="45.70747" lon="6.68547">
        <ele>2215.5</ele>
        <time>2013-08-27T12:39:46Z</time>
      </trkpt>
      <trkpt lat="45.7073" lon="6.68526">
        <ele>2212.6</ele>
        <time>2013-08-27T12:39:55Z</time>
      </trkpt>
      <trkpt lat="45.70715" lon="6.68512">
        <ele>2211.2</ele>
        <time>2013-08-27T12:40:06Z</time>
      </trkpt>
      <trkpt lat="45.70711" lon="6.68505">
        <ele>2209.3</ele>
        <time>2013-08-27T12:40:18Z</time>
      </trkpt>
      <trkpt lat="45.70705" lon="6.68495">
        <ele>2207.8</ele>
        <time>2013-08-27T12:40:31Z</time>
      </trkpt>
      <trkpt lat="45.70704" lon="6.68492">
        <ele>2208.3</ele>
        <time>2013-08-27T12:40:32Z</time>
      </trkpt>
      <trkpt lat="45.70704" lon="6.6849">
        <ele>2207.8</ele>
        <time>2013-08-27T12:40:33Z</time>
      </trkpt>
      <trkpt lat="45.70703" lon="6.68487">
        <ele>2207.3</ele>
        <time>2013-08-27T12:40:34Z</time>
      </trkpt>
      <trkpt lat="45.70703" lon="6.68484">
        <ele>2206.8</ele>
        <time>2013-08-27T12:40:35Z</time>
      </trkpt>
      <trkpt lat="45.70703" lon="6.68482">
        <ele>2206.4</ele>
        <time>2013-08-27T12:40:36Z</time>
      </trkpt>
      <trkpt lat="45.70703" lon="6.6848">
        <ele>2205.4</ele>
        <time>2013-08-27T12:40:37Z</time>
      </trkpt>
      <trkpt lat="45.70703" lon="6.68478">
        <ele>2204.9</ele>
        <time>2013-08-27T12:40:38Z</time>
      </trkpt>
      <trkpt lat="45.70702" lon="6.68475">
        <ele>2205.4</ele>
        <time>2013-08-27T12:40:39Z</time>
      </trkpt>
      <trkpt lat="45.70701" lon="6.68472">
        <ele>2205.4</ele>
        <time>2013-08-27T12:40:40Z</time>
      </trkpt>
      <trkpt lat="45.707" lon="6.68469">
        <ele>2204.9</ele>
        <time>2013-08-27T12:40:41Z</time>
      </trkpt>
      <trkpt lat="45.70694" lon="6.68461">
        <ele>2203.5</ele>
        <time>2013-08-27T12:40:50Z</time>
      </trkpt>
      <trkpt lat="45.70688" lon="6.68449">
        <ele>2202</ele>
        <time>2013-08-27T12:40:54Z</time>
      </trkpt>
      <trkpt lat="45.70682" lon="6.68426">
        <ele>2200.1</ele>
        <time>2013-08-27T12:40:59Z</time>
      </trkpt>
      <trkpt lat="45.70682" lon="6.68412">
        <ele>2198.2</ele>
        <time>2013-08-27T12:41:07Z</time>
      </trkpt>
      <trkpt lat="45.70685" lon="6.68407">
        <ele>2198.2</ele>
        <time>2013-08-27T12:41:15Z</time>
      </trkpt>
      <trkpt lat="45.70686" lon="6.68405">
        <ele>2197.7</ele>
        <time>2013-08-27T12:41:16Z</time>
      </trkpt>
      <trkpt lat="45.70686" lon="6.68402">
        <ele>2198.2</ele>
        <time>2013-08-27T12:41:17Z</time>
      </trkpt>
      <trkpt lat="45.70685" lon="6.684">
        <ele>2197.7</ele>
        <time>2013-08-27T12:41:18Z</time>
      </trkpt>
      <trkpt lat="45.70683" lon="6.68398">
        <ele>2197.2</ele>
        <time>2013-08-27T12:41:19Z</time>
      </trkpt>
      <trkpt lat="45.70681" lon="6.68395">
        <ele>2197.7</ele>
        <time>2013-08-27T12:41:20Z</time>
      </trkpt>
      <trkpt lat="45.7068" lon="6.68394">
        <ele>2197.7</ele>
        <time>2013-08-27T12:41:21Z</time>
      </trkpt>
      <trkpt lat="45.70677" lon="6.68392">
        <ele>2197.2</ele>
        <time>2013-08-27T12:41:22Z</time>
      </trkpt>
      <trkpt lat="45.70659" lon="6.68367">
        <ele>2193.4</ele>
        <time>2013-08-27T12:41:29Z</time>
      </trkpt>
      <trkpt lat="45.70656" lon="6.68364">
        <ele>2192.9</ele>
        <time>2013-08-27T12:41:30Z</time>
      </trkpt>
      <trkpt lat="45.70642" lon="6.68352">
        <ele>2189.5</ele>
        <time>2013-08-27T12:41:35Z</time>
      </trkpt>
      <trkpt lat="45.7063" lon="6.6834">
        <ele>2186.7</ele>
        <time>2013-08-27T12:41:40Z</time>
      </trkpt>
      <trkpt lat="45.70628" lon="6.68337">
        <ele>2185.7</ele>
        <time>2013-08-27T12:41:50Z</time>
      </trkpt>
      <trkpt lat="45.70626" lon="6.68322">
        <ele>2184.3</ele>
        <time>2013-08-27T12:42:10Z</time>
      </trkpt>
      <trkpt lat="45.70625" lon="6.68321">
        <ele>2183.8</ele>
        <time>2013-08-27T12:42:11Z</time>
      </trkpt>
      <trkpt lat="45.70623" lon="6.6832">
        <ele>2184.7</ele>
        <time>2013-08-27T12:42:12Z</time>
      </trkpt>
      <trkpt lat="45.7062" lon="6.68319">
        <ele>2183.3</ele>
        <time>2013-08-27T12:42:13Z</time>
      </trkpt>
      <trkpt lat="45.70616" lon="6.68318">
        <ele>2182.8</ele>
        <time>2013-08-27T12:42:14Z</time>
      </trkpt>
      <trkpt lat="45.70613" lon="6.68319">
        <ele>2182.8</ele>
        <time>2013-08-27T12:42:15Z</time>
      </trkpt>
      <trkpt lat="45.70612" lon="6.68319">
        <ele>2182.8</ele>
        <time>2013-08-27T12:42:16Z</time>
      </trkpt>
      <trkpt lat="45.70605" lon="6.68322">
        <ele>2180.9</ele>
        <time>2013-08-27T12:42:27Z</time>
      </trkpt>
      <trkpt lat="45.70594" lon="6.68318">
        <ele>2179.5</ele>
        <time>2013-08-27T12:42:37Z</time>
      </trkpt>
      <trkpt lat="45.70589" lon="6.68315">
        <ele>2178.5</ele>
        <time>2013-08-27T12:42:40Z</time>
      </trkpt>
      <trkpt lat="45.70579" lon="6.68306">
        <ele>2176.1</ele>
        <time>2013-08-27T12:42:45Z</time>
      </trkpt>
      <trkpt lat="45.70576" lon="6.68302">
        <ele>2176.1</ele>
        <time>2013-08-27T12:42:46Z</time>
      </trkpt>
      <trkpt lat="45.70572" lon="6.68298">
        <ele>2175.1</ele>
        <time>2013-08-27T12:42:47Z</time>
      </trkpt>
      <trkpt lat="45.70567" lon="6.68296">
        <ele>2173.7</ele>
        <time>2013-08-27T12:42:48Z</time>
      </trkpt>
      <trkpt lat="45.7054" lon="6.68282">
        <ele>2170.3</ele>
        <time>2013-08-27T12:42:54Z</time>
      </trkpt>
      <trkpt lat="45.70525" lon="6.68276">
        <ele>2167.9</ele>
        <time>2013-08-27T12:42:58Z</time>
      </trkpt>
      <trkpt lat="45.70505" lon="6.68275">
        <ele>2163.6</ele>
        <time>2013-08-27T12:43:04Z</time>
      </trkpt>
      <trkpt lat="45.70502" lon="6.68277">
        <ele>2163.6</ele>
        <time>2013-08-27T12:43:05Z</time>
      </trkpt>
      <trkpt lat="45.70495" lon="6.68281">
        <ele>2160.7</ele>
        <time>2013-08-27T12:43:08Z</time>
      </trkpt>
      <trkpt lat="45.70493" lon="6.68283">
        <ele>2160.7</ele>
        <time>2013-08-27T12:43:09Z</time>
      </trkpt>
      <trkpt lat="45.70482" lon="6.6829">
        <ele>2157.3</ele>
        <time>2013-08-27T12:43:14Z</time>
      </trkpt>
      <trkpt lat="45.7048" lon="6.68291">
        <ele>2156.9</ele>
        <time>2013-08-27T12:43:15Z</time>
      </trkpt>
      <trkpt lat="45.70478" lon="6.68293">
        <ele>2155.9</ele>
        <time>2013-08-27T12:43:16Z</time>
      </trkpt>
      <trkpt lat="45.70477" lon="6.68295">
        <ele>2155.4</ele>
        <time>2013-08-27T12:43:17Z</time>
      </trkpt>
      <trkpt lat="45.70476" lon="6.68297">
        <ele>2154.9</ele>
        <time>2013-08-27T12:43:18Z</time>
      </trkpt>
      <trkpt lat="45.70477" lon="6.68299">
        <ele>2154.9</ele>
        <time>2013-08-27T12:43:30Z</time>
      </trkpt>
      <trkpt lat="45.70468" lon="6.68306">
        <ele>2153</ele>
        <time>2013-08-27T12:43:46Z</time>
      </trkpt>
      <trkpt lat="45.70456" lon="6.68307">
        <ele>2151.1</ele>
        <time>2013-08-27T12:43:53Z</time>
      </trkpt>
      <trkpt lat="45.70455" lon="6.68309">
        <ele>2151.1</ele>
        <time>2013-08-27T12:43:54Z</time>
      </trkpt>
      <trkpt lat="45.70455" lon="6.68312">
        <ele>2150.1</ele>
        <time>2013-08-27T12:43:55Z</time>
      </trkpt>
      <trkpt lat="45.70455" lon="6.68314">
        <ele>2150.1</ele>
        <time>2013-08-27T12:43:56Z</time>
      </trkpt>
      <trkpt lat="45.70455" lon="6.68316">
        <ele>2149.7</ele>
        <time>2013-08-27T12:43:57Z</time>
      </trkpt>
      <trkpt lat="45.70454" lon="6.68317">
        <ele>2149.2</ele>
        <time>2013-08-27T12:43:58Z</time>
      </trkpt>
      <trkpt lat="45.70452" lon="6.68317">
        <ele>2148.2</ele>
        <time>2013-08-27T12:43:59Z</time>
      </trkpt>
      <trkpt lat="45.70451" lon="6.68315">
        <ele>2147.2</ele>
        <time>2013-08-27T12:44:00Z</time>
      </trkpt>
      <trkpt lat="45.7045" lon="6.68315">
        <ele>2147.2</ele>
        <time>2013-08-27T12:44:01Z</time>
      </trkpt>
      <trkpt lat="45.70446" lon="6.68312">
        <ele>2145.8</ele>
        <time>2013-08-27T12:44:22Z</time>
      </trkpt>
      <trkpt lat="45.70444" lon="6.68317">
        <ele>2143.9</ele>
        <time>2013-08-27T12:44:33Z</time>
      </trkpt>
      <trkpt lat="45.70443" lon="6.68318">
        <ele>2143.9</ele>
        <time>2013-08-27T12:44:35Z</time>
      </trkpt>
      <trkpt lat="45.70441" lon="6.68319">
        <ele>2143.4</ele>
        <time>2013-08-27T12:44:36Z</time>
      </trkpt>
      <trkpt lat="45.70438" lon="6.68321">
        <ele>2142.4</ele>
        <time>2013-08-27T12:44:38Z</time>
      </trkpt>
      <trkpt lat="45.70433" lon="6.68316">
        <ele>2140</ele>
        <time>2013-08-27T12:44:49Z</time>
      </trkpt>
      <trkpt lat="45.70432" lon="6.68314">
        <ele>2139.6</ele>
        <time>2013-08-27T12:44:53Z</time>
      </trkpt>
      <trkpt lat="45.70427" lon="6.68312">
        <ele>2138.6</ele>
        <time>2013-08-27T12:44:57Z</time>
      </trkpt>
      <trkpt lat="45.70426" lon="6.68315">
        <ele>2138.1</ele>
        <time>2013-08-27T12:44:58Z</time>
      </trkpt>
      <trkpt lat="45.70426" lon="6.68319">
        <ele>2137.6</ele>
        <time>2013-08-27T12:44:59Z</time>
      </trkpt>
      <trkpt lat="45.70426" lon="6.68323">
        <ele>2136.7</ele>
        <time>2013-08-27T12:45:00Z</time>
      </trkpt>
      <trkpt lat="45.70427" lon="6.68326">
        <ele>2136.7</ele>
        <time>2013-08-27T12:45:01Z</time>
      </trkpt>
      <trkpt lat="45.70428" lon="6.68328">
        <ele>2136.2</ele>
        <time>2013-08-27T12:45:02Z</time>
      </trkpt>
      <trkpt lat="45.70429" lon="6.68331">
        <ele>2135.2</ele>
        <time>2013-08-27T12:45:04Z</time>
      </trkpt>
      <trkpt lat="45.70425" lon="6.68329">
        <ele>2133.8</ele>
        <time>2013-08-27T12:45:17Z</time>
      </trkpt>
      <trkpt lat="45.70422" lon="6.68327">
        <ele>2133.3</ele>
        <time>2013-08-27T12:45:24Z</time>
      </trkpt>
      <trkpt lat="45.70419" lon="6.68328">
        <ele>2132.3</ele>
        <time>2013-08-27T12:45:29Z</time>
      </trkpt>
      <trkpt lat="45.70417" lon="6.68327">
        <ele>2132.3</ele>
        <time>2013-08-27T12:45:30Z</time>
      </trkpt>
      <trkpt lat="45.70416" lon="6.68326">
        <ele>2131.9</ele>
        <time>2013-08-27T12:45:31Z</time>
      </trkpt>
      <trkpt lat="45.70415" lon="6.68324">
        <ele>2131.4</ele>
        <time>2013-08-27T12:45:32Z</time>
      </trkpt>
      <trkpt lat="45.70415" lon="6.68322">
        <ele>2130.9</ele>
        <time>2013-08-27T12:45:33Z</time>
      </trkpt>
      <trkpt lat="45.70413" lon="6.68323">
        <ele>2130.4</ele>
        <time>2013-08-27T12:45:46Z</time>
      </trkpt>
      <trkpt lat="45.70413" lon="6.68324">
        <ele>2129.9</ele>
        <time>2013-08-27T12:45:47Z</time>
      </trkpt>
      <trkpt lat="45.70412" lon="6.68326">
        <ele>2129.9</ele>
        <time>2013-08-27T12:45:48Z</time>
      </trkpt>
      <trkpt lat="45.70409" lon="6.68325">
        <ele>2129</ele>
        <time>2013-08-27T12:45:59Z</time>
      </trkpt>
      <trkpt lat="45.70408" lon="6.68324">
        <ele>2129</ele>
        <time>2013-08-27T12:46:00Z</time>
      </trkpt>
      <trkpt lat="45.70407" lon="6.68323">
        <ele>2128.5</ele>
        <time>2013-08-27T12:46:01Z</time>
      </trkpt>
      <trkpt lat="45.704" lon="6.68317">
        <ele>2125.1</ele>
        <time>2013-08-27T12:46:11Z</time>
      </trkpt>
      <trkpt lat="45.70397" lon="6.68319">
        <ele>2124.2</ele>
        <time>2013-08-27T12:46:21Z</time>
      </trkpt>
      <trkpt lat="45.70397" lon="6.68321">
        <ele>2124.2</ele>
        <time>2013-08-27T12:46:22Z</time>
      </trkpt>
      <trkpt lat="45.70396" lon="6.68325">
        <ele>2123.7</ele>
        <time>2013-08-27T12:46:23Z</time>
      </trkpt>
      <trkpt lat="45.70396" lon="6.68329">
        <ele>2122.7</ele>
        <time>2013-08-27T12:46:24Z</time>
      </trkpt>
      <trkpt lat="45.70396" lon="6.68333">
        <ele>2122.7</ele>
        <time>2013-08-27T12:46:25Z</time>
      </trkpt>
      <trkpt lat="45.70396" lon="6.68337">
        <ele>2121.8</ele>
        <time>2013-08-27T12:46:26Z</time>
      </trkpt>
      <trkpt lat="45.70397" lon="6.68341">
        <ele>2120.8</ele>
        <time>2013-08-27T12:46:27Z</time>
      </trkpt>
      <trkpt lat="45.70397" lon="6.68344">
        <ele>2120.8</ele>
        <time>2013-08-27T12:46:28Z</time>
      </trkpt>
      <trkpt lat="45.70397" lon="6.68348">
        <ele>2119.4</ele>
        <time>2013-08-27T12:46:29Z</time>
      </trkpt>
      <trkpt lat="45.70395" lon="6.68351">
        <ele>2118.9</ele>
        <time>2013-08-27T12:46:30Z</time>
      </trkpt>
      <trkpt lat="45.70392" lon="6.68352">
        <ele>2118.4</ele>
        <time>2013-08-27T12:46:31Z</time>
      </trkpt>
      <trkpt lat="45.70389" lon="6.68352">
        <ele>2117.9</ele>
        <time>2013-08-27T12:46:32Z</time>
      </trkpt>
      <trkpt lat="45.70386" lon="6.6835">
        <ele>2117.4</ele>
        <time>2013-08-27T12:46:33Z</time>
      </trkpt>
      <trkpt lat="45.70384" lon="6.68348">
        <ele>2116</ele>
        <time>2013-08-27T12:46:34Z</time>
      </trkpt>
      <trkpt lat="45.70383" lon="6.68345">
        <ele>2115</ele>
        <time>2013-08-27T12:46:47Z</time>
      </trkpt>
      <trkpt lat="45.70383" lon="6.68344">
        <ele>2115</ele>
        <time>2013-08-27T12:47:28Z</time>
      </trkpt>
      <trkpt lat="45.70383" lon="6.68342">
        <ele>2115</ele>
        <time>2013-08-27T12:47:59Z</time>
      </trkpt>
      <trkpt lat="45.70382" lon="6.68339">
        <ele>2114.6</ele>
        <time>2013-08-27T12:48:00Z</time>
      </trkpt>
      <trkpt lat="45.70378" lon="6.6833">
        <ele>2114.1</ele>
        <time>2013-08-27T12:48:02Z</time>
      </trkpt>
      <trkpt lat="45.70369" lon="6.68305">
        <ele>2110.2</ele>
        <time>2013-08-27T12:48:07Z</time>
      </trkpt>
      <trkpt lat="45.70361" lon="6.68281">
        <ele>2107.8</ele>
        <time>2013-08-27T12:48:11Z</time>
      </trkpt>
      <trkpt lat="45.7036" lon="6.68275">
        <ele>2107.4</ele>
        <time>2013-08-27T12:48:12Z</time>
      </trkpt>
      <trkpt lat="45.7036" lon="6.6827">
        <ele>2106.9</ele>
        <time>2013-08-27T12:48:13Z</time>
      </trkpt>
      <trkpt lat="45.7036" lon="6.68265">
        <ele>2106.4</ele>
        <time>2013-08-27T12:48:14Z</time>
      </trkpt>
      <trkpt lat="45.70359" lon="6.68261">
        <ele>2105.4</ele>
        <time>2013-08-27T12:48:15Z</time>
      </trkpt>
      <trkpt lat="45.70357" lon="6.68258">
        <ele>2104.5</ele>
        <time>2013-08-27T12:48:16Z</time>
      </trkpt>
      <trkpt lat="45.70355" lon="6.68258">
        <ele>2104</ele>
        <time>2013-08-27T12:48:17Z</time>
      </trkpt>
      <trkpt lat="45.70352" lon="6.6826">
        <ele>2103.5</ele>
        <time>2013-08-27T12:48:18Z</time>
      </trkpt>
      <trkpt lat="45.70349" lon="6.68263">
        <ele>2102.5</ele>
        <time>2013-08-27T12:48:19Z</time>
      </trkpt>
      <trkpt lat="45.70348" lon="6.68266">
        <ele>2101.6</ele>
        <time>2013-08-27T12:48:20Z</time>
      </trkpt>
      <trkpt lat="45.70346" lon="6.6827">
        <ele>2101.1</ele>
        <time>2013-08-27T12:48:21Z</time>
      </trkpt>
      <trkpt lat="45.70339" lon="6.68289">
        <ele>2096.3</ele>
        <time>2013-08-27T12:48:26Z</time>
      </trkpt>
      <trkpt lat="45.70331" lon="6.68306">
        <ele>2093.9</ele>
        <time>2013-08-27T12:48:30Z</time>
      </trkpt>
      <trkpt lat="45.70327" lon="6.6832">
        <ele>2090.5</ele>
        <time>2013-08-27T12:48:33Z</time>
      </trkpt>
      <trkpt lat="45.70326" lon="6.68324">
        <ele>2090</ele>
        <time>2013-08-27T12:48:35Z</time>
      </trkpt>
      <trkpt lat="45.70323" lon="6.68345">
        <ele>2086.7</ele>
        <time>2013-08-27T12:48:43Z</time>
      </trkpt>
      <trkpt lat="45.70324" lon="6.68352">
        <ele>2086.7</ele>
        <time>2013-08-27T12:48:44Z</time>
      </trkpt>
      <trkpt lat="45.70325" lon="6.68359">
        <ele>2086.2</ele>
        <time>2013-08-27T12:48:45Z</time>
      </trkpt>
      <trkpt lat="45.70329" lon="6.68375">
        <ele>2083.8</ele>
        <time>2013-08-27T12:48:48Z</time>
      </trkpt>
      <trkpt lat="45.70328" lon="6.68379">
        <ele>2083.3</ele>
        <time>2013-08-27T12:48:49Z</time>
      </trkpt>
      <trkpt lat="45.70325" lon="6.6838">
        <ele>2082.8</ele>
        <time>2013-08-27T12:48:50Z</time>
      </trkpt>
      <trkpt lat="45.70322" lon="6.68377">
        <ele>2083.3</ele>
        <time>2013-08-27T12:48:51Z</time>
      </trkpt>
      <trkpt lat="45.70318" lon="6.68373">
        <ele>2082.4</ele>
        <time>2013-08-27T12:48:52Z</time>
      </trkpt>
      <trkpt lat="45.70314" lon="6.68368">
        <ele>2081.9</ele>
        <time>2013-08-27T12:48:53Z</time>
      </trkpt>
      <trkpt lat="45.70311" lon="6.68361">
        <ele>2080.4</ele>
        <time>2013-08-27T12:48:54Z</time>
      </trkpt>
      <trkpt lat="45.70307" lon="6.68353">
        <ele>2079.5</ele>
        <time>2013-08-27T12:48:55Z</time>
      </trkpt>
      <trkpt lat="45.70298" lon="6.6833">
        <ele>2075.6</ele>
        <time>2013-08-27T12:48:58Z</time>
      </trkpt>
      <trkpt lat="45.70289" lon="6.68305">
        <ele>2072.7</ele>
        <time>2013-08-27T12:49:02Z</time>
      </trkpt>
      <trkpt lat="45.70284" lon="6.6828">
        <ele>2069.4</ele>
        <time>2013-08-27T12:49:09Z</time>
      </trkpt>
      <trkpt lat="45.70283" lon="6.68281">
        <ele>2068.4</ele>
        <time>2013-08-27T12:49:22Z</time>
      </trkpt>
      <trkpt lat="45.70285" lon="6.68261">
        <ele>2066</ele>
        <time>2013-08-27T12:49:33Z</time>
      </trkpt>
      <trkpt lat="45.70283" lon="6.68258">
        <ele>2065.5</ele>
        <time>2013-08-27T12:49:34Z</time>
      </trkpt>
      <trkpt lat="45.70281" lon="6.68259">
        <ele>2065.1</ele>
        <time>2013-08-27T12:49:35Z</time>
      </trkpt>
      <trkpt lat="45.70279" lon="6.68262">
        <ele>2064.1</ele>
        <time>2013-08-27T12:49:36Z</time>
      </trkpt>
      <trkpt lat="45.70276" lon="6.68265">
        <ele>2063.6</ele>
        <time>2013-08-27T12:49:37Z</time>
      </trkpt>
      <trkpt lat="45.70262" lon="6.6828">
        <ele>2060.2</ele>
        <time>2013-08-27T12:49:41Z</time>
      </trkpt>
      <trkpt lat="45.70247" lon="6.68285">
        <ele>2056.4</ele>
        <time>2013-08-27T12:49:45Z</time>
      </trkpt>
      <trkpt lat="45.70237" lon="6.68289">
        <ele>2054</ele>
        <time>2013-08-27T12:49:48Z</time>
      </trkpt>
      <trkpt lat="45.70233" lon="6.68289">
        <ele>2052.6</ele>
        <time>2013-08-27T12:49:50Z</time>
      </trkpt>
      <trkpt lat="45.70232" lon="6.68288">
        <ele>2051.1</ele>
        <time>2013-08-27T12:49:51Z</time>
      </trkpt>
      <trkpt lat="45.70231" lon="6.68287">
        <ele>2051.6</ele>
        <time>2013-08-27T12:49:52Z</time>
      </trkpt>
      <trkpt lat="45.70229" lon="6.68285">
        <ele>2050.6</ele>
        <time>2013-08-27T12:49:54Z</time>
      </trkpt>
      <trkpt lat="45.70222" lon="6.68285">
        <ele>2048.2</ele>
        <time>2013-08-27T12:49:57Z</time>
      </trkpt>
      <trkpt lat="45.7022" lon="6.68283">
        <ele>2047.8</ele>
        <time>2013-08-27T12:49:58Z</time>
      </trkpt>
      <trkpt lat="45.70217" lon="6.68282">
        <ele>2047.8</ele>
        <time>2013-08-27T12:49:59Z</time>
      </trkpt>
      <trkpt lat="45.70215" lon="6.6828">
        <ele>2046.3</ele>
        <time>2013-08-27T12:50:00Z</time>
      </trkpt>
      <trkpt lat="45.70213" lon="6.68278">
        <ele>2045.8</ele>
        <time>2013-08-27T12:50:01Z</time>
      </trkpt>
      <trkpt lat="45.70208" lon="6.68276">
        <ele>2043.9</ele>
        <time>2013-08-27T12:50:03Z</time>
      </trkpt>
      <trkpt lat="45.70205" lon="6.68276">
        <ele>2043.4</ele>
        <time>2013-08-27T12:50:04Z</time>
      </trkpt>
      <trkpt lat="45.70202" lon="6.68275">
        <ele>2042.9</ele>
        <time>2013-08-27T12:50:05Z</time>
      </trkpt>
      <trkpt lat="45.70201" lon="6.68273">
        <ele>2042.9</ele>
        <time>2013-08-27T12:50:06Z</time>
      </trkpt>
      <trkpt lat="45.702" lon="6.6827">
        <ele>2041.5</ele>
        <time>2013-08-27T12:50:07Z</time>
      </trkpt>
      <trkpt lat="45.70199" lon="6.68265">
        <ele>2040.1</ele>
        <time>2013-08-27T12:50:08Z</time>
      </trkpt>
      <trkpt lat="45.70197" lon="6.68261">
        <ele>2039.1</ele>
        <time>2013-08-27T12:50:09Z</time>
      </trkpt>
      <trkpt lat="45.70195" lon="6.68257">
        <ele>2038.6</ele>
        <time>2013-08-27T12:50:10Z</time>
      </trkpt>
      <trkpt lat="45.70193" lon="6.68253">
        <ele>2037.7</ele>
        <time>2013-08-27T12:50:11Z</time>
      </trkpt>
      <trkpt lat="45.70189" lon="6.68246">
        <ele>2035.7</ele>
        <time>2013-08-27T12:50:13Z</time>
      </trkpt>
      <trkpt lat="45.70187" lon="6.68244">
        <ele>2034.8</ele>
        <time>2013-08-27T12:50:14Z</time>
      </trkpt>
      <trkpt lat="45.70174" lon="6.68242">
        <ele>2031.4</ele>
        <time>2013-08-27T12:50:19Z</time>
      </trkpt>
      <trkpt lat="45.70162" lon="6.68245">
        <ele>2028</ele>
        <time>2013-08-27T12:50:23Z</time>
      </trkpt>
      <trkpt lat="45.70151" lon="6.68261">
        <ele>2024.2</ele>
        <time>2013-08-27T12:50:28Z</time>
      </trkpt>
      <trkpt lat="45.70149" lon="6.6827">
        <ele>2022.8</ele>
        <time>2013-08-27T12:50:31Z</time>
      </trkpt>
      <trkpt lat="45.70147" lon="6.68282">
        <ele>2020.8</ele>
        <time>2013-08-27T12:50:40Z</time>
      </trkpt>
      <trkpt lat="45.70143" lon="6.68284">
        <ele>2018.9</ele>
        <time>2013-08-27T12:50:56Z</time>
      </trkpt>
      <trkpt lat="45.7014" lon="6.68284">
        <ele>2017.5</ele>
        <time>2013-08-27T12:50:59Z</time>
      </trkpt>
      <trkpt lat="45.70139" lon="6.68284">
        <ele>2017</ele>
        <time>2013-08-27T12:51:00Z</time>
      </trkpt>
      <trkpt lat="45.70137" lon="6.68285">
        <ele>2016</ele>
        <time>2013-08-27T12:51:01Z</time>
      </trkpt>
      <trkpt lat="45.70136" lon="6.68284">
        <ele>2015.5</ele>
        <time>2013-08-27T12:51:02Z</time>
      </trkpt>
      <trkpt lat="45.70135" lon="6.68284">
        <ele>2014.6</ele>
        <time>2013-08-27T12:51:03Z</time>
      </trkpt>
      <trkpt lat="45.70133" lon="6.68282">
        <ele>2014.1</ele>
        <time>2013-08-27T12:51:04Z</time>
      </trkpt>
      <trkpt lat="45.70125" lon="6.68269">
        <ele>2014.6</ele>
        <time>2013-08-27T12:51:19Z</time>
      </trkpt>
      <trkpt lat="45.70125" lon="6.68269">
        <ele>2014.1</ele>
        <time>2013-08-27T12:51:22Z</time>
      </trkpt>
      <trkpt lat="45.7014" lon="6.6823">
        <ele>2011.2</ele>
        <time>2013-08-27T12:51:32Z</time>
      </trkpt>
      <trkpt lat="45.70144" lon="6.68222">
        <ele>2010.7</ele>
        <time>2013-08-27T12:51:33Z</time>
      </trkpt>
      <trkpt lat="45.70148" lon="6.68214">
        <ele>2008.8</ele>
        <time>2013-08-27T12:51:34Z</time>
      </trkpt>
      <trkpt lat="45.70151" lon="6.68205">
        <ele>2008.8</ele>
        <time>2013-08-27T12:51:35Z</time>
      </trkpt>
      <trkpt lat="45.70153" lon="6.68197">
        <ele>2007.4</ele>
        <time>2013-08-27T12:51:36Z</time>
      </trkpt>
      <trkpt lat="45.70155" lon="6.6819">
        <ele>2006.9</ele>
        <time>2013-08-27T12:51:37Z</time>
      </trkpt>
      <trkpt lat="45.70158" lon="6.68179">
        <ele>2005.9</ele>
        <time>2013-08-27T12:51:39Z</time>
      </trkpt>
      <trkpt lat="45.70175" lon="6.68159">
        <ele>2002.6</ele>
        <time>2013-08-27T12:51:44Z</time>
      </trkpt>
      <trkpt lat="45.70172" lon="6.68155">
        <ele>2002.6</ele>
        <time>2013-08-27T12:51:45Z</time>
      </trkpt>
      <trkpt lat="45.70151" lon="6.68154">
        <ele>2000.6</ele>
        <time>2013-08-27T12:51:49Z</time>
      </trkpt>
      <trkpt lat="45.70138" lon="6.68157">
        <ele>1999.2</ele>
        <time>2013-08-27T12:51:51Z</time>
      </trkpt>
      <trkpt lat="45.70133" lon="6.68161">
        <ele>1998.2</ele>
        <time>2013-08-27T12:51:52Z</time>
      </trkpt>
      <trkpt lat="45.70129" lon="6.68167">
        <ele>1997.8</ele>
        <time>2013-08-27T12:51:53Z</time>
      </trkpt>
      <trkpt lat="45.70127" lon="6.68175">
        <ele>1996.3</ele>
        <time>2013-08-27T12:51:54Z</time>
      </trkpt>
      <trkpt lat="45.70126" lon="6.68183">
        <ele>1995.8</ele>
        <time>2013-08-27T12:51:55Z</time>
      </trkpt>
      <trkpt lat="45.70123" lon="6.68188">
        <ele>1995.8</ele>
        <time>2013-08-27T12:51:56Z</time>
      </trkpt>
      <trkpt lat="45.70119" lon="6.68189">
        <ele>1995.8</ele>
        <time>2013-08-27T12:51:57Z</time>
      </trkpt>
      <trkpt lat="45.70116" lon="6.68186">
        <ele>1995.8</ele>
        <time>2013-08-27T12:51:58Z</time>
      </trkpt>
      <trkpt lat="45.70115" lon="6.68181">
        <ele>1995.8</ele>
        <time>2013-08-27T12:51:59Z</time>
      </trkpt>
      <trkpt lat="45.70114" lon="6.68177">
        <ele>1995.8</ele>
        <time>2013-08-27T12:52:00Z</time>
      </trkpt>
      <trkpt lat="45.70114" lon="6.68174">
        <ele>1995.8</ele>
        <time>2013-08-27T12:52:01Z</time>
      </trkpt>
      <trkpt lat="45.70114" lon="6.6817">
        <ele>1995.4</ele>
        <time>2013-08-27T12:52:02Z</time>
      </trkpt>
      <trkpt lat="45.70114" lon="6.68166">
        <ele>1994.4</ele>
        <time>2013-08-27T12:52:03Z</time>
      </trkpt>
      <trkpt lat="45.70113" lon="6.68162">
        <ele>1993.4</ele>
        <time>2013-08-27T12:52:04Z</time>
      </trkpt>
      <trkpt lat="45.70112" lon="6.68162">
        <ele>1992</ele>
        <time>2013-08-27T12:52:05Z</time>
      </trkpt>
      <trkpt lat="45.70109" lon="6.68161">
        <ele>1993</ele>
        <time>2013-08-27T12:52:06Z</time>
      </trkpt>
      <trkpt lat="45.70106" lon="6.6816">
        <ele>1992.5</ele>
        <time>2013-08-27T12:52:07Z</time>
      </trkpt>
      <trkpt lat="45.70103" lon="6.68158">
        <ele>1992</ele>
        <time>2013-08-27T12:52:08Z</time>
      </trkpt>
      <trkpt lat="45.70089" lon="6.68148">
        <ele>1988.6</ele>
        <time>2013-08-27T12:52:11Z</time>
      </trkpt>
      <trkpt lat="45.70086" lon="6.68144">
        <ele>1987.7</ele>
        <time>2013-08-27T12:52:12Z</time>
      </trkpt>
      <trkpt lat="45.70083" lon="6.68141">
        <ele>1988.1</ele>
        <time>2013-08-27T12:52:13Z</time>
      </trkpt>
      <trkpt lat="45.70077" lon="6.6813">
        <ele>1986.7</ele>
        <time>2013-08-27T12:52:17Z</time>
      </trkpt>
      <trkpt lat="45.70069" lon="6.6812">
        <ele>1982.9</ele>
        <time>2013-08-27T12:52:21Z</time>
      </trkpt>
      <trkpt lat="45.70068" lon="6.68119">
        <ele>1982.9</ele>
        <time>2013-08-27T12:52:22Z</time>
      </trkpt>
      <trkpt lat="45.70066" lon="6.68115">
        <ele>1980.5</ele>
        <time>2013-08-27T12:52:31Z</time>
      </trkpt>
      <trkpt lat="45.70063" lon="6.6811">
        <ele>1978.5</ele>
        <time>2013-08-27T12:52:38Z</time>
      </trkpt>
      <trkpt lat="45.70062" lon="6.68109">
        <ele>1978.1</ele>
        <time>2013-08-27T12:52:40Z</time>
      </trkpt>
      <trkpt lat="45.70057" lon="6.68104">
        <ele>1975.2</ele>
        <time>2013-08-27T12:52:50Z</time>
      </trkpt>
      <trkpt lat="45.70056" lon="6.68105">
        <ele>1975.7</ele>
        <time>2013-08-27T12:52:54Z</time>
      </trkpt>
      <trkpt lat="45.70055" lon="6.68107">
        <ele>1975.2</ele>
        <time>2013-08-27T12:52:55Z</time>
      </trkpt>
      <trkpt lat="45.70051" lon="6.68109">
        <ele>1973.2</ele>
        <time>2013-08-27T12:52:57Z</time>
      </trkpt>
      <trkpt lat="45.70049" lon="6.68107">
        <ele>1973.2</ele>
        <time>2013-08-27T12:52:58Z</time>
      </trkpt>
      <trkpt lat="45.70049" lon="6.68104">
        <ele>1972.8</ele>
        <time>2013-08-27T12:52:59Z</time>
      </trkpt>
      <trkpt lat="45.70048" lon="6.68093">
        <ele>1971.3</ele>
        <time>2013-08-27T12:53:09Z</time>
      </trkpt>
      <trkpt lat="45.70048" lon="6.68094">
        <ele>1971.8</ele>
        <time>2013-08-27T12:53:18Z</time>
      </trkpt>
      <trkpt lat="45.7004" lon="6.68106">
        <ele>1970.4</ele>
        <time>2013-08-27T12:53:22Z</time>
      </trkpt>
      <trkpt lat="45.70039" lon="6.68112">
        <ele>1969.4</ele>
        <time>2013-08-27T12:53:23Z</time>
      </trkpt>
      <trkpt lat="45.70038" lon="6.68119">
        <ele>1969.4</ele>
        <time>2013-08-27T12:53:24Z</time>
      </trkpt>
      <trkpt lat="45.70037" lon="6.68126">
        <ele>1968.9</ele>
        <time>2013-08-27T12:53:25Z</time>
      </trkpt>
      <trkpt lat="45.70037" lon="6.68132">
        <ele>1968</ele>
        <time>2013-08-27T12:53:26Z</time>
      </trkpt>
      <trkpt lat="45.70036" lon="6.68147">
        <ele>1964.6</ele>
        <time>2013-08-27T12:53:29Z</time>
      </trkpt>
      <trkpt lat="45.70033" lon="6.6815">
        <ele>1965.1</ele>
        <time>2013-08-27T12:53:30Z</time>
      </trkpt>
      <trkpt lat="45.7003" lon="6.68149">
        <ele>1964.6</ele>
        <time>2013-08-27T12:53:31Z</time>
      </trkpt>
      <trkpt lat="45.70028" lon="6.68145">
        <ele>1964.1</ele>
        <time>2013-08-27T12:53:32Z</time>
      </trkpt>
      <trkpt lat="45.70028" lon="6.68139">
        <ele>1964.1</ele>
        <time>2013-08-27T12:53:33Z</time>
      </trkpt>
      <trkpt lat="45.70027" lon="6.68132">
        <ele>1963.6</ele>
        <time>2013-08-27T12:53:34Z</time>
      </trkpt>
      <trkpt lat="45.70026" lon="6.68125">
        <ele>1962.2</ele>
        <time>2013-08-27T12:53:35Z</time>
      </trkpt>
      <trkpt lat="45.70024" lon="6.68104">
        <ele>1961.2</ele>
        <time>2013-08-27T12:53:38Z</time>
      </trkpt>
      <trkpt lat="45.70024" lon="6.68098">
        <ele>1960.8</ele>
        <time>2013-08-27T12:53:39Z</time>
      </trkpt>
      <trkpt lat="45.70024" lon="6.68092">
        <ele>1959.8</ele>
        <time>2013-08-27T12:53:40Z</time>
      </trkpt>
      <trkpt lat="45.70025" lon="6.68086">
        <ele>1958.8</ele>
        <time>2013-08-27T12:53:41Z</time>
      </trkpt>
      <trkpt lat="45.70025" lon="6.6808">
        <ele>1958.3</ele>
        <time>2013-08-27T12:53:42Z</time>
      </trkpt>
      <trkpt lat="45.70027" lon="6.6806">
        <ele>1955</ele>
        <time>2013-08-27T12:53:46Z</time>
      </trkpt>
      <trkpt lat="45.70027" lon="6.68056">
        <ele>1955</ele>
        <time>2013-08-27T12:53:47Z</time>
      </trkpt>
      <trkpt lat="45.70026" lon="6.68054">
        <ele>1954.5</ele>
        <time>2013-08-27T12:53:48Z</time>
      </trkpt>
      <trkpt lat="45.70023" lon="6.68053">
        <ele>1955</ele>
        <time>2013-08-27T12:53:58Z</time>
      </trkpt>
      <trkpt lat="45.70025" lon="6.68052">
        <ele>1954.5</ele>
        <time>2013-08-27T12:54:11Z</time>
      </trkpt>
      <trkpt lat="45.70026" lon="6.6805">
        <ele>1954</ele>
        <time>2013-08-27T12:54:21Z</time>
      </trkpt>
      <trkpt lat="45.70026" lon="6.68047">
        <ele>1955</ele>
        <time>2013-08-27T12:54:22Z</time>
      </trkpt>
      <trkpt lat="45.70026" lon="6.68043">
        <ele>1954.5</ele>
        <time>2013-08-27T12:54:23Z</time>
      </trkpt>
      <trkpt lat="45.70026" lon="6.68037">
        <ele>1954.5</ele>
        <time>2013-08-27T12:54:24Z</time>
      </trkpt>
      <trkpt lat="45.70026" lon="6.68031">
        <ele>1954</ele>
        <time>2013-08-27T12:54:25Z</time>
      </trkpt>
      <trkpt lat="45.70025" lon="6.68025">
        <ele>1953.1</ele>
        <time>2013-08-27T12:54:26Z</time>
      </trkpt>
      <trkpt lat="45.70023" lon="6.68019">
        <ele>1951.6</ele>
        <time>2013-08-27T12:54:27Z</time>
      </trkpt>
      <trkpt lat="45.7002" lon="6.68014">
        <ele>1950.2</ele>
        <time>2013-08-27T12:54:28Z</time>
      </trkpt>
      <trkpt lat="45.70016" lon="6.6801">
        <ele>1949.7</ele>
        <time>2013-08-27T12:54:29Z</time>
      </trkpt>
      <trkpt lat="45.70012" lon="6.68007">
        <ele>1948.3</ele>
        <time>2013-08-27T12:54:30Z</time>
      </trkpt>
      <trkpt lat="45.70009" lon="6.68003">
        <ele>1947.8</ele>
        <time>2013-08-27T12:54:31Z</time>
      </trkpt>
      <trkpt lat="45.7" lon="6.68">
        <ele>1946.3</ele>
        <time>2013-08-27T12:54:34Z</time>
      </trkpt>
      <trkpt lat="45.69997" lon="6.68002">
        <ele>1944.9</ele>
        <time>2013-08-27T12:54:36Z</time>
      </trkpt>
      <trkpt lat="45.69995" lon="6.68003">
        <ele>1944.9</ele>
        <time>2013-08-27T12:54:58Z</time>
      </trkpt>
      <trkpt lat="45.69994" lon="6.68">
        <ele>1944.9</ele>
        <time>2013-08-27T12:55:00Z</time>
      </trkpt>
      <trkpt lat="45.69993" lon="6.67998">
        <ele>1944.4</ele>
        <time>2013-08-27T12:55:01Z</time>
      </trkpt>
      <trkpt lat="45.69992" lon="6.67994">
        <ele>1943.4</ele>
        <time>2013-08-27T12:55:02Z</time>
      </trkpt>
      <trkpt lat="45.69992" lon="6.67991">
        <ele>1943</ele>
        <time>2013-08-27T12:55:03Z</time>
      </trkpt>
      <trkpt lat="45.6999" lon="6.67988">
        <ele>1942.5</ele>
        <time>2013-08-27T12:55:04Z</time>
      </trkpt>
      <trkpt lat="45.69988" lon="6.67986">
        <ele>1942</ele>
        <time>2013-08-27T12:55:05Z</time>
      </trkpt>
      <trkpt lat="45.69987" lon="6.67984">
        <ele>1941</ele>
        <time>2013-08-27T12:55:06Z</time>
      </trkpt>
      <trkpt lat="45.69985" lon="6.67982">
        <ele>1940.6</ele>
        <time>2013-08-27T12:55:07Z</time>
      </trkpt>
      <trkpt lat="45.69984" lon="6.67981">
        <ele>1940.6</ele>
        <time>2013-08-27T12:55:08Z</time>
      </trkpt>
      <trkpt lat="45.69983" lon="6.67981">
        <ele>1940.1</ele>
        <time>2013-08-27T12:55:09Z</time>
      </trkpt>
      <trkpt lat="45.69981" lon="6.67981">
        <ele>1939.6</ele>
        <time>2013-08-27T12:55:10Z</time>
      </trkpt>
      <trkpt lat="45.69978" lon="6.67982">
        <ele>1939.1</ele>
        <time>2013-08-27T12:55:11Z</time>
      </trkpt>
      <trkpt lat="45.69976" lon="6.67982">
        <ele>1938.2</ele>
        <time>2013-08-27T12:55:12Z</time>
      </trkpt>
      <trkpt lat="45.69974" lon="6.67982">
        <ele>1937.2</ele>
        <time>2013-08-27T12:55:13Z</time>
      </trkpt>
      <trkpt lat="45.69971" lon="6.67982">
        <ele>1937.2</ele>
        <time>2013-08-27T12:55:14Z</time>
      </trkpt>
      <trkpt lat="45.69968" lon="6.67982">
        <ele>1935.3</ele>
        <time>2013-08-27T12:55:15Z</time>
      </trkpt>
      <trkpt lat="45.6996" lon="6.6798">
        <ele>1932.9</ele>
        <time>2013-08-27T12:55:19Z</time>
      </trkpt>
      <trkpt lat="45.69958" lon="6.67978">
        <ele>1931.4</ele>
        <time>2013-08-27T12:55:20Z</time>
      </trkpt>
      <trkpt lat="45.6995" lon="6.67963">
        <ele>1928.5</ele>
        <time>2013-08-27T12:55:26Z</time>
      </trkpt>
      <trkpt lat="45.69941" lon="6.67945">
        <ele>1925.2</ele>
        <time>2013-08-27T12:55:36Z</time>
      </trkpt>
      <trkpt lat="45.69943" lon="6.67937">
        <ele>1923.7</ele>
        <time>2013-08-27T12:55:46Z</time>
      </trkpt>
      <trkpt lat="45.69945" lon="6.67936">
        <ele>1923.3</ele>
        <time>2013-08-27T12:55:47Z</time>
      </trkpt>
      <trkpt lat="45.69946" lon="6.67934">
        <ele>1923.7</ele>
        <time>2013-08-27T12:55:48Z</time>
      </trkpt>
      <trkpt lat="45.69948" lon="6.67932">
        <ele>1922.3</ele>
        <time>2013-08-27T12:55:49Z</time>
      </trkpt>
      <trkpt lat="45.69956" lon="6.67921">
        <ele>1921.3</ele>
        <time>2013-08-27T12:55:59Z</time>
      </trkpt>
      <trkpt lat="45.69955" lon="6.6792">
        <ele>1920.4</ele>
        <time>2013-08-27T12:56:02Z</time>
      </trkpt>
      <trkpt lat="45.69952" lon="6.67919">
        <ele>1919.9</ele>
        <time>2013-08-27T12:56:06Z</time>
      </trkpt>
      <trkpt lat="45.69946" lon="6.67919">
        <ele>1918.9</ele>
        <time>2013-08-27T12:56:10Z</time>
      </trkpt>
      <trkpt lat="45.6994" lon="6.67917">
        <ele>1916.5</ele>
        <time>2013-08-27T12:56:13Z</time>
      </trkpt>
      <trkpt lat="45.69938" lon="6.67915">
        <ele>1915.1</ele>
        <time>2013-08-27T12:56:23Z</time>
      </trkpt>
      <trkpt lat="45.69938" lon="6.67914">
        <ele>1914.6</ele>
        <time>2013-08-27T12:56:25Z</time>
      </trkpt>
      <trkpt lat="45.69936" lon="6.67911">
        <ele>1914.6</ele>
        <time>2013-08-27T12:56:29Z</time>
      </trkpt>
      <trkpt lat="45.69933" lon="6.67911">
        <ele>1914.6</ele>
        <time>2013-08-27T12:56:30Z</time>
      </trkpt>
      <trkpt lat="45.69931" lon="6.67911">
        <ele>1913.2</ele>
        <time>2013-08-27T12:56:31Z</time>
      </trkpt>
      <trkpt lat="45.69928" lon="6.67911">
        <ele>1913.2</ele>
        <time>2013-08-27T12:56:32Z</time>
      </trkpt>
      <trkpt lat="45.69926" lon="6.6791">
        <ele>1912.7</ele>
        <time>2013-08-27T12:56:33Z</time>
      </trkpt>
      <trkpt lat="45.69924" lon="6.67909">
        <ele>1911.7</ele>
        <time>2013-08-27T12:56:34Z</time>
      </trkpt>
      <trkpt lat="45.69922" lon="6.67909">
        <ele>1911.2</ele>
        <time>2013-08-27T12:56:35Z</time>
      </trkpt>
      <trkpt lat="45.69919" lon="6.67909">
        <ele>1909.8</ele>
        <time>2013-08-27T12:56:36Z</time>
      </trkpt>
      <trkpt lat="45.69916" lon="6.67908">
        <ele>1909.8</ele>
        <time>2013-08-27T12:56:37Z</time>
      </trkpt>
      <trkpt lat="45.69903" lon="6.67908">
        <ele>1906.9</ele>
        <time>2013-08-27T12:56:43Z</time>
      </trkpt>
      <trkpt lat="45.69901" lon="6.6791">
        <ele>1906.4</ele>
        <time>2013-08-27T12:56:44Z</time>
      </trkpt>
      <trkpt lat="45.6989" lon="6.67923">
        <ele>1904.5</ele>
        <time>2013-08-27T12:56:50Z</time>
      </trkpt>
      <trkpt lat="45.69881" lon="6.67936">
        <ele>1901.1</ele>
        <time>2013-08-27T12:56:56Z</time>
      </trkpt>
      <trkpt lat="45.6988" lon="6.67934">
        <ele>1901.1</ele>
        <time>2013-08-27T12:56:57Z</time>
      </trkpt>
      <trkpt lat="45.69879" lon="6.6793">
        <ele>1900.2</ele>
        <time>2013-08-27T12:56:58Z</time>
      </trkpt>
      <trkpt lat="45.69876" lon="6.67904">
        <ele>1897.3</ele>
        <time>2013-08-27T12:57:04Z</time>
      </trkpt>
      <trkpt lat="45.69875" lon="6.67902">
        <ele>1896.3</ele>
        <time>2013-08-27T12:57:05Z</time>
      </trkpt>
      <trkpt lat="45.69873" lon="6.67901">
        <ele>1895.4</ele>
        <time>2013-08-27T12:57:06Z</time>
      </trkpt>
      <trkpt lat="45.69868" lon="6.67899">
        <ele>1893.5</ele>
        <time>2013-08-27T12:57:08Z</time>
      </trkpt>
      <trkpt lat="45.69865" lon="6.67898">
        <ele>1892.5</ele>
        <time>2013-08-27T12:57:09Z</time>
      </trkpt>
      <trkpt lat="45.69862" lon="6.67896">
        <ele>1892</ele>
        <time>2013-08-27T12:57:10Z</time>
      </trkpt>
      <trkpt lat="45.6986" lon="6.67894">
        <ele>1891.1</ele>
        <time>2013-08-27T12:57:11Z</time>
      </trkpt>
      <trkpt lat="45.69858" lon="6.67892">
        <ele>1890.1</ele>
        <time>2013-08-27T12:57:12Z</time>
      </trkpt>
      <trkpt lat="45.69855" lon="6.6789">
        <ele>1889.1</ele>
        <time>2013-08-27T12:57:13Z</time>
      </trkpt>
      <trkpt lat="45.69853" lon="6.67887">
        <ele>1889.1</ele>
        <time>2013-08-27T12:57:14Z</time>
      </trkpt>
      <trkpt lat="45.69852" lon="6.67884">
        <ele>1888.7</ele>
        <time>2013-08-27T12:57:15Z</time>
      </trkpt>
      <trkpt lat="45.6985" lon="6.67879">
        <ele>1886.7</ele>
        <time>2013-08-27T12:57:16Z</time>
      </trkpt>
      <trkpt lat="45.69847" lon="6.67874">
        <ele>1886.7</ele>
        <time>2013-08-27T12:57:17Z</time>
      </trkpt>
      <trkpt lat="45.69844" lon="6.6787">
        <ele>1885.3</ele>
        <time>2013-08-27T12:57:18Z</time>
      </trkpt>
      <trkpt lat="45.69841" lon="6.67865">
        <ele>1885.3</ele>
        <time>2013-08-27T12:57:19Z</time>
      </trkpt>
      <trkpt lat="45.69839" lon="6.67861">
        <ele>1884.8</ele>
        <time>2013-08-27T12:57:20Z</time>
      </trkpt>
      <trkpt lat="45.69837" lon="6.67858">
        <ele>1883.4</ele>
        <time>2013-08-27T12:57:21Z</time>
      </trkpt>
      <trkpt lat="45.69833" lon="6.67855">
        <ele>1882.9</ele>
        <time>2013-08-27T12:57:22Z</time>
      </trkpt>
      <trkpt lat="45.69822" lon="6.67844">
        <ele>1879</ele>
        <time>2013-08-27T12:57:26Z</time>
      </trkpt>
      <trkpt lat="45.69815" lon="6.67835">
        <ele>1878.1</ele>
        <time>2013-08-27T12:57:28Z</time>
      </trkpt>
      <trkpt lat="45.69806" lon="6.67817">
        <ele>1874.7</ele>
        <time>2013-08-27T12:57:33Z</time>
      </trkpt>
      <trkpt lat="45.698" lon="6.67809">
        <ele>1872.3</ele>
        <time>2013-08-27T12:57:36Z</time>
      </trkpt>
      <trkpt lat="45.69798" lon="6.67809">
        <ele>1870.9</ele>
        <time>2013-08-27T12:57:37Z</time>
      </trkpt>
      <trkpt lat="45.69795" lon="6.6781">
        <ele>1869.9</ele>
        <time>2013-08-27T12:57:38Z</time>
      </trkpt>
      <trkpt lat="45.69787" lon="6.6781">
        <ele>1868</ele>
        <time>2013-08-27T12:57:40Z</time>
      </trkpt>
      <trkpt lat="45.69782" lon="6.6781">
        <ele>1867</ele>
        <time>2013-08-27T12:57:41Z</time>
      </trkpt>
      <trkpt lat="45.69778" lon="6.67808">
        <ele>1865.1</ele>
        <time>2013-08-27T12:57:42Z</time>
      </trkpt>
      <trkpt lat="45.69773" lon="6.67805">
        <ele>1865.6</ele>
        <time>2013-08-27T12:57:43Z</time>
      </trkpt>
      <trkpt lat="45.69755" lon="6.67798">
        <ele>1861.3</ele>
        <time>2013-08-27T12:57:47Z</time>
      </trkpt>
      <trkpt lat="45.69753" lon="6.67796">
        <ele>1860.8</ele>
        <time>2013-08-27T12:57:48Z</time>
      </trkpt>
      <trkpt lat="45.69743" lon="6.67779">
        <ele>1859.3</ele>
        <time>2013-08-27T12:57:52Z</time>
      </trkpt>
      <trkpt lat="45.6974" lon="6.67775">
        <ele>1857.4</ele>
        <time>2013-08-27T12:57:53Z</time>
      </trkpt>
      <trkpt lat="45.69736" lon="6.67771">
        <ele>1856.9</ele>
        <time>2013-08-27T12:57:54Z</time>
      </trkpt>
      <trkpt lat="45.6973" lon="6.67762">
        <ele>1855</ele>
        <time>2013-08-27T12:57:56Z</time>
      </trkpt>
      <trkpt lat="45.69728" lon="6.67757">
        <ele>1855</ele>
        <time>2013-08-27T12:57:57Z</time>
      </trkpt>
      <trkpt lat="45.69726" lon="6.67751">
        <ele>1854.5</ele>
        <time>2013-08-27T12:57:58Z</time>
      </trkpt>
      <trkpt lat="45.69724" lon="6.67747">
        <ele>1853.6</ele>
        <time>2013-08-27T12:57:59Z</time>
      </trkpt>
      <trkpt lat="45.69723" lon="6.67742">
        <ele>1853.6</ele>
        <time>2013-08-27T12:58:00Z</time>
      </trkpt>
      <trkpt lat="45.69722" lon="6.67738">
        <ele>1853.1</ele>
        <time>2013-08-27T12:58:01Z</time>
      </trkpt>
      <trkpt lat="45.6972" lon="6.67734">
        <ele>1852.1</ele>
        <time>2013-08-27T12:58:02Z</time>
      </trkpt>
      <trkpt lat="45.69718" lon="6.67732">
        <ele>1851.6</ele>
        <time>2013-08-27T12:58:03Z</time>
      </trkpt>
      <trkpt lat="45.69715" lon="6.6773">
        <ele>1851.2</ele>
        <time>2013-08-27T12:58:04Z</time>
      </trkpt>
      <trkpt lat="45.69712" lon="6.67728">
        <ele>1850.2</ele>
        <time>2013-08-27T12:58:05Z</time>
      </trkpt>
      <trkpt lat="45.69709" lon="6.67728">
        <ele>1849.2</ele>
        <time>2013-08-27T12:58:06Z</time>
      </trkpt>
      <trkpt lat="45.69706" lon="6.67727">
        <ele>1848.8</ele>
        <time>2013-08-27T12:58:07Z</time>
      </trkpt>
      <trkpt lat="45.69703" lon="6.67725">
        <ele>1848.3</ele>
        <time>2013-08-27T12:58:08Z</time>
      </trkpt>
      <trkpt lat="45.697" lon="6.67722">
        <ele>1847.3</ele>
        <time>2013-08-27T12:58:09Z</time>
      </trkpt>
      <trkpt lat="45.69697" lon="6.67719">
        <ele>1846.8</ele>
        <time>2013-08-27T12:58:10Z</time>
      </trkpt>
      <trkpt lat="45.69682" lon="6.67711">
        <ele>1843</ele>
        <time>2013-08-27T12:58:15Z</time>
      </trkpt>
      <trkpt lat="45.69679" lon="6.6771">
        <ele>1842.5</ele>
        <time>2013-08-27T12:58:16Z</time>
      </trkpt>
      <trkpt lat="45.69676" lon="6.67706">
        <ele>1841.1</ele>
        <time>2013-08-27T12:58:17Z</time>
      </trkpt>
      <trkpt lat="45.69673" lon="6.67701">
        <ele>1841.1</ele>
        <time>2013-08-27T12:58:18Z</time>
      </trkpt>
      <trkpt lat="45.69669" lon="6.67695">
        <ele>1839.6</ele>
        <time>2013-08-27T12:58:19Z</time>
      </trkpt>
      <trkpt lat="45.69665" lon="6.6769">
        <ele>1838.2</ele>
        <time>2013-08-27T12:58:20Z</time>
      </trkpt>
      <trkpt lat="45.69661" lon="6.67686">
        <ele>1837.2</ele>
        <time>2013-08-27T12:58:21Z</time>
      </trkpt>
      <trkpt lat="45.69659" lon="6.67681">
        <ele>1837.2</ele>
        <time>2013-08-27T12:58:22Z</time>
      </trkpt>
      <trkpt lat="45.69656" lon="6.67677">
        <ele>1836.7</ele>
        <time>2013-08-27T12:58:23Z</time>
      </trkpt>
      <trkpt lat="45.69653" lon="6.67674">
        <ele>1835.8</ele>
        <time>2013-08-27T12:58:24Z</time>
      </trkpt>
      <trkpt lat="45.69651" lon="6.67671">
        <ele>1835.8</ele>
        <time>2013-08-27T12:58:25Z</time>
      </trkpt>
      <trkpt lat="45.69648" lon="6.67669">
        <ele>1834.3</ele>
        <time>2013-08-27T12:58:26Z</time>
      </trkpt>
      <trkpt lat="45.69647" lon="6.67667">
        <ele>1833.9</ele>
        <time>2013-08-27T12:58:27Z</time>
      </trkpt>
      <trkpt lat="45.69646" lon="6.67664">
        <ele>1833.4</ele>
        <time>2013-08-27T12:58:28Z</time>
      </trkpt>
      <trkpt lat="45.69646" lon="6.6766">
        <ele>1833.4</ele>
        <time>2013-08-27T12:58:29Z</time>
      </trkpt>
      <trkpt lat="45.69645" lon="6.67656">
        <ele>1832.9</ele>
        <time>2013-08-27T12:58:30Z</time>
      </trkpt>
      <trkpt lat="45.69644" lon="6.67653">
        <ele>1832.4</ele>
        <time>2013-08-27T12:58:31Z</time>
      </trkpt>
      <trkpt lat="45.69642" lon="6.67651">
        <ele>1832.9</ele>
        <time>2013-08-27T12:58:32Z</time>
      </trkpt>
      <trkpt lat="45.69641" lon="6.67649">
        <ele>1832.4</ele>
        <time>2013-08-27T12:58:33Z</time>
      </trkpt>
      <trkpt lat="45.69639" lon="6.67647">
        <ele>1832.9</ele>
        <time>2013-08-27T12:58:34Z</time>
      </trkpt>
      <trkpt lat="45.69638" lon="6.67645">
        <ele>1832.9</ele>
        <time>2013-08-27T12:58:35Z</time>
      </trkpt>
      <trkpt lat="45.69637" lon="6.67642">
        <ele>1832.9</ele>
        <time>2013-08-27T12:58:36Z</time>
      </trkpt>
      <trkpt lat="45.69635" lon="6.67638">
        <ele>1832.4</ele>
        <time>2013-08-27T12:58:37Z</time>
      </trkpt>
      <trkpt lat="45.69634" lon="6.67635">
        <ele>1832.4</ele>
        <time>2013-08-27T12:58:38Z</time>
      </trkpt>
      <trkpt lat="45.69633" lon="6.6763">
        <ele>1832.9</ele>
        <time>2013-08-27T12:58:39Z</time>
      </trkpt>
      <trkpt lat="45.69616" lon="6.67596">
        <ele>1831.9</ele>
        <time>2013-08-27T12:58:48Z</time>
      </trkpt>
      <trkpt lat="45.69616" lon="6.67593">
        <ele>1832.4</ele>
        <time>2013-08-27T12:58:49Z</time>
      </trkpt>
      <trkpt lat="45.6962" lon="6.67579">
        <ele>1832.4</ele>
        <time>2013-08-27T12:58:54Z</time>
      </trkpt>
      <trkpt lat="45.6962" lon="6.67575">
        <ele>1832.4</ele>
        <time>2013-08-27T12:58:55Z</time>
      </trkpt>
      <trkpt lat="45.69618" lon="6.67573">
        <ele>1832.4</ele>
        <time>2013-08-27T12:58:56Z</time>
      </trkpt>
      <trkpt lat="45.69615" lon="6.67572">
        <ele>1832.4</ele>
        <time>2013-08-27T12:58:57Z</time>
      </trkpt>
      <trkpt lat="45.69613" lon="6.67571">
        <ele>1832.9</ele>
        <time>2013-08-27T12:58:58Z</time>
      </trkpt>
      <trkpt lat="45.6961" lon="6.67571">
        <ele>1832.4</ele>
        <time>2013-08-27T12:58:59Z</time>
      </trkpt>
      <trkpt lat="45.69608" lon="6.67569">
        <ele>1832.4</ele>
        <time>2013-08-27T12:59:00Z</time>
      </trkpt>
      <trkpt lat="45.69605" lon="6.67567">
        <ele>1832.9</ele>
        <time>2013-08-27T12:59:01Z</time>
      </trkpt>
      <trkpt lat="45.6959" lon="6.67547">
        <ele>1831</ele>
        <time>2013-08-27T12:59:07Z</time>
      </trkpt>
      <trkpt lat="45.69587" lon="6.67542">
        <ele>1830.5</ele>
        <time>2013-08-27T12:59:08Z</time>
      </trkpt>
      <trkpt lat="45.69579" lon="6.67525">
        <ele>1830</ele>
        <time>2013-08-27T12:59:11Z</time>
      </trkpt>
      <trkpt lat="45.69574" lon="6.67514">
        <ele>1829.5</ele>
        <time>2013-08-27T12:59:13Z</time>
      </trkpt>
      <trkpt lat="45.69552" lon="6.67477">
        <ele>1826.2</ele>
        <time>2013-08-27T12:59:19Z</time>
      </trkpt>
      <trkpt lat="45.69548" lon="6.6747">
        <ele>1826.2</ele>
        <time>2013-08-27T12:59:20Z</time>
      </trkpt>
      <trkpt lat="45.69534" lon="6.67451">
        <ele>1825.2</ele>
        <time>2013-08-27T12:59:23Z</time>
      </trkpt>
      <trkpt lat="45.6953" lon="6.67447">
        <ele>1824.7</ele>
        <time>2013-08-27T12:59:24Z</time>
      </trkpt>
      <trkpt lat="45.69525" lon="6.67443">
        <ele>1823.8</ele>
        <time>2013-08-27T12:59:25Z</time>
      </trkpt>
      <trkpt lat="45.6952" lon="6.67441">
        <ele>1823.8</ele>
        <time>2013-08-27T12:59:26Z</time>
      </trkpt>
      <trkpt lat="45.69517" lon="6.67438">
        <ele>1823.8</ele>
        <time>2013-08-27T12:59:27Z</time>
      </trkpt>
      <trkpt lat="45.69515" lon="6.67435">
        <ele>1823.8</ele>
        <time>2013-08-27T12:59:28Z</time>
      </trkpt>
      <trkpt lat="45.69514" lon="6.67431">
        <ele>1823.8</ele>
        <time>2013-08-27T12:59:29Z</time>
      </trkpt>
      <trkpt lat="45.69513" lon="6.67428">
        <ele>1823.3</ele>
        <time>2013-08-27T12:59:30Z</time>
      </trkpt>
      <trkpt lat="45.69512" lon="6.67425">
        <ele>1823.3</ele>
        <time>2013-08-27T12:59:31Z</time>
      </trkpt>
      <trkpt lat="45.69505" lon="6.67414">
        <ele>1822.8</ele>
        <time>2013-08-27T12:59:37Z</time>
      </trkpt>
      <trkpt lat="45.69504" lon="6.67413">
        <ele>1822.8</ele>
        <time>2013-08-27T12:59:38Z</time>
      </trkpt>
      <trkpt lat="45.69502" lon="6.67412">
        <ele>1822.8</ele>
        <time>2013-08-27T12:59:39Z</time>
      </trkpt>
      <trkpt lat="45.695" lon="6.6741">
        <ele>1822.8</ele>
        <time>2013-08-27T12:59:40Z</time>
      </trkpt>
      <trkpt lat="45.69498" lon="6.67409">
        <ele>1822.3</ele>
        <time>2013-08-27T12:59:41Z</time>
      </trkpt>
      <trkpt lat="45.69495" lon="6.67409">
        <ele>1822.8</ele>
        <time>2013-08-27T12:59:42Z</time>
      </trkpt>
      <trkpt lat="45.69492" lon="6.67409">
        <ele>1822.8</ele>
        <time>2013-08-27T12:59:43Z</time>
      </trkpt>
      <trkpt lat="45.69489" lon="6.6741">
        <ele>1823.3</ele>
        <time>2013-08-27T12:59:44Z</time>
      </trkpt>
      <trkpt lat="45.69486" lon="6.67412">
        <ele>1823.3</ele>
        <time>2013-08-27T12:59:45Z</time>
      </trkpt>
      <trkpt lat="45.69454" lon="6.67409">
        <ele>1822.8</ele>
        <time>2013-08-27T12:59:57Z</time>
      </trkpt>
      <trkpt lat="45.69436" lon="6.67371">
        <ele>1822.8</ele>
        <time>2013-08-27T13:00:06Z</time>
      </trkpt>
      <trkpt lat="45.69418" lon="6.67318">
        <ele>1823.3</ele>
        <time>2013-08-27T13:00:19Z</time>
      </trkpt>
      <trkpt lat="45.69389" lon="6.67296">
        <ele>1824.2</ele>
        <time>2013-08-27T13:00:31Z</time>
      </trkpt>
      <trkpt lat="45.69381" lon="6.67261">
        <ele>1823.8</ele>
        <time>2013-08-27T13:00:38Z</time>
      </trkpt>
      <trkpt lat="45.6938" lon="6.67255">
        <ele>1824.2</ele>
        <time>2013-08-27T13:00:39Z</time>
      </trkpt>
      <trkpt lat="45.6938" lon="6.6725">
        <ele>1824.2</ele>
        <time>2013-08-27T13:00:40Z</time>
      </trkpt>
      <trkpt lat="45.69374" lon="6.67178">
        <ele>1823.8</ele>
        <time>2013-08-27T13:00:55Z</time>
      </trkpt>
      <trkpt lat="45.69372" lon="6.67174">
        <ele>1823.8</ele>
        <time>2013-08-27T13:01:06Z</time>
      </trkpt>
      <trkpt lat="45.6937" lon="6.67159">
        <ele>1823.8</ele>
        <time>2013-08-27T13:01:27Z</time>
      </trkpt>
      <trkpt lat="45.69365" lon="6.6711">
        <ele>1824.7</ele>
        <time>2013-08-27T13:01:42Z</time>
      </trkpt>
      <trkpt lat="45.69344" lon="6.67055">
        <ele>1825.7</ele>
        <time>2013-08-27T13:01:57Z</time>
      </trkpt>
      <trkpt lat="45.69326" lon="6.67038">
        <ele>1828.6</ele>
        <time>2013-08-27T13:02:09Z</time>
      </trkpt>
      <trkpt lat="45.6931" lon="6.6701">
        <ele>1829.1</ele>
        <time>2013-08-27T13:02:22Z</time>
      </trkpt>
      <trkpt lat="45.69306" lon="6.67003">
        <ele>1829.5</ele>
        <time>2013-08-27T13:02:27Z</time>
      </trkpt>
      <trkpt lat="45.69305" lon="6.67002">
        <ele>1830</ele>
        <time>2013-08-27T13:02:28Z</time>
      </trkpt>
      <trkpt lat="45.69304" lon="6.67">
        <ele>1829.5</ele>
        <time>2013-08-27T13:02:29Z</time>
      </trkpt>
      <trkpt lat="45.69304" lon="6.66998">
        <ele>1829.5</ele>
        <time>2013-08-27T13:02:30Z</time>
      </trkpt>
      <trkpt lat="45.69305" lon="6.66995">
        <ele>1830</ele>
        <time>2013-08-27T13:02:31Z</time>
      </trkpt>
      <trkpt lat="45.69305" lon="6.66991">
        <ele>1829.5</ele>
        <time>2013-08-27T13:02:32Z</time>
      </trkpt>
      <trkpt lat="45.69305" lon="6.66988">
        <ele>1830</ele>
        <time>2013-08-27T13:02:33Z</time>
      </trkpt>
      <trkpt lat="45.69305" lon="6.66984">
        <ele>1829.5</ele>
        <time>2013-08-27T13:02:34Z</time>
      </trkpt>
      <trkpt lat="45.69306" lon="6.66979">
        <ele>1830</ele>
        <time>2013-08-27T13:02:35Z</time>
      </trkpt>
      <trkpt lat="45.69307" lon="6.66975">
        <ele>1830</ele>
        <time>2013-08-27T13:02:36Z</time>
      </trkpt>
      <trkpt lat="45.69324" lon="6.66919">
        <ele>1829.1</ele>
        <time>2013-08-27T13:02:48Z</time>
      </trkpt>
      <trkpt lat="45.69324" lon="6.66914">
        <ele>1829.1</ele>
        <time>2013-08-27T13:02:57Z</time>
      </trkpt>
      <trkpt lat="45.69324" lon="6.66915">
        <ele>1829.1</ele>
        <time>2013-08-27T13:03:08Z</time>
      </trkpt>
      <trkpt lat="45.69322" lon="6.66919">
        <ele>1826.6</ele>
        <time>2013-08-27T13:03:23Z</time>
      </trkpt>
      <trkpt lat="45.69322" lon="6.66918">
        <ele>1828.1</ele>
        <time>2013-08-27T13:17:57Z</time>
      </trkpt>
      <trkpt lat="45.69328" lon="6.66922">
        <ele>1827.6</ele>
        <time>2013-08-27T13:17:58Z</time>
      </trkpt>
      <trkpt lat="45.69319" lon="6.66918">
        <ele>1824.7</ele>
        <time>2013-08-27T13:18:10Z</time>
      </trkpt>
      <trkpt lat="45.69319" lon="6.66912">
        <ele>1821.8</ele>
        <time>2013-08-27T13:18:22Z</time>
      </trkpt>
      <trkpt lat="45.69323" lon="6.66875">
        <ele>1819</ele>
        <time>2013-08-27T13:18:37Z</time>
      </trkpt>
      <trkpt lat="45.6931" lon="6.66851">
        <ele>1820.4</ele>
        <time>2013-08-27T13:18:51Z</time>
      </trkpt>
      <trkpt lat="45.693" lon="6.66825">
        <ele>1822.3</ele>
        <time>2013-08-27T13:19:05Z</time>
      </trkpt>
      <trkpt lat="45.69291" lon="6.66805">
        <ele>1822.8</ele>
        <time>2013-08-27T13:19:20Z</time>
      </trkpt>
      <trkpt lat="45.69287" lon="6.66798">
        <ele>1822.8</ele>
        <time>2013-08-27T13:19:59Z</time>
      </trkpt>
      <trkpt lat="45.69272" lon="6.66785">
        <ele>1824.7</ele>
        <time>2013-08-27T13:20:12Z</time>
      </trkpt>
      <trkpt lat="45.69266" lon="6.66776">
        <ele>1825.7</ele>
        <time>2013-08-27T13:20:17Z</time>
      </trkpt>
      <trkpt lat="45.69251" lon="6.66753">
        <ele>1827.6</ele>
        <time>2013-08-27T13:20:36Z</time>
      </trkpt>
      <trkpt lat="45.69239" lon="6.66741">
        <ele>1828.6</ele>
        <time>2013-08-27T13:20:53Z</time>
      </trkpt>
      <trkpt lat="45.69236" lon="6.66699">
        <ele>1829.1</ele>
        <time>2013-08-27T13:21:08Z</time>
      </trkpt>
      <trkpt lat="45.69248" lon="6.66672">
        <ele>1831.5</ele>
        <time>2013-08-27T13:21:22Z</time>
      </trkpt>
      <trkpt lat="45.69251" lon="6.66645">
        <ele>1834.8</ele>
        <time>2013-08-27T13:21:36Z</time>
      </trkpt>
      <trkpt lat="45.69258" lon="6.66629">
        <ele>1836.3</ele>
        <time>2013-08-27T13:21:46Z</time>
      </trkpt>
      <trkpt lat="45.69259" lon="6.66627">
        <ele>1835.8</ele>
        <time>2013-08-27T13:21:47Z</time>
      </trkpt>
      <trkpt lat="45.69259" lon="6.66625">
        <ele>1836.3</ele>
        <time>2013-08-27T13:21:48Z</time>
      </trkpt>
      <trkpt lat="45.6926" lon="6.66623">
        <ele>1836.7</ele>
        <time>2013-08-27T13:21:49Z</time>
      </trkpt>
      <trkpt lat="45.6926" lon="6.66622">
        <ele>1836.3</ele>
        <time>2013-08-27T13:21:50Z</time>
      </trkpt>
      <trkpt lat="45.69271" lon="6.66602">
        <ele>1839.6</ele>
        <time>2013-08-27T13:22:03Z</time>
      </trkpt>
      <trkpt lat="45.69272" lon="6.666">
        <ele>1839.6</ele>
        <time>2013-08-27T13:22:04Z</time>
      </trkpt>
      <trkpt lat="45.69272" lon="6.66598">
        <ele>1839.6</ele>
        <time>2013-08-27T13:22:05Z</time>
      </trkpt>
      <trkpt lat="45.69262" lon="6.6657">
        <ele>1842.5</ele>
        <time>2013-08-27T13:22:22Z</time>
      </trkpt>
      <trkpt lat="45.69243" lon="6.66556">
        <ele>1844.9</ele>
        <time>2013-08-27T13:22:36Z</time>
      </trkpt>
      <trkpt lat="45.69225" lon="6.66579">
        <ele>1846.8</ele>
        <time>2013-08-27T13:22:50Z</time>
      </trkpt>
      <trkpt lat="45.69205" lon="6.66593">
        <ele>1848.8</ele>
        <time>2013-08-27T13:23:04Z</time>
      </trkpt>
      <trkpt lat="45.69199" lon="6.66594">
        <ele>1850.2</ele>
        <time>2013-08-27T13:23:07Z</time>
      </trkpt>
      <trkpt lat="45.69171" lon="6.66595">
        <ele>1852.1</ele>
        <time>2013-08-27T13:23:23Z</time>
      </trkpt>
      <trkpt lat="45.69159" lon="6.66585">
        <ele>1854</ele>
        <time>2013-08-27T13:23:34Z</time>
      </trkpt>
      <trkpt lat="45.69159" lon="6.66583">
        <ele>1853.1</ele>
        <time>2013-08-27T13:23:35Z</time>
      </trkpt>
      <trkpt lat="45.69161" lon="6.66562">
        <ele>1856</ele>
        <time>2013-08-27T13:23:46Z</time>
      </trkpt>
      <trkpt lat="45.69167" lon="6.66541">
        <ele>1856</ele>
        <time>2013-08-27T13:23:56Z</time>
      </trkpt>
      <trkpt lat="45.69171" lon="6.66527">
        <ele>1857.4</ele>
        <time>2013-08-27T13:24:03Z</time>
      </trkpt>
      <trkpt lat="45.69172" lon="6.66503">
        <ele>1859.3</ele>
        <time>2013-08-27T13:24:13Z</time>
      </trkpt>
      <trkpt lat="45.69173" lon="6.66468">
        <ele>1862.2</ele>
        <time>2013-08-27T13:24:30Z</time>
      </trkpt>
      <trkpt lat="45.69166" lon="6.66443">
        <ele>1865.6</ele>
        <time>2013-08-27T13:24:45Z</time>
      </trkpt>
      <trkpt lat="45.69149" lon="6.66419">
        <ele>1868</ele>
        <time>2013-08-27T13:25:02Z</time>
      </trkpt>
      <trkpt lat="45.69138" lon="6.66393">
        <ele>1870.9</ele>
        <time>2013-08-27T13:25:16Z</time>
      </trkpt>
      <trkpt lat="45.69134" lon="6.66385">
        <ele>1871.8</ele>
        <time>2013-08-27T13:25:21Z</time>
      </trkpt>
      <trkpt lat="45.6913" lon="6.66345">
        <ele>1875.2</ele>
        <time>2013-08-27T13:25:39Z</time>
      </trkpt>
      <trkpt lat="45.69132" lon="6.66317">
        <ele>1876.2</ele>
        <time>2013-08-27T13:25:52Z</time>
      </trkpt>
      <trkpt lat="45.69132" lon="6.66315">
        <ele>1876.2</ele>
        <time>2013-08-27T13:25:53Z</time>
      </trkpt>
      <trkpt lat="45.69131" lon="6.66313">
        <ele>1876.2</ele>
        <time>2013-08-27T13:25:54Z</time>
      </trkpt>
      <trkpt lat="45.69131" lon="6.66311">
        <ele>1876.6</ele>
        <time>2013-08-27T13:25:55Z</time>
      </trkpt>
      <trkpt lat="45.69131" lon="6.66309">
        <ele>1875.2</ele>
        <time>2013-08-27T13:25:56Z</time>
      </trkpt>
      <trkpt lat="45.6913" lon="6.66307">
        <ele>1877.6</ele>
        <time>2013-08-27T13:25:57Z</time>
      </trkpt>
      <trkpt lat="45.69122" lon="6.66263">
        <ele>1876.6</ele>
        <time>2013-08-27T13:26:11Z</time>
      </trkpt>
      <trkpt lat="45.69111" lon="6.66208">
        <ele>1879</ele>
        <time>2013-08-27T13:26:26Z</time>
      </trkpt>
      <trkpt lat="45.69097" lon="6.6614">
        <ele>1879</ele>
        <time>2013-08-27T13:26:43Z</time>
      </trkpt>
      <trkpt lat="45.69087" lon="6.66083">
        <ele>1878.1</ele>
        <time>2013-08-27T13:26:56Z</time>
      </trkpt>
      <trkpt lat="45.69066" lon="6.66046">
        <ele>1877.6</ele>
        <time>2013-08-27T13:27:05Z</time>
      </trkpt>
      <trkpt lat="45.69056" lon="6.6603">
        <ele>1877.1</ele>
        <time>2013-08-27T13:27:09Z</time>
      </trkpt>
      <trkpt lat="45.69052" lon="6.66026">
        <ele>1877.1</ele>
        <time>2013-08-27T13:27:10Z</time>
      </trkpt>
      <trkpt lat="45.69049" lon="6.66023">
        <ele>1877.1</ele>
        <time>2013-08-27T13:27:11Z</time>
      </trkpt>
      <trkpt lat="45.69045" lon="6.66021">
        <ele>1876.6</ele>
        <time>2013-08-27T13:27:12Z</time>
      </trkpt>
      <trkpt lat="45.69041" lon="6.66019">
        <ele>1876.6</ele>
        <time>2013-08-27T13:27:13Z</time>
      </trkpt>
      <trkpt lat="45.68998" lon="6.65976">
        <ele>1877.6</ele>
        <time>2013-08-27T13:27:28Z</time>
      </trkpt>
      <trkpt lat="45.68975" lon="6.65928">
        <ele>1880.5</ele>
        <time>2013-08-27T13:27:42Z</time>
      </trkpt>
      <trkpt lat="45.68957" lon="6.65894">
        <ele>1882.4</ele>
        <time>2013-08-27T13:27:55Z</time>
      </trkpt>
      <trkpt lat="45.68951" lon="6.65878">
        <ele>1883.8</ele>
        <time>2013-08-27T13:28:02Z</time>
      </trkpt>
      <trkpt lat="45.68947" lon="6.65845">
        <ele>1887.2</ele>
        <time>2013-08-27T13:28:18Z</time>
      </trkpt>
      <trkpt lat="45.68936" lon="6.65803">
        <ele>1885.8</ele>
        <time>2013-08-27T13:28:30Z</time>
      </trkpt>
      <trkpt lat="45.68933" lon="6.65797">
        <ele>1884.8</ele>
        <time>2013-08-27T13:28:31Z</time>
      </trkpt>
      <trkpt lat="45.68904" lon="6.65748">
        <ele>1885.8</ele>
        <time>2013-08-27T13:28:43Z</time>
      </trkpt>
      <trkpt lat="45.68877" lon="6.65745">
        <ele>1886.7</ele>
        <time>2013-08-27T13:28:54Z</time>
      </trkpt>
      <trkpt lat="45.68848" lon="6.65759">
        <ele>1889.6</ele>
        <time>2013-08-27T13:29:11Z</time>
      </trkpt>
      <trkpt lat="45.6882" lon="6.65756">
        <ele>1892</ele>
        <time>2013-08-27T13:29:28Z</time>
      </trkpt>
      <trkpt lat="45.688" lon="6.65755">
        <ele>1895.4</ele>
        <time>2013-08-27T13:29:42Z</time>
      </trkpt>
      <trkpt lat="45.68775" lon="6.65751">
        <ele>1898.7</ele>
        <time>2013-08-27T13:30:00Z</time>
      </trkpt>
      <trkpt lat="45.68768" lon="6.65751">
        <ele>1899.2</ele>
        <time>2013-08-27T13:30:19Z</time>
      </trkpt>
      <trkpt lat="45.68768" lon="6.65751">
        <ele>1899.2</ele>
        <time>2013-08-27T13:30:42Z</time>
      </trkpt>
      <trkpt lat="45.68765" lon="6.65752">
        <ele>1899.7</ele>
        <time>2013-08-27T13:31:07Z</time>
      </trkpt>
      <trkpt lat="45.68747" lon="6.6575">
        <ele>1902.6</ele>
        <time>2013-08-27T13:31:29Z</time>
      </trkpt>
      <trkpt lat="45.68737" lon="6.65751">
        <ele>1903.6</ele>
        <time>2013-08-27T13:31:48Z</time>
      </trkpt>
      <trkpt lat="45.68737" lon="6.65751">
        <ele>1904</ele>
        <time>2013-08-27T13:32:32Z</time>
      </trkpt>
      <trkpt lat="45.68738" lon="6.65752">
        <ele>1904.5</ele>
        <time>2013-08-27T13:33:09Z</time>
      </trkpt>
      <trkpt lat="45.68737" lon="6.6575">
        <ele>1905</ele>
        <time>2013-08-27T13:33:30Z</time>
      </trkpt>
      <trkpt lat="45.68738" lon="6.65752">
        <ele>1904.5</ele>
        <time>2013-08-27T13:33:58Z</time>
      </trkpt>
      <trkpt lat="45.68735" lon="6.65752">
        <ele>1904.5</ele>
        <time>2013-08-27T13:34:15Z</time>
      </trkpt>
      <trkpt lat="45.68734" lon="6.65753">
        <ele>1905.5</ele>
        <time>2013-08-27T13:34:16Z</time>
      </trkpt>
      <trkpt lat="45.68734" lon="6.65754">
        <ele>1905.5</ele>
        <time>2013-08-27T13:34:17Z</time>
      </trkpt>
      <trkpt lat="45.68733" lon="6.65755">
        <ele>1905.5</ele>
        <time>2013-08-27T13:34:18Z</time>
      </trkpt>
      <trkpt lat="45.68733" lon="6.65758">
        <ele>1905.5</ele>
        <time>2013-08-27T13:34:19Z</time>
      </trkpt>
      <trkpt lat="45.68733" lon="6.6576">
        <ele>1905.5</ele>
        <time>2013-08-27T13:34:20Z</time>
      </trkpt>
      <trkpt lat="45.68725" lon="6.65785">
        <ele>1908.4</ele>
        <time>2013-08-27T13:34:35Z</time>
      </trkpt>
      <trkpt lat="45.68724" lon="6.65787">
        <ele>1909.3</ele>
        <time>2013-08-27T13:34:37Z</time>
      </trkpt>
      <trkpt lat="45.68723" lon="6.65788">
        <ele>1909.3</ele>
        <time>2013-08-27T13:34:38Z</time>
      </trkpt>
      <trkpt lat="45.68722" lon="6.65789">
        <ele>1909.3</ele>
        <time>2013-08-27T13:34:39Z</time>
      </trkpt>
      <trkpt lat="45.68717" lon="6.65801">
        <ele>1911.2</ele>
        <time>2013-08-27T13:34:48Z</time>
      </trkpt>
      <trkpt lat="45.68716" lon="6.65802">
        <ele>1910.8</ele>
        <time>2013-08-27T13:34:49Z</time>
      </trkpt>
      <trkpt lat="45.68715" lon="6.65803">
        <ele>1911.2</ele>
        <time>2013-08-27T13:34:50Z</time>
      </trkpt>
      <trkpt lat="45.68714" lon="6.65805">
        <ele>1911.2</ele>
        <time>2013-08-27T13:34:51Z</time>
      </trkpt>
      <trkpt lat="45.68713" lon="6.65806">
        <ele>1911.2</ele>
        <time>2013-08-27T13:34:52Z</time>
      </trkpt>
      <trkpt lat="45.68712" lon="6.65807">
        <ele>1911.7</ele>
        <time>2013-08-27T13:34:53Z</time>
      </trkpt>
      <trkpt lat="45.68712" lon="6.65808">
        <ele>1911.7</ele>
        <time>2013-08-27T13:34:54Z</time>
      </trkpt>
      <trkpt lat="45.68702" lon="6.65829">
        <ele>1914.1</ele>
        <time>2013-08-27T13:35:09Z</time>
      </trkpt>
      <trkpt lat="45.68701" lon="6.65831">
        <ele>1915.1</ele>
        <time>2013-08-27T13:35:11Z</time>
      </trkpt>
      <trkpt lat="45.68686" lon="6.65854">
        <ele>1917</ele>
        <time>2013-08-27T13:35:28Z</time>
      </trkpt>
      <trkpt lat="45.68678" lon="6.65874">
        <ele>1920.4</ele>
        <time>2013-08-27T13:35:42Z</time>
      </trkpt>
      <trkpt lat="45.6867" lon="6.65899">
        <ele>1923.3</ele>
        <time>2013-08-27T13:35:59Z</time>
      </trkpt>
      <trkpt lat="45.68666" lon="6.65911">
        <ele>1924.2</ele>
        <time>2013-08-27T13:36:07Z</time>
      </trkpt>
      <trkpt lat="45.68665" lon="6.65912">
        <ele>1924.2</ele>
        <time>2013-08-27T13:36:08Z</time>
      </trkpt>
      <trkpt lat="45.68665" lon="6.65914">
        <ele>1925.2</ele>
        <time>2013-08-27T13:36:09Z</time>
      </trkpt>
      <trkpt lat="45.68665" lon="6.65916">
        <ele>1925.7</ele>
        <time>2013-08-27T13:36:10Z</time>
      </trkpt>
      <trkpt lat="45.68664" lon="6.65917">
        <ele>1925.7</ele>
        <time>2013-08-27T13:36:11Z</time>
      </trkpt>
      <trkpt lat="45.68663" lon="6.65919">
        <ele>1925.7</ele>
        <time>2013-08-27T13:36:12Z</time>
      </trkpt>
      <trkpt lat="45.68658" lon="6.6593">
        <ele>1927.6</ele>
        <time>2013-08-27T13:36:22Z</time>
      </trkpt>
      <trkpt lat="45.68646" lon="6.65945">
        <ele>1931</ele>
        <time>2013-08-27T13:36:36Z</time>
      </trkpt>
      <trkpt lat="45.68645" lon="6.65945">
        <ele>1931</ele>
        <time>2013-08-27T13:36:37Z</time>
      </trkpt>
      <trkpt lat="45.68631" lon="6.65966">
        <ele>1934.3</ele>
        <time>2013-08-27T13:36:54Z</time>
      </trkpt>
      <trkpt lat="45.68628" lon="6.65969">
        <ele>1934.3</ele>
        <time>2013-08-27T13:36:57Z</time>
      </trkpt>
      <trkpt lat="45.68627" lon="6.6597">
        <ele>1934.8</ele>
        <time>2013-08-27T13:36:58Z</time>
      </trkpt>
      <trkpt lat="45.68614" lon="6.65994">
        <ele>1937.7</ele>
        <time>2013-08-27T13:37:16Z</time>
      </trkpt>
      <trkpt lat="45.68613" lon="6.65996">
        <ele>1938.2</ele>
        <time>2013-08-27T13:37:18Z</time>
      </trkpt>
      <trkpt lat="45.68611" lon="6.65997">
        <ele>1938.2</ele>
        <time>2013-08-27T13:37:36Z</time>
      </trkpt>
      <trkpt lat="45.68609" lon="6.66002">
        <ele>1938.2</ele>
        <time>2013-08-27T13:37:55Z</time>
      </trkpt>
      <trkpt lat="45.68597" lon="6.66022">
        <ele>1941.5</ele>
        <time>2013-08-27T13:38:09Z</time>
      </trkpt>
      <trkpt lat="45.68586" lon="6.66041">
        <ele>1944.4</ele>
        <time>2013-08-27T13:38:23Z</time>
      </trkpt>
      <trkpt lat="45.68578" lon="6.66059">
        <ele>1946.8</ele>
        <time>2013-08-27T13:38:38Z</time>
      </trkpt>
      <trkpt lat="45.68577" lon="6.66061">
        <ele>1947.3</ele>
        <time>2013-08-27T13:38:39Z</time>
      </trkpt>
      <trkpt lat="45.68577" lon="6.66063">
        <ele>1947.8</ele>
        <time>2013-08-27T13:38:40Z</time>
      </trkpt>
      <trkpt lat="45.68573" lon="6.66067">
        <ele>1949.2</ele>
        <time>2013-08-27T13:38:46Z</time>
      </trkpt>
      <trkpt lat="45.68572" lon="6.66068">
        <ele>1948.7</ele>
        <time>2013-08-27T13:38:47Z</time>
      </trkpt>
      <trkpt lat="45.68571" lon="6.66068">
        <ele>1949.2</ele>
        <time>2013-08-27T13:38:48Z</time>
      </trkpt>
      <trkpt lat="45.6857" lon="6.66068">
        <ele>1949.2</ele>
        <time>2013-08-27T13:38:49Z</time>
      </trkpt>
      <trkpt lat="45.68569" lon="6.66068">
        <ele>1949.7</ele>
        <time>2013-08-27T13:38:50Z</time>
      </trkpt>
      <trkpt lat="45.68568" lon="6.66067">
        <ele>1950.2</ele>
        <time>2013-08-27T13:38:51Z</time>
      </trkpt>
      <trkpt lat="45.68567" lon="6.66067">
        <ele>1949.7</ele>
        <time>2013-08-27T13:38:52Z</time>
      </trkpt>
      <trkpt lat="45.68554" lon="6.66045">
        <ele>1952.1</ele>
        <time>2013-08-27T13:39:07Z</time>
      </trkpt>
      <trkpt lat="45.68543" lon="6.66027">
        <ele>1954.5</ele>
        <time>2013-08-27T13:39:20Z</time>
      </trkpt>
      <trkpt lat="45.68527" lon="6.66005">
        <ele>1957.9</ele>
        <time>2013-08-27T13:39:38Z</time>
      </trkpt>
      <trkpt lat="45.68519" lon="6.65997">
        <ele>1960.3</ele>
        <time>2013-08-27T13:39:47Z</time>
      </trkpt>
      <trkpt lat="45.68518" lon="6.65995">
        <ele>1959.8</ele>
        <time>2013-08-27T13:39:48Z</time>
      </trkpt>
      <trkpt lat="45.68511" lon="6.65985">
        <ele>1962.2</ele>
        <time>2013-08-27T13:39:57Z</time>
      </trkpt>
      <trkpt lat="45.6851" lon="6.65985">
        <ele>1961.7</ele>
        <time>2013-08-27T13:39:58Z</time>
      </trkpt>
      <trkpt lat="45.68509" lon="6.65984">
        <ele>1962.7</ele>
        <time>2013-08-27T13:39:59Z</time>
      </trkpt>
      <trkpt lat="45.68507" lon="6.65981">
        <ele>1962.7</ele>
        <time>2013-08-27T13:40:02Z</time>
      </trkpt>
      <trkpt lat="45.68491" lon="6.65971">
        <ele>1966</ele>
        <time>2013-08-27T13:40:17Z</time>
      </trkpt>
      <trkpt lat="45.68485" lon="6.65965">
        <ele>1966.5</ele>
        <time>2013-08-27T13:40:25Z</time>
      </trkpt>
      <trkpt lat="45.68484" lon="6.65965">
        <ele>1967.5</ele>
        <time>2013-08-27T13:40:26Z</time>
      </trkpt>
      <trkpt lat="45.68472" lon="6.65946">
        <ele>1969.4</ele>
        <time>2013-08-27T13:40:41Z</time>
      </trkpt>
      <trkpt lat="45.68474" lon="6.65917">
        <ele>1971.3</ele>
        <time>2013-08-27T13:40:56Z</time>
      </trkpt>
      <trkpt lat="45.68479" lon="6.65891">
        <ele>1974.7</ele>
        <time>2013-08-27T13:41:10Z</time>
      </trkpt>
      <trkpt lat="45.68477" lon="6.65866">
        <ele>1977.6</ele>
        <time>2013-08-27T13:41:24Z</time>
      </trkpt>
      <trkpt lat="45.68459" lon="6.65838">
        <ele>1980.5</ele>
        <time>2013-08-27T13:41:44Z</time>
      </trkpt>
      <trkpt lat="45.68444" lon="6.65825">
        <ele>1984.3</ele>
        <time>2013-08-27T13:41:59Z</time>
      </trkpt>
      <trkpt lat="45.68443" lon="6.65825">
        <ele>1984.3</ele>
        <time>2013-08-27T13:42:00Z</time>
      </trkpt>
      <trkpt lat="45.68426" lon="6.65827">
        <ele>1986.2</ele>
        <time>2013-08-27T13:42:16Z</time>
      </trkpt>
      <trkpt lat="45.6841" lon="6.6583">
        <ele>1989.6</ele>
        <time>2013-08-27T13:42:31Z</time>
      </trkpt>
      <trkpt lat="45.68389" lon="6.65826">
        <ele>1992.5</ele>
        <time>2013-08-27T13:42:48Z</time>
      </trkpt>
      <trkpt lat="45.68375" lon="6.65819">
        <ele>1995.4</ele>
        <time>2013-08-27T13:43:01Z</time>
      </trkpt>
      <trkpt lat="45.68367" lon="6.65803">
        <ele>1995.8</ele>
        <time>2013-08-27T13:43:12Z</time>
      </trkpt>
      <trkpt lat="45.68368" lon="6.65801">
        <ele>1995.4</ele>
        <time>2013-08-27T13:43:13Z</time>
      </trkpt>
      <trkpt lat="45.68372" lon="6.6579">
        <ele>1996.3</ele>
        <time>2013-08-27T13:43:19Z</time>
      </trkpt>
      <trkpt lat="45.68372" lon="6.65788">
        <ele>1997.3</ele>
        <time>2013-08-27T13:43:20Z</time>
      </trkpt>
      <trkpt lat="45.68372" lon="6.65787">
        <ele>1997.3</ele>
        <time>2013-08-27T13:43:21Z</time>
      </trkpt>
      <trkpt lat="45.68372" lon="6.65785">
        <ele>1998.2</ele>
        <time>2013-08-27T13:43:22Z</time>
      </trkpt>
      <trkpt lat="45.68372" lon="6.65783">
        <ele>1997.8</ele>
        <time>2013-08-27T13:43:23Z</time>
      </trkpt>
      <trkpt lat="45.68373" lon="6.65781">
        <ele>1997.8</ele>
        <time>2013-08-27T13:43:24Z</time>
      </trkpt>
      <trkpt lat="45.68372" lon="6.65779">
        <ele>1997.8</ele>
        <time>2013-08-27T13:43:25Z</time>
      </trkpt>
      <trkpt lat="45.68372" lon="6.65777">
        <ele>1998.2</ele>
        <time>2013-08-27T13:43:26Z</time>
      </trkpt>
      <trkpt lat="45.68372" lon="6.65776">
        <ele>1998.7</ele>
        <time>2013-08-27T13:43:27Z</time>
      </trkpt>
      <trkpt lat="45.68372" lon="6.65774">
        <ele>1999.2</ele>
        <time>2013-08-27T13:43:28Z</time>
      </trkpt>
      <trkpt lat="45.68371" lon="6.65773">
        <ele>1998.2</ele>
        <time>2013-08-27T13:43:29Z</time>
      </trkpt>
      <trkpt lat="45.68371" lon="6.65771">
        <ele>1999.2</ele>
        <time>2013-08-27T13:43:30Z</time>
      </trkpt>
      <trkpt lat="45.6837" lon="6.6577">
        <ele>1998.7</ele>
        <time>2013-08-27T13:43:31Z</time>
      </trkpt>
      <trkpt lat="45.6837" lon="6.65768">
        <ele>1999.7</ele>
        <time>2013-08-27T13:43:32Z</time>
      </trkpt>
      <trkpt lat="45.68363" lon="6.65754">
        <ele>2001.6</ele>
        <time>2013-08-27T13:43:43Z</time>
      </trkpt>
      <trkpt lat="45.68366" lon="6.65727">
        <ele>2004.5</ele>
        <time>2013-08-27T13:43:57Z</time>
      </trkpt>
      <trkpt lat="45.68367" lon="6.65724">
        <ele>2005</ele>
        <time>2013-08-27T13:43:59Z</time>
      </trkpt>
      <trkpt lat="45.68368" lon="6.65722">
        <ele>2005.5</ele>
        <time>2013-08-27T13:44:00Z</time>
      </trkpt>
      <trkpt lat="45.68369" lon="6.65721">
        <ele>2005.5</ele>
        <time>2013-08-27T13:44:01Z</time>
      </trkpt>
      <trkpt lat="45.68369" lon="6.6572">
        <ele>2005.9</ele>
        <time>2013-08-27T13:44:02Z</time>
      </trkpt>
      <trkpt lat="45.6837" lon="6.65716">
        <ele>2005.9</ele>
        <time>2013-08-27T13:44:05Z</time>
      </trkpt>
      <trkpt lat="45.6837" lon="6.65715">
        <ele>2006.4</ele>
        <time>2013-08-27T13:44:06Z</time>
      </trkpt>
      <trkpt lat="45.6837" lon="6.65713">
        <ele>2005.9</ele>
        <time>2013-08-27T13:44:07Z</time>
      </trkpt>
      <trkpt lat="45.6837" lon="6.65711">
        <ele>2006.4</ele>
        <time>2013-08-27T13:44:08Z</time>
      </trkpt>
      <trkpt lat="45.6837" lon="6.65709">
        <ele>2006.4</ele>
        <time>2013-08-27T13:44:09Z</time>
      </trkpt>
      <trkpt lat="45.6837" lon="6.65707">
        <ele>2005.9</ele>
        <time>2013-08-27T13:44:10Z</time>
      </trkpt>
      <trkpt lat="45.68371" lon="6.65705">
        <ele>2006.4</ele>
        <time>2013-08-27T13:44:11Z</time>
      </trkpt>
      <trkpt lat="45.68371" lon="6.65703">
        <ele>2006.9</ele>
        <time>2013-08-27T13:44:12Z</time>
      </trkpt>
      <trkpt lat="45.68372" lon="6.65701">
        <ele>2006.9</ele>
        <time>2013-08-27T13:44:13Z</time>
      </trkpt>
      <trkpt lat="45.68372" lon="6.65686">
        <ele>2008.3</ele>
        <time>2013-08-27T13:44:22Z</time>
      </trkpt>
      <trkpt lat="45.68372" lon="6.65684">
        <ele>2008.3</ele>
        <time>2013-08-27T13:44:23Z</time>
      </trkpt>
      <trkpt lat="45.68372" lon="6.65681">
        <ele>2009.3</ele>
        <time>2013-08-27T13:44:25Z</time>
      </trkpt>
      <trkpt lat="45.6837" lon="6.65671">
        <ele>2010.7</ele>
        <time>2013-08-27T13:44:31Z</time>
      </trkpt>
      <trkpt lat="45.6837" lon="6.65669">
        <ele>2010.7</ele>
        <time>2013-08-27T13:44:32Z</time>
      </trkpt>
      <trkpt lat="45.68368" lon="6.65663">
        <ele>2011.2</ele>
        <time>2013-08-27T13:44:35Z</time>
      </trkpt>
      <trkpt lat="45.68368" lon="6.65661">
        <ele>2011.2</ele>
        <time>2013-08-27T13:44:36Z</time>
      </trkpt>
      <trkpt lat="45.68369" lon="6.65659">
        <ele>2011.2</ele>
        <time>2013-08-27T13:44:37Z</time>
      </trkpt>
      <trkpt lat="45.6837" lon="6.65657">
        <ele>2012.2</ele>
        <time>2013-08-27T13:44:38Z</time>
      </trkpt>
      <trkpt lat="45.6837" lon="6.65656">
        <ele>2012.7</ele>
        <time>2013-08-27T13:44:39Z</time>
      </trkpt>
      <trkpt lat="45.68371" lon="6.65654">
        <ele>2012.2</ele>
        <time>2013-08-27T13:44:40Z</time>
      </trkpt>
      <trkpt lat="45.68371" lon="6.6565">
        <ele>2012.2</ele>
        <time>2013-08-27T13:44:43Z</time>
      </trkpt>
      <trkpt lat="45.6837" lon="6.65648">
        <ele>2012.7</ele>
        <time>2013-08-27T13:44:44Z</time>
      </trkpt>
      <trkpt lat="45.68369" lon="6.65647">
        <ele>2012.7</ele>
        <time>2013-08-27T13:44:45Z</time>
      </trkpt>
      <trkpt lat="45.68369" lon="6.65634">
        <ele>2014.6</ele>
        <time>2013-08-27T13:44:53Z</time>
      </trkpt>
      <trkpt lat="45.68376" lon="6.65608">
        <ele>2016.5</ele>
        <time>2013-08-27T13:45:09Z</time>
      </trkpt>
      <trkpt lat="45.68382" lon="6.65596">
        <ele>2018.9</ele>
        <time>2013-08-27T13:45:18Z</time>
      </trkpt>
      <trkpt lat="45.68382" lon="6.65594">
        <ele>2018.4</ele>
        <time>2013-08-27T13:45:19Z</time>
      </trkpt>
      <trkpt lat="45.68383" lon="6.65592">
        <ele>2019.4</ele>
        <time>2013-08-27T13:45:20Z</time>
      </trkpt>
      <trkpt lat="45.68383" lon="6.65591">
        <ele>2018.9</ele>
        <time>2013-08-27T13:45:21Z</time>
      </trkpt>
      <trkpt lat="45.68384" lon="6.6559">
        <ele>2018.9</ele>
        <time>2013-08-27T13:45:22Z</time>
      </trkpt>
      <trkpt lat="45.68392" lon="6.65579">
        <ele>2021.3</ele>
        <time>2013-08-27T13:45:31Z</time>
      </trkpt>
      <trkpt lat="45.684" lon="6.6557">
        <ele>2022.3</ele>
        <time>2013-08-27T13:45:40Z</time>
      </trkpt>
      <trkpt lat="45.68401" lon="6.65568">
        <ele>2022.8</ele>
        <time>2013-08-27T13:45:41Z</time>
      </trkpt>
      <trkpt lat="45.68401" lon="6.65534">
        <ele>2024.2</ele>
        <time>2013-08-27T13:45:58Z</time>
      </trkpt>
      <trkpt lat="45.68406" lon="6.65517">
        <ele>2027.6</ele>
        <time>2013-08-27T13:46:09Z</time>
      </trkpt>
      <trkpt lat="45.68408" lon="6.6551">
        <ele>2027.6</ele>
        <time>2013-08-27T13:46:14Z</time>
      </trkpt>
      <trkpt lat="45.68408" lon="6.65508">
        <ele>2028</ele>
        <time>2013-08-27T13:46:15Z</time>
      </trkpt>
      <trkpt lat="45.68409" lon="6.65506">
        <ele>2028.5</ele>
        <time>2013-08-27T13:46:16Z</time>
      </trkpt>
      <trkpt lat="45.68409" lon="6.65505">
        <ele>2027.6</ele>
        <time>2013-08-27T13:46:17Z</time>
      </trkpt>
      <trkpt lat="45.68409" lon="6.65503">
        <ele>2028</ele>
        <time>2013-08-27T13:46:18Z</time>
      </trkpt>
      <trkpt lat="45.68409" lon="6.65502">
        <ele>2029.5</ele>
        <time>2013-08-27T13:46:19Z</time>
      </trkpt>
      <trkpt lat="45.68419" lon="6.65474">
        <ele>2030.4</ele>
        <time>2013-08-27T13:46:35Z</time>
      </trkpt>
      <trkpt lat="45.68425" lon="6.65455">
        <ele>2030</ele>
        <time>2013-08-27T13:46:43Z</time>
      </trkpt>
      <trkpt lat="45.68427" lon="6.65454">
        <ele>2030.9</ele>
        <time>2013-08-27T13:46:44Z</time>
      </trkpt>
      <trkpt lat="45.68437" lon="6.65448">
        <ele>2031.9</ele>
        <time>2013-08-27T13:46:51Z</time>
      </trkpt>
      <trkpt lat="45.68438" lon="6.65447">
        <ele>2032.4</ele>
        <time>2013-08-27T13:46:52Z</time>
      </trkpt>
      <trkpt lat="45.68439" lon="6.65447">
        <ele>2032.4</ele>
        <time>2013-08-27T13:46:53Z</time>
      </trkpt>
      <trkpt lat="45.68441" lon="6.65446">
        <ele>2032.8</ele>
        <time>2013-08-27T13:46:54Z</time>
      </trkpt>
      <trkpt lat="45.68442" lon="6.65446">
        <ele>2033.3</ele>
        <time>2013-08-27T13:46:55Z</time>
      </trkpt>
      <trkpt lat="45.68464" lon="6.65446">
        <ele>2035.3</ele>
        <time>2013-08-27T13:47:12Z</time>
      </trkpt>
      <trkpt lat="45.68477" lon="6.65446">
        <ele>2037.7</ele>
        <time>2013-08-27T13:47:22Z</time>
      </trkpt>
      <trkpt lat="45.68478" lon="6.65444">
        <ele>2037.2</ele>
        <time>2013-08-27T13:47:23Z</time>
      </trkpt>
      <trkpt lat="45.68479" lon="6.65442">
        <ele>2037.7</ele>
        <time>2013-08-27T13:47:24Z</time>
      </trkpt>
      <trkpt lat="45.68479" lon="6.6544">
        <ele>2038.1</ele>
        <time>2013-08-27T13:47:25Z</time>
      </trkpt>
      <trkpt lat="45.68478" lon="6.65438">
        <ele>2037.7</ele>
        <time>2013-08-27T13:47:26Z</time>
      </trkpt>
      <trkpt lat="45.68478" lon="6.65436">
        <ele>2038.6</ele>
        <time>2013-08-27T13:47:27Z</time>
      </trkpt>
      <trkpt lat="45.68477" lon="6.65435">
        <ele>2038.1</ele>
        <time>2013-08-27T13:47:28Z</time>
      </trkpt>
      <trkpt lat="45.68476" lon="6.65434">
        <ele>2038.6</ele>
        <time>2013-08-27T13:47:29Z</time>
      </trkpt>
      <trkpt lat="45.68475" lon="6.65433">
        <ele>2038.6</ele>
        <time>2013-08-27T13:47:30Z</time>
      </trkpt>
      <trkpt lat="45.68473" lon="6.65432">
        <ele>2038.1</ele>
        <time>2013-08-27T13:47:31Z</time>
      </trkpt>
      <trkpt lat="45.68472" lon="6.65432">
        <ele>2038.6</ele>
        <time>2013-08-27T13:47:32Z</time>
      </trkpt>
      <trkpt lat="45.68471" lon="6.65431">
        <ele>2039.1</ele>
        <time>2013-08-27T13:47:33Z</time>
      </trkpt>
      <trkpt lat="45.6847" lon="6.6543">
        <ele>2039.1</ele>
        <time>2013-08-27T13:47:34Z</time>
      </trkpt>
      <trkpt lat="45.68468" lon="6.65429">
        <ele>2039.6</ele>
        <time>2013-08-27T13:47:35Z</time>
      </trkpt>
      <trkpt lat="45.68452" lon="6.65412">
        <ele>2042</ele>
        <time>2013-08-27T13:47:51Z</time>
      </trkpt>
      <trkpt lat="45.68439" lon="6.65389">
        <ele>2044.9</ele>
        <time>2013-08-27T13:48:10Z</time>
      </trkpt>
      <trkpt lat="45.68435" lon="6.65372">
        <ele>2047.3</ele>
        <time>2013-08-27T13:48:20Z</time>
      </trkpt>
      <trkpt lat="45.68435" lon="6.6537">
        <ele>2047.3</ele>
        <time>2013-08-27T13:48:21Z</time>
      </trkpt>
      <trkpt lat="45.68431" lon="6.65342">
        <ele>2048.7</ele>
        <time>2013-08-27T13:48:37Z</time>
      </trkpt>
      <trkpt lat="45.68431" lon="6.65341">
        <ele>2049.2</ele>
        <time>2013-08-27T13:48:38Z</time>
      </trkpt>
      <trkpt lat="45.6843" lon="6.65339">
        <ele>2050.6</ele>
        <time>2013-08-27T13:48:39Z</time>
      </trkpt>
      <trkpt lat="45.6843" lon="6.65337">
        <ele>2049.7</ele>
        <time>2013-08-27T13:48:40Z</time>
      </trkpt>
      <trkpt lat="45.6843" lon="6.65336">
        <ele>2049.7</ele>
        <time>2013-08-27T13:48:41Z</time>
      </trkpt>
      <trkpt lat="45.6843" lon="6.65334">
        <ele>2050.6</ele>
        <time>2013-08-27T13:48:42Z</time>
      </trkpt>
      <trkpt lat="45.68422" lon="6.6531">
        <ele>2053</ele>
        <time>2013-08-27T13:48:58Z</time>
      </trkpt>
      <trkpt lat="45.68408" lon="6.6527">
        <ele>2055.4</ele>
        <time>2013-08-27T13:49:19Z</time>
      </trkpt>
      <trkpt lat="45.68395" lon="6.65241">
        <ele>2057.4</ele>
        <time>2013-08-27T13:49:35Z</time>
      </trkpt>
      <trkpt lat="45.68393" lon="6.65241">
        <ele>2057.4</ele>
        <time>2013-08-27T13:49:36Z</time>
      </trkpt>
      <trkpt lat="45.68392" lon="6.65242">
        <ele>2057.4</ele>
        <time>2013-08-27T13:49:37Z</time>
      </trkpt>
      <trkpt lat="45.68391" lon="6.65243">
        <ele>2057.8</ele>
        <time>2013-08-27T13:49:38Z</time>
      </trkpt>
      <trkpt lat="45.6839" lon="6.65245">
        <ele>2058.3</ele>
        <time>2013-08-27T13:49:39Z</time>
      </trkpt>
      <trkpt lat="45.6837" lon="6.65257">
        <ele>2061.2</ele>
        <time>2013-08-27T13:49:57Z</time>
      </trkpt>
      <trkpt lat="45.68367" lon="6.65258">
        <ele>2061.2</ele>
        <time>2013-08-27T13:50:00Z</time>
      </trkpt>
      <trkpt lat="45.68366" lon="6.65257">
        <ele>2061.7</ele>
        <time>2013-08-27T13:50:01Z</time>
      </trkpt>
      <trkpt lat="45.68345" lon="6.65238">
        <ele>2064.1</ele>
        <time>2013-08-27T13:50:19Z</time>
      </trkpt>
      <trkpt lat="45.68331" lon="6.65224">
        <ele>2067.5</ele>
        <time>2013-08-27T13:50:32Z</time>
      </trkpt>
      <trkpt lat="45.68318" lon="6.65199">
        <ele>2070.8</ele>
        <time>2013-08-27T13:50:49Z</time>
      </trkpt>
      <trkpt lat="45.68314" lon="6.65192">
        <ele>2069.9</ele>
        <time>2013-08-27T13:51:02Z</time>
      </trkpt>
      <trkpt lat="45.68314" lon="6.65192">
        <ele>2069.9</ele>
        <time>2013-08-27T13:51:42Z</time>
      </trkpt>
      <trkpt lat="45.68314" lon="6.65191">
        <ele>2070.3</ele>
        <time>2013-08-27T13:52:24Z</time>
      </trkpt>
      <trkpt lat="45.68315" lon="6.65192">
        <ele>2069.9</ele>
        <time>2013-08-27T13:53:00Z</time>
      </trkpt>
      <trkpt lat="45.68314" lon="6.65192">
        <ele>2070.3</ele>
        <time>2013-08-27T13:53:37Z</time>
      </trkpt>
      <trkpt lat="45.68313" lon="6.65192">
        <ele>2070.3</ele>
        <time>2013-08-27T13:53:42Z</time>
      </trkpt>
      <trkpt lat="45.68312" lon="6.65191">
        <ele>2070.3</ele>
        <time>2013-08-27T13:53:43Z</time>
      </trkpt>
      <trkpt lat="45.6831" lon="6.6519">
        <ele>2069.9</ele>
        <time>2013-08-27T13:53:44Z</time>
      </trkpt>
      <trkpt lat="45.68295" lon="6.65181">
        <ele>2067.5</ele>
        <time>2013-08-27T13:53:48Z</time>
      </trkpt>
      <trkpt lat="45.68289" lon="6.65181">
        <ele>2066.5</ele>
        <time>2013-08-27T13:53:49Z</time>
      </trkpt>
      <trkpt lat="45.68283" lon="6.65183">
        <ele>2066</ele>
        <time>2013-08-27T13:53:50Z</time>
      </trkpt>
      <trkpt lat="45.68276" lon="6.65186">
        <ele>2064.1</ele>
        <time>2013-08-27T13:53:51Z</time>
      </trkpt>
      <trkpt lat="45.68271" lon="6.65192">
        <ele>2063.6</ele>
        <time>2013-08-27T13:53:52Z</time>
      </trkpt>
      <trkpt lat="45.68265" lon="6.65196">
        <ele>2063.6</ele>
        <time>2013-08-27T13:53:53Z</time>
      </trkpt>
      <trkpt lat="45.68261" lon="6.65199">
        <ele>2063.6</ele>
        <time>2013-08-27T13:53:54Z</time>
      </trkpt>
      <trkpt lat="45.68256" lon="6.65198">
        <ele>2064.1</ele>
        <time>2013-08-27T13:53:55Z</time>
      </trkpt>
      <trkpt lat="45.68252" lon="6.65196">
        <ele>2064.1</ele>
        <time>2013-08-27T13:53:56Z</time>
      </trkpt>
      <trkpt lat="45.68249" lon="6.65194">
        <ele>2063.1</ele>
        <time>2013-08-27T13:53:57Z</time>
      </trkpt>
      <trkpt lat="45.68245" lon="6.65192">
        <ele>2063.6</ele>
        <time>2013-08-27T13:53:58Z</time>
      </trkpt>
      <trkpt lat="45.68243" lon="6.65192">
        <ele>2063.6</ele>
        <time>2013-08-27T13:53:59Z</time>
      </trkpt>
      <trkpt lat="45.6824" lon="6.65191">
        <ele>2064.6</ele>
        <time>2013-08-27T13:54:00Z</time>
      </trkpt>
      <trkpt lat="45.68238" lon="6.65191">
        <ele>2064.6</ele>
        <time>2013-08-27T13:54:01Z</time>
      </trkpt>
      <trkpt lat="45.68228" lon="6.65193">
        <ele>2064.6</ele>
        <time>2013-08-27T13:54:12Z</time>
      </trkpt>
      <trkpt lat="45.6821" lon="6.65194">
        <ele>2065.1</ele>
        <time>2013-08-27T13:54:23Z</time>
      </trkpt>
      <trkpt lat="45.68187" lon="6.65192">
        <ele>2065.5</ele>
        <time>2013-08-27T13:54:34Z</time>
      </trkpt>
      <trkpt lat="45.68171" lon="6.65198">
        <ele>2064.6</ele>
        <time>2013-08-27T13:54:47Z</time>
      </trkpt>
      <trkpt lat="45.68164" lon="6.65194">
        <ele>2064.1</ele>
        <time>2013-08-27T13:54:59Z</time>
      </trkpt>
      <trkpt lat="45.68164" lon="6.65193">
        <ele>2063.6</ele>
        <time>2013-08-27T13:55:00Z</time>
      </trkpt>
      <trkpt lat="45.68163" lon="6.65192">
        <ele>2063.1</ele>
        <time>2013-08-27T13:55:01Z</time>
      </trkpt>
      <trkpt lat="45.68156" lon="6.65189">
        <ele>2064.1</ele>
        <time>2013-08-27T13:55:11Z</time>
      </trkpt>
      <trkpt lat="45.68155" lon="6.65189">
        <ele>2064.6</ele>
        <time>2013-08-27T13:55:12Z</time>
      </trkpt>
      <trkpt lat="45.68148" lon="6.65183">
        <ele>2065.1</ele>
        <time>2013-08-27T13:55:17Z</time>
      </trkpt>
      <trkpt lat="45.68147" lon="6.65181">
        <ele>2065.1</ele>
        <time>2013-08-27T13:55:18Z</time>
      </trkpt>
      <trkpt lat="45.68145" lon="6.65179">
        <ele>2066</ele>
        <time>2013-08-27T13:55:19Z</time>
      </trkpt>
      <trkpt lat="45.68143" lon="6.65178">
        <ele>2065.5</ele>
        <time>2013-08-27T13:55:20Z</time>
      </trkpt>
      <trkpt lat="45.68142" lon="6.65177">
        <ele>2065.5</ele>
        <time>2013-08-27T13:55:21Z</time>
      </trkpt>
      <trkpt lat="45.6814" lon="6.65176">
        <ele>2065.1</ele>
        <time>2013-08-27T13:55:22Z</time>
      </trkpt>
      <trkpt lat="45.68136" lon="6.65175">
        <ele>2065.1</ele>
        <time>2013-08-27T13:55:23Z</time>
      </trkpt>
      <trkpt lat="45.68125" lon="6.6517">
        <ele>2065.5</ele>
        <time>2013-08-27T13:55:28Z</time>
      </trkpt>
      <trkpt lat="45.68123" lon="6.65171">
        <ele>2065.1</ele>
        <time>2013-08-27T13:55:29Z</time>
      </trkpt>
      <trkpt lat="45.68122" lon="6.65172">
        <ele>2065.5</ele>
        <time>2013-08-27T13:55:30Z</time>
      </trkpt>
      <trkpt lat="45.6812" lon="6.65173">
        <ele>2066.5</ele>
        <time>2013-08-27T13:55:32Z</time>
      </trkpt>
      <trkpt lat="45.68117" lon="6.65173">
        <ele>2067</ele>
        <time>2013-08-27T13:55:45Z</time>
      </trkpt>
      <trkpt lat="45.68098" lon="6.65171">
        <ele>2067.5</ele>
        <time>2013-08-27T13:56:04Z</time>
      </trkpt>
      <trkpt lat="45.68085" lon="6.65167">
        <ele>2067.9</ele>
        <time>2013-08-27T13:56:17Z</time>
      </trkpt>
      <trkpt lat="45.68085" lon="6.65166">
        <ele>2068.4</ele>
        <time>2013-08-27T13:56:18Z</time>
      </trkpt>
      <trkpt lat="45.68084" lon="6.65164">
        <ele>2067.9</ele>
        <time>2013-08-27T13:56:19Z</time>
      </trkpt>
      <trkpt lat="45.68083" lon="6.65162">
        <ele>2067.9</ele>
        <time>2013-08-27T13:56:20Z</time>
      </trkpt>
      <trkpt lat="45.68083" lon="6.6516">
        <ele>2067.5</ele>
        <time>2013-08-27T13:56:21Z</time>
      </trkpt>
      <trkpt lat="45.68074" lon="6.65142">
        <ele>2066</ele>
        <time>2013-08-27T13:56:36Z</time>
      </trkpt>
      <trkpt lat="45.68067" lon="6.65128">
        <ele>2065.5</ele>
        <time>2013-08-27T13:56:45Z</time>
      </trkpt>
      <trkpt lat="45.68046" lon="6.65116">
        <ele>2066.5</ele>
        <time>2013-08-27T13:56:56Z</time>
      </trkpt>
      <trkpt lat="45.68028" lon="6.65104">
        <ele>2067</ele>
        <time>2013-08-27T13:57:09Z</time>
      </trkpt>
      <trkpt lat="45.68028" lon="6.651">
        <ele>2065.1</ele>
        <time>2013-08-27T13:57:20Z</time>
      </trkpt>
      <trkpt lat="45.68028" lon="6.65097">
        <ele>2065.5</ele>
        <time>2013-08-27T13:57:21Z</time>
      </trkpt>
      <trkpt lat="45.68029" lon="6.65093">
        <ele>2065.5</ele>
        <time>2013-08-27T13:57:22Z</time>
      </trkpt>
      <trkpt lat="45.68028" lon="6.65088">
        <ele>2064.6</ele>
        <time>2013-08-27T13:57:23Z</time>
      </trkpt>
      <trkpt lat="45.68027" lon="6.65084">
        <ele>2064.1</ele>
        <time>2013-08-27T13:57:24Z</time>
      </trkpt>
      <trkpt lat="45.68026" lon="6.65079">
        <ele>2064.1</ele>
        <time>2013-08-27T13:57:25Z</time>
      </trkpt>
      <trkpt lat="45.68024" lon="6.65075">
        <ele>2062.7</ele>
        <time>2013-08-27T13:57:26Z</time>
      </trkpt>
      <trkpt lat="45.68025" lon="6.65071">
        <ele>2061.2</ele>
        <time>2013-08-27T13:57:27Z</time>
      </trkpt>
      <trkpt lat="45.68026" lon="6.65067">
        <ele>2061.2</ele>
        <time>2013-08-27T13:57:28Z</time>
      </trkpt>
      <trkpt lat="45.68028" lon="6.65063">
        <ele>2060.7</ele>
        <time>2013-08-27T13:57:29Z</time>
      </trkpt>
      <trkpt lat="45.68031" lon="6.65058">
        <ele>2060.2</ele>
        <time>2013-08-27T13:57:30Z</time>
      </trkpt>
      <trkpt lat="45.68033" lon="6.65054">
        <ele>2060.2</ele>
        <time>2013-08-27T13:57:31Z</time>
      </trkpt>
      <trkpt lat="45.68034" lon="6.65049">
        <ele>2060.2</ele>
        <time>2013-08-27T13:57:32Z</time>
      </trkpt>
      <trkpt lat="45.68034" lon="6.65043">
        <ele>2058.3</ele>
        <time>2013-08-27T13:57:33Z</time>
      </trkpt>
      <trkpt lat="45.68033" lon="6.65038">
        <ele>2058.8</ele>
        <time>2013-08-27T13:57:34Z</time>
      </trkpt>
      <trkpt lat="45.68031" lon="6.65032">
        <ele>2056.9</ele>
        <time>2013-08-27T13:57:35Z</time>
      </trkpt>
      <trkpt lat="45.68029" lon="6.65027">
        <ele>2056.4</ele>
        <time>2013-08-27T13:57:36Z</time>
      </trkpt>
      <trkpt lat="45.68026" lon="6.65015">
        <ele>2055.4</ele>
        <time>2013-08-27T13:57:38Z</time>
      </trkpt>
      <trkpt lat="45.68022" lon="6.6499">
        <ele>2053</ele>
        <time>2013-08-27T13:57:43Z</time>
      </trkpt>
      <trkpt lat="45.68021" lon="6.64982">
        <ele>2050.6</ele>
        <time>2013-08-27T13:57:46Z</time>
      </trkpt>
      <trkpt lat="45.68022" lon="6.64981">
        <ele>2050.6</ele>
        <time>2013-08-27T13:57:53Z</time>
      </trkpt>
      <trkpt lat="45.68018" lon="6.64973">
        <ele>2048.2</ele>
        <time>2013-08-27T13:58:05Z</time>
      </trkpt>
      <trkpt lat="45.68017" lon="6.64973">
        <ele>2047.8</ele>
        <time>2013-08-27T13:58:09Z</time>
      </trkpt>
      <trkpt lat="45.68016" lon="6.6497">
        <ele>2048.7</ele>
        <time>2013-08-27T13:58:10Z</time>
      </trkpt>
      <trkpt lat="45.6801" lon="6.64958">
        <ele>2045.8</ele>
        <time>2013-08-27T13:58:14Z</time>
      </trkpt>
      <trkpt lat="45.6801" lon="6.6495">
        <ele>2042.5</ele>
        <time>2013-08-27T13:58:18Z</time>
      </trkpt>
      <trkpt lat="45.68011" lon="6.64948">
        <ele>2041</ele>
        <time>2013-08-27T13:58:31Z</time>
      </trkpt>
      <trkpt lat="45.6801" lon="6.64947">
        <ele>2040.5</ele>
        <time>2013-08-27T13:58:35Z</time>
      </trkpt>
      <trkpt lat="45.6801" lon="6.64944">
        <ele>2040.5</ele>
        <time>2013-08-27T13:58:36Z</time>
      </trkpt>
      <trkpt lat="45.68009" lon="6.64941">
        <ele>2040.1</ele>
        <time>2013-08-27T13:58:37Z</time>
      </trkpt>
      <trkpt lat="45.68008" lon="6.64938">
        <ele>2040.1</ele>
        <time>2013-08-27T13:58:38Z</time>
      </trkpt>
      <trkpt lat="45.68006" lon="6.64935">
        <ele>2039.6</ele>
        <time>2013-08-27T13:58:39Z</time>
      </trkpt>
      <trkpt lat="45.68004" lon="6.64934">
        <ele>2038.6</ele>
        <time>2013-08-27T13:58:40Z</time>
      </trkpt>
      <trkpt lat="45.68001" lon="6.64933">
        <ele>2039.1</ele>
        <time>2013-08-27T13:58:41Z</time>
      </trkpt>
      <trkpt lat="45.67999" lon="6.64933">
        <ele>2037.7</ele>
        <time>2013-08-27T13:58:42Z</time>
      </trkpt>
      <trkpt lat="45.67998" lon="6.64933">
        <ele>2037.7</ele>
        <time>2013-08-27T13:58:43Z</time>
      </trkpt>
      <trkpt lat="45.67991" lon="6.64928">
        <ele>2034.8</ele>
        <time>2013-08-27T13:58:54Z</time>
      </trkpt>
      <trkpt lat="45.67988" lon="6.64913">
        <ele>2032.8</ele>
        <time>2013-08-27T13:58:58Z</time>
      </trkpt>
      <trkpt lat="45.67986" lon="6.64906">
        <ele>2030.4</ele>
        <time>2013-08-27T13:59:02Z</time>
      </trkpt>
      <trkpt lat="45.67985" lon="6.649">
        <ele>2031.4</ele>
        <time>2013-08-27T13:59:04Z</time>
      </trkpt>
      <trkpt lat="45.67983" lon="6.64898">
        <ele>2031.4</ele>
        <time>2013-08-27T13:59:05Z</time>
      </trkpt>
      <trkpt lat="45.67973" lon="6.64884">
        <ele>2029</ele>
        <time>2013-08-27T13:59:14Z</time>
      </trkpt>
      <trkpt lat="45.67968" lon="6.64865">
        <ele>2025.2</ele>
        <time>2013-08-27T13:59:23Z</time>
      </trkpt>
      <trkpt lat="45.67968" lon="6.64863">
        <ele>2024.7</ele>
        <time>2013-08-27T13:59:24Z</time>
      </trkpt>
      <trkpt lat="45.67967" lon="6.6486">
        <ele>2024.7</ele>
        <time>2013-08-27T13:59:25Z</time>
      </trkpt>
      <trkpt lat="45.67965" lon="6.64857">
        <ele>2023.7</ele>
        <time>2013-08-27T13:59:26Z</time>
      </trkpt>
      <trkpt lat="45.67963" lon="6.64853">
        <ele>2023.7</ele>
        <time>2013-08-27T13:59:27Z</time>
      </trkpt>
      <trkpt lat="45.67961" lon="6.64846">
        <ele>2022.8</ele>
        <time>2013-08-27T13:59:29Z</time>
      </trkpt>
      <trkpt lat="45.67958" lon="6.64821">
        <ele>2019.9</ele>
        <time>2013-08-27T13:59:35Z</time>
      </trkpt>
      <trkpt lat="45.67953" lon="6.64812">
        <ele>2017.9</ele>
        <time>2013-08-27T13:59:38Z</time>
      </trkpt>
      <trkpt lat="45.67953" lon="6.64809">
        <ele>2017</ele>
        <time>2013-08-27T13:59:39Z</time>
      </trkpt>
      <trkpt lat="45.67954" lon="6.64805">
        <ele>2016.5</ele>
        <time>2013-08-27T13:59:40Z</time>
      </trkpt>
      <trkpt lat="45.67955" lon="6.64803">
        <ele>2016.5</ele>
        <time>2013-08-27T13:59:41Z</time>
      </trkpt>
      <trkpt lat="45.67958" lon="6.64787">
        <ele>2013.1</ele>
        <time>2013-08-27T13:59:46Z</time>
      </trkpt>
      <trkpt lat="45.67966" lon="6.64773">
        <ele>2011.7</ele>
        <time>2013-08-27T13:59:51Z</time>
      </trkpt>
      <trkpt lat="45.67968" lon="6.64768">
        <ele>2010.3</ele>
        <time>2013-08-27T13:59:52Z</time>
      </trkpt>
      <trkpt lat="45.67982" lon="6.64755">
        <ele>2009.3</ele>
        <time>2013-08-27T13:59:57Z</time>
      </trkpt>
      <trkpt lat="45.67985" lon="6.64754">
        <ele>2007.9</ele>
        <time>2013-08-27T13:59:59Z</time>
      </trkpt>
      <trkpt lat="45.67987" lon="6.64755">
        <ele>2007.4</ele>
        <time>2013-08-27T14:00:00Z</time>
      </trkpt>
      <trkpt lat="45.67987" lon="6.64758">
        <ele>2005.9</ele>
        <time>2013-08-27T14:00:01Z</time>
      </trkpt>
      <trkpt lat="45.67988" lon="6.64759">
        <ele>2005</ele>
        <time>2013-08-27T14:00:03Z</time>
      </trkpt>
      <trkpt lat="45.67987" lon="6.64757">
        <ele>2005</ele>
        <time>2013-08-27T14:00:04Z</time>
      </trkpt>
      <trkpt lat="45.67975" lon="6.64729">
        <ele>2002.6</ele>
        <time>2013-08-27T14:00:12Z</time>
      </trkpt>
      <trkpt lat="45.67967" lon="6.64726">
        <ele>2000.6</ele>
        <time>2013-08-27T14:00:14Z</time>
      </trkpt>
      <trkpt lat="45.67966" lon="6.64731">
        <ele>1999.2</ele>
        <time>2013-08-27T14:00:17Z</time>
      </trkpt>
      <trkpt lat="45.67965" lon="6.64729">
        <ele>1999.2</ele>
        <time>2013-08-27T14:00:18Z</time>
      </trkpt>
      <trkpt lat="45.6796" lon="6.64722">
        <ele>1998.2</ele>
        <time>2013-08-27T14:00:22Z</time>
      </trkpt>
      <trkpt lat="45.67956" lon="6.64707">
        <ele>1997.8</ele>
        <time>2013-08-27T14:00:26Z</time>
      </trkpt>
      <trkpt lat="45.67955" lon="6.64703">
        <ele>1997.8</ele>
        <time>2013-08-27T14:00:31Z</time>
      </trkpt>
      <trkpt lat="45.67967" lon="6.64706">
        <ele>1997.8</ele>
        <time>2013-08-27T14:00:38Z</time>
      </trkpt>
      <trkpt lat="45.67982" lon="6.64708">
        <ele>1999.7</ele>
        <time>2013-08-27T14:00:49Z</time>
      </trkpt>
      <trkpt lat="45.67989" lon="6.64707">
        <ele>2001.1</ele>
        <time>2013-08-27T14:01:01Z</time>
      </trkpt>
      <trkpt lat="45.67985" lon="6.64706">
        <ele>2002.1</ele>
        <time>2013-08-27T14:01:08Z</time>
      </trkpt>
      <trkpt lat="45.67984" lon="6.64706">
        <ele>2002.1</ele>
        <time>2013-08-27T14:01:09Z</time>
      </trkpt>
      <trkpt lat="45.67978" lon="6.64697">
        <ele>2003</ele>
        <time>2013-08-27T14:01:22Z</time>
      </trkpt>
      <trkpt lat="45.67967" lon="6.64689">
        <ele>2005</ele>
        <time>2013-08-27T14:01:41Z</time>
      </trkpt>
      <trkpt lat="45.67965" lon="6.64688">
        <ele>2006.4</ele>
        <time>2013-08-27T14:01:44Z</time>
      </trkpt>
      <trkpt lat="45.67953" lon="6.64681">
        <ele>2010.3</ele>
        <time>2013-08-27T14:02:02Z</time>
      </trkpt>
      <trkpt lat="45.6794" lon="6.64669">
        <ele>2013.1</ele>
        <time>2013-08-27T14:02:22Z</time>
      </trkpt>
      <trkpt lat="45.67931" lon="6.64665">
        <ele>2015.1</ele>
        <time>2013-08-27T14:02:36Z</time>
      </trkpt>
      <trkpt lat="45.6793" lon="6.64665">
        <ele>2015.5</ele>
        <time>2013-08-27T14:02:37Z</time>
      </trkpt>
      <trkpt lat="45.6792" lon="6.6467">
        <ele>2017.5</ele>
        <time>2013-08-27T14:02:51Z</time>
      </trkpt>
      <trkpt lat="45.67917" lon="6.64675">
        <ele>2017</ele>
        <time>2013-08-27T14:03:01Z</time>
      </trkpt>
      <trkpt lat="45.67916" lon="6.64675">
        <ele>2016.5</ele>
        <time>2013-08-27T14:03:02Z</time>
      </trkpt>
      <trkpt lat="45.67914" lon="6.64675">
        <ele>2016.5</ele>
        <time>2013-08-27T14:03:03Z</time>
      </trkpt>
      <trkpt lat="45.67913" lon="6.64676">
        <ele>2017</ele>
        <time>2013-08-27T14:03:04Z</time>
      </trkpt>
      <trkpt lat="45.67911" lon="6.64677">
        <ele>2017</ele>
        <time>2013-08-27T14:03:05Z</time>
      </trkpt>
      <trkpt lat="45.67906" lon="6.6468">
        <ele>2015.5</ele>
        <time>2013-08-27T14:03:08Z</time>
      </trkpt>
      <trkpt lat="45.67904" lon="6.64679">
        <ele>2016</ele>
        <time>2013-08-27T14:03:09Z</time>
      </trkpt>
      <trkpt lat="45.67897" lon="6.64674">
        <ele>2014.6</ele>
        <time>2013-08-27T14:03:12Z</time>
      </trkpt>
      <trkpt lat="45.67895" lon="6.64667">
        <ele>2016</ele>
        <time>2013-08-27T14:03:19Z</time>
      </trkpt>
      <trkpt lat="45.67892" lon="6.64659">
        <ele>2017.5</ele>
        <time>2013-08-27T14:03:30Z</time>
      </trkpt>
      <trkpt lat="45.67883" lon="6.64659">
        <ele>2017.9</ele>
        <time>2013-08-27T14:03:42Z</time>
      </trkpt>
      <trkpt lat="45.67866" lon="6.64637">
        <ele>2020.4</ele>
        <time>2013-08-27T14:03:57Z</time>
      </trkpt>
      <trkpt lat="45.67852" lon="6.64617">
        <ele>2022.3</ele>
        <time>2013-08-27T14:04:11Z</time>
      </trkpt>
      <trkpt lat="45.67852" lon="6.64616">
        <ele>2022.3</ele>
        <time>2013-08-27T14:04:12Z</time>
      </trkpt>
      <trkpt lat="45.67849" lon="6.64612">
        <ele>2021.8</ele>
        <time>2013-08-27T14:04:15Z</time>
      </trkpt>
      <trkpt lat="45.67849" lon="6.64611">
        <ele>2022.3</ele>
        <time>2013-08-27T14:04:16Z</time>
      </trkpt>
      <trkpt lat="45.67848" lon="6.6461">
        <ele>2022.3</ele>
        <time>2013-08-27T14:04:17Z</time>
      </trkpt>
      <trkpt lat="45.67847" lon="6.64609">
        <ele>2023.2</ele>
        <time>2013-08-27T14:04:18Z</time>
      </trkpt>
      <trkpt lat="45.67846" lon="6.64607">
        <ele>2023.2</ele>
        <time>2013-08-27T14:04:19Z</time>
      </trkpt>
      <trkpt lat="45.67846" lon="6.64605">
        <ele>2023.7</ele>
        <time>2013-08-27T14:04:20Z</time>
      </trkpt>
      <trkpt lat="45.67846" lon="6.64603">
        <ele>2023.2</ele>
        <time>2013-08-27T14:04:21Z</time>
      </trkpt>
      <trkpt lat="45.67846" lon="6.64601">
        <ele>2024.2</ele>
        <time>2013-08-27T14:04:22Z</time>
      </trkpt>
      <trkpt lat="45.67847" lon="6.646">
        <ele>2024.7</ele>
        <time>2013-08-27T14:04:23Z</time>
      </trkpt>
      <trkpt lat="45.67847" lon="6.64588">
        <ele>2025.2</ele>
        <time>2013-08-27T14:04:32Z</time>
      </trkpt>
      <trkpt lat="45.67845" lon="6.64586">
        <ele>2026.1</ele>
        <time>2013-08-27T14:04:34Z</time>
      </trkpt>
      <trkpt lat="45.67841" lon="6.64578">
        <ele>2027.1</ele>
        <time>2013-08-27T14:04:42Z</time>
      </trkpt>
      <trkpt lat="45.67831" lon="6.64566">
        <ele>2029.5</ele>
        <time>2013-08-27T14:04:53Z</time>
      </trkpt>
      <trkpt lat="45.67815" lon="6.64548">
        <ele>2030.9</ele>
        <time>2013-08-27T14:05:08Z</time>
      </trkpt>
      <trkpt lat="45.6781" lon="6.64535">
        <ele>2031.9</ele>
        <time>2013-08-27T14:05:22Z</time>
      </trkpt>
      <trkpt lat="45.67809" lon="6.64534">
        <ele>2032.4</ele>
        <time>2013-08-27T14:05:24Z</time>
      </trkpt>
      <trkpt lat="45.6781" lon="6.64518">
        <ele>2034.3</ele>
        <time>2013-08-27T14:05:39Z</time>
      </trkpt>
      <trkpt lat="45.67805" lon="6.64502">
        <ele>2037.7</ele>
        <time>2013-08-27T14:05:56Z</time>
      </trkpt>
      <trkpt lat="45.67801" lon="6.64483">
        <ele>2040.1</ele>
        <time>2013-08-27T14:06:14Z</time>
      </trkpt>
      <trkpt lat="45.67792" lon="6.64476">
        <ele>2041.5</ele>
        <time>2013-08-27T14:06:28Z</time>
      </trkpt>
      <trkpt lat="45.6779" lon="6.64475">
        <ele>2042.5</ele>
        <time>2013-08-27T14:06:30Z</time>
      </trkpt>
      <trkpt lat="45.67776" lon="6.6447">
        <ele>2044.4</ele>
        <time>2013-08-27T14:06:48Z</time>
      </trkpt>
      <trkpt lat="45.67772" lon="6.64469">
        <ele>2046.3</ele>
        <time>2013-08-27T14:06:53Z</time>
      </trkpt>
      <trkpt lat="45.67755" lon="6.64473">
        <ele>2047.8</ele>
        <time>2013-08-27T14:07:12Z</time>
      </trkpt>
      <trkpt lat="45.67749" lon="6.64472">
        <ele>2049.2</ele>
        <time>2013-08-27T14:07:19Z</time>
      </trkpt>
      <trkpt lat="45.67732" lon="6.64486">
        <ele>2051.6</ele>
        <time>2013-08-27T14:07:37Z</time>
      </trkpt>
      <trkpt lat="45.67716" lon="6.64492">
        <ele>2052.1</ele>
        <time>2013-08-27T14:07:56Z</time>
      </trkpt>
      <trkpt lat="45.67713" lon="6.64494">
        <ele>2052.1</ele>
        <time>2013-08-27T14:08:02Z</time>
      </trkpt>
      <trkpt lat="45.67711" lon="6.64494">
        <ele>2052.1</ele>
        <time>2013-08-27T14:08:04Z</time>
      </trkpt>
      <trkpt lat="45.67703" lon="6.64496">
        <ele>2053.5</ele>
        <time>2013-08-27T14:08:09Z</time>
      </trkpt>
      <trkpt lat="45.67696" lon="6.645">
        <ele>2055</ele>
        <time>2013-08-27T14:08:13Z</time>
      </trkpt>
      <trkpt lat="45.67677" lon="6.64501">
        <ele>2057.8</ele>
        <time>2013-08-27T14:08:29Z</time>
      </trkpt>
      <trkpt lat="45.67673" lon="6.64498">
        <ele>2057.4</ele>
        <time>2013-08-27T14:08:50Z</time>
      </trkpt>
      <trkpt lat="45.67648" lon="6.64469">
        <ele>2055</ele>
        <time>2013-08-27T14:08:59Z</time>
      </trkpt>
      <trkpt lat="45.67642" lon="6.64463">
        <ele>2054.5</ele>
        <time>2013-08-27T14:09:01Z</time>
      </trkpt>
      <trkpt lat="45.67639" lon="6.64462">
        <ele>2053.5</ele>
        <time>2013-08-27T14:09:02Z</time>
      </trkpt>
      <trkpt lat="45.67636" lon="6.6446">
        <ele>2052.6</ele>
        <time>2013-08-27T14:09:03Z</time>
      </trkpt>
      <trkpt lat="45.67634" lon="6.64458">
        <ele>2051.6</ele>
        <time>2013-08-27T14:09:04Z</time>
      </trkpt>
      <trkpt lat="45.67632" lon="6.64457">
        <ele>2051.1</ele>
        <time>2013-08-27T14:09:05Z</time>
      </trkpt>
      <trkpt lat="45.6763" lon="6.64458">
        <ele>2051.1</ele>
        <time>2013-08-27T14:09:06Z</time>
      </trkpt>
      <trkpt lat="45.67628" lon="6.64459">
        <ele>2050.6</ele>
        <time>2013-08-27T14:09:07Z</time>
      </trkpt>
      <trkpt lat="45.67626" lon="6.64458">
        <ele>2049.2</ele>
        <time>2013-08-27T14:09:08Z</time>
      </trkpt>
      <trkpt lat="45.67625" lon="6.64456">
        <ele>2048.7</ele>
        <time>2013-08-27T14:09:09Z</time>
      </trkpt>
      <trkpt lat="45.67623" lon="6.64449">
        <ele>2048.2</ele>
        <time>2013-08-27T14:09:18Z</time>
      </trkpt>
      <trkpt lat="45.67622" lon="6.64447">
        <ele>2048.2</ele>
        <time>2013-08-27T14:09:33Z</time>
      </trkpt>
      <trkpt lat="45.67616" lon="6.64421">
        <ele>2046.3</ele>
        <time>2013-08-27T14:09:43Z</time>
      </trkpt>
      <trkpt lat="45.67609" lon="6.64416">
        <ele>2042.9</ele>
        <time>2013-08-27T14:09:47Z</time>
      </trkpt>
      <trkpt lat="45.67607" lon="6.64417">
        <ele>2042.5</ele>
        <time>2013-08-27T14:09:48Z</time>
      </trkpt>
      <trkpt lat="45.67606" lon="6.6442">
        <ele>2042</ele>
        <time>2013-08-27T14:09:49Z</time>
      </trkpt>
      <trkpt lat="45.67597" lon="6.64434">
        <ele>2038.6</ele>
        <time>2013-08-27T14:09:53Z</time>
      </trkpt>
      <trkpt lat="45.67591" lon="6.64444">
        <ele>2037.7</ele>
        <time>2013-08-27T14:09:55Z</time>
      </trkpt>
      <trkpt lat="45.67587" lon="6.64448">
        <ele>2037.7</ele>
        <time>2013-08-27T14:09:56Z</time>
      </trkpt>
      <trkpt lat="45.67583" lon="6.64451">
        <ele>2037.2</ele>
        <time>2013-08-27T14:09:57Z</time>
      </trkpt>
      <trkpt lat="45.67579" lon="6.64455">
        <ele>2037.7</ele>
        <time>2013-08-27T14:09:58Z</time>
      </trkpt>
      <trkpt lat="45.67576" lon="6.64458">
        <ele>2036.7</ele>
        <time>2013-08-27T14:09:59Z</time>
      </trkpt>
      <trkpt lat="45.67563" lon="6.64471">
        <ele>2034.3</ele>
        <time>2013-08-27T14:10:06Z</time>
      </trkpt>
      <trkpt lat="45.67561" lon="6.64472">
        <ele>2033.3</ele>
        <time>2013-08-27T14:10:07Z</time>
      </trkpt>
      <trkpt lat="45.67559" lon="6.64472">
        <ele>2032.8</ele>
        <time>2013-08-27T14:10:08Z</time>
      </trkpt>
      <trkpt lat="45.67558" lon="6.64469">
        <ele>2032.4</ele>
        <time>2013-08-27T14:10:09Z</time>
      </trkpt>
      <trkpt lat="45.67558" lon="6.64465">
        <ele>2031.9</ele>
        <time>2013-08-27T14:10:10Z</time>
      </trkpt>
      <trkpt lat="45.67557" lon="6.6446">
        <ele>2031.4</ele>
        <time>2013-08-27T14:10:11Z</time>
      </trkpt>
      <trkpt lat="45.67557" lon="6.64454">
        <ele>2031.4</ele>
        <time>2013-08-27T14:10:12Z</time>
      </trkpt>
      <trkpt lat="45.67557" lon="6.64448">
        <ele>2030.4</ele>
        <time>2013-08-27T14:10:13Z</time>
      </trkpt>
      <trkpt lat="45.67558" lon="6.64443">
        <ele>2029</ele>
        <time>2013-08-27T14:10:14Z</time>
      </trkpt>
      <trkpt lat="45.67558" lon="6.64437">
        <ele>2029.5</ele>
        <time>2013-08-27T14:10:15Z</time>
      </trkpt>
      <trkpt lat="45.67569" lon="6.64402">
        <ele>2026.1</ele>
        <time>2013-08-27T14:10:21Z</time>
      </trkpt>
      <trkpt lat="45.67572" lon="6.64395">
        <ele>2026.1</ele>
        <time>2013-08-27T14:10:22Z</time>
      </trkpt>
      <trkpt lat="45.67576" lon="6.64356">
        <ele>2024.2</ele>
        <time>2013-08-27T14:10:28Z</time>
      </trkpt>
      <trkpt lat="45.67577" lon="6.64351">
        <ele>2024.2</ele>
        <time>2013-08-27T14:10:29Z</time>
      </trkpt>
      <trkpt lat="45.67576" lon="6.64347">
        <ele>2024.2</ele>
        <time>2013-08-27T14:10:30Z</time>
      </trkpt>
      <trkpt lat="45.67575" lon="6.64345">
        <ele>2023.7</ele>
        <time>2013-08-27T14:10:31Z</time>
      </trkpt>
      <trkpt lat="45.67573" lon="6.64344">
        <ele>2023.2</ele>
        <time>2013-08-27T14:10:33Z</time>
      </trkpt>
      <trkpt lat="45.67571" lon="6.64345">
        <ele>2023.7</ele>
        <time>2013-08-27T14:10:34Z</time>
      </trkpt>
      <trkpt lat="45.67571" lon="6.64347">
        <ele>2022.8</ele>
        <time>2013-08-27T14:10:35Z</time>
      </trkpt>
      <trkpt lat="45.6757" lon="6.6435">
        <ele>2022.8</ele>
        <time>2013-08-27T14:10:36Z</time>
      </trkpt>
      <trkpt lat="45.6757" lon="6.64353">
        <ele>2021.8</ele>
        <time>2013-08-27T14:10:37Z</time>
      </trkpt>
      <trkpt lat="45.67567" lon="6.64368">
        <ele>2021.3</ele>
        <time>2013-08-27T14:10:46Z</time>
      </trkpt>
      <trkpt lat="45.67554" lon="6.64391">
        <ele>2019.4</ele>
        <time>2013-08-27T14:10:53Z</time>
      </trkpt>
      <trkpt lat="45.67552" lon="6.64396">
        <ele>2018.9</ele>
        <time>2013-08-27T14:10:54Z</time>
      </trkpt>
      <trkpt lat="45.6755" lon="6.64401">
        <ele>2017.9</ele>
        <time>2013-08-27T14:10:55Z</time>
      </trkpt>
      <trkpt lat="45.67547" lon="6.64404">
        <ele>2017.5</ele>
        <time>2013-08-27T14:10:56Z</time>
      </trkpt>
      <trkpt lat="45.67545" lon="6.64407">
        <ele>2017.9</ele>
        <time>2013-08-27T14:10:57Z</time>
      </trkpt>
      <trkpt lat="45.67544" lon="6.6441">
        <ele>2017.5</ele>
        <time>2013-08-27T14:10:58Z</time>
      </trkpt>
      <trkpt lat="45.67542" lon="6.64414">
        <ele>2017.5</ele>
        <time>2013-08-27T14:10:59Z</time>
      </trkpt>
      <trkpt lat="45.67527" lon="6.64445">
        <ele>2017</ele>
        <time>2013-08-27T14:11:10Z</time>
      </trkpt>
      <trkpt lat="45.67526" lon="6.64446">
        <ele>2017</ele>
        <time>2013-08-27T14:11:12Z</time>
      </trkpt>
      <trkpt lat="45.67525" lon="6.64446">
        <ele>2017.5</ele>
        <time>2013-08-27T14:11:13Z</time>
      </trkpt>
      <trkpt lat="45.67523" lon="6.64445">
        <ele>2017</ele>
        <time>2013-08-27T14:11:14Z</time>
      </trkpt>
      <trkpt lat="45.67522" lon="6.64443">
        <ele>2017.9</ele>
        <time>2013-08-27T14:11:15Z</time>
      </trkpt>
      <trkpt lat="45.67521" lon="6.64441">
        <ele>2017.9</ele>
        <time>2013-08-27T14:11:16Z</time>
      </trkpt>
      <trkpt lat="45.6752" lon="6.64439">
        <ele>2018.4</ele>
        <time>2013-08-27T14:11:17Z</time>
      </trkpt>
      <trkpt lat="45.67518" lon="6.64439">
        <ele>2018.9</ele>
        <time>2013-08-27T14:11:18Z</time>
      </trkpt>
      <trkpt lat="45.67516" lon="6.64438">
        <ele>2018.9</ele>
        <time>2013-08-27T14:11:19Z</time>
      </trkpt>
      <trkpt lat="45.67515" lon="6.64439">
        <ele>2018.9</ele>
        <time>2013-08-27T14:11:20Z</time>
      </trkpt>
      <trkpt lat="45.67513" lon="6.64439">
        <ele>2018.4</ele>
        <time>2013-08-27T14:11:21Z</time>
      </trkpt>
      <trkpt lat="45.67512" lon="6.64439">
        <ele>2019.4</ele>
        <time>2013-08-27T14:11:22Z</time>
      </trkpt>
      <trkpt lat="45.67507" lon="6.64444">
        <ele>2019.4</ele>
        <time>2013-08-27T14:11:25Z</time>
      </trkpt>
      <trkpt lat="45.67506" lon="6.64446">
        <ele>2019.4</ele>
        <time>2013-08-27T14:11:26Z</time>
      </trkpt>
      <trkpt lat="45.67505" lon="6.64448">
        <ele>2019.9</ele>
        <time>2013-08-27T14:11:27Z</time>
      </trkpt>
      <trkpt lat="45.67497" lon="6.64458">
        <ele>2020.4</ele>
        <time>2013-08-27T14:11:39Z</time>
      </trkpt>
      <trkpt lat="45.67496" lon="6.64457">
        <ele>2019.9</ele>
        <time>2013-08-27T14:11:40Z</time>
      </trkpt>
      <trkpt lat="45.67495" lon="6.64456">
        <ele>2020.4</ele>
        <time>2013-08-27T14:11:41Z</time>
      </trkpt>
      <trkpt lat="45.67485" lon="6.64452">
        <ele>2020.4</ele>
        <time>2013-08-27T14:11:54Z</time>
      </trkpt>
      <trkpt lat="45.67483" lon="6.64449">
        <ele>2020.4</ele>
        <time>2013-08-27T14:12:03Z</time>
      </trkpt>
      <trkpt lat="45.67482" lon="6.64447">
        <ele>2020.4</ele>
        <time>2013-08-27T14:12:04Z</time>
      </trkpt>
      <trkpt lat="45.67482" lon="6.64443">
        <ele>2019.4</ele>
        <time>2013-08-27T14:12:05Z</time>
      </trkpt>
      <trkpt lat="45.67481" lon="6.64429">
        <ele>2017.5</ele>
        <time>2013-08-27T14:12:08Z</time>
      </trkpt>
      <trkpt lat="45.6748" lon="6.64409">
        <ele>2014.6</ele>
        <time>2013-08-27T14:12:14Z</time>
      </trkpt>
      <trkpt lat="45.67477" lon="6.64398">
        <ele>2013.1</ele>
        <time>2013-08-27T14:12:18Z</time>
      </trkpt>
      <trkpt lat="45.67468" lon="6.64362">
        <ele>2009.8</ele>
        <time>2013-08-27T14:12:26Z</time>
      </trkpt>
      <trkpt lat="45.67458" lon="6.64344">
        <ele>2010.3</ele>
        <time>2013-08-27T14:12:36Z</time>
      </trkpt>
      <trkpt lat="45.67449" lon="6.64337">
        <ele>2012.2</ele>
        <time>2013-08-27T14:12:47Z</time>
      </trkpt>
      <trkpt lat="45.67439" lon="6.64328">
        <ele>2008.8</ele>
        <time>2013-08-27T14:12:54Z</time>
      </trkpt>
      <trkpt lat="45.67435" lon="6.64326">
        <ele>2008.3</ele>
        <time>2013-08-27T14:12:56Z</time>
      </trkpt>
      <trkpt lat="45.67434" lon="6.64326">
        <ele>2008.3</ele>
        <time>2013-08-27T14:12:57Z</time>
      </trkpt>
      <trkpt lat="45.67433" lon="6.64325">
        <ele>2008.3</ele>
        <time>2013-08-27T14:12:58Z</time>
      </trkpt>
      <trkpt lat="45.67431" lon="6.64323">
        <ele>2008.8</ele>
        <time>2013-08-27T14:12:59Z</time>
      </trkpt>
      <trkpt lat="45.6743" lon="6.64322">
        <ele>2008.3</ele>
        <time>2013-08-27T14:13:00Z</time>
      </trkpt>
      <trkpt lat="45.67426" lon="6.64321">
        <ele>2009.3</ele>
        <time>2013-08-27T14:13:03Z</time>
      </trkpt>
      <trkpt lat="45.67425" lon="6.64319">
        <ele>2009.3</ele>
        <time>2013-08-27T14:13:05Z</time>
      </trkpt>
      <trkpt lat="45.67425" lon="6.64317">
        <ele>2009.3</ele>
        <time>2013-08-27T14:13:06Z</time>
      </trkpt>
      <trkpt lat="45.67424" lon="6.64315">
        <ele>2009.8</ele>
        <time>2013-08-27T14:13:07Z</time>
      </trkpt>
      <trkpt lat="45.67423" lon="6.64314">
        <ele>2009.8</ele>
        <time>2013-08-27T14:13:08Z</time>
      </trkpt>
      <trkpt lat="45.67422" lon="6.64312">
        <ele>2009.3</ele>
        <time>2013-08-27T14:13:09Z</time>
      </trkpt>
      <trkpt lat="45.6742" lon="6.64312">
        <ele>2010.3</ele>
        <time>2013-08-27T14:13:10Z</time>
      </trkpt>
      <trkpt lat="45.67419" lon="6.64312">
        <ele>2010.7</ele>
        <time>2013-08-27T14:13:11Z</time>
      </trkpt>
      <trkpt lat="45.67418" lon="6.64312">
        <ele>2010.7</ele>
        <time>2013-08-27T14:13:12Z</time>
      </trkpt>
      <trkpt lat="45.67418" lon="6.64311">
        <ele>2010.7</ele>
        <time>2013-08-27T14:13:13Z</time>
      </trkpt>
      <trkpt lat="45.67417" lon="6.6431">
        <ele>2011.2</ele>
        <time>2013-08-27T14:13:14Z</time>
      </trkpt>
      <trkpt lat="45.67416" lon="6.64308">
        <ele>2011.7</ele>
        <time>2013-08-27T14:13:15Z</time>
      </trkpt>
      <trkpt lat="45.67414" lon="6.64307">
        <ele>2011.7</ele>
        <time>2013-08-27T14:13:16Z</time>
      </trkpt>
      <trkpt lat="45.6741" lon="6.64305">
        <ele>2011.7</ele>
        <time>2013-08-27T14:13:29Z</time>
      </trkpt>
      <trkpt lat="45.67406" lon="6.64302">
        <ele>2012.7</ele>
        <time>2013-08-27T14:13:33Z</time>
      </trkpt>
      <trkpt lat="45.67405" lon="6.64301">
        <ele>2012.7</ele>
        <time>2013-08-27T14:13:34Z</time>
      </trkpt>
      <trkpt lat="45.67395" lon="6.64299">
        <ele>2013.1</ele>
        <time>2013-08-27T14:13:41Z</time>
      </trkpt>
      <trkpt lat="45.67383" lon="6.64289">
        <ele>2012.7</ele>
        <time>2013-08-27T14:13:53Z</time>
      </trkpt>
      <trkpt lat="45.67385" lon="6.64289">
        <ele>2013.1</ele>
        <time>2013-08-27T14:14:23Z</time>
      </trkpt>
      <trkpt lat="45.67378" lon="6.64286">
        <ele>2014.6</ele>
        <time>2013-08-27T14:14:35Z</time>
      </trkpt>
      <trkpt lat="45.67376" lon="6.64286">
        <ele>2014.6</ele>
        <time>2013-08-27T14:14:36Z</time>
      </trkpt>
      <trkpt lat="45.67375" lon="6.64286">
        <ele>2015.5</ele>
        <time>2013-08-27T14:14:37Z</time>
      </trkpt>
      <trkpt lat="45.6737" lon="6.64285">
        <ele>2016</ele>
        <time>2013-08-27T14:14:45Z</time>
      </trkpt>
      <trkpt lat="45.67368" lon="6.64283">
        <ele>2016.5</ele>
        <time>2013-08-27T14:14:47Z</time>
      </trkpt>
      <trkpt lat="45.67367" lon="6.64282">
        <ele>2016</ele>
        <time>2013-08-27T14:14:48Z</time>
      </trkpt>
      <trkpt lat="45.67366" lon="6.64281">
        <ele>2016.5</ele>
        <time>2013-08-27T14:14:49Z</time>
      </trkpt>
      <trkpt lat="45.6734" lon="6.64275">
        <ele>2017.9</ele>
        <time>2013-08-27T14:15:03Z</time>
      </trkpt>
      <trkpt lat="45.67338" lon="6.64275">
        <ele>2018.9</ele>
        <time>2013-08-27T14:15:04Z</time>
      </trkpt>
      <trkpt lat="45.67337" lon="6.64274">
        <ele>2019.4</ele>
        <time>2013-08-27T14:15:05Z</time>
      </trkpt>
      <trkpt lat="45.67336" lon="6.64272">
        <ele>2019.4</ele>
        <time>2013-08-27T14:15:06Z</time>
      </trkpt>
      <trkpt lat="45.67315" lon="6.64262">
        <ele>2021.8</ele>
        <time>2013-08-27T14:15:21Z</time>
      </trkpt>
      <trkpt lat="45.67292" lon="6.64262">
        <ele>2022.3</ele>
        <time>2013-08-27T14:15:33Z</time>
      </trkpt>
      <trkpt lat="45.67265" lon="6.64258">
        <ele>2018.9</ele>
        <time>2013-08-27T14:15:43Z</time>
      </trkpt>
      <trkpt lat="45.67261" lon="6.64257">
        <ele>2019.4</ele>
        <time>2013-08-27T14:15:44Z</time>
      </trkpt>
      <trkpt lat="45.67256" lon="6.64255">
        <ele>2017.5</ele>
        <time>2013-08-27T14:15:45Z</time>
      </trkpt>
      <trkpt lat="45.67252" lon="6.64253">
        <ele>2017</ele>
        <time>2013-08-27T14:15:46Z</time>
      </trkpt>
      <trkpt lat="45.67238" lon="6.64246">
        <ele>2015.1</ele>
        <time>2013-08-27T14:15:49Z</time>
      </trkpt>
      <trkpt lat="45.67211" lon="6.64236">
        <ele>2012.7</ele>
        <time>2013-08-27T14:15:57Z</time>
      </trkpt>
      <trkpt lat="45.67199" lon="6.64228">
        <ele>2009.3</ele>
        <time>2013-08-27T14:16:02Z</time>
      </trkpt>
      <trkpt lat="45.67193" lon="6.64224">
        <ele>2008.8</ele>
        <time>2013-08-27T14:16:16Z</time>
      </trkpt>
      <trkpt lat="45.67181" lon="6.64217">
        <ele>2006.9</ele>
        <time>2013-08-27T14:16:29Z</time>
      </trkpt>
      <trkpt lat="45.67177" lon="6.64214">
        <ele>2005.9</ele>
        <time>2013-08-27T14:16:37Z</time>
      </trkpt>
      <trkpt lat="45.67174" lon="6.64208">
        <ele>2005.9</ele>
        <time>2013-08-27T14:16:42Z</time>
      </trkpt>
      <trkpt lat="45.67173" lon="6.64207">
        <ele>2005.5</ele>
        <time>2013-08-27T14:16:43Z</time>
      </trkpt>
      <trkpt lat="45.67172" lon="6.64206">
        <ele>2005</ele>
        <time>2013-08-27T14:16:44Z</time>
      </trkpt>
      <trkpt lat="45.67171" lon="6.64206">
        <ele>2005</ele>
        <time>2013-08-27T14:16:45Z</time>
      </trkpt>
      <trkpt lat="45.67164" lon="6.64204">
        <ele>2004</ele>
        <time>2013-08-27T14:16:57Z</time>
      </trkpt>
      <trkpt lat="45.67156" lon="6.642">
        <ele>2003.5</ele>
        <time>2013-08-27T14:17:01Z</time>
      </trkpt>
      <trkpt lat="45.67141" lon="6.64193">
        <ele>2000.2</ele>
        <time>2013-08-27T14:17:11Z</time>
      </trkpt>
      <trkpt lat="45.67137" lon="6.64191">
        <ele>1997.8</ele>
        <time>2013-08-27T14:17:23Z</time>
      </trkpt>
      <trkpt lat="45.67139" lon="6.64183">
        <ele>1995.4</ele>
        <time>2013-08-27T14:17:38Z</time>
      </trkpt>
      <trkpt lat="45.67139" lon="6.6418">
        <ele>1994.4</ele>
        <time>2013-08-27T14:17:42Z</time>
      </trkpt>
      <trkpt lat="45.67135" lon="6.64172">
        <ele>1991.5</ele>
        <time>2013-08-27T14:17:53Z</time>
      </trkpt>
      <trkpt lat="45.67135" lon="6.6417">
        <ele>1991.5</ele>
        <time>2013-08-27T14:17:54Z</time>
      </trkpt>
      <trkpt lat="45.67134" lon="6.64168">
        <ele>1991</ele>
        <time>2013-08-27T14:17:55Z</time>
      </trkpt>
      <trkpt lat="45.67134" lon="6.64165">
        <ele>1991</ele>
        <time>2013-08-27T14:17:56Z</time>
      </trkpt>
      <trkpt lat="45.67134" lon="6.64162">
        <ele>1990.1</ele>
        <time>2013-08-27T14:17:57Z</time>
      </trkpt>
      <trkpt lat="45.67131" lon="6.64147">
        <ele>1987.2</ele>
        <time>2013-08-27T14:18:05Z</time>
      </trkpt>
      <trkpt lat="45.67132" lon="6.64142">
        <ele>1984.8</ele>
        <time>2013-08-27T14:18:14Z</time>
      </trkpt>
      <trkpt lat="45.67132" lon="6.64134">
        <ele>1981.9</ele>
        <time>2013-08-27T14:18:23Z</time>
      </trkpt>
      <trkpt lat="45.67131" lon="6.64133">
        <ele>1981.9</ele>
        <time>2013-08-27T14:18:24Z</time>
      </trkpt>
      <trkpt lat="45.67127" lon="6.64125">
        <ele>1978.5</ele>
        <time>2013-08-27T14:18:36Z</time>
      </trkpt>
      <trkpt lat="45.67125" lon="6.64122">
        <ele>1978.5</ele>
        <time>2013-08-27T14:18:37Z</time>
      </trkpt>
      <trkpt lat="45.67123" lon="6.64118">
        <ele>1977.6</ele>
        <time>2013-08-27T14:18:38Z</time>
      </trkpt>
      <trkpt lat="45.6712" lon="6.64116">
        <ele>1977.6</ele>
        <time>2013-08-27T14:18:39Z</time>
      </trkpt>
      <trkpt lat="45.67117" lon="6.64116">
        <ele>1978.1</ele>
        <time>2013-08-27T14:18:40Z</time>
      </trkpt>
      <trkpt lat="45.67115" lon="6.64116">
        <ele>1979</ele>
        <time>2013-08-27T14:18:41Z</time>
      </trkpt>
      <trkpt lat="45.67114" lon="6.64115">
        <ele>1979</ele>
        <time>2013-08-27T14:18:42Z</time>
      </trkpt>
      <trkpt lat="45.67112" lon="6.64114">
        <ele>1978.5</ele>
        <time>2013-08-27T14:18:43Z</time>
      </trkpt>
      <trkpt lat="45.67111" lon="6.64113">
        <ele>1979</ele>
        <time>2013-08-27T14:18:44Z</time>
      </trkpt>
      <trkpt lat="45.67108" lon="6.64113">
        <ele>1979</ele>
        <time>2013-08-27T14:18:45Z</time>
      </trkpt>
      <trkpt lat="45.67105" lon="6.64113">
        <ele>1978.5</ele>
        <time>2013-08-27T14:18:46Z</time>
      </trkpt>
      <trkpt lat="45.67087" lon="6.64115">
        <ele>1980.5</ele>
        <time>2013-08-27T14:18:57Z</time>
      </trkpt>
      <trkpt lat="45.67086" lon="6.64115">
        <ele>1980.5</ele>
        <time>2013-08-27T14:18:58Z</time>
      </trkpt>
      <trkpt lat="45.67085" lon="6.64115">
        <ele>1980.5</ele>
        <time>2013-08-27T14:18:59Z</time>
      </trkpt>
      <trkpt lat="45.67082" lon="6.64115">
        <ele>1980.5</ele>
        <time>2013-08-27T14:19:01Z</time>
      </trkpt>
      <trkpt lat="45.67076" lon="6.64114">
        <ele>1981.4</ele>
        <time>2013-08-27T14:19:11Z</time>
      </trkpt>
      <trkpt lat="45.67073" lon="6.64116">
        <ele>1982.4</ele>
        <time>2013-08-27T14:19:28Z</time>
      </trkpt>
      <trkpt lat="45.6707" lon="6.64116">
        <ele>1984.3</ele>
        <time>2013-08-27T14:19:35Z</time>
      </trkpt>
      <trkpt lat="45.6706" lon="6.64109">
        <ele>1984.3</ele>
        <time>2013-08-27T14:19:49Z</time>
      </trkpt>
      <trkpt lat="45.67056" lon="6.64102">
        <ele>1985.3</ele>
        <time>2013-08-27T14:19:58Z</time>
      </trkpt>
      <trkpt lat="45.67054" lon="6.64091">
        <ele>1986.2</ele>
        <time>2013-08-27T14:20:13Z</time>
      </trkpt>
      <trkpt lat="45.67052" lon="6.6408">
        <ele>1986.2</ele>
        <time>2013-08-27T14:20:28Z</time>
      </trkpt>
      <trkpt lat="45.67049" lon="6.64068">
        <ele>1984.8</ele>
        <time>2013-08-27T14:20:33Z</time>
      </trkpt>
      <trkpt lat="45.67049" lon="6.64066">
        <ele>1984.3</ele>
        <time>2013-08-27T14:20:34Z</time>
      </trkpt>
      <trkpt lat="45.6704" lon="6.64036">
        <ele>1982.9</ele>
        <time>2013-08-27T14:20:44Z</time>
      </trkpt>
      <trkpt lat="45.67036" lon="6.64018">
        <ele>1981.9</ele>
        <time>2013-08-27T14:20:53Z</time>
      </trkpt>
      <trkpt lat="45.67034" lon="6.64015">
        <ele>1981.9</ele>
        <time>2013-08-27T14:20:54Z</time>
      </trkpt>
      <trkpt lat="45.67025" lon="6.64001">
        <ele>1979</ele>
        <time>2013-08-27T14:20:58Z</time>
      </trkpt>
      <trkpt lat="45.67023" lon="6.63999">
        <ele>1980.5</ele>
        <time>2013-08-27T14:20:59Z</time>
      </trkpt>
      <trkpt lat="45.67021" lon="6.63997">
        <ele>1980.9</ele>
        <time>2013-08-27T14:21:00Z</time>
      </trkpt>
      <trkpt lat="45.6702" lon="6.63996">
        <ele>1981.4</ele>
        <time>2013-08-27T14:21:01Z</time>
      </trkpt>
      <trkpt lat="45.67007" lon="6.63965">
        <ele>1980.9</ele>
        <time>2013-08-27T14:21:11Z</time>
      </trkpt>
      <trkpt lat="45.67" lon="6.63957">
        <ele>1983.3</ele>
        <time>2013-08-27T14:21:16Z</time>
      </trkpt>
      <trkpt lat="45.66997" lon="6.63953">
        <ele>1983.8</ele>
        <time>2013-08-27T14:21:22Z</time>
      </trkpt>
      <trkpt lat="45.66996" lon="6.63952">
        <ele>1983.3</ele>
        <time>2013-08-27T14:21:23Z</time>
      </trkpt>
      <trkpt lat="45.66995" lon="6.63951">
        <ele>1983.8</ele>
        <time>2013-08-27T14:21:24Z</time>
      </trkpt>
      <trkpt lat="45.66993" lon="6.6395">
        <ele>1983.8</ele>
        <time>2013-08-27T14:21:25Z</time>
      </trkpt>
      <trkpt lat="45.66992" lon="6.63949">
        <ele>1984.8</ele>
        <time>2013-08-27T14:21:26Z</time>
      </trkpt>
      <trkpt lat="45.6699" lon="6.63948">
        <ele>1983.8</ele>
        <time>2013-08-27T14:21:27Z</time>
      </trkpt>
      <trkpt lat="45.66989" lon="6.63948">
        <ele>1985.3</ele>
        <time>2013-08-27T14:21:28Z</time>
      </trkpt>
      <trkpt lat="45.66988" lon="6.63947">
        <ele>1985.3</ele>
        <time>2013-08-27T14:21:29Z</time>
      </trkpt>
      <trkpt lat="45.66987" lon="6.63946">
        <ele>1985.7</ele>
        <time>2013-08-27T14:21:30Z</time>
      </trkpt>
      <trkpt lat="45.66985" lon="6.63945">
        <ele>1985.3</ele>
        <time>2013-08-27T14:21:31Z</time>
      </trkpt>
      <trkpt lat="45.66984" lon="6.63944">
        <ele>1986.2</ele>
        <time>2013-08-27T14:21:32Z</time>
      </trkpt>
      <trkpt lat="45.66983" lon="6.63942">
        <ele>1985.7</ele>
        <time>2013-08-27T14:21:33Z</time>
      </trkpt>
      <trkpt lat="45.66982" lon="6.63939">
        <ele>1985.3</ele>
        <time>2013-08-27T14:21:34Z</time>
      </trkpt>
      <trkpt lat="45.66981" lon="6.63937">
        <ele>1985.7</ele>
        <time>2013-08-27T14:21:35Z</time>
      </trkpt>
      <trkpt lat="45.66979" lon="6.63935">
        <ele>1985.7</ele>
        <time>2013-08-27T14:21:36Z</time>
      </trkpt>
      <trkpt lat="45.66977" lon="6.63934">
        <ele>1985.3</ele>
        <time>2013-08-27T14:21:37Z</time>
      </trkpt>
      <trkpt lat="45.66976" lon="6.63934">
        <ele>1985.3</ele>
        <time>2013-08-27T14:21:38Z</time>
      </trkpt>
      <trkpt lat="45.66975" lon="6.63934">
        <ele>1985.7</ele>
        <time>2013-08-27T14:21:39Z</time>
      </trkpt>
      <trkpt lat="45.66972" lon="6.63934">
        <ele>1987.2</ele>
        <time>2013-08-27T14:21:41Z</time>
      </trkpt>
      <trkpt lat="45.66971" lon="6.63933">
        <ele>1987.2</ele>
        <time>2013-08-27T14:21:42Z</time>
      </trkpt>
      <trkpt lat="45.66952" lon="6.63923">
        <ele>1983.3</ele>
        <time>2013-08-27T14:21:52Z</time>
      </trkpt>
      <trkpt lat="45.6695" lon="6.63921">
        <ele>1981.9</ele>
        <time>2013-08-27T14:21:53Z</time>
      </trkpt>
      <trkpt lat="45.66948" lon="6.63921">
        <ele>1981.4</ele>
        <time>2013-08-27T14:21:54Z</time>
      </trkpt>
      <trkpt lat="45.66946" lon="6.63921">
        <ele>1981.9</ele>
        <time>2013-08-27T14:21:55Z</time>
      </trkpt>
      <trkpt lat="45.66944" lon="6.63919">
        <ele>1982.4</ele>
        <time>2013-08-27T14:21:56Z</time>
      </trkpt>
      <trkpt lat="45.66943" lon="6.63918">
        <ele>1981.9</ele>
        <time>2013-08-27T14:21:57Z</time>
      </trkpt>
      <trkpt lat="45.66941" lon="6.63917">
        <ele>1981.4</ele>
        <time>2013-08-27T14:21:58Z</time>
      </trkpt>
      <trkpt lat="45.66939" lon="6.63916">
        <ele>1982.4</ele>
        <time>2013-08-27T14:21:59Z</time>
      </trkpt>
      <trkpt lat="45.66938" lon="6.63915">
        <ele>1982.9</ele>
        <time>2013-08-27T14:22:00Z</time>
      </trkpt>
      <trkpt lat="45.66936" lon="6.63913">
        <ele>1982.9</ele>
        <time>2013-08-27T14:22:06Z</time>
      </trkpt>
      <trkpt lat="45.66935" lon="6.63911">
        <ele>1983.3</ele>
        <time>2013-08-27T14:22:07Z</time>
      </trkpt>
      <trkpt lat="45.66934" lon="6.63909">
        <ele>1983.3</ele>
        <time>2013-08-27T14:22:08Z</time>
      </trkpt>
      <trkpt lat="45.66933" lon="6.63906">
        <ele>1982.9</ele>
        <time>2013-08-27T14:22:09Z</time>
      </trkpt>
      <trkpt lat="45.66932" lon="6.63905">
        <ele>1983.3</ele>
        <time>2013-08-27T14:22:10Z</time>
      </trkpt>
      <trkpt lat="45.66929" lon="6.639">
        <ele>1984.8</ele>
        <time>2013-08-27T14:22:13Z</time>
      </trkpt>
      <trkpt lat="45.66926" lon="6.63896">
        <ele>1985.7</ele>
        <time>2013-08-27T14:22:29Z</time>
      </trkpt>
      <trkpt lat="45.66914" lon="6.63874">
        <ele>1984.8</ele>
        <time>2013-08-27T14:22:40Z</time>
      </trkpt>
      <trkpt lat="45.66909" lon="6.63867">
        <ele>1985.3</ele>
        <time>2013-08-27T14:22:47Z</time>
      </trkpt>
      <trkpt lat="45.6691" lon="6.63837">
        <ele>1986.7</ele>
        <time>2013-08-27T14:22:58Z</time>
      </trkpt>
      <trkpt lat="45.66907" lon="6.63821">
        <ele>1986.2</ele>
        <time>2013-08-27T14:23:03Z</time>
      </trkpt>
      <trkpt lat="45.66877" lon="6.6378">
        <ele>1984.8</ele>
        <time>2013-08-27T14:23:16Z</time>
      </trkpt>
      <trkpt lat="45.66853" lon="6.63737">
        <ele>1985.7</ele>
        <time>2013-08-27T14:23:29Z</time>
      </trkpt>
      <trkpt lat="45.66837" lon="6.63728">
        <ele>1985.3</ele>
        <time>2013-08-27T14:23:34Z</time>
      </trkpt>
      <trkpt lat="45.66833" lon="6.63727">
        <ele>1985.3</ele>
        <time>2013-08-27T14:23:35Z</time>
      </trkpt>
      <trkpt lat="45.66829" lon="6.63728">
        <ele>1984.8</ele>
        <time>2013-08-27T14:23:36Z</time>
      </trkpt>
      <trkpt lat="45.66826" lon="6.63729">
        <ele>1984.8</ele>
        <time>2013-08-27T14:23:37Z</time>
      </trkpt>
      <trkpt lat="45.66824" lon="6.6373">
        <ele>1984.8</ele>
        <time>2013-08-27T14:23:38Z</time>
      </trkpt>
      <trkpt lat="45.66814" lon="6.63739">
        <ele>1986.2</ele>
        <time>2013-08-27T14:23:50Z</time>
      </trkpt>
      <trkpt lat="45.66814" lon="6.63741">
        <ele>1986.2</ele>
        <time>2013-08-27T14:24:01Z</time>
      </trkpt>
      <trkpt lat="45.66812" lon="6.63745">
        <ele>1985.7</ele>
        <time>2013-08-27T14:24:03Z</time>
      </trkpt>
      <trkpt lat="45.6681" lon="6.63746">
        <ele>1985.7</ele>
        <time>2013-08-27T14:24:04Z</time>
      </trkpt>
      <trkpt lat="45.66808" lon="6.63746">
        <ele>1985.7</ele>
        <time>2013-08-27T14:24:05Z</time>
      </trkpt>
      <trkpt lat="45.66802" lon="6.63748">
        <ele>1985.7</ele>
        <time>2013-08-27T14:24:08Z</time>
      </trkpt>
      <trkpt lat="45.668" lon="6.63751">
        <ele>1985.3</ele>
        <time>2013-08-27T14:24:09Z</time>
      </trkpt>
      <trkpt lat="45.66797" lon="6.63756">
        <ele>1984.3</ele>
        <time>2013-08-27T14:24:10Z</time>
      </trkpt>
      <trkpt lat="45.66782" lon="6.63787">
        <ele>1980.9</ele>
        <time>2013-08-27T14:24:16Z</time>
      </trkpt>
      <trkpt lat="45.66771" lon="6.63803">
        <ele>1977.6</ele>
        <time>2013-08-27T14:24:21Z</time>
      </trkpt>
      <trkpt lat="45.66769" lon="6.63804">
        <ele>1977.6</ele>
        <time>2013-08-27T14:24:22Z</time>
      </trkpt>
      <trkpt lat="45.66766" lon="6.63803">
        <ele>1977.1</ele>
        <time>2013-08-27T14:24:23Z</time>
      </trkpt>
      <trkpt lat="45.66764" lon="6.63801">
        <ele>1976.6</ele>
        <time>2013-08-27T14:24:24Z</time>
      </trkpt>
      <trkpt lat="45.66763" lon="6.638">
        <ele>1975.7</ele>
        <time>2013-08-27T14:24:25Z</time>
      </trkpt>
      <trkpt lat="45.66762" lon="6.638">
        <ele>1974.7</ele>
        <time>2013-08-27T14:24:26Z</time>
      </trkpt>
      <trkpt lat="45.66761" lon="6.63802">
        <ele>1973.7</ele>
        <time>2013-08-27T14:24:27Z</time>
      </trkpt>
      <trkpt lat="45.6676" lon="6.63804">
        <ele>1974.2</ele>
        <time>2013-08-27T14:24:28Z</time>
      </trkpt>
      <trkpt lat="45.66756" lon="6.63812">
        <ele>1972.8</ele>
        <time>2013-08-27T14:24:32Z</time>
      </trkpt>
      <trkpt lat="45.66754" lon="6.63812">
        <ele>1972.3</ele>
        <time>2013-08-27T14:24:33Z</time>
      </trkpt>
      <trkpt lat="45.66752" lon="6.63811">
        <ele>1971.8</ele>
        <time>2013-08-27T14:24:34Z</time>
      </trkpt>
      <trkpt lat="45.6675" lon="6.63809">
        <ele>1972.8</ele>
        <time>2013-08-27T14:24:35Z</time>
      </trkpt>
      <trkpt lat="45.66749" lon="6.63806">
        <ele>1971.8</ele>
        <time>2013-08-27T14:24:36Z</time>
      </trkpt>
      <trkpt lat="45.66735" lon="6.63796">
        <ele>1969.4</ele>
        <time>2013-08-27T14:24:42Z</time>
      </trkpt>
      <trkpt lat="45.66732" lon="6.63795">
        <ele>1968.4</ele>
        <time>2013-08-27T14:24:52Z</time>
      </trkpt>
      <trkpt lat="45.66733" lon="6.63795">
        <ele>1968.9</ele>
        <time>2013-08-27T14:25:02Z</time>
      </trkpt>
      <trkpt lat="45.66732" lon="6.63796">
        <ele>1968.4</ele>
        <time>2013-08-27T14:25:13Z</time>
      </trkpt>
      <trkpt lat="45.66729" lon="6.63796">
        <ele>1967.5</ele>
        <time>2013-08-27T14:25:26Z</time>
      </trkpt>
      <trkpt lat="45.66728" lon="6.638">
        <ele>1968</ele>
        <time>2013-08-27T14:25:38Z</time>
      </trkpt>
      <trkpt lat="45.66726" lon="6.63801">
        <ele>1967</ele>
        <time>2013-08-27T14:25:39Z</time>
      </trkpt>
      <trkpt lat="45.66723" lon="6.63801">
        <ele>1966.5</ele>
        <time>2013-08-27T14:25:40Z</time>
      </trkpt>
      <trkpt lat="45.6672" lon="6.638">
        <ele>1966.5</ele>
        <time>2013-08-27T14:25:41Z</time>
      </trkpt>
      <trkpt lat="45.66717" lon="6.63799">
        <ele>1966</ele>
        <time>2013-08-27T14:25:42Z</time>
      </trkpt>
      <trkpt lat="45.66714" lon="6.63798">
        <ele>1965.6</ele>
        <time>2013-08-27T14:25:43Z</time>
      </trkpt>
      <trkpt lat="45.66711" lon="6.63798">
        <ele>1965.1</ele>
        <time>2013-08-27T14:25:44Z</time>
      </trkpt>
      <trkpt lat="45.66703" lon="6.63802">
        <ele>1964.1</ele>
        <time>2013-08-27T14:25:47Z</time>
      </trkpt>
      <trkpt lat="45.66701" lon="6.63803">
        <ele>1962.7</ele>
        <time>2013-08-27T14:25:49Z</time>
      </trkpt>
      <trkpt lat="45.667" lon="6.63801">
        <ele>1961.2</ele>
        <time>2013-08-27T14:25:59Z</time>
      </trkpt>
      <trkpt lat="45.66698" lon="6.63801">
        <ele>1960.8</ele>
        <time>2013-08-27T14:26:01Z</time>
      </trkpt>
      <trkpt lat="45.66693" lon="6.63806">
        <ele>1958.3</ele>
        <time>2013-08-27T14:26:12Z</time>
      </trkpt>
      <trkpt lat="45.66692" lon="6.63807">
        <ele>1958.3</ele>
        <time>2013-08-27T14:26:13Z</time>
      </trkpt>
      <trkpt lat="45.66692" lon="6.63809">
        <ele>1957.9</ele>
        <time>2013-08-27T14:26:16Z</time>
      </trkpt>
      <trkpt lat="45.66689" lon="6.63816">
        <ele>1958.8</ele>
        <time>2013-08-27T14:26:28Z</time>
      </trkpt>
      <trkpt lat="45.66687" lon="6.63815">
        <ele>1958.8</ele>
        <time>2013-08-27T14:26:35Z</time>
      </trkpt>
      <trkpt lat="45.66678" lon="6.63815">
        <ele>1957.4</ele>
        <time>2013-08-27T14:26:40Z</time>
      </trkpt>
      <trkpt lat="45.66659" lon="6.63831">
        <ele>1953.5</ele>
        <time>2013-08-27T14:26:48Z</time>
      </trkpt>
      <trkpt lat="45.66654" lon="6.63839">
        <ele>1953.5</ele>
        <time>2013-08-27T14:26:51Z</time>
      </trkpt>
      <trkpt lat="45.66653" lon="6.63838">
        <ele>1952.1</ele>
        <time>2013-08-27T14:26:52Z</time>
      </trkpt>
      <trkpt lat="45.66652" lon="6.63836">
        <ele>1952.1</ele>
        <time>2013-08-27T14:26:53Z</time>
      </trkpt>
      <trkpt lat="45.66652" lon="6.63834">
        <ele>1951.6</ele>
        <time>2013-08-27T14:26:54Z</time>
      </trkpt>
      <trkpt lat="45.6665" lon="6.63825">
        <ele>1950.7</ele>
        <time>2013-08-27T14:26:57Z</time>
      </trkpt>
      <trkpt lat="45.66649" lon="6.63821">
        <ele>1950.2</ele>
        <time>2013-08-27T14:26:58Z</time>
      </trkpt>
      <trkpt lat="45.66641" lon="6.63807">
        <ele>1953.1</ele>
        <time>2013-08-27T14:27:09Z</time>
      </trkpt>
      <trkpt lat="45.66641" lon="6.63807">
        <ele>1950.2</ele>
        <time>2013-08-27T14:27:13Z</time>
      </trkpt>
      <trkpt lat="45.66639" lon="6.63804">
        <ele>1952.6</ele>
        <time>2013-08-27T14:27:24Z</time>
      </trkpt>
      <trkpt lat="45.66639" lon="6.63804">
        <ele>1950.7</ele>
        <time>2013-08-27T14:27:26Z</time>
      </trkpt>
      <trkpt lat="45.66639" lon="6.63802">
        <ele>1950.2</ele>
        <time>2013-08-27T14:27:32Z</time>
      </trkpt>
      <trkpt lat="45.66639" lon="6.638">
        <ele>1950.7</ele>
        <time>2013-08-27T14:27:33Z</time>
      </trkpt>
      <trkpt lat="45.66638" lon="6.63793">
        <ele>1949.7</ele>
        <time>2013-08-27T14:27:47Z</time>
      </trkpt>
      <trkpt lat="45.66636" lon="6.63778">
        <ele>1947.8</ele>
        <time>2013-08-27T14:27:51Z</time>
      </trkpt>
      <trkpt lat="45.66636" lon="6.63768">
        <ele>1946.3</ele>
        <time>2013-08-27T14:27:54Z</time>
      </trkpt>
      <trkpt lat="45.66636" lon="6.6376">
        <ele>1944.9</ele>
        <time>2013-08-27T14:27:56Z</time>
      </trkpt>
      <trkpt lat="45.66639" lon="6.6375">
        <ele>1943</ele>
        <time>2013-08-27T14:27:59Z</time>
      </trkpt>
      <trkpt lat="45.66641" lon="6.63739">
        <ele>1941</ele>
        <time>2013-08-27T14:28:02Z</time>
      </trkpt>
      <trkpt lat="45.66643" lon="6.63724">
        <ele>1938.6</ele>
        <time>2013-08-27T14:28:06Z</time>
      </trkpt>
      <trkpt lat="45.66644" lon="6.63721">
        <ele>1937.2</ele>
        <time>2013-08-27T14:28:08Z</time>
      </trkpt>
      <trkpt lat="45.66647" lon="6.63714">
        <ele>1936.2</ele>
        <time>2013-08-27T14:28:17Z</time>
      </trkpt>
      <trkpt lat="45.66645" lon="6.63707">
        <ele>1934.3</ele>
        <time>2013-08-27T14:28:28Z</time>
      </trkpt>
      <trkpt lat="45.66644" lon="6.63707">
        <ele>1933.8</ele>
        <time>2013-08-27T14:28:29Z</time>
      </trkpt>
      <trkpt lat="45.66644" lon="6.637">
        <ele>1931.4</ele>
        <time>2013-08-27T14:28:42Z</time>
      </trkpt>
      <trkpt lat="45.66647" lon="6.63697">
        <ele>1930.5</ele>
        <time>2013-08-27T14:28:51Z</time>
      </trkpt>
      <trkpt lat="45.66647" lon="6.63696">
        <ele>1931</ele>
        <time>2013-08-27T14:28:52Z</time>
      </trkpt>
      <trkpt lat="45.66644" lon="6.63681">
        <ele>1928.5</ele>
        <time>2013-08-27T14:29:05Z</time>
      </trkpt>
      <trkpt lat="45.66641" lon="6.63666">
        <ele>1925.7</ele>
        <time>2013-08-27T14:29:18Z</time>
      </trkpt>
      <trkpt lat="45.66638" lon="6.63659">
        <ele>1924.7</ele>
        <time>2013-08-27T14:29:24Z</time>
      </trkpt>
      <trkpt lat="45.66637" lon="6.63659">
        <ele>1924.7</ele>
        <time>2013-08-27T14:29:25Z</time>
      </trkpt>
      <trkpt lat="45.66635" lon="6.6366">
        <ele>1924.2</ele>
        <time>2013-08-27T14:29:26Z</time>
      </trkpt>
      <trkpt lat="45.66634" lon="6.63662">
        <ele>1924.2</ele>
        <time>2013-08-27T14:29:36Z</time>
      </trkpt>
      <trkpt lat="45.66634" lon="6.63665">
        <ele>1924.2</ele>
        <time>2013-08-27T14:29:40Z</time>
      </trkpt>
      <trkpt lat="45.66634" lon="6.63667">
        <ele>1924.2</ele>
        <time>2013-08-27T14:29:41Z</time>
      </trkpt>
      <trkpt lat="45.66633" lon="6.6367">
        <ele>1924.2</ele>
        <time>2013-08-27T14:29:42Z</time>
      </trkpt>
      <trkpt lat="45.66633" lon="6.63674">
        <ele>1923.7</ele>
        <time>2013-08-27T14:29:43Z</time>
      </trkpt>
      <trkpt lat="45.66631" lon="6.63678">
        <ele>1923.3</ele>
        <time>2013-08-27T14:29:44Z</time>
      </trkpt>
      <trkpt lat="45.66613" lon="6.63709">
        <ele>1923.3</ele>
        <time>2013-08-27T14:29:53Z</time>
      </trkpt>
      <trkpt lat="45.66604" lon="6.63723">
        <ele>1921.8</ele>
        <time>2013-08-27T14:29:56Z</time>
      </trkpt>
      <trkpt lat="45.666" lon="6.63728">
        <ele>1921.3</ele>
        <time>2013-08-27T14:29:57Z</time>
      </trkpt>
      <trkpt lat="45.66596" lon="6.63731">
        <ele>1920.9</ele>
        <time>2013-08-27T14:29:58Z</time>
      </trkpt>
      <trkpt lat="45.66591" lon="6.63732">
        <ele>1920.9</ele>
        <time>2013-08-27T14:29:59Z</time>
      </trkpt>
      <trkpt lat="45.66587" lon="6.63731">
        <ele>1919.9</ele>
        <time>2013-08-27T14:30:00Z</time>
      </trkpt>
      <trkpt lat="45.66582" lon="6.63729">
        <ele>1920.4</ele>
        <time>2013-08-27T14:30:01Z</time>
      </trkpt>
      <trkpt lat="45.66578" lon="6.63726">
        <ele>1919.9</ele>
        <time>2013-08-27T14:30:02Z</time>
      </trkpt>
      <trkpt lat="45.66575" lon="6.63722">
        <ele>1919.9</ele>
        <time>2013-08-27T14:30:03Z</time>
      </trkpt>
      <trkpt lat="45.66571" lon="6.63717">
        <ele>1919.4</ele>
        <time>2013-08-27T14:30:04Z</time>
      </trkpt>
      <trkpt lat="45.66552" lon="6.63691">
        <ele>1917</ele>
        <time>2013-08-27T14:30:13Z</time>
      </trkpt>
      <trkpt lat="45.66534" lon="6.63679">
        <ele>1914.6</ele>
        <time>2013-08-27T14:30:19Z</time>
      </trkpt>
      <trkpt lat="45.6653" lon="6.63678">
        <ele>1914.1</ele>
        <time>2013-08-27T14:30:20Z</time>
      </trkpt>
      <trkpt lat="45.66527" lon="6.63677">
        <ele>1914.1</ele>
        <time>2013-08-27T14:30:21Z</time>
      </trkpt>
      <trkpt lat="45.66509" lon="6.63688">
        <ele>1911.7</ele>
        <time>2013-08-27T14:30:30Z</time>
      </trkpt>
      <trkpt lat="45.66509" lon="6.63689">
        <ele>1910.3</ele>
        <time>2013-08-27T14:30:42Z</time>
      </trkpt>
      <trkpt lat="45.66508" lon="6.6369">
        <ele>1910.8</ele>
        <time>2013-08-27T14:30:45Z</time>
      </trkpt>
      <trkpt lat="45.66506" lon="6.63691">
        <ele>1910.8</ele>
        <time>2013-08-27T14:30:46Z</time>
      </trkpt>
      <trkpt lat="45.66503" lon="6.63691">
        <ele>1910.3</ele>
        <time>2013-08-27T14:30:47Z</time>
      </trkpt>
      <trkpt lat="45.66501" lon="6.63689">
        <ele>1910.3</ele>
        <time>2013-08-27T14:30:48Z</time>
      </trkpt>
      <trkpt lat="45.665" lon="6.63686">
        <ele>1909.8</ele>
        <time>2013-08-27T14:30:49Z</time>
      </trkpt>
      <trkpt lat="45.665" lon="6.63682">
        <ele>1909.8</ele>
        <time>2013-08-27T14:30:50Z</time>
      </trkpt>
      <trkpt lat="45.66502" lon="6.63679">
        <ele>1909.3</ele>
        <time>2013-08-27T14:30:51Z</time>
      </trkpt>
      <trkpt lat="45.66511" lon="6.63657">
        <ele>1907.4</ele>
        <time>2013-08-27T14:30:56Z</time>
      </trkpt>
      <trkpt lat="45.66512" lon="6.63652">
        <ele>1906.9</ele>
        <time>2013-08-27T14:30:57Z</time>
      </trkpt>
      <trkpt lat="45.6651" lon="6.63647">
        <ele>1906.4</ele>
        <time>2013-08-27T14:30:58Z</time>
      </trkpt>
      <trkpt lat="45.66508" lon="6.63645">
        <ele>1906.4</ele>
        <time>2013-08-27T14:30:59Z</time>
      </trkpt>
      <trkpt lat="45.66505" lon="6.63645">
        <ele>1905.5</ele>
        <time>2013-08-27T14:31:00Z</time>
      </trkpt>
      <trkpt lat="45.66502" lon="6.63647">
        <ele>1906</ele>
        <time>2013-08-27T14:31:01Z</time>
      </trkpt>
      <trkpt lat="45.66499" lon="6.63651">
        <ele>1905.5</ele>
        <time>2013-08-27T14:31:02Z</time>
      </trkpt>
      <trkpt lat="45.66496" lon="6.63655">
        <ele>1905</ele>
        <time>2013-08-27T14:31:03Z</time>
      </trkpt>
      <trkpt lat="45.66493" lon="6.63659">
        <ele>1904.5</ele>
        <time>2013-08-27T14:31:04Z</time>
      </trkpt>
      <trkpt lat="45.66483" lon="6.63673">
        <ele>1902.6</ele>
        <time>2013-08-27T14:31:08Z</time>
      </trkpt>
      <trkpt lat="45.66481" lon="6.63675">
        <ele>1902.1</ele>
        <time>2013-08-27T14:31:09Z</time>
      </trkpt>
      <trkpt lat="45.66478" lon="6.63674">
        <ele>1901.1</ele>
        <time>2013-08-27T14:31:10Z</time>
      </trkpt>
      <trkpt lat="45.66476" lon="6.6367">
        <ele>1900.7</ele>
        <time>2013-08-27T14:31:11Z</time>
      </trkpt>
      <trkpt lat="45.66475" lon="6.63665">
        <ele>1900.7</ele>
        <time>2013-08-27T14:31:12Z</time>
      </trkpt>
      <trkpt lat="45.66476" lon="6.6366">
        <ele>1900.2</ele>
        <time>2013-08-27T14:31:13Z</time>
      </trkpt>
      <trkpt lat="45.66478" lon="6.63654">
        <ele>1899.2</ele>
        <time>2013-08-27T14:31:14Z</time>
      </trkpt>
      <trkpt lat="45.6648" lon="6.63648">
        <ele>1899.2</ele>
        <time>2013-08-27T14:31:15Z</time>
      </trkpt>
      <trkpt lat="45.66485" lon="6.6363">
        <ele>1896.8</ele>
        <time>2013-08-27T14:31:18Z</time>
      </trkpt>
      <trkpt lat="45.66489" lon="6.63619">
        <ele>1894.9</ele>
        <time>2013-08-27T14:31:20Z</time>
      </trkpt>
      <trkpt lat="45.66491" lon="6.63614">
        <ele>1894.4</ele>
        <time>2013-08-27T14:31:21Z</time>
      </trkpt>
      <trkpt lat="45.66495" lon="6.63609">
        <ele>1893.9</ele>
        <time>2013-08-27T14:31:22Z</time>
      </trkpt>
      <trkpt lat="45.66502" lon="6.63599">
        <ele>1891.5</ele>
        <time>2013-08-27T14:31:24Z</time>
      </trkpt>
      <trkpt lat="45.66506" lon="6.63595">
        <ele>1890.6</ele>
        <time>2013-08-27T14:31:25Z</time>
      </trkpt>
      <trkpt lat="45.6651" lon="6.63591">
        <ele>1889.6</ele>
        <time>2013-08-27T14:31:26Z</time>
      </trkpt>
      <trkpt lat="45.66514" lon="6.63588">
        <ele>1889.1</ele>
        <time>2013-08-27T14:31:27Z</time>
      </trkpt>
      <trkpt lat="45.66515" lon="6.63584">
        <ele>1889.1</ele>
        <time>2013-08-27T14:31:28Z</time>
      </trkpt>
      <trkpt lat="45.66514" lon="6.6358">
        <ele>1888.7</ele>
        <time>2013-08-27T14:31:29Z</time>
      </trkpt>
      <trkpt lat="45.66512" lon="6.63576">
        <ele>1888.2</ele>
        <time>2013-08-27T14:31:30Z</time>
      </trkpt>
      <trkpt lat="45.6651" lon="6.63575">
        <ele>1887.7</ele>
        <time>2013-08-27T14:31:31Z</time>
      </trkpt>
      <trkpt lat="45.66507" lon="6.63576">
        <ele>1886.7</ele>
        <time>2013-08-27T14:31:32Z</time>
      </trkpt>
      <trkpt lat="45.66506" lon="6.63578">
        <ele>1887.2</ele>
        <time>2013-08-27T14:31:33Z</time>
      </trkpt>
      <trkpt lat="45.66504" lon="6.6358">
        <ele>1887.2</ele>
        <time>2013-08-27T14:31:34Z</time>
      </trkpt>
      <trkpt lat="45.66503" lon="6.63582">
        <ele>1885.8</ele>
        <time>2013-08-27T14:31:35Z</time>
      </trkpt>
      <trkpt lat="45.66502" lon="6.63585">
        <ele>1886.2</ele>
        <time>2013-08-27T14:31:39Z</time>
      </trkpt>
      <trkpt lat="45.6649" lon="6.63583">
        <ele>1885.3</ele>
        <time>2013-08-27T14:31:43Z</time>
      </trkpt>
      <trkpt lat="45.66473" lon="6.63583">
        <ele>1881.9</ele>
        <time>2013-08-27T14:31:47Z</time>
      </trkpt>
      <trkpt lat="45.6647" lon="6.63586">
        <ele>1881.9</ele>
        <time>2013-08-27T14:31:48Z</time>
      </trkpt>
      <trkpt lat="45.66466" lon="6.63591">
        <ele>1881</ele>
        <time>2013-08-27T14:31:49Z</time>
      </trkpt>
      <trkpt lat="45.66463" lon="6.63597">
        <ele>1880.5</ele>
        <time>2013-08-27T14:31:50Z</time>
      </trkpt>
      <trkpt lat="45.66453" lon="6.63624">
        <ele>1878.1</ele>
        <time>2013-08-27T14:31:54Z</time>
      </trkpt>
      <trkpt lat="45.6645" lon="6.63629">
        <ele>1878.6</ele>
        <time>2013-08-27T14:31:55Z</time>
      </trkpt>
      <trkpt lat="45.66447" lon="6.63634">
        <ele>1878.1</ele>
        <time>2013-08-27T14:31:56Z</time>
      </trkpt>
      <trkpt lat="45.66443" lon="6.63638">
        <ele>1876.6</ele>
        <time>2013-08-27T14:31:57Z</time>
      </trkpt>
      <trkpt lat="45.66438" lon="6.63641">
        <ele>1876.6</ele>
        <time>2013-08-27T14:31:58Z</time>
      </trkpt>
      <trkpt lat="45.66433" lon="6.63644">
        <ele>1875.7</ele>
        <time>2013-08-27T14:31:59Z</time>
      </trkpt>
      <trkpt lat="45.66427" lon="6.63647">
        <ele>1874.7</ele>
        <time>2013-08-27T14:32:00Z</time>
      </trkpt>
      <trkpt lat="45.6641" lon="6.63656">
        <ele>1871.3</ele>
        <time>2013-08-27T14:32:03Z</time>
      </trkpt>
      <trkpt lat="45.66389" lon="6.63675">
        <ele>1868.9</ele>
        <time>2013-08-27T14:32:07Z</time>
      </trkpt>
      <trkpt lat="45.66379" lon="6.63683">
        <ele>1868.5</ele>
        <time>2013-08-27T14:32:09Z</time>
      </trkpt>
      <trkpt lat="45.66362" lon="6.63694">
        <ele>1866.5</ele>
        <time>2013-08-27T14:32:12Z</time>
      </trkpt>
      <trkpt lat="45.66342" lon="6.6371">
        <ele>1864.1</ele>
        <time>2013-08-27T14:32:16Z</time>
      </trkpt>
      <trkpt lat="45.66338" lon="6.63715">
        <ele>1863.7</ele>
        <time>2013-08-27T14:32:17Z</time>
      </trkpt>
      <trkpt lat="45.6633" lon="6.63726">
        <ele>1864.1</ele>
        <time>2013-08-27T14:32:19Z</time>
      </trkpt>
      <trkpt lat="45.66327" lon="6.63729">
        <ele>1864.1</ele>
        <time>2013-08-27T14:32:20Z</time>
      </trkpt>
      <trkpt lat="45.66319" lon="6.63735">
        <ele>1863.2</ele>
        <time>2013-08-27T14:32:22Z</time>
      </trkpt>
      <trkpt lat="45.66315" lon="6.6374">
        <ele>1863.2</ele>
        <time>2013-08-27T14:32:23Z</time>
      </trkpt>
      <trkpt lat="45.66301" lon="6.63754">
        <ele>1859.8</ele>
        <time>2013-08-27T14:32:26Z</time>
      </trkpt>
      <trkpt lat="45.66286" lon="6.63768">
        <ele>1856.9</ele>
        <time>2013-08-27T14:32:30Z</time>
      </trkpt>
      <trkpt lat="45.66283" lon="6.6377">
        <ele>1856</ele>
        <time>2013-08-27T14:32:31Z</time>
      </trkpt>
      <trkpt lat="45.6628" lon="6.63768">
        <ele>1856</ele>
        <time>2013-08-27T14:32:32Z</time>
      </trkpt>
      <trkpt lat="45.66279" lon="6.63765">
        <ele>1855.5</ele>
        <time>2013-08-27T14:32:33Z</time>
      </trkpt>
      <trkpt lat="45.66279" lon="6.6376">
        <ele>1855.5</ele>
        <time>2013-08-27T14:32:34Z</time>
      </trkpt>
      <trkpt lat="45.6628" lon="6.63756">
        <ele>1855.5</ele>
        <time>2013-08-27T14:32:35Z</time>
      </trkpt>
      <trkpt lat="45.66282" lon="6.63753">
        <ele>1854.5</ele>
        <time>2013-08-27T14:32:36Z</time>
      </trkpt>
      <trkpt lat="45.66285" lon="6.63749">
        <ele>1853.6</ele>
        <time>2013-08-27T14:32:37Z</time>
      </trkpt>
      <trkpt lat="45.66288" lon="6.63745">
        <ele>1853.1</ele>
        <time>2013-08-27T14:32:38Z</time>
      </trkpt>
      <trkpt lat="45.6629" lon="6.63738">
        <ele>1853.1</ele>
        <time>2013-08-27T14:32:39Z</time>
      </trkpt>
      <trkpt lat="45.66292" lon="6.63723">
        <ele>1850.7</ele>
        <time>2013-08-27T14:32:41Z</time>
      </trkpt>
      <trkpt lat="45.66294" lon="6.63716">
        <ele>1849.2</ele>
        <time>2013-08-27T14:32:42Z</time>
      </trkpt>
      <trkpt lat="45.66297" lon="6.63708">
        <ele>1848.8</ele>
        <time>2013-08-27T14:32:43Z</time>
      </trkpt>
      <trkpt lat="45.663" lon="6.63702">
        <ele>1847.3</ele>
        <time>2013-08-27T14:32:44Z</time>
      </trkpt>
      <trkpt lat="45.66303" lon="6.63696">
        <ele>1845.9</ele>
        <time>2013-08-27T14:32:45Z</time>
      </trkpt>
      <trkpt lat="45.66305" lon="6.63691">
        <ele>1845.9</ele>
        <time>2013-08-27T14:32:46Z</time>
      </trkpt>
      <trkpt lat="45.66306" lon="6.63686">
        <ele>1845.4</ele>
        <time>2013-08-27T14:32:47Z</time>
      </trkpt>
      <trkpt lat="45.66304" lon="6.63681">
        <ele>1844.4</ele>
        <time>2013-08-27T14:32:48Z</time>
      </trkpt>
      <trkpt lat="45.663" lon="6.63678">
        <ele>1844</ele>
        <time>2013-08-27T14:32:49Z</time>
      </trkpt>
      <trkpt lat="45.66296" lon="6.63678">
        <ele>1843.5</ele>
        <time>2013-08-27T14:32:50Z</time>
      </trkpt>
      <trkpt lat="45.66292" lon="6.6368">
        <ele>1843</ele>
        <time>2013-08-27T14:32:51Z</time>
      </trkpt>
      <trkpt lat="45.66288" lon="6.63682">
        <ele>1841.5</ele>
        <time>2013-08-27T14:32:52Z</time>
      </trkpt>
      <trkpt lat="45.66284" lon="6.63683">
        <ele>1840.6</ele>
        <time>2013-08-27T14:32:53Z</time>
      </trkpt>
      <trkpt lat="45.6628" lon="6.63684">
        <ele>1841.1</ele>
        <time>2013-08-27T14:32:54Z</time>
      </trkpt>
      <trkpt lat="45.66275" lon="6.63686">
        <ele>1840.1</ele>
        <time>2013-08-27T14:32:55Z</time>
      </trkpt>
      <trkpt lat="45.66262" lon="6.63691">
        <ele>1836.7</ele>
        <time>2013-08-27T14:32:58Z</time>
      </trkpt>
      <trkpt lat="45.66249" lon="6.63704">
        <ele>1833.4</ele>
        <time>2013-08-27T14:33:02Z</time>
      </trkpt>
      <trkpt lat="45.66246" lon="6.63708">
        <ele>1833.4</ele>
        <time>2013-08-27T14:33:03Z</time>
      </trkpt>
      <trkpt lat="45.66243" lon="6.63712">
        <ele>1831.5</ele>
        <time>2013-08-27T14:33:04Z</time>
      </trkpt>
      <trkpt lat="45.6624" lon="6.63717">
        <ele>1831.5</ele>
        <time>2013-08-27T14:33:05Z</time>
      </trkpt>
      <trkpt lat="45.66238" lon="6.63722">
        <ele>1831</ele>
        <time>2013-08-27T14:33:06Z</time>
      </trkpt>
      <trkpt lat="45.66228" lon="6.63742">
        <ele>1827.6</ele>
        <time>2013-08-27T14:33:10Z</time>
      </trkpt>
      <trkpt lat="45.66226" lon="6.63746">
        <ele>1827.1</ele>
        <time>2013-08-27T14:33:11Z</time>
      </trkpt>
      <trkpt lat="45.66217" lon="6.63759">
        <ele>1824.2</ele>
        <time>2013-08-27T14:33:14Z</time>
      </trkpt>
      <trkpt lat="45.66214" lon="6.63762">
        <ele>1823.8</ele>
        <time>2013-08-27T14:33:15Z</time>
      </trkpt>
      <trkpt lat="45.66212" lon="6.63764">
        <ele>1823.8</ele>
        <time>2013-08-27T14:33:16Z</time>
      </trkpt>
      <trkpt lat="45.6621" lon="6.63765">
        <ele>1823.8</ele>
        <time>2013-08-27T14:33:17Z</time>
      </trkpt>
      <trkpt lat="45.66209" lon="6.63767">
        <ele>1824.2</ele>
        <time>2013-08-27T14:33:18Z</time>
      </trkpt>
      <trkpt lat="45.66199" lon="6.63773">
        <ele>1821.4</ele>
        <time>2013-08-27T14:33:23Z</time>
      </trkpt>
      <trkpt lat="45.66198" lon="6.63775">
        <ele>1820.9</ele>
        <time>2013-08-27T14:33:24Z</time>
      </trkpt>
      <trkpt lat="45.66196" lon="6.63778">
        <ele>1819.9</ele>
        <time>2013-08-27T14:33:25Z</time>
      </trkpt>
      <trkpt lat="45.66194" lon="6.6378">
        <ele>1819.9</ele>
        <time>2013-08-27T14:33:26Z</time>
      </trkpt>
      <trkpt lat="45.66182" lon="6.63793">
        <ele>1818</ele>
        <time>2013-08-27T14:33:29Z</time>
      </trkpt>
      <trkpt lat="45.66178" lon="6.63796">
        <ele>1816.1</ele>
        <time>2013-08-27T14:33:30Z</time>
      </trkpt>
      <trkpt lat="45.66172" lon="6.638">
        <ele>1815.6</ele>
        <time>2013-08-27T14:33:32Z</time>
      </trkpt>
      <trkpt lat="45.66164" lon="6.63808">
        <ele>1815.1</ele>
        <time>2013-08-27T14:33:35Z</time>
      </trkpt>
      <trkpt lat="45.66163" lon="6.63812">
        <ele>1813.7</ele>
        <time>2013-08-27T14:33:36Z</time>
      </trkpt>
      <trkpt lat="45.66162" lon="6.63817">
        <ele>1813.7</ele>
        <time>2013-08-27T14:33:37Z</time>
      </trkpt>
      <trkpt lat="45.66162" lon="6.63827">
        <ele>1812.2</ele>
        <time>2013-08-27T14:33:39Z</time>
      </trkpt>
      <trkpt lat="45.66163" lon="6.63835">
        <ele>1810.8</ele>
        <time>2013-08-27T14:33:42Z</time>
      </trkpt>
      <trkpt lat="45.66161" lon="6.63837">
        <ele>1810.3</ele>
        <time>2013-08-27T14:33:46Z</time>
      </trkpt>
      <trkpt lat="45.66158" lon="6.6384">
        <ele>1809.8</ele>
        <time>2013-08-27T14:34:01Z</time>
      </trkpt>
      <trkpt lat="45.66155" lon="6.63844">
        <ele>1810.8</ele>
        <time>2013-08-27T14:34:16Z</time>
      </trkpt>
      <trkpt lat="45.66155" lon="6.63847">
        <ele>1811.3</ele>
        <time>2013-08-27T14:34:32Z</time>
      </trkpt>
      <trkpt lat="45.66155" lon="6.6385">
        <ele>1811.7</ele>
        <time>2013-08-27T14:34:34Z</time>
      </trkpt>
      <trkpt lat="45.66146" lon="6.63879">
        <ele>1812.2</ele>
        <time>2013-08-27T14:34:43Z</time>
      </trkpt>
      <trkpt lat="45.66142" lon="6.63887">
        <ele>1811.7</ele>
        <time>2013-08-27T14:34:53Z</time>
      </trkpt>
      <trkpt lat="45.66136" lon="6.6388">
        <ele>1812.2</ele>
        <time>2013-08-27T14:35:04Z</time>
      </trkpt>
      <trkpt lat="45.66135" lon="6.63878">
        <ele>1811.7</ele>
        <time>2013-08-27T14:35:05Z</time>
      </trkpt>
      <trkpt lat="45.66133" lon="6.63876">
        <ele>1811.7</ele>
        <time>2013-08-27T14:35:06Z</time>
      </trkpt>
      <trkpt lat="45.66131" lon="6.63874">
        <ele>1811.7</ele>
        <time>2013-08-27T14:35:07Z</time>
      </trkpt>
      <trkpt lat="45.66129" lon="6.63874">
        <ele>1811.3</ele>
        <time>2013-08-27T14:35:08Z</time>
      </trkpt>
      <trkpt lat="45.66126" lon="6.63874">
        <ele>1810.8</ele>
        <time>2013-08-27T14:35:09Z</time>
      </trkpt>
      <trkpt lat="45.66124" lon="6.63876">
        <ele>1810.8</ele>
        <time>2013-08-27T14:35:10Z</time>
      </trkpt>
      <trkpt lat="45.66122" lon="6.63878">
        <ele>1810.3</ele>
        <time>2013-08-27T14:35:11Z</time>
      </trkpt>
      <trkpt lat="45.66121" lon="6.6388">
        <ele>1810.3</ele>
        <time>2013-08-27T14:35:12Z</time>
      </trkpt>
      <trkpt lat="45.66121" lon="6.63882">
        <ele>1810.3</ele>
        <time>2013-08-27T14:35:13Z</time>
      </trkpt>
      <trkpt lat="45.6612" lon="6.63883">
        <ele>1810.8</ele>
        <time>2013-08-27T14:35:14Z</time>
      </trkpt>
      <trkpt lat="45.66115" lon="6.63883">
        <ele>1809.8</ele>
        <time>2013-08-27T14:35:18Z</time>
      </trkpt>
      <trkpt lat="45.66111" lon="6.63883">
        <ele>1809.3</ele>
        <time>2013-08-27T14:35:19Z</time>
      </trkpt>
      <trkpt lat="45.66108" lon="6.63883">
        <ele>1808.4</ele>
        <time>2013-08-27T14:35:20Z</time>
      </trkpt>
      <trkpt lat="45.66106" lon="6.63885">
        <ele>1807.9</ele>
        <time>2013-08-27T14:35:21Z</time>
      </trkpt>
      <trkpt lat="45.66101" lon="6.63888">
        <ele>1807.9</ele>
        <time>2013-08-27T14:35:30Z</time>
      </trkpt>
      <trkpt lat="45.66102" lon="6.63887">
        <ele>1808.9</ele>
        <time>2013-08-27T14:35:34Z</time>
      </trkpt>
      <trkpt lat="45.661" lon="6.63889">
        <ele>1807.9</ele>
        <time>2013-08-27T14:35:48Z</time>
      </trkpt>
      <trkpt lat="45.66096" lon="6.63891">
        <ele>1807.4</ele>
        <time>2013-08-27T14:36:00Z</time>
      </trkpt>
      <trkpt lat="45.66089" lon="6.63893">
        <ele>1807.9</ele>
        <time>2013-08-27T14:36:11Z</time>
      </trkpt>
      <trkpt lat="45.66084" lon="6.63898">
        <ele>1807.9</ele>
        <time>2013-08-27T14:36:23Z</time>
      </trkpt>
      <trkpt lat="45.6608" lon="6.63904">
        <ele>1807.4</ele>
        <time>2013-08-27T14:36:34Z</time>
      </trkpt>
      <trkpt lat="45.6607" lon="6.63907">
        <ele>1806</ele>
        <time>2013-08-27T14:36:45Z</time>
      </trkpt>
      <trkpt lat="45.66069" lon="6.63908">
        <ele>1806</ele>
        <time>2013-08-27T14:36:46Z</time>
      </trkpt>
      <trkpt lat="45.66066" lon="6.6391">
        <ele>1806.5</ele>
        <time>2013-08-27T14:36:49Z</time>
      </trkpt>
      <trkpt lat="45.66065" lon="6.6391">
        <ele>1806</ele>
        <time>2013-08-27T14:36:50Z</time>
      </trkpt>
      <trkpt lat="45.66064" lon="6.6391">
        <ele>1806</ele>
        <time>2013-08-27T14:36:51Z</time>
      </trkpt>
      <trkpt lat="45.66063" lon="6.6391">
        <ele>1805</ele>
        <time>2013-08-27T14:36:52Z</time>
      </trkpt>
      <trkpt lat="45.66061" lon="6.63909">
        <ele>1804.5</ele>
        <time>2013-08-27T14:36:54Z</time>
      </trkpt>
      <trkpt lat="45.66057" lon="6.6391">
        <ele>1804.1</ele>
        <time>2013-08-27T14:36:57Z</time>
      </trkpt>
      <trkpt lat="45.66052" lon="6.63911">
        <ele>1804.5</ele>
        <time>2013-08-27T14:37:03Z</time>
      </trkpt>
      <trkpt lat="45.66051" lon="6.6391">
        <ele>1804.5</ele>
        <time>2013-08-27T14:37:04Z</time>
      </trkpt>
      <trkpt lat="45.6605" lon="6.6391">
        <ele>1804.1</ele>
        <time>2013-08-27T14:37:05Z</time>
      </trkpt>
      <trkpt lat="45.66048" lon="6.6391">
        <ele>1804.5</ele>
        <time>2013-08-27T14:37:06Z</time>
      </trkpt>
      <trkpt lat="45.66047" lon="6.6391">
        <ele>1804.1</ele>
        <time>2013-08-27T14:37:07Z</time>
      </trkpt>
      <trkpt lat="45.66045" lon="6.6391">
        <ele>1804.1</ele>
        <time>2013-08-27T14:37:09Z</time>
      </trkpt>
      <trkpt lat="45.66044" lon="6.6391">
        <ele>1803.1</ele>
        <time>2013-08-27T14:37:10Z</time>
      </trkpt>
      <trkpt lat="45.66031" lon="6.63911">
        <ele>1804.1</ele>
        <time>2013-08-27T14:37:24Z</time>
      </trkpt>
      <trkpt lat="45.66019" lon="6.63912">
        <ele>1803.6</ele>
        <time>2013-08-27T14:37:36Z</time>
      </trkpt>
      <trkpt lat="45.66017" lon="6.63912">
        <ele>1803.1</ele>
        <time>2013-08-27T14:37:37Z</time>
      </trkpt>
      <trkpt lat="45.66016" lon="6.63911">
        <ele>1803.6</ele>
        <time>2013-08-27T14:37:38Z</time>
      </trkpt>
      <trkpt lat="45.66015" lon="6.63911">
        <ele>1803.6</ele>
        <time>2013-08-27T14:37:39Z</time>
      </trkpt>
      <trkpt lat="45.66014" lon="6.6391">
        <ele>1803.1</ele>
        <time>2013-08-27T14:37:40Z</time>
      </trkpt>
      <trkpt lat="45.6601" lon="6.63909">
        <ele>1802.1</ele>
        <time>2013-08-27T14:37:43Z</time>
      </trkpt>
      <trkpt lat="45.65998" lon="6.63911">
        <ele>1801.7</ele>
        <time>2013-08-27T14:37:54Z</time>
      </trkpt>
      <trkpt lat="45.65986" lon="6.63909">
        <ele>1802.1</ele>
        <time>2013-08-27T14:38:07Z</time>
      </trkpt>
      <trkpt lat="45.65985" lon="6.63908">
        <ele>1801.7</ele>
        <time>2013-08-27T14:38:08Z</time>
      </trkpt>
      <trkpt lat="45.65983" lon="6.63908">
        <ele>1801.2</ele>
        <time>2013-08-27T14:38:09Z</time>
      </trkpt>
      <trkpt lat="45.65982" lon="6.63908">
        <ele>1801.2</ele>
        <time>2013-08-27T14:38:10Z</time>
      </trkpt>
      <trkpt lat="45.65969" lon="6.63903">
        <ele>1800.7</ele>
        <time>2013-08-27T14:38:22Z</time>
      </trkpt>
      <trkpt lat="45.65962" lon="6.63903">
        <ele>1800.7</ele>
        <time>2013-08-27T14:38:28Z</time>
      </trkpt>
      <trkpt lat="45.65961" lon="6.63903">
        <ele>1799.7</ele>
        <time>2013-08-27T14:38:29Z</time>
      </trkpt>
      <trkpt lat="45.6596" lon="6.63904">
        <ele>1799.2</ele>
        <time>2013-08-27T14:38:30Z</time>
      </trkpt>
      <trkpt lat="45.65958" lon="6.63905">
        <ele>1799.2</ele>
        <time>2013-08-27T14:38:31Z</time>
      </trkpt>
      <trkpt lat="45.65958" lon="6.63906">
        <ele>1799.7</ele>
        <time>2013-08-27T14:38:32Z</time>
      </trkpt>
      <trkpt lat="45.65953" lon="6.6391">
        <ele>1798.8</ele>
        <time>2013-08-27T14:38:37Z</time>
      </trkpt>
      <trkpt lat="45.65952" lon="6.63911">
        <ele>1798.8</ele>
        <time>2013-08-27T14:38:38Z</time>
      </trkpt>
      <trkpt lat="45.6595" lon="6.63912">
        <ele>1798.3</ele>
        <time>2013-08-27T14:38:40Z</time>
      </trkpt>
      <trkpt lat="45.65949" lon="6.63913">
        <ele>1798.3</ele>
        <time>2013-08-27T14:38:41Z</time>
      </trkpt>
      <trkpt lat="45.65948" lon="6.63915">
        <ele>1798.3</ele>
        <time>2013-08-27T14:38:42Z</time>
      </trkpt>
      <trkpt lat="45.65942" lon="6.63917">
        <ele>1798.8</ele>
        <time>2013-08-27T14:38:48Z</time>
      </trkpt>
      <trkpt lat="45.65941" lon="6.63917">
        <ele>1798.8</ele>
        <time>2013-08-27T14:38:49Z</time>
      </trkpt>
      <trkpt lat="45.6594" lon="6.63918">
        <ele>1798.8</ele>
        <time>2013-08-27T14:38:50Z</time>
      </trkpt>
      <trkpt lat="45.65938" lon="6.63919">
        <ele>1798.8</ele>
        <time>2013-08-27T14:38:52Z</time>
      </trkpt>
      <trkpt lat="45.65937" lon="6.6392">
        <ele>1799.2</ele>
        <time>2013-08-27T14:38:53Z</time>
      </trkpt>
      <trkpt lat="45.65936" lon="6.6392">
        <ele>1798.8</ele>
        <time>2013-08-27T14:38:54Z</time>
      </trkpt>
      <trkpt lat="45.65934" lon="6.63921">
        <ele>1798.3</ele>
        <time>2013-08-27T14:38:55Z</time>
      </trkpt>
      <trkpt lat="45.65933" lon="6.63921">
        <ele>1799.2</ele>
        <time>2013-08-27T14:38:56Z</time>
      </trkpt>
      <trkpt lat="45.65932" lon="6.63921">
        <ele>1798.3</ele>
        <time>2013-08-27T14:38:57Z</time>
      </trkpt>
      <trkpt lat="45.65919" lon="6.63922">
        <ele>1798.3</ele>
        <time>2013-08-27T14:39:09Z</time>
      </trkpt>
      <trkpt lat="45.65903" lon="6.63917">
        <ele>1799.2</ele>
        <time>2013-08-27T14:39:22Z</time>
      </trkpt>
      <trkpt lat="45.65902" lon="6.63918">
        <ele>1799.7</ele>
        <time>2013-08-27T14:39:23Z</time>
      </trkpt>
      <trkpt lat="45.65901" lon="6.63919">
        <ele>1798.8</ele>
        <time>2013-08-27T14:39:24Z</time>
      </trkpt>
      <trkpt lat="45.65891" lon="6.63933">
        <ele>1800.7</ele>
        <time>2013-08-27T14:39:38Z</time>
      </trkpt>
      <trkpt lat="45.65889" lon="6.63936">
        <ele>1800.7</ele>
        <time>2013-08-27T14:39:41Z</time>
      </trkpt>
      <trkpt lat="45.65886" lon="6.6394">
        <ele>1800.7</ele>
        <time>2013-08-27T14:39:45Z</time>
      </trkpt>
      <trkpt lat="45.65884" lon="6.63941">
        <ele>1800.7</ele>
        <time>2013-08-27T14:39:46Z</time>
      </trkpt>
      <trkpt lat="45.65874" lon="6.63946">
        <ele>1801.2</ele>
        <time>2013-08-27T14:39:58Z</time>
      </trkpt>
      <trkpt lat="45.65869" lon="6.63949">
        <ele>1802.6</ele>
        <time>2013-08-27T14:40:04Z</time>
      </trkpt>
      <trkpt lat="45.65868" lon="6.63949">
        <ele>1802.1</ele>
        <time>2013-08-27T14:40:05Z</time>
      </trkpt>
      <trkpt lat="45.65863" lon="6.63951">
        <ele>1803.1</ele>
        <time>2013-08-27T14:40:10Z</time>
      </trkpt>
      <trkpt lat="45.65862" lon="6.63951">
        <ele>1803.1</ele>
        <time>2013-08-27T14:40:11Z</time>
      </trkpt>
      <trkpt lat="45.65861" lon="6.63952">
        <ele>1802.6</ele>
        <time>2013-08-27T14:40:12Z</time>
      </trkpt>
      <trkpt lat="45.6586" lon="6.63953">
        <ele>1803.1</ele>
        <time>2013-08-27T14:40:13Z</time>
      </trkpt>
      <trkpt lat="45.65857" lon="6.63954">
        <ele>1804.1</ele>
        <time>2013-08-27T14:40:17Z</time>
      </trkpt>
      <trkpt lat="45.65856" lon="6.63954">
        <ele>1804.1</ele>
        <time>2013-08-27T14:40:18Z</time>
      </trkpt>
      <trkpt lat="45.65854" lon="6.63953">
        <ele>1803.6</ele>
        <time>2013-08-27T14:40:19Z</time>
      </trkpt>
      <trkpt lat="45.65853" lon="6.63953">
        <ele>1803.1</ele>
        <time>2013-08-27T14:40:20Z</time>
      </trkpt>
      <trkpt lat="45.65851" lon="6.63953">
        <ele>1803.1</ele>
        <time>2013-08-27T14:40:21Z</time>
      </trkpt>
      <trkpt lat="45.6585" lon="6.63953">
        <ele>1803.1</ele>
        <time>2013-08-27T14:40:22Z</time>
      </trkpt>
      <trkpt lat="45.65849" lon="6.63954">
        <ele>1803.6</ele>
        <time>2013-08-27T14:40:23Z</time>
      </trkpt>
      <trkpt lat="45.65848" lon="6.63954">
        <ele>1803.1</ele>
        <time>2013-08-27T14:40:24Z</time>
      </trkpt>
      <trkpt lat="45.65847" lon="6.63954">
        <ele>1803.6</ele>
        <time>2013-08-27T14:40:25Z</time>
      </trkpt>
      <trkpt lat="45.65837" lon="6.63961">
        <ele>1804.5</ele>
        <time>2013-08-27T14:40:35Z</time>
      </trkpt>
      <trkpt lat="45.65829" lon="6.63968">
        <ele>1807.4</ele>
        <time>2013-08-27T14:40:48Z</time>
      </trkpt>
      <trkpt lat="45.65822" lon="6.63968">
        <ele>1808.9</ele>
        <time>2013-08-27T14:41:03Z</time>
      </trkpt>
      <trkpt lat="45.65822" lon="6.6397">
        <ele>1808.9</ele>
        <time>2013-08-27T14:41:20Z</time>
      </trkpt>
      <trkpt lat="45.65822" lon="6.63969">
        <ele>1808.4</ele>
        <time>2013-08-27T14:41:47Z</time>
      </trkpt>
      <trkpt lat="45.6582" lon="6.63969">
        <ele>1808.4</ele>
        <time>2013-08-27T14:42:01Z</time>
      </trkpt>
      <trkpt lat="45.65801" lon="6.63971">
        <ele>1807.4</ele>
        <time>2013-08-27T14:42:20Z</time>
      </trkpt>
      <trkpt lat="45.65781" lon="6.63987">
        <ele>1804.5</ele>
        <time>2013-08-27T14:42:27Z</time>
      </trkpt>
      <trkpt lat="45.65777" lon="6.63987">
        <ele>1804.5</ele>
        <time>2013-08-27T14:42:28Z</time>
      </trkpt>
      <trkpt lat="45.65773" lon="6.63988">
        <ele>1804.1</ele>
        <time>2013-08-27T14:42:29Z</time>
      </trkpt>
      <trkpt lat="45.65769" lon="6.6399">
        <ele>1803.6</ele>
        <time>2013-08-27T14:42:30Z</time>
      </trkpt>
      <trkpt lat="45.65765" lon="6.63992">
        <ele>1803.1</ele>
        <time>2013-08-27T14:42:31Z</time>
      </trkpt>
      <trkpt lat="45.65761" lon="6.63993">
        <ele>1803.1</ele>
        <time>2013-08-27T14:42:32Z</time>
      </trkpt>
      <trkpt lat="45.65758" lon="6.63993">
        <ele>1803.6</ele>
        <time>2013-08-27T14:42:33Z</time>
      </trkpt>
      <trkpt lat="45.65755" lon="6.63995">
        <ele>1803.1</ele>
        <time>2013-08-27T14:42:34Z</time>
      </trkpt>
      <trkpt lat="45.65752" lon="6.63995">
        <ele>1803.1</ele>
        <time>2013-08-27T14:42:35Z</time>
      </trkpt>
      <trkpt lat="45.6573" lon="6.64001">
        <ele>1803.1</ele>
        <time>2013-08-27T14:42:44Z</time>
      </trkpt>
      <trkpt lat="45.65714" lon="6.64003">
        <ele>1801.2</ele>
        <time>2013-08-27T14:42:58Z</time>
      </trkpt>
      <trkpt lat="45.65681" lon="6.64009">
        <ele>1798.3</ele>
        <time>2013-08-27T14:43:08Z</time>
      </trkpt>
      <trkpt lat="45.65677" lon="6.6401">
        <ele>1798.3</ele>
        <time>2013-08-27T14:43:09Z</time>
      </trkpt>
      <trkpt lat="45.65647" lon="6.64021">
        <ele>1795.4</ele>
        <time>2013-08-27T14:43:18Z</time>
      </trkpt>
      <trkpt lat="45.65627" lon="6.64036">
        <ele>1793.5</ele>
        <time>2013-08-27T14:43:26Z</time>
      </trkpt>
      <trkpt lat="45.65619" lon="6.64049">
        <ele>1794</ele>
        <time>2013-08-27T14:43:33Z</time>
      </trkpt>
      <trkpt lat="45.65618" lon="6.64051">
        <ele>1794.4</ele>
        <time>2013-08-27T14:43:34Z</time>
      </trkpt>
      <trkpt lat="45.65617" lon="6.64054">
        <ele>1793.5</ele>
        <time>2013-08-27T14:43:35Z</time>
      </trkpt>
      <trkpt lat="45.65616" lon="6.64056">
        <ele>1794</ele>
        <time>2013-08-27T14:43:36Z</time>
      </trkpt>
      <trkpt lat="45.65615" lon="6.64059">
        <ele>1794</ele>
        <time>2013-08-27T14:43:37Z</time>
      </trkpt>
      <trkpt lat="45.65614" lon="6.6406">
        <ele>1794.4</ele>
        <time>2013-08-27T14:43:38Z</time>
      </trkpt>
      <trkpt lat="45.65612" lon="6.64062">
        <ele>1794.9</ele>
        <time>2013-08-27T14:43:39Z</time>
      </trkpt>
      <trkpt lat="45.65611" lon="6.64063">
        <ele>1794.9</ele>
        <time>2013-08-27T14:43:40Z</time>
      </trkpt>
      <trkpt lat="45.65595" lon="6.64079">
        <ele>1798.3</ele>
        <time>2013-08-27T14:43:53Z</time>
      </trkpt>
      <trkpt lat="45.65591" lon="6.64086">
        <ele>1798.8</ele>
        <time>2013-08-27T14:43:58Z</time>
      </trkpt>
      <trkpt lat="45.6559" lon="6.64087">
        <ele>1798.3</ele>
        <time>2013-08-27T14:43:59Z</time>
      </trkpt>
      <trkpt lat="45.65577" lon="6.64104">
        <ele>1801.7</ele>
        <time>2013-08-27T14:44:13Z</time>
      </trkpt>
      <trkpt lat="45.65554" lon="6.64123">
        <ele>1804.1</ele>
        <time>2013-08-27T14:44:34Z</time>
      </trkpt>
      <trkpt lat="45.65538" lon="6.64131">
        <ele>1806.5</ele>
        <time>2013-08-27T14:44:47Z</time>
      </trkpt>
      <trkpt lat="45.65518" lon="6.64148">
        <ele>1808.9</ele>
        <time>2013-08-27T14:45:05Z</time>
      </trkpt>
      <trkpt lat="45.65496" lon="6.64158">
        <ele>1811.7</ele>
        <time>2013-08-27T14:45:22Z</time>
      </trkpt>
      <trkpt lat="45.65473" lon="6.64154">
        <ele>1814.2</ele>
        <time>2013-08-27T14:45:39Z</time>
      </trkpt>
      <trkpt lat="45.65472" lon="6.64154">
        <ele>1813.7</ele>
        <time>2013-08-27T14:45:40Z</time>
      </trkpt>
      <trkpt lat="45.65471" lon="6.64155">
        <ele>1814.2</ele>
        <time>2013-08-27T14:45:41Z</time>
      </trkpt>
      <trkpt lat="45.6547" lon="6.64156">
        <ele>1814.2</ele>
        <time>2013-08-27T14:45:42Z</time>
      </trkpt>
      <trkpt lat="45.6547" lon="6.64158">
        <ele>1814.2</ele>
        <time>2013-08-27T14:45:43Z</time>
      </trkpt>
      <trkpt lat="45.65469" lon="6.64159">
        <ele>1814.6</ele>
        <time>2013-08-27T14:45:44Z</time>
      </trkpt>
      <trkpt lat="45.65468" lon="6.64161">
        <ele>1814.6</ele>
        <time>2013-08-27T14:45:45Z</time>
      </trkpt>
      <trkpt lat="45.65469" lon="6.64163">
        <ele>1814.2</ele>
        <time>2013-08-27T14:45:46Z</time>
      </trkpt>
      <trkpt lat="45.65469" lon="6.64164">
        <ele>1815.6</ele>
        <time>2013-08-27T14:45:47Z</time>
      </trkpt>
      <trkpt lat="45.6547" lon="6.64166">
        <ele>1814.6</ele>
        <time>2013-08-27T14:45:48Z</time>
      </trkpt>
      <trkpt lat="45.65471" lon="6.64167">
        <ele>1814.6</ele>
        <time>2013-08-27T14:45:49Z</time>
      </trkpt>
      <trkpt lat="45.65475" lon="6.64171">
        <ele>1815.6</ele>
        <time>2013-08-27T14:45:52Z</time>
      </trkpt>
      <trkpt lat="45.65476" lon="6.64171">
        <ele>1815.6</ele>
        <time>2013-08-27T14:45:53Z</time>
      </trkpt>
      <trkpt lat="45.65478" lon="6.64172">
        <ele>1815.6</ele>
        <time>2013-08-27T14:45:54Z</time>
      </trkpt>
      <trkpt lat="45.655" lon="6.64181">
        <ele>1818.5</ele>
        <time>2013-08-27T14:46:10Z</time>
      </trkpt>
      <trkpt lat="45.65521" lon="6.64185">
        <ele>1820.9</ele>
        <time>2013-08-27T14:46:25Z</time>
      </trkpt>
      <trkpt lat="45.65545" lon="6.6419">
        <ele>1823.8</ele>
        <time>2013-08-27T14:46:43Z</time>
      </trkpt>
      <trkpt lat="45.65557" lon="6.64195">
        <ele>1825.7</ele>
        <time>2013-08-27T14:46:52Z</time>
      </trkpt>
      <trkpt lat="45.65583" lon="6.64195">
        <ele>1828.6</ele>
        <time>2013-08-27T14:47:10Z</time>
      </trkpt>
      <trkpt lat="45.65605" lon="6.6419">
        <ele>1830.5</ele>
        <time>2013-08-27T14:47:25Z</time>
      </trkpt>
      <trkpt lat="45.65605" lon="6.64192">
        <ele>1829.1</ele>
        <time>2013-08-27T14:47:26Z</time>
      </trkpt>
      <trkpt lat="45.65606" lon="6.64194">
        <ele>1830</ele>
        <time>2013-08-27T14:47:27Z</time>
      </trkpt>
      <trkpt lat="45.65606" lon="6.64196">
        <ele>1830.5</ele>
        <time>2013-08-27T14:47:28Z</time>
      </trkpt>
      <trkpt lat="45.65606" lon="6.64198">
        <ele>1830.5</ele>
        <time>2013-08-27T14:47:29Z</time>
      </trkpt>
      <trkpt lat="45.65604" lon="6.642">
        <ele>1830.5</ele>
        <time>2013-08-27T14:47:30Z</time>
      </trkpt>
      <trkpt lat="45.65603" lon="6.64201">
        <ele>1830.5</ele>
        <time>2013-08-27T14:47:31Z</time>
      </trkpt>
      <trkpt lat="45.65602" lon="6.64202">
        <ele>1830.5</ele>
        <time>2013-08-27T14:47:32Z</time>
      </trkpt>
      <trkpt lat="45.656" lon="6.64203">
        <ele>1831</ele>
        <time>2013-08-27T14:47:33Z</time>
      </trkpt>
      <trkpt lat="45.65599" lon="6.64204">
        <ele>1831</ele>
        <time>2013-08-27T14:47:34Z</time>
      </trkpt>
      <trkpt lat="45.65597" lon="6.64204">
        <ele>1831.5</ele>
        <time>2013-08-27T14:47:35Z</time>
      </trkpt>
      <trkpt lat="45.65595" lon="6.64205">
        <ele>1831.5</ele>
        <time>2013-08-27T14:47:36Z</time>
      </trkpt>
      <trkpt lat="45.65594" lon="6.64205">
        <ele>1831.9</ele>
        <time>2013-08-27T14:47:37Z</time>
      </trkpt>
      <trkpt lat="45.65592" lon="6.64205">
        <ele>1831.5</ele>
        <time>2013-08-27T14:47:38Z</time>
      </trkpt>
      <trkpt lat="45.65564" lon="6.64225">
        <ele>1834.8</ele>
        <time>2013-08-27T14:47:57Z</time>
      </trkpt>
      <trkpt lat="45.65538" lon="6.64239">
        <ele>1836.7</ele>
        <time>2013-08-27T14:48:17Z</time>
      </trkpt>
      <trkpt lat="45.65523" lon="6.64246">
        <ele>1840.6</ele>
        <time>2013-08-27T14:48:31Z</time>
      </trkpt>
      <trkpt lat="45.65503" lon="6.64255">
        <ele>1842</ele>
        <time>2013-08-27T14:48:48Z</time>
      </trkpt>
      <trkpt lat="45.65484" lon="6.64267">
        <ele>1844.9</ele>
        <time>2013-08-27T14:49:02Z</time>
      </trkpt>
      <trkpt lat="45.65473" lon="6.64268">
        <ele>1846.4</ele>
        <time>2013-08-27T14:49:12Z</time>
      </trkpt>
      <trkpt lat="45.65472" lon="6.64269">
        <ele>1846.4</ele>
        <time>2013-08-27T14:49:13Z</time>
      </trkpt>
      <trkpt lat="45.65469" lon="6.64273">
        <ele>1847.3</ele>
        <time>2013-08-27T14:49:16Z</time>
      </trkpt>
      <trkpt lat="45.65469" lon="6.64275">
        <ele>1847.8</ele>
        <time>2013-08-27T14:49:17Z</time>
      </trkpt>
      <trkpt lat="45.6547" lon="6.64277">
        <ele>1847.8</ele>
        <time>2013-08-27T14:49:18Z</time>
      </trkpt>
      <trkpt lat="45.65471" lon="6.64278">
        <ele>1847.3</ele>
        <time>2013-08-27T14:49:19Z</time>
      </trkpt>
      <trkpt lat="45.65472" lon="6.6428">
        <ele>1846.8</ele>
        <time>2013-08-27T14:49:20Z</time>
      </trkpt>
      <trkpt lat="45.65474" lon="6.64281">
        <ele>1847.3</ele>
        <time>2013-08-27T14:49:21Z</time>
      </trkpt>
      <trkpt lat="45.65475" lon="6.64281">
        <ele>1847.8</ele>
        <time>2013-08-27T14:49:22Z</time>
      </trkpt>
      <trkpt lat="45.65477" lon="6.64282">
        <ele>1848.3</ele>
        <time>2013-08-27T14:49:23Z</time>
      </trkpt>
      <trkpt lat="45.65478" lon="6.64282">
        <ele>1848.8</ele>
        <time>2013-08-27T14:49:24Z</time>
      </trkpt>
      <trkpt lat="45.6548" lon="6.64282">
        <ele>1848.3</ele>
        <time>2013-08-27T14:49:25Z</time>
      </trkpt>
      <trkpt lat="45.65499" lon="6.64281">
        <ele>1851.6</ele>
        <time>2013-08-27T14:49:40Z</time>
      </trkpt>
      <trkpt lat="45.65518" lon="6.64278">
        <ele>1854.5</ele>
        <time>2013-08-27T14:49:58Z</time>
      </trkpt>
      <trkpt lat="45.65526" lon="6.64279">
        <ele>1856.4</ele>
        <time>2013-08-27T14:50:05Z</time>
      </trkpt>
      <trkpt lat="45.65546" lon="6.64283">
        <ele>1859.8</ele>
        <time>2013-08-27T14:50:24Z</time>
      </trkpt>
      <trkpt lat="45.6555" lon="6.64285">
        <ele>1860.3</ele>
        <time>2013-08-27T14:50:28Z</time>
      </trkpt>
      <trkpt lat="45.65551" lon="6.64286">
        <ele>1861.3</ele>
        <time>2013-08-27T14:50:29Z</time>
      </trkpt>
      <trkpt lat="45.65552" lon="6.64287">
        <ele>1861.3</ele>
        <time>2013-08-27T14:50:30Z</time>
      </trkpt>
      <trkpt lat="45.65553" lon="6.64289">
        <ele>1861.3</ele>
        <time>2013-08-27T14:50:31Z</time>
      </trkpt>
      <trkpt lat="45.65554" lon="6.6429">
        <ele>1861.3</ele>
        <time>2013-08-27T14:50:32Z</time>
      </trkpt>
      <trkpt lat="45.65555" lon="6.6429">
        <ele>1861.7</ele>
        <time>2013-08-27T14:50:33Z</time>
      </trkpt>
      <trkpt lat="45.65561" lon="6.64293">
        <ele>1861.7</ele>
        <time>2013-08-27T14:50:38Z</time>
      </trkpt>
      <trkpt lat="45.65563" lon="6.64293">
        <ele>1862.2</ele>
        <time>2013-08-27T14:50:39Z</time>
      </trkpt>
      <trkpt lat="45.65564" lon="6.64292">
        <ele>1861.7</ele>
        <time>2013-08-27T14:50:40Z</time>
      </trkpt>
      <trkpt lat="45.65565" lon="6.64291">
        <ele>1862.2</ele>
        <time>2013-08-27T14:50:41Z</time>
      </trkpt>
      <trkpt lat="45.65566" lon="6.64291">
        <ele>1862.7</ele>
        <time>2013-08-27T14:50:42Z</time>
      </trkpt>
      <trkpt lat="45.65567" lon="6.64289">
        <ele>1863.2</ele>
        <time>2013-08-27T14:50:43Z</time>
      </trkpt>
      <trkpt lat="45.65568" lon="6.64289">
        <ele>1863.2</ele>
        <time>2013-08-27T14:50:44Z</time>
      </trkpt>
      <trkpt lat="45.6557" lon="6.64288">
        <ele>1863.2</ele>
        <time>2013-08-27T14:50:45Z</time>
      </trkpt>
      <trkpt lat="45.65571" lon="6.64287">
        <ele>1863.2</ele>
        <time>2013-08-27T14:50:46Z</time>
      </trkpt>
      <trkpt lat="45.65592" lon="6.64277">
        <ele>1866.1</ele>
        <time>2013-08-27T14:51:02Z</time>
      </trkpt>
      <trkpt lat="45.65617" lon="6.64276">
        <ele>1868.9</ele>
        <time>2013-08-27T14:51:20Z</time>
      </trkpt>
      <trkpt lat="45.65635" lon="6.64278">
        <ele>1871.3</ele>
        <time>2013-08-27T14:51:36Z</time>
      </trkpt>
      <trkpt lat="45.65656" lon="6.64279">
        <ele>1874.7</ele>
        <time>2013-08-27T14:51:51Z</time>
      </trkpt>
      <trkpt lat="45.65682" lon="6.64272">
        <ele>1876.6</ele>
        <time>2013-08-27T14:52:09Z</time>
      </trkpt>
      <trkpt lat="45.65683" lon="6.64272">
        <ele>1876.6</ele>
        <time>2013-08-27T14:52:10Z</time>
      </trkpt>
      <trkpt lat="45.65687" lon="6.64273">
        <ele>1876.6</ele>
        <time>2013-08-27T14:52:14Z</time>
      </trkpt>
      <trkpt lat="45.65688" lon="6.64275">
        <ele>1877.1</ele>
        <time>2013-08-27T14:52:15Z</time>
      </trkpt>
      <trkpt lat="45.65688" lon="6.64277">
        <ele>1877.1</ele>
        <time>2013-08-27T14:52:16Z</time>
      </trkpt>
      <trkpt lat="45.65687" lon="6.64278">
        <ele>1877.1</ele>
        <time>2013-08-27T14:52:17Z</time>
      </trkpt>
      <trkpt lat="45.65686" lon="6.6428">
        <ele>1877.1</ele>
        <time>2013-08-27T14:52:18Z</time>
      </trkpt>
      <trkpt lat="45.65685" lon="6.64282">
        <ele>1877.6</ele>
        <time>2013-08-27T14:52:19Z</time>
      </trkpt>
      <trkpt lat="45.65684" lon="6.64283">
        <ele>1878.1</ele>
        <time>2013-08-27T14:52:20Z</time>
      </trkpt>
      <trkpt lat="45.65683" lon="6.64283">
        <ele>1878.1</ele>
        <time>2013-08-27T14:52:21Z</time>
      </trkpt>
      <trkpt lat="45.65667" lon="6.64294">
        <ele>1880.5</ele>
        <time>2013-08-27T14:52:36Z</time>
      </trkpt>
      <trkpt lat="45.65651" lon="6.64301">
        <ele>1883.4</ele>
        <time>2013-08-27T14:52:49Z</time>
      </trkpt>
      <trkpt lat="45.65631" lon="6.64308">
        <ele>1884.8</ele>
        <time>2013-08-27T14:53:02Z</time>
      </trkpt>
      <trkpt lat="45.65617" lon="6.64318">
        <ele>1888.2</ele>
        <time>2013-08-27T14:53:15Z</time>
      </trkpt>
      <trkpt lat="45.65605" lon="6.64334">
        <ele>1891.5</ele>
        <time>2013-08-27T14:53:29Z</time>
      </trkpt>
      <trkpt lat="45.65601" lon="6.6434">
        <ele>1893.5</ele>
        <time>2013-08-27T14:53:35Z</time>
      </trkpt>
      <trkpt lat="45.65589" lon="6.64349">
        <ele>1895.4</ele>
        <time>2013-08-27T14:53:51Z</time>
      </trkpt>
      <trkpt lat="45.65582" lon="6.64351">
        <ele>1897.3</ele>
        <time>2013-08-27T14:54:04Z</time>
      </trkpt>
      <trkpt lat="45.65576" lon="6.64356">
        <ele>1898.7</ele>
        <time>2013-08-27T14:54:21Z</time>
      </trkpt>
      <trkpt lat="45.65574" lon="6.64366">
        <ele>1899.7</ele>
        <time>2013-08-27T14:54:36Z</time>
      </trkpt>
      <trkpt lat="45.65571" lon="6.64367">
        <ele>1899.7</ele>
        <time>2013-08-27T14:55:02Z</time>
      </trkpt>
      <trkpt lat="45.65554" lon="6.64375">
        <ele>1902.6</ele>
        <time>2013-08-27T14:55:16Z</time>
      </trkpt>
      <trkpt lat="45.65541" lon="6.64379">
        <ele>1905.5</ele>
        <time>2013-08-27T14:55:28Z</time>
      </trkpt>
      <trkpt lat="45.65521" lon="6.64378">
        <ele>1908.4</ele>
        <time>2013-08-27T14:55:45Z</time>
      </trkpt>
      <trkpt lat="45.65504" lon="6.64383">
        <ele>1911.7</ele>
        <time>2013-08-27T14:56:01Z</time>
      </trkpt>
      <trkpt lat="45.65488" lon="6.644">
        <ele>1914.6</ele>
        <time>2013-08-27T14:56:19Z</time>
      </trkpt>
      <trkpt lat="45.65471" lon="6.64415">
        <ele>1917.5</ele>
        <time>2013-08-27T14:56:35Z</time>
      </trkpt>
      <trkpt lat="45.65448" lon="6.64435">
        <ele>1918.5</ele>
        <time>2013-08-27T14:56:52Z</time>
      </trkpt>
      <trkpt lat="45.65427" lon="6.64421">
        <ele>1921.3</ele>
        <time>2013-08-27T14:57:07Z</time>
      </trkpt>
      <trkpt lat="45.65401" lon="6.6442">
        <ele>1924.7</ele>
        <time>2013-08-27T14:57:24Z</time>
      </trkpt>
      <trkpt lat="45.6538" lon="6.64417">
        <ele>1926.6</ele>
        <time>2013-08-27T14:57:37Z</time>
      </trkpt>
      <trkpt lat="45.65353" lon="6.64426">
        <ele>1928.5</ele>
        <time>2013-08-27T14:57:54Z</time>
      </trkpt>
      <trkpt lat="45.65342" lon="6.64414">
        <ele>1929</ele>
        <time>2013-08-27T14:58:02Z</time>
      </trkpt>
      <trkpt lat="45.65331" lon="6.64402">
        <ele>1931.9</ele>
        <time>2013-08-27T14:58:12Z</time>
      </trkpt>
      <trkpt lat="45.65313" lon="6.64399">
        <ele>1934.8</ele>
        <time>2013-08-27T14:58:26Z</time>
      </trkpt>
      <trkpt lat="45.65312" lon="6.64399">
        <ele>1934.3</ele>
        <time>2013-08-27T14:58:27Z</time>
      </trkpt>
      <trkpt lat="45.65288" lon="6.64393">
        <ele>1935.3</ele>
        <time>2013-08-27T14:58:42Z</time>
      </trkpt>
      <trkpt lat="45.65268" lon="6.64374">
        <ele>1934.8</ele>
        <time>2013-08-27T14:58:55Z</time>
      </trkpt>
      <trkpt lat="45.65265" lon="6.64361">
        <ele>1936.2</ele>
        <time>2013-08-27T14:59:02Z</time>
      </trkpt>
      <trkpt lat="45.65263" lon="6.64355">
        <ele>1937.2</ele>
        <time>2013-08-27T14:59:14Z</time>
      </trkpt>
      <trkpt lat="45.6526" lon="6.64345">
        <ele>1938.2</ele>
        <time>2013-08-27T14:59:32Z</time>
      </trkpt>
      <trkpt lat="45.65253" lon="6.64334">
        <ele>1940.6</ele>
        <time>2013-08-27T14:59:49Z</time>
      </trkpt>
      <trkpt lat="45.65247" lon="6.64318">
        <ele>1942.5</ele>
        <time>2013-08-27T15:00:08Z</time>
      </trkpt>
      <trkpt lat="45.65242" lon="6.64305">
        <ele>1945.4</ele>
        <time>2013-08-27T15:00:26Z</time>
      </trkpt>
      <trkpt lat="45.65238" lon="6.64292">
        <ele>1946.8</ele>
        <time>2013-08-27T15:00:41Z</time>
      </trkpt>
      <trkpt lat="45.65231" lon="6.64276">
        <ele>1949.7</ele>
        <time>2013-08-27T15:01:00Z</time>
      </trkpt>
      <trkpt lat="45.65228" lon="6.64272">
        <ele>1951.1</ele>
        <time>2013-08-27T15:01:07Z</time>
      </trkpt>
      <trkpt lat="45.65214" lon="6.64263">
        <ele>1952.6</ele>
        <time>2013-08-27T15:01:27Z</time>
      </trkpt>
      <trkpt lat="45.65205" lon="6.64256">
        <ele>1955.9</ele>
        <time>2013-08-27T15:01:43Z</time>
      </trkpt>
      <trkpt lat="45.65194" lon="6.64247">
        <ele>1958.8</ele>
        <time>2013-08-27T15:02:00Z</time>
      </trkpt>
      <trkpt lat="45.65184" lon="6.64236">
        <ele>1960.3</ele>
        <time>2013-08-27T15:02:16Z</time>
      </trkpt>
      <trkpt lat="45.65176" lon="6.64228">
        <ele>1961.7</ele>
        <time>2013-08-27T15:02:30Z</time>
      </trkpt>
      <trkpt lat="45.6517" lon="6.64221">
        <ele>1963.6</ele>
        <time>2013-08-27T15:02:48Z</time>
      </trkpt>
      <trkpt lat="45.65159" lon="6.64212">
        <ele>1966.5</ele>
        <time>2013-08-27T15:03:04Z</time>
      </trkpt>
      <trkpt lat="45.65146" lon="6.64203">
        <ele>1969.4</ele>
        <time>2013-08-27T15:03:23Z</time>
      </trkpt>
      <trkpt lat="45.65143" lon="6.64202">
        <ele>1968.9</ele>
        <time>2013-08-27T15:03:40Z</time>
      </trkpt>
      <trkpt lat="45.65143" lon="6.64202">
        <ele>1969.9</ele>
        <time>2013-08-27T15:04:20Z</time>
      </trkpt>
      <trkpt lat="45.65143" lon="6.642">
        <ele>1969.9</ele>
        <time>2013-08-27T15:04:56Z</time>
      </trkpt>
      <trkpt lat="45.65137" lon="6.64196">
        <ele>1970.8</ele>
        <time>2013-08-27T15:05:10Z</time>
      </trkpt>
      <trkpt lat="45.65136" lon="6.64196">
        <ele>1970.8</ele>
        <time>2013-08-27T15:05:11Z</time>
      </trkpt>
      <trkpt lat="45.65136" lon="6.64195">
        <ele>1970.4</ele>
        <time>2013-08-27T15:05:12Z</time>
      </trkpt>
      <trkpt lat="45.65135" lon="6.64193">
        <ele>1971.3</ele>
        <time>2013-08-27T15:05:13Z</time>
      </trkpt>
      <trkpt lat="45.65134" lon="6.64192">
        <ele>1971.3</ele>
        <time>2013-08-27T15:05:14Z</time>
      </trkpt>
      <trkpt lat="45.65133" lon="6.6419">
        <ele>1971.3</ele>
        <time>2013-08-27T15:05:15Z</time>
      </trkpt>
      <trkpt lat="45.65133" lon="6.64188">
        <ele>1971.8</ele>
        <time>2013-08-27T15:05:16Z</time>
      </trkpt>
      <trkpt lat="45.65132" lon="6.64187">
        <ele>1971.8</ele>
        <time>2013-08-27T15:05:17Z</time>
      </trkpt>
      <trkpt lat="45.65131" lon="6.64185">
        <ele>1971.8</ele>
        <time>2013-08-27T15:05:18Z</time>
      </trkpt>
      <trkpt lat="45.6513" lon="6.64183">
        <ele>1971.3</ele>
        <time>2013-08-27T15:05:19Z</time>
      </trkpt>
      <trkpt lat="45.6513" lon="6.64181">
        <ele>1971.8</ele>
        <time>2013-08-27T15:05:20Z</time>
      </trkpt>
      <trkpt lat="45.65129" lon="6.64179">
        <ele>1971.8</ele>
        <time>2013-08-27T15:05:21Z</time>
      </trkpt>
      <trkpt lat="45.65129" lon="6.64177">
        <ele>1972.3</ele>
        <time>2013-08-27T15:05:22Z</time>
      </trkpt>
      <trkpt lat="45.65128" lon="6.64175">
        <ele>1972.3</ele>
        <time>2013-08-27T15:05:23Z</time>
      </trkpt>
      <trkpt lat="45.65128" lon="6.64172">
        <ele>1972.3</ele>
        <time>2013-08-27T15:05:24Z</time>
      </trkpt>
      <trkpt lat="45.65121" lon="6.64153">
        <ele>1973.7</ele>
        <time>2013-08-27T15:05:35Z</time>
      </trkpt>
      <trkpt lat="45.6512" lon="6.64154">
        <ele>1973.7</ele>
        <time>2013-08-27T15:05:36Z</time>
      </trkpt>
      <trkpt lat="45.65119" lon="6.64155">
        <ele>1973.7</ele>
        <time>2013-08-27T15:05:37Z</time>
      </trkpt>
      <trkpt lat="45.65118" lon="6.64158">
        <ele>1974.7</ele>
        <time>2013-08-27T15:05:39Z</time>
      </trkpt>
      <trkpt lat="45.65117" lon="6.6416">
        <ele>1974.7</ele>
        <time>2013-08-27T15:05:40Z</time>
      </trkpt>
      <trkpt lat="45.65122" lon="6.64184">
        <ele>1975.7</ele>
        <time>2013-08-27T15:05:52Z</time>
      </trkpt>
      <trkpt lat="45.65122" lon="6.64186">
        <ele>1976.6</ele>
        <time>2013-08-27T15:05:53Z</time>
      </trkpt>
      <trkpt lat="45.65121" lon="6.64188">
        <ele>1976.6</ele>
        <time>2013-08-27T15:05:54Z</time>
      </trkpt>
      <trkpt lat="45.6512" lon="6.64189">
        <ele>1976.6</ele>
        <time>2013-08-27T15:05:55Z</time>
      </trkpt>
      <trkpt lat="45.65119" lon="6.6419">
        <ele>1976.6</ele>
        <time>2013-08-27T15:05:56Z</time>
      </trkpt>
      <trkpt lat="45.65118" lon="6.6419">
        <ele>1977.1</ele>
        <time>2013-08-27T15:05:57Z</time>
      </trkpt>
      <trkpt lat="45.65117" lon="6.64189">
        <ele>1977.6</ele>
        <time>2013-08-27T15:05:58Z</time>
      </trkpt>
      <trkpt lat="45.65116" lon="6.64187">
        <ele>1976.6</ele>
        <time>2013-08-27T15:05:59Z</time>
      </trkpt>
      <trkpt lat="45.65115" lon="6.64186">
        <ele>1977.1</ele>
        <time>2013-08-27T15:06:00Z</time>
      </trkpt>
      <trkpt lat="45.65114" lon="6.64184">
        <ele>1978.1</ele>
        <time>2013-08-27T15:06:01Z</time>
      </trkpt>
      <trkpt lat="45.65114" lon="6.64182">
        <ele>1977.6</ele>
        <time>2013-08-27T15:06:02Z</time>
      </trkpt>
      <trkpt lat="45.65113" lon="6.6418">
        <ele>1977.6</ele>
        <time>2013-08-27T15:06:03Z</time>
      </trkpt>
      <trkpt lat="45.65106" lon="6.64154">
        <ele>1980.9</ele>
        <time>2013-08-27T15:06:20Z</time>
      </trkpt>
      <trkpt lat="45.65101" lon="6.64143">
        <ele>1981.9</ele>
        <time>2013-08-27T15:06:30Z</time>
      </trkpt>
      <trkpt lat="45.65095" lon="6.64138">
        <ele>1983.3</ele>
        <time>2013-08-27T15:06:37Z</time>
      </trkpt>
      <trkpt lat="45.65094" lon="6.64138">
        <ele>1984.3</ele>
        <time>2013-08-27T15:06:38Z</time>
      </trkpt>
      <trkpt lat="45.65075" lon="6.6414">
        <ele>1987.2</ele>
        <time>2013-08-27T15:06:55Z</time>
      </trkpt>
      <trkpt lat="45.65074" lon="6.64141">
        <ele>1987.7</ele>
        <time>2013-08-27T15:06:56Z</time>
      </trkpt>
      <trkpt lat="45.65061" lon="6.64149">
        <ele>1989.6</ele>
        <time>2013-08-27T15:07:09Z</time>
      </trkpt>
      <trkpt lat="45.6506" lon="6.6415">
        <ele>1989.6</ele>
        <time>2013-08-27T15:07:10Z</time>
      </trkpt>
      <trkpt lat="45.65059" lon="6.64151">
        <ele>1989.6</ele>
        <time>2013-08-27T15:07:11Z</time>
      </trkpt>
      <trkpt lat="45.65058" lon="6.64152">
        <ele>1989.6</ele>
        <time>2013-08-27T15:07:12Z</time>
      </trkpt>
      <trkpt lat="45.65057" lon="6.64153">
        <ele>1990.1</ele>
        <time>2013-08-27T15:07:13Z</time>
      </trkpt>
      <trkpt lat="45.65038" lon="6.64171">
        <ele>1993</ele>
        <time>2013-08-27T15:07:31Z</time>
      </trkpt>
      <trkpt lat="45.65023" lon="6.64184">
        <ele>1995.8</ele>
        <time>2013-08-27T15:07:46Z</time>
      </trkpt>
      <trkpt lat="45.65018" lon="6.64188">
        <ele>1997.3</ele>
        <time>2013-08-27T15:07:59Z</time>
      </trkpt>
      <trkpt lat="45.65017" lon="6.64186">
        <ele>1997.8</ele>
        <time>2013-08-27T15:08:11Z</time>
      </trkpt>
      <trkpt lat="45.65015" lon="6.64182">
        <ele>1997.3</ele>
        <time>2013-08-27T15:08:37Z</time>
      </trkpt>
      <trkpt lat="45.65016" lon="6.64181">
        <ele>1996.8</ele>
        <time>2013-08-27T15:09:13Z</time>
      </trkpt>
      <trkpt lat="45.65018" lon="6.6419">
        <ele>1997.8</ele>
        <time>2013-08-27T15:09:54Z</time>
      </trkpt>
      <trkpt lat="45.65017" lon="6.64193">
        <ele>1997.8</ele>
        <time>2013-08-27T15:10:12Z</time>
      </trkpt>
      <trkpt lat="45.65015" lon="6.64194">
        <ele>1997.8</ele>
        <time>2013-08-27T15:10:13Z</time>
      </trkpt>
      <trkpt lat="45.65014" lon="6.64194">
        <ele>1998.7</ele>
        <time>2013-08-27T15:10:14Z</time>
      </trkpt>
      <trkpt lat="45.65013" lon="6.64194">
        <ele>1998.2</ele>
        <time>2013-08-27T15:10:15Z</time>
      </trkpt>
      <trkpt lat="45.65012" lon="6.64195">
        <ele>1998.7</ele>
        <time>2013-08-27T15:10:16Z</time>
      </trkpt>
      <trkpt lat="45.65011" lon="6.64195">
        <ele>1998.2</ele>
        <time>2013-08-27T15:10:17Z</time>
      </trkpt>
      <trkpt lat="45.6501" lon="6.64196">
        <ele>1998.7</ele>
        <time>2013-08-27T15:10:18Z</time>
      </trkpt>
      <trkpt lat="45.65009" lon="6.64197">
        <ele>1999.2</ele>
        <time>2013-08-27T15:10:19Z</time>
      </trkpt>
      <trkpt lat="45.64992" lon="6.64203">
        <ele>2002.1</ele>
        <time>2013-08-27T15:10:35Z</time>
      </trkpt>
      <trkpt lat="45.64981" lon="6.64208">
        <ele>2004</ele>
        <time>2013-08-27T15:10:46Z</time>
      </trkpt>
      <trkpt lat="45.6498" lon="6.6421">
        <ele>2003.5</ele>
        <time>2013-08-27T15:10:47Z</time>
      </trkpt>
      <trkpt lat="45.64986" lon="6.64229">
        <ele>2007.9</ele>
        <time>2013-08-27T15:11:02Z</time>
      </trkpt>
      <trkpt lat="45.64987" lon="6.64237">
        <ele>2008.3</ele>
        <time>2013-08-27T15:11:07Z</time>
      </trkpt>
      <trkpt lat="45.64987" lon="6.64243">
        <ele>2008.3</ele>
        <time>2013-08-27T15:11:11Z</time>
      </trkpt>
      <trkpt lat="45.64986" lon="6.64244">
        <ele>2008.3</ele>
        <time>2013-08-27T15:11:12Z</time>
      </trkpt>
      <trkpt lat="45.64986" lon="6.64246">
        <ele>2008.8</ele>
        <time>2013-08-27T15:11:13Z</time>
      </trkpt>
      <trkpt lat="45.64985" lon="6.64247">
        <ele>2009.3</ele>
        <time>2013-08-27T15:11:14Z</time>
      </trkpt>
      <trkpt lat="45.64983" lon="6.64248">
        <ele>2009.3</ele>
        <time>2013-08-27T15:11:15Z</time>
      </trkpt>
      <trkpt lat="45.64982" lon="6.64249">
        <ele>2009.3</ele>
        <time>2013-08-27T15:11:16Z</time>
      </trkpt>
      <trkpt lat="45.64981" lon="6.6425">
        <ele>2009.3</ele>
        <time>2013-08-27T15:11:17Z</time>
      </trkpt>
      <trkpt lat="45.64959" lon="6.64257">
        <ele>2011.2</ele>
        <time>2013-08-27T15:11:32Z</time>
      </trkpt>
      <trkpt lat="45.64927" lon="6.64231">
        <ele>2012.7</ele>
        <time>2013-08-27T15:11:52Z</time>
      </trkpt>
      <trkpt lat="45.64909" lon="6.6422">
        <ele>2015.1</ele>
        <time>2013-08-27T15:12:05Z</time>
      </trkpt>
      <trkpt lat="45.64908" lon="6.64219">
        <ele>2015.5</ele>
        <time>2013-08-27T15:12:06Z</time>
      </trkpt>
      <trkpt lat="45.64897" lon="6.64211">
        <ele>2017</ele>
        <time>2013-08-27T15:12:16Z</time>
      </trkpt>
      <trkpt lat="45.64874" lon="6.64196">
        <ele>2019.4</ele>
        <time>2013-08-27T15:12:35Z</time>
      </trkpt>
      <trkpt lat="45.64868" lon="6.64191">
        <ele>2022.3</ele>
        <time>2013-08-27T15:12:41Z</time>
      </trkpt>
      <trkpt lat="45.64851" lon="6.64176">
        <ele>2025.6</ele>
        <time>2013-08-27T15:12:59Z</time>
      </trkpt>
      <trkpt lat="45.64831" lon="6.6416">
        <ele>2027.6</ele>
        <time>2013-08-27T15:13:17Z</time>
      </trkpt>
      <trkpt lat="45.64799" lon="6.64146">
        <ele>2029</ele>
        <time>2013-08-27T15:13:36Z</time>
      </trkpt>
      <trkpt lat="45.64777" lon="6.6413">
        <ele>2031.4</ele>
        <time>2013-08-27T15:13:50Z</time>
      </trkpt>
      <trkpt lat="45.64753" lon="6.64104">
        <ele>2031.4</ele>
        <time>2013-08-27T15:14:07Z</time>
      </trkpt>
      <trkpt lat="45.64738" lon="6.64076">
        <ele>2032.8</ele>
        <time>2013-08-27T15:14:20Z</time>
      </trkpt>
      <trkpt lat="45.6472" lon="6.64032">
        <ele>2034.8</ele>
        <time>2013-08-27T15:14:38Z</time>
      </trkpt>
      <trkpt lat="45.64715" lon="6.64031">
        <ele>2033.3</ele>
        <time>2013-08-27T15:14:50Z</time>
      </trkpt>
      <trkpt lat="45.64715" lon="6.64033">
        <ele>2033.8</ele>
        <time>2013-08-27T15:14:58Z</time>
      </trkpt>
      <trkpt lat="45.64695" lon="6.63991">
        <ele>2032.8</ele>
        <time>2013-08-27T15:15:12Z</time>
      </trkpt>
      <trkpt lat="45.64703" lon="6.63966">
        <ele>2034.3</ele>
        <time>2013-08-27T15:15:25Z</time>
      </trkpt>
      <trkpt lat="45.64724" lon="6.63952">
        <ele>2037.7</ele>
        <time>2013-08-27T15:15:41Z</time>
      </trkpt>
      <trkpt lat="45.64737" lon="6.6394">
        <ele>2040.5</ele>
        <time>2013-08-27T15:15:53Z</time>
      </trkpt>
      <trkpt lat="45.64738" lon="6.63936">
        <ele>2040.5</ele>
        <time>2013-08-27T15:15:56Z</time>
      </trkpt>
      <trkpt lat="45.64739" lon="6.63934">
        <ele>2040.5</ele>
        <time>2013-08-27T15:15:57Z</time>
      </trkpt>
      <trkpt lat="45.6474" lon="6.63933">
        <ele>2041</ele>
        <time>2013-08-27T15:15:58Z</time>
      </trkpt>
      <trkpt lat="45.64741" lon="6.63932">
        <ele>2040.5</ele>
        <time>2013-08-27T15:15:59Z</time>
      </trkpt>
      <trkpt lat="45.64741" lon="6.6393">
        <ele>2041.5</ele>
        <time>2013-08-27T15:16:00Z</time>
      </trkpt>
      <trkpt lat="45.64742" lon="6.6393">
        <ele>2041</ele>
        <time>2013-08-27T15:16:01Z</time>
      </trkpt>
      <trkpt lat="45.64744" lon="6.63926">
        <ele>2042.5</ele>
        <time>2013-08-27T15:16:04Z</time>
      </trkpt>
      <trkpt lat="45.64744" lon="6.63924">
        <ele>2042</ele>
        <time>2013-08-27T15:16:05Z</time>
      </trkpt>
      <trkpt lat="45.64752" lon="6.63905">
        <ele>2044.4</ele>
        <time>2013-08-27T15:16:20Z</time>
      </trkpt>
      <trkpt lat="45.64756" lon="6.63894">
        <ele>2045.3</ele>
        <time>2013-08-27T15:16:28Z</time>
      </trkpt>
      <trkpt lat="45.64757" lon="6.63893">
        <ele>2045.3</ele>
        <time>2013-08-27T15:16:29Z</time>
      </trkpt>
      <trkpt lat="45.64759" lon="6.63884">
        <ele>2046.3</ele>
        <time>2013-08-27T15:16:34Z</time>
      </trkpt>
      <trkpt lat="45.64758" lon="6.63882">
        <ele>2046.8</ele>
        <time>2013-08-27T15:16:35Z</time>
      </trkpt>
      <trkpt lat="45.64758" lon="6.6388">
        <ele>2046.8</ele>
        <time>2013-08-27T15:16:36Z</time>
      </trkpt>
      <trkpt lat="45.64755" lon="6.63848">
        <ele>2048.7</ele>
        <time>2013-08-27T15:16:52Z</time>
      </trkpt>
      <trkpt lat="45.64772" lon="6.6384">
        <ele>2049.2</ele>
        <time>2013-08-27T15:17:02Z</time>
      </trkpt>
      <trkpt lat="45.64787" lon="6.63846">
        <ele>2052.1</ele>
        <time>2013-08-27T15:17:11Z</time>
      </trkpt>
      <trkpt lat="45.64805" lon="6.63837">
        <ele>2054</ele>
        <time>2013-08-27T15:17:26Z</time>
      </trkpt>
      <trkpt lat="45.64827" lon="6.63809">
        <ele>2055.9</ele>
        <time>2013-08-27T15:17:44Z</time>
      </trkpt>
      <trkpt lat="45.64851" lon="6.63793">
        <ele>2057.4</ele>
        <time>2013-08-27T15:17:58Z</time>
      </trkpt>
      <trkpt lat="45.64844" lon="6.63775">
        <ele>2058.8</ele>
        <time>2013-08-27T15:18:09Z</time>
      </trkpt>
      <trkpt lat="45.64828" lon="6.63766">
        <ele>2061.7</ele>
        <time>2013-08-27T15:18:25Z</time>
      </trkpt>
      <trkpt lat="45.64817" lon="6.63754">
        <ele>2064.6</ele>
        <time>2013-08-27T15:18:36Z</time>
      </trkpt>
      <trkpt lat="45.64807" lon="6.63741">
        <ele>2066</ele>
        <time>2013-08-27T15:18:48Z</time>
      </trkpt>
      <trkpt lat="45.64807" lon="6.6374">
        <ele>2066</ele>
        <time>2013-08-27T15:18:49Z</time>
      </trkpt>
      <trkpt lat="45.64806" lon="6.63739">
        <ele>2067</ele>
        <time>2013-08-27T15:18:50Z</time>
      </trkpt>
      <trkpt lat="45.64804" lon="6.63738">
        <ele>2067</ele>
        <time>2013-08-27T15:18:51Z</time>
      </trkpt>
      <trkpt lat="45.64803" lon="6.63736">
        <ele>2067</ele>
        <time>2013-08-27T15:18:52Z</time>
      </trkpt>
      <trkpt lat="45.64802" lon="6.63735">
        <ele>2067</ele>
        <time>2013-08-27T15:18:53Z</time>
      </trkpt>
      <trkpt lat="45.64802" lon="6.63734">
        <ele>2067</ele>
        <time>2013-08-27T15:18:54Z</time>
      </trkpt>
      <trkpt lat="45.64801" lon="6.63733">
        <ele>2067.5</ele>
        <time>2013-08-27T15:18:55Z</time>
      </trkpt>
      <trkpt lat="45.64801" lon="6.63732">
        <ele>2067.5</ele>
        <time>2013-08-27T15:18:56Z</time>
      </trkpt>
      <trkpt lat="45.648" lon="6.6373">
        <ele>2067.9</ele>
        <time>2013-08-27T15:18:57Z</time>
      </trkpt>
      <trkpt lat="45.64788" lon="6.63716">
        <ele>2071.3</ele>
        <time>2013-08-27T15:19:10Z</time>
      </trkpt>
      <trkpt lat="45.64769" lon="6.63699">
        <ele>2073.2</ele>
        <time>2013-08-27T15:19:29Z</time>
      </trkpt>
      <trkpt lat="45.64767" lon="6.63698">
        <ele>2074.2</ele>
        <time>2013-08-27T15:19:32Z</time>
      </trkpt>
      <trkpt lat="45.64748" lon="6.63689">
        <ele>2076.1</ele>
        <time>2013-08-27T15:19:47Z</time>
      </trkpt>
      <trkpt lat="45.64729" lon="6.63683">
        <ele>2079</ele>
        <time>2013-08-27T15:20:02Z</time>
      </trkpt>
      <trkpt lat="45.64713" lon="6.6367">
        <ele>2082.4</ele>
        <time>2013-08-27T15:20:18Z</time>
      </trkpt>
      <trkpt lat="45.64703" lon="6.63649">
        <ele>2084.3</ele>
        <time>2013-08-27T15:20:33Z</time>
      </trkpt>
      <trkpt lat="45.6469" lon="6.63627">
        <ele>2087.2</ele>
        <time>2013-08-27T15:20:50Z</time>
      </trkpt>
      <trkpt lat="45.64675" lon="6.63605">
        <ele>2089.6</ele>
        <time>2013-08-27T15:21:08Z</time>
      </trkpt>
      <trkpt lat="45.64659" lon="6.63585">
        <ele>2092.9</ele>
        <time>2013-08-27T15:21:23Z</time>
      </trkpt>
      <trkpt lat="45.64658" lon="6.63584">
        <ele>2092.9</ele>
        <time>2013-08-27T15:21:24Z</time>
      </trkpt>
      <trkpt lat="45.64644" lon="6.63569">
        <ele>2095.8</ele>
        <time>2013-08-27T15:21:38Z</time>
      </trkpt>
      <trkpt lat="45.64629" lon="6.63554">
        <ele>2098.7</ele>
        <time>2013-08-27T15:21:54Z</time>
      </trkpt>
      <trkpt lat="45.64615" lon="6.63535">
        <ele>2101.6</ele>
        <time>2013-08-27T15:22:10Z</time>
      </trkpt>
      <trkpt lat="45.64599" lon="6.63518">
        <ele>2104.5</ele>
        <time>2013-08-27T15:22:26Z</time>
      </trkpt>
      <trkpt lat="45.64598" lon="6.63517">
        <ele>2104.5</ele>
        <time>2013-08-27T15:22:27Z</time>
      </trkpt>
      <trkpt lat="45.64587" lon="6.63507">
        <ele>2106.9</ele>
        <time>2013-08-27T15:22:39Z</time>
      </trkpt>
      <trkpt lat="45.64572" lon="6.63496">
        <ele>2108.8</ele>
        <time>2013-08-27T15:22:54Z</time>
      </trkpt>
      <trkpt lat="45.64571" lon="6.63494">
        <ele>2108.3</ele>
        <time>2013-08-27T15:22:55Z</time>
      </trkpt>
      <trkpt lat="45.64567" lon="6.63484">
        <ele>2108.8</ele>
        <time>2013-08-27T15:23:02Z</time>
      </trkpt>
      <trkpt lat="45.64566" lon="6.63482">
        <ele>2109.3</ele>
        <time>2013-08-27T15:23:03Z</time>
      </trkpt>
      <trkpt lat="45.64566" lon="6.63481">
        <ele>2109.3</ele>
        <time>2013-08-27T15:23:04Z</time>
      </trkpt>
      <trkpt lat="45.64566" lon="6.63479">
        <ele>2109.3</ele>
        <time>2013-08-27T15:23:05Z</time>
      </trkpt>
      <trkpt lat="45.64565" lon="6.63477">
        <ele>2109.3</ele>
        <time>2013-08-27T15:23:06Z</time>
      </trkpt>
      <trkpt lat="45.64564" lon="6.63475">
        <ele>2109.3</ele>
        <time>2013-08-27T15:23:07Z</time>
      </trkpt>
      <trkpt lat="45.64564" lon="6.63474">
        <ele>2109.8</ele>
        <time>2013-08-27T15:23:08Z</time>
      </trkpt>
      <trkpt lat="45.64563" lon="6.63473">
        <ele>2109.8</ele>
        <time>2013-08-27T15:23:09Z</time>
      </trkpt>
      <trkpt lat="45.64562" lon="6.63471">
        <ele>2109.8</ele>
        <time>2013-08-27T15:23:19Z</time>
      </trkpt>
      <trkpt lat="45.64562" lon="6.63472">
        <ele>2107.4</ele>
        <time>2013-08-27T15:23:25Z</time>
      </trkpt>
      <trkpt lat="45.64548" lon="6.63451">
        <ele>2100.6</ele>
        <time>2013-08-27T15:28:22Z</time>
      </trkpt>
      <trkpt lat="45.64547" lon="6.6345">
        <ele>2099.2</ele>
        <time>2013-08-27T15:28:23Z</time>
      </trkpt>
      <trkpt lat="45.6454" lon="6.63441">
        <ele>2103</ele>
        <time>2013-08-27T15:28:34Z</time>
      </trkpt>
      <trkpt lat="45.64539" lon="6.63439">
        <ele>2103</ele>
        <time>2013-08-27T15:28:35Z</time>
      </trkpt>
      <trkpt lat="45.64527" lon="6.63427">
        <ele>2106.4</ele>
        <time>2013-08-27T15:28:44Z</time>
      </trkpt>
      <trkpt lat="45.64503" lon="6.63429">
        <ele>2109.3</ele>
        <time>2013-08-27T15:28:58Z</time>
      </trkpt>
      <trkpt lat="45.64494" lon="6.63443">
        <ele>2113.1</ele>
        <time>2013-08-27T15:29:06Z</time>
      </trkpt>
      <trkpt lat="45.64492" lon="6.63444">
        <ele>2113.1</ele>
        <time>2013-08-27T15:29:07Z</time>
      </trkpt>
      <trkpt lat="45.64481" lon="6.63446">
        <ele>2115.5</ele>
        <time>2013-08-27T15:29:15Z</time>
      </trkpt>
      <trkpt lat="45.64471" lon="6.63443">
        <ele>2118.4</ele>
        <time>2013-08-27T15:29:22Z</time>
      </trkpt>
      <trkpt lat="45.64454" lon="6.63441">
        <ele>2121.3</ele>
        <time>2013-08-27T15:29:34Z</time>
      </trkpt>
      <trkpt lat="45.64453" lon="6.63441">
        <ele>2121.8</ele>
        <time>2013-08-27T15:29:35Z</time>
      </trkpt>
      <trkpt lat="45.6443" lon="6.6344">
        <ele>2124.7</ele>
        <time>2013-08-27T15:29:49Z</time>
      </trkpt>
      <trkpt lat="45.64416" lon="6.63442">
        <ele>2126.1</ele>
        <time>2013-08-27T15:29:58Z</time>
      </trkpt>
      <trkpt lat="45.64402" lon="6.63442">
        <ele>2127.1</ele>
        <time>2013-08-27T15:30:07Z</time>
      </trkpt>
      <trkpt lat="45.64377" lon="6.63446">
        <ele>2129.5</ele>
        <time>2013-08-27T15:30:23Z</time>
      </trkpt>
      <trkpt lat="45.6435" lon="6.63451">
        <ele>2131.9</ele>
        <time>2013-08-27T15:30:42Z</time>
      </trkpt>
      <trkpt lat="45.64327" lon="6.63453">
        <ele>2135.2</ele>
        <time>2013-08-27T15:30:58Z</time>
      </trkpt>
      <trkpt lat="45.64301" lon="6.63448">
        <ele>2136.2</ele>
        <time>2013-08-27T15:31:14Z</time>
      </trkpt>
      <trkpt lat="45.6428" lon="6.63445">
        <ele>2139.6</ele>
        <time>2013-08-27T15:31:26Z</time>
      </trkpt>
      <trkpt lat="45.64276" lon="6.63443">
        <ele>2139.6</ele>
        <time>2013-08-27T15:31:30Z</time>
      </trkpt>
      <trkpt lat="45.64245" lon="6.63439">
        <ele>2142.4</ele>
        <time>2013-08-27T15:31:49Z</time>
      </trkpt>
      <trkpt lat="45.6423" lon="6.63432">
        <ele>2143.9</ele>
        <time>2013-08-27T15:31:58Z</time>
      </trkpt>
      <trkpt lat="45.6422" lon="6.63426">
        <ele>2145.3</ele>
        <time>2013-08-27T15:32:05Z</time>
      </trkpt>
      <trkpt lat="45.64193" lon="6.63402">
        <ele>2145.3</ele>
        <time>2013-08-27T15:32:24Z</time>
      </trkpt>
      <trkpt lat="45.64176" lon="6.63393">
        <ele>2146.8</ele>
        <time>2013-08-27T15:32:37Z</time>
      </trkpt>
      <trkpt lat="45.64175" lon="6.63393">
        <ele>2146.8</ele>
        <time>2013-08-27T15:32:41Z</time>
      </trkpt>
      <trkpt lat="45.64173" lon="6.63392">
        <ele>2145.8</ele>
        <time>2013-08-27T15:32:43Z</time>
      </trkpt>
      <trkpt lat="45.6417" lon="6.6338">
        <ele>2147.2</ele>
        <time>2013-08-27T15:33:04Z</time>
      </trkpt>
      <trkpt lat="45.64169" lon="6.63376">
        <ele>2147.2</ele>
        <time>2013-08-27T15:33:06Z</time>
      </trkpt>
      <trkpt lat="45.64168" lon="6.63375">
        <ele>2146.8</ele>
        <time>2013-08-27T15:33:07Z</time>
      </trkpt>
      <trkpt lat="45.64167" lon="6.63375">
        <ele>2148.2</ele>
        <time>2013-08-27T15:33:08Z</time>
      </trkpt>
      <trkpt lat="45.64166" lon="6.63374">
        <ele>2148.2</ele>
        <time>2013-08-27T15:33:09Z</time>
      </trkpt>
      <trkpt lat="45.64147" lon="6.63368">
        <ele>2150.1</ele>
        <time>2013-08-27T15:33:24Z</time>
      </trkpt>
      <trkpt lat="45.64129" lon="6.63344">
        <ele>2150.6</ele>
        <time>2013-08-27T15:33:38Z</time>
      </trkpt>
      <trkpt lat="45.64102" lon="6.6332">
        <ele>2148.2</ele>
        <time>2013-08-27T15:33:46Z</time>
      </trkpt>
      <trkpt lat="45.64067" lon="6.63285">
        <ele>2146.8</ele>
        <time>2013-08-27T15:33:55Z</time>
      </trkpt>
      <trkpt lat="45.64062" lon="6.63282">
        <ele>2147.7</ele>
        <time>2013-08-27T15:33:56Z</time>
      </trkpt>
      <trkpt lat="45.64058" lon="6.63279">
        <ele>2147.2</ele>
        <time>2013-08-27T15:33:57Z</time>
      </trkpt>
      <trkpt lat="45.64054" lon="6.63277">
        <ele>2146.8</ele>
        <time>2013-08-27T15:33:58Z</time>
      </trkpt>
      <trkpt lat="45.64051" lon="6.63275">
        <ele>2148.2</ele>
        <time>2013-08-27T15:33:59Z</time>
      </trkpt>
      <trkpt lat="45.64048" lon="6.63273">
        <ele>2148.2</ele>
        <time>2013-08-27T15:34:00Z</time>
      </trkpt>
      <trkpt lat="45.64046" lon="6.63271">
        <ele>2148.7</ele>
        <time>2013-08-27T15:34:01Z</time>
      </trkpt>
      <trkpt lat="45.64017" lon="6.63256">
        <ele>2148.7</ele>
        <time>2013-08-27T15:34:15Z</time>
      </trkpt>
      <trkpt lat="45.64004" lon="6.63251">
        <ele>2148.7</ele>
        <time>2013-08-27T15:34:21Z</time>
      </trkpt>
      <trkpt lat="45.64002" lon="6.63252">
        <ele>2147.7</ele>
        <time>2013-08-27T15:34:22Z</time>
      </trkpt>
      <trkpt lat="45.63999" lon="6.63253">
        <ele>2147.7</ele>
        <time>2013-08-27T15:34:23Z</time>
      </trkpt>
      <trkpt lat="45.63996" lon="6.63253">
        <ele>2147.2</ele>
        <time>2013-08-27T15:34:24Z</time>
      </trkpt>
      <trkpt lat="45.63994" lon="6.63253">
        <ele>2148.2</ele>
        <time>2013-08-27T15:34:25Z</time>
      </trkpt>
      <trkpt lat="45.63993" lon="6.63253">
        <ele>2149.7</ele>
        <time>2013-08-27T15:34:26Z</time>
      </trkpt>
      <trkpt lat="45.63992" lon="6.63253">
        <ele>2149.7</ele>
        <time>2013-08-27T15:34:27Z</time>
      </trkpt>
      <trkpt lat="45.63991" lon="6.63253">
        <ele>2149.7</ele>
        <time>2013-08-27T15:34:28Z</time>
      </trkpt>
      <trkpt lat="45.63971" lon="6.63238">
        <ele>2148.7</ele>
        <time>2013-08-27T15:34:45Z</time>
      </trkpt>
      <trkpt lat="45.6396" lon="6.6323">
        <ele>2150.6</ele>
        <time>2013-08-27T15:34:52Z</time>
      </trkpt>
      <trkpt lat="45.63934" lon="6.63217">
        <ele>2151.6</ele>
        <time>2013-08-27T15:35:08Z</time>
      </trkpt>
      <trkpt lat="45.63908" lon="6.63202">
        <ele>2152.1</ele>
        <time>2013-08-27T15:35:24Z</time>
      </trkpt>
      <trkpt lat="45.63883" lon="6.63187">
        <ele>2154.5</ele>
        <time>2013-08-27T15:35:42Z</time>
      </trkpt>
      <trkpt lat="45.63879" lon="6.63185">
        <ele>2154.9</ele>
        <time>2013-08-27T15:35:45Z</time>
      </trkpt>
      <trkpt lat="45.63877" lon="6.63185">
        <ele>2154.5</ele>
        <time>2013-08-27T15:35:46Z</time>
      </trkpt>
      <trkpt lat="45.63877" lon="6.63184">
        <ele>2154.9</ele>
        <time>2013-08-27T15:35:47Z</time>
      </trkpt>
      <trkpt lat="45.63872" lon="6.63183">
        <ele>2155.9</ele>
        <time>2013-08-27T15:36:03Z</time>
      </trkpt>
      <trkpt lat="45.63869" lon="6.63179">
        <ele>2154</ele>
        <time>2013-08-27T15:36:16Z</time>
      </trkpt>
      <trkpt lat="45.63868" lon="6.63179">
        <ele>2155.9</ele>
        <time>2013-08-27T15:36:35Z</time>
      </trkpt>
      <trkpt lat="45.6387" lon="6.63182">
        <ele>2155.4</ele>
        <time>2013-08-27T15:36:48Z</time>
      </trkpt>
      <trkpt lat="45.63864" lon="6.63178">
        <ele>2156.9</ele>
        <time>2013-08-27T15:37:00Z</time>
      </trkpt>
      <trkpt lat="45.63857" lon="6.63167">
        <ele>2156.9</ele>
        <time>2013-08-27T15:37:16Z</time>
      </trkpt>
      <trkpt lat="45.63856" lon="6.63164">
        <ele>2157.3</ele>
        <time>2013-08-27T15:37:20Z</time>
      </trkpt>
      <trkpt lat="45.6386" lon="6.63146">
        <ele>2157.3</ele>
        <time>2013-08-27T15:37:36Z</time>
      </trkpt>
      <trkpt lat="45.63862" lon="6.63128">
        <ele>2158.3</ele>
        <time>2013-08-27T15:37:53Z</time>
      </trkpt>
      <trkpt lat="45.63863" lon="6.63127">
        <ele>2159.3</ele>
        <time>2013-08-27T15:38:05Z</time>
      </trkpt>
      <trkpt lat="45.63861" lon="6.63118">
        <ele>2160.2</ele>
        <time>2013-08-27T15:38:20Z</time>
      </trkpt>
      <trkpt lat="45.6386" lon="6.6311">
        <ele>2160.7</ele>
        <time>2013-08-27T15:38:35Z</time>
      </trkpt>
      <trkpt lat="45.63858" lon="6.63105">
        <ele>2163.1</ele>
        <time>2013-08-27T15:38:54Z</time>
      </trkpt>
      <trkpt lat="45.63851" lon="6.63097">
        <ele>2165</ele>
        <time>2013-08-27T15:39:11Z</time>
      </trkpt>
      <trkpt lat="45.63848" lon="6.63091">
        <ele>2166.5</ele>
        <time>2013-08-27T15:39:29Z</time>
      </trkpt>
      <trkpt lat="45.6384" lon="6.63088">
        <ele>2168.4</ele>
        <time>2013-08-27T15:39:43Z</time>
      </trkpt>
      <trkpt lat="45.63839" lon="6.63084">
        <ele>2168.9</ele>
        <time>2013-08-27T15:39:57Z</time>
      </trkpt>
      <trkpt lat="45.63842" lon="6.63082">
        <ele>2168.4</ele>
        <time>2013-08-27T15:40:31Z</time>
      </trkpt>
      <trkpt lat="45.63839" lon="6.63084">
        <ele>2169.4</ele>
        <time>2013-08-27T15:40:45Z</time>
      </trkpt>
      <trkpt lat="45.63837" lon="6.63082">
        <ele>2169.8</ele>
        <time>2013-08-27T15:41:10Z</time>
      </trkpt>
      <trkpt lat="45.63839" lon="6.63083">
        <ele>2168.4</ele>
        <time>2013-08-27T15:41:33Z</time>
      </trkpt>
      <trkpt lat="45.63846" lon="6.6307">
        <ele>2170.8</ele>
        <time>2013-08-27T15:41:48Z</time>
      </trkpt>
      <trkpt lat="45.63846" lon="6.63068">
        <ele>2170.8</ele>
        <time>2013-08-27T15:41:49Z</time>
      </trkpt>
      <trkpt lat="45.63846" lon="6.63059">
        <ele>2171.8</ele>
        <time>2013-08-27T15:42:01Z</time>
      </trkpt>
      <trkpt lat="45.63843" lon="6.63058">
        <ele>2171.3</ele>
        <time>2013-08-27T15:42:11Z</time>
      </trkpt>
      <trkpt lat="45.63839" lon="6.63044">
        <ele>2172.2</ele>
        <time>2013-08-27T15:42:20Z</time>
      </trkpt>
      <trkpt lat="45.63832" lon="6.63025">
        <ele>2173.7</ele>
        <time>2013-08-27T15:42:33Z</time>
      </trkpt>
      <trkpt lat="45.6382" lon="6.63004">
        <ele>2175.6</ele>
        <time>2013-08-27T15:42:49Z</time>
      </trkpt>
      <trkpt lat="45.6381" lon="6.62992">
        <ele>2177.5</ele>
        <time>2013-08-27T15:43:00Z</time>
      </trkpt>
      <trkpt lat="45.63806" lon="6.62987">
        <ele>2178.5</ele>
        <time>2013-08-27T15:43:05Z</time>
      </trkpt>
      <trkpt lat="45.63798" lon="6.62978">
        <ele>2180.9</ele>
        <time>2013-08-27T15:43:19Z</time>
      </trkpt>
      <trkpt lat="45.63789" lon="6.6297">
        <ele>2182.3</ele>
        <time>2013-08-27T15:43:36Z</time>
      </trkpt>
      <trkpt lat="45.63782" lon="6.62964">
        <ele>2185.7</ele>
        <time>2013-08-27T15:43:50Z</time>
      </trkpt>
      <trkpt lat="45.63773" lon="6.62956">
        <ele>2187.6</ele>
        <time>2013-08-27T15:44:11Z</time>
      </trkpt>
      <trkpt lat="45.63761" lon="6.62945">
        <ele>2190</ele>
        <time>2013-08-27T15:44:29Z</time>
      </trkpt>
      <trkpt lat="45.63753" lon="6.62937">
        <ele>2193.4</ele>
        <time>2013-08-27T15:44:43Z</time>
      </trkpt>
      <trkpt lat="45.63747" lon="6.6293">
        <ele>2195.3</ele>
        <time>2013-08-27T15:44:58Z</time>
      </trkpt>
      <trkpt lat="45.63744" lon="6.62941">
        <ele>2195.8</ele>
        <time>2013-08-27T15:45:13Z</time>
      </trkpt>
      <trkpt lat="45.63743" lon="6.62942">
        <ele>2196.3</ele>
        <time>2013-08-27T15:45:14Z</time>
      </trkpt>
      <trkpt lat="45.63734" lon="6.6297">
        <ele>2197.7</ele>
        <time>2013-08-27T15:45:31Z</time>
      </trkpt>
      <trkpt lat="45.63733" lon="6.62972">
        <ele>2198.2</ele>
        <time>2013-08-27T15:45:35Z</time>
      </trkpt>
      <trkpt lat="45.63719" lon="6.62966">
        <ele>2198.7</ele>
        <time>2013-08-27T15:45:47Z</time>
      </trkpt>
      <trkpt lat="45.63714" lon="6.62963">
        <ele>2199.2</ele>
        <time>2013-08-27T15:45:50Z</time>
      </trkpt>
      <trkpt lat="45.63706" lon="6.62962">
        <ele>2201.1</ele>
        <time>2013-08-27T15:45:57Z</time>
      </trkpt>
      <trkpt lat="45.63685" lon="6.62954">
        <ele>2202.5</ele>
        <time>2013-08-27T15:46:13Z</time>
      </trkpt>
      <trkpt lat="45.63688" lon="6.62957">
        <ele>2212.6</ele>
        <time>2013-08-27T15:49:47Z</time>
      </trkpt>
      <trkpt lat="45.63606" lon="6.62926">
        <ele>2212.6</ele>
        <time>2013-08-27T15:50:09Z</time>
      </trkpt>
      <trkpt lat="45.63605" lon="6.62925">
        <ele>2212.6</ele>
        <time>2013-08-27T15:50:20Z</time>
      </trkpt>
      <trkpt lat="45.63603" lon="6.62925">
        <ele>2216</ele>
        <time>2013-08-27T15:50:23Z</time>
      </trkpt>
      <trkpt lat="45.63603" lon="6.62925">
        <ele>2209.3</ele>
        <time>2013-08-27T15:50:24Z</time>
      </trkpt>
      <trkpt lat="45.63603" lon="6.62924">
        <ele>2214.5</ele>
        <time>2013-08-27T15:50:25Z</time>
      </trkpt>
      <trkpt lat="45.63603" lon="6.62925">
        <ele>2209.3</ele>
        <time>2013-08-27T15:50:28Z</time>
      </trkpt>
      <trkpt lat="45.63603" lon="6.62925">
        <ele>2215</ele>
        <time>2013-08-27T15:50:29Z</time>
      </trkpt>
      <trkpt lat="45.63607" lon="6.62926">
        <ele>2210.2</ele>
        <time>2013-08-27T15:50:32Z</time>
      </trkpt>
      <trkpt lat="45.6361" lon="6.62927">
        <ele>2215.5</ele>
        <time>2013-08-27T15:50:33Z</time>
      </trkpt>
      <trkpt lat="45.63606" lon="6.62924">
        <ele>2212.1</ele>
        <time>2013-08-27T15:50:35Z</time>
      </trkpt>
      <trkpt lat="45.63606" lon="6.62925">
        <ele>2212.1</ele>
        <time>2013-08-27T15:50:36Z</time>
      </trkpt>
      <trkpt lat="45.63606" lon="6.62923">
        <ele>2213.6</ele>
        <time>2013-08-27T15:50:58Z</time>
      </trkpt>
      <trkpt lat="45.63601" lon="6.62921">
        <ele>2213.6</ele>
        <time>2013-08-27T15:51:02Z</time>
      </trkpt>
      <trkpt lat="45.63572" lon="6.62922">
        <ele>2215.5</ele>
        <time>2013-08-27T15:51:20Z</time>
      </trkpt>
      <trkpt lat="45.63553" lon="6.62908">
        <ele>2215.5</ele>
        <time>2013-08-27T15:51:33Z</time>
      </trkpt>
      <trkpt lat="45.63533" lon="6.62896">
        <ele>2216</ele>
        <time>2013-08-27T15:51:45Z</time>
      </trkpt>
      <trkpt lat="45.63516" lon="6.62883">
        <ele>2219.3</ele>
        <time>2013-08-27T15:51:57Z</time>
      </trkpt>
      <trkpt lat="45.63515" lon="6.62882">
        <ele>2219.3</ele>
        <time>2013-08-27T15:51:58Z</time>
      </trkpt>
      <trkpt lat="45.63514" lon="6.62881">
        <ele>2219.3</ele>
        <time>2013-08-27T15:51:59Z</time>
      </trkpt>
      <trkpt lat="45.63513" lon="6.6288">
        <ele>2219.3</ele>
        <time>2013-08-27T15:52:00Z</time>
      </trkpt>
      <trkpt lat="45.63511" lon="6.62879">
        <ele>2220.3</ele>
        <time>2013-08-27T15:52:01Z</time>
      </trkpt>
      <trkpt lat="45.6351" lon="6.62878">
        <ele>2219.8</ele>
        <time>2013-08-27T15:52:02Z</time>
      </trkpt>
      <trkpt lat="45.63509" lon="6.62877">
        <ele>2219.8</ele>
        <time>2013-08-27T15:52:03Z</time>
      </trkpt>
      <trkpt lat="45.63508" lon="6.62875">
        <ele>2220.3</ele>
        <time>2013-08-27T15:52:04Z</time>
      </trkpt>
      <trkpt lat="45.63507" lon="6.62873">
        <ele>2220.8</ele>
        <time>2013-08-27T15:52:05Z</time>
      </trkpt>
      <trkpt lat="45.63507" lon="6.62871">
        <ele>2220.3</ele>
        <time>2013-08-27T15:52:06Z</time>
      </trkpt>
      <trkpt lat="45.63506" lon="6.6287">
        <ele>2221.3</ele>
        <time>2013-08-27T15:52:07Z</time>
      </trkpt>
      <trkpt lat="45.63506" lon="6.62869">
        <ele>2221.3</ele>
        <time>2013-08-27T15:52:08Z</time>
      </trkpt>
      <trkpt lat="45.63506" lon="6.62869">
        <ele>2221.3</ele>
        <time>2013-08-27T15:52:09Z</time>
      </trkpt>
      <trkpt lat="45.63506" lon="6.62868">
        <ele>2220.8</ele>
        <time>2013-08-27T15:52:10Z</time>
      </trkpt>
      <trkpt lat="45.63504" lon="6.62867">
        <ele>2221.3</ele>
        <time>2013-08-27T15:52:11Z</time>
      </trkpt>
      <trkpt lat="45.63503" lon="6.62867">
        <ele>2221.3</ele>
        <time>2013-08-27T15:52:12Z</time>
      </trkpt>
      <trkpt lat="45.63502" lon="6.62867">
        <ele>2221.3</ele>
        <time>2013-08-27T15:52:13Z</time>
      </trkpt>
      <trkpt lat="45.63495" lon="6.62867">
        <ele>2222.2</ele>
        <time>2013-08-27T15:52:23Z</time>
      </trkpt>
      <trkpt lat="45.63489" lon="6.6286">
        <ele>2224.6</ele>
        <time>2013-08-27T15:52:39Z</time>
      </trkpt>
      <trkpt lat="45.63486" lon="6.62853">
        <ele>2226.1</ele>
        <time>2013-08-27T15:52:52Z</time>
      </trkpt>
      <trkpt lat="45.63481" lon="6.62849">
        <ele>2227</ele>
        <time>2013-08-27T15:52:58Z</time>
      </trkpt>
      <trkpt lat="45.63474" lon="6.62838">
        <ele>2228</ele>
        <time>2013-08-27T15:53:10Z</time>
      </trkpt>
      <trkpt lat="45.63468" lon="6.62832">
        <ele>2230.4</ele>
        <time>2013-08-27T15:53:21Z</time>
      </trkpt>
      <trkpt lat="45.63461" lon="6.62817">
        <ele>2231.8</ele>
        <time>2013-08-27T15:53:36Z</time>
      </trkpt>
      <trkpt lat="45.63454" lon="6.62808">
        <ele>2232.3</ele>
        <time>2013-08-27T15:53:51Z</time>
      </trkpt>
      <trkpt lat="45.63451" lon="6.62805">
        <ele>2232.8</ele>
        <time>2013-08-27T15:53:55Z</time>
      </trkpt>
      <trkpt lat="45.63446" lon="6.62802">
        <ele>2234.7</ele>
        <time>2013-08-27T15:54:01Z</time>
      </trkpt>
      <trkpt lat="45.63433" lon="6.62788">
        <ele>2236.6</ele>
        <time>2013-08-27T15:54:20Z</time>
      </trkpt>
      <trkpt lat="45.63429" lon="6.62788">
        <ele>2237.1</ele>
        <time>2013-08-27T15:54:36Z</time>
      </trkpt>
      <trkpt lat="45.63427" lon="6.62787">
        <ele>2237.6</ele>
        <time>2013-08-27T15:54:50Z</time>
      </trkpt>
      <trkpt lat="45.63422" lon="6.62783">
        <ele>2239.5</ele>
        <time>2013-08-27T15:55:06Z</time>
      </trkpt>
      <trkpt lat="45.63418" lon="6.62781">
        <ele>2240.5</ele>
        <time>2013-08-27T15:55:11Z</time>
      </trkpt>
      <trkpt lat="45.6341" lon="6.62775">
        <ele>2242.4</ele>
        <time>2013-08-27T15:55:22Z</time>
      </trkpt>
      <trkpt lat="45.63403" lon="6.62768">
        <ele>2243.4</ele>
        <time>2013-08-27T15:55:34Z</time>
      </trkpt>
      <trkpt lat="45.634" lon="6.62759">
        <ele>2245.3</ele>
        <time>2013-08-27T15:55:48Z</time>
      </trkpt>
      <trkpt lat="45.63394" lon="6.62753">
        <ele>2246.7</ele>
        <time>2013-08-27T15:56:02Z</time>
      </trkpt>
      <trkpt lat="45.6339" lon="6.62744">
        <ele>2248.7</ele>
        <time>2013-08-27T15:56:18Z</time>
      </trkpt>
      <trkpt lat="45.63386" lon="6.62734">
        <ele>2251.5</ele>
        <time>2013-08-27T15:56:33Z</time>
      </trkpt>
      <trkpt lat="45.63379" lon="6.62726">
        <ele>2253</ele>
        <time>2013-08-27T15:56:46Z</time>
      </trkpt>
      <trkpt lat="45.63371" lon="6.6272">
        <ele>2255.4</ele>
        <time>2013-08-27T15:57:00Z</time>
      </trkpt>
      <trkpt lat="45.63363" lon="6.62713">
        <ele>2256.8</ele>
        <time>2013-08-27T15:57:13Z</time>
      </trkpt>
      <trkpt lat="45.63352" lon="6.62702">
        <ele>2258.8</ele>
        <time>2013-08-27T15:57:29Z</time>
      </trkpt>
      <trkpt lat="45.63346" lon="6.62698">
        <ele>2260.7</ele>
        <time>2013-08-27T15:57:42Z</time>
      </trkpt>
      <trkpt lat="45.63337" lon="6.62691">
        <ele>2262.1</ele>
        <time>2013-08-27T15:57:57Z</time>
      </trkpt>
      <trkpt lat="45.63331" lon="6.62685">
        <ele>2264</ele>
        <time>2013-08-27T15:58:11Z</time>
      </trkpt>
      <trkpt lat="45.63326" lon="6.62678">
        <ele>2266.5</ele>
        <time>2013-08-27T15:58:26Z</time>
      </trkpt>
      <trkpt lat="45.63318" lon="6.62672">
        <ele>2268.4</ele>
        <time>2013-08-27T15:58:39Z</time>
      </trkpt>
      <trkpt lat="45.63317" lon="6.62665">
        <ele>2269.8</ele>
        <time>2013-08-27T15:58:52Z</time>
      </trkpt>
      <trkpt lat="45.63311" lon="6.62656">
        <ele>2271.3</ele>
        <time>2013-08-27T15:59:04Z</time>
      </trkpt>
      <trkpt lat="45.63306" lon="6.62652">
        <ele>2272.7</ele>
        <time>2013-08-27T15:59:15Z</time>
      </trkpt>
      <trkpt lat="45.63298" lon="6.6265">
        <ele>2274.6</ele>
        <time>2013-08-27T15:59:28Z</time>
      </trkpt>
      <trkpt lat="45.63292" lon="6.62647">
        <ele>2276.5</ele>
        <time>2013-08-27T15:59:42Z</time>
      </trkpt>
      <trkpt lat="45.63287" lon="6.6264">
        <ele>2278</ele>
        <time>2013-08-27T15:59:55Z</time>
      </trkpt>
      <trkpt lat="45.63282" lon="6.62635">
        <ele>2278.9</ele>
        <time>2013-08-27T16:00:09Z</time>
      </trkpt>
      <trkpt lat="45.63281" lon="6.62629">
        <ele>2280.9</ele>
        <time>2013-08-27T16:00:23Z</time>
      </trkpt>
      <trkpt lat="45.63277" lon="6.62626">
        <ele>2282.3</ele>
        <time>2013-08-27T16:00:35Z</time>
      </trkpt>
      <trkpt lat="45.63272" lon="6.62621">
        <ele>2284.2</ele>
        <time>2013-08-27T16:00:49Z</time>
      </trkpt>
      <trkpt lat="45.63267" lon="6.62616">
        <ele>2287.1</ele>
        <time>2013-08-27T16:01:05Z</time>
      </trkpt>
      <trkpt lat="45.63262" lon="6.62612">
        <ele>2289</ele>
        <time>2013-08-27T16:01:17Z</time>
      </trkpt>
      <trkpt lat="45.63257" lon="6.62609">
        <ele>2290.5</ele>
        <time>2013-08-27T16:01:29Z</time>
      </trkpt>
      <trkpt lat="45.63252" lon="6.62606">
        <ele>2291.9</ele>
        <time>2013-08-27T16:01:44Z</time>
      </trkpt>
      <trkpt lat="45.63248" lon="6.62603">
        <ele>2293.8</ele>
        <time>2013-08-27T16:01:57Z</time>
      </trkpt>
      <trkpt lat="45.6324" lon="6.62599">
        <ele>2295.3</ele>
        <time>2013-08-27T16:02:10Z</time>
      </trkpt>
      <trkpt lat="45.63234" lon="6.62594">
        <ele>2298.2</ele>
        <time>2013-08-27T16:02:25Z</time>
      </trkpt>
      <trkpt lat="45.63228" lon="6.62591">
        <ele>2299.6</ele>
        <time>2013-08-27T16:02:38Z</time>
      </trkpt>
      <trkpt lat="45.63219" lon="6.62594">
        <ele>2300.6</ele>
        <time>2013-08-27T16:02:53Z</time>
      </trkpt>
      <trkpt lat="45.63212" lon="6.6259">
        <ele>2303.5</ele>
        <time>2013-08-27T16:03:08Z</time>
      </trkpt>
      <trkpt lat="45.63209" lon="6.62584">
        <ele>2304.9</ele>
        <time>2013-08-27T16:03:27Z</time>
      </trkpt>
      <trkpt lat="45.63202" lon="6.62575">
        <ele>2305.9</ele>
        <time>2013-08-27T16:03:40Z</time>
      </trkpt>
      <trkpt lat="45.63195" lon="6.6257">
        <ele>2308.3</ele>
        <time>2013-08-27T16:03:55Z</time>
      </trkpt>
      <trkpt lat="45.63179" lon="6.62565">
        <ele>2309.2</ele>
        <time>2013-08-27T16:04:12Z</time>
      </trkpt>
      <trkpt lat="45.63166" lon="6.62563">
        <ele>2311.2</ele>
        <time>2013-08-27T16:04:29Z</time>
      </trkpt>
      <trkpt lat="45.63161" lon="6.62557">
        <ele>2313.1</ele>
        <time>2013-08-27T16:04:42Z</time>
      </trkpt>
      <trkpt lat="45.63153" lon="6.62551">
        <ele>2315</ele>
        <time>2013-08-27T16:04:57Z</time>
      </trkpt>
      <trkpt lat="45.63148" lon="6.62548">
        <ele>2316</ele>
        <time>2013-08-27T16:05:12Z</time>
      </trkpt>
      <trkpt lat="45.63144" lon="6.62542">
        <ele>2318.8</ele>
        <time>2013-08-27T16:05:26Z</time>
      </trkpt>
      <trkpt lat="45.63143" lon="6.62537">
        <ele>2319.8</ele>
        <time>2013-08-27T16:05:44Z</time>
      </trkpt>
      <trkpt lat="45.63142" lon="6.62532">
        <ele>2320.8</ele>
        <time>2013-08-27T16:05:55Z</time>
      </trkpt>
      <trkpt lat="45.63135" lon="6.62528">
        <ele>2322.7</ele>
        <time>2013-08-27T16:06:11Z</time>
      </trkpt>
      <trkpt lat="45.6313" lon="6.62526">
        <ele>2325.1</ele>
        <time>2013-08-27T16:06:25Z</time>
      </trkpt>
      <trkpt lat="45.63125" lon="6.62526">
        <ele>2326.5</ele>
        <time>2013-08-27T16:06:39Z</time>
      </trkpt>
      <trkpt lat="45.63121" lon="6.62527">
        <ele>2328.9</ele>
        <time>2013-08-27T16:06:53Z</time>
      </trkpt>
      <trkpt lat="45.63113" lon="6.62538">
        <ele>2330.4</ele>
        <time>2013-08-27T16:07:08Z</time>
      </trkpt>
      <trkpt lat="45.63104" lon="6.62546">
        <ele>2331.8</ele>
        <time>2013-08-27T16:07:23Z</time>
      </trkpt>
      <trkpt lat="45.63097" lon="6.62555">
        <ele>2332.3</ele>
        <time>2013-08-27T16:07:37Z</time>
      </trkpt>
      <trkpt lat="45.63092" lon="6.62557">
        <ele>2334.7</ele>
        <time>2013-08-27T16:07:51Z</time>
      </trkpt>
      <trkpt lat="45.63086" lon="6.62561">
        <ele>2337.1</ele>
        <time>2013-08-27T16:08:06Z</time>
      </trkpt>
      <trkpt lat="45.63082" lon="6.62562">
        <ele>2338.5</ele>
        <time>2013-08-27T16:08:21Z</time>
      </trkpt>
      <trkpt lat="45.63078" lon="6.62564">
        <ele>2340.5</ele>
        <time>2013-08-27T16:08:34Z</time>
      </trkpt>
      <trkpt lat="45.63076" lon="6.62566">
        <ele>2341.9</ele>
        <time>2013-08-27T16:08:51Z</time>
      </trkpt>
      <trkpt lat="45.63073" lon="6.62572">
        <ele>2343.4</ele>
        <time>2013-08-27T16:09:04Z</time>
      </trkpt>
      <trkpt lat="45.63069" lon="6.62576">
        <ele>2345.3</ele>
        <time>2013-08-27T16:09:17Z</time>
      </trkpt>
      <trkpt lat="45.63066" lon="6.62579">
        <ele>2347.2</ele>
        <time>2013-08-27T16:09:29Z</time>
      </trkpt>
      <trkpt lat="45.63064" lon="6.62583">
        <ele>2348.6</ele>
        <time>2013-08-27T16:09:41Z</time>
      </trkpt>
      <trkpt lat="45.63063" lon="6.62584">
        <ele>2349.6</ele>
        <time>2013-08-27T16:09:53Z</time>
      </trkpt>
      <trkpt lat="45.63061" lon="6.62587">
        <ele>2351</ele>
        <time>2013-08-27T16:10:05Z</time>
      </trkpt>
      <trkpt lat="45.63059" lon="6.62584">
        <ele>2353</ele>
        <time>2013-08-27T16:10:18Z</time>
      </trkpt>
      <trkpt lat="45.63059" lon="6.6258">
        <ele>2354.4</ele>
        <time>2013-08-27T16:10:32Z</time>
      </trkpt>
      <trkpt lat="45.63056" lon="6.62573">
        <ele>2356.3</ele>
        <time>2013-08-27T16:10:49Z</time>
      </trkpt>
      <trkpt lat="45.63052" lon="6.62564">
        <ele>2358.7</ele>
        <time>2013-08-27T16:11:05Z</time>
      </trkpt>
      <trkpt lat="45.63049" lon="6.62556">
        <ele>2361.1</ele>
        <time>2013-08-27T16:11:20Z</time>
      </trkpt>
      <trkpt lat="45.63048" lon="6.62549">
        <ele>2363.1</ele>
        <time>2013-08-27T16:11:34Z</time>
      </trkpt>
      <trkpt lat="45.63049" lon="6.62547">
        <ele>2363.5</ele>
        <time>2013-08-27T16:11:46Z</time>
      </trkpt>
      <trkpt lat="45.63049" lon="6.62545">
        <ele>2365</ele>
        <time>2013-08-27T16:12:00Z</time>
      </trkpt>
      <trkpt lat="45.6305" lon="6.62542">
        <ele>2367.4</ele>
        <time>2013-08-27T16:12:14Z</time>
      </trkpt>
      <trkpt lat="45.63051" lon="6.62539">
        <ele>2367.9</ele>
        <time>2013-08-27T16:12:17Z</time>
      </trkpt>
      <trkpt lat="45.63054" lon="6.62532">
        <ele>2369.3</ele>
        <time>2013-08-27T16:12:29Z</time>
      </trkpt>
      <trkpt lat="45.63056" lon="6.62524">
        <ele>2371.2</ele>
        <time>2013-08-27T16:12:45Z</time>
      </trkpt>
      <trkpt lat="45.63054" lon="6.62519">
        <ele>2373.6</ele>
        <time>2013-08-27T16:13:04Z</time>
      </trkpt>
      <trkpt lat="45.63049" lon="6.6252">
        <ele>2375.6</ele>
        <time>2013-08-27T16:13:16Z</time>
      </trkpt>
      <trkpt lat="45.63043" lon="6.62526">
        <ele>2375.6</ele>
        <time>2013-08-27T16:13:29Z</time>
      </trkpt>
      <trkpt lat="45.63044" lon="6.62529">
        <ele>2376</ele>
        <time>2013-08-27T16:13:42Z</time>
      </trkpt>
      <trkpt lat="45.63041" lon="6.62533">
        <ele>2376</ele>
        <time>2013-08-27T16:13:56Z</time>
      </trkpt>
      <trkpt lat="45.63042" lon="6.62535">
        <ele>2376.5</ele>
        <time>2013-08-27T16:14:09Z</time>
      </trkpt>
      <trkpt lat="45.63041" lon="6.62536">
        <ele>2377</ele>
        <time>2013-08-27T16:14:12Z</time>
      </trkpt>
      <trkpt lat="45.6304" lon="6.62537">
        <ele>2376.5</ele>
        <time>2013-08-27T16:14:13Z</time>
      </trkpt>
      <trkpt lat="45.63031" lon="6.62541">
        <ele>2379.4</ele>
        <time>2013-08-27T16:14:25Z</time>
      </trkpt>
      <trkpt lat="45.63027" lon="6.62539">
        <ele>2380.8</ele>
        <time>2013-08-27T16:14:31Z</time>
      </trkpt>
      <trkpt lat="45.63023" lon="6.6254">
        <ele>2383.7</ele>
        <time>2013-08-27T16:14:43Z</time>
      </trkpt>
      <trkpt lat="45.6302" lon="6.62541">
        <ele>2386.1</ele>
        <time>2013-08-27T16:14:55Z</time>
      </trkpt>
      <trkpt lat="45.6302" lon="6.62535">
        <ele>2389</ele>
        <time>2013-08-27T16:15:07Z</time>
      </trkpt>
      <trkpt lat="45.63015" lon="6.62537">
        <ele>2390.5</ele>
        <time>2013-08-27T16:15:19Z</time>
      </trkpt>
      <trkpt lat="45.6301" lon="6.6254">
        <ele>2392.9</ele>
        <time>2013-08-27T16:15:30Z</time>
      </trkpt>
      <trkpt lat="45.63011" lon="6.62533">
        <ele>2395.3</ele>
        <time>2013-08-27T16:15:42Z</time>
      </trkpt>
      <trkpt lat="45.63007" lon="6.62534">
        <ele>2397.2</ele>
        <time>2013-08-27T16:15:55Z</time>
      </trkpt>
      <trkpt lat="45.63006" lon="6.6253">
        <ele>2399.6</ele>
        <time>2013-08-27T16:16:09Z</time>
      </trkpt>
      <trkpt lat="45.63001" lon="6.6253">
        <ele>2402</ele>
        <time>2013-08-27T16:16:21Z</time>
      </trkpt>
      <trkpt lat="45.62999" lon="6.6253">
        <ele>2402</ele>
        <time>2013-08-27T16:16:35Z</time>
      </trkpt>
      <trkpt lat="45.62998" lon="6.62531">
        <ele>2402</ele>
        <time>2013-08-27T16:16:48Z</time>
      </trkpt>
      <trkpt lat="45.62998" lon="6.62529">
        <ele>2399.6</ele>
        <time>2013-08-27T16:17:07Z</time>
      </trkpt>
      <trkpt lat="45.62998" lon="6.6253">
        <ele>2400.1</ele>
        <time>2013-08-27T16:17:08Z</time>
      </trkpt>
      <trkpt lat="45.62998" lon="6.6253">
        <ele>2403.4</ele>
        <time>2013-08-27T16:17:09Z</time>
      </trkpt>
      <trkpt lat="45.62998" lon="6.6253">
        <ele>2403</ele>
        <time>2013-08-27T16:17:10Z</time>
      </trkpt>
      <trkpt lat="45.62998" lon="6.6253">
        <ele>2402</ele>
        <time>2013-08-27T16:17:12Z</time>
      </trkpt>
      <trkpt lat="45.62999" lon="6.62529">
        <ele>2401.5</ele>
        <time>2013-08-27T16:17:29Z</time>
      </trkpt>
      <trkpt lat="45.62999" lon="6.62528">
        <ele>2402.5</ele>
        <time>2013-08-27T16:17:50Z</time>
      </trkpt>
      <trkpt lat="45.62995" lon="6.62527">
        <ele>2401</ele>
        <time>2013-08-27T16:18:03Z</time>
      </trkpt>
      <trkpt lat="45.62992" lon="6.62525">
        <ele>2398.6</ele>
        <time>2013-08-27T16:18:18Z</time>
      </trkpt>
      <trkpt lat="45.6299" lon="6.62522">
        <ele>2397.7</ele>
        <time>2013-08-27T16:18:35Z</time>
      </trkpt>
      <trkpt lat="45.6299" lon="6.62523">
        <ele>2397.2</ele>
        <time>2013-08-27T16:18:45Z</time>
      </trkpt>
      <trkpt lat="45.62985" lon="6.62524">
        <ele>2395.3</ele>
        <time>2013-08-27T16:18:55Z</time>
      </trkpt>
      <trkpt lat="45.62981" lon="6.62514">
        <ele>2392.4</ele>
        <time>2013-08-27T16:19:06Z</time>
      </trkpt>
      <trkpt lat="45.62981" lon="6.62513">
        <ele>2392.4</ele>
        <time>2013-08-27T16:19:07Z</time>
      </trkpt>
      <trkpt lat="45.62981" lon="6.62511">
        <ele>2391.9</ele>
        <time>2013-08-27T16:19:08Z</time>
      </trkpt>
      <trkpt lat="45.6298" lon="6.6251">
        <ele>2390.9</ele>
        <time>2013-08-27T16:19:09Z</time>
      </trkpt>
      <trkpt lat="45.6298" lon="6.62508">
        <ele>2390</ele>
        <time>2013-08-27T16:19:10Z</time>
      </trkpt>
      <trkpt lat="45.6298" lon="6.62507">
        <ele>2389.5</ele>
        <time>2013-08-27T16:19:11Z</time>
      </trkpt>
      <trkpt lat="45.62979" lon="6.62508">
        <ele>2389.5</ele>
        <time>2013-08-27T16:19:12Z</time>
      </trkpt>
      <trkpt lat="45.62978" lon="6.62514">
        <ele>2387.6</ele>
        <time>2013-08-27T16:19:17Z</time>
      </trkpt>
      <trkpt lat="45.6297" lon="6.62516">
        <ele>2384.7</ele>
        <time>2013-08-27T16:19:25Z</time>
      </trkpt>
      <trkpt lat="45.62969" lon="6.62515">
        <ele>2384.2</ele>
        <time>2013-08-27T16:19:26Z</time>
      </trkpt>
      <trkpt lat="45.62968" lon="6.6251">
        <ele>2382.8</ele>
        <time>2013-08-27T16:19:30Z</time>
      </trkpt>
      <trkpt lat="45.62969" lon="6.62509">
        <ele>2382.8</ele>
        <time>2013-08-27T16:19:31Z</time>
      </trkpt>
      <trkpt lat="45.62968" lon="6.62507">
        <ele>2381.8</ele>
        <time>2013-08-27T16:19:32Z</time>
      </trkpt>
      <trkpt lat="45.62968" lon="6.62506">
        <ele>2381.3</ele>
        <time>2013-08-27T16:19:43Z</time>
      </trkpt>
      <trkpt lat="45.62964" lon="6.62507">
        <ele>2382.3</ele>
        <time>2013-08-27T16:20:20Z</time>
      </trkpt>
      <trkpt lat="45.62962" lon="6.62509">
        <ele>2381.3</ele>
        <time>2013-08-27T16:20:24Z</time>
      </trkpt>
      <trkpt lat="45.62959" lon="6.62508">
        <ele>2378.9</ele>
        <time>2013-08-27T16:20:34Z</time>
      </trkpt>
      <trkpt lat="45.62956" lon="6.62498">
        <ele>2375.6</ele>
        <time>2013-08-27T16:20:47Z</time>
      </trkpt>
      <trkpt lat="45.62953" lon="6.62504">
        <ele>2375.6</ele>
        <time>2013-08-27T16:21:05Z</time>
      </trkpt>
      <trkpt lat="45.62944" lon="6.62519">
        <ele>2372.7</ele>
        <time>2013-08-27T16:21:15Z</time>
      </trkpt>
      <trkpt lat="45.62943" lon="6.62519">
        <ele>2372.7</ele>
        <time>2013-08-27T16:21:16Z</time>
      </trkpt>
      <trkpt lat="45.62941" lon="6.62519">
        <ele>2372.2</ele>
        <time>2013-08-27T16:21:17Z</time>
      </trkpt>
      <trkpt lat="45.6293" lon="6.62522">
        <ele>2368.4</ele>
        <time>2013-08-27T16:21:23Z</time>
      </trkpt>
      <trkpt lat="45.62923" lon="6.62528">
        <ele>2365.9</ele>
        <time>2013-08-27T16:21:28Z</time>
      </trkpt>
      <trkpt lat="45.62918" lon="6.62529">
        <ele>2364</ele>
        <time>2013-08-27T16:21:39Z</time>
      </trkpt>
      <trkpt lat="45.62916" lon="6.62528">
        <ele>2363.5</ele>
        <time>2013-08-27T16:21:40Z</time>
      </trkpt>
      <trkpt lat="45.62916" lon="6.62524">
        <ele>2363.1</ele>
        <time>2013-08-27T16:21:50Z</time>
      </trkpt>
      <trkpt lat="45.62912" lon="6.62521">
        <ele>2361.1</ele>
        <time>2013-08-27T16:21:55Z</time>
      </trkpt>
      <trkpt lat="45.62911" lon="6.6252">
        <ele>2361.1</ele>
        <time>2013-08-27T16:21:56Z</time>
      </trkpt>
      <trkpt lat="45.62909" lon="6.62518">
        <ele>2360.7</ele>
        <time>2013-08-27T16:21:58Z</time>
      </trkpt>
      <trkpt lat="45.62908" lon="6.62517">
        <ele>2359.7</ele>
        <time>2013-08-27T16:22:01Z</time>
      </trkpt>
      <trkpt lat="45.62898" lon="6.62515">
        <ele>2357.8</ele>
        <time>2013-08-27T16:22:10Z</time>
      </trkpt>
      <trkpt lat="45.62897" lon="6.62515">
        <ele>2357.8</ele>
        <time>2013-08-27T16:22:11Z</time>
      </trkpt>
      <trkpt lat="45.62895" lon="6.62516">
        <ele>2357.3</ele>
        <time>2013-08-27T16:22:12Z</time>
      </trkpt>
      <trkpt lat="45.62893" lon="6.62517">
        <ele>2357.3</ele>
        <time>2013-08-27T16:22:13Z</time>
      </trkpt>
      <trkpt lat="45.62891" lon="6.62518">
        <ele>2356.3</ele>
        <time>2013-08-27T16:22:14Z</time>
      </trkpt>
      <trkpt lat="45.62889" lon="6.62519">
        <ele>2356.8</ele>
        <time>2013-08-27T16:22:15Z</time>
      </trkpt>
      <trkpt lat="45.62888" lon="6.6252">
        <ele>2356.3</ele>
        <time>2013-08-27T16:22:16Z</time>
      </trkpt>
      <trkpt lat="45.62886" lon="6.62521">
        <ele>2355.4</ele>
        <time>2013-08-27T16:22:17Z</time>
      </trkpt>
      <trkpt lat="45.62885" lon="6.62523">
        <ele>2354.9</ele>
        <time>2013-08-27T16:22:18Z</time>
      </trkpt>
      <trkpt lat="45.62882" lon="6.62525">
        <ele>2354.4</ele>
        <time>2013-08-27T16:22:21Z</time>
      </trkpt>
      <trkpt lat="45.62878" lon="6.62522">
        <ele>2353.9</ele>
        <time>2013-08-27T16:22:23Z</time>
      </trkpt>
      <trkpt lat="45.62877" lon="6.62519">
        <ele>2353.4</ele>
        <time>2013-08-27T16:22:24Z</time>
      </trkpt>
      <trkpt lat="45.62875" lon="6.62518">
        <ele>2353</ele>
        <time>2013-08-27T16:22:25Z</time>
      </trkpt>
      <trkpt lat="45.62874" lon="6.62517">
        <ele>2352.5</ele>
        <time>2013-08-27T16:22:26Z</time>
      </trkpt>
      <trkpt lat="45.62873" lon="6.62515">
        <ele>2351.5</ele>
        <time>2013-08-27T16:22:27Z</time>
      </trkpt>
      <trkpt lat="45.62871" lon="6.62514">
        <ele>2351.5</ele>
        <time>2013-08-27T16:22:28Z</time>
      </trkpt>
      <trkpt lat="45.62872" lon="6.62508">
        <ele>2351</ele>
        <time>2013-08-27T16:22:41Z</time>
      </trkpt>
      <trkpt lat="45.62874" lon="6.62506">
        <ele>2350.6</ele>
        <time>2013-08-27T16:22:43Z</time>
      </trkpt>
      <trkpt lat="45.62876" lon="6.62497">
        <ele>2349.1</ele>
        <time>2013-08-27T16:22:54Z</time>
      </trkpt>
      <trkpt lat="45.62876" lon="6.62496">
        <ele>2348.2</ele>
        <time>2013-08-27T16:22:55Z</time>
      </trkpt>
      <trkpt lat="45.62883" lon="6.62483">
        <ele>2345.8</ele>
        <time>2013-08-27T16:23:09Z</time>
      </trkpt>
      <trkpt lat="45.62886" lon="6.62484">
        <ele>2345.8</ele>
        <time>2013-08-27T16:23:39Z</time>
      </trkpt>
      <trkpt lat="45.62885" lon="6.62483">
        <ele>2344.8</ele>
        <time>2013-08-27T16:23:55Z</time>
      </trkpt>
      <trkpt lat="45.62894" lon="6.6247">
        <ele>2343.8</ele>
        <time>2013-08-27T16:24:13Z</time>
      </trkpt>
      <trkpt lat="45.62897" lon="6.62468">
        <ele>2343.8</ele>
        <time>2013-08-27T16:24:15Z</time>
      </trkpt>
      <trkpt lat="45.62898" lon="6.62465">
        <ele>2343.8</ele>
        <time>2013-08-27T16:24:16Z</time>
      </trkpt>
      <trkpt lat="45.62899" lon="6.62462">
        <ele>2342.9</ele>
        <time>2013-08-27T16:24:17Z</time>
      </trkpt>
      <trkpt lat="45.629" lon="6.62458">
        <ele>2342.4</ele>
        <time>2013-08-27T16:24:18Z</time>
      </trkpt>
      <trkpt lat="45.629" lon="6.62454">
        <ele>2342.4</ele>
        <time>2013-08-27T16:24:19Z</time>
      </trkpt>
      <trkpt lat="45.62901" lon="6.62444">
        <ele>2341</ele>
        <time>2013-08-27T16:24:22Z</time>
      </trkpt>
      <trkpt lat="45.62901" lon="6.62442">
        <ele>2341</ele>
        <time>2013-08-27T16:24:23Z</time>
      </trkpt>
      <trkpt lat="45.62901" lon="6.62439">
        <ele>2340</ele>
        <time>2013-08-27T16:24:24Z</time>
      </trkpt>
      <trkpt lat="45.62901" lon="6.62436">
        <ele>2339.5</ele>
        <time>2013-08-27T16:24:25Z</time>
      </trkpt>
      <trkpt lat="45.62904" lon="6.62427">
        <ele>2337.1</ele>
        <time>2013-08-27T16:24:30Z</time>
      </trkpt>
      <trkpt lat="45.62905" lon="6.62426">
        <ele>2336.1</ele>
        <time>2013-08-27T16:24:35Z</time>
      </trkpt>
      <trkpt lat="45.62905" lon="6.62425">
        <ele>2337.1</ele>
        <time>2013-08-27T16:24:36Z</time>
      </trkpt>
      <trkpt lat="45.62906" lon="6.6242">
        <ele>2336.6</ele>
        <time>2013-08-27T16:24:43Z</time>
      </trkpt>
      <trkpt lat="45.62907" lon="6.62417">
        <ele>2336.6</ele>
        <time>2013-08-27T16:24:45Z</time>
      </trkpt>
      <trkpt lat="45.62906" lon="6.62414">
        <ele>2336.6</ele>
        <time>2013-08-27T16:24:46Z</time>
      </trkpt>
      <trkpt lat="45.62906" lon="6.62413">
        <ele>2336.1</ele>
        <time>2013-08-27T16:24:47Z</time>
      </trkpt>
      <trkpt lat="45.62905" lon="6.62411">
        <ele>2336.6</ele>
        <time>2013-08-27T16:24:48Z</time>
      </trkpt>
      <trkpt lat="45.62904" lon="6.62409">
        <ele>2336.6</ele>
        <time>2013-08-27T16:24:49Z</time>
      </trkpt>
      <trkpt lat="45.62893" lon="6.62394">
        <ele>2333.7</ele>
        <time>2013-08-27T16:24:57Z</time>
      </trkpt>
      <trkpt lat="45.62889" lon="6.62392">
        <ele>2332.8</ele>
        <time>2013-08-27T16:24:59Z</time>
      </trkpt>
      <trkpt lat="45.62882" lon="6.62389">
        <ele>2329.4</ele>
        <time>2013-08-27T16:25:03Z</time>
      </trkpt>
      <trkpt lat="45.62875" lon="6.62385">
        <ele>2326.1</ele>
        <time>2013-08-27T16:25:07Z</time>
      </trkpt>
      <trkpt lat="45.62875" lon="6.62383">
        <ele>2325.6</ele>
        <time>2013-08-27T16:25:19Z</time>
      </trkpt>
      <trkpt lat="45.62874" lon="6.62383">
        <ele>2325.1</ele>
        <time>2013-08-27T16:25:23Z</time>
      </trkpt>
      <trkpt lat="45.62873" lon="6.62382">
        <ele>2324.6</ele>
        <time>2013-08-27T16:25:24Z</time>
      </trkpt>
      <trkpt lat="45.62871" lon="6.6238">
        <ele>2324.6</ele>
        <time>2013-08-27T16:25:25Z</time>
      </trkpt>
      <trkpt lat="45.62869" lon="6.62379">
        <ele>2324.1</ele>
        <time>2013-08-27T16:25:26Z</time>
      </trkpt>
      <trkpt lat="45.62867" lon="6.62378">
        <ele>2323.2</ele>
        <time>2013-08-27T16:25:27Z</time>
      </trkpt>
      <trkpt lat="45.62864" lon="6.62377">
        <ele>2322.2</ele>
        <time>2013-08-27T16:25:28Z</time>
      </trkpt>
      <trkpt lat="45.62862" lon="6.62377">
        <ele>2321.2</ele>
        <time>2013-08-27T16:25:29Z</time>
      </trkpt>
      <trkpt lat="45.62851" lon="6.62374">
        <ele>2316.9</ele>
        <time>2013-08-27T16:25:33Z</time>
      </trkpt>
      <trkpt lat="45.62839" lon="6.62369">
        <ele>2313.6</ele>
        <time>2013-08-27T16:25:37Z</time>
      </trkpt>
      <trkpt lat="45.6283" lon="6.62364">
        <ele>2309.7</ele>
        <time>2013-08-27T16:25:40Z</time>
      </trkpt>
      <trkpt lat="45.62827" lon="6.62363">
        <ele>2309.7</ele>
        <time>2013-08-27T16:25:41Z</time>
      </trkpt>
      <trkpt lat="45.62824" lon="6.6236">
        <ele>2308.3</ele>
        <time>2013-08-27T16:25:42Z</time>
      </trkpt>
      <trkpt lat="45.6282" lon="6.62356">
        <ele>2306.8</ele>
        <time>2013-08-27T16:25:43Z</time>
      </trkpt>
      <trkpt lat="45.6281" lon="6.62346">
        <ele>2303.9</ele>
        <time>2013-08-27T16:25:46Z</time>
      </trkpt>
      <trkpt lat="45.62803" lon="6.62344">
        <ele>2302</ele>
        <time>2013-08-27T16:25:49Z</time>
      </trkpt>
      <trkpt lat="45.62803" lon="6.62343">
        <ele>2302</ele>
        <time>2013-08-27T16:26:04Z</time>
      </trkpt>
      <trkpt lat="45.62801" lon="6.62343">
        <ele>2301.5</ele>
        <time>2013-08-27T16:26:06Z</time>
      </trkpt>
      <trkpt lat="45.62797" lon="6.62345">
        <ele>2300.1</ele>
        <time>2013-08-27T16:26:17Z</time>
      </trkpt>
      <trkpt lat="45.62795" lon="6.62344">
        <ele>2299.6</ele>
        <time>2013-08-27T16:26:19Z</time>
      </trkpt>
      <trkpt lat="45.62794" lon="6.62343">
        <ele>2299.6</ele>
        <time>2013-08-27T16:26:20Z</time>
      </trkpt>
      <trkpt lat="45.62787" lon="6.62338">
        <ele>2298.7</ele>
        <time>2013-08-27T16:26:33Z</time>
      </trkpt>
      <trkpt lat="45.62786" lon="6.62337">
        <ele>2298.7</ele>
        <time>2013-08-27T16:26:39Z</time>
      </trkpt>
      <trkpt lat="45.62785" lon="6.62335">
        <ele>2297.2</ele>
        <time>2013-08-27T16:26:40Z</time>
      </trkpt>
      <trkpt lat="45.62766" lon="6.62323">
        <ele>2294.3</ele>
        <time>2013-08-27T16:26:48Z</time>
      </trkpt>
      <trkpt lat="45.62758" lon="6.62314">
        <ele>2292.4</ele>
        <time>2013-08-27T16:26:52Z</time>
      </trkpt>
      <trkpt lat="45.62755" lon="6.6231">
        <ele>2291</ele>
        <time>2013-08-27T16:27:03Z</time>
      </trkpt>
      <trkpt lat="45.62751" lon="6.62308">
        <ele>2289.5</ele>
        <time>2013-08-27T16:27:15Z</time>
      </trkpt>
      <trkpt lat="45.62744" lon="6.62307">
        <ele>2286.6</ele>
        <time>2013-08-27T16:27:26Z</time>
      </trkpt>
      <trkpt lat="45.62741" lon="6.62308">
        <ele>2285.2</ele>
        <time>2013-08-27T16:27:39Z</time>
      </trkpt>
      <trkpt lat="45.62742" lon="6.62313">
        <ele>2284.2</ele>
        <time>2013-08-27T16:27:43Z</time>
      </trkpt>
      <trkpt lat="45.62739" lon="6.62318">
        <ele>2284.2</ele>
        <time>2013-08-27T16:27:51Z</time>
      </trkpt>
      <trkpt lat="45.62737" lon="6.62317">
        <ele>2283.8</ele>
        <time>2013-08-27T16:27:52Z</time>
      </trkpt>
      <trkpt lat="45.62735" lon="6.62314">
        <ele>2283.3</ele>
        <time>2013-08-27T16:27:53Z</time>
      </trkpt>
      <trkpt lat="45.62734" lon="6.62311">
        <ele>2282.8</ele>
        <time>2013-08-27T16:27:54Z</time>
      </trkpt>
      <trkpt lat="45.62734" lon="6.62307">
        <ele>2282.3</ele>
        <time>2013-08-27T16:27:55Z</time>
      </trkpt>
      <trkpt lat="45.62733" lon="6.62302">
        <ele>2282.8</ele>
        <time>2013-08-27T16:27:56Z</time>
      </trkpt>
      <trkpt lat="45.62729" lon="6.62281">
        <ele>2279.9</ele>
        <time>2013-08-27T16:27:59Z</time>
      </trkpt>
      <trkpt lat="45.62726" lon="6.62274">
        <ele>2279.4</ele>
        <time>2013-08-27T16:28:00Z</time>
      </trkpt>
      <trkpt lat="45.62723" lon="6.62269">
        <ele>2278.5</ele>
        <time>2013-08-27T16:28:01Z</time>
      </trkpt>
      <trkpt lat="45.6272" lon="6.62264">
        <ele>2277.5</ele>
        <time>2013-08-27T16:28:02Z</time>
      </trkpt>
      <trkpt lat="45.62716" lon="6.6226">
        <ele>2277.5</ele>
        <time>2013-08-27T16:28:03Z</time>
      </trkpt>
      <trkpt lat="45.62712" lon="6.62257">
        <ele>2277</ele>
        <time>2013-08-27T16:28:04Z</time>
      </trkpt>
      <trkpt lat="45.62708" lon="6.62255">
        <ele>2276.5</ele>
        <time>2013-08-27T16:28:05Z</time>
      </trkpt>
      <trkpt lat="45.62704" lon="6.62252">
        <ele>2276.5</ele>
        <time>2013-08-27T16:28:06Z</time>
      </trkpt>
      <trkpt lat="45.62685" lon="6.62235">
        <ele>2272.2</ele>
        <time>2013-08-27T16:28:11Z</time>
      </trkpt>
      <trkpt lat="45.62677" lon="6.62225">
        <ele>2271.3</ele>
        <time>2013-08-27T16:28:13Z</time>
      </trkpt>
      <trkpt lat="45.62657" lon="6.622">
        <ele>2266.9</ele>
        <time>2013-08-27T16:28:18Z</time>
      </trkpt>
      <trkpt lat="45.62653" lon="6.62196">
        <ele>2266.9</ele>
        <time>2013-08-27T16:28:19Z</time>
      </trkpt>
      <trkpt lat="45.62645" lon="6.62181">
        <ele>2264</ele>
        <time>2013-08-27T16:28:22Z</time>
      </trkpt>
      <trkpt lat="45.62644" lon="6.62174">
        <ele>2263.1</ele>
        <time>2013-08-27T16:28:23Z</time>
      </trkpt>
      <trkpt lat="45.62643" lon="6.62167">
        <ele>2262.6</ele>
        <time>2013-08-27T16:28:24Z</time>
      </trkpt>
      <trkpt lat="45.62643" lon="6.6215">
        <ele>2259.2</ele>
        <time>2013-08-27T16:28:26Z</time>
      </trkpt>
      <trkpt lat="45.62642" lon="6.62141">
        <ele>2258.8</ele>
        <time>2013-08-27T16:28:27Z</time>
      </trkpt>
      <trkpt lat="45.62639" lon="6.62127">
        <ele>2256.4</ele>
        <time>2013-08-27T16:28:29Z</time>
      </trkpt>
      <trkpt lat="45.62637" lon="6.6212">
        <ele>2256.4</ele>
        <time>2013-08-27T16:28:30Z</time>
      </trkpt>
      <trkpt lat="45.62634" lon="6.62115">
        <ele>2256.4</ele>
        <time>2013-08-27T16:28:31Z</time>
      </trkpt>
      <trkpt lat="45.6263" lon="6.62109">
        <ele>2255.4</ele>
        <time>2013-08-27T16:28:32Z</time>
      </trkpt>
      <trkpt lat="45.62625" lon="6.62104">
        <ele>2255.4</ele>
        <time>2013-08-27T16:28:33Z</time>
      </trkpt>
      <trkpt lat="45.6262" lon="6.62099">
        <ele>2254.4</ele>
        <time>2013-08-27T16:28:34Z</time>
      </trkpt>
      <trkpt lat="45.62616" lon="6.62095">
        <ele>2254.4</ele>
        <time>2013-08-27T16:28:35Z</time>
      </trkpt>
      <trkpt lat="45.62611" lon="6.62091">
        <ele>2254.4</ele>
        <time>2013-08-27T16:28:36Z</time>
      </trkpt>
      <trkpt lat="45.62603" lon="6.62087">
        <ele>2254</ele>
        <time>2013-08-27T16:28:38Z</time>
      </trkpt>
      <trkpt lat="45.62598" lon="6.62085">
        <ele>2254.4</ele>
        <time>2013-08-27T16:28:39Z</time>
      </trkpt>
      <trkpt lat="45.62592" lon="6.62084">
        <ele>2253.5</ele>
        <time>2013-08-27T16:28:40Z</time>
      </trkpt>
      <trkpt lat="45.62558" lon="6.62076">
        <ele>2252</ele>
        <time>2013-08-27T16:28:47Z</time>
      </trkpt>
      <trkpt lat="45.62555" lon="6.62075">
        <ele>2251.5</ele>
        <time>2013-08-27T16:28:48Z</time>
      </trkpt>
      <trkpt lat="45.62551" lon="6.62071">
        <ele>2250.6</ele>
        <time>2013-08-27T16:28:49Z</time>
      </trkpt>
      <trkpt lat="45.62546" lon="6.62066">
        <ele>2249.1</ele>
        <time>2013-08-27T16:28:50Z</time>
      </trkpt>
      <trkpt lat="45.62542" lon="6.6206">
        <ele>2247.7</ele>
        <time>2013-08-27T16:28:51Z</time>
      </trkpt>
      <trkpt lat="45.62538" lon="6.62055">
        <ele>2246.3</ele>
        <time>2013-08-27T16:28:52Z</time>
      </trkpt>
      <trkpt lat="45.62534" lon="6.62053">
        <ele>2246.7</ele>
        <time>2013-08-27T16:28:53Z</time>
      </trkpt>
      <trkpt lat="45.62529" lon="6.62051">
        <ele>2245.3</ele>
        <time>2013-08-27T16:28:54Z</time>
      </trkpt>
      <trkpt lat="45.62513" lon="6.62049">
        <ele>2243.9</ele>
        <time>2013-08-27T16:28:57Z</time>
      </trkpt>
      <trkpt lat="45.62503" lon="6.62048">
        <ele>2242.4</ele>
        <time>2013-08-27T16:28:59Z</time>
      </trkpt>
      <trkpt lat="45.62497" lon="6.62046">
        <ele>2241.9</ele>
        <time>2013-08-27T16:29:00Z</time>
      </trkpt>
      <trkpt lat="45.62481" lon="6.62041">
        <ele>2239.5</ele>
        <time>2013-08-27T16:29:03Z</time>
      </trkpt>
      <trkpt lat="45.62476" lon="6.6204">
        <ele>2238.6</ele>
        <time>2013-08-27T16:29:04Z</time>
      </trkpt>
      <trkpt lat="45.62472" lon="6.6204">
        <ele>2238.6</ele>
        <time>2013-08-27T16:29:05Z</time>
      </trkpt>
      <trkpt lat="45.62463" lon="6.6204">
        <ele>2237.1</ele>
        <time>2013-08-27T16:29:07Z</time>
      </trkpt>
      <trkpt lat="45.62459" lon="6.62039">
        <ele>2237.1</ele>
        <time>2013-08-27T16:29:08Z</time>
      </trkpt>
      <trkpt lat="45.62444" lon="6.62035">
        <ele>2233.8</ele>
        <time>2013-08-27T16:29:12Z</time>
      </trkpt>
      <trkpt lat="45.62434" lon="6.62033">
        <ele>2230.4</ele>
        <time>2013-08-27T16:29:15Z</time>
      </trkpt>
      <trkpt lat="45.62423" lon="6.62029">
        <ele>2227</ele>
        <time>2013-08-27T16:29:18Z</time>
      </trkpt>
      <trkpt lat="45.62419" lon="6.62026">
        <ele>2226.1</ele>
        <time>2013-08-27T16:29:19Z</time>
      </trkpt>
      <trkpt lat="45.62412" lon="6.62019">
        <ele>2224.2</ele>
        <time>2013-08-27T16:29:21Z</time>
      </trkpt>
      <trkpt lat="45.62408" lon="6.62015">
        <ele>2223.2</ele>
        <time>2013-08-27T16:29:22Z</time>
      </trkpt>
      <trkpt lat="45.62406" lon="6.62009">
        <ele>2222.7</ele>
        <time>2013-08-27T16:29:23Z</time>
      </trkpt>
      <trkpt lat="45.62405" lon="6.62002">
        <ele>2222.2</ele>
        <time>2013-08-27T16:29:24Z</time>
      </trkpt>
      <trkpt lat="45.62404" lon="6.61993">
        <ele>2221.7</ele>
        <time>2013-08-27T16:29:25Z</time>
      </trkpt>
      <trkpt lat="45.62403" lon="6.61984">
        <ele>2220.3</ele>
        <time>2013-08-27T16:29:26Z</time>
      </trkpt>
      <trkpt lat="45.62401" lon="6.61975">
        <ele>2218.9</ele>
        <time>2013-08-27T16:29:27Z</time>
      </trkpt>
      <trkpt lat="45.62399" lon="6.61967">
        <ele>2217.9</ele>
        <time>2013-08-27T16:29:28Z</time>
      </trkpt>
      <trkpt lat="45.62398" lon="6.6196">
        <ele>2217.4</ele>
        <time>2013-08-27T16:29:29Z</time>
      </trkpt>
      <trkpt lat="45.62399" lon="6.61954">
        <ele>2216.5</ele>
        <time>2013-08-27T16:29:30Z</time>
      </trkpt>
      <trkpt lat="45.62402" lon="6.61948">
        <ele>2215.5</ele>
        <time>2013-08-27T16:29:31Z</time>
      </trkpt>
      <trkpt lat="45.62404" lon="6.61941">
        <ele>2214.5</ele>
        <time>2013-08-27T16:29:32Z</time>
      </trkpt>
      <trkpt lat="45.62406" lon="6.61933">
        <ele>2214.1</ele>
        <time>2013-08-27T16:29:33Z</time>
      </trkpt>
      <trkpt lat="45.62405" lon="6.61925">
        <ele>2213.6</ele>
        <time>2013-08-27T16:29:34Z</time>
      </trkpt>
      <trkpt lat="45.62403" lon="6.61917">
        <ele>2213.1</ele>
        <time>2013-08-27T16:29:35Z</time>
      </trkpt>
      <trkpt lat="45.62401" lon="6.6191">
        <ele>2213.1</ele>
        <time>2013-08-27T16:29:36Z</time>
      </trkpt>
      <trkpt lat="45.62397" lon="6.61906">
        <ele>2212.1</ele>
        <time>2013-08-27T16:29:37Z</time>
      </trkpt>
      <trkpt lat="45.62393" lon="6.61904">
        <ele>2212.6</ele>
        <time>2013-08-27T16:29:38Z</time>
      </trkpt>
      <trkpt lat="45.62389" lon="6.61905">
        <ele>2213.6</ele>
        <time>2013-08-27T16:29:39Z</time>
      </trkpt>
      <trkpt lat="45.62384" lon="6.61907">
        <ele>2212.6</ele>
        <time>2013-08-27T16:29:40Z</time>
      </trkpt>
      <trkpt lat="45.6238" lon="6.61909">
        <ele>2212.1</ele>
        <time>2013-08-27T16:29:41Z</time>
      </trkpt>
      <trkpt lat="45.62375" lon="6.6191">
        <ele>2212.6</ele>
        <time>2013-08-27T16:29:42Z</time>
      </trkpt>
      <trkpt lat="45.62371" lon="6.6191">
        <ele>2213.1</ele>
        <time>2013-08-27T16:29:43Z</time>
      </trkpt>
      <trkpt lat="45.62367" lon="6.61908">
        <ele>2213.1</ele>
        <time>2013-08-27T16:29:44Z</time>
      </trkpt>
      <trkpt lat="45.6235" lon="6.61881">
        <ele>2213.6</ele>
        <time>2013-08-27T16:29:53Z</time>
      </trkpt>
      <trkpt lat="45.6235" lon="6.61875">
        <ele>2214.1</ele>
        <time>2013-08-27T16:29:54Z</time>
      </trkpt>
      <trkpt lat="45.62353" lon="6.61853">
        <ele>2215</ele>
        <time>2013-08-27T16:30:04Z</time>
      </trkpt>
      <trkpt lat="45.62355" lon="6.61847">
        <ele>2214.1</ele>
        <time>2013-08-27T16:30:24Z</time>
      </trkpt>
      <trkpt lat="45.62356" lon="6.61845">
        <ele>2213.6</ele>
        <time>2013-08-27T16:30:25Z</time>
      </trkpt>
      <trkpt lat="45.62358" lon="6.61843">
        <ele>2213.6</ele>
        <time>2013-08-27T16:30:26Z</time>
      </trkpt>
      <trkpt lat="45.62359" lon="6.61841">
        <ele>2213.6</ele>
        <time>2013-08-27T16:30:27Z</time>
      </trkpt>
      <trkpt lat="45.62361" lon="6.61838">
        <ele>2214.1</ele>
        <time>2013-08-27T16:30:28Z</time>
      </trkpt>
      <trkpt lat="45.62362" lon="6.61835">
        <ele>2213.6</ele>
        <time>2013-08-27T16:30:29Z</time>
      </trkpt>
      <trkpt lat="45.62363" lon="6.61833">
        <ele>2213.6</ele>
        <time>2013-08-27T16:30:30Z</time>
      </trkpt>
      <trkpt lat="45.62363" lon="6.61829">
        <ele>2214.1</ele>
        <time>2013-08-27T16:30:31Z</time>
      </trkpt>
      <trkpt lat="45.62363" lon="6.61825">
        <ele>2213.6</ele>
        <time>2013-08-27T16:30:32Z</time>
      </trkpt>
      <trkpt lat="45.62362" lon="6.6182">
        <ele>2213.6</ele>
        <time>2013-08-27T16:30:33Z</time>
      </trkpt>
      <trkpt lat="45.62361" lon="6.61816">
        <ele>2213.6</ele>
        <time>2013-08-27T16:30:34Z</time>
      </trkpt>
      <trkpt lat="45.62358" lon="6.61784">
        <ele>2211.7</ele>
        <time>2013-08-27T16:30:40Z</time>
      </trkpt>
      <trkpt lat="45.62358" lon="6.61777">
        <ele>2211.2</ele>
        <time>2013-08-27T16:30:41Z</time>
      </trkpt>
      <trkpt lat="45.62361" lon="6.61742">
        <ele>2207.3</ele>
        <time>2013-08-27T16:30:45Z</time>
      </trkpt>
      <trkpt lat="45.62362" lon="6.61734">
        <ele>2206.4</ele>
        <time>2013-08-27T16:30:46Z</time>
      </trkpt>
      <trkpt lat="45.62365" lon="6.61725">
        <ele>2205.9</ele>
        <time>2013-08-27T16:30:47Z</time>
      </trkpt>
      <trkpt lat="45.6237" lon="6.61717">
        <ele>2205.4</ele>
        <time>2013-08-27T16:30:48Z</time>
      </trkpt>
      <trkpt lat="45.62375" lon="6.6171">
        <ele>2204.4</ele>
        <time>2013-08-27T16:30:49Z</time>
      </trkpt>
      <trkpt lat="45.62379" lon="6.61701">
        <ele>2203.5</ele>
        <time>2013-08-27T16:30:50Z</time>
      </trkpt>
      <trkpt lat="45.62392" lon="6.61673">
        <ele>2199.2</ele>
        <time>2013-08-27T16:30:53Z</time>
      </trkpt>
      <trkpt lat="45.62402" lon="6.61647">
        <ele>2198.2</ele>
        <time>2013-08-27T16:30:56Z</time>
      </trkpt>
      <trkpt lat="45.62404" lon="6.61638">
        <ele>2197.2</ele>
        <time>2013-08-27T16:30:57Z</time>
      </trkpt>
      <trkpt lat="45.62403" lon="6.6163">
        <ele>2196.8</ele>
        <time>2013-08-27T16:30:58Z</time>
      </trkpt>
      <trkpt lat="45.62402" lon="6.61622">
        <ele>2196.8</ele>
        <time>2013-08-27T16:30:59Z</time>
      </trkpt>
      <trkpt lat="45.624" lon="6.61614">
        <ele>2195.8</ele>
        <time>2013-08-27T16:31:00Z</time>
      </trkpt>
      <trkpt lat="45.62399" lon="6.61606">
        <ele>2194.4</ele>
        <time>2013-08-27T16:31:01Z</time>
      </trkpt>
      <trkpt lat="45.62399" lon="6.61597">
        <ele>2194.4</ele>
        <time>2013-08-27T16:31:02Z</time>
      </trkpt>
      <trkpt lat="45.62399" lon="6.61588">
        <ele>2193.4</ele>
        <time>2013-08-27T16:31:03Z</time>
      </trkpt>
      <trkpt lat="45.624" lon="6.6158">
        <ele>2192.9</ele>
        <time>2013-08-27T16:31:04Z</time>
      </trkpt>
      <trkpt lat="45.62402" lon="6.61571">
        <ele>2191.5</ele>
        <time>2013-08-27T16:31:05Z</time>
      </trkpt>
      <trkpt lat="45.62402" lon="6.61563">
        <ele>2191</ele>
        <time>2013-08-27T16:31:06Z</time>
      </trkpt>
      <trkpt lat="45.62401" lon="6.61554">
        <ele>2190.5</ele>
        <time>2013-08-27T16:31:07Z</time>
      </trkpt>
      <trkpt lat="45.62399" lon="6.61534">
        <ele>2187.6</ele>
        <time>2013-08-27T16:31:09Z</time>
      </trkpt>
      <trkpt lat="45.62398" lon="6.61525">
        <ele>2186.7</ele>
        <time>2013-08-27T16:31:10Z</time>
      </trkpt>
      <trkpt lat="45.62396" lon="6.61516">
        <ele>2185.2</ele>
        <time>2013-08-27T16:31:11Z</time>
      </trkpt>
      <trkpt lat="45.62394" lon="6.61507">
        <ele>2184.7</ele>
        <time>2013-08-27T16:31:12Z</time>
      </trkpt>
      <trkpt lat="45.62392" lon="6.61499">
        <ele>2184.7</ele>
        <time>2013-08-27T16:31:13Z</time>
      </trkpt>
      <trkpt lat="45.62388" lon="6.61478">
        <ele>2182.3</ele>
        <time>2013-08-27T16:31:16Z</time>
      </trkpt>
      <trkpt lat="45.62385" lon="6.61472">
        <ele>2180.9</ele>
        <time>2013-08-27T16:31:17Z</time>
      </trkpt>
      <trkpt lat="45.6238" lon="6.61457">
        <ele>2179</ele>
        <time>2013-08-27T16:31:20Z</time>
      </trkpt>
      <trkpt lat="45.62381" lon="6.61451">
        <ele>2178.5</ele>
        <time>2013-08-27T16:31:21Z</time>
      </trkpt>
      <trkpt lat="45.62383" lon="6.61445">
        <ele>2177</ele>
        <time>2013-08-27T16:31:22Z</time>
      </trkpt>
      <trkpt lat="45.62385" lon="6.61438">
        <ele>2177</ele>
        <time>2013-08-27T16:31:23Z</time>
      </trkpt>
      <trkpt lat="45.62387" lon="6.6143">
        <ele>2176.1</ele>
        <time>2013-08-27T16:31:24Z</time>
      </trkpt>
      <trkpt lat="45.62387" lon="6.61422">
        <ele>2175.6</ele>
        <time>2013-08-27T16:31:25Z</time>
      </trkpt>
      <trkpt lat="45.62387" lon="6.61415">
        <ele>2174.6</ele>
        <time>2013-08-27T16:31:26Z</time>
      </trkpt>
      <trkpt lat="45.62386" lon="6.61408">
        <ele>2174.6</ele>
        <time>2013-08-27T16:31:27Z</time>
      </trkpt>
      <trkpt lat="45.62384" lon="6.61378">
        <ele>2169.8</ele>
        <time>2013-08-27T16:31:31Z</time>
      </trkpt>
      <trkpt lat="45.62384" lon="6.61371">
        <ele>2169.8</ele>
        <time>2013-08-27T16:31:32Z</time>
      </trkpt>
      <trkpt lat="45.62384" lon="6.61365">
        <ele>2169.4</ele>
        <time>2013-08-27T16:31:33Z</time>
      </trkpt>
      <trkpt lat="45.62385" lon="6.61359">
        <ele>2168.9</ele>
        <time>2013-08-27T16:31:34Z</time>
      </trkpt>
      <trkpt lat="45.62387" lon="6.61348">
        <ele>2168.4</ele>
        <time>2013-08-27T16:31:36Z</time>
      </trkpt>
      <trkpt lat="45.62386" lon="6.61344">
        <ele>2167.9</ele>
        <time>2013-08-27T16:31:37Z</time>
      </trkpt>
      <trkpt lat="45.62384" lon="6.61342">
        <ele>2167.9</ele>
        <time>2013-08-27T16:31:38Z</time>
      </trkpt>
      <trkpt lat="45.62382" lon="6.6134">
        <ele>2167.9</ele>
        <time>2013-08-27T16:31:39Z</time>
      </trkpt>
      <trkpt lat="45.6238" lon="6.61338">
        <ele>2167.9</ele>
        <time>2013-08-27T16:31:40Z</time>
      </trkpt>
      <trkpt lat="45.62377" lon="6.61337">
        <ele>2167.4</ele>
        <time>2013-08-27T16:31:41Z</time>
      </trkpt>
      <trkpt lat="45.62374" lon="6.61337">
        <ele>2167</ele>
        <time>2013-08-27T16:31:42Z</time>
      </trkpt>
      <trkpt lat="45.62371" lon="6.61337">
        <ele>2167</ele>
        <time>2013-08-27T16:31:43Z</time>
      </trkpt>
      <trkpt lat="45.62367" lon="6.61337">
        <ele>2166.5</ele>
        <time>2013-08-27T16:31:44Z</time>
      </trkpt>
      <trkpt lat="45.62352" lon="6.61337">
        <ele>2166</ele>
        <time>2013-08-27T16:31:48Z</time>
      </trkpt>
      <trkpt lat="45.62342" lon="6.61338">
        <ele>2165</ele>
        <time>2013-08-27T16:31:50Z</time>
      </trkpt>
      <trkpt lat="45.62337" lon="6.61339">
        <ele>2164.1</ele>
        <time>2013-08-27T16:31:51Z</time>
      </trkpt>
      <trkpt lat="45.62332" lon="6.6134">
        <ele>2163.6</ele>
        <time>2013-08-27T16:31:52Z</time>
      </trkpt>
      <trkpt lat="45.62327" lon="6.61342">
        <ele>2163.1</ele>
        <time>2013-08-27T16:31:53Z</time>
      </trkpt>
      <trkpt lat="45.62322" lon="6.61342">
        <ele>2162.6</ele>
        <time>2013-08-27T16:31:54Z</time>
      </trkpt>
      <trkpt lat="45.62317" lon="6.6134">
        <ele>2161.7</ele>
        <time>2013-08-27T16:31:55Z</time>
      </trkpt>
      <trkpt lat="45.62313" lon="6.61335">
        <ele>2161.2</ele>
        <time>2013-08-27T16:31:56Z</time>
      </trkpt>
      <trkpt lat="45.62309" lon="6.6133">
        <ele>2160.7</ele>
        <time>2013-08-27T16:31:57Z</time>
      </trkpt>
      <trkpt lat="45.62304" lon="6.61325">
        <ele>2159.3</ele>
        <time>2013-08-27T16:31:58Z</time>
      </trkpt>
      <trkpt lat="45.62298" lon="6.61321">
        <ele>2158.3</ele>
        <time>2013-08-27T16:31:59Z</time>
      </trkpt>
      <trkpt lat="45.62293" lon="6.61317">
        <ele>2157.8</ele>
        <time>2013-08-27T16:32:00Z</time>
      </trkpt>
      <trkpt lat="45.62288" lon="6.61313">
        <ele>2157.3</ele>
        <time>2013-08-27T16:32:01Z</time>
      </trkpt>
      <trkpt lat="45.62284" lon="6.61308">
        <ele>2155.4</ele>
        <time>2013-08-27T16:32:02Z</time>
      </trkpt>
      <trkpt lat="45.62281" lon="6.61302">
        <ele>2155.4</ele>
        <time>2013-08-27T16:32:03Z</time>
      </trkpt>
      <trkpt lat="45.62279" lon="6.61293">
        <ele>2154</ele>
        <time>2013-08-27T16:32:04Z</time>
      </trkpt>
      <trkpt lat="45.62277" lon="6.61285">
        <ele>2153.5</ele>
        <time>2013-08-27T16:32:05Z</time>
      </trkpt>
      <trkpt lat="45.62274" lon="6.61277">
        <ele>2152.5</ele>
        <time>2013-08-27T16:32:06Z</time>
      </trkpt>
      <trkpt lat="45.6227" lon="6.61269">
        <ele>2151.6</ele>
        <time>2013-08-27T16:32:07Z</time>
      </trkpt>
      <trkpt lat="45.62257" lon="6.61249">
        <ele>2148.7</ele>
        <time>2013-08-27T16:32:10Z</time>
      </trkpt>
      <trkpt lat="45.62246" lon="6.61238">
        <ele>2147.2</ele>
        <time>2013-08-27T16:32:12Z</time>
      </trkpt>
      <trkpt lat="45.62241" lon="6.61231">
        <ele>2146.3</ele>
        <time>2013-08-27T16:32:13Z</time>
      </trkpt>
      <trkpt lat="45.62237" lon="6.61224">
        <ele>2145.8</ele>
        <time>2013-08-27T16:32:14Z</time>
      </trkpt>
      <trkpt lat="45.62224" lon="6.61201">
        <ele>2142</ele>
        <time>2013-08-27T16:32:17Z</time>
      </trkpt>
      <trkpt lat="45.62212" lon="6.61182">
        <ele>2140</ele>
        <time>2013-08-27T16:32:20Z</time>
      </trkpt>
      <trkpt lat="45.62209" lon="6.61179">
        <ele>2139.1</ele>
        <time>2013-08-27T16:32:21Z</time>
      </trkpt>
      <trkpt lat="45.62205" lon="6.61178">
        <ele>2139.1</ele>
        <time>2013-08-27T16:32:22Z</time>
      </trkpt>
      <trkpt lat="45.62202" lon="6.61181">
        <ele>2138.1</ele>
        <time>2013-08-27T16:32:23Z</time>
      </trkpt>
      <trkpt lat="45.62201" lon="6.61184">
        <ele>2137.6</ele>
        <time>2013-08-27T16:32:24Z</time>
      </trkpt>
      <trkpt lat="45.62203" lon="6.6119">
        <ele>2137.6</ele>
        <time>2013-08-27T16:32:25Z</time>
      </trkpt>
      <trkpt lat="45.62206" lon="6.61195">
        <ele>2136.7</ele>
        <time>2013-08-27T16:32:26Z</time>
      </trkpt>
      <trkpt lat="45.62209" lon="6.612">
        <ele>2136.2</ele>
        <time>2013-08-27T16:32:27Z</time>
      </trkpt>
      <trkpt lat="45.62213" lon="6.61204">
        <ele>2136.7</ele>
        <time>2013-08-27T16:32:28Z</time>
      </trkpt>
      <trkpt lat="45.62215" lon="6.61209">
        <ele>2135.7</ele>
        <time>2013-08-27T16:32:29Z</time>
      </trkpt>
      <trkpt lat="45.62217" lon="6.61214">
        <ele>2136.2</ele>
        <time>2013-08-27T16:32:30Z</time>
      </trkpt>
      <trkpt lat="45.62219" lon="6.6122">
        <ele>2135.7</ele>
        <time>2013-08-27T16:32:31Z</time>
      </trkpt>
      <trkpt lat="45.6222" lon="6.61226">
        <ele>2135.7</ele>
        <time>2013-08-27T16:32:32Z</time>
      </trkpt>
      <trkpt lat="45.62221" lon="6.61232">
        <ele>2135.7</ele>
        <time>2013-08-27T16:32:33Z</time>
      </trkpt>
      <trkpt lat="45.62224" lon="6.61252">
        <ele>2135.2</ele>
        <time>2013-08-27T16:32:36Z</time>
      </trkpt>
      <trkpt lat="45.62227" lon="6.61259">
        <ele>2134.3</ele>
        <time>2013-08-27T16:32:37Z</time>
      </trkpt>
      <trkpt lat="45.6223" lon="6.61266">
        <ele>2135.2</ele>
        <time>2013-08-27T16:32:38Z</time>
      </trkpt>
      <trkpt lat="45.62231" lon="6.61273">
        <ele>2134.3</ele>
        <time>2013-08-27T16:32:39Z</time>
      </trkpt>
      <trkpt lat="45.62231" lon="6.6128">
        <ele>2134.3</ele>
        <time>2013-08-27T16:32:40Z</time>
      </trkpt>
      <trkpt lat="45.62231" lon="6.61288">
        <ele>2134.3</ele>
        <time>2013-08-27T16:32:41Z</time>
      </trkpt>
      <trkpt lat="45.62231" lon="6.61301">
        <ele>2133.8</ele>
        <time>2013-08-27T16:32:43Z</time>
      </trkpt>
      <trkpt lat="45.62232" lon="6.61306">
        <ele>2133.3</ele>
        <time>2013-08-27T16:32:44Z</time>
      </trkpt>
      <trkpt lat="45.6223" lon="6.6131">
        <ele>2132.8</ele>
        <time>2013-08-27T16:32:45Z</time>
      </trkpt>
      <trkpt lat="45.62227" lon="6.61312">
        <ele>2132.3</ele>
        <time>2013-08-27T16:32:46Z</time>
      </trkpt>
      <trkpt lat="45.62224" lon="6.6131">
        <ele>2131.4</ele>
        <time>2013-08-27T16:32:47Z</time>
      </trkpt>
      <trkpt lat="45.62222" lon="6.61306">
        <ele>2130.9</ele>
        <time>2013-08-27T16:32:48Z</time>
      </trkpt>
      <trkpt lat="45.62222" lon="6.613">
        <ele>2130.4</ele>
        <time>2013-08-27T16:32:49Z</time>
      </trkpt>
      <trkpt lat="45.62221" lon="6.61293">
        <ele>2130.4</ele>
        <time>2013-08-27T16:32:50Z</time>
      </trkpt>
      <trkpt lat="45.62221" lon="6.61286">
        <ele>2129.9</ele>
        <time>2013-08-27T16:32:51Z</time>
      </trkpt>
      <trkpt lat="45.62219" lon="6.61279">
        <ele>2129.9</ele>
        <time>2013-08-27T16:32:52Z</time>
      </trkpt>
      <trkpt lat="45.62216" lon="6.61274">
        <ele>2128.5</ele>
        <time>2013-08-27T16:32:53Z</time>
      </trkpt>
      <trkpt lat="45.62213" lon="6.61269">
        <ele>2127.5</ele>
        <time>2013-08-27T16:32:54Z</time>
      </trkpt>
      <trkpt lat="45.62209" lon="6.61265">
        <ele>2126.6</ele>
        <time>2013-08-27T16:32:55Z</time>
      </trkpt>
      <trkpt lat="45.62205" lon="6.6126">
        <ele>2126.6</ele>
        <time>2013-08-27T16:32:56Z</time>
      </trkpt>
      <trkpt lat="45.62202" lon="6.61255">
        <ele>2126.1</ele>
        <time>2013-08-27T16:32:57Z</time>
      </trkpt>
      <trkpt lat="45.62199" lon="6.61249">
        <ele>2124.2</ele>
        <time>2013-08-27T16:32:58Z</time>
      </trkpt>
      <trkpt lat="45.62195" lon="6.61244">
        <ele>2123.7</ele>
        <time>2013-08-27T16:32:59Z</time>
      </trkpt>
      <trkpt lat="45.62188" lon="6.61233">
        <ele>2122.3</ele>
        <time>2013-08-27T16:33:01Z</time>
      </trkpt>
      <trkpt lat="45.6218" lon="6.6122">
        <ele>2119.8</ele>
        <time>2013-08-27T16:33:03Z</time>
      </trkpt>
      <trkpt lat="45.62177" lon="6.61213">
        <ele>2118.9</ele>
        <time>2013-08-27T16:33:04Z</time>
      </trkpt>
      <trkpt lat="45.62173" lon="6.61206">
        <ele>2117.9</ele>
        <time>2013-08-27T16:33:05Z</time>
      </trkpt>
      <trkpt lat="45.62167" lon="6.61192">
        <ele>2116</ele>
        <time>2013-08-27T16:33:07Z</time>
      </trkpt>
      <trkpt lat="45.62165" lon="6.61184">
        <ele>2115</ele>
        <time>2013-08-27T16:33:08Z</time>
      </trkpt>
      <trkpt lat="45.62161" lon="6.61176">
        <ele>2114.1</ele>
        <time>2013-08-27T16:33:09Z</time>
      </trkpt>
      <trkpt lat="45.62156" lon="6.61168">
        <ele>2113.6</ele>
        <time>2013-08-27T16:33:10Z</time>
      </trkpt>
      <trkpt lat="45.62142" lon="6.61148">
        <ele>2110.2</ele>
        <time>2013-08-27T16:33:13Z</time>
      </trkpt>
      <trkpt lat="45.62136" lon="6.61143">
        <ele>2108.8</ele>
        <time>2013-08-27T16:33:14Z</time>
      </trkpt>
      <trkpt lat="45.6213" lon="6.61139">
        <ele>2108.3</ele>
        <time>2013-08-27T16:33:15Z</time>
      </trkpt>
      <trkpt lat="45.62102" lon="6.61123">
        <ele>2104.9</ele>
        <time>2013-08-27T16:33:20Z</time>
      </trkpt>
      <trkpt lat="45.62083" lon="6.61108">
        <ele>2101.6</ele>
        <time>2013-08-27T16:33:23Z</time>
      </trkpt>
      <trkpt lat="45.62063" lon="6.6109">
        <ele>2097.3</ele>
        <time>2013-08-27T16:33:26Z</time>
      </trkpt>
      <trkpt lat="45.62044" lon="6.61072">
        <ele>2094.4</ele>
        <time>2013-08-27T16:33:29Z</time>
      </trkpt>
      <trkpt lat="45.62039" lon="6.61066">
        <ele>2092.9</ele>
        <time>2013-08-27T16:33:30Z</time>
      </trkpt>
      <trkpt lat="45.62034" lon="6.61059">
        <ele>2092</ele>
        <time>2013-08-27T16:33:31Z</time>
      </trkpt>
      <trkpt lat="45.62025" lon="6.61047">
        <ele>2090.5</ele>
        <time>2013-08-27T16:33:33Z</time>
      </trkpt>
      <trkpt lat="45.62018" lon="6.61035">
        <ele>2088.1</ele>
        <time>2013-08-27T16:33:35Z</time>
      </trkpt>
      <trkpt lat="45.62013" lon="6.61029">
        <ele>2087.6</ele>
        <time>2013-08-27T16:33:36Z</time>
      </trkpt>
      <trkpt lat="45.62008" lon="6.61023">
        <ele>2087.2</ele>
        <time>2013-08-27T16:33:37Z</time>
      </trkpt>
      <trkpt lat="45.62003" lon="6.61016">
        <ele>2086.2</ele>
        <time>2013-08-27T16:33:38Z</time>
      </trkpt>
      <trkpt lat="45.61998" lon="6.6101">
        <ele>2085.2</ele>
        <time>2013-08-27T16:33:39Z</time>
      </trkpt>
      <trkpt lat="45.61992" lon="6.61005">
        <ele>2084.8</ele>
        <time>2013-08-27T16:33:40Z</time>
      </trkpt>
      <trkpt lat="45.61985" lon="6.61001">
        <ele>2083.3</ele>
        <time>2013-08-27T16:33:41Z</time>
      </trkpt>
      <trkpt lat="45.61978" lon="6.60999">
        <ele>2082.8</ele>
        <time>2013-08-27T16:33:42Z</time>
      </trkpt>
      <trkpt lat="45.61972" lon="6.60995">
        <ele>2081.9</ele>
        <time>2013-08-27T16:33:43Z</time>
      </trkpt>
      <trkpt lat="45.61967" lon="6.60992">
        <ele>2080.9</ele>
        <time>2013-08-27T16:33:44Z</time>
      </trkpt>
      <trkpt lat="45.61962" lon="6.60988">
        <ele>2080.9</ele>
        <time>2013-08-27T16:33:45Z</time>
      </trkpt>
      <trkpt lat="45.61958" lon="6.60983">
        <ele>2080</ele>
        <time>2013-08-27T16:33:46Z</time>
      </trkpt>
      <trkpt lat="45.61954" lon="6.60977">
        <ele>2080.4</ele>
        <time>2013-08-27T16:33:47Z</time>
      </trkpt>
      <trkpt lat="45.61949" lon="6.60969">
        <ele>2079</ele>
        <time>2013-08-27T16:33:48Z</time>
      </trkpt>
      <trkpt lat="45.61943" lon="6.60963">
        <ele>2078.5</ele>
        <time>2013-08-27T16:33:49Z</time>
      </trkpt>
      <trkpt lat="45.61927" lon="6.60943">
        <ele>2075.6</ele>
        <time>2013-08-27T16:33:52Z</time>
      </trkpt>
      <trkpt lat="45.61922" lon="6.60935">
        <ele>2075.1</ele>
        <time>2013-08-27T16:33:53Z</time>
      </trkpt>
      <trkpt lat="45.6189" lon="6.60874">
        <ele>2071.8</ele>
        <time>2013-08-27T16:34:01Z</time>
      </trkpt>
      <trkpt lat="45.61877" lon="6.60843">
        <ele>2068.9</ele>
        <time>2013-08-27T16:34:05Z</time>
      </trkpt>
      <trkpt lat="45.61872" lon="6.60831">
        <ele>2067.9</ele>
        <time>2013-08-27T16:34:07Z</time>
      </trkpt>
      <trkpt lat="45.61869" lon="6.60826">
        <ele>2067.5</ele>
        <time>2013-08-27T16:34:08Z</time>
      </trkpt>
      <trkpt lat="45.61867" lon="6.60822">
        <ele>2067</ele>
        <time>2013-08-27T16:34:09Z</time>
      </trkpt>
      <trkpt lat="45.61863" lon="6.60819">
        <ele>2066.5</ele>
        <time>2013-08-27T16:34:10Z</time>
      </trkpt>
      <trkpt lat="45.61859" lon="6.60818">
        <ele>2066.5</ele>
        <time>2013-08-27T16:34:11Z</time>
      </trkpt>
      <trkpt lat="45.61855" lon="6.60818">
        <ele>2066</ele>
        <time>2013-08-27T16:34:12Z</time>
      </trkpt>
      <trkpt lat="45.61851" lon="6.60818">
        <ele>2066.5</ele>
        <time>2013-08-27T16:34:13Z</time>
      </trkpt>
      <trkpt lat="45.61848" lon="6.6082">
        <ele>2066.5</ele>
        <time>2013-08-27T16:34:14Z</time>
      </trkpt>
      <trkpt lat="45.61846" lon="6.60821">
        <ele>2067</ele>
        <time>2013-08-27T16:34:15Z</time>
      </trkpt>
      <trkpt lat="45.61841" lon="6.60823">
        <ele>2067</ele>
        <time>2013-08-27T16:34:17Z</time>
      </trkpt>
      <trkpt lat="45.61822" lon="6.60839">
        <ele>2067</ele>
        <time>2013-08-27T16:34:29Z</time>
      </trkpt>
      <trkpt lat="45.61823" lon="6.60856">
        <ele>2066</ele>
        <time>2013-08-27T16:34:45Z</time>
      </trkpt>
      <trkpt lat="45.61824" lon="6.60861">
        <ele>2066</ele>
        <time>2013-08-27T16:34:57Z</time>
      </trkpt>
      <trkpt lat="45.61825" lon="6.60862">
        <ele>2066</ele>
        <time>2013-08-27T16:34:58Z</time>
      </trkpt>
      <trkpt lat="45.61826" lon="6.60863">
        <ele>2066</ele>
        <time>2013-08-27T16:34:59Z</time>
      </trkpt>
      <trkpt lat="45.61828" lon="6.60863">
        <ele>2065.5</ele>
        <time>2013-08-27T16:35:00Z</time>
      </trkpt>
      <trkpt lat="45.61829" lon="6.60862">
        <ele>2065.5</ele>
        <time>2013-08-27T16:35:01Z</time>
      </trkpt>
      <trkpt lat="45.6183" lon="6.60862">
        <ele>2065.1</ele>
        <time>2013-08-27T16:35:02Z</time>
      </trkpt>
      <trkpt lat="45.61832" lon="6.60862">
        <ele>2065.5</ele>
        <time>2013-08-27T16:35:03Z</time>
      </trkpt>
      <trkpt lat="45.61833" lon="6.60863">
        <ele>2065.5</ele>
        <time>2013-08-27T16:35:18Z</time>
      </trkpt>
      <trkpt lat="45.61832" lon="6.60863">
        <ele>2065.1</ele>
        <time>2013-08-27T16:35:32Z</time>
      </trkpt>
      <trkpt lat="45.61832" lon="6.60863">
        <ele>2065.5</ele>
        <time>2013-08-27T16:35:34Z</time>
      </trkpt>
      <trkpt lat="45.61824" lon="6.60812">
        <ele>2043.4</ele>
        <time>2013-08-28T05:41:16Z</time>
      </trkpt>
      <trkpt lat="45.61824" lon="6.60812">
        <ele>2043.9</ele>
        <time>2013-08-28T05:41:18Z</time>
      </trkpt>
      <trkpt lat="45.61827" lon="6.60812">
        <ele>2044.9</ele>
        <time>2013-08-28T05:41:31Z</time>
      </trkpt>
      <trkpt lat="45.6183" lon="6.60809">
        <ele>2047.3</ele>
        <time>2013-08-28T05:41:43Z</time>
      </trkpt>
      <trkpt lat="45.61831" lon="6.60806">
        <ele>2049.7</ele>
        <time>2013-08-28T05:41:48Z</time>
      </trkpt>
      <trkpt lat="45.61829" lon="6.60803">
        <ele>2051.6</ele>
        <time>2013-08-28T05:41:52Z</time>
      </trkpt>
      <trkpt lat="45.61819" lon="6.60809">
        <ele>2054.5</ele>
        <time>2013-08-28T05:41:59Z</time>
      </trkpt>
      <trkpt lat="45.61815" lon="6.60811">
        <ele>2056.4</ele>
        <time>2013-08-28T05:42:02Z</time>
      </trkpt>
      <trkpt lat="45.61807" lon="6.60814">
        <ele>2059.8</ele>
        <time>2013-08-28T05:42:08Z</time>
      </trkpt>
      <trkpt lat="45.61795" lon="6.6081">
        <ele>2063.1</ele>
        <time>2013-08-28T05:42:17Z</time>
      </trkpt>
      <trkpt lat="45.61792" lon="6.60809">
        <ele>2064.1</ele>
        <time>2013-08-28T05:42:19Z</time>
      </trkpt>
      <trkpt lat="45.61785" lon="6.60803">
        <ele>2066.5</ele>
        <time>2013-08-28T05:42:25Z</time>
      </trkpt>
      <trkpt lat="45.6178" lon="6.60797">
        <ele>2068.4</ele>
        <time>2013-08-28T05:42:30Z</time>
      </trkpt>
      <trkpt lat="45.6177" lon="6.60788">
        <ele>2071.8</ele>
        <time>2013-08-28T05:42:40Z</time>
      </trkpt>
      <trkpt lat="45.6176" lon="6.60783">
        <ele>2074.7</ele>
        <time>2013-08-28T05:42:49Z</time>
      </trkpt>
      <trkpt lat="45.6176" lon="6.60782">
        <ele>2075.1</ele>
        <time>2013-08-28T05:42:50Z</time>
      </trkpt>
      <trkpt lat="45.61763" lon="6.60772">
        <ele>2076.6</ele>
        <time>2013-08-28T05:42:55Z</time>
      </trkpt>
      <trkpt lat="45.6178" lon="6.60756">
        <ele>2079.5</ele>
        <time>2013-08-28T05:43:08Z</time>
      </trkpt>
      <trkpt lat="45.61798" lon="6.60735">
        <ele>2082.4</ele>
        <time>2013-08-28T05:43:24Z</time>
      </trkpt>
      <trkpt lat="45.61813" lon="6.60703">
        <ele>2085.2</ele>
        <time>2013-08-28T05:43:40Z</time>
      </trkpt>
      <trkpt lat="45.61833" lon="6.60686">
        <ele>2086.7</ele>
        <time>2013-08-28T05:43:56Z</time>
      </trkpt>
      <trkpt lat="45.61855" lon="6.60696">
        <ele>2089.6</ele>
        <time>2013-08-28T05:44:11Z</time>
      </trkpt>
      <trkpt lat="45.61876" lon="6.60715">
        <ele>2092.9</ele>
        <time>2013-08-28T05:44:27Z</time>
      </trkpt>
      <trkpt lat="45.61883" lon="6.60731">
        <ele>2094.4</ele>
        <time>2013-08-28T05:44:36Z</time>
      </trkpt>
      <trkpt lat="45.61893" lon="6.60729">
        <ele>2095.3</ele>
        <time>2013-08-28T05:44:43Z</time>
      </trkpt>
      <trkpt lat="45.61893" lon="6.60727">
        <ele>2094.9</ele>
        <time>2013-08-28T05:44:44Z</time>
      </trkpt>
      <trkpt lat="45.61892" lon="6.60724">
        <ele>2095.8</ele>
        <time>2013-08-28T05:44:45Z</time>
      </trkpt>
      <trkpt lat="45.61891" lon="6.60722">
        <ele>2095.8</ele>
        <time>2013-08-28T05:44:46Z</time>
      </trkpt>
      <trkpt lat="45.6189" lon="6.60719">
        <ele>2095.8</ele>
        <time>2013-08-28T05:44:47Z</time>
      </trkpt>
      <trkpt lat="45.61889" lon="6.60717">
        <ele>2095.8</ele>
        <time>2013-08-28T05:44:48Z</time>
      </trkpt>
      <trkpt lat="45.61888" lon="6.60715">
        <ele>2096.3</ele>
        <time>2013-08-28T05:44:49Z</time>
      </trkpt>
      <trkpt lat="45.61887" lon="6.60713">
        <ele>2096.3</ele>
        <time>2013-08-28T05:44:50Z</time>
      </trkpt>
      <trkpt lat="45.61886" lon="6.60711">
        <ele>2096.3</ele>
        <time>2013-08-28T05:44:51Z</time>
      </trkpt>
      <trkpt lat="45.61885" lon="6.6071">
        <ele>2096.3</ele>
        <time>2013-08-28T05:44:52Z</time>
      </trkpt>
      <trkpt lat="45.61884" lon="6.60708">
        <ele>2097.3</ele>
        <time>2013-08-28T05:44:53Z</time>
      </trkpt>
      <trkpt lat="45.61883" lon="6.60706">
        <ele>2096.3</ele>
        <time>2013-08-28T05:44:54Z</time>
      </trkpt>
      <trkpt lat="45.61875" lon="6.60671">
        <ele>2099.2</ele>
        <time>2013-08-28T05:45:09Z</time>
      </trkpt>
      <trkpt lat="45.61863" lon="6.60642">
        <ele>2102.1</ele>
        <time>2013-08-28T05:45:25Z</time>
      </trkpt>
      <trkpt lat="45.61855" lon="6.60602">
        <ele>2104.5</ele>
        <time>2013-08-28T05:45:43Z</time>
      </trkpt>
      <trkpt lat="45.61839" lon="6.60568">
        <ele>2107.4</ele>
        <time>2013-08-28T05:46:02Z</time>
      </trkpt>
      <trkpt lat="45.61822" lon="6.6054">
        <ele>2107.4</ele>
        <time>2013-08-28T05:46:17Z</time>
      </trkpt>
      <trkpt lat="45.61801" lon="6.60526">
        <ele>2105.9</ele>
        <time>2013-08-28T05:46:25Z</time>
      </trkpt>
      <trkpt lat="45.61797" lon="6.60525">
        <ele>2105.9</ele>
        <time>2013-08-28T05:46:26Z</time>
      </trkpt>
      <trkpt lat="45.61793" lon="6.60522">
        <ele>2105.4</ele>
        <time>2013-08-28T05:46:27Z</time>
      </trkpt>
      <trkpt lat="45.61789" lon="6.6052">
        <ele>2105.4</ele>
        <time>2013-08-28T05:46:28Z</time>
      </trkpt>
      <trkpt lat="45.61785" lon="6.60516">
        <ele>2104.5</ele>
        <time>2013-08-28T05:46:29Z</time>
      </trkpt>
      <trkpt lat="45.61782" lon="6.6051">
        <ele>2104.5</ele>
        <time>2013-08-28T05:46:30Z</time>
      </trkpt>
      <trkpt lat="45.61781" lon="6.60504">
        <ele>2104.9</ele>
        <time>2013-08-28T05:46:31Z</time>
      </trkpt>
      <trkpt lat="45.61779" lon="6.60497">
        <ele>2104</ele>
        <time>2013-08-28T05:46:32Z</time>
      </trkpt>
      <trkpt lat="45.61777" lon="6.60485">
        <ele>2104</ele>
        <time>2013-08-28T05:46:34Z</time>
      </trkpt>
      <trkpt lat="45.61777" lon="6.60479">
        <ele>2104</ele>
        <time>2013-08-28T05:46:35Z</time>
      </trkpt>
      <trkpt lat="45.61777" lon="6.60473">
        <ele>2104</ele>
        <time>2013-08-28T05:46:36Z</time>
      </trkpt>
      <trkpt lat="45.61767" lon="6.60417">
        <ele>2106.4</ele>
        <time>2013-08-28T05:46:51Z</time>
      </trkpt>
      <trkpt lat="45.61752" lon="6.60389">
        <ele>2109.8</ele>
        <time>2013-08-28T05:47:04Z</time>
      </trkpt>
      <trkpt lat="45.61744" lon="6.60341">
        <ele>2110.7</ele>
        <time>2013-08-28T05:47:22Z</time>
      </trkpt>
      <trkpt lat="45.61732" lon="6.60309">
        <ele>2111.2</ele>
        <time>2013-08-28T05:47:35Z</time>
      </trkpt>
      <trkpt lat="45.61728" lon="6.60308">
        <ele>2110.7</ele>
        <time>2013-08-28T05:47:37Z</time>
      </trkpt>
      <trkpt lat="45.61726" lon="6.60308">
        <ele>2111.7</ele>
        <time>2013-08-28T05:47:38Z</time>
      </trkpt>
      <trkpt lat="45.61724" lon="6.60308">
        <ele>2110.7</ele>
        <time>2013-08-28T05:47:39Z</time>
      </trkpt>
      <trkpt lat="45.61722" lon="6.60309">
        <ele>2110.7</ele>
        <time>2013-08-28T05:47:40Z</time>
      </trkpt>
      <trkpt lat="45.6172" lon="6.6031">
        <ele>2110.7</ele>
        <time>2013-08-28T05:47:41Z</time>
      </trkpt>
      <trkpt lat="45.61718" lon="6.60311">
        <ele>2111.2</ele>
        <time>2013-08-28T05:47:42Z</time>
      </trkpt>
      <trkpt lat="45.61688" lon="6.60328">
        <ele>2112.2</ele>
        <time>2013-08-28T05:47:57Z</time>
      </trkpt>
      <trkpt lat="45.61656" lon="6.60346">
        <ele>2111.7</ele>
        <time>2013-08-28T05:48:09Z</time>
      </trkpt>
      <trkpt lat="45.61622" lon="6.60374">
        <ele>2114.1</ele>
        <time>2013-08-28T05:48:26Z</time>
      </trkpt>
      <trkpt lat="45.61592" lon="6.60383">
        <ele>2116</ele>
        <time>2013-08-28T05:48:42Z</time>
      </trkpt>
      <trkpt lat="45.61565" lon="6.60386">
        <ele>2118.9</ele>
        <time>2013-08-28T05:48:58Z</time>
      </trkpt>
      <trkpt lat="45.61541" lon="6.60389">
        <ele>2121.8</ele>
        <time>2013-08-28T05:49:15Z</time>
      </trkpt>
      <trkpt lat="45.61521" lon="6.60383">
        <ele>2125.1</ele>
        <time>2013-08-28T05:49:30Z</time>
      </trkpt>
      <trkpt lat="45.61498" lon="6.60374">
        <ele>2127.5</ele>
        <time>2013-08-28T05:49:50Z</time>
      </trkpt>
      <trkpt lat="45.615" lon="6.6037">
        <ele>2128.5</ele>
        <time>2013-08-28T05:50:15Z</time>
      </trkpt>
      <trkpt lat="45.61499" lon="6.60365">
        <ele>2128.5</ele>
        <time>2013-08-28T05:50:20Z</time>
      </trkpt>
      <trkpt lat="45.61498" lon="6.60364">
        <ele>2129</ele>
        <time>2013-08-28T05:50:21Z</time>
      </trkpt>
      <trkpt lat="45.61489" lon="6.60356">
        <ele>2130.4</ele>
        <time>2013-08-28T05:50:35Z</time>
      </trkpt>
      <trkpt lat="45.61477" lon="6.60348">
        <ele>2131.4</ele>
        <time>2013-08-28T05:50:44Z</time>
      </trkpt>
      <trkpt lat="45.61452" lon="6.60328">
        <ele>2130.4</ele>
        <time>2013-08-28T05:50:59Z</time>
      </trkpt>
      <trkpt lat="45.61435" lon="6.60314">
        <ele>2131.9</ele>
        <time>2013-08-28T05:51:11Z</time>
      </trkpt>
      <trkpt lat="45.6143" lon="6.6031">
        <ele>2132.3</ele>
        <time>2013-08-28T05:51:14Z</time>
      </trkpt>
      <trkpt lat="45.61418" lon="6.60291">
        <ele>2132.8</ele>
        <time>2013-08-28T05:51:27Z</time>
      </trkpt>
      <trkpt lat="45.61417" lon="6.60287">
        <ele>2133.8</ele>
        <time>2013-08-28T05:51:44Z</time>
      </trkpt>
      <trkpt lat="45.61412" lon="6.60284">
        <ele>2133.8</ele>
        <time>2013-08-28T05:51:53Z</time>
      </trkpt>
      <trkpt lat="45.61406" lon="6.60282">
        <ele>2134.3</ele>
        <time>2013-08-28T05:52:09Z</time>
      </trkpt>
      <trkpt lat="45.614" lon="6.60273">
        <ele>2137.2</ele>
        <time>2013-08-28T05:52:21Z</time>
      </trkpt>
      <trkpt lat="45.61398" lon="6.6027">
        <ele>2137.6</ele>
        <time>2013-08-28T05:52:25Z</time>
      </trkpt>
      <trkpt lat="45.6139" lon="6.60255">
        <ele>2140</ele>
        <time>2013-08-28T05:52:43Z</time>
      </trkpt>
      <trkpt lat="45.61387" lon="6.60251">
        <ele>2141</ele>
        <time>2013-08-28T05:52:49Z</time>
      </trkpt>
      <trkpt lat="45.61386" lon="6.6025">
        <ele>2141.5</ele>
        <time>2013-08-28T05:52:50Z</time>
      </trkpt>
      <trkpt lat="45.6138" lon="6.60247">
        <ele>2141.5</ele>
        <time>2013-08-28T05:53:07Z</time>
      </trkpt>
      <trkpt lat="45.61379" lon="6.60246">
        <ele>2142</ele>
        <time>2013-08-28T05:53:09Z</time>
      </trkpt>
      <trkpt lat="45.61369" lon="6.60242">
        <ele>2143.9</ele>
        <time>2013-08-28T05:53:24Z</time>
      </trkpt>
      <trkpt lat="45.61362" lon="6.6024">
        <ele>2147.2</ele>
        <time>2013-08-28T05:53:41Z</time>
      </trkpt>
      <trkpt lat="45.61362" lon="6.60225">
        <ele>2148.2</ele>
        <time>2013-08-28T05:53:56Z</time>
      </trkpt>
      <trkpt lat="45.61366" lon="6.60213">
        <ele>2150.1</ele>
        <time>2013-08-28T05:54:11Z</time>
      </trkpt>
      <trkpt lat="45.61369" lon="6.60199">
        <ele>2152.1</ele>
        <time>2013-08-28T05:54:27Z</time>
      </trkpt>
      <trkpt lat="45.61369" lon="6.60195">
        <ele>2153</ele>
        <time>2013-08-28T05:54:32Z</time>
      </trkpt>
      <trkpt lat="45.61368" lon="6.60178">
        <ele>2154</ele>
        <time>2013-08-28T05:54:47Z</time>
      </trkpt>
      <trkpt lat="45.6136" lon="6.60169">
        <ele>2155.4</ele>
        <time>2013-08-28T05:55:01Z</time>
      </trkpt>
      <trkpt lat="45.61354" lon="6.60163">
        <ele>2156.9</ele>
        <time>2013-08-28T05:55:14Z</time>
      </trkpt>
      <trkpt lat="45.61349" lon="6.60157">
        <ele>2156.9</ele>
        <time>2013-08-28T05:55:27Z</time>
      </trkpt>
      <trkpt lat="45.61338" lon="6.60147">
        <ele>2158.8</ele>
        <time>2013-08-28T05:55:38Z</time>
      </trkpt>
      <trkpt lat="45.61329" lon="6.60128">
        <ele>2161.2</ele>
        <time>2013-08-28T05:55:51Z</time>
      </trkpt>
      <trkpt lat="45.61327" lon="6.60122">
        <ele>2161.7</ele>
        <time>2013-08-28T05:55:57Z</time>
      </trkpt>
      <trkpt lat="45.61326" lon="6.60121">
        <ele>2161.7</ele>
        <time>2013-08-28T05:55:58Z</time>
      </trkpt>
      <trkpt lat="45.61323" lon="6.60118">
        <ele>2162.6</ele>
        <time>2013-08-28T05:56:01Z</time>
      </trkpt>
      <trkpt lat="45.61322" lon="6.60118">
        <ele>2162.6</ele>
        <time>2013-08-28T05:56:02Z</time>
      </trkpt>
      <trkpt lat="45.61309" lon="6.60101">
        <ele>2165</ele>
        <time>2013-08-28T05:56:16Z</time>
      </trkpt>
      <trkpt lat="45.61293" lon="6.6009">
        <ele>2167.4</ele>
        <time>2013-08-28T05:56:32Z</time>
      </trkpt>
      <trkpt lat="45.6129" lon="6.60084">
        <ele>2167.9</ele>
        <time>2013-08-28T05:56:42Z</time>
      </trkpt>
      <trkpt lat="45.61284" lon="6.6008">
        <ele>2169.4</ele>
        <time>2013-08-28T05:56:58Z</time>
      </trkpt>
      <trkpt lat="45.61276" lon="6.60069">
        <ele>2170.8</ele>
        <time>2013-08-28T05:57:13Z</time>
      </trkpt>
      <trkpt lat="45.61267" lon="6.60058">
        <ele>2173.2</ele>
        <time>2013-08-28T05:57:30Z</time>
      </trkpt>
      <trkpt lat="45.61259" lon="6.60051">
        <ele>2174.6</ele>
        <time>2013-08-28T05:57:47Z</time>
      </trkpt>
      <trkpt lat="45.61249" lon="6.60045">
        <ele>2177</ele>
        <time>2013-08-28T05:58:04Z</time>
      </trkpt>
      <trkpt lat="45.61243" lon="6.60042">
        <ele>2178.5</ele>
        <time>2013-08-28T05:58:17Z</time>
      </trkpt>
      <trkpt lat="45.61237" lon="6.60042">
        <ele>2180.9</ele>
        <time>2013-08-28T05:58:33Z</time>
      </trkpt>
      <trkpt lat="45.61232" lon="6.60042">
        <ele>2181.9</ele>
        <time>2013-08-28T05:58:48Z</time>
      </trkpt>
      <trkpt lat="45.61228" lon="6.60043">
        <ele>2182.3</ele>
        <time>2013-08-28T05:59:08Z</time>
      </trkpt>
      <trkpt lat="45.61221" lon="6.60039">
        <ele>2184.7</ele>
        <time>2013-08-28T05:59:22Z</time>
      </trkpt>
      <trkpt lat="45.61218" lon="6.60038">
        <ele>2185.2</ele>
        <time>2013-08-28T05:59:34Z</time>
      </trkpt>
      <trkpt lat="45.61216" lon="6.60034">
        <ele>2186.2</ele>
        <time>2013-08-28T05:59:48Z</time>
      </trkpt>
      <trkpt lat="45.61211" lon="6.60026">
        <ele>2188.1</ele>
        <time>2013-08-28T06:00:05Z</time>
      </trkpt>
      <trkpt lat="45.61209" lon="6.6002">
        <ele>2190.5</ele>
        <time>2013-08-28T06:00:20Z</time>
      </trkpt>
      <trkpt lat="45.61208" lon="6.60017">
        <ele>2190</ele>
        <time>2013-08-28T06:00:38Z</time>
      </trkpt>
      <trkpt lat="45.61204" lon="6.60012">
        <ele>2191.9</ele>
        <time>2013-08-28T06:00:53Z</time>
      </trkpt>
      <trkpt lat="45.61197" lon="6.60004">
        <ele>2194.4</ele>
        <time>2013-08-28T06:01:07Z</time>
      </trkpt>
      <trkpt lat="45.61196" lon="6.59999">
        <ele>2195.3</ele>
        <time>2013-08-28T06:01:22Z</time>
      </trkpt>
      <trkpt lat="45.61197" lon="6.59997">
        <ele>2195.8</ele>
        <time>2013-08-28T06:02:05Z</time>
      </trkpt>
      <trkpt lat="45.61197" lon="6.59999">
        <ele>2195.3</ele>
        <time>2013-08-28T06:02:45Z</time>
      </trkpt>
      <trkpt lat="45.61199" lon="6.59998">
        <ele>2195.8</ele>
        <time>2013-08-28T06:03:15Z</time>
      </trkpt>
      <trkpt lat="45.61194" lon="6.59995">
        <ele>2196.8</ele>
        <time>2013-08-28T06:03:34Z</time>
      </trkpt>
      <trkpt lat="45.61188" lon="6.59986">
        <ele>2199.2</ele>
        <time>2013-08-28T06:03:49Z</time>
      </trkpt>
      <trkpt lat="45.61181" lon="6.59975">
        <ele>2200.1</ele>
        <time>2013-08-28T06:04:05Z</time>
      </trkpt>
      <trkpt lat="45.61177" lon="6.59966">
        <ele>2202.5</ele>
        <time>2013-08-28T06:04:19Z</time>
      </trkpt>
      <trkpt lat="45.61169" lon="6.59954">
        <ele>2204</ele>
        <time>2013-08-28T06:04:36Z</time>
      </trkpt>
      <trkpt lat="45.61168" lon="6.59952">
        <ele>2204.4</ele>
        <time>2013-08-28T06:04:38Z</time>
      </trkpt>
      <trkpt lat="45.61164" lon="6.59942">
        <ele>2206.4</ele>
        <time>2013-08-28T06:04:50Z</time>
      </trkpt>
      <trkpt lat="45.61163" lon="6.59937">
        <ele>2206.8</ele>
        <time>2013-08-28T06:05:02Z</time>
      </trkpt>
      <trkpt lat="45.61163" lon="6.59937">
        <ele>2207.3</ele>
        <time>2013-08-28T06:05:15Z</time>
      </trkpt>
      <trkpt lat="45.61158" lon="6.59924">
        <ele>2209.3</ele>
        <time>2013-08-28T06:05:27Z</time>
      </trkpt>
      <trkpt lat="45.61156" lon="6.59912">
        <ele>2211.7</ele>
        <time>2013-08-28T06:05:44Z</time>
      </trkpt>
      <trkpt lat="45.61155" lon="6.59903">
        <ele>2213.6</ele>
        <time>2013-08-28T06:05:57Z</time>
      </trkpt>
      <trkpt lat="45.61154" lon="6.59895">
        <ele>2215</ele>
        <time>2013-08-28T06:06:12Z</time>
      </trkpt>
      <trkpt lat="45.61157" lon="6.59883">
        <ele>2218.4</ele>
        <time>2013-08-28T06:06:28Z</time>
      </trkpt>
      <trkpt lat="45.61159" lon="6.59875">
        <ele>2220.3</ele>
        <time>2013-08-28T06:06:41Z</time>
      </trkpt>
      <trkpt lat="45.6116" lon="6.59865">
        <ele>2222.7</ele>
        <time>2013-08-28T06:06:54Z</time>
      </trkpt>
      <trkpt lat="45.61158" lon="6.59852">
        <ele>2224.6</ele>
        <time>2013-08-28T06:07:09Z</time>
      </trkpt>
      <trkpt lat="45.61153" lon="6.59839">
        <ele>2225.6</ele>
        <time>2013-08-28T06:07:24Z</time>
      </trkpt>
      <trkpt lat="45.61148" lon="6.5983">
        <ele>2229</ele>
        <time>2013-08-28T06:07:38Z</time>
      </trkpt>
      <trkpt lat="45.6114" lon="6.59818">
        <ele>2229.9</ele>
        <time>2013-08-28T06:07:53Z</time>
      </trkpt>
      <trkpt lat="45.61133" lon="6.59804">
        <ele>2232.8</ele>
        <time>2013-08-28T06:08:08Z</time>
      </trkpt>
      <trkpt lat="45.61126" lon="6.59784">
        <ele>2235.2</ele>
        <time>2013-08-28T06:08:26Z</time>
      </trkpt>
      <trkpt lat="45.61122" lon="6.59768">
        <ele>2237.6</ele>
        <time>2013-08-28T06:08:41Z</time>
      </trkpt>
      <trkpt lat="45.61114" lon="6.59756">
        <ele>2240</ele>
        <time>2013-08-28T06:08:57Z</time>
      </trkpt>
      <trkpt lat="45.6111" lon="6.59749">
        <ele>2241.9</ele>
        <time>2013-08-28T06:09:11Z</time>
      </trkpt>
      <trkpt lat="45.61104" lon="6.59743">
        <ele>2243.9</ele>
        <time>2013-08-28T06:09:27Z</time>
      </trkpt>
      <trkpt lat="45.61099" lon="6.59738">
        <ele>2246.3</ele>
        <time>2013-08-28T06:09:41Z</time>
      </trkpt>
      <trkpt lat="45.61093" lon="6.59732">
        <ele>2246.3</ele>
        <time>2013-08-28T06:09:54Z</time>
      </trkpt>
      <trkpt lat="45.61092" lon="6.59726">
        <ele>2248.7</ele>
        <time>2013-08-28T06:10:11Z</time>
      </trkpt>
      <trkpt lat="45.61088" lon="6.59708">
        <ele>2251.5</ele>
        <time>2013-08-28T06:10:30Z</time>
      </trkpt>
      <trkpt lat="45.61084" lon="6.59696">
        <ele>2253</ele>
        <time>2013-08-28T06:10:44Z</time>
      </trkpt>
      <trkpt lat="45.6108" lon="6.59682">
        <ele>2254.9</ele>
        <time>2013-08-28T06:11:00Z</time>
      </trkpt>
      <trkpt lat="45.61079" lon="6.5968">
        <ele>2254.9</ele>
        <time>2013-08-28T06:11:03Z</time>
      </trkpt>
      <trkpt lat="45.61081" lon="6.59668">
        <ele>2256.4</ele>
        <time>2013-08-28T06:11:15Z</time>
      </trkpt>
      <trkpt lat="45.61088" lon="6.5966">
        <ele>2258.3</ele>
        <time>2013-08-28T06:11:29Z</time>
      </trkpt>
      <trkpt lat="45.61086" lon="6.59648">
        <ele>2259.7</ele>
        <time>2013-08-28T06:11:43Z</time>
      </trkpt>
      <trkpt lat="45.61089" lon="6.59639">
        <ele>2262.1</ele>
        <time>2013-08-28T06:11:57Z</time>
      </trkpt>
      <trkpt lat="45.61096" lon="6.59629">
        <ele>2263.1</ele>
        <time>2013-08-28T06:12:12Z</time>
      </trkpt>
      <trkpt lat="45.61098" lon="6.59622">
        <ele>2265.5</ele>
        <time>2013-08-28T06:12:27Z</time>
      </trkpt>
      <trkpt lat="45.61099" lon="6.59611">
        <ele>2268.4</ele>
        <time>2013-08-28T06:12:44Z</time>
      </trkpt>
      <trkpt lat="45.61102" lon="6.59606">
        <ele>2269.3</ele>
        <time>2013-08-28T06:12:56Z</time>
      </trkpt>
      <trkpt lat="45.61101" lon="6.59604">
        <ele>2270.8</ele>
        <time>2013-08-28T06:12:59Z</time>
      </trkpt>
      <trkpt lat="45.61107" lon="6.59601">
        <ele>2271.7</ele>
        <time>2013-08-28T06:13:12Z</time>
      </trkpt>
      <trkpt lat="45.61113" lon="6.59593">
        <ele>2273.7</ele>
        <time>2013-08-28T06:13:28Z</time>
      </trkpt>
      <trkpt lat="45.61119" lon="6.59586">
        <ele>2275.1</ele>
        <time>2013-08-28T06:13:41Z</time>
      </trkpt>
      <trkpt lat="45.61121" lon="6.5957">
        <ele>2277</ele>
        <time>2013-08-28T06:13:57Z</time>
      </trkpt>
      <trkpt lat="45.61125" lon="6.59564">
        <ele>2278.9</ele>
        <time>2013-08-28T06:14:14Z</time>
      </trkpt>
      <trkpt lat="45.61126" lon="6.59563">
        <ele>2278.5</ele>
        <time>2013-08-28T06:14:40Z</time>
      </trkpt>
      <trkpt lat="45.61132" lon="6.59558">
        <ele>2278.9</ele>
        <time>2013-08-28T06:14:59Z</time>
      </trkpt>
      <trkpt lat="45.61137" lon="6.59555">
        <ele>2279.9</ele>
        <time>2013-08-28T06:15:13Z</time>
      </trkpt>
      <trkpt lat="45.61142" lon="6.59552">
        <ele>2280.4</ele>
        <time>2013-08-28T06:15:24Z</time>
      </trkpt>
      <trkpt lat="45.61148" lon="6.59546">
        <ele>2280.9</ele>
        <time>2013-08-28T06:15:32Z</time>
      </trkpt>
      <trkpt lat="45.61148" lon="6.59544">
        <ele>2280.9</ele>
        <time>2013-08-28T06:15:33Z</time>
      </trkpt>
      <trkpt lat="45.61155" lon="6.59522">
        <ele>2282.3</ele>
        <time>2013-08-28T06:15:50Z</time>
      </trkpt>
      <trkpt lat="45.61158" lon="6.59506">
        <ele>2284.7</ele>
        <time>2013-08-28T06:16:08Z</time>
      </trkpt>
      <trkpt lat="45.61163" lon="6.59501">
        <ele>2287.1</ele>
        <time>2013-08-28T06:16:24Z</time>
      </trkpt>
      <trkpt lat="45.61174" lon="6.5949">
        <ele>2288.6</ele>
        <time>2013-08-28T06:16:39Z</time>
      </trkpt>
      <trkpt lat="45.61179" lon="6.59476">
        <ele>2289</ele>
        <time>2013-08-28T06:16:51Z</time>
      </trkpt>
      <trkpt lat="45.6118" lon="6.59474">
        <ele>2289</ele>
        <time>2013-08-28T06:16:52Z</time>
      </trkpt>
      <trkpt lat="45.6118" lon="6.59471">
        <ele>2289</ele>
        <time>2013-08-28T06:16:54Z</time>
      </trkpt>
      <trkpt lat="45.61179" lon="6.5947">
        <ele>2289.5</ele>
        <time>2013-08-28T06:16:55Z</time>
      </trkpt>
      <trkpt lat="45.61177" lon="6.59461">
        <ele>2290.5</ele>
        <time>2013-08-28T06:17:08Z</time>
      </trkpt>
      <trkpt lat="45.61173" lon="6.59444">
        <ele>2292.4</ele>
        <time>2013-08-28T06:17:25Z</time>
      </trkpt>
      <trkpt lat="45.61171" lon="6.59435">
        <ele>2293.8</ele>
        <time>2013-08-28T06:17:39Z</time>
      </trkpt>
      <trkpt lat="45.61171" lon="6.59425">
        <ele>2295.8</ele>
        <time>2013-08-28T06:17:51Z</time>
      </trkpt>
      <trkpt lat="45.61173" lon="6.59415">
        <ele>2298.7</ele>
        <time>2013-08-28T06:18:06Z</time>
      </trkpt>
      <trkpt lat="45.61177" lon="6.59415">
        <ele>2298.2</ele>
        <time>2013-08-28T06:18:19Z</time>
      </trkpt>
      <trkpt lat="45.61178" lon="6.59415">
        <ele>2298.7</ele>
        <time>2013-08-28T06:18:20Z</time>
      </trkpt>
      <trkpt lat="45.61188" lon="6.59415">
        <ele>2298.7</ele>
        <time>2013-08-28T06:18:35Z</time>
      </trkpt>
      <trkpt lat="45.61188" lon="6.59414">
        <ele>2298.7</ele>
        <time>2013-08-28T06:18:55Z</time>
      </trkpt>
      <trkpt lat="45.61188" lon="6.59414">
        <ele>2298.2</ele>
        <time>2013-08-28T06:19:25Z</time>
      </trkpt>
      <trkpt lat="45.61189" lon="6.59413">
        <ele>2299.1</ele>
        <time>2013-08-28T06:19:49Z</time>
      </trkpt>
      <trkpt lat="45.61189" lon="6.5941">
        <ele>2299.1</ele>
        <time>2013-08-28T06:20:00Z</time>
      </trkpt>
      <trkpt lat="45.6119" lon="6.59408">
        <ele>2298.7</ele>
        <time>2013-08-28T06:20:02Z</time>
      </trkpt>
      <trkpt lat="45.6119" lon="6.59406">
        <ele>2299.1</ele>
        <time>2013-08-28T06:20:03Z</time>
      </trkpt>
      <trkpt lat="45.61189" lon="6.59403">
        <ele>2298.7</ele>
        <time>2013-08-28T06:20:05Z</time>
      </trkpt>
      <trkpt lat="45.61189" lon="6.59401">
        <ele>2298.7</ele>
        <time>2013-08-28T06:20:06Z</time>
      </trkpt>
      <trkpt lat="45.61188" lon="6.594">
        <ele>2299.1</ele>
        <time>2013-08-28T06:20:07Z</time>
      </trkpt>
      <trkpt lat="45.61187" lon="6.59399">
        <ele>2298.7</ele>
        <time>2013-08-28T06:20:08Z</time>
      </trkpt>
      <trkpt lat="45.61187" lon="6.59397">
        <ele>2299.1</ele>
        <time>2013-08-28T06:20:09Z</time>
      </trkpt>
      <trkpt lat="45.61186" lon="6.59395">
        <ele>2299.1</ele>
        <time>2013-08-28T06:20:10Z</time>
      </trkpt>
      <trkpt lat="45.61185" lon="6.59393">
        <ele>2299.1</ele>
        <time>2013-08-28T06:20:11Z</time>
      </trkpt>
      <trkpt lat="45.61184" lon="6.59391">
        <ele>2299.1</ele>
        <time>2013-08-28T06:20:12Z</time>
      </trkpt>
      <trkpt lat="45.61183" lon="6.59389">
        <ele>2299.1</ele>
        <time>2013-08-28T06:20:13Z</time>
      </trkpt>
      <trkpt lat="45.61182" lon="6.59387">
        <ele>2298.7</ele>
        <time>2013-08-28T06:20:14Z</time>
      </trkpt>
      <trkpt lat="45.61181" lon="6.59385">
        <ele>2299.1</ele>
        <time>2013-08-28T06:20:15Z</time>
      </trkpt>
      <trkpt lat="45.6118" lon="6.59383">
        <ele>2298.7</ele>
        <time>2013-08-28T06:20:16Z</time>
      </trkpt>
      <trkpt lat="45.6118" lon="6.59381">
        <ele>2298.7</ele>
        <time>2013-08-28T06:20:17Z</time>
      </trkpt>
      <trkpt lat="45.61179" lon="6.59374">
        <ele>2299.6</ele>
        <time>2013-08-28T06:20:25Z</time>
      </trkpt>
      <trkpt lat="45.61179" lon="6.59372">
        <ele>2299.1</ele>
        <time>2013-08-28T06:20:26Z</time>
      </trkpt>
      <trkpt lat="45.61175" lon="6.59354">
        <ele>2300.6</ele>
        <time>2013-08-28T06:20:41Z</time>
      </trkpt>
      <trkpt lat="45.6117" lon="6.59337">
        <ele>2303.5</ele>
        <time>2013-08-28T06:20:57Z</time>
      </trkpt>
      <trkpt lat="45.61167" lon="6.59329">
        <ele>2304.9</ele>
        <time>2013-08-28T06:21:08Z</time>
      </trkpt>
      <trkpt lat="45.61159" lon="6.59308">
        <ele>2306.3</ele>
        <time>2013-08-28T06:21:24Z</time>
      </trkpt>
      <trkpt lat="45.61151" lon="6.59296">
        <ele>2308.3</ele>
        <time>2013-08-28T06:21:38Z</time>
      </trkpt>
      <trkpt lat="45.61145" lon="6.59292">
        <ele>2309.7</ele>
        <time>2013-08-28T06:21:52Z</time>
      </trkpt>
      <trkpt lat="45.61135" lon="6.59289">
        <ele>2312.6</ele>
        <time>2013-08-28T06:22:08Z</time>
      </trkpt>
      <trkpt lat="45.61125" lon="6.59295">
        <ele>2314.5</ele>
        <time>2013-08-28T06:22:25Z</time>
      </trkpt>
      <trkpt lat="45.61118" lon="6.59302">
        <ele>2315.5</ele>
        <time>2013-08-28T06:22:38Z</time>
      </trkpt>
      <trkpt lat="45.61109" lon="6.59306">
        <ele>2317.9</ele>
        <time>2013-08-28T06:22:53Z</time>
      </trkpt>
      <trkpt lat="45.61101" lon="6.593">
        <ele>2320.3</ele>
        <time>2013-08-28T06:23:09Z</time>
      </trkpt>
      <trkpt lat="45.61096" lon="6.59293">
        <ele>2320.8</ele>
        <time>2013-08-28T06:23:22Z</time>
      </trkpt>
      <trkpt lat="45.6109" lon="6.59279">
        <ele>2322.7</ele>
        <time>2013-08-28T06:23:38Z</time>
      </trkpt>
      <trkpt lat="45.61088" lon="6.59275">
        <ele>2324.1</ele>
        <time>2013-08-28T06:23:42Z</time>
      </trkpt>
      <trkpt lat="45.61081" lon="6.5926">
        <ele>2324.6</ele>
        <time>2013-08-28T06:23:58Z</time>
      </trkpt>
      <trkpt lat="45.61073" lon="6.59252">
        <ele>2325.6</ele>
        <time>2013-08-28T06:24:16Z</time>
      </trkpt>
      <trkpt lat="45.61064" lon="6.5925">
        <ele>2327</ele>
        <time>2013-08-28T06:24:31Z</time>
      </trkpt>
      <trkpt lat="45.61061" lon="6.5925">
        <ele>2327.5</ele>
        <time>2013-08-28T06:24:36Z</time>
      </trkpt>
      <trkpt lat="45.61049" lon="6.59242">
        <ele>2329.9</ele>
        <time>2013-08-28T06:24:54Z</time>
      </trkpt>
      <trkpt lat="45.61041" lon="6.59236">
        <ele>2331.3</ele>
        <time>2013-08-28T06:25:09Z</time>
      </trkpt>
      <trkpt lat="45.61026" lon="6.59226">
        <ele>2334.2</ele>
        <time>2013-08-28T06:25:29Z</time>
      </trkpt>
      <trkpt lat="45.61022" lon="6.59221">
        <ele>2334.7</ele>
        <time>2013-08-28T06:25:41Z</time>
      </trkpt>
      <trkpt lat="45.6102" lon="6.59214">
        <ele>2336.1</ele>
        <time>2013-08-28T06:25:53Z</time>
      </trkpt>
      <trkpt lat="45.61016" lon="6.59209">
        <ele>2338.5</ele>
        <time>2013-08-28T06:26:06Z</time>
      </trkpt>
      <trkpt lat="45.61006" lon="6.59212">
        <ele>2340.5</ele>
        <time>2013-08-28T06:26:22Z</time>
      </trkpt>
      <trkpt lat="45.60993" lon="6.59208">
        <ele>2343.4</ele>
        <time>2013-08-28T06:26:40Z</time>
      </trkpt>
      <trkpt lat="45.60987" lon="6.59199">
        <ele>2344.8</ele>
        <time>2013-08-28T06:26:53Z</time>
      </trkpt>
      <trkpt lat="45.6098" lon="6.59186">
        <ele>2348.2</ele>
        <time>2013-08-28T06:27:11Z</time>
      </trkpt>
      <trkpt lat="45.60978" lon="6.59182">
        <ele>2348.6</ele>
        <time>2013-08-28T06:27:15Z</time>
      </trkpt>
      <trkpt lat="45.6097" lon="6.5917">
        <ele>2350.6</ele>
        <time>2013-08-28T06:27:31Z</time>
      </trkpt>
      <trkpt lat="45.60965" lon="6.59166">
        <ele>2352</ele>
        <time>2013-08-28T06:27:48Z</time>
      </trkpt>
      <trkpt lat="45.60953" lon="6.59162">
        <ele>2353.9</ele>
        <time>2013-08-28T06:28:03Z</time>
      </trkpt>
      <trkpt lat="45.60943" lon="6.5916">
        <ele>2354.4</ele>
        <time>2013-08-28T06:28:19Z</time>
      </trkpt>
      <trkpt lat="45.60944" lon="6.59161">
        <ele>2355.4</ele>
        <time>2013-08-28T06:28:46Z</time>
      </trkpt>
      <trkpt lat="45.60939" lon="6.59159">
        <ele>2355.4</ele>
        <time>2013-08-28T06:28:58Z</time>
      </trkpt>
      <trkpt lat="45.60913" lon="6.59147">
        <ele>2354.4</ele>
        <time>2013-08-28T06:29:11Z</time>
      </trkpt>
      <trkpt lat="45.60883" lon="6.59118">
        <ele>2353</ele>
        <time>2013-08-28T06:29:25Z</time>
      </trkpt>
      <trkpt lat="45.60853" lon="6.59101">
        <ele>2353</ele>
        <time>2013-08-28T06:29:37Z</time>
      </trkpt>
      <trkpt lat="45.60825" lon="6.59087">
        <ele>2354.9</ele>
        <time>2013-08-28T06:29:51Z</time>
      </trkpt>
      <trkpt lat="45.60796" lon="6.59062">
        <ele>2354.4</ele>
        <time>2013-08-28T06:30:05Z</time>
      </trkpt>
      <trkpt lat="45.60767" lon="6.59036">
        <ele>2355.4</ele>
        <time>2013-08-28T06:30:19Z</time>
      </trkpt>
      <trkpt lat="45.60737" lon="6.59021">
        <ele>2355.9</ele>
        <time>2013-08-28T06:30:33Z</time>
      </trkpt>
      <trkpt lat="45.60703" lon="6.59007">
        <ele>2357.8</ele>
        <time>2013-08-28T06:30:49Z</time>
      </trkpt>
      <trkpt lat="45.60675" lon="6.5899">
        <ele>2360.2</ele>
        <time>2013-08-28T06:31:04Z</time>
      </trkpt>
      <trkpt lat="45.60649" lon="6.58972">
        <ele>2361.6</ele>
        <time>2013-08-28T06:31:19Z</time>
      </trkpt>
      <trkpt lat="45.60627" lon="6.58964">
        <ele>2365</ele>
        <time>2013-08-28T06:31:33Z</time>
      </trkpt>
      <trkpt lat="45.60625" lon="6.58964">
        <ele>2365</ele>
        <time>2013-08-28T06:31:44Z</time>
      </trkpt>
      <trkpt lat="45.60624" lon="6.58962">
        <ele>2365</ele>
        <time>2013-08-28T06:32:13Z</time>
      </trkpt>
      <trkpt lat="45.60615" lon="6.58967">
        <ele>2365.9</ele>
        <time>2013-08-28T06:32:26Z</time>
      </trkpt>
      <trkpt lat="45.60603" lon="6.58963">
        <ele>2366.9</ele>
        <time>2013-08-28T06:32:41Z</time>
      </trkpt>
      <trkpt lat="45.60589" lon="6.58964">
        <ele>2368.8</ele>
        <time>2013-08-28T06:32:57Z</time>
      </trkpt>
      <trkpt lat="45.60583" lon="6.58965">
        <ele>2368.4</ele>
        <time>2013-08-28T06:33:13Z</time>
      </trkpt>
      <trkpt lat="45.6058" lon="6.58967">
        <ele>2367.9</ele>
        <time>2013-08-28T06:33:15Z</time>
      </trkpt>
      <trkpt lat="45.60571" lon="6.58974">
        <ele>2365</ele>
        <time>2013-08-28T06:33:20Z</time>
      </trkpt>
      <trkpt lat="45.60564" lon="6.58977">
        <ele>2363.5</ele>
        <time>2013-08-28T06:33:23Z</time>
      </trkpt>
      <trkpt lat="45.6055" lon="6.58979">
        <ele>2360.7</ele>
        <time>2013-08-28T06:33:28Z</time>
      </trkpt>
      <trkpt lat="45.60543" lon="6.58982">
        <ele>2359.2</ele>
        <time>2013-08-28T06:33:32Z</time>
      </trkpt>
      <trkpt lat="45.60541" lon="6.58983">
        <ele>2358.3</ele>
        <time>2013-08-28T06:33:35Z</time>
      </trkpt>
      <trkpt lat="45.60533" lon="6.58992">
        <ele>2356.3</ele>
        <time>2013-08-28T06:33:41Z</time>
      </trkpt>
      <trkpt lat="45.60518" lon="6.58993">
        <ele>2353.4</ele>
        <time>2013-08-28T06:33:46Z</time>
      </trkpt>
      <trkpt lat="45.60511" lon="6.58989">
        <ele>2353</ele>
        <time>2013-08-28T06:33:48Z</time>
      </trkpt>
      <trkpt lat="45.60482" lon="6.58981">
        <ele>2350.6</ele>
        <time>2013-08-28T06:33:57Z</time>
      </trkpt>
      <trkpt lat="45.60449" lon="6.58978">
        <ele>2347.2</ele>
        <time>2013-08-28T06:34:06Z</time>
      </trkpt>
      <trkpt lat="45.60422" lon="6.58978">
        <ele>2343.8</ele>
        <time>2013-08-28T06:34:16Z</time>
      </trkpt>
      <trkpt lat="45.60421" lon="6.58979">
        <ele>2343.8</ele>
        <time>2013-08-28T06:34:24Z</time>
      </trkpt>
      <trkpt lat="45.60401" lon="6.58982">
        <ele>2341</ele>
        <time>2013-08-28T06:34:32Z</time>
      </trkpt>
      <trkpt lat="45.60386" lon="6.58984">
        <ele>2338.5</ele>
        <time>2013-08-28T06:34:36Z</time>
      </trkpt>
      <trkpt lat="45.60363" lon="6.58975">
        <ele>2337.6</ele>
        <time>2013-08-28T06:34:48Z</time>
      </trkpt>
      <trkpt lat="45.60351" lon="6.58961">
        <ele>2339</ele>
        <time>2013-08-28T06:34:58Z</time>
      </trkpt>
      <trkpt lat="45.60327" lon="6.58949">
        <ele>2340</ele>
        <time>2013-08-28T06:35:12Z</time>
      </trkpt>
      <trkpt lat="45.60303" lon="6.5893">
        <ele>2338.1</ele>
        <time>2013-08-28T06:35:27Z</time>
      </trkpt>
      <trkpt lat="45.60288" lon="6.58921">
        <ele>2334.7</ele>
        <time>2013-08-28T06:35:33Z</time>
      </trkpt>
      <trkpt lat="45.6026" lon="6.58905">
        <ele>2334.2</ele>
        <time>2013-08-28T06:35:46Z</time>
      </trkpt>
      <trkpt lat="45.60241" lon="6.58875">
        <ele>2334.2</ele>
        <time>2013-08-28T06:36:00Z</time>
      </trkpt>
      <trkpt lat="45.60229" lon="6.58867">
        <ele>2333.3</ele>
        <time>2013-08-28T06:36:09Z</time>
      </trkpt>
      <trkpt lat="45.60225" lon="6.58868">
        <ele>2333.7</ele>
        <time>2013-08-28T06:36:13Z</time>
      </trkpt>
      <trkpt lat="45.60224" lon="6.58867">
        <ele>2333.3</ele>
        <time>2013-08-28T06:36:14Z</time>
      </trkpt>
      <trkpt lat="45.60222" lon="6.58867">
        <ele>2333.3</ele>
        <time>2013-08-28T06:36:15Z</time>
      </trkpt>
      <trkpt lat="45.60215" lon="6.58857">
        <ele>2333.7</ele>
        <time>2013-08-28T06:36:25Z</time>
      </trkpt>
      <trkpt lat="45.60211" lon="6.58848">
        <ele>2332.8</ele>
        <time>2013-08-28T06:36:31Z</time>
      </trkpt>
      <trkpt lat="45.60193" lon="6.58827">
        <ele>2330.4</ele>
        <time>2013-08-28T06:36:39Z</time>
      </trkpt>
      <trkpt lat="45.6019" lon="6.58822">
        <ele>2329.9</ele>
        <time>2013-08-28T06:36:41Z</time>
      </trkpt>
      <trkpt lat="45.60189" lon="6.58821">
        <ele>2329.9</ele>
        <time>2013-08-28T06:36:42Z</time>
      </trkpt>
      <trkpt lat="45.60188" lon="6.5882">
        <ele>2329.4</ele>
        <time>2013-08-28T06:36:43Z</time>
      </trkpt>
      <trkpt lat="45.60166" lon="6.58798">
        <ele>2327</ele>
        <time>2013-08-28T06:36:53Z</time>
      </trkpt>
      <trkpt lat="45.60142" lon="6.58778">
        <ele>2325.6</ele>
        <time>2013-08-28T06:37:04Z</time>
      </trkpt>
      <trkpt lat="45.60132" lon="6.58774">
        <ele>2324.6</ele>
        <time>2013-08-28T06:37:08Z</time>
      </trkpt>
      <trkpt lat="45.6013" lon="6.58771">
        <ele>2324.1</ele>
        <time>2013-08-28T06:37:09Z</time>
      </trkpt>
      <trkpt lat="45.60118" lon="6.5874">
        <ele>2324.6</ele>
        <time>2013-08-28T06:37:21Z</time>
      </trkpt>
      <trkpt lat="45.60094" lon="6.58722">
        <ele>2324.1</ele>
        <time>2013-08-28T06:37:33Z</time>
      </trkpt>
      <trkpt lat="45.60075" lon="6.58697">
        <ele>2326.1</ele>
        <time>2013-08-28T06:37:45Z</time>
      </trkpt>
      <trkpt lat="45.60054" lon="6.58679">
        <ele>2324.6</ele>
        <time>2013-08-28T06:37:57Z</time>
      </trkpt>
      <trkpt lat="45.60045" lon="6.58667">
        <ele>2325.1</ele>
        <time>2013-08-28T06:38:06Z</time>
      </trkpt>
      <trkpt lat="45.60038" lon="6.58656">
        <ele>2325.1</ele>
        <time>2013-08-28T06:38:16Z</time>
      </trkpt>
      <trkpt lat="45.60028" lon="6.58633">
        <ele>2328</ele>
        <time>2013-08-28T06:38:28Z</time>
      </trkpt>
      <trkpt lat="45.60019" lon="6.58604">
        <ele>2330.4</ele>
        <time>2013-08-28T06:38:44Z</time>
      </trkpt>
      <trkpt lat="45.60013" lon="6.58592">
        <ele>2332.3</ele>
        <time>2013-08-28T06:38:52Z</time>
      </trkpt>
      <trkpt lat="45.60002" lon="6.58588">
        <ele>2332.8</ele>
        <time>2013-08-28T06:39:01Z</time>
      </trkpt>
      <trkpt lat="45.6" lon="6.58587">
        <ele>2332.3</ele>
        <time>2013-08-28T06:39:02Z</time>
      </trkpt>
      <trkpt lat="45.59999" lon="6.58587">
        <ele>2332.3</ele>
        <time>2013-08-28T06:39:03Z</time>
      </trkpt>
      <trkpt lat="45.59987" lon="6.5857">
        <ele>2333.7</ele>
        <time>2013-08-28T06:39:18Z</time>
      </trkpt>
      <trkpt lat="45.59988" lon="6.58567">
        <ele>2333.7</ele>
        <time>2013-08-28T06:39:22Z</time>
      </trkpt>
      <trkpt lat="45.59989" lon="6.58566">
        <ele>2333.7</ele>
        <time>2013-08-28T06:39:23Z</time>
      </trkpt>
      <trkpt lat="45.59989" lon="6.58558">
        <ele>2335.7</ele>
        <time>2013-08-28T06:39:34Z</time>
      </trkpt>
      <trkpt lat="45.59985" lon="6.58552">
        <ele>2337.1</ele>
        <time>2013-08-28T06:39:48Z</time>
      </trkpt>
      <trkpt lat="45.59975" lon="6.58547">
        <ele>2338.5</ele>
        <time>2013-08-28T06:40:04Z</time>
      </trkpt>
      <trkpt lat="45.59963" lon="6.5854">
        <ele>2340.5</ele>
        <time>2013-08-28T06:40:21Z</time>
      </trkpt>
      <trkpt lat="45.59959" lon="6.58537">
        <ele>2340.5</ele>
        <time>2013-08-28T06:40:26Z</time>
      </trkpt>
      <trkpt lat="45.59958" lon="6.58537">
        <ele>2340.5</ele>
        <time>2013-08-28T06:40:27Z</time>
      </trkpt>
      <trkpt lat="45.59941" lon="6.58524">
        <ele>2342.4</ele>
        <time>2013-08-28T06:40:41Z</time>
      </trkpt>
      <trkpt lat="45.59932" lon="6.58515">
        <ele>2343.8</ele>
        <time>2013-08-28T06:40:53Z</time>
      </trkpt>
      <trkpt lat="45.59922" lon="6.58505">
        <ele>2345.3</ele>
        <time>2013-08-28T06:41:10Z</time>
      </trkpt>
      <trkpt lat="45.59913" lon="6.58498">
        <ele>2346.2</ele>
        <time>2013-08-28T06:41:25Z</time>
      </trkpt>
      <trkpt lat="45.59906" lon="6.58497">
        <ele>2346.2</ele>
        <time>2013-08-28T06:41:33Z</time>
      </trkpt>
      <trkpt lat="45.59905" lon="6.58496">
        <ele>2346.7</ele>
        <time>2013-08-28T06:41:34Z</time>
      </trkpt>
      <trkpt lat="45.59889" lon="6.58484">
        <ele>2349.1</ele>
        <time>2013-08-28T06:41:47Z</time>
      </trkpt>
      <trkpt lat="45.5987" lon="6.58471">
        <ele>2352.5</ele>
        <time>2013-08-28T06:42:03Z</time>
      </trkpt>
      <trkpt lat="45.59866" lon="6.58471">
        <ele>2353.4</ele>
        <time>2013-08-28T06:42:08Z</time>
      </trkpt>
      <trkpt lat="45.59857" lon="6.58466">
        <ele>2354.4</ele>
        <time>2013-08-28T06:42:24Z</time>
      </trkpt>
      <trkpt lat="45.59848" lon="6.58464">
        <ele>2355.4</ele>
        <time>2013-08-28T06:42:42Z</time>
      </trkpt>
      <trkpt lat="45.59849" lon="6.58466">
        <ele>2355.4</ele>
        <time>2013-08-28T06:43:01Z</time>
      </trkpt>
      <trkpt lat="45.59846" lon="6.58468">
        <ele>2355.4</ele>
        <time>2013-08-28T06:43:15Z</time>
      </trkpt>
      <trkpt lat="45.59847" lon="6.58467">
        <ele>2357.3</ele>
        <time>2013-08-28T06:43:41Z</time>
      </trkpt>
      <trkpt lat="45.59846" lon="6.58461">
        <ele>2355.9</ele>
        <time>2013-08-28T06:44:08Z</time>
      </trkpt>
      <trkpt lat="45.59841" lon="6.58452">
        <ele>2355.4</ele>
        <time>2013-08-28T06:44:22Z</time>
      </trkpt>
      <trkpt lat="45.59828" lon="6.58424">
        <ele>2356.3</ele>
        <time>2013-08-28T06:44:34Z</time>
      </trkpt>
      <trkpt lat="45.59814" lon="6.58408">
        <ele>2357.8</ele>
        <time>2013-08-28T06:44:44Z</time>
      </trkpt>
      <trkpt lat="45.59813" lon="6.58407">
        <ele>2357.8</ele>
        <time>2013-08-28T06:44:45Z</time>
      </trkpt>
      <trkpt lat="45.59804" lon="6.58395">
        <ele>2360.7</ele>
        <time>2013-08-28T06:44:53Z</time>
      </trkpt>
      <trkpt lat="45.59796" lon="6.58371">
        <ele>2362.1</ele>
        <time>2013-08-28T06:45:09Z</time>
      </trkpt>
      <trkpt lat="45.59794" lon="6.58368">
        <ele>2362.6</ele>
        <time>2013-08-28T06:45:22Z</time>
      </trkpt>
      <trkpt lat="45.5979" lon="6.58346">
        <ele>2364.5</ele>
        <time>2013-08-28T06:45:34Z</time>
      </trkpt>
      <trkpt lat="45.59783" lon="6.58321">
        <ele>2364</ele>
        <time>2013-08-28T06:45:48Z</time>
      </trkpt>
      <trkpt lat="45.59782" lon="6.58319">
        <ele>2364</ele>
        <time>2013-08-28T06:45:52Z</time>
      </trkpt>
      <trkpt lat="45.59782" lon="6.58318">
        <ele>2363.5</ele>
        <time>2013-08-28T06:45:53Z</time>
      </trkpt>
      <trkpt lat="45.59774" lon="6.58304">
        <ele>2360.2</ele>
        <time>2013-08-28T06:46:00Z</time>
      </trkpt>
      <trkpt lat="45.59768" lon="6.58296">
        <ele>2358.7</ele>
        <time>2013-08-28T06:46:03Z</time>
      </trkpt>
      <trkpt lat="45.59764" lon="6.58291">
        <ele>2357.3</ele>
        <time>2013-08-28T06:46:06Z</time>
      </trkpt>
      <trkpt lat="45.59763" lon="6.58288">
        <ele>2357.3</ele>
        <time>2013-08-28T06:46:07Z</time>
      </trkpt>
      <trkpt lat="45.59761" lon="6.58285">
        <ele>2356.8</ele>
        <time>2013-08-28T06:46:08Z</time>
      </trkpt>
      <trkpt lat="45.5976" lon="6.58281">
        <ele>2356.8</ele>
        <time>2013-08-28T06:46:09Z</time>
      </trkpt>
      <trkpt lat="45.59758" lon="6.58278">
        <ele>2356.3</ele>
        <time>2013-08-28T06:46:10Z</time>
      </trkpt>
      <trkpt lat="45.59737" lon="6.58252">
        <ele>2353.9</ele>
        <time>2013-08-28T06:46:19Z</time>
      </trkpt>
      <trkpt lat="45.59735" lon="6.58252">
        <ele>2353.4</ele>
        <time>2013-08-28T06:46:20Z</time>
      </trkpt>
      <trkpt lat="45.59733" lon="6.58252">
        <ele>2353.4</ele>
        <time>2013-08-28T06:46:21Z</time>
      </trkpt>
      <trkpt lat="45.59703" lon="6.58231">
        <ele>2351</ele>
        <time>2013-08-28T06:46:32Z</time>
      </trkpt>
      <trkpt lat="45.59675" lon="6.58213">
        <ele>2352</ele>
        <time>2013-08-28T06:46:44Z</time>
      </trkpt>
      <trkpt lat="45.59661" lon="6.58199">
        <ele>2349.1</ele>
        <time>2013-08-28T06:46:50Z</time>
      </trkpt>
      <trkpt lat="45.59651" lon="6.58184">
        <ele>2345.8</ele>
        <time>2013-08-28T06:46:53Z</time>
      </trkpt>
      <trkpt lat="45.59635" lon="6.5817">
        <ele>2343.4</ele>
        <time>2013-08-28T06:47:00Z</time>
      </trkpt>
      <trkpt lat="45.59635" lon="6.58171">
        <ele>2342.9</ele>
        <time>2013-08-28T06:47:13Z</time>
      </trkpt>
      <trkpt lat="45.59634" lon="6.5817">
        <ele>2343.4</ele>
        <time>2013-08-28T06:47:35Z</time>
      </trkpt>
      <trkpt lat="45.59636" lon="6.58169">
        <ele>2343.4</ele>
        <time>2013-08-28T06:48:11Z</time>
      </trkpt>
      <trkpt lat="45.59624" lon="6.58166">
        <ele>2343.4</ele>
        <time>2013-08-28T06:48:20Z</time>
      </trkpt>
      <trkpt lat="45.59585" lon="6.58156">
        <ele>2340.5</ele>
        <time>2013-08-28T06:48:33Z</time>
      </trkpt>
      <trkpt lat="45.59558" lon="6.58133">
        <ele>2338.5</ele>
        <time>2013-08-28T06:48:41Z</time>
      </trkpt>
      <trkpt lat="45.59536" lon="6.58095">
        <ele>2335.7</ele>
        <time>2013-08-28T06:48:52Z</time>
      </trkpt>
      <trkpt lat="45.59534" lon="6.58073">
        <ele>2334.7</ele>
        <time>2013-08-28T06:49:02Z</time>
      </trkpt>
      <trkpt lat="45.59533" lon="6.58073">
        <ele>2330.4</ele>
        <time>2013-08-28T06:49:03Z</time>
      </trkpt>
      <trkpt lat="45.59533" lon="6.58073">
        <ele>2338.1</ele>
        <time>2013-08-28T06:49:04Z</time>
      </trkpt>
      <trkpt lat="45.59533" lon="6.58073">
        <ele>2334.2</ele>
        <time>2013-08-28T06:49:05Z</time>
      </trkpt>
      <trkpt lat="45.59534" lon="6.58061">
        <ele>2333.3</ele>
        <time>2013-08-28T06:49:24Z</time>
      </trkpt>
      <trkpt lat="45.59534" lon="6.58061">
        <ele>2332.8</ele>
        <time>2013-08-28T06:49:47Z</time>
      </trkpt>
      <trkpt lat="45.59534" lon="6.58062">
        <ele>2332.8</ele>
        <time>2013-08-28T06:50:27Z</time>
      </trkpt>
      <trkpt lat="45.59535" lon="6.58061">
        <ele>2333.3</ele>
        <time>2013-08-28T06:50:58Z</time>
      </trkpt>
      <trkpt lat="45.59536" lon="6.58038">
        <ele>2331.8</ele>
        <time>2013-08-28T06:51:15Z</time>
      </trkpt>
      <trkpt lat="45.59538" lon="6.58028">
        <ele>2330.4</ele>
        <time>2013-08-28T06:51:18Z</time>
      </trkpt>
      <trkpt lat="45.59543" lon="6.58007">
        <ele>2327</ele>
        <time>2013-08-28T06:51:24Z</time>
      </trkpt>
      <trkpt lat="45.59544" lon="6.58002">
        <ele>2327</ele>
        <time>2013-08-28T06:51:26Z</time>
      </trkpt>
      <trkpt lat="45.59528" lon="6.58001">
        <ele>2323.6</ele>
        <time>2013-08-28T06:51:34Z</time>
      </trkpt>
      <trkpt lat="45.59524" lon="6.58003">
        <ele>2323.2</ele>
        <time>2013-08-28T06:51:36Z</time>
      </trkpt>
      <trkpt lat="45.59509" lon="6.58013">
        <ele>2319.8</ele>
        <time>2013-08-28T06:51:43Z</time>
      </trkpt>
      <trkpt lat="45.59487" lon="6.57995">
        <ele>2318.8</ele>
        <time>2013-08-28T06:51:51Z</time>
      </trkpt>
      <trkpt lat="45.59484" lon="6.57991">
        <ele>2317.9</ele>
        <time>2013-08-28T06:51:52Z</time>
      </trkpt>
      <trkpt lat="45.59477" lon="6.57977">
        <ele>2317.4</ele>
        <time>2013-08-28T06:51:55Z</time>
      </trkpt>
      <trkpt lat="45.59479" lon="6.57963">
        <ele>2316</ele>
        <time>2013-08-28T06:51:58Z</time>
      </trkpt>
      <trkpt lat="45.59482" lon="6.57959">
        <ele>2315</ele>
        <time>2013-08-28T06:51:59Z</time>
      </trkpt>
      <trkpt lat="45.59502" lon="6.57937">
        <ele>2311.6</ele>
        <time>2013-08-28T06:52:08Z</time>
      </trkpt>
      <trkpt lat="45.59502" lon="6.57933">
        <ele>2311.2</ele>
        <time>2013-08-28T06:52:09Z</time>
      </trkpt>
      <trkpt lat="45.59501" lon="6.57929">
        <ele>2311.2</ele>
        <time>2013-08-28T06:52:10Z</time>
      </trkpt>
      <trkpt lat="45.59496" lon="6.57914">
        <ele>2310.2</ele>
        <time>2013-08-28T06:52:15Z</time>
      </trkpt>
      <trkpt lat="45.59495" lon="6.57912">
        <ele>2309.7</ele>
        <time>2013-08-28T06:52:26Z</time>
      </trkpt>
      <trkpt lat="45.59492" lon="6.57911">
        <ele>2309.2</ele>
        <time>2013-08-28T06:52:51Z</time>
      </trkpt>
      <trkpt lat="45.59491" lon="6.57911">
        <ele>2309.2</ele>
        <time>2013-08-28T06:52:52Z</time>
      </trkpt>
      <trkpt lat="45.5949" lon="6.57911">
        <ele>2309.7</ele>
        <time>2013-08-28T06:52:53Z</time>
      </trkpt>
      <trkpt lat="45.59489" lon="6.57911">
        <ele>2309.7</ele>
        <time>2013-08-28T06:52:54Z</time>
      </trkpt>
      <trkpt lat="45.59488" lon="6.57912">
        <ele>2309.7</ele>
        <time>2013-08-28T06:52:55Z</time>
      </trkpt>
      <trkpt lat="45.59483" lon="6.57916">
        <ele>2310.7</ele>
        <time>2013-08-28T06:52:59Z</time>
      </trkpt>
      <trkpt lat="45.59463" lon="6.57928">
        <ele>2310.7</ele>
        <time>2013-08-28T06:53:16Z</time>
      </trkpt>
      <trkpt lat="45.5944" lon="6.57959">
        <ele>2309.2</ele>
        <time>2013-08-28T06:53:29Z</time>
      </trkpt>
      <trkpt lat="45.59426" lon="6.57991">
        <ele>2306.8</ele>
        <time>2013-08-28T06:53:39Z</time>
      </trkpt>
      <trkpt lat="45.59424" lon="6.57995">
        <ele>2305.4</ele>
        <time>2013-08-28T06:53:52Z</time>
      </trkpt>
      <trkpt lat="45.59426" lon="6.57996">
        <ele>2305.9</ele>
        <time>2013-08-28T06:54:15Z</time>
      </trkpt>
      <trkpt lat="45.59424" lon="6.5801">
        <ele>2304.4</ele>
        <time>2013-08-28T06:54:19Z</time>
      </trkpt>
      <trkpt lat="45.59427" lon="6.5803">
        <ele>2303</ele>
        <time>2013-08-28T06:54:23Z</time>
      </trkpt>
      <trkpt lat="45.59429" lon="6.5804">
        <ele>2301.5</ele>
        <time>2013-08-28T06:54:25Z</time>
      </trkpt>
      <trkpt lat="45.59425" lon="6.58086">
        <ele>2299.6</ele>
        <time>2013-08-28T06:54:34Z</time>
      </trkpt>
      <trkpt lat="45.59427" lon="6.5813">
        <ele>2296.3</ele>
        <time>2013-08-28T06:54:43Z</time>
      </trkpt>
      <trkpt lat="45.59428" lon="6.58138">
        <ele>2294.8</ele>
        <time>2013-08-28T06:54:46Z</time>
      </trkpt>
      <trkpt lat="45.59428" lon="6.58144">
        <ele>2294.8</ele>
        <time>2013-08-28T06:54:50Z</time>
      </trkpt>
      <trkpt lat="45.59432" lon="6.58193">
        <ele>2293.8</ele>
        <time>2013-08-28T06:55:04Z</time>
      </trkpt>
      <trkpt lat="45.59439" lon="6.58246">
        <ele>2291.4</ele>
        <time>2013-08-28T06:55:18Z</time>
      </trkpt>
      <trkpt lat="45.59453" lon="6.58271">
        <ele>2289</ele>
        <time>2013-08-28T06:55:30Z</time>
      </trkpt>
      <trkpt lat="45.59456" lon="6.58289">
        <ele>2287.1</ele>
        <time>2013-08-28T06:55:34Z</time>
      </trkpt>
      <trkpt lat="45.59465" lon="6.58337">
        <ele>2285.2</ele>
        <time>2013-08-28T06:55:46Z</time>
      </trkpt>
      <trkpt lat="45.59484" lon="6.58358">
        <ele>2285.2</ele>
        <time>2013-08-28T06:55:57Z</time>
      </trkpt>
      <trkpt lat="45.595" lon="6.58409">
        <ele>2284.7</ele>
        <time>2013-08-28T06:56:08Z</time>
      </trkpt>
      <trkpt lat="45.5951" lon="6.58443">
        <ele>2286.6</ele>
        <time>2013-08-28T06:56:21Z</time>
      </trkpt>
      <trkpt lat="45.59521" lon="6.58475">
        <ele>2288.1</ele>
        <time>2013-08-28T06:56:35Z</time>
      </trkpt>
      <trkpt lat="45.59539" lon="6.58508">
        <ele>2288.6</ele>
        <time>2013-08-28T06:56:49Z</time>
      </trkpt>
      <trkpt lat="45.59542" lon="6.58537">
        <ele>2285.2</ele>
        <time>2013-08-28T06:56:57Z</time>
      </trkpt>
      <trkpt lat="45.59543" lon="6.5854">
        <ele>2284.7</ele>
        <time>2013-08-28T06:56:58Z</time>
      </trkpt>
      <trkpt lat="45.59558" lon="6.58564">
        <ele>2281.8</ele>
        <time>2013-08-28T06:57:09Z</time>
      </trkpt>
      <trkpt lat="45.5956" lon="6.58577">
        <ele>2280.9</ele>
        <time>2013-08-28T06:57:12Z</time>
      </trkpt>
      <trkpt lat="45.59566" lon="6.58612">
        <ele>2277.5</ele>
        <time>2013-08-28T06:57:21Z</time>
      </trkpt>
      <trkpt lat="45.59572" lon="6.58642">
        <ele>2273.7</ele>
        <time>2013-08-28T06:57:27Z</time>
      </trkpt>
      <trkpt lat="45.59571" lon="6.58662">
        <ele>2270.3</ele>
        <time>2013-08-28T06:57:31Z</time>
      </trkpt>
      <trkpt lat="45.59569" lon="6.58672">
        <ele>2269.3</ele>
        <time>2013-08-28T06:57:33Z</time>
      </trkpt>
      <trkpt lat="45.59565" lon="6.58679">
        <ele>2267.4</ele>
        <time>2013-08-28T06:57:35Z</time>
      </trkpt>
      <trkpt lat="45.59563" lon="6.58681">
        <ele>2267.4</ele>
        <time>2013-08-28T06:57:36Z</time>
      </trkpt>
      <trkpt lat="45.59561" lon="6.58682">
        <ele>2266.5</ele>
        <time>2013-08-28T06:57:37Z</time>
      </trkpt>
      <trkpt lat="45.59559" lon="6.58682">
        <ele>2266</ele>
        <time>2013-08-28T06:57:38Z</time>
      </trkpt>
      <trkpt lat="45.59557" lon="6.58681">
        <ele>2266</ele>
        <time>2013-08-28T06:57:39Z</time>
      </trkpt>
      <trkpt lat="45.59556" lon="6.58682">
        <ele>2265.5</ele>
        <time>2013-08-28T06:57:53Z</time>
      </trkpt>
      <trkpt lat="45.59548" lon="6.58679">
        <ele>2264</ele>
        <time>2013-08-28T06:58:11Z</time>
      </trkpt>
      <trkpt lat="45.59536" lon="6.58675">
        <ele>2262.1</ele>
        <time>2013-08-28T06:58:14Z</time>
      </trkpt>
      <trkpt lat="45.59526" lon="6.5867">
        <ele>2259.7</ele>
        <time>2013-08-28T06:58:17Z</time>
      </trkpt>
      <trkpt lat="45.59515" lon="6.5866">
        <ele>2257.3</ele>
        <time>2013-08-28T06:58:21Z</time>
      </trkpt>
      <trkpt lat="45.59502" lon="6.58657">
        <ele>2254.4</ele>
        <time>2013-08-28T06:58:25Z</time>
      </trkpt>
      <trkpt lat="45.59491" lon="6.58663">
        <ele>2251.5</ele>
        <time>2013-08-28T06:58:29Z</time>
      </trkpt>
      <trkpt lat="45.5949" lon="6.58668">
        <ele>2250.6</ele>
        <time>2013-08-28T06:58:30Z</time>
      </trkpt>
      <trkpt lat="45.5949" lon="6.58672">
        <ele>2249.6</ele>
        <time>2013-08-28T06:58:31Z</time>
      </trkpt>
      <trkpt lat="45.5949" lon="6.58675">
        <ele>2249.1</ele>
        <time>2013-08-28T06:58:32Z</time>
      </trkpt>
      <trkpt lat="45.59491" lon="6.58679">
        <ele>2248.7</ele>
        <time>2013-08-28T06:58:33Z</time>
      </trkpt>
      <trkpt lat="45.59492" lon="6.58681">
        <ele>2248.2</ele>
        <time>2013-08-28T06:58:34Z</time>
      </trkpt>
      <trkpt lat="45.59494" lon="6.58691">
        <ele>2246.3</ele>
        <time>2013-08-28T06:58:44Z</time>
      </trkpt>
      <trkpt lat="45.59498" lon="6.5871">
        <ele>2243.4</ele>
        <time>2013-08-28T06:58:55Z</time>
      </trkpt>
      <trkpt lat="45.59502" lon="6.58736">
        <ele>2240</ele>
        <time>2013-08-28T06:59:06Z</time>
      </trkpt>
      <trkpt lat="45.59496" lon="6.58759">
        <ele>2238.6</ele>
        <time>2013-08-28T06:59:19Z</time>
      </trkpt>
      <trkpt lat="45.59478" lon="6.58752">
        <ele>2235.2</ele>
        <time>2013-08-28T06:59:30Z</time>
      </trkpt>
      <trkpt lat="45.59464" lon="6.58747">
        <ele>2233.8</ele>
        <time>2013-08-28T06:59:40Z</time>
      </trkpt>
      <trkpt lat="45.59448" lon="6.58749">
        <ele>2232.3</ele>
        <time>2013-08-28T06:59:54Z</time>
      </trkpt>
      <trkpt lat="45.59449" lon="6.58754">
        <ele>2232.3</ele>
        <time>2013-08-28T07:00:08Z</time>
      </trkpt>
      <trkpt lat="45.59447" lon="6.58753">
        <ele>2231.8</ele>
        <time>2013-08-28T07:00:30Z</time>
      </trkpt>
      <trkpt lat="45.59446" lon="6.58754">
        <ele>2231.8</ele>
        <time>2013-08-28T07:00:58Z</time>
      </trkpt>
      <trkpt lat="45.59447" lon="6.58758">
        <ele>2231.8</ele>
        <time>2013-08-28T07:01:27Z</time>
      </trkpt>
      <trkpt lat="45.59446" lon="6.58757">
        <ele>2231.8</ele>
        <time>2013-08-28T07:01:41Z</time>
      </trkpt>
      <trkpt lat="45.59446" lon="6.58758">
        <ele>2232.3</ele>
        <time>2013-08-28T07:01:56Z</time>
      </trkpt>
      <trkpt lat="45.59446" lon="6.58761">
        <ele>2232.3</ele>
        <time>2013-08-28T07:01:57Z</time>
      </trkpt>
      <trkpt lat="45.59456" lon="6.58787">
        <ele>2229.4</ele>
        <time>2013-08-28T07:02:03Z</time>
      </trkpt>
      <trkpt lat="45.59458" lon="6.58792">
        <ele>2228.5</ele>
        <time>2013-08-28T07:02:04Z</time>
      </trkpt>
      <trkpt lat="45.59461" lon="6.58795">
        <ele>2227.5</ele>
        <time>2013-08-28T07:02:05Z</time>
      </trkpt>
      <trkpt lat="45.59466" lon="6.58809">
        <ele>2228</ele>
        <time>2013-08-28T07:02:10Z</time>
      </trkpt>
      <trkpt lat="45.59465" lon="6.58811">
        <ele>2228.5</ele>
        <time>2013-08-28T07:02:11Z</time>
      </trkpt>
      <trkpt lat="45.59463" lon="6.58813">
        <ele>2228.5</ele>
        <time>2013-08-28T07:02:12Z</time>
      </trkpt>
      <trkpt lat="45.59452" lon="6.58833">
        <ele>2225.6</ele>
        <time>2013-08-28T07:02:18Z</time>
      </trkpt>
      <trkpt lat="45.59434" lon="6.58858">
        <ele>2223.2</ele>
        <time>2013-08-28T07:02:28Z</time>
      </trkpt>
      <trkpt lat="45.5943" lon="6.58861">
        <ele>2222.2</ele>
        <time>2013-08-28T07:02:29Z</time>
      </trkpt>
      <trkpt lat="45.59425" lon="6.58864">
        <ele>2221.3</ele>
        <time>2013-08-28T07:02:30Z</time>
      </trkpt>
      <trkpt lat="45.59421" lon="6.58867">
        <ele>2221.3</ele>
        <time>2013-08-28T07:02:31Z</time>
      </trkpt>
      <trkpt lat="45.59417" lon="6.5887">
        <ele>2220.3</ele>
        <time>2013-08-28T07:02:32Z</time>
      </trkpt>
      <trkpt lat="45.59388" lon="6.58882">
        <ele>2219.3</ele>
        <time>2013-08-28T07:02:42Z</time>
      </trkpt>
      <trkpt lat="45.59342" lon="6.58886">
        <ele>2218.4</ele>
        <time>2013-08-28T07:02:58Z</time>
      </trkpt>
      <trkpt lat="45.59335" lon="6.58888">
        <ele>2218.4</ele>
        <time>2013-08-28T07:03:00Z</time>
      </trkpt>
      <trkpt lat="45.59331" lon="6.58889">
        <ele>2217.9</ele>
        <time>2013-08-28T07:03:01Z</time>
      </trkpt>
      <trkpt lat="45.59327" lon="6.58889">
        <ele>2217.9</ele>
        <time>2013-08-28T07:03:02Z</time>
      </trkpt>
      <trkpt lat="45.59294" lon="6.58888">
        <ele>2216</ele>
        <time>2013-08-28T07:03:09Z</time>
      </trkpt>
      <trkpt lat="45.5929" lon="6.58888">
        <ele>2215.5</ele>
        <time>2013-08-28T07:03:10Z</time>
      </trkpt>
      <trkpt lat="45.59285" lon="6.58889">
        <ele>2215.5</ele>
        <time>2013-08-28T07:03:11Z</time>
      </trkpt>
      <trkpt lat="45.59281" lon="6.58891">
        <ele>2215</ele>
        <time>2013-08-28T07:03:12Z</time>
      </trkpt>
      <trkpt lat="45.59277" lon="6.58893">
        <ele>2214.5</ele>
        <time>2013-08-28T07:03:13Z</time>
      </trkpt>
      <trkpt lat="45.59255" lon="6.58891">
        <ele>2211.2</ele>
        <time>2013-08-28T07:03:19Z</time>
      </trkpt>
      <trkpt lat="45.59251" lon="6.58889">
        <ele>2209.7</ele>
        <time>2013-08-28T07:03:20Z</time>
      </trkpt>
      <trkpt lat="45.59247" lon="6.58888">
        <ele>2209.3</ele>
        <time>2013-08-28T07:03:21Z</time>
      </trkpt>
      <trkpt lat="45.59243" lon="6.58887">
        <ele>2208.8</ele>
        <time>2013-08-28T07:03:22Z</time>
      </trkpt>
      <trkpt lat="45.59239" lon="6.58887">
        <ele>2207.8</ele>
        <time>2013-08-28T07:03:23Z</time>
      </trkpt>
      <trkpt lat="45.59235" lon="6.58888">
        <ele>2207.3</ele>
        <time>2013-08-28T07:03:24Z</time>
      </trkpt>
      <trkpt lat="45.59231" lon="6.58888">
        <ele>2206.8</ele>
        <time>2013-08-28T07:03:25Z</time>
      </trkpt>
      <trkpt lat="45.59226" lon="6.58889">
        <ele>2206.4</ele>
        <time>2013-08-28T07:03:26Z</time>
      </trkpt>
      <trkpt lat="45.59222" lon="6.58891">
        <ele>2205.9</ele>
        <time>2013-08-28T07:03:27Z</time>
      </trkpt>
      <trkpt lat="45.59212" lon="6.58894">
        <ele>2204</ele>
        <time>2013-08-28T07:03:29Z</time>
      </trkpt>
      <trkpt lat="45.59188" lon="6.58904">
        <ele>2202</ele>
        <time>2013-08-28T07:03:35Z</time>
      </trkpt>
      <trkpt lat="45.59184" lon="6.58905">
        <ele>2202</ele>
        <time>2013-08-28T07:03:36Z</time>
      </trkpt>
      <trkpt lat="45.59179" lon="6.58905">
        <ele>2201.6</ele>
        <time>2013-08-28T07:03:37Z</time>
      </trkpt>
      <trkpt lat="45.59174" lon="6.58903">
        <ele>2202</ele>
        <time>2013-08-28T07:03:38Z</time>
      </trkpt>
      <trkpt lat="45.59169" lon="6.58902">
        <ele>2201.6</ele>
        <time>2013-08-28T07:03:39Z</time>
      </trkpt>
      <trkpt lat="45.59164" lon="6.58903">
        <ele>2201.1</ele>
        <time>2013-08-28T07:03:40Z</time>
      </trkpt>
      <trkpt lat="45.59159" lon="6.58905">
        <ele>2201.6</ele>
        <time>2013-08-28T07:03:41Z</time>
      </trkpt>
      <trkpt lat="45.59154" lon="6.58908">
        <ele>2201.1</ele>
        <time>2013-08-28T07:03:42Z</time>
      </trkpt>
      <trkpt lat="45.59149" lon="6.5891">
        <ele>2200.6</ele>
        <time>2013-08-28T07:03:43Z</time>
      </trkpt>
      <trkpt lat="45.59144" lon="6.58911">
        <ele>2200.6</ele>
        <time>2013-08-28T07:03:44Z</time>
      </trkpt>
      <trkpt lat="45.59139" lon="6.58911">
        <ele>2200.6</ele>
        <time>2013-08-28T07:03:45Z</time>
      </trkpt>
      <trkpt lat="45.59104" lon="6.58909">
        <ele>2198.7</ele>
        <time>2013-08-28T07:03:52Z</time>
      </trkpt>
      <trkpt lat="45.59099" lon="6.58908">
        <ele>2199.6</ele>
        <time>2013-08-28T07:03:53Z</time>
      </trkpt>
      <trkpt lat="45.5909" lon="6.58905">
        <ele>2198.7</ele>
        <time>2013-08-28T07:03:55Z</time>
      </trkpt>
      <trkpt lat="45.59086" lon="6.58903">
        <ele>2198.2</ele>
        <time>2013-08-28T07:03:56Z</time>
      </trkpt>
      <trkpt lat="45.59032" lon="6.58876">
        <ele>2197.2</ele>
        <time>2013-08-28T07:04:11Z</time>
      </trkpt>
      <trkpt lat="45.58995" lon="6.58867">
        <ele>2195.3</ele>
        <time>2013-08-28T07:04:22Z</time>
      </trkpt>
      <trkpt lat="45.58993" lon="6.58866">
        <ele>2194.8</ele>
        <time>2013-08-28T07:04:23Z</time>
      </trkpt>
      <trkpt lat="45.58981" lon="6.58862">
        <ele>2192.4</ele>
        <time>2013-08-28T07:04:27Z</time>
      </trkpt>
      <trkpt lat="45.58975" lon="6.58858">
        <ele>2191.5</ele>
        <time>2013-08-28T07:04:30Z</time>
      </trkpt>
      <trkpt lat="45.58956" lon="6.58848">
        <ele>2187.6</ele>
        <time>2013-08-28T07:04:36Z</time>
      </trkpt>
      <trkpt lat="45.58945" lon="6.58842">
        <ele>2185.7</ele>
        <time>2013-08-28T07:04:39Z</time>
      </trkpt>
      <trkpt lat="45.58936" lon="6.58839">
        <ele>2184.7</ele>
        <time>2013-08-28T07:04:41Z</time>
      </trkpt>
      <trkpt lat="45.58921" lon="6.5883">
        <ele>2180.9</ele>
        <time>2013-08-28T07:04:46Z</time>
      </trkpt>
      <trkpt lat="45.58918" lon="6.58834">
        <ele>2180.4</ele>
        <time>2013-08-28T07:04:47Z</time>
      </trkpt>
      <trkpt lat="45.58917" lon="6.58838">
        <ele>2180.4</ele>
        <time>2013-08-28T07:04:48Z</time>
      </trkpt>
      <trkpt lat="45.58916" lon="6.58843">
        <ele>2179.9</ele>
        <time>2013-08-28T07:04:49Z</time>
      </trkpt>
      <trkpt lat="45.58917" lon="6.58848">
        <ele>2179</ele>
        <time>2013-08-28T07:04:50Z</time>
      </trkpt>
      <trkpt lat="45.58918" lon="6.58854">
        <ele>2179.5</ele>
        <time>2013-08-28T07:04:51Z</time>
      </trkpt>
      <trkpt lat="45.58919" lon="6.5886">
        <ele>2179</ele>
        <time>2013-08-28T07:04:52Z</time>
      </trkpt>
      <trkpt lat="45.58925" lon="6.58891">
        <ele>2176.6</ele>
        <time>2013-08-28T07:05:02Z</time>
      </trkpt>
      <trkpt lat="45.58926" lon="6.5889">
        <ele>2176.6</ele>
        <time>2013-08-28T07:05:23Z</time>
      </trkpt>
      <trkpt lat="45.58927" lon="6.58892">
        <ele>2175.6</ele>
        <time>2013-08-28T07:05:24Z</time>
      </trkpt>
      <trkpt lat="45.58931" lon="6.58913">
        <ele>2174.2</ele>
        <time>2013-08-28T07:05:28Z</time>
      </trkpt>
      <trkpt lat="45.58932" lon="6.58921">
        <ele>2173.7</ele>
        <time>2013-08-28T07:05:29Z</time>
      </trkpt>
      <trkpt lat="45.58934" lon="6.58929">
        <ele>2172.7</ele>
        <time>2013-08-28T07:05:30Z</time>
      </trkpt>
      <trkpt lat="45.58936" lon="6.58936">
        <ele>2172.7</ele>
        <time>2013-08-28T07:05:31Z</time>
      </trkpt>
      <trkpt lat="45.58938" lon="6.58943">
        <ele>2171.8</ele>
        <time>2013-08-28T07:05:32Z</time>
      </trkpt>
      <trkpt lat="45.58941" lon="6.58949">
        <ele>2171.3</ele>
        <time>2013-08-28T07:05:33Z</time>
      </trkpt>
      <trkpt lat="45.58943" lon="6.58954">
        <ele>2170.3</ele>
        <time>2013-08-28T07:05:34Z</time>
      </trkpt>
      <trkpt lat="45.58945" lon="6.5896">
        <ele>2169.8</ele>
        <time>2013-08-28T07:05:35Z</time>
      </trkpt>
      <trkpt lat="45.58947" lon="6.58965">
        <ele>2168.9</ele>
        <time>2013-08-28T07:05:36Z</time>
      </trkpt>
      <trkpt lat="45.58949" lon="6.58971">
        <ele>2169.4</ele>
        <time>2013-08-28T07:05:37Z</time>
      </trkpt>
      <trkpt lat="45.58949" lon="6.58976">
        <ele>2168.4</ele>
        <time>2013-08-28T07:05:38Z</time>
      </trkpt>
      <trkpt lat="45.58949" lon="6.58982">
        <ele>2168.4</ele>
        <time>2013-08-28T07:05:39Z</time>
      </trkpt>
      <trkpt lat="45.58949" lon="6.58988">
        <ele>2167.4</ele>
        <time>2013-08-28T07:05:40Z</time>
      </trkpt>
      <trkpt lat="45.58945" lon="6.59012">
        <ele>2165.5</ele>
        <time>2013-08-28T07:05:44Z</time>
      </trkpt>
      <trkpt lat="45.5894" lon="6.59034">
        <ele>2165</ele>
        <time>2013-08-28T07:05:47Z</time>
      </trkpt>
      <trkpt lat="45.5894" lon="6.59042">
        <ele>2164.1</ele>
        <time>2013-08-28T07:05:48Z</time>
      </trkpt>
      <trkpt lat="45.5894" lon="6.59051">
        <ele>2164.6</ele>
        <time>2013-08-28T07:05:49Z</time>
      </trkpt>
      <trkpt lat="45.58939" lon="6.59066">
        <ele>2164.1</ele>
        <time>2013-08-28T07:05:51Z</time>
      </trkpt>
      <trkpt lat="45.58938" lon="6.59072">
        <ele>2164.1</ele>
        <time>2013-08-28T07:05:52Z</time>
      </trkpt>
      <trkpt lat="45.58935" lon="6.59078">
        <ele>2164.1</ele>
        <time>2013-08-28T07:05:53Z</time>
      </trkpt>
      <trkpt lat="45.58932" lon="6.59082">
        <ele>2164.1</ele>
        <time>2013-08-28T07:05:54Z</time>
      </trkpt>
      <trkpt lat="45.58928" lon="6.59085">
        <ele>2163.6</ele>
        <time>2013-08-28T07:05:55Z</time>
      </trkpt>
      <trkpt lat="45.58925" lon="6.59089">
        <ele>2163.6</ele>
        <time>2013-08-28T07:05:56Z</time>
      </trkpt>
      <trkpt lat="45.58899" lon="6.59121">
        <ele>2164.1</ele>
        <time>2013-08-28T07:06:08Z</time>
      </trkpt>
      <trkpt lat="45.5888" lon="6.59149">
        <ele>2163.1</ele>
        <time>2013-08-28T07:06:17Z</time>
      </trkpt>
      <trkpt lat="45.58864" lon="6.59168">
        <ele>2161.2</ele>
        <time>2013-08-28T07:06:20Z</time>
      </trkpt>
      <trkpt lat="45.58849" lon="6.59189">
        <ele>2157.8</ele>
        <time>2013-08-28T07:06:23Z</time>
      </trkpt>
      <trkpt lat="45.58845" lon="6.59197">
        <ele>2158.3</ele>
        <time>2013-08-28T07:06:24Z</time>
      </trkpt>
      <trkpt lat="45.58835" lon="6.59225">
        <ele>2156.9</ele>
        <time>2013-08-28T07:06:28Z</time>
      </trkpt>
      <trkpt lat="45.58834" lon="6.5923">
        <ele>2155.9</ele>
        <time>2013-08-28T07:06:29Z</time>
      </trkpt>
      <trkpt lat="45.58818" lon="6.59266">
        <ele>2155.9</ele>
        <time>2013-08-28T07:06:40Z</time>
      </trkpt>
      <trkpt lat="45.58797" lon="6.59307">
        <ele>2155.4</ele>
        <time>2013-08-28T07:06:54Z</time>
      </trkpt>
      <trkpt lat="45.58777" lon="6.59344">
        <ele>2154.5</ele>
        <time>2013-08-28T07:07:05Z</time>
      </trkpt>
      <trkpt lat="45.58763" lon="6.59391">
        <ele>2154</ele>
        <time>2013-08-28T07:07:18Z</time>
      </trkpt>
      <trkpt lat="45.58749" lon="6.59443">
        <ele>2152.5</ele>
        <time>2013-08-28T07:07:30Z</time>
      </trkpt>
      <trkpt lat="45.58727" lon="6.59465">
        <ele>2151.1</ele>
        <time>2013-08-28T07:07:39Z</time>
      </trkpt>
      <trkpt lat="45.58713" lon="6.59464">
        <ele>2149.7</ele>
        <time>2013-08-28T07:07:55Z</time>
      </trkpt>
      <trkpt lat="45.58682" lon="6.59464">
        <ele>2148.2</ele>
        <time>2013-08-28T07:08:02Z</time>
      </trkpt>
      <trkpt lat="45.58677" lon="6.59465">
        <ele>2148.2</ele>
        <time>2013-08-28T07:08:03Z</time>
      </trkpt>
      <trkpt lat="45.58654" lon="6.5947">
        <ele>2144.8</ele>
        <time>2013-08-28T07:08:07Z</time>
      </trkpt>
      <trkpt lat="45.58649" lon="6.59471">
        <ele>2144.8</ele>
        <time>2013-08-28T07:08:08Z</time>
      </trkpt>
      <trkpt lat="45.58644" lon="6.59471">
        <ele>2143.9</ele>
        <time>2013-08-28T07:08:09Z</time>
      </trkpt>
      <trkpt lat="45.58639" lon="6.59471">
        <ele>2143.4</ele>
        <time>2013-08-28T07:08:10Z</time>
      </trkpt>
      <trkpt lat="45.58635" lon="6.59469">
        <ele>2143.9</ele>
        <time>2013-08-28T07:08:11Z</time>
      </trkpt>
      <trkpt lat="45.58632" lon="6.59466">
        <ele>2143.9</ele>
        <time>2013-08-28T07:08:12Z</time>
      </trkpt>
      <trkpt lat="45.58631" lon="6.5946">
        <ele>2143.4</ele>
        <time>2013-08-28T07:08:13Z</time>
      </trkpt>
      <trkpt lat="45.58632" lon="6.59455">
        <ele>2142.9</ele>
        <time>2013-08-28T07:08:14Z</time>
      </trkpt>
      <trkpt lat="45.58635" lon="6.59451">
        <ele>2142.4</ele>
        <time>2013-08-28T07:08:15Z</time>
      </trkpt>
      <trkpt lat="45.58638" lon="6.59447">
        <ele>2141.5</ele>
        <time>2013-08-28T07:08:16Z</time>
      </trkpt>
      <trkpt lat="45.58641" lon="6.59443">
        <ele>2141.5</ele>
        <time>2013-08-28T07:08:17Z</time>
      </trkpt>
      <trkpt lat="45.58645" lon="6.59439">
        <ele>2141</ele>
        <time>2013-08-28T07:08:18Z</time>
      </trkpt>
      <trkpt lat="45.58648" lon="6.59434">
        <ele>2140</ele>
        <time>2013-08-28T07:08:19Z</time>
      </trkpt>
      <trkpt lat="45.58658" lon="6.59409">
        <ele>2137.6</ele>
        <time>2013-08-28T07:08:23Z</time>
      </trkpt>
      <trkpt lat="45.58667" lon="6.59382">
        <ele>2135.7</ele>
        <time>2013-08-28T07:08:27Z</time>
      </trkpt>
      <trkpt lat="45.58669" lon="6.59376">
        <ele>2134.7</ele>
        <time>2013-08-28T07:08:28Z</time>
      </trkpt>
      <trkpt lat="45.58672" lon="6.59369">
        <ele>2134.7</ele>
        <time>2013-08-28T07:08:29Z</time>
      </trkpt>
      <trkpt lat="45.58677" lon="6.59356">
        <ele>2131.9</ele>
        <time>2013-08-28T07:08:31Z</time>
      </trkpt>
      <trkpt lat="45.58678" lon="6.59348">
        <ele>2130.4</ele>
        <time>2013-08-28T07:08:32Z</time>
      </trkpt>
      <trkpt lat="45.58679" lon="6.59342">
        <ele>2130.4</ele>
        <time>2013-08-28T07:08:33Z</time>
      </trkpt>
      <trkpt lat="45.58677" lon="6.59336">
        <ele>2129.5</ele>
        <time>2013-08-28T07:08:34Z</time>
      </trkpt>
      <trkpt lat="45.58675" lon="6.5933">
        <ele>2129.5</ele>
        <time>2013-08-28T07:08:35Z</time>
      </trkpt>
      <trkpt lat="45.58671" lon="6.59326">
        <ele>2128</ele>
        <time>2013-08-28T07:08:36Z</time>
      </trkpt>
      <trkpt lat="45.58666" lon="6.59324">
        <ele>2128</ele>
        <time>2013-08-28T07:08:37Z</time>
      </trkpt>
      <trkpt lat="45.58661" lon="6.59324">
        <ele>2127.5</ele>
        <time>2013-08-28T07:08:38Z</time>
      </trkpt>
      <trkpt lat="45.58655" lon="6.59326">
        <ele>2127.1</ele>
        <time>2013-08-28T07:08:39Z</time>
      </trkpt>
      <trkpt lat="45.58649" lon="6.59328">
        <ele>2126.6</ele>
        <time>2013-08-28T07:08:40Z</time>
      </trkpt>
      <trkpt lat="45.58644" lon="6.59331">
        <ele>2126.6</ele>
        <time>2013-08-28T07:08:41Z</time>
      </trkpt>
      <trkpt lat="45.58639" lon="6.59332">
        <ele>2126.1</ele>
        <time>2013-08-28T07:08:42Z</time>
      </trkpt>
      <trkpt lat="45.58634" lon="6.59333">
        <ele>2125.6</ele>
        <time>2013-08-28T07:08:43Z</time>
      </trkpt>
      <trkpt lat="45.58602" lon="6.59341">
        <ele>2124.2</ele>
        <time>2013-08-28T07:08:49Z</time>
      </trkpt>
      <trkpt lat="45.58596" lon="6.59339">
        <ele>2122.7</ele>
        <time>2013-08-28T07:08:50Z</time>
      </trkpt>
      <trkpt lat="45.58591" lon="6.59336">
        <ele>2122.3</ele>
        <time>2013-08-28T07:08:51Z</time>
      </trkpt>
      <trkpt lat="45.58586" lon="6.59332">
        <ele>2120.8</ele>
        <time>2013-08-28T07:08:52Z</time>
      </trkpt>
      <trkpt lat="45.58581" lon="6.59329">
        <ele>2120.3</ele>
        <time>2013-08-28T07:08:53Z</time>
      </trkpt>
      <trkpt lat="45.58576" lon="6.59329">
        <ele>2119.4</ele>
        <time>2013-08-28T07:08:54Z</time>
      </trkpt>
      <trkpt lat="45.5857" lon="6.5933">
        <ele>2119.4</ele>
        <time>2013-08-28T07:08:55Z</time>
      </trkpt>
      <trkpt lat="45.58566" lon="6.59334">
        <ele>2119.8</ele>
        <time>2013-08-28T07:08:56Z</time>
      </trkpt>
      <trkpt lat="45.58563" lon="6.59339">
        <ele>2118.4</ele>
        <time>2013-08-28T07:08:57Z</time>
      </trkpt>
      <trkpt lat="45.58561" lon="6.59344">
        <ele>2118.4</ele>
        <time>2013-08-28T07:08:58Z</time>
      </trkpt>
      <trkpt lat="45.58555" lon="6.59349">
        <ele>2117</ele>
        <time>2013-08-28T07:09:00Z</time>
      </trkpt>
      <trkpt lat="45.58553" lon="6.59347">
        <ele>2117</ele>
        <time>2013-08-28T07:09:01Z</time>
      </trkpt>
      <trkpt lat="45.58552" lon="6.59343">
        <ele>2116.5</ele>
        <time>2013-08-28T07:09:02Z</time>
      </trkpt>
      <trkpt lat="45.58552" lon="6.59338">
        <ele>2117</ele>
        <time>2013-08-28T07:09:03Z</time>
      </trkpt>
      <trkpt lat="45.58554" lon="6.59333">
        <ele>2116</ele>
        <time>2013-08-28T07:09:04Z</time>
      </trkpt>
      <trkpt lat="45.58556" lon="6.59312">
        <ele>2114.1</ele>
        <time>2013-08-28T07:09:08Z</time>
      </trkpt>
      <trkpt lat="45.58555" lon="6.59306">
        <ele>2114.1</ele>
        <time>2013-08-28T07:09:09Z</time>
      </trkpt>
      <trkpt lat="45.58555" lon="6.59299">
        <ele>2113.1</ele>
        <time>2013-08-28T07:09:10Z</time>
      </trkpt>
      <trkpt lat="45.58556" lon="6.59294">
        <ele>2113.1</ele>
        <time>2013-08-28T07:09:11Z</time>
      </trkpt>
      <trkpt lat="45.58557" lon="6.59288">
        <ele>2112.2</ele>
        <time>2013-08-28T07:09:12Z</time>
      </trkpt>
      <trkpt lat="45.58559" lon="6.59281">
        <ele>2111.2</ele>
        <time>2013-08-28T07:09:13Z</time>
      </trkpt>
      <trkpt lat="45.58561" lon="6.59274">
        <ele>2110.2</ele>
        <time>2013-08-28T07:09:14Z</time>
      </trkpt>
      <trkpt lat="45.58571" lon="6.59248">
        <ele>2106.9</ele>
        <time>2013-08-28T07:09:18Z</time>
      </trkpt>
      <trkpt lat="45.58579" lon="6.59228">
        <ele>2103.5</ele>
        <time>2013-08-28T07:09:21Z</time>
      </trkpt>
      <trkpt lat="45.58582" lon="6.59221">
        <ele>2103.5</ele>
        <time>2013-08-28T07:09:22Z</time>
      </trkpt>
      <trkpt lat="45.58588" lon="6.59208">
        <ele>2102.5</ele>
        <time>2013-08-28T07:09:24Z</time>
      </trkpt>
      <trkpt lat="45.58596" lon="6.59189">
        <ele>2101.6</ele>
        <time>2013-08-28T07:09:27Z</time>
      </trkpt>
      <trkpt lat="45.58599" lon="6.59184">
        <ele>2101.6</ele>
        <time>2013-08-28T07:09:28Z</time>
      </trkpt>
      <trkpt lat="45.58616" lon="6.5917">
        <ele>2099.2</ele>
        <time>2013-08-28T07:09:35Z</time>
      </trkpt>
      <trkpt lat="45.58617" lon="6.59169">
        <ele>2099.7</ele>
        <time>2013-08-28T07:09:36Z</time>
      </trkpt>
      <trkpt lat="45.58618" lon="6.59168">
        <ele>2099.2</ele>
        <time>2013-08-28T07:09:37Z</time>
      </trkpt>
      <trkpt lat="45.5862" lon="6.59164">
        <ele>2098.7</ele>
        <time>2013-08-28T07:09:40Z</time>
      </trkpt>
      <trkpt lat="45.58619" lon="6.59122">
        <ele>2097.3</ele>
        <time>2013-08-28T07:09:57Z</time>
      </trkpt>
      <trkpt lat="45.58622" lon="6.59103">
        <ele>2096.8</ele>
        <time>2013-08-28T07:10:02Z</time>
      </trkpt>
      <trkpt lat="45.58624" lon="6.59101">
        <ele>2096.3</ele>
        <time>2013-08-28T07:10:03Z</time>
      </trkpt>
      <trkpt lat="45.58626" lon="6.591">
        <ele>2095.8</ele>
        <time>2013-08-28T07:10:04Z</time>
      </trkpt>
      <trkpt lat="45.58628" lon="6.59098">
        <ele>2095.8</ele>
        <time>2013-08-28T07:10:05Z</time>
      </trkpt>
      <trkpt lat="45.5863" lon="6.59097">
        <ele>2095.3</ele>
        <time>2013-08-28T07:10:06Z</time>
      </trkpt>
      <trkpt lat="45.58632" lon="6.59096">
        <ele>2094.9</ele>
        <time>2013-08-28T07:10:07Z</time>
      </trkpt>
      <trkpt lat="45.58635" lon="6.59096">
        <ele>2095.8</ele>
        <time>2013-08-28T07:10:08Z</time>
      </trkpt>
      <trkpt lat="45.58638" lon="6.59096">
        <ele>2094.9</ele>
        <time>2013-08-28T07:10:09Z</time>
      </trkpt>
      <trkpt lat="45.58641" lon="6.59097">
        <ele>2094.4</ele>
        <time>2013-08-28T07:10:10Z</time>
      </trkpt>
      <trkpt lat="45.58645" lon="6.59098">
        <ele>2094.4</ele>
        <time>2013-08-28T07:10:11Z</time>
      </trkpt>
      <trkpt lat="45.58652" lon="6.59098">
        <ele>2092.9</ele>
        <time>2013-08-28T07:10:13Z</time>
      </trkpt>
      <trkpt lat="45.58654" lon="6.59095">
        <ele>2092.9</ele>
        <time>2013-08-28T07:10:14Z</time>
      </trkpt>
      <trkpt lat="45.58654" lon="6.59091">
        <ele>2092.9</ele>
        <time>2013-08-28T07:10:15Z</time>
      </trkpt>
      <trkpt lat="45.58654" lon="6.59087">
        <ele>2092.5</ele>
        <time>2013-08-28T07:10:16Z</time>
      </trkpt>
      <trkpt lat="45.58653" lon="6.59083">
        <ele>2092.5</ele>
        <time>2013-08-28T07:10:17Z</time>
      </trkpt>
      <trkpt lat="45.58652" lon="6.59079">
        <ele>2092</ele>
        <time>2013-08-28T07:10:18Z</time>
      </trkpt>
      <trkpt lat="45.5865" lon="6.59076">
        <ele>2091.5</ele>
        <time>2013-08-28T07:10:19Z</time>
      </trkpt>
      <trkpt lat="45.58648" lon="6.59072">
        <ele>2091.5</ele>
        <time>2013-08-28T07:10:20Z</time>
      </trkpt>
      <trkpt lat="45.58642" lon="6.59064">
        <ele>2090</ele>
        <time>2013-08-28T07:10:23Z</time>
      </trkpt>
      <trkpt lat="45.58635" lon="6.59062">
        <ele>2089.1</ele>
        <time>2013-08-28T07:10:31Z</time>
      </trkpt>
      <trkpt lat="45.5863" lon="6.59065">
        <ele>2088.1</ele>
        <time>2013-08-28T07:10:50Z</time>
      </trkpt>
      <trkpt lat="45.58597" lon="6.59081">
        <ele>2087.6</ele>
        <time>2013-08-28T07:11:04Z</time>
      </trkpt>
      <trkpt lat="45.58567" lon="6.59108">
        <ele>2084.8</ele>
        <time>2013-08-28T07:11:14Z</time>
      </trkpt>
      <trkpt lat="45.58563" lon="6.59109">
        <ele>2084.3</ele>
        <time>2013-08-28T07:11:15Z</time>
      </trkpt>
      <trkpt lat="45.58559" lon="6.5911">
        <ele>2084.3</ele>
        <time>2013-08-28T07:11:16Z</time>
      </trkpt>
      <trkpt lat="45.5855" lon="6.5911">
        <ele>2083.8</ele>
        <time>2013-08-28T07:11:18Z</time>
      </trkpt>
      <trkpt lat="45.58545" lon="6.59111">
        <ele>2084.3</ele>
        <time>2013-08-28T07:11:19Z</time>
      </trkpt>
      <trkpt lat="45.58541" lon="6.59113">
        <ele>2084.3</ele>
        <time>2013-08-28T07:11:20Z</time>
      </trkpt>
      <trkpt lat="45.58536" lon="6.59115">
        <ele>2083.8</ele>
        <time>2013-08-28T07:11:21Z</time>
      </trkpt>
      <trkpt lat="45.58532" lon="6.59118">
        <ele>2083.3</ele>
        <time>2013-08-28T07:11:22Z</time>
      </trkpt>
      <trkpt lat="45.58527" lon="6.59121">
        <ele>2083.3</ele>
        <time>2013-08-28T07:11:23Z</time>
      </trkpt>
      <trkpt lat="45.58524" lon="6.59126">
        <ele>2083.8</ele>
        <time>2013-08-28T07:11:24Z</time>
      </trkpt>
      <trkpt lat="45.5852" lon="6.5913">
        <ele>2082.8</ele>
        <time>2013-08-28T07:11:25Z</time>
      </trkpt>
      <trkpt lat="45.58517" lon="6.59136">
        <ele>2082.8</ele>
        <time>2013-08-28T07:11:26Z</time>
      </trkpt>
      <trkpt lat="45.58514" lon="6.59143">
        <ele>2082.4</ele>
        <time>2013-08-28T07:11:27Z</time>
      </trkpt>
      <trkpt lat="45.58511" lon="6.5915">
        <ele>2081.9</ele>
        <time>2013-08-28T07:11:28Z</time>
      </trkpt>
      <trkpt lat="45.58507" lon="6.59154">
        <ele>2080.9</ele>
        <time>2013-08-28T07:11:29Z</time>
      </trkpt>
      <trkpt lat="45.58501" lon="6.59156">
        <ele>2080.9</ele>
        <time>2013-08-28T07:11:30Z</time>
      </trkpt>
      <trkpt lat="45.58477" lon="6.59162">
        <ele>2079.5</ele>
        <time>2013-08-28T07:11:35Z</time>
      </trkpt>
      <trkpt lat="45.58473" lon="6.59165">
        <ele>2080</ele>
        <time>2013-08-28T07:11:36Z</time>
      </trkpt>
      <trkpt lat="45.58469" lon="6.59168">
        <ele>2080</ele>
        <time>2013-08-28T07:11:37Z</time>
      </trkpt>
      <trkpt lat="45.58466" lon="6.59173">
        <ele>2079.5</ele>
        <time>2013-08-28T07:11:38Z</time>
      </trkpt>
      <trkpt lat="45.58464" lon="6.59178">
        <ele>2079.5</ele>
        <time>2013-08-28T07:11:39Z</time>
      </trkpt>
      <trkpt lat="45.58462" lon="6.59183">
        <ele>2078.5</ele>
        <time>2013-08-28T07:11:40Z</time>
      </trkpt>
      <trkpt lat="45.5846" lon="6.59187">
        <ele>2078.5</ele>
        <time>2013-08-28T07:11:41Z</time>
      </trkpt>
      <trkpt lat="45.58459" lon="6.59191">
        <ele>2078</ele>
        <time>2013-08-28T07:11:42Z</time>
      </trkpt>
      <trkpt lat="45.58458" lon="6.59195">
        <ele>2078</ele>
        <time>2013-08-28T07:11:43Z</time>
      </trkpt>
      <trkpt lat="45.58458" lon="6.59214">
        <ele>2077.1</ele>
        <time>2013-08-28T07:11:54Z</time>
      </trkpt>
      <trkpt lat="45.5846" lon="6.59213">
        <ele>2074.2</ele>
        <time>2013-08-28T07:12:26Z</time>
      </trkpt>
      <trkpt lat="45.5846" lon="6.59213">
        <ele>2078.5</ele>
        <time>2013-08-28T07:12:27Z</time>
      </trkpt>
      <trkpt lat="45.5846" lon="6.59213">
        <ele>2074.7</ele>
        <time>2013-08-28T07:12:31Z</time>
      </trkpt>
      <trkpt lat="45.5846" lon="6.59213">
        <ele>2079</ele>
        <time>2013-08-28T07:12:32Z</time>
      </trkpt>
      <trkpt lat="45.58459" lon="6.59212">
        <ele>2074.7</ele>
        <time>2013-08-28T07:12:34Z</time>
      </trkpt>
      <trkpt lat="45.58459" lon="6.59212">
        <ele>2077.6</ele>
        <time>2013-08-28T07:12:35Z</time>
      </trkpt>
      <trkpt lat="45.5846" lon="6.59213">
        <ele>2076.6</ele>
        <time>2013-08-28T07:12:47Z</time>
      </trkpt>
      <trkpt lat="45.58461" lon="6.59216">
        <ele>2076.1</ele>
        <time>2013-08-28T07:12:48Z</time>
      </trkpt>
      <trkpt lat="45.58461" lon="6.59219">
        <ele>2077.1</ele>
        <time>2013-08-28T07:12:49Z</time>
      </trkpt>
      <trkpt lat="45.58462" lon="6.59224">
        <ele>2076.1</ele>
        <time>2013-08-28T07:12:50Z</time>
      </trkpt>
      <trkpt lat="45.58463" lon="6.5923">
        <ele>2075.1</ele>
        <time>2013-08-28T07:12:51Z</time>
      </trkpt>
      <trkpt lat="45.58464" lon="6.59235">
        <ele>2075.1</ele>
        <time>2013-08-28T07:12:52Z</time>
      </trkpt>
      <trkpt lat="45.58466" lon="6.59242">
        <ele>2075.1</ele>
        <time>2013-08-28T07:12:53Z</time>
      </trkpt>
      <trkpt lat="45.58467" lon="6.59249">
        <ele>2074.2</ele>
        <time>2013-08-28T07:12:54Z</time>
      </trkpt>
      <trkpt lat="45.58469" lon="6.59256">
        <ele>2072.7</ele>
        <time>2013-08-28T07:12:55Z</time>
      </trkpt>
      <trkpt lat="45.58471" lon="6.59263">
        <ele>2072.7</ele>
        <time>2013-08-28T07:12:56Z</time>
      </trkpt>
      <trkpt lat="45.58472" lon="6.5927">
        <ele>2072.3</ele>
        <time>2013-08-28T07:12:57Z</time>
      </trkpt>
      <trkpt lat="45.58475" lon="6.59292">
        <ele>2069.4</ele>
        <time>2013-08-28T07:13:00Z</time>
      </trkpt>
      <trkpt lat="45.58475" lon="6.59298">
        <ele>2069.9</ele>
        <time>2013-08-28T07:13:01Z</time>
      </trkpt>
      <trkpt lat="45.58469" lon="6.59325">
        <ele>2067.5</ele>
        <time>2013-08-28T07:13:05Z</time>
      </trkpt>
      <trkpt lat="45.58464" lon="6.59333">
        <ele>2067.5</ele>
        <time>2013-08-28T07:13:06Z</time>
      </trkpt>
      <trkpt lat="45.5846" lon="6.59341">
        <ele>2067</ele>
        <time>2013-08-28T07:13:07Z</time>
      </trkpt>
      <trkpt lat="45.58437" lon="6.59383">
        <ele>2065.1</ele>
        <time>2013-08-28T07:13:13Z</time>
      </trkpt>
      <trkpt lat="45.58434" lon="6.5939">
        <ele>2065.1</ele>
        <time>2013-08-28T07:13:14Z</time>
      </trkpt>
      <trkpt lat="45.58424" lon="6.5942">
        <ele>2062.7</ele>
        <time>2013-08-28T07:13:18Z</time>
      </trkpt>
      <trkpt lat="45.58423" lon="6.59428">
        <ele>2061.7</ele>
        <time>2013-08-28T07:13:19Z</time>
      </trkpt>
      <trkpt lat="45.58422" lon="6.59437">
        <ele>2061.2</ele>
        <time>2013-08-28T07:13:20Z</time>
      </trkpt>
      <trkpt lat="45.58419" lon="6.59465">
        <ele>2058.8</ele>
        <time>2013-08-28T07:13:23Z</time>
      </trkpt>
      <trkpt lat="45.58418" lon="6.59475">
        <ele>2058.3</ele>
        <time>2013-08-28T07:13:24Z</time>
      </trkpt>
      <trkpt lat="45.58417" lon="6.59484">
        <ele>2058.3</ele>
        <time>2013-08-28T07:13:25Z</time>
      </trkpt>
      <trkpt lat="45.58416" lon="6.59508">
        <ele>2057.4</ele>
        <time>2013-08-28T07:13:28Z</time>
      </trkpt>
      <trkpt lat="45.58414" lon="6.59516">
        <ele>2057.4</ele>
        <time>2013-08-28T07:13:29Z</time>
      </trkpt>
      <trkpt lat="45.58412" lon="6.59523">
        <ele>2056.9</ele>
        <time>2013-08-28T07:13:30Z</time>
      </trkpt>
      <trkpt lat="45.58411" lon="6.59531">
        <ele>2056.9</ele>
        <time>2013-08-28T07:13:31Z</time>
      </trkpt>
      <trkpt lat="45.58412" lon="6.5954">
        <ele>2056.4</ele>
        <time>2013-08-28T07:13:32Z</time>
      </trkpt>
      <trkpt lat="45.58414" lon="6.59549">
        <ele>2055.9</ele>
        <time>2013-08-28T07:13:33Z</time>
      </trkpt>
      <trkpt lat="45.58415" lon="6.59557">
        <ele>2055</ele>
        <time>2013-08-28T07:13:34Z</time>
      </trkpt>
      <trkpt lat="45.58416" lon="6.59565">
        <ele>2055</ele>
        <time>2013-08-28T07:13:35Z</time>
      </trkpt>
      <trkpt lat="45.58419" lon="6.59591">
        <ele>2051.6</ele>
        <time>2013-08-28T07:13:38Z</time>
      </trkpt>
      <trkpt lat="45.58422" lon="6.59603">
        <ele>2051.6</ele>
        <time>2013-08-28T07:13:40Z</time>
      </trkpt>
      <trkpt lat="45.58423" lon="6.59611">
        <ele>2050.6</ele>
        <time>2013-08-28T07:13:41Z</time>
      </trkpt>
      <trkpt lat="45.58425" lon="6.5962">
        <ele>2049.7</ele>
        <time>2013-08-28T07:13:42Z</time>
      </trkpt>
      <trkpt lat="45.58428" lon="6.59637">
        <ele>2049.2</ele>
        <time>2013-08-28T07:13:44Z</time>
      </trkpt>
      <trkpt lat="45.58432" lon="6.59648">
        <ele>2047.8</ele>
        <time>2013-08-28T07:13:45Z</time>
      </trkpt>
      <trkpt lat="45.58434" lon="6.59651">
        <ele>2047.8</ele>
        <time>2013-08-28T07:13:46Z</time>
      </trkpt>
      <trkpt lat="45.58438" lon="6.59657">
        <ele>2046.3</ele>
        <time>2013-08-28T07:13:47Z</time>
      </trkpt>
      <trkpt lat="45.58446" lon="6.5967">
        <ele>2045.8</ele>
        <time>2013-08-28T07:13:49Z</time>
      </trkpt>
      <trkpt lat="45.58462" lon="6.59703">
        <ele>2042.9</ele>
        <time>2013-08-28T07:13:54Z</time>
      </trkpt>
      <trkpt lat="45.58472" lon="6.59722">
        <ele>2041</ele>
        <time>2013-08-28T07:13:57Z</time>
      </trkpt>
      <trkpt lat="45.58476" lon="6.59729">
        <ele>2039.6</ele>
        <time>2013-08-28T07:13:58Z</time>
      </trkpt>
      <trkpt lat="45.58479" lon="6.59736">
        <ele>2039.1</ele>
        <time>2013-08-28T07:13:59Z</time>
      </trkpt>
      <trkpt lat="45.58482" lon="6.59744">
        <ele>2038.1</ele>
        <time>2013-08-28T07:14:00Z</time>
      </trkpt>
      <trkpt lat="45.58484" lon="6.59752">
        <ele>2037.7</ele>
        <time>2013-08-28T07:14:01Z</time>
      </trkpt>
      <trkpt lat="45.58501" lon="6.59798">
        <ele>2035.7</ele>
        <time>2013-08-28T07:14:07Z</time>
      </trkpt>
      <trkpt lat="45.58502" lon="6.59804">
        <ele>2035.3</ele>
        <time>2013-08-28T07:14:08Z</time>
      </trkpt>
      <trkpt lat="45.58505" lon="6.59815">
        <ele>2034.3</ele>
        <time>2013-08-28T07:14:10Z</time>
      </trkpt>
      <trkpt lat="45.58505" lon="6.5982">
        <ele>2033.3</ele>
        <time>2013-08-28T07:14:11Z</time>
      </trkpt>
      <trkpt lat="45.58504" lon="6.59827">
        <ele>2033.8</ele>
        <time>2013-08-28T07:14:12Z</time>
      </trkpt>
      <trkpt lat="45.58495" lon="6.59839">
        <ele>2033.8</ele>
        <time>2013-08-28T07:14:13Z</time>
      </trkpt>
      <trkpt lat="45.58487" lon="6.59849">
        <ele>2033.3</ele>
        <time>2013-08-28T07:14:14Z</time>
      </trkpt>
      <trkpt lat="45.58482" lon="6.59858">
        <ele>2032.8</ele>
        <time>2013-08-28T07:14:15Z</time>
      </trkpt>
      <trkpt lat="45.58481" lon="6.59865">
        <ele>2032.8</ele>
        <time>2013-08-28T07:14:16Z</time>
      </trkpt>
      <trkpt lat="45.58481" lon="6.59869">
        <ele>2032.4</ele>
        <time>2013-08-28T07:14:17Z</time>
      </trkpt>
      <trkpt lat="45.5848" lon="6.59877">
        <ele>2032.4</ele>
        <time>2013-08-28T07:14:18Z</time>
      </trkpt>
      <trkpt lat="45.58478" lon="6.59882">
        <ele>2031.4</ele>
        <time>2013-08-28T07:14:19Z</time>
      </trkpt>
      <trkpt lat="45.58474" lon="6.59884">
        <ele>2030.4</ele>
        <time>2013-08-28T07:14:20Z</time>
      </trkpt>
      <trkpt lat="45.5847" lon="6.59883">
        <ele>2030</ele>
        <time>2013-08-28T07:14:21Z</time>
      </trkpt>
      <trkpt lat="45.58466" lon="6.5988">
        <ele>2030</ele>
        <time>2013-08-28T07:14:22Z</time>
      </trkpt>
      <trkpt lat="45.58464" lon="6.59874">
        <ele>2029.5</ele>
        <time>2013-08-28T07:14:23Z</time>
      </trkpt>
      <trkpt lat="45.58461" lon="6.59868">
        <ele>2029.5</ele>
        <time>2013-08-28T07:14:24Z</time>
      </trkpt>
      <trkpt lat="45.58459" lon="6.59861">
        <ele>2028</ele>
        <time>2013-08-28T07:14:25Z</time>
      </trkpt>
      <trkpt lat="45.5845" lon="6.5984">
        <ele>2028</ele>
        <time>2013-08-28T07:14:28Z</time>
      </trkpt>
      <trkpt lat="45.58448" lon="6.59832">
        <ele>2027.1</ele>
        <time>2013-08-28T07:14:29Z</time>
      </trkpt>
      <trkpt lat="45.58447" lon="6.59823">
        <ele>2027.1</ele>
        <time>2013-08-28T07:14:30Z</time>
      </trkpt>
      <trkpt lat="45.58445" lon="6.59815">
        <ele>2025.2</ele>
        <time>2013-08-28T07:14:31Z</time>
      </trkpt>
      <trkpt lat="45.58443" lon="6.59808">
        <ele>2026.1</ele>
        <time>2013-08-28T07:14:32Z</time>
      </trkpt>
      <trkpt lat="45.58439" lon="6.59803">
        <ele>2025.2</ele>
        <time>2013-08-28T07:14:33Z</time>
      </trkpt>
      <trkpt lat="45.58435" lon="6.59797">
        <ele>2024.7</ele>
        <time>2013-08-28T07:14:34Z</time>
      </trkpt>
      <trkpt lat="45.58432" lon="6.59789">
        <ele>2024.2</ele>
        <time>2013-08-28T07:14:35Z</time>
      </trkpt>
      <trkpt lat="45.5843" lon="6.5978">
        <ele>2023.2</ele>
        <time>2013-08-28T07:14:36Z</time>
      </trkpt>
      <trkpt lat="45.58428" lon="6.59771">
        <ele>2022.8</ele>
        <time>2013-08-28T07:14:37Z</time>
      </trkpt>
      <trkpt lat="45.58425" lon="6.59761">
        <ele>2020.8</ele>
        <time>2013-08-28T07:14:38Z</time>
      </trkpt>
      <trkpt lat="45.5842" lon="6.59753">
        <ele>2020.8</ele>
        <time>2013-08-28T07:14:39Z</time>
      </trkpt>
      <trkpt lat="45.58414" lon="6.59746">
        <ele>2019.4</ele>
        <time>2013-08-28T07:14:40Z</time>
      </trkpt>
      <trkpt lat="45.58395" lon="6.59727">
        <ele>2017.9</ele>
        <time>2013-08-28T07:14:43Z</time>
      </trkpt>
      <trkpt lat="45.58371" lon="6.597">
        <ele>2014.6</ele>
        <time>2013-08-28T07:14:47Z</time>
      </trkpt>
      <trkpt lat="45.58358" lon="6.59688">
        <ele>2013.1</ele>
        <time>2013-08-28T07:14:49Z</time>
      </trkpt>
      <trkpt lat="45.58337" lon="6.59673">
        <ele>2011.7</ele>
        <time>2013-08-28T07:14:52Z</time>
      </trkpt>
      <trkpt lat="45.58304" lon="6.59648">
        <ele>2008.8</ele>
        <time>2013-08-28T07:14:57Z</time>
      </trkpt>
      <trkpt lat="45.583" lon="6.59644">
        <ele>2008.3</ele>
        <time>2013-08-28T07:14:58Z</time>
      </trkpt>
      <trkpt lat="45.58297" lon="6.59644">
        <ele>2007.4</ele>
        <time>2013-08-28T07:14:59Z</time>
      </trkpt>
      <trkpt lat="45.58295" lon="6.59646">
        <ele>2007.4</ele>
        <time>2013-08-28T07:15:00Z</time>
      </trkpt>
      <trkpt lat="45.58294" lon="6.5965">
        <ele>2006.9</ele>
        <time>2013-08-28T07:15:01Z</time>
      </trkpt>
      <trkpt lat="45.58295" lon="6.59655">
        <ele>2006.4</ele>
        <time>2013-08-28T07:15:02Z</time>
      </trkpt>
      <trkpt lat="45.58297" lon="6.59658">
        <ele>2006.4</ele>
        <time>2013-08-28T07:15:03Z</time>
      </trkpt>
      <trkpt lat="45.58301" lon="6.59663">
        <ele>2005.9</ele>
        <time>2013-08-28T07:15:04Z</time>
      </trkpt>
      <trkpt lat="45.58305" lon="6.59667">
        <ele>2005.9</ele>
        <time>2013-08-28T07:15:05Z</time>
      </trkpt>
      <trkpt lat="45.5834" lon="6.59711">
        <ele>2001.6</ele>
        <time>2013-08-28T07:15:12Z</time>
      </trkpt>
      <trkpt lat="45.58344" lon="6.59719">
        <ele>2002.1</ele>
        <time>2013-08-28T07:15:13Z</time>
      </trkpt>
      <trkpt lat="45.58347" lon="6.59727">
        <ele>2002.1</ele>
        <time>2013-08-28T07:15:14Z</time>
      </trkpt>
      <trkpt lat="45.58351" lon="6.59743">
        <ele>2000.6</ele>
        <time>2013-08-28T07:15:16Z</time>
      </trkpt>
      <trkpt lat="45.5835" lon="6.5975">
        <ele>2000.2</ele>
        <time>2013-08-28T07:15:17Z</time>
      </trkpt>
      <trkpt lat="45.58348" lon="6.59757">
        <ele>1999.2</ele>
        <time>2013-08-28T07:15:18Z</time>
      </trkpt>
      <trkpt lat="45.58342" lon="6.59766">
        <ele>1998.2</ele>
        <time>2013-08-28T07:15:19Z</time>
      </trkpt>
      <trkpt lat="45.58337" lon="6.59774">
        <ele>1997.3</ele>
        <time>2013-08-28T07:15:20Z</time>
      </trkpt>
      <trkpt lat="45.58331" lon="6.5978">
        <ele>1997.3</ele>
        <time>2013-08-28T07:15:21Z</time>
      </trkpt>
      <trkpt lat="45.58325" lon="6.59781">
        <ele>1997.3</ele>
        <time>2013-08-28T07:15:22Z</time>
      </trkpt>
      <trkpt lat="45.58322" lon="6.59779">
        <ele>1995.8</ele>
        <time>2013-08-28T07:15:23Z</time>
      </trkpt>
      <trkpt lat="45.5832" lon="6.59771">
        <ele>1994.9</ele>
        <time>2013-08-28T07:15:24Z</time>
      </trkpt>
      <trkpt lat="45.5832" lon="6.59763">
        <ele>1994.4</ele>
        <time>2013-08-28T07:15:25Z</time>
      </trkpt>
      <trkpt lat="45.5832" lon="6.59754">
        <ele>1993.9</ele>
        <time>2013-08-28T07:15:26Z</time>
      </trkpt>
      <trkpt lat="45.58318" lon="6.59745">
        <ele>1993.4</ele>
        <time>2013-08-28T07:15:27Z</time>
      </trkpt>
      <trkpt lat="45.58315" lon="6.59737">
        <ele>1993</ele>
        <time>2013-08-28T07:15:28Z</time>
      </trkpt>
      <trkpt lat="45.58312" lon="6.5973">
        <ele>1993.4</ele>
        <time>2013-08-28T07:15:29Z</time>
      </trkpt>
      <trkpt lat="45.58307" lon="6.59723">
        <ele>1993</ele>
        <time>2013-08-28T07:15:30Z</time>
      </trkpt>
      <trkpt lat="45.58302" lon="6.59717">
        <ele>1991.5</ele>
        <time>2013-08-28T07:15:31Z</time>
      </trkpt>
      <trkpt lat="45.58297" lon="6.59711">
        <ele>1991.5</ele>
        <time>2013-08-28T07:15:32Z</time>
      </trkpt>
      <trkpt lat="45.58287" lon="6.59699">
        <ele>1990.1</ele>
        <time>2013-08-28T07:15:34Z</time>
      </trkpt>
      <trkpt lat="45.58282" lon="6.59695">
        <ele>1989.6</ele>
        <time>2013-08-28T07:15:35Z</time>
      </trkpt>
      <trkpt lat="45.58271" lon="6.59688">
        <ele>1988.6</ele>
        <time>2013-08-28T07:15:37Z</time>
      </trkpt>
      <trkpt lat="45.58265" lon="6.59683">
        <ele>1988.1</ele>
        <time>2013-08-28T07:15:38Z</time>
      </trkpt>
      <trkpt lat="45.58261" lon="6.59677">
        <ele>1987.2</ele>
        <time>2013-08-28T07:15:39Z</time>
      </trkpt>
      <trkpt lat="45.58257" lon="6.5967">
        <ele>1986.7</ele>
        <time>2013-08-28T07:15:40Z</time>
      </trkpt>
      <trkpt lat="45.58251" lon="6.59653">
        <ele>1985.3</ele>
        <time>2013-08-28T07:15:43Z</time>
      </trkpt>
      <trkpt lat="45.58249" lon="6.59652">
        <ele>1984.3</ele>
        <time>2013-08-28T07:15:44Z</time>
      </trkpt>
      <trkpt lat="45.58247" lon="6.59655">
        <ele>1984.8</ele>
        <time>2013-08-28T07:15:45Z</time>
      </trkpt>
      <trkpt lat="45.58246" lon="6.5966">
        <ele>1984.3</ele>
        <time>2013-08-28T07:15:46Z</time>
      </trkpt>
      <trkpt lat="45.58247" lon="6.59666">
        <ele>1982.9</ele>
        <time>2013-08-28T07:15:47Z</time>
      </trkpt>
      <trkpt lat="45.58249" lon="6.59674">
        <ele>1982.4</ele>
        <time>2013-08-28T07:15:48Z</time>
      </trkpt>
      <trkpt lat="45.58252" lon="6.59682">
        <ele>1982.4</ele>
        <time>2013-08-28T07:15:49Z</time>
      </trkpt>
      <trkpt lat="45.58255" lon="6.5969">
        <ele>1981.4</ele>
        <time>2013-08-28T07:15:50Z</time>
      </trkpt>
      <trkpt lat="45.58258" lon="6.59698">
        <ele>1980.5</ele>
        <time>2013-08-28T07:15:51Z</time>
      </trkpt>
      <trkpt lat="45.58261" lon="6.59705">
        <ele>1980</ele>
        <time>2013-08-28T07:15:52Z</time>
      </trkpt>
      <trkpt lat="45.58266" lon="6.59717">
        <ele>1979</ele>
        <time>2013-08-28T07:15:54Z</time>
      </trkpt>
      <trkpt lat="45.58267" lon="6.59722">
        <ele>1977.6</ele>
        <time>2013-08-28T07:15:55Z</time>
      </trkpt>
      <trkpt lat="45.58266" lon="6.59727">
        <ele>1977.6</ele>
        <time>2013-08-28T07:15:56Z</time>
      </trkpt>
      <trkpt lat="45.58264" lon="6.5973">
        <ele>1976.6</ele>
        <time>2013-08-28T07:15:57Z</time>
      </trkpt>
      <trkpt lat="45.5826" lon="6.59731">
        <ele>1976.6</ele>
        <time>2013-08-28T07:15:58Z</time>
      </trkpt>
      <trkpt lat="45.58257" lon="6.59728">
        <ele>1975.2</ele>
        <time>2013-08-28T07:15:59Z</time>
      </trkpt>
      <trkpt lat="45.58255" lon="6.59722">
        <ele>1975.2</ele>
        <time>2013-08-28T07:16:00Z</time>
      </trkpt>
      <trkpt lat="45.58252" lon="6.59716">
        <ele>1974.7</ele>
        <time>2013-08-28T07:16:01Z</time>
      </trkpt>
      <trkpt lat="45.58248" lon="6.5971">
        <ele>1973.7</ele>
        <time>2013-08-28T07:16:02Z</time>
      </trkpt>
      <trkpt lat="45.58244" lon="6.59703">
        <ele>1974.2</ele>
        <time>2013-08-28T07:16:03Z</time>
      </trkpt>
      <trkpt lat="45.5824" lon="6.59697">
        <ele>1972.8</ele>
        <time>2013-08-28T07:16:04Z</time>
      </trkpt>
      <trkpt lat="45.58221" lon="6.59676">
        <ele>1972.3</ele>
        <time>2013-08-28T07:16:08Z</time>
      </trkpt>
      <trkpt lat="45.58218" lon="6.5967">
        <ele>1971.3</ele>
        <time>2013-08-28T07:16:09Z</time>
      </trkpt>
      <trkpt lat="45.58217" lon="6.59662">
        <ele>1971.3</ele>
        <time>2013-08-28T07:16:10Z</time>
      </trkpt>
      <trkpt lat="45.58217" lon="6.59653">
        <ele>1969.9</ele>
        <time>2013-08-28T07:16:11Z</time>
      </trkpt>
      <trkpt lat="45.58218" lon="6.59644">
        <ele>1969.9</ele>
        <time>2013-08-28T07:16:12Z</time>
      </trkpt>
      <trkpt lat="45.5822" lon="6.59624">
        <ele>1967.5</ele>
        <time>2013-08-28T07:16:14Z</time>
      </trkpt>
      <trkpt lat="45.58225" lon="6.59605">
        <ele>1966.5</ele>
        <time>2013-08-28T07:16:16Z</time>
      </trkpt>
      <trkpt lat="45.58235" lon="6.59565">
        <ele>1962.7</ele>
        <time>2013-08-28T07:16:20Z</time>
      </trkpt>
      <trkpt lat="45.58242" lon="6.59524">
        <ele>1958.8</ele>
        <time>2013-08-28T07:16:24Z</time>
      </trkpt>
      <trkpt lat="45.58247" lon="6.59494">
        <ele>1955</ele>
        <time>2013-08-28T07:16:27Z</time>
      </trkpt>
      <trkpt lat="45.58248" lon="6.59484">
        <ele>1954.5</ele>
        <time>2013-08-28T07:16:28Z</time>
      </trkpt>
      <trkpt lat="45.58249" lon="6.59474">
        <ele>1953.5</ele>
        <time>2013-08-28T07:16:29Z</time>
      </trkpt>
      <trkpt lat="45.58248" lon="6.59465">
        <ele>1952.6</ele>
        <time>2013-08-28T07:16:30Z</time>
      </trkpt>
      <trkpt lat="45.58247" lon="6.59456">
        <ele>1951.1</ele>
        <time>2013-08-28T07:16:31Z</time>
      </trkpt>
      <trkpt lat="45.58245" lon="6.59447">
        <ele>1950.2</ele>
        <time>2013-08-28T07:16:32Z</time>
      </trkpt>
      <trkpt lat="45.58238" lon="6.59417">
        <ele>1947.3</ele>
        <time>2013-08-28T07:16:35Z</time>
      </trkpt>
      <trkpt lat="45.58237" lon="6.59406">
        <ele>1946.3</ele>
        <time>2013-08-28T07:16:36Z</time>
      </trkpt>
      <trkpt lat="45.58236" lon="6.59395">
        <ele>1945.9</ele>
        <time>2013-08-28T07:16:37Z</time>
      </trkpt>
      <trkpt lat="45.58235" lon="6.59385">
        <ele>1943.9</ele>
        <time>2013-08-28T07:16:38Z</time>
      </trkpt>
      <trkpt lat="45.58233" lon="6.59375">
        <ele>1943.4</ele>
        <time>2013-08-28T07:16:39Z</time>
      </trkpt>
      <trkpt lat="45.58233" lon="6.59365">
        <ele>1942</ele>
        <time>2013-08-28T07:16:40Z</time>
      </trkpt>
      <trkpt lat="45.58232" lon="6.59356">
        <ele>1942</ele>
        <time>2013-08-28T07:16:41Z</time>
      </trkpt>
      <trkpt lat="45.58231" lon="6.59332">
        <ele>1940.6</ele>
        <time>2013-08-28T07:16:43Z</time>
      </trkpt>
      <trkpt lat="45.58232" lon="6.5932">
        <ele>1939.6</ele>
        <time>2013-08-28T07:16:44Z</time>
      </trkpt>
      <trkpt lat="45.58234" lon="6.59297">
        <ele>1938.6</ele>
        <time>2013-08-28T07:16:46Z</time>
      </trkpt>
      <trkpt lat="45.58237" lon="6.5925">
        <ele>1936.7</ele>
        <time>2013-08-28T07:16:50Z</time>
      </trkpt>
      <trkpt lat="45.58237" lon="6.59239">
        <ele>1935.8</ele>
        <time>2013-08-28T07:16:51Z</time>
      </trkpt>
      <trkpt lat="45.58235" lon="6.59207">
        <ele>1934.3</ele>
        <time>2013-08-28T07:16:54Z</time>
      </trkpt>
      <trkpt lat="45.58234" lon="6.59197">
        <ele>1934.3</ele>
        <time>2013-08-28T07:16:55Z</time>
      </trkpt>
      <trkpt lat="45.58228" lon="6.59173">
        <ele>1932.9</ele>
        <time>2013-08-28T07:16:58Z</time>
      </trkpt>
      <trkpt lat="45.58224" lon="6.59167">
        <ele>1932.9</ele>
        <time>2013-08-28T07:16:59Z</time>
      </trkpt>
      <trkpt lat="45.58219" lon="6.59163">
        <ele>1932.4</ele>
        <time>2013-08-28T07:17:00Z</time>
      </trkpt>
      <trkpt lat="45.58213" lon="6.59163">
        <ele>1932.4</ele>
        <time>2013-08-28T07:17:01Z</time>
      </trkpt>
      <trkpt lat="45.58208" lon="6.59163">
        <ele>1932.4</ele>
        <time>2013-08-28T07:17:02Z</time>
      </trkpt>
      <trkpt lat="45.58202" lon="6.59163">
        <ele>1931.4</ele>
        <time>2013-08-28T07:17:03Z</time>
      </trkpt>
      <trkpt lat="45.58195" lon="6.59161">
        <ele>1931</ele>
        <time>2013-08-28T07:17:04Z</time>
      </trkpt>
      <trkpt lat="45.58188" lon="6.5916">
        <ele>1931</ele>
        <time>2013-08-28T07:17:05Z</time>
      </trkpt>
      <trkpt lat="45.58181" lon="6.59162">
        <ele>1930.5</ele>
        <time>2013-08-28T07:17:06Z</time>
      </trkpt>
      <trkpt lat="45.58174" lon="6.59166">
        <ele>1928.5</ele>
        <time>2013-08-28T07:17:07Z</time>
      </trkpt>
      <trkpt lat="45.58167" lon="6.59171">
        <ele>1928.5</ele>
        <time>2013-08-28T07:17:08Z</time>
      </trkpt>
      <trkpt lat="45.58145" lon="6.59186">
        <ele>1926.6</ele>
        <time>2013-08-28T07:17:11Z</time>
      </trkpt>
      <trkpt lat="45.58138" lon="6.59191">
        <ele>1925.2</ele>
        <time>2013-08-28T07:17:12Z</time>
      </trkpt>
      <trkpt lat="45.58132" lon="6.59196">
        <ele>1923.7</ele>
        <time>2013-08-28T07:17:13Z</time>
      </trkpt>
      <trkpt lat="45.58124" lon="6.59198">
        <ele>1923.3</ele>
        <time>2013-08-28T07:17:14Z</time>
      </trkpt>
      <trkpt lat="45.58117" lon="6.59199">
        <ele>1922.8</ele>
        <time>2013-08-28T07:17:15Z</time>
      </trkpt>
      <trkpt lat="45.5811" lon="6.592">
        <ele>1921.3</ele>
        <time>2013-08-28T07:17:16Z</time>
      </trkpt>
      <trkpt lat="45.58102" lon="6.59203">
        <ele>1920.4</ele>
        <time>2013-08-28T07:17:17Z</time>
      </trkpt>
      <trkpt lat="45.58087" lon="6.59212">
        <ele>1918.5</ele>
        <time>2013-08-28T07:17:19Z</time>
      </trkpt>
      <trkpt lat="45.58081" lon="6.59218">
        <ele>1917</ele>
        <time>2013-08-28T07:17:20Z</time>
      </trkpt>
      <trkpt lat="45.58067" lon="6.59231">
        <ele>1915.6</ele>
        <time>2013-08-28T07:17:22Z</time>
      </trkpt>
      <trkpt lat="45.58052" lon="6.59241">
        <ele>1914.1</ele>
        <time>2013-08-28T07:17:24Z</time>
      </trkpt>
      <trkpt lat="45.5802" lon="6.59262">
        <ele>1909.8</ele>
        <time>2013-08-28T07:17:28Z</time>
      </trkpt>
      <trkpt lat="45.57988" lon="6.59279">
        <ele>1906.4</ele>
        <time>2013-08-28T07:17:32Z</time>
      </trkpt>
      <trkpt lat="45.57981" lon="6.59283">
        <ele>1905</ele>
        <time>2013-08-28T07:17:33Z</time>
      </trkpt>
      <trkpt lat="45.57974" lon="6.59286">
        <ele>1904.5</ele>
        <time>2013-08-28T07:17:34Z</time>
      </trkpt>
      <trkpt lat="45.57942" lon="6.59294">
        <ele>1900.7</ele>
        <time>2013-08-28T07:17:38Z</time>
      </trkpt>
      <trkpt lat="45.57929" lon="6.59297">
        <ele>1899.7</ele>
        <time>2013-08-28T07:17:40Z</time>
      </trkpt>
      <trkpt lat="45.57922" lon="6.59298">
        <ele>1898.7</ele>
        <time>2013-08-28T07:17:41Z</time>
      </trkpt>
      <trkpt lat="45.57909" lon="6.59301">
        <ele>1897.8</ele>
        <time>2013-08-28T07:17:44Z</time>
      </trkpt>
      <trkpt lat="45.57908" lon="6.59305">
        <ele>1896.8</ele>
        <time>2013-08-28T07:17:45Z</time>
      </trkpt>
      <trkpt lat="45.57909" lon="6.5931">
        <ele>1896.8</ele>
        <time>2013-08-28T07:17:46Z</time>
      </trkpt>
      <trkpt lat="45.57911" lon="6.59313">
        <ele>1895.9</ele>
        <time>2013-08-28T07:17:47Z</time>
      </trkpt>
      <trkpt lat="45.57915" lon="6.59314">
        <ele>1895.9</ele>
        <time>2013-08-28T07:17:48Z</time>
      </trkpt>
      <trkpt lat="45.57919" lon="6.59313">
        <ele>1895.4</ele>
        <time>2013-08-28T07:17:49Z</time>
      </trkpt>
      <trkpt lat="45.57923" lon="6.59313">
        <ele>1894.9</ele>
        <time>2013-08-28T07:17:50Z</time>
      </trkpt>
      <trkpt lat="45.57928" lon="6.59313">
        <ele>1893.9</ele>
        <time>2013-08-28T07:17:51Z</time>
      </trkpt>
      <trkpt lat="45.57933" lon="6.59314">
        <ele>1894.4</ele>
        <time>2013-08-28T07:17:52Z</time>
      </trkpt>
      <trkpt lat="45.57947" lon="6.59318">
        <ele>1892.5</ele>
        <time>2013-08-28T07:17:55Z</time>
      </trkpt>
      <trkpt lat="45.58" lon="6.59324">
        <ele>1889.6</ele>
        <time>2013-08-28T07:18:04Z</time>
      </trkpt>
      <trkpt lat="45.58012" lon="6.59325">
        <ele>1888.2</ele>
        <time>2013-08-28T07:18:06Z</time>
      </trkpt>
      <trkpt lat="45.58027" lon="6.59322">
        <ele>1886.7</ele>
        <time>2013-08-28T07:18:08Z</time>
      </trkpt>
      <trkpt lat="45.58035" lon="6.59322">
        <ele>1885.8</ele>
        <time>2013-08-28T07:18:09Z</time>
      </trkpt>
      <trkpt lat="45.58043" lon="6.59324">
        <ele>1885.3</ele>
        <time>2013-08-28T07:18:10Z</time>
      </trkpt>
      <trkpt lat="45.58058" lon="6.59328">
        <ele>1883.8</ele>
        <time>2013-08-28T07:18:12Z</time>
      </trkpt>
      <trkpt lat="45.58072" lon="6.59335">
        <ele>1881.9</ele>
        <time>2013-08-28T07:18:14Z</time>
      </trkpt>
      <trkpt lat="45.58079" lon="6.59337">
        <ele>1882.4</ele>
        <time>2013-08-28T07:18:15Z</time>
      </trkpt>
      <trkpt lat="45.58098" lon="6.59339">
        <ele>1880</ele>
        <time>2013-08-28T07:18:18Z</time>
      </trkpt>
      <trkpt lat="45.58104" lon="6.59342">
        <ele>1880</ele>
        <time>2013-08-28T07:18:19Z</time>
      </trkpt>
      <trkpt lat="45.58107" lon="6.59347">
        <ele>1880</ele>
        <time>2013-08-28T07:18:20Z</time>
      </trkpt>
      <trkpt lat="45.58113" lon="6.59358">
        <ele>1880.5</ele>
        <time>2013-08-28T07:18:28Z</time>
      </trkpt>
      <trkpt lat="45.58112" lon="6.5936">
        <ele>1880</ele>
        <time>2013-08-28T07:18:55Z</time>
      </trkpt>
      <trkpt lat="45.58112" lon="6.59361">
        <ele>1876.6</ele>
        <time>2013-08-28T07:18:57Z</time>
      </trkpt>
      <trkpt lat="45.58112" lon="6.59361">
        <ele>1878.6</ele>
        <time>2013-08-28T07:18:58Z</time>
      </trkpt>
      <trkpt lat="45.58112" lon="6.59361">
        <ele>1883.4</ele>
        <time>2013-08-28T07:19:00Z</time>
      </trkpt>
      <trkpt lat="45.58112" lon="6.59361">
        <ele>1881.9</ele>
        <time>2013-08-28T07:19:01Z</time>
      </trkpt>
      <trkpt lat="45.58112" lon="6.59362">
        <ele>1881</ele>
        <time>2013-08-28T07:19:03Z</time>
      </trkpt>
      <trkpt lat="45.58112" lon="6.59364">
        <ele>1881</ele>
        <time>2013-08-28T07:19:04Z</time>
      </trkpt>
      <trkpt lat="45.58112" lon="6.59366">
        <ele>1880.5</ele>
        <time>2013-08-28T07:19:05Z</time>
      </trkpt>
      <trkpt lat="45.58112" lon="6.59369">
        <ele>1879.5</ele>
        <time>2013-08-28T07:19:06Z</time>
      </trkpt>
      <trkpt lat="45.5811" lon="6.59375">
        <ele>1879.5</ele>
        <time>2013-08-28T07:19:07Z</time>
      </trkpt>
      <trkpt lat="45.58108" lon="6.59382">
        <ele>1878.6</ele>
        <time>2013-08-28T07:19:08Z</time>
      </trkpt>
      <trkpt lat="45.58106" lon="6.59391">
        <ele>1878.1</ele>
        <time>2013-08-28T07:19:09Z</time>
      </trkpt>
      <trkpt lat="45.58094" lon="6.5943">
        <ele>1874.7</ele>
        <time>2013-08-28T07:19:13Z</time>
      </trkpt>
      <trkpt lat="45.5809" lon="6.5944">
        <ele>1875.7</ele>
        <time>2013-08-28T07:19:14Z</time>
      </trkpt>
      <trkpt lat="45.58074" lon="6.59477">
        <ele>1872.3</ele>
        <time>2013-08-28T07:19:18Z</time>
      </trkpt>
      <trkpt lat="45.58072" lon="6.59487">
        <ele>1871.3</ele>
        <time>2013-08-28T07:19:19Z</time>
      </trkpt>
      <trkpt lat="45.58071" lon="6.59496">
        <ele>1870.4</ele>
        <time>2013-08-28T07:19:20Z</time>
      </trkpt>
      <trkpt lat="45.58071" lon="6.59505">
        <ele>1870.9</ele>
        <time>2013-08-28T07:19:21Z</time>
      </trkpt>
      <trkpt lat="45.58072" lon="6.59523">
        <ele>1869.4</ele>
        <time>2013-08-28T07:19:23Z</time>
      </trkpt>
      <trkpt lat="45.58071" lon="6.59532">
        <ele>1868.9</ele>
        <time>2013-08-28T07:19:24Z</time>
      </trkpt>
      <trkpt lat="45.58068" lon="6.59547">
        <ele>1867.5</ele>
        <time>2013-08-28T07:19:26Z</time>
      </trkpt>
      <trkpt lat="45.58067" lon="6.59555">
        <ele>1867.5</ele>
        <time>2013-08-28T07:19:27Z</time>
      </trkpt>
      <trkpt lat="45.58065" lon="6.59562">
        <ele>1866.5</ele>
        <time>2013-08-28T07:19:28Z</time>
      </trkpt>
      <trkpt lat="45.58063" lon="6.59568">
        <ele>1866.5</ele>
        <time>2013-08-28T07:19:29Z</time>
      </trkpt>
      <trkpt lat="45.58059" lon="6.59573">
        <ele>1865.6</ele>
        <time>2013-08-28T07:19:30Z</time>
      </trkpt>
      <trkpt lat="45.58055" lon="6.59576">
        <ele>1865.1</ele>
        <time>2013-08-28T07:19:31Z</time>
      </trkpt>
      <trkpt lat="45.58029" lon="6.59588">
        <ele>1863.7</ele>
        <time>2013-08-28T07:19:35Z</time>
      </trkpt>
      <trkpt lat="45.58023" lon="6.59594">
        <ele>1863.2</ele>
        <time>2013-08-28T07:19:36Z</time>
      </trkpt>
      <trkpt lat="45.58008" lon="6.59612">
        <ele>1861.7</ele>
        <time>2013-08-28T07:19:39Z</time>
      </trkpt>
      <trkpt lat="45.58004" lon="6.59617">
        <ele>1861.3</ele>
        <time>2013-08-28T07:19:40Z</time>
      </trkpt>
      <trkpt lat="45.58001" lon="6.59624">
        <ele>1861.3</ele>
        <time>2013-08-28T07:19:41Z</time>
      </trkpt>
      <trkpt lat="45.57999" lon="6.5963">
        <ele>1860.3</ele>
        <time>2013-08-28T07:19:42Z</time>
      </trkpt>
      <trkpt lat="45.57999" lon="6.59639">
        <ele>1860.3</ele>
        <time>2013-08-28T07:19:43Z</time>
      </trkpt>
      <trkpt lat="45.57998" lon="6.59646">
        <ele>1859.3</ele>
        <time>2013-08-28T07:19:44Z</time>
      </trkpt>
      <trkpt lat="45.57997" lon="6.59653">
        <ele>1858.9</ele>
        <time>2013-08-28T07:19:45Z</time>
      </trkpt>
      <trkpt lat="45.57994" lon="6.5966">
        <ele>1858.4</ele>
        <time>2013-08-28T07:19:46Z</time>
      </trkpt>
      <trkpt lat="45.5799" lon="6.59677">
        <ele>1857.4</ele>
        <time>2013-08-28T07:19:48Z</time>
      </trkpt>
      <trkpt lat="45.57987" lon="6.59706">
        <ele>1855</ele>
        <time>2013-08-28T07:19:51Z</time>
      </trkpt>
      <trkpt lat="45.57985" lon="6.59715">
        <ele>1853.6</ele>
        <time>2013-08-28T07:19:52Z</time>
      </trkpt>
      <trkpt lat="45.57984" lon="6.59725">
        <ele>1853.6</ele>
        <time>2013-08-28T07:19:53Z</time>
      </trkpt>
      <trkpt lat="45.57983" lon="6.59735">
        <ele>1852.1</ele>
        <time>2013-08-28T07:19:54Z</time>
      </trkpt>
      <trkpt lat="45.57983" lon="6.59746">
        <ele>1851.2</ele>
        <time>2013-08-28T07:19:55Z</time>
      </trkpt>
      <trkpt lat="45.57984" lon="6.59756">
        <ele>1851.2</ele>
        <time>2013-08-28T07:19:56Z</time>
      </trkpt>
      <trkpt lat="45.57985" lon="6.59765">
        <ele>1850.7</ele>
        <time>2013-08-28T07:19:57Z</time>
      </trkpt>
      <trkpt lat="45.57985" lon="6.59773">
        <ele>1850.2</ele>
        <time>2013-08-28T07:19:58Z</time>
      </trkpt>
      <trkpt lat="45.57985" lon="6.59779">
        <ele>1849.7</ele>
        <time>2013-08-28T07:19:59Z</time>
      </trkpt>
      <trkpt lat="45.57984" lon="6.59785">
        <ele>1848.8</ele>
        <time>2013-08-28T07:20:00Z</time>
      </trkpt>
      <trkpt lat="45.57981" lon="6.59789">
        <ele>1848.3</ele>
        <time>2013-08-28T07:20:01Z</time>
      </trkpt>
      <trkpt lat="45.57978" lon="6.59793">
        <ele>1848.8</ele>
        <time>2013-08-28T07:20:02Z</time>
      </trkpt>
      <trkpt lat="45.57973" lon="6.59795">
        <ele>1847.8</ele>
        <time>2013-08-28T07:20:03Z</time>
      </trkpt>
      <trkpt lat="45.57969" lon="6.59796">
        <ele>1847.3</ele>
        <time>2013-08-28T07:20:04Z</time>
      </trkpt>
      <trkpt lat="45.57964" lon="6.59798">
        <ele>1847.3</ele>
        <time>2013-08-28T07:20:05Z</time>
      </trkpt>
      <trkpt lat="45.57959" lon="6.598">
        <ele>1846.4</ele>
        <time>2013-08-28T07:20:06Z</time>
      </trkpt>
      <trkpt lat="45.57953" lon="6.59802">
        <ele>1844.9</ele>
        <time>2013-08-28T07:20:07Z</time>
      </trkpt>
      <trkpt lat="45.57947" lon="6.59806">
        <ele>1844.9</ele>
        <time>2013-08-28T07:20:08Z</time>
      </trkpt>
      <trkpt lat="45.5794" lon="6.59809">
        <ele>1844</ele>
        <time>2013-08-28T07:20:09Z</time>
      </trkpt>
      <trkpt lat="45.57934" lon="6.5981">
        <ele>1843.5</ele>
        <time>2013-08-28T07:20:10Z</time>
      </trkpt>
      <trkpt lat="45.57928" lon="6.59812">
        <ele>1842.5</ele>
        <time>2013-08-28T07:20:11Z</time>
      </trkpt>
      <trkpt lat="45.57922" lon="6.59816">
        <ele>1841.5</ele>
        <time>2013-08-28T07:20:12Z</time>
      </trkpt>
      <trkpt lat="45.57917" lon="6.59821">
        <ele>1841.1</ele>
        <time>2013-08-28T07:20:13Z</time>
      </trkpt>
      <trkpt lat="45.57911" lon="6.59825">
        <ele>1840.1</ele>
        <time>2013-08-28T07:20:14Z</time>
      </trkpt>
      <trkpt lat="45.57907" lon="6.5983">
        <ele>1839.6</ele>
        <time>2013-08-28T07:20:15Z</time>
      </trkpt>
      <trkpt lat="45.57902" lon="6.59834">
        <ele>1838.7</ele>
        <time>2013-08-28T07:20:16Z</time>
      </trkpt>
      <trkpt lat="45.57898" lon="6.59838">
        <ele>1837.7</ele>
        <time>2013-08-28T07:20:17Z</time>
      </trkpt>
      <trkpt lat="45.57888" lon="6.59845">
        <ele>1836.3</ele>
        <time>2013-08-28T07:20:19Z</time>
      </trkpt>
      <trkpt lat="45.57878" lon="6.5985">
        <ele>1834.8</ele>
        <time>2013-08-28T07:20:21Z</time>
      </trkpt>
      <trkpt lat="45.57874" lon="6.59854">
        <ele>1834.3</ele>
        <time>2013-08-28T07:20:22Z</time>
      </trkpt>
      <trkpt lat="45.5787" lon="6.59858">
        <ele>1833.9</ele>
        <time>2013-08-28T07:20:23Z</time>
      </trkpt>
      <trkpt lat="45.57866" lon="6.59862">
        <ele>1832.4</ele>
        <time>2013-08-28T07:20:24Z</time>
      </trkpt>
      <trkpt lat="45.57861" lon="6.59865">
        <ele>1831.9</ele>
        <time>2013-08-28T07:20:25Z</time>
      </trkpt>
      <trkpt lat="45.57855" lon="6.59867">
        <ele>1831.5</ele>
        <time>2013-08-28T07:20:26Z</time>
      </trkpt>
      <trkpt lat="45.5785" lon="6.59868">
        <ele>1830.5</ele>
        <time>2013-08-28T07:20:27Z</time>
      </trkpt>
      <trkpt lat="45.57846" lon="6.59869">
        <ele>1829.5</ele>
        <time>2013-08-28T07:20:28Z</time>
      </trkpt>
      <trkpt lat="45.57842" lon="6.59871">
        <ele>1828.6</ele>
        <time>2013-08-28T07:20:29Z</time>
      </trkpt>
      <trkpt lat="45.57838" lon="6.59873">
        <ele>1828.1</ele>
        <time>2013-08-28T07:20:30Z</time>
      </trkpt>
      <trkpt lat="45.57819" lon="6.59883">
        <ele>1825.2</ele>
        <time>2013-08-28T07:20:34Z</time>
      </trkpt>
      <trkpt lat="45.57815" lon="6.59886">
        <ele>1824.2</ele>
        <time>2013-08-28T07:20:35Z</time>
      </trkpt>
      <trkpt lat="45.57808" lon="6.59891">
        <ele>1822.8</ele>
        <time>2013-08-28T07:20:37Z</time>
      </trkpt>
      <trkpt lat="45.57791" lon="6.59905">
        <ele>1820.4</ele>
        <time>2013-08-28T07:20:44Z</time>
      </trkpt>
      <trkpt lat="45.57788" lon="6.59908">
        <ele>1819.9</ele>
        <time>2013-08-28T07:20:45Z</time>
      </trkpt>
      <trkpt lat="45.57784" lon="6.59911">
        <ele>1819.9</ele>
        <time>2013-08-28T07:20:46Z</time>
      </trkpt>
      <trkpt lat="45.5778" lon="6.59913">
        <ele>1819.4</ele>
        <time>2013-08-28T07:20:47Z</time>
      </trkpt>
      <trkpt lat="45.57777" lon="6.59914">
        <ele>1818</ele>
        <time>2013-08-28T07:20:48Z</time>
      </trkpt>
      <trkpt lat="45.57774" lon="6.59913">
        <ele>1818</ele>
        <time>2013-08-28T07:20:49Z</time>
      </trkpt>
      <trkpt lat="45.57772" lon="6.5991">
        <ele>1817.5</ele>
        <time>2013-08-28T07:20:50Z</time>
      </trkpt>
      <trkpt lat="45.57773" lon="6.59905">
        <ele>1816.1</ele>
        <time>2013-08-28T07:20:51Z</time>
      </trkpt>
      <trkpt lat="45.57776" lon="6.599">
        <ele>1816.1</ele>
        <time>2013-08-28T07:20:52Z</time>
      </trkpt>
      <trkpt lat="45.57779" lon="6.59897">
        <ele>1815.1</ele>
        <time>2013-08-28T07:20:53Z</time>
      </trkpt>
      <trkpt lat="45.57785" lon="6.59889">
        <ele>1814.6</ele>
        <time>2013-08-28T07:20:55Z</time>
      </trkpt>
      <trkpt lat="45.57793" lon="6.59878">
        <ele>1812.7</ele>
        <time>2013-08-28T07:20:57Z</time>
      </trkpt>
      <trkpt lat="45.57796" lon="6.59872">
        <ele>1813.2</ele>
        <time>2013-08-28T07:20:58Z</time>
      </trkpt>
      <trkpt lat="45.57799" lon="6.59865">
        <ele>1813.2</ele>
        <time>2013-08-28T07:20:59Z</time>
      </trkpt>
      <trkpt lat="45.57823" lon="6.59809">
        <ele>1810.3</ele>
        <time>2013-08-28T07:21:07Z</time>
      </trkpt>
      <trkpt lat="45.57825" lon="6.59803">
        <ele>1809.8</ele>
        <time>2013-08-28T07:21:08Z</time>
      </trkpt>
      <trkpt lat="45.57829" lon="6.59797">
        <ele>1809.3</ele>
        <time>2013-08-28T07:21:09Z</time>
      </trkpt>
      <trkpt lat="45.57832" lon="6.59791">
        <ele>1809.3</ele>
        <time>2013-08-28T07:21:10Z</time>
      </trkpt>
      <trkpt lat="45.57833" lon="6.59786">
        <ele>1808.9</ele>
        <time>2013-08-28T07:21:11Z</time>
      </trkpt>
      <trkpt lat="45.57831" lon="6.59782">
        <ele>1807.9</ele>
        <time>2013-08-28T07:21:12Z</time>
      </trkpt>
      <trkpt lat="45.57828" lon="6.59779">
        <ele>1807.9</ele>
        <time>2013-08-28T07:21:13Z</time>
      </trkpt>
      <trkpt lat="45.57825" lon="6.59777">
        <ele>1807.9</ele>
        <time>2013-08-28T07:21:14Z</time>
      </trkpt>
      <trkpt lat="45.57821" lon="6.59777">
        <ele>1807.4</ele>
        <time>2013-08-28T07:21:15Z</time>
      </trkpt>
      <trkpt lat="45.57817" lon="6.59778">
        <ele>1806.5</ele>
        <time>2013-08-28T07:21:16Z</time>
      </trkpt>
      <trkpt lat="45.57814" lon="6.59781">
        <ele>1805.5</ele>
        <time>2013-08-28T07:21:17Z</time>
      </trkpt>
      <trkpt lat="45.5781" lon="6.59784">
        <ele>1805.5</ele>
        <time>2013-08-28T07:21:18Z</time>
      </trkpt>
      <trkpt lat="45.57806" lon="6.59788">
        <ele>1804.5</ele>
        <time>2013-08-28T07:21:19Z</time>
      </trkpt>
      <trkpt lat="45.57802" lon="6.59793">
        <ele>1804.1</ele>
        <time>2013-08-28T07:21:20Z</time>
      </trkpt>
      <trkpt lat="45.57798" lon="6.59797">
        <ele>1803.6</ele>
        <time>2013-08-28T07:21:21Z</time>
      </trkpt>
      <trkpt lat="45.5779" lon="6.59806">
        <ele>1801.7</ele>
        <time>2013-08-28T07:21:23Z</time>
      </trkpt>
      <trkpt lat="45.57786" lon="6.59808">
        <ele>1801.2</ele>
        <time>2013-08-28T07:21:24Z</time>
      </trkpt>
      <trkpt lat="45.57783" lon="6.59807">
        <ele>1799.2</ele>
        <time>2013-08-28T07:21:25Z</time>
      </trkpt>
      <trkpt lat="45.57779" lon="6.59804">
        <ele>1800.2</ele>
        <time>2013-08-28T07:21:26Z</time>
      </trkpt>
      <trkpt lat="45.57775" lon="6.598">
        <ele>1798.8</ele>
        <time>2013-08-28T07:21:27Z</time>
      </trkpt>
      <trkpt lat="45.57772" lon="6.59795">
        <ele>1798.3</ele>
        <time>2013-08-28T07:21:28Z</time>
      </trkpt>
      <trkpt lat="45.57768" lon="6.59789">
        <ele>1797.8</ele>
        <time>2013-08-28T07:21:29Z</time>
      </trkpt>
      <trkpt lat="45.57765" lon="6.59783">
        <ele>1798.3</ele>
        <time>2013-08-28T07:21:30Z</time>
      </trkpt>
      <trkpt lat="45.57762" lon="6.59777">
        <ele>1796.8</ele>
        <time>2013-08-28T07:21:31Z</time>
      </trkpt>
      <trkpt lat="45.57758" lon="6.59766">
        <ele>1795.9</ele>
        <time>2013-08-28T07:21:33Z</time>
      </trkpt>
      <trkpt lat="45.57755" lon="6.59761">
        <ele>1794.9</ele>
        <time>2013-08-28T07:21:34Z</time>
      </trkpt>
      <trkpt lat="45.57751" lon="6.59758">
        <ele>1794.4</ele>
        <time>2013-08-28T07:21:35Z</time>
      </trkpt>
      <trkpt lat="45.57747" lon="6.59758">
        <ele>1793</ele>
        <time>2013-08-28T07:21:36Z</time>
      </trkpt>
      <trkpt lat="45.57743" lon="6.59761">
        <ele>1793</ele>
        <time>2013-08-28T07:21:37Z</time>
      </trkpt>
      <trkpt lat="45.57741" lon="6.59766">
        <ele>1792.5</ele>
        <time>2013-08-28T07:21:38Z</time>
      </trkpt>
      <trkpt lat="45.5774" lon="6.59773">
        <ele>1791.1</ele>
        <time>2013-08-28T07:21:39Z</time>
      </trkpt>
      <trkpt lat="45.57739" lon="6.5978">
        <ele>1791.6</ele>
        <time>2013-08-28T07:21:40Z</time>
      </trkpt>
      <trkpt lat="45.57738" lon="6.59787">
        <ele>1791.6</ele>
        <time>2013-08-28T07:21:41Z</time>
      </trkpt>
      <trkpt lat="45.57738" lon="6.59794">
        <ele>1791.6</ele>
        <time>2013-08-28T07:21:42Z</time>
      </trkpt>
      <trkpt lat="45.57738" lon="6.59801">
        <ele>1789.6</ele>
        <time>2013-08-28T07:21:43Z</time>
      </trkpt>
      <trkpt lat="45.57739" lon="6.59807">
        <ele>1789.6</ele>
        <time>2013-08-28T07:21:44Z</time>
      </trkpt>
      <trkpt lat="45.57738" lon="6.59813">
        <ele>1790.1</ele>
        <time>2013-08-28T07:21:45Z</time>
      </trkpt>
      <trkpt lat="45.57736" lon="6.59817">
        <ele>1788.2</ele>
        <time>2013-08-28T07:21:46Z</time>
      </trkpt>
      <trkpt lat="45.57732" lon="6.59818">
        <ele>1787.2</ele>
        <time>2013-08-28T07:21:47Z</time>
      </trkpt>
      <trkpt lat="45.57727" lon="6.59817">
        <ele>1786.8</ele>
        <time>2013-08-28T07:21:48Z</time>
      </trkpt>
      <trkpt lat="45.57723" lon="6.59813">
        <ele>1786.3</ele>
        <time>2013-08-28T07:21:49Z</time>
      </trkpt>
      <trkpt lat="45.57719" lon="6.59809">
        <ele>1784.8</ele>
        <time>2013-08-28T07:21:50Z</time>
      </trkpt>
      <trkpt lat="45.57716" lon="6.59804">
        <ele>1784.8</ele>
        <time>2013-08-28T07:21:51Z</time>
      </trkpt>
      <trkpt lat="45.57712" lon="6.59797">
        <ele>1784.8</ele>
        <time>2013-08-28T07:21:52Z</time>
      </trkpt>
      <trkpt lat="45.5771" lon="6.59791">
        <ele>1784.3</ele>
        <time>2013-08-28T07:21:53Z</time>
      </trkpt>
      <trkpt lat="45.57707" lon="6.59785">
        <ele>1783.9</ele>
        <time>2013-08-28T07:21:54Z</time>
      </trkpt>
      <trkpt lat="45.57706" lon="6.59778">
        <ele>1784.3</ele>
        <time>2013-08-28T07:21:55Z</time>
      </trkpt>
      <trkpt lat="45.57704" lon="6.59773">
        <ele>1782.4</ele>
        <time>2013-08-28T07:21:56Z</time>
      </trkpt>
      <trkpt lat="45.57701" lon="6.59769">
        <ele>1782.4</ele>
        <time>2013-08-28T07:21:57Z</time>
      </trkpt>
      <trkpt lat="45.57698" lon="6.59768">
        <ele>1782.4</ele>
        <time>2013-08-28T07:21:58Z</time>
      </trkpt>
      <trkpt lat="45.57695" lon="6.59768">
        <ele>1781.5</ele>
        <time>2013-08-28T07:21:59Z</time>
      </trkpt>
      <trkpt lat="45.57691" lon="6.5977">
        <ele>1781.5</ele>
        <time>2013-08-28T07:22:00Z</time>
      </trkpt>
      <trkpt lat="45.57689" lon="6.59773">
        <ele>1780</ele>
        <time>2013-08-28T07:22:01Z</time>
      </trkpt>
      <trkpt lat="45.57687" lon="6.59776">
        <ele>1780</ele>
        <time>2013-08-28T07:22:02Z</time>
      </trkpt>
      <trkpt lat="45.57686" lon="6.59778">
        <ele>1780</ele>
        <time>2013-08-28T07:22:03Z</time>
      </trkpt>
      <trkpt lat="45.57687" lon="6.5978">
        <ele>1779.5</ele>
        <time>2013-08-28T07:22:14Z</time>
      </trkpt>
      <trkpt lat="45.5769" lon="6.59784">
        <ele>1780.5</ele>
        <time>2013-08-28T07:22:48Z</time>
      </trkpt>
      <trkpt lat="45.57689" lon="6.59785">
        <ele>1777.6</ele>
        <time>2013-08-28T07:22:54Z</time>
      </trkpt>
      <trkpt lat="45.57688" lon="6.59784">
        <ele>1781.5</ele>
        <time>2013-08-28T07:22:56Z</time>
      </trkpt>
      <trkpt lat="45.57687" lon="6.59785">
        <ele>1778.1</ele>
        <time>2013-08-28T07:23:02Z</time>
      </trkpt>
      <trkpt lat="45.57688" lon="6.59787">
        <ele>1780.5</ele>
        <time>2013-08-28T07:23:11Z</time>
      </trkpt>
      <trkpt lat="45.57688" lon="6.59787">
        <ele>1779.1</ele>
        <time>2013-08-28T07:23:13Z</time>
      </trkpt>
      <trkpt lat="45.57688" lon="6.59789">
        <ele>1779.1</ele>
        <time>2013-08-28T07:23:19Z</time>
      </trkpt>
      <trkpt lat="45.57688" lon="6.59787">
        <ele>1780</ele>
        <time>2013-08-28T07:23:40Z</time>
      </trkpt>
      <trkpt lat="45.57687" lon="6.59778">
        <ele>1781</ele>
        <time>2013-08-28T07:23:49Z</time>
      </trkpt>
      <trkpt lat="45.57687" lon="6.59778">
        <ele>1778.6</ele>
        <time>2013-08-28T07:23:52Z</time>
      </trkpt>
      <trkpt lat="45.57687" lon="6.59776">
        <ele>1779.5</ele>
        <time>2013-08-28T07:23:54Z</time>
      </trkpt>
      <trkpt lat="45.57685" lon="6.59776">
        <ele>1777.6</ele>
        <time>2013-08-28T07:23:55Z</time>
      </trkpt>
      <trkpt lat="45.57683" lon="6.59775">
        <ele>1778.6</ele>
        <time>2013-08-28T07:23:56Z</time>
      </trkpt>
      <trkpt lat="45.57681" lon="6.59775">
        <ele>1780.5</ele>
        <time>2013-08-28T07:23:57Z</time>
      </trkpt>
      <trkpt lat="45.57679" lon="6.59776">
        <ele>1777.6</ele>
        <time>2013-08-28T07:23:58Z</time>
      </trkpt>
      <trkpt lat="45.57676" lon="6.59778">
        <ele>1777.1</ele>
        <time>2013-08-28T07:23:59Z</time>
      </trkpt>
      <trkpt lat="45.57674" lon="6.5978">
        <ele>1777.6</ele>
        <time>2013-08-28T07:24:00Z</time>
      </trkpt>
      <trkpt lat="45.57672" lon="6.59783">
        <ele>1776.7</ele>
        <time>2013-08-28T07:24:01Z</time>
      </trkpt>
      <trkpt lat="45.57669" lon="6.59786">
        <ele>1773.8</ele>
        <time>2013-08-28T07:24:02Z</time>
      </trkpt>
      <trkpt lat="45.57665" lon="6.59787">
        <ele>1773.8</ele>
        <time>2013-08-28T07:24:03Z</time>
      </trkpt>
      <trkpt lat="45.57662" lon="6.59788">
        <ele>1774.3</ele>
        <time>2013-08-28T07:24:04Z</time>
      </trkpt>
      <trkpt lat="45.57659" lon="6.59788">
        <ele>1774.3</ele>
        <time>2013-08-28T07:24:05Z</time>
      </trkpt>
      <trkpt lat="45.57653" lon="6.5979">
        <ele>1769.9</ele>
        <time>2013-08-28T07:24:07Z</time>
      </trkpt>
      <trkpt lat="45.5765" lon="6.59791">
        <ele>1770.4</ele>
        <time>2013-08-28T07:24:08Z</time>
      </trkpt>
      <trkpt lat="45.57637" lon="6.59794">
        <ele>1767</ele>
        <time>2013-08-28T07:24:12Z</time>
      </trkpt>
      <trkpt lat="45.57627" lon="6.598">
        <ele>1764.6</ele>
        <time>2013-08-28T07:24:16Z</time>
      </trkpt>
      <trkpt lat="45.57624" lon="6.59798">
        <ele>1763.2</ele>
        <time>2013-08-28T07:24:17Z</time>
      </trkpt>
      <trkpt lat="45.57621" lon="6.59796">
        <ele>1764.6</ele>
        <time>2013-08-28T07:24:18Z</time>
      </trkpt>
      <trkpt lat="45.57618" lon="6.59793">
        <ele>1765.6</ele>
        <time>2013-08-28T07:24:19Z</time>
      </trkpt>
      <trkpt lat="45.57614" lon="6.59794">
        <ele>1765.6</ele>
        <time>2013-08-28T07:24:20Z</time>
      </trkpt>
      <trkpt lat="45.57611" lon="6.59797">
        <ele>1763.2</ele>
        <time>2013-08-28T07:24:21Z</time>
      </trkpt>
      <trkpt lat="45.57611" lon="6.59802">
        <ele>1760.8</ele>
        <time>2013-08-28T07:24:22Z</time>
      </trkpt>
      <trkpt lat="45.57611" lon="6.59808">
        <ele>1762.2</ele>
        <time>2013-08-28T07:24:23Z</time>
      </trkpt>
      <trkpt lat="45.57613" lon="6.59813">
        <ele>1762.2</ele>
        <time>2013-08-28T07:24:24Z</time>
      </trkpt>
      <trkpt lat="45.57616" lon="6.59819">
        <ele>1763.2</ele>
        <time>2013-08-28T07:24:25Z</time>
      </trkpt>
      <trkpt lat="45.57618" lon="6.59826">
        <ele>1759.8</ele>
        <time>2013-08-28T07:24:26Z</time>
      </trkpt>
      <trkpt lat="45.57619" lon="6.59831">
        <ele>1757.9</ele>
        <time>2013-08-28T07:24:27Z</time>
      </trkpt>
      <trkpt lat="45.57617" lon="6.59836">
        <ele>1760.3</ele>
        <time>2013-08-28T07:24:28Z</time>
      </trkpt>
      <trkpt lat="45.57614" lon="6.59839">
        <ele>1758.9</ele>
        <time>2013-08-28T07:24:29Z</time>
      </trkpt>
      <trkpt lat="45.57611" lon="6.59839">
        <ele>1757.9</ele>
        <time>2013-08-28T07:24:30Z</time>
      </trkpt>
      <trkpt lat="45.57609" lon="6.59837">
        <ele>1755.5</ele>
        <time>2013-08-28T07:24:31Z</time>
      </trkpt>
      <trkpt lat="45.57607" lon="6.59835">
        <ele>1757.9</ele>
        <time>2013-08-28T07:24:32Z</time>
      </trkpt>
      <trkpt lat="45.57606" lon="6.59832">
        <ele>1755.5</ele>
        <time>2013-08-28T07:24:33Z</time>
      </trkpt>
      <trkpt lat="45.57605" lon="6.5983">
        <ele>1757.4</ele>
        <time>2013-08-28T07:24:34Z</time>
      </trkpt>
      <trkpt lat="45.57603" lon="6.59827">
        <ele>1757</ele>
        <time>2013-08-28T07:24:35Z</time>
      </trkpt>
      <trkpt lat="45.57602" lon="6.59824">
        <ele>1755</ele>
        <time>2013-08-28T07:24:36Z</time>
      </trkpt>
      <trkpt lat="45.57593" lon="6.59802">
        <ele>1754.1</ele>
        <time>2013-08-28T07:24:41Z</time>
      </trkpt>
      <trkpt lat="45.57589" lon="6.59797">
        <ele>1755</ele>
        <time>2013-08-28T07:24:42Z</time>
      </trkpt>
      <trkpt lat="45.57585" lon="6.59793">
        <ele>1755</ele>
        <time>2013-08-28T07:24:43Z</time>
      </trkpt>
      <trkpt lat="45.5758" lon="6.59793">
        <ele>1756</ele>
        <time>2013-08-28T07:24:44Z</time>
      </trkpt>
      <trkpt lat="45.57576" lon="6.59794">
        <ele>1753.6</ele>
        <time>2013-08-28T07:24:45Z</time>
      </trkpt>
      <trkpt lat="45.57573" lon="6.59798">
        <ele>1750.7</ele>
        <time>2013-08-28T07:24:46Z</time>
      </trkpt>
      <trkpt lat="45.57571" lon="6.59803">
        <ele>1752.1</ele>
        <time>2013-08-28T07:24:47Z</time>
      </trkpt>
      <trkpt lat="45.5757" lon="6.59809">
        <ele>1752.6</ele>
        <time>2013-08-28T07:24:48Z</time>
      </trkpt>
      <trkpt lat="45.57564" lon="6.59836">
        <ele>1752.1</ele>
        <time>2013-08-28T07:24:52Z</time>
      </trkpt>
      <trkpt lat="45.57562" lon="6.59843">
        <ele>1752.1</ele>
        <time>2013-08-28T07:24:53Z</time>
      </trkpt>
      <trkpt lat="45.57556" lon="6.59857">
        <ele>1751.2</ele>
        <time>2013-08-28T07:24:55Z</time>
      </trkpt>
      <trkpt lat="45.57552" lon="6.59863">
        <ele>1750.2</ele>
        <time>2013-08-28T07:24:56Z</time>
      </trkpt>
      <trkpt lat="45.57547" lon="6.59869">
        <ele>1752.1</ele>
        <time>2013-08-28T07:24:57Z</time>
      </trkpt>
      <trkpt lat="45.57542" lon="6.59874">
        <ele>1748.8</ele>
        <time>2013-08-28T07:24:58Z</time>
      </trkpt>
      <trkpt lat="45.57537" lon="6.59879">
        <ele>1749.3</ele>
        <time>2013-08-28T07:24:59Z</time>
      </trkpt>
      <trkpt lat="45.57532" lon="6.59884">
        <ele>1750.2</ele>
        <time>2013-08-28T07:25:00Z</time>
      </trkpt>
      <trkpt lat="45.57528" lon="6.5989">
        <ele>1749.3</ele>
        <time>2013-08-28T07:25:01Z</time>
      </trkpt>
      <trkpt lat="45.57518" lon="6.59902">
        <ele>1745.4</ele>
        <time>2013-08-28T07:25:03Z</time>
      </trkpt>
      <trkpt lat="45.57508" lon="6.59912">
        <ele>1742.1</ele>
        <time>2013-08-28T07:25:05Z</time>
      </trkpt>
      <trkpt lat="45.57503" lon="6.59916">
        <ele>1741.6</ele>
        <time>2013-08-28T07:25:06Z</time>
      </trkpt>
      <trkpt lat="45.57497" lon="6.59918">
        <ele>1743</ele>
        <time>2013-08-28T07:25:07Z</time>
      </trkpt>
      <trkpt lat="45.57486" lon="6.59919">
        <ele>1743</ele>
        <time>2013-08-28T07:25:09Z</time>
      </trkpt>
      <trkpt lat="45.57481" lon="6.59922">
        <ele>1742.1</ele>
        <time>2013-08-28T07:25:10Z</time>
      </trkpt>
      <trkpt lat="45.57477" lon="6.59925">
        <ele>1742.1</ele>
        <time>2013-08-28T07:25:11Z</time>
      </trkpt>
      <trkpt lat="45.57465" lon="6.59938">
        <ele>1740.1</ele>
        <time>2013-08-28T07:25:14Z</time>
      </trkpt>
      <trkpt lat="45.57446" lon="6.59954">
        <ele>1736.8</ele>
        <time>2013-08-28T07:25:18Z</time>
      </trkpt>
      <trkpt lat="45.57441" lon="6.59956">
        <ele>1734.8</ele>
        <time>2013-08-28T07:25:19Z</time>
      </trkpt>
      <trkpt lat="45.57436" lon="6.59958">
        <ele>1734.4</ele>
        <time>2013-08-28T07:25:20Z</time>
      </trkpt>
      <trkpt lat="45.57431" lon="6.5996">
        <ele>1731</ele>
        <time>2013-08-28T07:25:21Z</time>
      </trkpt>
      <trkpt lat="45.57421" lon="6.59963">
        <ele>1730.5</ele>
        <time>2013-08-28T07:25:23Z</time>
      </trkpt>
      <trkpt lat="45.57401" lon="6.59965">
        <ele>1729.1</ele>
        <time>2013-08-28T07:25:27Z</time>
      </trkpt>
      <trkpt lat="45.57397" lon="6.59967">
        <ele>1727.6</ele>
        <time>2013-08-28T07:25:28Z</time>
      </trkpt>
      <trkpt lat="45.57392" lon="6.59975">
        <ele>1728.6</ele>
        <time>2013-08-28T07:25:30Z</time>
      </trkpt>
      <trkpt lat="45.57391" lon="6.5998">
        <ele>1728.1</ele>
        <time>2013-08-28T07:25:31Z</time>
      </trkpt>
      <trkpt lat="45.57393" lon="6.59985">
        <ele>1725.2</ele>
        <time>2013-08-28T07:25:32Z</time>
      </trkpt>
      <trkpt lat="45.57395" lon="6.59991">
        <ele>1723.8</ele>
        <time>2013-08-28T07:25:33Z</time>
      </trkpt>
      <trkpt lat="45.57398" lon="6.59996">
        <ele>1723.8</ele>
        <time>2013-08-28T07:25:34Z</time>
      </trkpt>
      <trkpt lat="45.5741" lon="6.6001">
        <ele>1725.2</ele>
        <time>2013-08-28T07:25:37Z</time>
      </trkpt>
      <trkpt lat="45.57414" lon="6.60012">
        <ele>1722.8</ele>
        <time>2013-08-28T07:25:38Z</time>
      </trkpt>
      <trkpt lat="45.57426" lon="6.60016">
        <ele>1719.9</ele>
        <time>2013-08-28T07:25:41Z</time>
      </trkpt>
      <trkpt lat="45.57437" lon="6.60029">
        <ele>1720.9</ele>
        <time>2013-08-28T07:25:45Z</time>
      </trkpt>
      <trkpt lat="45.57437" lon="6.60032">
        <ele>1722.3</ele>
        <time>2013-08-28T07:25:46Z</time>
      </trkpt>
      <trkpt lat="45.57437" lon="6.60035">
        <ele>1720.9</ele>
        <time>2013-08-28T07:25:47Z</time>
      </trkpt>
      <trkpt lat="45.57436" lon="6.60036">
        <ele>1718.5</ele>
        <time>2013-08-28T07:25:48Z</time>
      </trkpt>
      <trkpt lat="45.57435" lon="6.60038">
        <ele>1718</ele>
        <time>2013-08-28T07:25:49Z</time>
      </trkpt>
      <trkpt lat="45.57434" lon="6.6004">
        <ele>1719</ele>
        <time>2013-08-28T07:25:50Z</time>
      </trkpt>
      <trkpt lat="45.57434" lon="6.60045">
        <ele>1720.9</ele>
        <time>2013-08-28T07:26:04Z</time>
      </trkpt>
      <trkpt lat="45.57433" lon="6.60045">
        <ele>1717.1</ele>
        <time>2013-08-28T07:26:06Z</time>
      </trkpt>
      <trkpt lat="45.57432" lon="6.60046">
        <ele>1719.5</ele>
        <time>2013-08-28T07:26:07Z</time>
      </trkpt>
      <trkpt lat="45.5743" lon="6.60048">
        <ele>1719.5</ele>
        <time>2013-08-28T07:26:08Z</time>
      </trkpt>
      <trkpt lat="45.57418" lon="6.60055">
        <ele>1716.1</ele>
        <time>2013-08-28T07:26:14Z</time>
      </trkpt>
      <trkpt lat="45.57418" lon="6.60058">
        <ele>1717.1</ele>
        <time>2013-08-28T07:26:28Z</time>
      </trkpt>
      <trkpt lat="45.57417" lon="6.60058">
        <ele>1718.5</ele>
        <time>2013-08-28T07:26:29Z</time>
      </trkpt>
      <trkpt lat="45.57415" lon="6.6006">
        <ele>1718</ele>
        <time>2013-08-28T07:26:30Z</time>
      </trkpt>
      <trkpt lat="45.57413" lon="6.60062">
        <ele>1717.1</ele>
        <time>2013-08-28T07:26:31Z</time>
      </trkpt>
      <trkpt lat="45.57409" lon="6.60068">
        <ele>1713.7</ele>
        <time>2013-08-28T07:26:33Z</time>
      </trkpt>
      <trkpt lat="45.57407" lon="6.6007">
        <ele>1713.7</ele>
        <time>2013-08-28T07:26:34Z</time>
      </trkpt>
      <trkpt lat="45.57403" lon="6.60076">
        <ele>1716.1</ele>
        <time>2013-08-28T07:26:38Z</time>
      </trkpt>
      <trkpt lat="45.57401" lon="6.60077">
        <ele>1714.7</ele>
        <time>2013-08-28T07:26:39Z</time>
      </trkpt>
      <trkpt lat="45.57394" lon="6.60079">
        <ele>1712.3</ele>
        <time>2013-08-28T07:26:42Z</time>
      </trkpt>
      <trkpt lat="45.57387" lon="6.60082">
        <ele>1714.7</ele>
        <time>2013-08-28T07:26:44Z</time>
      </trkpt>
      <trkpt lat="45.57382" lon="6.60085">
        <ele>1714.2</ele>
        <time>2013-08-28T07:26:45Z</time>
      </trkpt>
      <trkpt lat="45.57372" lon="6.6009">
        <ele>1710.8</ele>
        <time>2013-08-28T07:26:47Z</time>
      </trkpt>
      <trkpt lat="45.5734" lon="6.60109">
        <ele>1707</ele>
        <time>2013-08-28T07:26:53Z</time>
      </trkpt>
      <trkpt lat="45.57336" lon="6.60112">
        <ele>1707.9</ele>
        <time>2013-08-28T07:26:54Z</time>
      </trkpt>
      <trkpt lat="45.57333" lon="6.60115">
        <ele>1707.4</ele>
        <time>2013-08-28T07:26:55Z</time>
      </trkpt>
      <trkpt lat="45.57331" lon="6.60117">
        <ele>1707</ele>
        <time>2013-08-28T07:26:56Z</time>
      </trkpt>
      <trkpt lat="45.57329" lon="6.60118">
        <ele>1707.4</ele>
        <time>2013-08-28T07:27:05Z</time>
      </trkpt>
      <trkpt lat="45.57326" lon="6.60119">
        <ele>1706.5</ele>
        <time>2013-08-28T07:27:16Z</time>
      </trkpt>
      <trkpt lat="45.57324" lon="6.60118">
        <ele>1707.4</ele>
        <time>2013-08-28T07:27:17Z</time>
      </trkpt>
      <trkpt lat="45.57321" lon="6.60117">
        <ele>1707</ele>
        <time>2013-08-28T07:27:18Z</time>
      </trkpt>
      <trkpt lat="45.57319" lon="6.60117">
        <ele>1706.5</ele>
        <time>2013-08-28T07:27:19Z</time>
      </trkpt>
      <trkpt lat="45.57316" lon="6.60116">
        <ele>1705.5</ele>
        <time>2013-08-28T07:27:20Z</time>
      </trkpt>
      <trkpt lat="45.57313" lon="6.60115">
        <ele>1705</ele>
        <time>2013-08-28T07:27:21Z</time>
      </trkpt>
      <trkpt lat="45.57312" lon="6.60116">
        <ele>1705.5</ele>
        <time>2013-08-28T07:27:22Z</time>
      </trkpt>
      <trkpt lat="45.57309" lon="6.60121">
        <ele>1703.6</ele>
        <time>2013-08-28T07:27:32Z</time>
      </trkpt>
      <trkpt lat="45.57306" lon="6.60124">
        <ele>1700.7</ele>
        <time>2013-08-28T07:27:38Z</time>
      </trkpt>
      <trkpt lat="45.57302" lon="6.60129">
        <ele>1698.8</ele>
        <time>2013-08-28T07:27:47Z</time>
      </trkpt>
      <trkpt lat="45.57293" lon="6.60131">
        <ele>1698.8</ele>
        <time>2013-08-28T07:28:03Z</time>
      </trkpt>
      <trkpt lat="45.57291" lon="6.60131">
        <ele>1699.8</ele>
        <time>2013-08-28T07:28:07Z</time>
      </trkpt>
      <trkpt lat="45.5729" lon="6.6013">
        <ele>1696.4</ele>
        <time>2013-08-28T07:28:08Z</time>
      </trkpt>
      <trkpt lat="45.57287" lon="6.60132">
        <ele>1695.9</ele>
        <time>2013-08-28T07:28:12Z</time>
      </trkpt>
      <trkpt lat="45.57287" lon="6.60132">
        <ele>1699.3</ele>
        <time>2013-08-28T07:28:13Z</time>
      </trkpt>
      <trkpt lat="45.57287" lon="6.60133">
        <ele>1697.3</ele>
        <time>2013-08-28T07:28:14Z</time>
      </trkpt>
      <trkpt lat="45.57287" lon="6.60133">
        <ele>1696.4</ele>
        <time>2013-08-28T07:28:16Z</time>
      </trkpt>
      <trkpt lat="45.57286" lon="6.60133">
        <ele>1695.4</ele>
        <time>2013-08-28T07:28:18Z</time>
      </trkpt>
      <trkpt lat="45.57285" lon="6.60134">
        <ele>1697.8</ele>
        <time>2013-08-28T07:28:19Z</time>
      </trkpt>
      <trkpt lat="45.57282" lon="6.60135">
        <ele>1698.8</ele>
        <time>2013-08-28T07:28:20Z</time>
      </trkpt>
      <trkpt lat="45.5728" lon="6.60136">
        <ele>1694.9</ele>
        <time>2013-08-28T07:28:21Z</time>
      </trkpt>
      <trkpt lat="45.57277" lon="6.60138">
        <ele>1695.4</ele>
        <time>2013-08-28T07:28:22Z</time>
      </trkpt>
      <trkpt lat="45.5726" lon="6.60148">
        <ele>1694.5</ele>
        <time>2013-08-28T07:28:29Z</time>
      </trkpt>
      <trkpt lat="45.57259" lon="6.60147">
        <ele>1692.1</ele>
        <time>2013-08-28T07:28:30Z</time>
      </trkpt>
      <trkpt lat="45.57258" lon="6.60145">
        <ele>1692.1</ele>
        <time>2013-08-28T07:28:31Z</time>
      </trkpt>
      <trkpt lat="45.57256" lon="6.60144">
        <ele>1694.9</ele>
        <time>2013-08-28T07:28:32Z</time>
      </trkpt>
      <trkpt lat="45.57254" lon="6.60143">
        <ele>1694.9</ele>
        <time>2013-08-28T07:28:35Z</time>
      </trkpt>
      <trkpt lat="45.57254" lon="6.60142">
        <ele>1692.1</ele>
        <time>2013-08-28T07:28:36Z</time>
      </trkpt>
      <trkpt lat="45.57243" lon="6.60134">
        <ele>1691.6</ele>
        <time>2013-08-28T07:28:48Z</time>
      </trkpt>
      <trkpt lat="45.5724" lon="6.60126">
        <ele>1690.1</ele>
        <time>2013-08-28T07:28:56Z</time>
      </trkpt>
      <trkpt lat="45.57239" lon="6.60124">
        <ele>1689.7</ele>
        <time>2013-08-28T07:28:57Z</time>
      </trkpt>
      <trkpt lat="45.57237" lon="6.60123">
        <ele>1694</ele>
        <time>2013-08-28T07:28:58Z</time>
      </trkpt>
      <trkpt lat="45.57236" lon="6.60123">
        <ele>1692.1</ele>
        <time>2013-08-28T07:28:59Z</time>
      </trkpt>
      <trkpt lat="45.57235" lon="6.60123">
        <ele>1691.6</ele>
        <time>2013-08-28T07:29:00Z</time>
      </trkpt>
      <trkpt lat="45.57233" lon="6.60123">
        <ele>1692.1</ele>
        <time>2013-08-28T07:29:01Z</time>
      </trkpt>
      <trkpt lat="45.57232" lon="6.60123">
        <ele>1693.5</ele>
        <time>2013-08-28T07:29:02Z</time>
      </trkpt>
      <trkpt lat="45.5723" lon="6.60124">
        <ele>1691.1</ele>
        <time>2013-08-28T07:29:03Z</time>
      </trkpt>
      <trkpt lat="45.5723" lon="6.60126">
        <ele>1691.6</ele>
        <time>2013-08-28T07:29:04Z</time>
      </trkpt>
      <trkpt lat="45.57228" lon="6.60134">
        <ele>1692.1</ele>
        <time>2013-08-28T07:29:06Z</time>
      </trkpt>
      <trkpt lat="45.57226" lon="6.60137">
        <ele>1690.1</ele>
        <time>2013-08-28T07:29:07Z</time>
      </trkpt>
      <trkpt lat="45.57224" lon="6.60139">
        <ele>1690.6</ele>
        <time>2013-08-28T07:29:08Z</time>
      </trkpt>
      <trkpt lat="45.57222" lon="6.60141">
        <ele>1689.7</ele>
        <time>2013-08-28T07:29:09Z</time>
      </trkpt>
      <trkpt lat="45.5722" lon="6.60141">
        <ele>1689.7</ele>
        <time>2013-08-28T07:29:10Z</time>
      </trkpt>
      <trkpt lat="45.57219" lon="6.60142">
        <ele>1690.1</ele>
        <time>2013-08-28T07:29:11Z</time>
      </trkpt>
      <trkpt lat="45.57215" lon="6.60144">
        <ele>1689.2</ele>
        <time>2013-08-28T07:29:12Z</time>
      </trkpt>
      <trkpt lat="45.57214" lon="6.60144">
        <ele>1689.2</ele>
        <time>2013-08-28T07:29:13Z</time>
      </trkpt>
      <trkpt lat="45.57208" lon="6.60141">
        <ele>1691.1</ele>
        <time>2013-08-28T07:29:26Z</time>
      </trkpt>
      <trkpt lat="45.57207" lon="6.6014">
        <ele>1692.1</ele>
        <time>2013-08-28T07:29:28Z</time>
      </trkpt>
      <trkpt lat="45.57201" lon="6.6014">
        <ele>1691.6</ele>
        <time>2013-08-28T07:29:39Z</time>
      </trkpt>
      <trkpt lat="45.572" lon="6.6014">
        <ele>1692.1</ele>
        <time>2013-08-28T07:29:40Z</time>
      </trkpt>
      <trkpt lat="45.57198" lon="6.60141">
        <ele>1692.1</ele>
        <time>2013-08-28T07:29:41Z</time>
      </trkpt>
      <trkpt lat="45.57197" lon="6.60141">
        <ele>1692.1</ele>
        <time>2013-08-28T07:29:42Z</time>
      </trkpt>
      <trkpt lat="45.57194" lon="6.60141">
        <ele>1693</ele>
        <time>2013-08-28T07:29:43Z</time>
      </trkpt>
      <trkpt lat="45.57192" lon="6.60141">
        <ele>1692.1</ele>
        <time>2013-08-28T07:29:44Z</time>
      </trkpt>
      <trkpt lat="45.5719" lon="6.6014">
        <ele>1691.6</ele>
        <time>2013-08-28T07:29:45Z</time>
      </trkpt>
      <trkpt lat="45.57188" lon="6.6014">
        <ele>1692.1</ele>
        <time>2013-08-28T07:29:46Z</time>
      </trkpt>
      <trkpt lat="45.57187" lon="6.60139">
        <ele>1692.1</ele>
        <time>2013-08-28T07:29:47Z</time>
      </trkpt>
      <trkpt lat="45.57181" lon="6.60139">
        <ele>1693.5</ele>
        <time>2013-08-28T07:29:50Z</time>
      </trkpt>
      <trkpt lat="45.5718" lon="6.6014">
        <ele>1693</ele>
        <time>2013-08-28T07:29:51Z</time>
      </trkpt>
      <trkpt lat="45.57178" lon="6.6014">
        <ele>1691.6</ele>
        <time>2013-08-28T07:29:52Z</time>
      </trkpt>
      <trkpt lat="45.57176" lon="6.6014">
        <ele>1692.5</ele>
        <time>2013-08-28T07:29:53Z</time>
      </trkpt>
      <trkpt lat="45.57174" lon="6.6014">
        <ele>1693.5</ele>
        <time>2013-08-28T07:29:54Z</time>
      </trkpt>
      <trkpt lat="45.57172" lon="6.6014">
        <ele>1694</ele>
        <time>2013-08-28T07:29:55Z</time>
      </trkpt>
      <trkpt lat="45.5717" lon="6.60139">
        <ele>1693.5</ele>
        <time>2013-08-28T07:29:56Z</time>
      </trkpt>
      <trkpt lat="45.57168" lon="6.60138">
        <ele>1693</ele>
        <time>2013-08-28T07:29:57Z</time>
      </trkpt>
      <trkpt lat="45.57166" lon="6.60137">
        <ele>1692.5</ele>
        <time>2013-08-28T07:29:58Z</time>
      </trkpt>
      <trkpt lat="45.57164" lon="6.60136">
        <ele>1693</ele>
        <time>2013-08-28T07:29:59Z</time>
      </trkpt>
      <trkpt lat="45.57162" lon="6.60135">
        <ele>1694.5</ele>
        <time>2013-08-28T07:30:00Z</time>
      </trkpt>
      <trkpt lat="45.5716" lon="6.60135">
        <ele>1694.9</ele>
        <time>2013-08-28T07:30:01Z</time>
      </trkpt>
      <trkpt lat="45.57158" lon="6.60135">
        <ele>1694.5</ele>
        <time>2013-08-28T07:30:02Z</time>
      </trkpt>
      <trkpt lat="45.57152" lon="6.60134">
        <ele>1693.5</ele>
        <time>2013-08-28T07:30:04Z</time>
      </trkpt>
      <trkpt lat="45.57147" lon="6.60134">
        <ele>1694.5</ele>
        <time>2013-08-28T07:30:06Z</time>
      </trkpt>
      <trkpt lat="45.57142" lon="6.60129">
        <ele>1695.4</ele>
        <time>2013-08-28T07:30:10Z</time>
      </trkpt>
      <trkpt lat="45.57123" lon="6.60122">
        <ele>1696.4</ele>
        <time>2013-08-28T07:30:22Z</time>
      </trkpt>
      <trkpt lat="45.57123" lon="6.60122">
        <ele>1694.9</ele>
        <time>2013-08-28T07:30:25Z</time>
      </trkpt>
      <trkpt lat="45.57117" lon="6.60117">
        <ele>1697.3</ele>
        <time>2013-08-28T07:30:42Z</time>
      </trkpt>
      <trkpt lat="45.57116" lon="6.60116">
        <ele>1699.3</ele>
        <time>2013-08-28T07:30:48Z</time>
      </trkpt>
      <trkpt lat="45.57116" lon="6.60115">
        <ele>1694.9</ele>
        <time>2013-08-28T07:30:51Z</time>
      </trkpt>
      <trkpt lat="45.57116" lon="6.60115">
        <ele>1696.9</ele>
        <time>2013-08-28T07:30:52Z</time>
      </trkpt>
      <trkpt lat="45.57105" lon="6.60111">
        <ele>1697.8</ele>
        <time>2013-08-28T07:31:07Z</time>
      </trkpt>
      <trkpt lat="45.57097" lon="6.60109">
        <ele>1699.3</ele>
        <time>2013-08-28T07:31:24Z</time>
      </trkpt>
      <trkpt lat="45.57085" lon="6.60106">
        <ele>1699.8</ele>
        <time>2013-08-28T07:31:42Z</time>
      </trkpt>
      <trkpt lat="45.57077" lon="6.60105">
        <ele>1699.8</ele>
        <time>2013-08-28T07:31:58Z</time>
      </trkpt>
      <trkpt lat="45.57068" lon="6.60105">
        <ele>1703.1</ele>
        <time>2013-08-28T07:32:13Z</time>
      </trkpt>
      <trkpt lat="45.5706" lon="6.60104">
        <ele>1702.6</ele>
        <time>2013-08-28T07:32:26Z</time>
      </trkpt>
      <trkpt lat="45.57055" lon="6.60103">
        <ele>1703.6</ele>
        <time>2013-08-28T07:32:33Z</time>
      </trkpt>
      <trkpt lat="45.57044" lon="6.60103">
        <ele>1704.1</ele>
        <time>2013-08-28T07:32:45Z</time>
      </trkpt>
      <trkpt lat="45.57037" lon="6.60103">
        <ele>1705</ele>
        <time>2013-08-28T07:32:50Z</time>
      </trkpt>
      <trkpt lat="45.57035" lon="6.60102">
        <ele>1705</ele>
        <time>2013-08-28T07:32:51Z</time>
      </trkpt>
      <trkpt lat="45.57033" lon="6.60102">
        <ele>1705.5</ele>
        <time>2013-08-28T07:32:52Z</time>
      </trkpt>
      <trkpt lat="45.57032" lon="6.60102">
        <ele>1705</ele>
        <time>2013-08-28T07:32:53Z</time>
      </trkpt>
      <trkpt lat="45.5703" lon="6.60102">
        <ele>1705</ele>
        <time>2013-08-28T07:32:54Z</time>
      </trkpt>
      <trkpt lat="45.57028" lon="6.60102">
        <ele>1705</ele>
        <time>2013-08-28T07:32:55Z</time>
      </trkpt>
      <trkpt lat="45.57027" lon="6.60102">
        <ele>1705</ele>
        <time>2013-08-28T07:32:56Z</time>
      </trkpt>
      <trkpt lat="45.57025" lon="6.60101">
        <ele>1707</ele>
        <time>2013-08-28T07:32:58Z</time>
      </trkpt>
      <trkpt lat="45.57019" lon="6.60102">
        <ele>1702.2</ele>
        <time>2013-08-28T07:33:02Z</time>
      </trkpt>
      <trkpt lat="45.57019" lon="6.60102">
        <ele>1702.2</ele>
        <time>2013-08-28T07:33:03Z</time>
      </trkpt>
      <trkpt lat="45.57019" lon="6.60102">
        <ele>1711.8</ele>
        <time>2013-08-28T07:33:04Z</time>
      </trkpt>
      <trkpt lat="45.57014" lon="6.601">
        <ele>1707.4</ele>
        <time>2013-08-28T07:33:25Z</time>
      </trkpt>
      <trkpt lat="45.57013" lon="6.601">
        <ele>1707.4</ele>
        <time>2013-08-28T07:33:26Z</time>
      </trkpt>
      <trkpt lat="45.57008" lon="6.60096">
        <ele>1709.4</ele>
        <time>2013-08-28T07:33:42Z</time>
      </trkpt>
      <trkpt lat="45.57005" lon="6.60095">
        <ele>1710.8</ele>
        <time>2013-08-28T07:33:51Z</time>
      </trkpt>
      <trkpt lat="45.56999" lon="6.60093">
        <ele>1712.7</ele>
        <time>2013-08-28T07:34:03Z</time>
      </trkpt>
      <trkpt lat="45.56991" lon="6.60094">
        <ele>1711.8</ele>
        <time>2013-08-28T07:34:18Z</time>
      </trkpt>
      <trkpt lat="45.5699" lon="6.60095">
        <ele>1712.7</ele>
        <time>2013-08-28T07:34:41Z</time>
      </trkpt>
      <trkpt lat="45.56989" lon="6.60093">
        <ele>1712.7</ele>
        <time>2013-08-28T07:34:50Z</time>
      </trkpt>
      <trkpt lat="45.56988" lon="6.60093">
        <ele>1711.3</ele>
        <time>2013-08-28T07:34:51Z</time>
      </trkpt>
      <trkpt lat="45.56989" lon="6.60096">
        <ele>1713.2</ele>
        <time>2013-08-28T07:35:05Z</time>
      </trkpt>
      <trkpt lat="45.5699" lon="6.60097">
        <ele>1712.7</ele>
        <time>2013-08-28T07:35:15Z</time>
      </trkpt>
      <trkpt lat="45.56987" lon="6.60096">
        <ele>1712.7</ele>
        <time>2013-08-28T07:35:34Z</time>
      </trkpt>
      <trkpt lat="45.56989" lon="6.60094">
        <ele>1712.3</ele>
        <time>2013-08-28T07:35:59Z</time>
      </trkpt>
      <trkpt lat="45.56988" lon="6.60093">
        <ele>1712.3</ele>
        <time>2013-08-28T07:36:30Z</time>
      </trkpt>
      <trkpt lat="45.56988" lon="6.60098">
        <ele>1712.7</ele>
        <time>2013-08-28T07:37:01Z</time>
      </trkpt>
      <trkpt lat="45.56979" lon="6.60091">
        <ele>1713.2</ele>
        <time>2013-08-28T07:37:16Z</time>
      </trkpt>
      <trkpt lat="45.5697" lon="6.60087">
        <ele>1715.1</ele>
        <time>2013-08-28T07:37:33Z</time>
      </trkpt>
      <trkpt lat="45.56962" lon="6.60084">
        <ele>1718</ele>
        <time>2013-08-28T07:37:49Z</time>
      </trkpt>
      <trkpt lat="45.56953" lon="6.60083">
        <ele>1718.5</ele>
        <time>2013-08-28T07:38:02Z</time>
      </trkpt>
      <trkpt lat="45.5694" lon="6.60079">
        <ele>1721.4</ele>
        <time>2013-08-28T07:38:20Z</time>
      </trkpt>
      <trkpt lat="45.56932" lon="6.60081">
        <ele>1722.8</ele>
        <time>2013-08-28T07:38:37Z</time>
      </trkpt>
      <trkpt lat="45.56927" lon="6.6008">
        <ele>1723.8</ele>
        <time>2013-08-28T07:38:55Z</time>
      </trkpt>
      <trkpt lat="45.56918" lon="6.60079">
        <ele>1727.2</ele>
        <time>2013-08-28T07:39:11Z</time>
      </trkpt>
      <trkpt lat="45.56909" lon="6.60078">
        <ele>1730</ele>
        <time>2013-08-28T07:39:28Z</time>
      </trkpt>
      <trkpt lat="45.56903" lon="6.60076">
        <ele>1730.5</ele>
        <time>2013-08-28T07:39:43Z</time>
      </trkpt>
      <trkpt lat="45.56892" lon="6.60072">
        <ele>1732.9</ele>
        <time>2013-08-28T07:40:00Z</time>
      </trkpt>
      <trkpt lat="45.56889" lon="6.6007">
        <ele>1734.8</ele>
        <time>2013-08-28T07:40:20Z</time>
      </trkpt>
      <trkpt lat="45.56882" lon="6.60066">
        <ele>1736.8</ele>
        <time>2013-08-28T07:40:36Z</time>
      </trkpt>
      <trkpt lat="45.56881" lon="6.60065">
        <ele>1737.7</ele>
        <time>2013-08-28T07:40:47Z</time>
      </trkpt>
      <trkpt lat="45.5688" lon="6.60062">
        <ele>1738.2</ele>
        <time>2013-08-28T07:41:04Z</time>
      </trkpt>
      <trkpt lat="45.56875" lon="6.60062">
        <ele>1738.2</ele>
        <time>2013-08-28T07:41:19Z</time>
      </trkpt>
      <trkpt lat="45.56873" lon="6.60063">
        <ele>1739.2</ele>
        <time>2013-08-28T07:41:38Z</time>
      </trkpt>
      <trkpt lat="45.56868" lon="6.60059">
        <ele>1740.1</ele>
        <time>2013-08-28T07:41:52Z</time>
      </trkpt>
      <trkpt lat="45.56859" lon="6.60058">
        <ele>1740.6</ele>
        <time>2013-08-28T07:42:07Z</time>
      </trkpt>
      <trkpt lat="45.56858" lon="6.60059">
        <ele>1741.6</ele>
        <time>2013-08-28T07:42:08Z</time>
      </trkpt>
      <trkpt lat="45.56857" lon="6.6006">
        <ele>1741.1</ele>
        <time>2013-08-28T07:42:09Z</time>
      </trkpt>
      <trkpt lat="45.56845" lon="6.60063">
        <ele>1743</ele>
        <time>2013-08-28T07:42:26Z</time>
      </trkpt>
      <trkpt lat="45.56834" lon="6.60065">
        <ele>1745.4</ele>
        <time>2013-08-28T07:42:44Z</time>
      </trkpt>
      <trkpt lat="45.56822" lon="6.60061">
        <ele>1748.3</ele>
        <time>2013-08-28T07:43:01Z</time>
      </trkpt>
      <trkpt lat="45.56812" lon="6.60057">
        <ele>1750.7</ele>
        <time>2013-08-28T07:43:19Z</time>
      </trkpt>
      <trkpt lat="45.56803" lon="6.60056">
        <ele>1752.1</ele>
        <time>2013-08-28T07:43:38Z</time>
      </trkpt>
      <trkpt lat="45.56803" lon="6.60056">
        <ele>1752.1</ele>
        <time>2013-08-28T07:44:00Z</time>
      </trkpt>
      <trkpt lat="45.56798" lon="6.60058">
        <ele>1751.7</ele>
        <time>2013-08-28T07:44:17Z</time>
      </trkpt>
      <trkpt lat="45.56797" lon="6.60058">
        <ele>1752.1</ele>
        <time>2013-08-28T07:44:19Z</time>
      </trkpt>
      <trkpt lat="45.56794" lon="6.60054">
        <ele>1753.1</ele>
        <time>2013-08-28T07:44:29Z</time>
      </trkpt>
      <trkpt lat="45.56793" lon="6.60055">
        <ele>1752.6</ele>
        <time>2013-08-28T07:44:36Z</time>
      </trkpt>
      <trkpt lat="45.56792" lon="6.60055">
        <ele>1752.1</ele>
        <time>2013-08-28T07:44:37Z</time>
      </trkpt>
      <trkpt lat="45.5679" lon="6.60055">
        <ele>1752.6</ele>
        <time>2013-08-28T07:44:38Z</time>
      </trkpt>
      <trkpt lat="45.56774" lon="6.60054">
        <ele>1752.1</ele>
        <time>2013-08-28T07:44:48Z</time>
      </trkpt>
      <trkpt lat="45.56772" lon="6.60054">
        <ele>1752.1</ele>
        <time>2013-08-28T07:44:49Z</time>
      </trkpt>
      <trkpt lat="45.56771" lon="6.60053">
        <ele>1752.1</ele>
        <time>2013-08-28T07:44:50Z</time>
      </trkpt>
      <trkpt lat="45.56769" lon="6.60052">
        <ele>1752.6</ele>
        <time>2013-08-28T07:44:51Z</time>
      </trkpt>
      <trkpt lat="45.56768" lon="6.60051">
        <ele>1751.2</ele>
        <time>2013-08-28T07:44:52Z</time>
      </trkpt>
      <trkpt lat="45.56761" lon="6.60051">
        <ele>1753.1</ele>
        <time>2013-08-28T07:45:02Z</time>
      </trkpt>
      <trkpt lat="45.56754" lon="6.60053">
        <ele>1752.1</ele>
        <time>2013-08-28T07:45:18Z</time>
      </trkpt>
      <trkpt lat="45.56748" lon="6.6005">
        <ele>1753.1</ele>
        <time>2013-08-28T07:45:33Z</time>
      </trkpt>
      <trkpt lat="45.56746" lon="6.60055">
        <ele>1752.1</ele>
        <time>2013-08-28T07:45:41Z</time>
      </trkpt>
      <trkpt lat="45.56741" lon="6.60057">
        <ele>1751.2</ele>
        <time>2013-08-28T07:45:55Z</time>
      </trkpt>
      <trkpt lat="45.56739" lon="6.60054">
        <ele>1750.2</ele>
        <time>2013-08-28T07:46:14Z</time>
      </trkpt>
      <trkpt lat="45.56734" lon="6.60058">
        <ele>1750.2</ele>
        <time>2013-08-28T07:46:27Z</time>
      </trkpt>
      <trkpt lat="45.56725" lon="6.60058">
        <ele>1751.7</ele>
        <time>2013-08-28T07:46:41Z</time>
      </trkpt>
      <trkpt lat="45.56715" lon="6.60058">
        <ele>1753.1</ele>
        <time>2013-08-28T07:46:57Z</time>
      </trkpt>
      <trkpt lat="45.56704" lon="6.60065">
        <ele>1753.6</ele>
        <time>2013-08-28T07:47:13Z</time>
      </trkpt>
      <trkpt lat="45.56698" lon="6.60061">
        <ele>1753.6</ele>
        <time>2013-08-28T07:47:28Z</time>
      </trkpt>
      <trkpt lat="45.56698" lon="6.60066">
        <ele>1754.1</ele>
        <time>2013-08-28T07:47:48Z</time>
      </trkpt>
      <trkpt lat="45.56694" lon="6.60064">
        <ele>1754.5</ele>
        <time>2013-08-28T07:48:06Z</time>
      </trkpt>
      <trkpt lat="45.56687" lon="6.60064">
        <ele>1755.5</ele>
        <time>2013-08-28T07:48:22Z</time>
      </trkpt>
      <trkpt lat="45.56688" lon="6.60063">
        <ele>1756.5</ele>
        <time>2013-08-28T07:48:36Z</time>
      </trkpt>
      <trkpt lat="45.56685" lon="6.60062">
        <ele>1758.9</ele>
        <time>2013-08-28T07:48:49Z</time>
      </trkpt>
      <trkpt lat="45.56683" lon="6.60061">
        <ele>1759.8</ele>
        <time>2013-08-28T07:49:04Z</time>
      </trkpt>
      <trkpt lat="45.56682" lon="6.60066">
        <ele>1760.3</ele>
        <time>2013-08-28T07:49:28Z</time>
      </trkpt>
      <trkpt lat="45.56669" lon="6.60067">
        <ele>1758.9</ele>
        <time>2013-08-28T07:49:43Z</time>
      </trkpt>
      <trkpt lat="45.56661" lon="6.60069">
        <ele>1759.4</ele>
        <time>2013-08-28T07:50:00Z</time>
      </trkpt>
      <trkpt lat="45.56652" lon="6.60065">
        <ele>1760.8</ele>
        <time>2013-08-28T07:50:14Z</time>
      </trkpt>
      <trkpt lat="45.5664" lon="6.60062">
        <ele>1763.2</ele>
        <time>2013-08-28T07:50:30Z</time>
      </trkpt>
      <trkpt lat="45.56631" lon="6.60063">
        <ele>1765.6</ele>
        <time>2013-08-28T07:50:45Z</time>
      </trkpt>
      <trkpt lat="45.56621" lon="6.6006">
        <ele>1766.6</ele>
        <time>2013-08-28T07:51:02Z</time>
      </trkpt>
      <trkpt lat="45.5661" lon="6.60062">
        <ele>1769</ele>
        <time>2013-08-28T07:51:17Z</time>
      </trkpt>
      <trkpt lat="45.56601" lon="6.60064">
        <ele>1771.4</ele>
        <time>2013-08-28T07:51:35Z</time>
      </trkpt>
      <trkpt lat="45.56593" lon="6.60063">
        <ele>1770.9</ele>
        <time>2013-08-28T07:52:04Z</time>
      </trkpt>
      <trkpt lat="45.56588" lon="6.60079">
        <ele>1771.4</ele>
        <time>2013-08-28T07:52:18Z</time>
      </trkpt>
      <trkpt lat="45.56575" lon="6.60083">
        <ele>1770.9</ele>
        <time>2013-08-28T07:52:31Z</time>
      </trkpt>
      <trkpt lat="45.56573" lon="6.60079">
        <ele>1770.9</ele>
        <time>2013-08-28T07:52:37Z</time>
      </trkpt>
      <trkpt lat="45.56562" lon="6.60075">
        <ele>1771.4</ele>
        <time>2013-08-28T07:52:46Z</time>
      </trkpt>
      <trkpt lat="45.56558" lon="6.60066">
        <ele>1771.9</ele>
        <time>2013-08-28T07:52:51Z</time>
      </trkpt>
      <trkpt lat="45.56557" lon="6.60064">
        <ele>1771.4</ele>
        <time>2013-08-28T07:52:52Z</time>
      </trkpt>
      <trkpt lat="45.56522" lon="6.60044">
        <ele>1773.8</ele>
        <time>2013-08-28T07:53:06Z</time>
      </trkpt>
      <trkpt lat="45.56515" lon="6.60039">
        <ele>1774.7</ele>
        <time>2013-08-28T07:53:11Z</time>
      </trkpt>
      <trkpt lat="45.56511" lon="6.60039">
        <ele>1774.7</ele>
        <time>2013-08-28T07:53:13Z</time>
      </trkpt>
      <trkpt lat="45.56508" lon="6.60037">
        <ele>1775.7</ele>
        <time>2013-08-28T07:53:16Z</time>
      </trkpt>
      <trkpt lat="45.56507" lon="6.60036">
        <ele>1776.2</ele>
        <time>2013-08-28T07:53:17Z</time>
      </trkpt>
      <trkpt lat="45.56506" lon="6.60035">
        <ele>1776.2</ele>
        <time>2013-08-28T07:53:18Z</time>
      </trkpt>
      <trkpt lat="45.56505" lon="6.60033">
        <ele>1776.2</ele>
        <time>2013-08-28T07:53:19Z</time>
      </trkpt>
      <trkpt lat="45.56505" lon="6.60032">
        <ele>1776.2</ele>
        <time>2013-08-28T07:53:20Z</time>
      </trkpt>
      <trkpt lat="45.56504" lon="6.6003">
        <ele>1775.7</ele>
        <time>2013-08-28T07:53:21Z</time>
      </trkpt>
      <trkpt lat="45.56496" lon="6.60015">
        <ele>1776.2</ele>
        <time>2013-08-28T07:53:28Z</time>
      </trkpt>
      <trkpt lat="45.56493" lon="6.60012">
        <ele>1776.2</ele>
        <time>2013-08-28T07:53:31Z</time>
      </trkpt>
      <trkpt lat="45.56492" lon="6.6001">
        <ele>1776.2</ele>
        <time>2013-08-28T07:53:32Z</time>
      </trkpt>
      <trkpt lat="45.5649" lon="6.60009">
        <ele>1775.7</ele>
        <time>2013-08-28T07:53:33Z</time>
      </trkpt>
      <trkpt lat="45.56489" lon="6.60008">
        <ele>1775.7</ele>
        <time>2013-08-28T07:53:34Z</time>
      </trkpt>
      <trkpt lat="45.56488" lon="6.60007">
        <ele>1775.2</ele>
        <time>2013-08-28T07:53:35Z</time>
      </trkpt>
      <trkpt lat="45.56476" lon="6.5999">
        <ele>1774.7</ele>
        <time>2013-08-28T07:53:45Z</time>
      </trkpt>
      <trkpt lat="45.56466" lon="6.59982">
        <ele>1774.7</ele>
        <time>2013-08-28T07:54:08Z</time>
      </trkpt>
      <trkpt lat="45.56454" lon="6.59962">
        <ele>1775.2</ele>
        <time>2013-08-28T07:54:19Z</time>
      </trkpt>
      <trkpt lat="45.56434" lon="6.59929">
        <ele>1776.2</ele>
        <time>2013-08-28T07:54:34Z</time>
      </trkpt>
      <trkpt lat="45.56432" lon="6.59927">
        <ele>1776.2</ele>
        <time>2013-08-28T07:54:35Z</time>
      </trkpt>
      <trkpt lat="45.56431" lon="6.59924">
        <ele>1776.2</ele>
        <time>2013-08-28T07:54:36Z</time>
      </trkpt>
      <trkpt lat="45.5642" lon="6.59897">
        <ele>1776.2</ele>
        <time>2013-08-28T07:54:44Z</time>
      </trkpt>
      <trkpt lat="45.5642" lon="6.59895">
        <ele>1775.7</ele>
        <time>2013-08-28T07:54:45Z</time>
      </trkpt>
      <trkpt lat="45.56419" lon="6.5988">
        <ele>1776.2</ele>
        <time>2013-08-28T07:54:49Z</time>
      </trkpt>
      <trkpt lat="45.56403" lon="6.59851">
        <ele>1777.1</ele>
        <time>2013-08-28T07:55:00Z</time>
      </trkpt>
      <trkpt lat="45.56388" lon="6.59832">
        <ele>1774.7</ele>
        <time>2013-08-28T07:55:07Z</time>
      </trkpt>
      <trkpt lat="45.56379" lon="6.59822">
        <ele>1772.8</ele>
        <time>2013-08-28T07:55:10Z</time>
      </trkpt>
      <trkpt lat="45.56362" lon="6.59803">
        <ele>1768.5</ele>
        <time>2013-08-28T07:55:17Z</time>
      </trkpt>
      <trkpt lat="45.5636" lon="6.598">
        <ele>1768.5</ele>
        <time>2013-08-28T07:55:18Z</time>
      </trkpt>
      <trkpt lat="45.56354" lon="6.59793">
        <ele>1769</ele>
        <time>2013-08-28T07:55:29Z</time>
      </trkpt>
      <trkpt lat="45.56353" lon="6.59791">
        <ele>1769</ele>
        <time>2013-08-28T07:55:58Z</time>
      </trkpt>
      <trkpt lat="45.56336" lon="6.5977">
        <ele>1767.5</ele>
        <time>2013-08-28T07:56:09Z</time>
      </trkpt>
      <trkpt lat="45.56325" lon="6.59738">
        <ele>1768</ele>
        <time>2013-08-28T07:56:19Z</time>
      </trkpt>
      <trkpt lat="45.56319" lon="6.59721">
        <ele>1767.5</ele>
        <time>2013-08-28T07:56:24Z</time>
      </trkpt>
      <trkpt lat="45.56318" lon="6.59719">
        <ele>1767.5</ele>
        <time>2013-08-28T07:56:25Z</time>
      </trkpt>
      <trkpt lat="45.56316" lon="6.59717">
        <ele>1768</ele>
        <time>2013-08-28T07:56:26Z</time>
      </trkpt>
      <trkpt lat="45.56315" lon="6.59714">
        <ele>1768.5</ele>
        <time>2013-08-28T07:56:27Z</time>
      </trkpt>
      <trkpt lat="45.56314" lon="6.59711">
        <ele>1768.5</ele>
        <time>2013-08-28T07:56:28Z</time>
      </trkpt>
      <trkpt lat="45.56313" lon="6.59708">
        <ele>1768</ele>
        <time>2013-08-28T07:56:29Z</time>
      </trkpt>
      <trkpt lat="45.56313" lon="6.59704">
        <ele>1768</ele>
        <time>2013-08-28T07:56:30Z</time>
      </trkpt>
      <trkpt lat="45.56312" lon="6.59701">
        <ele>1768.5</ele>
        <time>2013-08-28T07:56:31Z</time>
      </trkpt>
      <trkpt lat="45.56311" lon="6.59697">
        <ele>1768.5</ele>
        <time>2013-08-28T07:56:32Z</time>
      </trkpt>
      <trkpt lat="45.5631" lon="6.59694">
        <ele>1768.5</ele>
        <time>2013-08-28T07:56:33Z</time>
      </trkpt>
      <trkpt lat="45.5631" lon="6.59662">
        <ele>1768.5</ele>
        <time>2013-08-28T07:56:42Z</time>
      </trkpt>
      <trkpt lat="45.56308" lon="6.59657">
        <ele>1768</ele>
        <time>2013-08-28T07:56:53Z</time>
      </trkpt>
      <trkpt lat="45.56309" lon="6.59655">
        <ele>1768</ele>
        <time>2013-08-28T07:57:24Z</time>
      </trkpt>
      <trkpt lat="45.56307" lon="6.59657">
        <ele>1767.5</ele>
        <time>2013-08-28T07:57:50Z</time>
      </trkpt>
      <trkpt lat="45.56299" lon="6.59657">
        <ele>1767.5</ele>
        <time>2013-08-28T07:58:17Z</time>
      </trkpt>
      <trkpt lat="45.56304" lon="6.59656">
        <ele>1768</ele>
        <time>2013-08-28T07:58:42Z</time>
      </trkpt>
      <trkpt lat="45.56297" lon="6.5965">
        <ele>1768.5</ele>
        <time>2013-08-28T07:59:09Z</time>
      </trkpt>
      <trkpt lat="45.56297" lon="6.59648">
        <ele>1768</ele>
        <time>2013-08-28T07:59:14Z</time>
      </trkpt>
      <trkpt lat="45.56296" lon="6.59647">
        <ele>1768</ele>
        <time>2013-08-28T07:59:15Z</time>
      </trkpt>
      <trkpt lat="45.56294" lon="6.59645">
        <ele>1768</ele>
        <time>2013-08-28T07:59:16Z</time>
      </trkpt>
      <trkpt lat="45.56293" lon="6.59641">
        <ele>1768</ele>
        <time>2013-08-28T07:59:17Z</time>
      </trkpt>
      <trkpt lat="45.56292" lon="6.59638">
        <ele>1767.5</ele>
        <time>2013-08-28T07:59:18Z</time>
      </trkpt>
      <trkpt lat="45.56288" lon="6.59622">
        <ele>1765.6</ele>
        <time>2013-08-28T07:59:23Z</time>
      </trkpt>
      <trkpt lat="45.56288" lon="6.59613">
        <ele>1764.2</ele>
        <time>2013-08-28T07:59:33Z</time>
      </trkpt>
      <trkpt lat="45.56281" lon="6.59593">
        <ele>1761.8</ele>
        <time>2013-08-28T07:59:48Z</time>
      </trkpt>
      <trkpt lat="45.5628" lon="6.59585">
        <ele>1760.3</ele>
        <time>2013-08-28T07:59:50Z</time>
      </trkpt>
      <trkpt lat="45.5628" lon="6.59571">
        <ele>1758.9</ele>
        <time>2013-08-28T07:59:53Z</time>
      </trkpt>
      <trkpt lat="45.5628" lon="6.59554">
        <ele>1757.9</ele>
        <time>2013-08-28T07:59:58Z</time>
      </trkpt>
      <trkpt lat="45.56278" lon="6.59552">
        <ele>1756.5</ele>
        <time>2013-08-28T07:59:59Z</time>
      </trkpt>
      <trkpt lat="45.56277" lon="6.59548">
        <ele>1756.5</ele>
        <time>2013-08-28T08:00:00Z</time>
      </trkpt>
      <trkpt lat="45.56276" lon="6.59545">
        <ele>1755</ele>
        <time>2013-08-28T08:00:01Z</time>
      </trkpt>
      <trkpt lat="45.56276" lon="6.59542">
        <ele>1755</ele>
        <time>2013-08-28T08:00:02Z</time>
      </trkpt>
      <trkpt lat="45.56277" lon="6.59538">
        <ele>1755</ele>
        <time>2013-08-28T08:00:03Z</time>
      </trkpt>
      <trkpt lat="45.56277" lon="6.59524">
        <ele>1753.6</ele>
        <time>2013-08-28T08:00:06Z</time>
      </trkpt>
      <trkpt lat="45.56277" lon="6.59515">
        <ele>1753.6</ele>
        <time>2013-08-28T08:00:08Z</time>
      </trkpt>
      <trkpt lat="45.56278" lon="6.5951">
        <ele>1753.1</ele>
        <time>2013-08-28T08:00:09Z</time>
      </trkpt>
      <trkpt lat="45.5628" lon="6.59505">
        <ele>1752.6</ele>
        <time>2013-08-28T08:00:10Z</time>
      </trkpt>
      <trkpt lat="45.56281" lon="6.595">
        <ele>1751.7</ele>
        <time>2013-08-28T08:00:11Z</time>
      </trkpt>
      <trkpt lat="45.56282" lon="6.59493">
        <ele>1751.7</ele>
        <time>2013-08-28T08:00:12Z</time>
      </trkpt>
      <trkpt lat="45.56281" lon="6.59486">
        <ele>1750.7</ele>
        <time>2013-08-28T08:00:13Z</time>
      </trkpt>
      <trkpt lat="45.56281" lon="6.5948">
        <ele>1749.3</ele>
        <time>2013-08-28T08:00:14Z</time>
      </trkpt>
      <trkpt lat="45.56272" lon="6.59451">
        <ele>1746.9</ele>
        <time>2013-08-28T08:00:20Z</time>
      </trkpt>
      <trkpt lat="45.5626" lon="6.59413">
        <ele>1746.4</ele>
        <time>2013-08-28T08:00:29Z</time>
      </trkpt>
      <trkpt lat="45.56259" lon="6.5941">
        <ele>1746.9</ele>
        <time>2013-08-28T08:00:30Z</time>
      </trkpt>
      <trkpt lat="45.56258" lon="6.59406">
        <ele>1746.4</ele>
        <time>2013-08-28T08:00:31Z</time>
      </trkpt>
      <trkpt lat="45.56257" lon="6.59401">
        <ele>1745.9</ele>
        <time>2013-08-28T08:00:32Z</time>
      </trkpt>
      <trkpt lat="45.56256" lon="6.59398">
        <ele>1745.9</ele>
        <time>2013-08-28T08:00:33Z</time>
      </trkpt>
      <trkpt lat="45.56256" lon="6.59394">
        <ele>1745.9</ele>
        <time>2013-08-28T08:00:34Z</time>
      </trkpt>
      <trkpt lat="45.56256" lon="6.59391">
        <ele>1746.9</ele>
        <time>2013-08-28T08:00:35Z</time>
      </trkpt>
      <trkpt lat="45.56255" lon="6.59388">
        <ele>1746.4</ele>
        <time>2013-08-28T08:00:36Z</time>
      </trkpt>
      <trkpt lat="45.56254" lon="6.59384">
        <ele>1745.9</ele>
        <time>2013-08-28T08:00:37Z</time>
      </trkpt>
      <trkpt lat="45.56254" lon="6.59379">
        <ele>1745.9</ele>
        <time>2013-08-28T08:00:38Z</time>
      </trkpt>
      <trkpt lat="45.56254" lon="6.59375">
        <ele>1746.4</ele>
        <time>2013-08-28T08:00:39Z</time>
      </trkpt>
      <trkpt lat="45.56246" lon="6.59336">
        <ele>1746.9</ele>
        <time>2013-08-28T08:00:51Z</time>
      </trkpt>
      <trkpt lat="45.56238" lon="6.59302">
        <ele>1746.9</ele>
        <time>2013-08-28T08:01:01Z</time>
      </trkpt>
      <trkpt lat="45.56236" lon="6.59254">
        <ele>1746.9</ele>
        <time>2013-08-28T08:01:13Z</time>
      </trkpt>
      <trkpt lat="45.56234" lon="6.59208">
        <ele>1746.9</ele>
        <time>2013-08-28T08:01:24Z</time>
      </trkpt>
      <trkpt lat="45.56235" lon="6.59202">
        <ele>1746.9</ele>
        <time>2013-08-28T08:01:26Z</time>
      </trkpt>
      <trkpt lat="45.56223" lon="6.59163">
        <ele>1747.3</ele>
        <time>2013-08-28T08:01:38Z</time>
      </trkpt>
      <trkpt lat="45.56207" lon="6.59121">
        <ele>1747.8</ele>
        <time>2013-08-28T08:01:50Z</time>
      </trkpt>
      <trkpt lat="45.56192" lon="6.59085">
        <ele>1747.3</ele>
        <time>2013-08-28T08:02:02Z</time>
      </trkpt>
      <trkpt lat="45.56188" lon="6.59079">
        <ele>1747.3</ele>
        <time>2013-08-28T08:02:05Z</time>
      </trkpt>
      <trkpt lat="45.56172" lon="6.5904">
        <ele>1746.9</ele>
        <time>2013-08-28T08:02:16Z</time>
      </trkpt>
      <trkpt lat="45.56165" lon="6.59021">
        <ele>1748.3</ele>
        <time>2013-08-28T08:02:25Z</time>
      </trkpt>
      <trkpt lat="45.56164" lon="6.59019">
        <ele>1748.3</ele>
        <time>2013-08-28T08:02:26Z</time>
      </trkpt>
      <trkpt lat="45.56162" lon="6.59017">
        <ele>1748.3</ele>
        <time>2013-08-28T08:02:27Z</time>
      </trkpt>
      <trkpt lat="45.56161" lon="6.59014">
        <ele>1748.3</ele>
        <time>2013-08-28T08:02:28Z</time>
      </trkpt>
      <trkpt lat="45.56159" lon="6.59012">
        <ele>1748.8</ele>
        <time>2013-08-28T08:02:29Z</time>
      </trkpt>
      <trkpt lat="45.56157" lon="6.59009">
        <ele>1748.3</ele>
        <time>2013-08-28T08:02:30Z</time>
      </trkpt>
      <trkpt lat="45.56143" lon="6.58983">
        <ele>1747.8</ele>
        <time>2013-08-28T08:02:40Z</time>
      </trkpt>
      <trkpt lat="45.5614" lon="6.58972">
        <ele>1746.9</ele>
        <time>2013-08-28T08:03:08Z</time>
      </trkpt>
      <trkpt lat="45.56136" lon="6.58975">
        <ele>1746.9</ele>
        <time>2013-08-28T08:03:24Z</time>
      </trkpt>
      <trkpt lat="45.56134" lon="6.5897">
        <ele>1746.4</ele>
        <time>2013-08-28T08:03:38Z</time>
      </trkpt>
      <trkpt lat="45.56133" lon="6.58969">
        <ele>1746.4</ele>
        <time>2013-08-28T08:03:42Z</time>
      </trkpt>
      <trkpt lat="45.56119" lon="6.5895">
        <ele>1745.9</ele>
        <time>2013-08-28T08:03:53Z</time>
      </trkpt>
      <trkpt lat="45.56101" lon="6.58943">
        <ele>1745.9</ele>
        <time>2013-08-28T08:03:59Z</time>
      </trkpt>
      <trkpt lat="45.56099" lon="6.58941">
        <ele>1745.4</ele>
        <time>2013-08-28T08:04:10Z</time>
      </trkpt>
      <trkpt lat="45.56097" lon="6.58939">
        <ele>1745.4</ele>
        <time>2013-08-28T08:04:16Z</time>
      </trkpt>
      <trkpt lat="45.56097" lon="6.58936">
        <ele>1745.9</ele>
        <time>2013-08-28T08:04:17Z</time>
      </trkpt>
      <trkpt lat="45.56104" lon="6.58895">
        <ele>1744</ele>
        <time>2013-08-28T08:04:27Z</time>
      </trkpt>
      <trkpt lat="45.5611" lon="6.58884">
        <ele>1744</ele>
        <time>2013-08-28T08:04:30Z</time>
      </trkpt>
      <trkpt lat="45.56111" lon="6.58881">
        <ele>1744.5</ele>
        <time>2013-08-28T08:04:31Z</time>
      </trkpt>
      <trkpt lat="45.56111" lon="6.58878">
        <ele>1744.5</ele>
        <time>2013-08-28T08:04:32Z</time>
      </trkpt>
      <trkpt lat="45.56113" lon="6.58876">
        <ele>1744</ele>
        <time>2013-08-28T08:04:33Z</time>
      </trkpt>
      <trkpt lat="45.56114" lon="6.58873">
        <ele>1744.5</ele>
        <time>2013-08-28T08:04:34Z</time>
      </trkpt>
      <trkpt lat="45.56116" lon="6.58872">
        <ele>1744.9</ele>
        <time>2013-08-28T08:04:35Z</time>
      </trkpt>
      <trkpt lat="45.56118" lon="6.5887">
        <ele>1744.5</ele>
        <time>2013-08-28T08:04:36Z</time>
      </trkpt>
      <trkpt lat="45.5612" lon="6.58867">
        <ele>1744</ele>
        <time>2013-08-28T08:04:37Z</time>
      </trkpt>
      <trkpt lat="45.56146" lon="6.58837">
        <ele>1742.1</ele>
        <time>2013-08-28T08:04:47Z</time>
      </trkpt>
      <trkpt lat="45.5617" lon="6.58828">
        <ele>1740.6</ele>
        <time>2013-08-28T08:04:55Z</time>
      </trkpt>
      <trkpt lat="45.5617" lon="6.58826">
        <ele>1741.6</ele>
        <time>2013-08-28T08:05:05Z</time>
      </trkpt>
      <trkpt lat="45.5617" lon="6.58826">
        <ele>1738.7</ele>
        <time>2013-08-28T08:05:06Z</time>
      </trkpt>
      <trkpt lat="45.5617" lon="6.58826">
        <ele>1738.7</ele>
        <time>2013-08-28T08:05:07Z</time>
      </trkpt>
      <trkpt lat="45.5617" lon="6.58826">
        <ele>1741.6</ele>
        <time>2013-08-28T08:05:08Z</time>
      </trkpt>
      <trkpt lat="45.5617" lon="6.58824">
        <ele>1739.6</ele>
        <time>2013-08-28T08:05:11Z</time>
      </trkpt>
      <trkpt lat="45.5617" lon="6.58823">
        <ele>1742.1</ele>
        <time>2013-08-28T08:05:18Z</time>
      </trkpt>
      <trkpt lat="45.56169" lon="6.58823">
        <ele>1740.6</ele>
        <time>2013-08-28T08:05:19Z</time>
      </trkpt>
      <trkpt lat="45.56181" lon="6.58818">
        <ele>1740.1</ele>
        <time>2013-08-28T08:05:25Z</time>
      </trkpt>
      <trkpt lat="45.56183" lon="6.58816">
        <ele>1740.6</ele>
        <time>2013-08-28T08:05:26Z</time>
      </trkpt>
      <trkpt lat="45.56188" lon="6.58814">
        <ele>1740.6</ele>
        <time>2013-08-28T08:05:28Z</time>
      </trkpt>
      <trkpt lat="45.56196" lon="6.5881">
        <ele>1741.1</ele>
        <time>2013-08-28T08:05:37Z</time>
      </trkpt>
      <trkpt lat="45.56201" lon="6.58809">
        <ele>1740.1</ele>
        <time>2013-08-28T08:05:40Z</time>
      </trkpt>
      <trkpt lat="45.56203" lon="6.58809">
        <ele>1740.6</ele>
        <time>2013-08-28T08:05:41Z</time>
      </trkpt>
      <trkpt lat="45.56206" lon="6.58807">
        <ele>1740.6</ele>
        <time>2013-08-28T08:05:42Z</time>
      </trkpt>
      <trkpt lat="45.56208" lon="6.58806">
        <ele>1740.6</ele>
        <time>2013-08-28T08:05:43Z</time>
      </trkpt>
      <trkpt lat="45.56211" lon="6.58804">
        <ele>1740.6</ele>
        <time>2013-08-28T08:05:44Z</time>
      </trkpt>
      <trkpt lat="45.56213" lon="6.58803">
        <ele>1740.1</ele>
        <time>2013-08-28T08:05:45Z</time>
      </trkpt>
      <trkpt lat="45.56216" lon="6.58802">
        <ele>1740.1</ele>
        <time>2013-08-28T08:05:46Z</time>
      </trkpt>
      <trkpt lat="45.56223" lon="6.58801">
        <ele>1741.1</ele>
        <time>2013-08-28T08:05:49Z</time>
      </trkpt>
      <trkpt lat="45.56225" lon="6.58801">
        <ele>1740.6</ele>
        <time>2013-08-28T08:05:50Z</time>
      </trkpt>
      <trkpt lat="45.56253" lon="6.58798">
        <ele>1740.1</ele>
        <time>2013-08-28T08:06:01Z</time>
      </trkpt>
      <trkpt lat="45.56281" lon="6.58794">
        <ele>1741.1</ele>
        <time>2013-08-28T08:06:10Z</time>
      </trkpt>
      <trkpt lat="45.56316" lon="6.58782">
        <ele>1739.2</ele>
        <time>2013-08-28T08:06:22Z</time>
      </trkpt>
      <trkpt lat="45.5632" lon="6.58782">
        <ele>1738.7</ele>
        <time>2013-08-28T08:06:23Z</time>
      </trkpt>
      <trkpt lat="45.56346" lon="6.58773">
        <ele>1736.3</ele>
        <time>2013-08-28T08:06:32Z</time>
      </trkpt>
      <trkpt lat="45.5636" lon="6.58768">
        <ele>1734.4</ele>
        <time>2013-08-28T08:06:36Z</time>
      </trkpt>
      <trkpt lat="45.56365" lon="6.58766">
        <ele>1735.3</ele>
        <time>2013-08-28T08:06:37Z</time>
      </trkpt>
      <trkpt lat="45.56369" lon="6.58763">
        <ele>1734.8</ele>
        <time>2013-08-28T08:06:38Z</time>
      </trkpt>
      <trkpt lat="45.56371" lon="6.5876">
        <ele>1733.9</ele>
        <time>2013-08-28T08:06:39Z</time>
      </trkpt>
      <trkpt lat="45.56377" lon="6.58735">
        <ele>1732.4</ele>
        <time>2013-08-28T08:06:48Z</time>
      </trkpt>
      <trkpt lat="45.56375" lon="6.58737">
        <ele>1733.4</ele>
        <time>2013-08-28T08:07:20Z</time>
      </trkpt>
      <trkpt lat="45.5638" lon="6.58736">
        <ele>1733.4</ele>
        <time>2013-08-28T08:07:49Z</time>
      </trkpt>
      <trkpt lat="45.56378" lon="6.58734">
        <ele>1732.9</ele>
        <time>2013-08-28T08:08:12Z</time>
      </trkpt>
      <trkpt lat="45.56376" lon="6.58735">
        <ele>1733.4</ele>
        <time>2013-08-28T08:08:36Z</time>
      </trkpt>
      <trkpt lat="45.56375" lon="6.58737">
        <ele>1732.9</ele>
        <time>2013-08-28T08:08:37Z</time>
      </trkpt>
      <trkpt lat="45.56374" lon="6.58739">
        <ele>1732.4</ele>
        <time>2013-08-28T08:08:38Z</time>
      </trkpt>
      <trkpt lat="45.56372" lon="6.58742">
        <ele>1732</ele>
        <time>2013-08-28T08:08:39Z</time>
      </trkpt>
      <trkpt lat="45.56371" lon="6.58745">
        <ele>1731.5</ele>
        <time>2013-08-28T08:08:40Z</time>
      </trkpt>
      <trkpt lat="45.56369" lon="6.58747">
        <ele>1732</ele>
        <time>2013-08-28T08:08:41Z</time>
      </trkpt>
      <trkpt lat="45.56367" lon="6.5875">
        <ele>1731.5</ele>
        <time>2013-08-28T08:08:42Z</time>
      </trkpt>
      <trkpt lat="45.56351" lon="6.58755">
        <ele>1730</ele>
        <time>2013-08-28T08:08:46Z</time>
      </trkpt>
      <trkpt lat="45.56346" lon="6.58754">
        <ele>1729.1</ele>
        <time>2013-08-28T08:08:47Z</time>
      </trkpt>
      <trkpt lat="45.56335" lon="6.58752">
        <ele>1728.1</ele>
        <time>2013-08-28T08:08:49Z</time>
      </trkpt>
      <trkpt lat="45.56304" lon="6.58749">
        <ele>1724.7</ele>
        <time>2013-08-28T08:08:55Z</time>
      </trkpt>
      <trkpt lat="45.56298" lon="6.58748">
        <ele>1723.3</ele>
        <time>2013-08-28T08:08:56Z</time>
      </trkpt>
      <trkpt lat="45.56267" lon="6.58743">
        <ele>1720.4</ele>
        <time>2013-08-28T08:09:01Z</time>
      </trkpt>
      <trkpt lat="45.56244" lon="6.58742">
        <ele>1717.1</ele>
        <time>2013-08-28T08:09:04Z</time>
      </trkpt>
      <trkpt lat="45.56217" lon="6.58737">
        <ele>1713.7</ele>
        <time>2013-08-28T08:09:08Z</time>
      </trkpt>
      <trkpt lat="45.56186" lon="6.58737">
        <ele>1709.4</ele>
        <time>2013-08-28T08:09:12Z</time>
      </trkpt>
      <trkpt lat="45.56163" lon="6.58738">
        <ele>1706</ele>
        <time>2013-08-28T08:09:15Z</time>
      </trkpt>
      <trkpt lat="45.56135" lon="6.58736">
        <ele>1702.2</ele>
        <time>2013-08-28T08:09:19Z</time>
      </trkpt>
      <trkpt lat="45.56128" lon="6.58737">
        <ele>1701.2</ele>
        <time>2013-08-28T08:09:20Z</time>
      </trkpt>
      <trkpt lat="45.56115" lon="6.5874">
        <ele>1699.3</ele>
        <time>2013-08-28T08:09:22Z</time>
      </trkpt>
      <trkpt lat="45.5611" lon="6.58739">
        <ele>1698.8</ele>
        <time>2013-08-28T08:09:23Z</time>
      </trkpt>
      <trkpt lat="45.56119" lon="6.58715">
        <ele>1695.4</ele>
        <time>2013-08-28T08:09:28Z</time>
      </trkpt>
      <trkpt lat="45.56159" lon="6.58704">
        <ele>1692.1</ele>
        <time>2013-08-28T08:09:33Z</time>
      </trkpt>
      <trkpt lat="45.56175" lon="6.587">
        <ele>1691.1</ele>
        <time>2013-08-28T08:09:35Z</time>
      </trkpt>
      <trkpt lat="45.56199" lon="6.58692">
        <ele>1688.2</ele>
        <time>2013-08-28T08:09:38Z</time>
      </trkpt>
      <trkpt lat="45.56214" lon="6.58688">
        <ele>1686.3</ele>
        <time>2013-08-28T08:09:40Z</time>
      </trkpt>
      <trkpt lat="45.56222" lon="6.58685">
        <ele>1685.8</ele>
        <time>2013-08-28T08:09:41Z</time>
      </trkpt>
      <trkpt lat="45.56245" lon="6.58679">
        <ele>1682.9</ele>
        <time>2013-08-28T08:09:44Z</time>
      </trkpt>
      <trkpt lat="45.56251" lon="6.58677">
        <ele>1682.4</ele>
        <time>2013-08-28T08:09:45Z</time>
      </trkpt>
      <trkpt lat="45.56256" lon="6.58672">
        <ele>1682</ele>
        <time>2013-08-28T08:09:46Z</time>
      </trkpt>
      <trkpt lat="45.5626" lon="6.58665">
        <ele>1681</ele>
        <time>2013-08-28T08:09:47Z</time>
      </trkpt>
      <trkpt lat="45.56261" lon="6.58656">
        <ele>1681</ele>
        <time>2013-08-28T08:09:48Z</time>
      </trkpt>
      <trkpt lat="45.56262" lon="6.58647">
        <ele>1679.1</ele>
        <time>2013-08-28T08:09:49Z</time>
      </trkpt>
      <trkpt lat="45.56259" lon="6.58638">
        <ele>1679.1</ele>
        <time>2013-08-28T08:09:50Z</time>
      </trkpt>
      <trkpt lat="45.56255" lon="6.58632">
        <ele>1678.1</ele>
        <time>2013-08-28T08:09:51Z</time>
      </trkpt>
      <trkpt lat="45.5625" lon="6.58628">
        <ele>1676.7</ele>
        <time>2013-08-28T08:09:52Z</time>
      </trkpt>
      <trkpt lat="45.56245" lon="6.58627">
        <ele>1676.2</ele>
        <time>2013-08-28T08:09:53Z</time>
      </trkpt>
      <trkpt lat="45.56241" lon="6.5863">
        <ele>1674.8</ele>
        <time>2013-08-28T08:09:54Z</time>
      </trkpt>
      <trkpt lat="45.56238" lon="6.58635">
        <ele>1674.8</ele>
        <time>2013-08-28T08:09:55Z</time>
      </trkpt>
      <trkpt lat="45.56235" lon="6.58642">
        <ele>1674.3</ele>
        <time>2013-08-28T08:09:56Z</time>
      </trkpt>
      <trkpt lat="45.56232" lon="6.58649">
        <ele>1672.8</ele>
        <time>2013-08-28T08:09:57Z</time>
      </trkpt>
      <trkpt lat="45.56229" lon="6.58654">
        <ele>1671.9</ele>
        <time>2013-08-28T08:09:58Z</time>
      </trkpt>
      <trkpt lat="45.56224" lon="6.58656">
        <ele>1671.4</ele>
        <time>2013-08-28T08:09:59Z</time>
      </trkpt>
      <trkpt lat="45.5622" lon="6.58654">
        <ele>1670.4</ele>
        <time>2013-08-28T08:10:00Z</time>
      </trkpt>
      <trkpt lat="45.56217" lon="6.58649">
        <ele>1669.5</ele>
        <time>2013-08-28T08:10:01Z</time>
      </trkpt>
      <trkpt lat="45.56216" lon="6.58641">
        <ele>1669.5</ele>
        <time>2013-08-28T08:10:02Z</time>
      </trkpt>
      <trkpt lat="45.56216" lon="6.58633">
        <ele>1669.5</ele>
        <time>2013-08-28T08:10:03Z</time>
      </trkpt>
      <trkpt lat="45.56215" lon="6.58615">
        <ele>1667.5</ele>
        <time>2013-08-28T08:10:05Z</time>
      </trkpt>
      <trkpt lat="45.56212" lon="6.58608">
        <ele>1667.5</ele>
        <time>2013-08-28T08:10:06Z</time>
      </trkpt>
      <trkpt lat="45.56208" lon="6.58603">
        <ele>1667.1</ele>
        <time>2013-08-28T08:10:07Z</time>
      </trkpt>
      <trkpt lat="45.56203" lon="6.58601">
        <ele>1666.6</ele>
        <time>2013-08-28T08:10:08Z</time>
      </trkpt>
      <trkpt lat="45.56197" lon="6.58602">
        <ele>1665.6</ele>
        <time>2013-08-28T08:10:09Z</time>
      </trkpt>
      <trkpt lat="45.56193" lon="6.58607">
        <ele>1665.1</ele>
        <time>2013-08-28T08:10:10Z</time>
      </trkpt>
      <trkpt lat="45.5619" lon="6.58615">
        <ele>1664.7</ele>
        <time>2013-08-28T08:10:11Z</time>
      </trkpt>
      <trkpt lat="45.56183" lon="6.5864">
        <ele>1662.3</ele>
        <time>2013-08-28T08:10:14Z</time>
      </trkpt>
      <trkpt lat="45.56179" lon="6.58645">
        <ele>1661.8</ele>
        <time>2013-08-28T08:10:15Z</time>
      </trkpt>
      <trkpt lat="45.56174" lon="6.58645">
        <ele>1661.3</ele>
        <time>2013-08-28T08:10:16Z</time>
      </trkpt>
      <trkpt lat="45.5617" lon="6.58641">
        <ele>1661.3</ele>
        <time>2013-08-28T08:10:17Z</time>
      </trkpt>
      <trkpt lat="45.56168" lon="6.58634">
        <ele>1658.9</ele>
        <time>2013-08-28T08:10:18Z</time>
      </trkpt>
      <trkpt lat="45.56169" lon="6.58626">
        <ele>1658.9</ele>
        <time>2013-08-28T08:10:19Z</time>
      </trkpt>
      <trkpt lat="45.5617" lon="6.58618">
        <ele>1657.9</ele>
        <time>2013-08-28T08:10:20Z</time>
      </trkpt>
      <trkpt lat="45.56168" lon="6.58611">
        <ele>1657.5</ele>
        <time>2013-08-28T08:10:21Z</time>
      </trkpt>
      <trkpt lat="45.56159" lon="6.58605">
        <ele>1656.5</ele>
        <time>2013-08-28T08:10:23Z</time>
      </trkpt>
      <trkpt lat="45.56156" lon="6.58607">
        <ele>1656</ele>
        <time>2013-08-28T08:10:24Z</time>
      </trkpt>
      <trkpt lat="45.56154" lon="6.58612">
        <ele>1654.6</ele>
        <time>2013-08-28T08:10:25Z</time>
      </trkpt>
      <trkpt lat="45.56151" lon="6.58625">
        <ele>1654.6</ele>
        <time>2013-08-28T08:10:27Z</time>
      </trkpt>
      <trkpt lat="45.56147" lon="6.58627">
        <ele>1653.1</ele>
        <time>2013-08-28T08:10:28Z</time>
      </trkpt>
      <trkpt lat="45.56143" lon="6.58626">
        <ele>1653.1</ele>
        <time>2013-08-28T08:10:29Z</time>
      </trkpt>
      <trkpt lat="45.56141" lon="6.58621">
        <ele>1651.7</ele>
        <time>2013-08-28T08:10:30Z</time>
      </trkpt>
      <trkpt lat="45.56141" lon="6.58614">
        <ele>1651.7</ele>
        <time>2013-08-28T08:10:31Z</time>
      </trkpt>
      <trkpt lat="45.5614" lon="6.58608">
        <ele>1651.7</ele>
        <time>2013-08-28T08:10:32Z</time>
      </trkpt>
      <trkpt lat="45.56138" lon="6.58603">
        <ele>1651.2</ele>
        <time>2013-08-28T08:10:33Z</time>
      </trkpt>
      <trkpt lat="45.56134" lon="6.58601">
        <ele>1649.8</ele>
        <time>2013-08-28T08:10:34Z</time>
      </trkpt>
      <trkpt lat="45.5613" lon="6.58603">
        <ele>1649.3</ele>
        <time>2013-08-28T08:10:35Z</time>
      </trkpt>
      <trkpt lat="45.56127" lon="6.58608">
        <ele>1648.3</ele>
        <time>2013-08-28T08:10:36Z</time>
      </trkpt>
      <trkpt lat="45.56122" lon="6.5862">
        <ele>1647.4</ele>
        <time>2013-08-28T08:10:38Z</time>
      </trkpt>
      <trkpt lat="45.56118" lon="6.58623">
        <ele>1646.9</ele>
        <time>2013-08-28T08:10:39Z</time>
      </trkpt>
      <trkpt lat="45.56114" lon="6.58622">
        <ele>1646.4</ele>
        <time>2013-08-28T08:10:40Z</time>
      </trkpt>
      <trkpt lat="45.56112" lon="6.58615">
        <ele>1645</ele>
        <time>2013-08-28T08:10:41Z</time>
      </trkpt>
      <trkpt lat="45.56115" lon="6.58605">
        <ele>1645</ele>
        <time>2013-08-28T08:10:43Z</time>
      </trkpt>
      <trkpt lat="45.56116" lon="6.58592">
        <ele>1643.5</ele>
        <time>2013-08-28T08:10:45Z</time>
      </trkpt>
      <trkpt lat="45.56113" lon="6.58589">
        <ele>1643</ele>
        <time>2013-08-28T08:10:46Z</time>
      </trkpt>
      <trkpt lat="45.5611" lon="6.58587">
        <ele>1643</ele>
        <time>2013-08-28T08:10:47Z</time>
      </trkpt>
      <trkpt lat="45.56107" lon="6.58586">
        <ele>1642.1</ele>
        <time>2013-08-28T08:10:48Z</time>
      </trkpt>
      <trkpt lat="45.56105" lon="6.58586">
        <ele>1641.6</ele>
        <time>2013-08-28T08:10:49Z</time>
      </trkpt>
      <trkpt lat="45.56101" lon="6.58592">
        <ele>1641.1</ele>
        <time>2013-08-28T08:11:06Z</time>
      </trkpt>
      <trkpt lat="45.56082" lon="6.58613">
        <ele>1639.2</ele>
        <time>2013-08-28T08:11:11Z</time>
      </trkpt>
      <trkpt lat="45.56076" lon="6.58618">
        <ele>1638.7</ele>
        <time>2013-08-28T08:11:12Z</time>
      </trkpt>
      <trkpt lat="45.56069" lon="6.58621">
        <ele>1637.3</ele>
        <time>2013-08-28T08:11:13Z</time>
      </trkpt>
      <trkpt lat="45.56051" lon="6.58628">
        <ele>1635.3</ele>
        <time>2013-08-28T08:11:16Z</time>
      </trkpt>
      <trkpt lat="45.56047" lon="6.58632">
        <ele>1634.4</ele>
        <time>2013-08-28T08:11:17Z</time>
      </trkpt>
      <trkpt lat="45.56043" lon="6.58636">
        <ele>1633.4</ele>
        <time>2013-08-28T08:11:18Z</time>
      </trkpt>
      <trkpt lat="45.56039" lon="6.58641">
        <ele>1633.4</ele>
        <time>2013-08-28T08:11:19Z</time>
      </trkpt>
      <trkpt lat="45.56035" lon="6.58646">
        <ele>1632.9</ele>
        <time>2013-08-28T08:11:20Z</time>
      </trkpt>
      <trkpt lat="45.5603" lon="6.58653">
        <ele>1632</ele>
        <time>2013-08-28T08:11:21Z</time>
      </trkpt>
      <trkpt lat="45.5601" lon="6.58684">
        <ele>1627.7</ele>
        <time>2013-08-28T08:11:25Z</time>
      </trkpt>
      <trkpt lat="45.55995" lon="6.58704">
        <ele>1625.3</ele>
        <time>2013-08-28T08:11:27Z</time>
      </trkpt>
      <trkpt lat="45.5599" lon="6.5871">
        <ele>1624.8</ele>
        <time>2013-08-28T08:11:28Z</time>
      </trkpt>
      <trkpt lat="45.55975" lon="6.58724">
        <ele>1623.8</ele>
        <time>2013-08-28T08:11:30Z</time>
      </trkpt>
      <trkpt lat="45.5593" lon="6.58755">
        <ele>1620.4</ele>
        <time>2013-08-28T08:11:36Z</time>
      </trkpt>
      <trkpt lat="45.55917" lon="6.58765">
        <ele>1618.5</ele>
        <time>2013-08-28T08:11:37Z</time>
      </trkpt>
      <trkpt lat="45.55892" lon="6.58783">
        <ele>1615.2</ele>
        <time>2013-08-28T08:11:40Z</time>
      </trkpt>
      <trkpt lat="45.55877" lon="6.58797">
        <ele>1612.3</ele>
        <time>2013-08-28T08:11:42Z</time>
      </trkpt>
      <trkpt lat="45.55855" lon="6.58818">
        <ele>1608.9</ele>
        <time>2013-08-28T08:11:45Z</time>
      </trkpt>
      <trkpt lat="45.55848" lon="6.58825">
        <ele>1607.9</ele>
        <time>2013-08-28T08:11:46Z</time>
      </trkpt>
      <trkpt lat="45.55834" lon="6.58846">
        <ele>1605.5</ele>
        <time>2013-08-28T08:11:49Z</time>
      </trkpt>
      <trkpt lat="45.55832" lon="6.58854">
        <ele>1604.1</ele>
        <time>2013-08-28T08:11:50Z</time>
      </trkpt>
      <trkpt lat="45.55829" lon="6.58862">
        <ele>1603.6</ele>
        <time>2013-08-28T08:11:51Z</time>
      </trkpt>
      <trkpt lat="45.55825" lon="6.5887">
        <ele>1602.7</ele>
        <time>2013-08-28T08:11:52Z</time>
      </trkpt>
      <trkpt lat="45.5582" lon="6.58876">
        <ele>1602.7</ele>
        <time>2013-08-28T08:11:53Z</time>
      </trkpt>
      <trkpt lat="45.55814" lon="6.58881">
        <ele>1601.7</ele>
        <time>2013-08-28T08:11:54Z</time>
      </trkpt>
      <trkpt lat="45.55807" lon="6.58886">
        <ele>1601.7</ele>
        <time>2013-08-28T08:11:55Z</time>
      </trkpt>
      <trkpt lat="45.55796" lon="6.58896">
        <ele>1598.3</ele>
        <time>2013-08-28T08:11:58Z</time>
      </trkpt>
      <trkpt lat="45.55796" lon="6.58897">
        <ele>1598.8</ele>
        <time>2013-08-28T08:11:59Z</time>
      </trkpt>
      <trkpt lat="45.55801" lon="6.58911">
        <ele>1600.3</ele>
        <time>2013-08-28T08:12:29Z</time>
      </trkpt>
      <trkpt lat="45.55804" lon="6.58915">
        <ele>1600.3</ele>
        <time>2013-08-28T08:12:42Z</time>
      </trkpt>
      <trkpt lat="45.55804" lon="6.58915">
        <ele>1600.7</ele>
        <time>2013-08-28T08:12:43Z</time>
      </trkpt>
      <trkpt lat="45.55803" lon="6.58916">
        <ele>1599.8</ele>
        <time>2013-08-28T08:12:44Z</time>
      </trkpt>
      <trkpt lat="45.55801" lon="6.58918">
        <ele>1598.3</ele>
        <time>2013-08-28T08:12:45Z</time>
      </trkpt>
      <trkpt lat="45.55801" lon="6.58919">
        <ele>1598.3</ele>
        <time>2013-08-28T08:12:46Z</time>
      </trkpt>
      <trkpt lat="45.55803" lon="6.58923">
        <ele>1597.9</ele>
        <time>2013-08-28T08:12:51Z</time>
      </trkpt>
      <trkpt lat="45.55793" lon="6.58931">
        <ele>1595.9</ele>
        <time>2013-08-28T08:12:55Z</time>
      </trkpt>
      <trkpt lat="45.5579" lon="6.58937">
        <ele>1594.5</ele>
        <time>2013-08-28T08:12:57Z</time>
      </trkpt>
      <trkpt lat="45.55788" lon="6.58944">
        <ele>1593.5</ele>
        <time>2013-08-28T08:12:59Z</time>
      </trkpt>
      <trkpt lat="45.55796" lon="6.58966">
        <ele>1588.7</ele>
        <time>2013-08-28T08:13:04Z</time>
      </trkpt>
      <trkpt lat="45.55799" lon="6.5897">
        <ele>1588.7</ele>
        <time>2013-08-28T08:13:05Z</time>
      </trkpt>
      <trkpt lat="45.55801" lon="6.58974">
        <ele>1587.8</ele>
        <time>2013-08-28T08:13:06Z</time>
      </trkpt>
      <trkpt lat="45.55805" lon="6.58982">
        <ele>1585.8</ele>
        <time>2013-08-28T08:13:08Z</time>
      </trkpt>
      <trkpt lat="45.55813" lon="6.58997">
        <ele>1583</ele>
        <time>2013-08-28T08:13:13Z</time>
      </trkpt>
      <trkpt lat="45.55817" lon="6.59003">
        <ele>1581.5</ele>
        <time>2013-08-28T08:13:16Z</time>
      </trkpt>
      <trkpt lat="45.55817" lon="6.59005">
        <ele>1581</ele>
        <time>2013-08-28T08:13:17Z</time>
      </trkpt>
      <trkpt lat="45.55818" lon="6.59008">
        <ele>1580.1</ele>
        <time>2013-08-28T08:13:18Z</time>
      </trkpt>
      <trkpt lat="45.5582" lon="6.59011">
        <ele>1579.6</ele>
        <time>2013-08-28T08:13:19Z</time>
      </trkpt>
      <trkpt lat="45.55821" lon="6.59013">
        <ele>1579.1</ele>
        <time>2013-08-28T08:13:20Z</time>
      </trkpt>
      <trkpt lat="45.55822" lon="6.59015">
        <ele>1578.1</ele>
        <time>2013-08-28T08:13:21Z</time>
      </trkpt>
      <trkpt lat="45.55832" lon="6.59025">
        <ele>1576.2</ele>
        <time>2013-08-28T08:13:30Z</time>
      </trkpt>
      <trkpt lat="45.55834" lon="6.59027">
        <ele>1576.2</ele>
        <time>2013-08-28T08:13:31Z</time>
      </trkpt>
      <trkpt lat="45.55836" lon="6.5903">
        <ele>1575.3</ele>
        <time>2013-08-28T08:13:32Z</time>
      </trkpt>
      <trkpt lat="45.55838" lon="6.59037">
        <ele>1573.8</ele>
        <time>2013-08-28T08:13:36Z</time>
      </trkpt>
      <trkpt lat="45.5584" lon="6.59041">
        <ele>1573.3</ele>
        <time>2013-08-28T08:13:49Z</time>
      </trkpt>
      <trkpt lat="45.55841" lon="6.59041">
        <ele>1573.3</ele>
        <time>2013-08-28T08:14:06Z</time>
      </trkpt>
      <trkpt lat="45.55834" lon="6.59037">
        <ele>1572.9</ele>
        <time>2013-08-28T08:14:44Z</time>
      </trkpt>
      <trkpt lat="45.55835" lon="6.5904">
        <ele>1572.4</ele>
        <time>2013-08-28T08:15:00Z</time>
      </trkpt>
      <trkpt lat="45.55833" lon="6.5904">
        <ele>1571.9</ele>
        <time>2013-08-28T08:15:01Z</time>
      </trkpt>
      <trkpt lat="45.55832" lon="6.59039">
        <ele>1571.4</ele>
        <time>2013-08-28T08:15:02Z</time>
      </trkpt>
      <trkpt lat="45.55831" lon="6.59038">
        <ele>1571.9</ele>
        <time>2013-08-28T08:15:03Z</time>
      </trkpt>
      <trkpt lat="45.5583" lon="6.59038">
        <ele>1570.9</ele>
        <time>2013-08-28T08:15:04Z</time>
      </trkpt>
      <trkpt lat="45.55829" lon="6.59038">
        <ele>1570.5</ele>
        <time>2013-08-28T08:15:05Z</time>
      </trkpt>
      <trkpt lat="45.55816" lon="6.59033">
        <ele>1566.1</ele>
        <time>2013-08-28T08:15:10Z</time>
      </trkpt>
      <trkpt lat="45.55799" lon="6.59025">
        <ele>1562.8</ele>
        <time>2013-08-28T08:15:16Z</time>
      </trkpt>
      <trkpt lat="45.55797" lon="6.59022">
        <ele>1562.8</ele>
        <time>2013-08-28T08:15:17Z</time>
      </trkpt>
      <trkpt lat="45.5578" lon="6.59011">
        <ele>1558.9</ele>
        <time>2013-08-28T08:15:23Z</time>
      </trkpt>
      <trkpt lat="45.55777" lon="6.59011">
        <ele>1558.9</ele>
        <time>2013-08-28T08:15:24Z</time>
      </trkpt>
      <trkpt lat="45.55765" lon="6.59007">
        <ele>1556</ele>
        <time>2013-08-28T08:15:28Z</time>
      </trkpt>
      <trkpt lat="45.55763" lon="6.59005">
        <ele>1556</ele>
        <time>2013-08-28T08:15:29Z</time>
      </trkpt>
      <trkpt lat="45.55762" lon="6.59004">
        <ele>1554.6</ele>
        <time>2013-08-28T08:15:30Z</time>
      </trkpt>
      <trkpt lat="45.5576" lon="6.59002">
        <ele>1553.6</ele>
        <time>2013-08-28T08:15:31Z</time>
      </trkpt>
      <trkpt lat="45.55758" lon="6.59001">
        <ele>1552.7</ele>
        <time>2013-08-28T08:15:32Z</time>
      </trkpt>
      <trkpt lat="45.55757" lon="6.58999">
        <ele>1552.2</ele>
        <time>2013-08-28T08:15:33Z</time>
      </trkpt>
      <trkpt lat="45.55755" lon="6.58997">
        <ele>1550.7</ele>
        <time>2013-08-28T08:15:34Z</time>
      </trkpt>
      <trkpt lat="45.55753" lon="6.58994">
        <ele>1550.7</ele>
        <time>2013-08-28T08:15:35Z</time>
      </trkpt>
      <trkpt lat="45.55751" lon="6.5899">
        <ele>1550.3</ele>
        <time>2013-08-28T08:15:36Z</time>
      </trkpt>
      <trkpt lat="45.55749" lon="6.58987">
        <ele>1549.3</ele>
        <time>2013-08-28T08:15:37Z</time>
      </trkpt>
      <trkpt lat="45.55746" lon="6.58985">
        <ele>1548.3</ele>
        <time>2013-08-28T08:15:38Z</time>
      </trkpt>
      <trkpt lat="45.55744" lon="6.58983">
        <ele>1547.4</ele>
        <time>2013-08-28T08:15:39Z</time>
      </trkpt>
      <trkpt lat="45.5574" lon="6.58982">
        <ele>1545.9</ele>
        <time>2013-08-28T08:15:40Z</time>
      </trkpt>
      <trkpt lat="45.55726" lon="6.58971">
        <ele>1542.1</ele>
        <time>2013-08-28T08:15:44Z</time>
      </trkpt>
      <trkpt lat="45.55713" lon="6.58955">
        <ele>1539.2</ele>
        <time>2013-08-28T08:15:48Z</time>
      </trkpt>
      <trkpt lat="45.55702" lon="6.58932">
        <ele>1535.8</ele>
        <time>2013-08-28T08:15:54Z</time>
      </trkpt>
      <trkpt lat="45.55703" lon="6.58929">
        <ele>1534.9</ele>
        <time>2013-08-28T08:15:56Z</time>
      </trkpt>
      <trkpt lat="45.55705" lon="6.58926">
        <ele>1533.9</ele>
        <time>2013-08-28T08:16:00Z</time>
      </trkpt>
      <trkpt lat="45.55708" lon="6.58919">
        <ele>1533</ele>
        <time>2013-08-28T08:16:03Z</time>
      </trkpt>
      <trkpt lat="45.55715" lon="6.58906">
        <ele>1529.1</ele>
        <time>2013-08-28T08:16:07Z</time>
      </trkpt>
      <trkpt lat="45.55719" lon="6.58901">
        <ele>1527.7</ele>
        <time>2013-08-28T08:16:10Z</time>
      </trkpt>
      <trkpt lat="45.55728" lon="6.58889">
        <ele>1525.3</ele>
        <time>2013-08-28T08:16:24Z</time>
      </trkpt>
      <trkpt lat="45.55733" lon="6.5888">
        <ele>1522.4</ele>
        <time>2013-08-28T08:16:38Z</time>
      </trkpt>
      <trkpt lat="45.55738" lon="6.5887">
        <ele>1520</ele>
        <time>2013-08-28T08:16:49Z</time>
      </trkpt>
      <trkpt lat="45.55739" lon="6.58868">
        <ele>1520</ele>
        <time>2013-08-28T08:16:50Z</time>
      </trkpt>
      <trkpt lat="45.55741" lon="6.58859">
        <ele>1518.5</ele>
        <time>2013-08-28T08:16:58Z</time>
      </trkpt>
      <trkpt lat="45.55742" lon="6.58857">
        <ele>1518.1</ele>
        <time>2013-08-28T08:16:59Z</time>
      </trkpt>
      <trkpt lat="45.55745" lon="6.58853">
        <ele>1516.6</ele>
        <time>2013-08-28T08:17:12Z</time>
      </trkpt>
      <trkpt lat="45.55745" lon="6.58844">
        <ele>1516.1</ele>
        <time>2013-08-28T08:17:28Z</time>
      </trkpt>
      <trkpt lat="45.55745" lon="6.58841">
        <ele>1515.7</ele>
        <time>2013-08-28T08:17:29Z</time>
      </trkpt>
      <trkpt lat="45.55746" lon="6.58838">
        <ele>1515.2</ele>
        <time>2013-08-28T08:17:30Z</time>
      </trkpt>
      <trkpt lat="45.55747" lon="6.58835">
        <ele>1514.7</ele>
        <time>2013-08-28T08:17:31Z</time>
      </trkpt>
      <trkpt lat="45.55745" lon="6.58827">
        <ele>1512.3</ele>
        <time>2013-08-28T08:17:44Z</time>
      </trkpt>
      <trkpt lat="45.55744" lon="6.58829">
        <ele>1512.3</ele>
        <time>2013-08-28T08:17:48Z</time>
      </trkpt>
      <trkpt lat="45.55742" lon="6.5883">
        <ele>1511.8</ele>
        <time>2013-08-28T08:17:49Z</time>
      </trkpt>
      <trkpt lat="45.5574" lon="6.58832">
        <ele>1511.3</ele>
        <time>2013-08-28T08:17:50Z</time>
      </trkpt>
      <trkpt lat="45.55738" lon="6.58834">
        <ele>1510.4</ele>
        <time>2013-08-28T08:17:51Z</time>
      </trkpt>
      <trkpt lat="45.55736" lon="6.58837">
        <ele>1509.4</ele>
        <time>2013-08-28T08:17:52Z</time>
      </trkpt>
      <trkpt lat="45.55734" lon="6.58839">
        <ele>1509.4</ele>
        <time>2013-08-28T08:17:53Z</time>
      </trkpt>
      <trkpt lat="45.55721" lon="6.58843">
        <ele>1506</ele>
        <time>2013-08-28T08:17:57Z</time>
      </trkpt>
      <trkpt lat="45.55715" lon="6.58844">
        <ele>1505.1</ele>
        <time>2013-08-28T08:17:59Z</time>
      </trkpt>
      <trkpt lat="45.55706" lon="6.58847">
        <ele>1501.7</ele>
        <time>2013-08-28T08:18:02Z</time>
      </trkpt>
      <trkpt lat="45.55692" lon="6.58853">
        <ele>1499.3</ele>
        <time>2013-08-28T08:18:06Z</time>
      </trkpt>
      <trkpt lat="45.55682" lon="6.58856">
        <ele>1498.4</ele>
        <time>2013-08-28T08:18:09Z</time>
      </trkpt>
      <trkpt lat="45.55667" lon="6.58861">
        <ele>1495.5</ele>
        <time>2013-08-28T08:18:13Z</time>
      </trkpt>
      <trkpt lat="45.55658" lon="6.58862">
        <ele>1493.6</ele>
        <time>2013-08-28T08:18:16Z</time>
      </trkpt>
      <trkpt lat="45.55654" lon="6.58863">
        <ele>1492.6</ele>
        <time>2013-08-28T08:18:17Z</time>
      </trkpt>
      <trkpt lat="45.55642" lon="6.58868">
        <ele>1489.7</ele>
        <time>2013-08-28T08:18:20Z</time>
      </trkpt>
      <trkpt lat="45.55631" lon="6.58876">
        <ele>1486.3</ele>
        <time>2013-08-28T08:18:24Z</time>
      </trkpt>
      <trkpt lat="45.55624" lon="6.58882">
        <ele>1483</ele>
        <time>2013-08-28T08:18:27Z</time>
      </trkpt>
      <trkpt lat="45.55614" lon="6.58885">
        <ele>1479.6</ele>
        <time>2013-08-28T08:18:31Z</time>
      </trkpt>
      <trkpt lat="45.55611" lon="6.58889">
        <ele>1478.7</ele>
        <time>2013-08-28T08:18:33Z</time>
      </trkpt>
      <trkpt lat="45.55609" lon="6.58895">
        <ele>1477.2</ele>
        <time>2013-08-28T08:18:37Z</time>
      </trkpt>
      <trkpt lat="45.55607" lon="6.58903">
        <ele>1475.3</ele>
        <time>2013-08-28T08:18:39Z</time>
      </trkpt>
      <trkpt lat="45.55609" lon="6.58909">
        <ele>1474.3</ele>
        <time>2013-08-28T08:18:41Z</time>
      </trkpt>
      <trkpt lat="45.5561" lon="6.58916">
        <ele>1473.8</ele>
        <time>2013-08-28T08:18:50Z</time>
      </trkpt>
      <trkpt lat="45.55611" lon="6.58918">
        <ele>1473.8</ele>
        <time>2013-08-28T08:18:51Z</time>
      </trkpt>
      <trkpt lat="45.55616" lon="6.5893">
        <ele>1473.4</ele>
        <time>2013-08-28T08:18:53Z</time>
      </trkpt>
      <trkpt lat="45.55617" lon="6.58932">
        <ele>1473.4</ele>
        <time>2013-08-28T08:18:54Z</time>
      </trkpt>
      <trkpt lat="45.55618" lon="6.58935">
        <ele>1472.9</ele>
        <time>2013-08-28T08:18:55Z</time>
      </trkpt>
      <trkpt lat="45.5562" lon="6.58937">
        <ele>1472.4</ele>
        <time>2013-08-28T08:18:56Z</time>
      </trkpt>
      <trkpt lat="45.55621" lon="6.5894">
        <ele>1471.9</ele>
        <time>2013-08-28T08:18:57Z</time>
      </trkpt>
      <trkpt lat="45.55622" lon="6.58942">
        <ele>1471.4</ele>
        <time>2013-08-28T08:18:58Z</time>
      </trkpt>
      <trkpt lat="45.55622" lon="6.58953">
        <ele>1469</ele>
        <time>2013-08-28T08:19:04Z</time>
      </trkpt>
      <trkpt lat="45.55621" lon="6.58957">
        <ele>1468.6</ele>
        <time>2013-08-28T08:19:05Z</time>
      </trkpt>
      <trkpt lat="45.55621" lon="6.5896">
        <ele>1468.6</ele>
        <time>2013-08-28T08:19:06Z</time>
      </trkpt>
      <trkpt lat="45.55622" lon="6.58964">
        <ele>1468.1</ele>
        <time>2013-08-28T08:19:07Z</time>
      </trkpt>
      <trkpt lat="45.55623" lon="6.58967">
        <ele>1467.6</ele>
        <time>2013-08-28T08:19:08Z</time>
      </trkpt>
      <trkpt lat="45.55623" lon="6.58971">
        <ele>1466.6</ele>
        <time>2013-08-28T08:19:09Z</time>
      </trkpt>
      <trkpt lat="45.55625" lon="6.58974">
        <ele>1466.2</ele>
        <time>2013-08-28T08:19:10Z</time>
      </trkpt>
      <trkpt lat="45.55627" lon="6.58977">
        <ele>1465.7</ele>
        <time>2013-08-28T08:19:11Z</time>
      </trkpt>
      <trkpt lat="45.55634" lon="6.58996">
        <ele>1461.8</ele>
        <time>2013-08-28T08:19:20Z</time>
      </trkpt>
      <trkpt lat="45.55636" lon="6.59">
        <ele>1461.3</ele>
        <time>2013-08-28T08:19:21Z</time>
      </trkpt>
      <trkpt lat="45.55638" lon="6.59004">
        <ele>1460.9</ele>
        <time>2013-08-28T08:19:22Z</time>
      </trkpt>
      <trkpt lat="45.55639" lon="6.59007">
        <ele>1460.4</ele>
        <time>2013-08-28T08:19:23Z</time>
      </trkpt>
      <trkpt lat="45.55641" lon="6.5901">
        <ele>1460.4</ele>
        <time>2013-08-28T08:19:24Z</time>
      </trkpt>
      <trkpt lat="45.5565" lon="6.59027">
        <ele>1457</ele>
        <time>2013-08-28T08:19:29Z</time>
      </trkpt>
      <trkpt lat="45.55653" lon="6.59034">
        <ele>1456.1</ele>
        <time>2013-08-28T08:19:31Z</time>
      </trkpt>
      <trkpt lat="45.55654" lon="6.59038">
        <ele>1455.1</ele>
        <time>2013-08-28T08:19:32Z</time>
      </trkpt>
      <trkpt lat="45.55655" lon="6.59043">
        <ele>1454.6</ele>
        <time>2013-08-28T08:19:33Z</time>
      </trkpt>
      <trkpt lat="45.55656" lon="6.59047">
        <ele>1454.1</ele>
        <time>2013-08-28T08:19:34Z</time>
      </trkpt>
      <trkpt lat="45.55661" lon="6.59063">
        <ele>1451.7</ele>
        <time>2013-08-28T08:19:38Z</time>
      </trkpt>
      <trkpt lat="45.55661" lon="6.59069">
        <ele>1451.3</ele>
        <time>2013-08-28T08:19:39Z</time>
      </trkpt>
      <trkpt lat="45.55661" lon="6.59075">
        <ele>1450.3</ele>
        <time>2013-08-28T08:19:40Z</time>
      </trkpt>
      <trkpt lat="45.55654" lon="6.59107">
        <ele>1446.4</ele>
        <time>2013-08-28T08:19:46Z</time>
      </trkpt>
      <trkpt lat="45.55651" lon="6.59119">
        <ele>1445.5</ele>
        <time>2013-08-28T08:19:49Z</time>
      </trkpt>
      <trkpt lat="45.5565" lon="6.59124">
        <ele>1444.5</ele>
        <time>2013-08-28T08:19:50Z</time>
      </trkpt>
      <trkpt lat="45.5565" lon="6.59132">
        <ele>1444</ele>
        <time>2013-08-28T08:19:51Z</time>
      </trkpt>
      <trkpt lat="45.55649" lon="6.59139">
        <ele>1443.1</ele>
        <time>2013-08-28T08:19:52Z</time>
      </trkpt>
      <trkpt lat="45.55648" lon="6.59144">
        <ele>1442.6</ele>
        <time>2013-08-28T08:19:53Z</time>
      </trkpt>
      <trkpt lat="45.55646" lon="6.59151">
        <ele>1441.6</ele>
        <time>2013-08-28T08:19:54Z</time>
      </trkpt>
      <trkpt lat="45.55644" lon="6.59157">
        <ele>1441.2</ele>
        <time>2013-08-28T08:19:55Z</time>
      </trkpt>
      <trkpt lat="45.55641" lon="6.59164">
        <ele>1440.2</ele>
        <time>2013-08-28T08:19:56Z</time>
      </trkpt>
      <trkpt lat="45.5564" lon="6.59192">
        <ele>1437.3</ele>
        <time>2013-08-28T08:20:01Z</time>
      </trkpt>
      <trkpt lat="45.55641" lon="6.59195">
        <ele>1436.8</ele>
        <time>2013-08-28T08:20:02Z</time>
      </trkpt>
      <trkpt lat="45.55642" lon="6.59199">
        <ele>1436.4</ele>
        <time>2013-08-28T08:20:03Z</time>
      </trkpt>
      <trkpt lat="45.55642" lon="6.59204">
        <ele>1435.4</ele>
        <time>2013-08-28T08:20:04Z</time>
      </trkpt>
      <trkpt lat="45.55639" lon="6.59217">
        <ele>1434.9</ele>
        <time>2013-08-28T08:20:06Z</time>
      </trkpt>
      <trkpt lat="45.55638" lon="6.59224">
        <ele>1434.9</ele>
        <time>2013-08-28T08:20:07Z</time>
      </trkpt>
      <trkpt lat="45.55637" lon="6.5923">
        <ele>1433.9</ele>
        <time>2013-08-28T08:20:08Z</time>
      </trkpt>
      <trkpt lat="45.55639" lon="6.59248">
        <ele>1432</ele>
        <time>2013-08-28T08:20:11Z</time>
      </trkpt>
      <trkpt lat="45.55638" lon="6.59253">
        <ele>1431.1</ele>
        <time>2013-08-28T08:20:12Z</time>
      </trkpt>
      <trkpt lat="45.55633" lon="6.59278">
        <ele>1427.7</ele>
        <time>2013-08-28T08:20:17Z</time>
      </trkpt>
      <trkpt lat="45.55632" lon="6.59282">
        <ele>1427.2</ele>
        <time>2013-08-28T08:20:18Z</time>
      </trkpt>
      <trkpt lat="45.5563" lon="6.5929">
        <ele>1426.7</ele>
        <time>2013-08-28T08:20:24Z</time>
      </trkpt>
      <trkpt lat="45.55634" lon="6.59285">
        <ele>1426.3</ele>
        <time>2013-08-28T08:20:34Z</time>
      </trkpt>
      <trkpt lat="45.55636" lon="6.59285">
        <ele>1426.3</ele>
        <time>2013-08-28T08:20:38Z</time>
      </trkpt>
      <trkpt lat="45.5563" lon="6.59272">
        <ele>1424.8</ele>
        <time>2013-08-28T08:20:43Z</time>
      </trkpt>
      <trkpt lat="45.55623" lon="6.59249">
        <ele>1422.9</ele>
        <time>2013-08-28T08:20:47Z</time>
      </trkpt>
      <trkpt lat="45.55621" lon="6.59243">
        <ele>1421.9</ele>
        <time>2013-08-28T08:20:48Z</time>
      </trkpt>
      <trkpt lat="45.5562" lon="6.59237">
        <ele>1421.9</ele>
        <time>2013-08-28T08:20:49Z</time>
      </trkpt>
      <trkpt lat="45.5561" lon="6.59216">
        <ele>1418.6</ele>
        <time>2013-08-28T08:20:54Z</time>
      </trkpt>
      <trkpt lat="45.55605" lon="6.59207">
        <ele>1417.6</ele>
        <time>2013-08-28T08:20:56Z</time>
      </trkpt>
      <trkpt lat="45.55604" lon="6.59203">
        <ele>1416.6</ele>
        <time>2013-08-28T08:20:57Z</time>
      </trkpt>
      <trkpt lat="45.55603" lon="6.59197">
        <ele>1416.2</ele>
        <time>2013-08-28T08:20:58Z</time>
      </trkpt>
      <trkpt lat="45.55601" lon="6.59181">
        <ele>1415.2</ele>
        <time>2013-08-28T08:21:01Z</time>
      </trkpt>
      <trkpt lat="45.55599" lon="6.59175">
        <ele>1414.2</ele>
        <time>2013-08-28T08:21:02Z</time>
      </trkpt>
      <trkpt lat="45.55598" lon="6.59168">
        <ele>1413.3</ele>
        <time>2013-08-28T08:21:03Z</time>
      </trkpt>
      <trkpt lat="45.55594" lon="6.59149">
        <ele>1411.8</ele>
        <time>2013-08-28T08:21:06Z</time>
      </trkpt>
      <trkpt lat="45.5559" lon="6.59128">
        <ele>1409.4</ele>
        <time>2013-08-28T08:21:11Z</time>
      </trkpt>
      <trkpt lat="45.55589" lon="6.59126">
        <ele>1408.5</ele>
        <time>2013-08-28T08:21:18Z</time>
      </trkpt>
      <trkpt lat="45.55589" lon="6.59127">
        <ele>1408.5</ele>
        <time>2013-08-28T08:21:19Z</time>
      </trkpt>
      <trkpt lat="45.55589" lon="6.59136">
        <ele>1407.5</ele>
        <time>2013-08-28T08:21:26Z</time>
      </trkpt>
      <trkpt lat="45.55582" lon="6.5915">
        <ele>1405.6</ele>
        <time>2013-08-28T08:21:30Z</time>
      </trkpt>
      <trkpt lat="45.55577" lon="6.59161">
        <ele>1404.1</ele>
        <time>2013-08-28T08:21:33Z</time>
      </trkpt>
      <trkpt lat="45.55567" lon="6.59174">
        <ele>1401.3</ele>
        <time>2013-08-28T08:21:37Z</time>
      </trkpt>
      <trkpt lat="45.55554" lon="6.59196">
        <ele>1397.9</ele>
        <time>2013-08-28T08:21:43Z</time>
      </trkpt>
      <trkpt lat="45.55552" lon="6.59226">
        <ele>1394.5</ele>
        <time>2013-08-28T08:21:49Z</time>
      </trkpt>
      <trkpt lat="45.55545" lon="6.59247">
        <ele>1391.7</ele>
        <time>2013-08-28T08:21:54Z</time>
      </trkpt>
      <trkpt lat="45.55549" lon="6.59266">
        <ele>1388.8</ele>
        <time>2013-08-28T08:21:59Z</time>
      </trkpt>
      <trkpt lat="45.55551" lon="6.5927">
        <ele>1388.3</ele>
        <time>2013-08-28T08:22:00Z</time>
      </trkpt>
      <trkpt lat="45.5556" lon="6.59285">
        <ele>1385.4</ele>
        <time>2013-08-28T08:22:07Z</time>
      </trkpt>
      <trkpt lat="45.55559" lon="6.593">
        <ele>1383</ele>
        <time>2013-08-28T08:22:12Z</time>
      </trkpt>
      <trkpt lat="45.55562" lon="6.59309">
        <ele>1383</ele>
        <time>2013-08-28T08:22:35Z</time>
      </trkpt>
      <trkpt lat="45.55566" lon="6.59318">
        <ele>1384.4</ele>
        <time>2013-08-28T08:23:08Z</time>
      </trkpt>
      <trkpt lat="45.55565" lon="6.59325">
        <ele>1384.9</ele>
        <time>2013-08-28T08:23:39Z</time>
      </trkpt>
      <trkpt lat="45.55569" lon="6.59326">
        <ele>1384.9</ele>
        <time>2013-08-28T08:24:02Z</time>
      </trkpt>
      <trkpt lat="45.55571" lon="6.59326">
        <ele>1384.9</ele>
        <time>2013-08-28T08:24:06Z</time>
      </trkpt>
      <trkpt lat="45.55575" lon="6.59318">
        <ele>1384.4</ele>
        <time>2013-08-28T08:24:10Z</time>
      </trkpt>
      <trkpt lat="45.55575" lon="6.59306">
        <ele>1384.4</ele>
        <time>2013-08-28T08:24:15Z</time>
      </trkpt>
      <trkpt lat="45.55572" lon="6.59303">
        <ele>1384.4</ele>
        <time>2013-08-28T08:24:16Z</time>
      </trkpt>
      <trkpt lat="45.55563" lon="6.59293">
        <ele>1382</ele>
        <time>2013-08-28T08:24:20Z</time>
      </trkpt>
      <trkpt lat="45.55552" lon="6.59275">
        <ele>1378.7</ele>
        <time>2013-08-28T08:24:26Z</time>
      </trkpt>
      <trkpt lat="45.55547" lon="6.59266">
        <ele>1377.2</ele>
        <time>2013-08-28T08:24:29Z</time>
      </trkpt>
      <trkpt lat="45.55547" lon="6.59263">
        <ele>1376.8</ele>
        <time>2013-08-28T08:24:30Z</time>
      </trkpt>
      <trkpt lat="45.55545" lon="6.59258">
        <ele>1375.3</ele>
        <time>2013-08-28T08:24:31Z</time>
      </trkpt>
      <trkpt lat="45.55544" lon="6.59253">
        <ele>1375.3</ele>
        <time>2013-08-28T08:24:32Z</time>
      </trkpt>
      <trkpt lat="45.5554" lon="6.59244">
        <ele>1373.9</ele>
        <time>2013-08-28T08:24:34Z</time>
      </trkpt>
      <trkpt lat="45.55536" lon="6.59238">
        <ele>1372.4</ele>
        <time>2013-08-28T08:24:35Z</time>
      </trkpt>
      <trkpt lat="45.55525" lon="6.59205">
        <ele>1369.1</ele>
        <time>2013-08-28T08:24:41Z</time>
      </trkpt>
      <trkpt lat="45.55523" lon="6.59191">
        <ele>1367.6</ele>
        <time>2013-08-28T08:24:44Z</time>
      </trkpt>
      <trkpt lat="45.55525" lon="6.59156">
        <ele>1364.3</ele>
        <time>2013-08-28T08:24:50Z</time>
      </trkpt>
      <trkpt lat="45.55526" lon="6.59135">
        <ele>1362.8</ele>
        <time>2013-08-28T08:24:54Z</time>
      </trkpt>
      <trkpt lat="45.55527" lon="6.59123">
        <ele>1361.4</ele>
        <time>2013-08-28T08:24:57Z</time>
      </trkpt>
      <trkpt lat="45.55526" lon="6.59119">
        <ele>1360.4</ele>
        <time>2013-08-28T08:24:58Z</time>
      </trkpt>
      <trkpt lat="45.55524" lon="6.59116">
        <ele>1359.9</ele>
        <time>2013-08-28T08:24:59Z</time>
      </trkpt>
      <trkpt lat="45.55515" lon="6.59104">
        <ele>1356.6</ele>
        <time>2013-08-28T08:25:04Z</time>
      </trkpt>
      <trkpt lat="45.55506" lon="6.59099">
        <ele>1354.6</ele>
        <time>2013-08-28T08:25:07Z</time>
      </trkpt>
      <trkpt lat="45.555" lon="6.59097">
        <ele>1353.2</ele>
        <time>2013-08-28T08:25:09Z</time>
      </trkpt>
      <trkpt lat="45.55489" lon="6.591">
        <ele>1349.8</ele>
        <time>2013-08-28T08:25:12Z</time>
      </trkpt>
      <trkpt lat="45.55486" lon="6.59102">
        <ele>1348.9</ele>
        <time>2013-08-28T08:25:13Z</time>
      </trkpt>
      <trkpt lat="45.55472" lon="6.59105">
        <ele>1345</ele>
        <time>2013-08-28T08:25:17Z</time>
      </trkpt>
      <trkpt lat="45.55457" lon="6.59117">
        <ele>1342.1</ele>
        <time>2013-08-28T08:25:21Z</time>
      </trkpt>
      <trkpt lat="45.55445" lon="6.59128">
        <ele>1338.3</ele>
        <time>2013-08-28T08:25:24Z</time>
      </trkpt>
      <trkpt lat="45.55443" lon="6.59133">
        <ele>1338.3</ele>
        <time>2013-08-28T08:25:25Z</time>
      </trkpt>
      <trkpt lat="45.55441" lon="6.59138">
        <ele>1336.9</ele>
        <time>2013-08-28T08:25:26Z</time>
      </trkpt>
      <trkpt lat="45.55438" lon="6.59141">
        <ele>1335.4</ele>
        <time>2013-08-28T08:25:28Z</time>
      </trkpt>
      <trkpt lat="45.55438" lon="6.59143">
        <ele>1334.9</ele>
        <time>2013-08-28T08:25:29Z</time>
      </trkpt>
      <trkpt lat="45.55443" lon="6.59143">
        <ele>1334.9</ele>
        <time>2013-08-28T08:25:40Z</time>
      </trkpt>
      <trkpt lat="45.55445" lon="6.59146">
        <ele>1334.9</ele>
        <time>2013-08-28T08:26:05Z</time>
      </trkpt>
      <trkpt lat="45.55446" lon="6.59143">
        <ele>1334.9</ele>
        <time>2013-08-28T08:26:31Z</time>
      </trkpt>
      <trkpt lat="45.55443" lon="6.59143">
        <ele>1334.5</ele>
        <time>2013-08-28T08:26:34Z</time>
      </trkpt>
      <trkpt lat="45.55443" lon="6.59149">
        <ele>1334.5</ele>
        <time>2013-08-28T08:26:37Z</time>
      </trkpt>
      <trkpt lat="45.55443" lon="6.59153">
        <ele>1334</ele>
        <time>2013-08-28T08:26:38Z</time>
      </trkpt>
      <trkpt lat="45.55442" lon="6.59159">
        <ele>1334</ele>
        <time>2013-08-28T08:26:39Z</time>
      </trkpt>
      <trkpt lat="45.55439" lon="6.59176">
        <ele>1332.5</ele>
        <time>2013-08-28T08:26:42Z</time>
      </trkpt>
      <trkpt lat="45.55439" lon="6.59181">
        <ele>1332</ele>
        <time>2013-08-28T08:26:43Z</time>
      </trkpt>
      <trkpt lat="45.55439" lon="6.59187">
        <ele>1331.6</ele>
        <time>2013-08-28T08:26:44Z</time>
      </trkpt>
      <trkpt lat="45.5544" lon="6.59194">
        <ele>1330.6</ele>
        <time>2013-08-28T08:26:45Z</time>
      </trkpt>
      <trkpt lat="45.55441" lon="6.59201">
        <ele>1330.6</ele>
        <time>2013-08-28T08:26:46Z</time>
      </trkpt>
      <trkpt lat="45.55442" lon="6.59208">
        <ele>1329.6</ele>
        <time>2013-08-28T08:26:47Z</time>
      </trkpt>
      <trkpt lat="45.55448" lon="6.59225">
        <ele>1327.7</ele>
        <time>2013-08-28T08:26:49Z</time>
      </trkpt>
      <trkpt lat="45.55461" lon="6.59252">
        <ele>1324.8</ele>
        <time>2013-08-28T08:26:53Z</time>
      </trkpt>
      <trkpt lat="45.55463" lon="6.59259">
        <ele>1324.4</ele>
        <time>2013-08-28T08:26:54Z</time>
      </trkpt>
      <trkpt lat="45.55464" lon="6.59266">
        <ele>1323.4</ele>
        <time>2013-08-28T08:26:55Z</time>
      </trkpt>
      <trkpt lat="45.55464" lon="6.59281">
        <ele>1322</ele>
        <time>2013-08-28T08:26:57Z</time>
      </trkpt>
      <trkpt lat="45.55464" lon="6.59287">
        <ele>1321.5</ele>
        <time>2013-08-28T08:26:58Z</time>
      </trkpt>
      <trkpt lat="45.55468" lon="6.59302">
        <ele>1319.1</ele>
        <time>2013-08-28T08:27:01Z</time>
      </trkpt>
      <trkpt lat="45.55468" lon="6.59308">
        <ele>1318.1</ele>
        <time>2013-08-28T08:27:02Z</time>
      </trkpt>
      <trkpt lat="45.55468" lon="6.59313">
        <ele>1317.1</ele>
        <time>2013-08-28T08:27:03Z</time>
      </trkpt>
      <trkpt lat="45.55468" lon="6.59321">
        <ele>1317.1</ele>
        <time>2013-08-28T08:27:05Z</time>
      </trkpt>
      <trkpt lat="45.55468" lon="6.59322">
        <ele>1316.7</ele>
        <time>2013-08-28T08:27:06Z</time>
      </trkpt>
      <trkpt lat="45.55467" lon="6.59322">
        <ele>1316.7</ele>
        <time>2013-08-28T08:27:07Z</time>
      </trkpt>
      <trkpt lat="45.55466" lon="6.59321">
        <ele>1315.7</ele>
        <time>2013-08-28T08:27:08Z</time>
      </trkpt>
      <trkpt lat="45.55464" lon="6.59319">
        <ele>1315.2</ele>
        <time>2013-08-28T08:27:09Z</time>
      </trkpt>
      <trkpt lat="45.55463" lon="6.59317">
        <ele>1314.7</ele>
        <time>2013-08-28T08:27:10Z</time>
      </trkpt>
      <trkpt lat="45.55462" lon="6.59316">
        <ele>1314.3</ele>
        <time>2013-08-28T08:27:11Z</time>
      </trkpt>
      <trkpt lat="45.5546" lon="6.59316">
        <ele>1314.3</ele>
        <time>2013-08-28T08:27:12Z</time>
      </trkpt>
      <trkpt lat="45.55457" lon="6.59316">
        <ele>1313.8</ele>
        <time>2013-08-28T08:27:13Z</time>
      </trkpt>
      <trkpt lat="45.55455" lon="6.59316">
        <ele>1313.3</ele>
        <time>2013-08-28T08:27:14Z</time>
      </trkpt>
      <trkpt lat="45.55449" lon="6.59315">
        <ele>1312.3</ele>
        <time>2013-08-28T08:27:16Z</time>
      </trkpt>
      <trkpt lat="45.55432" lon="6.59306">
        <ele>1309.9</ele>
        <time>2013-08-28T08:27:22Z</time>
      </trkpt>
      <trkpt lat="45.55429" lon="6.59305">
        <ele>1309.5</ele>
        <time>2013-08-28T08:27:23Z</time>
      </trkpt>
      <trkpt lat="45.55426" lon="6.59304">
        <ele>1308</ele>
        <time>2013-08-28T08:27:24Z</time>
      </trkpt>
      <trkpt lat="45.55424" lon="6.59304">
        <ele>1308</ele>
        <time>2013-08-28T08:27:25Z</time>
      </trkpt>
      <trkpt lat="45.55421" lon="6.59303">
        <ele>1307.5</ele>
        <time>2013-08-28T08:27:26Z</time>
      </trkpt>
      <trkpt lat="45.55419" lon="6.59302">
        <ele>1306.1</ele>
        <time>2013-08-28T08:27:27Z</time>
      </trkpt>
      <trkpt lat="45.55417" lon="6.593">
        <ele>1305.1</ele>
        <time>2013-08-28T08:27:29Z</time>
      </trkpt>
      <trkpt lat="45.55422" lon="6.59281">
        <ele>1302.2</ele>
        <time>2013-08-28T08:27:35Z</time>
      </trkpt>
      <trkpt lat="45.55414" lon="6.59272">
        <ele>1299.8</ele>
        <time>2013-08-28T08:27:39Z</time>
      </trkpt>
      <trkpt lat="45.5541" lon="6.59271">
        <ele>1299.8</ele>
        <time>2013-08-28T08:27:40Z</time>
      </trkpt>
      <trkpt lat="45.55407" lon="6.5927">
        <ele>1298.4</ele>
        <time>2013-08-28T08:27:41Z</time>
      </trkpt>
      <trkpt lat="45.55404" lon="6.59268">
        <ele>1298.4</ele>
        <time>2013-08-28T08:27:42Z</time>
      </trkpt>
      <trkpt lat="45.554" lon="6.59266">
        <ele>1297</ele>
        <time>2013-08-28T08:27:43Z</time>
      </trkpt>
      <trkpt lat="45.55396" lon="6.59264">
        <ele>1297</ele>
        <time>2013-08-28T08:27:44Z</time>
      </trkpt>
      <trkpt lat="45.55393" lon="6.5926">
        <ele>1296</ele>
        <time>2013-08-28T08:27:45Z</time>
      </trkpt>
      <trkpt lat="45.55391" lon="6.59255">
        <ele>1295.5</ele>
        <time>2013-08-28T08:27:46Z</time>
      </trkpt>
      <trkpt lat="45.55389" lon="6.59251">
        <ele>1294.6</ele>
        <time>2013-08-28T08:27:47Z</time>
      </trkpt>
      <trkpt lat="45.55389" lon="6.59248">
        <ele>1294.6</ele>
        <time>2013-08-28T08:27:48Z</time>
      </trkpt>
      <trkpt lat="45.5539" lon="6.59244">
        <ele>1294.1</ele>
        <time>2013-08-28T08:27:49Z</time>
      </trkpt>
      <trkpt lat="45.55391" lon="6.59241">
        <ele>1293.6</ele>
        <time>2013-08-28T08:27:50Z</time>
      </trkpt>
      <trkpt lat="45.55391" lon="6.59236">
        <ele>1293.1</ele>
        <time>2013-08-28T08:27:51Z</time>
      </trkpt>
      <trkpt lat="45.55391" lon="6.59227">
        <ele>1292.6</ele>
        <time>2013-08-28T08:27:52Z</time>
      </trkpt>
      <trkpt lat="45.55383" lon="6.59217">
        <ele>1291.2</ele>
        <time>2013-08-28T08:28:02Z</time>
      </trkpt>
      <trkpt lat="45.55381" lon="6.59219">
        <ele>1290.7</ele>
        <time>2013-08-28T08:28:06Z</time>
      </trkpt>
      <trkpt lat="45.5538" lon="6.59222">
        <ele>1290.2</ele>
        <time>2013-08-28T08:28:07Z</time>
      </trkpt>
      <trkpt lat="45.55378" lon="6.59225">
        <ele>1289.8</ele>
        <time>2013-08-28T08:28:08Z</time>
      </trkpt>
      <trkpt lat="45.55377" lon="6.59228">
        <ele>1289.3</ele>
        <time>2013-08-28T08:28:09Z</time>
      </trkpt>
      <trkpt lat="45.55376" lon="6.59232">
        <ele>1287.8</ele>
        <time>2013-08-28T08:28:10Z</time>
      </trkpt>
      <trkpt lat="45.55374" lon="6.59236">
        <ele>1287.3</ele>
        <time>2013-08-28T08:28:11Z</time>
      </trkpt>
      <trkpt lat="45.55372" lon="6.59241">
        <ele>1286.4</ele>
        <time>2013-08-28T08:28:12Z</time>
      </trkpt>
      <trkpt lat="45.5537" lon="6.59244">
        <ele>1286.4</ele>
        <time>2013-08-28T08:28:13Z</time>
      </trkpt>
      <trkpt lat="45.55368" lon="6.59247">
        <ele>1284.9</ele>
        <time>2013-08-28T08:28:14Z</time>
      </trkpt>
      <trkpt lat="45.55366" lon="6.59249">
        <ele>1284.9</ele>
        <time>2013-08-28T08:28:15Z</time>
      </trkpt>
      <trkpt lat="45.55365" lon="6.59251">
        <ele>1284.5</ele>
        <time>2013-08-28T08:28:16Z</time>
      </trkpt>
      <trkpt lat="45.55363" lon="6.59253">
        <ele>1284</ele>
        <time>2013-08-28T08:28:17Z</time>
      </trkpt>
      <trkpt lat="45.55362" lon="6.59255">
        <ele>1282.5</ele>
        <time>2013-08-28T08:28:18Z</time>
      </trkpt>
      <trkpt lat="45.55361" lon="6.59259">
        <ele>1281.6</ele>
        <time>2013-08-28T08:28:19Z</time>
      </trkpt>
      <trkpt lat="45.55359" lon="6.59275">
        <ele>1280.1</ele>
        <time>2013-08-28T08:28:22Z</time>
      </trkpt>
      <trkpt lat="45.55359" lon="6.5928">
        <ele>1279.2</ele>
        <time>2013-08-28T08:28:23Z</time>
      </trkpt>
      <trkpt lat="45.5536" lon="6.59285">
        <ele>1278.7</ele>
        <time>2013-08-28T08:28:24Z</time>
      </trkpt>
      <trkpt lat="45.55361" lon="6.59288">
        <ele>1278.2</ele>
        <time>2013-08-28T08:28:25Z</time>
      </trkpt>
      <trkpt lat="45.55366" lon="6.59301">
        <ele>1274.9</ele>
        <time>2013-08-28T08:28:34Z</time>
      </trkpt>
      <trkpt lat="45.55366" lon="6.59307">
        <ele>1273.4</ele>
        <time>2013-08-28T08:28:38Z</time>
      </trkpt>
      <trkpt lat="45.55366" lon="6.59316">
        <ele>1271</ele>
        <time>2013-08-28T08:28:44Z</time>
      </trkpt>
      <trkpt lat="45.55372" lon="6.59336">
        <ele>1270.5</ele>
        <time>2013-08-28T08:29:03Z</time>
      </trkpt>
      <trkpt lat="45.55372" lon="6.59339">
        <ele>1270</ele>
        <time>2013-08-28T08:29:04Z</time>
      </trkpt>
      <trkpt lat="45.55372" lon="6.59341">
        <ele>1269.6</ele>
        <time>2013-08-28T08:29:05Z</time>
      </trkpt>
      <trkpt lat="45.55373" lon="6.59349">
        <ele>1268.1</ele>
        <time>2013-08-28T08:29:08Z</time>
      </trkpt>
      <trkpt lat="45.55376" lon="6.59363">
        <ele>1266.7</ele>
        <time>2013-08-28T08:29:16Z</time>
      </trkpt>
      <trkpt lat="45.55375" lon="6.59362">
        <ele>1265.7</ele>
        <time>2013-08-28T08:29:17Z</time>
      </trkpt>
      <trkpt lat="45.55369" lon="6.59349">
        <ele>1264.3</ele>
        <time>2013-08-28T08:29:22Z</time>
      </trkpt>
      <trkpt lat="45.55365" lon="6.59339">
        <ele>1260.9</ele>
        <time>2013-08-28T08:29:28Z</time>
      </trkpt>
      <trkpt lat="45.55364" lon="6.59343">
        <ele>1260.4</ele>
        <time>2013-08-28T08:29:31Z</time>
      </trkpt>
      <trkpt lat="45.55363" lon="6.59346">
        <ele>1260.9</ele>
        <time>2013-08-28T08:29:32Z</time>
      </trkpt>
      <trkpt lat="45.55362" lon="6.59348">
        <ele>1260.4</ele>
        <time>2013-08-28T08:29:33Z</time>
      </trkpt>
      <trkpt lat="45.5536" lon="6.5935">
        <ele>1260.4</ele>
        <time>2013-08-28T08:29:34Z</time>
      </trkpt>
      <trkpt lat="45.55359" lon="6.59353">
        <ele>1259</ele>
        <time>2013-08-28T08:29:35Z</time>
      </trkpt>
      <trkpt lat="45.55358" lon="6.59357">
        <ele>1258.5</ele>
        <time>2013-08-28T08:29:36Z</time>
      </trkpt>
      <trkpt lat="45.55356" lon="6.59367">
        <ele>1256.1</ele>
        <time>2013-08-28T08:29:39Z</time>
      </trkpt>
      <trkpt lat="45.55357" lon="6.5937">
        <ele>1255.1</ele>
        <time>2013-08-28T08:29:40Z</time>
      </trkpt>
      <trkpt lat="45.55362" lon="6.59387">
        <ele>1252.3</ele>
        <time>2013-08-28T08:29:43Z</time>
      </trkpt>
      <trkpt lat="45.55363" lon="6.59393">
        <ele>1250.3</ele>
        <time>2013-08-28T08:29:44Z</time>
      </trkpt>
      <trkpt lat="45.55365" lon="6.59419">
        <ele>1247.5</ele>
        <time>2013-08-28T08:29:49Z</time>
      </trkpt>
      <trkpt lat="45.55367" lon="6.59427">
        <ele>1245.5</ele>
        <time>2013-08-28T08:29:53Z</time>
      </trkpt>
      <trkpt lat="45.55367" lon="6.59425">
        <ele>1245.5</ele>
        <time>2013-08-28T08:29:54Z</time>
      </trkpt>
      <trkpt lat="45.55365" lon="6.59416">
        <ele>1244.1</ele>
        <time>2013-08-28T08:29:58Z</time>
      </trkpt>
      <trkpt lat="45.55364" lon="6.59411">
        <ele>1243.6</ele>
        <time>2013-08-28T08:29:59Z</time>
      </trkpt>
      <trkpt lat="45.55362" lon="6.59406">
        <ele>1242.6</ele>
        <time>2013-08-28T08:30:00Z</time>
      </trkpt>
      <trkpt lat="45.55358" lon="6.59403">
        <ele>1242.2</ele>
        <time>2013-08-28T08:30:01Z</time>
      </trkpt>
      <trkpt lat="45.55355" lon="6.59401">
        <ele>1241.2</ele>
        <time>2013-08-28T08:30:02Z</time>
      </trkpt>
      <trkpt lat="45.55353" lon="6.59399">
        <ele>1240.7</ele>
        <time>2013-08-28T08:30:03Z</time>
      </trkpt>
      <trkpt lat="45.55351" lon="6.59398">
        <ele>1240.7</ele>
        <time>2013-08-28T08:30:04Z</time>
      </trkpt>
      <trkpt lat="45.55347" lon="6.59397">
        <ele>1239.3</ele>
        <time>2013-08-28T08:30:14Z</time>
      </trkpt>
      <trkpt lat="45.55337" lon="6.59397">
        <ele>1237.4</ele>
        <time>2013-08-28T08:30:22Z</time>
      </trkpt>
      <trkpt lat="45.55335" lon="6.59395">
        <ele>1236.9</ele>
        <time>2013-08-28T08:30:23Z</time>
      </trkpt>
      <trkpt lat="45.55333" lon="6.59391">
        <ele>1236.4</ele>
        <time>2013-08-28T08:30:24Z</time>
      </trkpt>
      <trkpt lat="45.55331" lon="6.59388">
        <ele>1235.9</ele>
        <time>2013-08-28T08:30:25Z</time>
      </trkpt>
      <trkpt lat="45.55328" lon="6.59387">
        <ele>1235</ele>
        <time>2013-08-28T08:30:26Z</time>
      </trkpt>
      <trkpt lat="45.55326" lon="6.59386">
        <ele>1235</ele>
        <time>2013-08-28T08:30:27Z</time>
      </trkpt>
      <trkpt lat="45.55323" lon="6.59384">
        <ele>1234</ele>
        <time>2013-08-28T08:30:29Z</time>
      </trkpt>
      <trkpt lat="45.55322" lon="6.59382">
        <ele>1233.5</ele>
        <time>2013-08-28T08:30:30Z</time>
      </trkpt>
      <trkpt lat="45.55321" lon="6.59381">
        <ele>1233</ele>
        <time>2013-08-28T08:30:31Z</time>
      </trkpt>
      <trkpt lat="45.55319" lon="6.59382">
        <ele>1232.1</ele>
        <time>2013-08-28T08:30:35Z</time>
      </trkpt>
      <trkpt lat="45.55322" lon="6.59387">
        <ele>1230.1</ele>
        <time>2013-08-28T08:30:45Z</time>
      </trkpt>
      <trkpt lat="45.55322" lon="6.5939">
        <ele>1229.7</ele>
        <time>2013-08-28T08:30:46Z</time>
      </trkpt>
      <trkpt lat="45.55322" lon="6.59393">
        <ele>1229.2</ele>
        <time>2013-08-28T08:30:47Z</time>
      </trkpt>
      <trkpt lat="45.55323" lon="6.59395">
        <ele>1228.7</ele>
        <time>2013-08-28T08:30:48Z</time>
      </trkpt>
      <trkpt lat="45.55324" lon="6.59397">
        <ele>1228.2</ele>
        <time>2013-08-28T08:30:49Z</time>
      </trkpt>
      <trkpt lat="45.55327" lon="6.59401">
        <ele>1227.3</ele>
        <time>2013-08-28T08:30:51Z</time>
      </trkpt>
      <trkpt lat="45.5533" lon="6.59406">
        <ele>1225.8</ele>
        <time>2013-08-28T08:30:54Z</time>
      </trkpt>
      <trkpt lat="45.55331" lon="6.59412">
        <ele>1225.3</ele>
        <time>2013-08-28T08:30:57Z</time>
      </trkpt>
      <trkpt lat="45.5533" lon="6.59414">
        <ele>1225.3</ele>
        <time>2013-08-28T08:30:58Z</time>
      </trkpt>
      <trkpt lat="45.55326" lon="6.59422">
        <ele>1224.4</ele>
        <time>2013-08-28T08:31:07Z</time>
      </trkpt>
      <trkpt lat="45.55325" lon="6.59424">
        <ele>1224.4</ele>
        <time>2013-08-28T08:31:08Z</time>
      </trkpt>
      <trkpt lat="45.55323" lon="6.59426">
        <ele>1223.4</ele>
        <time>2013-08-28T08:31:09Z</time>
      </trkpt>
      <trkpt lat="45.55321" lon="6.59428">
        <ele>1223.4</ele>
        <time>2013-08-28T08:31:10Z</time>
      </trkpt>
      <trkpt lat="45.55307" lon="6.59448">
        <ele>1220.1</ele>
        <time>2013-08-28T08:31:16Z</time>
      </trkpt>
      <trkpt lat="45.55306" lon="6.59452">
        <ele>1220.1</ele>
        <time>2013-08-28T08:31:17Z</time>
      </trkpt>
      <trkpt lat="45.55305" lon="6.59455">
        <ele>1219.1</ele>
        <time>2013-08-28T08:31:18Z</time>
      </trkpt>
      <trkpt lat="45.55304" lon="6.59459">
        <ele>1218.6</ele>
        <time>2013-08-28T08:31:19Z</time>
      </trkpt>
      <trkpt lat="45.55303" lon="6.59466">
        <ele>1217.7</ele>
        <time>2013-08-28T08:31:21Z</time>
      </trkpt>
      <trkpt lat="45.553" lon="6.59467">
        <ele>1215.7</ele>
        <time>2013-08-28T08:31:24Z</time>
      </trkpt>
      <trkpt lat="45.55299" lon="6.59463">
        <ele>1215.2</ele>
        <time>2013-08-28T08:31:25Z</time>
      </trkpt>
      <trkpt lat="45.55298" lon="6.59458">
        <ele>1214.8</ele>
        <time>2013-08-28T08:31:26Z</time>
      </trkpt>
      <trkpt lat="45.55296" lon="6.59454">
        <ele>1213.8</ele>
        <time>2013-08-28T08:31:27Z</time>
      </trkpt>
      <trkpt lat="45.55293" lon="6.59446">
        <ele>1212.8</ele>
        <time>2013-08-28T08:31:29Z</time>
      </trkpt>
      <trkpt lat="45.55294" lon="6.59444">
        <ele>1211.9</ele>
        <time>2013-08-28T08:31:30Z</time>
      </trkpt>
      <trkpt lat="45.55297" lon="6.59437">
        <ele>1210.4</ele>
        <time>2013-08-28T08:31:32Z</time>
      </trkpt>
      <trkpt lat="45.55297" lon="6.59433">
        <ele>1210.4</ele>
        <time>2013-08-28T08:31:33Z</time>
      </trkpt>
      <trkpt lat="45.55296" lon="6.5943">
        <ele>1210</ele>
        <time>2013-08-28T08:31:34Z</time>
      </trkpt>
      <trkpt lat="45.55294" lon="6.59429">
        <ele>1209.5</ele>
        <time>2013-08-28T08:31:35Z</time>
      </trkpt>
      <trkpt lat="45.55284" lon="6.5943">
        <ele>1207.1</ele>
        <time>2013-08-28T08:31:40Z</time>
      </trkpt>
      <trkpt lat="45.55283" lon="6.59434">
        <ele>1205.2</ele>
        <time>2013-08-28T08:31:43Z</time>
      </trkpt>
      <trkpt lat="45.55281" lon="6.59439">
        <ele>1204.2</ele>
        <time>2013-08-28T08:31:45Z</time>
      </trkpt>
      <trkpt lat="45.55279" lon="6.59443">
        <ele>1203.7</ele>
        <time>2013-08-28T08:31:46Z</time>
      </trkpt>
      <trkpt lat="45.55277" lon="6.59446">
        <ele>1202.8</ele>
        <time>2013-08-28T08:31:47Z</time>
      </trkpt>
      <trkpt lat="45.55276" lon="6.59449">
        <ele>1202.3</ele>
        <time>2013-08-28T08:31:48Z</time>
      </trkpt>
      <trkpt lat="45.55275" lon="6.59452">
        <ele>1201.8</ele>
        <time>2013-08-28T08:31:49Z</time>
      </trkpt>
      <trkpt lat="45.55274" lon="6.59456">
        <ele>1200.8</ele>
        <time>2013-08-28T08:31:50Z</time>
      </trkpt>
      <trkpt lat="45.55274" lon="6.59459">
        <ele>1200.3</ele>
        <time>2013-08-28T08:31:51Z</time>
      </trkpt>
      <trkpt lat="45.55272" lon="6.59463">
        <ele>1199.4</ele>
        <time>2013-08-28T08:31:52Z</time>
      </trkpt>
      <trkpt lat="45.55269" lon="6.59467">
        <ele>1198.4</ele>
        <time>2013-08-28T08:31:53Z</time>
      </trkpt>
      <trkpt lat="45.55262" lon="6.59484">
        <ele>1194.6</ele>
        <time>2013-08-28T08:31:57Z</time>
      </trkpt>
      <trkpt lat="45.55261" lon="6.59501">
        <ele>1192.2</ele>
        <time>2013-08-28T08:32:01Z</time>
      </trkpt>
      <trkpt lat="45.55262" lon="6.59505">
        <ele>1191.7</ele>
        <time>2013-08-28T08:32:02Z</time>
      </trkpt>
      <trkpt lat="45.55261" lon="6.5951">
        <ele>1190.7</ele>
        <time>2013-08-28T08:32:03Z</time>
      </trkpt>
      <trkpt lat="45.55261" lon="6.59513">
        <ele>1191.2</ele>
        <time>2013-08-28T08:32:04Z</time>
      </trkpt>
      <trkpt lat="45.55261" lon="6.59518">
        <ele>1190.7</ele>
        <time>2013-08-28T08:32:05Z</time>
      </trkpt>
      <trkpt lat="45.55261" lon="6.59522">
        <ele>1189.8</ele>
        <time>2013-08-28T08:32:06Z</time>
      </trkpt>
      <trkpt lat="45.5526" lon="6.59525">
        <ele>1189.3</ele>
        <time>2013-08-28T08:32:07Z</time>
      </trkpt>
      <trkpt lat="45.55258" lon="6.59527">
        <ele>1188.8</ele>
        <time>2013-08-28T08:32:08Z</time>
      </trkpt>
      <trkpt lat="45.55257" lon="6.59534">
        <ele>1187.9</ele>
        <time>2013-08-28T08:32:09Z</time>
      </trkpt>
      <trkpt lat="45.55256" lon="6.59538">
        <ele>1186.9</ele>
        <time>2013-08-28T08:32:10Z</time>
      </trkpt>
      <trkpt lat="45.55256" lon="6.59545">
        <ele>1186.4</ele>
        <time>2013-08-28T08:32:12Z</time>
      </trkpt>
      <trkpt lat="45.55252" lon="6.59547">
        <ele>1185</ele>
        <time>2013-08-28T08:32:17Z</time>
      </trkpt>
      <trkpt lat="45.5525" lon="6.59546">
        <ele>1185</ele>
        <time>2013-08-28T08:32:18Z</time>
      </trkpt>
      <trkpt lat="45.55248" lon="6.5954">
        <ele>1184</ele>
        <time>2013-08-28T08:32:20Z</time>
      </trkpt>
      <trkpt lat="45.55244" lon="6.59529">
        <ele>1182.1</ele>
        <time>2013-08-28T08:32:24Z</time>
      </trkpt>
      <trkpt lat="45.55243" lon="6.59523">
        <ele>1181.1</ele>
        <time>2013-08-28T08:32:35Z</time>
      </trkpt>
      <trkpt lat="45.55235" lon="6.59499">
        <ele>1177.3</ele>
        <time>2013-08-28T08:32:43Z</time>
      </trkpt>
      <trkpt lat="45.55233" lon="6.59492">
        <ele>1177.3</ele>
        <time>2013-08-28T08:32:45Z</time>
      </trkpt>
      <trkpt lat="45.55237" lon="6.59473">
        <ele>1174.9</ele>
        <time>2013-08-28T08:32:51Z</time>
      </trkpt>
      <trkpt lat="45.55233" lon="6.59477">
        <ele>1173</ele>
        <time>2013-08-28T08:32:55Z</time>
      </trkpt>
      <trkpt lat="45.55226" lon="6.59495">
        <ele>1169.1</ele>
        <time>2013-08-28T08:32:59Z</time>
      </trkpt>
      <trkpt lat="45.55224" lon="6.59513">
        <ele>1167.2</ele>
        <time>2013-08-28T08:33:03Z</time>
      </trkpt>
      <trkpt lat="45.55216" lon="6.5953">
        <ele>1164.3</ele>
        <time>2013-08-28T08:33:07Z</time>
      </trkpt>
      <trkpt lat="45.55221" lon="6.59532">
        <ele>1162.9</ele>
        <time>2013-08-28T08:33:17Z</time>
      </trkpt>
      <trkpt lat="45.55219" lon="6.59563">
        <ele>1161.4</ele>
        <time>2013-08-28T08:33:36Z</time>
      </trkpt>
      <trkpt lat="45.55218" lon="6.59579">
        <ele>1158.1</ele>
        <time>2013-08-28T08:33:39Z</time>
      </trkpt>
      <trkpt lat="45.55217" lon="6.59585">
        <ele>1158.1</ele>
        <time>2013-08-28T08:33:40Z</time>
      </trkpt>
      <trkpt lat="45.55213" lon="6.59604">
        <ele>1154.2</ele>
        <time>2013-08-28T08:33:44Z</time>
      </trkpt>
      <trkpt lat="45.55208" lon="6.59632">
        <ele>1150.8</ele>
        <time>2013-08-28T08:33:49Z</time>
      </trkpt>
      <trkpt lat="45.55206" lon="6.59646">
        <ele>1149.4</ele>
        <time>2013-08-28T08:33:51Z</time>
      </trkpt>
      <trkpt lat="45.55206" lon="6.59655">
        <ele>1148.4</ele>
        <time>2013-08-28T08:33:52Z</time>
      </trkpt>
      <trkpt lat="45.55207" lon="6.59664">
        <ele>1148</ele>
        <time>2013-08-28T08:33:53Z</time>
      </trkpt>
      <trkpt lat="45.55208" lon="6.59678">
        <ele>1147.5</ele>
        <time>2013-08-28T08:33:55Z</time>
      </trkpt>
      <trkpt lat="45.55208" lon="6.59686">
        <ele>1146.5</ele>
        <time>2013-08-28T08:33:56Z</time>
      </trkpt>
      <trkpt lat="45.55207" lon="6.59694">
        <ele>1146</ele>
        <time>2013-08-28T08:33:57Z</time>
      </trkpt>
      <trkpt lat="45.55206" lon="6.59721">
        <ele>1143.6</ele>
        <time>2013-08-28T08:34:01Z</time>
      </trkpt>
      <trkpt lat="45.55212" lon="6.59748">
        <ele>1140.3</ele>
        <time>2013-08-28T08:34:06Z</time>
      </trkpt>
      <trkpt lat="45.55214" lon="6.59755">
        <ele>1138.8</ele>
        <time>2013-08-28T08:34:08Z</time>
      </trkpt>
      <trkpt lat="45.55218" lon="6.59769">
        <ele>1136.9</ele>
        <time>2013-08-28T08:34:11Z</time>
      </trkpt>
      <trkpt lat="45.55219" lon="6.59781">
        <ele>1135</ele>
        <time>2013-08-28T08:34:13Z</time>
      </trkpt>
      <trkpt lat="45.55219" lon="6.59797">
        <ele>1131.6</ele>
        <time>2013-08-28T08:34:15Z</time>
      </trkpt>
      <trkpt lat="45.5522" lon="6.59808">
        <ele>1130.7</ele>
        <time>2013-08-28T08:34:16Z</time>
      </trkpt>
      <trkpt lat="45.55223" lon="6.59825">
        <ele>1129.7</ele>
        <time>2013-08-28T08:34:18Z</time>
      </trkpt>
      <trkpt lat="45.55224" lon="6.59832">
        <ele>1128.7</ele>
        <time>2013-08-28T08:34:19Z</time>
      </trkpt>
      <trkpt lat="45.55225" lon="6.59839">
        <ele>1128.2</ele>
        <time>2013-08-28T08:34:20Z</time>
      </trkpt>
      <trkpt lat="45.55229" lon="6.59861">
        <ele>1125.4</ele>
        <time>2013-08-28T08:34:23Z</time>
      </trkpt>
      <trkpt lat="45.5523" lon="6.59864">
        <ele>1124.4</ele>
        <time>2013-08-28T08:34:25Z</time>
      </trkpt>
      <trkpt lat="45.55247" lon="6.59874">
        <ele>1124.4</ele>
        <time>2013-08-28T08:34:54Z</time>
      </trkpt>
      <trkpt lat="45.55241" lon="6.59872">
        <ele>1124.9</ele>
        <time>2013-08-28T08:35:23Z</time>
      </trkpt>
      <trkpt lat="45.55239" lon="6.59874">
        <ele>1124.9</ele>
        <time>2013-08-28T08:35:39Z</time>
      </trkpt>
      <trkpt lat="45.55237" lon="6.59877">
        <ele>1123.4</ele>
        <time>2013-08-28T08:35:41Z</time>
      </trkpt>
      <trkpt lat="45.55236" lon="6.59882">
        <ele>1122.5</ele>
        <time>2013-08-28T08:35:42Z</time>
      </trkpt>
      <trkpt lat="45.55237" lon="6.59887">
        <ele>1121.5</ele>
        <time>2013-08-28T08:35:43Z</time>
      </trkpt>
      <trkpt lat="45.55237" lon="6.59891">
        <ele>1121.5</ele>
        <time>2013-08-28T08:35:44Z</time>
      </trkpt>
      <trkpt lat="45.55236" lon="6.59894">
        <ele>1120.6</ele>
        <time>2013-08-28T08:35:45Z</time>
      </trkpt>
      <trkpt lat="45.55236" lon="6.59897">
        <ele>1119.6</ele>
        <time>2013-08-28T08:35:46Z</time>
      </trkpt>
      <trkpt lat="45.55235" lon="6.599">
        <ele>1119.1</ele>
        <time>2013-08-28T08:35:47Z</time>
      </trkpt>
      <trkpt lat="45.55234" lon="6.59902">
        <ele>1118.6</ele>
        <time>2013-08-28T08:35:48Z</time>
      </trkpt>
      <trkpt lat="45.55233" lon="6.59917">
        <ele>1115.8</ele>
        <time>2013-08-28T08:35:52Z</time>
      </trkpt>
      <trkpt lat="45.55229" lon="6.59937">
        <ele>1111.9</ele>
        <time>2013-08-28T08:35:57Z</time>
      </trkpt>
      <trkpt lat="45.55229" lon="6.59941">
        <ele>1111.4</ele>
        <time>2013-08-28T08:35:58Z</time>
      </trkpt>
      <trkpt lat="45.55226" lon="6.59946">
        <ele>1109.5</ele>
        <time>2013-08-28T08:36:05Z</time>
      </trkpt>
      <trkpt lat="45.55226" lon="6.59945">
        <ele>1109</ele>
        <time>2013-08-28T08:36:06Z</time>
      </trkpt>
      <trkpt lat="45.55224" lon="6.59942">
        <ele>1109.5</ele>
        <time>2013-08-28T08:36:07Z</time>
      </trkpt>
      <trkpt lat="45.55221" lon="6.59939">
        <ele>1108.5</ele>
        <time>2013-08-28T08:36:08Z</time>
      </trkpt>
      <trkpt lat="45.55219" lon="6.59936">
        <ele>1108.1</ele>
        <time>2013-08-28T08:36:09Z</time>
      </trkpt>
      <trkpt lat="45.55217" lon="6.59934">
        <ele>1108.1</ele>
        <time>2013-08-28T08:36:10Z</time>
      </trkpt>
      <trkpt lat="45.55215" lon="6.59932">
        <ele>1107.1</ele>
        <time>2013-08-28T08:36:11Z</time>
      </trkpt>
      <trkpt lat="45.55207" lon="6.5992">
        <ele>1104.7</ele>
        <time>2013-08-28T08:36:20Z</time>
      </trkpt>
      <trkpt lat="45.55203" lon="6.59912">
        <ele>1104.2</ele>
        <time>2013-08-28T08:36:36Z</time>
      </trkpt>
      <trkpt lat="45.55202" lon="6.59907">
        <ele>1103.7</ele>
        <time>2013-08-28T08:36:37Z</time>
      </trkpt>
      <trkpt lat="45.552" lon="6.59902">
        <ele>1103.7</ele>
        <time>2013-08-28T08:36:38Z</time>
      </trkpt>
      <trkpt lat="45.55195" lon="6.59879">
        <ele>1100.9</ele>
        <time>2013-08-28T08:36:42Z</time>
      </trkpt>
      <trkpt lat="45.55193" lon="6.59873">
        <ele>1099.4</ele>
        <time>2013-08-28T08:36:43Z</time>
      </trkpt>
      <trkpt lat="45.55187" lon="6.59851">
        <ele>1096.5</ele>
        <time>2013-08-28T08:36:47Z</time>
      </trkpt>
      <trkpt lat="45.55183" lon="6.59839">
        <ele>1095.1</ele>
        <time>2013-08-28T08:36:49Z</time>
      </trkpt>
      <trkpt lat="45.55181" lon="6.59833">
        <ele>1094.1</ele>
        <time>2013-08-28T08:36:50Z</time>
      </trkpt>
      <trkpt lat="45.55179" lon="6.59828">
        <ele>1094.1</ele>
        <time>2013-08-28T08:36:51Z</time>
      </trkpt>
      <trkpt lat="45.55171" lon="6.59806">
        <ele>1089.8</ele>
        <time>2013-08-28T08:36:55Z</time>
      </trkpt>
      <trkpt lat="45.55167" lon="6.59795">
        <ele>1088.8</ele>
        <time>2013-08-28T08:36:57Z</time>
      </trkpt>
      <trkpt lat="45.55159" lon="6.59775">
        <ele>1086</ele>
        <time>2013-08-28T08:37:01Z</time>
      </trkpt>
      <trkpt lat="45.55158" lon="6.59773">
        <ele>1085</ele>
        <time>2013-08-28T08:37:03Z</time>
      </trkpt>
      <trkpt lat="45.55154" lon="6.59759">
        <ele>1084</ele>
        <time>2013-08-28T08:37:12Z</time>
      </trkpt>
      <trkpt lat="45.55152" lon="6.59752">
        <ele>1083.5</ele>
        <time>2013-08-28T08:37:13Z</time>
      </trkpt>
      <trkpt lat="45.55147" lon="6.59728">
        <ele>1079.7</ele>
        <time>2013-08-28T08:37:17Z</time>
      </trkpt>
      <trkpt lat="45.55144" lon="6.59721">
        <ele>1078.3</ele>
        <time>2013-08-28T08:37:19Z</time>
      </trkpt>
      <trkpt lat="45.55144" lon="6.59719">
        <ele>1078.7</ele>
        <time>2013-08-28T08:37:20Z</time>
      </trkpt>
      <trkpt lat="45.55144" lon="6.59716">
        <ele>1077.3</ele>
        <time>2013-08-28T08:37:21Z</time>
      </trkpt>
      <trkpt lat="45.55144" lon="6.59714">
        <ele>1076.3</ele>
        <time>2013-08-28T08:37:22Z</time>
      </trkpt>
      <trkpt lat="45.55144" lon="6.59711">
        <ele>1075.4</ele>
        <time>2013-08-28T08:37:23Z</time>
      </trkpt>
      <trkpt lat="45.55144" lon="6.59697">
        <ele>1073</ele>
        <time>2013-08-28T08:37:27Z</time>
      </trkpt>
      <trkpt lat="45.55143" lon="6.59693">
        <ele>1072</ele>
        <time>2013-08-28T08:37:28Z</time>
      </trkpt>
      <trkpt lat="45.55142" lon="6.59688">
        <ele>1071.5</ele>
        <time>2013-08-28T08:37:29Z</time>
      </trkpt>
      <trkpt lat="45.55141" lon="6.59683">
        <ele>1070.1</ele>
        <time>2013-08-28T08:37:30Z</time>
      </trkpt>
      <trkpt lat="45.5514" lon="6.59677">
        <ele>1069.6</ele>
        <time>2013-08-28T08:37:31Z</time>
      </trkpt>
      <trkpt lat="45.55138" lon="6.5967">
        <ele>1069.1</ele>
        <time>2013-08-28T08:37:32Z</time>
      </trkpt>
      <trkpt lat="45.55136" lon="6.59664">
        <ele>1068.2</ele>
        <time>2013-08-28T08:37:33Z</time>
      </trkpt>
      <trkpt lat="45.55134" lon="6.59656">
        <ele>1068.2</ele>
        <time>2013-08-28T08:37:34Z</time>
      </trkpt>
      <trkpt lat="45.55129" lon="6.5963">
        <ele>1065.8</ele>
        <time>2013-08-28T08:37:38Z</time>
      </trkpt>
      <trkpt lat="45.5513" lon="6.59625">
        <ele>1065.8</ele>
        <time>2013-08-28T08:37:39Z</time>
      </trkpt>
      <trkpt lat="45.55129" lon="6.5962">
        <ele>1065.3</ele>
        <time>2013-08-28T08:37:40Z</time>
      </trkpt>
      <trkpt lat="45.55128" lon="6.59613">
        <ele>1064.3</ele>
        <time>2013-08-28T08:37:41Z</time>
      </trkpt>
      <trkpt lat="45.55126" lon="6.59608">
        <ele>1063.8</ele>
        <time>2013-08-28T08:37:42Z</time>
      </trkpt>
      <trkpt lat="45.55126" lon="6.59604">
        <ele>1063.4</ele>
        <time>2013-08-28T08:37:43Z</time>
      </trkpt>
      <trkpt lat="45.55125" lon="6.59602">
        <ele>1062.9</ele>
        <time>2013-08-28T08:37:44Z</time>
      </trkpt>
      <trkpt lat="45.55123" lon="6.59594">
        <ele>1061.9</ele>
        <time>2013-08-28T08:37:55Z</time>
      </trkpt>
      <trkpt lat="45.55118" lon="6.59587">
        <ele>1060.5</ele>
        <time>2013-08-28T08:38:08Z</time>
      </trkpt>
      <trkpt lat="45.55116" lon="6.5959">
        <ele>1059</ele>
        <time>2013-08-28T08:38:17Z</time>
      </trkpt>
      <trkpt lat="45.55114" lon="6.59592">
        <ele>1058.1</ele>
        <time>2013-08-28T08:38:19Z</time>
      </trkpt>
      <trkpt lat="45.55113" lon="6.59593">
        <ele>1058.1</ele>
        <time>2013-08-28T08:38:20Z</time>
      </trkpt>
      <trkpt lat="45.55112" lon="6.59597">
        <ele>1057.1</ele>
        <time>2013-08-28T08:38:21Z</time>
      </trkpt>
      <trkpt lat="45.55111" lon="6.59601">
        <ele>1057.1</ele>
        <time>2013-08-28T08:38:22Z</time>
      </trkpt>
      <trkpt lat="45.5511" lon="6.59603">
        <ele>1055.7</ele>
        <time>2013-08-28T08:38:23Z</time>
      </trkpt>
      <trkpt lat="45.55109" lon="6.59605">
        <ele>1055.7</ele>
        <time>2013-08-28T08:38:24Z</time>
      </trkpt>
      <trkpt lat="45.55107" lon="6.59609">
        <ele>1054.7</ele>
        <time>2013-08-28T08:38:25Z</time>
      </trkpt>
      <trkpt lat="45.55103" lon="6.5962">
        <ele>1052.3</ele>
        <time>2013-08-28T08:38:28Z</time>
      </trkpt>
      <trkpt lat="45.55103" lon="6.59625">
        <ele>1051.3</ele>
        <time>2013-08-28T08:38:29Z</time>
      </trkpt>
      <trkpt lat="45.55103" lon="6.59631">
        <ele>1050.9</ele>
        <time>2013-08-28T08:38:30Z</time>
      </trkpt>
      <trkpt lat="45.55104" lon="6.59643">
        <ele>1048.9</ele>
        <time>2013-08-28T08:38:32Z</time>
      </trkpt>
      <trkpt lat="45.55102" lon="6.59668">
        <ele>1045.6</ele>
        <time>2013-08-28T08:38:38Z</time>
      </trkpt>
      <trkpt lat="45.55099" lon="6.59679">
        <ele>1044.6</ele>
        <time>2013-08-28T08:38:40Z</time>
      </trkpt>
      <trkpt lat="45.55098" lon="6.59687">
        <ele>1042.7</ele>
        <time>2013-08-28T08:38:41Z</time>
      </trkpt>
      <trkpt lat="45.55093" lon="6.59712">
        <ele>1039.8</ele>
        <time>2013-08-28T08:38:46Z</time>
      </trkpt>
      <trkpt lat="45.55089" lon="6.59724">
        <ele>1038.4</ele>
        <time>2013-08-28T08:38:48Z</time>
      </trkpt>
      <trkpt lat="45.55084" lon="6.59747">
        <ele>1036</ele>
        <time>2013-08-28T08:38:52Z</time>
      </trkpt>
      <trkpt lat="45.55082" lon="6.59765">
        <ele>1032.6</ele>
        <time>2013-08-28T08:38:56Z</time>
      </trkpt>
      <trkpt lat="45.5508" lon="6.59779">
        <ele>1031.6</ele>
        <time>2013-08-28T08:38:58Z</time>
      </trkpt>
      <trkpt lat="45.55076" lon="6.59783">
        <ele>1031.2</ele>
        <time>2013-08-28T08:38:59Z</time>
      </trkpt>
      <trkpt lat="45.55069" lon="6.59796">
        <ele>1028.3</ele>
        <time>2013-08-28T08:39:03Z</time>
      </trkpt>
      <trkpt lat="45.55068" lon="6.59802">
        <ele>1027.3</ele>
        <time>2013-08-28T08:39:04Z</time>
      </trkpt>
      <trkpt lat="45.55068" lon="6.59816">
        <ele>1025.4</ele>
        <time>2013-08-28T08:39:06Z</time>
      </trkpt>
      <trkpt lat="45.55068" lon="6.59822">
        <ele>1024.9</ele>
        <time>2013-08-28T08:39:07Z</time>
      </trkpt>
      <trkpt lat="45.55069" lon="6.59835">
        <ele>1023</ele>
        <time>2013-08-28T08:39:09Z</time>
      </trkpt>
      <trkpt lat="45.55069" lon="6.59839">
        <ele>1022.5</ele>
        <time>2013-08-28T08:39:10Z</time>
      </trkpt>
      <trkpt lat="45.55065" lon="6.59855">
        <ele>1021.1</ele>
        <time>2013-08-28T08:39:12Z</time>
      </trkpt>
      <trkpt lat="45.55065" lon="6.59859">
        <ele>1021.1</ele>
        <time>2013-08-28T08:39:13Z</time>
      </trkpt>
      <trkpt lat="45.55064" lon="6.59866">
        <ele>1020.1</ele>
        <time>2013-08-28T08:39:14Z</time>
      </trkpt>
      <trkpt lat="45.55062" lon="6.59873">
        <ele>1018.7</ele>
        <time>2013-08-28T08:39:15Z</time>
      </trkpt>
      <trkpt lat="45.55056" lon="6.59892">
        <ele>1016.3</ele>
        <time>2013-08-28T08:39:18Z</time>
      </trkpt>
      <trkpt lat="45.55054" lon="6.59903">
        <ele>1014.8</ele>
        <time>2013-08-28T08:39:20Z</time>
      </trkpt>
      <trkpt lat="45.55056" lon="6.59915">
        <ele>1014.3</ele>
        <time>2013-08-28T08:39:22Z</time>
      </trkpt>
      <trkpt lat="45.55056" lon="6.59922">
        <ele>1013.4</ele>
        <time>2013-08-28T08:39:23Z</time>
      </trkpt>
      <trkpt lat="45.55056" lon="6.59928">
        <ele>1012.4</ele>
        <time>2013-08-28T08:39:24Z</time>
      </trkpt>
      <trkpt lat="45.55057" lon="6.59934">
        <ele>1011.4</ele>
        <time>2013-08-28T08:39:25Z</time>
      </trkpt>
      <trkpt lat="45.55057" lon="6.59939">
        <ele>1010.5</ele>
        <time>2013-08-28T08:39:26Z</time>
      </trkpt>
      <trkpt lat="45.55056" lon="6.59944">
        <ele>1010</ele>
        <time>2013-08-28T08:39:27Z</time>
      </trkpt>
      <trkpt lat="45.55054" lon="6.5995">
        <ele>1008.6</ele>
        <time>2013-08-28T08:39:28Z</time>
      </trkpt>
      <trkpt lat="45.55045" lon="6.59971">
        <ele>1006.2</ele>
        <time>2013-08-28T08:39:34Z</time>
      </trkpt>
      <trkpt lat="45.55044" lon="6.59972">
        <ele>1005.7</ele>
        <time>2013-08-28T08:39:35Z</time>
      </trkpt>
      <trkpt lat="45.55044" lon="6.5997">
        <ele>1005.2</ele>
        <time>2013-08-28T08:39:36Z</time>
      </trkpt>
      <trkpt lat="45.55044" lon="6.59968">
        <ele>1004.7</ele>
        <time>2013-08-28T08:39:37Z</time>
      </trkpt>
      <trkpt lat="45.55045" lon="6.59953">
        <ele>1002.8</ele>
        <time>2013-08-28T08:39:42Z</time>
      </trkpt>
      <trkpt lat="45.55041" lon="6.59936">
        <ele>1000.9</ele>
        <time>2013-08-28T08:39:46Z</time>
      </trkpt>
      <trkpt lat="45.55028" lon="6.59911">
        <ele>998</ele>
        <time>2013-08-28T08:39:51Z</time>
      </trkpt>
      <trkpt lat="45.55027" lon="6.59906">
        <ele>997</ele>
        <time>2013-08-28T08:39:52Z</time>
      </trkpt>
      <trkpt lat="45.55021" lon="6.5988">
        <ele>993.7</ele>
        <time>2013-08-28T08:39:57Z</time>
      </trkpt>
      <trkpt lat="45.55015" lon="6.5987">
        <ele>992.2</ele>
        <time>2013-08-28T08:39:59Z</time>
      </trkpt>
      <trkpt lat="45.55008" lon="6.59847">
        <ele>989.8</ele>
        <time>2013-08-28T08:40:03Z</time>
      </trkpt>
      <trkpt lat="45.55007" lon="6.5984">
        <ele>988.9</ele>
        <time>2013-08-28T08:40:04Z</time>
      </trkpt>
      <trkpt lat="45.55006" lon="6.59833">
        <ele>988.4</ele>
        <time>2013-08-28T08:40:05Z</time>
      </trkpt>
      <trkpt lat="45.55006" lon="6.59826">
        <ele>987.9</ele>
        <time>2013-08-28T08:40:06Z</time>
      </trkpt>
      <trkpt lat="45.55005" lon="6.59822">
        <ele>986.9</ele>
        <time>2013-08-28T08:40:07Z</time>
      </trkpt>
      <trkpt lat="45.55004" lon="6.59818">
        <ele>986.5</ele>
        <time>2013-08-28T08:40:08Z</time>
      </trkpt>
      <trkpt lat="45.55003" lon="6.59815">
        <ele>986.5</ele>
        <time>2013-08-28T08:40:09Z</time>
      </trkpt>
      <trkpt lat="45.55002" lon="6.5981">
        <ele>986.5</ele>
        <time>2013-08-28T08:40:24Z</time>
      </trkpt>
      <trkpt lat="45.55002" lon="6.59812">
        <ele>986</ele>
        <time>2013-08-28T08:40:32Z</time>
      </trkpt>
      <trkpt lat="45.55002" lon="6.59816">
        <ele>985.5</ele>
        <time>2013-08-28T08:40:33Z</time>
      </trkpt>
      <trkpt lat="45.55002" lon="6.59826">
        <ele>983.6</ele>
        <time>2013-08-28T08:40:35Z</time>
      </trkpt>
      <trkpt lat="45.55001" lon="6.5983">
        <ele>983.6</ele>
        <time>2013-08-28T08:40:36Z</time>
      </trkpt>
      <trkpt lat="45.55001" lon="6.59835">
        <ele>983.1</ele>
        <time>2013-08-28T08:40:37Z</time>
      </trkpt>
      <trkpt lat="45.54999" lon="6.59839">
        <ele>982.1</ele>
        <time>2013-08-28T08:40:38Z</time>
      </trkpt>
      <trkpt lat="45.54998" lon="6.59844">
        <ele>982.1</ele>
        <time>2013-08-28T08:40:39Z</time>
      </trkpt>
      <trkpt lat="45.54993" lon="6.59857">
        <ele>980.7</ele>
        <time>2013-08-28T08:40:42Z</time>
      </trkpt>
      <trkpt lat="45.54992" lon="6.59864">
        <ele>978.3</ele>
        <time>2013-08-28T08:40:44Z</time>
      </trkpt>
      <trkpt lat="45.54989" lon="6.59875">
        <ele>976.4</ele>
        <time>2013-08-28T08:40:46Z</time>
      </trkpt>
      <trkpt lat="45.54988" lon="6.59882">
        <ele>975.4</ele>
        <time>2013-08-28T08:40:47Z</time>
      </trkpt>
      <trkpt lat="45.54988" lon="6.59888">
        <ele>974.9</ele>
        <time>2013-08-28T08:40:48Z</time>
      </trkpt>
      <trkpt lat="45.54984" lon="6.59904">
        <ele>973</ele>
        <time>2013-08-28T08:40:51Z</time>
      </trkpt>
      <trkpt lat="45.54983" lon="6.59911">
        <ele>972</ele>
        <time>2013-08-28T08:40:54Z</time>
      </trkpt>
      <trkpt lat="45.54983" lon="6.5991">
        <ele>971.6</ele>
        <time>2013-08-28T08:40:55Z</time>
      </trkpt>
      <trkpt lat="45.54983" lon="6.59907">
        <ele>970.6</ele>
        <time>2013-08-28T08:40:56Z</time>
      </trkpt>
      <trkpt lat="45.54981" lon="6.59903">
        <ele>970.6</ele>
        <time>2013-08-28T08:40:57Z</time>
      </trkpt>
      <trkpt lat="45.5498" lon="6.59898">
        <ele>970.1</ele>
        <time>2013-08-28T08:40:58Z</time>
      </trkpt>
      <trkpt lat="45.54971" lon="6.59884">
        <ele>966.7</ele>
        <time>2013-08-28T08:41:04Z</time>
      </trkpt>
      <trkpt lat="45.54967" lon="6.59884">
        <ele>965.8</ele>
        <time>2013-08-28T08:41:12Z</time>
      </trkpt>
      <trkpt lat="45.54977" lon="6.59899">
        <ele>965.8</ele>
        <time>2013-08-28T08:41:40Z</time>
      </trkpt>
      <trkpt lat="45.54986" lon="6.59907">
        <ele>965.8</ele>
        <time>2013-08-28T08:42:07Z</time>
      </trkpt>
      <trkpt lat="45.54989" lon="6.59909">
        <ele>965.8</ele>
        <time>2013-08-28T08:42:32Z</time>
      </trkpt>
      <trkpt lat="45.54989" lon="6.59912">
        <ele>966.3</ele>
        <time>2013-08-28T08:42:36Z</time>
      </trkpt>
      <trkpt lat="45.54987" lon="6.59919">
        <ele>965.3</ele>
        <time>2013-08-28T08:42:50Z</time>
      </trkpt>
      <trkpt lat="45.54986" lon="6.59919">
        <ele>965.3</ele>
        <time>2013-08-28T08:42:51Z</time>
      </trkpt>
      <trkpt lat="45.54983" lon="6.59926">
        <ele>962.4</ele>
        <time>2013-08-28T08:42:55Z</time>
      </trkpt>
      <trkpt lat="45.54982" lon="6.59928">
        <ele>961.9</ele>
        <time>2013-08-28T08:42:56Z</time>
      </trkpt>
      <trkpt lat="45.54981" lon="6.59931">
        <ele>961.5</ele>
        <time>2013-08-28T08:42:57Z</time>
      </trkpt>
      <trkpt lat="45.5498" lon="6.59933">
        <ele>960.5</ele>
        <time>2013-08-28T08:42:58Z</time>
      </trkpt>
      <trkpt lat="45.54979" lon="6.59937">
        <ele>959.5</ele>
        <time>2013-08-28T08:42:59Z</time>
      </trkpt>
      <trkpt lat="45.54977" lon="6.5994">
        <ele>958.6</ele>
        <time>2013-08-28T08:43:00Z</time>
      </trkpt>
      <trkpt lat="45.5497" lon="6.59947">
        <ele>955.2</ele>
        <time>2013-08-28T08:43:03Z</time>
      </trkpt>
      <trkpt lat="45.54963" lon="6.59954">
        <ele>952.3</ele>
        <time>2013-08-28T08:43:07Z</time>
      </trkpt>
      <trkpt lat="45.54956" lon="6.59956">
        <ele>949</ele>
        <time>2013-08-28T08:43:11Z</time>
      </trkpt>
      <trkpt lat="45.54952" lon="6.59956">
        <ele>947</ele>
        <time>2013-08-28T08:43:13Z</time>
      </trkpt>
      <trkpt lat="45.54948" lon="6.59958">
        <ele>945.6</ele>
        <time>2013-08-28T08:43:15Z</time>
      </trkpt>
      <trkpt lat="45.54943" lon="6.59966">
        <ele>943.2</ele>
        <time>2013-08-28T08:43:18Z</time>
      </trkpt>
      <trkpt lat="45.54938" lon="6.59974">
        <ele>940.8</ele>
        <time>2013-08-28T08:43:21Z</time>
      </trkpt>
      <trkpt lat="45.54932" lon="6.59973">
        <ele>939.4</ele>
        <time>2013-08-28T08:43:23Z</time>
      </trkpt>
      <trkpt lat="45.54926" lon="6.59965">
        <ele>936.9</ele>
        <time>2013-08-28T08:43:26Z</time>
      </trkpt>
      <trkpt lat="45.54917" lon="6.59968">
        <ele>933.1</ele>
        <time>2013-08-28T08:43:31Z</time>
      </trkpt>
      <trkpt lat="45.54913" lon="6.59974">
        <ele>931.2</ele>
        <time>2013-08-28T08:43:33Z</time>
      </trkpt>
      <trkpt lat="45.54907" lon="6.59981">
        <ele>928.8</ele>
        <time>2013-08-28T08:43:36Z</time>
      </trkpt>
      <trkpt lat="45.54905" lon="6.59987">
        <ele>927.3</ele>
        <time>2013-08-28T08:43:38Z</time>
      </trkpt>
      <trkpt lat="45.54903" lon="6.59991">
        <ele>925.9</ele>
        <time>2013-08-28T08:43:40Z</time>
      </trkpt>
      <trkpt lat="45.54901" lon="6.6">
        <ele>922.5</ele>
        <time>2013-08-28T08:43:44Z</time>
      </trkpt>
      <trkpt lat="45.549" lon="6.60003">
        <ele>922</ele>
        <time>2013-08-28T08:43:46Z</time>
      </trkpt>
      <trkpt lat="45.54894" lon="6.60004">
        <ele>919.6</ele>
        <time>2013-08-28T08:43:49Z</time>
      </trkpt>
      <trkpt lat="45.54884" lon="6.60002">
        <ele>915.8</ele>
        <time>2013-08-28T08:43:53Z</time>
      </trkpt>
      <trkpt lat="45.54878" lon="6.6">
        <ele>915.8</ele>
        <time>2013-08-28T08:44:02Z</time>
      </trkpt>
      <trkpt lat="45.54868" lon="6.59994">
        <ele>914.8</ele>
        <time>2013-08-28T08:44:32Z</time>
      </trkpt>
      <trkpt lat="45.54862" lon="6.59988">
        <ele>911.5</ele>
        <time>2013-08-28T08:44:35Z</time>
      </trkpt>
      <trkpt lat="45.54861" lon="6.59987">
        <ele>911.5</ele>
        <time>2013-08-28T08:44:36Z</time>
      </trkpt>
      <trkpt lat="45.54858" lon="6.59984">
        <ele>910</ele>
        <time>2013-08-28T08:44:38Z</time>
      </trkpt>
      <trkpt lat="45.54856" lon="6.59984">
        <ele>910</ele>
        <time>2013-08-28T08:44:39Z</time>
      </trkpt>
      <trkpt lat="45.54853" lon="6.59987">
        <ele>907.6</ele>
        <time>2013-08-28T08:44:42Z</time>
      </trkpt>
      <trkpt lat="45.54853" lon="6.59988">
        <ele>906.7</ele>
        <time>2013-08-28T08:44:44Z</time>
      </trkpt>
      <trkpt lat="45.54851" lon="6.60001">
        <ele>902.3</ele>
        <time>2013-08-28T08:44:48Z</time>
      </trkpt>
      <trkpt lat="45.54854" lon="6.60019">
        <ele>898.5</ele>
        <time>2013-08-28T08:44:53Z</time>
      </trkpt>
      <trkpt lat="45.54854" lon="6.60025">
        <ele>897.5</ele>
        <time>2013-08-28T08:44:55Z</time>
      </trkpt>
      <trkpt lat="45.54854" lon="6.6003">
        <ele>895.6</ele>
        <time>2013-08-28T08:44:59Z</time>
      </trkpt>
      <trkpt lat="45.54853" lon="6.60029">
        <ele>895.6</ele>
        <time>2013-08-28T08:45:00Z</time>
      </trkpt>
      <trkpt lat="45.54852" lon="6.60028">
        <ele>896.1</ele>
        <time>2013-08-28T08:45:01Z</time>
      </trkpt>
      <trkpt lat="45.54851" lon="6.60025">
        <ele>895.6</ele>
        <time>2013-08-28T08:45:02Z</time>
      </trkpt>
      <trkpt lat="45.54849" lon="6.60022">
        <ele>895.6</ele>
        <time>2013-08-28T08:45:03Z</time>
      </trkpt>
      <trkpt lat="45.54847" lon="6.60018">
        <ele>895.6</ele>
        <time>2013-08-28T08:45:04Z</time>
      </trkpt>
      <trkpt lat="45.54833" lon="6.6">
        <ele>894.2</ele>
        <time>2013-08-28T08:45:09Z</time>
      </trkpt>
      <trkpt lat="45.54836" lon="6.60017">
        <ele>892.2</ele>
        <time>2013-08-28T08:45:15Z</time>
      </trkpt>
      <trkpt lat="45.54838" lon="6.6002">
        <ele>891.3</ele>
        <time>2013-08-28T08:45:16Z</time>
      </trkpt>
      <trkpt lat="45.54842" lon="6.60033">
        <ele>889.4</ele>
        <time>2013-08-28T08:45:19Z</time>
      </trkpt>
      <trkpt lat="45.54837" lon="6.60035">
        <ele>888.9</ele>
        <time>2013-08-28T08:45:20Z</time>
      </trkpt>
      <trkpt lat="45.54833" lon="6.60033">
        <ele>888.4</ele>
        <time>2013-08-28T08:45:21Z</time>
      </trkpt>
      <trkpt lat="45.54828" lon="6.60029">
        <ele>887.9</ele>
        <time>2013-08-28T08:45:22Z</time>
      </trkpt>
      <trkpt lat="45.54824" lon="6.60025">
        <ele>887.4</ele>
        <time>2013-08-28T08:45:23Z</time>
      </trkpt>
      <trkpt lat="45.54814" lon="6.60026">
        <ele>886</ele>
        <time>2013-08-28T08:45:31Z</time>
      </trkpt>
      <trkpt lat="45.54826" lon="6.60036">
        <ele>885.5</ele>
        <time>2013-08-28T08:45:36Z</time>
      </trkpt>
      <trkpt lat="45.5485" lon="6.60055">
        <ele>883.6</ele>
        <time>2013-08-28T08:45:41Z</time>
      </trkpt>
      <trkpt lat="45.54854" lon="6.60058">
        <ele>883.1</ele>
        <time>2013-08-28T08:45:42Z</time>
      </trkpt>
      <trkpt lat="45.54858" lon="6.60063">
        <ele>883.1</ele>
        <time>2013-08-28T08:45:43Z</time>
      </trkpt>
      <trkpt lat="45.54859" lon="6.60067">
        <ele>882.2</ele>
        <time>2013-08-28T08:45:44Z</time>
      </trkpt>
      <trkpt lat="45.54858" lon="6.6007">
        <ele>881.7</ele>
        <time>2013-08-28T08:45:45Z</time>
      </trkpt>
      <trkpt lat="45.54854" lon="6.6007">
        <ele>881.7</ele>
        <time>2013-08-28T08:45:46Z</time>
      </trkpt>
      <trkpt lat="45.54849" lon="6.60068">
        <ele>881.2</ele>
        <time>2013-08-28T08:45:47Z</time>
      </trkpt>
      <trkpt lat="45.54809" lon="6.60056">
        <ele>878.8</ele>
        <time>2013-08-28T08:45:54Z</time>
      </trkpt>
      <trkpt lat="45.54806" lon="6.60057">
        <ele>878.8</ele>
        <time>2013-08-28T08:45:55Z</time>
      </trkpt>
      <trkpt lat="45.54804" lon="6.60059">
        <ele>877.3</ele>
        <time>2013-08-28T08:45:56Z</time>
      </trkpt>
      <trkpt lat="45.54802" lon="6.60064">
        <ele>877.8</ele>
        <time>2013-08-28T08:46:07Z</time>
      </trkpt>
      <trkpt lat="45.54803" lon="6.60066">
        <ele>877.8</ele>
        <time>2013-08-28T08:46:08Z</time>
      </trkpt>
      <trkpt lat="45.54804" lon="6.60067">
        <ele>877.3</ele>
        <time>2013-08-28T08:46:09Z</time>
      </trkpt>
      <trkpt lat="45.54816" lon="6.60076">
        <ele>876.4</ele>
        <time>2013-08-28T08:46:13Z</time>
      </trkpt>
      <trkpt lat="45.54821" lon="6.60078">
        <ele>876.4</ele>
        <time>2013-08-28T08:46:14Z</time>
      </trkpt>
      <trkpt lat="45.54824" lon="6.6008">
        <ele>875.9</ele>
        <time>2013-08-28T08:46:15Z</time>
      </trkpt>
      <trkpt lat="45.54827" lon="6.60082">
        <ele>875.4</ele>
        <time>2013-08-28T08:46:16Z</time>
      </trkpt>
      <trkpt lat="45.54829" lon="6.60083">
        <ele>875.4</ele>
        <time>2013-08-28T08:46:17Z</time>
      </trkpt>
      <trkpt lat="45.54832" lon="6.60083">
        <ele>874.9</ele>
        <time>2013-08-28T08:46:18Z</time>
      </trkpt>
      <trkpt lat="45.54835" lon="6.60083">
        <ele>874.5</ele>
        <time>2013-08-28T08:46:19Z</time>
      </trkpt>
      <trkpt lat="45.54839" lon="6.60085">
        <ele>874.5</ele>
        <time>2013-08-28T08:46:20Z</time>
      </trkpt>
      <trkpt lat="45.54842" lon="6.60088">
        <ele>874</ele>
        <time>2013-08-28T08:46:21Z</time>
      </trkpt>
      <trkpt lat="45.54844" lon="6.60092">
        <ele>873.5</ele>
        <time>2013-08-28T08:46:22Z</time>
      </trkpt>
      <trkpt lat="45.54845" lon="6.60097">
        <ele>872.5</ele>
        <time>2013-08-28T08:46:23Z</time>
      </trkpt>
      <trkpt lat="45.54843" lon="6.60101">
        <ele>872.5</ele>
        <time>2013-08-28T08:46:24Z</time>
      </trkpt>
      <trkpt lat="45.5484" lon="6.60103">
        <ele>871.6</ele>
        <time>2013-08-28T08:46:25Z</time>
      </trkpt>
      <trkpt lat="45.54835" lon="6.60104">
        <ele>871.1</ele>
        <time>2013-08-28T08:46:26Z</time>
      </trkpt>
      <trkpt lat="45.54831" lon="6.60103">
        <ele>871.6</ele>
        <time>2013-08-28T08:46:27Z</time>
      </trkpt>
      <trkpt lat="45.54822" lon="6.60106">
        <ele>870.1</ele>
        <time>2013-08-28T08:46:31Z</time>
      </trkpt>
      <trkpt lat="45.54821" lon="6.60107">
        <ele>869.7</ele>
        <time>2013-08-28T08:46:32Z</time>
      </trkpt>
      <trkpt lat="45.54821" lon="6.6011">
        <ele>869.2</ele>
        <time>2013-08-28T08:46:33Z</time>
      </trkpt>
      <trkpt lat="45.5482" lon="6.60127">
        <ele>865.8</ele>
        <time>2013-08-28T08:46:37Z</time>
      </trkpt>
      <trkpt lat="45.54817" lon="6.60141">
        <ele>862</ele>
        <time>2013-08-28T08:46:41Z</time>
      </trkpt>
      <trkpt lat="45.54818" lon="6.60144">
        <ele>861</ele>
        <time>2013-08-28T08:46:42Z</time>
      </trkpt>
      <trkpt lat="45.54819" lon="6.60146">
        <ele>861.5</ele>
        <time>2013-08-28T08:46:43Z</time>
      </trkpt>
      <trkpt lat="45.54816" lon="6.60149">
        <ele>862</ele>
        <time>2013-08-28T08:46:50Z</time>
      </trkpt>
      <trkpt lat="45.54811" lon="6.60158">
        <ele>858.6</ele>
        <time>2013-08-28T08:46:53Z</time>
      </trkpt>
      <trkpt lat="45.54809" lon="6.6017">
        <ele>856.7</ele>
        <time>2013-08-28T08:46:56Z</time>
      </trkpt>
      <trkpt lat="45.54807" lon="6.60172">
        <ele>856.7</ele>
        <time>2013-08-28T08:46:57Z</time>
      </trkpt>
      <trkpt lat="45.54803" lon="6.60173">
        <ele>855.7</ele>
        <time>2013-08-28T08:46:58Z</time>
      </trkpt>
      <trkpt lat="45.548" lon="6.60174">
        <ele>855.2</ele>
        <time>2013-08-28T08:46:59Z</time>
      </trkpt>
      <trkpt lat="45.54796" lon="6.60174">
        <ele>855.2</ele>
        <time>2013-08-28T08:47:00Z</time>
      </trkpt>
      <trkpt lat="45.54791" lon="6.60174">
        <ele>855.2</ele>
        <time>2013-08-28T08:47:01Z</time>
      </trkpt>
      <trkpt lat="45.54763" lon="6.60167">
        <ele>852.4</ele>
        <time>2013-08-28T08:47:06Z</time>
      </trkpt>
      <trkpt lat="45.54757" lon="6.60163">
        <ele>852.4</ele>
        <time>2013-08-28T08:47:07Z</time>
      </trkpt>
      <trkpt lat="45.5474" lon="6.60152">
        <ele>849.9</ele>
        <time>2013-08-28T08:47:10Z</time>
      </trkpt>
      <trkpt lat="45.54736" lon="6.60152">
        <ele>849.9</ele>
        <time>2013-08-28T08:47:11Z</time>
      </trkpt>
      <trkpt lat="45.54733" lon="6.60153">
        <ele>849.5</ele>
        <time>2013-08-28T08:47:12Z</time>
      </trkpt>
      <trkpt lat="45.5473" lon="6.60156">
        <ele>849.5</ele>
        <time>2013-08-28T08:47:13Z</time>
      </trkpt>
      <trkpt lat="45.54728" lon="6.60158">
        <ele>849</ele>
        <time>2013-08-28T08:47:14Z</time>
      </trkpt>
      <trkpt lat="45.5473" lon="6.60163">
        <ele>849</ele>
        <time>2013-08-28T08:47:24Z</time>
      </trkpt>
      <trkpt lat="45.54731" lon="6.60164">
        <ele>848.5</ele>
        <time>2013-08-28T08:47:25Z</time>
      </trkpt>
      <trkpt lat="45.54732" lon="6.60166">
        <ele>849</ele>
        <time>2013-08-28T08:47:26Z</time>
      </trkpt>
      <trkpt lat="45.54734" lon="6.60168">
        <ele>848</ele>
        <time>2013-08-28T08:47:27Z</time>
      </trkpt>
      <trkpt lat="45.54736" lon="6.60171">
        <ele>848</ele>
        <time>2013-08-28T08:47:28Z</time>
      </trkpt>
      <trkpt lat="45.54744" lon="6.60182">
        <ele>846.6</ele>
        <time>2013-08-28T08:47:31Z</time>
      </trkpt>
      <trkpt lat="45.54747" lon="6.60188">
        <ele>846.1</ele>
        <time>2013-08-28T08:47:32Z</time>
      </trkpt>
      <trkpt lat="45.54751" lon="6.60194">
        <ele>846.1</ele>
        <time>2013-08-28T08:47:33Z</time>
      </trkpt>
      <trkpt lat="45.54774" lon="6.60246">
        <ele>842.7</ele>
        <time>2013-08-28T08:47:40Z</time>
      </trkpt>
      <trkpt lat="45.54781" lon="6.60258">
        <ele>841.3</ele>
        <time>2013-08-28T08:47:42Z</time>
      </trkpt>
      <trkpt lat="45.54785" lon="6.60262">
        <ele>840.8</ele>
        <time>2013-08-28T08:47:43Z</time>
      </trkpt>
      <trkpt lat="45.5479" lon="6.60264">
        <ele>840.3</ele>
        <time>2013-08-28T08:47:44Z</time>
      </trkpt>
      <trkpt lat="45.54795" lon="6.60265">
        <ele>839.9</ele>
        <time>2013-08-28T08:47:45Z</time>
      </trkpt>
      <trkpt lat="45.54801" lon="6.60266">
        <ele>838.9</ele>
        <time>2013-08-28T08:47:46Z</time>
      </trkpt>
      <trkpt lat="45.54806" lon="6.60266">
        <ele>838.9</ele>
        <time>2013-08-28T08:47:47Z</time>
      </trkpt>
      <trkpt lat="45.54811" lon="6.60268">
        <ele>838.4</ele>
        <time>2013-08-28T08:47:48Z</time>
      </trkpt>
      <trkpt lat="45.54815" lon="6.60271">
        <ele>837.5</ele>
        <time>2013-08-28T08:47:49Z</time>
      </trkpt>
      <trkpt lat="45.54817" lon="6.60275">
        <ele>836.5</ele>
        <time>2013-08-28T08:47:50Z</time>
      </trkpt>
      <trkpt lat="45.54819" lon="6.60279">
        <ele>836.5</ele>
        <time>2013-08-28T08:47:51Z</time>
      </trkpt>
      <trkpt lat="45.5482" lon="6.60282">
        <ele>836.5</ele>
        <time>2013-08-28T08:47:52Z</time>
      </trkpt>
      <trkpt lat="45.54819" lon="6.60284">
        <ele>836.5</ele>
        <time>2013-08-28T08:47:53Z</time>
      </trkpt>
      <trkpt lat="45.54816" lon="6.60284">
        <ele>835.5</ele>
        <time>2013-08-28T08:47:54Z</time>
      </trkpt>
      <trkpt lat="45.54809" lon="6.60287">
        <ele>835.5</ele>
        <time>2013-08-28T08:47:55Z</time>
      </trkpt>
      <trkpt lat="45.54803" lon="6.60288">
        <ele>834.6</ele>
        <time>2013-08-28T08:47:56Z</time>
      </trkpt>
      <trkpt lat="45.54789" lon="6.60292">
        <ele>834.1</ele>
        <time>2013-08-28T08:47:58Z</time>
      </trkpt>
      <trkpt lat="45.54782" lon="6.60293">
        <ele>833.6</ele>
        <time>2013-08-28T08:47:59Z</time>
      </trkpt>
      <trkpt lat="45.54773" lon="6.60292">
        <ele>832.6</ele>
        <time>2013-08-28T08:48:00Z</time>
      </trkpt>
      <trkpt lat="45.54764" lon="6.60289">
        <ele>832.2</ele>
        <time>2013-08-28T08:48:01Z</time>
      </trkpt>
      <trkpt lat="45.54757" lon="6.60285">
        <ele>831.7</ele>
        <time>2013-08-28T08:48:02Z</time>
      </trkpt>
      <trkpt lat="45.5475" lon="6.6028">
        <ele>831.7</ele>
        <time>2013-08-28T08:48:03Z</time>
      </trkpt>
      <trkpt lat="45.54743" lon="6.60276">
        <ele>831.2</ele>
        <time>2013-08-28T08:48:04Z</time>
      </trkpt>
      <trkpt lat="45.54735" lon="6.60274">
        <ele>830.2</ele>
        <time>2013-08-28T08:48:05Z</time>
      </trkpt>
      <trkpt lat="45.547" lon="6.60269">
        <ele>826.4</ele>
        <time>2013-08-28T08:48:10Z</time>
      </trkpt>
      <trkpt lat="45.54687" lon="6.60266">
        <ele>825.4</ele>
        <time>2013-08-28T08:48:12Z</time>
      </trkpt>
      <trkpt lat="45.54667" lon="6.60256">
        <ele>822.1</ele>
        <time>2013-08-28T08:48:17Z</time>
      </trkpt>
      <trkpt lat="45.54657" lon="6.60254">
        <ele>821.6</ele>
        <time>2013-08-28T08:48:27Z</time>
      </trkpt>
      <trkpt lat="45.54639" lon="6.60243">
        <ele>819.2</ele>
        <time>2013-08-28T08:48:37Z</time>
      </trkpt>
      <trkpt lat="45.54636" lon="6.60241">
        <ele>818.7</ele>
        <time>2013-08-28T08:48:39Z</time>
      </trkpt>
      <trkpt lat="45.54618" lon="6.60212">
        <ele>816.3</ele>
        <time>2013-08-28T08:48:49Z</time>
      </trkpt>
      <trkpt lat="45.54615" lon="6.60209">
        <ele>815.8</ele>
        <time>2013-08-28T08:48:50Z</time>
      </trkpt>
      <trkpt lat="45.54612" lon="6.60208">
        <ele>816.3</ele>
        <time>2013-08-28T08:48:51Z</time>
      </trkpt>
      <trkpt lat="45.54609" lon="6.60209">
        <ele>815.3</ele>
        <time>2013-08-28T08:48:52Z</time>
      </trkpt>
      <trkpt lat="45.54607" lon="6.60211">
        <ele>814.9</ele>
        <time>2013-08-28T08:48:53Z</time>
      </trkpt>
      <trkpt lat="45.54605" lon="6.60215">
        <ele>814.9</ele>
        <time>2013-08-28T08:48:54Z</time>
      </trkpt>
      <trkpt lat="45.54604" lon="6.60219">
        <ele>814.9</ele>
        <time>2013-08-28T08:48:55Z</time>
      </trkpt>
      <trkpt lat="45.54603" lon="6.60224">
        <ele>814.4</ele>
        <time>2013-08-28T08:48:56Z</time>
      </trkpt>
      <trkpt lat="45.54603" lon="6.6023">
        <ele>814.4</ele>
        <time>2013-08-28T08:48:57Z</time>
      </trkpt>
      <trkpt lat="45.54602" lon="6.60237">
        <ele>813.4</ele>
        <time>2013-08-28T08:48:58Z</time>
      </trkpt>
      <trkpt lat="45.54602" lon="6.60252">
        <ele>812.9</ele>
        <time>2013-08-28T08:49:00Z</time>
      </trkpt>
      <trkpt lat="45.54604" lon="6.60295">
        <ele>809.1</ele>
        <time>2013-08-28T08:49:08Z</time>
      </trkpt>
      <trkpt lat="45.54602" lon="6.60299">
        <ele>809.1</ele>
        <time>2013-08-28T08:49:09Z</time>
      </trkpt>
      <trkpt lat="45.54599" lon="6.60301">
        <ele>809.1</ele>
        <time>2013-08-28T08:49:10Z</time>
      </trkpt>
      <trkpt lat="45.54597" lon="6.60302">
        <ele>808.6</ele>
        <time>2013-08-28T08:49:11Z</time>
      </trkpt>
      <trkpt lat="45.54594" lon="6.60302">
        <ele>808.6</ele>
        <time>2013-08-28T08:49:12Z</time>
      </trkpt>
      <trkpt lat="45.54592" lon="6.60299">
        <ele>808.6</ele>
        <time>2013-08-28T08:49:13Z</time>
      </trkpt>
      <trkpt lat="45.5459" lon="6.60296">
        <ele>807.6</ele>
        <time>2013-08-28T08:49:14Z</time>
      </trkpt>
      <trkpt lat="45.54588" lon="6.60291">
        <ele>807.6</ele>
        <time>2013-08-28T08:49:15Z</time>
      </trkpt>
      <trkpt lat="45.54586" lon="6.60286">
        <ele>807.6</ele>
        <time>2013-08-28T08:49:16Z</time>
      </trkpt>
      <trkpt lat="45.54583" lon="6.60272">
        <ele>806.2</ele>
        <time>2013-08-28T08:49:19Z</time>
      </trkpt>
      <trkpt lat="45.54579" lon="6.60265">
        <ele>806.2</ele>
        <time>2013-08-28T08:49:21Z</time>
      </trkpt>
      <trkpt lat="45.54576" lon="6.60263">
        <ele>805.7</ele>
        <time>2013-08-28T08:49:22Z</time>
      </trkpt>
      <trkpt lat="45.54573" lon="6.60263">
        <ele>805.2</ele>
        <time>2013-08-28T08:49:23Z</time>
      </trkpt>
      <trkpt lat="45.5457" lon="6.60265">
        <ele>804.8</ele>
        <time>2013-08-28T08:49:24Z</time>
      </trkpt>
      <trkpt lat="45.54568" lon="6.60268">
        <ele>804.3</ele>
        <time>2013-08-28T08:49:25Z</time>
      </trkpt>
      <trkpt lat="45.54565" lon="6.60273">
        <ele>804.8</ele>
        <time>2013-08-28T08:49:26Z</time>
      </trkpt>
      <trkpt lat="45.54564" lon="6.60278">
        <ele>804.8</ele>
        <time>2013-08-28T08:49:27Z</time>
      </trkpt>
      <trkpt lat="45.54563" lon="6.60284">
        <ele>804.3</ele>
        <time>2013-08-28T08:49:28Z</time>
      </trkpt>
      <trkpt lat="45.54558" lon="6.60302">
        <ele>803.3</ele>
        <time>2013-08-28T08:49:37Z</time>
      </trkpt>
      <trkpt lat="45.54559" lon="6.60301">
        <ele>802.4</ele>
        <time>2013-08-28T08:49:51Z</time>
      </trkpt>
      <trkpt lat="45.54557" lon="6.60303">
        <ele>788.4</ele>
        <time>2013-08-28T09:20:37Z</time>
      </trkpt>
      <trkpt lat="45.54557" lon="6.60329">
        <ele>788.9</ele>
        <time>2013-08-28T09:20:45Z</time>
      </trkpt>
      <trkpt lat="45.54552" lon="6.60326">
        <ele>786.5</ele>
        <time>2013-08-28T09:20:51Z</time>
      </trkpt>
      <trkpt lat="45.54552" lon="6.60322">
        <ele>786</ele>
        <time>2013-08-28T09:20:52Z</time>
      </trkpt>
      <trkpt lat="45.54551" lon="6.60317">
        <ele>785.5</ele>
        <time>2013-08-28T09:20:53Z</time>
      </trkpt>
      <trkpt lat="45.54549" lon="6.60312">
        <ele>784.6</ele>
        <time>2013-08-28T09:20:54Z</time>
      </trkpt>
      <trkpt lat="45.54547" lon="6.60306">
        <ele>785.1</ele>
        <time>2013-08-28T09:20:55Z</time>
      </trkpt>
      <trkpt lat="45.5454" lon="6.60274">
        <ele>781.7</ele>
        <time>2013-08-28T09:21:00Z</time>
      </trkpt>
      <trkpt lat="45.54539" lon="6.60266">
        <ele>781.2</ele>
        <time>2013-08-28T09:21:01Z</time>
      </trkpt>
      <trkpt lat="45.54535" lon="6.60246">
        <ele>780.3</ele>
        <time>2013-08-28T09:21:04Z</time>
      </trkpt>
      <trkpt lat="45.54531" lon="6.60231">
        <ele>778.8</ele>
        <time>2013-08-28T09:21:07Z</time>
      </trkpt>
      <trkpt lat="45.54524" lon="6.60178">
        <ele>775.4</ele>
        <time>2013-08-28T09:21:18Z</time>
      </trkpt>
      <trkpt lat="45.54512" lon="6.60131">
        <ele>772.6</ele>
        <time>2013-08-28T09:21:24Z</time>
      </trkpt>
      <trkpt lat="45.54509" lon="6.60123">
        <ele>772.6</ele>
        <time>2013-08-28T09:21:25Z</time>
      </trkpt>
      <trkpt lat="45.54465" lon="6.60036">
        <ele>769.7</ele>
        <time>2013-08-28T09:21:38Z</time>
      </trkpt>
      <trkpt lat="45.54432" lon="6.59975">
        <ele>770.2</ele>
        <time>2013-08-28T09:21:51Z</time>
      </trkpt>
      <trkpt lat="45.544" lon="6.59918">
        <ele>771.6</ele>
        <time>2013-08-28T09:22:06Z</time>
      </trkpt>
      <trkpt lat="45.5436" lon="6.59843">
        <ele>773</ele>
        <time>2013-08-28T09:22:24Z</time>
      </trkpt>
      <trkpt lat="45.54334" lon="6.59809">
        <ele>775.4</ele>
        <time>2013-08-28T09:22:38Z</time>
      </trkpt>
      <trkpt lat="45.54314" lon="6.59771">
        <ele>776.4</ele>
        <time>2013-08-28T09:22:51Z</time>
      </trkpt>
      <trkpt lat="45.54301" lon="6.59741">
        <ele>776.4</ele>
        <time>2013-08-28T09:22:57Z</time>
      </trkpt>
      <trkpt lat="45.54297" lon="6.59736">
        <ele>776.9</ele>
        <time>2013-08-28T09:22:58Z</time>
      </trkpt>
      <trkpt lat="45.54275" lon="6.59718">
        <ele>777.4</ele>
        <time>2013-08-28T09:23:04Z</time>
      </trkpt>
      <trkpt lat="45.54271" lon="6.59716">
        <ele>777.8</ele>
        <time>2013-08-28T09:23:05Z</time>
      </trkpt>
      <trkpt lat="45.54267" lon="6.59716">
        <ele>777.8</ele>
        <time>2013-08-28T09:23:06Z</time>
      </trkpt>
      <trkpt lat="45.54224" lon="6.59709">
        <ele>780.3</ele>
        <time>2013-08-28T09:23:20Z</time>
      </trkpt>
      <trkpt lat="45.54207" lon="6.5966">
        <ele>780.3</ele>
        <time>2013-08-28T09:23:31Z</time>
      </trkpt>
      <trkpt lat="45.54205" lon="6.59654">
        <ele>780.3</ele>
        <time>2013-08-28T09:23:32Z</time>
      </trkpt>
      <trkpt lat="45.54202" lon="6.59648">
        <ele>779.8</ele>
        <time>2013-08-28T09:23:33Z</time>
      </trkpt>
      <trkpt lat="45.54199" lon="6.59642">
        <ele>779.8</ele>
        <time>2013-08-28T09:23:34Z</time>
      </trkpt>
      <trkpt lat="45.54196" lon="6.59637">
        <ele>779.3</ele>
        <time>2013-08-28T09:23:35Z</time>
      </trkpt>
      <trkpt lat="45.54193" lon="6.59632">
        <ele>779.3</ele>
        <time>2013-08-28T09:23:36Z</time>
      </trkpt>
      <trkpt lat="45.54189" lon="6.59627">
        <ele>779.8</ele>
        <time>2013-08-28T09:23:37Z</time>
      </trkpt>
      <trkpt lat="45.54152" lon="6.59591">
        <ele>780.3</ele>
        <time>2013-08-28T09:23:48Z</time>
      </trkpt>
      <trkpt lat="45.54149" lon="6.59586">
        <ele>779.3</ele>
        <time>2013-08-28T09:23:49Z</time>
      </trkpt>
      <trkpt lat="45.54146" lon="6.59579">
        <ele>779.3</ele>
        <time>2013-08-28T09:23:50Z</time>
      </trkpt>
      <trkpt lat="45.54142" lon="6.59572">
        <ele>779.3</ele>
        <time>2013-08-28T09:23:51Z</time>
      </trkpt>
      <trkpt lat="45.54137" lon="6.59565">
        <ele>778.8</ele>
        <time>2013-08-28T09:23:52Z</time>
      </trkpt>
      <trkpt lat="45.54132" lon="6.59559">
        <ele>778.3</ele>
        <time>2013-08-28T09:23:53Z</time>
      </trkpt>
      <trkpt lat="45.54121" lon="6.59548">
        <ele>778.3</ele>
        <time>2013-08-28T09:23:55Z</time>
      </trkpt>
      <trkpt lat="45.54116" lon="6.59544">
        <ele>777.4</ele>
        <time>2013-08-28T09:23:56Z</time>
      </trkpt>
      <trkpt lat="45.5411" lon="6.59541">
        <ele>777.4</ele>
        <time>2013-08-28T09:23:57Z</time>
      </trkpt>
      <trkpt lat="45.5407" lon="6.59538">
        <ele>777.8</ele>
        <time>2013-08-28T09:24:03Z</time>
      </trkpt>
      <trkpt lat="45.54064" lon="6.59537">
        <ele>777.4</ele>
        <time>2013-08-28T09:24:04Z</time>
      </trkpt>
      <trkpt lat="45.54058" lon="6.59535">
        <ele>778.3</ele>
        <time>2013-08-28T09:24:05Z</time>
      </trkpt>
      <trkpt lat="45.54053" lon="6.59531">
        <ele>777.4</ele>
        <time>2013-08-28T09:24:06Z</time>
      </trkpt>
      <trkpt lat="45.54049" lon="6.59525">
        <ele>777.4</ele>
        <time>2013-08-28T09:24:07Z</time>
      </trkpt>
      <trkpt lat="45.54045" lon="6.59519">
        <ele>777.4</ele>
        <time>2013-08-28T09:24:08Z</time>
      </trkpt>
      <trkpt lat="45.54042" lon="6.59512">
        <ele>776.9</ele>
        <time>2013-08-28T09:24:09Z</time>
      </trkpt>
      <trkpt lat="45.54039" lon="6.59505">
        <ele>776.9</ele>
        <time>2013-08-28T09:24:10Z</time>
      </trkpt>
      <trkpt lat="45.54032" lon="6.59491">
        <ele>776.9</ele>
        <time>2013-08-28T09:24:12Z</time>
      </trkpt>
      <trkpt lat="45.54027" lon="6.59486">
        <ele>776.9</ele>
        <time>2013-08-28T09:24:13Z</time>
      </trkpt>
      <trkpt lat="45.54022" lon="6.59483">
        <ele>776.9</ele>
        <time>2013-08-28T09:24:14Z</time>
      </trkpt>
      <trkpt lat="45.54016" lon="6.59482">
        <ele>776.9</ele>
        <time>2013-08-28T09:24:15Z</time>
      </trkpt>
      <trkpt lat="45.54011" lon="6.59481">
        <ele>777.4</ele>
        <time>2013-08-28T09:24:16Z</time>
      </trkpt>
      <trkpt lat="45.54005" lon="6.59481">
        <ele>777.4</ele>
        <time>2013-08-28T09:24:17Z</time>
      </trkpt>
      <trkpt lat="45.53947" lon="6.59464">
        <ele>773.5</ele>
        <time>2013-08-28T09:24:26Z</time>
      </trkpt>
      <trkpt lat="45.53911" lon="6.59447">
        <ele>770.2</ele>
        <time>2013-08-28T09:24:30Z</time>
      </trkpt>
      <trkpt lat="45.53903" lon="6.59443">
        <ele>769.7</ele>
        <time>2013-08-28T09:24:31Z</time>
      </trkpt>
      <trkpt lat="45.53879" lon="6.59428">
        <ele>768.7</ele>
        <time>2013-08-28T09:24:34Z</time>
      </trkpt>
      <trkpt lat="45.53871" lon="6.59421">
        <ele>768.2</ele>
        <time>2013-08-28T09:24:35Z</time>
      </trkpt>
      <trkpt lat="45.53843" lon="6.5939">
        <ele>766.8</ele>
        <time>2013-08-28T09:24:39Z</time>
      </trkpt>
      <trkpt lat="45.53784" lon="6.59325">
        <ele>767.3</ele>
        <time>2013-08-28T09:24:50Z</time>
      </trkpt>
      <trkpt lat="45.53729" lon="6.59271">
        <ele>769.7</ele>
        <time>2013-08-28T09:25:05Z</time>
      </trkpt>
      <trkpt lat="45.53673" lon="6.59208">
        <ele>769.2</ele>
        <time>2013-08-28T09:25:22Z</time>
      </trkpt>
      <trkpt lat="45.53631" lon="6.59163">
        <ele>765.4</ele>
        <time>2013-08-28T09:25:30Z</time>
      </trkpt>
      <trkpt lat="45.53606" lon="6.59137">
        <ele>763.9</ele>
        <time>2013-08-28T09:25:34Z</time>
      </trkpt>
      <trkpt lat="45.53539" lon="6.59069">
        <ele>760.1</ele>
        <time>2013-08-28T09:25:45Z</time>
      </trkpt>
      <trkpt lat="45.53504" lon="6.59032">
        <ele>756.2</ele>
        <time>2013-08-28T09:25:50Z</time>
      </trkpt>
      <trkpt lat="45.53469" lon="6.58996">
        <ele>752.9</ele>
        <time>2013-08-28T09:25:54Z</time>
      </trkpt>
      <trkpt lat="45.53442" lon="6.58968">
        <ele>748.5</ele>
        <time>2013-08-28T09:25:57Z</time>
      </trkpt>
      <trkpt lat="45.53388" lon="6.58911">
        <ele>745.2</ele>
        <time>2013-08-28T09:26:03Z</time>
      </trkpt>
      <trkpt lat="45.53343" lon="6.58863">
        <ele>743.7</ele>
        <time>2013-08-28T09:26:09Z</time>
      </trkpt>
      <trkpt lat="45.53279" lon="6.58801">
        <ele>744.7</ele>
        <time>2013-08-28T09:26:20Z</time>
      </trkpt>
      <trkpt lat="45.53275" lon="6.58798">
        <ele>745.2</ele>
        <time>2013-08-28T09:26:21Z</time>
      </trkpt>
      <trkpt lat="45.53272" lon="6.58794">
        <ele>745.6</ele>
        <time>2013-08-28T09:26:22Z</time>
      </trkpt>
      <trkpt lat="45.53235" lon="6.58758">
        <ele>742.8</ele>
        <time>2013-08-28T09:26:32Z</time>
      </trkpt>
      <trkpt lat="45.5322" lon="6.5874">
        <ele>740.8</ele>
        <time>2013-08-28T09:26:35Z</time>
      </trkpt>
      <trkpt lat="45.53201" lon="6.58718">
        <ele>737</ele>
        <time>2013-08-28T09:26:39Z</time>
      </trkpt>
      <trkpt lat="45.53197" lon="6.58715">
        <ele>737</ele>
        <time>2013-08-28T09:26:40Z</time>
      </trkpt>
      <trkpt lat="45.53188" lon="6.58708">
        <ele>736</ele>
        <time>2013-08-28T09:26:48Z</time>
      </trkpt>
      <trkpt lat="45.53168" lon="6.58688">
        <ele>734.1</ele>
        <time>2013-08-28T09:26:55Z</time>
      </trkpt>
      <trkpt lat="45.53102" lon="6.58649">
        <ele>731.2</ele>
        <time>2013-08-28T09:27:07Z</time>
      </trkpt>
      <trkpt lat="45.53017" lon="6.586">
        <ele>728.8</ele>
        <time>2013-08-28T09:27:21Z</time>
      </trkpt>
      <trkpt lat="45.53012" lon="6.58597">
        <ele>729.3</ele>
        <time>2013-08-28T09:27:22Z</time>
      </trkpt>
      <trkpt lat="45.53008" lon="6.58593">
        <ele>729.3</ele>
        <time>2013-08-28T09:27:23Z</time>
      </trkpt>
      <trkpt lat="45.52991" lon="6.58573">
        <ele>730.3</ele>
        <time>2013-08-28T09:27:28Z</time>
      </trkpt>
      <trkpt lat="45.52984" lon="6.58566">
        <ele>731.2</ele>
        <time>2013-08-28T09:27:30Z</time>
      </trkpt>
      <trkpt lat="45.5297" lon="6.58541">
        <ele>731.7</ele>
        <time>2013-08-28T09:27:36Z</time>
      </trkpt>
      <trkpt lat="45.52953" lon="6.5848">
        <ele>730.7</ele>
        <time>2013-08-28T09:27:46Z</time>
      </trkpt>
      <trkpt lat="45.52942" lon="6.58445">
        <ele>730.3</ele>
        <time>2013-08-28T09:27:51Z</time>
      </trkpt>
      <trkpt lat="45.5294" lon="6.58439">
        <ele>730.3</ele>
        <time>2013-08-28T09:27:52Z</time>
      </trkpt>
      <trkpt lat="45.52937" lon="6.58434">
        <ele>729.8</ele>
        <time>2013-08-28T09:27:53Z</time>
      </trkpt>
      <trkpt lat="45.52911" lon="6.58407">
        <ele>728.8</ele>
        <time>2013-08-28T09:28:01Z</time>
      </trkpt>
      <trkpt lat="45.52882" lon="6.58373">
        <ele>726.4</ele>
        <time>2013-08-28T09:28:08Z</time>
      </trkpt>
      <trkpt lat="45.52879" lon="6.58368">
        <ele>725.9</ele>
        <time>2013-08-28T09:28:09Z</time>
      </trkpt>
      <trkpt lat="45.52857" lon="6.58341">
        <ele>724.5</ele>
        <time>2013-08-28T09:28:14Z</time>
      </trkpt>
      <trkpt lat="45.52819" lon="6.58296">
        <ele>721.1</ele>
        <time>2013-08-28T09:28:22Z</time>
      </trkpt>
      <trkpt lat="45.52814" lon="6.58289">
        <ele>721.1</ele>
        <time>2013-08-28T09:28:23Z</time>
      </trkpt>
      <trkpt lat="45.52811" lon="6.58281">
        <ele>720.2</ele>
        <time>2013-08-28T09:28:24Z</time>
      </trkpt>
      <trkpt lat="45.52808" lon="6.58273">
        <ele>719.7</ele>
        <time>2013-08-28T09:28:25Z</time>
      </trkpt>
      <trkpt lat="45.52806" lon="6.58265">
        <ele>719.2</ele>
        <time>2013-08-28T09:28:26Z</time>
      </trkpt>
      <trkpt lat="45.52801" lon="6.5824">
        <ele>717.8</ele>
        <time>2013-08-28T09:28:29Z</time>
      </trkpt>
      <trkpt lat="45.52798" lon="6.58233">
        <ele>716.8</ele>
        <time>2013-08-28T09:28:30Z</time>
      </trkpt>
      <trkpt lat="45.5279" lon="6.58211">
        <ele>716.8</ele>
        <time>2013-08-28T09:28:33Z</time>
      </trkpt>
      <trkpt lat="45.52786" lon="6.58204">
        <ele>716.3</ele>
        <time>2013-08-28T09:28:34Z</time>
      </trkpt>
      <trkpt lat="45.52782" lon="6.58197">
        <ele>715.4</ele>
        <time>2013-08-28T09:28:35Z</time>
      </trkpt>
      <trkpt lat="45.52778" lon="6.58191">
        <ele>715.8</ele>
        <time>2013-08-28T09:28:36Z</time>
      </trkpt>
      <trkpt lat="45.52774" lon="6.58185">
        <ele>714.9</ele>
        <time>2013-08-28T09:28:37Z</time>
      </trkpt>
      <trkpt lat="45.52755" lon="6.58163">
        <ele>712.5</ele>
        <time>2013-08-28T09:28:44Z</time>
      </trkpt>
      <trkpt lat="45.52733" lon="6.58139">
        <ele>711</ele>
        <time>2013-08-28T09:28:49Z</time>
      </trkpt>
      <trkpt lat="45.52728" lon="6.58135">
        <ele>710.1</ele>
        <time>2013-08-28T09:28:50Z</time>
      </trkpt>
      <trkpt lat="45.52702" lon="6.58108">
        <ele>707.7</ele>
        <time>2013-08-28T09:28:57Z</time>
      </trkpt>
      <trkpt lat="45.5265" lon="6.58059">
        <ele>704.8</ele>
        <time>2013-08-28T09:29:10Z</time>
      </trkpt>
      <trkpt lat="45.52639" lon="6.58052">
        <ele>703.8</ele>
        <time>2013-08-28T09:29:12Z</time>
      </trkpt>
      <trkpt lat="45.52634" lon="6.58048">
        <ele>702.4</ele>
        <time>2013-08-28T09:29:13Z</time>
      </trkpt>
      <trkpt lat="45.5263" lon="6.58043">
        <ele>702.4</ele>
        <time>2013-08-28T09:29:14Z</time>
      </trkpt>
      <trkpt lat="45.52626" lon="6.58039">
        <ele>701.9</ele>
        <time>2013-08-28T09:29:15Z</time>
      </trkpt>
      <trkpt lat="45.52617" lon="6.5803">
        <ele>700.9</ele>
        <time>2013-08-28T09:29:18Z</time>
      </trkpt>
      <trkpt lat="45.52594" lon="6.58005">
        <ele>699.5</ele>
        <time>2013-08-28T09:29:24Z</time>
      </trkpt>
      <trkpt lat="45.5257" lon="6.57984">
        <ele>697.6</ele>
        <time>2013-08-28T09:29:30Z</time>
      </trkpt>
      <trkpt lat="45.52566" lon="6.57981">
        <ele>697.6</ele>
        <time>2013-08-28T09:29:31Z</time>
      </trkpt>
      <trkpt lat="45.52562" lon="6.57977">
        <ele>696.6</ele>
        <time>2013-08-28T09:29:32Z</time>
      </trkpt>
      <trkpt lat="45.52555" lon="6.57967">
        <ele>696.6</ele>
        <time>2013-08-28T09:29:34Z</time>
      </trkpt>
      <trkpt lat="45.52551" lon="6.57963">
        <ele>696.6</ele>
        <time>2013-08-28T09:29:35Z</time>
      </trkpt>
      <trkpt lat="45.52537" lon="6.57947">
        <ele>696.6</ele>
        <time>2013-08-28T09:29:39Z</time>
      </trkpt>
      <trkpt lat="45.52534" lon="6.57943">
        <ele>696.6</ele>
        <time>2013-08-28T09:29:40Z</time>
      </trkpt>
      <trkpt lat="45.52531" lon="6.5794">
        <ele>696.6</ele>
        <time>2013-08-28T09:29:41Z</time>
      </trkpt>
      <trkpt lat="45.52521" lon="6.57928">
        <ele>696.1</ele>
        <time>2013-08-28T09:29:47Z</time>
      </trkpt>
      <trkpt lat="45.52519" lon="6.57927">
        <ele>696.1</ele>
        <time>2013-08-28T09:29:48Z</time>
      </trkpt>
      <trkpt lat="45.52516" lon="6.5792">
        <ele>696.6</ele>
        <time>2013-08-28T09:29:56Z</time>
      </trkpt>
      <trkpt lat="45.52513" lon="6.57917">
        <ele>696.1</ele>
        <time>2013-08-28T09:29:59Z</time>
      </trkpt>
      <trkpt lat="45.52512" lon="6.57916">
        <ele>696.1</ele>
        <time>2013-08-28T09:30:00Z</time>
      </trkpt>
      <trkpt lat="45.52511" lon="6.57914">
        <ele>696.1</ele>
        <time>2013-08-28T09:30:01Z</time>
      </trkpt>
      <trkpt lat="45.5251" lon="6.57913">
        <ele>695.7</ele>
        <time>2013-08-28T09:30:02Z</time>
      </trkpt>
      <trkpt lat="45.52509" lon="6.5791">
        <ele>696.1</ele>
        <time>2013-08-28T09:30:03Z</time>
      </trkpt>
      <trkpt lat="45.52494" lon="6.57892">
        <ele>695.2</ele>
        <time>2013-08-28T09:30:14Z</time>
      </trkpt>
      <trkpt lat="45.52489" lon="6.57889">
        <ele>695.2</ele>
        <time>2013-08-28T09:30:34Z</time>
      </trkpt>
      <trkpt lat="45.52493" lon="6.57878">
        <ele>695.7</ele>
        <time>2013-08-28T09:30:56Z</time>
      </trkpt>
      <trkpt lat="45.52495" lon="6.57869">
        <ele>695.7</ele>
        <time>2013-08-28T09:31:33Z</time>
      </trkpt>
      <trkpt lat="45.52502" lon="6.57879">
        <ele>696.1</ele>
        <time>2013-08-28T09:31:46Z</time>
      </trkpt>
      <trkpt lat="45.52509" lon="6.57895">
        <ele>696.6</ele>
        <time>2013-08-28T09:32:00Z</time>
      </trkpt>
      <trkpt lat="45.52517" lon="6.57904">
        <ele>697.1</ele>
        <time>2013-08-28T09:32:12Z</time>
      </trkpt>
      <trkpt lat="45.52522" lon="6.57909">
        <ele>697.1</ele>
        <time>2013-08-28T09:32:18Z</time>
      </trkpt>
      <trkpt lat="45.52528" lon="6.57917">
        <ele>698.5</ele>
        <time>2013-08-28T09:32:29Z</time>
      </trkpt>
      <trkpt lat="45.52533" lon="6.57927">
        <ele>697.6</ele>
        <time>2013-08-28T09:32:43Z</time>
      </trkpt>
      <trkpt lat="45.52535" lon="6.57933">
        <ele>697.6</ele>
        <time>2013-08-28T09:32:50Z</time>
      </trkpt>
      <trkpt lat="45.52536" lon="6.57935">
        <ele>697.6</ele>
        <time>2013-08-28T09:32:51Z</time>
      </trkpt>
      <trkpt lat="45.52537" lon="6.57937">
        <ele>698.1</ele>
        <time>2013-08-28T09:32:52Z</time>
      </trkpt>
      <trkpt lat="45.52539" lon="6.57939">
        <ele>698.1</ele>
        <time>2013-08-28T09:32:53Z</time>
      </trkpt>
      <trkpt lat="45.5254" lon="6.57941">
        <ele>697.6</ele>
        <time>2013-08-28T09:32:54Z</time>
      </trkpt>
      <trkpt lat="45.52542" lon="6.57943">
        <ele>697.6</ele>
        <time>2013-08-28T09:32:55Z</time>
      </trkpt>
      <trkpt lat="45.52544" lon="6.57945">
        <ele>697.6</ele>
        <time>2013-08-28T09:32:56Z</time>
      </trkpt>
      <trkpt lat="45.52545" lon="6.57948">
        <ele>698.5</ele>
        <time>2013-08-28T09:32:57Z</time>
      </trkpt>
      <trkpt lat="45.52548" lon="6.5795">
        <ele>698.1</ele>
        <time>2013-08-28T09:32:58Z</time>
      </trkpt>
      <trkpt lat="45.52549" lon="6.57952">
        <ele>698.1</ele>
        <time>2013-08-28T09:32:59Z</time>
      </trkpt>
      <trkpt lat="45.52552" lon="6.57964">
        <ele>698.1</ele>
        <time>2013-08-28T09:33:04Z</time>
      </trkpt>
      <trkpt lat="45.52556" lon="6.57968">
        <ele>698.5</ele>
        <time>2013-08-28T09:33:06Z</time>
      </trkpt>
      <trkpt lat="45.52562" lon="6.57971">
        <ele>698.1</ele>
        <time>2013-08-28T09:33:08Z</time>
      </trkpt>
      <trkpt lat="45.52565" lon="6.57972">
        <ele>698.5</ele>
        <time>2013-08-28T09:33:09Z</time>
      </trkpt>
      <trkpt lat="45.52568" lon="6.57974">
        <ele>698.5</ele>
        <time>2013-08-28T09:33:10Z</time>
      </trkpt>
      <trkpt lat="45.52571" lon="6.57975">
        <ele>699</ele>
        <time>2013-08-28T09:33:11Z</time>
      </trkpt>
      <trkpt lat="45.52573" lon="6.57977">
        <ele>699</ele>
        <time>2013-08-28T09:33:12Z</time>
      </trkpt>
      <trkpt lat="45.52576" lon="6.57978">
        <ele>699</ele>
        <time>2013-08-28T09:33:13Z</time>
      </trkpt>
      <trkpt lat="45.52599" lon="6.57993">
        <ele>700.5</ele>
        <time>2013-08-28T09:33:24Z</time>
      </trkpt>
      <trkpt lat="45.52601" lon="6.57995">
        <ele>700.9</ele>
        <time>2013-08-28T09:33:25Z</time>
      </trkpt>
      <trkpt lat="45.52602" lon="6.57997">
        <ele>700.9</ele>
        <time>2013-08-28T09:33:26Z</time>
      </trkpt>
      <trkpt lat="45.52604" lon="6.57999">
        <ele>700.9</ele>
        <time>2013-08-28T09:33:27Z</time>
      </trkpt>
      <trkpt lat="45.52606" lon="6.58001">
        <ele>701.4</ele>
        <time>2013-08-28T09:33:28Z</time>
      </trkpt>
      <trkpt lat="45.5261" lon="6.58004">
        <ele>701.4</ele>
        <time>2013-08-28T09:33:31Z</time>
      </trkpt>
      <trkpt lat="45.52612" lon="6.58009">
        <ele>701.9</ele>
        <time>2013-08-28T09:33:34Z</time>
      </trkpt>
      <trkpt lat="45.52613" lon="6.58011">
        <ele>701.9</ele>
        <time>2013-08-28T09:33:35Z</time>
      </trkpt>
      <trkpt lat="45.52615" lon="6.58013">
        <ele>702.9</ele>
        <time>2013-08-28T09:33:36Z</time>
      </trkpt>
      <trkpt lat="45.52616" lon="6.58015">
        <ele>702.9</ele>
        <time>2013-08-28T09:33:37Z</time>
      </trkpt>
      <trkpt lat="45.52617" lon="6.58017">
        <ele>702.9</ele>
        <time>2013-08-28T09:33:38Z</time>
      </trkpt>
      <trkpt lat="45.5262" lon="6.58021">
        <ele>702.9</ele>
        <time>2013-08-28T09:33:40Z</time>
      </trkpt>
      <trkpt lat="45.52627" lon="6.58026">
        <ele>702.9</ele>
        <time>2013-08-28T09:33:44Z</time>
      </trkpt>
      <trkpt lat="45.52629" lon="6.5803">
        <ele>703.3</ele>
        <time>2013-08-28T09:33:46Z</time>
      </trkpt>
      <trkpt lat="45.5263" lon="6.58032">
        <ele>703.8</ele>
        <time>2013-08-28T09:33:47Z</time>
      </trkpt>
      <trkpt lat="45.52631" lon="6.58035">
        <ele>703.8</ele>
        <time>2013-08-28T09:33:48Z</time>
      </trkpt>
      <trkpt lat="45.52633" lon="6.58036">
        <ele>703.8</ele>
        <time>2013-08-28T09:33:49Z</time>
      </trkpt>
      <trkpt lat="45.52634" lon="6.58038">
        <ele>703.3</ele>
        <time>2013-08-28T09:33:50Z</time>
      </trkpt>
      <trkpt lat="45.52636" lon="6.58039">
        <ele>704.3</ele>
        <time>2013-08-28T09:33:51Z</time>
      </trkpt>
      <trkpt lat="45.52637" lon="6.58041">
        <ele>704.3</ele>
        <time>2013-08-28T09:33:52Z</time>
      </trkpt>
      <trkpt lat="45.52639" lon="6.58043">
        <ele>704.8</ele>
        <time>2013-08-28T09:33:53Z</time>
      </trkpt>
      <trkpt lat="45.5264" lon="6.58044">
        <ele>704.3</ele>
        <time>2013-08-28T09:33:54Z</time>
      </trkpt>
      <trkpt lat="45.52641" lon="6.58044">
        <ele>704.8</ele>
        <time>2013-08-28T09:33:55Z</time>
      </trkpt>
      <trkpt lat="45.52653" lon="6.58051">
        <ele>705.3</ele>
        <time>2013-08-28T09:34:01Z</time>
      </trkpt>
      <trkpt lat="45.52655" lon="6.58051">
        <ele>706.2</ele>
        <time>2013-08-28T09:34:02Z</time>
      </trkpt>
      <trkpt lat="45.52678" lon="6.58066">
        <ele>707.7</ele>
        <time>2013-08-28T09:34:15Z</time>
      </trkpt>
      <trkpt lat="45.52701" lon="6.58094">
        <ele>709.1</ele>
        <time>2013-08-28T09:34:29Z</time>
      </trkpt>
      <trkpt lat="45.5272" lon="6.58117">
        <ele>711</ele>
        <time>2013-08-28T09:34:42Z</time>
      </trkpt>
      <trkpt lat="45.52721" lon="6.58118">
        <ele>711.5</ele>
        <time>2013-08-28T09:34:43Z</time>
      </trkpt>
      <trkpt lat="45.52723" lon="6.5812">
        <ele>711.5</ele>
        <time>2013-08-28T09:34:44Z</time>
      </trkpt>
      <trkpt lat="45.52725" lon="6.58122">
        <ele>711.5</ele>
        <time>2013-08-28T09:34:45Z</time>
      </trkpt>
      <trkpt lat="45.52727" lon="6.58124">
        <ele>712</ele>
        <time>2013-08-28T09:34:46Z</time>
      </trkpt>
      <trkpt lat="45.52729" lon="6.58126">
        <ele>712</ele>
        <time>2013-08-28T09:34:47Z</time>
      </trkpt>
      <trkpt lat="45.5273" lon="6.58129">
        <ele>712</ele>
        <time>2013-08-28T09:34:48Z</time>
      </trkpt>
      <trkpt lat="45.52732" lon="6.58131">
        <ele>712</ele>
        <time>2013-08-28T09:34:49Z</time>
      </trkpt>
      <trkpt lat="45.52734" lon="6.58133">
        <ele>712</ele>
        <time>2013-08-28T09:34:50Z</time>
      </trkpt>
      <trkpt lat="45.52736" lon="6.58135">
        <ele>712.5</ele>
        <time>2013-08-28T09:34:51Z</time>
      </trkpt>
      <trkpt lat="45.52738" lon="6.58137">
        <ele>712</ele>
        <time>2013-08-28T09:34:52Z</time>
      </trkpt>
      <trkpt lat="45.52757" lon="6.58163">
        <ele>713.9</ele>
        <time>2013-08-28T09:35:06Z</time>
      </trkpt>
      <trkpt lat="45.5277" lon="6.58174">
        <ele>715.8</ele>
        <time>2013-08-28T09:35:15Z</time>
      </trkpt>
      <trkpt lat="45.52773" lon="6.58177">
        <ele>715.8</ele>
        <time>2013-08-28T09:35:17Z</time>
      </trkpt>
      <trkpt lat="45.52774" lon="6.58179">
        <ele>715.8</ele>
        <time>2013-08-28T09:35:18Z</time>
      </trkpt>
      <trkpt lat="45.52775" lon="6.58182">
        <ele>716.8</ele>
        <time>2013-08-28T09:35:19Z</time>
      </trkpt>
      <trkpt lat="45.52777" lon="6.58183">
        <ele>716.8</ele>
        <time>2013-08-28T09:35:20Z</time>
      </trkpt>
      <trkpt lat="45.52778" lon="6.58186">
        <ele>717.3</ele>
        <time>2013-08-28T09:35:21Z</time>
      </trkpt>
      <trkpt lat="45.5278" lon="6.58188">
        <ele>717.3</ele>
        <time>2013-08-28T09:35:22Z</time>
      </trkpt>
      <trkpt lat="45.52786" lon="6.58198">
        <ele>717.3</ele>
        <time>2013-08-28T09:35:26Z</time>
      </trkpt>
      <trkpt lat="45.52788" lon="6.582">
        <ele>717.3</ele>
        <time>2013-08-28T09:35:27Z</time>
      </trkpt>
      <trkpt lat="45.52789" lon="6.58203">
        <ele>717.3</ele>
        <time>2013-08-28T09:35:28Z</time>
      </trkpt>
      <trkpt lat="45.52791" lon="6.58205">
        <ele>717.8</ele>
        <time>2013-08-28T09:35:29Z</time>
      </trkpt>
      <trkpt lat="45.52792" lon="6.58208">
        <ele>718.2</ele>
        <time>2013-08-28T09:35:30Z</time>
      </trkpt>
      <trkpt lat="45.52792" lon="6.58209">
        <ele>718.2</ele>
        <time>2013-08-28T09:35:31Z</time>
      </trkpt>
      <trkpt lat="45.52804" lon="6.58244">
        <ele>719.7</ele>
        <time>2013-08-28T09:35:42Z</time>
      </trkpt>
      <trkpt lat="45.52804" lon="6.58248">
        <ele>719.7</ele>
        <time>2013-08-28T09:35:43Z</time>
      </trkpt>
      <trkpt lat="45.5281" lon="6.58278">
        <ele>720.7</ele>
        <time>2013-08-28T09:35:53Z</time>
      </trkpt>
      <trkpt lat="45.52811" lon="6.5828">
        <ele>721.1</ele>
        <time>2013-08-28T09:35:54Z</time>
      </trkpt>
      <trkpt lat="45.52812" lon="6.58283">
        <ele>720.7</ele>
        <time>2013-08-28T09:35:55Z</time>
      </trkpt>
      <trkpt lat="45.52838" lon="6.58321">
        <ele>723.1</ele>
        <time>2013-08-28T09:36:11Z</time>
      </trkpt>
      <trkpt lat="45.52868" lon="6.58353">
        <ele>725.9</ele>
        <time>2013-08-28T09:36:27Z</time>
      </trkpt>
      <trkpt lat="45.52902" lon="6.58393">
        <ele>728.8</ele>
        <time>2013-08-28T09:36:44Z</time>
      </trkpt>
      <trkpt lat="45.52932" lon="6.58428">
        <ele>731.2</ele>
        <time>2013-08-28T09:37:01Z</time>
      </trkpt>
      <trkpt lat="45.52949" lon="6.5847">
        <ele>731.2</ele>
        <time>2013-08-28T09:37:12Z</time>
      </trkpt>
      <trkpt lat="45.52964" lon="6.58526">
        <ele>732.7</ele>
        <time>2013-08-28T09:37:27Z</time>
      </trkpt>
      <trkpt lat="45.52988" lon="6.58572">
        <ele>732.2</ele>
        <time>2013-08-28T09:37:38Z</time>
      </trkpt>
      <trkpt lat="45.53007" lon="6.58594">
        <ele>731.7</ele>
        <time>2013-08-28T09:37:43Z</time>
      </trkpt>
      <trkpt lat="45.53012" lon="6.58599">
        <ele>731.2</ele>
        <time>2013-08-28T09:37:44Z</time>
      </trkpt>
      <trkpt lat="45.53017" lon="6.58602">
        <ele>731.2</ele>
        <time>2013-08-28T09:37:45Z</time>
      </trkpt>
      <trkpt lat="45.53084" lon="6.58644">
        <ele>730.7</ele>
        <time>2013-08-28T09:38:01Z</time>
      </trkpt>
      <trkpt lat="45.53125" lon="6.58666">
        <ele>733.1</ele>
        <time>2013-08-28T09:38:14Z</time>
      </trkpt>
      <trkpt lat="45.53157" lon="6.58682">
        <ele>734.6</ele>
        <time>2013-08-28T09:38:27Z</time>
      </trkpt>
      <trkpt lat="45.53186" lon="6.5871">
        <ele>738</ele>
        <time>2013-08-28T09:38:40Z</time>
      </trkpt>
      <trkpt lat="45.53185" lon="6.58713">
        <ele>738</ele>
        <time>2013-08-28T09:38:41Z</time>
      </trkpt>
      <trkpt lat="45.53185" lon="6.58717">
        <ele>737.5</ele>
        <time>2013-08-28T09:38:42Z</time>
      </trkpt>
      <trkpt lat="45.53185" lon="6.58735">
        <ele>737</ele>
        <time>2013-08-28T09:38:46Z</time>
      </trkpt>
      <trkpt lat="45.53187" lon="6.5874">
        <ele>737</ele>
        <time>2013-08-28T09:38:47Z</time>
      </trkpt>
      <trkpt lat="45.53194" lon="6.58769">
        <ele>736</ele>
        <time>2013-08-28T09:38:51Z</time>
      </trkpt>
      <trkpt lat="45.53202" lon="6.58794">
        <ele>734.6</ele>
        <time>2013-08-28T09:38:54Z</time>
      </trkpt>
      <trkpt lat="45.53204" lon="6.58803">
        <ele>733.1</ele>
        <time>2013-08-28T09:38:55Z</time>
      </trkpt>
      <trkpt lat="45.5321" lon="6.58824">
        <ele>732.7</ele>
        <time>2013-08-28T09:38:57Z</time>
      </trkpt>
      <trkpt lat="45.53215" lon="6.58834">
        <ele>731.7</ele>
        <time>2013-08-28T09:38:58Z</time>
      </trkpt>
      <trkpt lat="45.53221" lon="6.58842">
        <ele>731.2</ele>
        <time>2013-08-28T09:38:59Z</time>
      </trkpt>
      <trkpt lat="45.53241" lon="6.58868">
        <ele>729.3</ele>
        <time>2013-08-28T09:39:02Z</time>
      </trkpt>
      <trkpt lat="45.53249" lon="6.58876">
        <ele>728.8</ele>
        <time>2013-08-28T09:39:03Z</time>
      </trkpt>
      <trkpt lat="45.53258" lon="6.58882">
        <ele>727.9</ele>
        <time>2013-08-28T09:39:04Z</time>
      </trkpt>
      <trkpt lat="45.53267" lon="6.58886">
        <ele>727.4</ele>
        <time>2013-08-28T09:39:05Z</time>
      </trkpt>
      <trkpt lat="45.53276" lon="6.58889">
        <ele>726.4</ele>
        <time>2013-08-28T09:39:06Z</time>
      </trkpt>
      <trkpt lat="45.53285" lon="6.58892">
        <ele>725</ele>
        <time>2013-08-28T09:39:07Z</time>
      </trkpt>
      <trkpt lat="45.53326" lon="6.58919">
        <ele>721.6</ele>
        <time>2013-08-28T09:39:12Z</time>
      </trkpt>
      <trkpt lat="45.5335" lon="6.58944">
        <ele>720.2</ele>
        <time>2013-08-28T09:39:15Z</time>
      </trkpt>
      <trkpt lat="45.5338" lon="6.58987">
        <ele>715.8</ele>
        <time>2013-08-28T09:39:19Z</time>
      </trkpt>
      <trkpt lat="45.53406" lon="6.59032">
        <ele>712.5</ele>
        <time>2013-08-28T09:39:23Z</time>
      </trkpt>
      <trkpt lat="45.53429" lon="6.59077">
        <ele>709.1</ele>
        <time>2013-08-28T09:39:27Z</time>
      </trkpt>
      <trkpt lat="45.53441" lon="6.59101">
        <ele>706.7</ele>
        <time>2013-08-28T09:39:29Z</time>
      </trkpt>
      <trkpt lat="45.53445" lon="6.59114">
        <ele>706.7</ele>
        <time>2013-08-28T09:39:30Z</time>
      </trkpt>
      <trkpt lat="45.53456" lon="6.59141">
        <ele>704.8</ele>
        <time>2013-08-28T09:39:32Z</time>
      </trkpt>
      <trkpt lat="45.53463" lon="6.59153">
        <ele>704.3</ele>
        <time>2013-08-28T09:39:33Z</time>
      </trkpt>
      <trkpt lat="45.53493" lon="6.59191">
        <ele>700.9</ele>
        <time>2013-08-28T09:39:38Z</time>
      </trkpt>
      <trkpt lat="45.53502" lon="6.59199">
        <ele>699.5</ele>
        <time>2013-08-28T09:39:40Z</time>
      </trkpt>
      <trkpt lat="45.53504" lon="6.59205">
        <ele>699</ele>
        <time>2013-08-28T09:39:41Z</time>
      </trkpt>
      <trkpt lat="45.53502" lon="6.59212">
        <ele>699</ele>
        <time>2013-08-28T09:39:42Z</time>
      </trkpt>
      <trkpt lat="45.53497" lon="6.59214">
        <ele>698.1</ele>
        <time>2013-08-28T09:39:43Z</time>
      </trkpt>
      <trkpt lat="45.5349" lon="6.59213">
        <ele>697.6</ele>
        <time>2013-08-28T09:39:44Z</time>
      </trkpt>
      <trkpt lat="45.53485" lon="6.59208">
        <ele>697.6</ele>
        <time>2013-08-28T09:39:45Z</time>
      </trkpt>
      <trkpt lat="45.53479" lon="6.59201">
        <ele>697.1</ele>
        <time>2013-08-28T09:39:46Z</time>
      </trkpt>
      <trkpt lat="45.53467" lon="6.59188">
        <ele>696.6</ele>
        <time>2013-08-28T09:39:48Z</time>
      </trkpt>
      <trkpt lat="45.53434" lon="6.59148">
        <ele>692.8</ele>
        <time>2013-08-28T09:39:53Z</time>
      </trkpt>
      <trkpt lat="45.53427" lon="6.59141">
        <ele>692.8</ele>
        <time>2013-08-28T09:39:54Z</time>
      </trkpt>
      <trkpt lat="45.53394" lon="6.59111">
        <ele>689.4</ele>
        <time>2013-08-28T09:39:58Z</time>
      </trkpt>
      <trkpt lat="45.5337" lon="6.59083">
        <ele>687</ele>
        <time>2013-08-28T09:40:01Z</time>
      </trkpt>
      <trkpt lat="45.53336" lon="6.5905">
        <ele>683.2</ele>
        <time>2013-08-28T09:40:05Z</time>
      </trkpt>
      <trkpt lat="45.53311" lon="6.59025">
        <ele>679.8</ele>
        <time>2013-08-28T09:40:09Z</time>
      </trkpt>
      <trkpt lat="45.53306" lon="6.59022">
        <ele>679.3</ele>
        <time>2013-08-28T09:40:10Z</time>
      </trkpt>
      <trkpt lat="45.53302" lon="6.59023">
        <ele>678.4</ele>
        <time>2013-08-28T09:40:11Z</time>
      </trkpt>
      <trkpt lat="45.533" lon="6.59028">
        <ele>677.9</ele>
        <time>2013-08-28T09:40:12Z</time>
      </trkpt>
      <trkpt lat="45.53301" lon="6.59035">
        <ele>676.9</ele>
        <time>2013-08-28T09:40:13Z</time>
      </trkpt>
      <trkpt lat="45.53305" lon="6.59041">
        <ele>677.4</ele>
        <time>2013-08-28T09:40:14Z</time>
      </trkpt>
      <trkpt lat="45.53311" lon="6.59046">
        <ele>676.4</ele>
        <time>2013-08-28T09:40:15Z</time>
      </trkpt>
      <trkpt lat="45.53322" lon="6.59058">
        <ele>675</ele>
        <time>2013-08-28T09:40:17Z</time>
      </trkpt>
      <trkpt lat="45.53328" lon="6.59066">
        <ele>675</ele>
        <time>2013-08-28T09:40:18Z</time>
      </trkpt>
      <trkpt lat="45.53333" lon="6.59074">
        <ele>674</ele>
        <time>2013-08-28T09:40:19Z</time>
      </trkpt>
      <trkpt lat="45.53339" lon="6.59084">
        <ele>673.5</ele>
        <time>2013-08-28T09:40:20Z</time>
      </trkpt>
      <trkpt lat="45.53343" lon="6.59095">
        <ele>672.6</ele>
        <time>2013-08-28T09:40:21Z</time>
      </trkpt>
      <trkpt lat="45.53348" lon="6.59106">
        <ele>672.1</ele>
        <time>2013-08-28T09:40:22Z</time>
      </trkpt>
      <trkpt lat="45.53363" lon="6.59142">
        <ele>669.7</ele>
        <time>2013-08-28T09:40:25Z</time>
      </trkpt>
      <trkpt lat="45.53369" lon="6.59152">
        <ele>668.7</ele>
        <time>2013-08-28T09:40:26Z</time>
      </trkpt>
      <trkpt lat="45.53377" lon="6.59161">
        <ele>668.3</ele>
        <time>2013-08-28T09:40:27Z</time>
      </trkpt>
      <trkpt lat="45.53412" lon="6.59199">
        <ele>665.9</ele>
        <time>2013-08-28T09:40:31Z</time>
      </trkpt>
      <trkpt lat="45.53437" lon="6.59234">
        <ele>662</ele>
        <time>2013-08-28T09:40:34Z</time>
      </trkpt>
      <trkpt lat="45.53462" lon="6.59267">
        <ele>659.1</ele>
        <time>2013-08-28T09:40:37Z</time>
      </trkpt>
      <trkpt lat="45.53471" lon="6.59275">
        <ele>657.7</ele>
        <time>2013-08-28T09:40:38Z</time>
      </trkpt>
      <trkpt lat="45.53511" lon="6.59303">
        <ele>653.8</ele>
        <time>2013-08-28T09:40:43Z</time>
      </trkpt>
      <trkpt lat="45.5353" lon="6.59322">
        <ele>651</ele>
        <time>2013-08-28T09:40:48Z</time>
      </trkpt>
      <trkpt lat="45.53529" lon="6.59325">
        <ele>651</ele>
        <time>2013-08-28T09:40:49Z</time>
      </trkpt>
      <trkpt lat="45.53528" lon="6.59327">
        <ele>650.5</ele>
        <time>2013-08-28T09:40:50Z</time>
      </trkpt>
      <trkpt lat="45.53523" lon="6.59329">
        <ele>650.5</ele>
        <time>2013-08-28T09:41:02Z</time>
      </trkpt>
      <trkpt lat="45.53523" lon="6.5933">
        <ele>650</ele>
        <time>2013-08-28T09:41:21Z</time>
      </trkpt>
      <trkpt lat="45.53529" lon="6.59329">
        <ele>650</ele>
        <time>2013-08-28T09:41:47Z</time>
      </trkpt>
      <trkpt lat="45.53529" lon="6.59329">
        <ele>650</ele>
        <time>2013-08-28T09:42:04Z</time>
      </trkpt>
      <trkpt lat="45.5352" lon="6.5933">
        <ele>650</ele>
        <time>2013-08-28T09:42:25Z</time>
      </trkpt>
      <trkpt lat="45.53518" lon="6.59329">
        <ele>650</ele>
        <time>2013-08-28T09:42:26Z</time>
      </trkpt>
      <trkpt lat="45.53516" lon="6.59327">
        <ele>650</ele>
        <time>2013-08-28T09:42:27Z</time>
      </trkpt>
      <trkpt lat="45.53513" lon="6.59325">
        <ele>650</ele>
        <time>2013-08-28T09:42:28Z</time>
      </trkpt>
      <trkpt lat="45.53511" lon="6.59322">
        <ele>650</ele>
        <time>2013-08-28T09:42:29Z</time>
      </trkpt>
      <trkpt lat="45.5345" lon="6.59272">
        <ele>649.5</ele>
        <time>2013-08-28T09:42:45Z</time>
      </trkpt>
      <trkpt lat="45.5338" lon="6.59194">
        <ele>648.6</ele>
        <time>2013-08-28T09:43:02Z</time>
      </trkpt>
      <trkpt lat="45.53316" lon="6.59136">
        <ele>647.6</ele>
        <time>2013-08-28T09:43:17Z</time>
      </trkpt>
      <trkpt lat="45.5323" lon="6.59066">
        <ele>646.6</ele>
        <time>2013-08-28T09:43:35Z</time>
      </trkpt>
      <trkpt lat="45.53207" lon="6.59032">
        <ele>645.7</ele>
        <time>2013-08-28T09:43:42Z</time>
      </trkpt>
      <trkpt lat="45.53202" lon="6.59023">
        <ele>645.7</ele>
        <time>2013-08-28T09:43:44Z</time>
      </trkpt>
      <trkpt lat="45.53178" lon="6.58992">
        <ele>644.7</ele>
        <time>2013-08-28T09:43:56Z</time>
      </trkpt>
      <trkpt lat="45.53176" lon="6.58992">
        <ele>644.7</ele>
        <time>2013-08-28T09:44:16Z</time>
      </trkpt>
      <trkpt lat="45.53174" lon="6.58994">
        <ele>644.2</ele>
        <time>2013-08-28T09:44:35Z</time>
      </trkpt>
      <trkpt lat="45.53173" lon="6.58993">
        <ele>644.2</ele>
        <time>2013-08-28T09:44:48Z</time>
      </trkpt>
      <trkpt lat="45.53172" lon="6.58992">
        <ele>645.7</ele>
        <time>2013-08-28T09:45:07Z</time>
      </trkpt>
      <trkpt lat="45.5317" lon="6.58988">
        <ele>644.7</ele>
        <time>2013-08-28T09:45:23Z</time>
      </trkpt>
      <trkpt lat="45.5317" lon="6.58989">
        <ele>644.2</ele>
        <time>2013-08-28T09:45:43Z</time>
      </trkpt>
      <trkpt lat="45.53174" lon="6.58987">
        <ele>644.7</ele>
        <time>2013-08-28T09:46:05Z</time>
      </trkpt>
      <trkpt lat="45.53171" lon="6.58982">
        <ele>645.2</ele>
        <time>2013-08-28T09:46:25Z</time>
      </trkpt>
      <trkpt lat="45.53139" lon="6.5894">
        <ele>644.2</ele>
        <time>2013-08-28T09:46:37Z</time>
      </trkpt>
      <trkpt lat="45.5308" lon="6.58866">
        <ele>643.7</ele>
        <time>2013-08-28T09:46:52Z</time>
      </trkpt>
      <trkpt lat="45.53016" lon="6.58786">
        <ele>643.3</ele>
        <time>2013-08-28T09:47:07Z</time>
      </trkpt>
      <trkpt lat="45.52949" lon="6.5874">
        <ele>641.3</ele>
        <time>2013-08-28T09:47:20Z</time>
      </trkpt>
      <trkpt lat="45.52945" lon="6.58735">
        <ele>642.3</ele>
        <time>2013-08-28T09:47:21Z</time>
      </trkpt>
      <trkpt lat="45.52927" lon="6.58715">
        <ele>641.3</ele>
        <time>2013-08-28T09:47:25Z</time>
      </trkpt>
      <trkpt lat="45.52919" lon="6.58705">
        <ele>641.3</ele>
        <time>2013-08-28T09:47:27Z</time>
      </trkpt>
      <trkpt lat="45.52908" lon="6.58687">
        <ele>640.4</ele>
        <time>2013-08-28T09:47:30Z</time>
      </trkpt>
      <trkpt lat="45.52905" lon="6.5868">
        <ele>640.9</ele>
        <time>2013-08-28T09:47:31Z</time>
      </trkpt>
      <trkpt lat="45.52887" lon="6.58634">
        <ele>639.4</ele>
        <time>2013-08-28T09:47:42Z</time>
      </trkpt>
      <trkpt lat="45.52885" lon="6.58622">
        <ele>639.4</ele>
        <time>2013-08-28T09:48:09Z</time>
      </trkpt>
      <trkpt lat="45.52881" lon="6.58613">
        <ele>638.9</ele>
        <time>2013-08-28T09:48:11Z</time>
      </trkpt>
      <trkpt lat="45.52878" lon="6.58609">
        <ele>638.9</ele>
        <time>2013-08-28T09:48:12Z</time>
      </trkpt>
      <trkpt lat="45.52875" lon="6.58603">
        <ele>638.9</ele>
        <time>2013-08-28T09:48:13Z</time>
      </trkpt>
      <trkpt lat="45.52847" lon="6.58501">
        <ele>638</ele>
        <time>2013-08-28T09:48:28Z</time>
      </trkpt>
      <trkpt lat="45.52844" lon="6.58487">
        <ele>637</ele>
        <time>2013-08-28T09:48:30Z</time>
      </trkpt>
      <trkpt lat="45.5284" lon="6.58473">
        <ele>640.4</ele>
        <time>2013-08-28T09:48:32Z</time>
      </trkpt>
      <trkpt lat="45.52839" lon="6.58467">
        <ele>638.5</ele>
        <time>2013-08-28T09:48:33Z</time>
      </trkpt>
      <trkpt lat="45.52833" lon="6.58439">
        <ele>640.4</ele>
        <time>2013-08-28T09:48:37Z</time>
      </trkpt>
      <trkpt lat="45.52825" lon="6.58405">
        <ele>636.5</ele>
        <time>2013-08-28T09:48:42Z</time>
      </trkpt>
      <trkpt lat="45.52823" lon="6.58398">
        <ele>640.9</ele>
        <time>2013-08-28T09:48:43Z</time>
      </trkpt>
      <trkpt lat="45.52809" lon="6.58335">
        <ele>636.1</ele>
        <time>2013-08-28T09:48:52Z</time>
      </trkpt>
      <trkpt lat="45.52807" lon="6.58328">
        <ele>639.9</ele>
        <time>2013-08-28T09:48:53Z</time>
      </trkpt>
      <trkpt lat="45.52804" lon="6.58315">
        <ele>640.9</ele>
        <time>2013-08-28T09:48:55Z</time>
      </trkpt>
      <trkpt lat="45.51946" lon="6.57048">
        <ele>619.2</ele>
        <time>2013-08-28T09:51:57Z</time>
      </trkpt>
      <trkpt lat="45.51939" lon="6.57042">
        <ele>618.8</ele>
        <time>2013-08-28T09:51:58Z</time>
      </trkpt>
      <trkpt lat="45.5187" lon="6.56978">
        <ele>618.3</ele>
        <time>2013-08-28T09:52:12Z</time>
      </trkpt>
      <trkpt lat="45.51866" lon="6.56969">
        <ele>616.8</ele>
        <time>2013-08-28T09:52:23Z</time>
      </trkpt>
      <trkpt lat="45.51864" lon="6.56973">
        <ele>617.3</ele>
        <time>2013-08-28T09:52:42Z</time>
      </trkpt>
      <trkpt lat="45.51861" lon="6.56979">
        <ele>617.8</ele>
        <time>2013-08-28T09:53:03Z</time>
      </trkpt>
      <trkpt lat="45.51842" lon="6.5696">
        <ele>616.8</ele>
        <time>2013-08-28T09:53:13Z</time>
      </trkpt>
      <trkpt lat="45.5177" lon="6.56925">
        <ele>616.3</ele>
        <time>2013-08-28T09:53:27Z</time>
      </trkpt>
      <trkpt lat="45.51681" lon="6.56878">
        <ele>615.4</ele>
        <time>2013-08-28T09:53:42Z</time>
      </trkpt>
      <trkpt lat="45.51575" lon="6.5682">
        <ele>613.9</ele>
        <time>2013-08-28T09:53:59Z</time>
      </trkpt>
      <trkpt lat="45.51484" lon="6.56765">
        <ele>611.5</ele>
        <time>2013-08-28T09:54:13Z</time>
      </trkpt>
      <trkpt lat="45.51391" lon="6.56694">
        <ele>610.1</ele>
        <time>2013-08-28T09:54:28Z</time>
      </trkpt>
      <trkpt lat="45.51275" lon="6.56615">
        <ele>608.2</ele>
        <time>2013-08-28T09:54:45Z</time>
      </trkpt>
      <trkpt lat="45.5121" lon="6.56571">
        <ele>605.3</ele>
        <time>2013-08-28T09:54:53Z</time>
      </trkpt>
      <trkpt lat="45.51202" lon="6.56564">
        <ele>604.8</ele>
        <time>2013-08-28T09:54:54Z</time>
      </trkpt>
      <trkpt lat="45.51159" lon="6.56533">
        <ele>601.9</ele>
        <time>2013-08-28T09:54:59Z</time>
      </trkpt>
      <trkpt lat="45.51116" lon="6.56509">
        <ele>600</ele>
        <time>2013-08-28T09:55:04Z</time>
      </trkpt>
      <trkpt lat="45.5108" lon="6.56496">
        <ele>597.6</ele>
        <time>2013-08-28T09:55:08Z</time>
      </trkpt>
      <trkpt lat="45.51031" lon="6.56491">
        <ele>594.7</ele>
        <time>2013-08-28T09:55:13Z</time>
      </trkpt>
      <trkpt lat="45.5097" lon="6.565">
        <ele>591.4</ele>
        <time>2013-08-28T09:55:19Z</time>
      </trkpt>
      <trkpt lat="45.50928" lon="6.56506">
        <ele>588</ele>
        <time>2013-08-28T09:55:23Z</time>
      </trkpt>
      <trkpt lat="45.50897" lon="6.56507">
        <ele>586.5</ele>
        <time>2013-08-28T09:55:26Z</time>
      </trkpt>
      <trkpt lat="45.50854" lon="6.56502">
        <ele>583.7</ele>
        <time>2013-08-28T09:55:30Z</time>
      </trkpt>
      <trkpt lat="45.50844" lon="6.56499">
        <ele>583.7</ele>
        <time>2013-08-28T09:55:31Z</time>
      </trkpt>
      <trkpt lat="45.50823" lon="6.56491">
        <ele>581.7</ele>
        <time>2013-08-28T09:55:33Z</time>
      </trkpt>
      <trkpt lat="45.50794" lon="6.56475">
        <ele>580.3</ele>
        <time>2013-08-28T09:55:36Z</time>
      </trkpt>
      <trkpt lat="45.5075" lon="6.56438">
        <ele>577.4</ele>
        <time>2013-08-28T09:55:41Z</time>
      </trkpt>
      <trkpt lat="45.50733" lon="6.56423">
        <ele>576.5</ele>
        <time>2013-08-28T09:55:43Z</time>
      </trkpt>
      <trkpt lat="45.5064" lon="6.5635">
        <ele>575</ele>
        <time>2013-08-28T09:55:56Z</time>
      </trkpt>
      <trkpt lat="45.50536" lon="6.56327">
        <ele>573.1</ele>
        <time>2013-08-28T09:56:12Z</time>
      </trkpt>
      <trkpt lat="45.50434" lon="6.56319">
        <ele>571.2</ele>
        <time>2013-08-28T09:56:27Z</time>
      </trkpt>
      <trkpt lat="45.50353" lon="6.56312">
        <ele>567.8</ele>
        <time>2013-08-28T09:56:38Z</time>
      </trkpt>
      <trkpt lat="45.50286" lon="6.56289">
        <ele>564.4</ele>
        <time>2013-08-28T09:56:46Z</time>
      </trkpt>
      <trkpt lat="45.50278" lon="6.56284">
        <ele>563</ele>
        <time>2013-08-28T09:56:47Z</time>
      </trkpt>
      <trkpt lat="45.50262" lon="6.56273">
        <ele>562</ele>
        <time>2013-08-28T09:56:49Z</time>
      </trkpt>
      <trkpt lat="45.50254" lon="6.56265">
        <ele>562</ele>
        <time>2013-08-28T09:56:50Z</time>
      </trkpt>
      <trkpt lat="45.50237" lon="6.56248">
        <ele>560.1</ele>
        <time>2013-08-28T09:56:52Z</time>
      </trkpt>
      <trkpt lat="45.50194" lon="6.56203">
        <ele>556.3</ele>
        <time>2013-08-28T09:56:58Z</time>
      </trkpt>
      <trkpt lat="45.50187" lon="6.56196">
        <ele>556.3</ele>
        <time>2013-08-28T09:56:59Z</time>
      </trkpt>
      <trkpt lat="45.50143" lon="6.56149">
        <ele>551.9</ele>
        <time>2013-08-28T09:57:05Z</time>
      </trkpt>
      <trkpt lat="45.50106" lon="6.56107">
        <ele>549.1</ele>
        <time>2013-08-28T09:57:10Z</time>
      </trkpt>
      <trkpt lat="45.50099" lon="6.56098">
        <ele>549.1</ele>
        <time>2013-08-28T09:57:11Z</time>
      </trkpt>
      <trkpt lat="45.5006" lon="6.56057">
        <ele>545.7</ele>
        <time>2013-08-28T09:57:16Z</time>
      </trkpt>
      <trkpt lat="45.50051" lon="6.56048">
        <ele>545.2</ele>
        <time>2013-08-28T09:57:17Z</time>
      </trkpt>
      <trkpt lat="45.50015" lon="6.56007">
        <ele>541.4</ele>
        <time>2013-08-28T09:57:22Z</time>
      </trkpt>
      <trkpt lat="45.49977" lon="6.55962">
        <ele>539</ele>
        <time>2013-08-28T09:57:27Z</time>
      </trkpt>
      <trkpt lat="45.4994" lon="6.55915">
        <ele>535.6</ele>
        <time>2013-08-28T09:57:32Z</time>
      </trkpt>
      <trkpt lat="45.49899" lon="6.55861">
        <ele>532.2</ele>
        <time>2013-08-28T09:57:38Z</time>
      </trkpt>
      <trkpt lat="45.49867" lon="6.55814">
        <ele>529.3</ele>
        <time>2013-08-28T09:57:43Z</time>
      </trkpt>
      <trkpt lat="45.49861" lon="6.55803">
        <ele>529.3</ele>
        <time>2013-08-28T09:57:44Z</time>
      </trkpt>
      <trkpt lat="45.49821" lon="6.55744">
        <ele>526</ele>
        <time>2013-08-28T09:57:50Z</time>
      </trkpt>
      <trkpt lat="45.49808" lon="6.55723">
        <ele>525</ele>
        <time>2013-08-28T09:57:52Z</time>
      </trkpt>
      <trkpt lat="45.49787" lon="6.55691">
        <ele>523.6</ele>
        <time>2013-08-28T09:57:55Z</time>
      </trkpt>
      <trkpt lat="45.49752" lon="6.55639">
        <ele>520.7</ele>
        <time>2013-08-28T09:58:00Z</time>
      </trkpt>
      <trkpt lat="45.49738" lon="6.55618">
        <ele>519.7</ele>
        <time>2013-08-28T09:58:02Z</time>
      </trkpt>
      <trkpt lat="45.49689" lon="6.55557">
        <ele>516.9</ele>
        <time>2013-08-28T09:58:09Z</time>
      </trkpt>
      <trkpt lat="45.49682" lon="6.55549">
        <ele>516.4</ele>
        <time>2013-08-28T09:58:10Z</time>
      </trkpt>
      <trkpt lat="45.49612" lon="6.55466">
        <ele>513.5</ele>
        <time>2013-08-28T09:58:21Z</time>
      </trkpt>
      <trkpt lat="45.49609" lon="6.55458">
        <ele>513.5</ele>
        <time>2013-08-28T09:58:22Z</time>
      </trkpt>
      <trkpt lat="45.49605" lon="6.55451">
        <ele>513.5</ele>
        <time>2013-08-28T09:58:23Z</time>
      </trkpt>
      <trkpt lat="45.49535" lon="6.55351">
        <ele>513.5</ele>
        <time>2013-08-28T09:58:40Z</time>
      </trkpt>
      <trkpt lat="45.49449" lon="6.55273">
        <ele>510.1</ele>
        <time>2013-08-28T09:58:54Z</time>
      </trkpt>
      <trkpt lat="45.49436" lon="6.55256">
        <ele>509.2</ele>
        <time>2013-08-28T09:59:00Z</time>
      </trkpt>
      <trkpt lat="45.49434" lon="6.55254">
        <ele>509.2</ele>
        <time>2013-08-28T09:59:01Z</time>
      </trkpt>
      <trkpt lat="45.49433" lon="6.55252">
        <ele>508.7</ele>
        <time>2013-08-28T09:59:02Z</time>
      </trkpt>
      <trkpt lat="45.49416" lon="6.5523">
        <ele>508.7</ele>
        <time>2013-08-28T09:59:10Z</time>
      </trkpt>
      <trkpt lat="45.49412" lon="6.55227">
        <ele>508.7</ele>
        <time>2013-08-28T09:59:11Z</time>
      </trkpt>
      <trkpt lat="45.49334" lon="6.55163">
        <ele>507.7</ele>
        <time>2013-08-28T09:59:26Z</time>
      </trkpt>
      <trkpt lat="45.4925" lon="6.55095">
        <ele>507.2</ele>
        <time>2013-08-28T09:59:40Z</time>
      </trkpt>
      <trkpt lat="45.49213" lon="6.55056">
        <ele>506.3</ele>
        <time>2013-08-28T09:59:47Z</time>
      </trkpt>
      <trkpt lat="45.49114" lon="6.54964">
        <ele>505.3</ele>
        <time>2013-08-28T10:00:05Z</time>
      </trkpt>
      <trkpt lat="45.49032" lon="6.54867">
        <ele>503.9</ele>
        <time>2013-08-28T10:00:22Z</time>
      </trkpt>
      <trkpt lat="45.48944" lon="6.54758">
        <ele>503.4</ele>
        <time>2013-08-28T10:00:40Z</time>
      </trkpt>
      <trkpt lat="45.48838" lon="6.54635">
        <ele>502</ele>
        <time>2013-08-28T10:01:01Z</time>
      </trkpt>
      <trkpt lat="45.4874" lon="6.54523">
        <ele>501</ele>
        <time>2013-08-28T10:01:20Z</time>
      </trkpt>
      <trkpt lat="45.4866" lon="6.54457">
        <ele>500</ele>
        <time>2013-08-28T10:01:34Z</time>
      </trkpt>
      <trkpt lat="45.48577" lon="6.5436">
        <ele>498.6</ele>
        <time>2013-08-28T10:01:50Z</time>
      </trkpt>
      <trkpt lat="45.48503" lon="6.54237">
        <ele>497.1</ele>
        <time>2013-08-28T10:02:07Z</time>
      </trkpt>
      <trkpt lat="45.48485" lon="6.54123">
        <ele>498.1</ele>
        <time>2013-08-28T10:02:20Z</time>
      </trkpt>
      <trkpt lat="45.48465" lon="6.53947">
        <ele>498.1</ele>
        <time>2013-08-28T10:02:38Z</time>
      </trkpt>
      <trkpt lat="45.48414" lon="6.5385">
        <ele>498.6</ele>
        <time>2013-08-28T10:02:51Z</time>
      </trkpt>
      <trkpt lat="45.48379" lon="6.53807">
        <ele>499.5</ele>
        <time>2013-08-28T10:02:58Z</time>
      </trkpt>
      <trkpt lat="45.48374" lon="6.53801">
        <ele>498.1</ele>
        <time>2013-08-28T10:02:59Z</time>
      </trkpt>
      <trkpt lat="45.4831" lon="6.53681">
        <ele>497.1</ele>
        <time>2013-08-28T10:03:15Z</time>
      </trkpt>
      <trkpt lat="45.48308" lon="6.53671">
        <ele>497.1</ele>
        <time>2013-08-28T10:03:16Z</time>
      </trkpt>
      <trkpt lat="45.48306" lon="6.53662">
        <ele>497.1</ele>
        <time>2013-08-28T10:03:17Z</time>
      </trkpt>
      <trkpt lat="45.48306" lon="6.53652">
        <ele>496.7</ele>
        <time>2013-08-28T10:03:18Z</time>
      </trkpt>
      <trkpt lat="45.48306" lon="6.53642">
        <ele>496.7</ele>
        <time>2013-08-28T10:03:19Z</time>
      </trkpt>
      <trkpt lat="45.48306" lon="6.53633">
        <ele>496.2</ele>
        <time>2013-08-28T10:03:20Z</time>
      </trkpt>
      <trkpt lat="45.48308" lon="6.53624">
        <ele>496.2</ele>
        <time>2013-08-28T10:03:21Z</time>
      </trkpt>
      <trkpt lat="45.48316" lon="6.53598">
        <ele>495.7</ele>
        <time>2013-08-28T10:03:24Z</time>
      </trkpt>
      <trkpt lat="45.4832" lon="6.53592">
        <ele>495.2</ele>
        <time>2013-08-28T10:03:25Z</time>
      </trkpt>
      <trkpt lat="45.48324" lon="6.53586">
        <ele>495.7</ele>
        <time>2013-08-28T10:03:26Z</time>
      </trkpt>
      <trkpt lat="45.48343" lon="6.53566">
        <ele>495.2</ele>
        <time>2013-08-28T10:03:30Z</time>
      </trkpt>
      <trkpt lat="45.48349" lon="6.53563">
        <ele>494.3</ele>
        <time>2013-08-28T10:03:31Z</time>
      </trkpt>
      <trkpt lat="45.48381" lon="6.53542">
        <ele>492.3</ele>
        <time>2013-08-28T10:03:37Z</time>
      </trkpt>
      <trkpt lat="45.48385" lon="6.53536">
        <ele>492.3</ele>
        <time>2013-08-28T10:03:38Z</time>
      </trkpt>
      <trkpt lat="45.48388" lon="6.53529">
        <ele>492.3</ele>
        <time>2013-08-28T10:03:39Z</time>
      </trkpt>
      <trkpt lat="45.48392" lon="6.53521">
        <ele>491.9</ele>
        <time>2013-08-28T10:03:40Z</time>
      </trkpt>
      <trkpt lat="45.48394" lon="6.53514">
        <ele>491.9</ele>
        <time>2013-08-28T10:03:41Z</time>
      </trkpt>
      <trkpt lat="45.48415" lon="6.53458">
        <ele>490.9</ele>
        <time>2013-08-28T10:03:52Z</time>
      </trkpt>
      <trkpt lat="45.48412" lon="6.53455">
        <ele>490.4</ele>
        <time>2013-08-28T10:04:06Z</time>
      </trkpt>
      <trkpt lat="45.48416" lon="6.5343">
        <ele>490.4</ele>
        <time>2013-08-28T10:04:20Z</time>
      </trkpt>
      <trkpt lat="45.48462" lon="6.53341">
        <ele>490.4</ele>
        <time>2013-08-28T10:04:36Z</time>
      </trkpt>
      <trkpt lat="45.48482" lon="6.53287">
        <ele>489.9</ele>
        <time>2013-08-28T10:04:45Z</time>
      </trkpt>
      <trkpt lat="45.48484" lon="6.53284">
        <ele>489.5</ele>
        <time>2013-08-28T10:04:46Z</time>
      </trkpt>
      <trkpt lat="45.48485" lon="6.53281">
        <ele>489.9</ele>
        <time>2013-08-28T10:04:47Z</time>
      </trkpt>
      <trkpt lat="45.48491" lon="6.53266">
        <ele>489.5</ele>
        <time>2013-08-28T10:04:52Z</time>
      </trkpt>
      <trkpt lat="45.48493" lon="6.53266">
        <ele>489.9</ele>
        <time>2013-08-28T10:04:53Z</time>
      </trkpt>
      <trkpt lat="45.48495" lon="6.53266">
        <ele>489.9</ele>
        <time>2013-08-28T10:04:54Z</time>
      </trkpt>
      <trkpt lat="45.48513" lon="6.53277">
        <ele>490.4</ele>
        <time>2013-08-28T10:05:00Z</time>
      </trkpt>
      <trkpt lat="45.48517" lon="6.5328">
        <ele>490.9</ele>
        <time>2013-08-28T10:05:01Z</time>
      </trkpt>
      <trkpt lat="45.48544" lon="6.53309">
        <ele>491.4</ele>
        <time>2013-08-28T10:05:08Z</time>
      </trkpt>
      <trkpt lat="45.48548" lon="6.53313">
        <ele>491.4</ele>
        <time>2013-08-28T10:05:09Z</time>
      </trkpt>
      <trkpt lat="45.48552" lon="6.53316">
        <ele>491.4</ele>
        <time>2013-08-28T10:05:10Z</time>
      </trkpt>
      <trkpt lat="45.4861" lon="6.5335">
        <ele>492.8</ele>
        <time>2013-08-28T10:05:26Z</time>
      </trkpt>
      <trkpt lat="45.4863" lon="6.53316">
        <ele>492.8</ele>
        <time>2013-08-28T10:05:39Z</time>
      </trkpt>
      <trkpt lat="45.48627" lon="6.53316">
        <ele>492.3</ele>
        <time>2013-08-28T10:05:59Z</time>
      </trkpt>
      <trkpt lat="45.4863" lon="6.53318">
        <ele>492.8</ele>
        <time>2013-08-28T10:06:23Z</time>
      </trkpt>
      <trkpt lat="45.48627" lon="6.53331">
        <ele>492.8</ele>
        <time>2013-08-28T10:06:36Z</time>
      </trkpt>
      <trkpt lat="45.48626" lon="6.53332">
        <ele>492.8</ele>
        <time>2013-08-28T10:06:37Z</time>
      </trkpt>
      <trkpt lat="45.48627" lon="6.53338">
        <ele>493.8</ele>
        <time>2013-08-28T10:06:49Z</time>
      </trkpt>
      <trkpt lat="45.48626" lon="6.53337">
        <ele>489.5</ele>
        <time>2013-08-28T10:06:50Z</time>
      </trkpt>
      <trkpt lat="45.48646" lon="6.53265">
        <ele>494.7</ele>
        <time>2013-08-28T10:12:43Z</time>
      </trkpt>
      <trkpt lat="45.48648" lon="6.5326">
        <ele>494.7</ele>
        <time>2013-08-28T10:12:44Z</time>
      </trkpt>
      <trkpt lat="45.48661" lon="6.53229">
        <ele>493.3</ele>
        <time>2013-08-28T10:12:49Z</time>
      </trkpt>
      <trkpt lat="45.48681" lon="6.53176">
        <ele>489.9</ele>
        <time>2013-08-28T10:12:58Z</time>
      </trkpt>
      <trkpt lat="45.48684" lon="6.5317">
        <ele>489.9</ele>
        <time>2013-08-28T10:12:59Z</time>
      </trkpt>
      <trkpt lat="45.48686" lon="6.53164">
        <ele>489.9</ele>
        <time>2013-08-28T10:13:00Z</time>
      </trkpt>
      <trkpt lat="45.48698" lon="6.53127">
        <ele>488.5</ele>
        <time>2013-08-28T10:13:06Z</time>
      </trkpt>
      <trkpt lat="45.487" lon="6.5312">
        <ele>488</ele>
        <time>2013-08-28T10:13:07Z</time>
      </trkpt>
      <trkpt lat="45.48704" lon="6.53114">
        <ele>488</ele>
        <time>2013-08-28T10:13:08Z</time>
      </trkpt>
      <trkpt lat="45.48708" lon="6.53109">
        <ele>488.5</ele>
        <time>2013-08-28T10:13:09Z</time>
      </trkpt>
      <trkpt lat="45.48712" lon="6.53104">
        <ele>488</ele>
        <time>2013-08-28T10:13:10Z</time>
      </trkpt>
      <trkpt lat="45.48715" lon="6.53099">
        <ele>487.5</ele>
        <time>2013-08-28T10:13:11Z</time>
      </trkpt>
      <trkpt lat="45.4872" lon="6.53086">
        <ele>486.6</ele>
        <time>2013-08-28T10:13:14Z</time>
      </trkpt>
      <trkpt lat="45.48722" lon="6.53056">
        <ele>486.6</ele>
        <time>2013-08-28T10:13:19Z</time>
      </trkpt>
      <trkpt lat="45.48735" lon="6.53">
        <ele>484.6</ele>
        <time>2013-08-28T10:13:27Z</time>
      </trkpt>
      <trkpt lat="45.48737" lon="6.52992">
        <ele>485.1</ele>
        <time>2013-08-28T10:13:28Z</time>
      </trkpt>
      <trkpt lat="45.4877" lon="6.5289">
        <ele>486.1</ele>
        <time>2013-08-28T10:13:43Z</time>
      </trkpt>
      <trkpt lat="45.48794" lon="6.52822">
        <ele>485.6</ele>
        <time>2013-08-28T10:13:56Z</time>
      </trkpt>
      <trkpt lat="45.48817" lon="6.52749">
        <ele>485.6</ele>
        <time>2013-08-28T10:14:09Z</time>
      </trkpt>
      <trkpt lat="45.48839" lon="6.52658">
        <ele>483.2</ele>
        <time>2013-08-28T10:14:20Z</time>
      </trkpt>
      <trkpt lat="45.48842" lon="6.52633">
        <ele>481.3</ele>
        <time>2013-08-28T10:14:22Z</time>
      </trkpt>
      <trkpt lat="45.48841" lon="6.5262">
        <ele>481.8</ele>
        <time>2013-08-28T10:14:23Z</time>
      </trkpt>
      <trkpt lat="45.48839" lon="6.52606">
        <ele>480.8</ele>
        <time>2013-08-28T10:14:24Z</time>
      </trkpt>
      <trkpt lat="45.48836" lon="6.52586">
        <ele>479.8</ele>
        <time>2013-08-28T10:14:25Z</time>
      </trkpt>
      <trkpt lat="45.48835" lon="6.52579">
        <ele>479.8</ele>
        <time>2013-08-28T10:14:26Z</time>
      </trkpt>
      <trkpt lat="45.48828" lon="6.52563">
        <ele>481.3</ele>
        <time>2013-08-28T10:14:28Z</time>
      </trkpt>
      <trkpt lat="45.4881" lon="6.52554">
        <ele>481.3</ele>
        <time>2013-08-28T10:14:31Z</time>
      </trkpt>
      <trkpt lat="45.48799" lon="6.52547">
        <ele>480.8</ele>
        <time>2013-08-28T10:14:33Z</time>
      </trkpt>
      <trkpt lat="45.48795" lon="6.52542">
        <ele>481.3</ele>
        <time>2013-08-28T10:14:34Z</time>
      </trkpt>
      <trkpt lat="45.48758" lon="6.52481">
        <ele>483.2</ele>
        <time>2013-08-28T10:14:47Z</time>
      </trkpt>
      <trkpt lat="45.48756" lon="6.52478">
        <ele>482.7</ele>
        <time>2013-08-28T10:14:48Z</time>
      </trkpt>
      <trkpt lat="45.48754" lon="6.52477">
        <ele>482.7</ele>
        <time>2013-08-28T10:14:49Z</time>
      </trkpt>
      <trkpt lat="45.48752" lon="6.52479">
        <ele>482.7</ele>
        <time>2013-08-28T10:14:50Z</time>
      </trkpt>
      <trkpt lat="45.4875" lon="6.52482">
        <ele>482.7</ele>
        <time>2013-08-28T10:14:51Z</time>
      </trkpt>
      <trkpt lat="45.48748" lon="6.52486">
        <ele>482.7</ele>
        <time>2013-08-28T10:14:52Z</time>
      </trkpt>
      <trkpt lat="45.48746" lon="6.52491">
        <ele>483.2</ele>
        <time>2013-08-28T10:14:53Z</time>
      </trkpt>
      <trkpt lat="45.48718" lon="6.52515">
        <ele>483.7</ele>
        <time>2013-08-28T10:15:03Z</time>
      </trkpt>
      <trkpt lat="45.48712" lon="6.52512">
        <ele>482.7</ele>
        <time>2013-08-28T10:15:05Z</time>
      </trkpt>
      <trkpt lat="45.48687" lon="6.52501">
        <ele>481.8</ele>
        <time>2013-08-28T10:15:11Z</time>
      </trkpt>
      <trkpt lat="45.48683" lon="6.525">
        <ele>481.8</ele>
        <time>2013-08-28T10:15:12Z</time>
      </trkpt>
      <trkpt lat="45.4868" lon="6.52498">
        <ele>481.8</ele>
        <time>2013-08-28T10:15:13Z</time>
      </trkpt>
      <trkpt lat="45.48678" lon="6.52496">
        <ele>482.7</ele>
        <time>2013-08-28T10:15:14Z</time>
      </trkpt>
      <trkpt lat="45.48675" lon="6.52494">
        <ele>482.7</ele>
        <time>2013-08-28T10:15:15Z</time>
      </trkpt>
      <trkpt lat="45.48668" lon="6.52492">
        <ele>482.2</ele>
        <time>2013-08-28T10:15:19Z</time>
      </trkpt>
      <trkpt lat="45.48634" lon="6.52471">
        <ele>480.8</ele>
        <time>2013-08-28T10:15:31Z</time>
      </trkpt>
      <trkpt lat="45.48583" lon="6.52449">
        <ele>481.8</ele>
        <time>2013-08-28T10:15:47Z</time>
      </trkpt>
      <trkpt lat="45.48576" lon="6.52454">
        <ele>481.3</ele>
        <time>2013-08-28T10:15:57Z</time>
      </trkpt>
      <trkpt lat="45.48574" lon="6.52459">
        <ele>481.3</ele>
        <time>2013-08-28T10:15:58Z</time>
      </trkpt>
      <trkpt lat="45.48569" lon="6.52481">
        <ele>481.3</ele>
        <time>2013-08-28T10:16:02Z</time>
      </trkpt>
      <trkpt lat="45.48545" lon="6.5254">
        <ele>481.8</ele>
        <time>2013-08-28T10:16:15Z</time>
      </trkpt>
      <trkpt lat="45.48546" lon="6.52543">
        <ele>481.3</ele>
        <time>2013-08-28T10:16:16Z</time>
      </trkpt>
      <trkpt lat="45.48549" lon="6.52544">
        <ele>481.8</ele>
        <time>2013-08-28T10:16:17Z</time>
      </trkpt>
      <trkpt lat="45.48552" lon="6.52544">
        <ele>481.8</ele>
        <time>2013-08-28T10:16:18Z</time>
      </trkpt>
      <trkpt lat="45.48555" lon="6.52544">
        <ele>481.8</ele>
        <time>2013-08-28T10:16:19Z</time>
      </trkpt>
      <trkpt lat="45.48588" lon="6.52543">
        <ele>480.8</ele>
        <time>2013-08-28T10:16:31Z</time>
      </trkpt>
      <trkpt lat="45.48589" lon="6.52543">
        <ele>481.3</ele>
        <time>2013-08-28T10:16:41Z</time>
      </trkpt>
      <trkpt lat="45.48586" lon="6.52543">
        <ele>480.8</ele>
        <time>2013-08-28T10:16:55Z</time>
      </trkpt>
      <trkpt lat="45.48588" lon="6.52545">
        <ele>481.3</ele>
        <time>2013-08-28T10:17:28Z</time>
      </trkpt>
      <trkpt lat="45.48591" lon="6.52544">
        <ele>480.8</ele>
        <time>2013-08-28T10:17:52Z</time>
      </trkpt>
      <trkpt lat="45.48595" lon="6.52545">
        <ele>481.3</ele>
        <time>2013-08-28T10:18:15Z</time>
      </trkpt>
      <trkpt lat="45.48593" lon="6.52546">
        <ele>481.8</ele>
        <time>2013-08-28T10:18:36Z</time>
      </trkpt>
      <trkpt lat="45.48595" lon="6.52548">
        <ele>480.8</ele>
        <time>2013-08-28T10:18:49Z</time>
      </trkpt>
      <trkpt lat="45.48598" lon="6.52553">
        <ele>481.3</ele>
        <time>2013-08-28T10:19:03Z</time>
      </trkpt>
      <trkpt lat="45.48602" lon="6.52561">
        <ele>481.3</ele>
        <time>2013-08-28T10:19:17Z</time>
      </trkpt>
      <trkpt lat="45.48606" lon="6.52562">
        <ele>477.9</ele>
        <time>2013-08-28T10:19:29Z</time>
      </trkpt>
      <trkpt lat="45.48605" lon="6.52562">
        <ele>482.7</ele>
        <time>2013-08-28T10:46:24Z</time>
      </trkpt>
      <trkpt lat="45.48665" lon="6.52482">
        <ele>482.7</ele>
        <time>2013-08-28T10:46:25Z</time>
      </trkpt>
      <trkpt lat="45.486" lon="6.52438">
        <ele>487.5</ele>
        <time>2013-08-28T10:46:39Z</time>
      </trkpt>
      <trkpt lat="45.48601" lon="6.52439">
        <ele>489.5</ele>
        <time>2013-08-28T10:46:40Z</time>
      </trkpt>
      <trkpt lat="45.48599" lon="6.52447">
        <ele>493.3</ele>
        <time>2013-08-28T10:46:46Z</time>
      </trkpt>
      <trkpt lat="45.48598" lon="6.52449">
        <ele>496.2</ele>
        <time>2013-08-28T10:46:48Z</time>
      </trkpt>
      <trkpt lat="45.48597" lon="6.52452">
        <ele>501.5</ele>
        <time>2013-08-28T10:46:51Z</time>
      </trkpt>
      <trkpt lat="45.48597" lon="6.52452">
        <ele>502</ele>
        <time>2013-08-28T10:46:52Z</time>
      </trkpt>
      <trkpt lat="45.48593" lon="6.52452">
        <ele>504.8</ele>
        <time>2013-08-28T10:46:55Z</time>
      </trkpt>
      <trkpt lat="45.48591" lon="6.52451">
        <ele>507.2</ele>
        <time>2013-08-28T10:46:59Z</time>
      </trkpt>
      <trkpt lat="45.48587" lon="6.5245">
        <ele>510.6</ele>
        <time>2013-08-28T10:47:02Z</time>
      </trkpt>
      <trkpt lat="45.48583" lon="6.5245">
        <ele>512.5</ele>
        <time>2013-08-28T10:47:05Z</time>
      </trkpt>
      <trkpt lat="45.48572" lon="6.52448">
        <ele>515.4</ele>
        <time>2013-08-28T10:47:14Z</time>
      </trkpt>
      <trkpt lat="45.48571" lon="6.52448">
        <ele>515.9</ele>
        <time>2013-08-28T10:47:15Z</time>
      </trkpt>
      <trkpt lat="45.48568" lon="6.52446">
        <ele>515.9</ele>
        <time>2013-08-28T10:47:17Z</time>
      </trkpt>
      <trkpt lat="45.48571" lon="6.52432">
        <ele>515.9</ele>
        <time>2013-08-28T10:47:23Z</time>
      </trkpt>
      <trkpt lat="45.48584" lon="6.52427">
        <ele>516.4</ele>
        <time>2013-08-28T10:47:29Z</time>
      </trkpt>
      <trkpt lat="45.48581" lon="6.52429">
        <ele>516.9</ele>
        <time>2013-08-28T10:47:30Z</time>
      </trkpt>
      <trkpt lat="45.48581" lon="6.52432">
        <ele>516.4</ele>
        <time>2013-08-28T10:47:31Z</time>
      </trkpt>
      <trkpt lat="45.48581" lon="6.52437">
        <ele>515.9</ele>
        <time>2013-08-28T10:47:32Z</time>
      </trkpt>
      <trkpt lat="45.4858" lon="6.52442">
        <ele>516.4</ele>
        <time>2013-08-28T10:47:33Z</time>
      </trkpt>
      <trkpt lat="45.48579" lon="6.52447">
        <ele>516.4</ele>
        <time>2013-08-28T10:47:34Z</time>
      </trkpt>
      <trkpt lat="45.48555" lon="6.52522">
        <ele>514.9</ele>
        <time>2013-08-28T10:47:48Z</time>
      </trkpt>
      <trkpt lat="45.48553" lon="6.52527">
        <ele>515.4</ele>
        <time>2013-08-28T10:47:49Z</time>
      </trkpt>
      <trkpt lat="45.4855" lon="6.52531">
        <ele>514.9</ele>
        <time>2013-08-28T10:47:50Z</time>
      </trkpt>
      <trkpt lat="45.48546" lon="6.52532">
        <ele>514.9</ele>
        <time>2013-08-28T10:47:51Z</time>
      </trkpt>
      <trkpt lat="45.48541" lon="6.52531">
        <ele>514.9</ele>
        <time>2013-08-28T10:47:52Z</time>
      </trkpt>
      <trkpt lat="45.48537" lon="6.5253">
        <ele>515.4</ele>
        <time>2013-08-28T10:47:53Z</time>
      </trkpt>
      <trkpt lat="45.48529" lon="6.52528">
        <ele>514.9</ele>
        <time>2013-08-28T10:47:55Z</time>
      </trkpt>
      <trkpt lat="45.4846" lon="6.52518">
        <ele>515.9</ele>
        <time>2013-08-28T10:48:12Z</time>
      </trkpt>
      <trkpt lat="45.48413" lon="6.52517">
        <ele>516.9</ele>
        <time>2013-08-28T10:48:27Z</time>
      </trkpt>
      <trkpt lat="45.48405" lon="6.52518">
        <ele>517.8</ele>
        <time>2013-08-28T10:48:31Z</time>
      </trkpt>
      <trkpt lat="45.48403" lon="6.52517">
        <ele>517.8</ele>
        <time>2013-08-28T10:48:32Z</time>
      </trkpt>
      <trkpt lat="45.48378" lon="6.52472">
        <ele>518.8</ele>
        <time>2013-08-28T10:48:45Z</time>
      </trkpt>
      <trkpt lat="45.48346" lon="6.52467">
        <ele>518.8</ele>
        <time>2013-08-28T10:48:54Z</time>
      </trkpt>
      <trkpt lat="45.48314" lon="6.52481">
        <ele>521.2</ele>
        <time>2013-08-28T10:49:08Z</time>
      </trkpt>
      <trkpt lat="45.4828" lon="6.52492">
        <ele>524.1</ele>
        <time>2013-08-28T10:49:24Z</time>
      </trkpt>
      <trkpt lat="45.48267" lon="6.52496">
        <ele>524.1</ele>
        <time>2013-08-28T10:49:38Z</time>
      </trkpt>
      <trkpt lat="45.48267" lon="6.52496">
        <ele>525</ele>
        <time>2013-08-28T10:49:40Z</time>
      </trkpt>
      <trkpt lat="45.48267" lon="6.52495">
        <ele>522.6</ele>
        <time>2013-08-28T10:49:48Z</time>
      </trkpt>
      <trkpt lat="45.48268" lon="6.52495">
        <ele>525.5</ele>
        <time>2013-08-28T10:49:49Z</time>
      </trkpt>
      <trkpt lat="45.48268" lon="6.52495">
        <ele>524.1</ele>
        <time>2013-08-28T10:49:50Z</time>
      </trkpt>
      <trkpt lat="45.48269" lon="6.52494">
        <ele>523.6</ele>
        <time>2013-08-28T10:50:15Z</time>
      </trkpt>
      <trkpt lat="45.48255" lon="6.52501">
        <ele>525</ele>
        <time>2013-08-28T10:50:34Z</time>
      </trkpt>
      <trkpt lat="45.48223" lon="6.52509">
        <ele>526.9</ele>
        <time>2013-08-28T10:50:50Z</time>
      </trkpt>
      <trkpt lat="45.48194" lon="6.52516">
        <ele>528.9</ele>
        <time>2013-08-28T10:51:07Z</time>
      </trkpt>
      <trkpt lat="45.48162" lon="6.52513">
        <ele>531.3</ele>
        <time>2013-08-28T10:51:24Z</time>
      </trkpt>
      <trkpt lat="45.48128" lon="6.525">
        <ele>534.6</ele>
        <time>2013-08-28T10:51:42Z</time>
      </trkpt>
      <trkpt lat="45.48092" lon="6.52491">
        <ele>537.5</ele>
        <time>2013-08-28T10:51:59Z</time>
      </trkpt>
      <trkpt lat="45.48049" lon="6.52485">
        <ele>539.9</ele>
        <time>2013-08-28T10:52:18Z</time>
      </trkpt>
      <trkpt lat="45.48014" lon="6.52484">
        <ele>542.3</ele>
        <time>2013-08-28T10:52:34Z</time>
      </trkpt>
      <trkpt lat="45.47972" lon="6.52495">
        <ele>545.2</ele>
        <time>2013-08-28T10:52:51Z</time>
      </trkpt>
      <trkpt lat="45.47935" lon="6.5251">
        <ele>547.6</ele>
        <time>2013-08-28T10:53:08Z</time>
      </trkpt>
      <trkpt lat="45.47931" lon="6.52506">
        <ele>548.1</ele>
        <time>2013-08-28T10:53:10Z</time>
      </trkpt>
      <trkpt lat="45.47931" lon="6.52503">
        <ele>548.1</ele>
        <time>2013-08-28T10:53:11Z</time>
      </trkpt>
      <trkpt lat="45.47931" lon="6.525">
        <ele>548.6</ele>
        <time>2013-08-28T10:53:12Z</time>
      </trkpt>
      <trkpt lat="45.47931" lon="6.52497">
        <ele>548.6</ele>
        <time>2013-08-28T10:53:13Z</time>
      </trkpt>
      <trkpt lat="45.47931" lon="6.52494">
        <ele>548.6</ele>
        <time>2013-08-28T10:53:14Z</time>
      </trkpt>
      <trkpt lat="45.47932" lon="6.52491">
        <ele>548.6</ele>
        <time>2013-08-28T10:53:15Z</time>
      </trkpt>
      <trkpt lat="45.47935" lon="6.52487">
        <ele>549.5</ele>
        <time>2013-08-28T10:53:17Z</time>
      </trkpt>
      <trkpt lat="45.47937" lon="6.52486">
        <ele>549.5</ele>
        <time>2013-08-28T10:53:18Z</time>
      </trkpt>
      <trkpt lat="45.47978" lon="6.52481">
        <ele>552.9</ele>
        <time>2013-08-28T10:53:34Z</time>
      </trkpt>
      <trkpt lat="45.48024" lon="6.5246">
        <ele>554.3</ele>
        <time>2013-08-28T10:53:52Z</time>
      </trkpt>
      <trkpt lat="45.48064" lon="6.52458">
        <ele>556.3</ele>
        <time>2013-08-28T10:54:08Z</time>
      </trkpt>
      <trkpt lat="45.48109" lon="6.52455">
        <ele>558.2</ele>
        <time>2013-08-28T10:54:26Z</time>
      </trkpt>
      <trkpt lat="45.4815" lon="6.52459">
        <ele>560.1</ele>
        <time>2013-08-28T10:54:42Z</time>
      </trkpt>
      <trkpt lat="45.48195" lon="6.52452">
        <ele>562.5</ele>
        <time>2013-08-28T10:55:00Z</time>
      </trkpt>
      <trkpt lat="45.48236" lon="6.52441">
        <ele>565.9</ele>
        <time>2013-08-28T10:55:16Z</time>
      </trkpt>
      <trkpt lat="45.4825" lon="6.52412">
        <ele>566.8</ele>
        <time>2013-08-28T10:55:27Z</time>
      </trkpt>
      <trkpt lat="45.48249" lon="6.5241">
        <ele>567.3</ele>
        <time>2013-08-28T10:55:28Z</time>
      </trkpt>
      <trkpt lat="45.48247" lon="6.52409">
        <ele>567.3</ele>
        <time>2013-08-28T10:55:29Z</time>
      </trkpt>
      <trkpt lat="45.48243" lon="6.52408">
        <ele>567.3</ele>
        <time>2013-08-28T10:55:30Z</time>
      </trkpt>
      <trkpt lat="45.48239" lon="6.52408">
        <ele>567.3</ele>
        <time>2013-08-28T10:55:31Z</time>
      </trkpt>
      <trkpt lat="45.4819" lon="6.52428">
        <ele>568.3</ele>
        <time>2013-08-28T10:55:49Z</time>
      </trkpt>
      <trkpt lat="45.48147" lon="6.52429">
        <ele>571.6</ele>
        <time>2013-08-28T10:56:07Z</time>
      </trkpt>
      <trkpt lat="45.48108" lon="6.52417">
        <ele>574.5</ele>
        <time>2013-08-28T10:56:24Z</time>
      </trkpt>
      <trkpt lat="45.48059" lon="6.52411">
        <ele>576.9</ele>
        <time>2013-08-28T10:56:43Z</time>
      </trkpt>
      <trkpt lat="45.48019" lon="6.52409">
        <ele>579.8</ele>
        <time>2013-08-28T10:57:00Z</time>
      </trkpt>
      <trkpt lat="45.47991" lon="6.52421">
        <ele>581.3</ele>
        <time>2013-08-28T10:57:12Z</time>
      </trkpt>
      <trkpt lat="45.47954" lon="6.52429">
        <ele>584.1</ele>
        <time>2013-08-28T10:57:27Z</time>
      </trkpt>
      <trkpt lat="45.47924" lon="6.52416">
        <ele>586.5</ele>
        <time>2013-08-28T10:57:42Z</time>
      </trkpt>
      <trkpt lat="45.47887" lon="6.52408">
        <ele>589.4</ele>
        <time>2013-08-28T10:57:59Z</time>
      </trkpt>
      <trkpt lat="45.47853" lon="6.52403">
        <ele>590.9</ele>
        <time>2013-08-28T10:58:14Z</time>
      </trkpt>
      <trkpt lat="45.47829" lon="6.52388">
        <ele>594.2</ele>
        <time>2013-08-28T10:58:27Z</time>
      </trkpt>
      <trkpt lat="45.47795" lon="6.52392">
        <ele>595.7</ele>
        <time>2013-08-28T10:58:42Z</time>
      </trkpt>
      <trkpt lat="45.47767" lon="6.52401">
        <ele>597.1</ele>
        <time>2013-08-28T10:58:54Z</time>
      </trkpt>
      <trkpt lat="45.47766" lon="6.524">
        <ele>597.6</ele>
        <time>2013-08-28T10:58:55Z</time>
      </trkpt>
      <trkpt lat="45.47742" lon="6.52394">
        <ele>599</ele>
        <time>2013-08-28T10:59:10Z</time>
      </trkpt>
      <trkpt lat="45.47736" lon="6.52392">
        <ele>600</ele>
        <time>2013-08-28T10:59:14Z</time>
      </trkpt>
      <trkpt lat="45.47734" lon="6.52391">
        <ele>600</ele>
        <time>2013-08-28T10:59:15Z</time>
      </trkpt>
      <trkpt lat="45.47732" lon="6.52391">
        <ele>600</ele>
        <time>2013-08-28T10:59:16Z</time>
      </trkpt>
      <trkpt lat="45.4773" lon="6.52391">
        <ele>600.5</ele>
        <time>2013-08-28T10:59:17Z</time>
      </trkpt>
      <trkpt lat="45.47728" lon="6.52392">
        <ele>600</ele>
        <time>2013-08-28T10:59:18Z</time>
      </trkpt>
      <trkpt lat="45.47706" lon="6.52395">
        <ele>601.9</ele>
        <time>2013-08-28T10:59:30Z</time>
      </trkpt>
      <trkpt lat="45.47683" lon="6.52402">
        <ele>604.3</ele>
        <time>2013-08-28T10:59:43Z</time>
      </trkpt>
      <trkpt lat="45.47662" lon="6.52416">
        <ele>606.3</ele>
        <time>2013-08-28T10:59:55Z</time>
      </trkpt>
      <trkpt lat="45.47634" lon="6.52438">
        <ele>608.7</ele>
        <time>2013-08-28T11:00:10Z</time>
      </trkpt>
      <trkpt lat="45.47609" lon="6.52453">
        <ele>610.6</ele>
        <time>2013-08-28T11:00:22Z</time>
      </trkpt>
      <trkpt lat="45.47577" lon="6.52476">
        <ele>613</ele>
        <time>2013-08-28T11:00:37Z</time>
      </trkpt>
      <trkpt lat="45.47541" lon="6.52483">
        <ele>613.9</ele>
        <time>2013-08-28T11:00:51Z</time>
      </trkpt>
      <trkpt lat="45.47509" lon="6.52491">
        <ele>616.8</ele>
        <time>2013-08-28T11:01:05Z</time>
      </trkpt>
      <trkpt lat="45.47481" lon="6.52507">
        <ele>618.3</ele>
        <time>2013-08-28T11:01:18Z</time>
      </trkpt>
      <trkpt lat="45.47453" lon="6.52518">
        <ele>620.7</ele>
        <time>2013-08-28T11:01:32Z</time>
      </trkpt>
      <trkpt lat="45.47427" lon="6.52534">
        <ele>622.1</ele>
        <time>2013-08-28T11:01:46Z</time>
      </trkpt>
      <trkpt lat="45.47401" lon="6.52557">
        <ele>624</ele>
        <time>2013-08-28T11:02:01Z</time>
      </trkpt>
      <trkpt lat="45.4738" lon="6.52571">
        <ele>627.4</ele>
        <time>2013-08-28T11:02:15Z</time>
      </trkpt>
      <trkpt lat="45.47345" lon="6.52574">
        <ele>630.3</ele>
        <time>2013-08-28T11:02:31Z</time>
      </trkpt>
      <trkpt lat="45.47307" lon="6.52571">
        <ele>633.7</ele>
        <time>2013-08-28T11:02:48Z</time>
      </trkpt>
      <trkpt lat="45.47266" lon="6.52574">
        <ele>636.5</ele>
        <time>2013-08-28T11:03:05Z</time>
      </trkpt>
      <trkpt lat="45.47228" lon="6.52565">
        <ele>638.9</ele>
        <time>2013-08-28T11:03:23Z</time>
      </trkpt>
      <trkpt lat="45.47201" lon="6.52544">
        <ele>641.8</ele>
        <time>2013-08-28T11:03:37Z</time>
      </trkpt>
      <trkpt lat="45.47169" lon="6.52524">
        <ele>645.2</ele>
        <time>2013-08-28T11:03:53Z</time>
      </trkpt>
      <trkpt lat="45.47136" lon="6.52523">
        <ele>647.6</ele>
        <time>2013-08-28T11:04:08Z</time>
      </trkpt>
      <trkpt lat="45.47109" lon="6.52507">
        <ele>649.5</ele>
        <time>2013-08-28T11:04:21Z</time>
      </trkpt>
      <trkpt lat="45.47071" lon="6.52494">
        <ele>652.9</ele>
        <time>2013-08-28T11:04:39Z</time>
      </trkpt>
      <trkpt lat="45.4703" lon="6.52479">
        <ele>654.8</ele>
        <time>2013-08-28T11:04:56Z</time>
      </trkpt>
      <trkpt lat="45.46988" lon="6.52464">
        <ele>657.7</ele>
        <time>2013-08-28T11:05:14Z</time>
      </trkpt>
      <trkpt lat="45.4695" lon="6.52449">
        <ele>660.6</ele>
        <time>2013-08-28T11:05:31Z</time>
      </trkpt>
      <trkpt lat="45.46926" lon="6.52438">
        <ele>663.5</ele>
        <time>2013-08-28T11:05:43Z</time>
      </trkpt>
      <trkpt lat="45.46885" lon="6.5242">
        <ele>666.8</ele>
        <time>2013-08-28T11:06:01Z</time>
      </trkpt>
      <trkpt lat="45.46859" lon="6.52409">
        <ele>668.3</ele>
        <time>2013-08-28T11:06:13Z</time>
      </trkpt>
      <trkpt lat="45.46822" lon="6.52392">
        <ele>671.6</ele>
        <time>2013-08-28T11:06:29Z</time>
      </trkpt>
      <trkpt lat="45.46785" lon="6.52377">
        <ele>674</ele>
        <time>2013-08-28T11:06:45Z</time>
      </trkpt>
      <trkpt lat="45.46744" lon="6.52355">
        <ele>676.9</ele>
        <time>2013-08-28T11:07:01Z</time>
      </trkpt>
      <trkpt lat="45.46686" lon="6.52329">
        <ele>679.3</ele>
        <time>2013-08-28T11:07:23Z</time>
      </trkpt>
      <trkpt lat="45.46675" lon="6.52303">
        <ele>679.8</ele>
        <time>2013-08-28T11:07:31Z</time>
      </trkpt>
      <trkpt lat="45.46677" lon="6.52301">
        <ele>680.3</ele>
        <time>2013-08-28T11:07:32Z</time>
      </trkpt>
      <trkpt lat="45.4668" lon="6.523">
        <ele>680.8</ele>
        <time>2013-08-28T11:07:33Z</time>
      </trkpt>
      <trkpt lat="45.46683" lon="6.52299">
        <ele>681.2</ele>
        <time>2013-08-28T11:07:34Z</time>
      </trkpt>
      <trkpt lat="45.46686" lon="6.523">
        <ele>681.7</ele>
        <time>2013-08-28T11:07:35Z</time>
      </trkpt>
      <trkpt lat="45.46688" lon="6.52301">
        <ele>681.2</ele>
        <time>2013-08-28T11:07:36Z</time>
      </trkpt>
      <trkpt lat="45.46691" lon="6.52303">
        <ele>681.7</ele>
        <time>2013-08-28T11:07:37Z</time>
      </trkpt>
      <trkpt lat="45.46694" lon="6.52305">
        <ele>681.7</ele>
        <time>2013-08-28T11:07:38Z</time>
      </trkpt>
      <trkpt lat="45.46696" lon="6.52307">
        <ele>681.7</ele>
        <time>2013-08-28T11:07:39Z</time>
      </trkpt>
      <trkpt lat="45.46731" lon="6.52324">
        <ele>684.6</ele>
        <time>2013-08-28T11:07:54Z</time>
      </trkpt>
      <trkpt lat="45.46767" lon="6.52335">
        <ele>687.5</ele>
        <time>2013-08-28T11:08:11Z</time>
      </trkpt>
      <trkpt lat="45.46795" lon="6.52344">
        <ele>690.4</ele>
        <time>2013-08-28T11:08:25Z</time>
      </trkpt>
      <trkpt lat="45.46834" lon="6.52351">
        <ele>692.8</ele>
        <time>2013-08-28T11:08:44Z</time>
      </trkpt>
      <trkpt lat="45.4687" lon="6.52357">
        <ele>695.2</ele>
        <time>2013-08-28T11:09:01Z</time>
      </trkpt>
      <trkpt lat="45.469" lon="6.52363">
        <ele>698.5</ele>
        <time>2013-08-28T11:09:16Z</time>
      </trkpt>
      <trkpt lat="45.46934" lon="6.52362">
        <ele>700.5</ele>
        <time>2013-08-28T11:09:31Z</time>
      </trkpt>
      <trkpt lat="45.46972" lon="6.52362">
        <ele>703.3</ele>
        <time>2013-08-28T11:09:48Z</time>
      </trkpt>
      <trkpt lat="45.47007" lon="6.52352">
        <ele>706.2</ele>
        <time>2013-08-28T11:10:03Z</time>
      </trkpt>
      <trkpt lat="45.47044" lon="6.52353">
        <ele>709.1</ele>
        <time>2013-08-28T11:10:19Z</time>
      </trkpt>
      <trkpt lat="45.47075" lon="6.52361">
        <ele>710.6</ele>
        <time>2013-08-28T11:10:34Z</time>
      </trkpt>
      <trkpt lat="45.47112" lon="6.52371">
        <ele>713</ele>
        <time>2013-08-28T11:10:52Z</time>
      </trkpt>
      <trkpt lat="45.47149" lon="6.52377">
        <ele>715.4</ele>
        <time>2013-08-28T11:11:09Z</time>
      </trkpt>
      <trkpt lat="45.47188" lon="6.52377">
        <ele>717.8</ele>
        <time>2013-08-28T11:11:25Z</time>
      </trkpt>
      <trkpt lat="45.4722" lon="6.52376">
        <ele>720.2</ele>
        <time>2013-08-28T11:11:40Z</time>
      </trkpt>
      <trkpt lat="45.47248" lon="6.52365">
        <ele>722.6</ele>
        <time>2013-08-28T11:11:55Z</time>
      </trkpt>
      <trkpt lat="45.47267" lon="6.52348">
        <ele>723.1</ele>
        <time>2013-08-28T11:12:08Z</time>
      </trkpt>
      <trkpt lat="45.47266" lon="6.52343">
        <ele>724</ele>
        <time>2013-08-28T11:12:14Z</time>
      </trkpt>
      <trkpt lat="45.47265" lon="6.52343">
        <ele>724</ele>
        <time>2013-08-28T11:12:15Z</time>
      </trkpt>
      <trkpt lat="45.47264" lon="6.52344">
        <ele>724.5</ele>
        <time>2013-08-28T11:12:16Z</time>
      </trkpt>
      <trkpt lat="45.47256" lon="6.52345">
        <ele>725.5</ele>
        <time>2013-08-28T11:12:31Z</time>
      </trkpt>
      <trkpt lat="45.47256" lon="6.52349">
        <ele>724.5</ele>
        <time>2013-08-28T11:12:35Z</time>
      </trkpt>
      <trkpt lat="45.47279" lon="6.52354">
        <ele>737.5</ele>
        <time>2013-08-28T11:55:38Z</time>
      </trkpt>
      <trkpt lat="45.47286" lon="6.52346">
        <ele>738.9</ele>
        <time>2013-08-28T11:55:42Z</time>
      </trkpt>
      <trkpt lat="45.47312" lon="6.52333">
        <ele>739.9</ele>
        <time>2013-08-28T11:55:59Z</time>
      </trkpt>
      <trkpt lat="45.47332" lon="6.52309">
        <ele>742.8</ele>
        <time>2013-08-28T11:56:13Z</time>
      </trkpt>
      <trkpt lat="45.47326" lon="6.5229">
        <ele>743.7</ele>
        <time>2013-08-28T11:56:20Z</time>
      </trkpt>
      <trkpt lat="45.47305" lon="6.52297">
        <ele>740.4</ele>
        <time>2013-08-28T11:56:29Z</time>
      </trkpt>
      <trkpt lat="45.47295" lon="6.52305">
        <ele>737.5</ele>
        <time>2013-08-28T11:56:33Z</time>
      </trkpt>
      <trkpt lat="45.47277" lon="6.52311">
        <ele>733.6</ele>
        <time>2013-08-28T11:56:40Z</time>
      </trkpt>
      <trkpt lat="45.47251" lon="6.52316">
        <ele>730.7</ele>
        <time>2013-08-28T11:56:51Z</time>
      </trkpt>
      <trkpt lat="45.47223" lon="6.52316">
        <ele>730.7</ele>
        <time>2013-08-28T11:57:04Z</time>
      </trkpt>
      <trkpt lat="45.47192" lon="6.52312">
        <ele>730.3</ele>
        <time>2013-08-28T11:57:19Z</time>
      </trkpt>
      <trkpt lat="45.47184" lon="6.52309">
        <ele>731.2</ele>
        <time>2013-08-28T11:57:24Z</time>
      </trkpt>
      <trkpt lat="45.47156" lon="6.52298">
        <ele>731.2</ele>
        <time>2013-08-28T11:57:39Z</time>
      </trkpt>
      <trkpt lat="45.47126" lon="6.52284">
        <ele>732.2</ele>
        <time>2013-08-28T11:57:55Z</time>
      </trkpt>
      <trkpt lat="45.47096" lon="6.52272">
        <ele>733.1</ele>
        <time>2013-08-28T11:58:10Z</time>
      </trkpt>
      <trkpt lat="45.47068" lon="6.5226">
        <ele>736</ele>
        <time>2013-08-28T11:58:24Z</time>
      </trkpt>
      <trkpt lat="45.47066" lon="6.5226">
        <ele>736.5</ele>
        <time>2013-08-28T11:58:25Z</time>
      </trkpt>
      <trkpt lat="45.4704" lon="6.52257">
        <ele>738</ele>
        <time>2013-08-28T11:58:38Z</time>
      </trkpt>
      <trkpt lat="45.47008" lon="6.52257">
        <ele>739.9</ele>
        <time>2013-08-28T11:58:53Z</time>
      </trkpt>
      <trkpt lat="45.46975" lon="6.52253">
        <ele>742.3</ele>
        <time>2013-08-28T11:59:09Z</time>
      </trkpt>
      <trkpt lat="45.46951" lon="6.52244">
        <ele>744.7</ele>
        <time>2013-08-28T11:59:21Z</time>
      </trkpt>
      <trkpt lat="45.4692" lon="6.52229">
        <ele>747.6</ele>
        <time>2013-08-28T11:59:37Z</time>
      </trkpt>
      <trkpt lat="45.46882" lon="6.52216">
        <ele>750.5</ele>
        <time>2013-08-28T11:59:55Z</time>
      </trkpt>
      <trkpt lat="45.46848" lon="6.52202">
        <ele>752.9</ele>
        <time>2013-08-28T12:00:12Z</time>
      </trkpt>
      <trkpt lat="45.46817" lon="6.52185">
        <ele>754.8</ele>
        <time>2013-08-28T12:00:28Z</time>
      </trkpt>
      <trkpt lat="45.4679" lon="6.52176">
        <ele>757.2</ele>
        <time>2013-08-28T12:00:41Z</time>
      </trkpt>
      <trkpt lat="45.46776" lon="6.52174">
        <ele>758.1</ele>
        <time>2013-08-28T12:00:48Z</time>
      </trkpt>
      <trkpt lat="45.46742" lon="6.52152">
        <ele>760.5</ele>
        <time>2013-08-28T12:01:05Z</time>
      </trkpt>
      <trkpt lat="45.46709" lon="6.52127">
        <ele>762.5</ele>
        <time>2013-08-28T12:01:22Z</time>
      </trkpt>
      <trkpt lat="45.46681" lon="6.52095">
        <ele>765.8</ele>
        <time>2013-08-28T12:01:38Z</time>
      </trkpt>
      <trkpt lat="45.46655" lon="6.52064">
        <ele>767.8</ele>
        <time>2013-08-28T12:01:54Z</time>
      </trkpt>
      <trkpt lat="45.46626" lon="6.52038">
        <ele>770.6</ele>
        <time>2013-08-28T12:02:10Z</time>
      </trkpt>
      <trkpt lat="45.46597" lon="6.52012">
        <ele>772.1</ele>
        <time>2013-08-28T12:02:26Z</time>
      </trkpt>
      <trkpt lat="45.46573" lon="6.51995">
        <ele>775.4</ele>
        <time>2013-08-28T12:02:38Z</time>
      </trkpt>
      <trkpt lat="45.46541" lon="6.51979">
        <ele>777.4</ele>
        <time>2013-08-28T12:02:54Z</time>
      </trkpt>
      <trkpt lat="45.46511" lon="6.51962">
        <ele>780.3</ele>
        <time>2013-08-28T12:03:10Z</time>
      </trkpt>
      <trkpt lat="45.4648" lon="6.51947">
        <ele>782.7</ele>
        <time>2013-08-28T12:03:27Z</time>
      </trkpt>
      <trkpt lat="45.46453" lon="6.51933">
        <ele>784.6</ele>
        <time>2013-08-28T12:03:42Z</time>
      </trkpt>
      <trkpt lat="45.46424" lon="6.51917">
        <ele>787.9</ele>
        <time>2013-08-28T12:03:58Z</time>
      </trkpt>
      <trkpt lat="45.4639" lon="6.51906">
        <ele>790.3</ele>
        <time>2013-08-28T12:04:16Z</time>
      </trkpt>
      <trkpt lat="45.46364" lon="6.51891">
        <ele>792.7</ele>
        <time>2013-08-28T12:04:31Z</time>
      </trkpt>
      <trkpt lat="45.46338" lon="6.51867">
        <ele>793.7</ele>
        <time>2013-08-28T12:04:46Z</time>
      </trkpt>
      <trkpt lat="45.46313" lon="6.51836">
        <ele>795.6</ele>
        <time>2013-08-28T12:05:02Z</time>
      </trkpt>
      <trkpt lat="45.46292" lon="6.51802">
        <ele>798</ele>
        <time>2013-08-28T12:05:16Z</time>
      </trkpt>
      <trkpt lat="45.4627" lon="6.51767">
        <ele>800.9</ele>
        <time>2013-08-28T12:05:32Z</time>
      </trkpt>
      <trkpt lat="45.46245" lon="6.51736">
        <ele>803.3</ele>
        <time>2013-08-28T12:05:48Z</time>
      </trkpt>
      <trkpt lat="45.46243" lon="6.51732">
        <ele>803.8</ele>
        <time>2013-08-28T12:05:50Z</time>
      </trkpt>
      <trkpt lat="45.46242" lon="6.51729">
        <ele>803.8</ele>
        <time>2013-08-28T12:05:51Z</time>
      </trkpt>
      <trkpt lat="45.46241" lon="6.51726">
        <ele>803.8</ele>
        <time>2013-08-28T12:05:52Z</time>
      </trkpt>
      <trkpt lat="45.46226" lon="6.51679">
        <ele>806.7</ele>
        <time>2013-08-28T12:06:09Z</time>
      </trkpt>
      <trkpt lat="45.46216" lon="6.51621">
        <ele>809.6</ele>
        <time>2013-08-28T12:06:28Z</time>
      </trkpt>
      <trkpt lat="45.46198" lon="6.51579">
        <ele>811.5</ele>
        <time>2013-08-28T12:06:44Z</time>
      </trkpt>
      <trkpt lat="45.46169" lon="6.51537">
        <ele>814.9</ele>
        <time>2013-08-28T12:07:03Z</time>
      </trkpt>
      <trkpt lat="45.46145" lon="6.51509">
        <ele>817.7</ele>
        <time>2013-08-28T12:07:17Z</time>
      </trkpt>
      <trkpt lat="45.46108" lon="6.51499">
        <ele>821.1</ele>
        <time>2013-08-28T12:07:34Z</time>
      </trkpt>
      <trkpt lat="45.46079" lon="6.51471">
        <ele>823</ele>
        <time>2013-08-28T12:07:51Z</time>
      </trkpt>
      <trkpt lat="45.46049" lon="6.51448">
        <ele>825</ele>
        <time>2013-08-28T12:08:07Z</time>
      </trkpt>
      <trkpt lat="45.46019" lon="6.51433">
        <ele>826.4</ele>
        <time>2013-08-28T12:08:23Z</time>
      </trkpt>
      <trkpt lat="45.45997" lon="6.51414">
        <ele>828.3</ele>
        <time>2013-08-28T12:08:37Z</time>
      </trkpt>
      <trkpt lat="45.45971" lon="6.51379">
        <ele>830.7</ele>
        <time>2013-08-28T12:08:54Z</time>
      </trkpt>
      <trkpt lat="45.4594" lon="6.51348">
        <ele>833.6</ele>
        <time>2013-08-28T12:09:11Z</time>
      </trkpt>
      <trkpt lat="45.45924" lon="6.51339">
        <ele>834.6</ele>
        <time>2013-08-28T12:09:19Z</time>
      </trkpt>
      <trkpt lat="45.45909" lon="6.51329">
        <ele>835.5</ele>
        <time>2013-08-28T12:09:32Z</time>
      </trkpt>
      <trkpt lat="45.45909" lon="6.51328">
        <ele>835</ele>
        <time>2013-08-28T12:09:46Z</time>
      </trkpt>
      <trkpt lat="45.45909" lon="6.51328">
        <ele>835.5</ele>
        <time>2013-08-28T12:10:19Z</time>
      </trkpt>
      <trkpt lat="45.459" lon="6.51327">
        <ele>836</ele>
        <time>2013-08-28T12:10:29Z</time>
      </trkpt>
      <trkpt lat="45.45877" lon="6.51307">
        <ele>837.9</ele>
        <time>2013-08-28T12:10:42Z</time>
      </trkpt>
      <trkpt lat="45.45845" lon="6.51288">
        <ele>840.3</ele>
        <time>2013-08-28T12:10:58Z</time>
      </trkpt>
      <trkpt lat="45.45806" lon="6.51267">
        <ele>842.3</ele>
        <time>2013-08-28T12:11:14Z</time>
      </trkpt>
      <trkpt lat="45.45768" lon="6.51236">
        <ele>843.7</ele>
        <time>2013-08-28T12:11:30Z</time>
      </trkpt>
      <trkpt lat="45.45738" lon="6.51186">
        <ele>846.1</ele>
        <time>2013-08-28T12:11:45Z</time>
      </trkpt>
      <trkpt lat="45.45705" lon="6.51109">
        <ele>847.5</ele>
        <time>2013-08-28T12:12:05Z</time>
      </trkpt>
      <trkpt lat="45.45677" lon="6.51035">
        <ele>849.9</ele>
        <time>2013-08-28T12:12:24Z</time>
      </trkpt>
      <trkpt lat="45.45633" lon="6.50988">
        <ele>853.3</ele>
        <time>2013-08-28T12:12:42Z</time>
      </trkpt>
      <trkpt lat="45.4559" lon="6.5095">
        <ele>856.2</ele>
        <time>2013-08-28T12:13:00Z</time>
      </trkpt>
      <trkpt lat="45.4555" lon="6.50927">
        <ele>857.6</ele>
        <time>2013-08-28T12:13:16Z</time>
      </trkpt>
      <trkpt lat="45.45507" lon="6.50894">
        <ele>861</ele>
        <time>2013-08-28T12:13:34Z</time>
      </trkpt>
      <trkpt lat="45.45473" lon="6.50863">
        <ele>864.4</ele>
        <time>2013-08-28T12:13:51Z</time>
      </trkpt>
      <trkpt lat="45.45443" lon="6.50825">
        <ele>867.7</ele>
        <time>2013-08-28T12:14:11Z</time>
      </trkpt>
      <trkpt lat="45.45423" lon="6.50796">
        <ele>871.1</ele>
        <time>2013-08-28T12:14:26Z</time>
      </trkpt>
      <trkpt lat="45.45399" lon="6.50762">
        <ele>873.5</ele>
        <time>2013-08-28T12:14:43Z</time>
      </trkpt>
      <trkpt lat="45.45377" lon="6.50731">
        <ele>875.9</ele>
        <time>2013-08-28T12:14:59Z</time>
      </trkpt>
      <trkpt lat="45.45357" lon="6.50702">
        <ele>878.8</ele>
        <time>2013-08-28T12:15:14Z</time>
      </trkpt>
      <trkpt lat="45.45333" lon="6.50669">
        <ele>882.2</ele>
        <time>2013-08-28T12:15:31Z</time>
      </trkpt>
      <trkpt lat="45.45308" lon="6.50636">
        <ele>884.6</ele>
        <time>2013-08-28T12:15:48Z</time>
      </trkpt>
      <trkpt lat="45.45277" lon="6.50596">
        <ele>887</ele>
        <time>2013-08-28T12:16:09Z</time>
      </trkpt>
      <trkpt lat="45.45267" lon="6.50575">
        <ele>890.3</ele>
        <time>2013-08-28T12:16:18Z</time>
      </trkpt>
      <trkpt lat="45.45243" lon="6.50532">
        <ele>893.2</ele>
        <time>2013-08-28T12:16:38Z</time>
      </trkpt>
      <trkpt lat="45.45225" lon="6.50515">
        <ele>894.6</ele>
        <time>2013-08-28T12:16:54Z</time>
      </trkpt>
      <trkpt lat="45.45226" lon="6.50517">
        <ele>894.6</ele>
        <time>2013-08-28T12:17:22Z</time>
      </trkpt>
      <trkpt lat="45.45224" lon="6.50513">
        <ele>894.6</ele>
        <time>2013-08-28T12:18:01Z</time>
      </trkpt>
      <trkpt lat="45.45221" lon="6.50508">
        <ele>895.1</ele>
        <time>2013-08-28T12:18:34Z</time>
      </trkpt>
      <trkpt lat="45.45218" lon="6.50502">
        <ele>895.6</ele>
        <time>2013-08-28T12:18:37Z</time>
      </trkpt>
      <trkpt lat="45.45218" lon="6.505">
        <ele>895.6</ele>
        <time>2013-08-28T12:18:38Z</time>
      </trkpt>
      <trkpt lat="45.45218" lon="6.50498">
        <ele>896.1</ele>
        <time>2013-08-28T12:18:39Z</time>
      </trkpt>
      <trkpt lat="45.45217" lon="6.50496">
        <ele>896.1</ele>
        <time>2013-08-28T12:18:40Z</time>
      </trkpt>
      <trkpt lat="45.45216" lon="6.50495">
        <ele>896.1</ele>
        <time>2013-08-28T12:18:41Z</time>
      </trkpt>
      <trkpt lat="45.45192" lon="6.50465">
        <ele>898</ele>
        <time>2013-08-28T12:18:59Z</time>
      </trkpt>
      <trkpt lat="45.45185" lon="6.50436">
        <ele>900.9</ele>
        <time>2013-08-28T12:19:13Z</time>
      </trkpt>
      <trkpt lat="45.45187" lon="6.50435">
        <ele>900.9</ele>
        <time>2013-08-28T12:19:14Z</time>
      </trkpt>
      <trkpt lat="45.45188" lon="6.50434">
        <ele>900.4</ele>
        <time>2013-08-28T12:19:15Z</time>
      </trkpt>
      <trkpt lat="45.4519" lon="6.50434">
        <ele>900.4</ele>
        <time>2013-08-28T12:19:16Z</time>
      </trkpt>
      <trkpt lat="45.45192" lon="6.50435">
        <ele>900.9</ele>
        <time>2013-08-28T12:19:17Z</time>
      </trkpt>
      <trkpt lat="45.45194" lon="6.50436">
        <ele>901.9</ele>
        <time>2013-08-28T12:19:18Z</time>
      </trkpt>
      <trkpt lat="45.45197" lon="6.50437">
        <ele>901.9</ele>
        <time>2013-08-28T12:19:19Z</time>
      </trkpt>
      <trkpt lat="45.4522" lon="6.50465">
        <ele>903.3</ele>
        <time>2013-08-28T12:19:33Z</time>
      </trkpt>
      <trkpt lat="45.45228" lon="6.50474">
        <ele>904.7</ele>
        <time>2013-08-28T12:19:38Z</time>
      </trkpt>
      <trkpt lat="45.45256" lon="6.50507">
        <ele>907.6</ele>
        <time>2013-08-28T12:19:56Z</time>
      </trkpt>
      <trkpt lat="45.45283" lon="6.50537">
        <ele>910.5</ele>
        <time>2013-08-28T12:20:12Z</time>
      </trkpt>
      <trkpt lat="45.45301" lon="6.50559">
        <ele>912</ele>
        <time>2013-08-28T12:20:25Z</time>
      </trkpt>
      <trkpt lat="45.4533" lon="6.50587">
        <ele>914.8</ele>
        <time>2013-08-28T12:20:42Z</time>
      </trkpt>
      <trkpt lat="45.4536" lon="6.50614">
        <ele>917.2</ele>
        <time>2013-08-28T12:20:59Z</time>
      </trkpt>
      <trkpt lat="45.45387" lon="6.50639">
        <ele>920.1</ele>
        <time>2013-08-28T12:21:14Z</time>
      </trkpt>
      <trkpt lat="45.45414" lon="6.5066">
        <ele>922.5</ele>
        <time>2013-08-28T12:21:29Z</time>
      </trkpt>
      <trkpt lat="45.45448" lon="6.50671">
        <ele>925.9</ele>
        <time>2013-08-28T12:21:48Z</time>
      </trkpt>
      <trkpt lat="45.45477" lon="6.50692">
        <ele>928.3</ele>
        <time>2013-08-28T12:22:04Z</time>
      </trkpt>
      <trkpt lat="45.455" lon="6.50713">
        <ele>931.2</ele>
        <time>2013-08-28T12:22:18Z</time>
      </trkpt>
      <trkpt lat="45.45525" lon="6.50746">
        <ele>933.6</ele>
        <time>2013-08-28T12:22:35Z</time>
      </trkpt>
      <trkpt lat="45.45552" lon="6.5077">
        <ele>936</ele>
        <time>2013-08-28T12:22:51Z</time>
      </trkpt>
      <trkpt lat="45.45576" lon="6.50798">
        <ele>938.4</ele>
        <time>2013-08-28T12:23:08Z</time>
      </trkpt>
      <trkpt lat="45.45595" lon="6.508">
        <ele>938.9</ele>
        <time>2013-08-28T12:23:18Z</time>
      </trkpt>
      <trkpt lat="45.45596" lon="6.50798">
        <ele>939.4</ele>
        <time>2013-08-28T12:23:19Z</time>
      </trkpt>
      <trkpt lat="45.45598" lon="6.50795">
        <ele>939.4</ele>
        <time>2013-08-28T12:23:20Z</time>
      </trkpt>
      <trkpt lat="45.45592" lon="6.50768">
        <ele>941.3</ele>
        <time>2013-08-28T12:23:30Z</time>
      </trkpt>
      <trkpt lat="45.45567" lon="6.5075">
        <ele>943.7</ele>
        <time>2013-08-28T12:23:44Z</time>
      </trkpt>
      <trkpt lat="45.45545" lon="6.50716">
        <ele>947</ele>
        <time>2013-08-28T12:24:00Z</time>
      </trkpt>
      <trkpt lat="45.45522" lon="6.50682">
        <ele>949</ele>
        <time>2013-08-28T12:24:16Z</time>
      </trkpt>
      <trkpt lat="45.45504" lon="6.50654">
        <ele>952.3</ele>
        <time>2013-08-28T12:24:30Z</time>
      </trkpt>
      <trkpt lat="45.45481" lon="6.50613">
        <ele>955.7</ele>
        <time>2013-08-28T12:24:48Z</time>
      </trkpt>
      <trkpt lat="45.4546" lon="6.50576">
        <ele>957.1</ele>
        <time>2013-08-28T12:25:04Z</time>
      </trkpt>
      <trkpt lat="45.45439" lon="6.50539">
        <ele>960.5</ele>
        <time>2013-08-28T12:25:20Z</time>
      </trkpt>
      <trkpt lat="45.4542" lon="6.50507">
        <ele>963.9</ele>
        <time>2013-08-28T12:25:34Z</time>
      </trkpt>
      <trkpt lat="45.45388" lon="6.50455">
        <ele>966.3</ele>
        <time>2013-08-28T12:25:56Z</time>
      </trkpt>
      <trkpt lat="45.45367" lon="6.50416">
        <ele>969.6</ele>
        <time>2013-08-28T12:26:13Z</time>
      </trkpt>
      <trkpt lat="45.45341" lon="6.50384">
        <ele>971.6</ele>
        <time>2013-08-28T12:26:28Z</time>
      </trkpt>
      <trkpt lat="45.45316" lon="6.50355">
        <ele>974</ele>
        <time>2013-08-28T12:26:44Z</time>
      </trkpt>
      <trkpt lat="45.45292" lon="6.50329">
        <ele>977.3</ele>
        <time>2013-08-28T12:26:59Z</time>
      </trkpt>
      <trkpt lat="45.45266" lon="6.50305">
        <ele>978.8</ele>
        <time>2013-08-28T12:27:14Z</time>
      </trkpt>
      <trkpt lat="45.4524" lon="6.50276">
        <ele>982.1</ele>
        <time>2013-08-28T12:27:30Z</time>
      </trkpt>
      <trkpt lat="45.45212" lon="6.5024">
        <ele>984.5</ele>
        <time>2013-08-28T12:27:48Z</time>
      </trkpt>
      <trkpt lat="45.45193" lon="6.50212">
        <ele>987.4</ele>
        <time>2013-08-28T12:28:03Z</time>
      </trkpt>
      <trkpt lat="45.45169" lon="6.50181">
        <ele>989.3</ele>
        <time>2013-08-28T12:28:17Z</time>
      </trkpt>
      <trkpt lat="45.45143" lon="6.50131">
        <ele>992.7</ele>
        <time>2013-08-28T12:28:38Z</time>
      </trkpt>
      <trkpt lat="45.45118" lon="6.50077">
        <ele>995.6</ele>
        <time>2013-08-28T12:28:58Z</time>
      </trkpt>
      <trkpt lat="45.451" lon="6.50027">
        <ele>998.5</ele>
        <time>2013-08-28T12:29:16Z</time>
      </trkpt>
      <trkpt lat="45.45082" lon="6.49993">
        <ele>999.4</ele>
        <time>2013-08-28T12:29:29Z</time>
      </trkpt>
      <trkpt lat="45.45062" lon="6.4996">
        <ele>998</ele>
        <time>2013-08-28T12:29:37Z</time>
      </trkpt>
      <trkpt lat="45.4506" lon="6.49954">
        <ele>998.5</ele>
        <time>2013-08-28T12:29:38Z</time>
      </trkpt>
      <trkpt lat="45.45058" lon="6.49947">
        <ele>998</ele>
        <time>2013-08-28T12:29:39Z</time>
      </trkpt>
      <trkpt lat="45.45056" lon="6.49939">
        <ele>997</ele>
        <time>2013-08-28T12:29:40Z</time>
      </trkpt>
      <trkpt lat="45.45056" lon="6.49931">
        <ele>997</ele>
        <time>2013-08-28T12:29:41Z</time>
      </trkpt>
      <trkpt lat="45.45055" lon="6.49922">
        <ele>997.5</ele>
        <time>2013-08-28T12:29:42Z</time>
      </trkpt>
      <trkpt lat="45.45056" lon="6.49913">
        <ele>997</ele>
        <time>2013-08-28T12:29:43Z</time>
      </trkpt>
      <trkpt lat="45.45057" lon="6.49904">
        <ele>997</ele>
        <time>2013-08-28T12:29:44Z</time>
      </trkpt>
      <trkpt lat="45.45065" lon="6.49835">
        <ele>995.6</ele>
        <time>2013-08-28T12:29:52Z</time>
      </trkpt>
      <trkpt lat="45.45065" lon="6.49828">
        <ele>994.6</ele>
        <time>2013-08-28T12:29:53Z</time>
      </trkpt>
      <trkpt lat="45.45064" lon="6.49821">
        <ele>994.1</ele>
        <time>2013-08-28T12:29:54Z</time>
      </trkpt>
      <trkpt lat="45.45062" lon="6.49815">
        <ele>994.6</ele>
        <time>2013-08-28T12:29:55Z</time>
      </trkpt>
      <trkpt lat="45.45059" lon="6.49812">
        <ele>993.7</ele>
        <time>2013-08-28T12:29:56Z</time>
      </trkpt>
      <trkpt lat="45.45051" lon="6.4981">
        <ele>993.2</ele>
        <time>2013-08-28T12:29:57Z</time>
      </trkpt>
      <trkpt lat="45.45041" lon="6.49808">
        <ele>992.7</ele>
        <time>2013-08-28T12:29:58Z</time>
      </trkpt>
      <trkpt lat="45.45031" lon="6.49807">
        <ele>992.2</ele>
        <time>2013-08-28T12:29:59Z</time>
      </trkpt>
      <trkpt lat="45.4502" lon="6.49808">
        <ele>992.2</ele>
        <time>2013-08-28T12:30:00Z</time>
      </trkpt>
      <trkpt lat="45.4501" lon="6.4981">
        <ele>991.3</ele>
        <time>2013-08-28T12:30:01Z</time>
      </trkpt>
      <trkpt lat="45.45" lon="6.49812">
        <ele>991.3</ele>
        <time>2013-08-28T12:30:02Z</time>
      </trkpt>
      <trkpt lat="45.4499" lon="6.49813">
        <ele>990.8</ele>
        <time>2013-08-28T12:30:03Z</time>
      </trkpt>
      <trkpt lat="45.44981" lon="6.49816">
        <ele>990.3</ele>
        <time>2013-08-28T12:30:04Z</time>
      </trkpt>
      <trkpt lat="45.44964" lon="6.49819">
        <ele>990.8</ele>
        <time>2013-08-28T12:30:06Z</time>
      </trkpt>
      <trkpt lat="45.44956" lon="6.49819">
        <ele>991.3</ele>
        <time>2013-08-28T12:30:07Z</time>
      </trkpt>
      <trkpt lat="45.44949" lon="6.49817">
        <ele>991.3</ele>
        <time>2013-08-28T12:30:08Z</time>
      </trkpt>
      <trkpt lat="45.44943" lon="6.49814">
        <ele>991.3</ele>
        <time>2013-08-28T12:30:09Z</time>
      </trkpt>
      <trkpt lat="45.44937" lon="6.49809">
        <ele>990.8</ele>
        <time>2013-08-28T12:30:10Z</time>
      </trkpt>
      <trkpt lat="45.44931" lon="6.49806">
        <ele>991.3</ele>
        <time>2013-08-28T12:30:11Z</time>
      </trkpt>
      <trkpt lat="45.44926" lon="6.49802">
        <ele>990.8</ele>
        <time>2013-08-28T12:30:12Z</time>
      </trkpt>
      <trkpt lat="45.44922" lon="6.49799">
        <ele>991.7</ele>
        <time>2013-08-28T12:30:13Z</time>
      </trkpt>
      <trkpt lat="45.44876" lon="6.49771">
        <ele>993.2</ele>
        <time>2013-08-28T12:30:26Z</time>
      </trkpt>
      <trkpt lat="45.44841" lon="6.49748">
        <ele>996.5</ele>
        <time>2013-08-28T12:30:37Z</time>
      </trkpt>
      <trkpt lat="45.44799" lon="6.49718">
        <ele>999.9</ele>
        <time>2013-08-28T12:30:51Z</time>
      </trkpt>
      <trkpt lat="45.44769" lon="6.49688">
        <ele>1001.8</ele>
        <time>2013-08-28T12:31:06Z</time>
      </trkpt>
      <trkpt lat="45.44729" lon="6.49648">
        <ele>1004.2</ele>
        <time>2013-08-28T12:31:26Z</time>
      </trkpt>
      <trkpt lat="45.4468" lon="6.49622">
        <ele>1007.1</ele>
        <time>2013-08-28T12:31:45Z</time>
      </trkpt>
      <trkpt lat="45.44626" lon="6.49598">
        <ele>1009.5</ele>
        <time>2013-08-28T12:32:07Z</time>
      </trkpt>
      <trkpt lat="45.44582" lon="6.49577">
        <ele>1012.4</ele>
        <time>2013-08-28T12:32:25Z</time>
      </trkpt>
      <trkpt lat="45.4454" lon="6.49554">
        <ele>1015.3</ele>
        <time>2013-08-28T12:32:43Z</time>
      </trkpt>
      <trkpt lat="45.44519" lon="6.49516">
        <ele>1018.2</ele>
        <time>2013-08-28T12:32:57Z</time>
      </trkpt>
      <trkpt lat="45.44494" lon="6.49477">
        <ele>1020.6</ele>
        <time>2013-08-28T12:33:14Z</time>
      </trkpt>
      <trkpt lat="45.44471" lon="6.49462">
        <ele>1023.9</ele>
        <time>2013-08-28T12:33:27Z</time>
      </trkpt>
      <trkpt lat="45.44445" lon="6.49427">
        <ele>1027.3</ele>
        <time>2013-08-28T12:33:45Z</time>
      </trkpt>
      <trkpt lat="45.44444" lon="6.49425">
        <ele>1027.8</ele>
        <time>2013-08-28T12:33:46Z</time>
      </trkpt>
      <trkpt lat="45.44428" lon="6.4939">
        <ele>1030.2</ele>
        <time>2013-08-28T12:34:01Z</time>
      </trkpt>
      <trkpt lat="45.44428" lon="6.49388">
        <ele>1030.2</ele>
        <time>2013-08-28T12:34:02Z</time>
      </trkpt>
      <trkpt lat="45.44411" lon="6.49352">
        <ele>1033.1</ele>
        <time>2013-08-28T12:34:17Z</time>
      </trkpt>
      <trkpt lat="45.44394" lon="6.49315">
        <ele>1035.5</ele>
        <time>2013-08-28T12:34:32Z</time>
      </trkpt>
      <trkpt lat="45.44371" lon="6.49293">
        <ele>1038.4</ele>
        <time>2013-08-28T12:34:47Z</time>
      </trkpt>
      <trkpt lat="45.4434" lon="6.49266">
        <ele>1040.8</ele>
        <time>2013-08-28T12:35:05Z</time>
      </trkpt>
      <trkpt lat="45.44316" lon="6.49234">
        <ele>1044.1</ele>
        <time>2013-08-28T12:35:20Z</time>
      </trkpt>
      <trkpt lat="45.44296" lon="6.49194">
        <ele>1046.5</ele>
        <time>2013-08-28T12:35:37Z</time>
      </trkpt>
      <trkpt lat="45.44273" lon="6.49163">
        <ele>1048.5</ele>
        <time>2013-08-28T12:35:51Z</time>
      </trkpt>
      <trkpt lat="45.44243" lon="6.49132">
        <ele>1051.8</ele>
        <time>2013-08-28T12:36:07Z</time>
      </trkpt>
      <trkpt lat="45.44214" lon="6.49122">
        <ele>1054.7</ele>
        <time>2013-08-28T12:36:23Z</time>
      </trkpt>
      <trkpt lat="45.44179" lon="6.49127">
        <ele>1057.1</ele>
        <time>2013-08-28T12:36:40Z</time>
      </trkpt>
      <trkpt lat="45.44143" lon="6.4912">
        <ele>1060</ele>
        <time>2013-08-28T12:36:57Z</time>
      </trkpt>
      <trkpt lat="45.44105" lon="6.49109">
        <ele>1063.4</ele>
        <time>2013-08-28T12:37:15Z</time>
      </trkpt>
      <trkpt lat="45.44069" lon="6.49097">
        <ele>1065.3</ele>
        <time>2013-08-28T12:37:32Z</time>
      </trkpt>
      <trkpt lat="45.44037" lon="6.49071">
        <ele>1068.6</ele>
        <time>2013-08-28T12:37:50Z</time>
      </trkpt>
      <trkpt lat="45.44004" lon="6.49051">
        <ele>1071.1</ele>
        <time>2013-08-28T12:38:08Z</time>
      </trkpt>
      <trkpt lat="45.43972" lon="6.49034">
        <ele>1073.5</ele>
        <time>2013-08-28T12:38:25Z</time>
      </trkpt>
      <trkpt lat="45.43944" lon="6.49027">
        <ele>1076.3</ele>
        <time>2013-08-28T12:38:40Z</time>
      </trkpt>
      <trkpt lat="45.43942" lon="6.49027">
        <ele>1076.8</ele>
        <time>2013-08-28T12:38:41Z</time>
      </trkpt>
      <trkpt lat="45.439" lon="6.49027">
        <ele>1079.2</ele>
        <time>2013-08-28T12:38:58Z</time>
      </trkpt>
      <trkpt lat="45.43889" lon="6.49024">
        <ele>1080.2</ele>
        <time>2013-08-28T12:39:03Z</time>
      </trkpt>
      <trkpt lat="45.43846" lon="6.4901">
        <ele>1083.5</ele>
        <time>2013-08-28T12:39:23Z</time>
      </trkpt>
      <trkpt lat="45.43798" lon="6.49007">
        <ele>1086</ele>
        <time>2013-08-28T12:39:43Z</time>
      </trkpt>
      <trkpt lat="45.43753" lon="6.49012">
        <ele>1087.4</ele>
        <time>2013-08-28T12:40:00Z</time>
      </trkpt>
      <trkpt lat="45.43724" lon="6.49014">
        <ele>1088.4</ele>
        <time>2013-08-28T12:40:12Z</time>
      </trkpt>
      <trkpt lat="45.43723" lon="6.49015">
        <ele>1088.4</ele>
        <time>2013-08-28T12:40:13Z</time>
      </trkpt>
      <trkpt lat="45.43722" lon="6.49016">
        <ele>1088.4</ele>
        <time>2013-08-28T12:40:14Z</time>
      </trkpt>
      <trkpt lat="45.43721" lon="6.49017">
        <ele>1088.8</ele>
        <time>2013-08-28T12:40:15Z</time>
      </trkpt>
      <trkpt lat="45.4372" lon="6.49018">
        <ele>1088.8</ele>
        <time>2013-08-28T12:40:16Z</time>
      </trkpt>
      <trkpt lat="45.43719" lon="6.49018">
        <ele>1088.8</ele>
        <time>2013-08-28T12:40:17Z</time>
      </trkpt>
      <trkpt lat="45.43717" lon="6.49018">
        <ele>1088.8</ele>
        <time>2013-08-28T12:40:18Z</time>
      </trkpt>
      <trkpt lat="45.43716" lon="6.49018">
        <ele>1089.3</ele>
        <time>2013-08-28T12:40:19Z</time>
      </trkpt>
      <trkpt lat="45.43713" lon="6.4902">
        <ele>1089.8</ele>
        <time>2013-08-28T12:40:36Z</time>
      </trkpt>
      <trkpt lat="45.43712" lon="6.49021">
        <ele>1088.4</ele>
        <time>2013-08-28T12:40:39Z</time>
      </trkpt>
      <trkpt lat="45.43711" lon="6.49022">
        <ele>1088.4</ele>
        <time>2013-08-28T12:40:40Z</time>
      </trkpt>
      <trkpt lat="45.43709" lon="6.49023">
        <ele>1088.8</ele>
        <time>2013-08-28T12:40:41Z</time>
      </trkpt>
      <trkpt lat="45.43707" lon="6.49024">
        <ele>1089.3</ele>
        <time>2013-08-28T12:40:42Z</time>
      </trkpt>
      <trkpt lat="45.43704" lon="6.49024">
        <ele>1089.3</ele>
        <time>2013-08-28T12:40:43Z</time>
      </trkpt>
      <trkpt lat="45.43656" lon="6.49029">
        <ele>1090.8</ele>
        <time>2013-08-28T12:40:58Z</time>
      </trkpt>
      <trkpt lat="45.43611" lon="6.48997">
        <ele>1092.2</ele>
        <time>2013-08-28T12:41:13Z</time>
      </trkpt>
      <trkpt lat="45.43581" lon="6.48947">
        <ele>1094.6</ele>
        <time>2013-08-28T12:41:28Z</time>
      </trkpt>
      <trkpt lat="45.43561" lon="6.48887">
        <ele>1098</ele>
        <time>2013-08-28T12:41:44Z</time>
      </trkpt>
      <trkpt lat="45.43575" lon="6.48819">
        <ele>1099.9</ele>
        <time>2013-08-28T12:42:00Z</time>
      </trkpt>
      <trkpt lat="45.43586" lon="6.48762">
        <ele>1101.3</ele>
        <time>2013-08-28T12:42:12Z</time>
      </trkpt>
      <trkpt lat="45.43575" lon="6.48679">
        <ele>1100.9</ele>
        <time>2013-08-28T12:42:26Z</time>
      </trkpt>
      <trkpt lat="45.43566" lon="6.48609">
        <ele>1101.3</ele>
        <time>2013-08-28T12:42:36Z</time>
      </trkpt>
      <trkpt lat="45.43565" lon="6.48595">
        <ele>1101.3</ele>
        <time>2013-08-28T12:42:38Z</time>
      </trkpt>
      <trkpt lat="45.43566" lon="6.48588">
        <ele>1101.3</ele>
        <time>2013-08-28T12:42:39Z</time>
      </trkpt>
      <trkpt lat="45.43576" lon="6.48544">
        <ele>1101.3</ele>
        <time>2013-08-28T12:42:46Z</time>
      </trkpt>
      <trkpt lat="45.43577" lon="6.48537">
        <ele>1101.3</ele>
        <time>2013-08-28T12:42:47Z</time>
      </trkpt>
      <trkpt lat="45.43577" lon="6.4853">
        <ele>1101.3</ele>
        <time>2013-08-28T12:42:48Z</time>
      </trkpt>
      <trkpt lat="45.43568" lon="6.48456">
        <ele>1100.9</ele>
        <time>2013-08-28T12:42:58Z</time>
      </trkpt>
      <trkpt lat="45.43566" lon="6.4845">
        <ele>1100.9</ele>
        <time>2013-08-28T12:42:59Z</time>
      </trkpt>
      <trkpt lat="45.43519" lon="6.48343">
        <ele>1100.4</ele>
        <time>2013-08-28T12:43:16Z</time>
      </trkpt>
      <trkpt lat="45.43515" lon="6.48329">
        <ele>1100.4</ele>
        <time>2013-08-28T12:43:18Z</time>
      </trkpt>
      <trkpt lat="45.43514" lon="6.48322">
        <ele>1100.9</ele>
        <time>2013-08-28T12:43:19Z</time>
      </trkpt>
      <trkpt lat="45.43513" lon="6.48314">
        <ele>1100.4</ele>
        <time>2013-08-28T12:43:20Z</time>
      </trkpt>
      <trkpt lat="45.43513" lon="6.48306">
        <ele>1100.9</ele>
        <time>2013-08-28T12:43:21Z</time>
      </trkpt>
      <trkpt lat="45.43513" lon="6.48298">
        <ele>1100.4</ele>
        <time>2013-08-28T12:43:22Z</time>
      </trkpt>
      <trkpt lat="45.43514" lon="6.4829">
        <ele>1100.4</ele>
        <time>2013-08-28T12:43:23Z</time>
      </trkpt>
      <trkpt lat="45.43515" lon="6.48282">
        <ele>1100.9</ele>
        <time>2013-08-28T12:43:24Z</time>
      </trkpt>
      <trkpt lat="45.43521" lon="6.48221">
        <ele>1100.9</ele>
        <time>2013-08-28T12:43:33Z</time>
      </trkpt>
      <trkpt lat="45.43517" lon="6.48195">
        <ele>1100.4</ele>
        <time>2013-08-28T12:43:37Z</time>
      </trkpt>
      <trkpt lat="45.43516" lon="6.48189">
        <ele>1100.9</ele>
        <time>2013-08-28T12:43:38Z</time>
      </trkpt>
      <trkpt lat="45.43514" lon="6.48184">
        <ele>1101.3</ele>
        <time>2013-08-28T12:43:39Z</time>
      </trkpt>
      <trkpt lat="45.43511" lon="6.48179">
        <ele>1101.3</ele>
        <time>2013-08-28T12:43:40Z</time>
      </trkpt>
      <trkpt lat="45.43507" lon="6.48174">
        <ele>1100.4</ele>
        <time>2013-08-28T12:43:41Z</time>
      </trkpt>
      <trkpt lat="45.43479" lon="6.4816">
        <ele>1101.8</ele>
        <time>2013-08-28T12:43:50Z</time>
      </trkpt>
      <trkpt lat="45.43475" lon="6.48164">
        <ele>1102.8</ele>
        <time>2013-08-28T12:43:52Z</time>
      </trkpt>
      <trkpt lat="45.43447" lon="6.48201">
        <ele>1105.2</ele>
        <time>2013-08-28T12:44:06Z</time>
      </trkpt>
      <trkpt lat="45.43411" lon="6.48196">
        <ele>1106.6</ele>
        <time>2013-08-28T12:44:20Z</time>
      </trkpt>
      <trkpt lat="45.43398" lon="6.48228">
        <ele>1107.1</ele>
        <time>2013-08-28T12:44:31Z</time>
      </trkpt>
      <trkpt lat="45.43372" lon="6.48291">
        <ele>1107.6</ele>
        <time>2013-08-28T12:44:44Z</time>
      </trkpt>
      <trkpt lat="45.4335" lon="6.48358">
        <ele>1109.5</ele>
        <time>2013-08-28T12:44:57Z</time>
      </trkpt>
      <trkpt lat="45.4332" lon="6.48423">
        <ele>1112.9</ele>
        <time>2013-08-28T12:45:14Z</time>
      </trkpt>
      <trkpt lat="45.43283" lon="6.48478">
        <ele>1114.3</ele>
        <time>2013-08-28T12:45:33Z</time>
      </trkpt>
      <trkpt lat="45.43276" lon="6.48501">
        <ele>1113.8</ele>
        <time>2013-08-28T12:45:45Z</time>
      </trkpt>
      <trkpt lat="45.43279" lon="6.48499">
        <ele>1113.3</ele>
        <time>2013-08-28T12:45:58Z</time>
      </trkpt>
      <trkpt lat="45.43279" lon="6.48501">
        <ele>1114.3</ele>
        <time>2013-08-28T12:46:47Z</time>
      </trkpt>
      <trkpt lat="45.43279" lon="6.48498">
        <ele>1114.8</ele>
        <time>2013-08-28T12:47:28Z</time>
      </trkpt>
      <trkpt lat="45.4328" lon="6.48498">
        <ele>1114.8</ele>
        <time>2013-08-28T12:48:02Z</time>
      </trkpt>
      <trkpt lat="45.43279" lon="6.48498">
        <ele>1115.3</ele>
        <time>2013-08-28T12:48:38Z</time>
      </trkpt>
      <trkpt lat="45.43279" lon="6.48497">
        <ele>1115.3</ele>
        <time>2013-08-28T12:49:12Z</time>
      </trkpt>
      <trkpt lat="45.43278" lon="6.48499">
        <ele>1115.3</ele>
        <time>2013-08-28T12:49:53Z</time>
      </trkpt>
      <trkpt lat="45.4328" lon="6.48497">
        <ele>1115.3</ele>
        <time>2013-08-28T12:50:14Z</time>
      </trkpt>
      <trkpt lat="45.43278" lon="6.48497">
        <ele>1115.8</ele>
        <time>2013-08-28T12:50:15Z</time>
      </trkpt>
      <trkpt lat="45.43266" lon="6.48501">
        <ele>1115.8</ele>
        <time>2013-08-28T12:50:26Z</time>
      </trkpt>
      <trkpt lat="45.43238" lon="6.48518">
        <ele>1114.8</ele>
        <time>2013-08-28T12:50:38Z</time>
      </trkpt>
      <trkpt lat="45.43215" lon="6.48528">
        <ele>1113.8</ele>
        <time>2013-08-28T12:50:44Z</time>
      </trkpt>
      <trkpt lat="45.43195" lon="6.48533">
        <ele>1112.9</ele>
        <time>2013-08-28T12:50:48Z</time>
      </trkpt>
      <trkpt lat="45.43111" lon="6.48531">
        <ele>1109.5</ele>
        <time>2013-08-28T12:51:01Z</time>
      </trkpt>
      <trkpt lat="45.43038" lon="6.48528">
        <ele>1106.1</ele>
        <time>2013-08-28T12:51:11Z</time>
      </trkpt>
      <trkpt lat="45.42961" lon="6.48538">
        <ele>1103.3</ele>
        <time>2013-08-28T12:51:24Z</time>
      </trkpt>
      <trkpt lat="45.42882" lon="6.48558">
        <ele>1100.4</ele>
        <time>2013-08-28T12:51:37Z</time>
      </trkpt>
      <trkpt lat="45.42802" lon="6.48599">
        <ele>1097.5</ele>
        <time>2013-08-28T12:51:50Z</time>
      </trkpt>
      <trkpt lat="45.42765" lon="6.48623">
        <ele>1095.6</ele>
        <time>2013-08-28T12:51:56Z</time>
      </trkpt>
      <trkpt lat="45.42684" lon="6.48663">
        <ele>1096</ele>
        <time>2013-08-28T12:52:09Z</time>
      </trkpt>
      <trkpt lat="45.4266" lon="6.48664">
        <ele>1096.5</ele>
        <time>2013-08-28T12:52:14Z</time>
      </trkpt>
      <trkpt lat="45.42651" lon="6.48662">
        <ele>1097.5</ele>
        <time>2013-08-28T12:52:16Z</time>
      </trkpt>
      <trkpt lat="45.42646" lon="6.4866">
        <ele>1097.5</ele>
        <time>2013-08-28T12:52:17Z</time>
      </trkpt>
      <trkpt lat="45.42642" lon="6.48658">
        <ele>1097.5</ele>
        <time>2013-08-28T12:52:18Z</time>
      </trkpt>
      <trkpt lat="45.42638" lon="6.48656">
        <ele>1097.5</ele>
        <time>2013-08-28T12:52:19Z</time>
      </trkpt>
      <trkpt lat="45.42634" lon="6.48653">
        <ele>1097</ele>
        <time>2013-08-28T12:52:20Z</time>
      </trkpt>
      <trkpt lat="45.4263" lon="6.48649">
        <ele>1098</ele>
        <time>2013-08-28T12:52:21Z</time>
      </trkpt>
      <trkpt lat="45.42626" lon="6.48646">
        <ele>1098</ele>
        <time>2013-08-28T12:52:22Z</time>
      </trkpt>
      <trkpt lat="45.42572" lon="6.48572">
        <ele>1098.9</ele>
        <time>2013-08-28T12:52:39Z</time>
      </trkpt>
      <trkpt lat="45.42561" lon="6.48513">
        <ele>1101.3</ele>
        <time>2013-08-28T12:52:53Z</time>
      </trkpt>
      <trkpt lat="45.42552" lon="6.48455">
        <ele>1101.8</ele>
        <time>2013-08-28T12:53:07Z</time>
      </trkpt>
      <trkpt lat="45.42532" lon="6.48402">
        <ele>1101.3</ele>
        <time>2013-08-28T12:53:17Z</time>
      </trkpt>
      <trkpt lat="45.42514" lon="6.48285">
        <ele>1098.9</ele>
        <time>2013-08-28T12:53:31Z</time>
      </trkpt>
      <trkpt lat="45.42495" lon="6.48196">
        <ele>1096.5</ele>
        <time>2013-08-28T12:53:40Z</time>
      </trkpt>
      <trkpt lat="45.4248" lon="6.48108">
        <ele>1093.2</ele>
        <time>2013-08-28T12:53:48Z</time>
      </trkpt>
      <trkpt lat="45.42478" lon="6.48098">
        <ele>1093.2</ele>
        <time>2013-08-28T12:53:49Z</time>
      </trkpt>
      <trkpt lat="45.42474" lon="6.48088">
        <ele>1092.2</ele>
        <time>2013-08-28T12:53:50Z</time>
      </trkpt>
      <trkpt lat="45.42469" lon="6.48079">
        <ele>1092.7</ele>
        <time>2013-08-28T12:53:51Z</time>
      </trkpt>
      <trkpt lat="45.42462" lon="6.48072">
        <ele>1092.2</ele>
        <time>2013-08-28T12:53:52Z</time>
      </trkpt>
      <trkpt lat="45.42455" lon="6.48067">
        <ele>1092.2</ele>
        <time>2013-08-28T12:53:53Z</time>
      </trkpt>
      <trkpt lat="45.42448" lon="6.48064">
        <ele>1091.7</ele>
        <time>2013-08-28T12:53:54Z</time>
      </trkpt>
      <trkpt lat="45.4244" lon="6.48062">
        <ele>1091.2</ele>
        <time>2013-08-28T12:53:55Z</time>
      </trkpt>
      <trkpt lat="45.42433" lon="6.4806">
        <ele>1092.2</ele>
        <time>2013-08-28T12:53:56Z</time>
      </trkpt>
      <trkpt lat="45.42425" lon="6.4806">
        <ele>1091.7</ele>
        <time>2013-08-28T12:53:57Z</time>
      </trkpt>
      <trkpt lat="45.42398" lon="6.48054">
        <ele>1090.8</ele>
        <time>2013-08-28T12:54:01Z</time>
      </trkpt>
      <trkpt lat="45.42391" lon="6.4805">
        <ele>1090.8</ele>
        <time>2013-08-28T12:54:02Z</time>
      </trkpt>
      <trkpt lat="45.42379" lon="6.48039">
        <ele>1090.3</ele>
        <time>2013-08-28T12:54:04Z</time>
      </trkpt>
      <trkpt lat="45.42374" lon="6.48031">
        <ele>1090.3</ele>
        <time>2013-08-28T12:54:05Z</time>
      </trkpt>
      <trkpt lat="45.4237" lon="6.48022">
        <ele>1090.3</ele>
        <time>2013-08-28T12:54:06Z</time>
      </trkpt>
      <trkpt lat="45.42367" lon="6.48012">
        <ele>1089.8</ele>
        <time>2013-08-28T12:54:07Z</time>
      </trkpt>
      <trkpt lat="45.42364" lon="6.48003">
        <ele>1089.3</ele>
        <time>2013-08-28T12:54:08Z</time>
      </trkpt>
      <trkpt lat="45.42314" lon="6.47897">
        <ele>1086</ele>
        <time>2013-08-28T12:54:20Z</time>
      </trkpt>
      <trkpt lat="45.42278" lon="6.47821">
        <ele>1082.6</ele>
        <time>2013-08-28T12:54:28Z</time>
      </trkpt>
      <trkpt lat="45.42274" lon="6.47811">
        <ele>1082.6</ele>
        <time>2013-08-28T12:54:29Z</time>
      </trkpt>
      <trkpt lat="45.42264" lon="6.47784">
        <ele>1081.1</ele>
        <time>2013-08-28T12:54:32Z</time>
      </trkpt>
      <trkpt lat="45.42263" lon="6.47778">
        <ele>1081.1</ele>
        <time>2013-08-28T12:54:33Z</time>
      </trkpt>
      <trkpt lat="45.42185" lon="6.47874">
        <ele>1080.7</ele>
        <time>2013-08-28T12:54:35Z</time>
      </trkpt>
      <trkpt lat="45.42193" lon="6.47869">
        <ele>1079.7</ele>
        <time>2013-08-28T12:54:36Z</time>
      </trkpt>
      <trkpt lat="45.42203" lon="6.47866">
        <ele>1080.2</ele>
        <time>2013-08-28T12:54:37Z</time>
      </trkpt>
      <trkpt lat="45.42214" lon="6.47864">
        <ele>1080.7</ele>
        <time>2013-08-28T12:54:38Z</time>
      </trkpt>
      <trkpt lat="45.42209" lon="6.47885">
        <ele>1079.2</ele>
        <time>2013-08-28T12:54:39Z</time>
      </trkpt>
      <trkpt lat="45.42211" lon="6.47896">
        <ele>1079.2</ele>
        <time>2013-08-28T12:54:40Z</time>
      </trkpt>
      <trkpt lat="45.42245" lon="6.47936">
        <ele>1077.8</ele>
        <time>2013-08-28T12:54:45Z</time>
      </trkpt>
      <trkpt lat="45.42252" lon="6.47945">
        <ele>1078.3</ele>
        <time>2013-08-28T12:54:46Z</time>
      </trkpt>
      <trkpt lat="45.42248" lon="6.47954">
        <ele>1078.7</ele>
        <time>2013-08-28T12:54:47Z</time>
      </trkpt>
      <trkpt lat="45.42269" lon="6.48036">
        <ele>1075.9</ele>
        <time>2013-08-28T12:54:56Z</time>
      </trkpt>
      <trkpt lat="45.4227" lon="6.48046">
        <ele>1076.8</ele>
        <time>2013-08-28T12:54:57Z</time>
      </trkpt>
      <trkpt lat="45.42271" lon="6.48066">
        <ele>1074.9</ele>
        <time>2013-08-28T12:54:59Z</time>
      </trkpt>
      <trkpt lat="45.4227" lon="6.48076">
        <ele>1075.9</ele>
        <time>2013-08-28T12:55:00Z</time>
      </trkpt>
      <trkpt lat="45.42269" lon="6.48086">
        <ele>1074.9</ele>
        <time>2013-08-28T12:55:01Z</time>
      </trkpt>
      <trkpt lat="45.42267" lon="6.48096">
        <ele>1074.9</ele>
        <time>2013-08-28T12:55:02Z</time>
      </trkpt>
      <trkpt lat="45.42242" lon="6.48197">
        <ele>1071.5</ele>
        <time>2013-08-28T12:55:12Z</time>
      </trkpt>
      <trkpt lat="45.42232" lon="6.48247">
        <ele>1071.1</ele>
        <time>2013-08-28T12:55:17Z</time>
      </trkpt>
      <trkpt lat="45.42231" lon="6.48258">
        <ele>1070.1</ele>
        <time>2013-08-28T12:55:18Z</time>
      </trkpt>
      <trkpt lat="45.42231" lon="6.48268">
        <ele>1070.1</ele>
        <time>2013-08-28T12:55:19Z</time>
      </trkpt>
      <trkpt lat="45.42231" lon="6.48309">
        <ele>1067.7</ele>
        <time>2013-08-28T12:55:23Z</time>
      </trkpt>
      <trkpt lat="45.42233" lon="6.4833">
        <ele>1067.7</ele>
        <time>2013-08-28T12:55:25Z</time>
      </trkpt>
      <trkpt lat="45.42237" lon="6.48362">
        <ele>1068.2</ele>
        <time>2013-08-28T12:55:28Z</time>
      </trkpt>
      <trkpt lat="45.42236" lon="6.48373">
        <ele>1066.7</ele>
        <time>2013-08-28T12:55:29Z</time>
      </trkpt>
      <trkpt lat="45.42236" lon="6.48384">
        <ele>1067.7</ele>
        <time>2013-08-28T12:55:30Z</time>
      </trkpt>
      <trkpt lat="45.42234" lon="6.48395">
        <ele>1066.2</ele>
        <time>2013-08-28T12:55:31Z</time>
      </trkpt>
      <trkpt lat="45.42232" lon="6.48405">
        <ele>1067.2</ele>
        <time>2013-08-28T12:55:32Z</time>
      </trkpt>
      <trkpt lat="45.42223" lon="6.48443">
        <ele>1066.2</ele>
        <time>2013-08-28T12:55:36Z</time>
      </trkpt>
      <trkpt lat="45.42204" lon="6.48502">
        <ele>1063.8</ele>
        <time>2013-08-28T12:55:45Z</time>
      </trkpt>
      <trkpt lat="45.42203" lon="6.48506">
        <ele>1064.8</ele>
        <time>2013-08-28T12:55:57Z</time>
      </trkpt>
      <trkpt lat="45.42206" lon="6.48508">
        <ele>1064.8</ele>
        <time>2013-08-28T12:56:26Z</time>
      </trkpt>
      <trkpt lat="45.42206" lon="6.4851">
        <ele>1064.3</ele>
        <time>2013-08-28T12:56:27Z</time>
      </trkpt>
      <trkpt lat="45.42206" lon="6.48513">
        <ele>1064.8</ele>
        <time>2013-08-28T12:56:28Z</time>
      </trkpt>
      <trkpt lat="45.42206" lon="6.48516">
        <ele>1064.3</ele>
        <time>2013-08-28T12:56:29Z</time>
      </trkpt>
      <trkpt lat="45.42205" lon="6.4852">
        <ele>1063.8</ele>
        <time>2013-08-28T12:56:30Z</time>
      </trkpt>
      <trkpt lat="45.42204" lon="6.48525">
        <ele>1063.8</ele>
        <time>2013-08-28T12:56:31Z</time>
      </trkpt>
      <trkpt lat="45.42202" lon="6.4853">
        <ele>1063.8</ele>
        <time>2013-08-28T12:56:32Z</time>
      </trkpt>
      <trkpt lat="45.42168" lon="6.48596">
        <ele>1062.9</ele>
        <time>2013-08-28T12:56:43Z</time>
      </trkpt>
      <trkpt lat="45.42163" lon="6.48602">
        <ele>1062.4</ele>
        <time>2013-08-28T12:56:44Z</time>
      </trkpt>
      <trkpt lat="45.42158" lon="6.48607">
        <ele>1061.9</ele>
        <time>2013-08-28T12:56:45Z</time>
      </trkpt>
      <trkpt lat="45.42152" lon="6.48611">
        <ele>1061.9</ele>
        <time>2013-08-28T12:56:46Z</time>
      </trkpt>
      <trkpt lat="45.42146" lon="6.48614">
        <ele>1061.9</ele>
        <time>2013-08-28T12:56:47Z</time>
      </trkpt>
      <trkpt lat="45.4214" lon="6.48615">
        <ele>1062.9</ele>
        <time>2013-08-28T12:56:48Z</time>
      </trkpt>
      <trkpt lat="45.42133" lon="6.48616">
        <ele>1061.4</ele>
        <time>2013-08-28T12:56:49Z</time>
      </trkpt>
      <trkpt lat="45.42127" lon="6.48616">
        <ele>1061.9</ele>
        <time>2013-08-28T12:56:50Z</time>
      </trkpt>
      <trkpt lat="45.42121" lon="6.48616">
        <ele>1061.9</ele>
        <time>2013-08-28T12:56:51Z</time>
      </trkpt>
      <trkpt lat="45.42043" lon="6.48599">
        <ele>1060.5</ele>
        <time>2013-08-28T12:57:02Z</time>
      </trkpt>
      <trkpt lat="45.42036" lon="6.48596">
        <ele>1060.5</ele>
        <time>2013-08-28T12:57:03Z</time>
      </trkpt>
      <trkpt lat="45.42029" lon="6.48592">
        <ele>1060</ele>
        <time>2013-08-28T12:57:04Z</time>
      </trkpt>
      <trkpt lat="45.42022" lon="6.48589">
        <ele>1060</ele>
        <time>2013-08-28T12:57:05Z</time>
      </trkpt>
      <trkpt lat="45.42017" lon="6.48584">
        <ele>1060.5</ele>
        <time>2013-08-28T12:57:06Z</time>
      </trkpt>
      <trkpt lat="45.42" lon="6.48573">
        <ele>1059.5</ele>
        <time>2013-08-28T12:57:09Z</time>
      </trkpt>
      <trkpt lat="45.41994" lon="6.48571">
        <ele>1059.5</ele>
        <time>2013-08-28T12:57:10Z</time>
      </trkpt>
      <trkpt lat="45.41989" lon="6.4857">
        <ele>1059.5</ele>
        <time>2013-08-28T12:57:11Z</time>
      </trkpt>
      <trkpt lat="45.41984" lon="6.4857">
        <ele>1059</ele>
        <time>2013-08-28T12:57:12Z</time>
      </trkpt>
      <trkpt lat="45.41979" lon="6.48573">
        <ele>1059</ele>
        <time>2013-08-28T12:57:13Z</time>
      </trkpt>
      <trkpt lat="45.41974" lon="6.48577">
        <ele>1059</ele>
        <time>2013-08-28T12:57:14Z</time>
      </trkpt>
      <trkpt lat="45.4197" lon="6.48583">
        <ele>1058.6</ele>
        <time>2013-08-28T12:57:15Z</time>
      </trkpt>
      <trkpt lat="45.41966" lon="6.48591">
        <ele>1059</ele>
        <time>2013-08-28T12:57:16Z</time>
      </trkpt>
      <trkpt lat="45.41963" lon="6.48599">
        <ele>1058.6</ele>
        <time>2013-08-28T12:57:17Z</time>
      </trkpt>
      <trkpt lat="45.4196" lon="6.48608">
        <ele>1058.1</ele>
        <time>2013-08-28T12:57:18Z</time>
      </trkpt>
      <trkpt lat="45.4194" lon="6.48664">
        <ele>1057.6</ele>
        <time>2013-08-28T12:57:24Z</time>
      </trkpt>
      <trkpt lat="45.41934" lon="6.48672">
        <ele>1057.6</ele>
        <time>2013-08-28T12:57:25Z</time>
      </trkpt>
      <trkpt lat="45.41929" lon="6.48679">
        <ele>1057.6</ele>
        <time>2013-08-28T12:57:26Z</time>
      </trkpt>
      <trkpt lat="45.41923" lon="6.48685">
        <ele>1057.1</ele>
        <time>2013-08-28T12:57:27Z</time>
      </trkpt>
      <trkpt lat="45.41917" lon="6.48691">
        <ele>1057.1</ele>
        <time>2013-08-28T12:57:28Z</time>
      </trkpt>
      <trkpt lat="45.41813" lon="6.48747">
        <ele>1054.7</ele>
        <time>2013-08-28T12:57:43Z</time>
      </trkpt>
      <trkpt lat="45.41724" lon="6.48746">
        <ele>1053.3</ele>
        <time>2013-08-28T12:57:55Z</time>
      </trkpt>
      <trkpt lat="45.4162" lon="6.48759">
        <ele>1050.9</ele>
        <time>2013-08-28T12:58:08Z</time>
      </trkpt>
      <trkpt lat="45.41566" lon="6.48765">
        <ele>1049.4</ele>
        <time>2013-08-28T12:58:15Z</time>
      </trkpt>
      <trkpt lat="45.41558" lon="6.48763">
        <ele>1048.9</ele>
        <time>2013-08-28T12:58:16Z</time>
      </trkpt>
      <trkpt lat="45.4155" lon="6.48761">
        <ele>1048.9</ele>
        <time>2013-08-28T12:58:17Z</time>
      </trkpt>
      <trkpt lat="45.41542" lon="6.48757">
        <ele>1048.9</ele>
        <time>2013-08-28T12:58:18Z</time>
      </trkpt>
      <trkpt lat="45.41534" lon="6.48753">
        <ele>1048.9</ele>
        <time>2013-08-28T12:58:19Z</time>
      </trkpt>
      <trkpt lat="45.41447" lon="6.48708">
        <ele>1047.5</ele>
        <time>2013-08-28T12:58:31Z</time>
      </trkpt>
      <trkpt lat="45.4144" lon="6.48706">
        <ele>1047</ele>
        <time>2013-08-28T12:58:32Z</time>
      </trkpt>
      <trkpt lat="45.41433" lon="6.48705">
        <ele>1047</ele>
        <time>2013-08-28T12:58:33Z</time>
      </trkpt>
      <trkpt lat="45.41391" lon="6.48706">
        <ele>1046.5</ele>
        <time>2013-08-28T12:58:39Z</time>
      </trkpt>
      <trkpt lat="45.41385" lon="6.48708">
        <ele>1046.1</ele>
        <time>2013-08-28T12:58:40Z</time>
      </trkpt>
      <trkpt lat="45.41378" lon="6.48713">
        <ele>1046.1</ele>
        <time>2013-08-28T12:58:41Z</time>
      </trkpt>
      <trkpt lat="45.41305" lon="6.48746">
        <ele>1043.2</ele>
        <time>2013-08-28T12:58:51Z</time>
      </trkpt>
      <trkpt lat="45.41237" lon="6.48761">
        <ele>1040.8</ele>
        <time>2013-08-28T12:58:59Z</time>
      </trkpt>
      <trkpt lat="45.41204" lon="6.48781">
        <ele>1039.8</ele>
        <time>2013-08-28T12:59:03Z</time>
      </trkpt>
      <trkpt lat="45.41196" lon="6.48787">
        <ele>1040.3</ele>
        <time>2013-08-28T12:59:04Z</time>
      </trkpt>
      <trkpt lat="45.41159" lon="6.48833">
        <ele>1038.4</ele>
        <time>2013-08-28T12:59:10Z</time>
      </trkpt>
      <trkpt lat="45.41113" lon="6.48907">
        <ele>1036</ele>
        <time>2013-08-28T12:59:18Z</time>
      </trkpt>
      <trkpt lat="45.411" lon="6.48923">
        <ele>1035.5</ele>
        <time>2013-08-28T12:59:20Z</time>
      </trkpt>
      <trkpt lat="45.41042" lon="6.48961">
        <ele>1032.1</ele>
        <time>2013-08-28T12:59:26Z</time>
      </trkpt>
      <trkpt lat="45.41033" lon="6.48968">
        <ele>1032.1</ele>
        <time>2013-08-28T12:59:27Z</time>
      </trkpt>
      <trkpt lat="45.41015" lon="6.48979">
        <ele>1032.6</ele>
        <time>2013-08-28T12:59:29Z</time>
      </trkpt>
      <trkpt lat="45.41004" lon="6.48983">
        <ele>1032.1</ele>
        <time>2013-08-28T12:59:30Z</time>
      </trkpt>
      <trkpt lat="45.40963" lon="6.48988">
        <ele>1033.6</ele>
        <time>2013-08-28T12:59:34Z</time>
      </trkpt>
      <trkpt lat="45.40938" lon="6.48974">
        <ele>1035.5</ele>
        <time>2013-08-28T12:59:39Z</time>
      </trkpt>
      <trkpt lat="45.40915" lon="6.48943">
        <ele>1038.8</ele>
        <time>2013-08-28T12:59:51Z</time>
      </trkpt>
      <trkpt lat="45.40885" lon="6.48931">
        <ele>1040.8</ele>
        <time>2013-08-28T13:00:07Z</time>
      </trkpt>
      <trkpt lat="45.40858" lon="6.48929">
        <ele>1042.2</ele>
        <time>2013-08-28T13:00:20Z</time>
      </trkpt>
      <trkpt lat="45.40824" lon="6.48962">
        <ele>1044.6</ele>
        <time>2013-08-28T13:00:36Z</time>
      </trkpt>
      <trkpt lat="45.40797" lon="6.49003">
        <ele>1046.1</ele>
        <time>2013-08-28T13:00:52Z</time>
      </trkpt>
      <trkpt lat="45.40805" lon="6.49039">
        <ele>1048</ele>
        <time>2013-08-28T13:01:09Z</time>
      </trkpt>
      <trkpt lat="45.40833" lon="6.49073">
        <ele>1051.3</ele>
        <time>2013-08-28T13:01:29Z</time>
      </trkpt>
      <trkpt lat="45.40853" lon="6.491">
        <ele>1054.7</ele>
        <time>2013-08-28T13:01:44Z</time>
      </trkpt>
      <trkpt lat="45.40876" lon="6.4913">
        <ele>1056.6</ele>
        <time>2013-08-28T13:02:00Z</time>
      </trkpt>
      <trkpt lat="45.40898" lon="6.49151">
        <ele>1059</ele>
        <time>2013-08-28T13:02:14Z</time>
      </trkpt>
      <trkpt lat="45.409" lon="6.49159">
        <ele>1059</ele>
        <time>2013-08-28T13:02:17Z</time>
      </trkpt>
      <trkpt lat="45.40892" lon="6.49172">
        <ele>1061</ele>
        <time>2013-08-28T13:02:24Z</time>
      </trkpt>
      <trkpt lat="45.40863" lon="6.49148">
        <ele>1062.9</ele>
        <time>2013-08-28T13:02:42Z</time>
      </trkpt>
      <trkpt lat="45.40842" lon="6.49124">
        <ele>1065.8</ele>
        <time>2013-08-28T13:02:57Z</time>
      </trkpt>
      <trkpt lat="45.40811" lon="6.49098">
        <ele>1069.1</ele>
        <time>2013-08-28T13:03:19Z</time>
      </trkpt>
      <trkpt lat="45.40784" lon="6.49088">
        <ele>1072</ele>
        <time>2013-08-28T13:03:33Z</time>
      </trkpt>
      <trkpt lat="45.40747" lon="6.49101">
        <ele>1073.9</ele>
        <time>2013-08-28T13:03:55Z</time>
      </trkpt>
      <trkpt lat="45.40711" lon="6.49113">
        <ele>1077.3</ele>
        <time>2013-08-28T13:04:14Z</time>
      </trkpt>
      <trkpt lat="45.40677" lon="6.49106">
        <ele>1080.2</ele>
        <time>2013-08-28T13:04:33Z</time>
      </trkpt>
      <trkpt lat="45.40637" lon="6.49108">
        <ele>1082.6</ele>
        <time>2013-08-28T13:04:53Z</time>
      </trkpt>
      <trkpt lat="45.40609" lon="6.49113">
        <ele>1086</ele>
        <time>2013-08-28T13:05:07Z</time>
      </trkpt>
      <trkpt lat="45.4059" lon="6.49118">
        <ele>1086.9</ele>
        <time>2013-08-28T13:05:20Z</time>
      </trkpt>
      <trkpt lat="45.40588" lon="6.49119">
        <ele>1086.9</ele>
        <time>2013-08-28T13:05:21Z</time>
      </trkpt>
      <trkpt lat="45.40566" lon="6.49119">
        <ele>1089.3</ele>
        <time>2013-08-28T13:05:35Z</time>
      </trkpt>
      <trkpt lat="45.40543" lon="6.49125">
        <ele>1091.7</ele>
        <time>2013-08-28T13:05:49Z</time>
      </trkpt>
      <trkpt lat="45.40517" lon="6.4913">
        <ele>1094.6</ele>
        <time>2013-08-28T13:06:05Z</time>
      </trkpt>
      <trkpt lat="45.40488" lon="6.49159">
        <ele>1097</ele>
        <time>2013-08-28T13:06:24Z</time>
      </trkpt>
      <trkpt lat="45.4046" lon="6.49193">
        <ele>1099.4</ele>
        <time>2013-08-28T13:06:43Z</time>
      </trkpt>
      <trkpt lat="45.40443" lon="6.49217">
        <ele>1101.8</ele>
        <time>2013-08-28T13:06:58Z</time>
      </trkpt>
      <trkpt lat="45.40417" lon="6.49227">
        <ele>1104.2</ele>
        <time>2013-08-28T13:07:12Z</time>
      </trkpt>
      <trkpt lat="45.40392" lon="6.49231">
        <ele>1107.1</ele>
        <time>2013-08-28T13:07:27Z</time>
      </trkpt>
      <trkpt lat="45.40365" lon="6.49245">
        <ele>1109</ele>
        <time>2013-08-28T13:07:44Z</time>
      </trkpt>
      <trkpt lat="45.40345" lon="6.49267">
        <ele>1111.9</ele>
        <time>2013-08-28T13:07:59Z</time>
      </trkpt>
      <trkpt lat="45.40331" lon="6.49286">
        <ele>1113.8</ele>
        <time>2013-08-28T13:08:10Z</time>
      </trkpt>
      <trkpt lat="45.40311" lon="6.49314">
        <ele>1116.2</ele>
        <time>2013-08-28T13:08:25Z</time>
      </trkpt>
      <trkpt lat="45.40288" lon="6.49338">
        <ele>1118.6</ele>
        <time>2013-08-28T13:08:39Z</time>
      </trkpt>
      <trkpt lat="45.40251" lon="6.49353">
        <ele>1121</ele>
        <time>2013-08-28T13:08:58Z</time>
      </trkpt>
      <trkpt lat="45.40222" lon="6.49363">
        <ele>1123.9</ele>
        <time>2013-08-28T13:09:15Z</time>
      </trkpt>
      <trkpt lat="45.40204" lon="6.49374">
        <ele>1126.3</ele>
        <time>2013-08-28T13:09:29Z</time>
      </trkpt>
      <trkpt lat="45.40198" lon="6.49375">
        <ele>1126.8</ele>
        <time>2013-08-28T13:09:32Z</time>
      </trkpt>
      <trkpt lat="45.40172" lon="6.49382">
        <ele>1129.2</ele>
        <time>2013-08-28T13:09:47Z</time>
      </trkpt>
      <trkpt lat="45.40147" lon="6.49387">
        <ele>1132.1</ele>
        <time>2013-08-28T13:10:02Z</time>
      </trkpt>
      <trkpt lat="45.40127" lon="6.49387">
        <ele>1133.5</ele>
        <time>2013-08-28T13:10:15Z</time>
      </trkpt>
      <trkpt lat="45.40092" lon="6.49393">
        <ele>1135.9</ele>
        <time>2013-08-28T13:10:28Z</time>
      </trkpt>
      <trkpt lat="45.40067" lon="6.49392">
        <ele>1137.4</ele>
        <time>2013-08-28T13:10:41Z</time>
      </trkpt>
      <trkpt lat="45.40064" lon="6.49392">
        <ele>1135.9</ele>
        <time>2013-08-28T13:10:42Z</time>
      </trkpt>
      <trkpt lat="45.40063" lon="6.49392">
        <ele>1139.8</ele>
        <time>2013-08-28T13:10:43Z</time>
      </trkpt>
      <trkpt lat="45.4006" lon="6.4939">
        <ele>1137.9</ele>
        <time>2013-08-28T13:10:44Z</time>
      </trkpt>
      <trkpt lat="45.4003" lon="6.49362">
        <ele>1140.3</ele>
        <time>2013-08-28T13:11:00Z</time>
      </trkpt>
      <trkpt lat="45.40005" lon="6.49338">
        <ele>1143.6</ele>
        <time>2013-08-28T13:11:15Z</time>
      </trkpt>
      <trkpt lat="45.39977" lon="6.49342">
        <ele>1145.1</ele>
        <time>2013-08-28T13:11:30Z</time>
      </trkpt>
      <trkpt lat="45.39943" lon="6.49356">
        <ele>1148</ele>
        <time>2013-08-28T13:11:47Z</time>
      </trkpt>
      <trkpt lat="45.39915" lon="6.4937">
        <ele>1150.8</ele>
        <time>2013-08-28T13:12:02Z</time>
      </trkpt>
      <trkpt lat="45.39913" lon="6.49371">
        <ele>1151.3</ele>
        <time>2013-08-28T13:12:03Z</time>
      </trkpt>
      <trkpt lat="45.39883" lon="6.49376">
        <ele>1152.8</ele>
        <time>2013-08-28T13:12:18Z</time>
      </trkpt>
      <trkpt lat="45.39863" lon="6.49387">
        <ele>1152.8</ele>
        <time>2013-08-28T13:12:31Z</time>
      </trkpt>
      <trkpt lat="45.3984" lon="6.49385">
        <ele>1152.3</ele>
        <time>2013-08-28T13:12:42Z</time>
      </trkpt>
      <trkpt lat="45.3984" lon="6.49387">
        <ele>1153.2</ele>
        <time>2013-08-28T13:12:51Z</time>
      </trkpt>
      <trkpt lat="45.39841" lon="6.49385">
        <ele>1153.7</ele>
        <time>2013-08-28T13:13:10Z</time>
      </trkpt>
      <trkpt lat="45.3984" lon="6.49383">
        <ele>1152.8</ele>
        <time>2013-08-28T13:13:42Z</time>
      </trkpt>
      <trkpt lat="45.39842" lon="6.49385">
        <ele>1153.2</ele>
        <time>2013-08-28T13:14:12Z</time>
      </trkpt>
      <trkpt lat="45.39842" lon="6.49387">
        <ele>1153.7</ele>
        <time>2013-08-28T13:14:33Z</time>
      </trkpt>
      <trkpt lat="45.39838" lon="6.49385">
        <ele>1154.2</ele>
        <time>2013-08-28T13:14:47Z</time>
      </trkpt>
      <trkpt lat="45.39836" lon="6.49384">
        <ele>1153.2</ele>
        <time>2013-08-28T13:14:48Z</time>
      </trkpt>
      <trkpt lat="45.39835" lon="6.49384">
        <ele>1153.7</ele>
        <time>2013-08-28T13:14:49Z</time>
      </trkpt>
      <trkpt lat="45.39802" lon="6.49382">
        <ele>1154.7</ele>
        <time>2013-08-28T13:15:05Z</time>
      </trkpt>
      <trkpt lat="45.39761" lon="6.49378">
        <ele>1157.1</ele>
        <time>2013-08-28T13:15:23Z</time>
      </trkpt>
      <trkpt lat="45.3973" lon="6.49377">
        <ele>1160.5</ele>
        <time>2013-08-28T13:15:33Z</time>
      </trkpt>
      <trkpt lat="45.39724" lon="6.49379">
        <ele>1157.6</ele>
        <time>2013-08-28T13:15:35Z</time>
      </trkpt>
      <trkpt lat="45.39695" lon="6.49388">
        <ele>1156.6</ele>
        <time>2013-08-28T13:15:42Z</time>
      </trkpt>
      <trkpt lat="45.3969" lon="6.4939">
        <ele>1156.6</ele>
        <time>2013-08-28T13:15:43Z</time>
      </trkpt>
      <trkpt lat="45.39627" lon="6.494">
        <ele>1157.1</ele>
        <time>2013-08-28T13:15:55Z</time>
      </trkpt>
      <trkpt lat="45.39579" lon="6.49392">
        <ele>1158.5</ele>
        <time>2013-08-28T13:16:09Z</time>
      </trkpt>
      <trkpt lat="45.39534" lon="6.49393">
        <ele>1159</ele>
        <time>2013-08-28T13:16:21Z</time>
      </trkpt>
      <trkpt lat="45.39507" lon="6.49407">
        <ele>1158.5</ele>
        <time>2013-08-28T13:16:27Z</time>
      </trkpt>
      <trkpt lat="45.395" lon="6.49408">
        <ele>1158.5</ele>
        <time>2013-08-28T13:16:28Z</time>
      </trkpt>
      <trkpt lat="45.39494" lon="6.49409">
        <ele>1159</ele>
        <time>2013-08-28T13:16:29Z</time>
      </trkpt>
      <trkpt lat="45.39482" lon="6.49408">
        <ele>1159</ele>
        <time>2013-08-28T13:16:31Z</time>
      </trkpt>
      <trkpt lat="45.39478" lon="6.49405">
        <ele>1158.5</ele>
        <time>2013-08-28T13:16:32Z</time>
      </trkpt>
      <trkpt lat="45.39452" lon="6.49383">
        <ele>1158.5</ele>
        <time>2013-08-28T13:16:38Z</time>
      </trkpt>
      <trkpt lat="45.39447" lon="6.4938">
        <ele>1158.1</ele>
        <time>2013-08-28T13:16:39Z</time>
      </trkpt>
      <trkpt lat="45.39441" lon="6.49378">
        <ele>1158.1</ele>
        <time>2013-08-28T13:16:40Z</time>
      </trkpt>
      <trkpt lat="45.39435" lon="6.49378">
        <ele>1157.6</ele>
        <time>2013-08-28T13:16:41Z</time>
      </trkpt>
      <trkpt lat="45.3943" lon="6.4938">
        <ele>1158.1</ele>
        <time>2013-08-28T13:16:42Z</time>
      </trkpt>
      <trkpt lat="45.39424" lon="6.49384">
        <ele>1157.6</ele>
        <time>2013-08-28T13:16:43Z</time>
      </trkpt>
      <trkpt lat="45.39419" lon="6.49388">
        <ele>1157.6</ele>
        <time>2013-08-28T13:16:44Z</time>
      </trkpt>
      <trkpt lat="45.39383" lon="6.49415">
        <ele>1157.1</ele>
        <time>2013-08-28T13:16:51Z</time>
      </trkpt>
      <trkpt lat="45.39376" lon="6.49416">
        <ele>1156.6</ele>
        <time>2013-08-28T13:16:52Z</time>
      </trkpt>
      <trkpt lat="45.3937" lon="6.49415">
        <ele>1157.1</ele>
        <time>2013-08-28T13:16:53Z</time>
      </trkpt>
      <trkpt lat="45.39364" lon="6.49411">
        <ele>1157.1</ele>
        <time>2013-08-28T13:16:54Z</time>
      </trkpt>
      <trkpt lat="45.39325" lon="6.4939">
        <ele>1157.1</ele>
        <time>2013-08-28T13:17:01Z</time>
      </trkpt>
      <trkpt lat="45.39319" lon="6.49391">
        <ele>1157.1</ele>
        <time>2013-08-28T13:17:02Z</time>
      </trkpt>
      <trkpt lat="45.39313" lon="6.49393">
        <ele>1157.1</ele>
        <time>2013-08-28T13:17:03Z</time>
      </trkpt>
      <trkpt lat="45.39308" lon="6.49399">
        <ele>1157.1</ele>
        <time>2013-08-28T13:17:04Z</time>
      </trkpt>
      <trkpt lat="45.39304" lon="6.49405">
        <ele>1156.6</ele>
        <time>2013-08-28T13:17:05Z</time>
      </trkpt>
      <trkpt lat="45.393" lon="6.49413">
        <ele>1156.6</ele>
        <time>2013-08-28T13:17:06Z</time>
      </trkpt>
      <trkpt lat="45.39286" lon="6.49442">
        <ele>1156.1</ele>
        <time>2013-08-28T13:17:10Z</time>
      </trkpt>
      <trkpt lat="45.39276" lon="6.49452">
        <ele>1156.1</ele>
        <time>2013-08-28T13:17:12Z</time>
      </trkpt>
      <trkpt lat="45.39269" lon="6.49454">
        <ele>1155.6</ele>
        <time>2013-08-28T13:17:13Z</time>
      </trkpt>
      <trkpt lat="45.39263" lon="6.49453">
        <ele>1156.1</ele>
        <time>2013-08-28T13:17:14Z</time>
      </trkpt>
      <trkpt lat="45.39257" lon="6.49452">
        <ele>1156.6</ele>
        <time>2013-08-28T13:17:15Z</time>
      </trkpt>
      <trkpt lat="45.39252" lon="6.49449">
        <ele>1156.6</ele>
        <time>2013-08-28T13:17:16Z</time>
      </trkpt>
      <trkpt lat="45.39234" lon="6.49436">
        <ele>1157.1</ele>
        <time>2013-08-28T13:17:20Z</time>
      </trkpt>
      <trkpt lat="45.39231" lon="6.49432">
        <ele>1156.6</ele>
        <time>2013-08-28T13:17:21Z</time>
      </trkpt>
      <trkpt lat="45.39223" lon="6.49424">
        <ele>1157.6</ele>
        <time>2013-08-28T13:17:23Z</time>
      </trkpt>
      <trkpt lat="45.39219" lon="6.4942">
        <ele>1157.1</ele>
        <time>2013-08-28T13:17:24Z</time>
      </trkpt>
      <trkpt lat="45.39214" lon="6.49418">
        <ele>1157.1</ele>
        <time>2013-08-28T13:17:25Z</time>
      </trkpt>
      <trkpt lat="45.39184" lon="6.4941">
        <ele>1156.6</ele>
        <time>2013-08-28T13:17:31Z</time>
      </trkpt>
      <trkpt lat="45.39178" lon="6.49406">
        <ele>1155.6</ele>
        <time>2013-08-28T13:17:32Z</time>
      </trkpt>
      <trkpt lat="45.39167" lon="6.49398">
        <ele>1155.2</ele>
        <time>2013-08-28T13:17:34Z</time>
      </trkpt>
      <trkpt lat="45.39162" lon="6.49395">
        <ele>1155.2</ele>
        <time>2013-08-28T13:17:35Z</time>
      </trkpt>
      <trkpt lat="45.39151" lon="6.49391">
        <ele>1155.2</ele>
        <time>2013-08-28T13:17:37Z</time>
      </trkpt>
      <trkpt lat="45.39087" lon="6.49379">
        <ele>1155.2</ele>
        <time>2013-08-28T13:17:47Z</time>
      </trkpt>
      <trkpt lat="45.39067" lon="6.49365">
        <ele>1154.7</ele>
        <time>2013-08-28T13:17:51Z</time>
      </trkpt>
      <trkpt lat="45.39048" lon="6.49358">
        <ele>1153.7</ele>
        <time>2013-08-28T13:17:55Z</time>
      </trkpt>
      <trkpt lat="45.39042" lon="6.49358">
        <ele>1154.7</ele>
        <time>2013-08-28T13:17:56Z</time>
      </trkpt>
      <trkpt lat="45.38971" lon="6.49358">
        <ele>1152.3</ele>
        <time>2013-08-28T13:18:07Z</time>
      </trkpt>
      <trkpt lat="45.38942" lon="6.49356">
        <ele>1151.3</ele>
        <time>2013-08-28T13:18:11Z</time>
      </trkpt>
      <trkpt lat="45.38887" lon="6.49368">
        <ele>1148.9</ele>
        <time>2013-08-28T13:18:18Z</time>
      </trkpt>
      <trkpt lat="45.38873" lon="6.49374">
        <ele>1148.4</ele>
        <time>2013-08-28T13:18:20Z</time>
      </trkpt>
      <trkpt lat="45.38858" lon="6.49385">
        <ele>1148.9</ele>
        <time>2013-08-28T13:18:23Z</time>
      </trkpt>
      <trkpt lat="45.38845" lon="6.49398">
        <ele>1147.5</ele>
        <time>2013-08-28T13:18:26Z</time>
      </trkpt>
      <trkpt lat="45.38835" lon="6.49404">
        <ele>1147</ele>
        <time>2013-08-28T13:18:28Z</time>
      </trkpt>
      <trkpt lat="45.3883" lon="6.49408">
        <ele>1147</ele>
        <time>2013-08-28T13:18:29Z</time>
      </trkpt>
      <trkpt lat="45.38827" lon="6.49413">
        <ele>1147.5</ele>
        <time>2013-08-28T13:18:30Z</time>
      </trkpt>
      <trkpt lat="45.38822" lon="6.49425">
        <ele>1147</ele>
        <time>2013-08-28T13:18:32Z</time>
      </trkpt>
      <trkpt lat="45.38819" lon="6.49429">
        <ele>1148</ele>
        <time>2013-08-28T13:18:33Z</time>
      </trkpt>
      <trkpt lat="45.38815" lon="6.49431">
        <ele>1147.5</ele>
        <time>2013-08-28T13:18:34Z</time>
      </trkpt>
      <trkpt lat="45.38811" lon="6.49433">
        <ele>1147.5</ele>
        <time>2013-08-28T13:18:35Z</time>
      </trkpt>
      <trkpt lat="45.38807" lon="6.49435">
        <ele>1147.5</ele>
        <time>2013-08-28T13:18:36Z</time>
      </trkpt>
      <trkpt lat="45.38779" lon="6.49431">
        <ele>1147</ele>
        <time>2013-08-28T13:18:44Z</time>
      </trkpt>
      <trkpt lat="45.38776" lon="6.49433">
        <ele>1147</ele>
        <time>2013-08-28T13:18:45Z</time>
      </trkpt>
      <trkpt lat="45.38772" lon="6.49439">
        <ele>1147</ele>
        <time>2013-08-28T13:18:46Z</time>
      </trkpt>
      <trkpt lat="45.3877" lon="6.49445">
        <ele>1147</ele>
        <time>2013-08-28T13:18:47Z</time>
      </trkpt>
      <trkpt lat="45.38768" lon="6.49451">
        <ele>1147</ele>
        <time>2013-08-28T13:18:48Z</time>
      </trkpt>
      <trkpt lat="45.38765" lon="6.49456">
        <ele>1147.5</ele>
        <time>2013-08-28T13:18:49Z</time>
      </trkpt>
      <trkpt lat="45.38759" lon="6.49467">
        <ele>1148</ele>
        <time>2013-08-28T13:18:52Z</time>
      </trkpt>
      <trkpt lat="45.38727" lon="6.49461">
        <ele>1147</ele>
        <time>2013-08-28T13:19:01Z</time>
      </trkpt>
      <trkpt lat="45.38699" lon="6.4945">
        <ele>1148.4</ele>
        <time>2013-08-28T13:19:14Z</time>
      </trkpt>
      <trkpt lat="45.38696" lon="6.49448">
        <ele>1148</ele>
        <time>2013-08-28T13:19:40Z</time>
      </trkpt>
      <trkpt lat="45.38696" lon="6.49449">
        <ele>1147.5</ele>
        <time>2013-08-28T13:20:03Z</time>
      </trkpt>
      <trkpt lat="45.38695" lon="6.49449">
        <ele>1148.4</ele>
        <time>2013-08-28T13:20:38Z</time>
      </trkpt>
      <trkpt lat="45.38696" lon="6.49446">
        <ele>1148.4</ele>
        <time>2013-08-28T13:21:06Z</time>
      </trkpt>
      <trkpt lat="45.38697" lon="6.49445">
        <ele>1148.9</ele>
        <time>2013-08-28T13:21:37Z</time>
      </trkpt>
      <trkpt lat="45.38694" lon="6.49444">
        <ele>1148.9</ele>
        <time>2013-08-28T13:22:17Z</time>
      </trkpt>
      <trkpt lat="45.38688" lon="6.49442">
        <ele>1148.9</ele>
        <time>2013-08-28T13:22:59Z</time>
      </trkpt>
      <trkpt lat="45.3869" lon="6.49447">
        <ele>1149.4</ele>
        <time>2013-08-28T13:23:33Z</time>
      </trkpt>
      <trkpt lat="45.3869" lon="6.49448">
        <ele>1149.4</ele>
        <time>2013-08-28T13:24:14Z</time>
      </trkpt>
      <trkpt lat="45.38691" lon="6.49444">
        <ele>1150.4</ele>
        <time>2013-08-28T13:24:48Z</time>
      </trkpt>
      <trkpt lat="45.38689" lon="6.49444">
        <ele>1149.9</ele>
        <time>2013-08-28T13:25:17Z</time>
      </trkpt>
      <trkpt lat="45.38687" lon="6.49441">
        <ele>1150.4</ele>
        <time>2013-08-28T13:25:50Z</time>
      </trkpt>
      <trkpt lat="45.38685" lon="6.4944">
        <ele>1151.8</ele>
        <time>2013-08-28T13:26:20Z</time>
      </trkpt>
      <trkpt lat="45.38681" lon="6.49442">
        <ele>1151.3</ele>
        <time>2013-08-28T13:26:43Z</time>
      </trkpt>
      <trkpt lat="45.38663" lon="6.4943">
        <ele>1151.8</ele>
        <time>2013-08-28T13:26:59Z</time>
      </trkpt>
      <trkpt lat="45.38654" lon="6.49422">
        <ele>1154.2</ele>
        <time>2013-08-28T13:27:12Z</time>
      </trkpt>
      <trkpt lat="45.3865" lon="6.49412">
        <ele>1156.1</ele>
        <time>2013-08-28T13:27:27Z</time>
      </trkpt>
      <trkpt lat="45.38641" lon="6.49394">
        <ele>1158.1</ele>
        <time>2013-08-28T13:27:44Z</time>
      </trkpt>
      <trkpt lat="45.38624" lon="6.49377">
        <ele>1160.5</ele>
        <time>2013-08-28T13:28:01Z</time>
      </trkpt>
      <trkpt lat="45.38609" lon="6.49371">
        <ele>1163.3</ele>
        <time>2013-08-28T13:28:17Z</time>
      </trkpt>
      <trkpt lat="45.38592" lon="6.49369">
        <ele>1166.2</ele>
        <time>2013-08-28T13:28:32Z</time>
      </trkpt>
      <trkpt lat="45.38592" lon="6.49368">
        <ele>1164.8</ele>
        <time>2013-08-28T13:28:35Z</time>
      </trkpt>
      <trkpt lat="45.38594" lon="6.49369">
        <ele>1165.3</ele>
        <time>2013-08-28T13:28:54Z</time>
      </trkpt>
      <trkpt lat="45.38595" lon="6.49367">
        <ele>1164.8</ele>
        <time>2013-08-28T13:29:20Z</time>
      </trkpt>
      <trkpt lat="45.38594" lon="6.49367">
        <ele>1165.7</ele>
        <time>2013-08-28T13:29:43Z</time>
      </trkpt>
      <trkpt lat="45.3859" lon="6.49366">
        <ele>1166.2</ele>
        <time>2013-08-28T13:29:57Z</time>
      </trkpt>
      <trkpt lat="45.38585" lon="6.49364">
        <ele>1165.7</ele>
        <time>2013-08-28T13:30:12Z</time>
      </trkpt>
      <trkpt lat="45.38576" lon="6.49358">
        <ele>1168.1</ele>
        <time>2013-08-28T13:30:23Z</time>
      </trkpt>
      <trkpt lat="45.38558" lon="6.49348">
        <ele>1169.6</ele>
        <time>2013-08-28T13:30:40Z</time>
      </trkpt>
      <trkpt lat="45.38548" lon="6.49341">
        <ele>1171.5</ele>
        <time>2013-08-28T13:30:51Z</time>
      </trkpt>
      <trkpt lat="45.38546" lon="6.4934">
        <ele>1172</ele>
        <time>2013-08-28T13:30:54Z</time>
      </trkpt>
      <trkpt lat="45.38529" lon="6.4933">
        <ele>1173</ele>
        <time>2013-08-28T13:31:08Z</time>
      </trkpt>
      <trkpt lat="45.38511" lon="6.49319">
        <ele>1175.4</ele>
        <time>2013-08-28T13:31:24Z</time>
      </trkpt>
      <trkpt lat="45.38499" lon="6.49316">
        <ele>1177.8</ele>
        <time>2013-08-28T13:31:34Z</time>
      </trkpt>
      <trkpt lat="45.38489" lon="6.49312">
        <ele>1179.2</ele>
        <time>2013-08-28T13:31:48Z</time>
      </trkpt>
      <trkpt lat="45.38488" lon="6.49313">
        <ele>1179.7</ele>
        <time>2013-08-28T13:31:49Z</time>
      </trkpt>
      <trkpt lat="45.38483" lon="6.49319">
        <ele>1180.6</ele>
        <time>2013-08-28T13:31:54Z</time>
      </trkpt>
      <trkpt lat="45.38486" lon="6.49321">
        <ele>1182.1</ele>
        <time>2013-08-28T13:31:59Z</time>
      </trkpt>
      <trkpt lat="45.38507" lon="6.49339">
        <ele>1184</ele>
        <time>2013-08-28T13:32:16Z</time>
      </trkpt>
      <trkpt lat="45.38523" lon="6.49356">
        <ele>1186.4</ele>
        <time>2013-08-28T13:32:30Z</time>
      </trkpt>
      <trkpt lat="45.38534" lon="6.4937">
        <ele>1187.4</ele>
        <time>2013-08-28T13:32:41Z</time>
      </trkpt>
      <trkpt lat="45.38548" lon="6.49389">
        <ele>1189.3</ele>
        <time>2013-08-28T13:32:55Z</time>
      </trkpt>
      <trkpt lat="45.38557" lon="6.49402">
        <ele>1191.2</ele>
        <time>2013-08-28T13:33:05Z</time>
      </trkpt>
      <trkpt lat="45.38569" lon="6.49421">
        <ele>1193.1</ele>
        <time>2013-08-28T13:33:21Z</time>
      </trkpt>
      <trkpt lat="45.38578" lon="6.49435">
        <ele>1195.5</ele>
        <time>2013-08-28T13:33:37Z</time>
      </trkpt>
      <trkpt lat="45.38589" lon="6.49448">
        <ele>1196.5</ele>
        <time>2013-08-28T13:33:48Z</time>
      </trkpt>
      <trkpt lat="45.38596" lon="6.49454">
        <ele>1197.5</ele>
        <time>2013-08-28T13:34:03Z</time>
      </trkpt>
      <trkpt lat="45.38601" lon="6.49455">
        <ele>1197.5</ele>
        <time>2013-08-28T13:34:31Z</time>
      </trkpt>
      <trkpt lat="45.38597" lon="6.49458">
        <ele>1197</ele>
        <time>2013-08-28T13:35:01Z</time>
      </trkpt>
      <trkpt lat="45.38597" lon="6.49461">
        <ele>1197.5</ele>
        <time>2013-08-28T13:35:13Z</time>
      </trkpt>
      <trkpt lat="45.38597" lon="6.49463">
        <ele>1197.5</ele>
        <time>2013-08-28T13:35:14Z</time>
      </trkpt>
      <trkpt lat="45.38598" lon="6.49464">
        <ele>1197.5</ele>
        <time>2013-08-28T13:35:15Z</time>
      </trkpt>
      <trkpt lat="45.38598" lon="6.4947">
        <ele>1198.4</ele>
        <time>2013-08-28T13:35:18Z</time>
      </trkpt>
      <trkpt lat="45.38597" lon="6.49471">
        <ele>1198.9</ele>
        <time>2013-08-28T13:35:19Z</time>
      </trkpt>
      <trkpt lat="45.38591" lon="6.49484">
        <ele>1200.3</ele>
        <time>2013-08-28T13:35:29Z</time>
      </trkpt>
      <trkpt lat="45.38591" lon="6.49486">
        <ele>1200.8</ele>
        <time>2013-08-28T13:35:30Z</time>
      </trkpt>
      <trkpt lat="45.38586" lon="6.49495">
        <ele>1201.8</ele>
        <time>2013-08-28T13:35:37Z</time>
      </trkpt>
      <trkpt lat="45.38578" lon="6.49519">
        <ele>1204.2</ele>
        <time>2013-08-28T13:35:53Z</time>
      </trkpt>
      <trkpt lat="45.38576" lon="6.49521">
        <ele>1204.7</ele>
        <time>2013-08-28T13:35:55Z</time>
      </trkpt>
      <trkpt lat="45.38566" lon="6.49539">
        <ele>1206.1</ele>
        <time>2013-08-28T13:36:11Z</time>
      </trkpt>
      <trkpt lat="45.3855" lon="6.49563">
        <ele>1209.5</ele>
        <time>2013-08-28T13:36:29Z</time>
      </trkpt>
      <trkpt lat="45.38539" lon="6.49588">
        <ele>1212.8</ele>
        <time>2013-08-28T13:36:46Z</time>
      </trkpt>
      <trkpt lat="45.38532" lon="6.49597">
        <ele>1213.8</ele>
        <time>2013-08-28T13:36:53Z</time>
      </trkpt>
      <trkpt lat="45.38531" lon="6.49599">
        <ele>1213.8</ele>
        <time>2013-08-28T13:36:54Z</time>
      </trkpt>
      <trkpt lat="45.38531" lon="6.496">
        <ele>1213.8</ele>
        <time>2013-08-28T13:36:55Z</time>
      </trkpt>
      <trkpt lat="45.3853" lon="6.49601">
        <ele>1214.3</ele>
        <time>2013-08-28T13:36:56Z</time>
      </trkpt>
      <trkpt lat="45.38529" lon="6.49602">
        <ele>1214.8</ele>
        <time>2013-08-28T13:36:57Z</time>
      </trkpt>
      <trkpt lat="45.38529" lon="6.49604">
        <ele>1214.3</ele>
        <time>2013-08-28T13:36:58Z</time>
      </trkpt>
      <trkpt lat="45.38528" lon="6.49605">
        <ele>1214.3</ele>
        <time>2013-08-28T13:36:59Z</time>
      </trkpt>
      <trkpt lat="45.38527" lon="6.49607">
        <ele>1214.3</ele>
        <time>2013-08-28T13:37:00Z</time>
      </trkpt>
      <trkpt lat="45.38521" lon="6.49615">
        <ele>1216.2</ele>
        <time>2013-08-28T13:37:09Z</time>
      </trkpt>
      <trkpt lat="45.38499" lon="6.49621">
        <ele>1219.6</ele>
        <time>2013-08-28T13:37:26Z</time>
      </trkpt>
      <trkpt lat="45.38475" lon="6.49617">
        <ele>1222.9</ele>
        <time>2013-08-28T13:37:45Z</time>
      </trkpt>
      <trkpt lat="45.38458" lon="6.49609">
        <ele>1225.3</ele>
        <time>2013-08-28T13:38:01Z</time>
      </trkpt>
      <trkpt lat="45.3845" lon="6.496">
        <ele>1226.3</ele>
        <time>2013-08-28T13:38:10Z</time>
      </trkpt>
      <trkpt lat="45.3846" lon="6.49596">
        <ele>1228.7</ele>
        <time>2013-08-28T13:38:22Z</time>
      </trkpt>
      <trkpt lat="45.38474" lon="6.49591">
        <ele>1230.6</ele>
        <time>2013-08-28T13:38:35Z</time>
      </trkpt>
      <trkpt lat="45.38488" lon="6.49578">
        <ele>1233</ele>
        <time>2013-08-28T13:38:48Z</time>
      </trkpt>
      <trkpt lat="45.38496" lon="6.49561">
        <ele>1234</ele>
        <time>2013-08-28T13:38:58Z</time>
      </trkpt>
      <trkpt lat="45.38498" lon="6.49559">
        <ele>1235</ele>
        <time>2013-08-28T13:38:59Z</time>
      </trkpt>
      <trkpt lat="45.38498" lon="6.49557">
        <ele>1234.5</ele>
        <time>2013-08-28T13:39:00Z</time>
      </trkpt>
      <trkpt lat="45.38498" lon="6.49555">
        <ele>1235</ele>
        <time>2013-08-28T13:39:01Z</time>
      </trkpt>
      <trkpt lat="45.38498" lon="6.49553">
        <ele>1234.5</ele>
        <time>2013-08-28T13:39:02Z</time>
      </trkpt>
      <trkpt lat="45.38498" lon="6.49551">
        <ele>1235</ele>
        <time>2013-08-28T13:39:03Z</time>
      </trkpt>
      <trkpt lat="45.385" lon="6.49541">
        <ele>1235.9</ele>
        <time>2013-08-28T13:39:09Z</time>
      </trkpt>
      <trkpt lat="45.38502" lon="6.49516">
        <ele>1238.3</ele>
        <time>2013-08-28T13:39:22Z</time>
      </trkpt>
      <trkpt lat="45.38501" lon="6.49514">
        <ele>1238.3</ele>
        <time>2013-08-28T13:39:23Z</time>
      </trkpt>
      <trkpt lat="45.38502" lon="6.49503">
        <ele>1239.3</ele>
        <time>2013-08-28T13:39:29Z</time>
      </trkpt>
      <trkpt lat="45.38504" lon="6.49488">
        <ele>1240.2</ele>
        <time>2013-08-28T13:39:37Z</time>
      </trkpt>
      <trkpt lat="45.38505" lon="6.49487">
        <ele>1241.2</ele>
        <time>2013-08-28T13:39:38Z</time>
      </trkpt>
      <trkpt lat="45.38505" lon="6.49486">
        <ele>1241.2</ele>
        <time>2013-08-28T13:39:39Z</time>
      </trkpt>
      <trkpt lat="45.38505" lon="6.49477">
        <ele>1242.2</ele>
        <time>2013-08-28T13:39:45Z</time>
      </trkpt>
      <trkpt lat="45.38497" lon="6.49461">
        <ele>1244.6</ele>
        <time>2013-08-28T13:40:01Z</time>
      </trkpt>
      <trkpt lat="45.38485" lon="6.49455">
        <ele>1248.4</ele>
        <time>2013-08-28T13:40:17Z</time>
      </trkpt>
      <trkpt lat="45.38485" lon="6.49454">
        <ele>1247</ele>
        <time>2013-08-28T13:40:18Z</time>
      </trkpt>
      <trkpt lat="45.38485" lon="6.49453">
        <ele>1246.5</ele>
        <time>2013-08-28T13:40:20Z</time>
      </trkpt>
      <trkpt lat="45.38475" lon="6.49448">
        <ele>1246.5</ele>
        <time>2013-08-28T13:40:40Z</time>
      </trkpt>
      <trkpt lat="45.38462" lon="6.49444">
        <ele>1248.4</ele>
        <time>2013-08-28T13:40:55Z</time>
      </trkpt>
      <trkpt lat="45.38452" lon="6.49444">
        <ele>1249.4</ele>
        <time>2013-08-28T13:41:06Z</time>
      </trkpt>
      <trkpt lat="45.38443" lon="6.49446">
        <ele>1252.3</ele>
        <time>2013-08-28T13:41:17Z</time>
      </trkpt>
      <trkpt lat="45.38441" lon="6.49444">
        <ele>1252.3</ele>
        <time>2013-08-28T13:41:30Z</time>
      </trkpt>
      <trkpt lat="45.38437" lon="6.49439">
        <ele>1251.8</ele>
        <time>2013-08-28T13:41:56Z</time>
      </trkpt>
      <trkpt lat="45.38433" lon="6.49438">
        <ele>1252.3</ele>
        <time>2013-08-28T13:42:20Z</time>
      </trkpt>
      <trkpt lat="45.38426" lon="6.49435">
        <ele>1252.7</ele>
        <time>2013-08-28T13:42:51Z</time>
      </trkpt>
      <trkpt lat="45.38418" lon="6.49435">
        <ele>1252.3</ele>
        <time>2013-08-28T13:43:18Z</time>
      </trkpt>
      <trkpt lat="45.3842" lon="6.49439">
        <ele>1253.2</ele>
        <time>2013-08-28T13:43:42Z</time>
      </trkpt>
      <trkpt lat="45.38423" lon="6.49435">
        <ele>1253.2</ele>
        <time>2013-08-28T13:44:06Z</time>
      </trkpt>
      <trkpt lat="45.38423" lon="6.49432">
        <ele>1253.2</ele>
        <time>2013-08-28T13:44:37Z</time>
      </trkpt>
      <trkpt lat="45.38426" lon="6.49433">
        <ele>1252.3</ele>
        <time>2013-08-28T13:45:02Z</time>
      </trkpt>
      <trkpt lat="45.38425" lon="6.49431">
        <ele>1253.2</ele>
        <time>2013-08-28T13:45:04Z</time>
      </trkpt>
      <trkpt lat="45.38425" lon="6.4943">
        <ele>1254.2</ele>
        <time>2013-08-28T13:45:17Z</time>
      </trkpt>
      <trkpt lat="45.38427" lon="6.49439">
        <ele>1254.7</ele>
        <time>2013-08-28T13:45:38Z</time>
      </trkpt>
      <trkpt lat="45.38427" lon="6.4944">
        <ele>1254.7</ele>
        <time>2013-08-28T13:45:57Z</time>
      </trkpt>
      <trkpt lat="45.38422" lon="6.4944">
        <ele>1254.7</ele>
        <time>2013-08-28T13:46:20Z</time>
      </trkpt>
      <trkpt lat="45.38423" lon="6.4944">
        <ele>1254.7</ele>
        <time>2013-08-28T13:46:47Z</time>
      </trkpt>
      <trkpt lat="45.38425" lon="6.49443">
        <ele>1255.1</ele>
        <time>2013-08-28T13:47:11Z</time>
      </trkpt>
      <trkpt lat="45.38428" lon="6.49442">
        <ele>1255.1</ele>
        <time>2013-08-28T13:47:33Z</time>
      </trkpt>
      <trkpt lat="45.38433" lon="6.49444">
        <ele>1255.1</ele>
        <time>2013-08-28T13:48:02Z</time>
      </trkpt>
      <trkpt lat="45.38432" lon="6.49442">
        <ele>1255.1</ele>
        <time>2013-08-28T13:48:31Z</time>
      </trkpt>
      <trkpt lat="45.38416" lon="6.4943">
        <ele>1256.1</ele>
        <time>2013-08-28T13:48:56Z</time>
      </trkpt>
      <trkpt lat="45.38415" lon="6.49429">
        <ele>1256.6</ele>
        <time>2013-08-28T13:48:58Z</time>
      </trkpt>
      <trkpt lat="45.38411" lon="6.49428">
        <ele>1256.6</ele>
        <time>2013-08-28T13:49:00Z</time>
      </trkpt>
      <trkpt lat="45.38395" lon="6.49427">
        <ele>1259</ele>
        <time>2013-08-28T13:49:16Z</time>
      </trkpt>
      <trkpt lat="45.3838" lon="6.4943">
        <ele>1261.9</ele>
        <time>2013-08-28T13:49:30Z</time>
      </trkpt>
      <trkpt lat="45.38363" lon="6.49433">
        <ele>1264.3</ele>
        <time>2013-08-28T13:49:47Z</time>
      </trkpt>
      <trkpt lat="45.38348" lon="6.49436">
        <ele>1266.7</ele>
        <time>2013-08-28T13:50:04Z</time>
      </trkpt>
      <trkpt lat="45.38329" lon="6.49437">
        <ele>1269.1</ele>
        <time>2013-08-28T13:50:20Z</time>
      </trkpt>
      <trkpt lat="45.38312" lon="6.49438">
        <ele>1271.5</ele>
        <time>2013-08-28T13:50:36Z</time>
      </trkpt>
      <trkpt lat="45.3829" lon="6.49441">
        <ele>1273.9</ele>
        <time>2013-08-28T13:50:55Z</time>
      </trkpt>
      <trkpt lat="45.38273" lon="6.49434">
        <ele>1276.3</ele>
        <time>2013-08-28T13:51:09Z</time>
      </trkpt>
      <trkpt lat="45.38268" lon="6.49433">
        <ele>1277.3</ele>
        <time>2013-08-28T13:51:14Z</time>
      </trkpt>
      <trkpt lat="45.38265" lon="6.49437">
        <ele>1278.2</ele>
        <time>2013-08-28T13:51:19Z</time>
      </trkpt>
      <trkpt lat="45.38265" lon="6.49444">
        <ele>1278.7</ele>
        <time>2013-08-28T13:51:24Z</time>
      </trkpt>
      <trkpt lat="45.38272" lon="6.49465">
        <ele>1280.1</ele>
        <time>2013-08-28T13:51:37Z</time>
      </trkpt>
      <trkpt lat="45.38268" lon="6.49467">
        <ele>1281.6</ele>
        <time>2013-08-28T13:51:42Z</time>
      </trkpt>
      <trkpt lat="45.3825" lon="6.49445">
        <ele>1282.5</ele>
        <time>2013-08-28T13:51:58Z</time>
      </trkpt>
      <trkpt lat="45.38249" lon="6.49414">
        <ele>1285.9</ele>
        <time>2013-08-28T13:52:15Z</time>
      </trkpt>
      <trkpt lat="45.38257" lon="6.49388">
        <ele>1287.8</ele>
        <time>2013-08-28T13:52:32Z</time>
      </trkpt>
      <trkpt lat="45.38256" lon="6.49375">
        <ele>1288.8</ele>
        <time>2013-08-28T13:52:39Z</time>
      </trkpt>
      <trkpt lat="45.38261" lon="6.49349">
        <ele>1292.2</ele>
        <time>2013-08-28T13:52:54Z</time>
      </trkpt>
      <trkpt lat="45.38262" lon="6.49315">
        <ele>1294.1</ele>
        <time>2013-08-28T13:53:14Z</time>
      </trkpt>
      <trkpt lat="45.38259" lon="6.49282">
        <ele>1297</ele>
        <time>2013-08-28T13:53:33Z</time>
      </trkpt>
      <trkpt lat="45.38251" lon="6.49254">
        <ele>1299.4</ele>
        <time>2013-08-28T13:53:51Z</time>
      </trkpt>
      <trkpt lat="45.38251" lon="6.49233">
        <ele>1301.3</ele>
        <time>2013-08-28T13:54:03Z</time>
      </trkpt>
      <trkpt lat="45.3824" lon="6.49219">
        <ele>1303.2</ele>
        <time>2013-08-28T13:54:15Z</time>
      </trkpt>
      <trkpt lat="45.38221" lon="6.49205">
        <ele>1305.6</ele>
        <time>2013-08-28T13:54:32Z</time>
      </trkpt>
      <trkpt lat="45.3822" lon="6.49201">
        <ele>1305.6</ele>
        <time>2013-08-28T13:54:35Z</time>
      </trkpt>
      <trkpt lat="45.38216" lon="6.49196">
        <ele>1306.1</ele>
        <time>2013-08-28T13:54:39Z</time>
      </trkpt>
      <trkpt lat="45.38199" lon="6.49173">
        <ele>1309</ele>
        <time>2013-08-28T13:54:59Z</time>
      </trkpt>
      <trkpt lat="45.38188" lon="6.49162">
        <ele>1309.9</ele>
        <time>2013-08-28T13:55:15Z</time>
      </trkpt>
      <trkpt lat="45.38187" lon="6.49162">
        <ele>1309.5</ele>
        <time>2013-08-28T13:55:47Z</time>
      </trkpt>
      <trkpt lat="45.38185" lon="6.49163">
        <ele>1310.9</ele>
        <time>2013-08-28T13:56:28Z</time>
      </trkpt>
      <trkpt lat="45.38187" lon="6.49161">
        <ele>1310.4</ele>
        <time>2013-08-28T13:57:00Z</time>
      </trkpt>
      <trkpt lat="45.38186" lon="6.4916">
        <ele>1309.9</ele>
        <time>2013-08-28T13:57:42Z</time>
      </trkpt>
      <trkpt lat="45.38188" lon="6.49165">
        <ele>1309.9</ele>
        <time>2013-08-28T13:58:14Z</time>
      </trkpt>
      <trkpt lat="45.38186" lon="6.49161">
        <ele>1310.9</ele>
        <time>2013-08-28T13:58:53Z</time>
      </trkpt>
      <trkpt lat="45.38187" lon="6.49163">
        <ele>1310.4</ele>
        <time>2013-08-28T13:59:31Z</time>
      </trkpt>
      <trkpt lat="45.38184" lon="6.4916">
        <ele>1310.4</ele>
        <time>2013-08-28T14:00:04Z</time>
      </trkpt>
      <trkpt lat="45.38184" lon="6.49164">
        <ele>1310.4</ele>
        <time>2013-08-28T14:00:10Z</time>
      </trkpt>
      <trkpt lat="45.38174" lon="6.49193">
        <ele>1312.8</ele>
        <time>2013-08-28T14:00:29Z</time>
      </trkpt>
      <trkpt lat="45.38158" lon="6.49213">
        <ele>1314.7</ele>
        <time>2013-08-28T14:00:46Z</time>
      </trkpt>
      <trkpt lat="45.38142" lon="6.49236">
        <ele>1316.2</ele>
        <time>2013-08-28T14:01:03Z</time>
      </trkpt>
      <trkpt lat="45.38138" lon="6.49256">
        <ele>1319.6</ele>
        <time>2013-08-28T14:01:15Z</time>
      </trkpt>
      <trkpt lat="45.38138" lon="6.49258">
        <ele>1320</ele>
        <time>2013-08-28T14:01:16Z</time>
      </trkpt>
      <trkpt lat="45.38128" lon="6.49292">
        <ele>1322.9</ele>
        <time>2013-08-28T14:01:36Z</time>
      </trkpt>
      <trkpt lat="45.38123" lon="6.493">
        <ele>1324.4</ele>
        <time>2013-08-28T14:01:41Z</time>
      </trkpt>
      <trkpt lat="45.38118" lon="6.49309">
        <ele>1324.4</ele>
        <time>2013-08-28T14:01:46Z</time>
      </trkpt>
      <trkpt lat="45.38102" lon="6.4935">
        <ele>1326.8</ele>
        <time>2013-08-28T14:02:06Z</time>
      </trkpt>
      <trkpt lat="45.38094" lon="6.49378">
        <ele>1330.1</ele>
        <time>2013-08-28T14:02:20Z</time>
      </trkpt>
      <trkpt lat="45.38088" lon="6.49418">
        <ele>1333.5</ele>
        <time>2013-08-28T14:02:40Z</time>
      </trkpt>
      <trkpt lat="45.38086" lon="6.49424">
        <ele>1331.1</ele>
        <time>2013-08-28T14:02:43Z</time>
      </trkpt>
      <trkpt lat="45.38086" lon="6.49425">
        <ele>1334.5</ele>
        <time>2013-08-28T14:02:44Z</time>
      </trkpt>
      <trkpt lat="45.38084" lon="6.49433">
        <ele>1332.5</ele>
        <time>2013-08-28T14:02:48Z</time>
      </trkpt>
      <trkpt lat="45.38082" lon="6.4944">
        <ele>1335.4</ele>
        <time>2013-08-28T14:02:51Z</time>
      </trkpt>
      <trkpt lat="45.38078" lon="6.49452">
        <ele>1334.5</ele>
        <time>2013-08-28T14:02:58Z</time>
      </trkpt>
      <trkpt lat="45.38077" lon="6.49456">
        <ele>1336.9</ele>
        <time>2013-08-28T14:03:00Z</time>
      </trkpt>
      <trkpt lat="45.38076" lon="6.4946">
        <ele>1334</ele>
        <time>2013-08-28T14:03:03Z</time>
      </trkpt>
      <trkpt lat="45.38075" lon="6.49461">
        <ele>1335.4</ele>
        <time>2013-08-28T14:03:04Z</time>
      </trkpt>
      <trkpt lat="45.38074" lon="6.49464">
        <ele>1336.9</ele>
        <time>2013-08-28T14:03:06Z</time>
      </trkpt>
      <trkpt lat="45.38074" lon="6.49471">
        <ele>1338.3</ele>
        <time>2013-08-28T14:03:09Z</time>
      </trkpt>
      <trkpt lat="45.38073" lon="6.49476">
        <ele>1334.5</ele>
        <time>2013-08-28T14:03:11Z</time>
      </trkpt>
      <trkpt lat="45.38073" lon="6.49479">
        <ele>1339.3</ele>
        <time>2013-08-28T14:03:12Z</time>
      </trkpt>
      <trkpt lat="45.38072" lon="6.49481">
        <ele>1337.8</ele>
        <time>2013-08-28T14:03:13Z</time>
      </trkpt>
      <trkpt lat="45.38072" lon="6.4949">
        <ele>1339.3</ele>
        <time>2013-08-28T14:03:17Z</time>
      </trkpt>
      <trkpt lat="45.3807" lon="6.495">
        <ele>1339.3</ele>
        <time>2013-08-28T14:03:22Z</time>
      </trkpt>
      <trkpt lat="45.38051" lon="6.49519">
        <ele>1340.7</ele>
        <time>2013-08-28T14:03:35Z</time>
      </trkpt>
      <trkpt lat="45.38049" lon="6.49519">
        <ele>1340.2</ele>
        <time>2013-08-28T14:03:36Z</time>
      </trkpt>
      <trkpt lat="45.38022" lon="6.49501">
        <ele>1342.1</ele>
        <time>2013-08-28T14:03:47Z</time>
      </trkpt>
      <trkpt lat="45.3799" lon="6.49507">
        <ele>1345</ele>
        <time>2013-08-28T14:04:05Z</time>
      </trkpt>
      <trkpt lat="45.37983" lon="6.49505">
        <ele>1345</ele>
        <time>2013-08-28T14:04:10Z</time>
      </trkpt>
      <trkpt lat="45.37982" lon="6.49503">
        <ele>1345</ele>
        <time>2013-08-28T14:04:11Z</time>
      </trkpt>
      <trkpt lat="45.3798" lon="6.49499">
        <ele>1342.1</ele>
        <time>2013-08-28T14:04:19Z</time>
      </trkpt>
      <trkpt lat="45.37981" lon="6.49501">
        <ele>1343.1</ele>
        <time>2013-08-28T14:04:25Z</time>
      </trkpt>
      <trkpt lat="45.37981" lon="6.495">
        <ele>1345</ele>
        <time>2013-08-28T14:04:30Z</time>
      </trkpt>
      <trkpt lat="45.37981" lon="6.495">
        <ele>1343.1</ele>
        <time>2013-08-28T14:04:33Z</time>
      </trkpt>
      <trkpt lat="45.37981" lon="6.495">
        <ele>1345.5</ele>
        <time>2013-08-28T14:04:35Z</time>
      </trkpt>
      <trkpt lat="45.37981" lon="6.49501">
        <ele>1342.1</ele>
        <time>2013-08-28T14:04:38Z</time>
      </trkpt>
      <trkpt lat="45.37981" lon="6.49501">
        <ele>1342.1</ele>
        <time>2013-08-28T14:04:39Z</time>
      </trkpt>
      <trkpt lat="45.37981" lon="6.49501">
        <ele>1346</ele>
        <time>2013-08-28T14:04:41Z</time>
      </trkpt>
      <trkpt lat="45.37981" lon="6.49501">
        <ele>1346</ele>
        <time>2013-08-28T14:04:42Z</time>
      </trkpt>
      <trkpt lat="45.37981" lon="6.49501">
        <ele>1342.6</ele>
        <time>2013-08-28T14:04:44Z</time>
      </trkpt>
      <trkpt lat="45.37981" lon="6.49501">
        <ele>1342.6</ele>
        <time>2013-08-28T14:04:45Z</time>
      </trkpt>
      <trkpt lat="45.3798" lon="6.49501">
        <ele>1344.1</ele>
        <time>2013-08-28T14:04:49Z</time>
      </trkpt>
      <trkpt lat="45.37979" lon="6.49499">
        <ele>1344.1</ele>
        <time>2013-08-28T14:04:54Z</time>
      </trkpt>
      <trkpt lat="45.37978" lon="6.495">
        <ele>1346.9</ele>
        <time>2013-08-28T14:04:58Z</time>
      </trkpt>
      <trkpt lat="45.37976" lon="6.495">
        <ele>1342.6</ele>
        <time>2013-08-28T14:05:00Z</time>
      </trkpt>
      <trkpt lat="45.37976" lon="6.49501">
        <ele>1343.6</ele>
        <time>2013-08-28T14:05:01Z</time>
      </trkpt>
      <trkpt lat="45.37976" lon="6.49501">
        <ele>1345</ele>
        <time>2013-08-28T14:05:03Z</time>
      </trkpt>
      <trkpt lat="45.37975" lon="6.49501">
        <ele>1342.1</ele>
        <time>2013-08-28T14:05:12Z</time>
      </trkpt>
      <trkpt lat="45.37975" lon="6.49501">
        <ele>1343.1</ele>
        <time>2013-08-28T14:05:13Z</time>
      </trkpt>
      <trkpt lat="45.37975" lon="6.49501">
        <ele>1346.9</ele>
        <time>2013-08-28T14:05:14Z</time>
      </trkpt>
      <trkpt lat="45.37974" lon="6.49501">
        <ele>1346.9</ele>
        <time>2013-08-28T14:05:15Z</time>
      </trkpt>
      <trkpt lat="45.37973" lon="6.49501">
        <ele>1343.1</ele>
        <time>2013-08-28T14:05:16Z</time>
      </trkpt>
      <trkpt lat="45.37972" lon="6.49501">
        <ele>1346.5</ele>
        <time>2013-08-28T14:05:17Z</time>
      </trkpt>
      <trkpt lat="45.3797" lon="6.49501">
        <ele>1343.1</ele>
        <time>2013-08-28T14:05:18Z</time>
      </trkpt>
      <trkpt lat="45.37967" lon="6.49503">
        <ele>1346.9</ele>
        <time>2013-08-28T14:05:20Z</time>
      </trkpt>
      <trkpt lat="45.37966" lon="6.49503">
        <ele>1347.4</ele>
        <time>2013-08-28T14:05:21Z</time>
      </trkpt>
      <trkpt lat="45.37959" lon="6.49506">
        <ele>1347.4</ele>
        <time>2013-08-28T14:05:25Z</time>
      </trkpt>
      <trkpt lat="45.37953" lon="6.49512">
        <ele>1345.5</ele>
        <time>2013-08-28T14:05:30Z</time>
      </trkpt>
      <trkpt lat="45.37945" lon="6.49518">
        <ele>1348.9</ele>
        <time>2013-08-28T14:05:36Z</time>
      </trkpt>
      <trkpt lat="45.37943" lon="6.49521">
        <ele>1345.5</ele>
        <time>2013-08-28T14:05:38Z</time>
      </trkpt>
      <trkpt lat="45.37942" lon="6.49522">
        <ele>1349.4</ele>
        <time>2013-08-28T14:05:39Z</time>
      </trkpt>
      <trkpt lat="45.37941" lon="6.49524">
        <ele>1348.9</ele>
        <time>2013-08-28T14:05:40Z</time>
      </trkpt>
      <trkpt lat="45.37933" lon="6.49536">
        <ele>1350.3</ele>
        <time>2013-08-28T14:05:48Z</time>
      </trkpt>
      <trkpt lat="45.37932" lon="6.49537">
        <ele>1348.4</ele>
        <time>2013-08-28T14:05:49Z</time>
      </trkpt>
      <trkpt lat="45.37931" lon="6.49538">
        <ele>1347.9</ele>
        <time>2013-08-28T14:05:50Z</time>
      </trkpt>
      <trkpt lat="45.3793" lon="6.4954">
        <ele>1350.8</ele>
        <time>2013-08-28T14:05:51Z</time>
      </trkpt>
      <trkpt lat="45.37929" lon="6.49541">
        <ele>1348.4</ele>
        <time>2013-08-28T14:05:52Z</time>
      </trkpt>
      <trkpt lat="45.37928" lon="6.49542">
        <ele>1349.8</ele>
        <time>2013-08-28T14:05:53Z</time>
      </trkpt>
      <trkpt lat="45.37928" lon="6.49544">
        <ele>1350.3</ele>
        <time>2013-08-28T14:05:54Z</time>
      </trkpt>
      <trkpt lat="45.37925" lon="6.49547">
        <ele>1352.2</ele>
        <time>2013-08-28T14:05:57Z</time>
      </trkpt>
      <trkpt lat="45.37924" lon="6.49547">
        <ele>1349.8</ele>
        <time>2013-08-28T14:05:58Z</time>
      </trkpt>
      <trkpt lat="45.37923" lon="6.49546">
        <ele>1350.3</ele>
        <time>2013-08-28T14:05:59Z</time>
      </trkpt>
      <trkpt lat="45.37923" lon="6.49544">
        <ele>1352.2</ele>
        <time>2013-08-28T14:06:00Z</time>
      </trkpt>
      <trkpt lat="45.37922" lon="6.49542">
        <ele>1352.2</ele>
        <time>2013-08-28T14:06:01Z</time>
      </trkpt>
      <trkpt lat="45.37922" lon="6.49539">
        <ele>1350.3</ele>
        <time>2013-08-28T14:06:02Z</time>
      </trkpt>
      <trkpt lat="45.37923" lon="6.49536">
        <ele>1350.3</ele>
        <time>2013-08-28T14:06:03Z</time>
      </trkpt>
      <trkpt lat="45.37923" lon="6.49534">
        <ele>1351.3</ele>
        <time>2013-08-28T14:06:04Z</time>
      </trkpt>
      <trkpt lat="45.37923" lon="6.49531">
        <ele>1353.2</ele>
        <time>2013-08-28T14:06:05Z</time>
      </trkpt>
      <trkpt lat="45.37923" lon="6.49528">
        <ele>1350.3</ele>
        <time>2013-08-28T14:06:06Z</time>
      </trkpt>
      <trkpt lat="45.37923" lon="6.49526">
        <ele>1352.7</ele>
        <time>2013-08-28T14:06:07Z</time>
      </trkpt>
      <trkpt lat="45.37922" lon="6.49523">
        <ele>1351.8</ele>
        <time>2013-08-28T14:06:08Z</time>
      </trkpt>
      <trkpt lat="45.37922" lon="6.4952">
        <ele>1353.2</ele>
        <time>2013-08-28T14:06:09Z</time>
      </trkpt>
      <trkpt lat="45.37921" lon="6.49517">
        <ele>1351.3</ele>
        <time>2013-08-28T14:06:10Z</time>
      </trkpt>
      <trkpt lat="45.37921" lon="6.49515">
        <ele>1353.2</ele>
        <time>2013-08-28T14:06:11Z</time>
      </trkpt>
      <trkpt lat="45.37921" lon="6.49513">
        <ele>1352.2</ele>
        <time>2013-08-28T14:06:12Z</time>
      </trkpt>
      <trkpt lat="45.37917" lon="6.49468">
        <ele>1355.6</ele>
        <time>2013-08-28T14:06:30Z</time>
      </trkpt>
      <trkpt lat="45.37937" lon="6.49433">
        <ele>1357</ele>
        <time>2013-08-28T14:06:46Z</time>
      </trkpt>
      <trkpt lat="45.37955" lon="6.49402">
        <ele>1359.9</ele>
        <time>2013-08-28T14:07:03Z</time>
      </trkpt>
      <trkpt lat="45.37971" lon="6.49377">
        <ele>1362.8</ele>
        <time>2013-08-28T14:07:19Z</time>
      </trkpt>
      <trkpt lat="45.37971" lon="6.49375">
        <ele>1362.8</ele>
        <time>2013-08-28T14:07:20Z</time>
      </trkpt>
      <trkpt lat="45.37981" lon="6.49351">
        <ele>1365.7</ele>
        <time>2013-08-28T14:07:33Z</time>
      </trkpt>
      <trkpt lat="45.37981" lon="6.4935">
        <ele>1365.7</ele>
        <time>2013-08-28T14:07:34Z</time>
      </trkpt>
      <trkpt lat="45.37992" lon="6.49321">
        <ele>1367.1</ele>
        <time>2013-08-28T14:07:48Z</time>
      </trkpt>
      <trkpt lat="45.38" lon="6.49288">
        <ele>1369.1</ele>
        <time>2013-08-28T14:08:02Z</time>
      </trkpt>
      <trkpt lat="45.38001" lon="6.49249">
        <ele>1370</ele>
        <time>2013-08-28T14:08:19Z</time>
      </trkpt>
      <trkpt lat="45.37999" lon="6.4925">
        <ele>1369.1</ele>
        <time>2013-08-28T14:08:38Z</time>
      </trkpt>
      <trkpt lat="45.38" lon="6.49252">
        <ele>1369.5</ele>
        <time>2013-08-28T14:09:14Z</time>
      </trkpt>
      <trkpt lat="45.37996" lon="6.49249">
        <ele>1370</ele>
        <time>2013-08-28T14:09:52Z</time>
      </trkpt>
      <trkpt lat="45.37994" lon="6.49251">
        <ele>1369.5</ele>
        <time>2013-08-28T14:10:33Z</time>
      </trkpt>
      <trkpt lat="45.37995" lon="6.49252">
        <ele>1370</ele>
        <time>2013-08-28T14:11:06Z</time>
      </trkpt>
      <trkpt lat="45.37993" lon="6.4925">
        <ele>1370.5</ele>
        <time>2013-08-28T14:11:36Z</time>
      </trkpt>
      <trkpt lat="45.37994" lon="6.49252">
        <ele>1371.5</ele>
        <time>2013-08-28T14:12:02Z</time>
      </trkpt>
      <trkpt lat="45.37994" lon="6.49247">
        <ele>1371</ele>
        <time>2013-08-28T14:12:10Z</time>
      </trkpt>
      <trkpt lat="45.37995" lon="6.49244">
        <ele>1371</ele>
        <time>2013-08-28T14:12:11Z</time>
      </trkpt>
      <trkpt lat="45.37996" lon="6.49241">
        <ele>1371</ele>
        <time>2013-08-28T14:12:12Z</time>
      </trkpt>
      <trkpt lat="45.38008" lon="6.49186">
        <ele>1368.6</ele>
        <time>2013-08-28T14:12:23Z</time>
      </trkpt>
      <trkpt lat="45.38013" lon="6.4916">
        <ele>1366.7</ele>
        <time>2013-08-28T14:12:27Z</time>
      </trkpt>
      <trkpt lat="45.38016" lon="6.49144">
        <ele>1365.2</ele>
        <time>2013-08-28T14:12:30Z</time>
      </trkpt>
      <trkpt lat="45.38017" lon="6.49138">
        <ele>1364.7</ele>
        <time>2013-08-28T14:12:31Z</time>
      </trkpt>
      <trkpt lat="45.38018" lon="6.49132">
        <ele>1365.7</ele>
        <time>2013-08-28T14:12:32Z</time>
      </trkpt>
      <trkpt lat="45.38018" lon="6.49126">
        <ele>1364.7</ele>
        <time>2013-08-28T14:12:33Z</time>
      </trkpt>
      <trkpt lat="45.38017" lon="6.4912">
        <ele>1364.3</ele>
        <time>2013-08-28T14:12:34Z</time>
      </trkpt>
      <trkpt lat="45.38016" lon="6.49114">
        <ele>1363.8</ele>
        <time>2013-08-28T14:12:35Z</time>
      </trkpt>
      <trkpt lat="45.38015" lon="6.49108">
        <ele>1365.2</ele>
        <time>2013-08-28T14:12:36Z</time>
      </trkpt>
      <trkpt lat="45.37999" lon="6.49077">
        <ele>1364.3</ele>
        <time>2013-08-28T14:12:46Z</time>
      </trkpt>
      <trkpt lat="45.37991" lon="6.49063">
        <ele>1365.7</ele>
        <time>2013-08-28T14:12:52Z</time>
      </trkpt>
      <trkpt lat="45.37981" lon="6.49044">
        <ele>1367.6</ele>
        <time>2013-08-28T14:13:01Z</time>
      </trkpt>
      <trkpt lat="45.37968" lon="6.49032">
        <ele>1369.5</ele>
        <time>2013-08-28T14:13:10Z</time>
      </trkpt>
      <trkpt lat="45.37936" lon="6.49013">
        <ele>1370.5</ele>
        <time>2013-08-28T14:13:27Z</time>
      </trkpt>
      <trkpt lat="45.37914" lon="6.48983">
        <ele>1373.9</ele>
        <time>2013-08-28T14:13:42Z</time>
      </trkpt>
      <trkpt lat="45.37907" lon="6.48952">
        <ele>1375.3</ele>
        <time>2013-08-28T14:13:54Z</time>
      </trkpt>
      <trkpt lat="45.3791" lon="6.48913">
        <ele>1377.7</ele>
        <time>2013-08-28T14:14:10Z</time>
      </trkpt>
      <trkpt lat="45.37892" lon="6.48892">
        <ele>1380.1</ele>
        <time>2013-08-28T14:14:23Z</time>
      </trkpt>
      <trkpt lat="45.37867" lon="6.48867">
        <ele>1382</ele>
        <time>2013-08-28T14:14:39Z</time>
      </trkpt>
      <trkpt lat="45.37848" lon="6.48853">
        <ele>1384.9</ele>
        <time>2013-08-28T14:14:53Z</time>
      </trkpt>
      <trkpt lat="45.37829" lon="6.48834">
        <ele>1387.3</ele>
        <time>2013-08-28T14:15:08Z</time>
      </trkpt>
      <trkpt lat="45.37811" lon="6.48815">
        <ele>1388.3</ele>
        <time>2013-08-28T14:15:21Z</time>
      </trkpt>
      <trkpt lat="45.37798" lon="6.48801">
        <ele>1389.7</ele>
        <time>2013-08-28T14:15:33Z</time>
      </trkpt>
      <trkpt lat="45.37777" lon="6.48786">
        <ele>1391.7</ele>
        <time>2013-08-28T14:15:47Z</time>
      </trkpt>
      <trkpt lat="45.37755" lon="6.48764">
        <ele>1393.1</ele>
        <time>2013-08-28T14:16:00Z</time>
      </trkpt>
      <trkpt lat="45.37743" lon="6.48752">
        <ele>1394.5</ele>
        <time>2013-08-28T14:16:08Z</time>
      </trkpt>
      <trkpt lat="45.37742" lon="6.4875">
        <ele>1394.5</ele>
        <time>2013-08-28T14:16:09Z</time>
      </trkpt>
      <trkpt lat="45.3774" lon="6.48749">
        <ele>1395.5</ele>
        <time>2013-08-28T14:16:10Z</time>
      </trkpt>
      <trkpt lat="45.37739" lon="6.48747">
        <ele>1395</ele>
        <time>2013-08-28T14:16:11Z</time>
      </trkpt>
      <trkpt lat="45.37738" lon="6.48744">
        <ele>1395.5</ele>
        <time>2013-08-28T14:16:12Z</time>
      </trkpt>
      <trkpt lat="45.37737" lon="6.48742">
        <ele>1395.5</ele>
        <time>2013-08-28T14:16:13Z</time>
      </trkpt>
      <trkpt lat="45.37738" lon="6.48707">
        <ele>1397.9</ele>
        <time>2013-08-28T14:16:28Z</time>
      </trkpt>
      <trkpt lat="45.37743" lon="6.48666">
        <ele>1399.8</ele>
        <time>2013-08-28T14:16:45Z</time>
      </trkpt>
      <trkpt lat="45.37723" lon="6.48635">
        <ele>1401.3</ele>
        <time>2013-08-28T14:16:59Z</time>
      </trkpt>
      <trkpt lat="45.37692" lon="6.4861">
        <ele>1403.2</ele>
        <time>2013-08-28T14:17:13Z</time>
      </trkpt>
      <trkpt lat="45.37676" lon="6.48569">
        <ele>1406.1</ele>
        <time>2013-08-28T14:17:29Z</time>
      </trkpt>
      <trkpt lat="45.37665" lon="6.48531">
        <ele>1409.4</ele>
        <time>2013-08-28T14:17:46Z</time>
      </trkpt>
      <trkpt lat="45.37641" lon="6.48511">
        <ele>1411.4</ele>
        <time>2013-08-28T14:18:01Z</time>
      </trkpt>
      <trkpt lat="45.37627" lon="6.4848">
        <ele>1413.3</ele>
        <time>2013-08-28T14:18:16Z</time>
      </trkpt>
      <trkpt lat="45.37624" lon="6.48439">
        <ele>1415.2</ele>
        <time>2013-08-28T14:18:31Z</time>
      </trkpt>
      <trkpt lat="45.37626" lon="6.48393">
        <ele>1417.6</ele>
        <time>2013-08-28T14:18:47Z</time>
      </trkpt>
      <trkpt lat="45.3761" lon="6.48359">
        <ele>1420</ele>
        <time>2013-08-28T14:19:03Z</time>
      </trkpt>
      <trkpt lat="45.37585" lon="6.48323">
        <ele>1422.9</ele>
        <time>2013-08-28T14:19:20Z</time>
      </trkpt>
      <trkpt lat="45.37574" lon="6.48309">
        <ele>1423.4</ele>
        <time>2013-08-28T14:19:27Z</time>
      </trkpt>
      <trkpt lat="45.37569" lon="6.4828">
        <ele>1423.9</ele>
        <time>2013-08-28T14:19:38Z</time>
      </trkpt>
      <trkpt lat="45.37569" lon="6.48277">
        <ele>1424.8</ele>
        <time>2013-08-28T14:19:39Z</time>
      </trkpt>
      <trkpt lat="45.3757" lon="6.48274">
        <ele>1424.8</ele>
        <time>2013-08-28T14:19:40Z</time>
      </trkpt>
      <trkpt lat="45.37571" lon="6.48271">
        <ele>1424.8</ele>
        <time>2013-08-28T14:19:41Z</time>
      </trkpt>
      <trkpt lat="45.37572" lon="6.48268">
        <ele>1425.3</ele>
        <time>2013-08-28T14:19:42Z</time>
      </trkpt>
      <trkpt lat="45.37574" lon="6.48265">
        <ele>1425.3</ele>
        <time>2013-08-28T14:19:43Z</time>
      </trkpt>
      <trkpt lat="45.37575" lon="6.48263">
        <ele>1424.8</ele>
        <time>2013-08-28T14:19:44Z</time>
      </trkpt>
      <trkpt lat="45.37585" lon="6.4823">
        <ele>1427.7</ele>
        <time>2013-08-28T14:19:57Z</time>
      </trkpt>
      <trkpt lat="45.37564" lon="6.48192">
        <ele>1430.1</ele>
        <time>2013-08-28T14:20:12Z</time>
      </trkpt>
      <trkpt lat="45.37531" lon="6.48163">
        <ele>1432</ele>
        <time>2013-08-28T14:20:29Z</time>
      </trkpt>
      <trkpt lat="45.37525" lon="6.48155">
        <ele>1431.5</ele>
        <time>2013-08-28T14:20:32Z</time>
      </trkpt>
      <trkpt lat="45.37525" lon="6.48152">
        <ele>1431.5</ele>
        <time>2013-08-28T14:20:33Z</time>
      </trkpt>
      <trkpt lat="45.37524" lon="6.48148">
        <ele>1432.5</ele>
        <time>2013-08-28T14:20:34Z</time>
      </trkpt>
      <trkpt lat="45.37524" lon="6.48144">
        <ele>1432</ele>
        <time>2013-08-28T14:20:35Z</time>
      </trkpt>
      <trkpt lat="45.37524" lon="6.48141">
        <ele>1432</ele>
        <time>2013-08-28T14:20:36Z</time>
      </trkpt>
      <trkpt lat="45.37528" lon="6.48096">
        <ele>1434.4</ele>
        <time>2013-08-28T14:20:50Z</time>
      </trkpt>
      <trkpt lat="45.37534" lon="6.48057">
        <ele>1436.4</ele>
        <time>2013-08-28T14:21:03Z</time>
      </trkpt>
      <trkpt lat="45.37531" lon="6.4802">
        <ele>1438.3</ele>
        <time>2013-08-28T14:21:16Z</time>
      </trkpt>
      <trkpt lat="45.37524" lon="6.48012">
        <ele>1439.7</ele>
        <time>2013-08-28T14:21:20Z</time>
      </trkpt>
      <trkpt lat="45.37516" lon="6.4798">
        <ele>1440.7</ele>
        <time>2013-08-28T14:21:31Z</time>
      </trkpt>
      <trkpt lat="45.37516" lon="6.47967">
        <ele>1441.6</ele>
        <time>2013-08-28T14:21:45Z</time>
      </trkpt>
      <trkpt lat="45.37516" lon="6.47961">
        <ele>1441.2</ele>
        <time>2013-08-28T14:21:55Z</time>
      </trkpt>
      <trkpt lat="45.37515" lon="6.47959">
        <ele>1441.2</ele>
        <time>2013-08-28T14:21:56Z</time>
      </trkpt>
      <trkpt lat="45.37514" lon="6.47957">
        <ele>1441.6</ele>
        <time>2013-08-28T14:21:57Z</time>
      </trkpt>
      <trkpt lat="45.37513" lon="6.47954">
        <ele>1441.6</ele>
        <time>2013-08-28T14:21:58Z</time>
      </trkpt>
      <trkpt lat="45.37513" lon="6.47951">
        <ele>1441.2</ele>
        <time>2013-08-28T14:21:59Z</time>
      </trkpt>
      <trkpt lat="45.3751" lon="6.4794">
        <ele>1442.6</ele>
        <time>2013-08-28T14:22:03Z</time>
      </trkpt>
      <trkpt lat="45.37507" lon="6.47927">
        <ele>1443.1</ele>
        <time>2013-08-28T14:22:08Z</time>
      </trkpt>
      <trkpt lat="45.37503" lon="6.47919">
        <ele>1444.5</ele>
        <time>2013-08-28T14:22:12Z</time>
      </trkpt>
      <trkpt lat="45.37488" lon="6.47894">
        <ele>1446</ele>
        <time>2013-08-28T14:22:24Z</time>
      </trkpt>
      <trkpt lat="45.37482" lon="6.47854">
        <ele>1447.9</ele>
        <time>2013-08-28T14:22:39Z</time>
      </trkpt>
      <trkpt lat="45.37469" lon="6.47822">
        <ele>1448.8</ele>
        <time>2013-08-28T14:22:52Z</time>
      </trkpt>
      <trkpt lat="45.37463" lon="6.47787">
        <ele>1451.7</ele>
        <time>2013-08-28T14:23:05Z</time>
      </trkpt>
      <trkpt lat="45.37467" lon="6.47754">
        <ele>1454.1</ele>
        <time>2013-08-28T14:23:19Z</time>
      </trkpt>
      <trkpt lat="45.37457" lon="6.47718">
        <ele>1456.1</ele>
        <time>2013-08-28T14:23:34Z</time>
      </trkpt>
      <trkpt lat="45.37449" lon="6.47682">
        <ele>1458.5</ele>
        <time>2013-08-28T14:23:49Z</time>
      </trkpt>
      <trkpt lat="45.3744" lon="6.47651">
        <ele>1461.3</ele>
        <time>2013-08-28T14:24:04Z</time>
      </trkpt>
      <trkpt lat="45.3744" lon="6.47649">
        <ele>1460.9</ele>
        <time>2013-08-28T14:24:05Z</time>
      </trkpt>
      <trkpt lat="45.37436" lon="6.47638">
        <ele>1461.3</ele>
        <time>2013-08-28T14:24:22Z</time>
      </trkpt>
      <trkpt lat="45.37438" lon="6.47639">
        <ele>1462.3</ele>
        <time>2013-08-28T14:24:26Z</time>
      </trkpt>
      <trkpt lat="45.37438" lon="6.47638">
        <ele>1462.3</ele>
        <time>2013-08-28T14:24:36Z</time>
      </trkpt>
      <trkpt lat="45.37436" lon="6.47637">
        <ele>1461.8</ele>
        <time>2013-08-28T14:24:37Z</time>
      </trkpt>
      <trkpt lat="45.37435" lon="6.47637">
        <ele>1462.8</ele>
        <time>2013-08-28T14:24:38Z</time>
      </trkpt>
      <trkpt lat="45.37434" lon="6.47637">
        <ele>1461.3</ele>
        <time>2013-08-28T14:24:39Z</time>
      </trkpt>
      <trkpt lat="45.37433" lon="6.47636">
        <ele>1462.8</ele>
        <time>2013-08-28T14:24:40Z</time>
      </trkpt>
      <trkpt lat="45.37432" lon="6.47635">
        <ele>1462.3</ele>
        <time>2013-08-28T14:24:41Z</time>
      </trkpt>
      <trkpt lat="45.3743" lon="6.47633">
        <ele>1463.7</ele>
        <time>2013-08-28T14:24:55Z</time>
      </trkpt>
      <trkpt lat="45.3743" lon="6.47631">
        <ele>1463.7</ele>
        <time>2013-08-28T14:24:59Z</time>
      </trkpt>
      <trkpt lat="45.3743" lon="6.47631">
        <ele>1463.3</ele>
        <time>2013-08-28T14:25:00Z</time>
      </trkpt>
      <trkpt lat="45.37416" lon="6.47612">
        <ele>1464.2</ele>
        <time>2013-08-28T14:25:14Z</time>
      </trkpt>
      <trkpt lat="45.37414" lon="6.47606">
        <ele>1465.2</ele>
        <time>2013-08-28T14:25:18Z</time>
      </trkpt>
      <trkpt lat="45.37403" lon="6.47583">
        <ele>1467.6</ele>
        <time>2013-08-28T14:25:32Z</time>
      </trkpt>
      <trkpt lat="45.37388" lon="6.47561">
        <ele>1469.5</ele>
        <time>2013-08-28T14:25:48Z</time>
      </trkpt>
      <trkpt lat="45.37372" lon="6.4754">
        <ele>1470.5</ele>
        <time>2013-08-28T14:26:03Z</time>
      </trkpt>
      <trkpt lat="45.37357" lon="6.47518">
        <ele>1473.4</ele>
        <time>2013-08-28T14:26:18Z</time>
      </trkpt>
      <trkpt lat="45.37349" lon="6.4751">
        <ele>1474.3</ele>
        <time>2013-08-28T14:26:24Z</time>
      </trkpt>
      <trkpt lat="45.37333" lon="6.47492">
        <ele>1475.8</ele>
        <time>2013-08-28T14:26:38Z</time>
      </trkpt>
      <trkpt lat="45.37325" lon="6.47463">
        <ele>1478.7</ele>
        <time>2013-08-28T14:26:52Z</time>
      </trkpt>
      <trkpt lat="45.37308" lon="6.47437">
        <ele>1481.1</ele>
        <time>2013-08-28T14:27:08Z</time>
      </trkpt>
      <trkpt lat="45.37289" lon="6.47419">
        <ele>1483.5</ele>
        <time>2013-08-28T14:27:24Z</time>
      </trkpt>
      <trkpt lat="45.37269" lon="6.47409">
        <ele>1485.4</ele>
        <time>2013-08-28T14:27:39Z</time>
      </trkpt>
      <trkpt lat="45.37241" lon="6.47398">
        <ele>1487.8</ele>
        <time>2013-08-28T14:27:56Z</time>
      </trkpt>
      <trkpt lat="45.37222" lon="6.47382">
        <ele>1490.2</ele>
        <time>2013-08-28T14:28:11Z</time>
      </trkpt>
      <trkpt lat="45.37199" lon="6.47364">
        <ele>1492.6</ele>
        <time>2013-08-28T14:28:28Z</time>
      </trkpt>
      <trkpt lat="45.37181" lon="6.47346">
        <ele>1495</ele>
        <time>2013-08-28T14:28:41Z</time>
      </trkpt>
      <trkpt lat="45.37184" lon="6.47346">
        <ele>1496</ele>
        <time>2013-08-28T14:28:57Z</time>
      </trkpt>
      <trkpt lat="45.37179" lon="6.47342">
        <ele>1496</ele>
        <time>2013-08-28T14:29:14Z</time>
      </trkpt>
      <trkpt lat="45.37179" lon="6.4734">
        <ele>1496</ele>
        <time>2013-08-28T14:29:15Z</time>
      </trkpt>
      <trkpt lat="45.37178" lon="6.47339">
        <ele>1496.4</ele>
        <time>2013-08-28T14:29:16Z</time>
      </trkpt>
      <trkpt lat="45.37177" lon="6.47337">
        <ele>1496.4</ele>
        <time>2013-08-28T14:29:17Z</time>
      </trkpt>
      <trkpt lat="45.37176" lon="6.47336">
        <ele>1495.5</ele>
        <time>2013-08-28T14:29:18Z</time>
      </trkpt>
      <trkpt lat="45.37175" lon="6.47334">
        <ele>1496</ele>
        <time>2013-08-28T14:29:19Z</time>
      </trkpt>
      <trkpt lat="45.37166" lon="6.47324">
        <ele>1497.9</ele>
        <time>2013-08-28T14:29:28Z</time>
      </trkpt>
      <trkpt lat="45.37147" lon="6.47303">
        <ele>1499.8</ele>
        <time>2013-08-28T14:29:45Z</time>
      </trkpt>
      <trkpt lat="45.37128" lon="6.47293">
        <ele>1502.7</ele>
        <time>2013-08-28T14:30:00Z</time>
      </trkpt>
      <trkpt lat="45.37123" lon="6.47292">
        <ele>1503.2</ele>
        <time>2013-08-28T14:30:15Z</time>
      </trkpt>
      <trkpt lat="45.37122" lon="6.47291">
        <ele>1503.2</ele>
        <time>2013-08-28T14:30:23Z</time>
      </trkpt>
      <trkpt lat="45.37097" lon="6.47279">
        <ele>1507</ele>
        <time>2013-08-28T14:30:39Z</time>
      </trkpt>
      <trkpt lat="45.37074" lon="6.47262">
        <ele>1508.5</ele>
        <time>2013-08-28T14:30:56Z</time>
      </trkpt>
      <trkpt lat="45.37058" lon="6.47251">
        <ele>1510.4</ele>
        <time>2013-08-28T14:31:10Z</time>
      </trkpt>
      <trkpt lat="45.37057" lon="6.47252">
        <ele>1510.9</ele>
        <time>2013-08-28T14:31:11Z</time>
      </trkpt>
      <trkpt lat="45.37056" lon="6.47254">
        <ele>1511.3</ele>
        <time>2013-08-28T14:31:12Z</time>
      </trkpt>
      <trkpt lat="45.37056" lon="6.47256">
        <ele>1511.3</ele>
        <time>2013-08-28T14:31:13Z</time>
      </trkpt>
      <trkpt lat="45.37057" lon="6.47258">
        <ele>1512.3</ele>
        <time>2013-08-28T14:31:14Z</time>
      </trkpt>
      <trkpt lat="45.37057" lon="6.4726">
        <ele>1511.3</ele>
        <time>2013-08-28T14:31:15Z</time>
      </trkpt>
      <trkpt lat="45.37057" lon="6.47261">
        <ele>1511.8</ele>
        <time>2013-08-28T14:31:16Z</time>
      </trkpt>
      <trkpt lat="45.37058" lon="6.47263">
        <ele>1512.3</ele>
        <time>2013-08-28T14:31:17Z</time>
      </trkpt>
      <trkpt lat="45.37058" lon="6.47264">
        <ele>1512.3</ele>
        <time>2013-08-28T14:31:18Z</time>
      </trkpt>
      <trkpt lat="45.37071" lon="6.4728">
        <ele>1514.7</ele>
        <time>2013-08-28T14:31:31Z</time>
      </trkpt>
      <trkpt lat="45.37091" lon="6.473">
        <ele>1517.1</ele>
        <time>2013-08-28T14:31:46Z</time>
      </trkpt>
      <trkpt lat="45.37113" lon="6.47325">
        <ele>1519</ele>
        <time>2013-08-28T14:32:02Z</time>
      </trkpt>
      <trkpt lat="45.37126" lon="6.47354">
        <ele>1520.9</ele>
        <time>2013-08-28T14:32:16Z</time>
      </trkpt>
      <trkpt lat="45.37136" lon="6.47376">
        <ele>1523.8</ele>
        <time>2013-08-28T14:32:26Z</time>
      </trkpt>
      <trkpt lat="45.37155" lon="6.47401">
        <ele>1524.8</ele>
        <time>2013-08-28T14:32:40Z</time>
      </trkpt>
      <trkpt lat="45.3718" lon="6.47427">
        <ele>1528.2</ele>
        <time>2013-08-28T14:32:56Z</time>
      </trkpt>
      <trkpt lat="45.37188" lon="6.47447">
        <ele>1529.6</ele>
        <time>2013-08-28T14:33:05Z</time>
      </trkpt>
      <trkpt lat="45.37187" lon="6.47449">
        <ele>1529.1</ele>
        <time>2013-08-28T14:33:06Z</time>
      </trkpt>
      <trkpt lat="45.37185" lon="6.4745">
        <ele>1529.1</ele>
        <time>2013-08-28T14:33:07Z</time>
      </trkpt>
      <trkpt lat="45.37184" lon="6.47451">
        <ele>1529.6</ele>
        <time>2013-08-28T14:33:08Z</time>
      </trkpt>
      <trkpt lat="45.37183" lon="6.47451">
        <ele>1529.6</ele>
        <time>2013-08-28T14:33:09Z</time>
      </trkpt>
      <trkpt lat="45.37181" lon="6.4745">
        <ele>1530.6</ele>
        <time>2013-08-28T14:33:10Z</time>
      </trkpt>
      <trkpt lat="45.3718" lon="6.47448">
        <ele>1530.1</ele>
        <time>2013-08-28T14:33:11Z</time>
      </trkpt>
      <trkpt lat="45.37179" lon="6.47447">
        <ele>1531</ele>
        <time>2013-08-28T14:33:12Z</time>
      </trkpt>
      <trkpt lat="45.37179" lon="6.47445">
        <ele>1530.6</ele>
        <time>2013-08-28T14:33:13Z</time>
      </trkpt>
      <trkpt lat="45.37162" lon="6.47425">
        <ele>1533.4</ele>
        <time>2013-08-28T14:33:30Z</time>
      </trkpt>
      <trkpt lat="45.37141" lon="6.47416">
        <ele>1536.8</ele>
        <time>2013-08-28T14:33:46Z</time>
      </trkpt>
      <trkpt lat="45.37125" lon="6.4741">
        <ele>1538.3</ele>
        <time>2013-08-28T14:33:58Z</time>
      </trkpt>
      <trkpt lat="45.37109" lon="6.47391">
        <ele>1539.7</ele>
        <time>2013-08-28T14:34:13Z</time>
      </trkpt>
      <trkpt lat="45.37093" lon="6.47372">
        <ele>1542.1</ele>
        <time>2013-08-28T14:34:29Z</time>
      </trkpt>
      <trkpt lat="45.37078" lon="6.4736">
        <ele>1544.5</ele>
        <time>2013-08-28T14:34:44Z</time>
      </trkpt>
      <trkpt lat="45.37057" lon="6.47355">
        <ele>1546.9</ele>
        <time>2013-08-28T14:35:01Z</time>
      </trkpt>
      <trkpt lat="45.3704" lon="6.47352">
        <ele>1548.8</ele>
        <time>2013-08-28T14:35:13Z</time>
      </trkpt>
      <trkpt lat="45.37021" lon="6.47344">
        <ele>1550.7</ele>
        <time>2013-08-28T14:35:28Z</time>
      </trkpt>
      <trkpt lat="45.37002" lon="6.47325">
        <ele>1553.6</ele>
        <time>2013-08-28T14:35:45Z</time>
      </trkpt>
      <trkpt lat="45.3699" lon="6.47292">
        <ele>1555.6</ele>
        <time>2013-08-28T14:36:04Z</time>
      </trkpt>
      <trkpt lat="45.36979" lon="6.47262">
        <ele>1558.4</ele>
        <time>2013-08-28T14:36:21Z</time>
      </trkpt>
      <trkpt lat="45.36963" lon="6.47239">
        <ele>1559.9</ele>
        <time>2013-08-28T14:36:38Z</time>
      </trkpt>
      <trkpt lat="45.36954" lon="6.4722">
        <ele>1562.8</ele>
        <time>2013-08-28T14:36:52Z</time>
      </trkpt>
      <trkpt lat="45.36948" lon="6.4721">
        <ele>1564.2</ele>
        <time>2013-08-28T14:36:59Z</time>
      </trkpt>
      <trkpt lat="45.36944" lon="6.47198">
        <ele>1565.6</ele>
        <time>2013-08-28T14:37:07Z</time>
      </trkpt>
      <trkpt lat="45.36943" lon="6.47197">
        <ele>1565.6</ele>
        <time>2013-08-28T14:37:08Z</time>
      </trkpt>
      <trkpt lat="45.36942" lon="6.47196">
        <ele>1566.1</ele>
        <time>2013-08-28T14:37:09Z</time>
      </trkpt>
      <trkpt lat="45.36941" lon="6.47195">
        <ele>1566.6</ele>
        <time>2013-08-28T14:37:10Z</time>
      </trkpt>
      <trkpt lat="45.36938" lon="6.47188">
        <ele>1567.1</ele>
        <time>2013-08-28T14:37:22Z</time>
      </trkpt>
      <trkpt lat="45.36932" lon="6.47173">
        <ele>1567.6</ele>
        <time>2013-08-28T14:37:38Z</time>
      </trkpt>
      <trkpt lat="45.36924" lon="6.47152">
        <ele>1570.9</ele>
        <time>2013-08-28T14:37:55Z</time>
      </trkpt>
      <trkpt lat="45.36914" lon="6.47136">
        <ele>1572.9</ele>
        <time>2013-08-28T14:38:13Z</time>
      </trkpt>
      <trkpt lat="45.36904" lon="6.47125">
        <ele>1574.3</ele>
        <time>2013-08-28T14:38:28Z</time>
      </trkpt>
      <trkpt lat="45.36891" lon="6.47117">
        <ele>1576.7</ele>
        <time>2013-08-28T14:38:45Z</time>
      </trkpt>
      <trkpt lat="45.36888" lon="6.47113">
        <ele>1576.2</ele>
        <time>2013-08-28T14:38:53Z</time>
      </trkpt>
      <trkpt lat="45.3688" lon="6.47105">
        <ele>1577.7</ele>
        <time>2013-08-28T14:39:01Z</time>
      </trkpt>
      <trkpt lat="45.36879" lon="6.47105">
        <ele>1577.7</ele>
        <time>2013-08-28T14:39:02Z</time>
      </trkpt>
      <trkpt lat="45.36864" lon="6.47095">
        <ele>1578.6</ele>
        <time>2013-08-28T14:39:14Z</time>
      </trkpt>
      <trkpt lat="45.3685" lon="6.47084">
        <ele>1581.5</ele>
        <time>2013-08-28T14:39:28Z</time>
      </trkpt>
      <trkpt lat="45.36839" lon="6.47082">
        <ele>1581.5</ele>
        <time>2013-08-28T14:39:42Z</time>
      </trkpt>
      <trkpt lat="45.36836" lon="6.4708">
        <ele>1582</ele>
        <time>2013-08-28T14:40:10Z</time>
      </trkpt>
      <trkpt lat="45.36822" lon="6.47071">
        <ele>1584.9</ele>
        <time>2013-08-28T14:40:24Z</time>
      </trkpt>
      <trkpt lat="45.36822" lon="6.47063">
        <ele>1584.4</ele>
        <time>2013-08-28T14:40:38Z</time>
      </trkpt>
      <trkpt lat="45.36815" lon="6.47069">
        <ele>1585.4</ele>
        <time>2013-08-28T14:40:58Z</time>
      </trkpt>
      <trkpt lat="45.36813" lon="6.4707">
        <ele>1585.8</ele>
        <time>2013-08-28T14:40:59Z</time>
      </trkpt>
      <trkpt lat="45.36812" lon="6.47071">
        <ele>1585.4</ele>
        <time>2013-08-28T14:41:00Z</time>
      </trkpt>
      <trkpt lat="45.36792" lon="6.47057">
        <ele>1588.7</ele>
        <time>2013-08-28T14:41:17Z</time>
      </trkpt>
      <trkpt lat="45.36783" lon="6.47026">
        <ele>1590.6</ele>
        <time>2013-08-28T14:41:33Z</time>
      </trkpt>
      <trkpt lat="45.36769" lon="6.47002">
        <ele>1593</ele>
        <time>2013-08-28T14:41:46Z</time>
      </trkpt>
      <trkpt lat="45.36748" lon="6.46969">
        <ele>1594</ele>
        <time>2013-08-28T14:42:03Z</time>
      </trkpt>
      <trkpt lat="45.36735" lon="6.4694">
        <ele>1597.4</ele>
        <time>2013-08-28T14:42:16Z</time>
      </trkpt>
      <trkpt lat="45.36717" lon="6.46921">
        <ele>1601.2</ele>
        <time>2013-08-28T14:42:30Z</time>
      </trkpt>
      <trkpt lat="45.3669" lon="6.4692">
        <ele>1601.2</ele>
        <time>2013-08-28T14:42:47Z</time>
      </trkpt>
      <trkpt lat="45.36666" lon="6.46898">
        <ele>1604.6</ele>
        <time>2013-08-28T14:43:03Z</time>
      </trkpt>
      <trkpt lat="45.36648" lon="6.46869">
        <ele>1606</ele>
        <time>2013-08-28T14:43:19Z</time>
      </trkpt>
      <trkpt lat="45.36633" lon="6.46854">
        <ele>1608.9</ele>
        <time>2013-08-28T14:43:30Z</time>
      </trkpt>
      <trkpt lat="45.36619" lon="6.46842">
        <ele>1609.4</ele>
        <time>2013-08-28T14:43:39Z</time>
      </trkpt>
      <trkpt lat="45.36595" lon="6.46821">
        <ele>1612.8</ele>
        <time>2013-08-28T14:43:55Z</time>
      </trkpt>
      <trkpt lat="45.36593" lon="6.4682">
        <ele>1612.3</ele>
        <time>2013-08-28T14:43:56Z</time>
      </trkpt>
      <trkpt lat="45.36586" lon="6.46816">
        <ele>1613.7</ele>
        <time>2013-08-28T14:44:01Z</time>
      </trkpt>
      <trkpt lat="45.36573" lon="6.46808">
        <ele>1614.7</ele>
        <time>2013-08-28T14:44:08Z</time>
      </trkpt>
      <trkpt lat="45.36536" lon="6.4678">
        <ele>1616.1</ele>
        <time>2013-08-28T14:44:28Z</time>
      </trkpt>
      <trkpt lat="45.36498" lon="6.46761">
        <ele>1618</ele>
        <time>2013-08-28T14:44:47Z</time>
      </trkpt>
      <trkpt lat="45.36473" lon="6.46744">
        <ele>1621.4</ele>
        <time>2013-08-28T14:45:01Z</time>
      </trkpt>
      <trkpt lat="45.36439" lon="6.46725">
        <ele>1622.8</ele>
        <time>2013-08-28T14:45:20Z</time>
      </trkpt>
      <trkpt lat="45.36431" lon="6.46716">
        <ele>1625.7</ele>
        <time>2013-08-28T14:45:26Z</time>
      </trkpt>
      <trkpt lat="45.3642" lon="6.46703">
        <ele>1627.2</ele>
        <time>2013-08-28T14:45:34Z</time>
      </trkpt>
      <trkpt lat="45.3639" lon="6.46676">
        <ele>1629.1</ele>
        <time>2013-08-28T14:45:52Z</time>
      </trkpt>
      <trkpt lat="45.36366" lon="6.46654">
        <ele>1632</ele>
        <time>2013-08-28T14:46:07Z</time>
      </trkpt>
      <trkpt lat="45.36337" lon="6.46632">
        <ele>1633.9</ele>
        <time>2013-08-28T14:46:25Z</time>
      </trkpt>
      <trkpt lat="45.36333" lon="6.46631">
        <ele>1634.9</ele>
        <time>2013-08-28T14:46:38Z</time>
      </trkpt>
      <trkpt lat="45.36331" lon="6.46629">
        <ele>1634.4</ele>
        <time>2013-08-28T14:47:03Z</time>
      </trkpt>
      <trkpt lat="45.36331" lon="6.46629">
        <ele>1635.3</ele>
        <time>2013-08-28T14:47:30Z</time>
      </trkpt>
      <trkpt lat="45.36333" lon="6.46628">
        <ele>1635.3</ele>
        <time>2013-08-28T14:48:06Z</time>
      </trkpt>
      <trkpt lat="45.36329" lon="6.46628">
        <ele>1636.3</ele>
        <time>2013-08-28T14:48:37Z</time>
      </trkpt>
      <trkpt lat="45.36296" lon="6.4662">
        <ele>1638.7</ele>
        <time>2013-08-28T14:48:53Z</time>
      </trkpt>
      <trkpt lat="45.36272" lon="6.46618">
        <ele>1640.6</ele>
        <time>2013-08-28T14:49:09Z</time>
      </trkpt>
      <trkpt lat="45.36243" lon="6.46633">
        <ele>1643.5</ele>
        <time>2013-08-28T14:49:26Z</time>
      </trkpt>
      <trkpt lat="45.36232" lon="6.46647">
        <ele>1645.4</ele>
        <time>2013-08-28T14:49:36Z</time>
      </trkpt>
      <trkpt lat="45.36231" lon="6.46649">
        <ele>1645.4</ele>
        <time>2013-08-28T14:49:49Z</time>
      </trkpt>
      <trkpt lat="45.36232" lon="6.46647">
        <ele>1645.9</ele>
        <time>2013-08-28T14:50:12Z</time>
      </trkpt>
      <trkpt lat="45.36232" lon="6.46649">
        <ele>1645.4</ele>
        <time>2013-08-28T14:50:13Z</time>
      </trkpt>
      <trkpt lat="45.3622" lon="6.46686">
        <ele>1647.8</ele>
        <time>2013-08-28T14:50:28Z</time>
      </trkpt>
      <trkpt lat="45.36216" lon="6.46736">
        <ele>1647.4</ele>
        <time>2013-08-28T14:50:41Z</time>
      </trkpt>
      <trkpt lat="45.36192" lon="6.46773">
        <ele>1648.3</ele>
        <time>2013-08-28T14:50:53Z</time>
      </trkpt>
      <trkpt lat="45.36159" lon="6.46751">
        <ele>1650.2</ele>
        <time>2013-08-28T14:51:05Z</time>
      </trkpt>
      <trkpt lat="45.36123" lon="6.46765">
        <ele>1652.6</ele>
        <time>2013-08-28T14:51:21Z</time>
      </trkpt>
      <trkpt lat="45.36092" lon="6.46779">
        <ele>1655.1</ele>
        <time>2013-08-28T14:51:37Z</time>
      </trkpt>
      <trkpt lat="45.36057" lon="6.4679">
        <ele>1657.5</ele>
        <time>2013-08-28T14:51:54Z</time>
      </trkpt>
      <trkpt lat="45.36022" lon="6.46798">
        <ele>1659.9</ele>
        <time>2013-08-28T14:52:11Z</time>
      </trkpt>
      <trkpt lat="45.35985" lon="6.46807">
        <ele>1662.7</ele>
        <time>2013-08-28T14:52:30Z</time>
      </trkpt>
      <trkpt lat="45.35944" lon="6.46823">
        <ele>1665.1</ele>
        <time>2013-08-28T14:52:51Z</time>
      </trkpt>
      <trkpt lat="45.35898" lon="6.46837">
        <ele>1668</ele>
        <time>2013-08-28T14:53:12Z</time>
      </trkpt>
      <trkpt lat="45.35858" lon="6.4686">
        <ele>1670</ele>
        <time>2013-08-28T14:53:31Z</time>
      </trkpt>
      <trkpt lat="45.35826" lon="6.46873">
        <ele>1672.8</ele>
        <time>2013-08-28T14:53:48Z</time>
      </trkpt>
      <trkpt lat="45.3581" lon="6.46906">
        <ele>1674.8</ele>
        <time>2013-08-28T14:54:04Z</time>
      </trkpt>
      <trkpt lat="45.35787" lon="6.46911">
        <ele>1676.2</ele>
        <time>2013-08-28T14:54:15Z</time>
      </trkpt>
      <trkpt lat="45.35757" lon="6.46896">
        <ele>1677.6</ele>
        <time>2013-08-28T14:54:29Z</time>
      </trkpt>
      <trkpt lat="45.35725" lon="6.46917">
        <ele>1679.1</ele>
        <time>2013-08-28T14:54:44Z</time>
      </trkpt>
      <trkpt lat="45.35691" lon="6.46912">
        <ele>1680</ele>
        <time>2013-08-28T14:54:57Z</time>
      </trkpt>
      <trkpt lat="45.35654" lon="6.46892">
        <ele>1682</ele>
        <time>2013-08-28T14:55:11Z</time>
      </trkpt>
      <trkpt lat="45.35624" lon="6.46876">
        <ele>1683.9</ele>
        <time>2013-08-28T14:55:27Z</time>
      </trkpt>
      <trkpt lat="45.35592" lon="6.46881">
        <ele>1684.9</ele>
        <time>2013-08-28T14:55:42Z</time>
      </trkpt>
      <trkpt lat="45.3556" lon="6.46861">
        <ele>1687.3</ele>
        <time>2013-08-28T14:55:58Z</time>
      </trkpt>
      <trkpt lat="45.3553" lon="6.46852">
        <ele>1688.2</ele>
        <time>2013-08-28T14:56:17Z</time>
      </trkpt>
      <trkpt lat="45.3552" lon="6.46855">
        <ele>1688.2</ele>
        <time>2013-08-28T14:56:23Z</time>
      </trkpt>
      <trkpt lat="45.35518" lon="6.46854">
        <ele>1687.7</ele>
        <time>2013-08-28T14:56:24Z</time>
      </trkpt>
      <trkpt lat="45.35516" lon="6.46854">
        <ele>1687.7</ele>
        <time>2013-08-28T14:56:25Z</time>
      </trkpt>
      <trkpt lat="45.35512" lon="6.46852">
        <ele>1687.3</ele>
        <time>2013-08-28T14:56:31Z</time>
      </trkpt>
      <trkpt lat="45.35497" lon="6.46835">
        <ele>1687.3</ele>
        <time>2013-08-28T14:56:40Z</time>
      </trkpt>
      <trkpt lat="45.35496" lon="6.46831">
        <ele>1687.3</ele>
        <time>2013-08-28T14:56:41Z</time>
      </trkpt>
      <trkpt lat="45.35496" lon="6.46827">
        <ele>1687.3</ele>
        <time>2013-08-28T14:56:42Z</time>
      </trkpt>
      <trkpt lat="45.35497" lon="6.46774">
        <ele>1686.8</ele>
        <time>2013-08-28T14:56:53Z</time>
      </trkpt>
      <trkpt lat="45.35495" lon="6.46768">
        <ele>1686.8</ele>
        <time>2013-08-28T14:56:54Z</time>
      </trkpt>
      <trkpt lat="45.35492" lon="6.46763">
        <ele>1686.3</ele>
        <time>2013-08-28T14:56:55Z</time>
      </trkpt>
      <trkpt lat="45.35488" lon="6.46759">
        <ele>1686.3</ele>
        <time>2013-08-28T14:56:56Z</time>
      </trkpt>
      <trkpt lat="45.35484" lon="6.46755">
        <ele>1685.8</ele>
        <time>2013-08-28T14:56:57Z</time>
      </trkpt>
      <trkpt lat="45.35479" lon="6.46751">
        <ele>1685.3</ele>
        <time>2013-08-28T14:56:58Z</time>
      </trkpt>
      <trkpt lat="45.35419" lon="6.46718">
        <ele>1682</ele>
        <time>2013-08-28T14:57:08Z</time>
      </trkpt>
      <trkpt lat="45.35408" lon="6.46711">
        <ele>1682</ele>
        <time>2013-08-28T14:57:10Z</time>
      </trkpt>
      <trkpt lat="45.35402" lon="6.46709">
        <ele>1682</ele>
        <time>2013-08-28T14:57:11Z</time>
      </trkpt>
      <trkpt lat="45.35352" lon="6.46702">
        <ele>1682.4</ele>
        <time>2013-08-28T14:57:22Z</time>
      </trkpt>
      <trkpt lat="45.3532" lon="6.46706">
        <ele>1683.4</ele>
        <time>2013-08-28T14:57:37Z</time>
      </trkpt>
      <trkpt lat="45.3529" lon="6.46747">
        <ele>1682.9</ele>
        <time>2013-08-28T14:57:53Z</time>
      </trkpt>
      <trkpt lat="45.35285" lon="6.46767">
        <ele>1682.4</ele>
        <time>2013-08-28T14:57:57Z</time>
      </trkpt>
      <trkpt lat="45.35283" lon="6.46772">
        <ele>1682</ele>
        <time>2013-08-28T14:57:58Z</time>
      </trkpt>
      <trkpt lat="45.3528" lon="6.46777">
        <ele>1681.5</ele>
        <time>2013-08-28T14:57:59Z</time>
      </trkpt>
      <trkpt lat="45.35277" lon="6.46782">
        <ele>1681.5</ele>
        <time>2013-08-28T14:58:00Z</time>
      </trkpt>
      <trkpt lat="45.35273" lon="6.46785">
        <ele>1681.5</ele>
        <time>2013-08-28T14:58:01Z</time>
      </trkpt>
      <trkpt lat="45.35268" lon="6.46788">
        <ele>1681</ele>
        <time>2013-08-28T14:58:02Z</time>
      </trkpt>
      <trkpt lat="45.35255" lon="6.46796">
        <ele>1681</ele>
        <time>2013-08-28T14:58:05Z</time>
      </trkpt>
      <trkpt lat="45.35248" lon="6.46802">
        <ele>1680.5</ele>
        <time>2013-08-28T14:58:07Z</time>
      </trkpt>
      <trkpt lat="45.35212" lon="6.46838">
        <ele>1681.5</ele>
        <time>2013-08-28T14:58:21Z</time>
      </trkpt>
      <trkpt lat="45.35184" lon="6.46859">
        <ele>1681.5</ele>
        <time>2013-08-28T14:58:35Z</time>
      </trkpt>
      <trkpt lat="45.35181" lon="6.4686">
        <ele>1682.4</ele>
        <time>2013-08-28T14:58:48Z</time>
      </trkpt>
      <trkpt lat="45.35185" lon="6.46863">
        <ele>1682</ele>
        <time>2013-08-28T14:59:22Z</time>
      </trkpt>
      <trkpt lat="45.35178" lon="6.4686">
        <ele>1682</ele>
        <time>2013-08-28T14:59:28Z</time>
      </trkpt>
      <trkpt lat="45.35159" lon="6.46833">
        <ele>1684.9</ele>
        <time>2013-08-28T14:59:44Z</time>
      </trkpt>
      <trkpt lat="45.35128" lon="6.46822">
        <ele>1685.3</ele>
        <time>2013-08-28T15:00:02Z</time>
      </trkpt>
      <trkpt lat="45.35111" lon="6.46818">
        <ele>1685.3</ele>
        <time>2013-08-28T15:00:16Z</time>
      </trkpt>
      <trkpt lat="45.35112" lon="6.46816">
        <ele>1676.2</ele>
        <time>2013-08-28T15:00:19Z</time>
      </trkpt>
      <trkpt lat="45.35112" lon="6.46816">
        <ele>1678.1</ele>
        <time>2013-08-28T15:00:20Z</time>
      </trkpt>
      <trkpt lat="45.35112" lon="6.46816">
        <ele>1700.2</ele>
        <time>2013-08-28T15:00:21Z</time>
      </trkpt>
      <trkpt lat="45.35112" lon="6.46816">
        <ele>1686.3</ele>
        <time>2013-08-28T15:00:22Z</time>
      </trkpt>
      <trkpt lat="45.35112" lon="6.46817">
        <ele>1625.3</ele>
        <time>2013-08-29T06:22:13Z</time>
      </trkpt>
      <trkpt lat="45.351" lon="6.46821">
        <ele>1626.2</ele>
        <time>2013-08-29T06:22:20Z</time>
      </trkpt>
      <trkpt lat="45.35116" lon="6.46823">
        <ele>1630.1</ele>
        <time>2013-08-29T06:22:38Z</time>
      </trkpt>
      <trkpt lat="45.35115" lon="6.46822">
        <ele>1633.9</ele>
        <time>2013-08-29T06:22:40Z</time>
      </trkpt>
      <trkpt lat="45.35114" lon="6.46822">
        <ele>1637.7</ele>
        <time>2013-08-29T06:22:43Z</time>
      </trkpt>
      <trkpt lat="45.35114" lon="6.46821">
        <ele>1639.7</ele>
        <time>2013-08-29T06:22:45Z</time>
      </trkpt>
      <trkpt lat="45.35113" lon="6.4682">
        <ele>1644.5</ele>
        <time>2013-08-29T06:22:47Z</time>
      </trkpt>
      <trkpt lat="45.35113" lon="6.46819">
        <ele>1647.8</ele>
        <time>2013-08-29T06:22:50Z</time>
      </trkpt>
      <trkpt lat="45.35115" lon="6.4682">
        <ele>1651.7</ele>
        <time>2013-08-29T06:22:53Z</time>
      </trkpt>
      <trkpt lat="45.35118" lon="6.46819">
        <ele>1655.1</ele>
        <time>2013-08-29T06:22:56Z</time>
      </trkpt>
      <trkpt lat="45.35125" lon="6.4682">
        <ele>1658.9</ele>
        <time>2013-08-29T06:23:00Z</time>
      </trkpt>
      <trkpt lat="45.35136" lon="6.46823">
        <ele>1661.3</ele>
        <time>2013-08-29T06:23:04Z</time>
      </trkpt>
      <trkpt lat="45.35147" lon="6.46827">
        <ele>1664.7</ele>
        <time>2013-08-29T06:23:08Z</time>
      </trkpt>
      <trkpt lat="45.35153" lon="6.4683">
        <ele>1666.1</ele>
        <time>2013-08-29T06:23:10Z</time>
      </trkpt>
      <trkpt lat="45.35163" lon="6.46838">
        <ele>1667.1</ele>
        <time>2013-08-29T06:23:13Z</time>
      </trkpt>
      <trkpt lat="45.35176" lon="6.46854">
        <ele>1668</ele>
        <time>2013-08-29T06:23:17Z</time>
      </trkpt>
      <trkpt lat="45.3518" lon="6.46857">
        <ele>1668.5</ele>
        <time>2013-08-29T06:23:18Z</time>
      </trkpt>
      <trkpt lat="45.35183" lon="6.46859">
        <ele>1668</ele>
        <time>2013-08-29T06:23:19Z</time>
      </trkpt>
      <trkpt lat="45.35186" lon="6.46858">
        <ele>1668.5</ele>
        <time>2013-08-29T06:23:20Z</time>
      </trkpt>
      <trkpt lat="45.35188" lon="6.46854">
        <ele>1667.5</ele>
        <time>2013-08-29T06:23:21Z</time>
      </trkpt>
      <trkpt lat="45.35188" lon="6.4685">
        <ele>1667.5</ele>
        <time>2013-08-29T06:23:22Z</time>
      </trkpt>
      <trkpt lat="45.35187" lon="6.46847">
        <ele>1668.5</ele>
        <time>2013-08-29T06:23:23Z</time>
      </trkpt>
      <trkpt lat="45.35185" lon="6.46843">
        <ele>1668.5</ele>
        <time>2013-08-29T06:23:24Z</time>
      </trkpt>
      <trkpt lat="45.35182" lon="6.46841">
        <ele>1668.5</ele>
        <time>2013-08-29T06:23:25Z</time>
      </trkpt>
      <trkpt lat="45.35179" lon="6.4684">
        <ele>1669.5</ele>
        <time>2013-08-29T06:23:26Z</time>
      </trkpt>
      <trkpt lat="45.35177" lon="6.46837">
        <ele>1670</ele>
        <time>2013-08-29T06:23:27Z</time>
      </trkpt>
      <trkpt lat="45.35175" lon="6.46834">
        <ele>1670</ele>
        <time>2013-08-29T06:23:28Z</time>
      </trkpt>
      <trkpt lat="45.35174" lon="6.4683">
        <ele>1670.4</ele>
        <time>2013-08-29T06:23:29Z</time>
      </trkpt>
      <trkpt lat="45.35173" lon="6.46826">
        <ele>1670.9</ele>
        <time>2013-08-29T06:23:30Z</time>
      </trkpt>
      <trkpt lat="45.35155" lon="6.46796">
        <ele>1674.3</ele>
        <time>2013-08-29T06:23:39Z</time>
      </trkpt>
      <trkpt lat="45.35142" lon="6.46781">
        <ele>1674.3</ele>
        <time>2013-08-29T06:23:43Z</time>
      </trkpt>
      <trkpt lat="45.3514" lon="6.46776">
        <ele>1674.3</ele>
        <time>2013-08-29T06:23:44Z</time>
      </trkpt>
      <trkpt lat="45.35138" lon="6.46771">
        <ele>1674.8</ele>
        <time>2013-08-29T06:23:45Z</time>
      </trkpt>
      <trkpt lat="45.35136" lon="6.46765">
        <ele>1675.2</ele>
        <time>2013-08-29T06:23:46Z</time>
      </trkpt>
      <trkpt lat="45.35135" lon="6.46759">
        <ele>1675.2</ele>
        <time>2013-08-29T06:23:47Z</time>
      </trkpt>
      <trkpt lat="45.35134" lon="6.46753">
        <ele>1676.2</ele>
        <time>2013-08-29T06:23:48Z</time>
      </trkpt>
      <trkpt lat="45.35122" lon="6.46727">
        <ele>1676.7</ele>
        <time>2013-08-29T06:23:54Z</time>
      </trkpt>
      <trkpt lat="45.35118" lon="6.46726">
        <ele>1676.2</ele>
        <time>2013-08-29T06:23:55Z</time>
      </trkpt>
      <trkpt lat="45.35113" lon="6.46727">
        <ele>1676.2</ele>
        <time>2013-08-29T06:23:56Z</time>
      </trkpt>
      <trkpt lat="45.35108" lon="6.46728">
        <ele>1675.7</ele>
        <time>2013-08-29T06:23:57Z</time>
      </trkpt>
      <trkpt lat="45.35103" lon="6.46729">
        <ele>1675.7</ele>
        <time>2013-08-29T06:23:58Z</time>
      </trkpt>
      <trkpt lat="45.35091" lon="6.46734">
        <ele>1675.7</ele>
        <time>2013-08-29T06:24:00Z</time>
      </trkpt>
      <trkpt lat="45.35086" lon="6.46739">
        <ele>1675.2</ele>
        <time>2013-08-29T06:24:01Z</time>
      </trkpt>
      <trkpt lat="45.35081" lon="6.46746">
        <ele>1674.8</ele>
        <time>2013-08-29T06:24:02Z</time>
      </trkpt>
      <trkpt lat="45.35028" lon="6.46806">
        <ele>1672.4</ele>
        <time>2013-08-29T06:24:11Z</time>
      </trkpt>
      <trkpt lat="45.35021" lon="6.4681">
        <ele>1671.9</ele>
        <time>2013-08-29T06:24:12Z</time>
      </trkpt>
      <trkpt lat="45.35014" lon="6.46811">
        <ele>1670.9</ele>
        <time>2013-08-29T06:24:13Z</time>
      </trkpt>
      <trkpt lat="45.35007" lon="6.46812">
        <ele>1671.4</ele>
        <time>2013-08-29T06:24:14Z</time>
      </trkpt>
      <trkpt lat="45.35" lon="6.46813">
        <ele>1671.4</ele>
        <time>2013-08-29T06:24:15Z</time>
      </trkpt>
      <trkpt lat="45.34993" lon="6.46815">
        <ele>1670.9</ele>
        <time>2013-08-29T06:24:16Z</time>
      </trkpt>
      <trkpt lat="45.34986" lon="6.46818">
        <ele>1670</ele>
        <time>2013-08-29T06:24:17Z</time>
      </trkpt>
      <trkpt lat="45.3498" lon="6.46823">
        <ele>1670.4</ele>
        <time>2013-08-29T06:24:18Z</time>
      </trkpt>
      <trkpt lat="45.34973" lon="6.46829">
        <ele>1669.5</ele>
        <time>2013-08-29T06:24:19Z</time>
      </trkpt>
      <trkpt lat="45.34967" lon="6.46836">
        <ele>1669</ele>
        <time>2013-08-29T06:24:20Z</time>
      </trkpt>
      <trkpt lat="45.34962" lon="6.46844">
        <ele>1669</ele>
        <time>2013-08-29T06:24:21Z</time>
      </trkpt>
      <trkpt lat="45.34956" lon="6.46852">
        <ele>1668</ele>
        <time>2013-08-29T06:24:22Z</time>
      </trkpt>
      <trkpt lat="45.34949" lon="6.46859">
        <ele>1667.5</ele>
        <time>2013-08-29T06:24:23Z</time>
      </trkpt>
      <trkpt lat="45.34942" lon="6.46864">
        <ele>1668</ele>
        <time>2013-08-29T06:24:24Z</time>
      </trkpt>
      <trkpt lat="45.34935" lon="6.46869">
        <ele>1667.5</ele>
        <time>2013-08-29T06:24:25Z</time>
      </trkpt>
      <trkpt lat="45.34927" lon="6.46872">
        <ele>1667.5</ele>
        <time>2013-08-29T06:24:26Z</time>
      </trkpt>
      <trkpt lat="45.3492" lon="6.46875">
        <ele>1668.5</ele>
        <time>2013-08-29T06:24:27Z</time>
      </trkpt>
      <trkpt lat="45.34907" lon="6.46881">
        <ele>1667.1</ele>
        <time>2013-08-29T06:24:29Z</time>
      </trkpt>
      <trkpt lat="45.34902" lon="6.46885">
        <ele>1666.6</ele>
        <time>2013-08-29T06:24:30Z</time>
      </trkpt>
      <trkpt lat="45.34897" lon="6.4689">
        <ele>1666.6</ele>
        <time>2013-08-29T06:24:31Z</time>
      </trkpt>
      <trkpt lat="45.34887" lon="6.46899">
        <ele>1668</ele>
        <time>2013-08-29T06:24:33Z</time>
      </trkpt>
      <trkpt lat="45.34882" lon="6.46902">
        <ele>1667.1</ele>
        <time>2013-08-29T06:24:34Z</time>
      </trkpt>
      <trkpt lat="45.34878" lon="6.46904">
        <ele>1666.6</ele>
        <time>2013-08-29T06:24:35Z</time>
      </trkpt>
      <trkpt lat="45.34874" lon="6.46905">
        <ele>1667.1</ele>
        <time>2013-08-29T06:24:36Z</time>
      </trkpt>
      <trkpt lat="45.34872" lon="6.46905">
        <ele>1667.5</ele>
        <time>2013-08-29T06:24:37Z</time>
      </trkpt>
      <trkpt lat="45.34869" lon="6.46905">
        <ele>1667.1</ele>
        <time>2013-08-29T06:24:38Z</time>
      </trkpt>
      <trkpt lat="45.34867" lon="6.46903">
        <ele>1666.6</ele>
        <time>2013-08-29T06:24:39Z</time>
      </trkpt>
      <trkpt lat="45.34865" lon="6.46899">
        <ele>1667.1</ele>
        <time>2013-08-29T06:24:40Z</time>
      </trkpt>
      <trkpt lat="45.34863" lon="6.46894">
        <ele>1666.6</ele>
        <time>2013-08-29T06:24:41Z</time>
      </trkpt>
      <trkpt lat="45.34863" lon="6.46889">
        <ele>1666.6</ele>
        <time>2013-08-29T06:24:42Z</time>
      </trkpt>
      <trkpt lat="45.34863" lon="6.46882">
        <ele>1666.1</ele>
        <time>2013-08-29T06:24:43Z</time>
      </trkpt>
      <trkpt lat="45.34864" lon="6.46876">
        <ele>1666.1</ele>
        <time>2013-08-29T06:24:44Z</time>
      </trkpt>
      <trkpt lat="45.34864" lon="6.46863">
        <ele>1666.6</ele>
        <time>2013-08-29T06:24:46Z</time>
      </trkpt>
      <trkpt lat="45.34864" lon="6.46857">
        <ele>1667.1</ele>
        <time>2013-08-29T06:24:47Z</time>
      </trkpt>
      <trkpt lat="45.34862" lon="6.46852">
        <ele>1668</ele>
        <time>2013-08-29T06:24:48Z</time>
      </trkpt>
      <trkpt lat="45.3486" lon="6.46848">
        <ele>1668</ele>
        <time>2013-08-29T06:24:49Z</time>
      </trkpt>
      <trkpt lat="45.34858" lon="6.46845">
        <ele>1668.5</ele>
        <time>2013-08-29T06:24:50Z</time>
      </trkpt>
      <trkpt lat="45.34855" lon="6.46844">
        <ele>1669</ele>
        <time>2013-08-29T06:24:51Z</time>
      </trkpt>
      <trkpt lat="45.34852" lon="6.46843">
        <ele>1669</ele>
        <time>2013-08-29T06:24:52Z</time>
      </trkpt>
      <trkpt lat="45.34848" lon="6.46844">
        <ele>1669</ele>
        <time>2013-08-29T06:24:53Z</time>
      </trkpt>
      <trkpt lat="45.34845" lon="6.46844">
        <ele>1669.5</ele>
        <time>2013-08-29T06:24:54Z</time>
      </trkpt>
      <trkpt lat="45.34842" lon="6.46845">
        <ele>1668.5</ele>
        <time>2013-08-29T06:24:55Z</time>
      </trkpt>
      <trkpt lat="45.34798" lon="6.46873">
        <ele>1668.5</ele>
        <time>2013-08-29T06:25:08Z</time>
      </trkpt>
      <trkpt lat="45.34795" lon="6.46875">
        <ele>1668</ele>
        <time>2013-08-29T06:25:09Z</time>
      </trkpt>
      <trkpt lat="45.34723" lon="6.46913">
        <ele>1670</ele>
        <time>2013-08-29T06:25:28Z</time>
      </trkpt>
      <trkpt lat="45.34672" lon="6.46956">
        <ele>1671.4</ele>
        <time>2013-08-29T06:25:47Z</time>
      </trkpt>
      <trkpt lat="45.34651" lon="6.46967">
        <ele>1671.9</ele>
        <time>2013-08-29T06:25:53Z</time>
      </trkpt>
      <trkpt lat="45.34647" lon="6.46969">
        <ele>1671.9</ele>
        <time>2013-08-29T06:25:54Z</time>
      </trkpt>
      <trkpt lat="45.34601" lon="6.47001">
        <ele>1672.8</ele>
        <time>2013-08-29T06:26:08Z</time>
      </trkpt>
      <trkpt lat="45.34565" lon="6.47005">
        <ele>1676.2</ele>
        <time>2013-08-29T06:26:24Z</time>
      </trkpt>
      <trkpt lat="45.34539" lon="6.46995">
        <ele>1679.1</ele>
        <time>2013-08-29T06:26:40Z</time>
      </trkpt>
      <trkpt lat="45.34513" lon="6.46996">
        <ele>1681.5</ele>
        <time>2013-08-29T06:26:54Z</time>
      </trkpt>
      <trkpt lat="45.3449" lon="6.46999">
        <ele>1684.4</ele>
        <time>2013-08-29T06:27:09Z</time>
      </trkpt>
      <trkpt lat="45.34463" lon="6.46996">
        <ele>1687.3</ele>
        <time>2013-08-29T06:27:24Z</time>
      </trkpt>
      <trkpt lat="45.34432" lon="6.47005">
        <ele>1689.7</ele>
        <time>2013-08-29T06:27:42Z</time>
      </trkpt>
      <trkpt lat="45.34406" lon="6.47014">
        <ele>1692.5</ele>
        <time>2013-08-29T06:27:57Z</time>
      </trkpt>
      <trkpt lat="45.34377" lon="6.47031">
        <ele>1695.4</ele>
        <time>2013-08-29T06:28:16Z</time>
      </trkpt>
      <trkpt lat="45.34347" lon="6.47045">
        <ele>1698.8</ele>
        <time>2013-08-29T06:28:34Z</time>
      </trkpt>
      <trkpt lat="45.34321" lon="6.47054">
        <ele>1702.2</ele>
        <time>2013-08-29T06:28:50Z</time>
      </trkpt>
      <trkpt lat="45.34289" lon="6.47063">
        <ele>1704.1</ele>
        <time>2013-08-29T06:29:08Z</time>
      </trkpt>
      <trkpt lat="45.34258" lon="6.47068">
        <ele>1707.4</ele>
        <time>2013-08-29T06:29:26Z</time>
      </trkpt>
      <trkpt lat="45.34226" lon="6.47061">
        <ele>1710.3</ele>
        <time>2013-08-29T06:29:44Z</time>
      </trkpt>
      <trkpt lat="45.34195" lon="6.47069">
        <ele>1713.2</ele>
        <time>2013-08-29T06:30:02Z</time>
      </trkpt>
      <trkpt lat="45.34161" lon="6.47085">
        <ele>1716.1</ele>
        <time>2013-08-29T06:30:21Z</time>
      </trkpt>
      <trkpt lat="45.34139" lon="6.47108">
        <ele>1719.5</ele>
        <time>2013-08-29T06:30:37Z</time>
      </trkpt>
      <trkpt lat="45.34123" lon="6.47124">
        <ele>1720.4</ele>
        <time>2013-08-29T06:30:53Z</time>
      </trkpt>
      <trkpt lat="45.34123" lon="6.47128">
        <ele>1720.4</ele>
        <time>2013-08-29T06:31:15Z</time>
      </trkpt>
      <trkpt lat="45.34123" lon="6.47127">
        <ele>1722.8</ele>
        <time>2013-08-29T06:31:18Z</time>
      </trkpt>
      <trkpt lat="45.34123" lon="6.47127">
        <ele>1721.9</ele>
        <time>2013-08-29T06:31:38Z</time>
      </trkpt>
      <trkpt lat="45.34112" lon="6.47123">
        <ele>1721.9</ele>
        <time>2013-08-29T06:31:54Z</time>
      </trkpt>
      <trkpt lat="45.34118" lon="6.47123">
        <ele>1721.4</ele>
        <time>2013-08-29T06:32:04Z</time>
      </trkpt>
      <trkpt lat="45.3412" lon="6.47123">
        <ele>1721.4</ele>
        <time>2013-08-29T06:32:24Z</time>
      </trkpt>
      <trkpt lat="45.34123" lon="6.47124">
        <ele>1720.4</ele>
        <time>2013-08-29T06:32:44Z</time>
      </trkpt>
      <trkpt lat="45.34124" lon="6.47125">
        <ele>1721.4</ele>
        <time>2013-08-29T06:33:19Z</time>
      </trkpt>
      <trkpt lat="45.34132" lon="6.47132">
        <ele>1721.9</ele>
        <time>2013-08-29T06:33:29Z</time>
      </trkpt>
      <trkpt lat="45.34141" lon="6.47133">
        <ele>1725.2</ele>
        <time>2013-08-29T06:33:46Z</time>
      </trkpt>
      <trkpt lat="45.34144" lon="6.47129">
        <ele>1723.8</ele>
        <time>2013-08-29T06:34:14Z</time>
      </trkpt>
      <trkpt lat="45.34145" lon="6.47131">
        <ele>1723.3</ele>
        <time>2013-08-29T06:34:40Z</time>
      </trkpt>
      <trkpt lat="45.34144" lon="6.47129">
        <ele>1723.3</ele>
        <time>2013-08-29T06:35:07Z</time>
      </trkpt>
      <trkpt lat="45.34143" lon="6.47127">
        <ele>1723.3</ele>
        <time>2013-08-29T06:35:40Z</time>
      </trkpt>
      <trkpt lat="45.34145" lon="6.47128">
        <ele>1722.8</ele>
        <time>2013-08-29T06:36:12Z</time>
      </trkpt>
      <trkpt lat="45.34148" lon="6.47128">
        <ele>1723.3</ele>
        <time>2013-08-29T06:36:38Z</time>
      </trkpt>
      <trkpt lat="45.34145" lon="6.47132">
        <ele>1723.8</ele>
        <time>2013-08-29T06:36:55Z</time>
      </trkpt>
      <trkpt lat="45.34143" lon="6.47133">
        <ele>1723.8</ele>
        <time>2013-08-29T06:37:10Z</time>
      </trkpt>
      <trkpt lat="45.34138" lon="6.47138">
        <ele>1724.7</ele>
        <time>2013-08-29T06:37:23Z</time>
      </trkpt>
      <trkpt lat="45.34137" lon="6.4714">
        <ele>1725.2</ele>
        <time>2013-08-29T06:37:25Z</time>
      </trkpt>
      <trkpt lat="45.34134" lon="6.47154">
        <ele>1727.2</ele>
        <time>2013-08-29T06:37:39Z</time>
      </trkpt>
      <trkpt lat="45.34131" lon="6.47166">
        <ele>1730</ele>
        <time>2013-08-29T06:37:54Z</time>
      </trkpt>
      <trkpt lat="45.34131" lon="6.47176">
        <ele>1731.5</ele>
        <time>2013-08-29T06:38:07Z</time>
      </trkpt>
      <trkpt lat="45.34131" lon="6.47184">
        <ele>1732.9</ele>
        <time>2013-08-29T06:38:20Z</time>
      </trkpt>
      <trkpt lat="45.3413" lon="6.47196">
        <ele>1735.3</ele>
        <time>2013-08-29T06:38:35Z</time>
      </trkpt>
      <trkpt lat="45.34132" lon="6.47204">
        <ele>1737.7</ele>
        <time>2013-08-29T06:38:49Z</time>
      </trkpt>
      <trkpt lat="45.3413" lon="6.47219">
        <ele>1738.7</ele>
        <time>2013-08-29T06:39:04Z</time>
      </trkpt>
      <trkpt lat="45.34133" lon="6.47234">
        <ele>1742.1</ele>
        <time>2013-08-29T06:39:21Z</time>
      </trkpt>
      <trkpt lat="45.34135" lon="6.47241">
        <ele>1744</ele>
        <time>2013-08-29T06:39:31Z</time>
      </trkpt>
      <trkpt lat="45.34136" lon="6.47253">
        <ele>1745.4</ele>
        <time>2013-08-29T06:39:46Z</time>
      </trkpt>
      <trkpt lat="45.34136" lon="6.47269">
        <ele>1748.3</ele>
        <time>2013-08-29T06:40:04Z</time>
      </trkpt>
      <trkpt lat="45.34136" lon="6.47282">
        <ele>1750.2</ele>
        <time>2013-08-29T06:40:19Z</time>
      </trkpt>
      <trkpt lat="45.34135" lon="6.47297">
        <ele>1752.6</ele>
        <time>2013-08-29T06:40:35Z</time>
      </trkpt>
      <trkpt lat="45.34138" lon="6.47309">
        <ele>1755</ele>
        <time>2013-08-29T06:40:50Z</time>
      </trkpt>
      <trkpt lat="45.34145" lon="6.47315">
        <ele>1757.4</ele>
        <time>2013-08-29T06:41:05Z</time>
      </trkpt>
      <trkpt lat="45.34153" lon="6.47317">
        <ele>1759.8</ele>
        <time>2013-08-29T06:41:21Z</time>
      </trkpt>
      <trkpt lat="45.34161" lon="6.47317">
        <ele>1761.8</ele>
        <time>2013-08-29T06:41:34Z</time>
      </trkpt>
      <trkpt lat="45.34162" lon="6.47327">
        <ele>1764.2</ele>
        <time>2013-08-29T06:41:49Z</time>
      </trkpt>
      <trkpt lat="45.34161" lon="6.47336">
        <ele>1765.6</ele>
        <time>2013-08-29T06:42:04Z</time>
      </trkpt>
      <trkpt lat="45.34158" lon="6.4734">
        <ele>1768.5</ele>
        <time>2013-08-29T06:42:18Z</time>
      </trkpt>
      <trkpt lat="45.34153" lon="6.4735">
        <ele>1770.4</ele>
        <time>2013-08-29T06:42:34Z</time>
      </trkpt>
      <trkpt lat="45.34152" lon="6.4736">
        <ele>1773.8</ele>
        <time>2013-08-29T06:42:48Z</time>
      </trkpt>
      <trkpt lat="45.34153" lon="6.47366">
        <ele>1775.2</ele>
        <time>2013-08-29T06:43:03Z</time>
      </trkpt>
      <trkpt lat="45.34156" lon="6.47366">
        <ele>1777.6</ele>
        <time>2013-08-29T06:43:09Z</time>
      </trkpt>
      <trkpt lat="45.34163" lon="6.4737">
        <ele>1779.5</ele>
        <time>2013-08-29T06:43:24Z</time>
      </trkpt>
      <trkpt lat="45.3416" lon="6.4738">
        <ele>1781.5</ele>
        <time>2013-08-29T06:43:39Z</time>
      </trkpt>
      <trkpt lat="45.34159" lon="6.47393">
        <ele>1784.3</ele>
        <time>2013-08-29T06:43:56Z</time>
      </trkpt>
      <trkpt lat="45.34166" lon="6.47396">
        <ele>1786.3</ele>
        <time>2013-08-29T06:44:12Z</time>
      </trkpt>
      <trkpt lat="45.34166" lon="6.47409">
        <ele>1789.2</ele>
        <time>2013-08-29T06:44:28Z</time>
      </trkpt>
      <trkpt lat="45.34172" lon="6.47414">
        <ele>1791.6</ele>
        <time>2013-08-29T06:44:44Z</time>
      </trkpt>
      <trkpt lat="45.34175" lon="6.47423">
        <ele>1794</ele>
        <time>2013-08-29T06:45:01Z</time>
      </trkpt>
      <trkpt lat="45.34178" lon="6.47433">
        <ele>1796.8</ele>
        <time>2013-08-29T06:45:18Z</time>
      </trkpt>
      <trkpt lat="45.34181" lon="6.4744">
        <ele>1799.2</ele>
        <time>2013-08-29T06:45:33Z</time>
      </trkpt>
      <trkpt lat="45.34184" lon="6.47445">
        <ele>1802.1</ele>
        <time>2013-08-29T06:45:46Z</time>
      </trkpt>
      <trkpt lat="45.34186" lon="6.47452">
        <ele>1804.1</ele>
        <time>2013-08-29T06:46:01Z</time>
      </trkpt>
      <trkpt lat="45.34186" lon="6.47462">
        <ele>1806.9</ele>
        <time>2013-08-29T06:46:17Z</time>
      </trkpt>
      <trkpt lat="45.34188" lon="6.47469">
        <ele>1809.3</ele>
        <time>2013-08-29T06:46:33Z</time>
      </trkpt>
      <trkpt lat="45.34187" lon="6.4748">
        <ele>1812.2</ele>
        <time>2013-08-29T06:46:50Z</time>
      </trkpt>
      <trkpt lat="45.34191" lon="6.47489">
        <ele>1814.6</ele>
        <time>2013-08-29T06:47:05Z</time>
      </trkpt>
      <trkpt lat="45.34191" lon="6.47502">
        <ele>1816.6</ele>
        <time>2013-08-29T06:47:22Z</time>
      </trkpt>
      <trkpt lat="45.34193" lon="6.47514">
        <ele>1819.9</ele>
        <time>2013-08-29T06:47:37Z</time>
      </trkpt>
      <trkpt lat="45.34195" lon="6.47527">
        <ele>1821.8</ele>
        <time>2013-08-29T06:47:51Z</time>
      </trkpt>
      <trkpt lat="45.34205" lon="6.47527">
        <ele>1823.8</ele>
        <time>2013-08-29T06:48:05Z</time>
      </trkpt>
      <trkpt lat="45.34215" lon="6.47526">
        <ele>1825.7</ele>
        <time>2013-08-29T06:48:20Z</time>
      </trkpt>
      <trkpt lat="45.34228" lon="6.47526">
        <ele>1828.6</ele>
        <time>2013-08-29T06:48:37Z</time>
      </trkpt>
      <trkpt lat="45.34239" lon="6.47523">
        <ele>1831</ele>
        <time>2013-08-29T06:48:54Z</time>
      </trkpt>
      <trkpt lat="45.34241" lon="6.47527">
        <ele>1833.4</ele>
        <time>2013-08-29T06:49:10Z</time>
      </trkpt>
      <trkpt lat="45.34239" lon="6.47537">
        <ele>1834.8</ele>
        <time>2013-08-29T06:49:26Z</time>
      </trkpt>
      <trkpt lat="45.34233" lon="6.47551">
        <ele>1838.2</ele>
        <time>2013-08-29T06:49:42Z</time>
      </trkpt>
      <trkpt lat="45.34228" lon="6.47565">
        <ele>1839.6</ele>
        <time>2013-08-29T06:49:59Z</time>
      </trkpt>
      <trkpt lat="45.34223" lon="6.47573">
        <ele>1842</ele>
        <time>2013-08-29T06:50:12Z</time>
      </trkpt>
      <trkpt lat="45.34224" lon="6.47581">
        <ele>1844.4</ele>
        <time>2013-08-29T06:50:27Z</time>
      </trkpt>
      <trkpt lat="45.34225" lon="6.47589">
        <ele>1847.3</ele>
        <time>2013-08-29T06:50:42Z</time>
      </trkpt>
      <trkpt lat="45.34221" lon="6.47606">
        <ele>1848.8</ele>
        <time>2013-08-29T06:50:59Z</time>
      </trkpt>
      <trkpt lat="45.34221" lon="6.47606">
        <ele>1848.3</ele>
        <time>2013-08-29T06:51:05Z</time>
      </trkpt>
      <trkpt lat="45.34219" lon="6.47611">
        <ele>1848.8</ele>
        <time>2013-08-29T06:51:13Z</time>
      </trkpt>
      <trkpt lat="45.34218" lon="6.47623">
        <ele>1849.7</ele>
        <time>2013-08-29T06:51:26Z</time>
      </trkpt>
      <trkpt lat="45.3422" lon="6.47619">
        <ele>1849.7</ele>
        <time>2013-08-29T06:51:38Z</time>
      </trkpt>
      <trkpt lat="45.34222" lon="6.47621">
        <ele>1850.2</ele>
        <time>2013-08-29T06:51:49Z</time>
      </trkpt>
      <trkpt lat="45.3422" lon="6.47635">
        <ele>1852.1</ele>
        <time>2013-08-29T06:52:07Z</time>
      </trkpt>
      <trkpt lat="45.34218" lon="6.4764">
        <ele>1853.6</ele>
        <time>2013-08-29T06:52:16Z</time>
      </trkpt>
      <trkpt lat="45.3421" lon="6.47647">
        <ele>1855</ele>
        <time>2013-08-29T06:52:30Z</time>
      </trkpt>
      <trkpt lat="45.34207" lon="6.47656">
        <ele>1856</ele>
        <time>2013-08-29T06:52:39Z</time>
      </trkpt>
      <trkpt lat="45.34205" lon="6.4766">
        <ele>1856</ele>
        <time>2013-08-29T06:52:43Z</time>
      </trkpt>
      <trkpt lat="45.34202" lon="6.47679">
        <ele>1856.9</ele>
        <time>2013-08-29T06:53:01Z</time>
      </trkpt>
      <trkpt lat="45.34196" lon="6.47686">
        <ele>1856.9</ele>
        <time>2013-08-29T06:53:13Z</time>
      </trkpt>
      <trkpt lat="45.34191" lon="6.47689">
        <ele>1857.4</ele>
        <time>2013-08-29T06:53:27Z</time>
      </trkpt>
      <trkpt lat="45.34185" lon="6.47692">
        <ele>1856.9</ele>
        <time>2013-08-29T06:53:39Z</time>
      </trkpt>
      <trkpt lat="45.34176" lon="6.47694">
        <ele>1858.9</ele>
        <time>2013-08-29T06:53:53Z</time>
      </trkpt>
      <trkpt lat="45.34168" lon="6.477">
        <ele>1860.3</ele>
        <time>2013-08-29T06:54:08Z</time>
      </trkpt>
      <trkpt lat="45.34167" lon="6.477">
        <ele>1860.3</ele>
        <time>2013-08-29T06:54:09Z</time>
      </trkpt>
      <trkpt lat="45.34161" lon="6.47701">
        <ele>1860.3</ele>
        <time>2013-08-29T06:54:15Z</time>
      </trkpt>
      <trkpt lat="45.34152" lon="6.47706">
        <ele>1860.8</ele>
        <time>2013-08-29T06:54:33Z</time>
      </trkpt>
      <trkpt lat="45.34148" lon="6.47709">
        <ele>1861.7</ele>
        <time>2013-08-29T06:54:48Z</time>
      </trkpt>
      <trkpt lat="45.34132" lon="6.47732">
        <ele>1860.3</ele>
        <time>2013-08-29T06:55:00Z</time>
      </trkpt>
      <trkpt lat="45.34123" lon="6.47737">
        <ele>1861.3</ele>
        <time>2013-08-29T06:55:06Z</time>
      </trkpt>
      <trkpt lat="45.34116" lon="6.47739">
        <ele>1863.7</ele>
        <time>2013-08-29T06:55:16Z</time>
      </trkpt>
      <trkpt lat="45.34114" lon="6.47738">
        <ele>1863.2</ele>
        <time>2013-08-29T06:55:23Z</time>
      </trkpt>
      <trkpt lat="45.34105" lon="6.47741">
        <ele>1861.7</ele>
        <time>2013-08-29T06:55:34Z</time>
      </trkpt>
      <trkpt lat="45.34104" lon="6.47743">
        <ele>1861.3</ele>
        <time>2013-08-29T06:55:53Z</time>
      </trkpt>
      <trkpt lat="45.341" lon="6.47743">
        <ele>1861.3</ele>
        <time>2013-08-29T06:55:59Z</time>
      </trkpt>
      <trkpt lat="45.34091" lon="6.4774">
        <ele>1861.3</ele>
        <time>2013-08-29T06:56:14Z</time>
      </trkpt>
      <trkpt lat="45.34085" lon="6.47733">
        <ele>1862.7</ele>
        <time>2013-08-29T06:56:27Z</time>
      </trkpt>
      <trkpt lat="45.34083" lon="6.47729">
        <ele>1862.2</ele>
        <time>2013-08-29T06:56:33Z</time>
      </trkpt>
      <trkpt lat="45.34074" lon="6.47718">
        <ele>1860.8</ele>
        <time>2013-08-29T06:56:40Z</time>
      </trkpt>
      <trkpt lat="45.34072" lon="6.47719">
        <ele>1860.3</ele>
        <time>2013-08-29T06:56:54Z</time>
      </trkpt>
      <trkpt lat="45.3407" lon="6.47716">
        <ele>1859.3</ele>
        <time>2013-08-29T06:56:57Z</time>
      </trkpt>
      <trkpt lat="45.34061" lon="6.47713">
        <ele>1859.3</ele>
        <time>2013-08-29T06:57:13Z</time>
      </trkpt>
      <trkpt lat="45.34055" lon="6.47716">
        <ele>1861.3</ele>
        <time>2013-08-29T06:57:21Z</time>
      </trkpt>
      <trkpt lat="45.34045" lon="6.4772">
        <ele>1863.2</ele>
        <time>2013-08-29T06:57:37Z</time>
      </trkpt>
      <trkpt lat="45.34039" lon="6.4772">
        <ele>1866.5</ele>
        <time>2013-08-29T06:57:49Z</time>
      </trkpt>
      <trkpt lat="45.34033" lon="6.47713">
        <ele>1868</ele>
        <time>2013-08-29T06:58:05Z</time>
      </trkpt>
      <trkpt lat="45.34029" lon="6.477">
        <ele>1870.9</ele>
        <time>2013-08-29T06:58:21Z</time>
      </trkpt>
      <trkpt lat="45.34023" lon="6.47683">
        <ele>1871.8</ele>
        <time>2013-08-29T06:58:37Z</time>
      </trkpt>
      <trkpt lat="45.34016" lon="6.47674">
        <ele>1873.3</ele>
        <time>2013-08-29T06:58:54Z</time>
      </trkpt>
      <trkpt lat="45.34013" lon="6.4767">
        <ele>1874.7</ele>
        <time>2013-08-29T06:59:07Z</time>
      </trkpt>
      <trkpt lat="45.34006" lon="6.47664">
        <ele>1876.2</ele>
        <time>2013-08-29T06:59:17Z</time>
      </trkpt>
      <trkpt lat="45.34001" lon="6.47656">
        <ele>1876.6</ele>
        <time>2013-08-29T06:59:32Z</time>
      </trkpt>
      <trkpt lat="45.33992" lon="6.4765">
        <ele>1880.5</ele>
        <time>2013-08-29T06:59:47Z</time>
      </trkpt>
      <trkpt lat="45.33982" lon="6.47646">
        <ele>1881</ele>
        <time>2013-08-29T07:00:05Z</time>
      </trkpt>
      <trkpt lat="45.33977" lon="6.47646">
        <ele>1883.4</ele>
        <time>2013-08-29T07:00:22Z</time>
      </trkpt>
      <trkpt lat="45.3397" lon="6.47644">
        <ele>1885.8</ele>
        <time>2013-08-29T07:00:37Z</time>
      </trkpt>
      <trkpt lat="45.33966" lon="6.47636">
        <ele>1888.2</ele>
        <time>2013-08-29T07:00:54Z</time>
      </trkpt>
      <trkpt lat="45.33962" lon="6.47632">
        <ele>1888.7</ele>
        <time>2013-08-29T07:01:00Z</time>
      </trkpt>
      <trkpt lat="45.33951" lon="6.47622">
        <ele>1890.6</ele>
        <time>2013-08-29T07:01:17Z</time>
      </trkpt>
      <trkpt lat="45.33944" lon="6.47614">
        <ele>1892.5</ele>
        <time>2013-08-29T07:01:32Z</time>
      </trkpt>
      <trkpt lat="45.33943" lon="6.47611">
        <ele>1893.5</ele>
        <time>2013-08-29T07:01:45Z</time>
      </trkpt>
      <trkpt lat="45.33941" lon="6.47602">
        <ele>1894.9</ele>
        <time>2013-08-29T07:01:58Z</time>
      </trkpt>
      <trkpt lat="45.33939" lon="6.47595">
        <ele>1897.3</ele>
        <time>2013-08-29T07:02:06Z</time>
      </trkpt>
      <trkpt lat="45.33927" lon="6.47591">
        <ele>1899.7</ele>
        <time>2013-08-29T07:02:22Z</time>
      </trkpt>
      <trkpt lat="45.33917" lon="6.47588">
        <ele>1902.6</ele>
        <time>2013-08-29T07:02:39Z</time>
      </trkpt>
      <trkpt lat="45.33905" lon="6.4758">
        <ele>1905.5</ele>
        <time>2013-08-29T07:02:57Z</time>
      </trkpt>
      <trkpt lat="45.33901" lon="6.47576">
        <ele>1905.5</ele>
        <time>2013-08-29T07:03:04Z</time>
      </trkpt>
      <trkpt lat="45.33899" lon="6.47576">
        <ele>1906.4</ele>
        <time>2013-08-29T07:03:06Z</time>
      </trkpt>
      <trkpt lat="45.33885" lon="6.47577">
        <ele>1907.4</ele>
        <time>2013-08-29T07:03:22Z</time>
      </trkpt>
      <trkpt lat="45.33872" lon="6.47577">
        <ele>1911.2</ele>
        <time>2013-08-29T07:03:40Z</time>
      </trkpt>
      <trkpt lat="45.33858" lon="6.47574">
        <ele>1913.2</ele>
        <time>2013-08-29T07:03:56Z</time>
      </trkpt>
      <trkpt lat="45.33849" lon="6.47573">
        <ele>1914.6</ele>
        <time>2013-08-29T07:04:13Z</time>
      </trkpt>
      <trkpt lat="45.3384" lon="6.47575">
        <ele>1916.5</ele>
        <time>2013-08-29T07:04:29Z</time>
      </trkpt>
      <trkpt lat="45.33837" lon="6.47573">
        <ele>1918</ele>
        <time>2013-08-29T07:04:32Z</time>
      </trkpt>
      <trkpt lat="45.33827" lon="6.47568">
        <ele>1919.4</ele>
        <time>2013-08-29T07:04:47Z</time>
      </trkpt>
      <trkpt lat="45.33826" lon="6.47568">
        <ele>1919.4</ele>
        <time>2013-08-29T07:04:48Z</time>
      </trkpt>
      <trkpt lat="45.33817" lon="6.47562">
        <ele>1921.3</ele>
        <time>2013-08-29T07:05:04Z</time>
      </trkpt>
      <trkpt lat="45.33815" lon="6.47569">
        <ele>1922.8</ele>
        <time>2013-08-29T07:05:19Z</time>
      </trkpt>
      <trkpt lat="45.33814" lon="6.47569">
        <ele>1922.8</ele>
        <time>2013-08-29T07:05:50Z</time>
      </trkpt>
      <trkpt lat="45.33815" lon="6.47571">
        <ele>1922.3</ele>
        <time>2013-08-29T07:06:24Z</time>
      </trkpt>
      <trkpt lat="45.33813" lon="6.4757">
        <ele>1923.3</ele>
        <time>2013-08-29T07:06:43Z</time>
      </trkpt>
      <trkpt lat="45.33815" lon="6.47581">
        <ele>1923.7</ele>
        <time>2013-08-29T07:06:56Z</time>
      </trkpt>
      <trkpt lat="45.33809" lon="6.47592">
        <ele>1926.6</ele>
        <time>2013-08-29T07:07:14Z</time>
      </trkpt>
      <trkpt lat="45.33807" lon="6.47596">
        <ele>1927.1</ele>
        <time>2013-08-29T07:07:18Z</time>
      </trkpt>
      <trkpt lat="45.33798" lon="6.47609">
        <ele>1928.1</ele>
        <time>2013-08-29T07:07:33Z</time>
      </trkpt>
      <trkpt lat="45.33794" lon="6.47625">
        <ele>1930</ele>
        <time>2013-08-29T07:07:50Z</time>
      </trkpt>
      <trkpt lat="45.33789" lon="6.47631">
        <ele>1931.4</ele>
        <time>2013-08-29T07:08:05Z</time>
      </trkpt>
      <trkpt lat="45.33786" lon="6.47634">
        <ele>1931.9</ele>
        <time>2013-08-29T07:08:17Z</time>
      </trkpt>
      <trkpt lat="45.33776" lon="6.47632">
        <ele>1932.4</ele>
        <time>2013-08-29T07:08:24Z</time>
      </trkpt>
      <trkpt lat="45.33758" lon="6.47624">
        <ele>1931.4</ele>
        <time>2013-08-29T07:08:35Z</time>
      </trkpt>
      <trkpt lat="45.33741" lon="6.47617">
        <ele>1931.4</ele>
        <time>2013-08-29T07:08:45Z</time>
      </trkpt>
      <trkpt lat="45.33736" lon="6.47614">
        <ele>1931</ele>
        <time>2013-08-29T07:08:47Z</time>
      </trkpt>
      <trkpt lat="45.33731" lon="6.47612">
        <ele>1931</ele>
        <time>2013-08-29T07:08:49Z</time>
      </trkpt>
      <trkpt lat="45.33725" lon="6.47607">
        <ele>1931</ele>
        <time>2013-08-29T07:08:53Z</time>
      </trkpt>
      <trkpt lat="45.33719" lon="6.47596">
        <ele>1931</ele>
        <time>2013-08-29T07:09:04Z</time>
      </trkpt>
      <trkpt lat="45.33719" lon="6.47596">
        <ele>1931.4</ele>
        <time>2013-08-29T07:09:06Z</time>
      </trkpt>
      <trkpt lat="45.33716" lon="6.47592">
        <ele>1931.9</ele>
        <time>2013-08-29T07:09:09Z</time>
      </trkpt>
      <trkpt lat="45.33708" lon="6.47578">
        <ele>1934.3</ele>
        <time>2013-08-29T07:09:19Z</time>
      </trkpt>
      <trkpt lat="45.33703" lon="6.47572">
        <ele>1934.8</ele>
        <time>2013-08-29T07:09:34Z</time>
      </trkpt>
      <trkpt lat="45.33698" lon="6.47562">
        <ele>1936.7</ele>
        <time>2013-08-29T07:09:50Z</time>
      </trkpt>
      <trkpt lat="45.33675" lon="6.47556">
        <ele>1935.3</ele>
        <time>2013-08-29T07:10:03Z</time>
      </trkpt>
      <trkpt lat="45.33649" lon="6.47554">
        <ele>1934.3</ele>
        <time>2013-08-29T07:10:15Z</time>
      </trkpt>
      <trkpt lat="45.33644" lon="6.47553">
        <ele>1935.3</ele>
        <time>2013-08-29T07:10:17Z</time>
      </trkpt>
      <trkpt lat="45.3364" lon="6.47552">
        <ele>1935.8</ele>
        <time>2013-08-29T07:10:19Z</time>
      </trkpt>
      <trkpt lat="45.33621" lon="6.47552">
        <ele>1935.3</ele>
        <time>2013-08-29T07:10:29Z</time>
      </trkpt>
      <trkpt lat="45.33617" lon="6.47553">
        <ele>1935.3</ele>
        <time>2013-08-29T07:10:30Z</time>
      </trkpt>
      <trkpt lat="45.33599" lon="6.4756">
        <ele>1936.2</ele>
        <time>2013-08-29T07:10:38Z</time>
      </trkpt>
      <trkpt lat="45.33588" lon="6.47565">
        <ele>1935.3</ele>
        <time>2013-08-29T07:10:44Z</time>
      </trkpt>
      <trkpt lat="45.33586" lon="6.47566">
        <ele>1936.2</ele>
        <time>2013-08-29T07:10:56Z</time>
      </trkpt>
      <trkpt lat="45.3358" lon="6.47572">
        <ele>1937.7</ele>
        <time>2013-08-29T07:11:10Z</time>
      </trkpt>
      <trkpt lat="45.33574" lon="6.47573">
        <ele>1941.5</ele>
        <time>2013-08-29T07:11:21Z</time>
      </trkpt>
      <trkpt lat="45.33567" lon="6.47568">
        <ele>1942</ele>
        <time>2013-08-29T07:11:33Z</time>
      </trkpt>
      <trkpt lat="45.33566" lon="6.47566">
        <ele>1942.5</ele>
        <time>2013-08-29T07:11:35Z</time>
      </trkpt>
      <trkpt lat="45.33559" lon="6.47565">
        <ele>1944.4</ele>
        <time>2013-08-29T07:11:47Z</time>
      </trkpt>
      <trkpt lat="45.33556" lon="6.47566">
        <ele>1944.4</ele>
        <time>2013-08-29T07:11:59Z</time>
      </trkpt>
      <trkpt lat="45.33557" lon="6.47565">
        <ele>1944.4</ele>
        <time>2013-08-29T07:12:21Z</time>
      </trkpt>
      <trkpt lat="45.33557" lon="6.47565">
        <ele>1944.4</ele>
        <time>2013-08-29T07:12:29Z</time>
      </trkpt>
      <trkpt lat="45.33551" lon="6.47562">
        <ele>1944.9</ele>
        <time>2013-08-29T07:12:33Z</time>
      </trkpt>
      <trkpt lat="45.3355" lon="6.47558">
        <ele>1944.9</ele>
        <time>2013-08-29T07:12:35Z</time>
      </trkpt>
      <trkpt lat="45.33551" lon="6.47551">
        <ele>1943.9</ele>
        <time>2013-08-29T07:12:39Z</time>
      </trkpt>
      <trkpt lat="45.33547" lon="6.47507">
        <ele>1942.5</ele>
        <time>2013-08-29T07:12:52Z</time>
      </trkpt>
      <trkpt lat="45.33537" lon="6.47486">
        <ele>1942</ele>
        <time>2013-08-29T07:12:59Z</time>
      </trkpt>
      <trkpt lat="45.33527" lon="6.47486">
        <ele>1941.5</ele>
        <time>2013-08-29T07:13:03Z</time>
      </trkpt>
      <trkpt lat="45.33511" lon="6.47493">
        <ele>1938.6</ele>
        <time>2013-08-29T07:13:10Z</time>
      </trkpt>
      <trkpt lat="45.33504" lon="6.47496">
        <ele>1937.7</ele>
        <time>2013-08-29T07:13:12Z</time>
      </trkpt>
      <trkpt lat="45.33496" lon="6.47503">
        <ele>1935.8</ele>
        <time>2013-08-29T07:13:15Z</time>
      </trkpt>
      <trkpt lat="45.33494" lon="6.47506">
        <ele>1936.2</ele>
        <time>2013-08-29T07:13:25Z</time>
      </trkpt>
      <trkpt lat="45.3349" lon="6.47508">
        <ele>1937.2</ele>
        <time>2013-08-29T07:13:30Z</time>
      </trkpt>
      <trkpt lat="45.33486" lon="6.47506">
        <ele>1938.2</ele>
        <time>2013-08-29T07:13:34Z</time>
      </trkpt>
      <trkpt lat="45.33476" lon="6.4751">
        <ele>1935.8</ele>
        <time>2013-08-29T07:13:47Z</time>
      </trkpt>
      <trkpt lat="45.33476" lon="6.47511">
        <ele>1936.7</ele>
        <time>2013-08-29T07:14:06Z</time>
      </trkpt>
      <trkpt lat="45.33473" lon="6.47514">
        <ele>1936.2</ele>
        <time>2013-08-29T07:14:37Z</time>
      </trkpt>
      <trkpt lat="45.33476" lon="6.47511">
        <ele>1936.2</ele>
        <time>2013-08-29T07:15:10Z</time>
      </trkpt>
      <trkpt lat="45.3347" lon="6.47513">
        <ele>1936.7</ele>
        <time>2013-08-29T07:15:28Z</time>
      </trkpt>
      <trkpt lat="45.33459" lon="6.47512">
        <ele>1937.2</ele>
        <time>2013-08-29T07:15:42Z</time>
      </trkpt>
      <trkpt lat="45.33458" lon="6.47513">
        <ele>1937.7</ele>
        <time>2013-08-29T07:15:44Z</time>
      </trkpt>
      <trkpt lat="45.33449" lon="6.4751">
        <ele>1936.7</ele>
        <time>2013-08-29T07:15:58Z</time>
      </trkpt>
      <trkpt lat="45.33443" lon="6.47514">
        <ele>1935.8</ele>
        <time>2013-08-29T07:16:14Z</time>
      </trkpt>
      <trkpt lat="45.33441" lon="6.47515">
        <ele>1934.8</ele>
        <time>2013-08-29T07:16:16Z</time>
      </trkpt>
      <trkpt lat="45.3344" lon="6.47514">
        <ele>1935.8</ele>
        <time>2013-08-29T07:16:17Z</time>
      </trkpt>
      <trkpt lat="45.33421" lon="6.47519">
        <ele>1933.8</ele>
        <time>2013-08-29T07:16:28Z</time>
      </trkpt>
      <trkpt lat="45.3341" lon="6.47519">
        <ele>1935.8</ele>
        <time>2013-08-29T07:16:40Z</time>
      </trkpt>
      <trkpt lat="45.33401" lon="6.47513">
        <ele>1936.2</ele>
        <time>2013-08-29T07:16:52Z</time>
      </trkpt>
      <trkpt lat="45.33399" lon="6.47511">
        <ele>1936.7</ele>
        <time>2013-08-29T07:16:58Z</time>
      </trkpt>
      <trkpt lat="45.33394" lon="6.47501">
        <ele>1936.7</ele>
        <time>2013-08-29T07:17:04Z</time>
      </trkpt>
      <trkpt lat="45.33392" lon="6.47496">
        <ele>1937.2</ele>
        <time>2013-08-29T07:17:07Z</time>
      </trkpt>
      <trkpt lat="45.33385" lon="6.47486">
        <ele>1938.6</ele>
        <time>2013-08-29T07:17:15Z</time>
      </trkpt>
      <trkpt lat="45.33376" lon="6.47481">
        <ele>1940.1</ele>
        <time>2013-08-29T07:17:21Z</time>
      </trkpt>
      <trkpt lat="45.3337" lon="6.47471">
        <ele>1939.1</ele>
        <time>2013-08-29T07:17:26Z</time>
      </trkpt>
      <trkpt lat="45.33347" lon="6.47465">
        <ele>1940.1</ele>
        <time>2013-08-29T07:17:39Z</time>
      </trkpt>
      <trkpt lat="45.33325" lon="6.47474">
        <ele>1939.6</ele>
        <time>2013-08-29T07:17:50Z</time>
      </trkpt>
      <trkpt lat="45.33302" lon="6.47481">
        <ele>1936.2</ele>
        <time>2013-08-29T07:18:01Z</time>
      </trkpt>
      <trkpt lat="45.3329" lon="6.47487">
        <ele>1934.3</ele>
        <time>2013-08-29T07:18:05Z</time>
      </trkpt>
      <trkpt lat="45.33272" lon="6.47479">
        <ele>1931.9</ele>
        <time>2013-08-29T07:18:12Z</time>
      </trkpt>
      <trkpt lat="45.33259" lon="6.47479">
        <ele>1931.4</ele>
        <time>2013-08-29T07:18:22Z</time>
      </trkpt>
      <trkpt lat="45.33251" lon="6.47483">
        <ele>1931.4</ele>
        <time>2013-08-29T07:18:31Z</time>
      </trkpt>
      <trkpt lat="45.33246" lon="6.47489">
        <ele>1931</ele>
        <time>2013-08-29T07:18:40Z</time>
      </trkpt>
      <trkpt lat="45.33236" lon="6.4749">
        <ele>1932.9</ele>
        <time>2013-08-29T07:18:55Z</time>
      </trkpt>
      <trkpt lat="45.33234" lon="6.4749">
        <ele>1933.8</ele>
        <time>2013-08-29T07:18:57Z</time>
      </trkpt>
      <trkpt lat="45.33227" lon="6.47487">
        <ele>1935.3</ele>
        <time>2013-08-29T07:19:13Z</time>
      </trkpt>
      <trkpt lat="45.33222" lon="6.47487">
        <ele>1934.8</ele>
        <time>2013-08-29T07:19:24Z</time>
      </trkpt>
      <trkpt lat="45.33214" lon="6.47487">
        <ele>1938.6</ele>
        <time>2013-08-29T07:19:36Z</time>
      </trkpt>
      <trkpt lat="45.33204" lon="6.47484">
        <ele>1940.6</ele>
        <time>2013-08-29T07:19:51Z</time>
      </trkpt>
      <trkpt lat="45.33199" lon="6.47474">
        <ele>1941</ele>
        <time>2013-08-29T07:20:05Z</time>
      </trkpt>
      <trkpt lat="45.33198" lon="6.4747">
        <ele>1941.5</ele>
        <time>2013-08-29T07:20:09Z</time>
      </trkpt>
      <trkpt lat="45.33192" lon="6.47457">
        <ele>1943.9</ele>
        <time>2013-08-29T07:20:24Z</time>
      </trkpt>
      <trkpt lat="45.33187" lon="6.47452">
        <ele>1943</ele>
        <time>2013-08-29T07:20:30Z</time>
      </trkpt>
      <trkpt lat="45.33177" lon="6.47444">
        <ele>1943.9</ele>
        <time>2013-08-29T07:20:44Z</time>
      </trkpt>
      <trkpt lat="45.33175" lon="6.47444">
        <ele>1945.4</ele>
        <time>2013-08-29T07:20:48Z</time>
      </trkpt>
      <trkpt lat="45.33166" lon="6.4744">
        <ele>1948.7</ele>
        <time>2013-08-29T07:21:05Z</time>
      </trkpt>
      <trkpt lat="45.33159" lon="6.47442">
        <ele>1950.2</ele>
        <time>2013-08-29T07:21:20Z</time>
      </trkpt>
      <trkpt lat="45.33151" lon="6.47435">
        <ele>1951.1</ele>
        <time>2013-08-29T07:21:34Z</time>
      </trkpt>
      <trkpt lat="45.33144" lon="6.47434">
        <ele>1953.1</ele>
        <time>2013-08-29T07:21:43Z</time>
      </trkpt>
      <trkpt lat="45.33132" lon="6.47439">
        <ele>1954</ele>
        <time>2013-08-29T07:21:59Z</time>
      </trkpt>
      <trkpt lat="45.33131" lon="6.47438">
        <ele>1955.5</ele>
        <time>2013-08-29T07:22:01Z</time>
      </trkpt>
      <trkpt lat="45.33129" lon="6.47439">
        <ele>1955.5</ele>
        <time>2013-08-29T07:22:03Z</time>
      </trkpt>
      <trkpt lat="45.33118" lon="6.47447">
        <ele>1957.4</ele>
        <time>2013-08-29T07:22:20Z</time>
      </trkpt>
      <trkpt lat="45.33118" lon="6.47447">
        <ele>1956.4</ele>
        <time>2013-08-29T07:22:45Z</time>
      </trkpt>
      <trkpt lat="45.33121" lon="6.47454">
        <ele>1957.9</ele>
        <time>2013-08-29T07:22:56Z</time>
      </trkpt>
      <trkpt lat="45.33126" lon="6.47458">
        <ele>1959.3</ele>
        <time>2013-08-29T07:23:06Z</time>
      </trkpt>
      <trkpt lat="45.33129" lon="6.47476">
        <ele>1962.2</ele>
        <time>2013-08-29T07:23:23Z</time>
      </trkpt>
      <trkpt lat="45.33127" lon="6.47495">
        <ele>1964.6</ele>
        <time>2013-08-29T07:23:41Z</time>
      </trkpt>
      <trkpt lat="45.33122" lon="6.47501">
        <ele>1967</ele>
        <time>2013-08-29T07:23:58Z</time>
      </trkpt>
      <trkpt lat="45.33121" lon="6.4751">
        <ele>1968.9</ele>
        <time>2013-08-29T07:24:11Z</time>
      </trkpt>
      <trkpt lat="45.33115" lon="6.47514">
        <ele>1972.3</ele>
        <time>2013-08-29T07:24:25Z</time>
      </trkpt>
      <trkpt lat="45.33118" lon="6.47526">
        <ele>1973.2</ele>
        <time>2013-08-29T07:24:39Z</time>
      </trkpt>
      <trkpt lat="45.33117" lon="6.47538">
        <ele>1975.2</ele>
        <time>2013-08-29T07:24:54Z</time>
      </trkpt>
      <trkpt lat="45.33108" lon="6.47538">
        <ele>1977.1</ele>
        <time>2013-08-29T07:25:08Z</time>
      </trkpt>
      <trkpt lat="45.33107" lon="6.47553">
        <ele>1979</ele>
        <time>2013-08-29T07:25:24Z</time>
      </trkpt>
      <trkpt lat="45.33101" lon="6.47562">
        <ele>1981.9</ele>
        <time>2013-08-29T07:25:39Z</time>
      </trkpt>
      <trkpt lat="45.33092" lon="6.4757">
        <ele>1983.8</ele>
        <time>2013-08-29T07:25:53Z</time>
      </trkpt>
      <trkpt lat="45.33083" lon="6.47578">
        <ele>1984.3</ele>
        <time>2013-08-29T07:26:07Z</time>
      </trkpt>
      <trkpt lat="45.33076" lon="6.47584">
        <ele>1986.2</ele>
        <time>2013-08-29T07:26:17Z</time>
      </trkpt>
      <trkpt lat="45.33069" lon="6.47592">
        <ele>1987.7</ele>
        <time>2013-08-29T07:26:30Z</time>
      </trkpt>
      <trkpt lat="45.33061" lon="6.47601">
        <ele>1989.1</ele>
        <time>2013-08-29T07:26:46Z</time>
      </trkpt>
      <trkpt lat="45.33057" lon="6.47609">
        <ele>1992.5</ele>
        <time>2013-08-29T07:26:59Z</time>
      </trkpt>
      <trkpt lat="45.3306" lon="6.47612">
        <ele>1993</ele>
        <time>2013-08-29T07:27:07Z</time>
      </trkpt>
      <trkpt lat="45.33069" lon="6.47616">
        <ele>1994.9</ele>
        <time>2013-08-29T07:27:24Z</time>
      </trkpt>
      <trkpt lat="45.33066" lon="6.47618">
        <ele>1995.8</ele>
        <time>2013-08-29T07:27:29Z</time>
      </trkpt>
      <trkpt lat="45.33059" lon="6.47625">
        <ele>1997.3</ele>
        <time>2013-08-29T07:27:44Z</time>
      </trkpt>
      <trkpt lat="45.33051" lon="6.47633">
        <ele>2000.2</ele>
        <time>2013-08-29T07:28:00Z</time>
      </trkpt>
      <trkpt lat="45.33043" lon="6.47643">
        <ele>2001.6</ele>
        <time>2013-08-29T07:28:15Z</time>
      </trkpt>
      <trkpt lat="45.33034" lon="6.47653">
        <ele>2004.5</ele>
        <time>2013-08-29T07:28:32Z</time>
      </trkpt>
      <trkpt lat="45.33023" lon="6.47658">
        <ele>2006.9</ele>
        <time>2013-08-29T07:28:48Z</time>
      </trkpt>
      <trkpt lat="45.33024" lon="6.47669">
        <ele>2009.8</ele>
        <time>2013-08-29T07:29:05Z</time>
      </trkpt>
      <trkpt lat="45.33028" lon="6.47678">
        <ele>2012.7</ele>
        <time>2013-08-29T07:29:21Z</time>
      </trkpt>
      <trkpt lat="45.33029" lon="6.47683">
        <ele>2014.6</ele>
        <time>2013-08-29T07:29:35Z</time>
      </trkpt>
      <trkpt lat="45.33024" lon="6.47687">
        <ele>2016</ele>
        <time>2013-08-29T07:29:50Z</time>
      </trkpt>
      <trkpt lat="45.3302" lon="6.47695">
        <ele>2019.4</ele>
        <time>2013-08-29T07:30:07Z</time>
      </trkpt>
      <trkpt lat="45.33018" lon="6.47698">
        <ele>2019.9</ele>
        <time>2013-08-29T07:30:26Z</time>
      </trkpt>
      <trkpt lat="45.33016" lon="6.47703">
        <ele>2022.3</ele>
        <time>2013-08-29T07:30:39Z</time>
      </trkpt>
      <trkpt lat="45.3301" lon="6.47709">
        <ele>2023.7</ele>
        <time>2013-08-29T07:30:51Z</time>
      </trkpt>
      <trkpt lat="45.33008" lon="6.47711">
        <ele>2024.7</ele>
        <time>2013-08-29T07:30:56Z</time>
      </trkpt>
      <trkpt lat="45.33007" lon="6.47717">
        <ele>2027.1</ele>
        <time>2013-08-29T07:31:10Z</time>
      </trkpt>
      <trkpt lat="45.33008" lon="6.47717">
        <ele>2027.1</ele>
        <time>2013-08-29T07:31:11Z</time>
      </trkpt>
      <trkpt lat="45.33025" lon="6.47719">
        <ele>2029</ele>
        <time>2013-08-29T07:31:29Z</time>
      </trkpt>
      <trkpt lat="45.33037" lon="6.47728">
        <ele>2031.9</ele>
        <time>2013-08-29T07:31:48Z</time>
      </trkpt>
      <trkpt lat="45.33044" lon="6.47735">
        <ele>2033.8</ele>
        <time>2013-08-29T07:32:05Z</time>
      </trkpt>
      <trkpt lat="45.33037" lon="6.47742">
        <ele>2036.7</ele>
        <time>2013-08-29T07:32:19Z</time>
      </trkpt>
      <trkpt lat="45.33033" lon="6.47744">
        <ele>2037.2</ele>
        <time>2013-08-29T07:32:27Z</time>
      </trkpt>
      <trkpt lat="45.33024" lon="6.47755">
        <ele>2039.1</ele>
        <time>2013-08-29T07:32:44Z</time>
      </trkpt>
      <trkpt lat="45.33024" lon="6.47759">
        <ele>2040.1</ele>
        <time>2013-08-29T07:32:56Z</time>
      </trkpt>
      <trkpt lat="45.33028" lon="6.47762">
        <ele>2042</ele>
        <time>2013-08-29T07:33:11Z</time>
      </trkpt>
      <trkpt lat="45.33024" lon="6.4777">
        <ele>2042.9</ele>
        <time>2013-08-29T07:33:19Z</time>
      </trkpt>
      <trkpt lat="45.3302" lon="6.47787">
        <ele>2045.3</ele>
        <time>2013-08-29T07:33:37Z</time>
      </trkpt>
      <trkpt lat="45.33018" lon="6.47803">
        <ele>2047.3</ele>
        <time>2013-08-29T07:33:52Z</time>
      </trkpt>
      <trkpt lat="45.33019" lon="6.47819">
        <ele>2049.2</ele>
        <time>2013-08-29T07:34:08Z</time>
      </trkpt>
      <trkpt lat="45.33016" lon="6.47836">
        <ele>2050.6</ele>
        <time>2013-08-29T07:34:23Z</time>
      </trkpt>
      <trkpt lat="45.33011" lon="6.47851">
        <ele>2052.1</ele>
        <time>2013-08-29T07:34:37Z</time>
      </trkpt>
      <trkpt lat="45.33006" lon="6.47864">
        <ele>2053.5</ele>
        <time>2013-08-29T07:34:51Z</time>
      </trkpt>
      <trkpt lat="45.33001" lon="6.47875">
        <ele>2055.4</ele>
        <time>2013-08-29T07:35:05Z</time>
      </trkpt>
      <trkpt lat="45.32992" lon="6.47892">
        <ele>2057.4</ele>
        <time>2013-08-29T07:35:22Z</time>
      </trkpt>
      <trkpt lat="45.32986" lon="6.47896">
        <ele>2056.9</ele>
        <time>2013-08-29T07:35:30Z</time>
      </trkpt>
      <trkpt lat="45.3298" lon="6.47896">
        <ele>2056.4</ele>
        <time>2013-08-29T07:35:36Z</time>
      </trkpt>
      <trkpt lat="45.32969" lon="6.47899">
        <ele>2057.4</ele>
        <time>2013-08-29T07:35:50Z</time>
      </trkpt>
      <trkpt lat="45.32959" lon="6.47903">
        <ele>2058.8</ele>
        <time>2013-08-29T07:36:05Z</time>
      </trkpt>
      <trkpt lat="45.32958" lon="6.47903">
        <ele>2059.3</ele>
        <time>2013-08-29T07:36:07Z</time>
      </trkpt>
      <trkpt lat="45.32951" lon="6.47912">
        <ele>2061.7</ele>
        <time>2013-08-29T07:36:21Z</time>
      </trkpt>
      <trkpt lat="45.32943" lon="6.4792">
        <ele>2063.1</ele>
        <time>2013-08-29T07:36:36Z</time>
      </trkpt>
      <trkpt lat="45.32937" lon="6.47931">
        <ele>2064.6</ele>
        <time>2013-08-29T07:36:50Z</time>
      </trkpt>
      <trkpt lat="45.32937" lon="6.47934">
        <ele>2066</ele>
        <time>2013-08-29T07:36:54Z</time>
      </trkpt>
      <trkpt lat="45.32936" lon="6.47935">
        <ele>2066</ele>
        <time>2013-08-29T07:36:57Z</time>
      </trkpt>
      <trkpt lat="45.32932" lon="6.47936">
        <ele>2067</ele>
        <time>2013-08-29T07:37:02Z</time>
      </trkpt>
      <trkpt lat="45.32926" lon="6.47941">
        <ele>2068.9</ele>
        <time>2013-08-29T07:37:16Z</time>
      </trkpt>
      <trkpt lat="45.32922" lon="6.47956">
        <ele>2069.9</ele>
        <time>2013-08-29T07:37:31Z</time>
      </trkpt>
      <trkpt lat="45.32915" lon="6.47965">
        <ele>2071.8</ele>
        <time>2013-08-29T07:37:47Z</time>
      </trkpt>
      <trkpt lat="45.32908" lon="6.47966">
        <ele>2073.2</ele>
        <time>2013-08-29T07:38:01Z</time>
      </trkpt>
      <trkpt lat="45.3291" lon="6.47968">
        <ele>2074.2</ele>
        <time>2013-08-29T07:38:04Z</time>
      </trkpt>
      <trkpt lat="45.32908" lon="6.47973">
        <ele>2075.1</ele>
        <time>2013-08-29T07:38:17Z</time>
      </trkpt>
      <trkpt lat="45.32901" lon="6.4797">
        <ele>2076.6</ele>
        <time>2013-08-29T07:38:30Z</time>
      </trkpt>
      <trkpt lat="45.32897" lon="6.47972">
        <ele>2078.5</ele>
        <time>2013-08-29T07:38:46Z</time>
      </trkpt>
      <trkpt lat="45.32895" lon="6.47975">
        <ele>2080.4</ele>
        <time>2013-08-29T07:38:59Z</time>
      </trkpt>
      <trkpt lat="45.32894" lon="6.47974">
        <ele>2079</ele>
        <time>2013-08-29T07:39:21Z</time>
      </trkpt>
      <trkpt lat="45.32893" lon="6.47974">
        <ele>2080.9</ele>
        <time>2013-08-29T07:39:22Z</time>
      </trkpt>
      <trkpt lat="45.32888" lon="6.4798">
        <ele>2082.4</ele>
        <time>2013-08-29T07:39:37Z</time>
      </trkpt>
      <trkpt lat="45.32882" lon="6.4798">
        <ele>2084.3</ele>
        <time>2013-08-29T07:39:52Z</time>
      </trkpt>
      <trkpt lat="45.32876" lon="6.4798">
        <ele>2087.2</ele>
        <time>2013-08-29T07:40:07Z</time>
      </trkpt>
      <trkpt lat="45.32867" lon="6.47985">
        <ele>2087.6</ele>
        <time>2013-08-29T07:40:22Z</time>
      </trkpt>
      <trkpt lat="45.32858" lon="6.48">
        <ele>2088.6</ele>
        <time>2013-08-29T07:40:39Z</time>
      </trkpt>
      <trkpt lat="45.32855" lon="6.48">
        <ele>2089.1</ele>
        <time>2013-08-29T07:40:43Z</time>
      </trkpt>
      <trkpt lat="45.32848" lon="6.48012">
        <ele>2091</ele>
        <time>2013-08-29T07:40:57Z</time>
      </trkpt>
      <trkpt lat="45.32839" lon="6.48017">
        <ele>2091.5</ele>
        <time>2013-08-29T07:41:09Z</time>
      </trkpt>
      <trkpt lat="45.32833" lon="6.48026">
        <ele>2092.9</ele>
        <time>2013-08-29T07:41:24Z</time>
      </trkpt>
      <trkpt lat="45.32829" lon="6.48034">
        <ele>2093.9</ele>
        <time>2013-08-29T07:41:34Z</time>
      </trkpt>
      <trkpt lat="45.32827" lon="6.48042">
        <ele>2095.8</ele>
        <time>2013-08-29T07:41:47Z</time>
      </trkpt>
      <trkpt lat="45.32821" lon="6.48044">
        <ele>2098.2</ele>
        <time>2013-08-29T07:42:00Z</time>
      </trkpt>
      <trkpt lat="45.32816" lon="6.48048">
        <ele>2099.7</ele>
        <time>2013-08-29T07:42:16Z</time>
      </trkpt>
      <trkpt lat="45.32816" lon="6.48048">
        <ele>2100.6</ele>
        <time>2013-08-29T07:42:19Z</time>
      </trkpt>
      <trkpt lat="45.3281" lon="6.48044">
        <ele>2101.1</ele>
        <time>2013-08-29T07:42:32Z</time>
      </trkpt>
      <trkpt lat="45.32807" lon="6.48034">
        <ele>2101.6</ele>
        <time>2013-08-29T07:42:47Z</time>
      </trkpt>
      <trkpt lat="45.32801" lon="6.48031">
        <ele>2103.5</ele>
        <time>2013-08-29T07:43:01Z</time>
      </trkpt>
      <trkpt lat="45.328" lon="6.48035">
        <ele>2104.9</ele>
        <time>2013-08-29T07:43:12Z</time>
      </trkpt>
      <trkpt lat="45.32796" lon="6.48041">
        <ele>2107.4</ele>
        <time>2013-08-29T07:43:28Z</time>
      </trkpt>
      <trkpt lat="45.32787" lon="6.48041">
        <ele>2109.3</ele>
        <time>2013-08-29T07:43:41Z</time>
      </trkpt>
      <trkpt lat="45.32779" lon="6.48043">
        <ele>2111.2</ele>
        <time>2013-08-29T07:43:55Z</time>
      </trkpt>
      <trkpt lat="45.32778" lon="6.48044">
        <ele>2111.7</ele>
        <time>2013-08-29T07:43:56Z</time>
      </trkpt>
      <trkpt lat="45.32774" lon="6.48048">
        <ele>2113.6</ele>
        <time>2013-08-29T07:44:12Z</time>
      </trkpt>
      <trkpt lat="45.32771" lon="6.4805">
        <ele>2115</ele>
        <time>2013-08-29T07:44:30Z</time>
      </trkpt>
      <trkpt lat="45.32768" lon="6.48052">
        <ele>2117</ele>
        <time>2013-08-29T07:44:47Z</time>
      </trkpt>
      <trkpt lat="45.32765" lon="6.48052">
        <ele>2120.3</ele>
        <time>2013-08-29T07:45:03Z</time>
      </trkpt>
      <trkpt lat="45.32762" lon="6.48058">
        <ele>2121.8</ele>
        <time>2013-08-29T07:45:17Z</time>
      </trkpt>
      <trkpt lat="45.32759" lon="6.48051">
        <ele>2123.2</ele>
        <time>2013-08-29T07:45:28Z</time>
      </trkpt>
      <trkpt lat="45.32761" lon="6.48041">
        <ele>2124.7</ele>
        <time>2013-08-29T07:45:40Z</time>
      </trkpt>
      <trkpt lat="45.32764" lon="6.48034">
        <ele>2127.1</ele>
        <time>2013-08-29T07:45:53Z</time>
      </trkpt>
      <trkpt lat="45.32769" lon="6.48031">
        <ele>2128.5</ele>
        <time>2013-08-29T07:46:03Z</time>
      </trkpt>
      <trkpt lat="45.32772" lon="6.48025">
        <ele>2130.4</ele>
        <time>2013-08-29T07:46:15Z</time>
      </trkpt>
      <trkpt lat="45.32774" lon="6.48019">
        <ele>2132.3</ele>
        <time>2013-08-29T07:46:30Z</time>
      </trkpt>
      <trkpt lat="45.32769" lon="6.48016">
        <ele>2133.8</ele>
        <time>2013-08-29T07:46:43Z</time>
      </trkpt>
      <trkpt lat="45.32766" lon="6.48009">
        <ele>2136.2</ele>
        <time>2013-08-29T07:46:57Z</time>
      </trkpt>
      <trkpt lat="45.32765" lon="6.48006">
        <ele>2137.6</ele>
        <time>2013-08-29T07:47:12Z</time>
      </trkpt>
      <trkpt lat="45.3276" lon="6.48005">
        <ele>2140</ele>
        <time>2013-08-29T07:47:27Z</time>
      </trkpt>
      <trkpt lat="45.32748" lon="6.48007">
        <ele>2140.5</ele>
        <time>2013-08-29T07:47:43Z</time>
      </trkpt>
      <trkpt lat="45.32743" lon="6.48011">
        <ele>2142</ele>
        <time>2013-08-29T07:48:01Z</time>
      </trkpt>
      <trkpt lat="45.32734" lon="6.48012">
        <ele>2143.9</ele>
        <time>2013-08-29T07:48:14Z</time>
      </trkpt>
      <trkpt lat="45.32728" lon="6.48015">
        <ele>2145.8</ele>
        <time>2013-08-29T07:48:28Z</time>
      </trkpt>
      <trkpt lat="45.3272" lon="6.48014">
        <ele>2148.2</ele>
        <time>2013-08-29T07:48:43Z</time>
      </trkpt>
      <trkpt lat="45.32715" lon="6.48017">
        <ele>2150.1</ele>
        <time>2013-08-29T07:48:56Z</time>
      </trkpt>
      <trkpt lat="45.32705" lon="6.48019">
        <ele>2150.6</ele>
        <time>2013-08-29T07:49:17Z</time>
      </trkpt>
      <trkpt lat="45.327" lon="6.48024">
        <ele>2153</ele>
        <time>2013-08-29T07:49:32Z</time>
      </trkpt>
      <trkpt lat="45.32696" lon="6.48025">
        <ele>2154</ele>
        <time>2013-08-29T07:49:47Z</time>
      </trkpt>
      <trkpt lat="45.32691" lon="6.4803">
        <ele>2155.9</ele>
        <time>2013-08-29T07:50:00Z</time>
      </trkpt>
      <trkpt lat="45.32682" lon="6.48032">
        <ele>2158.3</ele>
        <time>2013-08-29T07:50:15Z</time>
      </trkpt>
      <trkpt lat="45.32672" lon="6.48035">
        <ele>2160.2</ele>
        <time>2013-08-29T07:50:31Z</time>
      </trkpt>
      <trkpt lat="45.32665" lon="6.4804">
        <ele>2161.7</ele>
        <time>2013-08-29T07:50:45Z</time>
      </trkpt>
      <trkpt lat="45.3266" lon="6.48046">
        <ele>2164.6</ele>
        <time>2013-08-29T07:51:01Z</time>
      </trkpt>
      <trkpt lat="45.32659" lon="6.48048">
        <ele>2165</ele>
        <time>2013-08-29T07:51:14Z</time>
      </trkpt>
      <trkpt lat="45.32654" lon="6.48049">
        <ele>2166</ele>
        <time>2013-08-29T07:51:32Z</time>
      </trkpt>
      <trkpt lat="45.32648" lon="6.48052">
        <ele>2168.9</ele>
        <time>2013-08-29T07:51:47Z</time>
      </trkpt>
      <trkpt lat="45.32651" lon="6.4806">
        <ele>2169.4</ele>
        <time>2013-08-29T07:51:57Z</time>
      </trkpt>
      <trkpt lat="45.32649" lon="6.48064">
        <ele>2170.8</ele>
        <time>2013-08-29T07:52:12Z</time>
      </trkpt>
      <trkpt lat="45.32643" lon="6.4806">
        <ele>2172.7</ele>
        <time>2013-08-29T07:52:27Z</time>
      </trkpt>
      <trkpt lat="45.32645" lon="6.48066">
        <ele>2172.2</ele>
        <time>2013-08-29T07:52:43Z</time>
      </trkpt>
      <trkpt lat="45.32644" lon="6.48079">
        <ele>2174.6</ele>
        <time>2013-08-29T07:52:58Z</time>
      </trkpt>
      <trkpt lat="45.32642" lon="6.48086">
        <ele>2176.6</ele>
        <time>2013-08-29T07:53:10Z</time>
      </trkpt>
      <trkpt lat="45.32638" lon="6.48095">
        <ele>2179</ele>
        <time>2013-08-29T07:53:25Z</time>
      </trkpt>
      <trkpt lat="45.32634" lon="6.48107">
        <ele>2181.4</ele>
        <time>2013-08-29T07:53:40Z</time>
      </trkpt>
      <trkpt lat="45.32633" lon="6.48118">
        <ele>2183.8</ele>
        <time>2013-08-29T07:53:53Z</time>
      </trkpt>
      <trkpt lat="45.32629" lon="6.48126">
        <ele>2184.3</ele>
        <time>2013-08-29T07:54:08Z</time>
      </trkpt>
      <trkpt lat="45.32619" lon="6.48128">
        <ele>2185.7</ele>
        <time>2013-08-29T07:54:21Z</time>
      </trkpt>
      <trkpt lat="45.32613" lon="6.48131">
        <ele>2186.7</ele>
        <time>2013-08-29T07:54:34Z</time>
      </trkpt>
      <trkpt lat="45.32613" lon="6.48132">
        <ele>2186.2</ele>
        <time>2013-08-29T07:54:53Z</time>
      </trkpt>
      <trkpt lat="45.32613" lon="6.48131">
        <ele>2186.2</ele>
        <time>2013-08-29T07:55:10Z</time>
      </trkpt>
      <trkpt lat="45.32609" lon="6.48131">
        <ele>2187.1</ele>
        <time>2013-08-29T07:55:33Z</time>
      </trkpt>
      <trkpt lat="45.32597" lon="6.48131">
        <ele>2188.6</ele>
        <time>2013-08-29T07:55:51Z</time>
      </trkpt>
      <trkpt lat="45.32597" lon="6.4813">
        <ele>2187.6</ele>
        <time>2013-08-29T07:56:07Z</time>
      </trkpt>
      <trkpt lat="45.32594" lon="6.48129">
        <ele>2187.6</ele>
        <time>2013-08-29T07:56:35Z</time>
      </trkpt>
      <trkpt lat="45.32593" lon="6.4813">
        <ele>2188.1</ele>
        <time>2013-08-29T07:57:20Z</time>
      </trkpt>
      <trkpt lat="45.32592" lon="6.4813">
        <ele>2188.1</ele>
        <time>2013-08-29T07:57:52Z</time>
      </trkpt>
      <trkpt lat="45.32589" lon="6.48128">
        <ele>2187.6</ele>
        <time>2013-08-29T07:58:33Z</time>
      </trkpt>
      <trkpt lat="45.32588" lon="6.48127">
        <ele>2187.1</ele>
        <time>2013-08-29T07:59:09Z</time>
      </trkpt>
      <trkpt lat="45.32588" lon="6.48126">
        <ele>2187.6</ele>
        <time>2013-08-29T07:59:38Z</time>
      </trkpt>
      <trkpt lat="45.32588" lon="6.48125">
        <ele>2188.1</ele>
        <time>2013-08-29T08:00:06Z</time>
      </trkpt>
      <trkpt lat="45.32587" lon="6.48124">
        <ele>2187.6</ele>
        <time>2013-08-29T08:00:42Z</time>
      </trkpt>
      <trkpt lat="45.32587" lon="6.48124">
        <ele>2187.6</ele>
        <time>2013-08-29T08:01:18Z</time>
      </trkpt>
      <trkpt lat="45.32586" lon="6.48123">
        <ele>2188.1</ele>
        <time>2013-08-29T08:01:52Z</time>
      </trkpt>
      <trkpt lat="45.32586" lon="6.48125">
        <ele>2188.1</ele>
        <time>2013-08-29T08:02:28Z</time>
      </trkpt>
      <trkpt lat="45.32586" lon="6.48126">
        <ele>2188.1</ele>
        <time>2013-08-29T08:02:58Z</time>
      </trkpt>
      <trkpt lat="45.32583" lon="6.4813">
        <ele>2189.1</ele>
        <time>2013-08-29T08:03:10Z</time>
      </trkpt>
      <trkpt lat="45.32576" lon="6.48139">
        <ele>2190.5</ele>
        <time>2013-08-29T08:03:23Z</time>
      </trkpt>
      <trkpt lat="45.32566" lon="6.48141">
        <ele>2191.9</ele>
        <time>2013-08-29T08:03:37Z</time>
      </trkpt>
      <trkpt lat="45.32558" lon="6.48145">
        <ele>2193.9</ele>
        <time>2013-08-29T08:03:51Z</time>
      </trkpt>
      <trkpt lat="45.32548" lon="6.48149">
        <ele>2195.3</ele>
        <time>2013-08-29T08:04:07Z</time>
      </trkpt>
      <trkpt lat="45.32547" lon="6.4815">
        <ele>2196.8</ele>
        <time>2013-08-29T08:04:08Z</time>
      </trkpt>
      <trkpt lat="45.3254" lon="6.48158">
        <ele>2197.7</ele>
        <time>2013-08-29T08:04:23Z</time>
      </trkpt>
      <trkpt lat="45.32528" lon="6.48161">
        <ele>2198.7</ele>
        <time>2013-08-29T08:04:40Z</time>
      </trkpt>
      <trkpt lat="45.32525" lon="6.48161">
        <ele>2199.6</ele>
        <time>2013-08-29T08:04:46Z</time>
      </trkpt>
      <trkpt lat="45.32512" lon="6.48158">
        <ele>2201.1</ele>
        <time>2013-08-29T08:05:00Z</time>
      </trkpt>
      <trkpt lat="45.325" lon="6.4816">
        <ele>2203</ele>
        <time>2013-08-29T08:05:16Z</time>
      </trkpt>
      <trkpt lat="45.32496" lon="6.48159">
        <ele>2203.5</ele>
        <time>2013-08-29T08:05:30Z</time>
      </trkpt>
      <trkpt lat="45.32483" lon="6.48159">
        <ele>2205.9</ele>
        <time>2013-08-29T08:05:46Z</time>
      </trkpt>
      <trkpt lat="45.32478" lon="6.48159">
        <ele>2205.9</ele>
        <time>2013-08-29T08:05:51Z</time>
      </trkpt>
      <trkpt lat="45.32462" lon="6.48165">
        <ele>2207.3</ele>
        <time>2013-08-29T08:06:09Z</time>
      </trkpt>
      <trkpt lat="45.32451" lon="6.48171">
        <ele>2209.3</ele>
        <time>2013-08-29T08:06:25Z</time>
      </trkpt>
      <trkpt lat="45.32442" lon="6.48171">
        <ele>2210.7</ele>
        <time>2013-08-29T08:06:37Z</time>
      </trkpt>
      <trkpt lat="45.32431" lon="6.48174">
        <ele>2213.1</ele>
        <time>2013-08-29T08:06:51Z</time>
      </trkpt>
      <trkpt lat="45.32422" lon="6.48173">
        <ele>2213.6</ele>
        <time>2013-08-29T08:07:05Z</time>
      </trkpt>
      <trkpt lat="45.32418" lon="6.48169">
        <ele>2214.5</ele>
        <time>2013-08-29T08:07:15Z</time>
      </trkpt>
      <trkpt lat="45.32414" lon="6.48165">
        <ele>2216.9</ele>
        <time>2013-08-29T08:07:29Z</time>
      </trkpt>
      <trkpt lat="45.32404" lon="6.48157">
        <ele>2218.9</ele>
        <time>2013-08-29T08:07:45Z</time>
      </trkpt>
      <trkpt lat="45.324" lon="6.48152">
        <ele>2220.8</ele>
        <time>2013-08-29T08:07:58Z</time>
      </trkpt>
      <trkpt lat="45.3239" lon="6.48153">
        <ele>2222.7</ele>
        <time>2013-08-29T08:08:13Z</time>
      </trkpt>
      <trkpt lat="45.32379" lon="6.48149">
        <ele>2225.1</ele>
        <time>2013-08-29T08:08:29Z</time>
      </trkpt>
      <trkpt lat="45.32373" lon="6.4814">
        <ele>2228</ele>
        <time>2013-08-29T08:08:44Z</time>
      </trkpt>
      <trkpt lat="45.32365" lon="6.48135">
        <ele>2230.4</ele>
        <time>2013-08-29T08:08:58Z</time>
      </trkpt>
      <trkpt lat="45.32363" lon="6.48131">
        <ele>2230.4</ele>
        <time>2013-08-29T08:09:13Z</time>
      </trkpt>
      <trkpt lat="45.32361" lon="6.48128">
        <ele>2230.4</ele>
        <time>2013-08-29T08:09:16Z</time>
      </trkpt>
      <trkpt lat="45.32349" lon="6.48111">
        <ele>2230.4</ele>
        <time>2013-08-29T08:09:32Z</time>
      </trkpt>
      <trkpt lat="45.32347" lon="6.48109">
        <ele>2230.9</ele>
        <time>2013-08-29T08:09:35Z</time>
      </trkpt>
      <trkpt lat="45.32338" lon="6.48094">
        <ele>2233.3</ele>
        <time>2013-08-29T08:09:51Z</time>
      </trkpt>
      <trkpt lat="45.32329" lon="6.48097">
        <ele>2235.2</ele>
        <time>2013-08-29T08:10:05Z</time>
      </trkpt>
      <trkpt lat="45.32321" lon="6.48095">
        <ele>2236.6</ele>
        <time>2013-08-29T08:10:18Z</time>
      </trkpt>
      <trkpt lat="45.32316" lon="6.48094">
        <ele>2237.6</ele>
        <time>2013-08-29T08:10:30Z</time>
      </trkpt>
      <trkpt lat="45.32312" lon="6.48095">
        <ele>2238.1</ele>
        <time>2013-08-29T08:10:41Z</time>
      </trkpt>
      <trkpt lat="45.32309" lon="6.48095">
        <ele>2238.6</ele>
        <time>2013-08-29T08:10:44Z</time>
      </trkpt>
      <trkpt lat="45.323" lon="6.48091">
        <ele>2239.5</ele>
        <time>2013-08-29T08:10:56Z</time>
      </trkpt>
      <trkpt lat="45.32276" lon="6.48094">
        <ele>2242.9</ele>
        <time>2013-08-29T08:11:13Z</time>
      </trkpt>
      <trkpt lat="45.32274" lon="6.48096">
        <ele>2243.4</ele>
        <time>2013-08-29T08:11:25Z</time>
      </trkpt>
      <trkpt lat="45.32264" lon="6.48095">
        <ele>2244.3</ele>
        <time>2013-08-29T08:11:38Z</time>
      </trkpt>
      <trkpt lat="45.32254" lon="6.48094">
        <ele>2245.8</ele>
        <time>2013-08-29T08:11:52Z</time>
      </trkpt>
      <trkpt lat="45.32244" lon="6.48087">
        <ele>2248.7</ele>
        <time>2013-08-29T08:12:08Z</time>
      </trkpt>
      <trkpt lat="45.32235" lon="6.48092">
        <ele>2250.6</ele>
        <time>2013-08-29T08:12:22Z</time>
      </trkpt>
      <trkpt lat="45.32235" lon="6.48091">
        <ele>2250.1</ele>
        <time>2013-08-29T08:12:25Z</time>
      </trkpt>
      <trkpt lat="45.32222" lon="6.48087">
        <ele>2251.1</ele>
        <time>2013-08-29T08:12:34Z</time>
      </trkpt>
      <trkpt lat="45.32198" lon="6.48079">
        <ele>2252.5</ele>
        <time>2013-08-29T08:12:46Z</time>
      </trkpt>
      <trkpt lat="45.32178" lon="6.48075">
        <ele>2254.9</ele>
        <time>2013-08-29T08:12:59Z</time>
      </trkpt>
      <trkpt lat="45.32168" lon="6.48075">
        <ele>2255.4</ele>
        <time>2013-08-29T08:13:06Z</time>
      </trkpt>
      <trkpt lat="45.32152" lon="6.48077">
        <ele>2256.4</ele>
        <time>2013-08-29T08:13:18Z</time>
      </trkpt>
      <trkpt lat="45.32137" lon="6.48077">
        <ele>2257.8</ele>
        <time>2013-08-29T08:13:31Z</time>
      </trkpt>
      <trkpt lat="45.32135" lon="6.48075">
        <ele>2257.8</ele>
        <time>2013-08-29T08:13:46Z</time>
      </trkpt>
      <trkpt lat="45.32113" lon="6.48062">
        <ele>2260.2</ele>
        <time>2013-08-29T08:14:00Z</time>
      </trkpt>
      <trkpt lat="45.32111" lon="6.48064">
        <ele>2259.2</ele>
        <time>2013-08-29T08:14:11Z</time>
      </trkpt>
      <trkpt lat="45.32109" lon="6.48063">
        <ele>2260.2</ele>
        <time>2013-08-29T08:14:44Z</time>
      </trkpt>
      <trkpt lat="45.32095" lon="6.48062">
        <ele>2260.7</ele>
        <time>2013-08-29T08:14:59Z</time>
      </trkpt>
      <trkpt lat="45.32092" lon="6.4806">
        <ele>2260.2</ele>
        <time>2013-08-29T08:15:02Z</time>
      </trkpt>
      <trkpt lat="45.32087" lon="6.48048">
        <ele>2262.6</ele>
        <time>2013-08-29T08:15:16Z</time>
      </trkpt>
      <trkpt lat="45.32087" lon="6.48048">
        <ele>2262.6</ele>
        <time>2013-08-29T08:15:17Z</time>
      </trkpt>
      <trkpt lat="45.32077" lon="6.48052">
        <ele>2264.5</ele>
        <time>2013-08-29T08:15:30Z</time>
      </trkpt>
      <trkpt lat="45.32064" lon="6.48054">
        <ele>2266</ele>
        <time>2013-08-29T08:15:46Z</time>
      </trkpt>
      <trkpt lat="45.32051" lon="6.48055">
        <ele>2267.4</ele>
        <time>2013-08-29T08:16:02Z</time>
      </trkpt>
      <trkpt lat="45.32039" lon="6.48054">
        <ele>2269.3</ele>
        <time>2013-08-29T08:16:16Z</time>
      </trkpt>
      <trkpt lat="45.32025" lon="6.48052">
        <ele>2271.7</ele>
        <time>2013-08-29T08:16:32Z</time>
      </trkpt>
      <trkpt lat="45.32013" lon="6.4805">
        <ele>2273.2</ele>
        <time>2013-08-29T08:16:47Z</time>
      </trkpt>
      <trkpt lat="45.32" lon="6.48051">
        <ele>2274.6</ele>
        <time>2013-08-29T08:17:02Z</time>
      </trkpt>
      <trkpt lat="45.31977" lon="6.48053">
        <ele>2277</ele>
        <time>2013-08-29T08:17:18Z</time>
      </trkpt>
      <trkpt lat="45.31966" lon="6.48056">
        <ele>2278.5</ele>
        <time>2013-08-29T08:17:26Z</time>
      </trkpt>
      <trkpt lat="45.31958" lon="6.48058">
        <ele>2279.4</ele>
        <time>2013-08-29T08:17:37Z</time>
      </trkpt>
      <trkpt lat="45.31945" lon="6.48067">
        <ele>2281.4</ele>
        <time>2013-08-29T08:17:55Z</time>
      </trkpt>
      <trkpt lat="45.31942" lon="6.48069">
        <ele>2281.4</ele>
        <time>2013-08-29T08:18:05Z</time>
      </trkpt>
      <trkpt lat="45.31924" lon="6.48077">
        <ele>2281.8</ele>
        <time>2013-08-29T08:18:19Z</time>
      </trkpt>
      <trkpt lat="45.31914" lon="6.48082">
        <ele>2282.8</ele>
        <time>2013-08-29T08:18:26Z</time>
      </trkpt>
      <trkpt lat="45.31898" lon="6.48103">
        <ele>2285.2</ele>
        <time>2013-08-29T08:18:41Z</time>
      </trkpt>
      <trkpt lat="45.31882" lon="6.48121">
        <ele>2286.6</ele>
        <time>2013-08-29T08:18:57Z</time>
      </trkpt>
      <trkpt lat="45.31869" lon="6.48139">
        <ele>2289.5</ele>
        <time>2013-08-29T08:19:11Z</time>
      </trkpt>
      <trkpt lat="45.31856" lon="6.4816">
        <ele>2292.9</ele>
        <time>2013-08-29T08:19:27Z</time>
      </trkpt>
      <trkpt lat="45.31851" lon="6.48168">
        <ele>2294.3</ele>
        <time>2013-08-29T08:19:42Z</time>
      </trkpt>
      <trkpt lat="45.31847" lon="6.48175">
        <ele>2296.3</ele>
        <time>2013-08-29T08:19:57Z</time>
      </trkpt>
      <trkpt lat="45.31835" lon="6.4819">
        <ele>2299.1</ele>
        <time>2013-08-29T08:20:19Z</time>
      </trkpt>
      <trkpt lat="45.31824" lon="6.48199">
        <ele>2301.5</ele>
        <time>2013-08-29T08:20:37Z</time>
      </trkpt>
      <trkpt lat="45.31814" lon="6.48212">
        <ele>2304.4</ele>
        <time>2013-08-29T08:20:56Z</time>
      </trkpt>
      <trkpt lat="45.31811" lon="6.48215">
        <ele>2305.4</ele>
        <time>2013-08-29T08:21:03Z</time>
      </trkpt>
      <trkpt lat="45.31803" lon="6.48221">
        <ele>2307.3</ele>
        <time>2013-08-29T08:21:22Z</time>
      </trkpt>
      <trkpt lat="45.31791" lon="6.4823">
        <ele>2309.7</ele>
        <time>2013-08-29T08:21:38Z</time>
      </trkpt>
      <trkpt lat="45.31782" lon="6.48244">
        <ele>2312.1</ele>
        <time>2013-08-29T08:21:57Z</time>
      </trkpt>
      <trkpt lat="45.31778" lon="6.4825">
        <ele>2314.5</ele>
        <time>2013-08-29T08:22:18Z</time>
      </trkpt>
      <trkpt lat="45.31776" lon="6.48259">
        <ele>2316</ele>
        <time>2013-08-29T08:22:33Z</time>
      </trkpt>
      <trkpt lat="45.31774" lon="6.48268">
        <ele>2317.9</ele>
        <time>2013-08-29T08:22:48Z</time>
      </trkpt>
      <trkpt lat="45.31771" lon="6.48279">
        <ele>2320.8</ele>
        <time>2013-08-29T08:23:06Z</time>
      </trkpt>
      <trkpt lat="45.31775" lon="6.48289">
        <ele>2322.7</ele>
        <time>2013-08-29T08:23:24Z</time>
      </trkpt>
      <trkpt lat="45.31778" lon="6.48297">
        <ele>2323.2</ele>
        <time>2013-08-29T08:23:33Z</time>
      </trkpt>
      <trkpt lat="45.31786" lon="6.48299">
        <ele>2323.6</ele>
        <time>2013-08-29T08:23:48Z</time>
      </trkpt>
      <trkpt lat="45.31787" lon="6.48302">
        <ele>2324.6</ele>
        <time>2013-08-29T08:24:00Z</time>
      </trkpt>
      <trkpt lat="45.31798" lon="6.48311">
        <ele>2327.5</ele>
        <time>2013-08-29T08:24:18Z</time>
      </trkpt>
      <trkpt lat="45.31806" lon="6.48323">
        <ele>2330.4</ele>
        <time>2013-08-29T08:24:35Z</time>
      </trkpt>
      <trkpt lat="45.31812" lon="6.48331">
        <ele>2331.3</ele>
        <time>2013-08-29T08:24:50Z</time>
      </trkpt>
      <trkpt lat="45.31813" lon="6.48345">
        <ele>2334.2</ele>
        <time>2013-08-29T08:25:08Z</time>
      </trkpt>
      <trkpt lat="45.31814" lon="6.48352">
        <ele>2336.1</ele>
        <time>2013-08-29T08:25:27Z</time>
      </trkpt>
      <trkpt lat="45.31812" lon="6.48362">
        <ele>2339</ele>
        <time>2013-08-29T08:25:42Z</time>
      </trkpt>
      <trkpt lat="45.31808" lon="6.48372">
        <ele>2341.9</ele>
        <time>2013-08-29T08:25:56Z</time>
      </trkpt>
      <trkpt lat="45.31806" lon="6.48385">
        <ele>2345.8</ele>
        <time>2013-08-29T08:26:13Z</time>
      </trkpt>
      <trkpt lat="45.31805" lon="6.48399">
        <ele>2348.2</ele>
        <time>2013-08-29T08:26:31Z</time>
      </trkpt>
      <trkpt lat="45.31802" lon="6.4841">
        <ele>2351</ele>
        <time>2013-08-29T08:26:47Z</time>
      </trkpt>
      <trkpt lat="45.31806" lon="6.48411">
        <ele>2352.5</ele>
        <time>2013-08-29T08:26:59Z</time>
      </trkpt>
      <trkpt lat="45.31812" lon="6.48416">
        <ele>2353</ele>
        <time>2013-08-29T08:27:11Z</time>
      </trkpt>
      <trkpt lat="45.31809" lon="6.48427">
        <ele>2353.9</ele>
        <time>2013-08-29T08:27:20Z</time>
      </trkpt>
      <trkpt lat="45.31803" lon="6.48449">
        <ele>2356.8</ele>
        <time>2013-08-29T08:27:39Z</time>
      </trkpt>
      <trkpt lat="45.31803" lon="6.48466">
        <ele>2358.3</ele>
        <time>2013-08-29T08:27:55Z</time>
      </trkpt>
      <trkpt lat="45.31803" lon="6.48476">
        <ele>2359.7</ele>
        <time>2013-08-29T08:28:10Z</time>
      </trkpt>
      <trkpt lat="45.31804" lon="6.48473">
        <ele>2359.7</ele>
        <time>2013-08-29T08:28:42Z</time>
      </trkpt>
      <trkpt lat="45.31804" lon="6.48494">
        <ele>2359.7</ele>
        <time>2013-08-29T08:28:57Z</time>
      </trkpt>
      <trkpt lat="45.318" lon="6.48505">
        <ele>2359.7</ele>
        <time>2013-08-29T08:29:08Z</time>
      </trkpt>
      <trkpt lat="45.31798" lon="6.48511">
        <ele>2359.7</ele>
        <time>2013-08-29T08:29:16Z</time>
      </trkpt>
      <trkpt lat="45.31783" lon="6.48529">
        <ele>2360.7</ele>
        <time>2013-08-29T08:29:29Z</time>
      </trkpt>
      <trkpt lat="45.31781" lon="6.4853">
        <ele>2360.7</ele>
        <time>2013-08-29T08:29:30Z</time>
      </trkpt>
      <trkpt lat="45.31779" lon="6.48531">
        <ele>2361.1</ele>
        <time>2013-08-29T08:29:31Z</time>
      </trkpt>
      <trkpt lat="45.31778" lon="6.48532">
        <ele>2361.1</ele>
        <time>2013-08-29T08:29:32Z</time>
      </trkpt>
      <trkpt lat="45.31776" lon="6.48534">
        <ele>2361.1</ele>
        <time>2013-08-29T08:29:33Z</time>
      </trkpt>
      <trkpt lat="45.31775" lon="6.48536">
        <ele>2361.1</ele>
        <time>2013-08-29T08:29:34Z</time>
      </trkpt>
      <trkpt lat="45.31763" lon="6.48568">
        <ele>2363.1</ele>
        <time>2013-08-29T08:29:49Z</time>
      </trkpt>
      <trkpt lat="45.3176" lon="6.48585">
        <ele>2363.1</ele>
        <time>2013-08-29T08:29:57Z</time>
      </trkpt>
      <trkpt lat="45.31758" lon="6.48586">
        <ele>2363.5</ele>
        <time>2013-08-29T08:29:58Z</time>
      </trkpt>
      <trkpt lat="45.31757" lon="6.48587">
        <ele>2363.5</ele>
        <time>2013-08-29T08:29:59Z</time>
      </trkpt>
      <trkpt lat="45.31755" lon="6.48589">
        <ele>2363.5</ele>
        <time>2013-08-29T08:30:00Z</time>
      </trkpt>
      <trkpt lat="45.31755" lon="6.48591">
        <ele>2364</ele>
        <time>2013-08-29T08:30:01Z</time>
      </trkpt>
      <trkpt lat="45.31755" lon="6.48593">
        <ele>2364.5</ele>
        <time>2013-08-29T08:30:02Z</time>
      </trkpt>
      <trkpt lat="45.31754" lon="6.48594">
        <ele>2364</ele>
        <time>2013-08-29T08:30:03Z</time>
      </trkpt>
      <trkpt lat="45.31754" lon="6.48596">
        <ele>2364.5</ele>
        <time>2013-08-29T08:30:04Z</time>
      </trkpt>
      <trkpt lat="45.31753" lon="6.48598">
        <ele>2365</ele>
        <time>2013-08-29T08:30:05Z</time>
      </trkpt>
      <trkpt lat="45.31753" lon="6.486">
        <ele>2365</ele>
        <time>2013-08-29T08:30:06Z</time>
      </trkpt>
      <trkpt lat="45.31752" lon="6.48602">
        <ele>2365</ele>
        <time>2013-08-29T08:30:07Z</time>
      </trkpt>
      <trkpt lat="45.31751" lon="6.48604">
        <ele>2365.5</ele>
        <time>2013-08-29T08:30:08Z</time>
      </trkpt>
      <trkpt lat="45.31751" lon="6.48606">
        <ele>2365.5</ele>
        <time>2013-08-29T08:30:09Z</time>
      </trkpt>
      <trkpt lat="45.3175" lon="6.48608">
        <ele>2365.9</ele>
        <time>2013-08-29T08:30:10Z</time>
      </trkpt>
      <trkpt lat="45.3175" lon="6.48609">
        <ele>2365.9</ele>
        <time>2013-08-29T08:30:11Z</time>
      </trkpt>
      <trkpt lat="45.31747" lon="6.48648">
        <ele>2365</ele>
        <time>2013-08-29T08:30:25Z</time>
      </trkpt>
      <trkpt lat="45.31745" lon="6.48659">
        <ele>2365</ele>
        <time>2013-08-29T08:30:28Z</time>
      </trkpt>
      <trkpt lat="45.31743" lon="6.48661">
        <ele>2364.5</ele>
        <time>2013-08-29T08:30:29Z</time>
      </trkpt>
      <trkpt lat="45.31742" lon="6.48663">
        <ele>2365.5</ele>
        <time>2013-08-29T08:30:30Z</time>
      </trkpt>
      <trkpt lat="45.31717" lon="6.48675">
        <ele>2364.5</ele>
        <time>2013-08-29T08:30:42Z</time>
      </trkpt>
      <trkpt lat="45.31712" lon="6.48688">
        <ele>2364</ele>
        <time>2013-08-29T08:30:52Z</time>
      </trkpt>
      <trkpt lat="45.31711" lon="6.48685">
        <ele>2364</ele>
        <time>2013-08-29T08:31:17Z</time>
      </trkpt>
      <trkpt lat="45.31709" lon="6.48686">
        <ele>2364</ele>
        <time>2013-08-29T08:31:59Z</time>
      </trkpt>
      <trkpt lat="45.31711" lon="6.48685">
        <ele>2364.5</ele>
        <time>2013-08-29T08:32:45Z</time>
      </trkpt>
      <trkpt lat="45.3171" lon="6.48685">
        <ele>2365.5</ele>
        <time>2013-08-29T08:33:32Z</time>
      </trkpt>
      <trkpt lat="45.31714" lon="6.48684">
        <ele>2365.5</ele>
        <time>2013-08-29T08:34:12Z</time>
      </trkpt>
      <trkpt lat="45.31713" lon="6.48686">
        <ele>2365.9</ele>
        <time>2013-08-29T08:34:41Z</time>
      </trkpt>
      <trkpt lat="45.31708" lon="6.48689">
        <ele>2365.5</ele>
        <time>2013-08-29T08:34:45Z</time>
      </trkpt>
      <trkpt lat="45.31703" lon="6.48693">
        <ele>2365.5</ele>
        <time>2013-08-29T08:34:48Z</time>
      </trkpt>
      <trkpt lat="45.31701" lon="6.48697">
        <ele>2365</ele>
        <time>2013-08-29T08:34:50Z</time>
      </trkpt>
      <trkpt lat="45.31695" lon="6.48708">
        <ele>2365.5</ele>
        <time>2013-08-29T08:35:00Z</time>
      </trkpt>
      <trkpt lat="45.31682" lon="6.48722">
        <ele>2364</ele>
        <time>2013-08-29T08:35:09Z</time>
      </trkpt>
      <trkpt lat="45.3166" lon="6.48743">
        <ele>2363.5</ele>
        <time>2013-08-29T08:35:20Z</time>
      </trkpt>
      <trkpt lat="45.31652" lon="6.48749">
        <ele>2363.1</ele>
        <time>2013-08-29T08:35:31Z</time>
      </trkpt>
      <trkpt lat="45.31648" lon="6.4876">
        <ele>2364</ele>
        <time>2013-08-29T08:35:46Z</time>
      </trkpt>
      <trkpt lat="45.31648" lon="6.48762">
        <ele>2364</ele>
        <time>2013-08-29T08:35:50Z</time>
      </trkpt>
      <trkpt lat="45.31642" lon="6.48763">
        <ele>2365</ele>
        <time>2013-08-29T08:36:00Z</time>
      </trkpt>
      <trkpt lat="45.31641" lon="6.48769">
        <ele>2364.5</ele>
        <time>2013-08-29T08:36:04Z</time>
      </trkpt>
      <trkpt lat="45.31637" lon="6.48778">
        <ele>2366.4</ele>
        <time>2013-08-29T08:36:16Z</time>
      </trkpt>
      <trkpt lat="45.31635" lon="6.4878">
        <ele>2366.4</ele>
        <time>2013-08-29T08:36:22Z</time>
      </trkpt>
      <trkpt lat="45.31628" lon="6.48781">
        <ele>2366.4</ele>
        <time>2013-08-29T08:36:26Z</time>
      </trkpt>
      <trkpt lat="45.31607" lon="6.48784">
        <ele>2365.5</ele>
        <time>2013-08-29T08:36:38Z</time>
      </trkpt>
      <trkpt lat="45.31595" lon="6.4879">
        <ele>2365</ele>
        <time>2013-08-29T08:36:46Z</time>
      </trkpt>
      <trkpt lat="45.31566" lon="6.48788">
        <ele>2363.1</ele>
        <time>2013-08-29T08:36:58Z</time>
      </trkpt>
      <trkpt lat="45.31553" lon="6.48801">
        <ele>2362.1</ele>
        <time>2013-08-29T08:37:03Z</time>
      </trkpt>
      <trkpt lat="45.3154" lon="6.48804">
        <ele>2362.6</ele>
        <time>2013-08-29T08:37:09Z</time>
      </trkpt>
      <trkpt lat="45.31532" lon="6.48809">
        <ele>2363.1</ele>
        <time>2013-08-29T08:37:13Z</time>
      </trkpt>
      <trkpt lat="45.31529" lon="6.48812">
        <ele>2362.1</ele>
        <time>2013-08-29T08:37:16Z</time>
      </trkpt>
      <trkpt lat="45.31505" lon="6.48804">
        <ele>2361.6</ele>
        <time>2013-08-29T08:37:28Z</time>
      </trkpt>
      <trkpt lat="45.31484" lon="6.48797">
        <ele>2361.1</ele>
        <time>2013-08-29T08:37:38Z</time>
      </trkpt>
      <trkpt lat="45.31456" lon="6.48798">
        <ele>2361.6</ele>
        <time>2013-08-29T08:37:50Z</time>
      </trkpt>
      <trkpt lat="45.31424" lon="6.4881">
        <ele>2359.2</ele>
        <time>2013-08-29T08:38:03Z</time>
      </trkpt>
      <trkpt lat="45.31395" lon="6.48828">
        <ele>2357.3</ele>
        <time>2013-08-29T08:38:13Z</time>
      </trkpt>
      <trkpt lat="45.3138" lon="6.48844">
        <ele>2357.3</ele>
        <time>2013-08-29T08:38:23Z</time>
      </trkpt>
      <trkpt lat="45.31377" lon="6.48853">
        <ele>2357.3</ele>
        <time>2013-08-29T08:38:33Z</time>
      </trkpt>
      <trkpt lat="45.31375" lon="6.48858">
        <ele>2357.8</ele>
        <time>2013-08-29T08:38:37Z</time>
      </trkpt>
      <trkpt lat="45.31368" lon="6.48863">
        <ele>2357.8</ele>
        <time>2013-08-29T08:38:45Z</time>
      </trkpt>
      <trkpt lat="45.31353" lon="6.48864">
        <ele>2359.2</ele>
        <time>2013-08-29T08:39:00Z</time>
      </trkpt>
      <trkpt lat="45.31343" lon="6.48869">
        <ele>2360.7</ele>
        <time>2013-08-29T08:39:14Z</time>
      </trkpt>
      <trkpt lat="45.31334" lon="6.48875">
        <ele>2360.2</ele>
        <time>2013-08-29T08:39:27Z</time>
      </trkpt>
      <trkpt lat="45.31317" lon="6.48893">
        <ele>2359.7</ele>
        <time>2013-08-29T08:39:38Z</time>
      </trkpt>
      <trkpt lat="45.31315" lon="6.48894">
        <ele>2360.2</ele>
        <time>2013-08-29T08:39:39Z</time>
      </trkpt>
      <trkpt lat="45.31304" lon="6.48898">
        <ele>2358.7</ele>
        <time>2013-08-29T08:39:45Z</time>
      </trkpt>
      <trkpt lat="45.31293" lon="6.48905">
        <ele>2357.3</ele>
        <time>2013-08-29T08:39:49Z</time>
      </trkpt>
      <trkpt lat="45.31279" lon="6.48939">
        <ele>2355.9</ele>
        <time>2013-08-29T08:39:58Z</time>
      </trkpt>
      <trkpt lat="45.31268" lon="6.48945">
        <ele>2356.3</ele>
        <time>2013-08-29T08:40:03Z</time>
      </trkpt>
      <trkpt lat="45.31263" lon="6.48957">
        <ele>2355.9</ele>
        <time>2013-08-29T08:40:07Z</time>
      </trkpt>
      <trkpt lat="45.31255" lon="6.48974">
        <ele>2355.9</ele>
        <time>2013-08-29T08:40:14Z</time>
      </trkpt>
      <trkpt lat="45.31242" lon="6.48977">
        <ele>2355.4</ele>
        <time>2013-08-29T08:40:26Z</time>
      </trkpt>
      <trkpt lat="45.31228" lon="6.48982">
        <ele>2355.9</ele>
        <time>2013-08-29T08:40:39Z</time>
      </trkpt>
      <trkpt lat="45.3121" lon="6.48992">
        <ele>2356.8</ele>
        <time>2013-08-29T08:40:51Z</time>
      </trkpt>
      <trkpt lat="45.31204" lon="6.48998">
        <ele>2357.3</ele>
        <time>2013-08-29T08:40:55Z</time>
      </trkpt>
      <trkpt lat="45.31196" lon="6.49004">
        <ele>2356.3</ele>
        <time>2013-08-29T08:40:59Z</time>
      </trkpt>
      <trkpt lat="45.31184" lon="6.49013">
        <ele>2355.4</ele>
        <time>2013-08-29T08:41:10Z</time>
      </trkpt>
      <trkpt lat="45.31179" lon="6.49018">
        <ele>2355.4</ele>
        <time>2013-08-29T08:41:23Z</time>
      </trkpt>
      <trkpt lat="45.31162" lon="6.49033">
        <ele>2355.4</ele>
        <time>2013-08-29T08:41:33Z</time>
      </trkpt>
      <trkpt lat="45.31156" lon="6.49039">
        <ele>2355.4</ele>
        <time>2013-08-29T08:41:37Z</time>
      </trkpt>
      <trkpt lat="45.31151" lon="6.49045">
        <ele>2355.9</ele>
        <time>2013-08-29T08:41:43Z</time>
      </trkpt>
      <trkpt lat="45.31146" lon="6.49049">
        <ele>2356.3</ele>
        <time>2013-08-29T08:41:47Z</time>
      </trkpt>
      <trkpt lat="45.31121" lon="6.49064">
        <ele>2355.9</ele>
        <time>2013-08-29T08:42:00Z</time>
      </trkpt>
      <trkpt lat="45.31106" lon="6.49072">
        <ele>2355.9</ele>
        <time>2013-08-29T08:42:11Z</time>
      </trkpt>
      <trkpt lat="45.31104" lon="6.49073">
        <ele>2355.9</ele>
        <time>2013-08-29T08:42:41Z</time>
      </trkpt>
      <trkpt lat="45.31102" lon="6.49073">
        <ele>2356.3</ele>
        <time>2013-08-29T08:42:56Z</time>
      </trkpt>
      <trkpt lat="45.31094" lon="6.4908">
        <ele>2355.4</ele>
        <time>2013-08-29T08:43:09Z</time>
      </trkpt>
      <trkpt lat="45.31086" lon="6.4908">
        <ele>2355.4</ele>
        <time>2013-08-29T08:43:21Z</time>
      </trkpt>
      <trkpt lat="45.31079" lon="6.49085">
        <ele>2355.4</ele>
        <time>2013-08-29T08:43:33Z</time>
      </trkpt>
      <trkpt lat="45.31074" lon="6.49086">
        <ele>2355.4</ele>
        <time>2013-08-29T08:43:44Z</time>
      </trkpt>
      <trkpt lat="45.31072" lon="6.4909">
        <ele>2354.9</ele>
        <time>2013-08-29T08:43:54Z</time>
      </trkpt>
      <trkpt lat="45.31066" lon="6.49093">
        <ele>2353.9</ele>
        <time>2013-08-29T08:44:05Z</time>
      </trkpt>
      <trkpt lat="45.3106" lon="6.49094">
        <ele>2354.4</ele>
        <time>2013-08-29T08:44:17Z</time>
      </trkpt>
      <trkpt lat="45.31058" lon="6.49095">
        <ele>2354.9</ele>
        <time>2013-08-29T08:44:33Z</time>
      </trkpt>
      <trkpt lat="45.31046" lon="6.49102">
        <ele>2355.4</ele>
        <time>2013-08-29T08:44:46Z</time>
      </trkpt>
      <trkpt lat="45.31028" lon="6.49128">
        <ele>2357.3</ele>
        <time>2013-08-29T08:44:59Z</time>
      </trkpt>
      <trkpt lat="45.31019" lon="6.49145">
        <ele>2356.3</ele>
        <time>2013-08-29T08:45:08Z</time>
      </trkpt>
      <trkpt lat="45.31017" lon="6.49145">
        <ele>2356.8</ele>
        <time>2013-08-29T08:45:23Z</time>
      </trkpt>
      <trkpt lat="45.3101" lon="6.49152">
        <ele>2356.8</ele>
        <time>2013-08-29T08:45:35Z</time>
      </trkpt>
      <trkpt lat="45.31003" lon="6.49158">
        <ele>2357.3</ele>
        <time>2013-08-29T08:45:48Z</time>
      </trkpt>
      <trkpt lat="45.31" lon="6.4916">
        <ele>2357.3</ele>
        <time>2013-08-29T08:45:53Z</time>
      </trkpt>
      <trkpt lat="45.3099" lon="6.49159">
        <ele>2357.3</ele>
        <time>2013-08-29T08:46:01Z</time>
      </trkpt>
      <trkpt lat="45.30979" lon="6.49164">
        <ele>2357.3</ele>
        <time>2013-08-29T08:46:16Z</time>
      </trkpt>
      <trkpt lat="45.30975" lon="6.49164">
        <ele>2357.8</ele>
        <time>2013-08-29T08:46:30Z</time>
      </trkpt>
      <trkpt lat="45.30971" lon="6.49169">
        <ele>2357.8</ele>
        <time>2013-08-29T08:46:41Z</time>
      </trkpt>
      <trkpt lat="45.30963" lon="6.49174">
        <ele>2358.3</ele>
        <time>2013-08-29T08:46:54Z</time>
      </trkpt>
      <trkpt lat="45.30961" lon="6.49175">
        <ele>2358.3</ele>
        <time>2013-08-29T08:47:10Z</time>
      </trkpt>
      <trkpt lat="45.30949" lon="6.4918">
        <ele>2356.3</ele>
        <time>2013-08-29T08:47:25Z</time>
      </trkpt>
      <trkpt lat="45.30943" lon="6.49182">
        <ele>2355.9</ele>
        <time>2013-08-29T08:47:38Z</time>
      </trkpt>
      <trkpt lat="45.30942" lon="6.49182">
        <ele>2355.9</ele>
        <time>2013-08-29T08:47:39Z</time>
      </trkpt>
      <trkpt lat="45.30934" lon="6.4919">
        <ele>2355.4</ele>
        <time>2013-08-29T08:47:52Z</time>
      </trkpt>
      <trkpt lat="45.30933" lon="6.49191">
        <ele>2354.9</ele>
        <time>2013-08-29T08:47:55Z</time>
      </trkpt>
      <trkpt lat="45.30926" lon="6.49198">
        <ele>2353.4</ele>
        <time>2013-08-29T08:48:10Z</time>
      </trkpt>
      <trkpt lat="45.30919" lon="6.49208">
        <ele>2353.4</ele>
        <time>2013-08-29T08:48:23Z</time>
      </trkpt>
      <trkpt lat="45.30911" lon="6.49214">
        <ele>2353</ele>
        <time>2013-08-29T08:48:37Z</time>
      </trkpt>
      <trkpt lat="45.30908" lon="6.49217">
        <ele>2352.5</ele>
        <time>2013-08-29T08:48:44Z</time>
      </trkpt>
      <trkpt lat="45.30902" lon="6.49218">
        <ele>2351.5</ele>
        <time>2013-08-29T08:48:58Z</time>
      </trkpt>
      <trkpt lat="45.30877" lon="6.49218">
        <ele>2349.6</ele>
        <time>2013-08-29T08:49:10Z</time>
      </trkpt>
      <trkpt lat="45.30861" lon="6.49231">
        <ele>2348.6</ele>
        <time>2013-08-29T08:49:20Z</time>
      </trkpt>
      <trkpt lat="45.30858" lon="6.49233">
        <ele>2349.1</ele>
        <time>2013-08-29T08:49:26Z</time>
      </trkpt>
      <trkpt lat="45.30856" lon="6.49233">
        <ele>2349.1</ele>
        <time>2013-08-29T08:49:28Z</time>
      </trkpt>
      <trkpt lat="45.30831" lon="6.49249">
        <ele>2348.2</ele>
        <time>2013-08-29T08:49:40Z</time>
      </trkpt>
      <trkpt lat="45.30815" lon="6.49257">
        <ele>2346.7</ele>
        <time>2013-08-29T08:49:45Z</time>
      </trkpt>
      <trkpt lat="45.30789" lon="6.49279">
        <ele>2344.8</ele>
        <time>2013-08-29T08:49:56Z</time>
      </trkpt>
      <trkpt lat="45.30786" lon="6.4928">
        <ele>2344.8</ele>
        <time>2013-08-29T08:49:59Z</time>
      </trkpt>
      <trkpt lat="45.30776" lon="6.49291">
        <ele>2342.9</ele>
        <time>2013-08-29T08:50:08Z</time>
      </trkpt>
      <trkpt lat="45.30772" lon="6.49296">
        <ele>2342.4</ele>
        <time>2013-08-29T08:50:19Z</time>
      </trkpt>
      <trkpt lat="45.30768" lon="6.49298">
        <ele>2342.9</ele>
        <time>2013-08-29T08:50:23Z</time>
      </trkpt>
      <trkpt lat="45.30759" lon="6.49301">
        <ele>2342.4</ele>
        <time>2013-08-29T08:50:37Z</time>
      </trkpt>
      <trkpt lat="45.3076" lon="6.49301">
        <ele>2341.4</ele>
        <time>2013-08-29T08:50:47Z</time>
      </trkpt>
      <trkpt lat="45.30759" lon="6.49305">
        <ele>2341.4</ele>
        <time>2013-08-29T08:51:00Z</time>
      </trkpt>
      <trkpt lat="45.3075" lon="6.49306">
        <ele>2341.4</ele>
        <time>2013-08-29T08:51:10Z</time>
      </trkpt>
      <trkpt lat="45.30743" lon="6.49307">
        <ele>2341.9</ele>
        <time>2013-08-29T08:51:21Z</time>
      </trkpt>
      <trkpt lat="45.30739" lon="6.49309">
        <ele>2341.4</ele>
        <time>2013-08-29T08:51:26Z</time>
      </trkpt>
      <trkpt lat="45.30726" lon="6.49317">
        <ele>2343.8</ele>
        <time>2013-08-29T08:51:44Z</time>
      </trkpt>
      <trkpt lat="45.30715" lon="6.49321">
        <ele>2343.4</ele>
        <time>2013-08-29T08:52:00Z</time>
      </trkpt>
      <trkpt lat="45.30707" lon="6.49326">
        <ele>2344.3</ele>
        <time>2013-08-29T08:52:12Z</time>
      </trkpt>
      <trkpt lat="45.30704" lon="6.49326">
        <ele>2345.3</ele>
        <time>2013-08-29T08:52:23Z</time>
      </trkpt>
      <trkpt lat="45.30696" lon="6.49328">
        <ele>2345.8</ele>
        <time>2013-08-29T08:52:36Z</time>
      </trkpt>
      <trkpt lat="45.30691" lon="6.49326">
        <ele>2345.8</ele>
        <time>2013-08-29T08:52:43Z</time>
      </trkpt>
      <trkpt lat="45.30683" lon="6.49328">
        <ele>2346.7</ele>
        <time>2013-08-29T08:52:56Z</time>
      </trkpt>
      <trkpt lat="45.30679" lon="6.49327">
        <ele>2346.7</ele>
        <time>2013-08-29T08:53:03Z</time>
      </trkpt>
      <trkpt lat="45.30662" lon="6.49331">
        <ele>2347.2</ele>
        <time>2013-08-29T08:53:19Z</time>
      </trkpt>
      <trkpt lat="45.30658" lon="6.49332">
        <ele>2347.2</ele>
        <time>2013-08-29T08:53:22Z</time>
      </trkpt>
      <trkpt lat="45.30645" lon="6.49345">
        <ele>2347.7</ele>
        <time>2013-08-29T08:53:37Z</time>
      </trkpt>
      <trkpt lat="45.30633" lon="6.49359">
        <ele>2350.1</ele>
        <time>2013-08-29T08:53:54Z</time>
      </trkpt>
      <trkpt lat="45.30626" lon="6.49366">
        <ele>2350.6</ele>
        <time>2013-08-29T08:54:02Z</time>
      </trkpt>
      <trkpt lat="45.30618" lon="6.49368">
        <ele>2350.6</ele>
        <time>2013-08-29T08:54:17Z</time>
      </trkpt>
      <trkpt lat="45.30617" lon="6.49369">
        <ele>2350.6</ele>
        <time>2013-08-29T08:54:35Z</time>
      </trkpt>
      <trkpt lat="45.30608" lon="6.49365">
        <ele>2351</ele>
        <time>2013-08-29T08:54:47Z</time>
      </trkpt>
      <trkpt lat="45.30595" lon="6.49356">
        <ele>2351.5</ele>
        <time>2013-08-29T08:55:00Z</time>
      </trkpt>
      <trkpt lat="45.30592" lon="6.49351">
        <ele>2351</ele>
        <time>2013-08-29T08:55:03Z</time>
      </trkpt>
      <trkpt lat="45.30578" lon="6.49338">
        <ele>2351.5</ele>
        <time>2013-08-29T08:55:20Z</time>
      </trkpt>
      <trkpt lat="45.30572" lon="6.49331">
        <ele>2352.5</ele>
        <time>2013-08-29T08:55:35Z</time>
      </trkpt>
      <trkpt lat="45.3056" lon="6.49321">
        <ele>2352.5</ele>
        <time>2013-08-29T08:55:46Z</time>
      </trkpt>
      <trkpt lat="45.30558" lon="6.49319">
        <ele>2352.5</ele>
        <time>2013-08-29T08:55:47Z</time>
      </trkpt>
      <trkpt lat="45.30547" lon="6.49318">
        <ele>2352.5</ele>
        <time>2013-08-29T08:55:52Z</time>
      </trkpt>
      <trkpt lat="45.30542" lon="6.49315">
        <ele>2351.5</ele>
        <time>2013-08-29T08:55:55Z</time>
      </trkpt>
      <trkpt lat="45.30533" lon="6.49317">
        <ele>2351</ele>
        <time>2013-08-29T08:55:59Z</time>
      </trkpt>
      <trkpt lat="45.30524" lon="6.49317">
        <ele>2350.6</ele>
        <time>2013-08-29T08:56:07Z</time>
      </trkpt>
      <trkpt lat="45.30508" lon="6.49319">
        <ele>2351</ele>
        <time>2013-08-29T08:56:17Z</time>
      </trkpt>
      <trkpt lat="45.30506" lon="6.49318">
        <ele>2351</ele>
        <time>2013-08-29T08:56:19Z</time>
      </trkpt>
      <trkpt lat="45.30503" lon="6.49314">
        <ele>2350.6</ele>
        <time>2013-08-29T08:56:23Z</time>
      </trkpt>
      <trkpt lat="45.30488" lon="6.4931">
        <ele>2350.6</ele>
        <time>2013-08-29T08:56:40Z</time>
      </trkpt>
      <trkpt lat="45.30485" lon="6.49309">
        <ele>2351.5</ele>
        <time>2013-08-29T08:56:51Z</time>
      </trkpt>
      <trkpt lat="45.30483" lon="6.49309">
        <ele>2351</ele>
        <time>2013-08-29T08:56:53Z</time>
      </trkpt>
      <trkpt lat="45.30473" lon="6.493">
        <ele>2350.6</ele>
        <time>2013-08-29T08:57:07Z</time>
      </trkpt>
      <trkpt lat="45.30472" lon="6.493">
        <ele>2351</ele>
        <time>2013-08-29T08:57:09Z</time>
      </trkpt>
      <trkpt lat="45.30458" lon="6.49294">
        <ele>2351</ele>
        <time>2013-08-29T08:57:24Z</time>
      </trkpt>
      <trkpt lat="45.30447" lon="6.49286">
        <ele>2352.5</ele>
        <time>2013-08-29T08:57:38Z</time>
      </trkpt>
      <trkpt lat="45.30439" lon="6.49287">
        <ele>2352.5</ele>
        <time>2013-08-29T08:57:48Z</time>
      </trkpt>
      <trkpt lat="45.30431" lon="6.49289">
        <ele>2352.5</ele>
        <time>2013-08-29T08:58:03Z</time>
      </trkpt>
      <trkpt lat="45.30429" lon="6.49289">
        <ele>2353</ele>
        <time>2013-08-29T08:58:06Z</time>
      </trkpt>
      <trkpt lat="45.30424" lon="6.49288">
        <ele>2353.4</ele>
        <time>2013-08-29T08:58:13Z</time>
      </trkpt>
      <trkpt lat="45.30421" lon="6.49288">
        <ele>2353</ele>
        <time>2013-08-29T08:58:17Z</time>
      </trkpt>
      <trkpt lat="45.30419" lon="6.49288">
        <ele>2354.4</ele>
        <time>2013-08-29T08:58:19Z</time>
      </trkpt>
      <trkpt lat="45.30412" lon="6.49289">
        <ele>2354.4</ele>
        <time>2013-08-29T08:58:23Z</time>
      </trkpt>
      <trkpt lat="45.30397" lon="6.49287">
        <ele>2354.9</ele>
        <time>2013-08-29T08:58:31Z</time>
      </trkpt>
      <trkpt lat="45.30381" lon="6.49277">
        <ele>2355.9</ele>
        <time>2013-08-29T08:58:41Z</time>
      </trkpt>
      <trkpt lat="45.30376" lon="6.49278">
        <ele>2356.3</ele>
        <time>2013-08-29T08:58:44Z</time>
      </trkpt>
      <trkpt lat="45.30359" lon="6.4928">
        <ele>2355.4</ele>
        <time>2013-08-29T08:58:57Z</time>
      </trkpt>
      <trkpt lat="45.30351" lon="6.4928">
        <ele>2357.3</ele>
        <time>2013-08-29T08:59:11Z</time>
      </trkpt>
      <trkpt lat="45.30344" lon="6.49279">
        <ele>2358.3</ele>
        <time>2013-08-29T08:59:23Z</time>
      </trkpt>
      <trkpt lat="45.30336" lon="6.49274">
        <ele>2357.8</ele>
        <time>2013-08-29T08:59:36Z</time>
      </trkpt>
      <trkpt lat="45.30333" lon="6.49273">
        <ele>2359.2</ele>
        <time>2013-08-29T08:59:40Z</time>
      </trkpt>
      <trkpt lat="45.30326" lon="6.49268">
        <ele>2359.7</ele>
        <time>2013-08-29T08:59:54Z</time>
      </trkpt>
      <trkpt lat="45.30311" lon="6.49237">
        <ele>2360.7</ele>
        <time>2013-08-29T09:00:06Z</time>
      </trkpt>
      <trkpt lat="45.30292" lon="6.49216">
        <ele>2361.6</ele>
        <time>2013-08-29T09:00:18Z</time>
      </trkpt>
      <trkpt lat="45.30268" lon="6.49203">
        <ele>2358.7</ele>
        <time>2013-08-29T09:00:27Z</time>
      </trkpt>
      <trkpt lat="45.30267" lon="6.49201">
        <ele>2358.7</ele>
        <time>2013-08-29T09:00:32Z</time>
      </trkpt>
      <trkpt lat="45.30267" lon="6.49197">
        <ele>2358.3</ele>
        <time>2013-08-29T09:00:34Z</time>
      </trkpt>
      <trkpt lat="45.30261" lon="6.49197">
        <ele>2358.7</ele>
        <time>2013-08-29T09:00:46Z</time>
      </trkpt>
      <trkpt lat="45.30255" lon="6.49194">
        <ele>2357.8</ele>
        <time>2013-08-29T09:00:53Z</time>
      </trkpt>
      <trkpt lat="45.30244" lon="6.49178">
        <ele>2356.3</ele>
        <time>2013-08-29T09:01:07Z</time>
      </trkpt>
      <trkpt lat="45.30241" lon="6.49175">
        <ele>2355.9</ele>
        <time>2013-08-29T09:01:12Z</time>
      </trkpt>
      <trkpt lat="45.30239" lon="6.49174">
        <ele>2356.3</ele>
        <time>2013-08-29T09:01:15Z</time>
      </trkpt>
      <trkpt lat="45.30234" lon="6.49162">
        <ele>2356.8</ele>
        <time>2013-08-29T09:01:21Z</time>
      </trkpt>
      <trkpt lat="45.30222" lon="6.49141">
        <ele>2354.9</ele>
        <time>2013-08-29T09:01:31Z</time>
      </trkpt>
      <trkpt lat="45.30203" lon="6.4912">
        <ele>2354.4</ele>
        <time>2013-08-29T09:01:42Z</time>
      </trkpt>
      <trkpt lat="45.30184" lon="6.49105">
        <ele>2353</ele>
        <time>2013-08-29T09:01:53Z</time>
      </trkpt>
      <trkpt lat="45.30185" lon="6.49101">
        <ele>2353.4</ele>
        <time>2013-08-29T09:02:03Z</time>
      </trkpt>
      <trkpt lat="45.30185" lon="6.49101">
        <ele>2353</ele>
        <time>2013-08-29T09:02:04Z</time>
      </trkpt>
      <trkpt lat="45.30184" lon="6.49088">
        <ele>2353.9</ele>
        <time>2013-08-29T09:02:16Z</time>
      </trkpt>
      <trkpt lat="45.30185" lon="6.49076">
        <ele>2354.9</ele>
        <time>2013-08-29T09:02:28Z</time>
      </trkpt>
      <trkpt lat="45.3019" lon="6.49061">
        <ele>2356.8</ele>
        <time>2013-08-29T09:02:44Z</time>
      </trkpt>
      <trkpt lat="45.30188" lon="6.49049">
        <ele>2358.7</ele>
        <time>2013-08-29T09:02:58Z</time>
      </trkpt>
      <trkpt lat="45.30187" lon="6.49039">
        <ele>2359.2</ele>
        <time>2013-08-29T09:03:13Z</time>
      </trkpt>
      <trkpt lat="45.30184" lon="6.49025">
        <ele>2361.6</ele>
        <time>2013-08-29T09:03:27Z</time>
      </trkpt>
      <trkpt lat="45.30178" lon="6.49017">
        <ele>2364</ele>
        <time>2013-08-29T09:03:41Z</time>
      </trkpt>
      <trkpt lat="45.30171" lon="6.49023">
        <ele>2365.9</ele>
        <time>2013-08-29T09:03:58Z</time>
      </trkpt>
      <trkpt lat="45.30167" lon="6.49017">
        <ele>2367.9</ele>
        <time>2013-08-29T09:04:13Z</time>
      </trkpt>
      <trkpt lat="45.30159" lon="6.4901">
        <ele>2369.3</ele>
        <time>2013-08-29T09:04:30Z</time>
      </trkpt>
      <trkpt lat="45.30154" lon="6.49003">
        <ele>2371.7</ele>
        <time>2013-08-29T09:04:45Z</time>
      </trkpt>
      <trkpt lat="45.3015" lon="6.48994">
        <ele>2374.6</ele>
        <time>2013-08-29T09:05:00Z</time>
      </trkpt>
      <trkpt lat="45.30142" lon="6.48993">
        <ele>2376</ele>
        <time>2013-08-29T09:05:15Z</time>
      </trkpt>
      <trkpt lat="45.30136" lon="6.48988">
        <ele>2378.4</ele>
        <time>2013-08-29T09:05:29Z</time>
      </trkpt>
      <trkpt lat="45.3013" lon="6.4898">
        <ele>2380.4</ele>
        <time>2013-08-29T09:05:44Z</time>
      </trkpt>
      <trkpt lat="45.30127" lon="6.48977">
        <ele>2381.8</ele>
        <time>2013-08-29T09:05:53Z</time>
      </trkpt>
      <trkpt lat="45.30118" lon="6.48972">
        <ele>2384.7</ele>
        <time>2013-08-29T09:06:09Z</time>
      </trkpt>
      <trkpt lat="45.30108" lon="6.48973">
        <ele>2386.1</ele>
        <time>2013-08-29T09:06:25Z</time>
      </trkpt>
      <trkpt lat="45.30099" lon="6.48969">
        <ele>2388.1</ele>
        <time>2013-08-29T09:06:40Z</time>
      </trkpt>
      <trkpt lat="45.30089" lon="6.48964">
        <ele>2390</ele>
        <time>2013-08-29T09:06:55Z</time>
      </trkpt>
      <trkpt lat="45.30079" lon="6.48965">
        <ele>2392.4</ele>
        <time>2013-08-29T09:07:10Z</time>
      </trkpt>
      <trkpt lat="45.30071" lon="6.48966">
        <ele>2393.3</ele>
        <time>2013-08-29T09:07:25Z</time>
      </trkpt>
      <trkpt lat="45.30064" lon="6.48967">
        <ele>2396.2</ele>
        <time>2013-08-29T09:07:40Z</time>
      </trkpt>
      <trkpt lat="45.30057" lon="6.48971">
        <ele>2397.2</ele>
        <time>2013-08-29T09:07:52Z</time>
      </trkpt>
      <trkpt lat="45.30047" lon="6.48971">
        <ele>2399.1</ele>
        <time>2013-08-29T09:08:06Z</time>
      </trkpt>
      <trkpt lat="45.30039" lon="6.48968">
        <ele>2401</ele>
        <time>2013-08-29T09:08:22Z</time>
      </trkpt>
      <trkpt lat="45.30027" lon="6.48966">
        <ele>2403.9</ele>
        <time>2013-08-29T09:08:40Z</time>
      </trkpt>
      <trkpt lat="45.30023" lon="6.48969">
        <ele>2404.4</ele>
        <time>2013-08-29T09:08:45Z</time>
      </trkpt>
      <trkpt lat="45.30011" lon="6.48978">
        <ele>2406.3</ele>
        <time>2013-08-29T09:09:00Z</time>
      </trkpt>
      <trkpt lat="45.30001" lon="6.48974">
        <ele>2408.2</ele>
        <time>2013-08-29T09:09:16Z</time>
      </trkpt>
      <trkpt lat="45.29996" lon="6.48973">
        <ele>2409.7</ele>
        <time>2013-08-29T09:09:31Z</time>
      </trkpt>
      <trkpt lat="45.29992" lon="6.48971">
        <ele>2409.7</ele>
        <time>2013-08-29T09:09:36Z</time>
      </trkpt>
      <trkpt lat="45.29989" lon="6.48968">
        <ele>2410.6</ele>
        <time>2013-08-29T09:09:47Z</time>
      </trkpt>
      <trkpt lat="45.2998" lon="6.48969">
        <ele>2413.5</ele>
        <time>2013-08-29T09:10:03Z</time>
      </trkpt>
      <trkpt lat="45.29969" lon="6.48958">
        <ele>2416.4</ele>
        <time>2013-08-29T09:10:20Z</time>
      </trkpt>
      <trkpt lat="45.29962" lon="6.48952">
        <ele>2418.8</ele>
        <time>2013-08-29T09:10:35Z</time>
      </trkpt>
      <trkpt lat="45.2996" lon="6.48945">
        <ele>2420.3</ele>
        <time>2013-08-29T09:10:43Z</time>
      </trkpt>
      <trkpt lat="45.2996" lon="6.4894">
        <ele>2420.3</ele>
        <time>2013-08-29T09:10:59Z</time>
      </trkpt>
      <trkpt lat="45.29951" lon="6.48929">
        <ele>2421.2</ele>
        <time>2013-08-29T09:11:17Z</time>
      </trkpt>
      <trkpt lat="45.29951" lon="6.48929">
        <ele>2420.7</ele>
        <time>2013-08-29T09:11:23Z</time>
      </trkpt>
      <trkpt lat="45.29943" lon="6.4893">
        <ele>2421.2</ele>
        <time>2013-08-29T09:11:28Z</time>
      </trkpt>
      <trkpt lat="45.2993" lon="6.48936">
        <ele>2418.8</ele>
        <time>2013-08-29T09:11:36Z</time>
      </trkpt>
      <trkpt lat="45.29906" lon="6.4895">
        <ele>2418.8</ele>
        <time>2013-08-29T09:11:47Z</time>
      </trkpt>
      <trkpt lat="45.29893" lon="6.48957">
        <ele>2418.8</ele>
        <time>2013-08-29T09:11:54Z</time>
      </trkpt>
      <trkpt lat="45.29887" lon="6.48962">
        <ele>2418.8</ele>
        <time>2013-08-29T09:11:59Z</time>
      </trkpt>
      <trkpt lat="45.2988" lon="6.48972">
        <ele>2418.8</ele>
        <time>2013-08-29T09:12:05Z</time>
      </trkpt>
      <trkpt lat="45.29864" lon="6.49003">
        <ele>2419.3</ele>
        <time>2013-08-29T09:12:17Z</time>
      </trkpt>
      <trkpt lat="45.29856" lon="6.49015">
        <ele>2418.8</ele>
        <time>2013-08-29T09:12:29Z</time>
      </trkpt>
      <trkpt lat="45.29858" lon="6.49014">
        <ele>2418.8</ele>
        <time>2013-08-29T09:13:01Z</time>
      </trkpt>
      <trkpt lat="45.29855" lon="6.49018">
        <ele>2418.8</ele>
        <time>2013-08-29T09:13:17Z</time>
      </trkpt>
      <trkpt lat="45.2985" lon="6.49024">
        <ele>2419.3</ele>
        <time>2013-08-29T09:13:24Z</time>
      </trkpt>
      <trkpt lat="45.29848" lon="6.49024">
        <ele>2419.3</ele>
        <time>2013-08-29T09:13:32Z</time>
      </trkpt>
      <trkpt lat="45.29846" lon="6.49026">
        <ele>2418.3</ele>
        <time>2013-08-29T09:13:36Z</time>
      </trkpt>
      <trkpt lat="45.29837" lon="6.4904">
        <ele>2418.3</ele>
        <time>2013-08-29T09:13:51Z</time>
      </trkpt>
      <trkpt lat="45.2983" lon="6.49054">
        <ele>2418.3</ele>
        <time>2013-08-29T09:14:04Z</time>
      </trkpt>
      <trkpt lat="45.29828" lon="6.49054">
        <ele>2418.8</ele>
        <time>2013-08-29T09:14:06Z</time>
      </trkpt>
      <trkpt lat="45.29814" lon="6.49057">
        <ele>2419.8</ele>
        <time>2013-08-29T09:14:22Z</time>
      </trkpt>
      <trkpt lat="45.29806" lon="6.4907">
        <ele>2421.7</ele>
        <time>2013-08-29T09:14:38Z</time>
      </trkpt>
      <trkpt lat="45.29801" lon="6.49078">
        <ele>2424.1</ele>
        <time>2013-08-29T09:14:54Z</time>
      </trkpt>
      <trkpt lat="45.29796" lon="6.49087">
        <ele>2425.5</ele>
        <time>2013-08-29T09:15:07Z</time>
      </trkpt>
      <trkpt lat="45.29792" lon="6.49096">
        <ele>2427.5</ele>
        <time>2013-08-29T09:15:20Z</time>
      </trkpt>
      <trkpt lat="45.2979" lon="6.49105">
        <ele>2428.9</ele>
        <time>2013-08-29T09:15:34Z</time>
      </trkpt>
      <trkpt lat="45.29795" lon="6.49107">
        <ele>2430.8</ele>
        <time>2013-08-29T09:15:47Z</time>
      </trkpt>
      <trkpt lat="45.29801" lon="6.49112">
        <ele>2433.2</ele>
        <time>2013-08-29T09:16:03Z</time>
      </trkpt>
      <trkpt lat="45.29797" lon="6.49121">
        <ele>2434.2</ele>
        <time>2013-08-29T09:16:20Z</time>
      </trkpt>
      <trkpt lat="45.29794" lon="6.49135">
        <ele>2436.6</ele>
        <time>2013-08-29T09:16:36Z</time>
      </trkpt>
      <trkpt lat="45.29793" lon="6.49142">
        <ele>2437.1</ele>
        <time>2013-08-29T09:16:42Z</time>
      </trkpt>
      <trkpt lat="45.2979" lon="6.49147">
        <ele>2438</ele>
        <time>2013-08-29T09:16:48Z</time>
      </trkpt>
      <trkpt lat="45.29778" lon="6.49161">
        <ele>2440</ele>
        <time>2013-08-29T09:17:04Z</time>
      </trkpt>
      <trkpt lat="45.29771" lon="6.4917">
        <ele>2440.9</ele>
        <time>2013-08-29T09:17:15Z</time>
      </trkpt>
      <trkpt lat="45.29763" lon="6.49173">
        <ele>2441.9</ele>
        <time>2013-08-29T09:17:23Z</time>
      </trkpt>
      <trkpt lat="45.29749" lon="6.4918">
        <ele>2443.8</ele>
        <time>2013-08-29T09:17:40Z</time>
      </trkpt>
      <trkpt lat="45.29743" lon="6.49186">
        <ele>2444.3</ele>
        <time>2013-08-29T09:17:53Z</time>
      </trkpt>
      <trkpt lat="45.29734" lon="6.49192">
        <ele>2445.3</ele>
        <time>2013-08-29T09:18:06Z</time>
      </trkpt>
      <trkpt lat="45.29725" lon="6.49198">
        <ele>2447.2</ele>
        <time>2013-08-29T09:18:19Z</time>
      </trkpt>
      <trkpt lat="45.29719" lon="6.49201">
        <ele>2447.2</ele>
        <time>2013-08-29T09:18:25Z</time>
      </trkpt>
      <trkpt lat="45.29708" lon="6.49214">
        <ele>2447.2</ele>
        <time>2013-08-29T09:18:40Z</time>
      </trkpt>
      <trkpt lat="45.29694" lon="6.49229">
        <ele>2448.6</ele>
        <time>2013-08-29T09:18:56Z</time>
      </trkpt>
      <trkpt lat="45.29682" lon="6.49249">
        <ele>2449.1</ele>
        <time>2013-08-29T09:19:13Z</time>
      </trkpt>
      <trkpt lat="45.29674" lon="6.4926">
        <ele>2452</ele>
        <time>2013-08-29T09:19:26Z</time>
      </trkpt>
      <trkpt lat="45.29665" lon="6.49272">
        <ele>2453.9</ele>
        <time>2013-08-29T09:19:41Z</time>
      </trkpt>
      <trkpt lat="45.29666" lon="6.49277">
        <ele>2454.4</ele>
        <time>2013-08-29T09:19:51Z</time>
      </trkpt>
      <trkpt lat="45.29676" lon="6.49288">
        <ele>2456.3</ele>
        <time>2013-08-29T09:20:07Z</time>
      </trkpt>
      <trkpt lat="45.2967" lon="6.49296">
        <ele>2458.7</ele>
        <time>2013-08-29T09:20:22Z</time>
      </trkpt>
      <trkpt lat="45.29664" lon="6.49303">
        <ele>2459.7</ele>
        <time>2013-08-29T09:20:32Z</time>
      </trkpt>
      <trkpt lat="45.29655" lon="6.49315">
        <ele>2461.1</ele>
        <time>2013-08-29T09:20:47Z</time>
      </trkpt>
      <trkpt lat="45.29647" lon="6.49325">
        <ele>2463.5</ele>
        <time>2013-08-29T09:21:01Z</time>
      </trkpt>
      <trkpt lat="45.29646" lon="6.49327">
        <ele>2463</ele>
        <time>2013-08-29T09:21:03Z</time>
      </trkpt>
      <trkpt lat="45.29642" lon="6.4933">
        <ele>2463.5</ele>
        <time>2013-08-29T09:21:09Z</time>
      </trkpt>
      <trkpt lat="45.29632" lon="6.49346">
        <ele>2465.4</ele>
        <time>2013-08-29T09:21:27Z</time>
      </trkpt>
      <trkpt lat="45.29631" lon="6.49347">
        <ele>2465.4</ele>
        <time>2013-08-29T09:21:29Z</time>
      </trkpt>
      <trkpt lat="45.29627" lon="6.49363">
        <ele>2467.4</ele>
        <time>2013-08-29T09:21:43Z</time>
      </trkpt>
      <trkpt lat="45.2962" lon="6.49376">
        <ele>2468.8</ele>
        <time>2013-08-29T09:21:58Z</time>
      </trkpt>
      <trkpt lat="45.29615" lon="6.49381">
        <ele>2469.8</ele>
        <time>2013-08-29T09:22:06Z</time>
      </trkpt>
      <trkpt lat="45.29599" lon="6.49385">
        <ele>2471.2</ele>
        <time>2013-08-29T09:22:22Z</time>
      </trkpt>
      <trkpt lat="45.29584" lon="6.4939">
        <ele>2471.7</ele>
        <time>2013-08-29T09:22:38Z</time>
      </trkpt>
      <trkpt lat="45.29573" lon="6.49399">
        <ele>2473.6</ele>
        <time>2013-08-29T09:22:52Z</time>
      </trkpt>
      <trkpt lat="45.29567" lon="6.49404">
        <ele>2474.6</ele>
        <time>2013-08-29T09:23:00Z</time>
      </trkpt>
      <trkpt lat="45.29559" lon="6.4941">
        <ele>2474.6</ele>
        <time>2013-08-29T09:23:09Z</time>
      </trkpt>
      <trkpt lat="45.29553" lon="6.49417">
        <ele>2476</ele>
        <time>2013-08-29T09:23:22Z</time>
      </trkpt>
      <trkpt lat="45.29547" lon="6.49427">
        <ele>2477.9</ele>
        <time>2013-08-29T09:23:36Z</time>
      </trkpt>
      <trkpt lat="45.29536" lon="6.49436">
        <ele>2479.9</ele>
        <time>2013-08-29T09:23:51Z</time>
      </trkpt>
      <trkpt lat="45.29529" lon="6.49447">
        <ele>2481.3</ele>
        <time>2013-08-29T09:24:05Z</time>
      </trkpt>
      <trkpt lat="45.29521" lon="6.4945">
        <ele>2480.8</ele>
        <time>2013-08-29T09:24:18Z</time>
      </trkpt>
      <trkpt lat="45.2952" lon="6.49451">
        <ele>2481.3</ele>
        <time>2013-08-29T09:24:20Z</time>
      </trkpt>
      <trkpt lat="45.29512" lon="6.49454">
        <ele>2481.3</ele>
        <time>2013-08-29T09:24:33Z</time>
      </trkpt>
      <trkpt lat="45.29508" lon="6.49456">
        <ele>2482.3</ele>
        <time>2013-08-29T09:24:50Z</time>
      </trkpt>
      <trkpt lat="45.29504" lon="6.49461">
        <ele>2484.2</ele>
        <time>2013-08-29T09:25:03Z</time>
      </trkpt>
      <trkpt lat="45.29496" lon="6.49467">
        <ele>2485.6</ele>
        <time>2013-08-29T09:25:17Z</time>
      </trkpt>
      <trkpt lat="45.29488" lon="6.49473">
        <ele>2487.1</ele>
        <time>2013-08-29T09:25:32Z</time>
      </trkpt>
      <trkpt lat="45.29482" lon="6.4948">
        <ele>2489.5</ele>
        <time>2013-08-29T09:25:49Z</time>
      </trkpt>
      <trkpt lat="45.29477" lon="6.49481">
        <ele>2491.4</ele>
        <time>2013-08-29T09:26:02Z</time>
      </trkpt>
      <trkpt lat="45.29474" lon="6.49486">
        <ele>2493.3</ele>
        <time>2013-08-29T09:26:16Z</time>
      </trkpt>
      <trkpt lat="45.29468" lon="6.49488">
        <ele>2494.8</ele>
        <time>2013-08-29T09:26:28Z</time>
      </trkpt>
      <trkpt lat="45.29466" lon="6.49487">
        <ele>2496.2</ele>
        <time>2013-08-29T09:26:44Z</time>
      </trkpt>
      <trkpt lat="45.2946" lon="6.49489">
        <ele>2496.7</ele>
        <time>2013-08-29T09:26:57Z</time>
      </trkpt>
      <trkpt lat="45.29448" lon="6.4949">
        <ele>2498.6</ele>
        <time>2013-08-29T09:27:15Z</time>
      </trkpt>
      <trkpt lat="45.29447" lon="6.49492">
        <ele>2499.1</ele>
        <time>2013-08-29T09:27:27Z</time>
      </trkpt>
      <trkpt lat="45.29448" lon="6.49492">
        <ele>2495.2</ele>
        <time>2013-08-29T09:27:37Z</time>
      </trkpt>
      <trkpt lat="45.29031" lon="6.49404">
        <ele>2457.3</ele>
        <time>2013-08-29T09:46:06Z</time>
      </trkpt>
      <trkpt lat="45.29027" lon="6.49397">
        <ele>2458.2</ele>
        <time>2013-08-29T09:46:09Z</time>
      </trkpt>
      <trkpt lat="45.29023" lon="6.49388">
        <ele>2461.1</ele>
        <time>2013-08-29T09:46:13Z</time>
      </trkpt>
      <trkpt lat="45.29021" lon="6.49382">
        <ele>2463.5</ele>
        <time>2013-08-29T09:46:15Z</time>
      </trkpt>
      <trkpt lat="45.29004" lon="6.49369">
        <ele>2465</ele>
        <time>2013-08-29T09:46:22Z</time>
      </trkpt>
      <trkpt lat="45.29" lon="6.49362">
        <ele>2466.4</ele>
        <time>2013-08-29T09:46:25Z</time>
      </trkpt>
      <trkpt lat="45.28997" lon="6.49356">
        <ele>2467.8</ele>
        <time>2013-08-29T09:46:27Z</time>
      </trkpt>
      <trkpt lat="45.28993" lon="6.49344">
        <ele>2469.8</ele>
        <time>2013-08-29T09:46:31Z</time>
      </trkpt>
      <trkpt lat="45.28992" lon="6.4934">
        <ele>2470.2</ele>
        <time>2013-08-29T09:46:32Z</time>
      </trkpt>
      <trkpt lat="45.28991" lon="6.49327">
        <ele>2472.2</ele>
        <time>2013-08-29T09:46:36Z</time>
      </trkpt>
      <trkpt lat="45.2899" lon="6.49317">
        <ele>2473.6</ele>
        <time>2013-08-29T09:46:39Z</time>
      </trkpt>
      <trkpt lat="45.2899" lon="6.49295">
        <ele>2476.5</ele>
        <time>2013-08-29T09:46:46Z</time>
      </trkpt>
      <trkpt lat="45.28989" lon="6.49282">
        <ele>2478.9</ele>
        <time>2013-08-29T09:46:52Z</time>
      </trkpt>
      <trkpt lat="45.28986" lon="6.49272">
        <ele>2480.3</ele>
        <time>2013-08-29T09:46:57Z</time>
      </trkpt>
      <trkpt lat="45.28985" lon="6.49272">
        <ele>2480.8</ele>
        <time>2013-08-29T09:47:09Z</time>
      </trkpt>
      <trkpt lat="45.28985" lon="6.49276">
        <ele>2482.7</ele>
        <time>2013-08-29T09:47:28Z</time>
      </trkpt>
      <trkpt lat="45.28976" lon="6.49262">
        <ele>2483.2</ele>
        <time>2013-08-29T09:47:40Z</time>
      </trkpt>
      <trkpt lat="45.28966" lon="6.49257">
        <ele>2480.8</ele>
        <time>2013-08-29T09:47:43Z</time>
      </trkpt>
      <trkpt lat="45.28948" lon="6.49242">
        <ele>2479.9</ele>
        <time>2013-08-29T09:47:48Z</time>
      </trkpt>
      <trkpt lat="45.2892" lon="6.49221">
        <ele>2480.3</ele>
        <time>2013-08-29T09:47:58Z</time>
      </trkpt>
      <trkpt lat="45.28913" lon="6.49217">
        <ele>2481.3</ele>
        <time>2013-08-29T09:48:02Z</time>
      </trkpt>
      <trkpt lat="45.28912" lon="6.49213">
        <ele>2480.8</ele>
        <time>2013-08-29T09:48:15Z</time>
      </trkpt>
      <trkpt lat="45.2891" lon="6.49209">
        <ele>2480.3</ele>
        <time>2013-08-29T09:48:44Z</time>
      </trkpt>
      <trkpt lat="45.28917" lon="6.49182">
        <ele>2482.3</ele>
        <time>2013-08-29T09:48:54Z</time>
      </trkpt>
      <trkpt lat="45.28922" lon="6.49173">
        <ele>2482.3</ele>
        <time>2013-08-29T09:49:05Z</time>
      </trkpt>
      <trkpt lat="45.28922" lon="6.49173">
        <ele>2482.3</ele>
        <time>2013-08-29T09:49:32Z</time>
      </trkpt>
      <trkpt lat="45.28925" lon="6.49166">
        <ele>2483.2</ele>
        <time>2013-08-29T09:49:41Z</time>
      </trkpt>
      <trkpt lat="45.28925" lon="6.49158">
        <ele>2482.7</ele>
        <time>2013-08-29T09:49:46Z</time>
      </trkpt>
      <trkpt lat="45.28924" lon="6.49136">
        <ele>2483.2</ele>
        <time>2013-08-29T09:50:01Z</time>
      </trkpt>
      <trkpt lat="45.28926" lon="6.49124">
        <ele>2484.2</ele>
        <time>2013-08-29T09:50:15Z</time>
      </trkpt>
      <trkpt lat="45.28932" lon="6.49098">
        <ele>2483.2</ele>
        <time>2013-08-29T09:50:23Z</time>
      </trkpt>
      <trkpt lat="45.28932" lon="6.49089">
        <ele>2484.2</ele>
        <time>2013-08-29T09:50:26Z</time>
      </trkpt>
      <trkpt lat="45.28932" lon="6.49067">
        <ele>2485.6</ele>
        <time>2013-08-29T09:50:37Z</time>
      </trkpt>
      <trkpt lat="45.28936" lon="6.4905">
        <ele>2484.7</ele>
        <time>2013-08-29T09:50:55Z</time>
      </trkpt>
      <trkpt lat="45.2893" lon="6.49018">
        <ele>2481.8</ele>
        <time>2013-08-29T09:51:04Z</time>
      </trkpt>
      <trkpt lat="45.28929" lon="6.49016">
        <ele>2481.3</ele>
        <time>2013-08-29T09:51:05Z</time>
      </trkpt>
      <trkpt lat="45.28933" lon="6.49">
        <ele>2478.9</ele>
        <time>2013-08-29T09:51:11Z</time>
      </trkpt>
      <trkpt lat="45.28936" lon="6.48986">
        <ele>2477.5</ele>
        <time>2013-08-29T09:51:14Z</time>
      </trkpt>
      <trkpt lat="45.28947" lon="6.48964">
        <ele>2476.5</ele>
        <time>2013-08-29T09:51:20Z</time>
      </trkpt>
      <trkpt lat="45.28956" lon="6.48938">
        <ele>2474.6</ele>
        <time>2013-08-29T09:51:24Z</time>
      </trkpt>
      <trkpt lat="45.28969" lon="6.48919">
        <ele>2473.1</ele>
        <time>2013-08-29T09:51:28Z</time>
      </trkpt>
      <trkpt lat="45.28983" lon="6.48897">
        <ele>2469.8</ele>
        <time>2013-08-29T09:51:32Z</time>
      </trkpt>
      <trkpt lat="45.28994" lon="6.48882">
        <ele>2468.3</ele>
        <time>2013-08-29T09:51:36Z</time>
      </trkpt>
      <trkpt lat="45.28996" lon="6.48876">
        <ele>2467.4</ele>
        <time>2013-08-29T09:51:38Z</time>
      </trkpt>
      <trkpt lat="45.28999" lon="6.48854">
        <ele>2464</ele>
        <time>2013-08-29T09:51:44Z</time>
      </trkpt>
      <trkpt lat="45.29" lon="6.48843">
        <ele>2461.6</ele>
        <time>2013-08-29T09:51:52Z</time>
      </trkpt>
      <trkpt lat="45.29" lon="6.48835">
        <ele>2461.6</ele>
        <time>2013-08-29T09:52:20Z</time>
      </trkpt>
      <trkpt lat="45.29002" lon="6.48825">
        <ele>2460.6</ele>
        <time>2013-08-29T09:52:26Z</time>
      </trkpt>
      <trkpt lat="45.29001" lon="6.48819">
        <ele>2463</ele>
        <time>2013-08-29T09:52:40Z</time>
      </trkpt>
      <trkpt lat="45.29001" lon="6.48811">
        <ele>2464.5</ele>
        <time>2013-08-29T09:52:52Z</time>
      </trkpt>
      <trkpt lat="45.28999" lon="6.48808">
        <ele>2463.5</ele>
        <time>2013-08-29T09:53:01Z</time>
      </trkpt>
      <trkpt lat="45.28998" lon="6.48798">
        <ele>2462.6</ele>
        <time>2013-08-29T09:53:05Z</time>
      </trkpt>
      <trkpt lat="45.29004" lon="6.48774">
        <ele>2460.2</ele>
        <time>2013-08-29T09:53:14Z</time>
      </trkpt>
      <trkpt lat="45.29001" lon="6.48757">
        <ele>2456.8</ele>
        <time>2013-08-29T09:53:20Z</time>
      </trkpt>
      <trkpt lat="45.29001" lon="6.48749">
        <ele>2455.8</ele>
        <time>2013-08-29T09:53:22Z</time>
      </trkpt>
      <trkpt lat="45.29" lon="6.48743">
        <ele>2455.3</ele>
        <time>2013-08-29T09:53:24Z</time>
      </trkpt>
      <trkpt lat="45.29001" lon="6.48735">
        <ele>2452.5</ele>
        <time>2013-08-29T09:53:28Z</time>
      </trkpt>
      <trkpt lat="45.29003" lon="6.48733">
        <ele>2452.9</ele>
        <time>2013-08-29T09:53:30Z</time>
      </trkpt>
      <trkpt lat="45.29002" lon="6.48726">
        <ele>2450.5</ele>
        <time>2013-08-29T09:53:33Z</time>
      </trkpt>
      <trkpt lat="45.29005" lon="6.48716">
        <ele>2448.6</ele>
        <time>2013-08-29T09:53:37Z</time>
      </trkpt>
      <trkpt lat="45.29006" lon="6.4871">
        <ele>2447.2</ele>
        <time>2013-08-29T09:53:48Z</time>
      </trkpt>
      <trkpt lat="45.29006" lon="6.48705">
        <ele>2445.3</ele>
        <time>2013-08-29T09:53:52Z</time>
      </trkpt>
      <trkpt lat="45.29009" lon="6.48692">
        <ele>2444.8</ele>
        <time>2013-08-29T09:54:01Z</time>
      </trkpt>
      <trkpt lat="45.29009" lon="6.48681">
        <ele>2443.8</ele>
        <time>2013-08-29T09:54:03Z</time>
      </trkpt>
      <trkpt lat="45.29014" lon="6.48643">
        <ele>2440.4</ele>
        <time>2013-08-29T09:54:11Z</time>
      </trkpt>
      <trkpt lat="45.29014" lon="6.48639">
        <ele>2440.4</ele>
        <time>2013-08-29T09:54:12Z</time>
      </trkpt>
      <trkpt lat="45.29015" lon="6.48634">
        <ele>2440</ele>
        <time>2013-08-29T09:54:13Z</time>
      </trkpt>
      <trkpt lat="45.29014" lon="6.4863">
        <ele>2438.5</ele>
        <time>2013-08-29T09:54:15Z</time>
      </trkpt>
      <trkpt lat="45.29014" lon="6.48624">
        <ele>2439</ele>
        <time>2013-08-29T09:54:24Z</time>
      </trkpt>
      <trkpt lat="45.29013" lon="6.48625">
        <ele>2438.5</ele>
        <time>2013-08-29T09:54:46Z</time>
      </trkpt>
      <trkpt lat="45.29013" lon="6.4862">
        <ele>2438.5</ele>
        <time>2013-08-29T09:55:09Z</time>
      </trkpt>
      <trkpt lat="45.29014" lon="6.48592">
        <ele>2436.6</ele>
        <time>2013-08-29T09:55:17Z</time>
      </trkpt>
      <trkpt lat="45.29021" lon="6.4855">
        <ele>2433.7</ele>
        <time>2013-08-29T09:55:27Z</time>
      </trkpt>
      <trkpt lat="45.29023" lon="6.48537">
        <ele>2432.8</ele>
        <time>2013-08-29T09:55:29Z</time>
      </trkpt>
      <trkpt lat="45.29026" lon="6.48528">
        <ele>2432.8</ele>
        <time>2013-08-29T09:55:31Z</time>
      </trkpt>
      <trkpt lat="45.29034" lon="6.48495">
        <ele>2429.9</ele>
        <time>2013-08-29T09:55:38Z</time>
      </trkpt>
      <trkpt lat="45.29038" lon="6.48486">
        <ele>2428.9</ele>
        <time>2013-08-29T09:55:40Z</time>
      </trkpt>
      <trkpt lat="45.29043" lon="6.48483">
        <ele>2429.4</ele>
        <time>2013-08-29T09:55:48Z</time>
      </trkpt>
      <trkpt lat="45.29044" lon="6.48485">
        <ele>2428.9</ele>
        <time>2013-08-29T09:56:11Z</time>
      </trkpt>
      <trkpt lat="45.29051" lon="6.48477">
        <ele>2426</ele>
        <time>2013-08-29T09:56:26Z</time>
      </trkpt>
      <trkpt lat="45.29055" lon="6.48475">
        <ele>2424.1</ele>
        <time>2013-08-29T09:56:43Z</time>
      </trkpt>
      <trkpt lat="45.29055" lon="6.48474">
        <ele>2424.1</ele>
        <time>2013-08-29T09:56:47Z</time>
      </trkpt>
      <trkpt lat="45.29058" lon="6.48465">
        <ele>2420.7</ele>
        <time>2013-08-29T09:56:58Z</time>
      </trkpt>
      <trkpt lat="45.29059" lon="6.48469">
        <ele>2420.3</ele>
        <time>2013-08-29T09:57:10Z</time>
      </trkpt>
      <trkpt lat="45.29063" lon="6.4848">
        <ele>2418.3</ele>
        <time>2013-08-29T09:57:26Z</time>
      </trkpt>
      <trkpt lat="45.29063" lon="6.48486">
        <ele>2417.9</ele>
        <time>2013-08-29T09:57:45Z</time>
      </trkpt>
      <trkpt lat="45.29065" lon="6.48489">
        <ele>2415.9</ele>
        <time>2013-08-29T09:58:00Z</time>
      </trkpt>
      <trkpt lat="45.29065" lon="6.48491">
        <ele>2416.4</ele>
        <time>2013-08-29T09:58:17Z</time>
      </trkpt>
      <trkpt lat="45.29065" lon="6.48491">
        <ele>2415.5</ele>
        <time>2013-08-29T09:58:20Z</time>
      </trkpt>
      <trkpt lat="45.29068" lon="6.48484">
        <ele>2414.5</ele>
        <time>2013-08-29T09:58:25Z</time>
      </trkpt>
      <trkpt lat="45.29071" lon="6.48465">
        <ele>2412.1</ele>
        <time>2013-08-29T09:58:33Z</time>
      </trkpt>
      <trkpt lat="45.29078" lon="6.48435">
        <ele>2408.7</ele>
        <time>2013-08-29T09:58:41Z</time>
      </trkpt>
      <trkpt lat="45.29082" lon="6.48425">
        <ele>2406.3</ele>
        <time>2013-08-29T09:58:52Z</time>
      </trkpt>
      <trkpt lat="45.29081" lon="6.48424">
        <ele>2406.3</ele>
        <time>2013-08-29T09:58:54Z</time>
      </trkpt>
      <trkpt lat="45.29081" lon="6.48415">
        <ele>2403.9</ele>
        <time>2013-08-29T09:59:01Z</time>
      </trkpt>
      <trkpt lat="45.29081" lon="6.48405">
        <ele>2400.6</ele>
        <time>2013-08-29T09:59:08Z</time>
      </trkpt>
      <trkpt lat="45.29082" lon="6.48403">
        <ele>2400.1</ele>
        <time>2013-08-29T09:59:09Z</time>
      </trkpt>
      <trkpt lat="45.29081" lon="6.48393">
        <ele>2399.6</ele>
        <time>2013-08-29T09:59:17Z</time>
      </trkpt>
      <trkpt lat="45.29078" lon="6.48379">
        <ele>2397.7</ele>
        <time>2013-08-29T09:59:21Z</time>
      </trkpt>
      <trkpt lat="45.29078" lon="6.48375">
        <ele>2397.7</ele>
        <time>2013-08-29T09:59:22Z</time>
      </trkpt>
      <trkpt lat="45.29073" lon="6.48331">
        <ele>2394.3</ele>
        <time>2013-08-29T09:59:32Z</time>
      </trkpt>
      <trkpt lat="45.29071" lon="6.48316">
        <ele>2391.4</ele>
        <time>2013-08-29T09:59:35Z</time>
      </trkpt>
      <trkpt lat="45.2906" lon="6.48295">
        <ele>2388.1</ele>
        <time>2013-08-29T09:59:40Z</time>
      </trkpt>
      <trkpt lat="45.29057" lon="6.48292">
        <ele>2387.1</ele>
        <time>2013-08-29T09:59:42Z</time>
      </trkpt>
      <trkpt lat="45.29059" lon="6.4829">
        <ele>2386.6</ele>
        <time>2013-08-29T09:59:50Z</time>
      </trkpt>
      <trkpt lat="45.29062" lon="6.48287">
        <ele>2385.2</ele>
        <time>2013-08-29T10:00:02Z</time>
      </trkpt>
      <trkpt lat="45.29062" lon="6.48286">
        <ele>2384.2</ele>
        <time>2013-08-29T10:00:04Z</time>
      </trkpt>
      <trkpt lat="45.29053" lon="6.48275">
        <ele>2382.3</ele>
        <time>2013-08-29T10:00:11Z</time>
      </trkpt>
      <trkpt lat="45.29052" lon="6.48273">
        <ele>2381.8</ele>
        <time>2013-08-29T10:00:12Z</time>
      </trkpt>
      <trkpt lat="45.29052" lon="6.48262">
        <ele>2380.4</ele>
        <time>2013-08-29T10:00:15Z</time>
      </trkpt>
      <trkpt lat="45.29051" lon="6.48256">
        <ele>2380.4</ele>
        <time>2013-08-29T10:00:17Z</time>
      </trkpt>
      <trkpt lat="45.2905" lon="6.48242">
        <ele>2377.5</ele>
        <time>2013-08-29T10:00:21Z</time>
      </trkpt>
      <trkpt lat="45.29047" lon="6.48236">
        <ele>2376</ele>
        <time>2013-08-29T10:00:23Z</time>
      </trkpt>
      <trkpt lat="45.29043" lon="6.48225">
        <ele>2373.6</ele>
        <time>2013-08-29T10:00:31Z</time>
      </trkpt>
      <trkpt lat="45.29043" lon="6.48228">
        <ele>2373.6</ele>
        <time>2013-08-29T10:00:36Z</time>
      </trkpt>
      <trkpt lat="45.29051" lon="6.48223">
        <ele>2372.7</ele>
        <time>2013-08-29T10:00:41Z</time>
      </trkpt>
      <trkpt lat="45.29039" lon="6.48215">
        <ele>2369.8</ele>
        <time>2013-08-29T10:00:50Z</time>
      </trkpt>
      <trkpt lat="45.29038" lon="6.48213">
        <ele>2368.4</ele>
        <time>2013-08-29T10:01:01Z</time>
      </trkpt>
      <trkpt lat="45.29043" lon="6.48208">
        <ele>2367.4</ele>
        <time>2013-08-29T10:01:10Z</time>
      </trkpt>
      <trkpt lat="45.29053" lon="6.48204">
        <ele>2365.5</ele>
        <time>2013-08-29T10:01:14Z</time>
      </trkpt>
      <trkpt lat="45.29062" lon="6.48202">
        <ele>2365</ele>
        <time>2013-08-29T10:01:17Z</time>
      </trkpt>
      <trkpt lat="45.29066" lon="6.48191">
        <ele>2362.6</ele>
        <time>2013-08-29T10:01:21Z</time>
      </trkpt>
      <trkpt lat="45.29064" lon="6.48168">
        <ele>2357.8</ele>
        <time>2013-08-29T10:01:28Z</time>
      </trkpt>
      <trkpt lat="45.29063" lon="6.48164">
        <ele>2356.8</ele>
        <time>2013-08-29T10:01:29Z</time>
      </trkpt>
      <trkpt lat="45.29059" lon="6.48152">
        <ele>2354.9</ele>
        <time>2013-08-29T10:01:32Z</time>
      </trkpt>
      <trkpt lat="45.29073" lon="6.48135">
        <ele>2353.9</ele>
        <time>2013-08-29T10:01:39Z</time>
      </trkpt>
      <trkpt lat="45.29078" lon="6.48128">
        <ele>2354.4</ele>
        <time>2013-08-29T10:01:42Z</time>
      </trkpt>
      <trkpt lat="45.29099" lon="6.48108">
        <ele>2350.6</ele>
        <time>2013-08-29T10:01:50Z</time>
      </trkpt>
      <trkpt lat="45.29096" lon="6.48091">
        <ele>2350.6</ele>
        <time>2013-08-29T10:01:55Z</time>
      </trkpt>
      <trkpt lat="45.29096" lon="6.4807">
        <ele>2352</ele>
        <time>2013-08-29T10:02:04Z</time>
      </trkpt>
      <trkpt lat="45.29096" lon="6.48064">
        <ele>2352.5</ele>
        <time>2013-08-29T10:02:07Z</time>
      </trkpt>
      <trkpt lat="45.29107" lon="6.48056">
        <ele>2354.4</ele>
        <time>2013-08-29T10:02:15Z</time>
      </trkpt>
      <trkpt lat="45.29119" lon="6.48045">
        <ele>2354.9</ele>
        <time>2013-08-29T10:02:24Z</time>
      </trkpt>
      <trkpt lat="45.29127" lon="6.48034">
        <ele>2356.8</ele>
        <time>2013-08-29T10:02:40Z</time>
      </trkpt>
      <trkpt lat="45.2913" lon="6.48033">
        <ele>2357.3</ele>
        <time>2013-08-29T10:02:59Z</time>
      </trkpt>
      <trkpt lat="45.29132" lon="6.48024">
        <ele>2359.7</ele>
        <time>2013-08-29T10:03:15Z</time>
      </trkpt>
      <trkpt lat="45.29138" lon="6.48016">
        <ele>2358.7</ele>
        <time>2013-08-29T10:03:28Z</time>
      </trkpt>
      <trkpt lat="45.29144" lon="6.48007">
        <ele>2356.3</ele>
        <time>2013-08-29T10:03:34Z</time>
      </trkpt>
      <trkpt lat="45.29144" lon="6.48004">
        <ele>2355.4</ele>
        <time>2013-08-29T10:03:37Z</time>
      </trkpt>
      <trkpt lat="45.29141" lon="6.48">
        <ele>2353.9</ele>
        <time>2013-08-29T10:03:44Z</time>
      </trkpt>
      <trkpt lat="45.29155" lon="6.47991">
        <ele>2351</ele>
        <time>2013-08-29T10:03:54Z</time>
      </trkpt>
      <trkpt lat="45.29154" lon="6.4799">
        <ele>2350.1</ele>
        <time>2013-08-29T10:03:59Z</time>
      </trkpt>
      <trkpt lat="45.29144" lon="6.47981">
        <ele>2348.2</ele>
        <time>2013-08-29T10:04:06Z</time>
      </trkpt>
      <trkpt lat="45.29139" lon="6.47978">
        <ele>2345.8</ele>
        <time>2013-08-29T10:04:16Z</time>
      </trkpt>
      <trkpt lat="45.29137" lon="6.47973">
        <ele>2343.8</ele>
        <time>2013-08-29T10:04:26Z</time>
      </trkpt>
      <trkpt lat="45.29136" lon="6.47973">
        <ele>2343.8</ele>
        <time>2013-08-29T10:04:30Z</time>
      </trkpt>
      <trkpt lat="45.2913" lon="6.47964">
        <ele>2341.4</ele>
        <time>2013-08-29T10:04:35Z</time>
      </trkpt>
      <trkpt lat="45.29127" lon="6.47962">
        <ele>2340</ele>
        <time>2013-08-29T10:04:36Z</time>
      </trkpt>
      <trkpt lat="45.29122" lon="6.47955">
        <ele>2338.1</ele>
        <time>2013-08-29T10:04:38Z</time>
      </trkpt>
      <trkpt lat="45.29117" lon="6.47946">
        <ele>2337.1</ele>
        <time>2013-08-29T10:04:40Z</time>
      </trkpt>
      <trkpt lat="45.29112" lon="6.47935">
        <ele>2336.1</ele>
        <time>2013-08-29T10:04:42Z</time>
      </trkpt>
      <trkpt lat="45.29109" lon="6.47923">
        <ele>2335.7</ele>
        <time>2013-08-29T10:04:44Z</time>
      </trkpt>
      <trkpt lat="45.29106" lon="6.47912">
        <ele>2334.7</ele>
        <time>2013-08-29T10:04:46Z</time>
      </trkpt>
      <trkpt lat="45.29101" lon="6.47864">
        <ele>2334.2</ele>
        <time>2013-08-29T10:04:55Z</time>
      </trkpt>
      <trkpt lat="45.29099" lon="6.47864">
        <ele>2334.2</ele>
        <time>2013-08-29T10:05:22Z</time>
      </trkpt>
      <trkpt lat="45.29102" lon="6.47863">
        <ele>2333.7</ele>
        <time>2013-08-29T10:06:01Z</time>
      </trkpt>
      <trkpt lat="45.29103" lon="6.47864">
        <ele>2334.2</ele>
        <time>2013-08-29T10:06:33Z</time>
      </trkpt>
      <trkpt lat="45.29103" lon="6.47863">
        <ele>2333.7</ele>
        <time>2013-08-29T10:07:05Z</time>
      </trkpt>
      <trkpt lat="45.29099" lon="6.47865">
        <ele>2333.7</ele>
        <time>2013-08-29T10:07:35Z</time>
      </trkpt>
      <trkpt lat="45.29097" lon="6.47865">
        <ele>2333.7</ele>
        <time>2013-08-29T10:07:52Z</time>
      </trkpt>
      <trkpt lat="45.29097" lon="6.47864">
        <ele>2334.2</ele>
        <time>2013-08-29T10:07:54Z</time>
      </trkpt>
      <trkpt lat="45.29101" lon="6.47861">
        <ele>2333.7</ele>
        <time>2013-08-29T10:08:08Z</time>
      </trkpt>
      <trkpt lat="45.29098" lon="6.47858">
        <ele>2333.7</ele>
        <time>2013-08-29T10:08:23Z</time>
      </trkpt>
      <trkpt lat="45.29099" lon="6.47856">
        <ele>2332.8</ele>
        <time>2013-08-29T10:08:36Z</time>
      </trkpt>
      <trkpt lat="45.29098" lon="6.47855">
        <ele>2331.3</ele>
        <time>2013-08-29T10:08:52Z</time>
      </trkpt>
      <trkpt lat="45.29093" lon="6.4785">
        <ele>2328.9</ele>
        <time>2013-08-29T10:09:07Z</time>
      </trkpt>
      <trkpt lat="45.29087" lon="6.47845">
        <ele>2326.1</ele>
        <time>2013-08-29T10:09:25Z</time>
      </trkpt>
      <trkpt lat="45.29089" lon="6.47837">
        <ele>2324.1</ele>
        <time>2013-08-29T10:09:39Z</time>
      </trkpt>
      <trkpt lat="45.29088" lon="6.47834">
        <ele>2323.6</ele>
        <time>2013-08-29T10:09:50Z</time>
      </trkpt>
      <trkpt lat="45.29085" lon="6.47824">
        <ele>2321.7</ele>
        <time>2013-08-29T10:09:55Z</time>
      </trkpt>
      <trkpt lat="45.29073" lon="6.47805">
        <ele>2319.3</ele>
        <time>2013-08-29T10:10:07Z</time>
      </trkpt>
      <trkpt lat="45.29066" lon="6.47795">
        <ele>2317.9</ele>
        <time>2013-08-29T10:10:22Z</time>
      </trkpt>
      <trkpt lat="45.29065" lon="6.4779">
        <ele>2316.9</ele>
        <time>2013-08-29T10:10:30Z</time>
      </trkpt>
      <trkpt lat="45.29065" lon="6.47779">
        <ele>2315</ele>
        <time>2013-08-29T10:10:35Z</time>
      </trkpt>
      <trkpt lat="45.29067" lon="6.47769">
        <ele>2312.6</ele>
        <time>2013-08-29T10:10:47Z</time>
      </trkpt>
      <trkpt lat="45.29066" lon="6.47767">
        <ele>2312.1</ele>
        <time>2013-08-29T10:10:53Z</time>
      </trkpt>
      <trkpt lat="45.29064" lon="6.47755">
        <ele>2309.7</ele>
        <time>2013-08-29T10:11:01Z</time>
      </trkpt>
      <trkpt lat="45.29056" lon="6.47737">
        <ele>2308.3</ele>
        <time>2013-08-29T10:11:13Z</time>
      </trkpt>
      <trkpt lat="45.29051" lon="6.47727">
        <ele>2305.9</ele>
        <time>2013-08-29T10:11:17Z</time>
      </trkpt>
      <trkpt lat="45.2904" lon="6.47728">
        <ele>2302</ele>
        <time>2013-08-29T10:11:26Z</time>
      </trkpt>
      <trkpt lat="45.29034" lon="6.47732">
        <ele>2300.6</ele>
        <time>2013-08-29T10:11:37Z</time>
      </trkpt>
      <trkpt lat="45.29032" lon="6.47729">
        <ele>2299.6</ele>
        <time>2013-08-29T10:11:45Z</time>
      </trkpt>
      <trkpt lat="45.29031" lon="6.47727">
        <ele>2299.6</ele>
        <time>2013-08-29T10:11:47Z</time>
      </trkpt>
      <trkpt lat="45.29019" lon="6.47722">
        <ele>2296.3</ele>
        <time>2013-08-29T10:12:02Z</time>
      </trkpt>
      <trkpt lat="45.29015" lon="6.47716">
        <ele>2293.4</ele>
        <time>2013-08-29T10:12:16Z</time>
      </trkpt>
      <trkpt lat="45.29012" lon="6.47716">
        <ele>2291.4</ele>
        <time>2013-08-29T10:12:22Z</time>
      </trkpt>
      <trkpt lat="45.29004" lon="6.47714">
        <ele>2289.5</ele>
        <time>2013-08-29T10:12:36Z</time>
      </trkpt>
      <trkpt lat="45.29002" lon="6.47706">
        <ele>2288.1</ele>
        <time>2013-08-29T10:12:48Z</time>
      </trkpt>
      <trkpt lat="45.28994" lon="6.47699">
        <ele>2285.7</ele>
        <time>2013-08-29T10:13:02Z</time>
      </trkpt>
      <trkpt lat="45.28988" lon="6.47697">
        <ele>2284.2</ele>
        <time>2013-08-29T10:13:09Z</time>
      </trkpt>
      <trkpt lat="45.28975" lon="6.47695">
        <ele>2280.9</ele>
        <time>2013-08-29T10:13:15Z</time>
      </trkpt>
      <trkpt lat="45.28972" lon="6.47698">
        <ele>2278.9</ele>
        <time>2013-08-29T10:13:26Z</time>
      </trkpt>
      <trkpt lat="45.28976" lon="6.47708">
        <ele>2277</ele>
        <time>2013-08-29T10:13:35Z</time>
      </trkpt>
      <trkpt lat="45.28976" lon="6.47711">
        <ele>2275.6</ele>
        <time>2013-08-29T10:13:38Z</time>
      </trkpt>
      <trkpt lat="45.28973" lon="6.47729">
        <ele>2272.7</ele>
        <time>2013-08-29T10:13:53Z</time>
      </trkpt>
      <trkpt lat="45.28962" lon="6.47729">
        <ele>2269.3</ele>
        <time>2013-08-29T10:14:06Z</time>
      </trkpt>
      <trkpt lat="45.28956" lon="6.47722">
        <ele>2267.9</ele>
        <time>2013-08-29T10:14:18Z</time>
      </trkpt>
      <trkpt lat="45.28946" lon="6.47707">
        <ele>2266</ele>
        <time>2013-08-29T10:14:23Z</time>
      </trkpt>
      <trkpt lat="45.28945" lon="6.47703">
        <ele>2265.5</ele>
        <time>2013-08-29T10:14:37Z</time>
      </trkpt>
      <trkpt lat="45.28944" lon="6.47703">
        <ele>2265.5</ele>
        <time>2013-08-29T10:14:39Z</time>
      </trkpt>
      <trkpt lat="45.28943" lon="6.47698">
        <ele>2264.5</ele>
        <time>2013-08-29T10:14:43Z</time>
      </trkpt>
      <trkpt lat="45.28942" lon="6.4769">
        <ele>2263.1</ele>
        <time>2013-08-29T10:14:58Z</time>
      </trkpt>
      <trkpt lat="45.28942" lon="6.47675">
        <ele>2260.2</ele>
        <time>2013-08-29T10:15:11Z</time>
      </trkpt>
      <trkpt lat="45.28938" lon="6.47663">
        <ele>2258.8</ele>
        <time>2013-08-29T10:15:25Z</time>
      </trkpt>
      <trkpt lat="45.28932" lon="6.47644">
        <ele>2258.3</ele>
        <time>2013-08-29T10:15:40Z</time>
      </trkpt>
      <trkpt lat="45.28919" lon="6.4763">
        <ele>2255.9</ele>
        <time>2013-08-29T10:15:52Z</time>
      </trkpt>
      <trkpt lat="45.28908" lon="6.47619">
        <ele>2253</ele>
        <time>2013-08-29T10:15:59Z</time>
      </trkpt>
      <trkpt lat="45.28905" lon="6.47618">
        <ele>2252.5</ele>
        <time>2013-08-29T10:16:02Z</time>
      </trkpt>
      <trkpt lat="45.28898" lon="6.47608">
        <ele>2251.5</ele>
        <time>2013-08-29T10:16:14Z</time>
      </trkpt>
      <trkpt lat="45.2889" lon="6.476">
        <ele>2249.6</ele>
        <time>2013-08-29T10:16:29Z</time>
      </trkpt>
      <trkpt lat="45.28879" lon="6.47594">
        <ele>2249.1</ele>
        <time>2013-08-29T10:16:45Z</time>
      </trkpt>
      <trkpt lat="45.28878" lon="6.47593">
        <ele>2248.7</ele>
        <time>2013-08-29T10:16:47Z</time>
      </trkpt>
      <trkpt lat="45.28867" lon="6.47578">
        <ele>2245.8</ele>
        <time>2013-08-29T10:17:03Z</time>
      </trkpt>
      <trkpt lat="45.28858" lon="6.4757">
        <ele>2244.3</ele>
        <time>2013-08-29T10:17:20Z</time>
      </trkpt>
      <trkpt lat="45.28855" lon="6.47567">
        <ele>2244.3</ele>
        <time>2013-08-29T10:17:38Z</time>
      </trkpt>
      <trkpt lat="45.28839" lon="6.47566">
        <ele>2241.9</ele>
        <time>2013-08-29T10:17:49Z</time>
      </trkpt>
      <trkpt lat="45.28823" lon="6.47565">
        <ele>2238.6</ele>
        <time>2013-08-29T10:17:56Z</time>
      </trkpt>
      <trkpt lat="45.28809" lon="6.47566">
        <ele>2234.7</ele>
        <time>2013-08-29T10:18:01Z</time>
      </trkpt>
      <trkpt lat="45.28798" lon="6.47563">
        <ele>2231.4</ele>
        <time>2013-08-29T10:18:06Z</time>
      </trkpt>
      <trkpt lat="45.28785" lon="6.4756">
        <ele>2227.5</ele>
        <time>2013-08-29T10:18:11Z</time>
      </trkpt>
      <trkpt lat="45.28771" lon="6.47556">
        <ele>2223.7</ele>
        <time>2013-08-29T10:18:17Z</time>
      </trkpt>
      <trkpt lat="45.28767" lon="6.47552">
        <ele>2222.2</ele>
        <time>2013-08-29T10:18:19Z</time>
      </trkpt>
      <trkpt lat="45.28753" lon="6.47544">
        <ele>2218.9</ele>
        <time>2013-08-29T10:18:25Z</time>
      </trkpt>
      <trkpt lat="45.28742" lon="6.47543">
        <ele>2216.9</ele>
        <time>2013-08-29T10:18:29Z</time>
      </trkpt>
      <trkpt lat="45.28736" lon="6.47543">
        <ele>2216</ele>
        <time>2013-08-29T10:18:31Z</time>
      </trkpt>
      <trkpt lat="45.2872" lon="6.47533">
        <ele>2213.1</ele>
        <time>2013-08-29T10:18:38Z</time>
      </trkpt>
      <trkpt lat="45.28713" lon="6.4753">
        <ele>2212.6</ele>
        <time>2013-08-29T10:18:40Z</time>
      </trkpt>
      <trkpt lat="45.2871" lon="6.4753">
        <ele>2211.2</ele>
        <time>2013-08-29T10:18:41Z</time>
      </trkpt>
      <trkpt lat="45.28707" lon="6.4753">
        <ele>2211.2</ele>
        <time>2013-08-29T10:18:42Z</time>
      </trkpt>
      <trkpt lat="45.28704" lon="6.47531">
        <ele>2210.2</ele>
        <time>2013-08-29T10:18:43Z</time>
      </trkpt>
      <trkpt lat="45.28701" lon="6.4753">
        <ele>2210.2</ele>
        <time>2013-08-29T10:18:44Z</time>
      </trkpt>
      <trkpt lat="45.287" lon="6.47528">
        <ele>2209.7</ele>
        <time>2013-08-29T10:18:45Z</time>
      </trkpt>
      <trkpt lat="45.28699" lon="6.47525">
        <ele>2209.3</ele>
        <time>2013-08-29T10:18:46Z</time>
      </trkpt>
      <trkpt lat="45.28698" lon="6.47523">
        <ele>2208.8</ele>
        <time>2013-08-29T10:18:47Z</time>
      </trkpt>
      <trkpt lat="45.28697" lon="6.4752">
        <ele>2208.8</ele>
        <time>2013-08-29T10:18:48Z</time>
      </trkpt>
      <trkpt lat="45.28696" lon="6.47518">
        <ele>2207.8</ele>
        <time>2013-08-29T10:18:49Z</time>
      </trkpt>
      <trkpt lat="45.28697" lon="6.47517">
        <ele>2206.8</ele>
        <time>2013-08-29T10:19:03Z</time>
      </trkpt>
      <trkpt lat="45.28693" lon="6.47512">
        <ele>2205.9</ele>
        <time>2013-08-29T10:19:09Z</time>
      </trkpt>
      <trkpt lat="45.28692" lon="6.47511">
        <ele>2205.4</ele>
        <time>2013-08-29T10:19:10Z</time>
      </trkpt>
      <trkpt lat="45.2869" lon="6.47509">
        <ele>2204.9</ele>
        <time>2013-08-29T10:19:11Z</time>
      </trkpt>
      <trkpt lat="45.28689" lon="6.47508">
        <ele>2204.9</ele>
        <time>2013-08-29T10:19:12Z</time>
      </trkpt>
      <trkpt lat="45.28688" lon="6.47507">
        <ele>2204.4</ele>
        <time>2013-08-29T10:19:13Z</time>
      </trkpt>
      <trkpt lat="45.28686" lon="6.47507">
        <ele>2204</ele>
        <time>2013-08-29T10:19:14Z</time>
      </trkpt>
      <trkpt lat="45.28684" lon="6.47507">
        <ele>2203.5</ele>
        <time>2013-08-29T10:19:15Z</time>
      </trkpt>
      <trkpt lat="45.28682" lon="6.47506">
        <ele>2202.5</ele>
        <time>2013-08-29T10:19:16Z</time>
      </trkpt>
      <trkpt lat="45.28673" lon="6.47503">
        <ele>2199.6</ele>
        <time>2013-08-29T10:19:21Z</time>
      </trkpt>
      <trkpt lat="45.28671" lon="6.47504">
        <ele>2199.2</ele>
        <time>2013-08-29T10:19:22Z</time>
      </trkpt>
      <trkpt lat="45.2867" lon="6.47507">
        <ele>2198.7</ele>
        <time>2013-08-29T10:19:23Z</time>
      </trkpt>
      <trkpt lat="45.28655" lon="6.47521">
        <ele>2194.8</ele>
        <time>2013-08-29T10:19:32Z</time>
      </trkpt>
      <trkpt lat="45.28654" lon="6.47511">
        <ele>2193.9</ele>
        <time>2013-08-29T10:19:44Z</time>
      </trkpt>
      <trkpt lat="45.28655" lon="6.47511">
        <ele>2193.4</ele>
        <time>2013-08-29T10:20:06Z</time>
      </trkpt>
      <trkpt lat="45.28658" lon="6.47501">
        <ele>2192.4</ele>
        <time>2013-08-29T10:20:11Z</time>
      </trkpt>
      <trkpt lat="45.28656" lon="6.47499">
        <ele>2191.9</ele>
        <time>2013-08-29T10:20:16Z</time>
      </trkpt>
      <trkpt lat="45.28647" lon="6.475">
        <ele>2188.6</ele>
        <time>2013-08-29T10:20:24Z</time>
      </trkpt>
      <trkpt lat="45.28644" lon="6.47488">
        <ele>2186.7</ele>
        <time>2013-08-29T10:20:33Z</time>
      </trkpt>
      <trkpt lat="45.28646" lon="6.47472">
        <ele>2183.3</ele>
        <time>2013-08-29T10:20:45Z</time>
      </trkpt>
      <trkpt lat="45.28644" lon="6.4747">
        <ele>2183.3</ele>
        <time>2013-08-29T10:20:50Z</time>
      </trkpt>
      <trkpt lat="45.28637" lon="6.47469">
        <ele>2179.9</ele>
        <time>2013-08-29T10:21:03Z</time>
      </trkpt>
      <trkpt lat="45.28636" lon="6.47459">
        <ele>2177.5</ele>
        <time>2013-08-29T10:21:13Z</time>
      </trkpt>
      <trkpt lat="45.28637" lon="6.47454">
        <ele>2175.6</ele>
        <time>2013-08-29T10:21:18Z</time>
      </trkpt>
      <trkpt lat="45.28635" lon="6.47447">
        <ele>2173.7</ele>
        <time>2013-08-29T10:21:26Z</time>
      </trkpt>
      <trkpt lat="45.28627" lon="6.47448">
        <ele>2171.3</ele>
        <time>2013-08-29T10:21:39Z</time>
      </trkpt>
      <trkpt lat="45.28626" lon="6.47449">
        <ele>2169.8</ele>
        <time>2013-08-29T10:21:43Z</time>
      </trkpt>
      <trkpt lat="45.28622" lon="6.47441">
        <ele>2167.4</ele>
        <time>2013-08-29T10:21:57Z</time>
      </trkpt>
      <trkpt lat="45.28621" lon="6.47436">
        <ele>2165</ele>
        <time>2013-08-29T10:22:02Z</time>
      </trkpt>
      <trkpt lat="45.28619" lon="6.47428">
        <ele>2163.6</ele>
        <time>2013-08-29T10:22:09Z</time>
      </trkpt>
      <trkpt lat="45.28612" lon="6.47426">
        <ele>2161.2</ele>
        <time>2013-08-29T10:22:22Z</time>
      </trkpt>
      <trkpt lat="45.28607" lon="6.47415">
        <ele>2158.8</ele>
        <time>2013-08-29T10:22:35Z</time>
      </trkpt>
      <trkpt lat="45.28604" lon="6.4741">
        <ele>2157.3</ele>
        <time>2013-08-29T10:22:40Z</time>
      </trkpt>
      <trkpt lat="45.28592" lon="6.47403">
        <ele>2154</ele>
        <time>2013-08-29T10:22:52Z</time>
      </trkpt>
      <trkpt lat="45.28583" lon="6.474">
        <ele>2152.5</ele>
        <time>2013-08-29T10:23:06Z</time>
      </trkpt>
      <trkpt lat="45.28566" lon="6.4739">
        <ele>2150.6</ele>
        <time>2013-08-29T10:23:15Z</time>
      </trkpt>
      <trkpt lat="45.2856" lon="6.47384">
        <ele>2148.7</ele>
        <time>2013-08-29T10:23:17Z</time>
      </trkpt>
      <trkpt lat="45.28557" lon="6.47381">
        <ele>2147.7</ele>
        <time>2013-08-29T10:23:18Z</time>
      </trkpt>
      <trkpt lat="45.28552" lon="6.47378">
        <ele>2146.8</ele>
        <time>2013-08-29T10:23:19Z</time>
      </trkpt>
      <trkpt lat="45.28539" lon="6.47368">
        <ele>2143.9</ele>
        <time>2013-08-29T10:23:22Z</time>
      </trkpt>
      <trkpt lat="45.28528" lon="6.47361">
        <ele>2142.4</ele>
        <time>2013-08-29T10:23:25Z</time>
      </trkpt>
      <trkpt lat="45.28525" lon="6.47358">
        <ele>2140.5</ele>
        <time>2013-08-29T10:23:26Z</time>
      </trkpt>
      <trkpt lat="45.28509" lon="6.47342">
        <ele>2136.7</ele>
        <time>2013-08-29T10:23:30Z</time>
      </trkpt>
      <trkpt lat="45.28499" lon="6.4733">
        <ele>2133.3</ele>
        <time>2013-08-29T10:23:33Z</time>
      </trkpt>
      <trkpt lat="45.28488" lon="6.47318">
        <ele>2130.4</ele>
        <time>2013-08-29T10:23:36Z</time>
      </trkpt>
      <trkpt lat="45.28485" lon="6.47315">
        <ele>2129.9</ele>
        <time>2013-08-29T10:23:37Z</time>
      </trkpt>
      <trkpt lat="45.2848" lon="6.47312">
        <ele>2129</ele>
        <time>2013-08-29T10:23:38Z</time>
      </trkpt>
      <trkpt lat="45.2847" lon="6.47307">
        <ele>2125.6</ele>
        <time>2013-08-29T10:23:40Z</time>
      </trkpt>
      <trkpt lat="45.28456" lon="6.473">
        <ele>2123.2</ele>
        <time>2013-08-29T10:23:43Z</time>
      </trkpt>
      <trkpt lat="45.28443" lon="6.4729">
        <ele>2119.8</ele>
        <time>2013-08-29T10:23:46Z</time>
      </trkpt>
      <trkpt lat="45.28427" lon="6.4728">
        <ele>2116.5</ele>
        <time>2013-08-29T10:23:49Z</time>
      </trkpt>
      <trkpt lat="45.28406" lon="6.4727">
        <ele>2113.1</ele>
        <time>2013-08-29T10:23:53Z</time>
      </trkpt>
      <trkpt lat="45.28387" lon="6.47258">
        <ele>2109.3</ele>
        <time>2013-08-29T10:23:57Z</time>
      </trkpt>
      <trkpt lat="45.28373" lon="6.4725">
        <ele>2108.3</ele>
        <time>2013-08-29T10:24:00Z</time>
      </trkpt>
      <trkpt lat="45.28366" lon="6.47243">
        <ele>2105.9</ele>
        <time>2013-08-29T10:24:02Z</time>
      </trkpt>
      <trkpt lat="45.28359" lon="6.47235">
        <ele>2104.5</ele>
        <time>2013-08-29T10:24:05Z</time>
      </trkpt>
      <trkpt lat="45.28358" lon="6.47233">
        <ele>2103.5</ele>
        <time>2013-08-29T10:24:06Z</time>
      </trkpt>
      <trkpt lat="45.28357" lon="6.47231">
        <ele>2103</ele>
        <time>2013-08-29T10:24:07Z</time>
      </trkpt>
      <trkpt lat="45.28357" lon="6.47227">
        <ele>2102.5</ele>
        <time>2013-08-29T10:24:08Z</time>
      </trkpt>
      <trkpt lat="45.28357" lon="6.47223">
        <ele>2102.5</ele>
        <time>2013-08-29T10:24:09Z</time>
      </trkpt>
      <trkpt lat="45.28357" lon="6.4722">
        <ele>2103</ele>
        <time>2013-08-29T10:24:10Z</time>
      </trkpt>
      <trkpt lat="45.28358" lon="6.47219">
        <ele>2103</ele>
        <time>2013-08-29T10:24:21Z</time>
      </trkpt>
      <trkpt lat="45.28357" lon="6.4722">
        <ele>2102.1</ele>
        <time>2013-08-29T10:24:47Z</time>
      </trkpt>
      <trkpt lat="45.28358" lon="6.47219">
        <ele>2101.6</ele>
        <time>2013-08-29T10:24:58Z</time>
      </trkpt>
      <trkpt lat="45.28358" lon="6.47221">
        <ele>2101.6</ele>
        <time>2013-08-29T10:25:36Z</time>
      </trkpt>
      <trkpt lat="45.28358" lon="6.4722">
        <ele>2102.1</ele>
        <time>2013-08-29T10:26:06Z</time>
      </trkpt>
      <trkpt lat="45.28361" lon="6.47217">
        <ele>2102.1</ele>
        <time>2013-08-29T10:26:32Z</time>
      </trkpt>
      <trkpt lat="45.28363" lon="6.47217">
        <ele>2101.6</ele>
        <time>2013-08-29T10:26:38Z</time>
      </trkpt>
      <trkpt lat="45.28364" lon="6.47216">
        <ele>2102.1</ele>
        <time>2013-08-29T10:26:39Z</time>
      </trkpt>
      <trkpt lat="45.28366" lon="6.47215">
        <ele>2102.1</ele>
        <time>2013-08-29T10:26:40Z</time>
      </trkpt>
      <trkpt lat="45.28368" lon="6.47214">
        <ele>2102.1</ele>
        <time>2013-08-29T10:26:41Z</time>
      </trkpt>
      <trkpt lat="45.2837" lon="6.47213">
        <ele>2102.1</ele>
        <time>2013-08-29T10:26:42Z</time>
      </trkpt>
      <trkpt lat="45.28396" lon="6.47189">
        <ele>2103</ele>
        <time>2013-08-29T10:26:55Z</time>
      </trkpt>
      <trkpt lat="45.28427" lon="6.47164">
        <ele>2103.5</ele>
        <time>2013-08-29T10:27:10Z</time>
      </trkpt>
      <trkpt lat="45.28448" lon="6.47151">
        <ele>2102.1</ele>
        <time>2013-08-29T10:27:21Z</time>
      </trkpt>
      <trkpt lat="45.28448" lon="6.47153">
        <ele>2102.1</ele>
        <time>2013-08-29T10:27:46Z</time>
      </trkpt>
      <trkpt lat="45.28448" lon="6.47151">
        <ele>2101.6</ele>
        <time>2013-08-29T10:28:10Z</time>
      </trkpt>
      <trkpt lat="45.28453" lon="6.47148">
        <ele>2101.6</ele>
        <time>2013-08-29T10:28:33Z</time>
      </trkpt>
      <trkpt lat="45.28456" lon="6.47144">
        <ele>2102.1</ele>
        <time>2013-08-29T10:28:36Z</time>
      </trkpt>
      <trkpt lat="45.28457" lon="6.47142">
        <ele>2101.1</ele>
        <time>2013-08-29T10:28:37Z</time>
      </trkpt>
      <trkpt lat="45.28456" lon="6.4714">
        <ele>2101.1</ele>
        <time>2013-08-29T10:28:38Z</time>
      </trkpt>
      <trkpt lat="45.28455" lon="6.47137">
        <ele>2100.6</ele>
        <time>2013-08-29T10:28:39Z</time>
      </trkpt>
      <trkpt lat="45.28453" lon="6.47135">
        <ele>2099.7</ele>
        <time>2013-08-29T10:28:40Z</time>
      </trkpt>
      <trkpt lat="45.28451" lon="6.47132">
        <ele>2098.7</ele>
        <time>2013-08-29T10:28:41Z</time>
      </trkpt>
      <trkpt lat="45.28449" lon="6.4713">
        <ele>2097.7</ele>
        <time>2013-08-29T10:28:42Z</time>
      </trkpt>
      <trkpt lat="45.28438" lon="6.47113">
        <ele>2094.4</ele>
        <time>2013-08-29T10:28:47Z</time>
      </trkpt>
      <trkpt lat="45.2843" lon="6.47102">
        <ele>2091.5</ele>
        <time>2013-08-29T10:28:51Z</time>
      </trkpt>
      <trkpt lat="45.28426" lon="6.471">
        <ele>2090.5</ele>
        <time>2013-08-29T10:28:52Z</time>
      </trkpt>
      <trkpt lat="45.28422" lon="6.471">
        <ele>2090</ele>
        <time>2013-08-29T10:28:53Z</time>
      </trkpt>
      <trkpt lat="45.28419" lon="6.47101">
        <ele>2089.6</ele>
        <time>2013-08-29T10:28:54Z</time>
      </trkpt>
      <trkpt lat="45.28416" lon="6.47101">
        <ele>2089.1</ele>
        <time>2013-08-29T10:28:55Z</time>
      </trkpt>
      <trkpt lat="45.28413" lon="6.47101">
        <ele>2088.1</ele>
        <time>2013-08-29T10:28:56Z</time>
      </trkpt>
      <trkpt lat="45.2841" lon="6.47099">
        <ele>2087.6</ele>
        <time>2013-08-29T10:28:57Z</time>
      </trkpt>
      <trkpt lat="45.28407" lon="6.47097">
        <ele>2086.7</ele>
        <time>2013-08-29T10:28:58Z</time>
      </trkpt>
      <trkpt lat="45.28404" lon="6.47095">
        <ele>2085.7</ele>
        <time>2013-08-29T10:28:59Z</time>
      </trkpt>
      <trkpt lat="45.28402" lon="6.47091">
        <ele>2085.2</ele>
        <time>2013-08-29T10:29:00Z</time>
      </trkpt>
      <trkpt lat="45.28399" lon="6.47086">
        <ele>2083.8</ele>
        <time>2013-08-29T10:29:01Z</time>
      </trkpt>
      <trkpt lat="45.28397" lon="6.4708">
        <ele>2083.8</ele>
        <time>2013-08-29T10:29:02Z</time>
      </trkpt>
      <trkpt lat="45.28386" lon="6.47055">
        <ele>2079</ele>
        <time>2013-08-29T10:29:06Z</time>
      </trkpt>
      <trkpt lat="45.28384" lon="6.4705">
        <ele>2079</ele>
        <time>2013-08-29T10:29:07Z</time>
      </trkpt>
      <trkpt lat="45.28381" lon="6.47045">
        <ele>2077.6</ele>
        <time>2013-08-29T10:29:08Z</time>
      </trkpt>
      <trkpt lat="45.28377" lon="6.47042">
        <ele>2077.1</ele>
        <time>2013-08-29T10:29:09Z</time>
      </trkpt>
      <trkpt lat="45.28373" lon="6.4704">
        <ele>2076.1</ele>
        <time>2013-08-29T10:29:10Z</time>
      </trkpt>
      <trkpt lat="45.28369" lon="6.47041">
        <ele>2075.1</ele>
        <time>2013-08-29T10:29:11Z</time>
      </trkpt>
      <trkpt lat="45.28365" lon="6.47042">
        <ele>2073.7</ele>
        <time>2013-08-29T10:29:12Z</time>
      </trkpt>
      <trkpt lat="45.28353" lon="6.47036">
        <ele>2070.8</ele>
        <time>2013-08-29T10:29:16Z</time>
      </trkpt>
      <trkpt lat="45.28352" lon="6.47031">
        <ele>2070.8</ele>
        <time>2013-08-29T10:29:17Z</time>
      </trkpt>
      <trkpt lat="45.28349" lon="6.47012">
        <ele>2069.4</ele>
        <time>2013-08-29T10:29:20Z</time>
      </trkpt>
      <trkpt lat="45.28347" lon="6.47005">
        <ele>2068.9</ele>
        <time>2013-08-29T10:29:21Z</time>
      </trkpt>
      <trkpt lat="45.28345" lon="6.46999">
        <ele>2068.4</ele>
        <time>2013-08-29T10:29:22Z</time>
      </trkpt>
      <trkpt lat="45.28344" lon="6.46993">
        <ele>2067.9</ele>
        <time>2013-08-29T10:29:23Z</time>
      </trkpt>
      <trkpt lat="45.28344" lon="6.46987">
        <ele>2067</ele>
        <time>2013-08-29T10:29:24Z</time>
      </trkpt>
      <trkpt lat="45.28345" lon="6.46981">
        <ele>2066.5</ele>
        <time>2013-08-29T10:29:25Z</time>
      </trkpt>
      <trkpt lat="45.28347" lon="6.46977">
        <ele>2066</ele>
        <time>2013-08-29T10:29:26Z</time>
      </trkpt>
      <trkpt lat="45.28349" lon="6.46973">
        <ele>2066.5</ele>
        <time>2013-08-29T10:29:27Z</time>
      </trkpt>
      <trkpt lat="45.28355" lon="6.46965">
        <ele>2066.5</ele>
        <time>2013-08-29T10:29:30Z</time>
      </trkpt>
      <trkpt lat="45.28355" lon="6.46961">
        <ele>2065.5</ele>
        <time>2013-08-29T10:29:31Z</time>
      </trkpt>
      <trkpt lat="45.28355" lon="6.46956">
        <ele>2064.6</ele>
        <time>2013-08-29T10:29:32Z</time>
      </trkpt>
      <trkpt lat="45.28359" lon="6.46936">
        <ele>2061.2</ele>
        <time>2013-08-29T10:29:36Z</time>
      </trkpt>
      <trkpt lat="45.28361" lon="6.46931">
        <ele>2060.7</ele>
        <time>2013-08-29T10:29:37Z</time>
      </trkpt>
      <trkpt lat="45.28364" lon="6.46927">
        <ele>2060.2</ele>
        <time>2013-08-29T10:29:38Z</time>
      </trkpt>
      <trkpt lat="45.28368" lon="6.46922">
        <ele>2059.8</ele>
        <time>2013-08-29T10:29:39Z</time>
      </trkpt>
      <trkpt lat="45.28371" lon="6.46917">
        <ele>2058.8</ele>
        <time>2013-08-29T10:29:40Z</time>
      </trkpt>
      <trkpt lat="45.28374" lon="6.46913">
        <ele>2058.3</ele>
        <time>2013-08-29T10:29:41Z</time>
      </trkpt>
      <trkpt lat="45.28377" lon="6.4691">
        <ele>2058.8</ele>
        <time>2013-08-29T10:29:42Z</time>
      </trkpt>
      <trkpt lat="45.28386" lon="6.46891">
        <ele>2060.7</ele>
        <time>2013-08-29T10:29:52Z</time>
      </trkpt>
      <trkpt lat="45.28372" lon="6.46867">
        <ele>2061.2</ele>
        <time>2013-08-29T10:30:04Z</time>
      </trkpt>
      <trkpt lat="45.28352" lon="6.46824">
        <ele>2061.2</ele>
        <time>2013-08-29T10:30:18Z</time>
      </trkpt>
      <trkpt lat="45.28358" lon="6.46785">
        <ele>2060.2</ele>
        <time>2013-08-29T10:30:29Z</time>
      </trkpt>
      <trkpt lat="45.28365" lon="6.46752">
        <ele>2061.2</ele>
        <time>2013-08-29T10:30:39Z</time>
      </trkpt>
      <trkpt lat="45.28366" lon="6.4674">
        <ele>2059.8</ele>
        <time>2013-08-29T10:30:42Z</time>
      </trkpt>
      <trkpt lat="45.28368" lon="6.46702">
        <ele>2060.7</ele>
        <time>2013-08-29T10:30:53Z</time>
      </trkpt>
      <trkpt lat="45.28357" lon="6.46695">
        <ele>2058.3</ele>
        <time>2013-08-29T10:31:00Z</time>
      </trkpt>
      <trkpt lat="45.28355" lon="6.46694">
        <ele>2057.8</ele>
        <time>2013-08-29T10:31:01Z</time>
      </trkpt>
      <trkpt lat="45.28354" lon="6.46693">
        <ele>2056.9</ele>
        <time>2013-08-29T10:31:02Z</time>
      </trkpt>
      <trkpt lat="45.28354" lon="6.46692">
        <ele>2056.9</ele>
        <time>2013-08-29T10:31:03Z</time>
      </trkpt>
      <trkpt lat="45.28353" lon="6.46691">
        <ele>2056.4</ele>
        <time>2013-08-29T10:31:23Z</time>
      </trkpt>
      <trkpt lat="45.28353" lon="6.4669">
        <ele>2055.9</ele>
        <time>2013-08-29T10:31:53Z</time>
      </trkpt>
      <trkpt lat="45.28374" lon="6.46683">
        <ele>2052.6</ele>
        <time>2013-08-29T10:32:00Z</time>
      </trkpt>
      <trkpt lat="45.28378" lon="6.46681">
        <ele>2051.6</ele>
        <time>2013-08-29T10:32:01Z</time>
      </trkpt>
      <trkpt lat="45.28389" lon="6.46672">
        <ele>2049.7</ele>
        <time>2013-08-29T10:32:04Z</time>
      </trkpt>
      <trkpt lat="45.28396" lon="6.46666">
        <ele>2048.7</ele>
        <time>2013-08-29T10:32:06Z</time>
      </trkpt>
      <trkpt lat="45.28399" lon="6.46663">
        <ele>2047.8</ele>
        <time>2013-08-29T10:32:07Z</time>
      </trkpt>
      <trkpt lat="45.28407" lon="6.4665">
        <ele>2044.4</ele>
        <time>2013-08-29T10:32:11Z</time>
      </trkpt>
      <trkpt lat="45.28416" lon="6.46637">
        <ele>2040.5</ele>
        <time>2013-08-29T10:32:15Z</time>
      </trkpt>
      <trkpt lat="45.28419" lon="6.46634">
        <ele>2040.5</ele>
        <time>2013-08-29T10:32:16Z</time>
      </trkpt>
      <trkpt lat="45.28424" lon="6.46629">
        <ele>2039.6</ele>
        <time>2013-08-29T10:32:18Z</time>
      </trkpt>
      <trkpt lat="45.28429" lon="6.46623">
        <ele>2038.6</ele>
        <time>2013-08-29T10:32:20Z</time>
      </trkpt>
      <trkpt lat="45.2843" lon="6.4662">
        <ele>2038.1</ele>
        <time>2013-08-29T10:32:21Z</time>
      </trkpt>
      <trkpt lat="45.28429" lon="6.46616">
        <ele>2038.1</ele>
        <time>2013-08-29T10:32:22Z</time>
      </trkpt>
      <trkpt lat="45.28428" lon="6.46614">
        <ele>2037.7</ele>
        <time>2013-08-29T10:32:23Z</time>
      </trkpt>
      <trkpt lat="45.28426" lon="6.46611">
        <ele>2037.7</ele>
        <time>2013-08-29T10:32:24Z</time>
      </trkpt>
      <trkpt lat="45.28423" lon="6.46609">
        <ele>2037.7</ele>
        <time>2013-08-29T10:32:25Z</time>
      </trkpt>
      <trkpt lat="45.28417" lon="6.466">
        <ele>2036.7</ele>
        <time>2013-08-29T10:32:28Z</time>
      </trkpt>
      <trkpt lat="45.28416" lon="6.46597">
        <ele>2037.7</ele>
        <time>2013-08-29T10:32:29Z</time>
      </trkpt>
      <trkpt lat="45.28416" lon="6.46594">
        <ele>2037.2</ele>
        <time>2013-08-29T10:32:30Z</time>
      </trkpt>
      <trkpt lat="45.28413" lon="6.46553">
        <ele>2037.7</ele>
        <time>2013-08-29T10:32:41Z</time>
      </trkpt>
      <trkpt lat="45.28413" lon="6.46552">
        <ele>2033.3</ele>
        <time>2013-08-29T10:32:46Z</time>
      </trkpt>
      <trkpt lat="45.28413" lon="6.46552">
        <ele>2033.3</ele>
        <time>2013-08-29T10:32:47Z</time>
      </trkpt>
      <trkpt lat="45.28413" lon="6.46552">
        <ele>2040.1</ele>
        <time>2013-08-29T11:03:18Z</time>
      </trkpt>
      <trkpt lat="45.28416" lon="6.46547">
        <ele>2039.6</ele>
        <time>2013-08-29T11:03:25Z</time>
      </trkpt>
      <trkpt lat="45.28418" lon="6.46537">
        <ele>2038.1</ele>
        <time>2013-08-29T11:03:29Z</time>
      </trkpt>
      <trkpt lat="45.28417" lon="6.46534">
        <ele>2037.7</ele>
        <time>2013-08-29T11:03:30Z</time>
      </trkpt>
      <trkpt lat="45.28417" lon="6.4653">
        <ele>2036.7</ele>
        <time>2013-08-29T11:03:31Z</time>
      </trkpt>
      <trkpt lat="45.28418" lon="6.46526">
        <ele>2036.7</ele>
        <time>2013-08-29T11:03:32Z</time>
      </trkpt>
      <trkpt lat="45.28418" lon="6.46523">
        <ele>2036.7</ele>
        <time>2013-08-29T11:03:33Z</time>
      </trkpt>
      <trkpt lat="45.28421" lon="6.4651">
        <ele>2035.7</ele>
        <time>2013-08-29T11:03:37Z</time>
      </trkpt>
      <trkpt lat="45.28426" lon="6.4649">
        <ele>2033.3</ele>
        <time>2013-08-29T11:03:43Z</time>
      </trkpt>
      <trkpt lat="45.28429" lon="6.46461">
        <ele>2030</ele>
        <time>2013-08-29T11:03:49Z</time>
      </trkpt>
      <trkpt lat="45.28431" lon="6.46445">
        <ele>2030</ele>
        <time>2013-08-29T11:03:54Z</time>
      </trkpt>
      <trkpt lat="45.28448" lon="6.46423">
        <ele>2028.5</ele>
        <time>2013-08-29T11:04:05Z</time>
      </trkpt>
      <trkpt lat="45.28458" lon="6.46408">
        <ele>2027.6</ele>
        <time>2013-08-29T11:04:12Z</time>
      </trkpt>
      <trkpt lat="45.28461" lon="6.46406">
        <ele>2028</ele>
        <time>2013-08-29T11:04:13Z</time>
      </trkpt>
      <trkpt lat="45.28463" lon="6.46404">
        <ele>2027.6</ele>
        <time>2013-08-29T11:04:14Z</time>
      </trkpt>
      <trkpt lat="45.28465" lon="6.46402">
        <ele>2027.1</ele>
        <time>2013-08-29T11:04:15Z</time>
      </trkpt>
      <trkpt lat="45.28467" lon="6.46399">
        <ele>2026.6</ele>
        <time>2013-08-29T11:04:16Z</time>
      </trkpt>
      <trkpt lat="45.2847" lon="6.46397">
        <ele>2027.6</ele>
        <time>2013-08-29T11:04:17Z</time>
      </trkpt>
      <trkpt lat="45.28471" lon="6.46395">
        <ele>2027.1</ele>
        <time>2013-08-29T11:04:18Z</time>
      </trkpt>
      <trkpt lat="45.28496" lon="6.46374">
        <ele>2024.7</ele>
        <time>2013-08-29T11:04:27Z</time>
      </trkpt>
      <trkpt lat="45.28499" lon="6.46372">
        <ele>2024.7</ele>
        <time>2013-08-29T11:04:28Z</time>
      </trkpt>
      <trkpt lat="45.28503" lon="6.46368">
        <ele>2023.7</ele>
        <time>2013-08-29T11:04:31Z</time>
      </trkpt>
      <trkpt lat="45.28505" lon="6.46368">
        <ele>2023.2</ele>
        <time>2013-08-29T11:04:32Z</time>
      </trkpt>
      <trkpt lat="45.28509" lon="6.46364">
        <ele>2021.3</ele>
        <time>2013-08-29T11:04:41Z</time>
      </trkpt>
      <trkpt lat="45.28516" lon="6.46355">
        <ele>2018.4</ele>
        <time>2013-08-29T11:04:54Z</time>
      </trkpt>
      <trkpt lat="45.28522" lon="6.46349">
        <ele>2018.9</ele>
        <time>2013-08-29T11:05:08Z</time>
      </trkpt>
      <trkpt lat="45.28522" lon="6.46348">
        <ele>2019.9</ele>
        <time>2013-08-29T11:05:09Z</time>
      </trkpt>
      <trkpt lat="45.28523" lon="6.46336">
        <ele>2021.3</ele>
        <time>2013-08-29T11:05:24Z</time>
      </trkpt>
      <trkpt lat="45.28523" lon="6.46331">
        <ele>2021.3</ele>
        <time>2013-08-29T11:05:39Z</time>
      </trkpt>
      <trkpt lat="45.28522" lon="6.46329">
        <ele>2021.3</ele>
        <time>2013-08-29T11:05:40Z</time>
      </trkpt>
      <trkpt lat="45.28522" lon="6.46297">
        <ele>2021.3</ele>
        <time>2013-08-29T11:05:50Z</time>
      </trkpt>
      <trkpt lat="45.28523" lon="6.46284">
        <ele>2020.8</ele>
        <time>2013-08-29T11:05:54Z</time>
      </trkpt>
      <trkpt lat="45.28522" lon="6.46273">
        <ele>2020.8</ele>
        <time>2013-08-29T11:06:02Z</time>
      </trkpt>
      <trkpt lat="45.28533" lon="6.46241">
        <ele>2018.4</ele>
        <time>2013-08-29T11:06:12Z</time>
      </trkpt>
      <trkpt lat="45.28537" lon="6.46232">
        <ele>2017.9</ele>
        <time>2013-08-29T11:06:15Z</time>
      </trkpt>
      <trkpt lat="45.28537" lon="6.4623">
        <ele>2017.9</ele>
        <time>2013-08-29T11:06:16Z</time>
      </trkpt>
      <trkpt lat="45.28537" lon="6.46226">
        <ele>2017</ele>
        <time>2013-08-29T11:06:17Z</time>
      </trkpt>
      <trkpt lat="45.28537" lon="6.46223">
        <ele>2016</ele>
        <time>2013-08-29T11:06:18Z</time>
      </trkpt>
      <trkpt lat="45.2853" lon="6.46192">
        <ele>2017</ele>
        <time>2013-08-29T11:06:29Z</time>
      </trkpt>
      <trkpt lat="45.28517" lon="6.46168">
        <ele>2016</ele>
        <time>2013-08-29T11:06:39Z</time>
      </trkpt>
      <trkpt lat="45.28516" lon="6.46156">
        <ele>2017</ele>
        <time>2013-08-29T11:06:50Z</time>
      </trkpt>
      <trkpt lat="45.2852" lon="6.46154">
        <ele>2017</ele>
        <time>2013-08-29T11:07:03Z</time>
      </trkpt>
      <trkpt lat="45.28515" lon="6.46143">
        <ele>2017.9</ele>
        <time>2013-08-29T11:07:17Z</time>
      </trkpt>
      <trkpt lat="45.28511" lon="6.46139">
        <ele>2019.4</ele>
        <time>2013-08-29T11:07:29Z</time>
      </trkpt>
      <trkpt lat="45.28505" lon="6.46129">
        <ele>2020.4</ele>
        <time>2013-08-29T11:07:43Z</time>
      </trkpt>
      <trkpt lat="45.285" lon="6.46116">
        <ele>2021.8</ele>
        <time>2013-08-29T11:07:58Z</time>
      </trkpt>
      <trkpt lat="45.28493" lon="6.46098">
        <ele>2023.2</ele>
        <time>2013-08-29T11:08:16Z</time>
      </trkpt>
      <trkpt lat="45.28488" lon="6.46087">
        <ele>2025.2</ele>
        <time>2013-08-29T11:08:32Z</time>
      </trkpt>
      <trkpt lat="45.28485" lon="6.46079">
        <ele>2028.5</ele>
        <time>2013-08-29T11:08:46Z</time>
      </trkpt>
      <trkpt lat="45.28481" lon="6.46067">
        <ele>2030</ele>
        <time>2013-08-29T11:09:00Z</time>
      </trkpt>
      <trkpt lat="45.28476" lon="6.46056">
        <ele>2031.9</ele>
        <time>2013-08-29T11:09:16Z</time>
      </trkpt>
      <trkpt lat="45.28472" lon="6.46046">
        <ele>2034.3</ele>
        <time>2013-08-29T11:09:29Z</time>
      </trkpt>
      <trkpt lat="45.28468" lon="6.4604">
        <ele>2034.3</ele>
        <time>2013-08-29T11:09:43Z</time>
      </trkpt>
      <trkpt lat="45.28465" lon="6.46027">
        <ele>2034.3</ele>
        <time>2013-08-29T11:09:54Z</time>
      </trkpt>
      <trkpt lat="45.28468" lon="6.46023">
        <ele>2034.8</ele>
        <time>2013-08-29T11:09:58Z</time>
      </trkpt>
      <trkpt lat="45.28468" lon="6.46022">
        <ele>2033.8</ele>
        <time>2013-08-29T11:09:59Z</time>
      </trkpt>
      <trkpt lat="45.28468" lon="6.4602">
        <ele>2034.3</ele>
        <time>2013-08-29T11:10:00Z</time>
      </trkpt>
      <trkpt lat="45.28462" lon="6.46017">
        <ele>2035.3</ele>
        <time>2013-08-29T11:10:11Z</time>
      </trkpt>
      <trkpt lat="45.28458" lon="6.46013">
        <ele>2034.8</ele>
        <time>2013-08-29T11:10:29Z</time>
      </trkpt>
      <trkpt lat="45.28456" lon="6.46011">
        <ele>2035.3</ele>
        <time>2013-08-29T11:10:41Z</time>
      </trkpt>
      <trkpt lat="45.28436" lon="6.4599">
        <ele>2033.8</ele>
        <time>2013-08-29T11:10:50Z</time>
      </trkpt>
      <trkpt lat="45.28429" lon="6.45979">
        <ele>2034.8</ele>
        <time>2013-08-29T11:10:55Z</time>
      </trkpt>
      <trkpt lat="45.28427" lon="6.45976">
        <ele>2034.3</ele>
        <time>2013-08-29T11:10:56Z</time>
      </trkpt>
      <trkpt lat="45.28425" lon="6.45974">
        <ele>2033.8</ele>
        <time>2013-08-29T11:10:57Z</time>
      </trkpt>
      <trkpt lat="45.2842" lon="6.4597">
        <ele>2034.3</ele>
        <time>2013-08-29T11:10:59Z</time>
      </trkpt>
      <trkpt lat="45.28408" lon="6.45956">
        <ele>2032.8</ele>
        <time>2013-08-29T11:11:08Z</time>
      </trkpt>
      <trkpt lat="45.28406" lon="6.45953">
        <ele>2033.8</ele>
        <time>2013-08-29T11:11:10Z</time>
      </trkpt>
      <trkpt lat="45.28404" lon="6.4593">
        <ele>2034.8</ele>
        <time>2013-08-29T11:11:24Z</time>
      </trkpt>
      <trkpt lat="45.28404" lon="6.45925">
        <ele>2035.3</ele>
        <time>2013-08-29T11:11:35Z</time>
      </trkpt>
      <trkpt lat="45.28403" lon="6.45924">
        <ele>2036.2</ele>
        <time>2013-08-29T11:11:36Z</time>
      </trkpt>
      <trkpt lat="45.28402" lon="6.45923">
        <ele>2036.2</ele>
        <time>2013-08-29T11:11:37Z</time>
      </trkpt>
      <trkpt lat="45.28401" lon="6.45921">
        <ele>2035.7</ele>
        <time>2013-08-29T11:11:38Z</time>
      </trkpt>
      <trkpt lat="45.284" lon="6.4592">
        <ele>2036.7</ele>
        <time>2013-08-29T11:11:39Z</time>
      </trkpt>
      <trkpt lat="45.28399" lon="6.45919">
        <ele>2036.7</ele>
        <time>2013-08-29T11:11:40Z</time>
      </trkpt>
      <trkpt lat="45.28398" lon="6.45918">
        <ele>2037.2</ele>
        <time>2013-08-29T11:11:41Z</time>
      </trkpt>
      <trkpt lat="45.28397" lon="6.45917">
        <ele>2037.2</ele>
        <time>2013-08-29T11:11:42Z</time>
      </trkpt>
      <trkpt lat="45.28396" lon="6.45916">
        <ele>2037.2</ele>
        <time>2013-08-29T11:11:43Z</time>
      </trkpt>
      <trkpt lat="45.28394" lon="6.45914">
        <ele>2037.7</ele>
        <time>2013-08-29T11:11:44Z</time>
      </trkpt>
      <trkpt lat="45.28392" lon="6.45911">
        <ele>2036.7</ele>
        <time>2013-08-29T11:11:45Z</time>
      </trkpt>
      <trkpt lat="45.28391" lon="6.45908">
        <ele>2036.7</ele>
        <time>2013-08-29T11:11:46Z</time>
      </trkpt>
      <trkpt lat="45.2839" lon="6.45906">
        <ele>2036.7</ele>
        <time>2013-08-29T11:11:47Z</time>
      </trkpt>
      <trkpt lat="45.28389" lon="6.45903">
        <ele>2037.2</ele>
        <time>2013-08-29T11:11:48Z</time>
      </trkpt>
      <trkpt lat="45.28388" lon="6.459">
        <ele>2037.2</ele>
        <time>2013-08-29T11:11:49Z</time>
      </trkpt>
      <trkpt lat="45.28384" lon="6.45889">
        <ele>2036.2</ele>
        <time>2013-08-29T11:11:59Z</time>
      </trkpt>
      <trkpt lat="45.28382" lon="6.45887">
        <ele>2036.2</ele>
        <time>2013-08-29T11:12:02Z</time>
      </trkpt>
      <trkpt lat="45.28381" lon="6.45885">
        <ele>2035.7</ele>
        <time>2013-08-29T11:12:03Z</time>
      </trkpt>
      <trkpt lat="45.2838" lon="6.45883">
        <ele>2035.3</ele>
        <time>2013-08-29T11:12:04Z</time>
      </trkpt>
      <trkpt lat="45.28379" lon="6.4588">
        <ele>2035.3</ele>
        <time>2013-08-29T11:12:05Z</time>
      </trkpt>
      <trkpt lat="45.28378" lon="6.45877">
        <ele>2034.3</ele>
        <time>2013-08-29T11:12:06Z</time>
      </trkpt>
      <trkpt lat="45.28377" lon="6.45874">
        <ele>2034.3</ele>
        <time>2013-08-29T11:12:07Z</time>
      </trkpt>
      <trkpt lat="45.28375" lon="6.45871">
        <ele>2034.3</ele>
        <time>2013-08-29T11:12:08Z</time>
      </trkpt>
      <trkpt lat="45.28373" lon="6.45869">
        <ele>2034.3</ele>
        <time>2013-08-29T11:12:09Z</time>
      </trkpt>
      <trkpt lat="45.28372" lon="6.45865">
        <ele>2033.8</ele>
        <time>2013-08-29T11:12:10Z</time>
      </trkpt>
      <trkpt lat="45.28367" lon="6.4585">
        <ele>2033.3</ele>
        <time>2013-08-29T11:12:14Z</time>
      </trkpt>
      <trkpt lat="45.28365" lon="6.45848">
        <ele>2033.3</ele>
        <time>2013-08-29T11:12:15Z</time>
      </trkpt>
      <trkpt lat="45.28364" lon="6.45846">
        <ele>2032.8</ele>
        <time>2013-08-29T11:12:16Z</time>
      </trkpt>
      <trkpt lat="45.28363" lon="6.45841">
        <ele>2031.9</ele>
        <time>2013-08-29T11:12:25Z</time>
      </trkpt>
      <trkpt lat="45.28359" lon="6.45828">
        <ele>2034.3</ele>
        <time>2013-08-29T11:12:39Z</time>
      </trkpt>
      <trkpt lat="45.28351" lon="6.45823">
        <ele>2036.2</ele>
        <time>2013-08-29T11:12:50Z</time>
      </trkpt>
      <trkpt lat="45.28347" lon="6.45817">
        <ele>2038.1</ele>
        <time>2013-08-29T11:13:01Z</time>
      </trkpt>
      <trkpt lat="45.28346" lon="6.45816">
        <ele>2038.1</ele>
        <time>2013-08-29T11:13:02Z</time>
      </trkpt>
      <trkpt lat="45.28342" lon="6.45811">
        <ele>2038.6</ele>
        <time>2013-08-29T11:13:08Z</time>
      </trkpt>
      <trkpt lat="45.28341" lon="6.45809">
        <ele>2037.7</ele>
        <time>2013-08-29T11:13:09Z</time>
      </trkpt>
      <trkpt lat="45.28337" lon="6.45796">
        <ele>2039.6</ele>
        <time>2013-08-29T11:13:23Z</time>
      </trkpt>
      <trkpt lat="45.28336" lon="6.45795">
        <ele>2040.1</ele>
        <time>2013-08-29T11:13:24Z</time>
      </trkpt>
      <trkpt lat="45.28335" lon="6.45794">
        <ele>2040.1</ele>
        <time>2013-08-29T11:13:25Z</time>
      </trkpt>
      <trkpt lat="45.28335" lon="6.45792">
        <ele>2039.6</ele>
        <time>2013-08-29T11:13:26Z</time>
      </trkpt>
      <trkpt lat="45.28334" lon="6.4579">
        <ele>2039.6</ele>
        <time>2013-08-29T11:13:27Z</time>
      </trkpt>
      <trkpt lat="45.28334" lon="6.45786">
        <ele>2041</ele>
        <time>2013-08-29T11:13:39Z</time>
      </trkpt>
      <trkpt lat="45.28331" lon="6.4578">
        <ele>2041.5</ele>
        <time>2013-08-29T11:13:46Z</time>
      </trkpt>
      <trkpt lat="45.28323" lon="6.45768">
        <ele>2043.9</ele>
        <time>2013-08-29T11:14:00Z</time>
      </trkpt>
      <trkpt lat="45.28321" lon="6.45766">
        <ele>2042.9</ele>
        <time>2013-08-29T11:14:21Z</time>
      </trkpt>
      <trkpt lat="45.28321" lon="6.45767">
        <ele>2043.4</ele>
        <time>2013-08-29T11:14:24Z</time>
      </trkpt>
      <trkpt lat="45.28322" lon="6.45766">
        <ele>2043.4</ele>
        <time>2013-08-29T11:14:52Z</time>
      </trkpt>
      <trkpt lat="45.28318" lon="6.45764">
        <ele>2042.5</ele>
        <time>2013-08-29T11:15:03Z</time>
      </trkpt>
      <trkpt lat="45.28304" lon="6.45744">
        <ele>2041</ele>
        <time>2013-08-29T11:15:12Z</time>
      </trkpt>
      <trkpt lat="45.28302" lon="6.45741">
        <ele>2040.1</ele>
        <time>2013-08-29T11:15:18Z</time>
      </trkpt>
      <trkpt lat="45.283" lon="6.45744">
        <ele>2039.1</ele>
        <time>2013-08-29T11:15:26Z</time>
      </trkpt>
      <trkpt lat="45.283" lon="6.45746">
        <ele>2038.6</ele>
        <time>2013-08-29T11:15:27Z</time>
      </trkpt>
      <trkpt lat="45.283" lon="6.45749">
        <ele>2038.6</ele>
        <time>2013-08-29T11:15:28Z</time>
      </trkpt>
      <trkpt lat="45.28301" lon="6.45754">
        <ele>2036.2</ele>
        <time>2013-08-29T11:15:38Z</time>
      </trkpt>
      <trkpt lat="45.28296" lon="6.45751">
        <ele>2035.3</ele>
        <time>2013-08-29T11:15:44Z</time>
      </trkpt>
      <trkpt lat="45.28296" lon="6.45751">
        <ele>2035.7</ele>
        <time>2013-08-29T11:15:45Z</time>
      </trkpt>
      <trkpt lat="45.28295" lon="6.45749">
        <ele>2034.3</ele>
        <time>2013-08-29T11:15:46Z</time>
      </trkpt>
      <trkpt lat="45.28293" lon="6.45745">
        <ele>2033.3</ele>
        <time>2013-08-29T11:15:49Z</time>
      </trkpt>
      <trkpt lat="45.28279" lon="6.45735">
        <ele>2031.4</ele>
        <time>2013-08-29T11:15:59Z</time>
      </trkpt>
      <trkpt lat="45.28275" lon="6.45732">
        <ele>2030</ele>
        <time>2013-08-29T11:16:00Z</time>
      </trkpt>
      <trkpt lat="45.2827" lon="6.4573">
        <ele>2029.5</ele>
        <time>2013-08-29T11:16:07Z</time>
      </trkpt>
      <trkpt lat="45.2827" lon="6.45731">
        <ele>2028.5</ele>
        <time>2013-08-29T11:16:08Z</time>
      </trkpt>
      <trkpt lat="45.2827" lon="6.45737">
        <ele>2027.6</ele>
        <time>2013-08-29T11:16:14Z</time>
      </trkpt>
      <trkpt lat="45.2827" lon="6.45739">
        <ele>2027.6</ele>
        <time>2013-08-29T11:16:15Z</time>
      </trkpt>
      <trkpt lat="45.28271" lon="6.45741">
        <ele>2026.1</ele>
        <time>2013-08-29T11:16:16Z</time>
      </trkpt>
      <trkpt lat="45.28271" lon="6.45746">
        <ele>2024.2</ele>
        <time>2013-08-29T11:16:28Z</time>
      </trkpt>
      <trkpt lat="45.28266" lon="6.45739">
        <ele>2023.2</ele>
        <time>2013-08-29T11:16:43Z</time>
      </trkpt>
      <trkpt lat="45.28246" lon="6.45721">
        <ele>2022.3</ele>
        <time>2013-08-29T11:16:51Z</time>
      </trkpt>
      <trkpt lat="45.28238" lon="6.45716">
        <ele>2020.8</ele>
        <time>2013-08-29T11:16:54Z</time>
      </trkpt>
      <trkpt lat="45.28224" lon="6.45715">
        <ele>2019.4</ele>
        <time>2013-08-29T11:17:02Z</time>
      </trkpt>
      <trkpt lat="45.28222" lon="6.45713">
        <ele>2018.4</ele>
        <time>2013-08-29T11:17:11Z</time>
      </trkpt>
      <trkpt lat="45.28221" lon="6.45713">
        <ele>2018.9</ele>
        <time>2013-08-29T11:17:12Z</time>
      </trkpt>
      <trkpt lat="45.28217" lon="6.45701">
        <ele>2016.5</ele>
        <time>2013-08-29T11:17:23Z</time>
      </trkpt>
      <trkpt lat="45.28215" lon="6.45693">
        <ele>2014.6</ele>
        <time>2013-08-29T11:17:41Z</time>
      </trkpt>
      <trkpt lat="45.28209" lon="6.4568">
        <ele>2011.2</ele>
        <time>2013-08-29T11:17:49Z</time>
      </trkpt>
      <trkpt lat="45.28207" lon="6.45675">
        <ele>2011.2</ele>
        <time>2013-08-29T11:17:52Z</time>
      </trkpt>
      <trkpt lat="45.28209" lon="6.45679">
        <ele>2011.2</ele>
        <time>2013-08-29T11:18:01Z</time>
      </trkpt>
      <trkpt lat="45.28212" lon="6.45681">
        <ele>2011.2</ele>
        <time>2013-08-29T11:18:17Z</time>
      </trkpt>
      <trkpt lat="45.28212" lon="6.45683">
        <ele>2010.7</ele>
        <time>2013-08-29T11:18:18Z</time>
      </trkpt>
      <trkpt lat="45.28213" lon="6.4569">
        <ele>2010.3</ele>
        <time>2013-08-29T11:18:21Z</time>
      </trkpt>
      <trkpt lat="45.28214" lon="6.45693">
        <ele>2009.8</ele>
        <time>2013-08-29T11:18:23Z</time>
      </trkpt>
      <trkpt lat="45.28214" lon="6.45696">
        <ele>2009.3</ele>
        <time>2013-08-29T11:18:24Z</time>
      </trkpt>
      <trkpt lat="45.28213" lon="6.45699">
        <ele>2009.3</ele>
        <time>2013-08-29T11:18:25Z</time>
      </trkpt>
      <trkpt lat="45.28213" lon="6.4574">
        <ele>2005.5</ele>
        <time>2013-08-29T11:18:35Z</time>
      </trkpt>
      <trkpt lat="45.28214" lon="6.45743">
        <ele>2004.5</ele>
        <time>2013-08-29T11:18:36Z</time>
      </trkpt>
      <trkpt lat="45.28217" lon="6.45751">
        <ele>2004.5</ele>
        <time>2013-08-29T11:18:38Z</time>
      </trkpt>
      <trkpt lat="45.28218" lon="6.45756">
        <ele>2003.5</ele>
        <time>2013-08-29T11:18:39Z</time>
      </trkpt>
      <trkpt lat="45.28218" lon="6.45762">
        <ele>2002.6</ele>
        <time>2013-08-29T11:18:47Z</time>
      </trkpt>
      <trkpt lat="45.28215" lon="6.45752">
        <ele>2001.1</ele>
        <time>2013-08-29T11:18:58Z</time>
      </trkpt>
      <trkpt lat="45.28214" lon="6.45749">
        <ele>2000.6</ele>
        <time>2013-08-29T11:18:59Z</time>
      </trkpt>
      <trkpt lat="45.28212" lon="6.45748">
        <ele>2000.6</ele>
        <time>2013-08-29T11:19:00Z</time>
      </trkpt>
      <trkpt lat="45.28196" lon="6.45726">
        <ele>1996.8</ele>
        <time>2013-08-29T11:19:07Z</time>
      </trkpt>
      <trkpt lat="45.28192" lon="6.4571">
        <ele>1995.8</ele>
        <time>2013-08-29T11:19:10Z</time>
      </trkpt>
      <trkpt lat="45.28192" lon="6.45705">
        <ele>1995.4</ele>
        <time>2013-08-29T11:19:11Z</time>
      </trkpt>
      <trkpt lat="45.2819" lon="6.45699">
        <ele>1994.4</ele>
        <time>2013-08-29T11:19:12Z</time>
      </trkpt>
      <trkpt lat="45.28188" lon="6.45693">
        <ele>1993.9</ele>
        <time>2013-08-29T11:19:13Z</time>
      </trkpt>
      <trkpt lat="45.28185" lon="6.45689">
        <ele>1993.4</ele>
        <time>2013-08-29T11:19:14Z</time>
      </trkpt>
      <trkpt lat="45.28164" lon="6.45669">
        <ele>1990.6</ele>
        <time>2013-08-29T11:19:23Z</time>
      </trkpt>
      <trkpt lat="45.28166" lon="6.45671">
        <ele>1990.6</ele>
        <time>2013-08-29T11:19:32Z</time>
      </trkpt>
      <trkpt lat="45.28167" lon="6.45673">
        <ele>1991</ele>
        <time>2013-08-29T11:19:33Z</time>
      </trkpt>
      <trkpt lat="45.28168" lon="6.45675">
        <ele>1991</ele>
        <time>2013-08-29T11:19:34Z</time>
      </trkpt>
      <trkpt lat="45.28168" lon="6.45678">
        <ele>1989.1</ele>
        <time>2013-08-29T11:19:36Z</time>
      </trkpt>
      <trkpt lat="45.28172" lon="6.45683">
        <ele>1987.2</ele>
        <time>2013-08-29T11:19:57Z</time>
      </trkpt>
      <trkpt lat="45.28172" lon="6.45684">
        <ele>1991.5</ele>
        <time>2013-08-29T11:19:58Z</time>
      </trkpt>
      <trkpt lat="45.28174" lon="6.45684">
        <ele>1991</ele>
        <time>2013-08-29T11:20:11Z</time>
      </trkpt>
      <trkpt lat="45.28178" lon="6.45685">
        <ele>1990.6</ele>
        <time>2013-08-29T11:20:26Z</time>
      </trkpt>
      <trkpt lat="45.28178" lon="6.45702">
        <ele>1988.6</ele>
        <time>2013-08-29T11:20:30Z</time>
      </trkpt>
      <trkpt lat="45.28179" lon="6.45705">
        <ele>1988.6</ele>
        <time>2013-08-29T11:20:31Z</time>
      </trkpt>
      <trkpt lat="45.2818" lon="6.45707">
        <ele>1987.2</ele>
        <time>2013-08-29T11:20:32Z</time>
      </trkpt>
      <trkpt lat="45.28181" lon="6.45709">
        <ele>1987.2</ele>
        <time>2013-08-29T11:20:33Z</time>
      </trkpt>
      <trkpt lat="45.28181" lon="6.45709">
        <ele>1986.2</ele>
        <time>2013-08-29T11:20:38Z</time>
      </trkpt>
      <trkpt lat="45.28179" lon="6.45707">
        <ele>1986.2</ele>
        <time>2013-08-29T11:20:40Z</time>
      </trkpt>
      <trkpt lat="45.28178" lon="6.45706">
        <ele>1986.2</ele>
        <time>2013-08-29T11:20:41Z</time>
      </trkpt>
      <trkpt lat="45.28176" lon="6.45706">
        <ele>1985.7</ele>
        <time>2013-08-29T11:20:42Z</time>
      </trkpt>
      <trkpt lat="45.28174" lon="6.45705">
        <ele>1985.7</ele>
        <time>2013-08-29T11:20:44Z</time>
      </trkpt>
      <trkpt lat="45.28173" lon="6.45702">
        <ele>1985.3</ele>
        <time>2013-08-29T11:20:58Z</time>
      </trkpt>
      <trkpt lat="45.28172" lon="6.45702">
        <ele>1984.8</ele>
        <time>2013-08-29T11:21:00Z</time>
      </trkpt>
      <trkpt lat="45.2817" lon="6.45701">
        <ele>1984.8</ele>
        <time>2013-08-29T11:21:01Z</time>
      </trkpt>
      <trkpt lat="45.28169" lon="6.457">
        <ele>1984.8</ele>
        <time>2013-08-29T11:21:02Z</time>
      </trkpt>
      <trkpt lat="45.28166" lon="6.45699">
        <ele>1984.3</ele>
        <time>2013-08-29T11:21:03Z</time>
      </trkpt>
      <trkpt lat="45.28164" lon="6.45698">
        <ele>1983.3</ele>
        <time>2013-08-29T11:21:04Z</time>
      </trkpt>
      <trkpt lat="45.28162" lon="6.45699">
        <ele>1982.9</ele>
        <time>2013-08-29T11:21:05Z</time>
      </trkpt>
      <trkpt lat="45.2816" lon="6.45699">
        <ele>1982.9</ele>
        <time>2013-08-29T11:21:06Z</time>
      </trkpt>
      <trkpt lat="45.28156" lon="6.45701">
        <ele>1981.4</ele>
        <time>2013-08-29T11:21:09Z</time>
      </trkpt>
      <trkpt lat="45.28155" lon="6.45704">
        <ele>1980</ele>
        <time>2013-08-29T11:21:12Z</time>
      </trkpt>
      <trkpt lat="45.28168" lon="6.45727">
        <ele>1976.6</ele>
        <time>2013-08-29T11:21:20Z</time>
      </trkpt>
      <trkpt lat="45.2817" lon="6.45752">
        <ele>1973.7</ele>
        <time>2013-08-29T11:21:24Z</time>
      </trkpt>
      <trkpt lat="45.28172" lon="6.45765">
        <ele>1971.8</ele>
        <time>2013-08-29T11:21:26Z</time>
      </trkpt>
      <trkpt lat="45.28172" lon="6.45781">
        <ele>1969.4</ele>
        <time>2013-08-29T11:21:30Z</time>
      </trkpt>
      <trkpt lat="45.2817" lon="6.4578">
        <ele>1969.4</ele>
        <time>2013-08-29T11:21:39Z</time>
      </trkpt>
      <trkpt lat="45.28158" lon="6.45762">
        <ele>1966</ele>
        <time>2013-08-29T11:21:45Z</time>
      </trkpt>
      <trkpt lat="45.28145" lon="6.45744">
        <ele>1963.6</ele>
        <time>2013-08-29T11:21:53Z</time>
      </trkpt>
      <trkpt lat="45.28128" lon="6.45743">
        <ele>1961.2</ele>
        <time>2013-08-29T11:21:58Z</time>
      </trkpt>
      <trkpt lat="45.28125" lon="6.45739">
        <ele>1959.3</ele>
        <time>2013-08-29T11:22:00Z</time>
      </trkpt>
      <trkpt lat="45.28124" lon="6.45727">
        <ele>1958.3</ele>
        <time>2013-08-29T11:22:04Z</time>
      </trkpt>
      <trkpt lat="45.28122" lon="6.45724">
        <ele>1957.4</ele>
        <time>2013-08-29T11:22:15Z</time>
      </trkpt>
      <trkpt lat="45.28123" lon="6.45734">
        <ele>1956.4</ele>
        <time>2013-08-29T11:22:20Z</time>
      </trkpt>
      <trkpt lat="45.28118" lon="6.45751">
        <ele>1954</ele>
        <time>2013-08-29T11:22:25Z</time>
      </trkpt>
      <trkpt lat="45.28114" lon="6.45764">
        <ele>1952.6</ele>
        <time>2013-08-29T11:22:28Z</time>
      </trkpt>
      <trkpt lat="45.28113" lon="6.4577">
        <ele>1953.5</ele>
        <time>2013-08-29T11:22:30Z</time>
      </trkpt>
      <trkpt lat="45.28109" lon="6.45776">
        <ele>1952.6</ele>
        <time>2013-08-29T11:22:32Z</time>
      </trkpt>
      <trkpt lat="45.28109" lon="6.45781">
        <ele>1951.1</ele>
        <time>2013-08-29T11:22:33Z</time>
      </trkpt>
      <trkpt lat="45.28109" lon="6.4579">
        <ele>1949.2</ele>
        <time>2013-08-29T11:22:36Z</time>
      </trkpt>
      <trkpt lat="45.2811" lon="6.45793">
        <ele>1948.7</ele>
        <time>2013-08-29T11:22:37Z</time>
      </trkpt>
      <trkpt lat="45.28108" lon="6.45796">
        <ele>1948.3</ele>
        <time>2013-08-29T11:22:38Z</time>
      </trkpt>
      <trkpt lat="45.28107" lon="6.458">
        <ele>1947.3</ele>
        <time>2013-08-29T11:22:39Z</time>
      </trkpt>
      <trkpt lat="45.28105" lon="6.45803">
        <ele>1946.8</ele>
        <time>2013-08-29T11:22:40Z</time>
      </trkpt>
      <trkpt lat="45.28102" lon="6.45813">
        <ele>1943.4</ele>
        <time>2013-08-29T11:22:43Z</time>
      </trkpt>
      <trkpt lat="45.28102" lon="6.45817">
        <ele>1942.5</ele>
        <time>2013-08-29T11:22:55Z</time>
      </trkpt>
      <trkpt lat="45.28098" lon="6.45817">
        <ele>1942</ele>
        <time>2013-08-29T11:22:58Z</time>
      </trkpt>
      <trkpt lat="45.28087" lon="6.45814">
        <ele>1938.6</ele>
        <time>2013-08-29T11:23:09Z</time>
      </trkpt>
      <trkpt lat="45.28078" lon="6.45815">
        <ele>1936.2</ele>
        <time>2013-08-29T11:23:12Z</time>
      </trkpt>
      <trkpt lat="45.28075" lon="6.45816">
        <ele>1934.8</ele>
        <time>2013-08-29T11:23:13Z</time>
      </trkpt>
      <trkpt lat="45.2807" lon="6.45818">
        <ele>1931.9</ele>
        <time>2013-08-29T11:23:17Z</time>
      </trkpt>
      <trkpt lat="45.28068" lon="6.45819">
        <ele>1931.9</ele>
        <time>2013-08-29T11:23:25Z</time>
      </trkpt>
      <trkpt lat="45.28066" lon="6.45821">
        <ele>1931.4</ele>
        <time>2013-08-29T11:23:26Z</time>
      </trkpt>
      <trkpt lat="45.28062" lon="6.45826">
        <ele>1929</ele>
        <time>2013-08-29T11:23:28Z</time>
      </trkpt>
      <trkpt lat="45.28047" lon="6.45836">
        <ele>1925.7</ele>
        <time>2013-08-29T11:23:34Z</time>
      </trkpt>
      <trkpt lat="45.28039" lon="6.45848">
        <ele>1923.7</ele>
        <time>2013-08-29T11:23:38Z</time>
      </trkpt>
      <trkpt lat="45.28036" lon="6.45851">
        <ele>1922.8</ele>
        <time>2013-08-29T11:23:39Z</time>
      </trkpt>
      <trkpt lat="45.28035" lon="6.45856">
        <ele>1921.3</ele>
        <time>2013-08-29T11:23:40Z</time>
      </trkpt>
      <trkpt lat="45.28035" lon="6.45859">
        <ele>1921.8</ele>
        <time>2013-08-29T11:23:47Z</time>
      </trkpt>
      <trkpt lat="45.28032" lon="6.4586">
        <ele>1921.3</ele>
        <time>2013-08-29T11:24:09Z</time>
      </trkpt>
      <trkpt lat="45.28032" lon="6.45861">
        <ele>1920.9</ele>
        <time>2013-08-29T11:24:13Z</time>
      </trkpt>
      <trkpt lat="45.28031" lon="6.45868">
        <ele>1919.9</ele>
        <time>2013-08-29T11:24:17Z</time>
      </trkpt>
      <trkpt lat="45.2803" lon="6.4587">
        <ele>1920.4</ele>
        <time>2013-08-29T11:24:18Z</time>
      </trkpt>
      <trkpt lat="45.28027" lon="6.4587">
        <ele>1919.4</ele>
        <time>2013-08-29T11:24:20Z</time>
      </trkpt>
      <trkpt lat="45.28015" lon="6.45862">
        <ele>1915.6</ele>
        <time>2013-08-29T11:24:25Z</time>
      </trkpt>
      <trkpt lat="45.28014" lon="6.45861">
        <ele>1915.6</ele>
        <time>2013-08-29T11:24:26Z</time>
      </trkpt>
      <trkpt lat="45.28005" lon="6.45852">
        <ele>1911.7</ele>
        <time>2013-08-29T11:24:30Z</time>
      </trkpt>
      <trkpt lat="45.27999" lon="6.45848">
        <ele>1909.8</ele>
        <time>2013-08-29T11:24:32Z</time>
      </trkpt>
      <trkpt lat="45.27998" lon="6.45845">
        <ele>1909.3</ele>
        <time>2013-08-29T11:24:33Z</time>
      </trkpt>
      <trkpt lat="45.27998" lon="6.45842">
        <ele>1909.3</ele>
        <time>2013-08-29T11:24:34Z</time>
      </trkpt>
      <trkpt lat="45.27999" lon="6.45841">
        <ele>1907.9</ele>
        <time>2013-08-29T11:24:47Z</time>
      </trkpt>
      <trkpt lat="45.27998" lon="6.45839">
        <ele>1907.4</ele>
        <time>2013-08-29T11:24:50Z</time>
      </trkpt>
      <trkpt lat="45.27997" lon="6.45839">
        <ele>1907.4</ele>
        <time>2013-08-29T11:24:51Z</time>
      </trkpt>
      <trkpt lat="45.27983" lon="6.45843">
        <ele>1903.6</ele>
        <time>2013-08-29T11:25:01Z</time>
      </trkpt>
      <trkpt lat="45.27979" lon="6.45843">
        <ele>1903.6</ele>
        <time>2013-08-29T11:25:02Z</time>
      </trkpt>
      <trkpt lat="45.27968" lon="6.45836">
        <ele>1900.7</ele>
        <time>2013-08-29T11:25:06Z</time>
      </trkpt>
      <trkpt lat="45.27967" lon="6.45831">
        <ele>1898.3</ele>
        <time>2013-08-29T11:25:16Z</time>
      </trkpt>
      <trkpt lat="45.27967" lon="6.45826">
        <ele>1896.3</ele>
        <time>2013-08-29T11:25:30Z</time>
      </trkpt>
      <trkpt lat="45.2797" lon="6.45821">
        <ele>1895.4</ele>
        <time>2013-08-29T11:25:37Z</time>
      </trkpt>
      <trkpt lat="45.27969" lon="6.4582">
        <ele>1894.9</ele>
        <time>2013-08-29T11:25:38Z</time>
      </trkpt>
      <trkpt lat="45.27963" lon="6.4582">
        <ele>1892.5</ele>
        <time>2013-08-29T11:25:48Z</time>
      </trkpt>
      <trkpt lat="45.27961" lon="6.45819">
        <ele>1892</ele>
        <time>2013-08-29T11:26:01Z</time>
      </trkpt>
      <trkpt lat="45.27964" lon="6.45814">
        <ele>1892</ele>
        <time>2013-08-29T11:26:32Z</time>
      </trkpt>
      <trkpt lat="45.27965" lon="6.45809">
        <ele>1891.5</ele>
        <time>2013-08-29T11:26:37Z</time>
      </trkpt>
      <trkpt lat="45.27974" lon="6.45802">
        <ele>1889.6</ele>
        <time>2013-08-29T11:26:46Z</time>
      </trkpt>
      <trkpt lat="45.27969" lon="6.45805">
        <ele>1888.7</ele>
        <time>2013-08-29T11:26:51Z</time>
      </trkpt>
      <trkpt lat="45.27958" lon="6.45813">
        <ele>1886.2</ele>
        <time>2013-08-29T11:27:06Z</time>
      </trkpt>
      <trkpt lat="45.27951" lon="6.45818">
        <ele>1885.3</ele>
        <time>2013-08-29T11:27:19Z</time>
      </trkpt>
      <trkpt lat="45.27935" lon="6.4583">
        <ele>1882.9</ele>
        <time>2013-08-29T11:27:25Z</time>
      </trkpt>
      <trkpt lat="45.27921" lon="6.45835">
        <ele>1880</ele>
        <time>2013-08-29T11:27:29Z</time>
      </trkpt>
      <trkpt lat="45.27916" lon="6.45834">
        <ele>1879</ele>
        <time>2013-08-29T11:27:30Z</time>
      </trkpt>
      <trkpt lat="45.27901" lon="6.45833">
        <ele>1876.2</ele>
        <time>2013-08-29T11:27:35Z</time>
      </trkpt>
      <trkpt lat="45.27896" lon="6.45835">
        <ele>1875.2</ele>
        <time>2013-08-29T11:27:37Z</time>
      </trkpt>
      <trkpt lat="45.27894" lon="6.45835">
        <ele>1875.2</ele>
        <time>2013-08-29T11:27:38Z</time>
      </trkpt>
      <trkpt lat="45.27892" lon="6.45833">
        <ele>1873.8</ele>
        <time>2013-08-29T11:27:39Z</time>
      </trkpt>
      <trkpt lat="45.27889" lon="6.4583">
        <ele>1873.8</ele>
        <time>2013-08-29T11:27:46Z</time>
      </trkpt>
      <trkpt lat="45.2789" lon="6.45829">
        <ele>1872.8</ele>
        <time>2013-08-29T11:27:58Z</time>
      </trkpt>
      <trkpt lat="45.2789" lon="6.45831">
        <ele>1872.3</ele>
        <time>2013-08-29T11:28:20Z</time>
      </trkpt>
      <trkpt lat="45.27895" lon="6.45829">
        <ele>1869.4</ele>
        <time>2013-08-29T11:28:41Z</time>
      </trkpt>
      <trkpt lat="45.2789" lon="6.45825">
        <ele>1867.5</ele>
        <time>2013-08-29T11:28:51Z</time>
      </trkpt>
      <trkpt lat="45.27891" lon="6.45819">
        <ele>1866.1</ele>
        <time>2013-08-29T11:28:58Z</time>
      </trkpt>
      <trkpt lat="45.27888" lon="6.45817">
        <ele>1866.5</ele>
        <time>2013-08-29T11:29:09Z</time>
      </trkpt>
      <trkpt lat="45.27885" lon="6.45813">
        <ele>1867</ele>
        <time>2013-08-29T11:29:19Z</time>
      </trkpt>
      <trkpt lat="45.27883" lon="6.45813">
        <ele>1868</ele>
        <time>2013-08-29T11:29:22Z</time>
      </trkpt>
      <trkpt lat="45.27881" lon="6.45814">
        <ele>1867.5</ele>
        <time>2013-08-29T11:29:24Z</time>
      </trkpt>
      <trkpt lat="45.27874" lon="6.45813">
        <ele>1866.1</ele>
        <time>2013-08-29T11:29:33Z</time>
      </trkpt>
      <trkpt lat="45.27862" lon="6.45809">
        <ele>1864.1</ele>
        <time>2013-08-29T11:29:45Z</time>
      </trkpt>
      <trkpt lat="45.27861" lon="6.45814">
        <ele>1864.6</ele>
        <time>2013-08-29T11:30:01Z</time>
      </trkpt>
      <trkpt lat="45.27851" lon="6.45815">
        <ele>1863.2</ele>
        <time>2013-08-29T11:30:20Z</time>
      </trkpt>
      <trkpt lat="45.27839" lon="6.45814">
        <ele>1859.8</ele>
        <time>2013-08-29T11:30:24Z</time>
      </trkpt>
      <trkpt lat="45.27829" lon="6.45814">
        <ele>1858.4</ele>
        <time>2013-08-29T11:30:34Z</time>
      </trkpt>
      <trkpt lat="45.27822" lon="6.45814">
        <ele>1856.4</ele>
        <time>2013-08-29T11:30:49Z</time>
      </trkpt>
      <trkpt lat="45.27819" lon="6.45809">
        <ele>1855.5</ele>
        <time>2013-08-29T11:30:58Z</time>
      </trkpt>
      <trkpt lat="45.27819" lon="6.45809">
        <ele>1855.5</ele>
        <time>2013-08-29T11:30:59Z</time>
      </trkpt>
      <trkpt lat="45.27799" lon="6.45803">
        <ele>1852.6</ele>
        <time>2013-08-29T11:31:07Z</time>
      </trkpt>
      <trkpt lat="45.27786" lon="6.45796">
        <ele>1851.2</ele>
        <time>2013-08-29T11:31:11Z</time>
      </trkpt>
      <trkpt lat="45.2777" lon="6.45787">
        <ele>1849.2</ele>
        <time>2013-08-29T11:31:20Z</time>
      </trkpt>
      <trkpt lat="45.27761" lon="6.45777">
        <ele>1848.3</ele>
        <time>2013-08-29T11:31:35Z</time>
      </trkpt>
      <trkpt lat="45.27748" lon="6.45763">
        <ele>1846.8</ele>
        <time>2013-08-29T11:31:42Z</time>
      </trkpt>
      <trkpt lat="45.27735" lon="6.45765">
        <ele>1846.4</ele>
        <time>2013-08-29T11:31:52Z</time>
      </trkpt>
      <trkpt lat="45.27726" lon="6.45765">
        <ele>1844.4</ele>
        <time>2013-08-29T11:31:56Z</time>
      </trkpt>
      <trkpt lat="45.27716" lon="6.45762">
        <ele>1844.4</ele>
        <time>2013-08-29T11:32:00Z</time>
      </trkpt>
      <trkpt lat="45.27714" lon="6.45763">
        <ele>1844.9</ele>
        <time>2013-08-29T11:32:01Z</time>
      </trkpt>
      <trkpt lat="45.27702" lon="6.45767">
        <ele>1844</ele>
        <time>2013-08-29T11:32:08Z</time>
      </trkpt>
      <trkpt lat="45.27685" lon="6.45769">
        <ele>1842</ele>
        <time>2013-08-29T11:32:15Z</time>
      </trkpt>
      <trkpt lat="45.27682" lon="6.45765">
        <ele>1842</ele>
        <time>2013-08-29T11:32:17Z</time>
      </trkpt>
      <trkpt lat="45.2768" lon="6.45765">
        <ele>1842</ele>
        <time>2013-08-29T11:32:18Z</time>
      </trkpt>
      <trkpt lat="45.27675" lon="6.45768">
        <ele>1840.6</ele>
        <time>2013-08-29T11:32:20Z</time>
      </trkpt>
      <trkpt lat="45.27664" lon="6.45766">
        <ele>1840.1</ele>
        <time>2013-08-29T11:32:24Z</time>
      </trkpt>
      <trkpt lat="45.27662" lon="6.45764">
        <ele>1840.1</ele>
        <time>2013-08-29T11:32:25Z</time>
      </trkpt>
      <trkpt lat="45.27661" lon="6.45761">
        <ele>1840.6</ele>
        <time>2013-08-29T11:32:26Z</time>
      </trkpt>
      <trkpt lat="45.27658" lon="6.4576">
        <ele>1839.1</ele>
        <time>2013-08-29T11:32:27Z</time>
      </trkpt>
      <trkpt lat="45.27629" lon="6.45753">
        <ele>1837.2</ele>
        <time>2013-08-29T11:32:36Z</time>
      </trkpt>
      <trkpt lat="45.27627" lon="6.45753">
        <ele>1836.3</ele>
        <time>2013-08-29T11:32:45Z</time>
      </trkpt>
      <trkpt lat="45.27627" lon="6.45755">
        <ele>1836.7</ele>
        <time>2013-08-29T11:33:11Z</time>
      </trkpt>
      <trkpt lat="45.27608" lon="6.45744">
        <ele>1834.8</ele>
        <time>2013-08-29T11:33:25Z</time>
      </trkpt>
      <trkpt lat="45.27603" lon="6.4574">
        <ele>1833.9</ele>
        <time>2013-08-29T11:33:27Z</time>
      </trkpt>
      <trkpt lat="45.27598" lon="6.45737">
        <ele>1833.9</ele>
        <time>2013-08-29T11:33:29Z</time>
      </trkpt>
      <trkpt lat="45.27588" lon="6.45723">
        <ele>1833.4</ele>
        <time>2013-08-29T11:33:35Z</time>
      </trkpt>
      <trkpt lat="45.27584" lon="6.45722">
        <ele>1832.9</ele>
        <time>2013-08-29T11:33:37Z</time>
      </trkpt>
      <trkpt lat="45.27581" lon="6.45719">
        <ele>1833.4</ele>
        <time>2013-08-29T11:33:39Z</time>
      </trkpt>
      <trkpt lat="45.27575" lon="6.45717">
        <ele>1833.4</ele>
        <time>2013-08-29T11:33:48Z</time>
      </trkpt>
      <trkpt lat="45.27574" lon="6.45715">
        <ele>1833.4</ele>
        <time>2013-08-29T11:33:50Z</time>
      </trkpt>
      <trkpt lat="45.27562" lon="6.45709">
        <ele>1832.9</ele>
        <time>2013-08-29T11:34:03Z</time>
      </trkpt>
      <trkpt lat="45.27555" lon="6.45706">
        <ele>1831.5</ele>
        <time>2013-08-29T11:34:06Z</time>
      </trkpt>
      <trkpt lat="45.27553" lon="6.45706">
        <ele>1831</ele>
        <time>2013-08-29T11:34:07Z</time>
      </trkpt>
      <trkpt lat="45.27551" lon="6.45707">
        <ele>1830.5</ele>
        <time>2013-08-29T11:34:18Z</time>
      </trkpt>
      <trkpt lat="45.2755" lon="6.45703">
        <ele>1830</ele>
        <time>2013-08-29T11:34:23Z</time>
      </trkpt>
      <trkpt lat="45.27545" lon="6.45694">
        <ele>1828.6</ele>
        <time>2013-08-29T11:34:33Z</time>
      </trkpt>
      <trkpt lat="45.27531" lon="6.45702">
        <ele>1825.7</ele>
        <time>2013-08-29T11:34:40Z</time>
      </trkpt>
      <trkpt lat="45.27525" lon="6.45704">
        <ele>1823.8</ele>
        <time>2013-08-29T11:34:44Z</time>
      </trkpt>
      <trkpt lat="45.27513" lon="6.45709">
        <ele>1822.3</ele>
        <time>2013-08-29T11:34:51Z</time>
      </trkpt>
      <trkpt lat="45.27505" lon="6.45715">
        <ele>1819.4</ele>
        <time>2013-08-29T11:34:54Z</time>
      </trkpt>
      <trkpt lat="45.27495" lon="6.45719">
        <ele>1817.5</ele>
        <time>2013-08-29T11:34:58Z</time>
      </trkpt>
      <trkpt lat="45.27484" lon="6.45733">
        <ele>1813.7</ele>
        <time>2013-08-29T11:35:04Z</time>
      </trkpt>
      <trkpt lat="45.27474" lon="6.45744">
        <ele>1810.3</ele>
        <time>2013-08-29T11:35:11Z</time>
      </trkpt>
      <trkpt lat="45.27464" lon="6.45755">
        <ele>1806.9</ele>
        <time>2013-08-29T11:35:17Z</time>
      </trkpt>
      <trkpt lat="45.27462" lon="6.45757">
        <ele>1806</ele>
        <time>2013-08-29T11:35:39Z</time>
      </trkpt>
      <trkpt lat="45.27456" lon="6.45767">
        <ele>1803.1</ele>
        <time>2013-08-29T11:35:49Z</time>
      </trkpt>
      <trkpt lat="45.27446" lon="6.45775">
        <ele>1801.2</ele>
        <time>2013-08-29T11:35:58Z</time>
      </trkpt>
      <trkpt lat="45.27436" lon="6.45782">
        <ele>1797.3</ele>
        <time>2013-08-29T11:36:02Z</time>
      </trkpt>
      <trkpt lat="45.27425" lon="6.45788">
        <ele>1795.4</ele>
        <time>2013-08-29T11:36:05Z</time>
      </trkpt>
      <trkpt lat="45.27419" lon="6.45791">
        <ele>1794</ele>
        <time>2013-08-29T11:36:07Z</time>
      </trkpt>
      <trkpt lat="45.27415" lon="6.45796">
        <ele>1793</ele>
        <time>2013-08-29T11:36:09Z</time>
      </trkpt>
      <trkpt lat="45.27406" lon="6.45807">
        <ele>1790.1</ele>
        <time>2013-08-29T11:36:12Z</time>
      </trkpt>
      <trkpt lat="45.27403" lon="6.45811">
        <ele>1788.7</ele>
        <time>2013-08-29T11:36:13Z</time>
      </trkpt>
      <trkpt lat="45.27397" lon="6.45816">
        <ele>1787.2</ele>
        <time>2013-08-29T11:36:15Z</time>
      </trkpt>
      <trkpt lat="45.2739" lon="6.45819">
        <ele>1785.8</ele>
        <time>2013-08-29T11:36:18Z</time>
      </trkpt>
      <trkpt lat="45.27388" lon="6.45818">
        <ele>1784.8</ele>
        <time>2013-08-29T11:36:19Z</time>
      </trkpt>
      <trkpt lat="45.27384" lon="6.45814">
        <ele>1784.8</ele>
        <time>2013-08-29T11:36:27Z</time>
      </trkpt>
      <trkpt lat="45.27375" lon="6.45809">
        <ele>1783.9</ele>
        <time>2013-08-29T11:36:40Z</time>
      </trkpt>
      <trkpt lat="45.27364" lon="6.45806">
        <ele>1781.5</ele>
        <time>2013-08-29T11:36:53Z</time>
      </trkpt>
      <trkpt lat="45.27358" lon="6.45804">
        <ele>1780</ele>
        <time>2013-08-29T11:37:00Z</time>
      </trkpt>
      <trkpt lat="45.27353" lon="6.45799">
        <ele>1779.1</ele>
        <time>2013-08-29T11:37:07Z</time>
      </trkpt>
      <trkpt lat="45.27343" lon="6.45798">
        <ele>1776.7</ele>
        <time>2013-08-29T11:37:19Z</time>
      </trkpt>
      <trkpt lat="45.27338" lon="6.45797">
        <ele>1775.7</ele>
        <time>2013-08-29T11:37:24Z</time>
      </trkpt>
      <trkpt lat="45.27333" lon="6.45795">
        <ele>1775.7</ele>
        <time>2013-08-29T11:37:30Z</time>
      </trkpt>
      <trkpt lat="45.27326" lon="6.45799">
        <ele>1773.3</ele>
        <time>2013-08-29T11:37:39Z</time>
      </trkpt>
      <trkpt lat="45.27324" lon="6.45799">
        <ele>1772.3</ele>
        <time>2013-08-29T11:37:40Z</time>
      </trkpt>
      <trkpt lat="45.27311" lon="6.45797">
        <ele>1769</ele>
        <time>2013-08-29T11:37:46Z</time>
      </trkpt>
      <trkpt lat="45.27307" lon="6.458">
        <ele>1768.5</ele>
        <time>2013-08-29T11:37:55Z</time>
      </trkpt>
      <trkpt lat="45.27304" lon="6.45804">
        <ele>1767</ele>
        <time>2013-08-29T11:38:00Z</time>
      </trkpt>
      <trkpt lat="45.27304" lon="6.45804">
        <ele>1767.5</ele>
        <time>2013-08-29T11:38:01Z</time>
      </trkpt>
      <trkpt lat="45.27301" lon="6.45812">
        <ele>1765.1</ele>
        <time>2013-08-29T11:38:09Z</time>
      </trkpt>
      <trkpt lat="45.27299" lon="6.45813">
        <ele>1764.2</ele>
        <time>2013-08-29T11:38:14Z</time>
      </trkpt>
      <trkpt lat="45.27294" lon="6.45815">
        <ele>1762.7</ele>
        <time>2013-08-29T11:38:19Z</time>
      </trkpt>
      <trkpt lat="45.27288" lon="6.45812">
        <ele>1759.4</ele>
        <time>2013-08-29T11:38:27Z</time>
      </trkpt>
      <trkpt lat="45.27285" lon="6.45804">
        <ele>1758.4</ele>
        <time>2013-08-29T11:38:40Z</time>
      </trkpt>
      <trkpt lat="45.27282" lon="6.45794">
        <ele>1755</ele>
        <time>2013-08-29T11:38:46Z</time>
      </trkpt>
      <trkpt lat="45.27277" lon="6.45782">
        <ele>1753.1</ele>
        <time>2013-08-29T11:38:57Z</time>
      </trkpt>
      <trkpt lat="45.27273" lon="6.45781">
        <ele>1752.6</ele>
        <time>2013-08-29T11:39:02Z</time>
      </trkpt>
      <trkpt lat="45.27267" lon="6.45778">
        <ele>1752.1</ele>
        <time>2013-08-29T11:39:14Z</time>
      </trkpt>
      <trkpt lat="45.27251" lon="6.45779">
        <ele>1748.3</ele>
        <time>2013-08-29T11:39:22Z</time>
      </trkpt>
      <trkpt lat="45.27249" lon="6.4578">
        <ele>1748.3</ele>
        <time>2013-08-29T11:39:23Z</time>
      </trkpt>
      <trkpt lat="45.27248" lon="6.45781">
        <ele>1748.3</ele>
        <time>2013-08-29T11:39:24Z</time>
      </trkpt>
      <trkpt lat="45.27242" lon="6.4579">
        <ele>1744.5</ele>
        <time>2013-08-29T11:39:28Z</time>
      </trkpt>
      <trkpt lat="45.27241" lon="6.4579">
        <ele>1744</ele>
        <time>2013-08-29T11:39:29Z</time>
      </trkpt>
      <trkpt lat="45.27238" lon="6.45791">
        <ele>1742.5</ele>
        <time>2013-08-29T11:39:31Z</time>
      </trkpt>
      <trkpt lat="45.27231" lon="6.45796">
        <ele>1740.1</ele>
        <time>2013-08-29T11:39:38Z</time>
      </trkpt>
      <trkpt lat="45.27225" lon="6.45795">
        <ele>1737.7</ele>
        <time>2013-08-29T11:39:49Z</time>
      </trkpt>
      <trkpt lat="45.27225" lon="6.45799">
        <ele>1737.7</ele>
        <time>2013-08-29T11:39:56Z</time>
      </trkpt>
      <trkpt lat="45.27225" lon="6.45801">
        <ele>1737.2</ele>
        <time>2013-08-29T11:39:57Z</time>
      </trkpt>
      <trkpt lat="45.27221" lon="6.45815">
        <ele>1733.9</ele>
        <time>2013-08-29T11:40:05Z</time>
      </trkpt>
      <trkpt lat="45.2722" lon="6.45815">
        <ele>1733.4</ele>
        <time>2013-08-29T11:40:07Z</time>
      </trkpt>
      <trkpt lat="45.27208" lon="6.45814">
        <ele>1730</ele>
        <time>2013-08-29T11:40:13Z</time>
      </trkpt>
      <trkpt lat="45.27199" lon="6.45821">
        <ele>1727.2</ele>
        <time>2013-08-29T11:40:17Z</time>
      </trkpt>
      <trkpt lat="45.2719" lon="6.45833">
        <ele>1724.7</ele>
        <time>2013-08-29T11:40:22Z</time>
      </trkpt>
      <trkpt lat="45.27188" lon="6.45829">
        <ele>1722.8</ele>
        <time>2013-08-29T11:40:34Z</time>
      </trkpt>
      <trkpt lat="45.27188" lon="6.45824">
        <ele>1721.9</ele>
        <time>2013-08-29T11:40:40Z</time>
      </trkpt>
      <trkpt lat="45.27185" lon="6.45817">
        <ele>1719.9</ele>
        <time>2013-08-29T11:40:47Z</time>
      </trkpt>
      <trkpt lat="45.27178" lon="6.45805">
        <ele>1717.1</ele>
        <time>2013-08-29T11:40:59Z</time>
      </trkpt>
      <trkpt lat="45.27169" lon="6.45804">
        <ele>1714.2</ele>
        <time>2013-08-29T11:41:11Z</time>
      </trkpt>
      <trkpt lat="45.27161" lon="6.45802">
        <ele>1712.3</ele>
        <time>2013-08-29T11:41:26Z</time>
      </trkpt>
      <trkpt lat="45.27155" lon="6.45796">
        <ele>1711.8</ele>
        <time>2013-08-29T11:41:41Z</time>
      </trkpt>
      <trkpt lat="45.27138" lon="6.4579">
        <ele>1708.4</ele>
        <time>2013-08-29T11:41:47Z</time>
      </trkpt>
      <trkpt lat="45.27123" lon="6.45787">
        <ele>1705</ele>
        <time>2013-08-29T11:41:54Z</time>
      </trkpt>
      <trkpt lat="45.27122" lon="6.45787">
        <ele>1705</ele>
        <time>2013-08-29T11:41:55Z</time>
      </trkpt>
      <trkpt lat="45.27109" lon="6.4579">
        <ele>1701.7</ele>
        <time>2013-08-29T11:42:01Z</time>
      </trkpt>
      <trkpt lat="45.27101" lon="6.45791">
        <ele>1698.3</ele>
        <time>2013-08-29T11:42:05Z</time>
      </trkpt>
      <trkpt lat="45.27091" lon="6.45793">
        <ele>1694.9</ele>
        <time>2013-08-29T11:42:10Z</time>
      </trkpt>
      <trkpt lat="45.27088" lon="6.45794">
        <ele>1694</ele>
        <time>2013-08-29T11:42:20Z</time>
      </trkpt>
      <trkpt lat="45.27079" lon="6.45796">
        <ele>1692.1</ele>
        <time>2013-08-29T11:42:32Z</time>
      </trkpt>
      <trkpt lat="45.27071" lon="6.45797">
        <ele>1689.2</ele>
        <time>2013-08-29T11:42:41Z</time>
      </trkpt>
      <trkpt lat="45.27056" lon="6.45797">
        <ele>1685.8</ele>
        <time>2013-08-29T11:42:57Z</time>
      </trkpt>
      <trkpt lat="45.27045" lon="6.45803">
        <ele>1682.9</ele>
        <time>2013-08-29T11:43:01Z</time>
      </trkpt>
      <trkpt lat="45.27032" lon="6.45812">
        <ele>1679.6</ele>
        <time>2013-08-29T11:43:06Z</time>
      </trkpt>
      <trkpt lat="45.27023" lon="6.45825">
        <ele>1676.7</ele>
        <time>2013-08-29T11:43:10Z</time>
      </trkpt>
      <trkpt lat="45.27016" lon="6.45838">
        <ele>1675.2</ele>
        <time>2013-08-29T11:43:19Z</time>
      </trkpt>
      <trkpt lat="45.27009" lon="6.45845">
        <ele>1673.8</ele>
        <time>2013-08-29T11:43:34Z</time>
      </trkpt>
      <trkpt lat="45.27004" lon="6.45849">
        <ele>1672.8</ele>
        <time>2013-08-29T11:43:46Z</time>
      </trkpt>
      <trkpt lat="45.27001" lon="6.45852">
        <ele>1671.4</ele>
        <time>2013-08-29T11:43:59Z</time>
      </trkpt>
      <trkpt lat="45.26998" lon="6.45854">
        <ele>1670</ele>
        <time>2013-08-29T11:44:06Z</time>
      </trkpt>
      <trkpt lat="45.26988" lon="6.45863">
        <ele>1666.6</ele>
        <time>2013-08-29T11:44:14Z</time>
      </trkpt>
      <trkpt lat="45.26983" lon="6.45865">
        <ele>1663.7</ele>
        <time>2013-08-29T11:44:29Z</time>
      </trkpt>
      <trkpt lat="45.26979" lon="6.45862">
        <ele>1661.3</ele>
        <time>2013-08-29T11:44:40Z</time>
      </trkpt>
      <trkpt lat="45.26974" lon="6.45868">
        <ele>1659.4</ele>
        <time>2013-08-29T11:44:48Z</time>
      </trkpt>
      <trkpt lat="45.26956" lon="6.45881">
        <ele>1656</ele>
        <time>2013-08-29T11:44:55Z</time>
      </trkpt>
      <trkpt lat="45.26954" lon="6.45883">
        <ele>1656</ele>
        <time>2013-08-29T11:44:56Z</time>
      </trkpt>
      <trkpt lat="45.26952" lon="6.45882">
        <ele>1655.5</ele>
        <time>2013-08-29T11:44:57Z</time>
      </trkpt>
      <trkpt lat="45.2695" lon="6.45882">
        <ele>1655.1</ele>
        <time>2013-08-29T11:44:58Z</time>
      </trkpt>
      <trkpt lat="45.26948" lon="6.45882">
        <ele>1654.1</ele>
        <time>2013-08-29T11:44:59Z</time>
      </trkpt>
      <trkpt lat="45.26946" lon="6.45883">
        <ele>1653.6</ele>
        <time>2013-08-29T11:45:00Z</time>
      </trkpt>
      <trkpt lat="45.26936" lon="6.45886">
        <ele>1651.2</ele>
        <time>2013-08-29T11:45:08Z</time>
      </trkpt>
      <trkpt lat="45.26936" lon="6.45885">
        <ele>1650.7</ele>
        <time>2013-08-29T11:45:17Z</time>
      </trkpt>
      <trkpt lat="45.26935" lon="6.45886">
        <ele>1650.7</ele>
        <time>2013-08-29T11:45:18Z</time>
      </trkpt>
      <trkpt lat="45.26934" lon="6.4589">
        <ele>1650.2</ele>
        <time>2013-08-29T11:45:19Z</time>
      </trkpt>
      <trkpt lat="45.26932" lon="6.45893">
        <ele>1650.2</ele>
        <time>2013-08-29T11:45:20Z</time>
      </trkpt>
      <trkpt lat="45.2693" lon="6.45896">
        <ele>1648.8</ele>
        <time>2013-08-29T11:45:21Z</time>
      </trkpt>
      <trkpt lat="45.26924" lon="6.45913">
        <ele>1646.4</ele>
        <time>2013-08-29T11:45:24Z</time>
      </trkpt>
      <trkpt lat="45.26921" lon="6.45919">
        <ele>1645.9</ele>
        <time>2013-08-29T11:45:25Z</time>
      </trkpt>
      <trkpt lat="45.26918" lon="6.45922">
        <ele>1645.4</ele>
        <time>2013-08-29T11:45:26Z</time>
      </trkpt>
      <trkpt lat="45.26907" lon="6.45925">
        <ele>1643.5</ele>
        <time>2013-08-29T11:45:29Z</time>
      </trkpt>
      <trkpt lat="45.26903" lon="6.45924">
        <ele>1642.6</ele>
        <time>2013-08-29T11:45:30Z</time>
      </trkpt>
      <trkpt lat="45.26898" lon="6.45922">
        <ele>1641.1</ele>
        <time>2013-08-29T11:45:31Z</time>
      </trkpt>
      <trkpt lat="45.26886" lon="6.45922">
        <ele>1639.2</ele>
        <time>2013-08-29T11:45:33Z</time>
      </trkpt>
      <trkpt lat="45.26874" lon="6.45924">
        <ele>1637.7</ele>
        <time>2013-08-29T11:45:35Z</time>
      </trkpt>
      <trkpt lat="45.26868" lon="6.45925">
        <ele>1637.7</ele>
        <time>2013-08-29T11:45:36Z</time>
      </trkpt>
      <trkpt lat="45.26844" lon="6.45915">
        <ele>1635.8</ele>
        <time>2013-08-29T11:45:44Z</time>
      </trkpt>
      <trkpt lat="45.26843" lon="6.45915">
        <ele>1635.3</ele>
        <time>2013-08-29T11:45:52Z</time>
      </trkpt>
      <trkpt lat="45.26842" lon="6.45916">
        <ele>1634.9</ele>
        <time>2013-08-29T11:46:20Z</time>
      </trkpt>
      <trkpt lat="45.2684" lon="6.45916">
        <ele>1635.3</ele>
        <time>2013-08-29T11:46:28Z</time>
      </trkpt>
      <trkpt lat="45.26839" lon="6.45914">
        <ele>1634.9</ele>
        <time>2013-08-29T11:46:29Z</time>
      </trkpt>
      <trkpt lat="45.26835" lon="6.45911">
        <ele>1633.4</ele>
        <time>2013-08-29T11:46:31Z</time>
      </trkpt>
      <trkpt lat="45.2683" lon="6.45907">
        <ele>1632.5</ele>
        <time>2013-08-29T11:46:33Z</time>
      </trkpt>
      <trkpt lat="45.26826" lon="6.45898">
        <ele>1629.1</ele>
        <time>2013-08-29T11:46:37Z</time>
      </trkpt>
      <trkpt lat="45.26825" lon="6.459">
        <ele>1628.6</ele>
        <time>2013-08-29T11:46:38Z</time>
      </trkpt>
      <trkpt lat="45.26825" lon="6.45926">
        <ele>1626.7</ele>
        <time>2013-08-29T11:46:43Z</time>
      </trkpt>
      <trkpt lat="45.26826" lon="6.45932">
        <ele>1625.3</ele>
        <time>2013-08-29T11:46:44Z</time>
      </trkpt>
      <trkpt lat="45.26823" lon="6.45938">
        <ele>1625.3</ele>
        <time>2013-08-29T11:46:45Z</time>
      </trkpt>
      <trkpt lat="45.26818" lon="6.45941">
        <ele>1623.8</ele>
        <time>2013-08-29T11:46:46Z</time>
      </trkpt>
      <trkpt lat="45.26813" lon="6.45942">
        <ele>1622.8</ele>
        <time>2013-08-29T11:46:47Z</time>
      </trkpt>
      <trkpt lat="45.26802" lon="6.45936">
        <ele>1623.3</ele>
        <time>2013-08-29T11:46:50Z</time>
      </trkpt>
      <trkpt lat="45.2679" lon="6.45927">
        <ele>1623.8</ele>
        <time>2013-08-29T11:46:55Z</time>
      </trkpt>
      <trkpt lat="45.26777" lon="6.45918">
        <ele>1622.8</ele>
        <time>2013-08-29T11:47:03Z</time>
      </trkpt>
      <trkpt lat="45.26751" lon="6.45918">
        <ele>1620</ele>
        <time>2013-08-29T11:47:12Z</time>
      </trkpt>
      <trkpt lat="45.26748" lon="6.45917">
        <ele>1619</ele>
        <time>2013-08-29T11:47:13Z</time>
      </trkpt>
      <trkpt lat="45.26744" lon="6.45915">
        <ele>1618</ele>
        <time>2013-08-29T11:47:14Z</time>
      </trkpt>
      <trkpt lat="45.2674" lon="6.45913">
        <ele>1616.6</ele>
        <time>2013-08-29T11:47:15Z</time>
      </trkpt>
      <trkpt lat="45.26736" lon="6.45911">
        <ele>1615.6</ele>
        <time>2013-08-29T11:47:16Z</time>
      </trkpt>
      <trkpt lat="45.26725" lon="6.45908">
        <ele>1614.2</ele>
        <time>2013-08-29T11:47:18Z</time>
      </trkpt>
      <trkpt lat="45.2672" lon="6.45906">
        <ele>1613.2</ele>
        <time>2013-08-29T11:47:19Z</time>
      </trkpt>
      <trkpt lat="45.26714" lon="6.45905">
        <ele>1612.3</ele>
        <time>2013-08-29T11:47:20Z</time>
      </trkpt>
      <trkpt lat="45.26708" lon="6.45904">
        <ele>1611.8</ele>
        <time>2013-08-29T11:47:21Z</time>
      </trkpt>
      <trkpt lat="45.26702" lon="6.45903">
        <ele>1611.8</ele>
        <time>2013-08-29T11:47:22Z</time>
      </trkpt>
      <trkpt lat="45.26696" lon="6.45902">
        <ele>1610.8</ele>
        <time>2013-08-29T11:47:23Z</time>
      </trkpt>
      <trkpt lat="45.26691" lon="6.45902">
        <ele>1609.4</ele>
        <time>2013-08-29T11:47:24Z</time>
      </trkpt>
      <trkpt lat="45.26688" lon="6.45902">
        <ele>1607.9</ele>
        <time>2013-08-29T11:47:25Z</time>
      </trkpt>
      <trkpt lat="45.26685" lon="6.45899">
        <ele>1607.5</ele>
        <time>2013-08-29T11:47:26Z</time>
      </trkpt>
      <trkpt lat="45.2668" lon="6.45895">
        <ele>1606.5</ele>
        <time>2013-08-29T11:47:28Z</time>
      </trkpt>
      <trkpt lat="45.26678" lon="6.45898">
        <ele>1606</ele>
        <time>2013-08-29T11:47:29Z</time>
      </trkpt>
      <trkpt lat="45.26675" lon="6.45903">
        <ele>1605.5</ele>
        <time>2013-08-29T11:47:30Z</time>
      </trkpt>
      <trkpt lat="45.26672" lon="6.4591">
        <ele>1604.6</ele>
        <time>2013-08-29T11:47:31Z</time>
      </trkpt>
      <trkpt lat="45.26669" lon="6.45916">
        <ele>1603.6</ele>
        <time>2013-08-29T11:47:32Z</time>
      </trkpt>
      <trkpt lat="45.26665" lon="6.45919">
        <ele>1602.7</ele>
        <time>2013-08-29T11:47:33Z</time>
      </trkpt>
      <trkpt lat="45.2666" lon="6.45918">
        <ele>1600.7</ele>
        <time>2013-08-29T11:47:34Z</time>
      </trkpt>
      <trkpt lat="45.26655" lon="6.45916">
        <ele>1600.3</ele>
        <time>2013-08-29T11:47:35Z</time>
      </trkpt>
      <trkpt lat="45.2665" lon="6.45915">
        <ele>1598.8</ele>
        <time>2013-08-29T11:47:36Z</time>
      </trkpt>
      <trkpt lat="45.26644" lon="6.45916">
        <ele>1597.9</ele>
        <time>2013-08-29T11:47:37Z</time>
      </trkpt>
      <trkpt lat="45.26637" lon="6.45917">
        <ele>1595.9</ele>
        <time>2013-08-29T11:47:38Z</time>
      </trkpt>
      <trkpt lat="45.26625" lon="6.45919">
        <ele>1593</ele>
        <time>2013-08-29T11:47:40Z</time>
      </trkpt>
      <trkpt lat="45.26619" lon="6.45918">
        <ele>1593</ele>
        <time>2013-08-29T11:47:41Z</time>
      </trkpt>
      <trkpt lat="45.26599" lon="6.45916">
        <ele>1589.7</ele>
        <time>2013-08-29T11:47:44Z</time>
      </trkpt>
      <trkpt lat="45.26594" lon="6.45917">
        <ele>1590.2</ele>
        <time>2013-08-29T11:47:45Z</time>
      </trkpt>
      <trkpt lat="45.26588" lon="6.45917">
        <ele>1588.7</ele>
        <time>2013-08-29T11:47:46Z</time>
      </trkpt>
      <trkpt lat="45.26582" lon="6.45918">
        <ele>1586.8</ele>
        <time>2013-08-29T11:47:47Z</time>
      </trkpt>
      <trkpt lat="45.26568" lon="6.4592">
        <ele>1585.4</ele>
        <time>2013-08-29T11:47:49Z</time>
      </trkpt>
      <trkpt lat="45.26555" lon="6.45919">
        <ele>1585.4</ele>
        <time>2013-08-29T11:47:51Z</time>
      </trkpt>
      <trkpt lat="45.26545" lon="6.45914">
        <ele>1585.4</ele>
        <time>2013-08-29T11:47:53Z</time>
      </trkpt>
      <trkpt lat="45.2654" lon="6.45914">
        <ele>1584.9</ele>
        <time>2013-08-29T11:47:54Z</time>
      </trkpt>
      <trkpt lat="45.26512" lon="6.45914">
        <ele>1581</ele>
        <time>2013-08-29T11:47:59Z</time>
      </trkpt>
      <trkpt lat="45.26507" lon="6.45912">
        <ele>1580.5</ele>
        <time>2013-08-29T11:48:00Z</time>
      </trkpt>
      <trkpt lat="45.26492" lon="6.45909">
        <ele>1577.2</ele>
        <time>2013-08-29T11:48:02Z</time>
      </trkpt>
      <trkpt lat="45.26487" lon="6.45908">
        <ele>1576.7</ele>
        <time>2013-08-29T11:48:03Z</time>
      </trkpt>
      <trkpt lat="45.26471" lon="6.45902">
        <ele>1573.8</ele>
        <time>2013-08-29T11:48:05Z</time>
      </trkpt>
      <trkpt lat="45.26457" lon="6.45896">
        <ele>1570.5</ele>
        <time>2013-08-29T11:48:07Z</time>
      </trkpt>
      <trkpt lat="45.26451" lon="6.45894">
        <ele>1569.5</ele>
        <time>2013-08-29T11:48:08Z</time>
      </trkpt>
      <trkpt lat="45.26442" lon="6.45885">
        <ele>1568.1</ele>
        <time>2013-08-29T11:48:10Z</time>
      </trkpt>
      <trkpt lat="45.26436" lon="6.45882">
        <ele>1566.6</ele>
        <time>2013-08-29T11:48:11Z</time>
      </trkpt>
      <trkpt lat="45.26422" lon="6.45878">
        <ele>1563.2</ele>
        <time>2013-08-29T11:48:14Z</time>
      </trkpt>
      <trkpt lat="45.26417" lon="6.45878">
        <ele>1562.3</ele>
        <time>2013-08-29T11:48:15Z</time>
      </trkpt>
      <trkpt lat="45.26407" lon="6.45874">
        <ele>1560.4</ele>
        <time>2013-08-29T11:48:17Z</time>
      </trkpt>
      <trkpt lat="45.26398" lon="6.45869">
        <ele>1558</ele>
        <time>2013-08-29T11:48:19Z</time>
      </trkpt>
      <trkpt lat="45.26391" lon="6.45864">
        <ele>1556.5</ele>
        <time>2013-08-29T11:48:21Z</time>
      </trkpt>
      <trkpt lat="45.26386" lon="6.45862">
        <ele>1555.6</ele>
        <time>2013-08-29T11:48:22Z</time>
      </trkpt>
      <trkpt lat="45.26381" lon="6.4586">
        <ele>1553.6</ele>
        <time>2013-08-29T11:48:23Z</time>
      </trkpt>
      <trkpt lat="45.26377" lon="6.45859">
        <ele>1553.2</ele>
        <time>2013-08-29T11:48:24Z</time>
      </trkpt>
      <trkpt lat="45.26365" lon="6.45854">
        <ele>1549.8</ele>
        <time>2013-08-29T11:48:28Z</time>
      </trkpt>
      <trkpt lat="45.26359" lon="6.45851">
        <ele>1546.4</ele>
        <time>2013-08-29T11:48:31Z</time>
      </trkpt>
      <trkpt lat="45.2636" lon="6.45848">
        <ele>1546.9</ele>
        <time>2013-08-29T11:48:32Z</time>
      </trkpt>
      <trkpt lat="45.26361" lon="6.45844">
        <ele>1545.9</ele>
        <time>2013-08-29T11:48:33Z</time>
      </trkpt>
      <trkpt lat="45.26359" lon="6.45844">
        <ele>1544</ele>
        <time>2013-08-29T11:48:35Z</time>
      </trkpt>
      <trkpt lat="45.26344" lon="6.45849">
        <ele>1542.6</ele>
        <time>2013-08-29T11:48:39Z</time>
      </trkpt>
      <trkpt lat="45.26337" lon="6.45844">
        <ele>1540.7</ele>
        <time>2013-08-29T11:48:41Z</time>
      </trkpt>
      <trkpt lat="45.26333" lon="6.45843">
        <ele>1539.2</ele>
        <time>2013-08-29T11:48:42Z</time>
      </trkpt>
      <trkpt lat="45.26328" lon="6.45842">
        <ele>1537.8</ele>
        <time>2013-08-29T11:48:43Z</time>
      </trkpt>
      <trkpt lat="45.26322" lon="6.4584">
        <ele>1536.3</ele>
        <time>2013-08-29T11:48:44Z</time>
      </trkpt>
      <trkpt lat="45.26317" lon="6.45838">
        <ele>1534.4</ele>
        <time>2013-08-29T11:48:45Z</time>
      </trkpt>
      <trkpt lat="45.26312" lon="6.45835">
        <ele>1533</ele>
        <time>2013-08-29T11:48:46Z</time>
      </trkpt>
      <trkpt lat="45.26307" lon="6.45831">
        <ele>1532.5</ele>
        <time>2013-08-29T11:48:47Z</time>
      </trkpt>
      <trkpt lat="45.26303" lon="6.45827">
        <ele>1531.5</ele>
        <time>2013-08-29T11:48:48Z</time>
      </trkpt>
      <trkpt lat="45.26295" lon="6.4582">
        <ele>1529.6</ele>
        <time>2013-08-29T11:48:50Z</time>
      </trkpt>
      <trkpt lat="45.26286" lon="6.45817">
        <ele>1528.6</ele>
        <time>2013-08-29T11:48:52Z</time>
      </trkpt>
      <trkpt lat="45.26281" lon="6.45815">
        <ele>1526.7</ele>
        <time>2013-08-29T11:48:53Z</time>
      </trkpt>
      <trkpt lat="45.26267" lon="6.45812">
        <ele>1524.8</ele>
        <time>2013-08-29T11:48:55Z</time>
      </trkpt>
      <trkpt lat="45.26263" lon="6.4581">
        <ele>1523.8</ele>
        <time>2013-08-29T11:48:56Z</time>
      </trkpt>
      <trkpt lat="45.26253" lon="6.45808">
        <ele>1522.4</ele>
        <time>2013-08-29T11:48:58Z</time>
      </trkpt>
      <trkpt lat="45.26245" lon="6.45811">
        <ele>1520.9</ele>
        <time>2013-08-29T11:49:00Z</time>
      </trkpt>
      <trkpt lat="45.26236" lon="6.45811">
        <ele>1519</ele>
        <time>2013-08-29T11:49:02Z</time>
      </trkpt>
      <trkpt lat="45.26229" lon="6.45806">
        <ele>1518.1</ele>
        <time>2013-08-29T11:49:04Z</time>
      </trkpt>
      <trkpt lat="45.26224" lon="6.45807">
        <ele>1517.6</ele>
        <time>2013-08-29T11:49:12Z</time>
      </trkpt>
      <trkpt lat="45.26226" lon="6.45811">
        <ele>1517.6</ele>
        <time>2013-08-29T11:49:33Z</time>
      </trkpt>
      <trkpt lat="45.26223" lon="6.4581">
        <ele>1518.1</ele>
        <time>2013-08-29T11:49:35Z</time>
      </trkpt>
      <trkpt lat="45.26216" lon="6.45809">
        <ele>1516.6</ele>
        <time>2013-08-29T11:49:38Z</time>
      </trkpt>
      <trkpt lat="45.26213" lon="6.45813">
        <ele>1514.7</ele>
        <time>2013-08-29T11:49:41Z</time>
      </trkpt>
      <trkpt lat="45.26212" lon="6.45819">
        <ele>1514.2</ele>
        <time>2013-08-29T11:49:43Z</time>
      </trkpt>
      <trkpt lat="45.26218" lon="6.45838">
        <ele>1513.3</ele>
        <time>2013-08-29T11:49:48Z</time>
      </trkpt>
      <trkpt lat="45.26222" lon="6.45843">
        <ele>1511.3</ele>
        <time>2013-08-29T11:49:50Z</time>
      </trkpt>
      <trkpt lat="45.26229" lon="6.45848">
        <ele>1509.4</ele>
        <time>2013-08-29T11:49:53Z</time>
      </trkpt>
      <trkpt lat="45.26235" lon="6.45849">
        <ele>1508.5</ele>
        <time>2013-08-29T11:49:55Z</time>
      </trkpt>
      <trkpt lat="45.26239" lon="6.45852">
        <ele>1508</ele>
        <time>2013-08-29T11:49:56Z</time>
      </trkpt>
      <trkpt lat="45.26247" lon="6.4586">
        <ele>1506.5</ele>
        <time>2013-08-29T11:49:58Z</time>
      </trkpt>
      <trkpt lat="45.2625" lon="6.45864">
        <ele>1505.6</ele>
        <time>2013-08-29T11:49:59Z</time>
      </trkpt>
      <trkpt lat="45.26256" lon="6.45873">
        <ele>1503.2</ele>
        <time>2013-08-29T11:50:03Z</time>
      </trkpt>
      <trkpt lat="45.26258" lon="6.45874">
        <ele>1503.6</ele>
        <time>2013-08-29T11:50:04Z</time>
      </trkpt>
      <trkpt lat="45.2626" lon="6.45876">
        <ele>1501.7</ele>
        <time>2013-08-29T11:50:05Z</time>
      </trkpt>
      <trkpt lat="45.26264" lon="6.45884">
        <ele>1502.2</ele>
        <time>2013-08-29T11:50:15Z</time>
      </trkpt>
      <trkpt lat="45.26265" lon="6.45888">
        <ele>1500.8</ele>
        <time>2013-08-29T11:50:18Z</time>
      </trkpt>
      <trkpt lat="45.26268" lon="6.45892">
        <ele>1499.8</ele>
        <time>2013-08-29T11:50:24Z</time>
      </trkpt>
      <trkpt lat="45.26268" lon="6.45893">
        <ele>1499.8</ele>
        <time>2013-08-29T11:50:25Z</time>
      </trkpt>
      <trkpt lat="45.2627" lon="6.45899">
        <ele>1499.8</ele>
        <time>2013-08-29T11:50:26Z</time>
      </trkpt>
      <trkpt lat="45.26274" lon="6.4591">
        <ele>1498.8</ele>
        <time>2013-08-29T11:50:29Z</time>
      </trkpt>
      <trkpt lat="45.26275" lon="6.45918">
        <ele>1498.4</ele>
        <time>2013-08-29T11:50:31Z</time>
      </trkpt>
      <trkpt lat="45.26272" lon="6.45959">
        <ele>1497.9</ele>
        <time>2013-08-29T11:50:40Z</time>
      </trkpt>
      <trkpt lat="45.26274" lon="6.46">
        <ele>1496.4</ele>
        <time>2013-08-29T11:50:48Z</time>
      </trkpt>
      <trkpt lat="45.26283" lon="6.45994">
        <ele>1496.9</ele>
        <time>2013-08-29T11:51:01Z</time>
      </trkpt>
      <trkpt lat="45.26296" lon="6.45989">
        <ele>1499.8</ele>
        <time>2013-08-29T11:51:12Z</time>
      </trkpt>
      <trkpt lat="45.26299" lon="6.45989">
        <ele>1499.3</ele>
        <time>2013-08-29T11:51:27Z</time>
      </trkpt>
      <trkpt lat="45.26302" lon="6.45986">
        <ele>1500.3</ele>
        <time>2013-08-29T11:51:33Z</time>
      </trkpt>
      <trkpt lat="45.2631" lon="6.45985">
        <ele>1501.7</ele>
        <time>2013-08-29T11:51:46Z</time>
      </trkpt>
      <trkpt lat="45.26318" lon="6.45976">
        <ele>1503.2</ele>
        <time>2013-08-29T11:51:55Z</time>
      </trkpt>
      <trkpt lat="45.26321" lon="6.45975">
        <ele>1503.6</ele>
        <time>2013-08-29T11:51:57Z</time>
      </trkpt>
      <trkpt lat="45.26334" lon="6.45968">
        <ele>1504.6</ele>
        <time>2013-08-29T11:52:09Z</time>
      </trkpt>
      <trkpt lat="45.26336" lon="6.45968">
        <ele>1505.1</ele>
        <time>2013-08-29T11:52:15Z</time>
      </trkpt>
      <trkpt lat="45.26341" lon="6.4597">
        <ele>1505.6</ele>
        <time>2013-08-29T11:52:20Z</time>
      </trkpt>
      <trkpt lat="45.26351" lon="6.45975">
        <ele>1505.6</ele>
        <time>2013-08-29T11:52:33Z</time>
      </trkpt>
      <trkpt lat="45.26357" lon="6.45978">
        <ele>1508</ele>
        <time>2013-08-29T11:52:46Z</time>
      </trkpt>
      <trkpt lat="45.26362" lon="6.45984">
        <ele>1508.9</ele>
        <time>2013-08-29T11:52:58Z</time>
      </trkpt>
      <trkpt lat="45.26363" lon="6.45993">
        <ele>1509.9</ele>
        <time>2013-08-29T11:53:07Z</time>
      </trkpt>
      <trkpt lat="45.26366" lon="6.45997">
        <ele>1508.5</ele>
        <time>2013-08-29T11:53:15Z</time>
      </trkpt>
      <trkpt lat="45.26371" lon="6.46006">
        <ele>1507.5</ele>
        <time>2013-08-29T11:53:21Z</time>
      </trkpt>
      <trkpt lat="45.26377" lon="6.46013">
        <ele>1505.1</ele>
        <time>2013-08-29T11:53:27Z</time>
      </trkpt>
      <trkpt lat="45.26379" lon="6.46019">
        <ele>1505.1</ele>
        <time>2013-08-29T11:53:32Z</time>
      </trkpt>
      <trkpt lat="45.26388" lon="6.46028">
        <ele>1503.6</ele>
        <time>2013-08-29T11:53:42Z</time>
      </trkpt>
      <trkpt lat="45.26393" lon="6.4603">
        <ele>1504.6</ele>
        <time>2013-08-29T11:53:58Z</time>
      </trkpt>
      <trkpt lat="45.26395" lon="6.46035">
        <ele>1503.6</ele>
        <time>2013-08-29T11:54:05Z</time>
      </trkpt>
      <trkpt lat="45.26397" lon="6.46044">
        <ele>1504.1</ele>
        <time>2013-08-29T11:54:16Z</time>
      </trkpt>
      <trkpt lat="45.264" lon="6.46046">
        <ele>1507</ele>
        <time>2013-08-29T11:54:24Z</time>
      </trkpt>
      <trkpt lat="45.26418" lon="6.4606">
        <ele>1506.5</ele>
        <time>2013-08-29T11:54:42Z</time>
      </trkpt>
      <trkpt lat="45.26425" lon="6.46049">
        <ele>1507</ele>
        <time>2013-08-29T11:55:01Z</time>
      </trkpt>
      <trkpt lat="45.26413" lon="6.4604">
        <ele>1505.1</ele>
        <time>2013-08-29T11:55:06Z</time>
      </trkpt>
      <trkpt lat="45.26403" lon="6.46029">
        <ele>1503.6</ele>
        <time>2013-08-29T11:55:09Z</time>
      </trkpt>
      <trkpt lat="45.26385" lon="6.46011">
        <ele>1499.3</ele>
        <time>2013-08-29T11:55:14Z</time>
      </trkpt>
      <trkpt lat="45.26367" lon="6.46003">
        <ele>1496</ele>
        <time>2013-08-29T11:55:18Z</time>
      </trkpt>
      <trkpt lat="45.26362" lon="6.46003">
        <ele>1494.5</ele>
        <time>2013-08-29T11:55:19Z</time>
      </trkpt>
      <trkpt lat="45.26356" lon="6.46004">
        <ele>1493.6</ele>
        <time>2013-08-29T11:55:20Z</time>
      </trkpt>
      <trkpt lat="45.2635" lon="6.46007">
        <ele>1494</ele>
        <time>2013-08-29T11:55:21Z</time>
      </trkpt>
      <trkpt lat="45.26339" lon="6.46013">
        <ele>1494</ele>
        <time>2013-08-29T11:55:23Z</time>
      </trkpt>
      <trkpt lat="45.26321" lon="6.46019">
        <ele>1492.1</ele>
        <time>2013-08-29T11:55:27Z</time>
      </trkpt>
      <trkpt lat="45.26295" lon="6.46021">
        <ele>1493.1</ele>
        <time>2013-08-29T11:55:36Z</time>
      </trkpt>
      <trkpt lat="45.26286" lon="6.46023">
        <ele>1490.2</ele>
        <time>2013-08-29T11:55:38Z</time>
      </trkpt>
      <trkpt lat="45.26277" lon="6.46024">
        <ele>1491.1</ele>
        <time>2013-08-29T11:55:40Z</time>
      </trkpt>
      <trkpt lat="45.26252" lon="6.46049">
        <ele>1490.7</ele>
        <time>2013-08-29T11:55:49Z</time>
      </trkpt>
      <trkpt lat="45.26248" lon="6.46055">
        <ele>1490.7</ele>
        <time>2013-08-29T11:55:57Z</time>
      </trkpt>
      <trkpt lat="45.26241" lon="6.46063">
        <ele>1490.2</ele>
        <time>2013-08-29T11:56:11Z</time>
      </trkpt>
      <trkpt lat="45.26216" lon="6.4607">
        <ele>1488.7</ele>
        <time>2013-08-29T11:56:22Z</time>
      </trkpt>
      <trkpt lat="45.26212" lon="6.46074">
        <ele>1487.8</ele>
        <time>2013-08-29T11:56:24Z</time>
      </trkpt>
      <trkpt lat="45.26208" lon="6.46083">
        <ele>1486.8</ele>
        <time>2013-08-29T11:56:26Z</time>
      </trkpt>
      <trkpt lat="45.262" lon="6.46132">
        <ele>1486.3</ele>
        <time>2013-08-29T11:56:38Z</time>
      </trkpt>
      <trkpt lat="45.26191" lon="6.46158">
        <ele>1487.3</ele>
        <time>2013-08-29T11:56:49Z</time>
      </trkpt>
      <trkpt lat="45.26191" lon="6.46161">
        <ele>1488.7</ele>
        <time>2013-08-29T11:56:51Z</time>
      </trkpt>
      <trkpt lat="45.2619" lon="6.46163">
        <ele>1487.8</ele>
        <time>2013-08-29T11:56:52Z</time>
      </trkpt>
      <trkpt lat="45.2619" lon="6.46166">
        <ele>1487.8</ele>
        <time>2013-08-29T11:56:53Z</time>
      </trkpt>
      <trkpt lat="45.26189" lon="6.46169">
        <ele>1488.3</ele>
        <time>2013-08-29T11:56:54Z</time>
      </trkpt>
      <trkpt lat="45.26189" lon="6.46173">
        <ele>1487.8</ele>
        <time>2013-08-29T11:56:55Z</time>
      </trkpt>
      <trkpt lat="45.26187" lon="6.46208">
        <ele>1486.8</ele>
        <time>2013-08-29T11:57:01Z</time>
      </trkpt>
      <trkpt lat="45.26188" lon="6.46216">
        <ele>1485.9</ele>
        <time>2013-08-29T11:57:02Z</time>
      </trkpt>
      <trkpt lat="45.26191" lon="6.46233">
        <ele>1485.4</ele>
        <time>2013-08-29T11:57:04Z</time>
      </trkpt>
      <trkpt lat="45.26193" lon="6.46241">
        <ele>1485.4</ele>
        <time>2013-08-29T11:57:05Z</time>
      </trkpt>
      <trkpt lat="45.26196" lon="6.46249">
        <ele>1484.9</ele>
        <time>2013-08-29T11:57:06Z</time>
      </trkpt>
      <trkpt lat="45.2621" lon="6.46276">
        <ele>1487.3</ele>
        <time>2013-08-29T11:57:13Z</time>
      </trkpt>
      <trkpt lat="45.26222" lon="6.46296">
        <ele>1489.2</ele>
        <time>2013-08-29T11:57:24Z</time>
      </trkpt>
      <trkpt lat="45.26221" lon="6.46331">
        <ele>1488.7</ele>
        <time>2013-08-29T11:57:37Z</time>
      </trkpt>
      <trkpt lat="45.262" lon="6.46367">
        <ele>1484.4</ele>
        <time>2013-08-29T11:57:46Z</time>
      </trkpt>
      <trkpt lat="45.26195" lon="6.46371">
        <ele>1483.9</ele>
        <time>2013-08-29T11:57:48Z</time>
      </trkpt>
      <trkpt lat="45.26173" lon="6.46383">
        <ele>1479.6</ele>
        <time>2013-08-29T11:57:52Z</time>
      </trkpt>
      <trkpt lat="45.26165" lon="6.46386">
        <ele>1477.7</ele>
        <time>2013-08-29T11:57:53Z</time>
      </trkpt>
      <trkpt lat="45.26148" lon="6.46392">
        <ele>1474.3</ele>
        <time>2013-08-29T11:57:55Z</time>
      </trkpt>
      <trkpt lat="45.26108" lon="6.46409">
        <ele>1469.5</ele>
        <time>2013-08-29T11:57:59Z</time>
      </trkpt>
      <trkpt lat="45.26086" lon="6.46422">
        <ele>1465.2</ele>
        <time>2013-08-29T11:58:01Z</time>
      </trkpt>
      <trkpt lat="45.26063" lon="6.46435">
        <ele>1461.3</ele>
        <time>2013-08-29T11:58:03Z</time>
      </trkpt>
      <trkpt lat="45.26028" lon="6.46447">
        <ele>1458</ele>
        <time>2013-08-29T11:58:06Z</time>
      </trkpt>
      <trkpt lat="45.25996" lon="6.46458">
        <ele>1455.6</ele>
        <time>2013-08-29T11:58:10Z</time>
      </trkpt>
      <trkpt lat="45.25992" lon="6.46461">
        <ele>1455.6</ele>
        <time>2013-08-29T11:58:11Z</time>
      </trkpt>
      <trkpt lat="45.25974" lon="6.46469">
        <ele>1455.6</ele>
        <time>2013-08-29T11:58:17Z</time>
      </trkpt>
      <trkpt lat="45.25968" lon="6.46471">
        <ele>1453.7</ele>
        <time>2013-08-29T11:58:20Z</time>
      </trkpt>
      <trkpt lat="45.25965" lon="6.46473">
        <ele>1454.1</ele>
        <time>2013-08-29T11:58:22Z</time>
      </trkpt>
      <trkpt lat="45.25958" lon="6.46477">
        <ele>1453.7</ele>
        <time>2013-08-29T11:58:26Z</time>
      </trkpt>
      <trkpt lat="45.25954" lon="6.46479">
        <ele>1455.1</ele>
        <time>2013-08-29T11:58:29Z</time>
      </trkpt>
      <trkpt lat="45.25939" lon="6.4649">
        <ele>1454.1</ele>
        <time>2013-08-29T11:58:37Z</time>
      </trkpt>
      <trkpt lat="45.25916" lon="6.46509">
        <ele>1450.8</ele>
        <time>2013-08-29T11:58:46Z</time>
      </trkpt>
      <trkpt lat="45.25904" lon="6.46532">
        <ele>1448.8</ele>
        <time>2013-08-29T11:58:52Z</time>
      </trkpt>
      <trkpt lat="45.25889" lon="6.46565">
        <ele>1448.8</ele>
        <time>2013-08-29T11:59:01Z</time>
      </trkpt>
      <trkpt lat="45.25873" lon="6.46585">
        <ele>1447.4</ele>
        <time>2013-08-29T11:59:10Z</time>
      </trkpt>
      <trkpt lat="45.25871" lon="6.46591">
        <ele>1447.4</ele>
        <time>2013-08-29T11:59:12Z</time>
      </trkpt>
      <trkpt lat="45.25869" lon="6.46596">
        <ele>1446.9</ele>
        <time>2013-08-29T11:59:29Z</time>
      </trkpt>
      <trkpt lat="45.25861" lon="6.4661">
        <ele>1446.4</ele>
        <time>2013-08-29T11:59:42Z</time>
      </trkpt>
      <trkpt lat="45.25857" lon="6.46615">
        <ele>1446.9</ele>
        <time>2013-08-29T11:59:48Z</time>
      </trkpt>
      <trkpt lat="45.25839" lon="6.46624">
        <ele>1446.9</ele>
        <time>2013-08-29T11:59:57Z</time>
      </trkpt>
      <trkpt lat="45.25836" lon="6.46625">
        <ele>1446.9</ele>
        <time>2013-08-29T11:59:58Z</time>
      </trkpt>
      <trkpt lat="45.25826" lon="6.46633">
        <ele>1447.4</ele>
        <time>2013-08-29T12:00:06Z</time>
      </trkpt>
      <trkpt lat="45.25824" lon="6.46633">
        <ele>1448.4</ele>
        <time>2013-08-29T12:00:09Z</time>
      </trkpt>
      <trkpt lat="45.25817" lon="6.46629">
        <ele>1446.4</ele>
        <time>2013-08-29T12:00:14Z</time>
      </trkpt>
      <trkpt lat="45.25813" lon="6.46622">
        <ele>1445</ele>
        <time>2013-08-29T12:00:17Z</time>
      </trkpt>
      <trkpt lat="45.25811" lon="6.4662">
        <ele>1445.5</ele>
        <time>2013-08-29T12:00:18Z</time>
      </trkpt>
      <trkpt lat="45.25801" lon="6.46606">
        <ele>1443.6</ele>
        <time>2013-08-29T12:00:27Z</time>
      </trkpt>
      <trkpt lat="45.25799" lon="6.46605">
        <ele>1442.6</ele>
        <time>2013-08-29T12:00:28Z</time>
      </trkpt>
      <trkpt lat="45.25787" lon="6.46615">
        <ele>1440.7</ele>
        <time>2013-08-29T12:00:33Z</time>
      </trkpt>
      <trkpt lat="45.2578" lon="6.46621">
        <ele>1438.8</ele>
        <time>2013-08-29T12:00:35Z</time>
      </trkpt>
      <trkpt lat="45.25765" lon="6.46628">
        <ele>1436.8</ele>
        <time>2013-08-29T12:00:39Z</time>
      </trkpt>
      <trkpt lat="45.25761" lon="6.4663">
        <ele>1435.9</ele>
        <time>2013-08-29T12:00:40Z</time>
      </trkpt>
      <trkpt lat="45.25734" lon="6.46629">
        <ele>1432</ele>
        <time>2013-08-29T12:00:47Z</time>
      </trkpt>
      <trkpt lat="45.25725" lon="6.46631">
        <ele>1430.6</ele>
        <time>2013-08-29T12:00:50Z</time>
      </trkpt>
      <trkpt lat="45.25713" lon="6.46632">
        <ele>1426.7</ele>
        <time>2013-08-29T12:00:55Z</time>
      </trkpt>
      <trkpt lat="45.25706" lon="6.46635">
        <ele>1423.9</ele>
        <time>2013-08-29T12:00:58Z</time>
      </trkpt>
      <trkpt lat="45.25701" lon="6.46633">
        <ele>1421.9</ele>
        <time>2013-08-29T12:01:01Z</time>
      </trkpt>
      <trkpt lat="45.257" lon="6.46633">
        <ele>1421.5</ele>
        <time>2013-08-29T12:01:02Z</time>
      </trkpt>
      <trkpt lat="45.25677" lon="6.46649">
        <ele>1419</ele>
        <time>2013-08-29T12:01:10Z</time>
      </trkpt>
      <trkpt lat="45.25631" lon="6.46667">
        <ele>1417.1</ele>
        <time>2013-08-29T12:01:22Z</time>
      </trkpt>
      <trkpt lat="45.256" lon="6.46719">
        <ele>1414.2</ele>
        <time>2013-08-29T12:01:31Z</time>
      </trkpt>
      <trkpt lat="45.25596" lon="6.46728">
        <ele>1414.7</ele>
        <time>2013-08-29T12:01:32Z</time>
      </trkpt>
      <trkpt lat="45.25583" lon="6.46752">
        <ele>1411.8</ele>
        <time>2013-08-29T12:01:35Z</time>
      </trkpt>
      <trkpt lat="45.25574" lon="6.46763">
        <ele>1410.4</ele>
        <time>2013-08-29T12:01:38Z</time>
      </trkpt>
      <trkpt lat="45.25557" lon="6.4678">
        <ele>1409.9</ele>
        <time>2013-08-29T12:01:48Z</time>
      </trkpt>
      <trkpt lat="45.25535" lon="6.46797">
        <ele>1407.5</ele>
        <time>2013-08-29T12:01:53Z</time>
      </trkpt>
      <trkpt lat="45.25491" lon="6.46823">
        <ele>1406.6</ele>
        <time>2013-08-29T12:02:00Z</time>
      </trkpt>
      <trkpt lat="45.25483" lon="6.4683">
        <ele>1407</ele>
        <time>2013-08-29T12:02:02Z</time>
      </trkpt>
      <trkpt lat="45.25474" lon="6.46841">
        <ele>1406.6</ele>
        <time>2013-08-29T12:02:04Z</time>
      </trkpt>
      <trkpt lat="45.25462" lon="6.46849">
        <ele>1406.6</ele>
        <time>2013-08-29T12:02:07Z</time>
      </trkpt>
      <trkpt lat="45.25453" lon="6.46849">
        <ele>1405.6</ele>
        <time>2013-08-29T12:02:09Z</time>
      </trkpt>
      <trkpt lat="45.25424" lon="6.46859">
        <ele>1405.1</ele>
        <time>2013-08-29T12:02:15Z</time>
      </trkpt>
      <trkpt lat="45.25413" lon="6.46868">
        <ele>1405.1</ele>
        <time>2013-08-29T12:02:18Z</time>
      </trkpt>
      <trkpt lat="45.25381" lon="6.46885">
        <ele>1409.4</ele>
        <time>2013-08-29T12:02:28Z</time>
      </trkpt>
      <trkpt lat="45.25379" lon="6.46885">
        <ele>1406.1</ele>
        <time>2013-08-29T12:02:29Z</time>
      </trkpt>
      <trkpt lat="45.25377" lon="6.46884">
        <ele>1407.5</ele>
        <time>2013-08-29T12:02:30Z</time>
      </trkpt>
      <trkpt lat="45.25376" lon="6.46884">
        <ele>1406.6</ele>
        <time>2013-08-29T12:02:31Z</time>
      </trkpt>
      <trkpt lat="45.25373" lon="6.46881">
        <ele>1407.5</ele>
        <time>2013-08-29T12:02:41Z</time>
      </trkpt>
      <trkpt lat="45.25367" lon="6.46868">
        <ele>1405.6</ele>
        <time>2013-08-29T12:02:45Z</time>
      </trkpt>
      <trkpt lat="45.25363" lon="6.46864">
        <ele>1405.1</ele>
        <time>2013-08-29T12:02:46Z</time>
      </trkpt>
      <trkpt lat="45.25359" lon="6.46861">
        <ele>1403.2</ele>
        <time>2013-08-29T12:02:47Z</time>
      </trkpt>
      <trkpt lat="45.25337" lon="6.46848">
        <ele>1399.8</ele>
        <time>2013-08-29T12:02:50Z</time>
      </trkpt>
      <trkpt lat="45.25283" lon="6.46811">
        <ele>1396</ele>
        <time>2013-08-29T12:02:59Z</time>
      </trkpt>
      <trkpt lat="45.25278" lon="6.4681">
        <ele>1395.5</ele>
        <time>2013-08-29T12:03:00Z</time>
      </trkpt>
      <trkpt lat="45.2527" lon="6.46807">
        <ele>1394.1</ele>
        <time>2013-08-29T12:03:02Z</time>
      </trkpt>
      <trkpt lat="45.25266" lon="6.46805">
        <ele>1392.6</ele>
        <time>2013-08-29T12:03:03Z</time>
      </trkpt>
      <trkpt lat="45.25262" lon="6.46803">
        <ele>1392.6</ele>
        <time>2013-08-29T12:03:04Z</time>
      </trkpt>
      <trkpt lat="45.25259" lon="6.46801">
        <ele>1389.7</ele>
        <time>2013-08-29T12:03:05Z</time>
      </trkpt>
      <trkpt lat="45.25255" lon="6.46801">
        <ele>1388.3</ele>
        <time>2013-08-29T12:03:06Z</time>
      </trkpt>
      <trkpt lat="45.25251" lon="6.46801">
        <ele>1387.3</ele>
        <time>2013-08-29T12:03:07Z</time>
      </trkpt>
      <trkpt lat="45.25247" lon="6.468">
        <ele>1385.4</ele>
        <time>2013-08-29T12:03:08Z</time>
      </trkpt>
      <trkpt lat="45.25238" lon="6.46797">
        <ele>1382.5</ele>
        <time>2013-08-29T12:03:10Z</time>
      </trkpt>
      <trkpt lat="45.25233" lon="6.46796">
        <ele>1382.5</ele>
        <time>2013-08-29T12:03:11Z</time>
      </trkpt>
      <trkpt lat="45.25222" lon="6.4679">
        <ele>1377.7</ele>
        <time>2013-08-29T12:03:14Z</time>
      </trkpt>
      <trkpt lat="45.25218" lon="6.46787">
        <ele>1376.3</ele>
        <time>2013-08-29T12:03:15Z</time>
      </trkpt>
      <trkpt lat="45.25214" lon="6.46782">
        <ele>1374.3</ele>
        <time>2013-08-29T12:03:16Z</time>
      </trkpt>
      <trkpt lat="45.25198" lon="6.46763">
        <ele>1370.5</ele>
        <time>2013-08-29T12:03:19Z</time>
      </trkpt>
      <trkpt lat="45.25184" lon="6.46748">
        <ele>1367.6</ele>
        <time>2013-08-29T12:03:22Z</time>
      </trkpt>
      <trkpt lat="45.25178" lon="6.46741">
        <ele>1366.2</ele>
        <time>2013-08-29T12:03:23Z</time>
      </trkpt>
      <trkpt lat="45.2517" lon="6.46731">
        <ele>1364.3</ele>
        <time>2013-08-29T12:03:25Z</time>
      </trkpt>
      <trkpt lat="45.25167" lon="6.46726">
        <ele>1363.3</ele>
        <time>2013-08-29T12:03:26Z</time>
      </trkpt>
      <trkpt lat="45.25163" lon="6.46721">
        <ele>1361.4</ele>
        <time>2013-08-29T12:03:27Z</time>
      </trkpt>
      <trkpt lat="45.25159" lon="6.46717">
        <ele>1360.9</ele>
        <time>2013-08-29T12:03:28Z</time>
      </trkpt>
      <trkpt lat="45.25148" lon="6.46705">
        <ele>1357.5</ele>
        <time>2013-08-29T12:03:31Z</time>
      </trkpt>
      <trkpt lat="45.25143" lon="6.46696">
        <ele>1354.2</ele>
        <time>2013-08-29T12:03:33Z</time>
      </trkpt>
      <trkpt lat="45.25139" lon="6.46682">
        <ele>1350.8</ele>
        <time>2013-08-29T12:03:37Z</time>
      </trkpt>
      <trkpt lat="45.25137" lon="6.4668">
        <ele>1349.4</ele>
        <time>2013-08-29T12:03:38Z</time>
      </trkpt>
      <trkpt lat="45.25135" lon="6.4668">
        <ele>1349.4</ele>
        <time>2013-08-29T12:03:39Z</time>
      </trkpt>
      <trkpt lat="45.25121" lon="6.46689">
        <ele>1348.4</ele>
        <time>2013-08-29T12:04:03Z</time>
      </trkpt>
      <trkpt lat="45.2512" lon="6.46685">
        <ele>1348.4</ele>
        <time>2013-08-29T12:04:09Z</time>
      </trkpt>
      <trkpt lat="45.2512" lon="6.46682">
        <ele>1347.9</ele>
        <time>2013-08-29T12:04:10Z</time>
      </trkpt>
      <trkpt lat="45.25111" lon="6.46658">
        <ele>1344.5</ele>
        <time>2013-08-29T12:04:15Z</time>
      </trkpt>
      <trkpt lat="45.251" lon="6.46646">
        <ele>1341.2</ele>
        <time>2013-08-29T12:04:19Z</time>
      </trkpt>
      <trkpt lat="45.25089" lon="6.46637">
        <ele>1338.3</ele>
        <time>2013-08-29T12:04:22Z</time>
      </trkpt>
      <trkpt lat="45.25079" lon="6.46627">
        <ele>1335.4</ele>
        <time>2013-08-29T12:04:25Z</time>
      </trkpt>
      <trkpt lat="45.25057" lon="6.46628">
        <ele>1333</ele>
        <time>2013-08-29T12:04:34Z</time>
      </trkpt>
      <trkpt lat="45.25055" lon="6.46629">
        <ele>1332.5</ele>
        <time>2013-08-29T12:05:00Z</time>
      </trkpt>
      <trkpt lat="45.25055" lon="6.46626">
        <ele>1332</ele>
        <time>2013-08-29T12:05:32Z</time>
      </trkpt>
      <trkpt lat="45.25057" lon="6.46625">
        <ele>1331.6</ele>
        <time>2013-08-29T12:06:08Z</time>
      </trkpt>
      <trkpt lat="45.25057" lon="6.46627">
        <ele>1331.1</ele>
        <time>2013-08-29T12:06:34Z</time>
      </trkpt>
      <trkpt lat="45.25056" lon="6.46627">
        <ele>1331.6</ele>
        <time>2013-08-29T12:06:48Z</time>
      </trkpt>
      <trkpt lat="45.25057" lon="6.46628">
        <ele>1329.2</ele>
        <time>2013-08-29T12:07:07Z</time>
      </trkpt>
      <trkpt lat="45.25057" lon="6.46627">
        <ele>1332</ele>
        <time>2013-08-29T12:07:11Z</time>
      </trkpt>
      <trkpt lat="45.25058" lon="6.46626">
        <ele>1328.2</ele>
        <time>2013-08-29T12:07:22Z</time>
      </trkpt>
      <trkpt lat="45.25058" lon="6.46626">
        <ele>1332</ele>
        <time>2013-08-29T12:07:24Z</time>
      </trkpt>
      <trkpt lat="45.25058" lon="6.46627">
        <ele>1331.6</ele>
        <time>2013-08-29T12:07:29Z</time>
      </trkpt>
      <trkpt lat="45.25057" lon="6.46626">
        <ele>1332</ele>
        <time>2013-08-29T12:07:36Z</time>
      </trkpt>
      <trkpt lat="45.25057" lon="6.46626">
        <ele>1328.7</ele>
        <time>2013-08-29T12:07:37Z</time>
      </trkpt>
      <trkpt lat="45.25057" lon="6.46626">
        <ele>1332.5</ele>
        <time>2013-08-29T12:07:38Z</time>
      </trkpt>
      <trkpt lat="45.25057" lon="6.46626">
        <ele>1328.7</ele>
        <time>2013-08-29T12:07:44Z</time>
      </trkpt>
      <trkpt lat="45.25056" lon="6.46626">
        <ele>1331.6</ele>
        <time>2013-08-29T12:07:45Z</time>
      </trkpt>
      <trkpt lat="45.25055" lon="6.46627">
        <ele>1328.7</ele>
        <time>2013-08-29T12:07:52Z</time>
      </trkpt>
      <trkpt lat="45.25055" lon="6.46625">
        <ele>1328.7</ele>
        <time>2013-08-29T12:08:02Z</time>
      </trkpt>
      <trkpt lat="45.25054" lon="6.46624">
        <ele>1329.2</ele>
        <time>2013-08-29T12:08:03Z</time>
      </trkpt>
      <trkpt lat="45.25053" lon="6.46623">
        <ele>1331.1</ele>
        <time>2013-08-29T12:08:04Z</time>
      </trkpt>
      <trkpt lat="45.25052" lon="6.46621">
        <ele>1330.6</ele>
        <time>2013-08-29T12:08:05Z</time>
      </trkpt>
      <trkpt lat="45.25033" lon="6.46589">
        <ele>1326.8</ele>
        <time>2013-08-29T12:08:16Z</time>
      </trkpt>
      <trkpt lat="45.2503" lon="6.46584">
        <ele>1326.8</ele>
        <time>2013-08-29T12:08:17Z</time>
      </trkpt>
      <trkpt lat="45.25006" lon="6.46549">
        <ele>1324.4</ele>
        <time>2013-08-29T12:08:25Z</time>
      </trkpt>
      <trkpt lat="45.25003" lon="6.4655">
        <ele>1324.8</ele>
        <time>2013-08-29T12:08:26Z</time>
      </trkpt>
      <trkpt lat="45.25" lon="6.46552">
        <ele>1323.9</ele>
        <time>2013-08-29T12:08:27Z</time>
      </trkpt>
      <trkpt lat="45.24998" lon="6.46557">
        <ele>1324.4</ele>
        <time>2013-08-29T12:08:28Z</time>
      </trkpt>
      <trkpt lat="45.24997" lon="6.46563">
        <ele>1324.4</ele>
        <time>2013-08-29T12:08:29Z</time>
      </trkpt>
      <trkpt lat="45.24999" lon="6.46569">
        <ele>1323.4</ele>
        <time>2013-08-29T12:08:30Z</time>
      </trkpt>
      <trkpt lat="45.25002" lon="6.46574">
        <ele>1323.9</ele>
        <time>2013-08-29T12:08:31Z</time>
      </trkpt>
      <trkpt lat="45.25005" lon="6.46579">
        <ele>1322.4</ele>
        <time>2013-08-29T12:08:32Z</time>
      </trkpt>
      <trkpt lat="45.25031" lon="6.46612">
        <ele>1321.5</ele>
        <time>2013-08-29T12:08:38Z</time>
      </trkpt>
      <trkpt lat="45.25044" lon="6.46628">
        <ele>1320.5</ele>
        <time>2013-08-29T12:08:41Z</time>
      </trkpt>
      <trkpt lat="45.25041" lon="6.46633">
        <ele>1320</ele>
        <time>2013-08-29T12:08:42Z</time>
      </trkpt>
      <trkpt lat="45.25036" lon="6.46635">
        <ele>1319.6</ele>
        <time>2013-08-29T12:08:43Z</time>
      </trkpt>
      <trkpt lat="45.2503" lon="6.46634">
        <ele>1319.1</ele>
        <time>2013-08-29T12:08:44Z</time>
      </trkpt>
      <trkpt lat="45.25025" lon="6.46629">
        <ele>1319.6</ele>
        <time>2013-08-29T12:08:45Z</time>
      </trkpt>
      <trkpt lat="45.25022" lon="6.46623">
        <ele>1318.6</ele>
        <time>2013-08-29T12:08:46Z</time>
      </trkpt>
      <trkpt lat="45.25018" lon="6.46616">
        <ele>1319.1</ele>
        <time>2013-08-29T12:08:47Z</time>
      </trkpt>
      <trkpt lat="45.24999" lon="6.46593">
        <ele>1316.7</ele>
        <time>2013-08-29T12:08:55Z</time>
      </trkpt>
      <trkpt lat="45.24984" lon="6.46587">
        <ele>1315.7</ele>
        <time>2013-08-29T12:09:09Z</time>
      </trkpt>
      <trkpt lat="45.24956" lon="6.4656">
        <ele>1313.3</ele>
        <time>2013-08-29T12:09:15Z</time>
      </trkpt>
      <trkpt lat="45.24951" lon="6.46553">
        <ele>1314.3</ele>
        <time>2013-08-29T12:09:16Z</time>
      </trkpt>
      <trkpt lat="45.24926" lon="6.46516">
        <ele>1310.4</ele>
        <time>2013-08-29T12:09:21Z</time>
      </trkpt>
      <trkpt lat="45.24917" lon="6.46502">
        <ele>1309.9</ele>
        <time>2013-08-29T12:09:23Z</time>
      </trkpt>
      <trkpt lat="45.24913" lon="6.46493">
        <ele>1309.9</ele>
        <time>2013-08-29T12:09:24Z</time>
      </trkpt>
      <trkpt lat="45.2491" lon="6.46485">
        <ele>1309.9</ele>
        <time>2013-08-29T12:09:25Z</time>
      </trkpt>
      <trkpt lat="45.24907" lon="6.46477">
        <ele>1308.5</ele>
        <time>2013-08-29T12:09:26Z</time>
      </trkpt>
      <trkpt lat="45.24886" lon="6.46442">
        <ele>1307.1</ele>
        <time>2013-08-29T12:09:30Z</time>
      </trkpt>
      <trkpt lat="45.2488" lon="6.46432">
        <ele>1305.6</ele>
        <time>2013-08-29T12:09:32Z</time>
      </trkpt>
      <trkpt lat="45.24875" lon="6.4643">
        <ele>1305.1</ele>
        <time>2013-08-29T12:09:33Z</time>
      </trkpt>
      <trkpt lat="45.2487" lon="6.46435">
        <ele>1305.1</ele>
        <time>2013-08-29T12:09:34Z</time>
      </trkpt>
      <trkpt lat="45.24867" lon="6.46442">
        <ele>1304.7</ele>
        <time>2013-08-29T12:09:35Z</time>
      </trkpt>
      <trkpt lat="45.24868" lon="6.46451">
        <ele>1303.7</ele>
        <time>2013-08-29T12:09:36Z</time>
      </trkpt>
      <trkpt lat="45.24871" lon="6.46459">
        <ele>1304.2</ele>
        <time>2013-08-29T12:09:37Z</time>
      </trkpt>
      <trkpt lat="45.24875" lon="6.46464">
        <ele>1303.2</ele>
        <time>2013-08-29T12:09:38Z</time>
      </trkpt>
      <trkpt lat="45.24884" lon="6.46471">
        <ele>1303.2</ele>
        <time>2013-08-29T12:09:40Z</time>
      </trkpt>
      <trkpt lat="45.24888" lon="6.46476">
        <ele>1302.7</ele>
        <time>2013-08-29T12:09:41Z</time>
      </trkpt>
      <trkpt lat="45.24891" lon="6.46481">
        <ele>1302.7</ele>
        <time>2013-08-29T12:09:42Z</time>
      </trkpt>
      <trkpt lat="45.24894" lon="6.46487">
        <ele>1302.2</ele>
        <time>2013-08-29T12:09:43Z</time>
      </trkpt>
      <trkpt lat="45.24896" lon="6.46494">
        <ele>1301.8</ele>
        <time>2013-08-29T12:09:44Z</time>
      </trkpt>
      <trkpt lat="45.2491" lon="6.46552">
        <ele>1298.9</ele>
        <time>2013-08-29T12:09:51Z</time>
      </trkpt>
      <trkpt lat="45.24926" lon="6.46605">
        <ele>1297</ele>
        <time>2013-08-29T12:09:56Z</time>
      </trkpt>
      <trkpt lat="45.24932" lon="6.46614">
        <ele>1297</ele>
        <time>2013-08-29T12:09:57Z</time>
      </trkpt>
      <trkpt lat="45.24945" lon="6.46632">
        <ele>1295</ele>
        <time>2013-08-29T12:09:59Z</time>
      </trkpt>
      <trkpt lat="45.24957" lon="6.46651">
        <ele>1292.2</ele>
        <time>2013-08-29T12:10:01Z</time>
      </trkpt>
      <trkpt lat="45.2496" lon="6.46664">
        <ele>1292.6</ele>
        <time>2013-08-29T12:10:02Z</time>
      </trkpt>
      <trkpt lat="45.24967" lon="6.46689">
        <ele>1289.8</ele>
        <time>2013-08-29T12:10:04Z</time>
      </trkpt>
      <trkpt lat="45.2497" lon="6.467">
        <ele>1290.2</ele>
        <time>2013-08-29T12:10:05Z</time>
      </trkpt>
      <trkpt lat="45.24969" lon="6.46715">
        <ele>1288.3</ele>
        <time>2013-08-29T12:10:06Z</time>
      </trkpt>
      <trkpt lat="45.24966" lon="6.46727">
        <ele>1287.8</ele>
        <time>2013-08-29T12:10:07Z</time>
      </trkpt>
      <trkpt lat="45.24959" lon="6.46738">
        <ele>1286.9</ele>
        <time>2013-08-29T12:10:08Z</time>
      </trkpt>
      <trkpt lat="45.24952" lon="6.46748">
        <ele>1288.3</ele>
        <time>2013-08-29T12:10:09Z</time>
      </trkpt>
      <trkpt lat="45.24932" lon="6.46771">
        <ele>1285.4</ele>
        <time>2013-08-29T12:10:12Z</time>
      </trkpt>
      <trkpt lat="45.24925" lon="6.46773">
        <ele>1284.9</ele>
        <time>2013-08-29T12:10:13Z</time>
      </trkpt>
      <trkpt lat="45.24918" lon="6.4677">
        <ele>1284</ele>
        <time>2013-08-29T12:10:14Z</time>
      </trkpt>
      <trkpt lat="45.24914" lon="6.46765">
        <ele>1284</ele>
        <time>2013-08-29T12:10:15Z</time>
      </trkpt>
      <trkpt lat="45.24912" lon="6.4676">
        <ele>1283.5</ele>
        <time>2013-08-29T12:10:16Z</time>
      </trkpt>
      <trkpt lat="45.24913" lon="6.46752">
        <ele>1284</ele>
        <time>2013-08-29T12:10:17Z</time>
      </trkpt>
      <trkpt lat="45.24916" lon="6.46742">
        <ele>1281.6</ele>
        <time>2013-08-29T12:10:18Z</time>
      </trkpt>
      <trkpt lat="45.24918" lon="6.46732">
        <ele>1283.5</ele>
        <time>2013-08-29T12:10:19Z</time>
      </trkpt>
      <trkpt lat="45.24917" lon="6.46721">
        <ele>1280.1</ele>
        <time>2013-08-29T12:10:20Z</time>
      </trkpt>
      <trkpt lat="45.24913" lon="6.46711">
        <ele>1281.1</ele>
        <time>2013-08-29T12:10:21Z</time>
      </trkpt>
      <trkpt lat="45.24909" lon="6.46702">
        <ele>1280.1</ele>
        <time>2013-08-29T12:10:22Z</time>
      </trkpt>
      <trkpt lat="45.24905" lon="6.46697">
        <ele>1278.7</ele>
        <time>2013-08-29T12:10:23Z</time>
      </trkpt>
      <trkpt lat="45.24896" lon="6.46687">
        <ele>1280.6</ele>
        <time>2013-08-29T12:10:24Z</time>
      </trkpt>
      <trkpt lat="45.24888" lon="6.4668">
        <ele>1277.7</ele>
        <time>2013-08-29T12:10:25Z</time>
      </trkpt>
      <trkpt lat="45.2488" lon="6.46674">
        <ele>1277.3</ele>
        <time>2013-08-29T12:10:26Z</time>
      </trkpt>
      <trkpt lat="45.24862" lon="6.46665">
        <ele>1275.8</ele>
        <time>2013-08-29T12:10:28Z</time>
      </trkpt>
      <trkpt lat="45.24837" lon="6.46642">
        <ele>1273.9</ele>
        <time>2013-08-29T12:10:31Z</time>
      </trkpt>
      <trkpt lat="45.2483" lon="6.46632">
        <ele>1273.9</ele>
        <time>2013-08-29T12:10:32Z</time>
      </trkpt>
      <trkpt lat="45.24824" lon="6.4662">
        <ele>1273.9</ele>
        <time>2013-08-29T12:10:33Z</time>
      </trkpt>
      <trkpt lat="45.2481" lon="6.46598">
        <ele>1271</ele>
        <time>2013-08-29T12:10:35Z</time>
      </trkpt>
      <trkpt lat="45.24795" lon="6.46579">
        <ele>1271.5</ele>
        <time>2013-08-29T12:10:37Z</time>
      </trkpt>
      <trkpt lat="45.24786" lon="6.46573">
        <ele>1269.6</ele>
        <time>2013-08-29T12:10:38Z</time>
      </trkpt>
      <trkpt lat="45.24778" lon="6.46568">
        <ele>1267.6</ele>
        <time>2013-08-29T12:10:39Z</time>
      </trkpt>
      <trkpt lat="45.24736" lon="6.46558">
        <ele>1265.2</ele>
        <time>2013-08-29T12:10:43Z</time>
      </trkpt>
      <trkpt lat="45.24686" lon="6.46527">
        <ele>1261.4</ele>
        <time>2013-08-29T12:10:48Z</time>
      </trkpt>
      <trkpt lat="45.24678" lon="6.46516">
        <ele>1260.4</ele>
        <time>2013-08-29T12:10:49Z</time>
      </trkpt>
      <trkpt lat="45.2467" lon="6.46504">
        <ele>1258.5</ele>
        <time>2013-08-29T12:10:50Z</time>
      </trkpt>
      <trkpt lat="45.24618" lon="6.4645">
        <ele>1254.2</ele>
        <time>2013-08-29T12:10:56Z</time>
      </trkpt>
      <trkpt lat="45.24584" lon="6.46416">
        <ele>1250.8</ele>
        <time>2013-08-29T12:11:00Z</time>
      </trkpt>
      <trkpt lat="45.24572" lon="6.46401">
        <ele>1248.9</ele>
        <time>2013-08-29T12:11:03Z</time>
      </trkpt>
      <trkpt lat="45.24571" lon="6.46398">
        <ele>1247.5</ele>
        <time>2013-08-29T12:11:04Z</time>
      </trkpt>
      <trkpt lat="45.2455" lon="6.46397">
        <ele>1244.6</ele>
        <time>2013-08-29T12:11:12Z</time>
      </trkpt>
      <trkpt lat="45.24541" lon="6.46394">
        <ele>1245</ele>
        <time>2013-08-29T12:11:14Z</time>
      </trkpt>
      <trkpt lat="45.24531" lon="6.46389">
        <ele>1244.1</ele>
        <time>2013-08-29T12:11:16Z</time>
      </trkpt>
      <trkpt lat="45.24522" lon="6.46387">
        <ele>1242.6</ele>
        <time>2013-08-29T12:11:18Z</time>
      </trkpt>
      <trkpt lat="45.24506" lon="6.46388">
        <ele>1240.7</ele>
        <time>2013-08-29T12:11:21Z</time>
      </trkpt>
      <trkpt lat="45.245" lon="6.4639">
        <ele>1240.7</ele>
        <time>2013-08-29T12:11:22Z</time>
      </trkpt>
      <trkpt lat="45.24494" lon="6.46394">
        <ele>1240.2</ele>
        <time>2013-08-29T12:11:23Z</time>
      </trkpt>
      <trkpt lat="45.24487" lon="6.46399">
        <ele>1239.8</ele>
        <time>2013-08-29T12:11:24Z</time>
      </trkpt>
      <trkpt lat="45.24482" lon="6.46404">
        <ele>1239.3</ele>
        <time>2013-08-29T12:11:25Z</time>
      </trkpt>
      <trkpt lat="45.24478" lon="6.46408">
        <ele>1238.8</ele>
        <time>2013-08-29T12:11:26Z</time>
      </trkpt>
      <trkpt lat="45.2446" lon="6.4643">
        <ele>1235.4</ele>
        <time>2013-08-29T12:11:32Z</time>
      </trkpt>
      <trkpt lat="45.2444" lon="6.46443">
        <ele>1232.1</ele>
        <time>2013-08-29T12:11:38Z</time>
      </trkpt>
      <trkpt lat="45.2443" lon="6.46451">
        <ele>1229.2</ele>
        <time>2013-08-29T12:11:43Z</time>
      </trkpt>
      <trkpt lat="45.24424" lon="6.46458">
        <ele>1226.8</ele>
        <time>2013-08-29T12:11:45Z</time>
      </trkpt>
      <trkpt lat="45.24414" lon="6.46469">
        <ele>1223.4</ele>
        <time>2013-08-29T12:11:49Z</time>
      </trkpt>
      <trkpt lat="45.24411" lon="6.46471">
        <ele>1222.9</ele>
        <time>2013-08-29T12:11:50Z</time>
      </trkpt>
      <trkpt lat="45.24409" lon="6.46473">
        <ele>1222</ele>
        <time>2013-08-29T12:11:51Z</time>
      </trkpt>
      <trkpt lat="45.24405" lon="6.46475">
        <ele>1222</ele>
        <time>2013-08-29T12:11:52Z</time>
      </trkpt>
      <trkpt lat="45.24402" lon="6.46476">
        <ele>1220.5</ele>
        <time>2013-08-29T12:11:53Z</time>
      </trkpt>
      <trkpt lat="45.24391" lon="6.46467">
        <ele>1217.7</ele>
        <time>2013-08-29T12:11:57Z</time>
      </trkpt>
      <trkpt lat="45.2439" lon="6.46466">
        <ele>1217.2</ele>
        <time>2013-08-29T12:11:58Z</time>
      </trkpt>
      <trkpt lat="45.24388" lon="6.46467">
        <ele>1216.2</ele>
        <time>2013-08-29T12:11:59Z</time>
      </trkpt>
      <trkpt lat="45.24388" lon="6.46471">
        <ele>1216.2</ele>
        <time>2013-08-29T12:12:00Z</time>
      </trkpt>
      <trkpt lat="45.2441" lon="6.46534">
        <ele>1215.2</ele>
        <time>2013-08-29T12:12:13Z</time>
      </trkpt>
      <trkpt lat="45.24423" lon="6.46544">
        <ele>1214.8</ele>
        <time>2013-08-29T12:12:16Z</time>
      </trkpt>
      <trkpt lat="45.24428" lon="6.46547">
        <ele>1215.2</ele>
        <time>2013-08-29T12:12:17Z</time>
      </trkpt>
      <trkpt lat="45.24498" lon="6.46578">
        <ele>1216.2</ele>
        <time>2013-08-29T12:12:30Z</time>
      </trkpt>
      <trkpt lat="45.24538" lon="6.46607">
        <ele>1219.1</ele>
        <time>2013-08-29T12:12:42Z</time>
      </trkpt>
      <trkpt lat="45.2456" lon="6.46648">
        <ele>1218.6</ele>
        <time>2013-08-29T12:12:53Z</time>
      </trkpt>
      <trkpt lat="45.24576" lon="6.46671">
        <ele>1217.2</ele>
        <time>2013-08-29T12:12:58Z</time>
      </trkpt>
      <trkpt lat="45.24576" lon="6.46677">
        <ele>1217.7</ele>
        <time>2013-08-29T12:12:59Z</time>
      </trkpt>
      <trkpt lat="45.24574" lon="6.46682">
        <ele>1217.7</ele>
        <time>2013-08-29T12:13:00Z</time>
      </trkpt>
      <trkpt lat="45.2457" lon="6.46685">
        <ele>1217.2</ele>
        <time>2013-08-29T12:13:01Z</time>
      </trkpt>
      <trkpt lat="45.24566" lon="6.46688">
        <ele>1217.7</ele>
        <time>2013-08-29T12:13:02Z</time>
      </trkpt>
      <trkpt lat="45.24562" lon="6.46689">
        <ele>1217.7</ele>
        <time>2013-08-29T12:13:03Z</time>
      </trkpt>
      <trkpt lat="45.24553" lon="6.46688">
        <ele>1218.1</ele>
        <time>2013-08-29T12:13:06Z</time>
      </trkpt>
      <trkpt lat="45.24551" lon="6.46686">
        <ele>1218.6</ele>
        <time>2013-08-29T12:13:07Z</time>
      </trkpt>
      <trkpt lat="45.24509" lon="6.46674">
        <ele>1221.5</ele>
        <time>2013-08-29T12:13:19Z</time>
      </trkpt>
      <trkpt lat="45.24457" lon="6.46672">
        <ele>1223.4</ele>
        <time>2013-08-29T12:13:32Z</time>
      </trkpt>
      <trkpt lat="45.24446" lon="6.46676">
        <ele>1223.9</ele>
        <time>2013-08-29T12:13:35Z</time>
      </trkpt>
      <trkpt lat="45.24382" lon="6.4672">
        <ele>1222.9</ele>
        <time>2013-08-29T12:13:52Z</time>
      </trkpt>
      <trkpt lat="45.24361" lon="6.4675">
        <ele>1222.5</ele>
        <time>2013-08-29T12:14:02Z</time>
      </trkpt>
      <trkpt lat="45.2436" lon="6.46753">
        <ele>1222.5</ele>
        <time>2013-08-29T12:14:13Z</time>
      </trkpt>
      <trkpt lat="45.2436" lon="6.46755">
        <ele>1221.5</ele>
        <time>2013-08-29T12:14:16Z</time>
      </trkpt>
      <trkpt lat="45.24359" lon="6.46757">
        <ele>1221.5</ele>
        <time>2013-08-29T12:14:17Z</time>
      </trkpt>
      <trkpt lat="45.24359" lon="6.4676">
        <ele>1221.5</ele>
        <time>2013-08-29T12:14:18Z</time>
      </trkpt>
      <trkpt lat="45.24351" lon="6.46821">
        <ele>1219.6</ele>
        <time>2013-08-29T12:14:27Z</time>
      </trkpt>
      <trkpt lat="45.2434" lon="6.46869">
        <ele>1216.2</ele>
        <time>2013-08-29T12:14:32Z</time>
      </trkpt>
      <trkpt lat="45.24335" lon="6.46878">
        <ele>1216.2</ele>
        <time>2013-08-29T12:14:33Z</time>
      </trkpt>
      <trkpt lat="45.24311" lon="6.46916">
        <ele>1212.8</ele>
        <time>2013-08-29T12:14:37Z</time>
      </trkpt>
      <trkpt lat="45.24299" lon="6.46933">
        <ele>1211.4</ele>
        <time>2013-08-29T12:14:39Z</time>
      </trkpt>
      <trkpt lat="45.24293" lon="6.46939">
        <ele>1210.9</ele>
        <time>2013-08-29T12:14:40Z</time>
      </trkpt>
      <trkpt lat="45.24287" lon="6.46943">
        <ele>1209.5</ele>
        <time>2013-08-29T12:14:41Z</time>
      </trkpt>
      <trkpt lat="45.2428" lon="6.46947">
        <ele>1209.5</ele>
        <time>2013-08-29T12:14:42Z</time>
      </trkpt>
      <trkpt lat="45.24273" lon="6.46947">
        <ele>1209</ele>
        <time>2013-08-29T12:14:43Z</time>
      </trkpt>
      <trkpt lat="45.24266" lon="6.46945">
        <ele>1208</ele>
        <time>2013-08-29T12:14:44Z</time>
      </trkpt>
      <trkpt lat="45.24259" lon="6.4694">
        <ele>1207.6</ele>
        <time>2013-08-29T12:14:45Z</time>
      </trkpt>
      <trkpt lat="45.24251" lon="6.46935">
        <ele>1207.1</ele>
        <time>2013-08-29T12:14:46Z</time>
      </trkpt>
      <trkpt lat="45.24209" lon="6.469">
        <ele>1203.7</ele>
        <time>2013-08-29T12:14:51Z</time>
      </trkpt>
      <trkpt lat="45.242" lon="6.46896">
        <ele>1202.8</ele>
        <time>2013-08-29T12:14:52Z</time>
      </trkpt>
      <trkpt lat="45.2419" lon="6.46894">
        <ele>1202.3</ele>
        <time>2013-08-29T12:14:53Z</time>
      </trkpt>
      <trkpt lat="45.24179" lon="6.46894">
        <ele>1201.3</ele>
        <time>2013-08-29T12:14:54Z</time>
      </trkpt>
      <trkpt lat="45.24135" lon="6.46903">
        <ele>1197.9</ele>
        <time>2013-08-29T12:14:58Z</time>
      </trkpt>
      <trkpt lat="45.24114" lon="6.46915">
        <ele>1195.5</ele>
        <time>2013-08-29T12:15:00Z</time>
      </trkpt>
      <trkpt lat="45.24105" lon="6.46924">
        <ele>1194.6</ele>
        <time>2013-08-29T12:15:01Z</time>
      </trkpt>
      <trkpt lat="45.24098" lon="6.46936">
        <ele>1193.6</ele>
        <time>2013-08-29T12:15:02Z</time>
      </trkpt>
      <trkpt lat="45.24092" lon="6.46949">
        <ele>1193.1</ele>
        <time>2013-08-29T12:15:03Z</time>
      </trkpt>
      <trkpt lat="45.24087" lon="6.46963">
        <ele>1192.2</ele>
        <time>2013-08-29T12:15:04Z</time>
      </trkpt>
      <trkpt lat="45.24081" lon="6.46975">
        <ele>1190.3</ele>
        <time>2013-08-29T12:15:05Z</time>
      </trkpt>
      <trkpt lat="45.24075" lon="6.46986">
        <ele>1189.8</ele>
        <time>2013-08-29T12:15:06Z</time>
      </trkpt>
      <trkpt lat="45.24067" lon="6.46996">
        <ele>1189.3</ele>
        <time>2013-08-29T12:15:07Z</time>
      </trkpt>
      <trkpt lat="45.24056" lon="6.46999">
        <ele>1188.3</ele>
        <time>2013-08-29T12:15:08Z</time>
      </trkpt>
      <trkpt lat="45.24046" lon="6.46998">
        <ele>1187.9</ele>
        <time>2013-08-29T12:15:09Z</time>
      </trkpt>
      <trkpt lat="45.24026" lon="6.46989">
        <ele>1186.4</ele>
        <time>2013-08-29T12:15:11Z</time>
      </trkpt>
      <trkpt lat="45.24005" lon="6.46976">
        <ele>1185</ele>
        <time>2013-08-29T12:15:13Z</time>
      </trkpt>
      <trkpt lat="45.23997" lon="6.46976">
        <ele>1184</ele>
        <time>2013-08-29T12:15:14Z</time>
      </trkpt>
      <trkpt lat="45.23989" lon="6.46983">
        <ele>1183.5</ele>
        <time>2013-08-29T12:15:15Z</time>
      </trkpt>
      <trkpt lat="45.23982" lon="6.46992">
        <ele>1183</ele>
        <time>2013-08-29T12:15:16Z</time>
      </trkpt>
      <trkpt lat="45.23976" lon="6.47002">
        <ele>1182.1</ele>
        <time>2013-08-29T12:15:17Z</time>
      </trkpt>
      <trkpt lat="45.23947" lon="6.47045">
        <ele>1178.2</ele>
        <time>2013-08-29T12:15:21Z</time>
      </trkpt>
      <trkpt lat="45.2393" lon="6.4706">
        <ele>1176.3</ele>
        <time>2013-08-29T12:15:23Z</time>
      </trkpt>
      <trkpt lat="45.23884" lon="6.47082">
        <ele>1172</ele>
        <time>2013-08-29T12:15:28Z</time>
      </trkpt>
      <trkpt lat="45.23875" lon="6.47089">
        <ele>1172</ele>
        <time>2013-08-29T12:15:29Z</time>
      </trkpt>
      <trkpt lat="45.23867" lon="6.47096">
        <ele>1170.1</ele>
        <time>2013-08-29T12:15:30Z</time>
      </trkpt>
      <trkpt lat="45.23858" lon="6.47106">
        <ele>1169.6</ele>
        <time>2013-08-29T12:15:31Z</time>
      </trkpt>
      <trkpt lat="45.23851" lon="6.47117">
        <ele>1168.6</ele>
        <time>2013-08-29T12:15:32Z</time>
      </trkpt>
      <trkpt lat="45.23828" lon="6.47147">
        <ele>1166.2</ele>
        <time>2013-08-29T12:15:35Z</time>
      </trkpt>
      <trkpt lat="45.23819" lon="6.47154">
        <ele>1165.3</ele>
        <time>2013-08-29T12:15:36Z</time>
      </trkpt>
      <trkpt lat="45.23801" lon="6.47166">
        <ele>1163.3</ele>
        <time>2013-08-29T12:15:38Z</time>
      </trkpt>
      <trkpt lat="45.23793" lon="6.47173">
        <ele>1163.8</ele>
        <time>2013-08-29T12:15:39Z</time>
      </trkpt>
      <trkpt lat="45.23785" lon="6.47179">
        <ele>1161.4</ele>
        <time>2013-08-29T12:15:40Z</time>
      </trkpt>
      <trkpt lat="45.23777" lon="6.47183">
        <ele>1160.5</ele>
        <time>2013-08-29T12:15:41Z</time>
      </trkpt>
      <trkpt lat="45.23768" lon="6.47187">
        <ele>1160</ele>
        <time>2013-08-29T12:15:42Z</time>
      </trkpt>
      <trkpt lat="45.23751" lon="6.47199">
        <ele>1158.1</ele>
        <time>2013-08-29T12:15:44Z</time>
      </trkpt>
      <trkpt lat="45.23743" lon="6.47206">
        <ele>1158.5</ele>
        <time>2013-08-29T12:15:45Z</time>
      </trkpt>
      <trkpt lat="45.23727" lon="6.47214">
        <ele>1157.6</ele>
        <time>2013-08-29T12:15:47Z</time>
      </trkpt>
      <trkpt lat="45.23718" lon="6.47214">
        <ele>1156.6</ele>
        <time>2013-08-29T12:15:48Z</time>
      </trkpt>
      <trkpt lat="45.23681" lon="6.47229">
        <ele>1153.2</ele>
        <time>2013-08-29T12:15:52Z</time>
      </trkpt>
      <trkpt lat="45.23671" lon="6.47234">
        <ele>1152.3</ele>
        <time>2013-08-29T12:15:53Z</time>
      </trkpt>
      <trkpt lat="45.23663" lon="6.47237">
        <ele>1151.8</ele>
        <time>2013-08-29T12:15:54Z</time>
      </trkpt>
      <trkpt lat="45.2365" lon="6.47238">
        <ele>1150.4</ele>
        <time>2013-08-29T12:15:55Z</time>
      </trkpt>
      <trkpt lat="45.2362" lon="6.4724">
        <ele>1148</ele>
        <time>2013-08-29T12:15:58Z</time>
      </trkpt>
      <trkpt lat="45.23612" lon="6.47242">
        <ele>1148</ele>
        <time>2013-08-29T12:15:59Z</time>
      </trkpt>
      <trkpt lat="45.23604" lon="6.47245">
        <ele>1147.5</ele>
        <time>2013-08-29T12:16:00Z</time>
      </trkpt>
      <trkpt lat="45.23598" lon="6.47249">
        <ele>1146.5</ele>
        <time>2013-08-29T12:16:01Z</time>
      </trkpt>
      <trkpt lat="45.23592" lon="6.47254">
        <ele>1146</ele>
        <time>2013-08-29T12:16:02Z</time>
      </trkpt>
      <trkpt lat="45.23587" lon="6.47258">
        <ele>1145.6</ele>
        <time>2013-08-29T12:16:03Z</time>
      </trkpt>
      <trkpt lat="45.23583" lon="6.47257">
        <ele>1145.1</ele>
        <time>2013-08-29T12:16:04Z</time>
      </trkpt>
      <trkpt lat="45.23579" lon="6.47255">
        <ele>1144.1</ele>
        <time>2013-08-29T12:16:05Z</time>
      </trkpt>
      <trkpt lat="45.23577" lon="6.47255">
        <ele>1144.1</ele>
        <time>2013-08-29T12:16:06Z</time>
      </trkpt>
      <trkpt lat="45.23577" lon="6.47257">
        <ele>1143.6</ele>
        <time>2013-08-29T12:16:07Z</time>
      </trkpt>
      <trkpt lat="45.23579" lon="6.47258">
        <ele>1143.1</ele>
        <time>2013-08-29T12:16:08Z</time>
      </trkpt>
      <trkpt lat="45.23586" lon="6.47255">
        <ele>1143.1</ele>
        <time>2013-08-29T12:16:10Z</time>
      </trkpt>
      <trkpt lat="45.23596" lon="6.47247">
        <ele>1142.2</ele>
        <time>2013-08-29T12:16:12Z</time>
      </trkpt>
      <trkpt lat="45.23641" lon="6.47218">
        <ele>1138.8</ele>
        <time>2013-08-29T12:16:20Z</time>
      </trkpt>
      <trkpt lat="45.23651" lon="6.4721">
        <ele>1138.3</ele>
        <time>2013-08-29T12:16:21Z</time>
      </trkpt>
      <trkpt lat="45.23669" lon="6.47192">
        <ele>1137.9</ele>
        <time>2013-08-29T12:16:23Z</time>
      </trkpt>
      <trkpt lat="45.23679" lon="6.47186">
        <ele>1136.9</ele>
        <time>2013-08-29T12:16:24Z</time>
      </trkpt>
      <trkpt lat="45.23688" lon="6.47179">
        <ele>1136.9</ele>
        <time>2013-08-29T12:16:25Z</time>
      </trkpt>
      <trkpt lat="45.23697" lon="6.47171">
        <ele>1136.9</ele>
        <time>2013-08-29T12:16:26Z</time>
      </trkpt>
      <trkpt lat="45.23706" lon="6.47161">
        <ele>1135.9</ele>
        <time>2013-08-29T12:16:27Z</time>
      </trkpt>
      <trkpt lat="45.23716" lon="6.4715">
        <ele>1135</ele>
        <time>2013-08-29T12:16:28Z</time>
      </trkpt>
      <trkpt lat="45.23723" lon="6.47139">
        <ele>1134.5</ele>
        <time>2013-08-29T12:16:29Z</time>
      </trkpt>
      <trkpt lat="45.23732" lon="6.47125">
        <ele>1133.1</ele>
        <time>2013-08-29T12:16:30Z</time>
      </trkpt>
      <trkpt lat="45.23739" lon="6.47113">
        <ele>1131.6</ele>
        <time>2013-08-29T12:16:31Z</time>
      </trkpt>
      <trkpt lat="45.23744" lon="6.47099">
        <ele>1130.7</ele>
        <time>2013-08-29T12:16:32Z</time>
      </trkpt>
      <trkpt lat="45.23748" lon="6.47083">
        <ele>1130.2</ele>
        <time>2013-08-29T12:16:33Z</time>
      </trkpt>
      <trkpt lat="45.23757" lon="6.47035">
        <ele>1126.8</ele>
        <time>2013-08-29T12:16:36Z</time>
      </trkpt>
      <trkpt lat="45.23769" lon="6.47005">
        <ele>1124.9</ele>
        <time>2013-08-29T12:16:38Z</time>
      </trkpt>
      <trkpt lat="45.23777" lon="6.46992">
        <ele>1124.4</ele>
        <time>2013-08-29T12:16:39Z</time>
      </trkpt>
      <trkpt lat="45.23794" lon="6.46969">
        <ele>1123</ele>
        <time>2013-08-29T12:16:41Z</time>
      </trkpt>
      <trkpt lat="45.23805" lon="6.46965">
        <ele>1122</ele>
        <time>2013-08-29T12:16:42Z</time>
      </trkpt>
      <trkpt lat="45.23816" lon="6.46964">
        <ele>1121.5</ele>
        <time>2013-08-29T12:16:43Z</time>
      </trkpt>
      <trkpt lat="45.23826" lon="6.46963">
        <ele>1121.5</ele>
        <time>2013-08-29T12:16:44Z</time>
      </trkpt>
      <trkpt lat="45.23834" lon="6.46963">
        <ele>1122.5</ele>
        <time>2013-08-29T12:16:45Z</time>
      </trkpt>
      <trkpt lat="45.23842" lon="6.46961">
        <ele>1121</ele>
        <time>2013-08-29T12:16:46Z</time>
      </trkpt>
      <trkpt lat="45.23886" lon="6.46934">
        <ele>1117.2</ele>
        <time>2013-08-29T12:16:52Z</time>
      </trkpt>
      <trkpt lat="45.23887" lon="6.46873">
        <ele>1114.3</ele>
        <time>2013-08-29T12:16:58Z</time>
      </trkpt>
      <trkpt lat="45.23868" lon="6.46869">
        <ele>1112.9</ele>
        <time>2013-08-29T12:17:01Z</time>
      </trkpt>
      <trkpt lat="45.23858" lon="6.46896">
        <ele>1111.9</ele>
        <time>2013-08-29T12:17:05Z</time>
      </trkpt>
      <trkpt lat="45.23849" lon="6.46923">
        <ele>1110.5</ele>
        <time>2013-08-29T12:17:08Z</time>
      </trkpt>
      <trkpt lat="45.23845" lon="6.46932">
        <ele>1110</ele>
        <time>2013-08-29T12:17:09Z</time>
      </trkpt>
      <trkpt lat="45.23822" lon="6.46969">
        <ele>1106.1</ele>
        <time>2013-08-29T12:17:14Z</time>
      </trkpt>
      <trkpt lat="45.23816" lon="6.46971">
        <ele>1105.7</ele>
        <time>2013-08-29T12:17:15Z</time>
      </trkpt>
      <trkpt lat="45.23809" lon="6.46972">
        <ele>1105.2</ele>
        <time>2013-08-29T12:17:16Z</time>
      </trkpt>
      <trkpt lat="45.23803" lon="6.46972">
        <ele>1104.2</ele>
        <time>2013-08-29T12:17:17Z</time>
      </trkpt>
      <trkpt lat="45.23796" lon="6.46974">
        <ele>1103.3</ele>
        <time>2013-08-29T12:17:18Z</time>
      </trkpt>
      <trkpt lat="45.23787" lon="6.46974">
        <ele>1102.3</ele>
        <time>2013-08-29T12:17:19Z</time>
      </trkpt>
      <trkpt lat="45.23778" lon="6.46977">
        <ele>1101.8</ele>
        <time>2013-08-29T12:17:20Z</time>
      </trkpt>
      <trkpt lat="45.23769" lon="6.46981">
        <ele>1101.3</ele>
        <time>2013-08-29T12:17:21Z</time>
      </trkpt>
      <trkpt lat="45.23761" lon="6.46986">
        <ele>1100.4</ele>
        <time>2013-08-29T12:17:22Z</time>
      </trkpt>
      <trkpt lat="45.23748" lon="6.46993">
        <ele>1098.9</ele>
        <time>2013-08-29T12:17:23Z</time>
      </trkpt>
      <trkpt lat="45.23706" lon="6.47031">
        <ele>1096.5</ele>
        <time>2013-08-29T12:17:27Z</time>
      </trkpt>
      <trkpt lat="45.23692" lon="6.47044">
        <ele>1095.1</ele>
        <time>2013-08-29T12:17:29Z</time>
      </trkpt>
      <trkpt lat="45.23681" lon="6.4706">
        <ele>1094.1</ele>
        <time>2013-08-29T12:17:30Z</time>
      </trkpt>
      <trkpt lat="45.23677" lon="6.47069">
        <ele>1094.1</ele>
        <time>2013-08-29T12:17:31Z</time>
      </trkpt>
      <trkpt lat="45.23669" lon="6.47088">
        <ele>1093.2</ele>
        <time>2013-08-29T12:17:33Z</time>
      </trkpt>
      <trkpt lat="45.23665" lon="6.47093">
        <ele>1092.7</ele>
        <time>2013-08-29T12:17:34Z</time>
      </trkpt>
      <trkpt lat="45.23661" lon="6.47097">
        <ele>1092.2</ele>
        <time>2013-08-29T12:17:35Z</time>
      </trkpt>
      <trkpt lat="45.23657" lon="6.47098">
        <ele>1091.7</ele>
        <time>2013-08-29T12:17:36Z</time>
      </trkpt>
      <trkpt lat="45.2365" lon="6.47096">
        <ele>1090.8</ele>
        <time>2013-08-29T12:17:37Z</time>
      </trkpt>
      <trkpt lat="45.23643" lon="6.47093">
        <ele>1090.3</ele>
        <time>2013-08-29T12:17:38Z</time>
      </trkpt>
      <trkpt lat="45.23634" lon="6.4709">
        <ele>1089.8</ele>
        <time>2013-08-29T12:17:39Z</time>
      </trkpt>
      <trkpt lat="45.23625" lon="6.47088">
        <ele>1089.3</ele>
        <time>2013-08-29T12:17:40Z</time>
      </trkpt>
      <trkpt lat="45.23607" lon="6.47089">
        <ele>1087.9</ele>
        <time>2013-08-29T12:17:42Z</time>
      </trkpt>
      <trkpt lat="45.236" lon="6.47092">
        <ele>1087.4</ele>
        <time>2013-08-29T12:17:43Z</time>
      </trkpt>
      <trkpt lat="45.23586" lon="6.47098">
        <ele>1085</ele>
        <time>2013-08-29T12:17:45Z</time>
      </trkpt>
      <trkpt lat="45.2358" lon="6.47096">
        <ele>1084.5</ele>
        <time>2013-08-29T12:17:46Z</time>
      </trkpt>
      <trkpt lat="45.23576" lon="6.4709">
        <ele>1084</ele>
        <time>2013-08-29T12:17:47Z</time>
      </trkpt>
      <trkpt lat="45.23575" lon="6.47082">
        <ele>1083.5</ele>
        <time>2013-08-29T12:17:48Z</time>
      </trkpt>
      <trkpt lat="45.23575" lon="6.47068">
        <ele>1083.1</ele>
        <time>2013-08-29T12:17:50Z</time>
      </trkpt>
      <trkpt lat="45.23579" lon="6.47064">
        <ele>1083.1</ele>
        <time>2013-08-29T12:17:51Z</time>
      </trkpt>
      <trkpt lat="45.23584" lon="6.47061">
        <ele>1082.6</ele>
        <time>2013-08-29T12:17:52Z</time>
      </trkpt>
      <trkpt lat="45.23591" lon="6.47059">
        <ele>1081.6</ele>
        <time>2013-08-29T12:17:53Z</time>
      </trkpt>
      <trkpt lat="45.23597" lon="6.47058">
        <ele>1081.6</ele>
        <time>2013-08-29T12:17:54Z</time>
      </trkpt>
      <trkpt lat="45.23628" lon="6.47051">
        <ele>1079.7</ele>
        <time>2013-08-29T12:17:58Z</time>
      </trkpt>
      <trkpt lat="45.2365" lon="6.47039">
        <ele>1078.3</ele>
        <time>2013-08-29T12:18:01Z</time>
      </trkpt>
      <trkpt lat="45.23656" lon="6.47026">
        <ele>1076.3</ele>
        <time>2013-08-29T12:18:03Z</time>
      </trkpt>
      <trkpt lat="45.23657" lon="6.47015">
        <ele>1075.4</ele>
        <time>2013-08-29T12:18:04Z</time>
      </trkpt>
      <trkpt lat="45.23659" lon="6.47002">
        <ele>1074.9</ele>
        <time>2013-08-29T12:18:05Z</time>
      </trkpt>
      <trkpt lat="45.23663" lon="6.46989">
        <ele>1073.9</ele>
        <time>2013-08-29T12:18:06Z</time>
      </trkpt>
      <trkpt lat="45.23668" lon="6.46976">
        <ele>1073.5</ele>
        <time>2013-08-29T12:18:07Z</time>
      </trkpt>
      <trkpt lat="45.23693" lon="6.46927">
        <ele>1069.6</ele>
        <time>2013-08-29T12:18:11Z</time>
      </trkpt>
      <trkpt lat="45.23698" lon="6.46912">
        <ele>1069.1</ele>
        <time>2013-08-29T12:18:12Z</time>
      </trkpt>
      <trkpt lat="45.23702" lon="6.46883">
        <ele>1068.2</ele>
        <time>2013-08-29T12:18:14Z</time>
      </trkpt>
      <trkpt lat="45.23698" lon="6.46829">
        <ele>1065.3</ele>
        <time>2013-08-29T12:18:20Z</time>
      </trkpt>
      <trkpt lat="45.23695" lon="6.46826">
        <ele>1064.3</ele>
        <time>2013-08-29T12:18:21Z</time>
      </trkpt>
      <trkpt lat="45.23677" lon="6.46813">
        <ele>1062.9</ele>
        <time>2013-08-29T12:18:23Z</time>
      </trkpt>
      <trkpt lat="45.2366" lon="6.46803">
        <ele>1061.4</ele>
        <time>2013-08-29T12:18:25Z</time>
      </trkpt>
      <trkpt lat="45.23637" lon="6.46777">
        <ele>1059.5</ele>
        <time>2013-08-29T12:18:28Z</time>
      </trkpt>
      <trkpt lat="45.23617" lon="6.46731">
        <ele>1056.6</ele>
        <time>2013-08-29T12:18:32Z</time>
      </trkpt>
      <trkpt lat="45.23608" lon="6.46682">
        <ele>1054.2</ele>
        <time>2013-08-29T12:18:36Z</time>
      </trkpt>
      <trkpt lat="45.23603" lon="6.46667">
        <ele>1052.3</ele>
        <time>2013-08-29T12:18:38Z</time>
      </trkpt>
      <trkpt lat="45.236" lon="6.46663">
        <ele>1051.8</ele>
        <time>2013-08-29T12:18:39Z</time>
      </trkpt>
      <trkpt lat="45.23597" lon="6.46664">
        <ele>1051.3</ele>
        <time>2013-08-29T12:18:40Z</time>
      </trkpt>
      <trkpt lat="45.23591" lon="6.4668">
        <ele>1050.9</ele>
        <time>2013-08-29T12:18:42Z</time>
      </trkpt>
      <trkpt lat="45.23584" lon="6.46711">
        <ele>1049.4</ele>
        <time>2013-08-29T12:18:45Z</time>
      </trkpt>
      <trkpt lat="45.23583" lon="6.46723">
        <ele>1048.9</ele>
        <time>2013-08-29T12:18:46Z</time>
      </trkpt>
      <trkpt lat="45.23582" lon="6.46734">
        <ele>1048.5</ele>
        <time>2013-08-29T12:18:47Z</time>
      </trkpt>
      <trkpt lat="45.23583" lon="6.46746">
        <ele>1048</ele>
        <time>2013-08-29T12:18:48Z</time>
      </trkpt>
      <trkpt lat="45.23585" lon="6.46757">
        <ele>1047.5</ele>
        <time>2013-08-29T12:18:49Z</time>
      </trkpt>
      <trkpt lat="45.23589" lon="6.46769">
        <ele>1046.5</ele>
        <time>2013-08-29T12:18:50Z</time>
      </trkpt>
      <trkpt lat="45.23592" lon="6.46781">
        <ele>1046.5</ele>
        <time>2013-08-29T12:18:51Z</time>
      </trkpt>
      <trkpt lat="45.23606" lon="6.46831">
        <ele>1044.6</ele>
        <time>2013-08-29T12:18:55Z</time>
      </trkpt>
      <trkpt lat="45.23607" lon="6.46844">
        <ele>1043.7</ele>
        <time>2013-08-29T12:18:56Z</time>
      </trkpt>
      <trkpt lat="45.23606" lon="6.46855">
        <ele>1043.7</ele>
        <time>2013-08-29T12:18:57Z</time>
      </trkpt>
      <trkpt lat="45.23603" lon="6.46864">
        <ele>1043.2</ele>
        <time>2013-08-29T12:18:58Z</time>
      </trkpt>
      <trkpt lat="45.23598" lon="6.46873">
        <ele>1042.2</ele>
        <time>2013-08-29T12:18:59Z</time>
      </trkpt>
      <trkpt lat="45.23591" lon="6.46881">
        <ele>1041.7</ele>
        <time>2013-08-29T12:19:00Z</time>
      </trkpt>
      <trkpt lat="45.23584" lon="6.46888">
        <ele>1041.7</ele>
        <time>2013-08-29T12:19:01Z</time>
      </trkpt>
      <trkpt lat="45.23578" lon="6.46896">
        <ele>1041.3</ele>
        <time>2013-08-29T12:19:02Z</time>
      </trkpt>
      <trkpt lat="45.23572" lon="6.46905">
        <ele>1040.8</ele>
        <time>2013-08-29T12:19:03Z</time>
      </trkpt>
      <trkpt lat="45.23566" lon="6.46916">
        <ele>1039.8</ele>
        <time>2013-08-29T12:19:04Z</time>
      </trkpt>
      <trkpt lat="45.23557" lon="6.46938">
        <ele>1039.8</ele>
        <time>2013-08-29T12:19:06Z</time>
      </trkpt>
      <trkpt lat="45.23551" lon="6.46947">
        <ele>1039.3</ele>
        <time>2013-08-29T12:19:07Z</time>
      </trkpt>
      <trkpt lat="45.23544" lon="6.46954">
        <ele>1038.8</ele>
        <time>2013-08-29T12:19:08Z</time>
      </trkpt>
      <trkpt lat="45.23535" lon="6.46957">
        <ele>1037.9</ele>
        <time>2013-08-29T12:19:09Z</time>
      </trkpt>
      <trkpt lat="45.23527" lon="6.46958">
        <ele>1037.4</ele>
        <time>2013-08-29T12:19:10Z</time>
      </trkpt>
      <trkpt lat="45.23522" lon="6.46958">
        <ele>1037.4</ele>
        <time>2013-08-29T12:19:11Z</time>
      </trkpt>
      <trkpt lat="45.23492" lon="6.4696">
        <ele>1035</ele>
        <time>2013-08-29T12:19:14Z</time>
      </trkpt>
      <trkpt lat="45.23437" lon="6.46964">
        <ele>1031.6</ele>
        <time>2013-08-29T12:19:20Z</time>
      </trkpt>
      <trkpt lat="45.23399" lon="6.46965">
        <ele>1029.2</ele>
        <time>2013-08-29T12:19:24Z</time>
      </trkpt>
      <trkpt lat="45.23358" lon="6.4697">
        <ele>1025.9</ele>
        <time>2013-08-29T12:19:29Z</time>
      </trkpt>
      <trkpt lat="45.23353" lon="6.46971">
        <ele>1025.9</ele>
        <time>2013-08-29T12:19:30Z</time>
      </trkpt>
      <trkpt lat="45.23344" lon="6.46973">
        <ele>1025.4</ele>
        <time>2013-08-29T12:19:38Z</time>
      </trkpt>
      <trkpt lat="45.23339" lon="6.4697">
        <ele>1024.9</ele>
        <time>2013-08-29T12:19:43Z</time>
      </trkpt>
      <trkpt lat="45.23338" lon="6.46969">
        <ele>1024.9</ele>
        <time>2013-08-29T12:19:44Z</time>
      </trkpt>
      <trkpt lat="45.2333" lon="6.46968">
        <ele>1024.9</ele>
        <time>2013-08-29T12:19:58Z</time>
      </trkpt>
      <trkpt lat="45.2333" lon="6.46964">
        <ele>1024.9</ele>
        <time>2013-08-29T12:20:02Z</time>
      </trkpt>
      <trkpt lat="45.2333" lon="6.4696">
        <ele>1024.4</ele>
        <time>2013-08-29T12:20:03Z</time>
      </trkpt>
      <trkpt lat="45.23333" lon="6.46945">
        <ele>1020.6</ele>
        <time>2013-08-29T12:20:06Z</time>
      </trkpt>
      <trkpt lat="45.23335" lon="6.46942">
        <ele>1020.6</ele>
        <time>2013-08-29T12:20:07Z</time>
      </trkpt>
      <trkpt lat="45.23346" lon="6.46936">
        <ele>1018.2</ele>
        <time>2013-08-29T12:20:10Z</time>
      </trkpt>
      <trkpt lat="45.2336" lon="6.4693">
        <ele>1013.9</ele>
        <time>2013-08-29T12:20:13Z</time>
      </trkpt>
      <trkpt lat="45.23366" lon="6.46926">
        <ele>1012.4</ele>
        <time>2013-08-29T12:20:14Z</time>
      </trkpt>
      <trkpt lat="45.23375" lon="6.46918">
        <ele>1011</ele>
        <time>2013-08-29T12:20:17Z</time>
      </trkpt>
      <trkpt lat="45.23372" lon="6.46918">
        <ele>1011.4</ele>
        <time>2013-08-29T12:20:33Z</time>
      </trkpt>
      <trkpt lat="45.23369" lon="6.46914">
        <ele>1011.9</ele>
        <time>2013-08-29T12:20:42Z</time>
      </trkpt>
      <trkpt lat="45.23368" lon="6.46903">
        <ele>1011</ele>
        <time>2013-08-29T12:20:46Z</time>
      </trkpt>
      <trkpt lat="45.23363" lon="6.46889">
        <ele>1008.1</ele>
        <time>2013-08-29T12:20:50Z</time>
      </trkpt>
      <trkpt lat="45.23361" lon="6.46887">
        <ele>1007.6</ele>
        <time>2013-08-29T12:20:51Z</time>
      </trkpt>
      <trkpt lat="45.23358" lon="6.46887">
        <ele>1007.1</ele>
        <time>2013-08-29T12:20:53Z</time>
      </trkpt>
      <trkpt lat="45.23341" lon="6.46877">
        <ele>1003.3</ele>
        <time>2013-08-29T12:21:02Z</time>
      </trkpt>
      <trkpt lat="45.23337" lon="6.46878">
        <ele>1002.3</ele>
        <time>2013-08-29T12:21:04Z</time>
      </trkpt>
      <trkpt lat="45.23319" lon="6.46884">
        <ele>1001.4</ele>
        <time>2013-08-29T12:21:19Z</time>
      </trkpt>
      <trkpt lat="45.23316" lon="6.46883">
        <ele>1000.9</ele>
        <time>2013-08-29T12:21:24Z</time>
      </trkpt>
      <trkpt lat="45.23313" lon="6.46874">
        <ele>999</ele>
        <time>2013-08-29T12:21:28Z</time>
      </trkpt>
      <trkpt lat="45.23309" lon="6.46876">
        <ele>997.5</ele>
        <time>2013-08-29T12:21:40Z</time>
      </trkpt>
      <trkpt lat="45.2331" lon="6.46881">
        <ele>996.1</ele>
        <time>2013-08-29T12:21:49Z</time>
      </trkpt>
      <trkpt lat="45.23315" lon="6.46887">
        <ele>994.1</ele>
        <time>2013-08-29T12:21:55Z</time>
      </trkpt>
      <trkpt lat="45.23307" lon="6.46883">
        <ele>991.7</ele>
        <time>2013-08-29T12:22:08Z</time>
      </trkpt>
      <trkpt lat="45.23303" lon="6.46879">
        <ele>990.3</ele>
        <time>2013-08-29T12:22:20Z</time>
      </trkpt>
      <trkpt lat="45.23295" lon="6.46871">
        <ele>989.3</ele>
        <time>2013-08-29T12:22:33Z</time>
      </trkpt>
      <trkpt lat="45.23289" lon="6.46863">
        <ele>987.9</ele>
        <time>2013-08-29T12:22:51Z</time>
      </trkpt>
      <trkpt lat="45.23286" lon="6.46847">
        <ele>986.9</ele>
        <time>2013-08-29T12:23:08Z</time>
      </trkpt>
      <trkpt lat="45.23282" lon="6.46845">
        <ele>986.5</ele>
        <time>2013-08-29T12:23:25Z</time>
      </trkpt>
      <trkpt lat="45.23281" lon="6.46845">
        <ele>980.7</ele>
        <time>2013-08-29T12:23:36Z</time>
      </trkpt>
      <trkpt lat="45.23282" lon="6.46845">
        <ele>983.1</ele>
        <time>2013-08-29T12:23:37Z</time>
      </trkpt>
      <trkpt lat="45.23281" lon="6.46844">
        <ele>986.5</ele>
        <time>2013-08-29T12:23:38Z</time>
      </trkpt>
      <trkpt lat="45.23281" lon="6.46841">
        <ele>984.5</ele>
        <time>2013-08-29T12:23:41Z</time>
      </trkpt>
      <trkpt lat="45.23279" lon="6.46839">
        <ele>977.8</ele>
        <time>2013-08-29T12:23:44Z</time>
      </trkpt>
      <trkpt lat="45.2328" lon="6.46838">
        <ele>983.6</ele>
        <time>2013-08-29T12:23:45Z</time>
      </trkpt>
      <trkpt lat="45.23286" lon="6.46837">
        <ele>984.5</ele>
        <time>2013-08-29T12:24:03Z</time>
      </trkpt>
      <trkpt lat="45.23282" lon="6.46838">
        <ele>985</ele>
        <time>2013-08-29T12:24:21Z</time>
      </trkpt>
      <trkpt lat="45.23277" lon="6.46833">
        <ele>983.1</ele>
        <time>2013-08-29T12:24:32Z</time>
      </trkpt>
      <trkpt lat="45.23276" lon="6.46833">
        <ele>983.1</ele>
        <time>2013-08-29T12:24:35Z</time>
      </trkpt>
      <trkpt lat="45.23265" lon="6.46822">
        <ele>979.7</ele>
        <time>2013-08-29T12:24:42Z</time>
      </trkpt>
      <trkpt lat="45.2326" lon="6.46819">
        <ele>977.8</ele>
        <time>2013-08-29T12:24:45Z</time>
      </trkpt>
      <trkpt lat="45.23255" lon="6.4681">
        <ele>978.3</ele>
        <time>2013-08-29T12:25:00Z</time>
      </trkpt>
      <trkpt lat="45.23248" lon="6.46796">
        <ele>975.9</ele>
        <time>2013-08-29T12:25:11Z</time>
      </trkpt>
      <trkpt lat="45.23246" lon="6.46804">
        <ele>973</ele>
        <time>2013-08-29T12:25:23Z</time>
      </trkpt>
      <trkpt lat="45.23242" lon="6.46799">
        <ele>970.1</ele>
        <time>2013-08-29T12:25:35Z</time>
      </trkpt>
      <trkpt lat="45.23241" lon="6.46798">
        <ele>969.2</ele>
        <time>2013-08-29T12:25:45Z</time>
      </trkpt>
      <trkpt lat="45.23238" lon="6.46789">
        <ele>967.2</ele>
        <time>2013-08-29T12:25:56Z</time>
      </trkpt>
      <trkpt lat="45.23234" lon="6.46791">
        <ele>963.9</ele>
        <time>2013-08-29T12:26:08Z</time>
      </trkpt>
      <trkpt lat="45.23229" lon="6.46789">
        <ele>961</ele>
        <time>2013-08-29T12:26:19Z</time>
      </trkpt>
      <trkpt lat="45.23223" lon="6.46788">
        <ele>958.6</ele>
        <time>2013-08-29T12:26:28Z</time>
      </trkpt>
      <trkpt lat="45.2322" lon="6.4679">
        <ele>956.2</ele>
        <time>2013-08-29T12:26:32Z</time>
      </trkpt>
      <trkpt lat="45.23212" lon="6.46786">
        <ele>955.7</ele>
        <time>2013-08-29T12:26:36Z</time>
      </trkpt>
      <trkpt lat="45.23212" lon="6.46776">
        <ele>952.8</ele>
        <time>2013-08-29T12:26:44Z</time>
      </trkpt>
      <trkpt lat="45.23205" lon="6.46778">
        <ele>950.9</ele>
        <time>2013-08-29T12:26:49Z</time>
      </trkpt>
      <trkpt lat="45.232" lon="6.46769">
        <ele>949</ele>
        <time>2013-08-29T12:26:53Z</time>
      </trkpt>
      <trkpt lat="45.23184" lon="6.46764">
        <ele>945.1</ele>
        <time>2013-08-29T12:27:00Z</time>
      </trkpt>
      <trkpt lat="45.23183" lon="6.46766">
        <ele>945.1</ele>
        <time>2013-08-29T12:27:01Z</time>
      </trkpt>
      <trkpt lat="45.23173" lon="6.46763">
        <ele>942.7</ele>
        <time>2013-08-29T12:27:14Z</time>
      </trkpt>
      <trkpt lat="45.23158" lon="6.46748">
        <ele>940.8</ele>
        <time>2013-08-29T12:27:20Z</time>
      </trkpt>
      <trkpt lat="45.2315" lon="6.46742">
        <ele>937.4</ele>
        <time>2013-08-29T12:27:28Z</time>
      </trkpt>
      <trkpt lat="45.2315" lon="6.46743">
        <ele>936.9</ele>
        <time>2013-08-29T12:27:29Z</time>
      </trkpt>
      <trkpt lat="45.2315" lon="6.46744">
        <ele>936.9</ele>
        <time>2013-08-29T12:27:33Z</time>
      </trkpt>
      <trkpt lat="45.23149" lon="6.46755">
        <ele>934.1</ele>
        <time>2013-08-29T12:27:46Z</time>
      </trkpt>
      <trkpt lat="45.23146" lon="6.46755">
        <ele>934.1</ele>
        <time>2013-08-29T12:27:50Z</time>
      </trkpt>
      <trkpt lat="45.23137" lon="6.4674">
        <ele>931.7</ele>
        <time>2013-08-29T12:28:01Z</time>
      </trkpt>
      <trkpt lat="45.23136" lon="6.4674">
        <ele>931.2</ele>
        <time>2013-08-29T12:28:03Z</time>
      </trkpt>
      <trkpt lat="45.23132" lon="6.46733">
        <ele>929.7</ele>
        <time>2013-08-29T12:28:07Z</time>
      </trkpt>
      <trkpt lat="45.23128" lon="6.46728">
        <ele>928.8</ele>
        <time>2013-08-29T12:28:09Z</time>
      </trkpt>
      <trkpt lat="45.23117" lon="6.46714">
        <ele>924.9</ele>
        <time>2013-08-29T12:28:17Z</time>
      </trkpt>
      <trkpt lat="45.2311" lon="6.46709">
        <ele>924</ele>
        <time>2013-08-29T12:28:25Z</time>
      </trkpt>
      <trkpt lat="45.23104" lon="6.46709">
        <ele>920.1</ele>
        <time>2013-08-29T12:28:36Z</time>
      </trkpt>
      <trkpt lat="45.23102" lon="6.46705">
        <ele>919.6</ele>
        <time>2013-08-29T12:28:38Z</time>
      </trkpt>
      <trkpt lat="45.231" lon="6.467">
        <ele>918.7</ele>
        <time>2013-08-29T12:28:42Z</time>
      </trkpt>
      <trkpt lat="45.23096" lon="6.46698">
        <ele>918.7</ele>
        <time>2013-08-29T12:28:46Z</time>
      </trkpt>
      <trkpt lat="45.23088" lon="6.4669">
        <ele>917.7</ele>
        <time>2013-08-29T12:28:55Z</time>
      </trkpt>
      <trkpt lat="45.23086" lon="6.46698">
        <ele>917.2</ele>
        <time>2013-08-29T12:29:12Z</time>
      </trkpt>
      <trkpt lat="45.2309" lon="6.46689">
        <ele>916.8</ele>
        <time>2013-08-29T12:29:37Z</time>
      </trkpt>
      <trkpt lat="45.23086" lon="6.46699">
        <ele>917.7</ele>
        <time>2013-08-29T12:29:48Z</time>
      </trkpt>
      <trkpt lat="45.23059" lon="6.46711">
        <ele>918.7</ele>
        <time>2013-08-29T12:29:59Z</time>
      </trkpt>
      <trkpt lat="45.23034" lon="6.46727">
        <ele>919.2</ele>
        <time>2013-08-29T12:30:12Z</time>
      </trkpt>
      <trkpt lat="45.2301" lon="6.46738">
        <ele>920.1</ele>
        <time>2013-08-29T12:30:24Z</time>
      </trkpt>
      <trkpt lat="45.22977" lon="6.46745">
        <ele>922</ele>
        <time>2013-08-29T12:30:37Z</time>
      </trkpt>
      <trkpt lat="45.22938" lon="6.46731">
        <ele>919.6</ele>
        <time>2013-08-29T12:30:46Z</time>
      </trkpt>
      <trkpt lat="45.22912" lon="6.46726">
        <ele>919.2</ele>
        <time>2013-08-29T12:30:50Z</time>
      </trkpt>
      <trkpt lat="45.22842" lon="6.46747">
        <ele>921.1</ele>
        <time>2013-08-29T12:31:02Z</time>
      </trkpt>
      <trkpt lat="45.22787" lon="6.46769">
        <ele>922.5</ele>
        <time>2013-08-29T12:31:16Z</time>
      </trkpt>
      <trkpt lat="45.22764" lon="6.46779">
        <ele>923</ele>
        <time>2013-08-29T12:31:21Z</time>
      </trkpt>
      <trkpt lat="45.22758" lon="6.46779">
        <ele>922.5</ele>
        <time>2013-08-29T12:31:22Z</time>
      </trkpt>
      <trkpt lat="45.22708" lon="6.46784">
        <ele>919.6</ele>
        <time>2013-08-29T12:31:29Z</time>
      </trkpt>
      <trkpt lat="45.22685" lon="6.46786">
        <ele>918.7</ele>
        <time>2013-08-29T12:31:32Z</time>
      </trkpt>
      <trkpt lat="45.22678" lon="6.46788">
        <ele>918.7</ele>
        <time>2013-08-29T12:31:33Z</time>
      </trkpt>
      <trkpt lat="45.22576" lon="6.46835">
        <ele>916.8</ele>
        <time>2013-08-29T12:31:47Z</time>
      </trkpt>
      <trkpt lat="45.22563" lon="6.46843">
        <ele>917.2</ele>
        <time>2013-08-29T12:31:49Z</time>
      </trkpt>
      <trkpt lat="45.2255" lon="6.4685">
        <ele>916.8</ele>
        <time>2013-08-29T12:31:51Z</time>
      </trkpt>
      <trkpt lat="45.22544" lon="6.46857">
        <ele>915.8</ele>
        <time>2013-08-29T12:31:52Z</time>
      </trkpt>
      <trkpt lat="45.2254" lon="6.46866">
        <ele>914.8</ele>
        <time>2013-08-29T12:31:53Z</time>
      </trkpt>
      <trkpt lat="45.22537" lon="6.46877">
        <ele>915.3</ele>
        <time>2013-08-29T12:31:54Z</time>
      </trkpt>
      <trkpt lat="45.22535" lon="6.46887">
        <ele>914.8</ele>
        <time>2013-08-29T12:31:55Z</time>
      </trkpt>
      <trkpt lat="45.22531" lon="6.46897">
        <ele>914.4</ele>
        <time>2013-08-29T12:31:56Z</time>
      </trkpt>
      <trkpt lat="45.22527" lon="6.46907">
        <ele>913.4</ele>
        <time>2013-08-29T12:31:57Z</time>
      </trkpt>
      <trkpt lat="45.22521" lon="6.46916">
        <ele>913.4</ele>
        <time>2013-08-29T12:31:58Z</time>
      </trkpt>
      <trkpt lat="45.22516" lon="6.46925">
        <ele>912.9</ele>
        <time>2013-08-29T12:31:59Z</time>
      </trkpt>
      <trkpt lat="45.22509" lon="6.46933">
        <ele>912.4</ele>
        <time>2013-08-29T12:32:00Z</time>
      </trkpt>
      <trkpt lat="45.22482" lon="6.46966">
        <ele>910.5</ele>
        <time>2013-08-29T12:32:04Z</time>
      </trkpt>
      <trkpt lat="45.22473" lon="6.46971">
        <ele>909.5</ele>
        <time>2013-08-29T12:32:05Z</time>
      </trkpt>
      <trkpt lat="45.22407" lon="6.47013">
        <ele>903.8</ele>
        <time>2013-08-29T12:32:13Z</time>
      </trkpt>
      <trkpt lat="45.22396" lon="6.47021">
        <ele>909.1</ele>
        <time>2013-08-29T12:32:14Z</time>
      </trkpt>
      <trkpt lat="45.22388" lon="6.47028">
        <ele>907.1</ele>
        <time>2013-08-29T12:32:15Z</time>
      </trkpt>
      <trkpt lat="45.22372" lon="6.47043">
        <ele>905.2</ele>
        <time>2013-08-29T12:32:17Z</time>
      </trkpt>
      <trkpt lat="45.22323" lon="6.47122">
        <ele>902.8</ele>
        <time>2013-08-29T12:32:25Z</time>
      </trkpt>
      <trkpt lat="45.22319" lon="6.47133">
        <ele>901.9</ele>
        <time>2013-08-29T12:32:26Z</time>
      </trkpt>
      <trkpt lat="45.22316" lon="6.47144">
        <ele>901.9</ele>
        <time>2013-08-29T12:32:27Z</time>
      </trkpt>
      <trkpt lat="45.22281" lon="6.47214">
        <ele>899.5</ele>
        <time>2013-08-29T12:32:34Z</time>
      </trkpt>
      <trkpt lat="45.22275" lon="6.47221">
        <ele>899.5</ele>
        <time>2013-08-29T12:32:35Z</time>
      </trkpt>
      <trkpt lat="45.22257" lon="6.47243">
        <ele>899</ele>
        <time>2013-08-29T12:32:38Z</time>
      </trkpt>
      <trkpt lat="45.22254" lon="6.47253">
        <ele>899</ele>
        <time>2013-08-29T12:32:39Z</time>
      </trkpt>
      <trkpt lat="45.2225" lon="6.47263">
        <ele>898</ele>
        <time>2013-08-29T12:32:40Z</time>
      </trkpt>
      <trkpt lat="45.22247" lon="6.47274">
        <ele>898</ele>
        <time>2013-08-29T12:32:41Z</time>
      </trkpt>
      <trkpt lat="45.22243" lon="6.47285">
        <ele>898</ele>
        <time>2013-08-29T12:32:42Z</time>
      </trkpt>
      <trkpt lat="45.22241" lon="6.47296">
        <ele>897.1</ele>
        <time>2013-08-29T12:32:43Z</time>
      </trkpt>
      <trkpt lat="45.22236" lon="6.47321">
        <ele>896.1</ele>
        <time>2013-08-29T12:32:45Z</time>
      </trkpt>
      <trkpt lat="45.22207" lon="6.47422">
        <ele>892.7</ele>
        <time>2013-08-29T12:32:54Z</time>
      </trkpt>
      <trkpt lat="45.22206" lon="6.47434">
        <ele>892.7</ele>
        <time>2013-08-29T12:32:55Z</time>
      </trkpt>
      <trkpt lat="45.22205" lon="6.47471">
        <ele>891.3</ele>
        <time>2013-08-29T12:32:58Z</time>
      </trkpt>
      <trkpt lat="45.22203" lon="6.47484">
        <ele>891.3</ele>
        <time>2013-08-29T12:32:59Z</time>
      </trkpt>
      <trkpt lat="45.22201" lon="6.47496">
        <ele>890.8</ele>
        <time>2013-08-29T12:33:00Z</time>
      </trkpt>
      <trkpt lat="45.22198" lon="6.47507">
        <ele>890.8</ele>
        <time>2013-08-29T12:33:01Z</time>
      </trkpt>
      <trkpt lat="45.22187" lon="6.47541">
        <ele>888.9</ele>
        <time>2013-08-29T12:33:04Z</time>
      </trkpt>
      <trkpt lat="45.22177" lon="6.47562">
        <ele>887.9</ele>
        <time>2013-08-29T12:33:06Z</time>
      </trkpt>
      <trkpt lat="45.22152" lon="6.47597">
        <ele>886</ele>
        <time>2013-08-29T12:33:10Z</time>
      </trkpt>
      <trkpt lat="45.22146" lon="6.47607">
        <ele>885</ele>
        <time>2013-08-29T12:33:11Z</time>
      </trkpt>
      <trkpt lat="45.22141" lon="6.47617">
        <ele>884.1</ele>
        <time>2013-08-29T12:33:12Z</time>
      </trkpt>
      <trkpt lat="45.22136" lon="6.47628">
        <ele>883.6</ele>
        <time>2013-08-29T12:33:13Z</time>
      </trkpt>
      <trkpt lat="45.22129" lon="6.47637">
        <ele>883.6</ele>
        <time>2013-08-29T12:33:14Z</time>
      </trkpt>
      <trkpt lat="45.22121" lon="6.47644">
        <ele>882.2</ele>
        <time>2013-08-29T12:33:15Z</time>
      </trkpt>
      <trkpt lat="45.22112" lon="6.47652">
        <ele>881.2</ele>
        <time>2013-08-29T12:33:16Z</time>
      </trkpt>
      <trkpt lat="45.22105" lon="6.4766">
        <ele>881.2</ele>
        <time>2013-08-29T12:33:17Z</time>
      </trkpt>
      <trkpt lat="45.22098" lon="6.47669">
        <ele>879.7</ele>
        <time>2013-08-29T12:33:18Z</time>
      </trkpt>
      <trkpt lat="45.22083" lon="6.4768">
        <ele>877.8</ele>
        <time>2013-08-29T12:33:20Z</time>
      </trkpt>
      <trkpt lat="45.22059" lon="6.47683">
        <ele>874.9</ele>
        <time>2013-08-29T12:33:23Z</time>
      </trkpt>
      <trkpt lat="45.22054" lon="6.47678">
        <ele>874</ele>
        <time>2013-08-29T12:33:24Z</time>
      </trkpt>
      <trkpt lat="45.22052" lon="6.4767">
        <ele>873</ele>
        <time>2013-08-29T12:33:25Z</time>
      </trkpt>
      <trkpt lat="45.22054" lon="6.47662">
        <ele>872.5</ele>
        <time>2013-08-29T12:33:26Z</time>
      </trkpt>
      <trkpt lat="45.2206" lon="6.47656">
        <ele>872.1</ele>
        <time>2013-08-29T12:33:27Z</time>
      </trkpt>
      <trkpt lat="45.22067" lon="6.47654">
        <ele>871.6</ele>
        <time>2013-08-29T12:33:28Z</time>
      </trkpt>
      <trkpt lat="45.22074" lon="6.47651">
        <ele>870.6</ele>
        <time>2013-08-29T12:33:29Z</time>
      </trkpt>
      <trkpt lat="45.22081" lon="6.47646">
        <ele>870.1</ele>
        <time>2013-08-29T12:33:30Z</time>
      </trkpt>
      <trkpt lat="45.22088" lon="6.47638">
        <ele>868.7</ele>
        <time>2013-08-29T12:33:31Z</time>
      </trkpt>
      <trkpt lat="45.22094" lon="6.47628">
        <ele>867.7</ele>
        <time>2013-08-29T12:33:32Z</time>
      </trkpt>
      <trkpt lat="45.221" lon="6.47617">
        <ele>867.3</ele>
        <time>2013-08-29T12:33:33Z</time>
      </trkpt>
      <trkpt lat="45.22104" lon="6.47604">
        <ele>865.8</ele>
        <time>2013-08-29T12:33:34Z</time>
      </trkpt>
      <trkpt lat="45.22107" lon="6.47591">
        <ele>864.8</ele>
        <time>2013-08-29T12:33:35Z</time>
      </trkpt>
      <trkpt lat="45.22109" lon="6.47577">
        <ele>864.4</ele>
        <time>2013-08-29T12:33:36Z</time>
      </trkpt>
      <trkpt lat="45.22114" lon="6.47552">
        <ele>862.4</ele>
        <time>2013-08-29T12:33:38Z</time>
      </trkpt>
      <trkpt lat="45.22118" lon="6.47542">
        <ele>861.5</ele>
        <time>2013-08-29T12:33:39Z</time>
      </trkpt>
      <trkpt lat="45.22122" lon="6.47532">
        <ele>860.5</ele>
        <time>2013-08-29T12:33:40Z</time>
      </trkpt>
      <trkpt lat="45.22123" lon="6.47521">
        <ele>859.6</ele>
        <time>2013-08-29T12:33:41Z</time>
      </trkpt>
      <trkpt lat="45.2212" lon="6.47509">
        <ele>858.6</ele>
        <time>2013-08-29T12:33:42Z</time>
      </trkpt>
      <trkpt lat="45.22116" lon="6.47497">
        <ele>858.1</ele>
        <time>2013-08-29T12:33:43Z</time>
      </trkpt>
      <trkpt lat="45.2211" lon="6.47486">
        <ele>857.2</ele>
        <time>2013-08-29T12:33:44Z</time>
      </trkpt>
      <trkpt lat="45.22104" lon="6.47475">
        <ele>856.2</ele>
        <time>2013-08-29T12:33:45Z</time>
      </trkpt>
      <trkpt lat="45.22099" lon="6.47463">
        <ele>855.2</ele>
        <time>2013-08-29T12:33:46Z</time>
      </trkpt>
      <trkpt lat="45.22095" lon="6.4745">
        <ele>853.8</ele>
        <time>2013-08-29T12:33:47Z</time>
      </trkpt>
      <trkpt lat="45.22094" lon="6.47436">
        <ele>852.8</ele>
        <time>2013-08-29T12:33:48Z</time>
      </trkpt>
      <trkpt lat="45.22095" lon="6.47422">
        <ele>851.9</ele>
        <time>2013-08-29T12:33:49Z</time>
      </trkpt>
      <trkpt lat="45.22098" lon="6.47408">
        <ele>850.9</ele>
        <time>2013-08-29T12:33:50Z</time>
      </trkpt>
      <trkpt lat="45.22103" lon="6.47363">
        <ele>847.1</ele>
        <time>2013-08-29T12:33:53Z</time>
      </trkpt>
      <trkpt lat="45.22105" lon="6.47348">
        <ele>846.1</ele>
        <time>2013-08-29T12:33:54Z</time>
      </trkpt>
      <trkpt lat="45.22108" lon="6.47334">
        <ele>844.7</ele>
        <time>2013-08-29T12:33:55Z</time>
      </trkpt>
      <trkpt lat="45.22112" lon="6.47321">
        <ele>843.2</ele>
        <time>2013-08-29T12:33:56Z</time>
      </trkpt>
      <trkpt lat="45.22116" lon="6.47299">
        <ele>841.3</ele>
        <time>2013-08-29T12:33:58Z</time>
      </trkpt>
      <trkpt lat="45.22114" lon="6.47291">
        <ele>840.8</ele>
        <time>2013-08-29T12:33:59Z</time>
      </trkpt>
      <trkpt lat="45.22108" lon="6.47286">
        <ele>839.4</ele>
        <time>2013-08-29T12:34:00Z</time>
      </trkpt>
      <trkpt lat="45.22102" lon="6.47288">
        <ele>838.9</ele>
        <time>2013-08-29T12:34:01Z</time>
      </trkpt>
      <trkpt lat="45.22097" lon="6.47293">
        <ele>837.9</ele>
        <time>2013-08-29T12:34:02Z</time>
      </trkpt>
      <trkpt lat="45.22092" lon="6.47301">
        <ele>837.5</ele>
        <time>2013-08-29T12:34:03Z</time>
      </trkpt>
      <trkpt lat="45.22088" lon="6.47311">
        <ele>837</ele>
        <time>2013-08-29T12:34:04Z</time>
      </trkpt>
      <trkpt lat="45.22085" lon="6.47324">
        <ele>836</ele>
        <time>2013-08-29T12:34:05Z</time>
      </trkpt>
      <trkpt lat="45.22081" lon="6.47336">
        <ele>835.5</ele>
        <time>2013-08-29T12:34:06Z</time>
      </trkpt>
      <trkpt lat="45.22076" lon="6.47348">
        <ele>835</ele>
        <time>2013-08-29T12:34:07Z</time>
      </trkpt>
      <trkpt lat="45.22058" lon="6.47384">
        <ele>831.7</ele>
        <time>2013-08-29T12:34:10Z</time>
      </trkpt>
      <trkpt lat="45.22052" lon="6.47397">
        <ele>832.2</ele>
        <time>2013-08-29T12:34:11Z</time>
      </trkpt>
      <trkpt lat="45.22047" lon="6.47412">
        <ele>830.7</ele>
        <time>2013-08-29T12:34:12Z</time>
      </trkpt>
      <trkpt lat="45.22043" lon="6.47426">
        <ele>829.3</ele>
        <time>2013-08-29T12:34:13Z</time>
      </trkpt>
      <trkpt lat="45.22038" lon="6.47441">
        <ele>828.3</ele>
        <time>2013-08-29T12:34:14Z</time>
      </trkpt>
      <trkpt lat="45.22033" lon="6.47453">
        <ele>827.4</ele>
        <time>2013-08-29T12:34:15Z</time>
      </trkpt>
      <trkpt lat="45.22027" lon="6.47464">
        <ele>827.4</ele>
        <time>2013-08-29T12:34:16Z</time>
      </trkpt>
      <trkpt lat="45.22016" lon="6.47482">
        <ele>825.4</ele>
        <time>2013-08-29T12:34:18Z</time>
      </trkpt>
      <trkpt lat="45.22011" lon="6.47487">
        <ele>825</ele>
        <time>2013-08-29T12:34:19Z</time>
      </trkpt>
      <trkpt lat="45.22005" lon="6.47488">
        <ele>824.5</ele>
        <time>2013-08-29T12:34:20Z</time>
      </trkpt>
      <trkpt lat="45.21998" lon="6.47484">
        <ele>824.5</ele>
        <time>2013-08-29T12:34:21Z</time>
      </trkpt>
      <trkpt lat="45.21992" lon="6.47478">
        <ele>823.5</ele>
        <time>2013-08-29T12:34:22Z</time>
      </trkpt>
      <trkpt lat="45.21989" lon="6.47469">
        <ele>822.6</ele>
        <time>2013-08-29T12:34:23Z</time>
      </trkpt>
      <trkpt lat="45.21988" lon="6.47457">
        <ele>821.6</ele>
        <time>2013-08-29T12:34:24Z</time>
      </trkpt>
      <trkpt lat="45.21991" lon="6.47441">
        <ele>821.1</ele>
        <time>2013-08-29T12:34:25Z</time>
      </trkpt>
      <trkpt lat="45.21996" lon="6.47384">
        <ele>817.3</ele>
        <time>2013-08-29T12:34:29Z</time>
      </trkpt>
      <trkpt lat="45.21999" lon="6.4737">
        <ele>816.3</ele>
        <time>2013-08-29T12:34:30Z</time>
      </trkpt>
      <trkpt lat="45.22008" lon="6.47334">
        <ele>812.9</ele>
        <time>2013-08-29T12:34:33Z</time>
      </trkpt>
      <trkpt lat="45.22014" lon="6.47299">
        <ele>811.5</ele>
        <time>2013-08-29T12:34:36Z</time>
      </trkpt>
      <trkpt lat="45.22014" lon="6.47287">
        <ele>811</ele>
        <time>2013-08-29T12:34:37Z</time>
      </trkpt>
      <trkpt lat="45.22016" lon="6.47247">
        <ele>807.6</ele>
        <time>2013-08-29T12:34:40Z</time>
      </trkpt>
      <trkpt lat="45.22021" lon="6.47197">
        <ele>804.3</ele>
        <time>2013-08-29T12:34:44Z</time>
      </trkpt>
      <trkpt lat="45.22022" lon="6.47188">
        <ele>803.3</ele>
        <time>2013-08-29T12:34:45Z</time>
      </trkpt>
      <trkpt lat="45.22022" lon="6.4718">
        <ele>802.8</ele>
        <time>2013-08-29T12:34:46Z</time>
      </trkpt>
      <trkpt lat="45.22019" lon="6.47174">
        <ele>802.8</ele>
        <time>2013-08-29T12:34:47Z</time>
      </trkpt>
      <trkpt lat="45.22013" lon="6.47172">
        <ele>801.9</ele>
        <time>2013-08-29T12:34:48Z</time>
      </trkpt>
      <trkpt lat="45.22008" lon="6.47175">
        <ele>801.9</ele>
        <time>2013-08-29T12:34:49Z</time>
      </trkpt>
      <trkpt lat="45.22004" lon="6.47182">
        <ele>800.4</ele>
        <time>2013-08-29T12:34:50Z</time>
      </trkpt>
      <trkpt lat="45.22004" lon="6.47192">
        <ele>800</ele>
        <time>2013-08-29T12:34:51Z</time>
      </trkpt>
      <trkpt lat="45.22003" lon="6.47203">
        <ele>799</ele>
        <time>2013-08-29T12:34:52Z</time>
      </trkpt>
      <trkpt lat="45.22002" lon="6.47215">
        <ele>798.5</ele>
        <time>2013-08-29T12:34:53Z</time>
      </trkpt>
      <trkpt lat="45.22" lon="6.47226">
        <ele>797.6</ele>
        <time>2013-08-29T12:34:54Z</time>
      </trkpt>
      <trkpt lat="45.21996" lon="6.47238">
        <ele>796.6</ele>
        <time>2013-08-29T12:34:55Z</time>
      </trkpt>
      <trkpt lat="45.2199" lon="6.47249">
        <ele>795.6</ele>
        <time>2013-08-29T12:34:56Z</time>
      </trkpt>
      <trkpt lat="45.21984" lon="6.47257">
        <ele>794.7</ele>
        <time>2013-08-29T12:34:57Z</time>
      </trkpt>
      <trkpt lat="45.21979" lon="6.47262">
        <ele>794.2</ele>
        <time>2013-08-29T12:34:58Z</time>
      </trkpt>
      <trkpt lat="45.21967" lon="6.47275">
        <ele>792.3</ele>
        <time>2013-08-29T12:35:01Z</time>
      </trkpt>
      <trkpt lat="45.21957" lon="6.47299">
        <ele>790.3</ele>
        <time>2013-08-29T12:35:06Z</time>
      </trkpt>
      <trkpt lat="45.21954" lon="6.47306">
        <ele>789.4</ele>
        <time>2013-08-29T12:35:07Z</time>
      </trkpt>
      <trkpt lat="45.21949" lon="6.47312">
        <ele>788.9</ele>
        <time>2013-08-29T12:35:08Z</time>
      </trkpt>
      <trkpt lat="45.21926" lon="6.47343">
        <ele>785.5</ele>
        <time>2013-08-29T12:35:12Z</time>
      </trkpt>
      <trkpt lat="45.21905" lon="6.47367">
        <ele>782.2</ele>
        <time>2013-08-29T12:35:15Z</time>
      </trkpt>
      <trkpt lat="45.2189" lon="6.47382">
        <ele>781.2</ele>
        <time>2013-08-29T12:35:17Z</time>
      </trkpt>
      <trkpt lat="45.21862" lon="6.47415">
        <ele>778.8</ele>
        <time>2013-08-29T12:35:21Z</time>
      </trkpt>
      <trkpt lat="45.21843" lon="6.47436">
        <ele>778.3</ele>
        <time>2013-08-29T12:35:24Z</time>
      </trkpt>
      <trkpt lat="45.21837" lon="6.47439">
        <ele>777.8</ele>
        <time>2013-08-29T12:35:25Z</time>
      </trkpt>
      <trkpt lat="45.2183" lon="6.4744">
        <ele>778.3</ele>
        <time>2013-08-29T12:35:26Z</time>
      </trkpt>
      <trkpt lat="45.21823" lon="6.47439">
        <ele>777.8</ele>
        <time>2013-08-29T12:35:27Z</time>
      </trkpt>
      <trkpt lat="45.21816" lon="6.47437">
        <ele>777.8</ele>
        <time>2013-08-29T12:35:28Z</time>
      </trkpt>
      <trkpt lat="45.21809" lon="6.47433">
        <ele>777.4</ele>
        <time>2013-08-29T12:35:29Z</time>
      </trkpt>
      <trkpt lat="45.21802" lon="6.47429">
        <ele>776.9</ele>
        <time>2013-08-29T12:35:30Z</time>
      </trkpt>
      <trkpt lat="45.21796" lon="6.47423">
        <ele>776.4</ele>
        <time>2013-08-29T12:35:31Z</time>
      </trkpt>
      <trkpt lat="45.21789" lon="6.47417">
        <ele>775.9</ele>
        <time>2013-08-29T12:35:32Z</time>
      </trkpt>
      <trkpt lat="45.21782" lon="6.47412">
        <ele>775.4</ele>
        <time>2013-08-29T12:35:33Z</time>
      </trkpt>
      <trkpt lat="45.21774" lon="6.47409">
        <ele>775</ele>
        <time>2013-08-29T12:35:34Z</time>
      </trkpt>
      <trkpt lat="45.21767" lon="6.47407">
        <ele>774.5</ele>
        <time>2013-08-29T12:35:35Z</time>
      </trkpt>
      <trkpt lat="45.2176" lon="6.4741">
        <ele>773.5</ele>
        <time>2013-08-29T12:35:36Z</time>
      </trkpt>
      <trkpt lat="45.21752" lon="6.47416">
        <ele>772.6</ele>
        <time>2013-08-29T12:35:37Z</time>
      </trkpt>
      <trkpt lat="45.21745" lon="6.47423">
        <ele>772.6</ele>
        <time>2013-08-29T12:35:38Z</time>
      </trkpt>
      <trkpt lat="45.21739" lon="6.47432">
        <ele>771.6</ele>
        <time>2013-08-29T12:35:39Z</time>
      </trkpt>
      <trkpt lat="45.21732" lon="6.47443">
        <ele>771.1</ele>
        <time>2013-08-29T12:35:40Z</time>
      </trkpt>
      <trkpt lat="45.2172" lon="6.4746">
        <ele>769.7</ele>
        <time>2013-08-29T12:35:42Z</time>
      </trkpt>
      <trkpt lat="45.21713" lon="6.47468">
        <ele>768.7</ele>
        <time>2013-08-29T12:35:43Z</time>
      </trkpt>
      <trkpt lat="45.21707" lon="6.47475">
        <ele>767.8</ele>
        <time>2013-08-29T12:35:44Z</time>
      </trkpt>
      <trkpt lat="45.21701" lon="6.47482">
        <ele>766.8</ele>
        <time>2013-08-29T12:35:45Z</time>
      </trkpt>
      <trkpt lat="45.21695" lon="6.4749">
        <ele>766.3</ele>
        <time>2013-08-29T12:35:46Z</time>
      </trkpt>
      <trkpt lat="45.21689" lon="6.47496">
        <ele>764.9</ele>
        <time>2013-08-29T12:35:47Z</time>
      </trkpt>
      <trkpt lat="45.21675" lon="6.47511">
        <ele>763.9</ele>
        <time>2013-08-29T12:35:50Z</time>
      </trkpt>
      <trkpt lat="45.21652" lon="6.4752">
        <ele>762.5</ele>
        <time>2013-08-29T12:35:54Z</time>
      </trkpt>
      <trkpt lat="45.21613" lon="6.47528">
        <ele>761.5</ele>
        <time>2013-08-29T12:36:01Z</time>
      </trkpt>
      <trkpt lat="45.21607" lon="6.47528">
        <ele>761</ele>
        <time>2013-08-29T12:36:02Z</time>
      </trkpt>
      <trkpt lat="45.216" lon="6.47525">
        <ele>761</ele>
        <time>2013-08-29T12:36:03Z</time>
      </trkpt>
      <trkpt lat="45.21594" lon="6.47522">
        <ele>760.5</ele>
        <time>2013-08-29T12:36:04Z</time>
      </trkpt>
      <trkpt lat="45.21587" lon="6.47508">
        <ele>760.5</ele>
        <time>2013-08-29T12:36:10Z</time>
      </trkpt>
      <trkpt lat="45.21588" lon="6.47513">
        <ele>760.5</ele>
        <time>2013-08-29T12:36:16Z</time>
      </trkpt>
      <trkpt lat="45.21588" lon="6.47512">
        <ele>760.5</ele>
        <time>2013-08-29T12:36:17Z</time>
      </trkpt>
      <trkpt lat="45.21586" lon="6.4751">
        <ele>760.5</ele>
        <time>2013-08-29T12:36:18Z</time>
      </trkpt>
      <trkpt lat="45.21585" lon="6.47506">
        <ele>760.5</ele>
        <time>2013-08-29T12:36:19Z</time>
      </trkpt>
      <trkpt lat="45.21583" lon="6.47502">
        <ele>760.5</ele>
        <time>2013-08-29T12:36:20Z</time>
      </trkpt>
      <trkpt lat="45.21577" lon="6.47487">
        <ele>760.5</ele>
        <time>2013-08-29T12:36:23Z</time>
      </trkpt>
      <trkpt lat="45.21577" lon="6.47482">
        <ele>760.5</ele>
        <time>2013-08-29T12:36:24Z</time>
      </trkpt>
      <trkpt lat="45.21579" lon="6.47475">
        <ele>760.5</ele>
        <time>2013-08-29T12:36:25Z</time>
      </trkpt>
      <trkpt lat="45.21582" lon="6.47469">
        <ele>761</ele>
        <time>2013-08-29T12:36:26Z</time>
      </trkpt>
      <trkpt lat="45.21585" lon="6.47464">
        <ele>760.1</ele>
        <time>2013-08-29T12:36:27Z</time>
      </trkpt>
      <trkpt lat="45.21628" lon="6.47385">
        <ele>759.6</ele>
        <time>2013-08-29T12:36:40Z</time>
      </trkpt>
      <trkpt lat="45.21645" lon="6.47354">
        <ele>758.6</ele>
        <time>2013-08-29T12:36:45Z</time>
      </trkpt>
      <trkpt lat="45.21686" lon="6.47287">
        <ele>756.2</ele>
        <time>2013-08-29T12:36:56Z</time>
      </trkpt>
      <trkpt lat="45.21711" lon="6.47247">
        <ele>756.2</ele>
        <time>2013-08-29T12:37:03Z</time>
      </trkpt>
      <trkpt lat="45.21712" lon="6.4724">
        <ele>756.2</ele>
        <time>2013-08-29T12:37:04Z</time>
      </trkpt>
      <trkpt lat="45.21709" lon="6.47235">
        <ele>755.7</ele>
        <time>2013-08-29T12:37:05Z</time>
      </trkpt>
      <trkpt lat="45.21707" lon="6.47231">
        <ele>756.2</ele>
        <time>2013-08-29T12:37:06Z</time>
      </trkpt>
      <trkpt lat="45.21704" lon="6.47227">
        <ele>755.7</ele>
        <time>2013-08-29T12:37:07Z</time>
      </trkpt>
      <trkpt lat="45.21704" lon="6.47223">
        <ele>755.7</ele>
        <time>2013-08-29T12:37:08Z</time>
      </trkpt>
      <trkpt lat="45.21705" lon="6.47219">
        <ele>755.7</ele>
        <time>2013-08-29T12:37:09Z</time>
      </trkpt>
      <trkpt lat="45.21706" lon="6.47216">
        <ele>755.7</ele>
        <time>2013-08-29T12:37:10Z</time>
      </trkpt>
      <trkpt lat="45.21709" lon="6.47207">
        <ele>754.8</ele>
        <time>2013-08-29T12:37:13Z</time>
      </trkpt>
      <trkpt lat="45.21709" lon="6.47205">
        <ele>754.8</ele>
        <time>2013-08-29T12:37:14Z</time>
      </trkpt>
      <trkpt lat="45.21708" lon="6.47203">
        <ele>754.8</ele>
        <time>2013-08-29T12:37:15Z</time>
      </trkpt>
      <trkpt lat="45.21707" lon="6.47202">
        <ele>754.8</ele>
        <time>2013-08-29T12:37:16Z</time>
      </trkpt>
      <trkpt lat="45.21702" lon="6.47201">
        <ele>755.7</ele>
        <time>2013-08-29T12:37:21Z</time>
      </trkpt>
      <trkpt lat="45.21697" lon="6.47197">
        <ele>755.3</ele>
        <time>2013-08-29T12:37:31Z</time>
      </trkpt>
      <trkpt lat="45.21698" lon="6.47197">
        <ele>756.7</ele>
        <time>2013-08-29T12:37:52Z</time>
      </trkpt>
      <trkpt lat="45.21698" lon="6.47197">
        <ele>755.7</ele>
        <time>2013-08-29T12:37:53Z</time>
      </trkpt>
      <trkpt lat="45.21697" lon="6.47196">
        <ele>988.9</ele>
        <time>2013-08-29T13:26:43Z</time>
      </trkpt>
      <trkpt lat="45.20741" lon="6.45843">
        <ele>988.4</ele>
        <time>2013-08-29T13:26:44Z</time>
      </trkpt>
      <trkpt lat="45.20739" lon="6.45843">
        <ele>984.5</ele>
        <time>2013-08-29T13:26:47Z</time>
      </trkpt>
      <trkpt lat="45.20741" lon="6.45843">
        <ele>984.5</ele>
        <time>2013-08-29T13:26:48Z</time>
      </trkpt>
      <trkpt lat="45.19872" lon="6.44282">
        <ele>1577.2</ele>
        <time>2013-08-29T13:49:20Z</time>
      </trkpt>
      <trkpt lat="45.19864" lon="6.44278">
        <ele>1578.6</ele>
        <time>2013-08-29T13:49:22Z</time>
      </trkpt>
      <trkpt lat="45.19808" lon="6.44261">
        <ele>1581</ele>
        <time>2013-08-29T13:49:37Z</time>
      </trkpt>
      <trkpt lat="45.19755" lon="6.44257">
        <ele>1581.5</ele>
        <time>2013-08-29T13:49:50Z</time>
      </trkpt>
      <trkpt lat="45.1975" lon="6.44255">
        <ele>1580.5</ele>
        <time>2013-08-29T13:49:51Z</time>
      </trkpt>
      <trkpt lat="45.19671" lon="6.44238">
        <ele>1578.1</ele>
        <time>2013-08-29T13:50:04Z</time>
      </trkpt>
      <trkpt lat="45.1957" lon="6.44219">
        <ele>1575.7</ele>
        <time>2013-08-29T13:50:18Z</time>
      </trkpt>
      <trkpt lat="45.19489" lon="6.44181">
        <ele>1573.8</ele>
        <time>2013-08-29T13:50:28Z</time>
      </trkpt>
      <trkpt lat="45.19481" lon="6.4418">
        <ele>1573.8</ele>
        <time>2013-08-29T13:50:29Z</time>
      </trkpt>
      <trkpt lat="45.19419" lon="6.44177">
        <ele>1571.4</ele>
        <time>2013-08-29T13:50:36Z</time>
      </trkpt>
      <trkpt lat="45.19361" lon="6.4416">
        <ele>1570</ele>
        <time>2013-08-29T13:50:43Z</time>
      </trkpt>
      <trkpt lat="45.19279" lon="6.44102">
        <ele>1568.5</ele>
        <time>2013-08-29T13:50:54Z</time>
      </trkpt>
      <trkpt lat="45.19272" lon="6.44094">
        <ele>1568.1</ele>
        <time>2013-08-29T13:50:55Z</time>
      </trkpt>
      <trkpt lat="45.19229" lon="6.4406">
        <ele>1567.6</ele>
        <time>2013-08-29T13:51:00Z</time>
      </trkpt>
      <trkpt lat="45.19144" lon="6.44039">
        <ele>1564.7</ele>
        <time>2013-08-29T13:51:10Z</time>
      </trkpt>
      <trkpt lat="45.19039" lon="6.44024">
        <ele>1562.8</ele>
        <time>2013-08-29T13:51:23Z</time>
      </trkpt>
      <trkpt lat="45.18941" lon="6.4403">
        <ele>1559.9</ele>
        <time>2013-08-29T13:51:36Z</time>
      </trkpt>
      <trkpt lat="45.18934" lon="6.44028">
        <ele>1559.9</ele>
        <time>2013-08-29T13:51:37Z</time>
      </trkpt>
      <trkpt lat="45.18927" lon="6.44024">
        <ele>1559.9</ele>
        <time>2013-08-29T13:51:38Z</time>
      </trkpt>
      <trkpt lat="45.18921" lon="6.44019">
        <ele>1559.9</ele>
        <time>2013-08-29T13:51:39Z</time>
      </trkpt>
      <trkpt lat="45.18869" lon="6.43977">
        <ele>1559.4</ele>
        <time>2013-08-29T13:51:47Z</time>
      </trkpt>
      <trkpt lat="45.18773" lon="6.43939">
        <ele>1558</ele>
        <time>2013-08-29T13:52:00Z</time>
      </trkpt>
      <trkpt lat="45.18644" lon="6.43928">
        <ele>1555.1</ele>
        <time>2013-08-29T13:52:17Z</time>
      </trkpt>
      <trkpt lat="45.18637" lon="6.43925">
        <ele>1555.1</ele>
        <time>2013-08-29T13:52:18Z</time>
      </trkpt>
      <trkpt lat="45.18539" lon="6.43865">
        <ele>1554.6</ele>
        <time>2013-08-29T13:52:32Z</time>
      </trkpt>
      <trkpt lat="45.18457" lon="6.43827">
        <ele>1554.1</ele>
        <time>2013-08-29T13:52:43Z</time>
      </trkpt>
      <trkpt lat="45.18375" lon="6.43846">
        <ele>1551.7</ele>
        <time>2013-08-29T13:52:54Z</time>
      </trkpt>
      <trkpt lat="45.18362" lon="6.43856">
        <ele>1551.7</ele>
        <time>2013-08-29T13:52:56Z</time>
      </trkpt>
      <trkpt lat="45.18356" lon="6.43862">
        <ele>1550.7</ele>
        <time>2013-08-29T13:52:57Z</time>
      </trkpt>
      <trkpt lat="45.18333" lon="6.43888">
        <ele>1550.7</ele>
        <time>2013-08-29T13:53:01Z</time>
      </trkpt>
      <trkpt lat="45.18326" lon="6.43892">
        <ele>1550.7</ele>
        <time>2013-08-29T13:53:02Z</time>
      </trkpt>
      <trkpt lat="45.18319" lon="6.43895">
        <ele>1549.8</ele>
        <time>2013-08-29T13:53:03Z</time>
      </trkpt>
      <trkpt lat="45.18312" lon="6.43897">
        <ele>1549.8</ele>
        <time>2013-08-29T13:53:04Z</time>
      </trkpt>
      <trkpt lat="45.18304" lon="6.43897">
        <ele>1550.3</ele>
        <time>2013-08-29T13:53:05Z</time>
      </trkpt>
      <trkpt lat="45.18298" lon="6.43896">
        <ele>1549.3</ele>
        <time>2013-08-29T13:53:06Z</time>
      </trkpt>
      <trkpt lat="45.18291" lon="6.43894">
        <ele>1548.8</ele>
        <time>2013-08-29T13:53:07Z</time>
      </trkpt>
      <trkpt lat="45.18249" lon="6.43886">
        <ele>1549.3</ele>
        <time>2013-08-29T13:53:13Z</time>
      </trkpt>
      <trkpt lat="45.18203" lon="6.439">
        <ele>1545.9</ele>
        <time>2013-08-29T13:53:19Z</time>
      </trkpt>
      <trkpt lat="45.18135" lon="6.43929">
        <ele>1542.1</ele>
        <time>2013-08-29T13:53:26Z</time>
      </trkpt>
      <trkpt lat="45.18085" lon="6.4395">
        <ele>1538.7</ele>
        <time>2013-08-29T13:53:31Z</time>
      </trkpt>
      <trkpt lat="45.18064" lon="6.43958">
        <ele>1538.3</ele>
        <time>2013-08-29T13:53:33Z</time>
      </trkpt>
      <trkpt lat="45.18053" lon="6.4396">
        <ele>1537.3</ele>
        <time>2013-08-29T13:53:34Z</time>
      </trkpt>
      <trkpt lat="45.18042" lon="6.4396">
        <ele>1536.8</ele>
        <time>2013-08-29T13:53:35Z</time>
      </trkpt>
      <trkpt lat="45.18031" lon="6.43956">
        <ele>1537.3</ele>
        <time>2013-08-29T13:53:36Z</time>
      </trkpt>
      <trkpt lat="45.1802" lon="6.43951">
        <ele>1537.3</ele>
        <time>2013-08-29T13:53:37Z</time>
      </trkpt>
      <trkpt lat="45.1801" lon="6.43944">
        <ele>1536.8</ele>
        <time>2013-08-29T13:53:38Z</time>
      </trkpt>
      <trkpt lat="45.18001" lon="6.43936">
        <ele>1536.3</ele>
        <time>2013-08-29T13:53:39Z</time>
      </trkpt>
      <trkpt lat="45.17996" lon="6.43933">
        <ele>1535.8</ele>
        <time>2013-08-29T13:53:40Z</time>
      </trkpt>
      <trkpt lat="45.17981" lon="6.43928">
        <ele>1534.9</ele>
        <time>2013-08-29T13:53:41Z</time>
      </trkpt>
      <trkpt lat="45.17939" lon="6.43929">
        <ele>1531.5</ele>
        <time>2013-08-29T13:53:45Z</time>
      </trkpt>
      <trkpt lat="45.17906" lon="6.43928">
        <ele>1530.1</ele>
        <time>2013-08-29T13:53:48Z</time>
      </trkpt>
      <trkpt lat="45.17853" lon="6.43914">
        <ele>1527.2</ele>
        <time>2013-08-29T13:53:53Z</time>
      </trkpt>
      <trkpt lat="45.17843" lon="6.4391">
        <ele>1526.7</ele>
        <time>2013-08-29T13:53:54Z</time>
      </trkpt>
      <trkpt lat="45.17832" lon="6.43904">
        <ele>1525.8</ele>
        <time>2013-08-29T13:53:55Z</time>
      </trkpt>
      <trkpt lat="45.17822" lon="6.43895">
        <ele>1525.3</ele>
        <time>2013-08-29T13:53:56Z</time>
      </trkpt>
      <trkpt lat="45.17813" lon="6.43884">
        <ele>1524.3</ele>
        <time>2013-08-29T13:53:57Z</time>
      </trkpt>
      <trkpt lat="45.17803" lon="6.4387">
        <ele>1522.9</ele>
        <time>2013-08-29T13:53:58Z</time>
      </trkpt>
      <trkpt lat="45.17761" lon="6.43811">
        <ele>1520</ele>
        <time>2013-08-29T13:54:03Z</time>
      </trkpt>
      <trkpt lat="45.17728" lon="6.43762">
        <ele>1517.1</ele>
        <time>2013-08-29T13:54:08Z</time>
      </trkpt>
      <trkpt lat="45.17715" lon="6.43737">
        <ele>1515.2</ele>
        <time>2013-08-29T13:54:10Z</time>
      </trkpt>
      <trkpt lat="45.17682" lon="6.43632">
        <ele>1510.9</ele>
        <time>2013-08-29T13:54:17Z</time>
      </trkpt>
      <trkpt lat="45.17661" lon="6.43556">
        <ele>1508.5</ele>
        <time>2013-08-29T13:54:24Z</time>
      </trkpt>
      <trkpt lat="45.17655" lon="6.43509">
        <ele>1506.5</ele>
        <time>2013-08-29T13:54:29Z</time>
      </trkpt>
      <trkpt lat="45.17653" lon="6.4345">
        <ele>1503.2</ele>
        <time>2013-08-29T13:54:35Z</time>
      </trkpt>
      <trkpt lat="45.17651" lon="6.43412">
        <ele>1501.7</ele>
        <time>2013-08-29T13:54:38Z</time>
      </trkpt>
      <trkpt lat="45.17646" lon="6.43392">
        <ele>1502.7</ele>
        <time>2013-08-29T13:54:40Z</time>
      </trkpt>
      <trkpt lat="45.17641" lon="6.43385">
        <ele>1501.7</ele>
        <time>2013-08-29T13:54:41Z</time>
      </trkpt>
      <trkpt lat="45.17634" lon="6.43381">
        <ele>1502.2</ele>
        <time>2013-08-29T13:54:42Z</time>
      </trkpt>
      <trkpt lat="45.17626" lon="6.43379">
        <ele>1500.3</ele>
        <time>2013-08-29T13:54:43Z</time>
      </trkpt>
      <trkpt lat="45.17615" lon="6.43375">
        <ele>1499.8</ele>
        <time>2013-08-29T13:54:44Z</time>
      </trkpt>
      <trkpt lat="45.17603" lon="6.4337">
        <ele>1498.4</ele>
        <time>2013-08-29T13:54:45Z</time>
      </trkpt>
      <trkpt lat="45.17581" lon="6.43358">
        <ele>1496</ele>
        <time>2013-08-29T13:54:47Z</time>
      </trkpt>
      <trkpt lat="45.17572" lon="6.43352">
        <ele>1495.5</ele>
        <time>2013-08-29T13:54:48Z</time>
      </trkpt>
      <trkpt lat="45.17551" lon="6.43331">
        <ele>1492.6</ele>
        <time>2013-08-29T13:54:50Z</time>
      </trkpt>
      <trkpt lat="45.17518" lon="6.43295">
        <ele>1492.1</ele>
        <time>2013-08-29T13:54:54Z</time>
      </trkpt>
      <trkpt lat="45.17509" lon="6.43287">
        <ele>1492.1</ele>
        <time>2013-08-29T13:54:55Z</time>
      </trkpt>
      <trkpt lat="45.17499" lon="6.43282">
        <ele>1492.1</ele>
        <time>2013-08-29T13:54:56Z</time>
      </trkpt>
      <trkpt lat="45.17489" lon="6.43278">
        <ele>1491.6</ele>
        <time>2013-08-29T13:54:57Z</time>
      </trkpt>
      <trkpt lat="45.1743" lon="6.43265">
        <ele>1487.8</ele>
        <time>2013-08-29T13:55:03Z</time>
      </trkpt>
      <trkpt lat="45.17364" lon="6.4325">
        <ele>1483.9</ele>
        <time>2013-08-29T13:55:09Z</time>
      </trkpt>
      <trkpt lat="45.1733" lon="6.43246">
        <ele>1482</ele>
        <time>2013-08-29T13:55:12Z</time>
      </trkpt>
      <trkpt lat="45.17319" lon="6.43247">
        <ele>1481.1</ele>
        <time>2013-08-29T13:55:13Z</time>
      </trkpt>
      <trkpt lat="45.17307" lon="6.43251">
        <ele>1480.6</ele>
        <time>2013-08-29T13:55:14Z</time>
      </trkpt>
      <trkpt lat="45.17266" lon="6.43277">
        <ele>1478.2</ele>
        <time>2013-08-29T13:55:18Z</time>
      </trkpt>
      <trkpt lat="45.17257" lon="6.43287">
        <ele>1477.7</ele>
        <time>2013-08-29T13:55:19Z</time>
      </trkpt>
      <trkpt lat="45.17249" lon="6.43297">
        <ele>1476.2</ele>
        <time>2013-08-29T13:55:20Z</time>
      </trkpt>
      <trkpt lat="45.17234" lon="6.43361">
        <ele>1474.3</ele>
        <time>2013-08-29T13:55:24Z</time>
      </trkpt>
      <trkpt lat="45.17226" lon="6.43371">
        <ele>1472.9</ele>
        <time>2013-08-29T13:55:25Z</time>
      </trkpt>
      <trkpt lat="45.17217" lon="6.43375">
        <ele>1472.9</ele>
        <time>2013-08-29T13:55:26Z</time>
      </trkpt>
      <trkpt lat="45.17207" lon="6.43377">
        <ele>1471.4</ele>
        <time>2013-08-29T13:55:27Z</time>
      </trkpt>
      <trkpt lat="45.17196" lon="6.43378">
        <ele>1471.4</ele>
        <time>2013-08-29T13:55:28Z</time>
      </trkpt>
      <trkpt lat="45.17175" lon="6.43381">
        <ele>1469.5</ele>
        <time>2013-08-29T13:55:30Z</time>
      </trkpt>
      <trkpt lat="45.17099" lon="6.43406">
        <ele>1466.2</ele>
        <time>2013-08-29T13:55:37Z</time>
      </trkpt>
      <trkpt lat="45.17088" lon="6.43407">
        <ele>1464.7</ele>
        <time>2013-08-29T13:55:38Z</time>
      </trkpt>
      <trkpt lat="45.17077" lon="6.43406">
        <ele>1464.7</ele>
        <time>2013-08-29T13:55:39Z</time>
      </trkpt>
      <trkpt lat="45.17045" lon="6.43405">
        <ele>1462.3</ele>
        <time>2013-08-29T13:55:42Z</time>
      </trkpt>
      <trkpt lat="45.17034" lon="6.43408">
        <ele>1462.8</ele>
        <time>2013-08-29T13:55:43Z</time>
      </trkpt>
      <trkpt lat="45.17024" lon="6.43414">
        <ele>1461.8</ele>
        <time>2013-08-29T13:55:44Z</time>
      </trkpt>
      <trkpt lat="45.17014" lon="6.43422">
        <ele>1461.3</ele>
        <time>2013-08-29T13:55:45Z</time>
      </trkpt>
      <trkpt lat="45.17005" lon="6.43431">
        <ele>1460.4</ele>
        <time>2013-08-29T13:55:46Z</time>
      </trkpt>
      <trkpt lat="45.1697" lon="6.43464">
        <ele>1457.5</ele>
        <time>2013-08-29T13:55:50Z</time>
      </trkpt>
      <trkpt lat="45.16961" lon="6.4347">
        <ele>1457.5</ele>
        <time>2013-08-29T13:55:51Z</time>
      </trkpt>
      <trkpt lat="45.16952" lon="6.43474">
        <ele>1457</ele>
        <time>2013-08-29T13:55:52Z</time>
      </trkpt>
      <trkpt lat="45.16943" lon="6.43475">
        <ele>1456.1</ele>
        <time>2013-08-29T13:55:53Z</time>
      </trkpt>
      <trkpt lat="45.16934" lon="6.43472">
        <ele>1454.6</ele>
        <time>2013-08-29T13:55:54Z</time>
      </trkpt>
      <trkpt lat="45.16924" lon="6.43467">
        <ele>1455.1</ele>
        <time>2013-08-29T13:55:55Z</time>
      </trkpt>
      <trkpt lat="45.16915" lon="6.43462">
        <ele>1454.6</ele>
        <time>2013-08-29T13:55:56Z</time>
      </trkpt>
      <trkpt lat="45.16887" lon="6.43446">
        <ele>1452.7</ele>
        <time>2013-08-29T13:55:59Z</time>
      </trkpt>
      <trkpt lat="45.16858" lon="6.43432">
        <ele>1451.7</ele>
        <time>2013-08-29T13:56:02Z</time>
      </trkpt>
      <trkpt lat="45.16847" lon="6.43431">
        <ele>1450.8</ele>
        <time>2013-08-29T13:56:03Z</time>
      </trkpt>
      <trkpt lat="45.16837" lon="6.43433">
        <ele>1450.3</ele>
        <time>2013-08-29T13:56:04Z</time>
      </trkpt>
      <trkpt lat="45.16815" lon="6.43437">
        <ele>1449.3</ele>
        <time>2013-08-29T13:56:06Z</time>
      </trkpt>
      <trkpt lat="45.16805" lon="6.43437">
        <ele>1448.8</ele>
        <time>2013-08-29T13:56:07Z</time>
      </trkpt>
      <trkpt lat="45.16794" lon="6.43435">
        <ele>1448.4</ele>
        <time>2013-08-29T13:56:08Z</time>
      </trkpt>
      <trkpt lat="45.1676" lon="6.43422">
        <ele>1446.4</ele>
        <time>2013-08-29T13:56:11Z</time>
      </trkpt>
      <trkpt lat="45.16751" lon="6.43416">
        <ele>1445.5</ele>
        <time>2013-08-29T13:56:12Z</time>
      </trkpt>
      <trkpt lat="45.16743" lon="6.43409">
        <ele>1444.5</ele>
        <time>2013-08-29T13:56:13Z</time>
      </trkpt>
      <trkpt lat="45.16736" lon="6.43401">
        <ele>1444.5</ele>
        <time>2013-08-29T13:56:14Z</time>
      </trkpt>
      <trkpt lat="45.167" lon="6.43369">
        <ele>1443.1</ele>
        <time>2013-08-29T13:56:18Z</time>
      </trkpt>
      <trkpt lat="45.16694" lon="6.43357">
        <ele>1442.1</ele>
        <time>2013-08-29T13:56:19Z</time>
      </trkpt>
      <trkpt lat="45.16689" lon="6.43343">
        <ele>1441.2</ele>
        <time>2013-08-29T13:56:20Z</time>
      </trkpt>
      <trkpt lat="45.16674" lon="6.43303">
        <ele>1439.2</ele>
        <time>2013-08-29T13:56:23Z</time>
      </trkpt>
      <trkpt lat="45.16667" lon="6.43291">
        <ele>1438.3</ele>
        <time>2013-08-29T13:56:24Z</time>
      </trkpt>
      <trkpt lat="45.16658" lon="6.43283">
        <ele>1436.8</ele>
        <time>2013-08-29T13:56:25Z</time>
      </trkpt>
      <trkpt lat="45.16648" lon="6.43276">
        <ele>1436.8</ele>
        <time>2013-08-29T13:56:26Z</time>
      </trkpt>
      <trkpt lat="45.16637" lon="6.4327">
        <ele>1435.4</ele>
        <time>2013-08-29T13:56:27Z</time>
      </trkpt>
      <trkpt lat="45.16606" lon="6.43251">
        <ele>1434.4</ele>
        <time>2013-08-29T13:56:30Z</time>
      </trkpt>
      <trkpt lat="45.16564" lon="6.43227">
        <ele>1432</ele>
        <time>2013-08-29T13:56:34Z</time>
      </trkpt>
      <trkpt lat="45.16533" lon="6.43205">
        <ele>1428.7</ele>
        <time>2013-08-29T13:56:38Z</time>
      </trkpt>
      <trkpt lat="45.16528" lon="6.43199">
        <ele>1428.7</ele>
        <time>2013-08-29T13:56:39Z</time>
      </trkpt>
      <trkpt lat="45.16523" lon="6.43193">
        <ele>1428.7</ele>
        <time>2013-08-29T13:56:40Z</time>
      </trkpt>
      <trkpt lat="45.1652" lon="6.43187">
        <ele>1428.7</ele>
        <time>2013-08-29T13:56:41Z</time>
      </trkpt>
      <trkpt lat="45.16514" lon="6.43175">
        <ele>1427.7</ele>
        <time>2013-08-29T13:56:43Z</time>
      </trkpt>
      <trkpt lat="45.1651" lon="6.43173">
        <ele>1428.2</ele>
        <time>2013-08-29T13:56:44Z</time>
      </trkpt>
      <trkpt lat="45.16505" lon="6.43171">
        <ele>1427.7</ele>
        <time>2013-08-29T13:56:45Z</time>
      </trkpt>
      <trkpt lat="45.16501" lon="6.4317">
        <ele>1427.7</ele>
        <time>2013-08-29T13:56:46Z</time>
      </trkpt>
      <trkpt lat="45.16498" lon="6.43167">
        <ele>1427.7</ele>
        <time>2013-08-29T13:56:47Z</time>
      </trkpt>
      <trkpt lat="45.16496" lon="6.43166">
        <ele>1428.2</ele>
        <time>2013-08-29T13:56:48Z</time>
      </trkpt>
      <trkpt lat="45.16495" lon="6.43165">
        <ele>1428.2</ele>
        <time>2013-08-29T13:56:49Z</time>
      </trkpt>
      <trkpt lat="45.16495" lon="6.43164">
        <ele>1428.2</ele>
        <time>2013-08-29T13:56:50Z</time>
      </trkpt>
      <trkpt lat="45.16492" lon="6.43162">
        <ele>1427.7</ele>
        <time>2013-08-29T13:56:54Z</time>
      </trkpt>
      <trkpt lat="45.16491" lon="6.43162">
        <ele>1427.7</ele>
        <time>2013-08-29T13:56:55Z</time>
      </trkpt>
      <trkpt lat="45.16489" lon="6.43163">
        <ele>1428.2</ele>
        <time>2013-08-29T13:56:56Z</time>
      </trkpt>
      <trkpt lat="45.16489" lon="6.43164">
        <ele>1427.7</ele>
        <time>2013-08-29T13:56:57Z</time>
      </trkpt>
      <trkpt lat="45.16489" lon="6.43166">
        <ele>1427.7</ele>
        <time>2013-08-29T13:56:59Z</time>
      </trkpt>
      <trkpt lat="45.1649" lon="6.43166">
        <ele>1427.7</ele>
        <time>2013-08-29T13:57:00Z</time>
      </trkpt>
      <trkpt lat="45.16493" lon="6.43164">
        <ele>1424.3</ele>
        <time>2013-08-29T13:57:05Z</time>
      </trkpt>
      <trkpt lat="45.16493" lon="6.43164">
        <ele>1424.3</ele>
        <time>2013-08-29T13:57:06Z</time>
      </trkpt>
      <trkpt lat="45.15511" lon="6.42067">
        <ele>1521.4</ele>
        <time>2013-08-29T14:18:05Z</time>
      </trkpt>
      <trkpt lat="45.15509" lon="6.42069">
        <ele>1521.4</ele>
        <time>2013-08-29T14:18:06Z</time>
      </trkpt>
      <trkpt lat="45.15478" lon="6.42074">
        <ele>1521.9</ele>
        <time>2013-08-29T14:18:21Z</time>
      </trkpt>
      <trkpt lat="45.15432" lon="6.42077">
        <ele>1522.9</ele>
        <time>2013-08-29T14:18:43Z</time>
      </trkpt>
      <trkpt lat="45.15404" lon="6.42074">
        <ele>1525.8</ele>
        <time>2013-08-29T14:18:56Z</time>
      </trkpt>
      <trkpt lat="45.15361" lon="6.42067">
        <ele>1529.1</ele>
        <time>2013-08-29T14:19:15Z</time>
      </trkpt>
      <trkpt lat="45.15334" lon="6.42064">
        <ele>1532</ele>
        <time>2013-08-29T14:19:28Z</time>
      </trkpt>
      <trkpt lat="45.153" lon="6.42067">
        <ele>1534.9</ele>
        <time>2013-08-29T14:19:43Z</time>
      </trkpt>
      <trkpt lat="45.15265" lon="6.42071">
        <ele>1537.8</ele>
        <time>2013-08-29T14:20:00Z</time>
      </trkpt>
      <trkpt lat="45.15237" lon="6.42058">
        <ele>1541.1</ele>
        <time>2013-08-29T14:20:15Z</time>
      </trkpt>
      <trkpt lat="45.1521" lon="6.42044">
        <ele>1544</ele>
        <time>2013-08-29T14:20:30Z</time>
      </trkpt>
      <trkpt lat="45.15206" lon="6.42042">
        <ele>1545</ele>
        <time>2013-08-29T14:20:32Z</time>
      </trkpt>
      <trkpt lat="45.15173" lon="6.42023">
        <ele>1547.9</ele>
        <time>2013-08-29T14:20:49Z</time>
      </trkpt>
      <trkpt lat="45.15138" lon="6.42017">
        <ele>1550.7</ele>
        <time>2013-08-29T14:21:06Z</time>
      </trkpt>
      <trkpt lat="45.15104" lon="6.42033">
        <ele>1553.6</ele>
        <time>2013-08-29T14:21:20Z</time>
      </trkpt>
      <trkpt lat="45.15072" lon="6.42048">
        <ele>1557</ele>
        <time>2013-08-29T14:21:36Z</time>
      </trkpt>
      <trkpt lat="45.15023" lon="6.42042">
        <ele>1559.9</ele>
        <time>2013-08-29T14:21:55Z</time>
      </trkpt>
      <trkpt lat="45.14991" lon="6.42043">
        <ele>1561.3</ele>
        <time>2013-08-29T14:22:05Z</time>
      </trkpt>
      <trkpt lat="45.14944" lon="6.42052">
        <ele>1561.8</ele>
        <time>2013-08-29T14:22:19Z</time>
      </trkpt>
      <trkpt lat="45.1489" lon="6.42045">
        <ele>1564.7</ele>
        <time>2013-08-29T14:22:36Z</time>
      </trkpt>
      <trkpt lat="45.14843" lon="6.42053">
        <ele>1566.1</ele>
        <time>2013-08-29T14:22:50Z</time>
      </trkpt>
      <trkpt lat="45.14831" lon="6.42049">
        <ele>1567.1</ele>
        <time>2013-08-29T14:22:53Z</time>
      </trkpt>
      <trkpt lat="45.14827" lon="6.42047">
        <ele>1566.1</ele>
        <time>2013-08-29T14:22:54Z</time>
      </trkpt>
      <trkpt lat="45.14756" lon="6.4202">
        <ele>1566.6</ele>
        <time>2013-08-29T14:23:11Z</time>
      </trkpt>
      <trkpt lat="45.14752" lon="6.4202">
        <ele>1566.6</ele>
        <time>2013-08-29T14:23:12Z</time>
      </trkpt>
      <trkpt lat="45.14683" lon="6.42025">
        <ele>1566.6</ele>
        <time>2013-08-29T14:23:26Z</time>
      </trkpt>
      <trkpt lat="45.14609" lon="6.42005">
        <ele>1567.6</ele>
        <time>2013-08-29T14:23:41Z</time>
      </trkpt>
      <trkpt lat="45.146" lon="6.42003">
        <ele>1567.6</ele>
        <time>2013-08-29T14:23:43Z</time>
      </trkpt>
      <trkpt lat="45.14579" lon="6.42001">
        <ele>1568.1</ele>
        <time>2013-08-29T14:23:48Z</time>
      </trkpt>
      <trkpt lat="45.14503" lon="6.41982">
        <ele>1569.5</ele>
        <time>2013-08-29T14:24:06Z</time>
      </trkpt>
      <trkpt lat="45.1443" lon="6.41977">
        <ele>1571.4</ele>
        <time>2013-08-29T14:24:24Z</time>
      </trkpt>
      <trkpt lat="45.1435" lon="6.41975">
        <ele>1574.3</ele>
        <time>2013-08-29T14:24:44Z</time>
      </trkpt>
      <trkpt lat="45.14279" lon="6.41972">
        <ele>1574.3</ele>
        <time>2013-08-29T14:25:01Z</time>
      </trkpt>
      <trkpt lat="45.14182" lon="6.41971">
        <ele>1577.2</ele>
        <time>2013-08-29T14:25:24Z</time>
      </trkpt>
      <trkpt lat="45.14085" lon="6.41977">
        <ele>1579.6</ele>
        <time>2013-08-29T14:25:47Z</time>
      </trkpt>
      <trkpt lat="45.14013" lon="6.41982">
        <ele>1582</ele>
        <time>2013-08-29T14:26:05Z</time>
      </trkpt>
      <trkpt lat="45.13951" lon="6.41985">
        <ele>1585.4</ele>
        <time>2013-08-29T14:26:25Z</time>
      </trkpt>
      <trkpt lat="45.13895" lon="6.41988">
        <ele>1587.8</ele>
        <time>2013-08-29T14:26:43Z</time>
      </trkpt>
      <trkpt lat="45.13837" lon="6.41977">
        <ele>1590.6</ele>
        <time>2013-08-29T14:27:01Z</time>
      </trkpt>
      <trkpt lat="45.13775" lon="6.41955">
        <ele>1593.5</ele>
        <time>2013-08-29T14:27:20Z</time>
      </trkpt>
      <trkpt lat="45.13727" lon="6.41941">
        <ele>1594.5</ele>
        <time>2013-08-29T14:27:34Z</time>
      </trkpt>
      <trkpt lat="45.13723" lon="6.41942">
        <ele>1595</ele>
        <time>2013-08-29T14:27:35Z</time>
      </trkpt>
      <trkpt lat="45.13719" lon="6.41944">
        <ele>1595</ele>
        <time>2013-08-29T14:27:36Z</time>
      </trkpt>
      <trkpt lat="45.13716" lon="6.41948">
        <ele>1594.5</ele>
        <time>2013-08-29T14:27:37Z</time>
      </trkpt>
      <trkpt lat="45.13712" lon="6.41952">
        <ele>1595</ele>
        <time>2013-08-29T14:27:38Z</time>
      </trkpt>
      <trkpt lat="45.13709" lon="6.41956">
        <ele>1594.5</ele>
        <time>2013-08-29T14:27:39Z</time>
      </trkpt>
      <trkpt lat="45.13693" lon="6.41977">
        <ele>1594.5</ele>
        <time>2013-08-29T14:27:44Z</time>
      </trkpt>
      <trkpt lat="45.13689" lon="6.4198">
        <ele>1594.5</ele>
        <time>2013-08-29T14:27:45Z</time>
      </trkpt>
      <trkpt lat="45.13685" lon="6.41982">
        <ele>1595</ele>
        <time>2013-08-29T14:27:46Z</time>
      </trkpt>
      <trkpt lat="45.13681" lon="6.41983">
        <ele>1594.5</ele>
        <time>2013-08-29T14:27:47Z</time>
      </trkpt>
      <trkpt lat="45.13677" lon="6.41983">
        <ele>1594</ele>
        <time>2013-08-29T14:27:48Z</time>
      </trkpt>
      <trkpt lat="45.13609" lon="6.41975">
        <ele>1594.5</ele>
        <time>2013-08-29T14:28:04Z</time>
      </trkpt>
      <trkpt lat="45.13519" lon="6.41951">
        <ele>1595.5</ele>
        <time>2013-08-29T14:28:24Z</time>
      </trkpt>
      <trkpt lat="45.13421" lon="6.41922">
        <ele>1597.4</ele>
        <time>2013-08-29T14:28:46Z</time>
      </trkpt>
      <trkpt lat="45.13334" lon="6.41896">
        <ele>1601.2</ele>
        <time>2013-08-29T14:29:06Z</time>
      </trkpt>
      <trkpt lat="45.13258" lon="6.41873">
        <ele>1602.7</ele>
        <time>2013-08-29T14:29:25Z</time>
      </trkpt>
      <trkpt lat="45.13199" lon="6.41859">
        <ele>1604.6</ele>
        <time>2013-08-29T14:29:42Z</time>
      </trkpt>
      <trkpt lat="45.13116" lon="6.41842">
        <ele>1607.5</ele>
        <time>2013-08-29T14:30:05Z</time>
      </trkpt>
      <trkpt lat="45.13034" lon="6.41829">
        <ele>1610.4</ele>
        <time>2013-08-29T14:30:27Z</time>
      </trkpt>
      <trkpt lat="45.12965" lon="6.41829">
        <ele>1612.8</ele>
        <time>2013-08-29T14:30:45Z</time>
      </trkpt>
      <trkpt lat="45.12911" lon="6.41831">
        <ele>1615.6</ele>
        <time>2013-08-29T14:31:01Z</time>
      </trkpt>
      <trkpt lat="45.12858" lon="6.41833">
        <ele>1619</ele>
        <time>2013-08-29T14:31:18Z</time>
      </trkpt>
      <trkpt lat="45.12792" lon="6.41843">
        <ele>1621.9</ele>
        <time>2013-08-29T14:31:39Z</time>
      </trkpt>
      <trkpt lat="45.12737" lon="6.41852">
        <ele>1623.8</ele>
        <time>2013-08-29T14:31:56Z</time>
      </trkpt>
      <trkpt lat="45.12713" lon="6.41856">
        <ele>1625.7</ele>
        <time>2013-08-29T14:32:04Z</time>
      </trkpt>
      <trkpt lat="45.12669" lon="6.41863">
        <ele>1627.7</ele>
        <time>2013-08-29T14:32:21Z</time>
      </trkpt>
      <trkpt lat="45.12643" lon="6.41865">
        <ele>1630.1</ele>
        <time>2013-08-29T14:32:34Z</time>
      </trkpt>
      <trkpt lat="45.12615" lon="6.4186">
        <ele>1632.9</ele>
        <time>2013-08-29T14:32:47Z</time>
      </trkpt>
      <trkpt lat="45.12589" lon="6.41862">
        <ele>1633.9</ele>
        <time>2013-08-29T14:33:01Z</time>
      </trkpt>
      <trkpt lat="45.12561" lon="6.41864">
        <ele>1636.8</ele>
        <time>2013-08-29T14:33:14Z</time>
      </trkpt>
      <trkpt lat="45.12518" lon="6.41864">
        <ele>1639.7</ele>
        <time>2013-08-29T14:33:34Z</time>
      </trkpt>
      <trkpt lat="45.12493" lon="6.41855">
        <ele>1642.6</ele>
        <time>2013-08-29T14:33:47Z</time>
      </trkpt>
      <trkpt lat="45.12469" lon="6.41824">
        <ele>1645.9</ele>
        <time>2013-08-29T14:34:03Z</time>
      </trkpt>
      <trkpt lat="45.12443" lon="6.41795">
        <ele>1649.3</ele>
        <time>2013-08-29T14:34:20Z</time>
      </trkpt>
      <trkpt lat="45.12417" lon="6.4178">
        <ele>1652.2</ele>
        <time>2013-08-29T14:34:34Z</time>
      </trkpt>
      <trkpt lat="45.12391" lon="6.41758">
        <ele>1654.6</ele>
        <time>2013-08-29T14:34:49Z</time>
      </trkpt>
      <trkpt lat="45.12387" lon="6.41757">
        <ele>1656</ele>
        <time>2013-08-29T14:34:51Z</time>
      </trkpt>
      <trkpt lat="45.12381" lon="6.41758">
        <ele>1656.5</ele>
        <time>2013-08-29T14:34:55Z</time>
      </trkpt>
      <trkpt lat="45.12372" lon="6.41784">
        <ele>1657.5</ele>
        <time>2013-08-29T14:35:06Z</time>
      </trkpt>
      <trkpt lat="45.12382" lon="6.4182">
        <ele>1659.9</ele>
        <time>2013-08-29T14:35:17Z</time>
      </trkpt>
      <trkpt lat="45.12402" lon="6.41868">
        <ele>1661.8</ele>
        <time>2013-08-29T14:35:35Z</time>
      </trkpt>
      <trkpt lat="45.12401" lon="6.41892">
        <ele>1663.7</ele>
        <time>2013-08-29T14:35:43Z</time>
      </trkpt>
      <trkpt lat="45.124" lon="6.41894">
        <ele>1663.7</ele>
        <time>2013-08-29T14:35:44Z</time>
      </trkpt>
      <trkpt lat="45.12373" lon="6.41874">
        <ele>1664.7</ele>
        <time>2013-08-29T14:35:56Z</time>
      </trkpt>
      <trkpt lat="45.12341" lon="6.41851">
        <ele>1667.5</ele>
        <time>2013-08-29T14:36:11Z</time>
      </trkpt>
      <trkpt lat="45.12315" lon="6.41836">
        <ele>1669</ele>
        <time>2013-08-29T14:36:25Z</time>
      </trkpt>
      <trkpt lat="45.12281" lon="6.41815">
        <ele>1671.4</ele>
        <time>2013-08-29T14:36:41Z</time>
      </trkpt>
      <trkpt lat="45.12244" lon="6.41793">
        <ele>1674.3</ele>
        <time>2013-08-29T14:36:58Z</time>
      </trkpt>
      <trkpt lat="45.12202" lon="6.41782">
        <ele>1677.2</ele>
        <time>2013-08-29T14:37:17Z</time>
      </trkpt>
      <trkpt lat="45.12173" lon="6.41785">
        <ele>1680</ele>
        <time>2013-08-29T14:37:32Z</time>
      </trkpt>
      <trkpt lat="45.12145" lon="6.41786">
        <ele>1683.4</ele>
        <time>2013-08-29T14:37:46Z</time>
      </trkpt>
      <trkpt lat="45.12103" lon="6.41787">
        <ele>1686.8</ele>
        <time>2013-08-29T14:38:06Z</time>
      </trkpt>
      <trkpt lat="45.12064" lon="6.4179">
        <ele>1689.7</ele>
        <time>2013-08-29T14:38:25Z</time>
      </trkpt>
      <trkpt lat="45.12031" lon="6.41791">
        <ele>1693</ele>
        <time>2013-08-29T14:38:41Z</time>
      </trkpt>
      <trkpt lat="45.12" lon="6.41793">
        <ele>1696.4</ele>
        <time>2013-08-29T14:38:56Z</time>
      </trkpt>
      <trkpt lat="45.11969" lon="6.41794">
        <ele>1698.3</ele>
        <time>2013-08-29T14:39:13Z</time>
      </trkpt>
      <trkpt lat="45.11935" lon="6.41794">
        <ele>1701.7</ele>
        <time>2013-08-29T14:39:30Z</time>
      </trkpt>
      <trkpt lat="45.11907" lon="6.41797">
        <ele>1705</ele>
        <time>2013-08-29T14:39:43Z</time>
      </trkpt>
      <trkpt lat="45.11904" lon="6.41797">
        <ele>1705</ele>
        <time>2013-08-29T14:39:44Z</time>
      </trkpt>
      <trkpt lat="45.11869" lon="6.4183">
        <ele>1707</ele>
        <time>2013-08-29T14:40:02Z</time>
      </trkpt>
      <trkpt lat="45.1184" lon="6.41877">
        <ele>1710.3</ele>
        <time>2013-08-29T14:40:21Z</time>
      </trkpt>
      <trkpt lat="45.11837" lon="6.41882">
        <ele>1710.8</ele>
        <time>2013-08-29T14:40:23Z</time>
      </trkpt>
      <trkpt lat="45.11812" lon="6.41924">
        <ele>1713.2</ele>
        <time>2013-08-29T14:40:41Z</time>
      </trkpt>
      <trkpt lat="45.11782" lon="6.4197">
        <ele>1716.6</ele>
        <time>2013-08-29T14:40:59Z</time>
      </trkpt>
      <trkpt lat="45.11752" lon="6.41998">
        <ele>1719.5</ele>
        <time>2013-08-29T14:41:14Z</time>
      </trkpt>
      <trkpt lat="45.11727" lon="6.42025">
        <ele>1721.9</ele>
        <time>2013-08-29T14:41:28Z</time>
      </trkpt>
      <trkpt lat="45.11714" lon="6.42039">
        <ele>1723.3</ele>
        <time>2013-08-29T14:41:42Z</time>
      </trkpt>
      <trkpt lat="45.11706" lon="6.4205">
        <ele>1723.8</ele>
        <time>2013-08-29T14:42:04Z</time>
      </trkpt>
      <trkpt lat="45.11677" lon="6.42084">
        <ele>1726.7</ele>
        <time>2013-08-29T14:42:21Z</time>
      </trkpt>
      <trkpt lat="45.11649" lon="6.42106">
        <ele>1730</ele>
        <time>2013-08-29T14:42:36Z</time>
      </trkpt>
      <trkpt lat="45.11614" lon="6.42126">
        <ele>1732.9</ele>
        <time>2013-08-29T14:42:53Z</time>
      </trkpt>
      <trkpt lat="45.11581" lon="6.42158">
        <ele>1736.3</ele>
        <time>2013-08-29T14:43:11Z</time>
      </trkpt>
      <trkpt lat="45.11552" lon="6.422">
        <ele>1739.6</ele>
        <time>2013-08-29T14:43:30Z</time>
      </trkpt>
      <trkpt lat="45.11534" lon="6.42243">
        <ele>1743</ele>
        <time>2013-08-29T14:43:46Z</time>
      </trkpt>
      <trkpt lat="45.1152" lon="6.42281">
        <ele>1745.9</ele>
        <time>2013-08-29T14:44:01Z</time>
      </trkpt>
      <trkpt lat="45.11497" lon="6.42322">
        <ele>1749.3</ele>
        <time>2013-08-29T14:44:19Z</time>
      </trkpt>
      <trkpt lat="45.11489" lon="6.42334">
        <ele>1750.2</ele>
        <time>2013-08-29T14:44:26Z</time>
      </trkpt>
      <trkpt lat="45.11488" lon="6.42336">
        <ele>1750.2</ele>
        <time>2013-08-29T14:44:27Z</time>
      </trkpt>
      <trkpt lat="45.11488" lon="6.42338">
        <ele>1750.2</ele>
        <time>2013-08-29T14:44:28Z</time>
      </trkpt>
      <trkpt lat="45.11488" lon="6.42341">
        <ele>1751.2</ele>
        <time>2013-08-29T14:44:29Z</time>
      </trkpt>
      <trkpt lat="45.11488" lon="6.42344">
        <ele>1751.2</ele>
        <time>2013-08-29T14:44:30Z</time>
      </trkpt>
      <trkpt lat="45.11488" lon="6.42346">
        <ele>1751.2</ele>
        <time>2013-08-29T14:44:31Z</time>
      </trkpt>
      <trkpt lat="45.1149" lon="6.42351">
        <ele>1750.7</ele>
        <time>2013-08-29T14:44:40Z</time>
      </trkpt>
      <trkpt lat="45.11489" lon="6.42352">
        <ele>1750.7</ele>
        <time>2013-08-29T14:45:05Z</time>
      </trkpt>
      <trkpt lat="45.11489" lon="6.42351">
        <ele>1750.7</ele>
        <time>2013-08-29T14:45:43Z</time>
      </trkpt>
      <trkpt lat="45.11487" lon="6.42352">
        <ele>1751.2</ele>
        <time>2013-08-29T14:46:11Z</time>
      </trkpt>
      <trkpt lat="45.11489" lon="6.42351">
        <ele>1751.2</ele>
        <time>2013-08-29T14:46:38Z</time>
      </trkpt>
      <trkpt lat="45.1149" lon="6.42347">
        <ele>1750.7</ele>
        <time>2013-08-29T14:47:12Z</time>
      </trkpt>
      <trkpt lat="45.11485" lon="6.42349">
        <ele>1752.1</ele>
        <time>2013-08-29T14:47:25Z</time>
      </trkpt>
      <trkpt lat="45.11484" lon="6.42348">
        <ele>1752.1</ele>
        <time>2013-08-29T14:47:28Z</time>
      </trkpt>
      <trkpt lat="45.11483" lon="6.42347">
        <ele>1751.7</ele>
        <time>2013-08-29T14:47:29Z</time>
      </trkpt>
      <trkpt lat="45.11482" lon="6.42347">
        <ele>1752.1</ele>
        <time>2013-08-29T14:47:30Z</time>
      </trkpt>
      <trkpt lat="45.1148" lon="6.42347">
        <ele>1751.7</ele>
        <time>2013-08-29T14:47:31Z</time>
      </trkpt>
      <trkpt lat="45.11478" lon="6.42348">
        <ele>1751.7</ele>
        <time>2013-08-29T14:47:32Z</time>
      </trkpt>
      <trkpt lat="45.11451" lon="6.42356">
        <ele>1755</ele>
        <time>2013-08-29T14:47:49Z</time>
      </trkpt>
      <trkpt lat="45.11419" lon="6.4236">
        <ele>1758.4</ele>
        <time>2013-08-29T14:48:06Z</time>
      </trkpt>
      <trkpt lat="45.11382" lon="6.42361">
        <ele>1760.8</ele>
        <time>2013-08-29T14:48:26Z</time>
      </trkpt>
      <trkpt lat="45.11353" lon="6.42364">
        <ele>1764.2</ele>
        <time>2013-08-29T14:48:41Z</time>
      </trkpt>
      <trkpt lat="45.11318" lon="6.42371">
        <ele>1766.6</ele>
        <time>2013-08-29T14:48:58Z</time>
      </trkpt>
      <trkpt lat="45.11285" lon="6.42389">
        <ele>1769.9</ele>
        <time>2013-08-29T14:49:16Z</time>
      </trkpt>
      <trkpt lat="45.11256" lon="6.42425">
        <ele>1772.3</ele>
        <time>2013-08-29T14:49:35Z</time>
      </trkpt>
      <trkpt lat="45.11227" lon="6.42432">
        <ele>1775.7</ele>
        <time>2013-08-29T14:49:49Z</time>
      </trkpt>
      <trkpt lat="45.11189" lon="6.4243">
        <ele>1777.6</ele>
        <time>2013-08-29T14:50:07Z</time>
      </trkpt>
      <trkpt lat="45.11158" lon="6.42432">
        <ele>1781</ele>
        <time>2013-08-29T14:50:21Z</time>
      </trkpt>
      <trkpt lat="45.11122" lon="6.42436">
        <ele>1783.9</ele>
        <time>2013-08-29T14:50:38Z</time>
      </trkpt>
      <trkpt lat="45.1108" lon="6.42465">
        <ele>1786.8</ele>
        <time>2013-08-29T14:50:58Z</time>
      </trkpt>
      <trkpt lat="45.1104" lon="6.4249">
        <ele>1788.7</ele>
        <time>2013-08-29T14:51:17Z</time>
      </trkpt>
      <trkpt lat="45.11025" lon="6.42498">
        <ele>1790.6</ele>
        <time>2013-08-29T14:51:24Z</time>
      </trkpt>
      <trkpt lat="45.10998" lon="6.42518">
        <ele>1794</ele>
        <time>2013-08-29T14:51:40Z</time>
      </trkpt>
      <trkpt lat="45.10966" lon="6.42559">
        <ele>1796.8</ele>
        <time>2013-08-29T14:52:00Z</time>
      </trkpt>
      <trkpt lat="45.10933" lon="6.42596">
        <ele>1800.2</ele>
        <time>2013-08-29T14:52:19Z</time>
      </trkpt>
      <trkpt lat="45.10907" lon="6.42593">
        <ele>1801.7</ele>
        <time>2013-08-29T14:52:32Z</time>
      </trkpt>
      <trkpt lat="45.10862" lon="6.42576">
        <ele>1804.5</ele>
        <time>2013-08-29T14:52:53Z</time>
      </trkpt>
      <trkpt lat="45.10827" lon="6.42566">
        <ele>1807.9</ele>
        <time>2013-08-29T14:53:09Z</time>
      </trkpt>
      <trkpt lat="45.10784" lon="6.42555">
        <ele>1810.8</ele>
        <time>2013-08-29T14:53:28Z</time>
      </trkpt>
      <trkpt lat="45.10744" lon="6.42543">
        <ele>1814.2</ele>
        <time>2013-08-29T14:53:46Z</time>
      </trkpt>
      <trkpt lat="45.10705" lon="6.42533">
        <ele>1817</ele>
        <time>2013-08-29T14:54:04Z</time>
      </trkpt>
      <trkpt lat="45.10668" lon="6.42536">
        <ele>1820.4</ele>
        <time>2013-08-29T14:54:22Z</time>
      </trkpt>
      <trkpt lat="45.10629" lon="6.42547">
        <ele>1823.8</ele>
        <time>2013-08-29T14:54:39Z</time>
      </trkpt>
      <trkpt lat="45.10595" lon="6.42559">
        <ele>1827.1</ele>
        <time>2013-08-29T14:54:56Z</time>
      </trkpt>
      <trkpt lat="45.10556" lon="6.42579">
        <ele>1828.6</ele>
        <time>2013-08-29T14:55:15Z</time>
      </trkpt>
      <trkpt lat="45.10529" lon="6.426">
        <ele>1831.9</ele>
        <time>2013-08-29T14:55:29Z</time>
      </trkpt>
      <trkpt lat="45.10494" lon="6.4263">
        <ele>1835.3</ele>
        <time>2013-08-29T14:55:48Z</time>
      </trkpt>
      <trkpt lat="45.10461" lon="6.42657">
        <ele>1838.2</ele>
        <time>2013-08-29T14:56:06Z</time>
      </trkpt>
      <trkpt lat="45.10437" lon="6.4268">
        <ele>1841.1</ele>
        <time>2013-08-29T14:56:21Z</time>
      </trkpt>
      <trkpt lat="45.10418" lon="6.42724">
        <ele>1844</ele>
        <time>2013-08-29T14:56:40Z</time>
      </trkpt>
      <trkpt lat="45.10411" lon="6.42736">
        <ele>1845.4</ele>
        <time>2013-08-29T14:56:45Z</time>
      </trkpt>
      <trkpt lat="45.10382" lon="6.42753">
        <ele>1847.8</ele>
        <time>2013-08-29T14:57:02Z</time>
      </trkpt>
      <trkpt lat="45.1036" lon="6.42763">
        <ele>1850.2</ele>
        <time>2013-08-29T14:57:16Z</time>
      </trkpt>
      <trkpt lat="45.1033" lon="6.42776">
        <ele>1853.6</ele>
        <time>2013-08-29T14:57:33Z</time>
      </trkpt>
      <trkpt lat="45.10296" lon="6.42798">
        <ele>1856.9</ele>
        <time>2013-08-29T14:57:51Z</time>
      </trkpt>
      <trkpt lat="45.10274" lon="6.42835">
        <ele>1858.9</ele>
        <time>2013-08-29T14:58:08Z</time>
      </trkpt>
      <trkpt lat="45.10256" lon="6.4287">
        <ele>1862.2</ele>
        <time>2013-08-29T14:58:22Z</time>
      </trkpt>
      <trkpt lat="45.10227" lon="6.429">
        <ele>1865.1</ele>
        <time>2013-08-29T14:58:39Z</time>
      </trkpt>
      <trkpt lat="45.10191" lon="6.42908">
        <ele>1868</ele>
        <time>2013-08-29T14:58:57Z</time>
      </trkpt>
      <trkpt lat="45.10174" lon="6.42923">
        <ele>1870.4</ele>
        <time>2013-08-29T14:59:07Z</time>
      </trkpt>
      <trkpt lat="45.10146" lon="6.42952">
        <ele>1873.8</ele>
        <time>2013-08-29T14:59:25Z</time>
      </trkpt>
      <trkpt lat="45.10115" lon="6.42959">
        <ele>1876.2</ele>
        <time>2013-08-29T14:59:41Z</time>
      </trkpt>
      <trkpt lat="45.10086" lon="6.42955">
        <ele>1879</ele>
        <time>2013-08-29T14:59:56Z</time>
      </trkpt>
      <trkpt lat="45.10064" lon="6.42924">
        <ele>1882.4</ele>
        <time>2013-08-29T15:00:12Z</time>
      </trkpt>
      <trkpt lat="45.10033" lon="6.42891">
        <ele>1884.8</ele>
        <time>2013-08-29T15:00:31Z</time>
      </trkpt>
      <trkpt lat="45.10005" lon="6.42885">
        <ele>1888.2</ele>
        <time>2013-08-29T15:00:45Z</time>
      </trkpt>
      <trkpt lat="45.09973" lon="6.42895">
        <ele>1891.1</ele>
        <time>2013-08-29T15:01:01Z</time>
      </trkpt>
      <trkpt lat="45.09943" lon="6.42894">
        <ele>1894.4</ele>
        <time>2013-08-29T15:01:16Z</time>
      </trkpt>
      <trkpt lat="45.0993" lon="6.42895">
        <ele>1894.9</ele>
        <time>2013-08-29T15:01:23Z</time>
      </trkpt>
      <trkpt lat="45.09916" lon="6.42901">
        <ele>1897.3</ele>
        <time>2013-08-29T15:01:30Z</time>
      </trkpt>
      <trkpt lat="45.09901" lon="6.42919">
        <ele>1898.7</ele>
        <time>2013-08-29T15:01:41Z</time>
      </trkpt>
      <trkpt lat="45.0988" lon="6.42949">
        <ele>1901.1</ele>
        <time>2013-08-29T15:01:56Z</time>
      </trkpt>
      <trkpt lat="45.09858" lon="6.42962">
        <ele>1904</ele>
        <time>2013-08-29T15:02:09Z</time>
      </trkpt>
      <trkpt lat="45.09831" lon="6.42971">
        <ele>1906.9</ele>
        <time>2013-08-29T15:02:23Z</time>
      </trkpt>
      <trkpt lat="45.09797" lon="6.4298">
        <ele>1910.3</ele>
        <time>2013-08-29T15:02:42Z</time>
      </trkpt>
      <trkpt lat="45.09763" lon="6.4299">
        <ele>1913.6</ele>
        <time>2013-08-29T15:03:01Z</time>
      </trkpt>
      <trkpt lat="45.09734" lon="6.43001">
        <ele>1917</ele>
        <time>2013-08-29T15:03:18Z</time>
      </trkpt>
      <trkpt lat="45.09701" lon="6.43029">
        <ele>1919.4</ele>
        <time>2013-08-29T15:03:38Z</time>
      </trkpt>
      <trkpt lat="45.09681" lon="6.43046">
        <ele>1922.8</ele>
        <time>2013-08-29T15:03:52Z</time>
      </trkpt>
      <trkpt lat="45.09648" lon="6.43052">
        <ele>1925.2</ele>
        <time>2013-08-29T15:04:11Z</time>
      </trkpt>
      <trkpt lat="45.09626" lon="6.4305">
        <ele>1928.1</ele>
        <time>2013-08-29T15:04:24Z</time>
      </trkpt>
      <trkpt lat="45.0962" lon="6.4305">
        <ele>1928.1</ele>
        <time>2013-08-29T15:04:28Z</time>
      </trkpt>
      <trkpt lat="45.09596" lon="6.4305">
        <ele>1930</ele>
        <time>2013-08-29T15:04:45Z</time>
      </trkpt>
      <trkpt lat="45.0957" lon="6.43049">
        <ele>1933.4</ele>
        <time>2013-08-29T15:05:00Z</time>
      </trkpt>
      <trkpt lat="45.09546" lon="6.43055">
        <ele>1935.3</ele>
        <time>2013-08-29T15:05:15Z</time>
      </trkpt>
      <trkpt lat="45.09516" lon="6.4305">
        <ele>1938.2</ele>
        <time>2013-08-29T15:05:31Z</time>
      </trkpt>
      <trkpt lat="45.09489" lon="6.43057">
        <ele>1941</ele>
        <time>2013-08-29T15:05:45Z</time>
      </trkpt>
      <trkpt lat="45.09455" lon="6.43086">
        <ele>1943.4</ele>
        <time>2013-08-29T15:06:03Z</time>
      </trkpt>
      <trkpt lat="45.09411" lon="6.4312">
        <ele>1945.9</ele>
        <time>2013-08-29T15:06:22Z</time>
      </trkpt>
      <trkpt lat="45.09361" lon="6.4316">
        <ele>1947.8</ele>
        <time>2013-08-29T15:06:41Z</time>
      </trkpt>
      <trkpt lat="45.09321" lon="6.43185">
        <ele>1949.2</ele>
        <time>2013-08-29T15:06:56Z</time>
      </trkpt>
      <trkpt lat="45.09283" lon="6.43233">
        <ele>1951.6</ele>
        <time>2013-08-29T15:07:13Z</time>
      </trkpt>
      <trkpt lat="45.09234" lon="6.43258">
        <ele>1953.1</ele>
        <time>2013-08-29T15:07:30Z</time>
      </trkpt>
      <trkpt lat="45.09189" lon="6.43306">
        <ele>1955</ele>
        <time>2013-08-29T15:07:48Z</time>
      </trkpt>
      <trkpt lat="45.09156" lon="6.43374">
        <ele>1956.9</ele>
        <time>2013-08-29T15:08:06Z</time>
      </trkpt>
      <trkpt lat="45.09133" lon="6.43436">
        <ele>1959.8</ele>
        <time>2013-08-29T15:08:23Z</time>
      </trkpt>
      <trkpt lat="45.09105" lon="6.43504">
        <ele>1962.7</ele>
        <time>2013-08-29T15:08:43Z</time>
      </trkpt>
      <trkpt lat="45.09061" lon="6.43527">
        <ele>1965.6</ele>
        <time>2013-08-29T15:09:00Z</time>
      </trkpt>
      <trkpt lat="45.09035" lon="6.43541">
        <ele>1967</ele>
        <time>2013-08-29T15:09:14Z</time>
      </trkpt>
      <trkpt lat="45.09029" lon="6.43558">
        <ele>1968</ele>
        <time>2013-08-29T15:09:26Z</time>
      </trkpt>
      <trkpt lat="45.09028" lon="6.43557">
        <ele>1964.6</ele>
        <time>2013-08-29T15:09:30Z</time>
      </trkpt>
      <trkpt lat="45.09029" lon="6.43557">
        <ele>1964.6</ele>
        <time>2013-08-29T15:09:31Z</time>
      </trkpt>
      <trkpt lat="45.08965" lon="6.43637">
        <ele>1965.1</ele>
        <time>2013-08-29T15:16:03Z</time>
      </trkpt>
      <trkpt lat="45.08954" lon="6.43639">
        <ele>1967.5</ele>
        <time>2013-08-29T15:16:12Z</time>
      </trkpt>
      <trkpt lat="45.08945" lon="6.43642">
        <ele>1971.3</ele>
        <time>2013-08-29T15:16:19Z</time>
      </trkpt>
      <trkpt lat="45.08943" lon="6.43642">
        <ele>1971.3</ele>
        <time>2013-08-29T15:16:20Z</time>
      </trkpt>
      <trkpt lat="45.08932" lon="6.43649">
        <ele>1974.7</ele>
        <time>2013-08-29T15:16:29Z</time>
      </trkpt>
      <trkpt lat="45.08927" lon="6.43651">
        <ele>1976.6</ele>
        <time>2013-08-29T15:16:33Z</time>
      </trkpt>
      <trkpt lat="45.08918" lon="6.43656">
        <ele>1980</ele>
        <time>2013-08-29T15:16:40Z</time>
      </trkpt>
      <trkpt lat="45.08916" lon="6.43657">
        <ele>1980</ele>
        <time>2013-08-29T15:16:41Z</time>
      </trkpt>
      <trkpt lat="45.08901" lon="6.43669">
        <ele>1983.3</ele>
        <time>2013-08-29T15:16:52Z</time>
      </trkpt>
      <trkpt lat="45.08896" lon="6.43673">
        <ele>1985.7</ele>
        <time>2013-08-29T15:16:56Z</time>
      </trkpt>
      <trkpt lat="45.08883" lon="6.43687">
        <ele>1988.6</ele>
        <time>2013-08-29T15:17:06Z</time>
      </trkpt>
      <trkpt lat="45.08872" lon="6.437">
        <ele>1992</ele>
        <time>2013-08-29T15:17:16Z</time>
      </trkpt>
      <trkpt lat="45.08865" lon="6.43705">
        <ele>1993.9</ele>
        <time>2013-08-29T15:17:22Z</time>
      </trkpt>
      <trkpt lat="45.08852" lon="6.43719">
        <ele>1997.3</ele>
        <time>2013-08-29T15:17:34Z</time>
      </trkpt>
      <trkpt lat="45.08842" lon="6.43738">
        <ele>2000.2</ele>
        <time>2013-08-29T15:17:47Z</time>
      </trkpt>
      <trkpt lat="45.08834" lon="6.43759">
        <ele>2003</ele>
        <time>2013-08-29T15:18:00Z</time>
      </trkpt>
      <trkpt lat="45.08827" lon="6.4378">
        <ele>2005.9</ele>
        <time>2013-08-29T15:18:12Z</time>
      </trkpt>
      <trkpt lat="45.0882" lon="6.43797">
        <ele>2007.4</ele>
        <time>2013-08-29T15:18:24Z</time>
      </trkpt>
      <trkpt lat="45.08815" lon="6.438">
        <ele>2008.3</ele>
        <time>2013-08-29T15:18:28Z</time>
      </trkpt>
      <trkpt lat="45.08801" lon="6.43826">
        <ele>2011.2</ele>
        <time>2013-08-29T15:18:46Z</time>
      </trkpt>
      <trkpt lat="45.08795" lon="6.43837">
        <ele>2012.7</ele>
        <time>2013-08-29T15:18:53Z</time>
      </trkpt>
      <trkpt lat="45.08784" lon="6.4386">
        <ele>2016</ele>
        <time>2013-08-29T15:19:08Z</time>
      </trkpt>
      <trkpt lat="45.08773" lon="6.43884">
        <ele>2018.4</ele>
        <time>2013-08-29T15:19:24Z</time>
      </trkpt>
      <trkpt lat="45.08761" lon="6.43906">
        <ele>2020.8</ele>
        <time>2013-08-29T15:19:40Z</time>
      </trkpt>
      <trkpt lat="45.08758" lon="6.43911">
        <ele>2021.8</ele>
        <time>2013-08-29T15:19:44Z</time>
      </trkpt>
      <trkpt lat="45.0874" lon="6.43929">
        <ele>2024.2</ele>
        <time>2013-08-29T15:20:01Z</time>
      </trkpt>
      <trkpt lat="45.0873" lon="6.43941">
        <ele>2026.6</ele>
        <time>2013-08-29T15:20:11Z</time>
      </trkpt>
      <trkpt lat="45.08719" lon="6.4397">
        <ele>2029.5</ele>
        <time>2013-08-29T15:20:28Z</time>
      </trkpt>
      <trkpt lat="45.08731" lon="6.43994">
        <ele>2031.9</ele>
        <time>2013-08-29T15:20:43Z</time>
      </trkpt>
      <trkpt lat="45.08761" lon="6.44">
        <ele>2034.8</ele>
        <time>2013-08-29T15:21:02Z</time>
      </trkpt>
      <trkpt lat="45.08778" lon="6.44005">
        <ele>2036.2</ele>
        <time>2013-08-29T15:21:15Z</time>
      </trkpt>
      <trkpt lat="45.08772" lon="6.44032">
        <ele>2038.6</ele>
        <time>2013-08-29T15:21:30Z</time>
      </trkpt>
      <trkpt lat="45.0876" lon="6.44066">
        <ele>2042</ele>
        <time>2013-08-29T15:21:47Z</time>
      </trkpt>
      <trkpt lat="45.08748" lon="6.44082">
        <ele>2044.4</ele>
        <time>2013-08-29T15:21:59Z</time>
      </trkpt>
      <trkpt lat="45.08732" lon="6.44112">
        <ele>2046.8</ele>
        <time>2013-08-29T15:22:16Z</time>
      </trkpt>
      <trkpt lat="45.08715" lon="6.44141">
        <ele>2049.7</ele>
        <time>2013-08-29T15:22:32Z</time>
      </trkpt>
      <trkpt lat="45.08696" lon="6.44182">
        <ele>2051.6</ele>
        <time>2013-08-29T15:22:49Z</time>
      </trkpt>
      <trkpt lat="45.0868" lon="6.44237">
        <ele>2054</ele>
        <time>2013-08-29T15:23:08Z</time>
      </trkpt>
      <trkpt lat="45.0867" lon="6.44278">
        <ele>2057.4</ele>
        <time>2013-08-29T15:23:24Z</time>
      </trkpt>
      <trkpt lat="45.08661" lon="6.44324">
        <ele>2059.3</ele>
        <time>2013-08-29T15:23:42Z</time>
      </trkpt>
      <trkpt lat="45.08654" lon="6.44364">
        <ele>2062.2</ele>
        <time>2013-08-29T15:23:56Z</time>
      </trkpt>
      <trkpt lat="45.0865" lon="6.44423">
        <ele>2062.7</ele>
        <time>2013-08-29T15:24:13Z</time>
      </trkpt>
      <trkpt lat="45.08649" lon="6.44477">
        <ele>2064.6</ele>
        <time>2013-08-29T15:24:29Z</time>
      </trkpt>
      <trkpt lat="45.08627" lon="6.44509">
        <ele>2067.5</ele>
        <time>2013-08-29T15:24:46Z</time>
      </trkpt>
      <trkpt lat="45.08611" lon="6.44531">
        <ele>2070.3</ele>
        <time>2013-08-29T15:25:01Z</time>
      </trkpt>
      <trkpt lat="45.08593" lon="6.4456">
        <ele>2072.3</ele>
        <time>2013-08-29T15:25:18Z</time>
      </trkpt>
      <trkpt lat="45.08579" lon="6.44587">
        <ele>2075.1</ele>
        <time>2013-08-29T15:25:34Z</time>
      </trkpt>
      <trkpt lat="45.08562" lon="6.44623">
        <ele>2077.6</ele>
        <time>2013-08-29T15:25:52Z</time>
      </trkpt>
      <trkpt lat="45.08548" lon="6.44664">
        <ele>2080.4</ele>
        <time>2013-08-29T15:26:11Z</time>
      </trkpt>
      <trkpt lat="45.08538" lon="6.44691">
        <ele>2080.9</ele>
        <time>2013-08-29T15:26:23Z</time>
      </trkpt>
      <trkpt lat="45.08533" lon="6.44743">
        <ele>2083.3</ele>
        <time>2013-08-29T15:26:42Z</time>
      </trkpt>
      <trkpt lat="45.08531" lon="6.44767">
        <ele>2085.2</ele>
        <time>2013-08-29T15:26:53Z</time>
      </trkpt>
      <trkpt lat="45.08531" lon="6.44769">
        <ele>2085.7</ele>
        <time>2013-08-29T15:26:54Z</time>
      </trkpt>
      <trkpt lat="45.08528" lon="6.448">
        <ele>2087.6</ele>
        <time>2013-08-29T15:27:09Z</time>
      </trkpt>
      <trkpt lat="45.08527" lon="6.44833">
        <ele>2089.6</ele>
        <time>2013-08-29T15:27:25Z</time>
      </trkpt>
      <trkpt lat="45.08526" lon="6.44874">
        <ele>2092</ele>
        <time>2013-08-29T15:27:42Z</time>
      </trkpt>
      <trkpt lat="45.0852" lon="6.44907">
        <ele>2094.9</ele>
        <time>2013-08-29T15:27:57Z</time>
      </trkpt>
      <trkpt lat="45.08517" lon="6.44933">
        <ele>2096.3</ele>
        <time>2013-08-29T15:28:11Z</time>
      </trkpt>
      <trkpt lat="45.08521" lon="6.44964">
        <ele>2099.2</ele>
        <time>2013-08-29T15:28:25Z</time>
      </trkpt>
      <trkpt lat="45.08523" lon="6.44973">
        <ele>2099.2</ele>
        <time>2013-08-29T15:28:37Z</time>
      </trkpt>
      <trkpt lat="45.08521" lon="6.44994">
        <ele>2100.6</ele>
        <time>2013-08-29T15:28:54Z</time>
      </trkpt>
      <trkpt lat="45.08521" lon="6.45005">
        <ele>2101.1</ele>
        <time>2013-08-29T15:28:59Z</time>
      </trkpt>
      <trkpt lat="45.0852" lon="6.45008">
        <ele>2102.1</ele>
        <time>2013-08-29T15:29:00Z</time>
      </trkpt>
      <trkpt lat="45.08505" lon="6.4505">
        <ele>2104.9</ele>
        <time>2013-08-29T15:29:23Z</time>
      </trkpt>
      <trkpt lat="45.08487" lon="6.45075">
        <ele>2108.3</ele>
        <time>2013-08-29T15:29:41Z</time>
      </trkpt>
      <trkpt lat="45.08471" lon="6.45102">
        <ele>2111.2</ele>
        <time>2013-08-29T15:29:56Z</time>
      </trkpt>
      <trkpt lat="45.0845" lon="6.45136">
        <ele>2114.1</ele>
        <time>2013-08-29T15:30:16Z</time>
      </trkpt>
      <trkpt lat="45.0843" lon="6.45163">
        <ele>2117</ele>
        <time>2013-08-29T15:30:35Z</time>
      </trkpt>
      <trkpt lat="45.08425" lon="6.45171">
        <ele>2118.4</ele>
        <time>2013-08-29T15:30:40Z</time>
      </trkpt>
      <trkpt lat="45.08413" lon="6.45203">
        <ele>2120.3</ele>
        <time>2013-08-29T15:30:58Z</time>
      </trkpt>
      <trkpt lat="45.0839" lon="6.45229">
        <ele>2122.7</ele>
        <time>2013-08-29T15:31:17Z</time>
      </trkpt>
      <trkpt lat="45.0838" lon="6.45202">
        <ele>2125.1</ele>
        <time>2013-08-29T15:31:31Z</time>
      </trkpt>
      <trkpt lat="45.08379" lon="6.45163">
        <ele>2127.5</ele>
        <time>2013-08-29T15:31:48Z</time>
      </trkpt>
      <trkpt lat="45.08379" lon="6.4516">
        <ele>2127.1</ele>
        <time>2013-08-29T15:31:50Z</time>
      </trkpt>
      <trkpt lat="45.08378" lon="6.45158">
        <ele>2126.6</ele>
        <time>2013-08-29T15:31:51Z</time>
      </trkpt>
      <trkpt lat="45.08378" lon="6.45157">
        <ele>2127.1</ele>
        <time>2013-08-29T15:31:52Z</time>
      </trkpt>
      <trkpt lat="45.08377" lon="6.45155">
        <ele>2127.1</ele>
        <time>2013-08-29T15:31:53Z</time>
      </trkpt>
      <trkpt lat="45.08376" lon="6.45153">
        <ele>2127.1</ele>
        <time>2013-08-29T15:31:54Z</time>
      </trkpt>
      <trkpt lat="45.08374" lon="6.45152">
        <ele>2126.6</ele>
        <time>2013-08-29T15:31:55Z</time>
      </trkpt>
      <trkpt lat="45.08373" lon="6.45152">
        <ele>2127.5</ele>
        <time>2013-08-29T15:31:56Z</time>
      </trkpt>
      <trkpt lat="45.08348" lon="6.45152">
        <ele>2127.1</ele>
        <time>2013-08-29T15:32:09Z</time>
      </trkpt>
      <trkpt lat="45.08318" lon="6.45169">
        <ele>2129.9</ele>
        <time>2013-08-29T15:32:24Z</time>
      </trkpt>
      <trkpt lat="45.08316" lon="6.4517">
        <ele>2129.9</ele>
        <time>2013-08-29T15:32:25Z</time>
      </trkpt>
      <trkpt lat="45.08293" lon="6.45208">
        <ele>2130.9</ele>
        <time>2013-08-29T15:32:40Z</time>
      </trkpt>
      <trkpt lat="45.0828" lon="6.45248">
        <ele>2133.3</ele>
        <time>2013-08-29T15:32:57Z</time>
      </trkpt>
      <trkpt lat="45.0827" lon="6.45284">
        <ele>2136.2</ele>
        <time>2013-08-29T15:33:14Z</time>
      </trkpt>
      <trkpt lat="45.0826" lon="6.45323">
        <ele>2137.6</ele>
        <time>2013-08-29T15:33:31Z</time>
      </trkpt>
      <trkpt lat="45.08261" lon="6.45366">
        <ele>2139.6</ele>
        <time>2013-08-29T15:33:47Z</time>
      </trkpt>
      <trkpt lat="45.0828" lon="6.45372">
        <ele>2142</ele>
        <time>2013-08-29T15:34:01Z</time>
      </trkpt>
      <trkpt lat="45.083" lon="6.45363">
        <ele>2144.8</ele>
        <time>2013-08-29T15:34:16Z</time>
      </trkpt>
      <trkpt lat="45.08315" lon="6.45357">
        <ele>2147.2</ele>
        <time>2013-08-29T15:34:29Z</time>
      </trkpt>
      <trkpt lat="45.08316" lon="6.45357">
        <ele>2147.7</ele>
        <time>2013-08-29T15:34:30Z</time>
      </trkpt>
      <trkpt lat="45.08317" lon="6.45358">
        <ele>2147.2</ele>
        <time>2013-08-29T15:34:31Z</time>
      </trkpt>
      <trkpt lat="45.08319" lon="6.45358">
        <ele>2147.7</ele>
        <time>2013-08-29T15:34:32Z</time>
      </trkpt>
      <trkpt lat="45.0832" lon="6.45358">
        <ele>2147.7</ele>
        <time>2013-08-29T15:34:33Z</time>
      </trkpt>
      <trkpt lat="45.08321" lon="6.45358">
        <ele>2147.7</ele>
        <time>2013-08-29T15:34:34Z</time>
      </trkpt>
      <trkpt lat="45.08322" lon="6.45357">
        <ele>2147.2</ele>
        <time>2013-08-29T15:34:35Z</time>
      </trkpt>
      <trkpt lat="45.08324" lon="6.45357">
        <ele>2147.7</ele>
        <time>2013-08-29T15:34:36Z</time>
      </trkpt>
      <trkpt lat="45.08325" lon="6.45356">
        <ele>2148.2</ele>
        <time>2013-08-29T15:34:37Z</time>
      </trkpt>
      <trkpt lat="45.08326" lon="6.45356">
        <ele>2148.7</ele>
        <time>2013-08-29T15:34:38Z</time>
      </trkpt>
      <trkpt lat="45.08349" lon="6.45347">
        <ele>2152.1</ele>
        <time>2013-08-29T15:34:56Z</time>
      </trkpt>
      <trkpt lat="45.08357" lon="6.45342">
        <ele>2153</ele>
        <time>2013-08-29T15:35:03Z</time>
      </trkpt>
      <trkpt lat="45.08375" lon="6.45327">
        <ele>2155.4</ele>
        <time>2013-08-29T15:35:19Z</time>
      </trkpt>
      <trkpt lat="45.08398" lon="6.45312">
        <ele>2158.8</ele>
        <time>2013-08-29T15:35:37Z</time>
      </trkpt>
      <trkpt lat="45.08415" lon="6.45303">
        <ele>2160.7</ele>
        <time>2013-08-29T15:35:51Z</time>
      </trkpt>
      <trkpt lat="45.08434" lon="6.45292">
        <ele>2163.6</ele>
        <time>2013-08-29T15:36:06Z</time>
      </trkpt>
      <trkpt lat="45.08445" lon="6.45299">
        <ele>2165</ele>
        <time>2013-08-29T15:36:15Z</time>
      </trkpt>
      <trkpt lat="45.08446" lon="6.45301">
        <ele>2165</ele>
        <time>2013-08-29T15:36:16Z</time>
      </trkpt>
      <trkpt lat="45.08446" lon="6.45302">
        <ele>2165</ele>
        <time>2013-08-29T15:36:17Z</time>
      </trkpt>
      <trkpt lat="45.08446" lon="6.45304">
        <ele>2165</ele>
        <time>2013-08-29T15:36:18Z</time>
      </trkpt>
      <trkpt lat="45.08445" lon="6.45306">
        <ele>2165</ele>
        <time>2013-08-29T15:36:19Z</time>
      </trkpt>
      <trkpt lat="45.08444" lon="6.45307">
        <ele>2165</ele>
        <time>2013-08-29T15:36:20Z</time>
      </trkpt>
      <trkpt lat="45.08443" lon="6.45307">
        <ele>2165</ele>
        <time>2013-08-29T15:36:21Z</time>
      </trkpt>
      <trkpt lat="45.08442" lon="6.45308">
        <ele>2165.5</ele>
        <time>2013-08-29T15:36:22Z</time>
      </trkpt>
      <trkpt lat="45.0844" lon="6.45309">
        <ele>2165.5</ele>
        <time>2013-08-29T15:36:23Z</time>
      </trkpt>
      <trkpt lat="45.08438" lon="6.4531">
        <ele>2165</ele>
        <time>2013-08-29T15:36:24Z</time>
      </trkpt>
      <trkpt lat="45.08437" lon="6.4531">
        <ele>2166</ele>
        <time>2013-08-29T15:36:25Z</time>
      </trkpt>
      <trkpt lat="45.08435" lon="6.4531">
        <ele>2166</ele>
        <time>2013-08-29T15:36:26Z</time>
      </trkpt>
      <trkpt lat="45.08415" lon="6.45326">
        <ele>2168.4</ele>
        <time>2013-08-29T15:36:41Z</time>
      </trkpt>
      <trkpt lat="45.08396" lon="6.45351">
        <ele>2170.3</ele>
        <time>2013-08-29T15:36:58Z</time>
      </trkpt>
      <trkpt lat="45.08381" lon="6.45369">
        <ele>2173.2</ele>
        <time>2013-08-29T15:37:12Z</time>
      </trkpt>
      <trkpt lat="45.08363" lon="6.45391">
        <ele>2175.1</ele>
        <time>2013-08-29T15:37:30Z</time>
      </trkpt>
      <trkpt lat="45.08345" lon="6.45415">
        <ele>2178.5</ele>
        <time>2013-08-29T15:37:47Z</time>
      </trkpt>
      <trkpt lat="45.08337" lon="6.45424">
        <ele>2179.9</ele>
        <time>2013-08-29T15:37:54Z</time>
      </trkpt>
      <trkpt lat="45.08336" lon="6.45426">
        <ele>2180.4</ele>
        <time>2013-08-29T15:37:55Z</time>
      </trkpt>
      <trkpt lat="45.08335" lon="6.45427">
        <ele>2180.4</ele>
        <time>2013-08-29T15:37:56Z</time>
      </trkpt>
      <trkpt lat="45.08334" lon="6.45428">
        <ele>2180.9</ele>
        <time>2013-08-29T15:37:57Z</time>
      </trkpt>
      <trkpt lat="45.08333" lon="6.45429">
        <ele>2180.9</ele>
        <time>2013-08-29T15:37:58Z</time>
      </trkpt>
      <trkpt lat="45.08332" lon="6.45431">
        <ele>2180.9</ele>
        <time>2013-08-29T15:38:00Z</time>
      </trkpt>
      <trkpt lat="45.08331" lon="6.45432">
        <ele>2180.9</ele>
        <time>2013-08-29T15:38:01Z</time>
      </trkpt>
      <trkpt lat="45.08329" lon="6.45439">
        <ele>2181.4</ele>
        <time>2013-08-29T15:38:05Z</time>
      </trkpt>
      <trkpt lat="45.08329" lon="6.45441">
        <ele>2181.9</ele>
        <time>2013-08-29T15:38:06Z</time>
      </trkpt>
      <trkpt lat="45.08329" lon="6.45442">
        <ele>2181.9</ele>
        <time>2013-08-29T15:38:07Z</time>
      </trkpt>
      <trkpt lat="45.0833" lon="6.45443">
        <ele>2181.9</ele>
        <time>2013-08-29T15:38:08Z</time>
      </trkpt>
      <trkpt lat="45.08331" lon="6.45445">
        <ele>2181.9</ele>
        <time>2013-08-29T15:38:09Z</time>
      </trkpt>
      <trkpt lat="45.08332" lon="6.45446">
        <ele>2182.3</ele>
        <time>2013-08-29T15:38:10Z</time>
      </trkpt>
      <trkpt lat="45.08333" lon="6.45446">
        <ele>2182.8</ele>
        <time>2013-08-29T15:38:11Z</time>
      </trkpt>
      <trkpt lat="45.08335" lon="6.45446">
        <ele>2182.3</ele>
        <time>2013-08-29T15:38:12Z</time>
      </trkpt>
      <trkpt lat="45.08336" lon="6.45446">
        <ele>2182.3</ele>
        <time>2013-08-29T15:38:13Z</time>
      </trkpt>
      <trkpt lat="45.0835" lon="6.45429">
        <ele>2183.3</ele>
        <time>2013-08-29T15:38:26Z</time>
      </trkpt>
      <trkpt lat="45.08365" lon="6.45417">
        <ele>2184.3</ele>
        <time>2013-08-29T15:38:38Z</time>
      </trkpt>
      <trkpt lat="45.08394" lon="6.4541">
        <ele>2187.1</ele>
        <time>2013-08-29T15:38:55Z</time>
      </trkpt>
      <trkpt lat="45.08416" lon="6.45395">
        <ele>2189.1</ele>
        <time>2013-08-29T15:39:11Z</time>
      </trkpt>
      <trkpt lat="45.0843" lon="6.45397">
        <ele>2190.5</ele>
        <time>2013-08-29T15:39:20Z</time>
      </trkpt>
      <trkpt lat="45.08431" lon="6.45399">
        <ele>2191</ele>
        <time>2013-08-29T15:39:21Z</time>
      </trkpt>
      <trkpt lat="45.08431" lon="6.45401">
        <ele>2190.5</ele>
        <time>2013-08-29T15:39:22Z</time>
      </trkpt>
      <trkpt lat="45.08431" lon="6.45403">
        <ele>2190.5</ele>
        <time>2013-08-29T15:39:23Z</time>
      </trkpt>
      <trkpt lat="45.0843" lon="6.45406">
        <ele>2191.5</ele>
        <time>2013-08-29T15:39:24Z</time>
      </trkpt>
      <trkpt lat="45.08429" lon="6.45408">
        <ele>2191</ele>
        <time>2013-08-29T15:39:25Z</time>
      </trkpt>
      <trkpt lat="45.08428" lon="6.45409">
        <ele>2191.5</ele>
        <time>2013-08-29T15:39:26Z</time>
      </trkpt>
      <trkpt lat="45.08427" lon="6.45411">
        <ele>2191.9</ele>
        <time>2013-08-29T15:39:27Z</time>
      </trkpt>
      <trkpt lat="45.08425" lon="6.45411">
        <ele>2191.9</ele>
        <time>2013-08-29T15:39:28Z</time>
      </trkpt>
      <trkpt lat="45.08423" lon="6.45412">
        <ele>2191.5</ele>
        <time>2013-08-29T15:39:29Z</time>
      </trkpt>
      <trkpt lat="45.08403" lon="6.4543">
        <ele>2193.4</ele>
        <time>2013-08-29T15:39:45Z</time>
      </trkpt>
      <trkpt lat="45.08397" lon="6.45441">
        <ele>2195.3</ele>
        <time>2013-08-29T15:39:52Z</time>
      </trkpt>
      <trkpt lat="45.08395" lon="6.45442">
        <ele>2195.3</ele>
        <time>2013-08-29T15:39:53Z</time>
      </trkpt>
      <trkpt lat="45.08375" lon="6.45457">
        <ele>2197.7</ele>
        <time>2013-08-29T15:40:12Z</time>
      </trkpt>
      <trkpt lat="45.08359" lon="6.4548">
        <ele>2200.6</ele>
        <time>2013-08-29T15:40:30Z</time>
      </trkpt>
      <trkpt lat="45.08343" lon="6.45508">
        <ele>2202.5</ele>
        <time>2013-08-29T15:40:49Z</time>
      </trkpt>
      <trkpt lat="45.08326" lon="6.45536">
        <ele>2205.4</ele>
        <time>2013-08-29T15:41:09Z</time>
      </trkpt>
      <trkpt lat="45.0831" lon="6.45552">
        <ele>2208.3</ele>
        <time>2013-08-29T15:41:25Z</time>
      </trkpt>
      <trkpt lat="45.08308" lon="6.45551">
        <ele>2207.8</ele>
        <time>2013-08-29T15:41:48Z</time>
      </trkpt>
      <trkpt lat="45.08303" lon="6.45556">
        <ele>2209.3</ele>
        <time>2013-08-29T15:42:01Z</time>
      </trkpt>
      <trkpt lat="45.08296" lon="6.45567">
        <ele>2210.2</ele>
        <time>2013-08-29T15:42:09Z</time>
      </trkpt>
      <trkpt lat="45.08296" lon="6.45568">
        <ele>2210.7</ele>
        <time>2013-08-29T15:42:10Z</time>
      </trkpt>
      <trkpt lat="45.08296" lon="6.4557">
        <ele>2210.7</ele>
        <time>2013-08-29T15:42:11Z</time>
      </trkpt>
      <trkpt lat="45.08296" lon="6.45573">
        <ele>2210.7</ele>
        <time>2013-08-29T15:42:12Z</time>
      </trkpt>
      <trkpt lat="45.08297" lon="6.45575">
        <ele>2210.7</ele>
        <time>2013-08-29T15:42:13Z</time>
      </trkpt>
      <trkpt lat="45.08298" lon="6.45577">
        <ele>2210.7</ele>
        <time>2013-08-29T15:42:14Z</time>
      </trkpt>
      <trkpt lat="45.08299" lon="6.45578">
        <ele>2211.7</ele>
        <time>2013-08-29T15:42:15Z</time>
      </trkpt>
      <trkpt lat="45.083" lon="6.4558">
        <ele>2211.2</ele>
        <time>2013-08-29T15:42:16Z</time>
      </trkpt>
      <trkpt lat="45.08302" lon="6.4558">
        <ele>2211.2</ele>
        <time>2013-08-29T15:42:17Z</time>
      </trkpt>
      <trkpt lat="45.08303" lon="6.45581">
        <ele>2211.2</ele>
        <time>2013-08-29T15:42:18Z</time>
      </trkpt>
      <trkpt lat="45.08305" lon="6.45581">
        <ele>2210.7</ele>
        <time>2013-08-29T15:42:19Z</time>
      </trkpt>
      <trkpt lat="45.08306" lon="6.45581">
        <ele>2210.7</ele>
        <time>2013-08-29T15:42:20Z</time>
      </trkpt>
      <trkpt lat="45.08307" lon="6.45581">
        <ele>2211.2</ele>
        <time>2013-08-29T15:42:21Z</time>
      </trkpt>
      <trkpt lat="45.08309" lon="6.4558">
        <ele>2211.7</ele>
        <time>2013-08-29T15:42:22Z</time>
      </trkpt>
      <trkpt lat="45.08311" lon="6.4558">
        <ele>2211.2</ele>
        <time>2013-08-29T15:42:23Z</time>
      </trkpt>
      <trkpt lat="45.08332" lon="6.45562">
        <ele>2214.1</ele>
        <time>2013-08-29T15:42:40Z</time>
      </trkpt>
      <trkpt lat="45.08353" lon="6.45555">
        <ele>2216.9</ele>
        <time>2013-08-29T15:42:55Z</time>
      </trkpt>
      <trkpt lat="45.08365" lon="6.45544">
        <ele>2219.3</ele>
        <time>2013-08-29T15:43:07Z</time>
      </trkpt>
      <trkpt lat="45.08389" lon="6.45539">
        <ele>2220.8</ele>
        <time>2013-08-29T15:43:24Z</time>
      </trkpt>
      <trkpt lat="45.08413" lon="6.45545">
        <ele>2223.7</ele>
        <time>2013-08-29T15:43:42Z</time>
      </trkpt>
      <trkpt lat="45.08431" lon="6.45538">
        <ele>2226.1</ele>
        <time>2013-08-29T15:43:57Z</time>
      </trkpt>
      <trkpt lat="45.0845" lon="6.45536">
        <ele>2228</ele>
        <time>2013-08-29T15:44:11Z</time>
      </trkpt>
      <trkpt lat="45.08449" lon="6.45544">
        <ele>2228.5</ele>
        <time>2013-08-29T15:44:15Z</time>
      </trkpt>
      <trkpt lat="45.08448" lon="6.45545">
        <ele>2228.5</ele>
        <time>2013-08-29T15:44:16Z</time>
      </trkpt>
      <trkpt lat="45.08428" lon="6.45564">
        <ele>2230.9</ele>
        <time>2013-08-29T15:44:33Z</time>
      </trkpt>
      <trkpt lat="45.08416" lon="6.45587">
        <ele>2233.8</ele>
        <time>2013-08-29T15:44:49Z</time>
      </trkpt>
      <trkpt lat="45.08396" lon="6.45599">
        <ele>2236.2</ele>
        <time>2013-08-29T15:45:05Z</time>
      </trkpt>
      <trkpt lat="45.08385" lon="6.45608">
        <ele>2236.6</ele>
        <time>2013-08-29T15:45:15Z</time>
      </trkpt>
      <trkpt lat="45.08384" lon="6.45608">
        <ele>2237.1</ele>
        <time>2013-08-29T15:45:16Z</time>
      </trkpt>
      <trkpt lat="45.08383" lon="6.45609">
        <ele>2237.6</ele>
        <time>2013-08-29T15:45:17Z</time>
      </trkpt>
      <trkpt lat="45.08382" lon="6.4561">
        <ele>2237.6</ele>
        <time>2013-08-29T15:45:18Z</time>
      </trkpt>
      <trkpt lat="45.08381" lon="6.45611">
        <ele>2237.6</ele>
        <time>2013-08-29T15:45:19Z</time>
      </trkpt>
      <trkpt lat="45.08379" lon="6.45612">
        <ele>2237.6</ele>
        <time>2013-08-29T15:45:20Z</time>
      </trkpt>
      <trkpt lat="45.08378" lon="6.45613">
        <ele>2237.6</ele>
        <time>2013-08-29T15:45:21Z</time>
      </trkpt>
      <trkpt lat="45.0837" lon="6.45634">
        <ele>2241.5</ele>
        <time>2013-08-29T15:45:37Z</time>
      </trkpt>
      <trkpt lat="45.08387" lon="6.45636">
        <ele>2241.5</ele>
        <time>2013-08-29T15:45:51Z</time>
      </trkpt>
      <trkpt lat="45.0841" lon="6.45636">
        <ele>2244.8</ele>
        <time>2013-08-29T15:46:06Z</time>
      </trkpt>
      <trkpt lat="45.08436" lon="6.45647">
        <ele>2247.2</ele>
        <time>2013-08-29T15:46:26Z</time>
      </trkpt>
      <trkpt lat="45.0846" lon="6.45638">
        <ele>2249.6</ele>
        <time>2013-08-29T15:46:43Z</time>
      </trkpt>
      <trkpt lat="45.08482" lon="6.45622">
        <ele>2252.5</ele>
        <time>2013-08-29T15:47:01Z</time>
      </trkpt>
      <trkpt lat="45.08496" lon="6.4562">
        <ele>2254.4</ele>
        <time>2013-08-29T15:47:11Z</time>
      </trkpt>
      <trkpt lat="45.08498" lon="6.45619">
        <ele>2254</ele>
        <time>2013-08-29T15:47:12Z</time>
      </trkpt>
      <trkpt lat="45.08499" lon="6.45619">
        <ele>2254.4</ele>
        <time>2013-08-29T15:47:13Z</time>
      </trkpt>
      <trkpt lat="45.0852" lon="6.45622">
        <ele>2257.3</ele>
        <time>2013-08-29T15:47:30Z</time>
      </trkpt>
      <trkpt lat="45.08522" lon="6.45622">
        <ele>2257.8</ele>
        <time>2013-08-29T15:47:31Z</time>
      </trkpt>
      <trkpt lat="45.08523" lon="6.45621">
        <ele>2257.8</ele>
        <time>2013-08-29T15:47:32Z</time>
      </trkpt>
      <trkpt lat="45.08536" lon="6.45591">
        <ele>2260.7</ele>
        <time>2013-08-29T15:47:50Z</time>
      </trkpt>
      <trkpt lat="45.08553" lon="6.45577">
        <ele>2262.6</ele>
        <time>2013-08-29T15:48:04Z</time>
      </trkpt>
      <trkpt lat="45.08568" lon="6.45566">
        <ele>2264.5</ele>
        <time>2013-08-29T15:48:18Z</time>
      </trkpt>
      <trkpt lat="45.08573" lon="6.45567">
        <ele>2265</ele>
        <time>2013-08-29T15:48:22Z</time>
      </trkpt>
      <trkpt lat="45.08578" lon="6.45579">
        <ele>2264.5</ele>
        <time>2013-08-29T15:48:29Z</time>
      </trkpt>
      <trkpt lat="45.08578" lon="6.45581">
        <ele>2266</ele>
        <time>2013-08-29T15:48:30Z</time>
      </trkpt>
      <trkpt lat="45.08577" lon="6.45583">
        <ele>2266</ele>
        <time>2013-08-29T15:48:31Z</time>
      </trkpt>
      <trkpt lat="45.08577" lon="6.45586">
        <ele>2266.5</ele>
        <time>2013-08-29T15:48:32Z</time>
      </trkpt>
      <trkpt lat="45.08576" lon="6.45587">
        <ele>2266.5</ele>
        <time>2013-08-29T15:48:33Z</time>
      </trkpt>
      <trkpt lat="45.08575" lon="6.45589">
        <ele>2266.5</ele>
        <time>2013-08-29T15:48:34Z</time>
      </trkpt>
      <trkpt lat="45.08574" lon="6.45591">
        <ele>2265.5</ele>
        <time>2013-08-29T15:48:35Z</time>
      </trkpt>
      <trkpt lat="45.08572" lon="6.45592">
        <ele>2266.9</ele>
        <time>2013-08-29T15:48:36Z</time>
      </trkpt>
      <trkpt lat="45.08551" lon="6.45612">
        <ele>2268.9</ele>
        <time>2013-08-29T15:48:52Z</time>
      </trkpt>
      <trkpt lat="45.08552" lon="6.45622">
        <ele>2269.8</ele>
        <time>2013-08-29T15:48:57Z</time>
      </trkpt>
      <trkpt lat="45.08552" lon="6.45624">
        <ele>2270.3</ele>
        <time>2013-08-29T15:48:58Z</time>
      </trkpt>
      <trkpt lat="45.08557" lon="6.45647">
        <ele>2272.2</ele>
        <time>2013-08-29T15:49:12Z</time>
      </trkpt>
      <trkpt lat="45.08557" lon="6.45653">
        <ele>2273.2</ele>
        <time>2013-08-29T15:49:15Z</time>
      </trkpt>
      <trkpt lat="45.08556" lon="6.45655">
        <ele>2272.7</ele>
        <time>2013-08-29T15:49:16Z</time>
      </trkpt>
      <trkpt lat="45.08556" lon="6.45657">
        <ele>2272.7</ele>
        <time>2013-08-29T15:49:17Z</time>
      </trkpt>
      <trkpt lat="45.08541" lon="6.45679">
        <ele>2275.6</ele>
        <time>2013-08-29T15:49:34Z</time>
      </trkpt>
      <trkpt lat="45.08523" lon="6.45693">
        <ele>2276.5</ele>
        <time>2013-08-29T15:49:50Z</time>
      </trkpt>
      <trkpt lat="45.08517" lon="6.4572">
        <ele>2279.9</ele>
        <time>2013-08-29T15:50:05Z</time>
      </trkpt>
      <trkpt lat="45.08522" lon="6.45745">
        <ele>2282.3</ele>
        <time>2013-08-29T15:50:19Z</time>
      </trkpt>
      <trkpt lat="45.08509" lon="6.45766">
        <ele>2283.3</ele>
        <time>2013-08-29T15:50:33Z</time>
      </trkpt>
      <trkpt lat="45.08501" lon="6.45798">
        <ele>2285.2</ele>
        <time>2013-08-29T15:50:50Z</time>
      </trkpt>
      <trkpt lat="45.08493" lon="6.45834">
        <ele>2288.1</ele>
        <time>2013-08-29T15:51:06Z</time>
      </trkpt>
      <trkpt lat="45.08476" lon="6.45851">
        <ele>2290.5</ele>
        <time>2013-08-29T15:51:21Z</time>
      </trkpt>
      <trkpt lat="45.08476" lon="6.45859">
        <ele>2290.5</ele>
        <time>2013-08-29T15:51:25Z</time>
      </trkpt>
      <trkpt lat="45.08477" lon="6.4586">
        <ele>2290.5</ele>
        <time>2013-08-29T15:51:26Z</time>
      </trkpt>
      <trkpt lat="45.08483" lon="6.45867">
        <ele>2291</ele>
        <time>2013-08-29T15:51:31Z</time>
      </trkpt>
      <trkpt lat="45.08484" lon="6.45868">
        <ele>2290.5</ele>
        <time>2013-08-29T15:51:32Z</time>
      </trkpt>
      <trkpt lat="45.08486" lon="6.45868">
        <ele>2291.4</ele>
        <time>2013-08-29T15:51:33Z</time>
      </trkpt>
      <trkpt lat="45.08506" lon="6.45865">
        <ele>2293.4</ele>
        <time>2013-08-29T15:51:49Z</time>
      </trkpt>
      <trkpt lat="45.08522" lon="6.4586">
        <ele>2295.8</ele>
        <time>2013-08-29T15:52:05Z</time>
      </trkpt>
      <trkpt lat="45.08521" lon="6.45859">
        <ele>2294.8</ele>
        <time>2013-08-29T15:52:33Z</time>
      </trkpt>
      <trkpt lat="45.08534" lon="6.45859">
        <ele>2296.3</ele>
        <time>2013-08-29T15:52:49Z</time>
      </trkpt>
      <trkpt lat="45.08551" lon="6.45858">
        <ele>2299.1</ele>
        <time>2013-08-29T15:53:07Z</time>
      </trkpt>
      <trkpt lat="45.08564" lon="6.45849">
        <ele>2300.1</ele>
        <time>2013-08-29T15:53:23Z</time>
      </trkpt>
      <trkpt lat="45.08572" lon="6.45829">
        <ele>2302</ele>
        <time>2013-08-29T15:53:39Z</time>
      </trkpt>
      <trkpt lat="45.0858" lon="6.45812">
        <ele>2303</ele>
        <time>2013-08-29T15:54:00Z</time>
      </trkpt>
      <trkpt lat="45.08591" lon="6.45802">
        <ele>2304.9</ele>
        <time>2013-08-29T15:54:18Z</time>
      </trkpt>
      <trkpt lat="45.086" lon="6.45798">
        <ele>2305.9</ele>
        <time>2013-08-29T15:54:33Z</time>
      </trkpt>
      <trkpt lat="45.08613" lon="6.45802">
        <ele>2307.3</ele>
        <time>2013-08-29T15:54:51Z</time>
      </trkpt>
      <trkpt lat="45.08627" lon="6.45807">
        <ele>2310.2</ele>
        <time>2013-08-29T15:55:10Z</time>
      </trkpt>
      <trkpt lat="45.08638" lon="6.45811">
        <ele>2310.7</ele>
        <time>2013-08-29T15:55:27Z</time>
      </trkpt>
      <trkpt lat="45.08647" lon="6.45821">
        <ele>2312.1</ele>
        <time>2013-08-29T15:55:43Z</time>
      </trkpt>
      <trkpt lat="45.08655" lon="6.45826">
        <ele>2314</ele>
        <time>2013-08-29T15:55:53Z</time>
      </trkpt>
      <trkpt lat="45.08669" lon="6.45835">
        <ele>2315.5</ele>
        <time>2013-08-29T15:56:13Z</time>
      </trkpt>
      <trkpt lat="45.08681" lon="6.45849">
        <ele>2316.9</ele>
        <time>2013-08-29T15:56:30Z</time>
      </trkpt>
      <trkpt lat="45.08681" lon="6.45872">
        <ele>2319.3</ele>
        <time>2013-08-29T15:56:51Z</time>
      </trkpt>
      <trkpt lat="45.08681" lon="6.45873">
        <ele>2319.8</ele>
        <time>2013-08-29T15:56:52Z</time>
      </trkpt>
      <trkpt lat="45.08677" lon="6.45875">
        <ele>2319.8</ele>
        <time>2013-08-29T15:57:01Z</time>
      </trkpt>
      <trkpt lat="45.08676" lon="6.45876">
        <ele>2319.8</ele>
        <time>2013-08-29T15:57:02Z</time>
      </trkpt>
      <trkpt lat="45.08675" lon="6.45875">
        <ele>2319.8</ele>
        <time>2013-08-29T15:57:03Z</time>
      </trkpt>
      <trkpt lat="45.08674" lon="6.45875">
        <ele>2320.3</ele>
        <time>2013-08-29T15:57:04Z</time>
      </trkpt>
      <trkpt lat="45.08673" lon="6.45875">
        <ele>2320.3</ele>
        <time>2013-08-29T15:57:05Z</time>
      </trkpt>
      <trkpt lat="45.08652" lon="6.45877">
        <ele>2323.2</ele>
        <time>2013-08-29T15:57:21Z</time>
      </trkpt>
      <trkpt lat="45.08631" lon="6.45888">
        <ele>2325.6</ele>
        <time>2013-08-29T15:57:39Z</time>
      </trkpt>
      <trkpt lat="45.0863" lon="6.45889">
        <ele>2326.1</ele>
        <time>2013-08-29T15:57:41Z</time>
      </trkpt>
      <trkpt lat="45.08629" lon="6.4589">
        <ele>2326.1</ele>
        <time>2013-08-29T15:57:42Z</time>
      </trkpt>
      <trkpt lat="45.08608" lon="6.45909">
        <ele>2328.9</ele>
        <time>2013-08-29T15:58:02Z</time>
      </trkpt>
      <trkpt lat="45.08587" lon="6.4592">
        <ele>2332.3</ele>
        <time>2013-08-29T15:58:19Z</time>
      </trkpt>
      <trkpt lat="45.08567" lon="6.45917">
        <ele>2334.2</ele>
        <time>2013-08-29T15:58:35Z</time>
      </trkpt>
      <trkpt lat="45.08566" lon="6.45918">
        <ele>2334.2</ele>
        <time>2013-08-29T15:58:36Z</time>
      </trkpt>
      <trkpt lat="45.08564" lon="6.45919">
        <ele>2333.7</ele>
        <time>2013-08-29T15:58:37Z</time>
      </trkpt>
      <trkpt lat="45.08563" lon="6.4592">
        <ele>2334.2</ele>
        <time>2013-08-29T15:58:38Z</time>
      </trkpt>
      <trkpt lat="45.08562" lon="6.45921">
        <ele>2334.2</ele>
        <time>2013-08-29T15:58:39Z</time>
      </trkpt>
      <trkpt lat="45.08561" lon="6.45923">
        <ele>2334.2</ele>
        <time>2013-08-29T15:58:40Z</time>
      </trkpt>
      <trkpt lat="45.0856" lon="6.45924">
        <ele>2335.2</ele>
        <time>2013-08-29T15:58:41Z</time>
      </trkpt>
      <trkpt lat="45.0856" lon="6.45925">
        <ele>2334.7</ele>
        <time>2013-08-29T15:58:42Z</time>
      </trkpt>
      <trkpt lat="45.0856" lon="6.45927">
        <ele>2334.7</ele>
        <time>2013-08-29T15:58:43Z</time>
      </trkpt>
      <trkpt lat="45.08559" lon="6.45928">
        <ele>2335.2</ele>
        <time>2013-08-29T15:58:44Z</time>
      </trkpt>
      <trkpt lat="45.0855" lon="6.45958">
        <ele>2338.1</ele>
        <time>2013-08-29T15:59:02Z</time>
      </trkpt>
      <trkpt lat="45.08563" lon="6.45974">
        <ele>2339.5</ele>
        <time>2013-08-29T15:59:19Z</time>
      </trkpt>
      <trkpt lat="45.08574" lon="6.45949">
        <ele>2341.4</ele>
        <time>2013-08-29T15:59:34Z</time>
      </trkpt>
      <trkpt lat="45.08594" lon="6.45947">
        <ele>2344.8</ele>
        <time>2013-08-29T15:59:49Z</time>
      </trkpt>
      <trkpt lat="45.08614" lon="6.4595">
        <ele>2346.7</ele>
        <time>2013-08-29T16:00:05Z</time>
      </trkpt>
      <trkpt lat="45.08621" lon="6.45951">
        <ele>2346.7</ele>
        <time>2013-08-29T16:00:10Z</time>
      </trkpt>
      <trkpt lat="45.08622" lon="6.45952">
        <ele>2347.7</ele>
        <time>2013-08-29T16:00:11Z</time>
      </trkpt>
      <trkpt lat="45.08623" lon="6.45953">
        <ele>2347.2</ele>
        <time>2013-08-29T16:00:12Z</time>
      </trkpt>
      <trkpt lat="45.08624" lon="6.45953">
        <ele>2348.2</ele>
        <time>2013-08-29T16:00:13Z</time>
      </trkpt>
      <trkpt lat="45.08626" lon="6.45954">
        <ele>2348.2</ele>
        <time>2013-08-29T16:00:14Z</time>
      </trkpt>
      <trkpt lat="45.08627" lon="6.45954">
        <ele>2347.7</ele>
        <time>2013-08-29T16:00:15Z</time>
      </trkpt>
      <trkpt lat="45.08645" lon="6.4596">
        <ele>2351</ele>
        <time>2013-08-29T16:00:29Z</time>
      </trkpt>
      <trkpt lat="45.08647" lon="6.45993">
        <ele>2352.5</ele>
        <time>2013-08-29T16:00:45Z</time>
      </trkpt>
      <trkpt lat="45.08649" lon="6.46007">
        <ele>2354.4</ele>
        <time>2013-08-29T16:00:52Z</time>
      </trkpt>
      <trkpt lat="45.08659" lon="6.46039">
        <ele>2356.3</ele>
        <time>2013-08-29T16:01:11Z</time>
      </trkpt>
      <trkpt lat="45.08664" lon="6.4605">
        <ele>2357.8</ele>
        <time>2013-08-29T16:01:19Z</time>
      </trkpt>
      <trkpt lat="45.08679" lon="6.46079">
        <ele>2360.7</ele>
        <time>2013-08-29T16:01:37Z</time>
      </trkpt>
      <trkpt lat="45.08694" lon="6.46099">
        <ele>2363.1</ele>
        <time>2013-08-29T16:01:54Z</time>
      </trkpt>
      <trkpt lat="45.08713" lon="6.46118">
        <ele>2365.5</ele>
        <time>2013-08-29T16:02:11Z</time>
      </trkpt>
      <trkpt lat="45.08731" lon="6.4612">
        <ele>2366.9</ele>
        <time>2013-08-29T16:02:24Z</time>
      </trkpt>
      <trkpt lat="45.0874" lon="6.46124">
        <ele>2369.3</ele>
        <time>2013-08-29T16:02:31Z</time>
      </trkpt>
      <trkpt lat="45.0874" lon="6.46126">
        <ele>2368.8</ele>
        <time>2013-08-29T16:02:32Z</time>
      </trkpt>
      <trkpt lat="45.08741" lon="6.46128">
        <ele>2368.4</ele>
        <time>2013-08-29T16:02:33Z</time>
      </trkpt>
      <trkpt lat="45.08729" lon="6.46143">
        <ele>2371.2</ele>
        <time>2013-08-29T16:02:45Z</time>
      </trkpt>
      <trkpt lat="45.08715" lon="6.46134">
        <ele>2371.7</ele>
        <time>2013-08-29T16:02:54Z</time>
      </trkpt>
      <trkpt lat="45.08714" lon="6.46134">
        <ele>2372.2</ele>
        <time>2013-08-29T16:02:55Z</time>
      </trkpt>
      <trkpt lat="45.08712" lon="6.46135">
        <ele>2371.7</ele>
        <time>2013-08-29T16:02:56Z</time>
      </trkpt>
      <trkpt lat="45.08692" lon="6.46138">
        <ele>2374.1</ele>
        <time>2013-08-29T16:03:11Z</time>
      </trkpt>
      <trkpt lat="45.08667" lon="6.46131">
        <ele>2376</ele>
        <time>2013-08-29T16:03:28Z</time>
      </trkpt>
      <trkpt lat="45.08662" lon="6.46131">
        <ele>2378</ele>
        <time>2013-08-29T16:03:32Z</time>
      </trkpt>
      <trkpt lat="45.08637" lon="6.46141">
        <ele>2379.9</ele>
        <time>2013-08-29T16:03:51Z</time>
      </trkpt>
      <trkpt lat="45.08626" lon="6.46161">
        <ele>2382.3</ele>
        <time>2013-08-29T16:04:04Z</time>
      </trkpt>
      <trkpt lat="45.08641" lon="6.46171">
        <ele>2382.8</ele>
        <time>2013-08-29T16:04:17Z</time>
      </trkpt>
      <trkpt lat="45.08646" lon="6.4617">
        <ele>2384.2</ele>
        <time>2013-08-29T16:04:20Z</time>
      </trkpt>
      <trkpt lat="45.08671" lon="6.46176">
        <ele>2386.1</ele>
        <time>2013-08-29T16:04:36Z</time>
      </trkpt>
      <trkpt lat="45.08684" lon="6.46184">
        <ele>2389</ele>
        <time>2013-08-29T16:04:46Z</time>
      </trkpt>
      <trkpt lat="45.08685" lon="6.46185">
        <ele>2388.5</ele>
        <time>2013-08-29T16:04:47Z</time>
      </trkpt>
      <trkpt lat="45.0869" lon="6.46189">
        <ele>2389</ele>
        <time>2013-08-29T16:04:52Z</time>
      </trkpt>
      <trkpt lat="45.08691" lon="6.46209">
        <ele>2390.5</ele>
        <time>2013-08-29T16:05:05Z</time>
      </trkpt>
      <trkpt lat="45.0869" lon="6.46211">
        <ele>2390.9</ele>
        <time>2013-08-29T16:05:06Z</time>
      </trkpt>
      <trkpt lat="45.08689" lon="6.46212">
        <ele>2390.9</ele>
        <time>2013-08-29T16:05:07Z</time>
      </trkpt>
      <trkpt lat="45.08687" lon="6.46213">
        <ele>2391.4</ele>
        <time>2013-08-29T16:05:08Z</time>
      </trkpt>
      <trkpt lat="45.08686" lon="6.46214">
        <ele>2390.9</ele>
        <time>2013-08-29T16:05:09Z</time>
      </trkpt>
      <trkpt lat="45.08684" lon="6.46214">
        <ele>2390.9</ele>
        <time>2013-08-29T16:05:10Z</time>
      </trkpt>
      <trkpt lat="45.08666" lon="6.46216">
        <ele>2394.3</ele>
        <time>2013-08-29T16:05:25Z</time>
      </trkpt>
      <trkpt lat="45.0865" lon="6.46236">
        <ele>2395.7</ele>
        <time>2013-08-29T16:05:41Z</time>
      </trkpt>
      <trkpt lat="45.08653" lon="6.4625">
        <ele>2398.2</ele>
        <time>2013-08-29T16:05:50Z</time>
      </trkpt>
      <trkpt lat="45.08674" lon="6.46248">
        <ele>2400.1</ele>
        <time>2013-08-29T16:06:05Z</time>
      </trkpt>
      <trkpt lat="45.0868" lon="6.46249">
        <ele>2400.6</ele>
        <time>2013-08-29T16:06:09Z</time>
      </trkpt>
      <trkpt lat="45.08695" lon="6.46274">
        <ele>2403</ele>
        <time>2013-08-29T16:06:27Z</time>
      </trkpt>
      <trkpt lat="45.08713" lon="6.46302">
        <ele>2405.4</ele>
        <time>2013-08-29T16:06:45Z</time>
      </trkpt>
      <trkpt lat="45.08734" lon="6.46316">
        <ele>2405.8</ele>
        <time>2013-08-29T16:07:00Z</time>
      </trkpt>
      <trkpt lat="45.08751" lon="6.46335">
        <ele>2406.3</ele>
        <time>2013-08-29T16:07:14Z</time>
      </trkpt>
      <trkpt lat="45.08753" lon="6.46329">
        <ele>2406.3</ele>
        <time>2013-08-29T16:07:23Z</time>
      </trkpt>
      <trkpt lat="45.08753" lon="6.4633">
        <ele>2406.3</ele>
        <time>2013-08-29T16:07:39Z</time>
      </trkpt>
      <trkpt lat="45.08752" lon="6.46327">
        <ele>2406.8</ele>
        <time>2013-08-29T16:08:07Z</time>
      </trkpt>
      <trkpt lat="45.08751" lon="6.46329">
        <ele>2406.3</ele>
        <time>2013-08-29T16:08:41Z</time>
      </trkpt>
      <trkpt lat="45.0875" lon="6.46323">
        <ele>2406.3</ele>
        <time>2013-08-29T16:09:05Z</time>
      </trkpt>
      <trkpt lat="45.0875" lon="6.46328">
        <ele>2406.8</ele>
        <time>2013-08-29T16:09:22Z</time>
      </trkpt>
      <trkpt lat="45.08747" lon="6.46333">
        <ele>2407.8</ele>
        <time>2013-08-29T16:09:48Z</time>
      </trkpt>
      <trkpt lat="45.08745" lon="6.46331">
        <ele>2407.3</ele>
        <time>2013-08-29T16:10:15Z</time>
      </trkpt>
      <trkpt lat="45.08743" lon="6.46331">
        <ele>2407.8</ele>
        <time>2013-08-29T16:10:46Z</time>
      </trkpt>
      <trkpt lat="45.0874" lon="6.46335">
        <ele>2407.8</ele>
        <time>2013-08-29T16:11:15Z</time>
      </trkpt>
      <trkpt lat="45.08744" lon="6.46325">
        <ele>2408.7</ele>
        <time>2013-08-29T16:11:38Z</time>
      </trkpt>
      <trkpt lat="45.08745" lon="6.46326">
        <ele>2409.7</ele>
        <time>2013-08-29T16:11:42Z</time>
      </trkpt>
      <trkpt lat="45.08744" lon="6.46328">
        <ele>2408.2</ele>
        <time>2013-08-29T16:11:43Z</time>
      </trkpt>
      <trkpt lat="45.08744" lon="6.46331">
        <ele>2408.7</ele>
        <time>2013-08-29T16:11:44Z</time>
      </trkpt>
      <trkpt lat="45.08744" lon="6.46334">
        <ele>2409.2</ele>
        <time>2013-08-29T16:11:45Z</time>
      </trkpt>
      <trkpt lat="45.08745" lon="6.46337">
        <ele>2409.2</ele>
        <time>2013-08-29T16:11:46Z</time>
      </trkpt>
      <trkpt lat="45.08741" lon="6.46384">
        <ele>2410.6</ele>
        <time>2013-08-29T16:11:59Z</time>
      </trkpt>
      <trkpt lat="45.08712" lon="6.46437">
        <ele>2410.6</ele>
        <time>2013-08-29T16:12:17Z</time>
      </trkpt>
      <trkpt lat="45.08679" lon="6.46474">
        <ele>2412.6</ele>
        <time>2013-08-29T16:12:32Z</time>
      </trkpt>
      <trkpt lat="45.08647" lon="6.46526">
        <ele>2414</ele>
        <time>2013-08-29T16:12:49Z</time>
      </trkpt>
      <trkpt lat="45.08649" lon="6.46587">
        <ele>2415</ele>
        <time>2013-08-29T16:13:04Z</time>
      </trkpt>
      <trkpt lat="45.08648" lon="6.46595">
        <ele>2415.9</ele>
        <time>2013-08-29T16:13:06Z</time>
      </trkpt>
      <trkpt lat="45.08652" lon="6.46655">
        <ele>2416.9</ele>
        <time>2013-08-29T16:13:22Z</time>
      </trkpt>
      <trkpt lat="45.08646" lon="6.46688">
        <ele>2417.9</ele>
        <time>2013-08-29T16:13:33Z</time>
      </trkpt>
      <trkpt lat="45.08636" lon="6.46704">
        <ele>2419.8</ele>
        <time>2013-08-29T16:13:41Z</time>
      </trkpt>
      <trkpt lat="45.08616" lon="6.46723">
        <ele>2422.2</ele>
        <time>2013-08-29T16:13:56Z</time>
      </trkpt>
      <trkpt lat="45.08602" lon="6.46745">
        <ele>2425.1</ele>
        <time>2013-08-29T16:14:12Z</time>
      </trkpt>
      <trkpt lat="45.08598" lon="6.46779">
        <ele>2427.5</ele>
        <time>2013-08-29T16:14:28Z</time>
      </trkpt>
      <trkpt lat="45.08589" lon="6.46791">
        <ele>2428.9</ele>
        <time>2013-08-29T16:14:37Z</time>
      </trkpt>
      <trkpt lat="45.08586" lon="6.46796">
        <ele>2429.9</ele>
        <time>2013-08-29T16:14:41Z</time>
      </trkpt>
      <trkpt lat="45.08584" lon="6.46801">
        <ele>2430.4</ele>
        <time>2013-08-29T16:14:44Z</time>
      </trkpt>
      <trkpt lat="45.08575" lon="6.46816">
        <ele>2432.8</ele>
        <time>2013-08-29T16:14:58Z</time>
      </trkpt>
      <trkpt lat="45.08572" lon="6.46819">
        <ele>2433.2</ele>
        <time>2013-08-29T16:15:01Z</time>
      </trkpt>
      <trkpt lat="45.08567" lon="6.46834">
        <ele>2436.1</ele>
        <time>2013-08-29T16:15:11Z</time>
      </trkpt>
      <trkpt lat="45.08559" lon="6.46843">
        <ele>2436.1</ele>
        <time>2013-08-29T16:15:20Z</time>
      </trkpt>
      <trkpt lat="45.08558" lon="6.46844">
        <ele>2437.1</ele>
        <time>2013-08-29T16:15:21Z</time>
      </trkpt>
      <trkpt lat="45.08542" lon="6.46857">
        <ele>2439.5</ele>
        <time>2013-08-29T16:15:37Z</time>
      </trkpt>
      <trkpt lat="45.08531" lon="6.46866">
        <ele>2441.4</ele>
        <time>2013-08-29T16:15:53Z</time>
      </trkpt>
      <trkpt lat="45.08526" lon="6.46873">
        <ele>2442.4</ele>
        <time>2013-08-29T16:16:11Z</time>
      </trkpt>
      <trkpt lat="45.08512" lon="6.46879">
        <ele>2445.7</ele>
        <time>2013-08-29T16:16:28Z</time>
      </trkpt>
      <trkpt lat="45.08498" lon="6.46883">
        <ele>2447.2</ele>
        <time>2013-08-29T16:16:44Z</time>
      </trkpt>
      <trkpt lat="45.08495" lon="6.46885">
        <ele>2448.1</ele>
        <time>2013-08-29T16:16:47Z</time>
      </trkpt>
      <trkpt lat="45.08491" lon="6.46889">
        <ele>2449.1</ele>
        <time>2013-08-29T16:16:53Z</time>
      </trkpt>
      <trkpt lat="45.08486" lon="6.46894">
        <ele>2450.1</ele>
        <time>2013-08-29T16:16:59Z</time>
      </trkpt>
      <trkpt lat="45.08483" lon="6.46896">
        <ele>2451</ele>
        <time>2013-08-29T16:17:03Z</time>
      </trkpt>
      <trkpt lat="45.08469" lon="6.46908">
        <ele>2453.9</ele>
        <time>2013-08-29T16:17:23Z</time>
      </trkpt>
      <trkpt lat="45.08468" lon="6.4691">
        <ele>2454.9</ele>
        <time>2013-08-29T16:17:25Z</time>
      </trkpt>
      <trkpt lat="45.0846" lon="6.46924">
        <ele>2457.8</ele>
        <time>2013-08-29T16:17:44Z</time>
      </trkpt>
      <trkpt lat="45.08458" lon="6.46928">
        <ele>2457.8</ele>
        <time>2013-08-29T16:17:48Z</time>
      </trkpt>
      <trkpt lat="45.08456" lon="6.46935">
        <ele>2458.2</ele>
        <time>2013-08-29T16:17:54Z</time>
      </trkpt>
      <trkpt lat="45.08442" lon="6.46932">
        <ele>2461.6</ele>
        <time>2013-08-29T16:18:11Z</time>
      </trkpt>
      <trkpt lat="45.08441" lon="6.46931">
        <ele>2461.1</ele>
        <time>2013-08-29T16:18:12Z</time>
      </trkpt>
      <trkpt lat="45.0844" lon="6.46928">
        <ele>2461.1</ele>
        <time>2013-08-29T16:18:15Z</time>
      </trkpt>
      <trkpt lat="45.08433" lon="6.46904">
        <ele>2463.5</ele>
        <time>2013-08-29T16:18:32Z</time>
      </trkpt>
      <trkpt lat="45.08426" lon="6.46877">
        <ele>2464.5</ele>
        <time>2013-08-29T16:18:52Z</time>
      </trkpt>
      <trkpt lat="45.08416" lon="6.46853">
        <ele>2466.4</ele>
        <time>2013-08-29T16:19:11Z</time>
      </trkpt>
      <trkpt lat="45.08411" lon="6.46848">
        <ele>2466.9</ele>
        <time>2013-08-29T16:19:18Z</time>
      </trkpt>
      <trkpt lat="45.08409" lon="6.46848">
        <ele>2466.9</ele>
        <time>2013-08-29T16:19:19Z</time>
      </trkpt>
      <trkpt lat="45.08406" lon="6.46849">
        <ele>2468.3</ele>
        <time>2013-08-29T16:19:23Z</time>
      </trkpt>
      <trkpt lat="45.08403" lon="6.46872">
        <ele>2468.3</ele>
        <time>2013-08-29T16:19:41Z</time>
      </trkpt>
      <trkpt lat="45.08404" lon="6.46894">
        <ele>2470.7</ele>
        <time>2013-08-29T16:19:56Z</time>
      </trkpt>
      <trkpt lat="45.08409" lon="6.46919">
        <ele>2472.2</ele>
        <time>2013-08-29T16:20:12Z</time>
      </trkpt>
      <trkpt lat="45.08414" lon="6.46937">
        <ele>2473.1</ele>
        <time>2013-08-29T16:20:27Z</time>
      </trkpt>
      <trkpt lat="45.08414" lon="6.4694">
        <ele>2473.6</ele>
        <time>2013-08-29T16:20:29Z</time>
      </trkpt>
      <trkpt lat="45.0841" lon="6.46961">
        <ele>2476</ele>
        <time>2013-08-29T16:20:46Z</time>
      </trkpt>
      <trkpt lat="45.08409" lon="6.46964">
        <ele>2476.5</ele>
        <time>2013-08-29T16:20:52Z</time>
      </trkpt>
      <trkpt lat="45.08407" lon="6.4697">
        <ele>2475.5</ele>
        <time>2013-08-29T16:21:04Z</time>
      </trkpt>
      <trkpt lat="45.08407" lon="6.46971">
        <ele>2475.5</ele>
        <time>2013-08-29T16:21:05Z</time>
      </trkpt>
      <trkpt lat="45.08406" lon="6.46973">
        <ele>2475.5</ele>
        <time>2013-08-29T16:21:06Z</time>
      </trkpt>
      <trkpt lat="45.08405" lon="6.46975">
        <ele>2476</ele>
        <time>2013-08-29T16:21:07Z</time>
      </trkpt>
      <trkpt lat="45.08405" lon="6.46977">
        <ele>2476.5</ele>
        <time>2013-08-29T16:21:08Z</time>
      </trkpt>
      <trkpt lat="45.08402" lon="6.47011">
        <ele>2478.4</ele>
        <time>2013-08-29T16:21:25Z</time>
      </trkpt>
      <trkpt lat="45.08398" lon="6.47041">
        <ele>2479.9</ele>
        <time>2013-08-29T16:21:40Z</time>
      </trkpt>
      <trkpt lat="45.08389" lon="6.47071">
        <ele>2483.2</ele>
        <time>2013-08-29T16:21:56Z</time>
      </trkpt>
      <trkpt lat="45.08386" lon="6.47097">
        <ele>2484.2</ele>
        <time>2013-08-29T16:22:12Z</time>
      </trkpt>
      <trkpt lat="45.08403" lon="6.47115">
        <ele>2487.1</ele>
        <time>2013-08-29T16:22:26Z</time>
      </trkpt>
      <trkpt lat="45.0843" lon="6.4712">
        <ele>2489.5</ele>
        <time>2013-08-29T16:22:46Z</time>
      </trkpt>
      <trkpt lat="45.08439" lon="6.47116">
        <ele>2489.5</ele>
        <time>2013-08-29T16:22:53Z</time>
      </trkpt>
      <trkpt lat="45.08439" lon="6.47115">
        <ele>2489.5</ele>
        <time>2013-08-29T16:22:54Z</time>
      </trkpt>
      <trkpt lat="45.0844" lon="6.47114">
        <ele>2489.5</ele>
        <time>2013-08-29T16:22:55Z</time>
      </trkpt>
      <trkpt lat="45.08441" lon="6.47114">
        <ele>2490.4</ele>
        <time>2013-08-29T16:22:56Z</time>
      </trkpt>
      <trkpt lat="45.08442" lon="6.47113">
        <ele>2490.9</ele>
        <time>2013-08-29T16:22:57Z</time>
      </trkpt>
      <trkpt lat="45.08443" lon="6.47112">
        <ele>2490.4</ele>
        <time>2013-08-29T16:22:58Z</time>
      </trkpt>
      <trkpt lat="45.08458" lon="6.47099">
        <ele>2493.8</ele>
        <time>2013-08-29T16:23:09Z</time>
      </trkpt>
      <trkpt lat="45.0848" lon="6.47091">
        <ele>2495.2</ele>
        <time>2013-08-29T16:23:25Z</time>
      </trkpt>
      <trkpt lat="45.085" lon="6.47084">
        <ele>2497.6</ele>
        <time>2013-08-29T16:23:41Z</time>
      </trkpt>
      <trkpt lat="45.08515" lon="6.47071">
        <ele>2496.7</ele>
        <time>2013-08-29T16:23:50Z</time>
      </trkpt>
      <trkpt lat="45.08517" lon="6.47071">
        <ele>2496.7</ele>
        <time>2013-08-29T16:23:51Z</time>
      </trkpt>
      <trkpt lat="45.0852" lon="6.47071">
        <ele>2497.2</ele>
        <time>2013-08-29T16:23:52Z</time>
      </trkpt>
      <trkpt lat="45.08522" lon="6.47072">
        <ele>2496.7</ele>
        <time>2013-08-29T16:23:53Z</time>
      </trkpt>
      <trkpt lat="45.08524" lon="6.47074">
        <ele>2497.6</ele>
        <time>2013-08-29T16:23:54Z</time>
      </trkpt>
      <trkpt lat="45.08526" lon="6.47075">
        <ele>2497.2</ele>
        <time>2013-08-29T16:23:55Z</time>
      </trkpt>
      <trkpt lat="45.08528" lon="6.47077">
        <ele>2497.6</ele>
        <time>2013-08-29T16:23:56Z</time>
      </trkpt>
      <trkpt lat="45.08529" lon="6.47079">
        <ele>2497.2</ele>
        <time>2013-08-29T16:23:57Z</time>
      </trkpt>
      <trkpt lat="45.08531" lon="6.47081">
        <ele>2495.7</ele>
        <time>2013-08-29T16:23:58Z</time>
      </trkpt>
      <trkpt lat="45.08537" lon="6.47093">
        <ele>2496.7</ele>
        <time>2013-08-29T16:24:05Z</time>
      </trkpt>
      <trkpt lat="45.08538" lon="6.47094">
        <ele>2495.7</ele>
        <time>2013-08-29T16:24:06Z</time>
      </trkpt>
      <trkpt lat="45.08539" lon="6.47095">
        <ele>2495.7</ele>
        <time>2013-08-29T16:24:07Z</time>
      </trkpt>
      <trkpt lat="45.08543" lon="6.47096">
        <ele>2496.2</ele>
        <time>2013-08-29T16:24:22Z</time>
      </trkpt>
      <trkpt lat="45.08542" lon="6.47094">
        <ele>2495.7</ele>
        <time>2013-08-29T16:24:56Z</time>
      </trkpt>
      <trkpt lat="45.08558" lon="6.47103">
        <ele>2493.8</ele>
        <time>2013-08-29T16:25:08Z</time>
      </trkpt>
      <trkpt lat="45.08564" lon="6.47108">
        <ele>2493.3</ele>
        <time>2013-08-29T16:25:09Z</time>
      </trkpt>
      <trkpt lat="45.08569" lon="6.47113">
        <ele>2491.4</ele>
        <time>2013-08-29T16:25:10Z</time>
      </trkpt>
      <trkpt lat="45.08574" lon="6.47119">
        <ele>2490</ele>
        <time>2013-08-29T16:25:11Z</time>
      </trkpt>
      <trkpt lat="45.08578" lon="6.47126">
        <ele>2490.4</ele>
        <time>2013-08-29T16:25:12Z</time>
      </trkpt>
      <trkpt lat="45.08581" lon="6.47132">
        <ele>2488</ele>
        <time>2013-08-29T16:25:13Z</time>
      </trkpt>
      <trkpt lat="45.08586" lon="6.47139">
        <ele>2488.5</ele>
        <time>2013-08-29T16:25:15Z</time>
      </trkpt>
      <trkpt lat="45.08589" lon="6.4714">
        <ele>2487.6</ele>
        <time>2013-08-29T16:25:16Z</time>
      </trkpt>
      <trkpt lat="45.08594" lon="6.4714">
        <ele>2487.1</ele>
        <time>2013-08-29T16:25:17Z</time>
      </trkpt>
      <trkpt lat="45.08612" lon="6.47139">
        <ele>2483.2</ele>
        <time>2013-08-29T16:25:20Z</time>
      </trkpt>
      <trkpt lat="45.08618" lon="6.4714">
        <ele>2481.8</ele>
        <time>2013-08-29T16:25:21Z</time>
      </trkpt>
      <trkpt lat="45.08624" lon="6.47143">
        <ele>2479.4</ele>
        <time>2013-08-29T16:25:22Z</time>
      </trkpt>
      <trkpt lat="45.08641" lon="6.47156">
        <ele>2477</ele>
        <time>2013-08-29T16:25:25Z</time>
      </trkpt>
      <trkpt lat="45.08646" lon="6.47161">
        <ele>2476.5</ele>
        <time>2013-08-29T16:25:26Z</time>
      </trkpt>
      <trkpt lat="45.08651" lon="6.47166">
        <ele>2474.1</ele>
        <time>2013-08-29T16:25:27Z</time>
      </trkpt>
      <trkpt lat="45.08654" lon="6.47171">
        <ele>2474.6</ele>
        <time>2013-08-29T16:25:28Z</time>
      </trkpt>
      <trkpt lat="45.08665" lon="6.47191">
        <ele>2471.7</ele>
        <time>2013-08-29T16:25:33Z</time>
      </trkpt>
      <trkpt lat="45.08668" lon="6.47195">
        <ele>2470.7</ele>
        <time>2013-08-29T16:25:34Z</time>
      </trkpt>
      <trkpt lat="45.08671" lon="6.47199">
        <ele>2470.7</ele>
        <time>2013-08-29T16:25:35Z</time>
      </trkpt>
      <trkpt lat="45.08673" lon="6.47203">
        <ele>2470.7</ele>
        <time>2013-08-29T16:25:36Z</time>
      </trkpt>
      <trkpt lat="45.08674" lon="6.47205">
        <ele>2471.7</ele>
        <time>2013-08-29T16:25:37Z</time>
      </trkpt>
      <trkpt lat="45.08676" lon="6.47207">
        <ele>2472.2</ele>
        <time>2013-08-29T16:25:38Z</time>
      </trkpt>
      <trkpt lat="45.08677" lon="6.47209">
        <ele>2471.2</ele>
        <time>2013-08-29T16:25:39Z</time>
      </trkpt>
      <trkpt lat="45.08677" lon="6.47212">
        <ele>2473.1</ele>
        <time>2013-08-29T16:25:41Z</time>
      </trkpt>
      <trkpt lat="45.08677" lon="6.47214">
        <ele>2472.7</ele>
        <time>2013-08-29T16:25:42Z</time>
      </trkpt>
      <trkpt lat="45.08678" lon="6.47216">
        <ele>2472.7</ele>
        <time>2013-08-29T16:25:43Z</time>
      </trkpt>
      <trkpt lat="45.08678" lon="6.47218">
        <ele>2471.7</ele>
        <time>2013-08-29T16:25:44Z</time>
      </trkpt>
      <trkpt lat="45.08679" lon="6.4722">
        <ele>2473.1</ele>
        <time>2013-08-29T16:25:45Z</time>
      </trkpt>
      <trkpt lat="45.0868" lon="6.47222">
        <ele>2473.1</ele>
        <time>2013-08-29T16:25:46Z</time>
      </trkpt>
      <trkpt lat="45.08681" lon="6.47224">
        <ele>2474.1</ele>
        <time>2013-08-29T16:25:47Z</time>
      </trkpt>
      <trkpt lat="45.08689" lon="6.47247">
        <ele>2475.1</ele>
        <time>2013-08-29T16:25:58Z</time>
      </trkpt>
      <trkpt lat="45.08689" lon="6.4725">
        <ele>2476.5</ele>
        <time>2013-08-29T16:25:59Z</time>
      </trkpt>
      <trkpt lat="45.08689" lon="6.47253">
        <ele>2474.6</ele>
        <time>2013-08-29T16:26:00Z</time>
      </trkpt>
      <trkpt lat="45.0869" lon="6.47256">
        <ele>2475.5</ele>
        <time>2013-08-29T16:26:01Z</time>
      </trkpt>
      <trkpt lat="45.0869" lon="6.47259">
        <ele>2474.6</ele>
        <time>2013-08-29T16:26:02Z</time>
      </trkpt>
      <trkpt lat="45.0869" lon="6.47261">
        <ele>2474.6</ele>
        <time>2013-08-29T16:26:03Z</time>
      </trkpt>
      <trkpt lat="45.0869" lon="6.47264">
        <ele>2475.5</ele>
        <time>2013-08-29T16:26:04Z</time>
      </trkpt>
      <trkpt lat="45.0869" lon="6.47292">
        <ele>2478.4</ele>
        <time>2013-08-29T16:26:18Z</time>
      </trkpt>
      <trkpt lat="45.08689" lon="6.47294">
        <ele>2478.4</ele>
        <time>2013-08-29T16:26:19Z</time>
      </trkpt>
      <trkpt lat="45.0869" lon="6.47296">
        <ele>2477.5</ele>
        <time>2013-08-29T16:26:20Z</time>
      </trkpt>
      <trkpt lat="45.0869" lon="6.47298">
        <ele>2477</ele>
        <time>2013-08-29T16:26:21Z</time>
      </trkpt>
      <trkpt lat="45.0869" lon="6.47299">
        <ele>2479.4</ele>
        <time>2013-08-29T16:26:22Z</time>
      </trkpt>
      <trkpt lat="45.08691" lon="6.473">
        <ele>2479.4</ele>
        <time>2013-08-29T16:26:23Z</time>
      </trkpt>
      <trkpt lat="45.08692" lon="6.47302">
        <ele>2479.4</ele>
        <time>2013-08-29T16:26:24Z</time>
      </trkpt>
      <trkpt lat="45.08693" lon="6.47303">
        <ele>2477.9</ele>
        <time>2013-08-29T16:26:25Z</time>
      </trkpt>
      <trkpt lat="45.08693" lon="6.47304">
        <ele>2479.4</ele>
        <time>2013-08-29T16:26:26Z</time>
      </trkpt>
      <trkpt lat="45.08693" lon="6.47306">
        <ele>2479.4</ele>
        <time>2013-08-29T16:26:27Z</time>
      </trkpt>
      <trkpt lat="45.08691" lon="6.47336">
        <ele>2479.9</ele>
        <time>2013-08-29T16:26:38Z</time>
      </trkpt>
      <trkpt lat="45.0869" lon="6.47343">
        <ele>2478.4</ele>
        <time>2013-08-29T16:26:40Z</time>
      </trkpt>
      <trkpt lat="45.08681" lon="6.47375">
        <ele>2477</ele>
        <time>2013-08-29T16:26:48Z</time>
      </trkpt>
      <trkpt lat="45.08654" lon="6.47412">
        <ele>2474.6</ele>
        <time>2013-08-29T16:26:59Z</time>
      </trkpt>
      <trkpt lat="45.0865" lon="6.47422">
        <ele>2473.1</ele>
        <time>2013-08-29T16:27:02Z</time>
      </trkpt>
      <trkpt lat="45.08647" lon="6.47442">
        <ele>2470.2</ele>
        <time>2013-08-29T16:27:05Z</time>
      </trkpt>
      <trkpt lat="45.08646" lon="6.47451">
        <ele>2471.2</ele>
        <time>2013-08-29T16:27:06Z</time>
      </trkpt>
      <trkpt lat="45.08645" lon="6.47484">
        <ele>2472.7</ele>
        <time>2013-08-29T16:27:13Z</time>
      </trkpt>
      <trkpt lat="45.08639" lon="6.47505">
        <ele>2474.1</ele>
        <time>2013-08-29T16:27:21Z</time>
      </trkpt>
      <trkpt lat="45.08634" lon="6.4752">
        <ele>2476</ele>
        <time>2013-08-29T16:27:29Z</time>
      </trkpt>
      <trkpt lat="45.08636" lon="6.47562">
        <ele>2474.6</ele>
        <time>2013-08-29T16:27:43Z</time>
      </trkpt>
      <trkpt lat="45.08638" lon="6.47567">
        <ele>2474.6</ele>
        <time>2013-08-29T16:27:44Z</time>
      </trkpt>
      <trkpt lat="45.08642" lon="6.4758">
        <ele>2472.7</ele>
        <time>2013-08-29T16:27:46Z</time>
      </trkpt>
      <trkpt lat="45.08645" lon="6.47592">
        <ele>2473.1</ele>
        <time>2013-08-29T16:27:48Z</time>
      </trkpt>
      <trkpt lat="45.08647" lon="6.47597">
        <ele>2473.1</ele>
        <time>2013-08-29T16:27:49Z</time>
      </trkpt>
      <trkpt lat="45.08649" lon="6.47601">
        <ele>2473.1</ele>
        <time>2013-08-29T16:27:50Z</time>
      </trkpt>
      <trkpt lat="45.0865" lon="6.47606">
        <ele>2472.2</ele>
        <time>2013-08-29T16:27:51Z</time>
      </trkpt>
      <trkpt lat="45.08652" lon="6.47612">
        <ele>2472.7</ele>
        <time>2013-08-29T16:27:52Z</time>
      </trkpt>
      <trkpt lat="45.08654" lon="6.47618">
        <ele>2472.7</ele>
        <time>2013-08-29T16:27:53Z</time>
      </trkpt>
      <trkpt lat="45.08659" lon="6.4763">
        <ele>2471.7</ele>
        <time>2013-08-29T16:27:55Z</time>
      </trkpt>
      <trkpt lat="45.08659" lon="6.47636">
        <ele>2471.2</ele>
        <time>2013-08-29T16:27:56Z</time>
      </trkpt>
      <trkpt lat="45.0866" lon="6.47641">
        <ele>2471.7</ele>
        <time>2013-08-29T16:27:57Z</time>
      </trkpt>
      <trkpt lat="45.0866" lon="6.47652">
        <ele>2471.2</ele>
        <time>2013-08-29T16:27:59Z</time>
      </trkpt>
      <trkpt lat="45.08661" lon="6.47657">
        <ele>2469.8</ele>
        <time>2013-08-29T16:28:00Z</time>
      </trkpt>
      <trkpt lat="45.08663" lon="6.47661">
        <ele>2469.8</ele>
        <time>2013-08-29T16:28:01Z</time>
      </trkpt>
      <trkpt lat="45.08665" lon="6.47665">
        <ele>2469.8</ele>
        <time>2013-08-29T16:28:02Z</time>
      </trkpt>
      <trkpt lat="45.08667" lon="6.47669">
        <ele>2468.3</ele>
        <time>2013-08-29T16:28:03Z</time>
      </trkpt>
      <trkpt lat="45.0867" lon="6.47673">
        <ele>2469.3</ele>
        <time>2013-08-29T16:28:04Z</time>
      </trkpt>
      <trkpt lat="45.08676" lon="6.47685">
        <ele>2467.4</ele>
        <time>2013-08-29T16:28:06Z</time>
      </trkpt>
      <trkpt lat="45.08678" lon="6.4769">
        <ele>2465</ele>
        <time>2013-08-29T16:28:07Z</time>
      </trkpt>
      <trkpt lat="45.08679" lon="6.47696">
        <ele>2465</ele>
        <time>2013-08-29T16:28:08Z</time>
      </trkpt>
      <trkpt lat="45.08681" lon="6.4774">
        <ele>2462.1</ele>
        <time>2013-08-29T16:28:14Z</time>
      </trkpt>
      <trkpt lat="45.08681" lon="6.47748">
        <ele>2462.1</ele>
        <time>2013-08-29T16:28:15Z</time>
      </trkpt>
      <trkpt lat="45.0868" lon="6.47756">
        <ele>2462.1</ele>
        <time>2013-08-29T16:28:16Z</time>
      </trkpt>
      <trkpt lat="45.08681" lon="6.47762">
        <ele>2462.1</ele>
        <time>2013-08-29T16:28:17Z</time>
      </trkpt>
      <trkpt lat="45.08681" lon="6.47769">
        <ele>2462.1</ele>
        <time>2013-08-29T16:28:18Z</time>
      </trkpt>
      <trkpt lat="45.08683" lon="6.47782">
        <ele>2460.2</ele>
        <time>2013-08-29T16:28:20Z</time>
      </trkpt>
      <trkpt lat="45.08683" lon="6.47788">
        <ele>2461.1</ele>
        <time>2013-08-29T16:28:21Z</time>
      </trkpt>
      <trkpt lat="45.08683" lon="6.47792">
        <ele>2460.2</ele>
        <time>2013-08-29T16:28:22Z</time>
      </trkpt>
      <trkpt lat="45.08692" lon="6.47846">
        <ele>2458.7</ele>
        <time>2013-08-29T16:28:33Z</time>
      </trkpt>
      <trkpt lat="45.08692" lon="6.47852">
        <ele>2459.2</ele>
        <time>2013-08-29T16:28:34Z</time>
      </trkpt>
      <trkpt lat="45.0869" lon="6.47871">
        <ele>2458.2</ele>
        <time>2013-08-29T16:28:37Z</time>
      </trkpt>
      <trkpt lat="45.0869" lon="6.47877">
        <ele>2458.2</ele>
        <time>2013-08-29T16:28:38Z</time>
      </trkpt>
      <trkpt lat="45.0869" lon="6.47917">
        <ele>2456.3</ele>
        <time>2013-08-29T16:28:45Z</time>
      </trkpt>
      <trkpt lat="45.0869" lon="6.47924">
        <ele>2457.3</ele>
        <time>2013-08-29T16:28:46Z</time>
      </trkpt>
      <trkpt lat="45.08691" lon="6.4793">
        <ele>2456.3</ele>
        <time>2013-08-29T16:28:47Z</time>
      </trkpt>
      <trkpt lat="45.08692" lon="6.47936">
        <ele>2457.3</ele>
        <time>2013-08-29T16:28:48Z</time>
      </trkpt>
      <trkpt lat="45.08694" lon="6.47942">
        <ele>2455.8</ele>
        <time>2013-08-29T16:28:49Z</time>
      </trkpt>
      <trkpt lat="45.08696" lon="6.47958">
        <ele>2455.8</ele>
        <time>2013-08-29T16:28:52Z</time>
      </trkpt>
      <trkpt lat="45.08696" lon="6.47962">
        <ele>2455.8</ele>
        <time>2013-08-29T16:28:53Z</time>
      </trkpt>
      <trkpt lat="45.08695" lon="6.47972">
        <ele>2455.8</ele>
        <time>2013-08-29T16:28:59Z</time>
      </trkpt>
      <trkpt lat="45.08696" lon="6.48007">
        <ele>2455.3</ele>
        <time>2013-08-29T16:29:10Z</time>
      </trkpt>
      <trkpt lat="45.08702" lon="6.48064">
        <ele>2454.9</ele>
        <time>2013-08-29T16:29:24Z</time>
      </trkpt>
      <trkpt lat="45.08706" lon="6.48072">
        <ele>2454.9</ele>
        <time>2013-08-29T16:29:34Z</time>
      </trkpt>
      <trkpt lat="45.08707" lon="6.48078">
        <ele>2455.3</ele>
        <time>2013-08-29T16:29:40Z</time>
      </trkpt>
      <trkpt lat="45.08706" lon="6.48091">
        <ele>2454.9</ele>
        <time>2013-08-29T16:29:53Z</time>
      </trkpt>
      <trkpt lat="45.08705" lon="6.481">
        <ele>2454.9</ele>
        <time>2013-08-29T16:30:04Z</time>
      </trkpt>
      <trkpt lat="45.08702" lon="6.48108">
        <ele>2455.3</ele>
        <time>2013-08-29T16:30:14Z</time>
      </trkpt>
      <trkpt lat="45.087" lon="6.48112">
        <ele>2456.8</ele>
        <time>2013-08-29T16:30:19Z</time>
      </trkpt>
      <trkpt lat="45.08697" lon="6.48123">
        <ele>2456.8</ele>
        <time>2013-08-29T16:30:32Z</time>
      </trkpt>
      <trkpt lat="45.08697" lon="6.48125">
        <ele>2457.3</ele>
        <time>2013-08-29T16:30:33Z</time>
      </trkpt>
      <trkpt lat="45.08697" lon="6.48127">
        <ele>2457.3</ele>
        <time>2013-08-29T16:30:34Z</time>
      </trkpt>
      <trkpt lat="45.08697" lon="6.48129">
        <ele>2457.3</ele>
        <time>2013-08-29T16:30:35Z</time>
      </trkpt>
      <trkpt lat="45.08696" lon="6.4813">
        <ele>2456.8</ele>
        <time>2013-08-29T16:30:36Z</time>
      </trkpt>
      <trkpt lat="45.08696" lon="6.48132">
        <ele>2458.2</ele>
        <time>2013-08-29T16:30:37Z</time>
      </trkpt>
      <trkpt lat="45.08695" lon="6.48134">
        <ele>2457.8</ele>
        <time>2013-08-29T16:30:38Z</time>
      </trkpt>
      <trkpt lat="45.08695" lon="6.48135">
        <ele>2457.3</ele>
        <time>2013-08-29T16:30:39Z</time>
      </trkpt>
      <trkpt lat="45.08694" lon="6.48137">
        <ele>2458.7</ele>
        <time>2013-08-29T16:30:40Z</time>
      </trkpt>
      <trkpt lat="45.08688" lon="6.48159">
        <ele>2459.7</ele>
        <time>2013-08-29T16:30:53Z</time>
      </trkpt>
      <trkpt lat="45.08689" lon="6.4816">
        <ele>2460.2</ele>
        <time>2013-08-29T16:30:54Z</time>
      </trkpt>
      <trkpt lat="45.08689" lon="6.48162">
        <ele>2460.2</ele>
        <time>2013-08-29T16:30:55Z</time>
      </trkpt>
      <trkpt lat="45.08689" lon="6.48163">
        <ele>2460.6</ele>
        <time>2013-08-29T16:30:56Z</time>
      </trkpt>
      <trkpt lat="45.08689" lon="6.48165">
        <ele>2460.6</ele>
        <time>2013-08-29T16:30:57Z</time>
      </trkpt>
      <trkpt lat="45.08688" lon="6.48166">
        <ele>2460.2</ele>
        <time>2013-08-29T16:30:58Z</time>
      </trkpt>
      <trkpt lat="45.0869" lon="6.48178">
        <ele>2461.6</ele>
        <time>2013-08-29T16:31:09Z</time>
      </trkpt>
      <trkpt lat="45.08686" lon="6.48183">
        <ele>2461.1</ele>
        <time>2013-08-29T16:31:22Z</time>
      </trkpt>
      <trkpt lat="45.08684" lon="6.48187">
        <ele>2461.1</ele>
        <time>2013-08-29T16:31:27Z</time>
      </trkpt>
      <trkpt lat="45.08683" lon="6.48189">
        <ele>2461.6</ele>
        <time>2013-08-29T16:31:28Z</time>
      </trkpt>
      <trkpt lat="45.08682" lon="6.48191">
        <ele>2460.6</ele>
        <time>2013-08-29T16:31:29Z</time>
      </trkpt>
      <trkpt lat="45.08681" lon="6.48193">
        <ele>2461.6</ele>
        <time>2013-08-29T16:31:30Z</time>
      </trkpt>
      <trkpt lat="45.0868" lon="6.48194">
        <ele>2461.1</ele>
        <time>2013-08-29T16:31:31Z</time>
      </trkpt>
      <trkpt lat="45.08667" lon="6.48216">
        <ele>2461.1</ele>
        <time>2013-08-29T16:31:43Z</time>
      </trkpt>
      <trkpt lat="45.0865" lon="6.4824">
        <ele>2461.1</ele>
        <time>2013-08-29T16:31:55Z</time>
      </trkpt>
      <trkpt lat="45.08633" lon="6.48276">
        <ele>2461.6</ele>
        <time>2013-08-29T16:32:06Z</time>
      </trkpt>
      <trkpt lat="45.08623" lon="6.48309">
        <ele>2458.2</ele>
        <time>2013-08-29T16:32:16Z</time>
      </trkpt>
      <trkpt lat="45.08618" lon="6.48316">
        <ele>2457.8</ele>
        <time>2013-08-29T16:32:18Z</time>
      </trkpt>
      <trkpt lat="45.08598" lon="6.48345">
        <ele>2459.2</ele>
        <time>2013-08-29T16:32:30Z</time>
      </trkpt>
      <trkpt lat="45.08581" lon="6.48379">
        <ele>2458.2</ele>
        <time>2013-08-29T16:32:40Z</time>
      </trkpt>
      <trkpt lat="45.08577" lon="6.48385">
        <ele>2456.8</ele>
        <time>2013-08-29T16:32:42Z</time>
      </trkpt>
      <trkpt lat="45.08574" lon="6.48393">
        <ele>2456.3</ele>
        <time>2013-08-29T16:32:51Z</time>
      </trkpt>
      <trkpt lat="45.08568" lon="6.48409">
        <ele>2457.8</ele>
        <time>2013-08-29T16:33:03Z</time>
      </trkpt>
      <trkpt lat="45.08567" lon="6.4841">
        <ele>2456.8</ele>
        <time>2013-08-29T16:33:04Z</time>
      </trkpt>
      <trkpt lat="45.08567" lon="6.48412">
        <ele>2457.8</ele>
        <time>2013-08-29T16:33:05Z</time>
      </trkpt>
      <trkpt lat="45.08566" lon="6.48413">
        <ele>2456.8</ele>
        <time>2013-08-29T16:33:06Z</time>
      </trkpt>
      <trkpt lat="45.08566" lon="6.48414">
        <ele>2457.3</ele>
        <time>2013-08-29T16:33:07Z</time>
      </trkpt>
      <trkpt lat="45.08566" lon="6.48418">
        <ele>2456.8</ele>
        <time>2013-08-29T16:33:13Z</time>
      </trkpt>
      <trkpt lat="45.08565" lon="6.48419">
        <ele>2457.8</ele>
        <time>2013-08-29T16:33:14Z</time>
      </trkpt>
      <trkpt lat="45.08564" lon="6.48421">
        <ele>2457.3</ele>
        <time>2013-08-29T16:33:15Z</time>
      </trkpt>
      <trkpt lat="45.08563" lon="6.48422">
        <ele>2457.3</ele>
        <time>2013-08-29T16:33:16Z</time>
      </trkpt>
      <trkpt lat="45.08563" lon="6.48424">
        <ele>2457.8</ele>
        <time>2013-08-29T16:33:17Z</time>
      </trkpt>
      <trkpt lat="45.08562" lon="6.48425">
        <ele>2457.8</ele>
        <time>2013-08-29T16:33:18Z</time>
      </trkpt>
      <trkpt lat="45.08561" lon="6.48426">
        <ele>2458.2</ele>
        <time>2013-08-29T16:33:19Z</time>
      </trkpt>
      <trkpt lat="45.08561" lon="6.48428">
        <ele>2457.3</ele>
        <time>2013-08-29T16:33:20Z</time>
      </trkpt>
      <trkpt lat="45.08551" lon="6.48449">
        <ele>2459.2</ele>
        <time>2013-08-29T16:33:35Z</time>
      </trkpt>
      <trkpt lat="45.08539" lon="6.48472">
        <ele>2460.2</ele>
        <time>2013-08-29T16:33:51Z</time>
      </trkpt>
      <trkpt lat="45.08528" lon="6.48489">
        <ele>2461.1</ele>
        <time>2013-08-29T16:34:04Z</time>
      </trkpt>
      <trkpt lat="45.08518" lon="6.48504">
        <ele>2461.6</ele>
        <time>2013-08-29T16:34:16Z</time>
      </trkpt>
      <trkpt lat="45.08517" lon="6.48505">
        <ele>2460.6</ele>
        <time>2013-08-29T16:34:17Z</time>
      </trkpt>
      <trkpt lat="45.08516" lon="6.48507">
        <ele>2462.1</ele>
        <time>2013-08-29T16:34:18Z</time>
      </trkpt>
      <trkpt lat="45.08513" lon="6.48511">
        <ele>2461.6</ele>
        <time>2013-08-29T16:34:24Z</time>
      </trkpt>
      <trkpt lat="45.08503" lon="6.48522">
        <ele>2462.6</ele>
        <time>2013-08-29T16:34:37Z</time>
      </trkpt>
      <trkpt lat="45.08503" lon="6.48523">
        <ele>2462.1</ele>
        <time>2013-08-29T16:34:43Z</time>
      </trkpt>
      <trkpt lat="45.08499" lon="6.48527">
        <ele>2462.6</ele>
        <time>2013-08-29T16:34:52Z</time>
      </trkpt>
      <trkpt lat="45.08499" lon="6.48529">
        <ele>2462.6</ele>
        <time>2013-08-29T16:34:53Z</time>
      </trkpt>
      <trkpt lat="45.08498" lon="6.4853">
        <ele>2462.1</ele>
        <time>2013-08-29T16:34:54Z</time>
      </trkpt>
      <trkpt lat="45.08497" lon="6.48531">
        <ele>2462.1</ele>
        <time>2013-08-29T16:34:55Z</time>
      </trkpt>
      <trkpt lat="45.08496" lon="6.48532">
        <ele>2463.5</ele>
        <time>2013-08-29T16:34:56Z</time>
      </trkpt>
      <trkpt lat="45.08496" lon="6.48533">
        <ele>2463.5</ele>
        <time>2013-08-29T16:34:57Z</time>
      </trkpt>
      <trkpt lat="45.08495" lon="6.48535">
        <ele>2464</ele>
        <time>2013-08-29T16:34:58Z</time>
      </trkpt>
      <trkpt lat="45.08496" lon="6.48537">
        <ele>2464</ele>
        <time>2013-08-29T16:35:00Z</time>
      </trkpt>
      <trkpt lat="45.08496" lon="6.48541">
        <ele>2463.5</ele>
        <time>2013-08-29T16:35:03Z</time>
      </trkpt>
      <trkpt lat="45.08495" lon="6.48542">
        <ele>2463.5</ele>
        <time>2013-08-29T16:35:04Z</time>
      </trkpt>
      <trkpt lat="45.08495" lon="6.48544">
        <ele>2463</ele>
        <time>2013-08-29T16:35:05Z</time>
      </trkpt>
      <trkpt lat="45.08494" lon="6.48545">
        <ele>2464</ele>
        <time>2013-08-29T16:35:06Z</time>
      </trkpt>
      <trkpt lat="45.0849" lon="6.48554">
        <ele>2464.5</ele>
        <time>2013-08-29T16:35:15Z</time>
      </trkpt>
      <trkpt lat="45.08489" lon="6.48555">
        <ele>2464</ele>
        <time>2013-08-29T16:35:16Z</time>
      </trkpt>
      <trkpt lat="45.08489" lon="6.48557">
        <ele>2463.5</ele>
        <time>2013-08-29T16:35:17Z</time>
      </trkpt>
      <trkpt lat="45.08488" lon="6.48558">
        <ele>2464</ele>
        <time>2013-08-29T16:35:18Z</time>
      </trkpt>
      <trkpt lat="45.08487" lon="6.48576">
        <ele>2462.6</ele>
        <time>2013-08-29T16:35:31Z</time>
      </trkpt>
      <trkpt lat="45.08484" lon="6.48594">
        <ele>2462.1</ele>
        <time>2013-08-29T16:35:42Z</time>
      </trkpt>
      <trkpt lat="45.08481" lon="6.48616">
        <ele>2464.5</ele>
        <time>2013-08-29T16:35:57Z</time>
      </trkpt>
      <trkpt lat="45.08478" lon="6.4864">
        <ele>2464</ele>
        <time>2013-08-29T16:36:10Z</time>
      </trkpt>
      <trkpt lat="45.08477" lon="6.48656">
        <ele>2463.5</ele>
        <time>2013-08-29T16:36:18Z</time>
      </trkpt>
      <trkpt lat="45.08473" lon="6.48676">
        <ele>2461.6</ele>
        <time>2013-08-29T16:36:29Z</time>
      </trkpt>
      <trkpt lat="45.08472" lon="6.48683">
        <ele>2461.6</ele>
        <time>2013-08-29T16:36:32Z</time>
      </trkpt>
      <trkpt lat="45.0847" lon="6.48688">
        <ele>2460.6</ele>
        <time>2013-08-29T16:36:47Z</time>
      </trkpt>
      <trkpt lat="45.08471" lon="6.48689">
        <ele>2460.2</ele>
        <time>2013-08-29T16:37:23Z</time>
      </trkpt>
      <trkpt lat="45.0847" lon="6.48697">
        <ele>2459.2</ele>
        <time>2013-08-29T16:37:32Z</time>
      </trkpt>
      <trkpt lat="45.08469" lon="6.48698">
        <ele>2459.2</ele>
        <time>2013-08-29T16:37:33Z</time>
      </trkpt>
      <trkpt lat="45.08465" lon="6.48712">
        <ele>2457.3</ele>
        <time>2013-08-29T16:37:48Z</time>
      </trkpt>
      <trkpt lat="45.08462" lon="6.48721">
        <ele>2455.3</ele>
        <time>2013-08-29T16:37:57Z</time>
      </trkpt>
      <trkpt lat="45.08467" lon="6.48727">
        <ele>2455.8</ele>
        <time>2013-08-29T16:38:07Z</time>
      </trkpt>
      <trkpt lat="45.08471" lon="6.48731">
        <ele>2453.9</ele>
        <time>2013-08-29T16:38:16Z</time>
      </trkpt>
      <trkpt lat="45.08479" lon="6.48739">
        <ele>2453.4</ele>
        <time>2013-08-29T16:38:25Z</time>
      </trkpt>
      <trkpt lat="45.08486" lon="6.48741">
        <ele>2452.9</ele>
        <time>2013-08-29T16:38:33Z</time>
      </trkpt>
      <trkpt lat="45.08489" lon="6.48746">
        <ele>2452</ele>
        <time>2013-08-29T16:38:37Z</time>
      </trkpt>
      <trkpt lat="45.0849" lon="6.48761">
        <ele>2450.1</ele>
        <time>2013-08-29T16:38:51Z</time>
      </trkpt>
      <trkpt lat="45.08489" lon="6.48761">
        <ele>2451</ele>
        <time>2013-08-29T16:38:53Z</time>
      </trkpt>
      <trkpt lat="45.08484" lon="6.48759">
        <ele>2449.1</ele>
        <time>2013-08-29T16:38:57Z</time>
      </trkpt>
      <trkpt lat="45.08481" lon="6.48766">
        <ele>2448.6</ele>
        <time>2013-08-29T16:39:11Z</time>
      </trkpt>
      <trkpt lat="45.08476" lon="6.48771">
        <ele>2446.2</ele>
        <time>2013-08-29T16:39:24Z</time>
      </trkpt>
      <trkpt lat="45.0847" lon="6.48771">
        <ele>2445.3</ele>
        <time>2013-08-29T16:39:36Z</time>
      </trkpt>
      <trkpt lat="45.08463" lon="6.48773">
        <ele>2442.9</ele>
        <time>2013-08-29T16:39:46Z</time>
      </trkpt>
      <trkpt lat="45.08458" lon="6.48776">
        <ele>2442.4</ele>
        <time>2013-08-29T16:39:52Z</time>
      </trkpt>
      <trkpt lat="45.08446" lon="6.48775">
        <ele>2441.4</ele>
        <time>2013-08-29T16:40:07Z</time>
      </trkpt>
      <trkpt lat="45.08444" lon="6.48777">
        <ele>2440</ele>
        <time>2013-08-29T16:40:09Z</time>
      </trkpt>
      <trkpt lat="45.08435" lon="6.48796">
        <ele>2440</ele>
        <time>2013-08-29T16:40:25Z</time>
      </trkpt>
      <trkpt lat="45.0843" lon="6.48799">
        <ele>2440</ele>
        <time>2013-08-29T16:40:30Z</time>
      </trkpt>
      <trkpt lat="45.08422" lon="6.4882">
        <ele>2439</ele>
        <time>2013-08-29T16:40:46Z</time>
      </trkpt>
      <trkpt lat="45.08419" lon="6.48826">
        <ele>2438</ele>
        <time>2013-08-29T16:41:00Z</time>
      </trkpt>
      <trkpt lat="45.08416" lon="6.48834">
        <ele>2440.4</ele>
        <time>2013-08-29T16:41:12Z</time>
      </trkpt>
      <trkpt lat="45.08413" lon="6.48839">
        <ele>2440.9</ele>
        <time>2013-08-29T16:41:20Z</time>
      </trkpt>
      <trkpt lat="45.08421" lon="6.48849">
        <ele>2436.6</ele>
        <time>2013-08-29T16:41:35Z</time>
      </trkpt>
      <trkpt lat="45.08424" lon="6.48852">
        <ele>2437.6</ele>
        <time>2013-08-29T16:41:40Z</time>
      </trkpt>
      <trkpt lat="45.08436" lon="6.48851">
        <ele>2435.2</ele>
        <time>2013-08-29T16:41:52Z</time>
      </trkpt>
      <trkpt lat="45.08466" lon="6.48855">
        <ele>2432.8</ele>
        <time>2013-08-29T16:42:02Z</time>
      </trkpt>
      <trkpt lat="45.08468" lon="6.48855">
        <ele>2433.2</ele>
        <time>2013-08-29T16:42:03Z</time>
      </trkpt>
      <trkpt lat="45.08473" lon="6.48857">
        <ele>2432.8</ele>
        <time>2013-08-29T16:42:08Z</time>
      </trkpt>
      <trkpt lat="45.08474" lon="6.48857">
        <ele>2432.3</ele>
        <time>2013-08-29T16:42:09Z</time>
      </trkpt>
      <trkpt lat="45.08476" lon="6.48858">
        <ele>2432.3</ele>
        <time>2013-08-29T16:42:10Z</time>
      </trkpt>
      <trkpt lat="45.08479" lon="6.48858">
        <ele>2431.8</ele>
        <time>2013-08-29T16:42:11Z</time>
      </trkpt>
      <trkpt lat="45.08482" lon="6.48859">
        <ele>2431.8</ele>
        <time>2013-08-29T16:42:12Z</time>
      </trkpt>
      <trkpt lat="45.08485" lon="6.4886">
        <ele>2430.8</ele>
        <time>2013-08-29T16:42:13Z</time>
      </trkpt>
      <trkpt lat="45.08488" lon="6.48861">
        <ele>2430.8</ele>
        <time>2013-08-29T16:42:14Z</time>
      </trkpt>
      <trkpt lat="45.08492" lon="6.48862">
        <ele>2429.4</ele>
        <time>2013-08-29T16:42:15Z</time>
      </trkpt>
      <trkpt lat="45.085" lon="6.48863">
        <ele>2428.9</ele>
        <time>2013-08-29T16:42:17Z</time>
      </trkpt>
      <trkpt lat="45.08519" lon="6.48853">
        <ele>2427</ele>
        <time>2013-08-29T16:42:24Z</time>
      </trkpt>
      <trkpt lat="45.08522" lon="6.48852">
        <ele>2427.5</ele>
        <time>2013-08-29T16:42:25Z</time>
      </trkpt>
      <trkpt lat="45.08524" lon="6.48853">
        <ele>2426</ele>
        <time>2013-08-29T16:42:26Z</time>
      </trkpt>
      <trkpt lat="45.08537" lon="6.4886">
        <ele>2424.1</ele>
        <time>2013-08-29T16:42:31Z</time>
      </trkpt>
      <trkpt lat="45.08539" lon="6.4886">
        <ele>2424.6</ele>
        <time>2013-08-29T16:42:32Z</time>
      </trkpt>
      <trkpt lat="45.08539" lon="6.48858">
        <ele>2421.2</ele>
        <time>2013-08-29T16:42:34Z</time>
      </trkpt>
      <trkpt lat="45.08549" lon="6.48857">
        <ele>2420.7</ele>
        <time>2013-08-29T16:42:47Z</time>
      </trkpt>
      <trkpt lat="45.0855" lon="6.48857">
        <ele>2420.3</ele>
        <time>2013-08-29T16:42:48Z</time>
      </trkpt>
      <trkpt lat="45.08554" lon="6.48849">
        <ele>2420.3</ele>
        <time>2013-08-29T16:42:59Z</time>
      </trkpt>
      <trkpt lat="45.08552" lon="6.48845">
        <ele>2417.9</ele>
        <time>2013-08-29T16:43:02Z</time>
      </trkpt>
      <trkpt lat="45.08556" lon="6.48835">
        <ele>2418.3</ele>
        <time>2013-08-29T16:43:14Z</time>
      </trkpt>
      <trkpt lat="45.08558" lon="6.48836">
        <ele>2418.8</ele>
        <time>2013-08-29T16:43:16Z</time>
      </trkpt>
      <trkpt lat="45.0856" lon="6.48836">
        <ele>2417.9</ele>
        <time>2013-08-29T16:43:17Z</time>
      </trkpt>
      <trkpt lat="45.08561" lon="6.48836">
        <ele>2418.3</ele>
        <time>2013-08-29T16:43:18Z</time>
      </trkpt>
      <trkpt lat="45.08565" lon="6.48835">
        <ele>2417.9</ele>
        <time>2013-08-29T16:43:23Z</time>
      </trkpt>
      <trkpt lat="45.08567" lon="6.48834">
        <ele>2417.4</ele>
        <time>2013-08-29T16:43:25Z</time>
      </trkpt>
      <trkpt lat="45.08573" lon="6.48834">
        <ele>2415</ele>
        <time>2013-08-29T16:43:33Z</time>
      </trkpt>
      <trkpt lat="45.08582" lon="6.48837">
        <ele>2414</ele>
        <time>2013-08-29T16:43:46Z</time>
      </trkpt>
      <trkpt lat="45.08582" lon="6.48838">
        <ele>2413.1</ele>
        <time>2013-08-29T16:43:48Z</time>
      </trkpt>
      <trkpt lat="45.08584" lon="6.48839">
        <ele>2411.6</ele>
        <time>2013-08-29T16:43:50Z</time>
      </trkpt>
      <trkpt lat="45.08585" lon="6.48838">
        <ele>2411.6</ele>
        <time>2013-08-29T16:43:51Z</time>
      </trkpt>
      <trkpt lat="45.08592" lon="6.4884">
        <ele>2410.2</ele>
        <time>2013-08-29T16:44:00Z</time>
      </trkpt>
      <trkpt lat="45.08599" lon="6.48841">
        <ele>2407.8</ele>
        <time>2013-08-29T16:44:11Z</time>
      </trkpt>
      <trkpt lat="45.08609" lon="6.48839">
        <ele>2404.4</ele>
        <time>2013-08-29T16:44:23Z</time>
      </trkpt>
      <trkpt lat="45.08615" lon="6.48841">
        <ele>2404.9</ele>
        <time>2013-08-29T16:44:29Z</time>
      </trkpt>
      <trkpt lat="45.08616" lon="6.48842">
        <ele>2403.9</ele>
        <time>2013-08-29T16:44:30Z</time>
      </trkpt>
      <trkpt lat="45.08617" lon="6.48842">
        <ele>2404.4</ele>
        <time>2013-08-29T16:44:31Z</time>
      </trkpt>
      <trkpt lat="45.08618" lon="6.48843">
        <ele>2403.9</ele>
        <time>2013-08-29T16:44:32Z</time>
      </trkpt>
      <trkpt lat="45.08619" lon="6.48844">
        <ele>2403.4</ele>
        <time>2013-08-29T16:44:33Z</time>
      </trkpt>
      <trkpt lat="45.08634" lon="6.48856">
        <ele>2403</ele>
        <time>2013-08-29T16:44:49Z</time>
      </trkpt>
      <trkpt lat="45.08643" lon="6.48866">
        <ele>2403</ele>
        <time>2013-08-29T16:45:03Z</time>
      </trkpt>
      <trkpt lat="45.08653" lon="6.48875">
        <ele>2404.4</ele>
        <time>2013-08-29T16:45:18Z</time>
      </trkpt>
      <trkpt lat="45.08656" lon="6.48883">
        <ele>2403.9</ele>
        <time>2013-08-29T16:45:30Z</time>
      </trkpt>
      <trkpt lat="45.08663" lon="6.48893">
        <ele>2403.4</ele>
        <time>2013-08-29T16:45:44Z</time>
      </trkpt>
      <trkpt lat="45.0867" lon="6.48905">
        <ele>2404.9</ele>
        <time>2013-08-29T16:45:57Z</time>
      </trkpt>
      <trkpt lat="45.08671" lon="6.48905">
        <ele>2404.4</ele>
        <time>2013-08-29T16:45:58Z</time>
      </trkpt>
      <trkpt lat="45.08679" lon="6.48903">
        <ele>2403.9</ele>
        <time>2013-08-29T16:46:09Z</time>
      </trkpt>
      <trkpt lat="45.08696" lon="6.48913">
        <ele>2404.4</ele>
        <time>2013-08-29T16:46:20Z</time>
      </trkpt>
      <trkpt lat="45.08697" lon="6.48919">
        <ele>2403</ele>
        <time>2013-08-29T16:46:22Z</time>
      </trkpt>
      <trkpt lat="45.08696" lon="6.48921">
        <ele>2403.4</ele>
        <time>2013-08-29T16:46:23Z</time>
      </trkpt>
      <trkpt lat="45.08695" lon="6.48924">
        <ele>2403</ele>
        <time>2013-08-29T16:46:24Z</time>
      </trkpt>
      <trkpt lat="45.08694" lon="6.48927">
        <ele>2402.5</ele>
        <time>2013-08-29T16:46:25Z</time>
      </trkpt>
      <trkpt lat="45.08694" lon="6.4893">
        <ele>2402.5</ele>
        <time>2013-08-29T16:46:26Z</time>
      </trkpt>
      <trkpt lat="45.08692" lon="6.48939">
        <ele>2402.5</ele>
        <time>2013-08-29T16:46:35Z</time>
      </trkpt>
      <trkpt lat="45.08686" lon="6.4895">
        <ele>2401.5</ele>
        <time>2013-08-29T16:46:47Z</time>
      </trkpt>
      <trkpt lat="45.08685" lon="6.48952">
        <ele>2402</ele>
        <time>2013-08-29T16:46:49Z</time>
      </trkpt>
      <trkpt lat="45.08679" lon="6.48958">
        <ele>2403</ele>
        <time>2013-08-29T16:46:57Z</time>
      </trkpt>
      <trkpt lat="45.08679" lon="6.4896">
        <ele>2402.5</ele>
        <time>2013-08-29T16:46:58Z</time>
      </trkpt>
      <trkpt lat="45.08678" lon="6.48961">
        <ele>2401.5</ele>
        <time>2013-08-29T16:46:59Z</time>
      </trkpt>
      <trkpt lat="45.08678" lon="6.48963">
        <ele>2402</ele>
        <time>2013-08-29T16:47:00Z</time>
      </trkpt>
      <trkpt lat="45.08677" lon="6.48964">
        <ele>2401.5</ele>
        <time>2013-08-29T16:47:01Z</time>
      </trkpt>
      <trkpt lat="45.08668" lon="6.48978">
        <ele>2402</ele>
        <time>2013-08-29T16:47:14Z</time>
      </trkpt>
      <trkpt lat="45.08657" lon="6.48993">
        <ele>2400.6</ele>
        <time>2013-08-29T16:47:31Z</time>
      </trkpt>
      <trkpt lat="45.08656" lon="6.48996">
        <ele>2400.6</ele>
        <time>2013-08-29T16:47:35Z</time>
      </trkpt>
      <trkpt lat="45.08656" lon="6.48997">
        <ele>2399.6</ele>
        <time>2013-08-29T16:47:36Z</time>
      </trkpt>
      <trkpt lat="45.08651" lon="6.49009">
        <ele>2399.1</ele>
        <time>2013-08-29T16:47:47Z</time>
      </trkpt>
      <trkpt lat="45.08651" lon="6.4901">
        <ele>2399.6</ele>
        <time>2013-08-29T16:47:48Z</time>
      </trkpt>
      <trkpt lat="45.08651" lon="6.49012">
        <ele>2398.6</ele>
        <time>2013-08-29T16:47:50Z</time>
      </trkpt>
      <trkpt lat="45.08652" lon="6.49014">
        <ele>2398.6</ele>
        <time>2013-08-29T16:47:51Z</time>
      </trkpt>
      <trkpt lat="45.08652" lon="6.49016">
        <ele>2399.1</ele>
        <time>2013-08-29T16:47:52Z</time>
      </trkpt>
      <trkpt lat="45.08652" lon="6.49025">
        <ele>2398.2</ele>
        <time>2013-08-29T16:47:59Z</time>
      </trkpt>
      <trkpt lat="45.08645" lon="6.49034">
        <ele>2397.7</ele>
        <time>2013-08-29T16:48:13Z</time>
      </trkpt>
      <trkpt lat="45.0864" lon="6.4904">
        <ele>2395.7</ele>
        <time>2013-08-29T16:48:17Z</time>
      </trkpt>
      <trkpt lat="45.08639" lon="6.49039">
        <ele>2396.7</ele>
        <time>2013-08-29T16:48:21Z</time>
      </trkpt>
      <trkpt lat="45.08635" lon="6.49042">
        <ele>2395.3</ele>
        <time>2013-08-29T16:48:27Z</time>
      </trkpt>
      <trkpt lat="45.08635" lon="6.49044">
        <ele>2394.3</ele>
        <time>2013-08-29T16:48:28Z</time>
      </trkpt>
      <trkpt lat="45.08633" lon="6.49046">
        <ele>2392.9</ele>
        <time>2013-08-29T16:48:32Z</time>
      </trkpt>
      <trkpt lat="45.08621" lon="6.49062">
        <ele>2391.4</ele>
        <time>2013-08-29T16:48:42Z</time>
      </trkpt>
      <trkpt lat="45.08619" lon="6.49066">
        <ele>2391.4</ele>
        <time>2013-08-29T16:48:43Z</time>
      </trkpt>
      <trkpt lat="45.08609" lon="6.49085">
        <ele>2391.9</ele>
        <time>2013-08-29T16:48:52Z</time>
      </trkpt>
      <trkpt lat="45.08608" lon="6.49089">
        <ele>2393.3</ele>
        <time>2013-08-29T16:48:56Z</time>
      </trkpt>
      <trkpt lat="45.08609" lon="6.49094">
        <ele>2391.9</ele>
        <time>2013-08-29T16:49:01Z</time>
      </trkpt>
      <trkpt lat="45.08609" lon="6.49096">
        <ele>2392.9</ele>
        <time>2013-08-29T16:49:02Z</time>
      </trkpt>
      <trkpt lat="45.08608" lon="6.49097">
        <ele>2393.3</ele>
        <time>2013-08-29T16:49:03Z</time>
      </trkpt>
      <trkpt lat="45.08607" lon="6.49099">
        <ele>2393.3</ele>
        <time>2013-08-29T16:49:04Z</time>
      </trkpt>
      <trkpt lat="45.08608" lon="6.49109">
        <ele>2394.3</ele>
        <time>2013-08-29T16:49:11Z</time>
      </trkpt>
      <trkpt lat="45.08608" lon="6.49111">
        <ele>2395.3</ele>
        <time>2013-08-29T16:49:13Z</time>
      </trkpt>
      <trkpt lat="45.08609" lon="6.49113">
        <ele>2394.8</ele>
        <time>2013-08-29T16:49:14Z</time>
      </trkpt>
      <trkpt lat="45.0861" lon="6.49116">
        <ele>2395.7</ele>
        <time>2013-08-29T16:49:24Z</time>
      </trkpt>
      <trkpt lat="45.08608" lon="6.49122">
        <ele>2394.8</ele>
        <time>2013-08-29T16:49:35Z</time>
      </trkpt>
      <trkpt lat="45.08603" lon="6.49131">
        <ele>2395.7</ele>
        <time>2013-08-29T16:49:43Z</time>
      </trkpt>
      <trkpt lat="45.08594" lon="6.49153">
        <ele>2395.7</ele>
        <time>2013-08-29T16:49:58Z</time>
      </trkpt>
      <trkpt lat="45.08593" lon="6.49157">
        <ele>2395.7</ele>
        <time>2013-08-29T16:50:02Z</time>
      </trkpt>
      <trkpt lat="45.08592" lon="6.49159">
        <ele>2396.2</ele>
        <time>2013-08-29T16:50:03Z</time>
      </trkpt>
      <trkpt lat="45.08591" lon="6.49161">
        <ele>2396.2</ele>
        <time>2013-08-29T16:50:04Z</time>
      </trkpt>
      <trkpt lat="45.0859" lon="6.49182">
        <ele>2394.8</ele>
        <time>2013-08-29T16:50:14Z</time>
      </trkpt>
      <trkpt lat="45.0859" lon="6.49186">
        <ele>2396.2</ele>
        <time>2013-08-29T16:50:17Z</time>
      </trkpt>
      <trkpt lat="45.0859" lon="6.49192">
        <ele>2394.8</ele>
        <time>2013-08-29T16:50:22Z</time>
      </trkpt>
      <trkpt lat="45.08581" lon="6.49215">
        <ele>2392.4</ele>
        <time>2013-08-29T16:50:32Z</time>
      </trkpt>
      <trkpt lat="45.08572" lon="6.49232">
        <ele>2392.4</ele>
        <time>2013-08-29T16:50:40Z</time>
      </trkpt>
      <trkpt lat="45.0857" lon="6.49235">
        <ele>2390.5</ele>
        <time>2013-08-29T16:50:43Z</time>
      </trkpt>
      <trkpt lat="45.08564" lon="6.49248">
        <ele>2390.9</ele>
        <time>2013-08-29T16:50:50Z</time>
      </trkpt>
      <trkpt lat="45.08564" lon="6.49254">
        <ele>2389</ele>
        <time>2013-08-29T16:50:53Z</time>
      </trkpt>
      <trkpt lat="45.08564" lon="6.49257">
        <ele>2389</ele>
        <time>2013-08-29T16:50:54Z</time>
      </trkpt>
      <trkpt lat="45.08563" lon="6.49259">
        <ele>2389.5</ele>
        <time>2013-08-29T16:50:55Z</time>
      </trkpt>
      <trkpt lat="45.08563" lon="6.49262">
        <ele>2389.5</ele>
        <time>2013-08-29T16:50:56Z</time>
      </trkpt>
      <trkpt lat="45.08563" lon="6.49264">
        <ele>2390</ele>
        <time>2013-08-29T16:50:57Z</time>
      </trkpt>
      <trkpt lat="45.08562" lon="6.49266">
        <ele>2389.5</ele>
        <time>2013-08-29T16:50:58Z</time>
      </trkpt>
      <trkpt lat="45.08561" lon="6.49269">
        <ele>2389</ele>
        <time>2013-08-29T16:50:59Z</time>
      </trkpt>
      <trkpt lat="45.0856" lon="6.4927">
        <ele>2389</ele>
        <time>2013-08-29T16:51:00Z</time>
      </trkpt>
      <trkpt lat="45.08555" lon="6.4929">
        <ele>2387.6</ele>
        <time>2013-08-29T16:51:07Z</time>
      </trkpt>
      <trkpt lat="45.08553" lon="6.49294">
        <ele>2387.6</ele>
        <time>2013-08-29T16:51:08Z</time>
      </trkpt>
      <trkpt lat="45.0853" lon="6.49329">
        <ele>2384.2</ele>
        <time>2013-08-29T16:51:18Z</time>
      </trkpt>
      <trkpt lat="45.08526" lon="6.49338">
        <ele>2383.3</ele>
        <time>2013-08-29T16:51:20Z</time>
      </trkpt>
      <trkpt lat="45.08516" lon="6.49361">
        <ele>2382.8</ele>
        <time>2013-08-29T16:51:29Z</time>
      </trkpt>
      <trkpt lat="45.08508" lon="6.49365">
        <ele>2378.4</ele>
        <time>2013-08-29T16:51:33Z</time>
      </trkpt>
      <trkpt lat="45.08505" lon="6.49367">
        <ele>2378.9</ele>
        <time>2013-08-29T16:51:34Z</time>
      </trkpt>
      <trkpt lat="45.08492" lon="6.49388">
        <ele>2376.5</ele>
        <time>2013-08-29T16:51:43Z</time>
      </trkpt>
      <trkpt lat="45.08493" lon="6.4939">
        <ele>2377</ele>
        <time>2013-08-29T16:51:44Z</time>
      </trkpt>
      <trkpt lat="45.08494" lon="6.49393">
        <ele>2376.5</ele>
        <time>2013-08-29T16:51:45Z</time>
      </trkpt>
      <trkpt lat="45.08495" lon="6.49396">
        <ele>2375.6</ele>
        <time>2013-08-29T16:51:46Z</time>
      </trkpt>
      <trkpt lat="45.08496" lon="6.49399">
        <ele>2375.1</ele>
        <time>2013-08-29T16:51:47Z</time>
      </trkpt>
      <trkpt lat="45.08499" lon="6.49403">
        <ele>2375.6</ele>
        <time>2013-08-29T16:51:48Z</time>
      </trkpt>
      <trkpt lat="45.08501" lon="6.49406">
        <ele>2375.1</ele>
        <time>2013-08-29T16:51:49Z</time>
      </trkpt>
      <trkpt lat="45.08504" lon="6.49409">
        <ele>2375.6</ele>
        <time>2013-08-29T16:51:50Z</time>
      </trkpt>
      <trkpt lat="45.08507" lon="6.49412">
        <ele>2374.6</ele>
        <time>2013-08-29T16:51:51Z</time>
      </trkpt>
      <trkpt lat="45.0853" lon="6.49438">
        <ele>2373.2</ele>
        <time>2013-08-29T16:52:01Z</time>
      </trkpt>
      <trkpt lat="45.08535" lon="6.49445">
        <ele>2369.8</ele>
        <time>2013-08-29T16:52:06Z</time>
      </trkpt>
      <trkpt lat="45.08537" lon="6.4945">
        <ele>2368.8</ele>
        <time>2013-08-29T16:52:16Z</time>
      </trkpt>
      <trkpt lat="45.0854" lon="6.49459">
        <ele>2369.3</ele>
        <time>2013-08-29T16:52:24Z</time>
      </trkpt>
      <trkpt lat="45.08534" lon="6.49476">
        <ele>2368.4</ele>
        <time>2013-08-29T16:52:38Z</time>
      </trkpt>
      <trkpt lat="45.08532" lon="6.49484">
        <ele>2366.9</ele>
        <time>2013-08-29T16:52:40Z</time>
      </trkpt>
      <trkpt lat="45.08527" lon="6.49499">
        <ele>2367.4</ele>
        <time>2013-08-29T16:52:43Z</time>
      </trkpt>
      <trkpt lat="45.08524" lon="6.49513">
        <ele>2366.4</ele>
        <time>2013-08-29T16:52:45Z</time>
      </trkpt>
      <trkpt lat="45.08515" lon="6.49569">
        <ele>2367.4</ele>
        <time>2013-08-29T16:52:56Z</time>
      </trkpt>
      <trkpt lat="45.08514" lon="6.49572">
        <ele>2368.8</ele>
        <time>2013-08-29T16:52:58Z</time>
      </trkpt>
      <trkpt lat="45.08514" lon="6.49574">
        <ele>2368.8</ele>
        <time>2013-08-29T16:52:59Z</time>
      </trkpt>
      <trkpt lat="45.08513" lon="6.49576">
        <ele>2368.8</ele>
        <time>2013-08-29T16:53:00Z</time>
      </trkpt>
      <trkpt lat="45.08513" lon="6.49578">
        <ele>2368.4</ele>
        <time>2013-08-29T16:53:01Z</time>
      </trkpt>
      <trkpt lat="45.08514" lon="6.49581">
        <ele>2367.9</ele>
        <time>2013-08-29T16:53:02Z</time>
      </trkpt>
      <trkpt lat="45.08515" lon="6.49584">
        <ele>2367.4</ele>
        <time>2013-08-29T16:53:03Z</time>
      </trkpt>
      <trkpt lat="45.08518" lon="6.49596">
        <ele>2366.4</ele>
        <time>2013-08-29T16:53:06Z</time>
      </trkpt>
      <trkpt lat="45.08518" lon="6.496">
        <ele>2365.9</ele>
        <time>2013-08-29T16:53:07Z</time>
      </trkpt>
      <trkpt lat="45.08519" lon="6.49603">
        <ele>2365.9</ele>
        <time>2013-08-29T16:53:08Z</time>
      </trkpt>
      <trkpt lat="45.0852" lon="6.49606">
        <ele>2366.9</ele>
        <time>2013-08-29T16:53:09Z</time>
      </trkpt>
      <trkpt lat="45.0852" lon="6.49608">
        <ele>2365.9</ele>
        <time>2013-08-29T16:53:10Z</time>
      </trkpt>
      <trkpt lat="45.08531" lon="6.49619">
        <ele>2365</ele>
        <time>2013-08-29T16:53:16Z</time>
      </trkpt>
      <trkpt lat="45.08531" lon="6.49622">
        <ele>2365</ele>
        <time>2013-08-29T16:53:17Z</time>
      </trkpt>
      <trkpt lat="45.08531" lon="6.49625">
        <ele>2364</ele>
        <time>2013-08-29T16:53:18Z</time>
      </trkpt>
      <trkpt lat="45.08531" lon="6.49629">
        <ele>2363.5</ele>
        <time>2013-08-29T16:53:19Z</time>
      </trkpt>
      <trkpt lat="45.08532" lon="6.49634">
        <ele>2363.5</ele>
        <time>2013-08-29T16:53:20Z</time>
      </trkpt>
      <trkpt lat="45.0853" lon="6.49662">
        <ele>2361.1</ele>
        <time>2013-08-29T16:53:28Z</time>
      </trkpt>
      <trkpt lat="45.08529" lon="6.49663">
        <ele>2360.7</ele>
        <time>2013-08-29T16:53:29Z</time>
      </trkpt>
      <trkpt lat="45.08529" lon="6.49665">
        <ele>2361.1</ele>
        <time>2013-08-29T16:53:30Z</time>
      </trkpt>
      <trkpt lat="45.08529" lon="6.49668">
        <ele>2360.2</ele>
        <time>2013-08-29T16:53:33Z</time>
      </trkpt>
      <trkpt lat="45.08529" lon="6.4967">
        <ele>2360.2</ele>
        <time>2013-08-29T16:53:34Z</time>
      </trkpt>
      <trkpt lat="45.08529" lon="6.49672">
        <ele>2360.7</ele>
        <time>2013-08-29T16:53:35Z</time>
      </trkpt>
      <trkpt lat="45.08531" lon="6.49675">
        <ele>2359.7</ele>
        <time>2013-08-29T16:53:36Z</time>
      </trkpt>
      <trkpt lat="45.08532" lon="6.49677">
        <ele>2359.2</ele>
        <time>2013-08-29T16:53:37Z</time>
      </trkpt>
      <trkpt lat="45.08534" lon="6.49713">
        <ele>2360.7</ele>
        <time>2013-08-29T16:53:49Z</time>
      </trkpt>
      <trkpt lat="45.08535" lon="6.49741">
        <ele>2361.1</ele>
        <time>2013-08-29T16:53:59Z</time>
      </trkpt>
      <trkpt lat="45.08534" lon="6.49744">
        <ele>2361.6</ele>
        <time>2013-08-29T16:54:00Z</time>
      </trkpt>
      <trkpt lat="45.08533" lon="6.49747">
        <ele>2361.1</ele>
        <time>2013-08-29T16:54:01Z</time>
      </trkpt>
      <trkpt lat="45.08533" lon="6.4975">
        <ele>2361.1</ele>
        <time>2013-08-29T16:54:02Z</time>
      </trkpt>
      <trkpt lat="45.08533" lon="6.49754">
        <ele>2362.1</ele>
        <time>2013-08-29T16:54:03Z</time>
      </trkpt>
      <trkpt lat="45.08533" lon="6.49757">
        <ele>2361.1</ele>
        <time>2013-08-29T16:54:04Z</time>
      </trkpt>
      <trkpt lat="45.08533" lon="6.49762">
        <ele>2360.7</ele>
        <time>2013-08-29T16:54:11Z</time>
      </trkpt>
      <trkpt lat="45.08529" lon="6.49779">
        <ele>2358.7</ele>
        <time>2013-08-29T16:54:22Z</time>
      </trkpt>
      <trkpt lat="45.08527" lon="6.49785">
        <ele>2357.3</ele>
        <time>2013-08-29T16:54:29Z</time>
      </trkpt>
      <trkpt lat="45.08528" lon="6.4979">
        <ele>2356.8</ele>
        <time>2013-08-29T16:54:34Z</time>
      </trkpt>
      <trkpt lat="45.08534" lon="6.498">
        <ele>2355.4</ele>
        <time>2013-08-29T16:54:44Z</time>
      </trkpt>
      <trkpt lat="45.08534" lon="6.49803">
        <ele>2354.9</ele>
        <time>2013-08-29T16:54:45Z</time>
      </trkpt>
      <trkpt lat="45.08534" lon="6.49806">
        <ele>2354.9</ele>
        <time>2013-08-29T16:54:46Z</time>
      </trkpt>
      <trkpt lat="45.08533" lon="6.49809">
        <ele>2355.9</ele>
        <time>2013-08-29T16:54:47Z</time>
      </trkpt>
      <trkpt lat="45.08532" lon="6.49812">
        <ele>2355.4</ele>
        <time>2013-08-29T16:54:48Z</time>
      </trkpt>
      <trkpt lat="45.08531" lon="6.49814">
        <ele>2355.9</ele>
        <time>2013-08-29T16:54:49Z</time>
      </trkpt>
      <trkpt lat="45.0853" lon="6.49817">
        <ele>2355.4</ele>
        <time>2013-08-29T16:54:50Z</time>
      </trkpt>
      <trkpt lat="45.08529" lon="6.49821">
        <ele>2355.9</ele>
        <time>2013-08-29T16:54:51Z</time>
      </trkpt>
      <trkpt lat="45.08526" lon="6.49823">
        <ele>2355.9</ele>
        <time>2013-08-29T16:54:52Z</time>
      </trkpt>
      <trkpt lat="45.08524" lon="6.49826">
        <ele>2355.9</ele>
        <time>2013-08-29T16:54:53Z</time>
      </trkpt>
      <trkpt lat="45.08521" lon="6.4983">
        <ele>2355.4</ele>
        <time>2013-08-29T16:54:54Z</time>
      </trkpt>
      <trkpt lat="45.08519" lon="6.49833">
        <ele>2355.9</ele>
        <time>2013-08-29T16:54:55Z</time>
      </trkpt>
      <trkpt lat="45.08517" lon="6.49837">
        <ele>2355.9</ele>
        <time>2013-08-29T16:54:56Z</time>
      </trkpt>
      <trkpt lat="45.08513" lon="6.49851">
        <ele>2355.4</ele>
        <time>2013-08-29T16:55:01Z</time>
      </trkpt>
      <trkpt lat="45.08514" lon="6.49852">
        <ele>2355.4</ele>
        <time>2013-08-29T16:55:02Z</time>
      </trkpt>
      <trkpt lat="45.08515" lon="6.49852">
        <ele>2355.9</ele>
        <time>2013-08-29T16:55:03Z</time>
      </trkpt>
      <trkpt lat="45.08516" lon="6.49852">
        <ele>2355.9</ele>
        <time>2013-08-29T16:55:04Z</time>
      </trkpt>
      <trkpt lat="45.08518" lon="6.49851">
        <ele>2356.8</ele>
        <time>2013-08-29T16:55:05Z</time>
      </trkpt>
      <trkpt lat="45.08519" lon="6.49852">
        <ele>2357.3</ele>
        <time>2013-08-29T16:55:06Z</time>
      </trkpt>
      <trkpt lat="45.0852" lon="6.49854">
        <ele>2356.3</ele>
        <time>2013-08-29T16:55:07Z</time>
      </trkpt>
      <trkpt lat="45.08521" lon="6.49857">
        <ele>2354.9</ele>
        <time>2013-08-29T16:55:08Z</time>
      </trkpt>
      <trkpt lat="45.08522" lon="6.4986">
        <ele>2355.4</ele>
        <time>2013-08-29T16:55:09Z</time>
      </trkpt>
      <trkpt lat="45.08526" lon="6.49867">
        <ele>2353.9</ele>
        <time>2013-08-29T16:55:16Z</time>
      </trkpt>
      <trkpt lat="45.08532" lon="6.4988">
        <ele>2353.4</ele>
        <time>2013-08-29T16:55:26Z</time>
      </trkpt>
      <trkpt lat="45.08532" lon="6.49882">
        <ele>2352.5</ele>
        <time>2013-08-29T16:55:27Z</time>
      </trkpt>
      <trkpt lat="45.08531" lon="6.49888">
        <ele>2351</ele>
        <time>2013-08-29T16:55:33Z</time>
      </trkpt>
      <trkpt lat="45.08532" lon="6.49889">
        <ele>2351.5</ele>
        <time>2013-08-29T16:55:34Z</time>
      </trkpt>
      <trkpt lat="45.08533" lon="6.4989">
        <ele>2351.5</ele>
        <time>2013-08-29T16:55:35Z</time>
      </trkpt>
      <trkpt lat="45.08541" lon="6.49895">
        <ele>2353.4</ele>
        <time>2013-08-29T16:55:48Z</time>
      </trkpt>
      <trkpt lat="45.08541" lon="6.49896">
        <ele>2353.9</ele>
        <time>2013-08-29T16:55:49Z</time>
      </trkpt>
      <trkpt lat="45.08541" lon="6.49898">
        <ele>2353.9</ele>
        <time>2013-08-29T16:55:50Z</time>
      </trkpt>
      <trkpt lat="45.08542" lon="6.499">
        <ele>2352.5</ele>
        <time>2013-08-29T16:55:51Z</time>
      </trkpt>
      <trkpt lat="45.08545" lon="6.49904">
        <ele>2352.5</ele>
        <time>2013-08-29T16:55:58Z</time>
      </trkpt>
      <trkpt lat="45.08546" lon="6.49904">
        <ele>2352</ele>
        <time>2013-08-29T16:56:00Z</time>
      </trkpt>
      <trkpt lat="45.08546" lon="6.49907">
        <ele>2351.5</ele>
        <time>2013-08-29T16:56:03Z</time>
      </trkpt>
      <trkpt lat="45.08543" lon="6.4991">
        <ele>2349.6</ele>
        <time>2013-08-29T16:56:08Z</time>
      </trkpt>
      <trkpt lat="45.08542" lon="6.4991">
        <ele>2348.2</ele>
        <time>2013-08-29T16:56:09Z</time>
      </trkpt>
      <trkpt lat="45.08541" lon="6.49911">
        <ele>2347.7</ele>
        <time>2013-08-29T16:56:10Z</time>
      </trkpt>
      <trkpt lat="45.08531" lon="6.49921">
        <ele>2344.8</ele>
        <time>2013-08-29T16:56:20Z</time>
      </trkpt>
      <trkpt lat="45.08527" lon="6.49923">
        <ele>2343.8</ele>
        <time>2013-08-29T16:56:23Z</time>
      </trkpt>
      <trkpt lat="45.08526" lon="6.49924">
        <ele>2342.9</ele>
        <time>2013-08-29T16:56:24Z</time>
      </trkpt>
      <trkpt lat="45.08526" lon="6.49925">
        <ele>2343.8</ele>
        <time>2013-08-29T16:56:25Z</time>
      </trkpt>
      <trkpt lat="45.08523" lon="6.49926">
        <ele>2342.4</ele>
        <time>2013-08-29T16:56:28Z</time>
      </trkpt>
      <trkpt lat="45.08522" lon="6.49927">
        <ele>2342.9</ele>
        <time>2013-08-29T16:56:29Z</time>
      </trkpt>
      <trkpt lat="45.08521" lon="6.49927">
        <ele>2342.4</ele>
        <time>2013-08-29T16:56:30Z</time>
      </trkpt>
      <trkpt lat="45.08543" lon="6.49902">
        <ele>2144.4</ele>
        <time>2013-08-30T06:00:14Z</time>
      </trkpt>
      <trkpt lat="45.08128" lon="6.50807">
        <ele>2144.4</ele>
        <time>2013-08-30T06:00:15Z</time>
      </trkpt>
      <trkpt lat="45.08119" lon="6.50822">
        <ele>2144.8</ele>
        <time>2013-08-30T06:00:20Z</time>
      </trkpt>
      <trkpt lat="45.08112" lon="6.50832">
        <ele>2144.4</ele>
        <time>2013-08-30T06:00:23Z</time>
      </trkpt>
      <trkpt lat="45.08106" lon="6.50839">
        <ele>2144.4</ele>
        <time>2013-08-30T06:00:26Z</time>
      </trkpt>
      <trkpt lat="45.08095" lon="6.50841">
        <ele>2142.9</ele>
        <time>2013-08-30T06:00:31Z</time>
      </trkpt>
      <trkpt lat="45.08092" lon="6.5084">
        <ele>2142.9</ele>
        <time>2013-08-30T06:00:32Z</time>
      </trkpt>
      <trkpt lat="45.08098" lon="6.50845">
        <ele>2142.4</ele>
        <time>2013-08-30T06:00:33Z</time>
      </trkpt>
      <trkpt lat="45.08097" lon="6.50845">
        <ele>2141.5</ele>
        <time>2013-08-30T06:00:34Z</time>
      </trkpt>
      <trkpt lat="45.08097" lon="6.50846">
        <ele>2140.5</ele>
        <time>2013-08-30T06:00:35Z</time>
      </trkpt>
      <trkpt lat="45.08096" lon="6.50846">
        <ele>2140.5</ele>
        <time>2013-08-30T06:00:36Z</time>
      </trkpt>
      <trkpt lat="45.08095" lon="6.50846">
        <ele>2139.6</ele>
        <time>2013-08-30T06:00:37Z</time>
      </trkpt>
      <trkpt lat="45.08086" lon="6.50851">
        <ele>2138.6</ele>
        <time>2013-08-30T06:00:49Z</time>
      </trkpt>
      <trkpt lat="45.0808" lon="6.50855">
        <ele>2135.2</ele>
        <time>2013-08-30T06:01:00Z</time>
      </trkpt>
      <trkpt lat="45.08077" lon="6.50861">
        <ele>2133.8</ele>
        <time>2013-08-30T06:01:06Z</time>
      </trkpt>
      <trkpt lat="45.08077" lon="6.50862">
        <ele>2133.3</ele>
        <time>2013-08-30T06:01:07Z</time>
      </trkpt>
      <trkpt lat="45.08078" lon="6.50869">
        <ele>2136.7</ele>
        <time>2013-08-30T06:01:11Z</time>
      </trkpt>
      <trkpt lat="45.08077" lon="6.5087">
        <ele>2140.5</ele>
        <time>2013-08-30T06:01:14Z</time>
      </trkpt>
      <trkpt lat="45.08076" lon="6.50872">
        <ele>2141.5</ele>
        <time>2013-08-30T06:01:15Z</time>
      </trkpt>
      <trkpt lat="45.08075" lon="6.50874">
        <ele>2142</ele>
        <time>2013-08-30T06:01:16Z</time>
      </trkpt>
      <trkpt lat="45.08074" lon="6.50878">
        <ele>2143.4</ele>
        <time>2013-08-30T06:01:17Z</time>
      </trkpt>
      <trkpt lat="45.08072" lon="6.50882">
        <ele>2144.8</ele>
        <time>2013-08-30T06:01:18Z</time>
      </trkpt>
      <trkpt lat="45.08071" lon="6.50885">
        <ele>2144.8</ele>
        <time>2013-08-30T06:01:19Z</time>
      </trkpt>
      <trkpt lat="45.08067" lon="6.50897">
        <ele>2148.2</ele>
        <time>2013-08-30T06:01:23Z</time>
      </trkpt>
      <trkpt lat="45.08065" lon="6.50904">
        <ele>2151.1</ele>
        <time>2013-08-30T06:01:26Z</time>
      </trkpt>
      <trkpt lat="45.08062" lon="6.50912">
        <ele>2154.5</ele>
        <time>2013-08-30T06:01:30Z</time>
      </trkpt>
      <trkpt lat="45.08061" lon="6.50922">
        <ele>2157.8</ele>
        <time>2013-08-30T06:01:35Z</time>
      </trkpt>
      <trkpt lat="45.08061" lon="6.50926">
        <ele>2159.3</ele>
        <time>2013-08-30T06:01:37Z</time>
      </trkpt>
      <trkpt lat="45.08061" lon="6.50934">
        <ele>2161.2</ele>
        <time>2013-08-30T06:01:41Z</time>
      </trkpt>
      <trkpt lat="45.08058" lon="6.5095">
        <ele>2164.6</ele>
        <time>2013-08-30T06:01:50Z</time>
      </trkpt>
      <trkpt lat="45.08053" lon="6.50962">
        <ele>2167.4</ele>
        <time>2013-08-30T06:01:58Z</time>
      </trkpt>
      <trkpt lat="45.08051" lon="6.50968">
        <ele>2170.3</ele>
        <time>2013-08-30T06:02:09Z</time>
      </trkpt>
      <trkpt lat="45.08039" lon="6.50978">
        <ele>2173.7</ele>
        <time>2013-08-30T06:02:20Z</time>
      </trkpt>
      <trkpt lat="45.08022" lon="6.50975">
        <ele>2176.1</ele>
        <time>2013-08-30T06:02:31Z</time>
      </trkpt>
      <trkpt lat="45.08026" lon="6.50979">
        <ele>2179</ele>
        <time>2013-08-30T06:03:00Z</time>
      </trkpt>
      <trkpt lat="45.08026" lon="6.50981">
        <ele>2179</ele>
        <time>2013-08-30T06:03:06Z</time>
      </trkpt>
      <trkpt lat="45.08025" lon="6.5098">
        <ele>2178.5</ele>
        <time>2013-08-30T06:03:07Z</time>
      </trkpt>
      <trkpt lat="45.08024" lon="6.5098">
        <ele>2178.5</ele>
        <time>2013-08-30T06:03:08Z</time>
      </trkpt>
      <trkpt lat="45.08022" lon="6.5098">
        <ele>2178.5</ele>
        <time>2013-08-30T06:03:09Z</time>
      </trkpt>
      <trkpt lat="45.0802" lon="6.5098">
        <ele>2178.5</ele>
        <time>2013-08-30T06:03:10Z</time>
      </trkpt>
      <trkpt lat="45.08019" lon="6.5098">
        <ele>2178.5</ele>
        <time>2013-08-30T06:03:11Z</time>
      </trkpt>
      <trkpt lat="45.08016" lon="6.5098">
        <ele>2178.5</ele>
        <time>2013-08-30T06:03:12Z</time>
      </trkpt>
      <trkpt lat="45.08013" lon="6.50981">
        <ele>2178</ele>
        <time>2013-08-30T06:03:13Z</time>
      </trkpt>
      <trkpt lat="45.0801" lon="6.50981">
        <ele>2177.5</ele>
        <time>2013-08-30T06:03:14Z</time>
      </trkpt>
      <trkpt lat="45.08008" lon="6.50982">
        <ele>2178</ele>
        <time>2013-08-30T06:03:15Z</time>
      </trkpt>
      <trkpt lat="45.08006" lon="6.50981">
        <ele>2178</ele>
        <time>2013-08-30T06:03:16Z</time>
      </trkpt>
      <trkpt lat="45.08003" lon="6.50981">
        <ele>2177.5</ele>
        <time>2013-08-30T06:03:17Z</time>
      </trkpt>
      <trkpt lat="45.07979" lon="6.50986">
        <ele>2177</ele>
        <time>2013-08-30T06:03:23Z</time>
      </trkpt>
      <trkpt lat="45.07975" lon="6.50989">
        <ele>2175.6</ele>
        <time>2013-08-30T06:03:24Z</time>
      </trkpt>
      <trkpt lat="45.07961" lon="6.50997">
        <ele>2173.2</ele>
        <time>2013-08-30T06:03:27Z</time>
      </trkpt>
      <trkpt lat="45.07956" lon="6.51">
        <ele>2173.2</ele>
        <time>2013-08-30T06:03:28Z</time>
      </trkpt>
      <trkpt lat="45.07936" lon="6.51009">
        <ele>2171.8</ele>
        <time>2013-08-30T06:03:32Z</time>
      </trkpt>
      <trkpt lat="45.07925" lon="6.51013">
        <ele>2171.3</ele>
        <time>2013-08-30T06:03:34Z</time>
      </trkpt>
      <trkpt lat="45.07912" lon="6.51016">
        <ele>2170.3</ele>
        <time>2013-08-30T06:03:36Z</time>
      </trkpt>
      <trkpt lat="45.07906" lon="6.51018">
        <ele>2170.3</ele>
        <time>2013-08-30T06:03:37Z</time>
      </trkpt>
      <trkpt lat="45.079" lon="6.51021">
        <ele>2169.4</ele>
        <time>2013-08-30T06:03:38Z</time>
      </trkpt>
      <trkpt lat="45.07894" lon="6.51026">
        <ele>2169.4</ele>
        <time>2013-08-30T06:03:39Z</time>
      </trkpt>
      <trkpt lat="45.07889" lon="6.5103">
        <ele>2168.4</ele>
        <time>2013-08-30T06:03:40Z</time>
      </trkpt>
      <trkpt lat="45.07883" lon="6.51035">
        <ele>2168.4</ele>
        <time>2013-08-30T06:03:41Z</time>
      </trkpt>
      <trkpt lat="45.07865" lon="6.51047">
        <ele>2167.4</ele>
        <time>2013-08-30T06:03:44Z</time>
      </trkpt>
      <trkpt lat="45.07848" lon="6.51056">
        <ele>2166</ele>
        <time>2013-08-30T06:03:47Z</time>
      </trkpt>
      <trkpt lat="45.07845" lon="6.51058">
        <ele>2165.5</ele>
        <time>2013-08-30T06:03:48Z</time>
      </trkpt>
      <trkpt lat="45.07841" lon="6.51061">
        <ele>2165</ele>
        <time>2013-08-30T06:03:49Z</time>
      </trkpt>
      <trkpt lat="45.07839" lon="6.51062">
        <ele>2164.6</ele>
        <time>2013-08-30T06:03:50Z</time>
      </trkpt>
      <trkpt lat="45.07838" lon="6.51064">
        <ele>2163.6</ele>
        <time>2013-08-30T06:04:02Z</time>
      </trkpt>
      <trkpt lat="45.0784" lon="6.5106">
        <ele>2164.6</ele>
        <time>2013-08-30T06:04:22Z</time>
      </trkpt>
      <trkpt lat="45.07839" lon="6.51059">
        <ele>2164.1</ele>
        <time>2013-08-30T06:04:23Z</time>
      </trkpt>
      <trkpt lat="45.07838" lon="6.51059">
        <ele>2164.6</ele>
        <time>2013-08-30T06:04:24Z</time>
      </trkpt>
      <trkpt lat="45.07837" lon="6.5106">
        <ele>2164.6</ele>
        <time>2013-08-30T06:04:25Z</time>
      </trkpt>
      <trkpt lat="45.07832" lon="6.51058">
        <ele>2163.6</ele>
        <time>2013-08-30T06:04:36Z</time>
      </trkpt>
      <trkpt lat="45.07828" lon="6.51055">
        <ele>2162.1</ele>
        <time>2013-08-30T06:04:41Z</time>
      </trkpt>
      <trkpt lat="45.07819" lon="6.51053">
        <ele>2161.2</ele>
        <time>2013-08-30T06:04:53Z</time>
      </trkpt>
      <trkpt lat="45.07818" lon="6.51053">
        <ele>2160.7</ele>
        <time>2013-08-30T06:04:54Z</time>
      </trkpt>
      <trkpt lat="45.07793" lon="6.51045">
        <ele>2159.7</ele>
        <time>2013-08-30T06:05:05Z</time>
      </trkpt>
      <trkpt lat="45.07787" lon="6.51041">
        <ele>2160.2</ele>
        <time>2013-08-30T06:05:14Z</time>
      </trkpt>
      <trkpt lat="45.07775" lon="6.51031">
        <ele>2160.2</ele>
        <time>2013-08-30T06:05:29Z</time>
      </trkpt>
      <trkpt lat="45.07774" lon="6.51032">
        <ele>2159.7</ele>
        <time>2013-08-30T06:05:43Z</time>
      </trkpt>
      <trkpt lat="45.07773" lon="6.51031">
        <ele>2159.7</ele>
        <time>2013-08-30T06:05:48Z</time>
      </trkpt>
      <trkpt lat="45.07772" lon="6.51032">
        <ele>2159.7</ele>
        <time>2013-08-30T06:05:49Z</time>
      </trkpt>
      <trkpt lat="45.0775" lon="6.51036">
        <ele>2159.3</ele>
        <time>2013-08-30T06:05:59Z</time>
      </trkpt>
      <trkpt lat="45.07716" lon="6.51043">
        <ele>2158.3</ele>
        <time>2013-08-30T06:06:11Z</time>
      </trkpt>
      <trkpt lat="45.07672" lon="6.51058">
        <ele>2156.4</ele>
        <time>2013-08-30T06:06:24Z</time>
      </trkpt>
      <trkpt lat="45.07643" lon="6.51074">
        <ele>2155.4</ele>
        <time>2013-08-30T06:06:33Z</time>
      </trkpt>
      <trkpt lat="45.07625" lon="6.51089">
        <ele>2155.9</ele>
        <time>2013-08-30T06:06:39Z</time>
      </trkpt>
      <trkpt lat="45.07621" lon="6.51091">
        <ele>2155.4</ele>
        <time>2013-08-30T06:06:40Z</time>
      </trkpt>
      <trkpt lat="45.07617" lon="6.51094">
        <ele>2155.4</ele>
        <time>2013-08-30T06:06:41Z</time>
      </trkpt>
      <trkpt lat="45.07596" lon="6.51107">
        <ele>2157.3</ele>
        <time>2013-08-30T06:06:51Z</time>
      </trkpt>
      <trkpt lat="45.07571" lon="6.51125">
        <ele>2157.3</ele>
        <time>2013-08-30T06:07:01Z</time>
      </trkpt>
      <trkpt lat="45.07553" lon="6.51147">
        <ele>2157.3</ele>
        <time>2013-08-30T06:07:10Z</time>
      </trkpt>
      <trkpt lat="45.07554" lon="6.51149">
        <ele>2157.3</ele>
        <time>2013-08-30T06:07:36Z</time>
      </trkpt>
      <trkpt lat="45.07551" lon="6.5115">
        <ele>2157.3</ele>
        <time>2013-08-30T06:07:39Z</time>
      </trkpt>
      <trkpt lat="45.07529" lon="6.51178">
        <ele>2157.3</ele>
        <time>2013-08-30T06:07:50Z</time>
      </trkpt>
      <trkpt lat="45.0751" lon="6.51195">
        <ele>2157.3</ele>
        <time>2013-08-30T06:07:59Z</time>
      </trkpt>
      <trkpt lat="45.07507" lon="6.51196">
        <ele>2157.3</ele>
        <time>2013-08-30T06:08:00Z</time>
      </trkpt>
      <trkpt lat="45.07488" lon="6.512">
        <ele>2155.4</ele>
        <time>2013-08-30T06:08:05Z</time>
      </trkpt>
      <trkpt lat="45.07474" lon="6.51204">
        <ele>2153.5</ele>
        <time>2013-08-30T06:08:08Z</time>
      </trkpt>
      <trkpt lat="45.0747" lon="6.51204">
        <ele>2152.5</ele>
        <time>2013-08-30T06:08:09Z</time>
      </trkpt>
      <trkpt lat="45.07446" lon="6.51203">
        <ele>2150.1</ele>
        <time>2013-08-30T06:08:18Z</time>
      </trkpt>
      <trkpt lat="45.07443" lon="6.51205">
        <ele>2149.2</ele>
        <time>2013-08-30T06:08:19Z</time>
      </trkpt>
      <trkpt lat="45.07439" lon="6.51207">
        <ele>2148.2</ele>
        <time>2013-08-30T06:08:20Z</time>
      </trkpt>
      <trkpt lat="45.07436" lon="6.51207">
        <ele>2148.2</ele>
        <time>2013-08-30T06:08:21Z</time>
      </trkpt>
      <trkpt lat="45.07423" lon="6.51211">
        <ele>2147.7</ele>
        <time>2013-08-30T06:08:25Z</time>
      </trkpt>
      <trkpt lat="45.07421" lon="6.51213">
        <ele>2147.7</ele>
        <time>2013-08-30T06:08:26Z</time>
      </trkpt>
      <trkpt lat="45.07419" lon="6.51216">
        <ele>2146.8</ele>
        <time>2013-08-30T06:08:27Z</time>
      </trkpt>
      <trkpt lat="45.07416" lon="6.51216">
        <ele>2146.8</ele>
        <time>2013-08-30T06:08:28Z</time>
      </trkpt>
      <trkpt lat="45.07412" lon="6.51216">
        <ele>2146.3</ele>
        <time>2013-08-30T06:08:29Z</time>
      </trkpt>
      <trkpt lat="45.07392" lon="6.51222">
        <ele>2148.7</ele>
        <time>2013-08-30T06:08:39Z</time>
      </trkpt>
      <trkpt lat="45.0739" lon="6.51225">
        <ele>2149.2</ele>
        <time>2013-08-30T06:08:53Z</time>
      </trkpt>
      <trkpt lat="45.07379" lon="6.51228">
        <ele>2150.1</ele>
        <time>2013-08-30T06:09:09Z</time>
      </trkpt>
      <trkpt lat="45.07375" lon="6.51229">
        <ele>2152.1</ele>
        <time>2013-08-30T06:09:24Z</time>
      </trkpt>
      <trkpt lat="45.07373" lon="6.51232">
        <ele>2152.5</ele>
        <time>2013-08-30T06:09:40Z</time>
      </trkpt>
      <trkpt lat="45.07367" lon="6.51234">
        <ele>2152.5</ele>
        <time>2013-08-30T06:09:52Z</time>
      </trkpt>
      <trkpt lat="45.07357" lon="6.51238">
        <ele>2153</ele>
        <time>2013-08-30T06:10:06Z</time>
      </trkpt>
      <trkpt lat="45.07352" lon="6.51237">
        <ele>2154.5</ele>
        <time>2013-08-30T06:10:19Z</time>
      </trkpt>
      <trkpt lat="45.07349" lon="6.51238">
        <ele>2155.4</ele>
        <time>2013-08-30T06:10:32Z</time>
      </trkpt>
      <trkpt lat="45.0734" lon="6.51243">
        <ele>2156.4</ele>
        <time>2013-08-30T06:10:47Z</time>
      </trkpt>
      <trkpt lat="45.07328" lon="6.51241">
        <ele>2157.8</ele>
        <time>2013-08-30T06:11:01Z</time>
      </trkpt>
      <trkpt lat="45.0732" lon="6.51242">
        <ele>2158.3</ele>
        <time>2013-08-30T06:11:10Z</time>
      </trkpt>
      <trkpt lat="45.07319" lon="6.51243">
        <ele>2157.8</ele>
        <time>2013-08-30T06:11:11Z</time>
      </trkpt>
      <trkpt lat="45.07315" lon="6.51244">
        <ele>2157.3</ele>
        <time>2013-08-30T06:11:14Z</time>
      </trkpt>
      <trkpt lat="45.0731" lon="6.51241">
        <ele>2156.4</ele>
        <time>2013-08-30T06:11:20Z</time>
      </trkpt>
      <trkpt lat="45.07307" lon="6.51247">
        <ele>2154.5</ele>
        <time>2013-08-30T06:11:34Z</time>
      </trkpt>
      <trkpt lat="45.07306" lon="6.51247">
        <ele>2154.5</ele>
        <time>2013-08-30T06:11:40Z</time>
      </trkpt>
      <trkpt lat="45.07305" lon="6.51247">
        <ele>2154.5</ele>
        <time>2013-08-30T06:11:41Z</time>
      </trkpt>
      <trkpt lat="45.07304" lon="6.51247">
        <ele>2154</ele>
        <time>2013-08-30T06:11:42Z</time>
      </trkpt>
      <trkpt lat="45.07302" lon="6.51248">
        <ele>2153.5</ele>
        <time>2013-08-30T06:11:43Z</time>
      </trkpt>
      <trkpt lat="45.07301" lon="6.51248">
        <ele>2153</ele>
        <time>2013-08-30T06:11:54Z</time>
      </trkpt>
      <trkpt lat="45.073" lon="6.5125">
        <ele>2152.5</ele>
        <time>2013-08-30T06:12:03Z</time>
      </trkpt>
      <trkpt lat="45.07299" lon="6.51252">
        <ele>2152.1</ele>
        <time>2013-08-30T06:12:04Z</time>
      </trkpt>
      <trkpt lat="45.07297" lon="6.51255">
        <ele>2152.1</ele>
        <time>2013-08-30T06:12:05Z</time>
      </trkpt>
      <trkpt lat="45.07295" lon="6.51256">
        <ele>2151.6</ele>
        <time>2013-08-30T06:12:06Z</time>
      </trkpt>
      <trkpt lat="45.07293" lon="6.51257">
        <ele>2151.1</ele>
        <time>2013-08-30T06:12:07Z</time>
      </trkpt>
      <trkpt lat="45.0729" lon="6.51257">
        <ele>2150.6</ele>
        <time>2013-08-30T06:12:08Z</time>
      </trkpt>
      <trkpt lat="45.07288" lon="6.51259">
        <ele>2149.7</ele>
        <time>2013-08-30T06:12:09Z</time>
      </trkpt>
      <trkpt lat="45.07286" lon="6.5126">
        <ele>2149.2</ele>
        <time>2013-08-30T06:12:10Z</time>
      </trkpt>
      <trkpt lat="45.07284" lon="6.51263">
        <ele>2148.2</ele>
        <time>2013-08-30T06:12:11Z</time>
      </trkpt>
      <trkpt lat="45.07283" lon="6.51265">
        <ele>2147.7</ele>
        <time>2013-08-30T06:12:12Z</time>
      </trkpt>
      <trkpt lat="45.07281" lon="6.51266">
        <ele>2147.7</ele>
        <time>2013-08-30T06:12:13Z</time>
      </trkpt>
      <trkpt lat="45.07279" lon="6.51265">
        <ele>2147.2</ele>
        <time>2013-08-30T06:12:14Z</time>
      </trkpt>
      <trkpt lat="45.07278" lon="6.51262">
        <ele>2146.3</ele>
        <time>2013-08-30T06:12:22Z</time>
      </trkpt>
      <trkpt lat="45.07271" lon="6.5126">
        <ele>2144.8</ele>
        <time>2013-08-30T06:12:34Z</time>
      </trkpt>
      <trkpt lat="45.0727" lon="6.51266">
        <ele>2143.9</ele>
        <time>2013-08-30T06:12:48Z</time>
      </trkpt>
      <trkpt lat="45.07271" lon="6.51272">
        <ele>2143.4</ele>
        <time>2013-08-30T06:12:54Z</time>
      </trkpt>
      <trkpt lat="45.07269" lon="6.51283">
        <ele>2141</ele>
        <time>2013-08-30T06:13:05Z</time>
      </trkpt>
      <trkpt lat="45.07271" lon="6.51284">
        <ele>2140.5</ele>
        <time>2013-08-30T06:13:08Z</time>
      </trkpt>
      <trkpt lat="45.07268" lon="6.51291">
        <ele>2137.6</ele>
        <time>2013-08-30T06:13:20Z</time>
      </trkpt>
      <trkpt lat="45.0726" lon="6.51296">
        <ele>2134.3</ele>
        <time>2013-08-30T06:13:34Z</time>
      </trkpt>
      <trkpt lat="45.07252" lon="6.51294">
        <ele>2131.4</ele>
        <time>2013-08-30T06:13:46Z</time>
      </trkpt>
      <trkpt lat="45.07249" lon="6.51293">
        <ele>2130.4</ele>
        <time>2013-08-30T06:13:50Z</time>
      </trkpt>
      <trkpt lat="45.07248" lon="6.51293">
        <ele>2129.9</ele>
        <time>2013-08-30T06:13:51Z</time>
      </trkpt>
      <trkpt lat="45.07244" lon="6.51293">
        <ele>2128.5</ele>
        <time>2013-08-30T06:13:58Z</time>
      </trkpt>
      <trkpt lat="45.07242" lon="6.51294">
        <ele>2128.5</ele>
        <time>2013-08-30T06:13:59Z</time>
      </trkpt>
      <trkpt lat="45.07241" lon="6.51296">
        <ele>2128</ele>
        <time>2013-08-30T06:14:00Z</time>
      </trkpt>
      <trkpt lat="45.07239" lon="6.51299">
        <ele>2127.5</ele>
        <time>2013-08-30T06:14:01Z</time>
      </trkpt>
      <trkpt lat="45.07237" lon="6.51303">
        <ele>2127.1</ele>
        <time>2013-08-30T06:14:02Z</time>
      </trkpt>
      <trkpt lat="45.07234" lon="6.51308">
        <ele>2125.6</ele>
        <time>2013-08-30T06:14:03Z</time>
      </trkpt>
      <trkpt lat="45.07231" lon="6.51312">
        <ele>2124.7</ele>
        <time>2013-08-30T06:14:04Z</time>
      </trkpt>
      <trkpt lat="45.07228" lon="6.51315">
        <ele>2124.2</ele>
        <time>2013-08-30T06:14:05Z</time>
      </trkpt>
      <trkpt lat="45.07224" lon="6.51317">
        <ele>2124.2</ele>
        <time>2013-08-30T06:14:06Z</time>
      </trkpt>
      <trkpt lat="45.0719" lon="6.51342">
        <ele>2122.3</ele>
        <time>2013-08-30T06:14:17Z</time>
      </trkpt>
      <trkpt lat="45.07183" lon="6.51344">
        <ele>2122.7</ele>
        <time>2013-08-30T06:14:25Z</time>
      </trkpt>
      <trkpt lat="45.0717" lon="6.51356">
        <ele>2122.3</ele>
        <time>2013-08-30T06:14:35Z</time>
      </trkpt>
      <trkpt lat="45.07163" lon="6.51362">
        <ele>2121.8</ele>
        <time>2013-08-30T06:14:38Z</time>
      </trkpt>
      <trkpt lat="45.07144" lon="6.51367">
        <ele>2120.3</ele>
        <time>2013-08-30T06:14:43Z</time>
      </trkpt>
      <trkpt lat="45.0714" lon="6.51367">
        <ele>2119.8</ele>
        <time>2013-08-30T06:14:44Z</time>
      </trkpt>
      <trkpt lat="45.07137" lon="6.51368">
        <ele>2120.3</ele>
        <time>2013-08-30T06:14:45Z</time>
      </trkpt>
      <trkpt lat="45.07134" lon="6.51369">
        <ele>2120.3</ele>
        <time>2013-08-30T06:14:46Z</time>
      </trkpt>
      <trkpt lat="45.07132" lon="6.51369">
        <ele>2120.8</ele>
        <time>2013-08-30T06:14:47Z</time>
      </trkpt>
      <trkpt lat="45.07122" lon="6.51369">
        <ele>2118.9</ele>
        <time>2013-08-30T06:14:51Z</time>
      </trkpt>
      <trkpt lat="45.0712" lon="6.51369">
        <ele>2119.4</ele>
        <time>2013-08-30T06:14:52Z</time>
      </trkpt>
      <trkpt lat="45.07115" lon="6.51369">
        <ele>2118.9</ele>
        <time>2013-08-30T06:15:03Z</time>
      </trkpt>
      <trkpt lat="45.0711" lon="6.5137">
        <ele>2120.8</ele>
        <time>2013-08-30T06:15:17Z</time>
      </trkpt>
      <trkpt lat="45.07102" lon="6.51375">
        <ele>2123.2</ele>
        <time>2013-08-30T06:15:33Z</time>
      </trkpt>
      <trkpt lat="45.07097" lon="6.51377">
        <ele>2125.6</ele>
        <time>2013-08-30T06:15:52Z</time>
      </trkpt>
      <trkpt lat="45.07086" lon="6.51379">
        <ele>2128.5</ele>
        <time>2013-08-30T06:16:11Z</time>
      </trkpt>
      <trkpt lat="45.0708" lon="6.51378">
        <ele>2128</ele>
        <time>2013-08-30T06:16:22Z</time>
      </trkpt>
      <trkpt lat="45.07078" lon="6.51378">
        <ele>2128.5</ele>
        <time>2013-08-30T06:16:23Z</time>
      </trkpt>
      <trkpt lat="45.07077" lon="6.51378">
        <ele>2128.5</ele>
        <time>2013-08-30T06:16:24Z</time>
      </trkpt>
      <trkpt lat="45.07075" lon="6.51378">
        <ele>2128</ele>
        <time>2013-08-30T06:16:25Z</time>
      </trkpt>
      <trkpt lat="45.07072" lon="6.51379">
        <ele>2128</ele>
        <time>2013-08-30T06:16:26Z</time>
      </trkpt>
      <trkpt lat="45.07059" lon="6.5138">
        <ele>2125.6</ele>
        <time>2013-08-30T06:16:30Z</time>
      </trkpt>
      <trkpt lat="45.07045" lon="6.51382">
        <ele>2125.1</ele>
        <time>2013-08-30T06:16:36Z</time>
      </trkpt>
      <trkpt lat="45.07043" lon="6.51383">
        <ele>2125.1</ele>
        <time>2013-08-30T06:16:37Z</time>
      </trkpt>
      <trkpt lat="45.07037" lon="6.51385">
        <ele>2124.7</ele>
        <time>2013-08-30T06:16:40Z</time>
      </trkpt>
      <trkpt lat="45.07013" lon="6.51386">
        <ele>2120.8</ele>
        <time>2013-08-30T06:16:48Z</time>
      </trkpt>
      <trkpt lat="45.0701" lon="6.51387">
        <ele>2120.8</ele>
        <time>2013-08-30T06:16:49Z</time>
      </trkpt>
      <trkpt lat="45.07006" lon="6.51389">
        <ele>2119.4</ele>
        <time>2013-08-30T06:16:50Z</time>
      </trkpt>
      <trkpt lat="45.07002" lon="6.51389">
        <ele>2118.4</ele>
        <time>2013-08-30T06:16:51Z</time>
      </trkpt>
      <trkpt lat="45.06997" lon="6.51391">
        <ele>2117.4</ele>
        <time>2013-08-30T06:16:52Z</time>
      </trkpt>
      <trkpt lat="45.06984" lon="6.51394">
        <ele>2113.6</ele>
        <time>2013-08-30T06:16:55Z</time>
      </trkpt>
      <trkpt lat="45.06979" lon="6.51395">
        <ele>2112.6</ele>
        <time>2013-08-30T06:16:56Z</time>
      </trkpt>
      <trkpt lat="45.06975" lon="6.51394">
        <ele>2111.2</ele>
        <time>2013-08-30T06:16:57Z</time>
      </trkpt>
      <trkpt lat="45.0697" lon="6.51395">
        <ele>2110.7</ele>
        <time>2013-08-30T06:16:58Z</time>
      </trkpt>
      <trkpt lat="45.06966" lon="6.51397">
        <ele>2109.8</ele>
        <time>2013-08-30T06:16:59Z</time>
      </trkpt>
      <trkpt lat="45.06961" lon="6.51399">
        <ele>2109.3</ele>
        <time>2013-08-30T06:17:00Z</time>
      </trkpt>
      <trkpt lat="45.06956" lon="6.51401">
        <ele>2107.8</ele>
        <time>2013-08-30T06:17:01Z</time>
      </trkpt>
      <trkpt lat="45.06952" lon="6.51402">
        <ele>2107.4</ele>
        <time>2013-08-30T06:17:02Z</time>
      </trkpt>
      <trkpt lat="45.06949" lon="6.51403">
        <ele>2106.9</ele>
        <time>2013-08-30T06:17:03Z</time>
      </trkpt>
      <trkpt lat="45.06942" lon="6.51402">
        <ele>2105.9</ele>
        <time>2013-08-30T06:17:10Z</time>
      </trkpt>
      <trkpt lat="45.0694" lon="6.514">
        <ele>2104.9</ele>
        <time>2013-08-30T06:17:13Z</time>
      </trkpt>
      <trkpt lat="45.06937" lon="6.51399">
        <ele>2104.5</ele>
        <time>2013-08-30T06:17:16Z</time>
      </trkpt>
      <trkpt lat="45.06936" lon="6.51399">
        <ele>2104.9</ele>
        <time>2013-08-30T06:17:17Z</time>
      </trkpt>
      <trkpt lat="45.06934" lon="6.514">
        <ele>2104.9</ele>
        <time>2013-08-30T06:17:20Z</time>
      </trkpt>
      <trkpt lat="45.06926" lon="6.51395">
        <ele>2104.5</ele>
        <time>2013-08-30T06:17:30Z</time>
      </trkpt>
      <trkpt lat="45.06922" lon="6.51391">
        <ele>2104.9</ele>
        <time>2013-08-30T06:17:37Z</time>
      </trkpt>
      <trkpt lat="45.06914" lon="6.51392">
        <ele>2105.4</ele>
        <time>2013-08-30T06:17:48Z</time>
      </trkpt>
      <trkpt lat="45.06905" lon="6.51402">
        <ele>2104.5</ele>
        <time>2013-08-30T06:17:52Z</time>
      </trkpt>
      <trkpt lat="45.06901" lon="6.51404">
        <ele>2104</ele>
        <time>2013-08-30T06:17:53Z</time>
      </trkpt>
      <trkpt lat="45.06896" lon="6.51406">
        <ele>2103.5</ele>
        <time>2013-08-30T06:17:54Z</time>
      </trkpt>
      <trkpt lat="45.06886" lon="6.51408">
        <ele>2102.5</ele>
        <time>2013-08-30T06:17:56Z</time>
      </trkpt>
      <trkpt lat="45.06882" lon="6.5141">
        <ele>2103</ele>
        <time>2013-08-30T06:17:57Z</time>
      </trkpt>
      <trkpt lat="45.06879" lon="6.51412">
        <ele>2102.5</ele>
        <time>2013-08-30T06:17:58Z</time>
      </trkpt>
      <trkpt lat="45.06868" lon="6.51432">
        <ele>2105.4</ele>
        <time>2013-08-30T06:18:08Z</time>
      </trkpt>
      <trkpt lat="45.06868" lon="6.51434">
        <ele>2104.9</ele>
        <time>2013-08-30T06:18:09Z</time>
      </trkpt>
      <trkpt lat="45.06866" lon="6.51437">
        <ele>2105.4</ele>
        <time>2013-08-30T06:18:10Z</time>
      </trkpt>
      <trkpt lat="45.06864" lon="6.5144">
        <ele>2104.9</ele>
        <time>2013-08-30T06:18:11Z</time>
      </trkpt>
      <trkpt lat="45.06862" lon="6.51442">
        <ele>2104.9</ele>
        <time>2013-08-30T06:18:12Z</time>
      </trkpt>
      <trkpt lat="45.06861" lon="6.51444">
        <ele>2105.4</ele>
        <time>2013-08-30T06:18:13Z</time>
      </trkpt>
      <trkpt lat="45.0686" lon="6.51446">
        <ele>2105.9</ele>
        <time>2013-08-30T06:18:14Z</time>
      </trkpt>
      <trkpt lat="45.0685" lon="6.51467">
        <ele>2106.9</ele>
        <time>2013-08-30T06:18:25Z</time>
      </trkpt>
      <trkpt lat="45.06832" lon="6.515">
        <ele>2105.9</ele>
        <time>2013-08-30T06:18:37Z</time>
      </trkpt>
      <trkpt lat="45.06822" lon="6.51529">
        <ele>2104.5</ele>
        <time>2013-08-30T06:18:44Z</time>
      </trkpt>
      <trkpt lat="45.0682" lon="6.51543">
        <ele>2104.9</ele>
        <time>2013-08-30T06:18:52Z</time>
      </trkpt>
      <trkpt lat="45.0681" lon="6.51552">
        <ele>2105.4</ele>
        <time>2013-08-30T06:19:07Z</time>
      </trkpt>
      <trkpt lat="45.06808" lon="6.51556">
        <ele>2104.5</ele>
        <time>2013-08-30T06:19:23Z</time>
      </trkpt>
      <trkpt lat="45.06792" lon="6.51561">
        <ele>2102.5</ele>
        <time>2013-08-30T06:19:39Z</time>
      </trkpt>
      <trkpt lat="45.06775" lon="6.51564">
        <ele>2100.1</ele>
        <time>2013-08-30T06:19:45Z</time>
      </trkpt>
      <trkpt lat="45.06767" lon="6.5157">
        <ele>2098.7</ele>
        <time>2013-08-30T06:19:48Z</time>
      </trkpt>
      <trkpt lat="45.06756" lon="6.51578">
        <ele>2095.3</ele>
        <time>2013-08-30T06:19:53Z</time>
      </trkpt>
      <trkpt lat="45.06756" lon="6.51574">
        <ele>2095.8</ele>
        <time>2013-08-30T06:20:20Z</time>
      </trkpt>
      <trkpt lat="45.06747" lon="6.51585">
        <ele>2094.4</ele>
        <time>2013-08-30T06:20:39Z</time>
      </trkpt>
      <trkpt lat="45.06745" lon="6.5159">
        <ele>2094.4</ele>
        <time>2013-08-30T06:20:40Z</time>
      </trkpt>
      <trkpt lat="45.06742" lon="6.51595">
        <ele>2094.4</ele>
        <time>2013-08-30T06:20:41Z</time>
      </trkpt>
      <trkpt lat="45.06739" lon="6.516">
        <ele>2094.4</ele>
        <time>2013-08-30T06:20:42Z</time>
      </trkpt>
      <trkpt lat="45.06736" lon="6.51603">
        <ele>2094.4</ele>
        <time>2013-08-30T06:20:43Z</time>
      </trkpt>
      <trkpt lat="45.06733" lon="6.51604">
        <ele>2092.9</ele>
        <time>2013-08-30T06:20:44Z</time>
      </trkpt>
      <trkpt lat="45.06721" lon="6.5162">
        <ele>2089.6</ele>
        <time>2013-08-30T06:20:51Z</time>
      </trkpt>
      <trkpt lat="45.06716" lon="6.51623">
        <ele>2088.1</ele>
        <time>2013-08-30T06:20:53Z</time>
      </trkpt>
      <trkpt lat="45.06714" lon="6.51624">
        <ele>2087.2</ele>
        <time>2013-08-30T06:20:54Z</time>
      </trkpt>
      <trkpt lat="45.0671" lon="6.51625">
        <ele>2086.7</ele>
        <time>2013-08-30T06:20:55Z</time>
      </trkpt>
      <trkpt lat="45.06703" lon="6.51626">
        <ele>2084.8</ele>
        <time>2013-08-30T06:20:58Z</time>
      </trkpt>
      <trkpt lat="45.06696" lon="6.51622">
        <ele>2082.8</ele>
        <time>2013-08-30T06:21:01Z</time>
      </trkpt>
      <trkpt lat="45.06693" lon="6.51622">
        <ele>2082.4</ele>
        <time>2013-08-30T06:21:02Z</time>
      </trkpt>
      <trkpt lat="45.0669" lon="6.51624">
        <ele>2081.4</ele>
        <time>2013-08-30T06:21:03Z</time>
      </trkpt>
      <trkpt lat="45.06686" lon="6.51627">
        <ele>2080.4</ele>
        <time>2013-08-30T06:21:04Z</time>
      </trkpt>
      <trkpt lat="45.06682" lon="6.51629">
        <ele>2079.5</ele>
        <time>2013-08-30T06:21:05Z</time>
      </trkpt>
      <trkpt lat="45.06669" lon="6.51638">
        <ele>2076.6</ele>
        <time>2013-08-30T06:21:08Z</time>
      </trkpt>
      <trkpt lat="45.06665" lon="6.5164">
        <ele>2075.6</ele>
        <time>2013-08-30T06:21:09Z</time>
      </trkpt>
      <trkpt lat="45.06661" lon="6.51642">
        <ele>2075.6</ele>
        <time>2013-08-30T06:21:10Z</time>
      </trkpt>
      <trkpt lat="45.06647" lon="6.51649">
        <ele>2073.7</ele>
        <time>2013-08-30T06:21:15Z</time>
      </trkpt>
      <trkpt lat="45.06645" lon="6.51651">
        <ele>2073.7</ele>
        <time>2013-08-30T06:21:16Z</time>
      </trkpt>
      <trkpt lat="45.06644" lon="6.51653">
        <ele>2073.2</ele>
        <time>2013-08-30T06:21:17Z</time>
      </trkpt>
      <trkpt lat="45.06642" lon="6.51654">
        <ele>2072.3</ele>
        <time>2013-08-30T06:21:20Z</time>
      </trkpt>
      <trkpt lat="45.06641" lon="6.51654">
        <ele>2071.8</ele>
        <time>2013-08-30T06:21:21Z</time>
      </trkpt>
      <trkpt lat="45.06638" lon="6.5165">
        <ele>2072.3</ele>
        <time>2013-08-30T06:21:30Z</time>
      </trkpt>
      <trkpt lat="45.06635" lon="6.51649">
        <ele>2071.8</ele>
        <time>2013-08-30T06:21:41Z</time>
      </trkpt>
      <trkpt lat="45.06629" lon="6.51654">
        <ele>2071.3</ele>
        <time>2013-08-30T06:21:53Z</time>
      </trkpt>
      <trkpt lat="45.06603" lon="6.51667">
        <ele>2069.9</ele>
        <time>2013-08-30T06:22:03Z</time>
      </trkpt>
      <trkpt lat="45.06605" lon="6.51669">
        <ele>2069.4</ele>
        <time>2013-08-30T06:22:19Z</time>
      </trkpt>
      <trkpt lat="45.06598" lon="6.51667">
        <ele>2069.4</ele>
        <time>2013-08-30T06:22:48Z</time>
      </trkpt>
      <trkpt lat="45.06596" lon="6.51668">
        <ele>2069.4</ele>
        <time>2013-08-30T06:22:49Z</time>
      </trkpt>
      <trkpt lat="45.06594" lon="6.51668">
        <ele>2069.4</ele>
        <time>2013-08-30T06:22:50Z</time>
      </trkpt>
      <trkpt lat="45.06592" lon="6.51668">
        <ele>2068.9</ele>
        <time>2013-08-30T06:22:51Z</time>
      </trkpt>
      <trkpt lat="45.0659" lon="6.51667">
        <ele>2069.4</ele>
        <time>2013-08-30T06:22:52Z</time>
      </trkpt>
      <trkpt lat="45.06588" lon="6.51666">
        <ele>2068.9</ele>
        <time>2013-08-30T06:22:53Z</time>
      </trkpt>
      <trkpt lat="45.06586" lon="6.51666">
        <ele>2069.4</ele>
        <time>2013-08-30T06:22:54Z</time>
      </trkpt>
      <trkpt lat="45.06585" lon="6.51667">
        <ele>2069.9</ele>
        <time>2013-08-30T06:22:55Z</time>
      </trkpt>
      <trkpt lat="45.06583" lon="6.51667">
        <ele>2069.4</ele>
        <time>2013-08-30T06:22:56Z</time>
      </trkpt>
      <trkpt lat="45.06582" lon="6.51666">
        <ele>2069.4</ele>
        <time>2013-08-30T06:22:57Z</time>
      </trkpt>
      <trkpt lat="45.0658" lon="6.51664">
        <ele>2069.4</ele>
        <time>2013-08-30T06:22:58Z</time>
      </trkpt>
      <trkpt lat="45.06579" lon="6.51663">
        <ele>2069.4</ele>
        <time>2013-08-30T06:22:59Z</time>
      </trkpt>
      <trkpt lat="45.06574" lon="6.51663">
        <ele>2069.4</ele>
        <time>2013-08-30T06:23:09Z</time>
      </trkpt>
      <trkpt lat="45.06565" lon="6.51658">
        <ele>2070.3</ele>
        <time>2013-08-30T06:23:22Z</time>
      </trkpt>
      <trkpt lat="45.06552" lon="6.5166">
        <ele>2071.3</ele>
        <time>2013-08-30T06:23:37Z</time>
      </trkpt>
      <trkpt lat="45.06548" lon="6.51667">
        <ele>2070.8</ele>
        <time>2013-08-30T06:23:46Z</time>
      </trkpt>
      <trkpt lat="45.06547" lon="6.51669">
        <ele>2070.3</ele>
        <time>2013-08-30T06:23:47Z</time>
      </trkpt>
      <trkpt lat="45.06545" lon="6.51682">
        <ele>2069.4</ele>
        <time>2013-08-30T06:23:51Z</time>
      </trkpt>
      <trkpt lat="45.06542" lon="6.51687">
        <ele>2068.4</ele>
        <time>2013-08-30T06:23:53Z</time>
      </trkpt>
      <trkpt lat="45.06542" lon="6.5169">
        <ele>2068.9</ele>
        <time>2013-08-30T06:23:54Z</time>
      </trkpt>
      <trkpt lat="45.06541" lon="6.51692">
        <ele>2067.9</ele>
        <time>2013-08-30T06:23:55Z</time>
      </trkpt>
      <trkpt lat="45.0654" lon="6.51695">
        <ele>2067.9</ele>
        <time>2013-08-30T06:23:56Z</time>
      </trkpt>
      <trkpt lat="45.06538" lon="6.51697">
        <ele>2067.5</ele>
        <time>2013-08-30T06:23:57Z</time>
      </trkpt>
      <trkpt lat="45.06537" lon="6.517">
        <ele>2066.5</ele>
        <time>2013-08-30T06:23:58Z</time>
      </trkpt>
      <trkpt lat="45.06536" lon="6.51703">
        <ele>2066.5</ele>
        <time>2013-08-30T06:23:59Z</time>
      </trkpt>
      <trkpt lat="45.06535" lon="6.51705">
        <ele>2066</ele>
        <time>2013-08-30T06:24:00Z</time>
      </trkpt>
      <trkpt lat="45.06534" lon="6.51707">
        <ele>2066</ele>
        <time>2013-08-30T06:24:01Z</time>
      </trkpt>
      <trkpt lat="45.06533" lon="6.51709">
        <ele>2065.5</ele>
        <time>2013-08-30T06:24:02Z</time>
      </trkpt>
      <trkpt lat="45.06532" lon="6.51708">
        <ele>2065.5</ele>
        <time>2013-08-30T06:24:11Z</time>
      </trkpt>
      <trkpt lat="45.06528" lon="6.51712">
        <ele>2064.6</ele>
        <time>2013-08-30T06:24:16Z</time>
      </trkpt>
      <trkpt lat="45.06521" lon="6.5172">
        <ele>2063.1</ele>
        <time>2013-08-30T06:24:29Z</time>
      </trkpt>
      <trkpt lat="45.06518" lon="6.51719">
        <ele>2062.7</ele>
        <time>2013-08-30T06:24:42Z</time>
      </trkpt>
      <trkpt lat="45.06516" lon="6.51719">
        <ele>2063.1</ele>
        <time>2013-08-30T06:24:55Z</time>
      </trkpt>
      <trkpt lat="45.06512" lon="6.51725">
        <ele>2062.2</ele>
        <time>2013-08-30T06:25:08Z</time>
      </trkpt>
      <trkpt lat="45.0651" lon="6.51725">
        <ele>2062.7</ele>
        <time>2013-08-30T06:25:21Z</time>
      </trkpt>
      <trkpt lat="45.06509" lon="6.51724">
        <ele>2062.7</ele>
        <time>2013-08-30T06:25:33Z</time>
      </trkpt>
      <trkpt lat="45.0651" lon="6.51728">
        <ele>2062.7</ele>
        <time>2013-08-30T06:25:49Z</time>
      </trkpt>
      <trkpt lat="45.06508" lon="6.51734">
        <ele>2060.7</ele>
        <time>2013-08-30T06:26:00Z</time>
      </trkpt>
      <trkpt lat="45.06507" lon="6.51732">
        <ele>2060.7</ele>
        <time>2013-08-30T06:26:02Z</time>
      </trkpt>
      <trkpt lat="45.06506" lon="6.51733">
        <ele>2061.2</ele>
        <time>2013-08-30T06:26:03Z</time>
      </trkpt>
      <trkpt lat="45.065" lon="6.51737">
        <ele>2060.7</ele>
        <time>2013-08-30T06:26:10Z</time>
      </trkpt>
      <trkpt lat="45.06498" lon="6.51737">
        <ele>2060.2</ele>
        <time>2013-08-30T06:26:11Z</time>
      </trkpt>
      <trkpt lat="45.06496" lon="6.51737">
        <ele>2059.3</ele>
        <time>2013-08-30T06:26:20Z</time>
      </trkpt>
      <trkpt lat="45.06496" lon="6.51737">
        <ele>2059.8</ele>
        <time>2013-08-30T06:26:47Z</time>
      </trkpt>
      <trkpt lat="45.06495" lon="6.51742">
        <ele>2059.8</ele>
        <time>2013-08-30T06:27:01Z</time>
      </trkpt>
      <trkpt lat="45.06494" lon="6.51746">
        <ele>2059.8</ele>
        <time>2013-08-30T06:27:31Z</time>
      </trkpt>
      <trkpt lat="45.06494" lon="6.51746">
        <ele>2059.8</ele>
        <time>2013-08-30T06:27:58Z</time>
      </trkpt>
      <trkpt lat="45.06493" lon="6.51746">
        <ele>2059.8</ele>
        <time>2013-08-30T06:28:21Z</time>
      </trkpt>
      <trkpt lat="45.06492" lon="6.51747">
        <ele>2059.3</ele>
        <time>2013-08-30T06:28:36Z</time>
      </trkpt>
      <trkpt lat="45.06479" lon="6.51762">
        <ele>2058.8</ele>
        <time>2013-08-30T06:28:47Z</time>
      </trkpt>
      <trkpt lat="45.06478" lon="6.51764">
        <ele>2058.8</ele>
        <time>2013-08-30T06:28:48Z</time>
      </trkpt>
      <trkpt lat="45.06477" lon="6.51766">
        <ele>2058.8</ele>
        <time>2013-08-30T06:28:49Z</time>
      </trkpt>
      <trkpt lat="45.06476" lon="6.51769">
        <ele>2058.8</ele>
        <time>2013-08-30T06:28:50Z</time>
      </trkpt>
      <trkpt lat="45.06475" lon="6.5177">
        <ele>2058.3</ele>
        <time>2013-08-30T06:28:51Z</time>
      </trkpt>
      <trkpt lat="45.06473" lon="6.51772">
        <ele>2058.3</ele>
        <time>2013-08-30T06:28:52Z</time>
      </trkpt>
      <trkpt lat="45.06453" lon="6.51789">
        <ele>2056.9</ele>
        <time>2013-08-30T06:29:02Z</time>
      </trkpt>
      <trkpt lat="45.06449" lon="6.51791">
        <ele>2056.4</ele>
        <time>2013-08-30T06:29:03Z</time>
      </trkpt>
      <trkpt lat="45.06445" lon="6.51793">
        <ele>2056.9</ele>
        <time>2013-08-30T06:29:04Z</time>
      </trkpt>
      <trkpt lat="45.06428" lon="6.51803">
        <ele>2055.9</ele>
        <time>2013-08-30T06:29:14Z</time>
      </trkpt>
      <trkpt lat="45.06427" lon="6.51805">
        <ele>2055.4</ele>
        <time>2013-08-30T06:29:27Z</time>
      </trkpt>
      <trkpt lat="45.06424" lon="6.5181">
        <ele>2055.4</ele>
        <time>2013-08-30T06:29:37Z</time>
      </trkpt>
      <trkpt lat="45.06422" lon="6.5181">
        <ele>2055</ele>
        <time>2013-08-30T06:29:40Z</time>
      </trkpt>
      <trkpt lat="45.06418" lon="6.51813">
        <ele>2055.9</ele>
        <time>2013-08-30T06:29:46Z</time>
      </trkpt>
      <trkpt lat="45.06414" lon="6.51812">
        <ele>2055</ele>
        <time>2013-08-30T06:29:59Z</time>
      </trkpt>
      <trkpt lat="45.06406" lon="6.51823">
        <ele>2055.4</ele>
        <time>2013-08-30T06:30:12Z</time>
      </trkpt>
      <trkpt lat="45.06396" lon="6.51837">
        <ele>2055.4</ele>
        <time>2013-08-30T06:30:29Z</time>
      </trkpt>
      <trkpt lat="45.06384" lon="6.51849">
        <ele>2055.4</ele>
        <time>2013-08-30T06:30:37Z</time>
      </trkpt>
      <trkpt lat="45.06382" lon="6.5185">
        <ele>2055.4</ele>
        <time>2013-08-30T06:30:38Z</time>
      </trkpt>
      <trkpt lat="45.0638" lon="6.5185">
        <ele>2055.4</ele>
        <time>2013-08-30T06:30:39Z</time>
      </trkpt>
      <trkpt lat="45.06346" lon="6.51876">
        <ele>2052.6</ele>
        <time>2013-08-30T06:30:50Z</time>
      </trkpt>
      <trkpt lat="45.06317" lon="6.51904">
        <ele>2051.1</ele>
        <time>2013-08-30T06:31:01Z</time>
      </trkpt>
      <trkpt lat="45.06298" lon="6.51951">
        <ele>2049.7</ele>
        <time>2013-08-30T06:31:12Z</time>
      </trkpt>
      <trkpt lat="45.06291" lon="6.51978">
        <ele>2049.7</ele>
        <time>2013-08-30T06:31:24Z</time>
      </trkpt>
      <trkpt lat="45.0628" lon="6.52012">
        <ele>2048.7</ele>
        <time>2013-08-30T06:31:37Z</time>
      </trkpt>
      <trkpt lat="45.06266" lon="6.52051">
        <ele>2047.3</ele>
        <time>2013-08-30T06:31:47Z</time>
      </trkpt>
      <trkpt lat="45.06262" lon="6.52056">
        <ele>2046.8</ele>
        <time>2013-08-30T06:31:59Z</time>
      </trkpt>
      <trkpt lat="45.06259" lon="6.52063">
        <ele>2047.3</ele>
        <time>2013-08-30T06:32:13Z</time>
      </trkpt>
      <trkpt lat="45.06253" lon="6.52078">
        <ele>2048.7</ele>
        <time>2013-08-30T06:32:28Z</time>
      </trkpt>
      <trkpt lat="45.06244" lon="6.5209">
        <ele>2050.6</ele>
        <time>2013-08-30T06:32:44Z</time>
      </trkpt>
      <trkpt lat="45.06234" lon="6.52106">
        <ele>2049.7</ele>
        <time>2013-08-30T06:32:54Z</time>
      </trkpt>
      <trkpt lat="45.0621" lon="6.5213">
        <ele>2048.2</ele>
        <time>2013-08-30T06:33:02Z</time>
      </trkpt>
      <trkpt lat="45.06207" lon="6.52135">
        <ele>2048.2</ele>
        <time>2013-08-30T06:33:03Z</time>
      </trkpt>
      <trkpt lat="45.06189" lon="6.52164">
        <ele>2047.8</ele>
        <time>2013-08-30T06:33:10Z</time>
      </trkpt>
      <trkpt lat="45.06187" lon="6.52169">
        <ele>2047.3</ele>
        <time>2013-08-30T06:33:11Z</time>
      </trkpt>
      <trkpt lat="45.06184" lon="6.52174">
        <ele>2047.3</ele>
        <time>2013-08-30T06:33:12Z</time>
      </trkpt>
      <trkpt lat="45.06181" lon="6.52178">
        <ele>2047.3</ele>
        <time>2013-08-30T06:33:13Z</time>
      </trkpt>
      <trkpt lat="45.06177" lon="6.52182">
        <ele>2046.8</ele>
        <time>2013-08-30T06:33:14Z</time>
      </trkpt>
      <trkpt lat="45.06174" lon="6.52184">
        <ele>2046.8</ele>
        <time>2013-08-30T06:33:15Z</time>
      </trkpt>
      <trkpt lat="45.06171" lon="6.52185">
        <ele>2046.8</ele>
        <time>2013-08-30T06:33:16Z</time>
      </trkpt>
      <trkpt lat="45.06163" lon="6.52184">
        <ele>2046.8</ele>
        <time>2013-08-30T06:33:18Z</time>
      </trkpt>
      <trkpt lat="45.0616" lon="6.52183">
        <ele>2045.8</ele>
        <time>2013-08-30T06:33:19Z</time>
      </trkpt>
      <trkpt lat="45.06142" lon="6.52179">
        <ele>2046.8</ele>
        <time>2013-08-30T06:33:25Z</time>
      </trkpt>
      <trkpt lat="45.06139" lon="6.52181">
        <ele>2046.3</ele>
        <time>2013-08-30T06:33:26Z</time>
      </trkpt>
      <trkpt lat="45.06136" lon="6.52182">
        <ele>2045.8</ele>
        <time>2013-08-30T06:33:27Z</time>
      </trkpt>
      <trkpt lat="45.06116" lon="6.52189">
        <ele>2042.5</ele>
        <time>2013-08-30T06:33:35Z</time>
      </trkpt>
      <trkpt lat="45.06114" lon="6.52191">
        <ele>2042</ele>
        <time>2013-08-30T06:33:37Z</time>
      </trkpt>
      <trkpt lat="45.06113" lon="6.52193">
        <ele>2042</ele>
        <time>2013-08-30T06:33:38Z</time>
      </trkpt>
      <trkpt lat="45.06111" lon="6.52195">
        <ele>2042</ele>
        <time>2013-08-30T06:33:39Z</time>
      </trkpt>
      <trkpt lat="45.06088" lon="6.52209">
        <ele>2040.5</ele>
        <time>2013-08-30T06:33:48Z</time>
      </trkpt>
      <trkpt lat="45.06074" lon="6.52217">
        <ele>2039.6</ele>
        <time>2013-08-30T06:33:58Z</time>
      </trkpt>
      <trkpt lat="45.06075" lon="6.52217">
        <ele>2039.6</ele>
        <time>2013-08-30T06:34:24Z</time>
      </trkpt>
      <trkpt lat="45.06073" lon="6.52218">
        <ele>2039.1</ele>
        <time>2013-08-30T06:34:27Z</time>
      </trkpt>
      <trkpt lat="45.06072" lon="6.52219">
        <ele>2039.1</ele>
        <time>2013-08-30T06:34:28Z</time>
      </trkpt>
      <trkpt lat="45.06072" lon="6.52222">
        <ele>2039.1</ele>
        <time>2013-08-30T06:34:29Z</time>
      </trkpt>
      <trkpt lat="45.06067" lon="6.52257">
        <ele>2038.6</ele>
        <time>2013-08-30T06:34:40Z</time>
      </trkpt>
      <trkpt lat="45.06065" lon="6.52278">
        <ele>2038.1</ele>
        <time>2013-08-30T06:34:47Z</time>
      </trkpt>
      <trkpt lat="45.06065" lon="6.52281">
        <ele>2038.6</ele>
        <time>2013-08-30T06:34:48Z</time>
      </trkpt>
      <trkpt lat="45.06064" lon="6.52284">
        <ele>2038.6</ele>
        <time>2013-08-30T06:34:49Z</time>
      </trkpt>
      <trkpt lat="45.06064" lon="6.52287">
        <ele>2039.1</ele>
        <time>2013-08-30T06:34:50Z</time>
      </trkpt>
      <trkpt lat="45.06063" lon="6.5229">
        <ele>2039.1</ele>
        <time>2013-08-30T06:34:51Z</time>
      </trkpt>
      <trkpt lat="45.06057" lon="6.52309">
        <ele>2038.6</ele>
        <time>2013-08-30T06:34:57Z</time>
      </trkpt>
      <trkpt lat="45.06055" lon="6.52312">
        <ele>2038.1</ele>
        <time>2013-08-30T06:34:58Z</time>
      </trkpt>
      <trkpt lat="45.06053" lon="6.52315">
        <ele>2038.1</ele>
        <time>2013-08-30T06:34:59Z</time>
      </trkpt>
      <trkpt lat="45.06045" lon="6.52349">
        <ele>2037.7</ele>
        <time>2013-08-30T06:35:07Z</time>
      </trkpt>
      <trkpt lat="45.06041" lon="6.52369">
        <ele>2037.7</ele>
        <time>2013-08-30T06:35:18Z</time>
      </trkpt>
      <trkpt lat="45.0604" lon="6.52377">
        <ele>2037.7</ele>
        <time>2013-08-30T06:35:21Z</time>
      </trkpt>
      <trkpt lat="45.06039" lon="6.52378">
        <ele>2037.7</ele>
        <time>2013-08-30T06:35:22Z</time>
      </trkpt>
      <trkpt lat="45.06036" lon="6.52379">
        <ele>2037.7</ele>
        <time>2013-08-30T06:35:24Z</time>
      </trkpt>
      <trkpt lat="45.06035" lon="6.52381">
        <ele>2037.7</ele>
        <time>2013-08-30T06:35:25Z</time>
      </trkpt>
      <trkpt lat="45.06025" lon="6.52409">
        <ele>2040.5</ele>
        <time>2013-08-30T06:35:40Z</time>
      </trkpt>
      <trkpt lat="45.06009" lon="6.52433">
        <ele>2042.9</ele>
        <time>2013-08-30T06:35:57Z</time>
      </trkpt>
      <trkpt lat="45.06002" lon="6.52444">
        <ele>2044.4</ele>
        <time>2013-08-30T06:36:05Z</time>
      </trkpt>
      <trkpt lat="45.06" lon="6.52461">
        <ele>2044.4</ele>
        <time>2013-08-30T06:36:18Z</time>
      </trkpt>
      <trkpt lat="45.05998" lon="6.52462">
        <ele>2044.9</ele>
        <time>2013-08-30T06:36:38Z</time>
      </trkpt>
      <trkpt lat="45.05996" lon="6.52467">
        <ele>2044.9</ele>
        <time>2013-08-30T06:36:41Z</time>
      </trkpt>
      <trkpt lat="45.05995" lon="6.52468">
        <ele>2044.4</ele>
        <time>2013-08-30T06:36:42Z</time>
      </trkpt>
      <trkpt lat="45.05994" lon="6.52485">
        <ele>2044.4</ele>
        <time>2013-08-30T06:36:56Z</time>
      </trkpt>
      <trkpt lat="45.05986" lon="6.5251">
        <ele>2043.4</ele>
        <time>2013-08-30T06:37:09Z</time>
      </trkpt>
      <trkpt lat="45.05962" lon="6.52535">
        <ele>2041.5</ele>
        <time>2013-08-30T06:37:17Z</time>
      </trkpt>
      <trkpt lat="45.05958" lon="6.52535">
        <ele>2041.5</ele>
        <time>2013-08-30T06:37:18Z</time>
      </trkpt>
      <trkpt lat="45.05954" lon="6.52536">
        <ele>2042</ele>
        <time>2013-08-30T06:37:19Z</time>
      </trkpt>
      <trkpt lat="45.05951" lon="6.52538">
        <ele>2041</ele>
        <time>2013-08-30T06:37:20Z</time>
      </trkpt>
      <trkpt lat="45.05948" lon="6.5254">
        <ele>2041.5</ele>
        <time>2013-08-30T06:37:21Z</time>
      </trkpt>
      <trkpt lat="45.05945" lon="6.52543">
        <ele>2041</ele>
        <time>2013-08-30T06:37:22Z</time>
      </trkpt>
      <trkpt lat="45.05942" lon="6.52546">
        <ele>2040.5</ele>
        <time>2013-08-30T06:37:23Z</time>
      </trkpt>
      <trkpt lat="45.05939" lon="6.5255">
        <ele>2040.5</ele>
        <time>2013-08-30T06:37:24Z</time>
      </trkpt>
      <trkpt lat="45.05926" lon="6.5256">
        <ele>2040.1</ele>
        <time>2013-08-30T06:37:33Z</time>
      </trkpt>
      <trkpt lat="45.05918" lon="6.52569">
        <ele>2040.1</ele>
        <time>2013-08-30T06:37:46Z</time>
      </trkpt>
      <trkpt lat="45.05918" lon="6.52571">
        <ele>2039.1</ele>
        <time>2013-08-30T06:38:05Z</time>
      </trkpt>
      <trkpt lat="45.05917" lon="6.52573">
        <ele>2039.1</ele>
        <time>2013-08-30T06:38:06Z</time>
      </trkpt>
      <trkpt lat="45.059" lon="6.52608">
        <ele>2037.7</ele>
        <time>2013-08-30T06:38:16Z</time>
      </trkpt>
      <trkpt lat="45.05868" lon="6.52642">
        <ele>2033.8</ele>
        <time>2013-08-30T06:38:24Z</time>
      </trkpt>
      <trkpt lat="45.05856" lon="6.52659">
        <ele>2032.4</ele>
        <time>2013-08-30T06:38:27Z</time>
      </trkpt>
      <trkpt lat="45.05854" lon="6.52666">
        <ele>2031.9</ele>
        <time>2013-08-30T06:38:28Z</time>
      </trkpt>
      <trkpt lat="45.05853" lon="6.52673">
        <ele>2031.9</ele>
        <time>2013-08-30T06:38:29Z</time>
      </trkpt>
      <trkpt lat="45.05852" lon="6.52688">
        <ele>2031.4</ele>
        <time>2013-08-30T06:38:31Z</time>
      </trkpt>
      <trkpt lat="45.05852" lon="6.52703">
        <ele>2030</ele>
        <time>2013-08-30T06:38:33Z</time>
      </trkpt>
      <trkpt lat="45.05851" lon="6.52717">
        <ele>2029</ele>
        <time>2013-08-30T06:38:35Z</time>
      </trkpt>
      <trkpt lat="45.05851" lon="6.52729">
        <ele>2028</ele>
        <time>2013-08-30T06:38:37Z</time>
      </trkpt>
      <trkpt lat="45.05852" lon="6.52735">
        <ele>2027.1</ele>
        <time>2013-08-30T06:38:38Z</time>
      </trkpt>
      <trkpt lat="45.05855" lon="6.5274">
        <ele>2027.1</ele>
        <time>2013-08-30T06:38:39Z</time>
      </trkpt>
      <trkpt lat="45.05864" lon="6.52758">
        <ele>2025.2</ele>
        <time>2013-08-30T06:38:42Z</time>
      </trkpt>
      <trkpt lat="45.05866" lon="6.52766">
        <ele>2025.2</ele>
        <time>2013-08-30T06:38:43Z</time>
      </trkpt>
      <trkpt lat="45.05866" lon="6.52775">
        <ele>2023.7</ele>
        <time>2013-08-30T06:38:44Z</time>
      </trkpt>
      <trkpt lat="45.05865" lon="6.52783">
        <ele>2024.2</ele>
        <time>2013-08-30T06:38:45Z</time>
      </trkpt>
      <trkpt lat="45.05862" lon="6.5279">
        <ele>2023.7</ele>
        <time>2013-08-30T06:38:46Z</time>
      </trkpt>
      <trkpt lat="45.05858" lon="6.52797">
        <ele>2023.7</ele>
        <time>2013-08-30T06:38:47Z</time>
      </trkpt>
      <trkpt lat="45.05854" lon="6.52803">
        <ele>2023.2</ele>
        <time>2013-08-30T06:38:48Z</time>
      </trkpt>
      <trkpt lat="45.05822" lon="6.52857">
        <ele>2019.9</ele>
        <time>2013-08-30T06:38:56Z</time>
      </trkpt>
      <trkpt lat="45.05817" lon="6.52862">
        <ele>2019.9</ele>
        <time>2013-08-30T06:38:57Z</time>
      </trkpt>
      <trkpt lat="45.05813" lon="6.52865">
        <ele>2018.9</ele>
        <time>2013-08-30T06:38:58Z</time>
      </trkpt>
      <trkpt lat="45.05807" lon="6.52867">
        <ele>2018.4</ele>
        <time>2013-08-30T06:38:59Z</time>
      </trkpt>
      <trkpt lat="45.05802" lon="6.52869">
        <ele>2017.9</ele>
        <time>2013-08-30T06:39:00Z</time>
      </trkpt>
      <trkpt lat="45.05797" lon="6.5287">
        <ele>2018.4</ele>
        <time>2013-08-30T06:39:01Z</time>
      </trkpt>
      <trkpt lat="45.05793" lon="6.52871">
        <ele>2017</ele>
        <time>2013-08-30T06:39:02Z</time>
      </trkpt>
      <trkpt lat="45.05789" lon="6.52873">
        <ele>2017</ele>
        <time>2013-08-30T06:39:03Z</time>
      </trkpt>
      <trkpt lat="45.05762" lon="6.52896">
        <ele>2014.6</ele>
        <time>2013-08-30T06:39:10Z</time>
      </trkpt>
      <trkpt lat="45.05756" lon="6.52897">
        <ele>2014.6</ele>
        <time>2013-08-30T06:39:11Z</time>
      </trkpt>
      <trkpt lat="45.05751" lon="6.52897">
        <ele>2014.6</ele>
        <time>2013-08-30T06:39:12Z</time>
      </trkpt>
      <trkpt lat="45.05746" lon="6.52897">
        <ele>2014.6</ele>
        <time>2013-08-30T06:39:13Z</time>
      </trkpt>
      <trkpt lat="45.0574" lon="6.52898">
        <ele>2014.1</ele>
        <time>2013-08-30T06:39:14Z</time>
      </trkpt>
      <trkpt lat="45.05735" lon="6.529">
        <ele>2013.6</ele>
        <time>2013-08-30T06:39:15Z</time>
      </trkpt>
      <trkpt lat="45.0573" lon="6.52903">
        <ele>2013.1</ele>
        <time>2013-08-30T06:39:16Z</time>
      </trkpt>
      <trkpt lat="45.05725" lon="6.52907">
        <ele>2013.1</ele>
        <time>2013-08-30T06:39:17Z</time>
      </trkpt>
      <trkpt lat="45.0572" lon="6.52911">
        <ele>2013.1</ele>
        <time>2013-08-30T06:39:18Z</time>
      </trkpt>
      <trkpt lat="45.0568" lon="6.52949">
        <ele>2010.3</ele>
        <time>2013-08-30T06:39:26Z</time>
      </trkpt>
      <trkpt lat="45.05632" lon="6.53006">
        <ele>2007.4</ele>
        <time>2013-08-30T06:39:36Z</time>
      </trkpt>
      <trkpt lat="45.05605" lon="6.53066">
        <ele>2004.5</ele>
        <time>2013-08-30T06:39:45Z</time>
      </trkpt>
      <trkpt lat="45.05602" lon="6.5307">
        <ele>2004.5</ele>
        <time>2013-08-30T06:39:46Z</time>
      </trkpt>
      <trkpt lat="45.05597" lon="6.53074">
        <ele>2004</ele>
        <time>2013-08-30T06:39:53Z</time>
      </trkpt>
      <trkpt lat="45.05584" lon="6.53078">
        <ele>2003</ele>
        <time>2013-08-30T06:40:08Z</time>
      </trkpt>
      <trkpt lat="45.05526" lon="6.53096">
        <ele>2000.2</ele>
        <time>2013-08-30T06:40:21Z</time>
      </trkpt>
      <trkpt lat="45.05515" lon="6.53097">
        <ele>1999.7</ele>
        <time>2013-08-30T06:40:28Z</time>
      </trkpt>
      <trkpt lat="45.05517" lon="6.53095">
        <ele>2000.2</ele>
        <time>2013-08-30T06:40:55Z</time>
      </trkpt>
      <trkpt lat="45.05514" lon="6.53096">
        <ele>2000.2</ele>
        <time>2013-08-30T06:41:10Z</time>
      </trkpt>
      <trkpt lat="45.05513" lon="6.53096">
        <ele>2000.2</ele>
        <time>2013-08-30T06:41:11Z</time>
      </trkpt>
      <trkpt lat="45.05511" lon="6.53097">
        <ele>2000.2</ele>
        <time>2013-08-30T06:41:12Z</time>
      </trkpt>
      <trkpt lat="45.05479" lon="6.53119">
        <ele>1999.2</ele>
        <time>2013-08-30T06:41:24Z</time>
      </trkpt>
      <trkpt lat="45.05462" lon="6.53129">
        <ele>1997.3</ele>
        <time>2013-08-30T06:41:32Z</time>
      </trkpt>
      <trkpt lat="45.05458" lon="6.53129">
        <ele>1997.3</ele>
        <time>2013-08-30T06:41:33Z</time>
      </trkpt>
      <trkpt lat="45.05439" lon="6.53131">
        <ele>1995.8</ele>
        <time>2013-08-30T06:41:37Z</time>
      </trkpt>
      <trkpt lat="45.05434" lon="6.53132">
        <ele>1994.9</ele>
        <time>2013-08-30T06:41:38Z</time>
      </trkpt>
      <trkpt lat="45.0543" lon="6.53133">
        <ele>1995.4</ele>
        <time>2013-08-30T06:41:39Z</time>
      </trkpt>
      <trkpt lat="45.05397" lon="6.53138">
        <ele>1995.4</ele>
        <time>2013-08-30T06:41:50Z</time>
      </trkpt>
      <trkpt lat="45.05378" lon="6.53137">
        <ele>1993.4</ele>
        <time>2013-08-30T06:41:55Z</time>
      </trkpt>
      <trkpt lat="45.05361" lon="6.5314">
        <ele>1992</ele>
        <time>2013-08-30T06:42:00Z</time>
      </trkpt>
      <trkpt lat="45.05357" lon="6.5314">
        <ele>1991.5</ele>
        <time>2013-08-30T06:42:01Z</time>
      </trkpt>
      <trkpt lat="45.05352" lon="6.5314">
        <ele>1990.6</ele>
        <time>2013-08-30T06:42:02Z</time>
      </trkpt>
      <trkpt lat="45.05347" lon="6.5314">
        <ele>1990.6</ele>
        <time>2013-08-30T06:42:03Z</time>
      </trkpt>
      <trkpt lat="45.05337" lon="6.53142">
        <ele>1989.6</ele>
        <time>2013-08-30T06:42:05Z</time>
      </trkpt>
      <trkpt lat="45.05332" lon="6.53141">
        <ele>1989.6</ele>
        <time>2013-08-30T06:42:06Z</time>
      </trkpt>
      <trkpt lat="45.05328" lon="6.53141">
        <ele>1989.6</ele>
        <time>2013-08-30T06:42:07Z</time>
      </trkpt>
      <trkpt lat="45.05325" lon="6.53141">
        <ele>1989.6</ele>
        <time>2013-08-30T06:42:08Z</time>
      </trkpt>
      <trkpt lat="45.05323" lon="6.53141">
        <ele>1989.6</ele>
        <time>2013-08-30T06:42:09Z</time>
      </trkpt>
      <trkpt lat="45.0532" lon="6.53141">
        <ele>1989.6</ele>
        <time>2013-08-30T06:42:17Z</time>
      </trkpt>
      <trkpt lat="45.05297" lon="6.53147">
        <ele>1987.7</ele>
        <time>2013-08-30T06:42:27Z</time>
      </trkpt>
      <trkpt lat="45.05268" lon="6.5316">
        <ele>1988.1</ele>
        <time>2013-08-30T06:42:39Z</time>
      </trkpt>
      <trkpt lat="45.05227" lon="6.53181">
        <ele>1986.7</ele>
        <time>2013-08-30T06:42:52Z</time>
      </trkpt>
      <trkpt lat="45.05217" lon="6.53184">
        <ele>1986.2</ele>
        <time>2013-08-30T06:42:55Z</time>
      </trkpt>
      <trkpt lat="45.05199" lon="6.53199">
        <ele>1984.3</ele>
        <time>2013-08-30T06:43:00Z</time>
      </trkpt>
      <trkpt lat="45.05181" lon="6.53205">
        <ele>1983.8</ele>
        <time>2013-08-30T06:43:05Z</time>
      </trkpt>
      <trkpt lat="45.05174" lon="6.53208">
        <ele>1984.3</ele>
        <time>2013-08-30T06:43:09Z</time>
      </trkpt>
      <trkpt lat="45.05169" lon="6.53211">
        <ele>1984.8</ele>
        <time>2013-08-30T06:43:14Z</time>
      </trkpt>
      <trkpt lat="45.05142" lon="6.53214">
        <ele>1983.3</ele>
        <time>2013-08-30T06:43:26Z</time>
      </trkpt>
      <trkpt lat="45.05123" lon="6.53206">
        <ele>1982.4</ele>
        <time>2013-08-30T06:43:36Z</time>
      </trkpt>
      <trkpt lat="45.05122" lon="6.53206">
        <ele>1982.9</ele>
        <time>2013-08-30T06:43:57Z</time>
      </trkpt>
      <trkpt lat="45.05123" lon="6.53198">
        <ele>1982.9</ele>
        <time>2013-08-30T06:44:19Z</time>
      </trkpt>
      <trkpt lat="45.05119" lon="6.53195">
        <ele>1982.4</ele>
        <time>2013-08-30T06:44:23Z</time>
      </trkpt>
      <trkpt lat="45.05097" lon="6.53201">
        <ele>1984.8</ele>
        <time>2013-08-30T06:44:36Z</time>
      </trkpt>
      <trkpt lat="45.0506" lon="6.53197">
        <ele>1983.3</ele>
        <time>2013-08-30T06:44:48Z</time>
      </trkpt>
      <trkpt lat="45.05027" lon="6.53214">
        <ele>1982.4</ele>
        <time>2013-08-30T06:44:58Z</time>
      </trkpt>
      <trkpt lat="45.04996" lon="6.53228">
        <ele>1982.9</ele>
        <time>2013-08-30T06:45:13Z</time>
      </trkpt>
      <trkpt lat="45.04976" lon="6.53231">
        <ele>1985.7</ele>
        <time>2013-08-30T06:45:25Z</time>
      </trkpt>
      <trkpt lat="45.04962" lon="6.53229">
        <ele>1987.2</ele>
        <time>2013-08-30T06:45:38Z</time>
      </trkpt>
      <trkpt lat="45.04959" lon="6.53229">
        <ele>1987.7</ele>
        <time>2013-08-30T06:45:43Z</time>
      </trkpt>
      <trkpt lat="45.04951" lon="6.53232">
        <ele>1987.2</ele>
        <time>2013-08-30T06:45:58Z</time>
      </trkpt>
      <trkpt lat="45.0495" lon="6.53234">
        <ele>1987.2</ele>
        <time>2013-08-30T06:46:18Z</time>
      </trkpt>
      <trkpt lat="45.0495" lon="6.53237">
        <ele>1987.2</ele>
        <time>2013-08-30T06:46:41Z</time>
      </trkpt>
      <trkpt lat="45.04948" lon="6.53239">
        <ele>1987.7</ele>
        <time>2013-08-30T06:47:12Z</time>
      </trkpt>
      <trkpt lat="45.0495" lon="6.53241">
        <ele>1987.2</ele>
        <time>2013-08-30T06:47:40Z</time>
      </trkpt>
      <trkpt lat="45.04945" lon="6.53245">
        <ele>1987.7</ele>
        <time>2013-08-30T06:48:13Z</time>
      </trkpt>
      <trkpt lat="45.04943" lon="6.53242">
        <ele>1987.7</ele>
        <time>2013-08-30T06:48:43Z</time>
      </trkpt>
      <trkpt lat="45.04942" lon="6.53239">
        <ele>1987.7</ele>
        <time>2013-08-30T06:48:48Z</time>
      </trkpt>
      <trkpt lat="45.04933" lon="6.53224">
        <ele>1986.7</ele>
        <time>2013-08-30T06:49:00Z</time>
      </trkpt>
      <trkpt lat="45.04932" lon="6.53223">
        <ele>1986.7</ele>
        <time>2013-08-30T06:49:02Z</time>
      </trkpt>
      <trkpt lat="45.04926" lon="6.53224">
        <ele>1985.7</ele>
        <time>2013-08-30T06:49:06Z</time>
      </trkpt>
      <trkpt lat="45.04889" lon="6.53235">
        <ele>1984.8</ele>
        <time>2013-08-30T06:49:17Z</time>
      </trkpt>
      <trkpt lat="45.04866" lon="6.53234">
        <ele>1984.8</ele>
        <time>2013-08-30T06:49:28Z</time>
      </trkpt>
      <trkpt lat="45.04855" lon="6.53227">
        <ele>1985.3</ele>
        <time>2013-08-30T06:49:39Z</time>
      </trkpt>
      <trkpt lat="45.04856" lon="6.53228">
        <ele>1985.3</ele>
        <time>2013-08-30T06:49:46Z</time>
      </trkpt>
      <trkpt lat="45.04852" lon="6.53228">
        <ele>1985.3</ele>
        <time>2013-08-30T06:49:50Z</time>
      </trkpt>
      <trkpt lat="45.04818" lon="6.53235">
        <ele>1982.9</ele>
        <time>2013-08-30T06:50:02Z</time>
      </trkpt>
      <trkpt lat="45.0481" lon="6.53237">
        <ele>1982.4</ele>
        <time>2013-08-30T06:50:06Z</time>
      </trkpt>
      <trkpt lat="45.04807" lon="6.53246">
        <ele>1982.9</ele>
        <time>2013-08-30T06:50:10Z</time>
      </trkpt>
      <trkpt lat="45.04801" lon="6.53276">
        <ele>1980.9</ele>
        <time>2013-08-30T06:50:21Z</time>
      </trkpt>
      <trkpt lat="45.048" lon="6.53281">
        <ele>1980.5</ele>
        <time>2013-08-30T06:50:26Z</time>
      </trkpt>
      <trkpt lat="45.04781" lon="6.53298">
        <ele>1980.9</ele>
        <time>2013-08-30T06:50:35Z</time>
      </trkpt>
      <trkpt lat="45.04763" lon="6.53304">
        <ele>1980.5</ele>
        <time>2013-08-30T06:50:44Z</time>
      </trkpt>
      <trkpt lat="45.04761" lon="6.53306">
        <ele>1979.5</ele>
        <time>2013-08-30T06:50:59Z</time>
      </trkpt>
      <trkpt lat="45.04755" lon="6.53306">
        <ele>1976.6</ele>
        <time>2013-08-30T06:51:13Z</time>
      </trkpt>
      <trkpt lat="45.04754" lon="6.53307">
        <ele>1975.7</ele>
        <time>2013-08-30T06:51:20Z</time>
      </trkpt>
      <trkpt lat="45.04748" lon="6.53322">
        <ele>1972.3</ele>
        <time>2013-08-30T06:51:33Z</time>
      </trkpt>
      <trkpt lat="45.04746" lon="6.53328">
        <ele>1971.3</ele>
        <time>2013-08-30T06:51:35Z</time>
      </trkpt>
      <trkpt lat="45.04731" lon="6.53344">
        <ele>1968.4</ele>
        <time>2013-08-30T06:51:41Z</time>
      </trkpt>
      <trkpt lat="45.04729" lon="6.53348">
        <ele>1967.5</ele>
        <time>2013-08-30T06:51:42Z</time>
      </trkpt>
      <trkpt lat="45.04712" lon="6.53365">
        <ele>1965.6</ele>
        <time>2013-08-30T06:51:52Z</time>
      </trkpt>
      <trkpt lat="45.04703" lon="6.5337">
        <ele>1965.1</ele>
        <time>2013-08-30T06:52:12Z</time>
      </trkpt>
      <trkpt lat="45.04682" lon="6.53381">
        <ele>1964.1</ele>
        <time>2013-08-30T06:52:25Z</time>
      </trkpt>
      <trkpt lat="45.04673" lon="6.53384">
        <ele>1964.1</ele>
        <time>2013-08-30T06:52:37Z</time>
      </trkpt>
      <trkpt lat="45.04666" lon="6.53386">
        <ele>1963.2</ele>
        <time>2013-08-30T06:52:49Z</time>
      </trkpt>
      <trkpt lat="45.04658" lon="6.53392">
        <ele>1963.2</ele>
        <time>2013-08-30T06:53:03Z</time>
      </trkpt>
      <trkpt lat="45.04656" lon="6.53392">
        <ele>1962.7</ele>
        <time>2013-08-30T06:53:09Z</time>
      </trkpt>
      <trkpt lat="45.04655" lon="6.53395">
        <ele>1962.7</ele>
        <time>2013-08-30T06:53:14Z</time>
      </trkpt>
      <trkpt lat="45.04648" lon="6.53403">
        <ele>1962.2</ele>
        <time>2013-08-30T06:53:19Z</time>
      </trkpt>
      <trkpt lat="45.04609" lon="6.53424">
        <ele>1960.8</ele>
        <time>2013-08-30T06:53:32Z</time>
      </trkpt>
      <trkpt lat="45.0459" lon="6.53423">
        <ele>1961.7</ele>
        <time>2013-08-30T06:53:41Z</time>
      </trkpt>
      <trkpt lat="45.04578" lon="6.53421">
        <ele>1960.3</ele>
        <time>2013-08-30T06:53:46Z</time>
      </trkpt>
      <trkpt lat="45.04558" lon="6.53427">
        <ele>1959.3</ele>
        <time>2013-08-30T06:53:53Z</time>
      </trkpt>
      <trkpt lat="45.04546" lon="6.53441">
        <ele>1959.3</ele>
        <time>2013-08-30T06:54:00Z</time>
      </trkpt>
      <trkpt lat="45.04536" lon="6.53446">
        <ele>1959.3</ele>
        <time>2013-08-30T06:54:06Z</time>
      </trkpt>
      <trkpt lat="45.04521" lon="6.5346">
        <ele>1959.8</ele>
        <time>2013-08-30T06:54:19Z</time>
      </trkpt>
      <trkpt lat="45.04519" lon="6.53465">
        <ele>1959.8</ele>
        <time>2013-08-30T06:54:38Z</time>
      </trkpt>
      <trkpt lat="45.04519" lon="6.53465">
        <ele>1960.3</ele>
        <time>2013-08-30T06:54:41Z</time>
      </trkpt>
      <trkpt lat="45.04503" lon="6.53475">
        <ele>1962.7</ele>
        <time>2013-08-30T06:54:56Z</time>
      </trkpt>
      <trkpt lat="45.045" lon="6.5348">
        <ele>1962.7</ele>
        <time>2013-08-30T06:55:12Z</time>
      </trkpt>
      <trkpt lat="45.04495" lon="6.53481">
        <ele>1962.7</ele>
        <time>2013-08-30T06:55:42Z</time>
      </trkpt>
      <trkpt lat="45.04492" lon="6.53485">
        <ele>1963.2</ele>
        <time>2013-08-30T06:55:59Z</time>
      </trkpt>
      <trkpt lat="45.04489" lon="6.53495">
        <ele>1965.1</ele>
        <time>2013-08-30T06:56:14Z</time>
      </trkpt>
      <trkpt lat="45.04484" lon="6.53511">
        <ele>1962.2</ele>
        <time>2013-08-30T06:56:27Z</time>
      </trkpt>
      <trkpt lat="45.04484" lon="6.53512">
        <ele>1961.7</ele>
        <time>2013-08-30T06:56:32Z</time>
      </trkpt>
      <trkpt lat="45.04481" lon="6.53519">
        <ele>1960.8</ele>
        <time>2013-08-30T06:56:37Z</time>
      </trkpt>
      <trkpt lat="45.04475" lon="6.53528">
        <ele>1958.3</ele>
        <time>2013-08-30T06:56:47Z</time>
      </trkpt>
      <trkpt lat="45.04472" lon="6.53542">
        <ele>1956.4</ele>
        <time>2013-08-30T06:56:51Z</time>
      </trkpt>
      <trkpt lat="45.04465" lon="6.53558">
        <ele>1955.5</ele>
        <time>2013-08-30T06:56:56Z</time>
      </trkpt>
      <trkpt lat="45.04455" lon="6.53582">
        <ele>1952.6</ele>
        <time>2013-08-30T06:57:04Z</time>
      </trkpt>
      <trkpt lat="45.04447" lon="6.5359">
        <ele>1950.7</ele>
        <time>2013-08-30T06:57:10Z</time>
      </trkpt>
      <trkpt lat="45.04446" lon="6.53592">
        <ele>1949.7</ele>
        <time>2013-08-30T06:57:15Z</time>
      </trkpt>
      <trkpt lat="45.04443" lon="6.5361">
        <ele>1948.3</ele>
        <time>2013-08-30T06:57:21Z</time>
      </trkpt>
      <trkpt lat="45.04443" lon="6.53624">
        <ele>1946.8</ele>
        <time>2013-08-30T06:57:27Z</time>
      </trkpt>
      <trkpt lat="45.04436" lon="6.5363">
        <ele>1946.3</ele>
        <time>2013-08-30T06:57:31Z</time>
      </trkpt>
      <trkpt lat="45.0442" lon="6.53644">
        <ele>1943.9</ele>
        <time>2013-08-30T06:57:40Z</time>
      </trkpt>
      <trkpt lat="45.04413" lon="6.53644">
        <ele>1942.5</ele>
        <time>2013-08-30T06:57:52Z</time>
      </trkpt>
      <trkpt lat="45.0441" lon="6.5365">
        <ele>1939.6</ele>
        <time>2013-08-30T06:58:04Z</time>
      </trkpt>
      <trkpt lat="45.04413" lon="6.53655">
        <ele>1936.7</ele>
        <time>2013-08-30T06:58:17Z</time>
      </trkpt>
      <trkpt lat="45.04412" lon="6.53658">
        <ele>1936.2</ele>
        <time>2013-08-30T06:58:22Z</time>
      </trkpt>
      <trkpt lat="45.04407" lon="6.53665">
        <ele>1934.8</ele>
        <time>2013-08-30T06:58:27Z</time>
      </trkpt>
      <trkpt lat="45.04402" lon="6.5367">
        <ele>1932.9</ele>
        <time>2013-08-30T06:58:30Z</time>
      </trkpt>
      <trkpt lat="45.04395" lon="6.53685">
        <ele>1931.4</ele>
        <time>2013-08-30T06:58:36Z</time>
      </trkpt>
      <trkpt lat="45.04402" lon="6.53715">
        <ele>1928.5</ele>
        <time>2013-08-30T06:58:45Z</time>
      </trkpt>
      <trkpt lat="45.04404" lon="6.53717">
        <ele>1928.5</ele>
        <time>2013-08-30T06:58:46Z</time>
      </trkpt>
      <trkpt lat="45.04406" lon="6.53725">
        <ele>1928.1</ele>
        <time>2013-08-30T06:58:56Z</time>
      </trkpt>
      <trkpt lat="45.04403" lon="6.53734">
        <ele>1927.1</ele>
        <time>2013-08-30T06:59:16Z</time>
      </trkpt>
      <trkpt lat="45.04403" lon="6.53743">
        <ele>1926.1</ele>
        <time>2013-08-30T06:59:42Z</time>
      </trkpt>
      <trkpt lat="45.04393" lon="6.53738">
        <ele>1924.2</ele>
        <time>2013-08-30T06:59:56Z</time>
      </trkpt>
      <trkpt lat="45.04388" lon="6.53736">
        <ele>1922.3</ele>
        <time>2013-08-30T07:00:08Z</time>
      </trkpt>
      <trkpt lat="45.04385" lon="6.53737">
        <ele>1921.8</ele>
        <time>2013-08-30T07:00:19Z</time>
      </trkpt>
      <trkpt lat="45.04379" lon="6.53746">
        <ele>1919.4</ele>
        <time>2013-08-30T07:00:31Z</time>
      </trkpt>
      <trkpt lat="45.04372" lon="6.53751">
        <ele>1916.5</ele>
        <time>2013-08-30T07:00:45Z</time>
      </trkpt>
      <trkpt lat="45.04368" lon="6.53758">
        <ele>1915.6</ele>
        <time>2013-08-30T07:00:54Z</time>
      </trkpt>
      <trkpt lat="45.04359" lon="6.53777">
        <ele>1912.2</ele>
        <time>2013-08-30T07:01:02Z</time>
      </trkpt>
      <trkpt lat="45.04353" lon="6.53788">
        <ele>1909.8</ele>
        <time>2013-08-30T07:01:07Z</time>
      </trkpt>
      <trkpt lat="45.04347" lon="6.538">
        <ele>1907.4</ele>
        <time>2013-08-30T07:01:17Z</time>
      </trkpt>
      <trkpt lat="45.04344" lon="6.53811">
        <ele>1904.5</ele>
        <time>2013-08-30T07:01:29Z</time>
      </trkpt>
      <trkpt lat="45.04342" lon="6.53819">
        <ele>1901.1</ele>
        <time>2013-08-30T07:01:40Z</time>
      </trkpt>
      <trkpt lat="45.0434" lon="6.53834">
        <ele>1898.7</ele>
        <time>2013-08-30T07:01:53Z</time>
      </trkpt>
      <trkpt lat="45.04337" lon="6.53846">
        <ele>1895.9</ele>
        <time>2013-08-30T07:02:06Z</time>
      </trkpt>
      <trkpt lat="45.04332" lon="6.53859">
        <ele>1893</ele>
        <time>2013-08-30T07:02:19Z</time>
      </trkpt>
      <trkpt lat="45.0433" lon="6.5387">
        <ele>1891.1</ele>
        <time>2013-08-30T07:02:29Z</time>
      </trkpt>
      <trkpt lat="45.04319" lon="6.53873">
        <ele>1890.1</ele>
        <time>2013-08-30T07:02:41Z</time>
      </trkpt>
      <trkpt lat="45.04284" lon="6.53892">
        <ele>1888.2</ele>
        <time>2013-08-30T07:02:55Z</time>
      </trkpt>
      <trkpt lat="45.04281" lon="6.53894">
        <ele>1888.2</ele>
        <time>2013-08-30T07:02:57Z</time>
      </trkpt>
      <trkpt lat="45.04273" lon="6.53902">
        <ele>1887.2</ele>
        <time>2013-08-30T07:03:03Z</time>
      </trkpt>
      <trkpt lat="45.04271" lon="6.53903">
        <ele>1887.7</ele>
        <time>2013-08-30T07:03:05Z</time>
      </trkpt>
      <trkpt lat="45.04261" lon="6.5391">
        <ele>1887.2</ele>
        <time>2013-08-30T07:03:10Z</time>
      </trkpt>
      <trkpt lat="45.04235" lon="6.53931">
        <ele>1885.8</ele>
        <time>2013-08-30T07:03:20Z</time>
      </trkpt>
      <trkpt lat="45.04203" lon="6.53937">
        <ele>1885.3</ele>
        <time>2013-08-30T07:03:31Z</time>
      </trkpt>
      <trkpt lat="45.04194" lon="6.53939">
        <ele>1885.3</ele>
        <time>2013-08-30T07:03:35Z</time>
      </trkpt>
      <trkpt lat="45.04159" lon="6.53935">
        <ele>1884.3</ele>
        <time>2013-08-30T07:03:46Z</time>
      </trkpt>
      <trkpt lat="45.04123" lon="6.5395">
        <ele>1883.4</ele>
        <time>2013-08-30T07:03:57Z</time>
      </trkpt>
      <trkpt lat="45.04083" lon="6.53984">
        <ele>1882.4</ele>
        <time>2013-08-30T07:04:11Z</time>
      </trkpt>
      <trkpt lat="45.04053" lon="6.54006">
        <ele>1881.4</ele>
        <time>2013-08-30T07:04:21Z</time>
      </trkpt>
      <trkpt lat="45.04019" lon="6.54031">
        <ele>1881</ele>
        <time>2013-08-30T07:04:33Z</time>
      </trkpt>
      <trkpt lat="45.04" lon="6.54054">
        <ele>1881.9</ele>
        <time>2013-08-30T07:04:43Z</time>
      </trkpt>
      <trkpt lat="45.0397" lon="6.54094">
        <ele>1880</ele>
        <time>2013-08-30T07:04:57Z</time>
      </trkpt>
      <trkpt lat="45.03967" lon="6.54095">
        <ele>1880</ele>
        <time>2013-08-30T07:04:58Z</time>
      </trkpt>
      <trkpt lat="45.0393" lon="6.5412">
        <ele>1879.5</ele>
        <time>2013-08-30T07:05:11Z</time>
      </trkpt>
      <trkpt lat="45.03899" lon="6.54148">
        <ele>1878.6</ele>
        <time>2013-08-30T07:05:23Z</time>
      </trkpt>
      <trkpt lat="45.03846" lon="6.54176">
        <ele>1878.1</ele>
        <time>2013-08-30T07:05:37Z</time>
      </trkpt>
      <trkpt lat="45.03799" lon="6.54214">
        <ele>1877.6</ele>
        <time>2013-08-30T07:05:51Z</time>
      </trkpt>
      <trkpt lat="45.0379" lon="6.54219">
        <ele>1875.7</ele>
        <time>2013-08-30T07:05:54Z</time>
      </trkpt>
      <trkpt lat="45.03785" lon="6.54222">
        <ele>1879</ele>
        <time>2013-08-30T07:05:55Z</time>
      </trkpt>
      <trkpt lat="45.0378" lon="6.54224">
        <ele>1877.1</ele>
        <time>2013-08-30T07:05:56Z</time>
      </trkpt>
      <trkpt lat="45.03767" lon="6.54229">
        <ele>1877.6</ele>
        <time>2013-08-30T07:05:59Z</time>
      </trkpt>
      <trkpt lat="45.03752" lon="6.54238">
        <ele>1878.1</ele>
        <time>2013-08-30T07:06:03Z</time>
      </trkpt>
      <trkpt lat="45.03738" lon="6.54252">
        <ele>1877.6</ele>
        <time>2013-08-30T07:06:07Z</time>
      </trkpt>
      <trkpt lat="45.03697" lon="6.54276">
        <ele>1877.6</ele>
        <time>2013-08-30T07:06:17Z</time>
      </trkpt>
      <trkpt lat="45.03678" lon="6.54283">
        <ele>1878.1</ele>
        <time>2013-08-30T07:06:21Z</time>
      </trkpt>
      <trkpt lat="45.03664" lon="6.54283">
        <ele>1877.6</ele>
        <time>2013-08-30T07:06:24Z</time>
      </trkpt>
      <trkpt lat="45.0366" lon="6.54283">
        <ele>1878.1</ele>
        <time>2013-08-30T07:06:25Z</time>
      </trkpt>
      <trkpt lat="45.03647" lon="6.54282">
        <ele>1877.6</ele>
        <time>2013-08-30T07:06:28Z</time>
      </trkpt>
      <trkpt lat="45.03642" lon="6.54283">
        <ele>1877.6</ele>
        <time>2013-08-30T07:06:29Z</time>
      </trkpt>
      <trkpt lat="45.03638" lon="6.54285">
        <ele>1877.1</ele>
        <time>2013-08-30T07:06:30Z</time>
      </trkpt>
      <trkpt lat="45.03634" lon="6.54287">
        <ele>1877.6</ele>
        <time>2013-08-30T07:06:31Z</time>
      </trkpt>
      <trkpt lat="45.03583" lon="6.54339">
        <ele>1878.1</ele>
        <time>2013-08-30T07:06:47Z</time>
      </trkpt>
      <trkpt lat="45.03533" lon="6.54391">
        <ele>1878.6</ele>
        <time>2013-08-30T07:07:04Z</time>
      </trkpt>
      <trkpt lat="45.03492" lon="6.54433">
        <ele>1878.6</ele>
        <time>2013-08-30T07:07:18Z</time>
      </trkpt>
      <trkpt lat="45.03464" lon="6.54459">
        <ele>1878.1</ele>
        <time>2013-08-30T07:07:27Z</time>
      </trkpt>
      <trkpt lat="45.03422" lon="6.54506">
        <ele>1877.1</ele>
        <time>2013-08-30T07:07:41Z</time>
      </trkpt>
      <trkpt lat="45.03364" lon="6.54569">
        <ele>1876.2</ele>
        <time>2013-08-30T07:07:57Z</time>
      </trkpt>
      <trkpt lat="45.03355" lon="6.54585">
        <ele>1876.2</ele>
        <time>2013-08-30T07:08:00Z</time>
      </trkpt>
      <trkpt lat="45.03353" lon="6.54591">
        <ele>1875.7</ele>
        <time>2013-08-30T07:08:01Z</time>
      </trkpt>
      <trkpt lat="45.03352" lon="6.54598">
        <ele>1875.2</ele>
        <time>2013-08-30T07:08:02Z</time>
      </trkpt>
      <trkpt lat="45.03353" lon="6.54619">
        <ele>1875.7</ele>
        <time>2013-08-30T07:08:05Z</time>
      </trkpt>
      <trkpt lat="45.03355" lon="6.54631">
        <ele>1875.2</ele>
        <time>2013-08-30T07:08:07Z</time>
      </trkpt>
      <trkpt lat="45.03357" lon="6.54657">
        <ele>1874.7</ele>
        <time>2013-08-30T07:08:16Z</time>
      </trkpt>
      <trkpt lat="45.03361" lon="6.54649">
        <ele>1874.7</ele>
        <time>2013-08-30T07:08:38Z</time>
      </trkpt>
      <trkpt lat="45.03359" lon="6.54648">
        <ele>1875.2</ele>
        <time>2013-08-30T07:09:05Z</time>
      </trkpt>
      <trkpt lat="45.0336" lon="6.54646">
        <ele>1874.7</ele>
        <time>2013-08-30T07:09:15Z</time>
      </trkpt>
      <trkpt lat="45.03361" lon="6.54644">
        <ele>1874.7</ele>
        <time>2013-08-30T07:09:31Z</time>
      </trkpt>
      <trkpt lat="45.03358" lon="6.54637">
        <ele>1874.2</ele>
        <time>2013-08-30T07:09:44Z</time>
      </trkpt>
      <trkpt lat="45.03358" lon="6.54635">
        <ele>1874.2</ele>
        <time>2013-08-30T07:09:46Z</time>
      </trkpt>
      <trkpt lat="45.03356" lon="6.5463">
        <ele>1874.7</ele>
        <time>2013-08-30T07:09:50Z</time>
      </trkpt>
      <trkpt lat="45.03348" lon="6.54634">
        <ele>1876.6</ele>
        <time>2013-08-30T07:10:01Z</time>
      </trkpt>
      <trkpt lat="45.03346" lon="6.54637">
        <ele>1877.1</ele>
        <time>2013-08-30T07:10:03Z</time>
      </trkpt>
      <trkpt lat="45.03339" lon="6.54639">
        <ele>1876.6</ele>
        <time>2013-08-30T07:10:10Z</time>
      </trkpt>
      <trkpt lat="45.0333" lon="6.54648">
        <ele>1876.6</ele>
        <time>2013-08-30T07:10:22Z</time>
      </trkpt>
      <trkpt lat="45.03328" lon="6.54649">
        <ele>1876.2</ele>
        <time>2013-08-30T07:10:23Z</time>
      </trkpt>
      <trkpt lat="45.03324" lon="6.54656">
        <ele>1877.1</ele>
        <time>2013-08-30T07:10:31Z</time>
      </trkpt>
      <trkpt lat="45.0331" lon="6.54664">
        <ele>1878.1</ele>
        <time>2013-08-30T07:10:44Z</time>
      </trkpt>
      <trkpt lat="45.03303" lon="6.5466">
        <ele>1877.6</ele>
        <time>2013-08-30T07:10:55Z</time>
      </trkpt>
      <trkpt lat="45.03297" lon="6.54666">
        <ele>1875.7</ele>
        <time>2013-08-30T07:11:07Z</time>
      </trkpt>
      <trkpt lat="45.03298" lon="6.54671">
        <ele>1875.2</ele>
        <time>2013-08-30T07:11:11Z</time>
      </trkpt>
      <trkpt lat="45.03298" lon="6.54672">
        <ele>1874.2</ele>
        <time>2013-08-30T07:11:16Z</time>
      </trkpt>
      <trkpt lat="45.03296" lon="6.54671">
        <ele>1873.8</ele>
        <time>2013-08-30T07:11:31Z</time>
      </trkpt>
      <trkpt lat="45.03298" lon="6.54676">
        <ele>1873.8</ele>
        <time>2013-08-30T07:12:01Z</time>
      </trkpt>
      <trkpt lat="45.03299" lon="6.54677">
        <ele>1873.8</ele>
        <time>2013-08-30T07:12:15Z</time>
      </trkpt>
      <trkpt lat="45.03295" lon="6.54676">
        <ele>1873.8</ele>
        <time>2013-08-30T07:12:39Z</time>
      </trkpt>
      <trkpt lat="45.033" lon="6.5468">
        <ele>1873.8</ele>
        <time>2013-08-30T07:13:04Z</time>
      </trkpt>
      <trkpt lat="45.03299" lon="6.54677">
        <ele>1874.2</ele>
        <time>2013-08-30T07:13:30Z</time>
      </trkpt>
      <trkpt lat="45.03295" lon="6.5468">
        <ele>1874.2</ele>
        <time>2013-08-30T07:13:52Z</time>
      </trkpt>
      <trkpt lat="45.03296" lon="6.54681">
        <ele>1874.2</ele>
        <time>2013-08-30T07:14:11Z</time>
      </trkpt>
      <trkpt lat="45.03297" lon="6.54676">
        <ele>1874.2</ele>
        <time>2013-08-30T07:14:28Z</time>
      </trkpt>
      <trkpt lat="45.033" lon="6.54677">
        <ele>1874.7</ele>
        <time>2013-08-30T07:14:46Z</time>
      </trkpt>
      <trkpt lat="45.03298" lon="6.54677">
        <ele>1874.2</ele>
        <time>2013-08-30T07:15:07Z</time>
      </trkpt>
      <trkpt lat="45.03295" lon="6.5468">
        <ele>1874.2</ele>
        <time>2013-08-30T07:15:22Z</time>
      </trkpt>
      <trkpt lat="45.03288" lon="6.54686">
        <ele>1874.2</ele>
        <time>2013-08-30T07:15:33Z</time>
      </trkpt>
      <trkpt lat="45.03281" lon="6.54695">
        <ele>1873.8</ele>
        <time>2013-08-30T07:15:47Z</time>
      </trkpt>
      <trkpt lat="45.03272" lon="6.54702">
        <ele>1873.8</ele>
        <time>2013-08-30T07:15:58Z</time>
      </trkpt>
      <trkpt lat="45.03271" lon="6.54703">
        <ele>1873.3</ele>
        <time>2013-08-30T07:15:59Z</time>
      </trkpt>
      <trkpt lat="45.03252" lon="6.54707">
        <ele>1873.8</ele>
        <time>2013-08-30T07:16:12Z</time>
      </trkpt>
      <trkpt lat="45.03248" lon="6.54709">
        <ele>1873.8</ele>
        <time>2013-08-30T07:16:18Z</time>
      </trkpt>
      <trkpt lat="45.03241" lon="6.54717">
        <ele>1873.8</ele>
        <time>2013-08-30T07:16:32Z</time>
      </trkpt>
      <trkpt lat="45.03239" lon="6.54722">
        <ele>1873.8</ele>
        <time>2013-08-30T07:16:38Z</time>
      </trkpt>
      <trkpt lat="45.03229" lon="6.54735">
        <ele>1872.8</ele>
        <time>2013-08-30T07:16:53Z</time>
      </trkpt>
      <trkpt lat="45.03216" lon="6.54746">
        <ele>1872.8</ele>
        <time>2013-08-30T07:17:06Z</time>
      </trkpt>
      <trkpt lat="45.03213" lon="6.54746">
        <ele>1873.3</ele>
        <time>2013-08-30T07:17:10Z</time>
      </trkpt>
      <trkpt lat="45.03197" lon="6.54766">
        <ele>1873.3</ele>
        <time>2013-08-30T07:17:22Z</time>
      </trkpt>
      <trkpt lat="45.03164" lon="6.5481">
        <ele>1872.3</ele>
        <time>2013-08-30T07:17:38Z</time>
      </trkpt>
      <trkpt lat="45.03154" lon="6.54826">
        <ele>1872.3</ele>
        <time>2013-08-30T07:17:45Z</time>
      </trkpt>
      <trkpt lat="45.03153" lon="6.54827">
        <ele>1872.3</ele>
        <time>2013-08-30T07:17:46Z</time>
      </trkpt>
      <trkpt lat="45.03152" lon="6.54827">
        <ele>1872.8</ele>
        <time>2013-08-30T07:17:47Z</time>
      </trkpt>
      <trkpt lat="45.03147" lon="6.54837">
        <ele>1872.8</ele>
        <time>2013-08-30T07:17:59Z</time>
      </trkpt>
      <trkpt lat="45.03145" lon="6.54838">
        <ele>1872.3</ele>
        <time>2013-08-30T07:18:05Z</time>
      </trkpt>
      <trkpt lat="45.03142" lon="6.54836">
        <ele>1872.8</ele>
        <time>2013-08-30T07:18:08Z</time>
      </trkpt>
      <trkpt lat="45.03132" lon="6.54833">
        <ele>1872.8</ele>
        <time>2013-08-30T07:18:13Z</time>
      </trkpt>
      <trkpt lat="45.03123" lon="6.54836">
        <ele>1873.8</ele>
        <time>2013-08-30T07:18:19Z</time>
      </trkpt>
      <trkpt lat="45.0312" lon="6.54838">
        <ele>1874.2</ele>
        <time>2013-08-30T07:18:21Z</time>
      </trkpt>
      <trkpt lat="45.03114" lon="6.54841">
        <ele>1874.2</ele>
        <time>2013-08-30T07:18:25Z</time>
      </trkpt>
      <trkpt lat="45.03098" lon="6.54854">
        <ele>1874.7</ele>
        <time>2013-08-30T07:18:36Z</time>
      </trkpt>
      <trkpt lat="45.03096" lon="6.54862">
        <ele>1874.2</ele>
        <time>2013-08-30T07:18:50Z</time>
      </trkpt>
      <trkpt lat="45.03093" lon="6.54883">
        <ele>1872.8</ele>
        <time>2013-08-30T07:19:00Z</time>
      </trkpt>
      <trkpt lat="45.03092" lon="6.54886">
        <ele>1872.8</ele>
        <time>2013-08-30T07:19:05Z</time>
      </trkpt>
      <trkpt lat="45.03092" lon="6.54889">
        <ele>1871.8</ele>
        <time>2013-08-30T07:19:18Z</time>
      </trkpt>
      <trkpt lat="45.0309" lon="6.549">
        <ele>1870.9</ele>
        <time>2013-08-30T07:19:31Z</time>
      </trkpt>
      <trkpt lat="45.03092" lon="6.54911">
        <ele>1869.4</ele>
        <time>2013-08-30T07:19:44Z</time>
      </trkpt>
      <trkpt lat="45.0309" lon="6.54926">
        <ele>1868.9</ele>
        <time>2013-08-30T07:20:00Z</time>
      </trkpt>
      <trkpt lat="45.03087" lon="6.5494">
        <ele>1868</ele>
        <time>2013-08-30T07:20:16Z</time>
      </trkpt>
      <trkpt lat="45.03086" lon="6.54951">
        <ele>1867</ele>
        <time>2013-08-30T07:20:30Z</time>
      </trkpt>
      <trkpt lat="45.03083" lon="6.54973">
        <ele>1867.5</ele>
        <time>2013-08-30T07:20:41Z</time>
      </trkpt>
      <trkpt lat="45.03083" lon="6.54981">
        <ele>1867.5</ele>
        <time>2013-08-30T07:20:45Z</time>
      </trkpt>
      <trkpt lat="45.03077" lon="6.54997">
        <ele>1868.5</ele>
        <time>2013-08-30T07:20:58Z</time>
      </trkpt>
      <trkpt lat="45.03077" lon="6.55001">
        <ele>1867.5</ele>
        <time>2013-08-30T07:21:15Z</time>
      </trkpt>
      <trkpt lat="45.03074" lon="6.55003">
        <ele>1867.5</ele>
        <time>2013-08-30T07:21:17Z</time>
      </trkpt>
      <trkpt lat="45.03071" lon="6.55003">
        <ele>1867.5</ele>
        <time>2013-08-30T07:21:18Z</time>
      </trkpt>
      <trkpt lat="45.03069" lon="6.55003">
        <ele>1867</ele>
        <time>2013-08-30T07:21:19Z</time>
      </trkpt>
      <trkpt lat="45.03067" lon="6.55003">
        <ele>1867</ele>
        <time>2013-08-30T07:21:20Z</time>
      </trkpt>
      <trkpt lat="45.03063" lon="6.55005">
        <ele>1867</ele>
        <time>2013-08-30T07:21:25Z</time>
      </trkpt>
      <trkpt lat="45.03062" lon="6.55005">
        <ele>1867</ele>
        <time>2013-08-30T07:21:26Z</time>
      </trkpt>
      <trkpt lat="45.03061" lon="6.55005">
        <ele>1867</ele>
        <time>2013-08-30T07:21:27Z</time>
      </trkpt>
      <trkpt lat="45.03059" lon="6.55006">
        <ele>1866.1</ele>
        <time>2013-08-30T07:21:28Z</time>
      </trkpt>
      <trkpt lat="45.03058" lon="6.55007">
        <ele>1866.5</ele>
        <time>2013-08-30T07:21:29Z</time>
      </trkpt>
      <trkpt lat="45.03056" lon="6.55008">
        <ele>1866.1</ele>
        <time>2013-08-30T07:21:30Z</time>
      </trkpt>
      <trkpt lat="45.03052" lon="6.55012">
        <ele>1866.1</ele>
        <time>2013-08-30T07:21:32Z</time>
      </trkpt>
      <trkpt lat="45.0305" lon="6.55015">
        <ele>1865.6</ele>
        <time>2013-08-30T07:21:33Z</time>
      </trkpt>
      <trkpt lat="45.03048" lon="6.55017">
        <ele>1865.1</ele>
        <time>2013-08-30T07:21:34Z</time>
      </trkpt>
      <trkpt lat="45.03047" lon="6.55019">
        <ele>1864.6</ele>
        <time>2013-08-30T07:21:35Z</time>
      </trkpt>
      <trkpt lat="45.03045" lon="6.55021">
        <ele>1864.6</ele>
        <time>2013-08-30T07:21:36Z</time>
      </trkpt>
      <trkpt lat="45.03044" lon="6.55041">
        <ele>1864.6</ele>
        <time>2013-08-30T07:21:44Z</time>
      </trkpt>
      <trkpt lat="45.0304" lon="6.55064">
        <ele>1863.7</ele>
        <time>2013-08-30T07:21:55Z</time>
      </trkpt>
      <trkpt lat="45.03031" lon="6.55089">
        <ele>1863.2</ele>
        <time>2013-08-30T07:22:04Z</time>
      </trkpt>
      <trkpt lat="45.03024" lon="6.55122">
        <ele>1860.3</ele>
        <time>2013-08-30T07:22:15Z</time>
      </trkpt>
      <trkpt lat="45.03023" lon="6.55125">
        <ele>1859.8</ele>
        <time>2013-08-30T07:22:19Z</time>
      </trkpt>
      <trkpt lat="45.03022" lon="6.55125">
        <ele>1860.3</ele>
        <time>2013-08-30T07:22:20Z</time>
      </trkpt>
      <trkpt lat="45.03009" lon="6.55137">
        <ele>1856</ele>
        <time>2013-08-30T07:22:26Z</time>
      </trkpt>
      <trkpt lat="45.02994" lon="6.55146">
        <ele>1854</ele>
        <time>2013-08-30T07:22:31Z</time>
      </trkpt>
      <trkpt lat="45.02986" lon="6.55151">
        <ele>1854</ele>
        <time>2013-08-30T07:22:33Z</time>
      </trkpt>
      <trkpt lat="45.02982" lon="6.55155">
        <ele>1854</ele>
        <time>2013-08-30T07:22:34Z</time>
      </trkpt>
      <trkpt lat="45.02968" lon="6.55171">
        <ele>1852.6</ele>
        <time>2013-08-30T07:22:39Z</time>
      </trkpt>
      <trkpt lat="45.02965" lon="6.55173">
        <ele>1853.1</ele>
        <time>2013-08-30T07:22:40Z</time>
      </trkpt>
      <trkpt lat="45.02949" lon="6.55178">
        <ele>1852.1</ele>
        <time>2013-08-30T07:22:48Z</time>
      </trkpt>
      <trkpt lat="45.02931" lon="6.55184">
        <ele>1850.2</ele>
        <time>2013-08-30T07:22:57Z</time>
      </trkpt>
      <trkpt lat="45.02915" lon="6.55221">
        <ele>1848.8</ele>
        <time>2013-08-30T07:23:08Z</time>
      </trkpt>
      <trkpt lat="45.02911" lon="6.55228">
        <ele>1848.8</ele>
        <time>2013-08-30T07:23:19Z</time>
      </trkpt>
      <trkpt lat="45.02909" lon="6.55227">
        <ele>1847.8</ele>
        <time>2013-08-30T07:23:21Z</time>
      </trkpt>
      <trkpt lat="45.02905" lon="6.55233">
        <ele>1847.3</ele>
        <time>2013-08-30T07:23:35Z</time>
      </trkpt>
      <trkpt lat="45.02897" lon="6.55237">
        <ele>1844.4</ele>
        <time>2013-08-30T07:23:50Z</time>
      </trkpt>
      <trkpt lat="45.02896" lon="6.55239">
        <ele>1844</ele>
        <time>2013-08-30T07:23:52Z</time>
      </trkpt>
      <trkpt lat="45.02889" lon="6.55249">
        <ele>1842.5</ele>
        <time>2013-08-30T07:24:03Z</time>
      </trkpt>
      <trkpt lat="45.02887" lon="6.55255">
        <ele>1841.5</ele>
        <time>2013-08-30T07:24:17Z</time>
      </trkpt>
      <trkpt lat="45.02886" lon="6.55255">
        <ele>1841.1</ele>
        <time>2013-08-30T07:24:18Z</time>
      </trkpt>
      <trkpt lat="45.02885" lon="6.55257">
        <ele>1841.5</ele>
        <time>2013-08-30T07:24:19Z</time>
      </trkpt>
      <trkpt lat="45.02883" lon="6.55258">
        <ele>1840.1</ele>
        <time>2013-08-30T07:24:20Z</time>
      </trkpt>
      <trkpt lat="45.02881" lon="6.55259">
        <ele>1840.1</ele>
        <time>2013-08-30T07:24:21Z</time>
      </trkpt>
      <trkpt lat="45.02879" lon="6.55261">
        <ele>1839.6</ele>
        <time>2013-08-30T07:24:22Z</time>
      </trkpt>
      <trkpt lat="45.02877" lon="6.55263">
        <ele>1839.6</ele>
        <time>2013-08-30T07:24:23Z</time>
      </trkpt>
      <trkpt lat="45.02875" lon="6.55265">
        <ele>1839.1</ele>
        <time>2013-08-30T07:24:24Z</time>
      </trkpt>
      <trkpt lat="45.02873" lon="6.55268">
        <ele>1838.7</ele>
        <time>2013-08-30T07:24:25Z</time>
      </trkpt>
      <trkpt lat="45.02871" lon="6.55271">
        <ele>1838.7</ele>
        <time>2013-08-30T07:24:26Z</time>
      </trkpt>
      <trkpt lat="45.02868" lon="6.55273">
        <ele>1838.7</ele>
        <time>2013-08-30T07:24:27Z</time>
      </trkpt>
      <trkpt lat="45.02865" lon="6.55276">
        <ele>1838.2</ele>
        <time>2013-08-30T07:24:28Z</time>
      </trkpt>
      <trkpt lat="45.02856" lon="6.55286">
        <ele>1836.3</ele>
        <time>2013-08-30T07:24:31Z</time>
      </trkpt>
      <trkpt lat="45.0285" lon="6.55292">
        <ele>1836.3</ele>
        <time>2013-08-30T07:24:33Z</time>
      </trkpt>
      <trkpt lat="45.02846" lon="6.55294">
        <ele>1836.3</ele>
        <time>2013-08-30T07:24:34Z</time>
      </trkpt>
      <trkpt lat="45.02807" lon="6.55317">
        <ele>1835.3</ele>
        <time>2013-08-30T07:24:46Z</time>
      </trkpt>
      <trkpt lat="45.02788" lon="6.55337">
        <ele>1836.3</ele>
        <time>2013-08-30T07:24:57Z</time>
      </trkpt>
      <trkpt lat="45.02787" lon="6.55336">
        <ele>1836.7</ele>
        <time>2013-08-30T07:24:59Z</time>
      </trkpt>
      <trkpt lat="45.02787" lon="6.55336">
        <ele>1836.7</ele>
        <time>2013-08-30T07:25:00Z</time>
      </trkpt>
      <trkpt lat="45.02786" lon="6.55337">
        <ele>1837.2</ele>
        <time>2013-08-30T07:25:01Z</time>
      </trkpt>
      <trkpt lat="45.02781" lon="6.55343">
        <ele>1837.2</ele>
        <time>2013-08-30T07:25:06Z</time>
      </trkpt>
      <trkpt lat="45.02768" lon="6.55375">
        <ele>1837.2</ele>
        <time>2013-08-30T07:25:16Z</time>
      </trkpt>
      <trkpt lat="45.02765" lon="6.55381">
        <ele>1837.2</ele>
        <time>2013-08-30T07:25:18Z</time>
      </trkpt>
      <trkpt lat="45.02763" lon="6.55383">
        <ele>1836.7</ele>
        <time>2013-08-30T07:25:19Z</time>
      </trkpt>
      <trkpt lat="45.02761" lon="6.55385">
        <ele>1838.2</ele>
        <time>2013-08-30T07:25:20Z</time>
      </trkpt>
      <trkpt lat="45.02759" lon="6.55387">
        <ele>1837.2</ele>
        <time>2013-08-30T07:25:21Z</time>
      </trkpt>
      <trkpt lat="45.02757" lon="6.55389">
        <ele>1837.7</ele>
        <time>2013-08-30T07:25:22Z</time>
      </trkpt>
      <trkpt lat="45.02756" lon="6.55391">
        <ele>1837.2</ele>
        <time>2013-08-30T07:25:23Z</time>
      </trkpt>
      <trkpt lat="45.02755" lon="6.55394">
        <ele>1837.2</ele>
        <time>2013-08-30T07:25:24Z</time>
      </trkpt>
      <trkpt lat="45.02735" lon="6.5543">
        <ele>1837.7</ele>
        <time>2013-08-30T07:25:38Z</time>
      </trkpt>
      <trkpt lat="45.02731" lon="6.55435">
        <ele>1838.2</ele>
        <time>2013-08-30T07:25:41Z</time>
      </trkpt>
      <trkpt lat="45.02724" lon="6.55445">
        <ele>1839.6</ele>
        <time>2013-08-30T07:25:53Z</time>
      </trkpt>
      <trkpt lat="45.02723" lon="6.5545">
        <ele>1839.6</ele>
        <time>2013-08-30T07:25:56Z</time>
      </trkpt>
      <trkpt lat="45.02723" lon="6.55452">
        <ele>1839.1</ele>
        <time>2013-08-30T07:25:57Z</time>
      </trkpt>
      <trkpt lat="45.02715" lon="6.55482">
        <ele>1837.7</ele>
        <time>2013-08-30T07:26:08Z</time>
      </trkpt>
      <trkpt lat="45.0271" lon="6.55522">
        <ele>1835.3</ele>
        <time>2013-08-30T07:26:18Z</time>
      </trkpt>
      <trkpt lat="45.02714" lon="6.55538">
        <ele>1836.3</ele>
        <time>2013-08-30T07:26:28Z</time>
      </trkpt>
      <trkpt lat="45.02721" lon="6.55543">
        <ele>1835.3</ele>
        <time>2013-08-30T07:26:51Z</time>
      </trkpt>
      <trkpt lat="45.02722" lon="6.55545">
        <ele>1835.3</ele>
        <time>2013-08-30T07:26:52Z</time>
      </trkpt>
      <trkpt lat="45.02726" lon="6.55551">
        <ele>1833.4</ele>
        <time>2013-08-30T07:26:56Z</time>
      </trkpt>
      <trkpt lat="45.02726" lon="6.55554">
        <ele>1832.9</ele>
        <time>2013-08-30T07:26:57Z</time>
      </trkpt>
      <trkpt lat="45.02721" lon="6.55575">
        <ele>1832.4</ele>
        <time>2013-08-30T07:27:06Z</time>
      </trkpt>
      <trkpt lat="45.02716" lon="6.55608">
        <ele>1832.9</ele>
        <time>2013-08-30T07:27:16Z</time>
      </trkpt>
      <trkpt lat="45.02704" lon="6.55643">
        <ele>1832.4</ele>
        <time>2013-08-30T07:27:26Z</time>
      </trkpt>
      <trkpt lat="45.02699" lon="6.55677">
        <ele>1834.3</ele>
        <time>2013-08-30T07:27:37Z</time>
      </trkpt>
      <trkpt lat="45.02686" lon="6.5572">
        <ele>1833.9</ele>
        <time>2013-08-30T07:27:47Z</time>
      </trkpt>
      <trkpt lat="45.02676" lon="6.55759">
        <ele>1834.3</ele>
        <time>2013-08-30T07:27:57Z</time>
      </trkpt>
      <trkpt lat="45.02655" lon="6.55787">
        <ele>1833.9</ele>
        <time>2013-08-30T07:28:09Z</time>
      </trkpt>
      <trkpt lat="45.02625" lon="6.55814">
        <ele>1834.3</ele>
        <time>2013-08-30T07:28:19Z</time>
      </trkpt>
      <trkpt lat="45.02609" lon="6.55851">
        <ele>1833.4</ele>
        <time>2013-08-30T07:28:30Z</time>
      </trkpt>
      <trkpt lat="45.02588" lon="6.55883">
        <ele>1834.8</ele>
        <time>2013-08-30T07:28:43Z</time>
      </trkpt>
      <trkpt lat="45.02574" lon="6.55904">
        <ele>1831.5</ele>
        <time>2013-08-30T07:28:53Z</time>
      </trkpt>
      <trkpt lat="45.02562" lon="6.55943">
        <ele>1830.5</ele>
        <time>2013-08-30T07:29:01Z</time>
      </trkpt>
      <trkpt lat="45.02535" lon="6.56003">
        <ele>1831</ele>
        <time>2013-08-30T07:29:08Z</time>
      </trkpt>
      <trkpt lat="45.02485" lon="6.56055">
        <ele>1832.4</ele>
        <time>2013-08-30T07:29:21Z</time>
      </trkpt>
      <trkpt lat="45.02529" lon="6.56118">
        <ele>1832.9</ele>
        <time>2013-08-30T07:29:32Z</time>
      </trkpt>
      <trkpt lat="45.02527" lon="6.56123">
        <ele>1832.4</ele>
        <time>2013-08-30T07:29:33Z</time>
      </trkpt>
      <trkpt lat="45.02504" lon="6.56177">
        <ele>1831.9</ele>
        <time>2013-08-30T07:29:46Z</time>
      </trkpt>
      <trkpt lat="45.02468" lon="6.56214">
        <ele>1831.5</ele>
        <time>2013-08-30T07:29:57Z</time>
      </trkpt>
      <trkpt lat="45.02465" lon="6.56219">
        <ele>1831</ele>
        <time>2013-08-30T07:29:58Z</time>
      </trkpt>
      <trkpt lat="45.02463" lon="6.56223">
        <ele>1831.5</ele>
        <time>2013-08-30T07:29:59Z</time>
      </trkpt>
      <trkpt lat="45.0246" lon="6.56228">
        <ele>1831</ele>
        <time>2013-08-30T07:30:00Z</time>
      </trkpt>
      <trkpt lat="45.02457" lon="6.56232">
        <ele>1830.5</ele>
        <time>2013-08-30T07:30:01Z</time>
      </trkpt>
      <trkpt lat="45.02454" lon="6.56235">
        <ele>1831</ele>
        <time>2013-08-30T07:30:02Z</time>
      </trkpt>
      <trkpt lat="45.02451" lon="6.56239">
        <ele>1831</ele>
        <time>2013-08-30T07:30:03Z</time>
      </trkpt>
      <trkpt lat="45.02449" lon="6.56242">
        <ele>1831</ele>
        <time>2013-08-30T07:30:04Z</time>
      </trkpt>
      <trkpt lat="45.02433" lon="6.56267">
        <ele>1830.5</ele>
        <time>2013-08-30T07:30:10Z</time>
      </trkpt>
      <trkpt lat="45.02431" lon="6.5627">
        <ele>1830</ele>
        <time>2013-08-30T07:30:11Z</time>
      </trkpt>
      <trkpt lat="45.02399" lon="6.56291">
        <ele>1829.1</ele>
        <time>2013-08-30T07:30:22Z</time>
      </trkpt>
      <trkpt lat="45.02391" lon="6.56311">
        <ele>1830.5</ele>
        <time>2013-08-30T07:30:30Z</time>
      </trkpt>
      <trkpt lat="45.02384" lon="6.56355">
        <ele>1828.6</ele>
        <time>2013-08-30T07:30:40Z</time>
      </trkpt>
      <trkpt lat="45.02383" lon="6.56365">
        <ele>1828.1</ele>
        <time>2013-08-30T07:30:42Z</time>
      </trkpt>
      <trkpt lat="45.02383" lon="6.56371">
        <ele>1828.1</ele>
        <time>2013-08-30T07:30:43Z</time>
      </trkpt>
      <trkpt lat="45.02384" lon="6.56376">
        <ele>1827.6</ele>
        <time>2013-08-30T07:30:44Z</time>
      </trkpt>
      <trkpt lat="45.02397" lon="6.56448">
        <ele>1827.1</ele>
        <time>2013-08-30T07:30:56Z</time>
      </trkpt>
      <trkpt lat="45.02395" lon="6.56454">
        <ele>1827.1</ele>
        <time>2013-08-30T07:31:05Z</time>
      </trkpt>
      <trkpt lat="45.02398" lon="6.56458">
        <ele>1827.6</ele>
        <time>2013-08-30T07:31:29Z</time>
      </trkpt>
      <trkpt lat="45.02397" lon="6.56458">
        <ele>1825.2</ele>
        <time>2013-08-30T07:31:38Z</time>
      </trkpt>
      <trkpt lat="45.02397" lon="6.56459">
        <ele>1828.1</ele>
        <time>2013-08-30T07:31:39Z</time>
      </trkpt>
      <trkpt lat="45.02397" lon="6.56459">
        <ele>1826.6</ele>
        <time>2013-08-30T07:31:40Z</time>
      </trkpt>
      <trkpt lat="45.02394" lon="6.56456">
        <ele>1826.6</ele>
        <time>2013-08-30T07:31:59Z</time>
      </trkpt>
      <trkpt lat="45.02393" lon="6.56456">
        <ele>1826.6</ele>
        <time>2013-08-30T07:32:00Z</time>
      </trkpt>
      <trkpt lat="45.02391" lon="6.56455">
        <ele>1826.6</ele>
        <time>2013-08-30T07:32:01Z</time>
      </trkpt>
      <trkpt lat="45.0239" lon="6.56454">
        <ele>1826.6</ele>
        <time>2013-08-30T07:32:02Z</time>
      </trkpt>
      <trkpt lat="45.02388" lon="6.56454">
        <ele>1826.6</ele>
        <time>2013-08-30T07:32:03Z</time>
      </trkpt>
      <trkpt lat="45.02386" lon="6.56454">
        <ele>1826.6</ele>
        <time>2013-08-30T07:32:04Z</time>
      </trkpt>
      <trkpt lat="45.02385" lon="6.56454">
        <ele>1827.1</ele>
        <time>2013-08-30T07:32:05Z</time>
      </trkpt>
      <trkpt lat="45.02383" lon="6.56455">
        <ele>1827.6</ele>
        <time>2013-08-30T07:32:06Z</time>
      </trkpt>
      <trkpt lat="45.02382" lon="6.56456">
        <ele>1827.6</ele>
        <time>2013-08-30T07:32:07Z</time>
      </trkpt>
      <trkpt lat="45.0238" lon="6.56457">
        <ele>1828.6</ele>
        <time>2013-08-30T07:32:08Z</time>
      </trkpt>
      <trkpt lat="45.02379" lon="6.56457">
        <ele>1828.6</ele>
        <time>2013-08-30T07:32:09Z</time>
      </trkpt>
      <trkpt lat="45.02378" lon="6.56456">
        <ele>1828.1</ele>
        <time>2013-08-30T07:32:10Z</time>
      </trkpt>
      <trkpt lat="45.02376" lon="6.56456">
        <ele>1828.6</ele>
        <time>2013-08-30T07:32:11Z</time>
      </trkpt>
      <trkpt lat="45.02375" lon="6.56456">
        <ele>1829.1</ele>
        <time>2013-08-30T07:32:12Z</time>
      </trkpt>
      <trkpt lat="45.02355" lon="6.56456">
        <ele>1830</ele>
        <time>2013-08-30T07:32:24Z</time>
      </trkpt>
      <trkpt lat="45.02341" lon="6.56459">
        <ele>1831.5</ele>
        <time>2013-08-30T07:32:33Z</time>
      </trkpt>
      <trkpt lat="45.02339" lon="6.56458">
        <ele>1831.5</ele>
        <time>2013-08-30T07:32:35Z</time>
      </trkpt>
      <trkpt lat="45.02331" lon="6.56458">
        <ele>1831.9</ele>
        <time>2013-08-30T07:32:41Z</time>
      </trkpt>
      <trkpt lat="45.02304" lon="6.56469">
        <ele>1832.4</ele>
        <time>2013-08-30T07:32:55Z</time>
      </trkpt>
      <trkpt lat="45.02295" lon="6.56474">
        <ele>1832.9</ele>
        <time>2013-08-30T07:33:01Z</time>
      </trkpt>
      <trkpt lat="45.02294" lon="6.56476">
        <ele>1832.4</ele>
        <time>2013-08-30T07:33:02Z</time>
      </trkpt>
      <trkpt lat="45.02294" lon="6.56478">
        <ele>1832.4</ele>
        <time>2013-08-30T07:33:03Z</time>
      </trkpt>
      <trkpt lat="45.0228" lon="6.56495">
        <ele>1831</ele>
        <time>2013-08-30T07:33:16Z</time>
      </trkpt>
      <trkpt lat="45.02259" lon="6.56518">
        <ele>1830.5</ele>
        <time>2013-08-30T07:33:29Z</time>
      </trkpt>
      <trkpt lat="45.02235" lon="6.56547">
        <ele>1830</ele>
        <time>2013-08-30T07:33:40Z</time>
      </trkpt>
      <trkpt lat="45.02203" lon="6.56578">
        <ele>1830.5</ele>
        <time>2013-08-30T07:33:52Z</time>
      </trkpt>
      <trkpt lat="45.02226" lon="6.56591">
        <ele>1830.5</ele>
        <time>2013-08-30T07:34:03Z</time>
      </trkpt>
      <trkpt lat="45.02234" lon="6.56594">
        <ele>1830.5</ele>
        <time>2013-08-30T07:34:32Z</time>
      </trkpt>
      <trkpt lat="45.02242" lon="6.56597">
        <ele>1831</ele>
        <time>2013-08-30T07:34:53Z</time>
      </trkpt>
      <trkpt lat="45.02242" lon="6.56597">
        <ele>1831.9</ele>
        <time>2013-08-30T07:35:00Z</time>
      </trkpt>
      <trkpt lat="45.02237" lon="6.56608">
        <ele>1833.9</ele>
        <time>2013-08-30T07:35:14Z</time>
      </trkpt>
      <trkpt lat="45.02228" lon="6.56618">
        <ele>1835.8</ele>
        <time>2013-08-30T07:35:27Z</time>
      </trkpt>
      <trkpt lat="45.02224" lon="6.56627">
        <ele>1837.2</ele>
        <time>2013-08-30T07:35:37Z</time>
      </trkpt>
      <trkpt lat="45.02225" lon="6.5664">
        <ele>1837.7</ele>
        <time>2013-08-30T07:35:49Z</time>
      </trkpt>
      <trkpt lat="45.02224" lon="6.56642">
        <ele>1837.7</ele>
        <time>2013-08-30T07:35:51Z</time>
      </trkpt>
      <trkpt lat="45.02224" lon="6.56653">
        <ele>1838.2</ele>
        <time>2013-08-30T07:36:00Z</time>
      </trkpt>
      <trkpt lat="45.02224" lon="6.56655">
        <ele>1837.7</ele>
        <time>2013-08-30T07:36:01Z</time>
      </trkpt>
      <trkpt lat="45.02216" lon="6.5668">
        <ele>1836.3</ele>
        <time>2013-08-30T07:36:10Z</time>
      </trkpt>
      <trkpt lat="45.02215" lon="6.56682">
        <ele>1836.7</ele>
        <time>2013-08-30T07:36:11Z</time>
      </trkpt>
      <trkpt lat="45.02213" lon="6.56683">
        <ele>1836.7</ele>
        <time>2013-08-30T07:36:12Z</time>
      </trkpt>
      <trkpt lat="45.02195" lon="6.56701">
        <ele>1838.7</ele>
        <time>2013-08-30T07:36:25Z</time>
      </trkpt>
      <trkpt lat="45.02188" lon="6.56718">
        <ele>1836.7</ele>
        <time>2013-08-30T07:36:30Z</time>
      </trkpt>
      <trkpt lat="45.02182" lon="6.56736">
        <ele>1833.9</ele>
        <time>2013-08-30T07:36:36Z</time>
      </trkpt>
      <trkpt lat="45.02176" lon="6.56758">
        <ele>1830</ele>
        <time>2013-08-30T07:36:42Z</time>
      </trkpt>
      <trkpt lat="45.02172" lon="6.56765">
        <ele>1828.6</ele>
        <time>2013-08-30T07:36:45Z</time>
      </trkpt>
      <trkpt lat="45.02152" lon="6.56783">
        <ele>1825.2</ele>
        <time>2013-08-30T07:36:51Z</time>
      </trkpt>
      <trkpt lat="45.02145" lon="6.5679">
        <ele>1824.2</ele>
        <time>2013-08-30T07:36:53Z</time>
      </trkpt>
      <trkpt lat="45.0212" lon="6.56828">
        <ele>1821.4</ele>
        <time>2013-08-30T07:37:04Z</time>
      </trkpt>
      <trkpt lat="45.0211" lon="6.56848">
        <ele>1819</ele>
        <time>2013-08-30T07:37:10Z</time>
      </trkpt>
      <trkpt lat="45.0211" lon="6.56862">
        <ele>1817</ele>
        <time>2013-08-30T07:37:19Z</time>
      </trkpt>
      <trkpt lat="45.02111" lon="6.56869">
        <ele>1816.6</ele>
        <time>2013-08-30T07:37:25Z</time>
      </trkpt>
      <trkpt lat="45.02112" lon="6.56873">
        <ele>1816.1</ele>
        <time>2013-08-30T07:37:31Z</time>
      </trkpt>
      <trkpt lat="45.02112" lon="6.56875">
        <ele>1816.6</ele>
        <time>2013-08-30T07:37:32Z</time>
      </trkpt>
      <trkpt lat="45.02107" lon="6.56889">
        <ele>1814.2</ele>
        <time>2013-08-30T07:37:37Z</time>
      </trkpt>
      <trkpt lat="45.02106" lon="6.56892">
        <ele>1814.2</ele>
        <time>2013-08-30T07:37:38Z</time>
      </trkpt>
      <trkpt lat="45.02107" lon="6.56896">
        <ele>1814.2</ele>
        <time>2013-08-30T07:37:39Z</time>
      </trkpt>
      <trkpt lat="45.02116" lon="6.56911">
        <ele>1814.6</ele>
        <time>2013-08-30T07:37:44Z</time>
      </trkpt>
      <trkpt lat="45.02118" lon="6.5693">
        <ele>1814.2</ele>
        <time>2013-08-30T07:37:51Z</time>
      </trkpt>
      <trkpt lat="45.0211" lon="6.56972">
        <ele>1814.6</ele>
        <time>2013-08-30T07:38:02Z</time>
      </trkpt>
      <trkpt lat="45.02091" lon="6.57008">
        <ele>1815.1</ele>
        <time>2013-08-30T07:38:15Z</time>
      </trkpt>
      <trkpt lat="45.02091" lon="6.57009">
        <ele>1815.1</ele>
        <time>2013-08-30T07:38:16Z</time>
      </trkpt>
      <trkpt lat="45.0209" lon="6.5701">
        <ele>1814.6</ele>
        <time>2013-08-30T07:38:17Z</time>
      </trkpt>
      <trkpt lat="45.02072" lon="6.57022">
        <ele>1812.2</ele>
        <time>2013-08-30T07:38:22Z</time>
      </trkpt>
      <trkpt lat="45.02069" lon="6.57026">
        <ele>1812.2</ele>
        <time>2013-08-30T07:38:23Z</time>
      </trkpt>
      <trkpt lat="45.02066" lon="6.57031">
        <ele>1812.2</ele>
        <time>2013-08-30T07:38:24Z</time>
      </trkpt>
      <trkpt lat="45.02065" lon="6.57039">
        <ele>1811.7</ele>
        <time>2013-08-30T07:38:25Z</time>
      </trkpt>
      <trkpt lat="45.02064" lon="6.57056">
        <ele>1810.3</ele>
        <time>2013-08-30T07:38:27Z</time>
      </trkpt>
      <trkpt lat="45.02062" lon="6.57063">
        <ele>1810.3</ele>
        <time>2013-08-30T07:38:28Z</time>
      </trkpt>
      <trkpt lat="45.02061" lon="6.5708">
        <ele>1807.9</ele>
        <time>2013-08-30T07:38:30Z</time>
      </trkpt>
      <trkpt lat="45.02059" lon="6.57089">
        <ele>1807.9</ele>
        <time>2013-08-30T07:38:31Z</time>
      </trkpt>
      <trkpt lat="45.02058" lon="6.57104">
        <ele>1806.5</ele>
        <time>2013-08-30T07:38:33Z</time>
      </trkpt>
      <trkpt lat="45.02057" lon="6.57111">
        <ele>1806</ele>
        <time>2013-08-30T07:38:34Z</time>
      </trkpt>
      <trkpt lat="45.02057" lon="6.57117">
        <ele>1805.5</ele>
        <time>2013-08-30T07:38:35Z</time>
      </trkpt>
      <trkpt lat="45.02057" lon="6.57125">
        <ele>1805.5</ele>
        <time>2013-08-30T07:38:36Z</time>
      </trkpt>
      <trkpt lat="45.02061" lon="6.57136">
        <ele>1804.5</ele>
        <time>2013-08-30T07:38:37Z</time>
      </trkpt>
      <trkpt lat="45.02061" lon="6.57142">
        <ele>1804.5</ele>
        <time>2013-08-30T07:38:38Z</time>
      </trkpt>
      <trkpt lat="45.02061" lon="6.57149">
        <ele>1804.1</ele>
        <time>2013-08-30T07:38:39Z</time>
      </trkpt>
      <trkpt lat="45.02061" lon="6.57155">
        <ele>1803.6</ele>
        <time>2013-08-30T07:38:40Z</time>
      </trkpt>
      <trkpt lat="45.02061" lon="6.57161">
        <ele>1803.6</ele>
        <time>2013-08-30T07:38:41Z</time>
      </trkpt>
      <trkpt lat="45.02059" lon="6.57171">
        <ele>1804.1</ele>
        <time>2013-08-30T07:38:43Z</time>
      </trkpt>
      <trkpt lat="45.02057" lon="6.57175">
        <ele>1803.6</ele>
        <time>2013-08-30T07:38:44Z</time>
      </trkpt>
      <trkpt lat="45.02055" lon="6.57178">
        <ele>1803.6</ele>
        <time>2013-08-30T07:38:45Z</time>
      </trkpt>
      <trkpt lat="45.02054" lon="6.57182">
        <ele>1803.6</ele>
        <time>2013-08-30T07:38:46Z</time>
      </trkpt>
      <trkpt lat="45.02053" lon="6.57186">
        <ele>1803.1</ele>
        <time>2013-08-30T07:38:47Z</time>
      </trkpt>
      <trkpt lat="45.02051" lon="6.57189">
        <ele>1803.1</ele>
        <time>2013-08-30T07:38:48Z</time>
      </trkpt>
      <trkpt lat="45.02048" lon="6.57192">
        <ele>1803.6</ele>
        <time>2013-08-30T07:38:49Z</time>
      </trkpt>
      <trkpt lat="45.02045" lon="6.57195">
        <ele>1803.1</ele>
        <time>2013-08-30T07:38:50Z</time>
      </trkpt>
      <trkpt lat="45.02043" lon="6.57199">
        <ele>1802.6</ele>
        <time>2013-08-30T07:38:51Z</time>
      </trkpt>
      <trkpt lat="45.02033" lon="6.57214">
        <ele>1802.6</ele>
        <time>2013-08-30T07:38:55Z</time>
      </trkpt>
      <trkpt lat="45.0203" lon="6.57215">
        <ele>1802.1</ele>
        <time>2013-08-30T07:38:56Z</time>
      </trkpt>
      <trkpt lat="45.02029" lon="6.57215">
        <ele>1801.7</ele>
        <time>2013-08-30T07:38:57Z</time>
      </trkpt>
      <trkpt lat="45.02028" lon="6.57218">
        <ele>1802.1</ele>
        <time>2013-08-30T07:38:58Z</time>
      </trkpt>
      <trkpt lat="45.02027" lon="6.5722">
        <ele>1802.1</ele>
        <time>2013-08-30T07:38:59Z</time>
      </trkpt>
      <trkpt lat="45.02027" lon="6.57221">
        <ele>1802.6</ele>
        <time>2013-08-30T07:39:00Z</time>
      </trkpt>
      <trkpt lat="45.02026" lon="6.57223">
        <ele>1802.6</ele>
        <time>2013-08-30T07:39:01Z</time>
      </trkpt>
      <trkpt lat="45.02024" lon="6.57224">
        <ele>1802.6</ele>
        <time>2013-08-30T07:39:02Z</time>
      </trkpt>
      <trkpt lat="45.02018" lon="6.57243">
        <ele>1805</ele>
        <time>2013-08-30T07:39:15Z</time>
      </trkpt>
      <trkpt lat="45.0202" lon="6.57256">
        <ele>1805</ele>
        <time>2013-08-30T07:39:28Z</time>
      </trkpt>
      <trkpt lat="45.02016" lon="6.57269">
        <ele>1805.5</ele>
        <time>2013-08-30T07:39:40Z</time>
      </trkpt>
      <trkpt lat="45.02016" lon="6.57269">
        <ele>1805</ele>
        <time>2013-08-30T07:39:41Z</time>
      </trkpt>
      <trkpt lat="45.02011" lon="6.57275">
        <ele>1805.5</ele>
        <time>2013-08-30T07:39:45Z</time>
      </trkpt>
      <trkpt lat="45.0201" lon="6.57278">
        <ele>1805.5</ele>
        <time>2013-08-30T07:39:46Z</time>
      </trkpt>
      <trkpt lat="45.02001" lon="6.57324">
        <ele>1807.4</ele>
        <time>2013-08-30T07:40:01Z</time>
      </trkpt>
      <trkpt lat="45.01994" lon="6.57336">
        <ele>1808.4</ele>
        <time>2013-08-30T07:40:09Z</time>
      </trkpt>
      <trkpt lat="45.01991" lon="6.57338">
        <ele>1807.9</ele>
        <time>2013-08-30T07:40:10Z</time>
      </trkpt>
      <trkpt lat="45.01989" lon="6.57341">
        <ele>1806.9</ele>
        <time>2013-08-30T07:40:11Z</time>
      </trkpt>
      <trkpt lat="45.01988" lon="6.57346">
        <ele>1806.9</ele>
        <time>2013-08-30T07:40:12Z</time>
      </trkpt>
      <trkpt lat="45.01986" lon="6.57351">
        <ele>1806.5</ele>
        <time>2013-08-30T07:40:13Z</time>
      </trkpt>
      <trkpt lat="45.01984" lon="6.57356">
        <ele>1806.5</ele>
        <time>2013-08-30T07:40:14Z</time>
      </trkpt>
      <trkpt lat="45.01982" lon="6.57361">
        <ele>1806.5</ele>
        <time>2013-08-30T07:40:15Z</time>
      </trkpt>
      <trkpt lat="45.0198" lon="6.57366">
        <ele>1806.5</ele>
        <time>2013-08-30T07:40:16Z</time>
      </trkpt>
      <trkpt lat="45.01978" lon="6.5737">
        <ele>1806.5</ele>
        <time>2013-08-30T07:40:17Z</time>
      </trkpt>
      <trkpt lat="45.01976" lon="6.57373">
        <ele>1806</ele>
        <time>2013-08-30T07:40:18Z</time>
      </trkpt>
      <trkpt lat="45.01974" lon="6.57376">
        <ele>1806</ele>
        <time>2013-08-30T07:40:19Z</time>
      </trkpt>
      <trkpt lat="45.01971" lon="6.57378">
        <ele>1806.5</ele>
        <time>2013-08-30T07:40:20Z</time>
      </trkpt>
      <trkpt lat="45.01952" lon="6.57393">
        <ele>1806</ele>
        <time>2013-08-30T07:40:28Z</time>
      </trkpt>
      <trkpt lat="45.01949" lon="6.57394">
        <ele>1806</ele>
        <time>2013-08-30T07:40:29Z</time>
      </trkpt>
      <trkpt lat="45.01946" lon="6.57397">
        <ele>1805.5</ele>
        <time>2013-08-30T07:40:30Z</time>
      </trkpt>
      <trkpt lat="45.01922" lon="6.57411">
        <ele>1804.1</ele>
        <time>2013-08-30T07:40:40Z</time>
      </trkpt>
      <trkpt lat="45.0192" lon="6.57408">
        <ele>1803.6</ele>
        <time>2013-08-30T07:40:50Z</time>
      </trkpt>
      <trkpt lat="45.01911" lon="6.57408">
        <ele>1804.1</ele>
        <time>2013-08-30T07:40:58Z</time>
      </trkpt>
      <trkpt lat="45.01909" lon="6.57409">
        <ele>1804.1</ele>
        <time>2013-08-30T07:40:59Z</time>
      </trkpt>
      <trkpt lat="45.01907" lon="6.5741">
        <ele>1803.6</ele>
        <time>2013-08-30T07:41:00Z</time>
      </trkpt>
      <trkpt lat="45.01905" lon="6.5741">
        <ele>1804.1</ele>
        <time>2013-08-30T07:41:01Z</time>
      </trkpt>
      <trkpt lat="45.01904" lon="6.57411">
        <ele>1804.1</ele>
        <time>2013-08-30T07:41:02Z</time>
      </trkpt>
      <trkpt lat="45.01884" lon="6.57417">
        <ele>1802.1</ele>
        <time>2013-08-30T07:41:16Z</time>
      </trkpt>
      <trkpt lat="45.01876" lon="6.57425">
        <ele>1802.6</ele>
        <time>2013-08-30T07:41:29Z</time>
      </trkpt>
      <trkpt lat="45.01875" lon="6.57435">
        <ele>1803.6</ele>
        <time>2013-08-30T07:41:38Z</time>
      </trkpt>
      <trkpt lat="45.01877" lon="6.57443">
        <ele>1803.1</ele>
        <time>2013-08-30T07:41:50Z</time>
      </trkpt>
      <trkpt lat="45.01876" lon="6.57445">
        <ele>1803.1</ele>
        <time>2013-08-30T07:41:51Z</time>
      </trkpt>
      <trkpt lat="45.01876" lon="6.5745">
        <ele>1802.6</ele>
        <time>2013-08-30T07:41:53Z</time>
      </trkpt>
      <trkpt lat="45.01875" lon="6.57453">
        <ele>1802.6</ele>
        <time>2013-08-30T07:41:54Z</time>
      </trkpt>
      <trkpt lat="45.01873" lon="6.57456">
        <ele>1802.6</ele>
        <time>2013-08-30T07:41:55Z</time>
      </trkpt>
      <trkpt lat="45.01872" lon="6.57459">
        <ele>1803.1</ele>
        <time>2013-08-30T07:41:56Z</time>
      </trkpt>
      <trkpt lat="45.01872" lon="6.57462">
        <ele>1802.6</ele>
        <time>2013-08-30T07:41:57Z</time>
      </trkpt>
      <trkpt lat="45.01867" lon="6.57471">
        <ele>1801.2</ele>
        <time>2013-08-30T07:42:00Z</time>
      </trkpt>
      <trkpt lat="45.01856" lon="6.57491">
        <ele>1799.2</ele>
        <time>2013-08-30T07:42:06Z</time>
      </trkpt>
      <trkpt lat="45.01857" lon="6.5751">
        <ele>1798.3</ele>
        <time>2013-08-30T07:42:09Z</time>
      </trkpt>
      <trkpt lat="45.01858" lon="6.57558">
        <ele>1795.4</ele>
        <time>2013-08-30T07:42:16Z</time>
      </trkpt>
      <trkpt lat="45.01859" lon="6.57565">
        <ele>1795.4</ele>
        <time>2013-08-30T07:42:17Z</time>
      </trkpt>
      <trkpt lat="45.01861" lon="6.57573">
        <ele>1794.4</ele>
        <time>2013-08-30T07:42:18Z</time>
      </trkpt>
      <trkpt lat="45.01864" lon="6.57581">
        <ele>1794</ele>
        <time>2013-08-30T07:42:19Z</time>
      </trkpt>
      <trkpt lat="45.01866" lon="6.57587">
        <ele>1793</ele>
        <time>2013-08-30T07:42:20Z</time>
      </trkpt>
      <trkpt lat="45.01867" lon="6.57592">
        <ele>1791.6</ele>
        <time>2013-08-30T07:42:21Z</time>
      </trkpt>
      <trkpt lat="45.01867" lon="6.57604">
        <ele>1791.1</ele>
        <time>2013-08-30T07:42:23Z</time>
      </trkpt>
      <trkpt lat="45.01865" lon="6.57616">
        <ele>1790.6</ele>
        <time>2013-08-30T07:42:25Z</time>
      </trkpt>
      <trkpt lat="45.01864" lon="6.57623">
        <ele>1789.2</ele>
        <time>2013-08-30T07:42:26Z</time>
      </trkpt>
      <trkpt lat="45.01864" lon="6.5763">
        <ele>1789.2</ele>
        <time>2013-08-30T07:42:27Z</time>
      </trkpt>
      <trkpt lat="45.01862" lon="6.57649">
        <ele>1786.8</ele>
        <time>2013-08-30T07:42:30Z</time>
      </trkpt>
      <trkpt lat="45.01861" lon="6.57663">
        <ele>1785.3</ele>
        <time>2013-08-30T07:42:33Z</time>
      </trkpt>
      <trkpt lat="45.01864" lon="6.5767">
        <ele>1784.3</ele>
        <time>2013-08-30T07:42:34Z</time>
      </trkpt>
      <trkpt lat="45.01864" lon="6.57674">
        <ele>1784.3</ele>
        <time>2013-08-30T07:42:35Z</time>
      </trkpt>
      <trkpt lat="45.01866" lon="6.57678">
        <ele>1782.9</ele>
        <time>2013-08-30T07:42:36Z</time>
      </trkpt>
      <trkpt lat="45.01869" lon="6.57686">
        <ele>1781.5</ele>
        <time>2013-08-30T07:42:39Z</time>
      </trkpt>
      <trkpt lat="45.01869" lon="6.57693">
        <ele>1780</ele>
        <time>2013-08-30T07:42:41Z</time>
      </trkpt>
      <trkpt lat="45.01863" lon="6.57719">
        <ele>1777.6</ele>
        <time>2013-08-30T07:42:46Z</time>
      </trkpt>
      <trkpt lat="45.01864" lon="6.57724">
        <ele>1776.7</ele>
        <time>2013-08-30T07:42:47Z</time>
      </trkpt>
      <trkpt lat="45.0186" lon="6.57739">
        <ele>1773.3</ele>
        <time>2013-08-30T07:42:52Z</time>
      </trkpt>
      <trkpt lat="45.01857" lon="6.57756">
        <ele>1771.4</ele>
        <time>2013-08-30T07:42:56Z</time>
      </trkpt>
      <trkpt lat="45.01858" lon="6.57766">
        <ele>1769.4</ele>
        <time>2013-08-30T07:42:59Z</time>
      </trkpt>
      <trkpt lat="45.01859" lon="6.57772">
        <ele>1768.5</ele>
        <time>2013-08-30T07:43:00Z</time>
      </trkpt>
      <trkpt lat="45.01861" lon="6.57813">
        <ele>1765.1</ele>
        <time>2013-08-30T07:43:07Z</time>
      </trkpt>
      <trkpt lat="45.01864" lon="6.57822">
        <ele>1765.1</ele>
        <time>2013-08-30T07:43:08Z</time>
      </trkpt>
      <trkpt lat="45.01867" lon="6.57834">
        <ele>1764.6</ele>
        <time>2013-08-30T07:43:09Z</time>
      </trkpt>
      <trkpt lat="45.0187" lon="6.57845">
        <ele>1764.6</ele>
        <time>2013-08-30T07:43:10Z</time>
      </trkpt>
      <trkpt lat="45.01872" lon="6.57855">
        <ele>1763.7</ele>
        <time>2013-08-30T07:43:11Z</time>
      </trkpt>
      <trkpt lat="45.01881" lon="6.5789">
        <ele>1761.8</ele>
        <time>2013-08-30T07:43:19Z</time>
      </trkpt>
      <trkpt lat="45.01872" lon="6.57934">
        <ele>1760.8</ele>
        <time>2013-08-30T07:43:30Z</time>
      </trkpt>
      <trkpt lat="45.01879" lon="6.57982">
        <ele>1761.3</ele>
        <time>2013-08-30T07:43:39Z</time>
      </trkpt>
      <trkpt lat="45.01873" lon="6.58028">
        <ele>1760.8</ele>
        <time>2013-08-30T07:43:49Z</time>
      </trkpt>
      <trkpt lat="45.01867" lon="6.58031">
        <ele>1760.8</ele>
        <time>2013-08-30T07:43:59Z</time>
      </trkpt>
      <trkpt lat="45.01866" lon="6.58036">
        <ele>1761.3</ele>
        <time>2013-08-30T07:44:06Z</time>
      </trkpt>
      <trkpt lat="45.01865" lon="6.58036">
        <ele>1761.8</ele>
        <time>2013-08-30T07:44:07Z</time>
      </trkpt>
      <trkpt lat="45.01863" lon="6.58037">
        <ele>1761.3</ele>
        <time>2013-08-30T07:44:08Z</time>
      </trkpt>
      <trkpt lat="45.01861" lon="6.58038">
        <ele>1761.3</ele>
        <time>2013-08-30T07:44:09Z</time>
      </trkpt>
      <trkpt lat="45.01859" lon="6.5804">
        <ele>1761.3</ele>
        <time>2013-08-30T07:44:10Z</time>
      </trkpt>
      <trkpt lat="45.01848" lon="6.58048">
        <ele>1760.8</ele>
        <time>2013-08-30T07:44:15Z</time>
      </trkpt>
      <trkpt lat="45.01837" lon="6.58061">
        <ele>1760.3</ele>
        <time>2013-08-30T07:44:19Z</time>
      </trkpt>
      <trkpt lat="45.01811" lon="6.58101">
        <ele>1760.3</ele>
        <time>2013-08-30T07:44:32Z</time>
      </trkpt>
      <trkpt lat="45.01794" lon="6.58126">
        <ele>1760.8</ele>
        <time>2013-08-30T07:44:40Z</time>
      </trkpt>
      <trkpt lat="45.0179" lon="6.58129">
        <ele>1759.8</ele>
        <time>2013-08-30T07:44:41Z</time>
      </trkpt>
      <trkpt lat="45.01767" lon="6.58141">
        <ele>1759.8</ele>
        <time>2013-08-30T07:44:51Z</time>
      </trkpt>
      <trkpt lat="45.01747" lon="6.58158">
        <ele>1758.9</ele>
        <time>2013-08-30T07:45:02Z</time>
      </trkpt>
      <trkpt lat="45.01722" lon="6.5817">
        <ele>1757.4</ele>
        <time>2013-08-30T07:45:09Z</time>
      </trkpt>
      <trkpt lat="45.01695" lon="6.58204">
        <ele>1755.5</ele>
        <time>2013-08-30T07:45:18Z</time>
      </trkpt>
      <trkpt lat="45.01715" lon="6.58227">
        <ele>1755.5</ele>
        <time>2013-08-30T07:45:27Z</time>
      </trkpt>
      <trkpt lat="45.01732" lon="6.58244">
        <ele>1755</ele>
        <time>2013-08-30T07:45:41Z</time>
      </trkpt>
      <trkpt lat="45.01728" lon="6.58251">
        <ele>1754.5</ele>
        <time>2013-08-30T07:45:51Z</time>
      </trkpt>
      <trkpt lat="45.01736" lon="6.5825">
        <ele>1754.5</ele>
        <time>2013-08-30T07:46:13Z</time>
      </trkpt>
      <trkpt lat="45.0173" lon="6.58258">
        <ele>1755</ele>
        <time>2013-08-30T07:46:18Z</time>
      </trkpt>
      <trkpt lat="45.01728" lon="6.58259">
        <ele>1754.5</ele>
        <time>2013-08-30T07:46:19Z</time>
      </trkpt>
      <trkpt lat="45.01711" lon="6.58283">
        <ele>1754.5</ele>
        <time>2013-08-30T07:46:29Z</time>
      </trkpt>
      <trkpt lat="45.01705" lon="6.58294">
        <ele>1754.1</ele>
        <time>2013-08-30T07:46:38Z</time>
      </trkpt>
      <trkpt lat="45.01707" lon="6.58299">
        <ele>1753.6</ele>
        <time>2013-08-30T07:46:44Z</time>
      </trkpt>
      <trkpt lat="45.01704" lon="6.58307">
        <ele>1754.1</ele>
        <time>2013-08-30T07:46:51Z</time>
      </trkpt>
      <trkpt lat="45.01697" lon="6.58319">
        <ele>1754.1</ele>
        <time>2013-08-30T07:47:06Z</time>
      </trkpt>
      <trkpt lat="45.01694" lon="6.58347">
        <ele>1753.1</ele>
        <time>2013-08-30T07:47:17Z</time>
      </trkpt>
      <trkpt lat="45.01708" lon="6.58395">
        <ele>1753.1</ele>
        <time>2013-08-30T07:47:30Z</time>
      </trkpt>
      <trkpt lat="45.0171" lon="6.58409">
        <ele>1752.6</ele>
        <time>2013-08-30T07:47:33Z</time>
      </trkpt>
      <trkpt lat="45.01711" lon="6.58413">
        <ele>1753.1</ele>
        <time>2013-08-30T07:47:34Z</time>
      </trkpt>
      <trkpt lat="45.01713" lon="6.58418">
        <ele>1753.1</ele>
        <time>2013-08-30T07:47:35Z</time>
      </trkpt>
      <trkpt lat="45.01714" lon="6.58423">
        <ele>1752.6</ele>
        <time>2013-08-30T07:47:36Z</time>
      </trkpt>
      <trkpt lat="45.01716" lon="6.58426">
        <ele>1752.6</ele>
        <time>2013-08-30T07:47:37Z</time>
      </trkpt>
      <trkpt lat="45.01717" lon="6.58428">
        <ele>1752.1</ele>
        <time>2013-08-30T07:47:38Z</time>
      </trkpt>
      <trkpt lat="45.0172" lon="6.58424">
        <ele>1751.2</ele>
        <time>2013-08-30T07:47:49Z</time>
      </trkpt>
      <trkpt lat="45.01715" lon="6.58422">
        <ele>1751.7</ele>
        <time>2013-08-30T07:48:25Z</time>
      </trkpt>
      <trkpt lat="45.01729" lon="6.58423">
        <ele>1751.7</ele>
        <time>2013-08-30T07:49:01Z</time>
      </trkpt>
      <trkpt lat="45.01738" lon="6.58421">
        <ele>1751.7</ele>
        <time>2013-08-30T07:49:33Z</time>
      </trkpt>
      <trkpt lat="45.01734" lon="6.58423">
        <ele>1751.2</ele>
        <time>2013-08-30T07:50:04Z</time>
      </trkpt>
      <trkpt lat="45.01726" lon="6.58424">
        <ele>1751.2</ele>
        <time>2013-08-30T07:50:39Z</time>
      </trkpt>
      <trkpt lat="45.01716" lon="6.58428">
        <ele>1752.1</ele>
        <time>2013-08-30T07:50:51Z</time>
      </trkpt>
      <trkpt lat="45.01715" lon="6.58442">
        <ele>1749.7</ele>
        <time>2013-08-30T07:51:02Z</time>
      </trkpt>
      <trkpt lat="45.01715" lon="6.58452">
        <ele>1746.4</ele>
        <time>2013-08-30T07:51:16Z</time>
      </trkpt>
      <trkpt lat="45.01714" lon="6.58461">
        <ele>1745.4</ele>
        <time>2013-08-30T07:51:23Z</time>
      </trkpt>
      <trkpt lat="45.01714" lon="6.58462">
        <ele>1745.4</ele>
        <time>2013-08-30T07:51:24Z</time>
      </trkpt>
      <trkpt lat="45.01717" lon="6.58475">
        <ele>1742.1</ele>
        <time>2013-08-30T07:51:37Z</time>
      </trkpt>
      <trkpt lat="45.01718" lon="6.58486">
        <ele>1739.2</ele>
        <time>2013-08-30T07:51:51Z</time>
      </trkpt>
      <trkpt lat="45.01713" lon="6.58497">
        <ele>1735.8</ele>
        <time>2013-08-30T07:52:04Z</time>
      </trkpt>
      <trkpt lat="45.01712" lon="6.58506">
        <ele>1732.4</ele>
        <time>2013-08-30T07:52:16Z</time>
      </trkpt>
      <trkpt lat="45.01713" lon="6.58518">
        <ele>1730</ele>
        <time>2013-08-30T07:52:29Z</time>
      </trkpt>
      <trkpt lat="45.01712" lon="6.58527">
        <ele>1727.6</ele>
        <time>2013-08-30T07:52:37Z</time>
      </trkpt>
      <trkpt lat="45.01711" lon="6.58528">
        <ele>1727.2</ele>
        <time>2013-08-30T07:52:38Z</time>
      </trkpt>
      <trkpt lat="45.01709" lon="6.5853">
        <ele>1726.7</ele>
        <time>2013-08-30T07:52:42Z</time>
      </trkpt>
      <trkpt lat="45.017" lon="6.58537">
        <ele>1726.2</ele>
        <time>2013-08-30T07:52:53Z</time>
      </trkpt>
      <trkpt lat="45.01699" lon="6.58538">
        <ele>1725.7</ele>
        <time>2013-08-30T07:52:54Z</time>
      </trkpt>
      <trkpt lat="45.01697" lon="6.5854">
        <ele>1725.2</ele>
        <time>2013-08-30T07:52:56Z</time>
      </trkpt>
      <trkpt lat="45.01685" lon="6.58551">
        <ele>1723.3</ele>
        <time>2013-08-30T07:53:12Z</time>
      </trkpt>
      <trkpt lat="45.01676" lon="6.5856">
        <ele>1722.3</ele>
        <time>2013-08-30T07:53:23Z</time>
      </trkpt>
      <trkpt lat="45.01669" lon="6.58573">
        <ele>1721.4</ele>
        <time>2013-08-30T07:53:35Z</time>
      </trkpt>
      <trkpt lat="45.01669" lon="6.58574">
        <ele>1720.4</ele>
        <time>2013-08-30T07:53:36Z</time>
      </trkpt>
      <trkpt lat="45.01668" lon="6.58575">
        <ele>1720.9</ele>
        <time>2013-08-30T07:53:37Z</time>
      </trkpt>
      <trkpt lat="45.01667" lon="6.58577">
        <ele>1720.4</ele>
        <time>2013-08-30T07:53:38Z</time>
      </trkpt>
      <trkpt lat="45.01659" lon="6.58596">
        <ele>1718</ele>
        <time>2013-08-30T07:53:52Z</time>
      </trkpt>
      <trkpt lat="45.01657" lon="6.58611">
        <ele>1717.5</ele>
        <time>2013-08-30T07:54:02Z</time>
      </trkpt>
      <trkpt lat="45.01653" lon="6.58632">
        <ele>1714.2</ele>
        <time>2013-08-30T07:54:11Z</time>
      </trkpt>
      <trkpt lat="45.01653" lon="6.58634">
        <ele>1714.7</ele>
        <time>2013-08-30T07:54:12Z</time>
      </trkpt>
      <trkpt lat="45.01652" lon="6.58637">
        <ele>1713.7</ele>
        <time>2013-08-30T07:54:13Z</time>
      </trkpt>
      <trkpt lat="45.01642" lon="6.58667">
        <ele>1709.8</ele>
        <time>2013-08-30T07:54:23Z</time>
      </trkpt>
      <trkpt lat="45.01641" lon="6.5867">
        <ele>1709.8</ele>
        <time>2013-08-30T07:54:24Z</time>
      </trkpt>
      <trkpt lat="45.01642" lon="6.58672">
        <ele>1708.9</ele>
        <time>2013-08-30T07:54:25Z</time>
      </trkpt>
      <trkpt lat="45.01642" lon="6.58675">
        <ele>1707.9</ele>
        <time>2013-08-30T07:54:26Z</time>
      </trkpt>
      <trkpt lat="45.01642" lon="6.58679">
        <ele>1708.4</ele>
        <time>2013-08-30T07:54:27Z</time>
      </trkpt>
      <trkpt lat="45.01641" lon="6.58682">
        <ele>1707.4</ele>
        <time>2013-08-30T07:54:28Z</time>
      </trkpt>
      <trkpt lat="45.0164" lon="6.58684">
        <ele>1707.4</ele>
        <time>2013-08-30T07:54:29Z</time>
      </trkpt>
      <trkpt lat="45.0164" lon="6.58686">
        <ele>1707</ele>
        <time>2013-08-30T07:54:30Z</time>
      </trkpt>
      <trkpt lat="45.01641" lon="6.58692">
        <ele>1707</ele>
        <time>2013-08-30T07:54:37Z</time>
      </trkpt>
      <trkpt lat="45.0164" lon="6.58706">
        <ele>1706.5</ele>
        <time>2013-08-30T07:54:49Z</time>
      </trkpt>
      <trkpt lat="45.01639" lon="6.58717">
        <ele>1706.5</ele>
        <time>2013-08-30T07:55:02Z</time>
      </trkpt>
      <trkpt lat="45.01638" lon="6.58727">
        <ele>1705</ele>
        <time>2013-08-30T07:55:17Z</time>
      </trkpt>
      <trkpt lat="45.01638" lon="6.58728">
        <ele>1705.5</ele>
        <time>2013-08-30T07:55:18Z</time>
      </trkpt>
      <trkpt lat="45.01644" lon="6.58732">
        <ele>1704.1</ele>
        <time>2013-08-30T07:55:24Z</time>
      </trkpt>
      <trkpt lat="45.01646" lon="6.58744">
        <ele>1703.6</ele>
        <time>2013-08-30T07:55:37Z</time>
      </trkpt>
      <trkpt lat="45.01647" lon="6.58744">
        <ele>1702.6</ele>
        <time>2013-08-30T07:55:49Z</time>
      </trkpt>
      <trkpt lat="45.01647" lon="6.58746">
        <ele>1701.7</ele>
        <time>2013-08-30T07:56:02Z</time>
      </trkpt>
      <trkpt lat="45.01648" lon="6.58751">
        <ele>1700.2</ele>
        <time>2013-08-30T07:56:12Z</time>
      </trkpt>
      <trkpt lat="45.01657" lon="6.58763">
        <ele>1696.9</ele>
        <time>2013-08-30T07:56:20Z</time>
      </trkpt>
      <trkpt lat="45.01664" lon="6.58776">
        <ele>1693.5</ele>
        <time>2013-08-30T07:56:28Z</time>
      </trkpt>
      <trkpt lat="45.01667" lon="6.58783">
        <ele>1691.1</ele>
        <time>2013-08-30T07:56:32Z</time>
      </trkpt>
      <trkpt lat="45.01671" lon="6.58789">
        <ele>1688.7</ele>
        <time>2013-08-30T07:56:35Z</time>
      </trkpt>
      <trkpt lat="45.01673" lon="6.58793">
        <ele>1687.7</ele>
        <time>2013-08-30T07:56:37Z</time>
      </trkpt>
      <trkpt lat="45.01682" lon="6.58811">
        <ele>1684.4</ele>
        <time>2013-08-30T07:56:44Z</time>
      </trkpt>
      <trkpt lat="45.01685" lon="6.58815">
        <ele>1683.4</ele>
        <time>2013-08-30T07:56:46Z</time>
      </trkpt>
      <trkpt lat="45.01685" lon="6.58817">
        <ele>1682.9</ele>
        <time>2013-08-30T07:56:47Z</time>
      </trkpt>
      <trkpt lat="45.01684" lon="6.58835">
        <ele>1680</ele>
        <time>2013-08-30T07:56:54Z</time>
      </trkpt>
      <trkpt lat="45.01687" lon="6.58843">
        <ele>1678.1</ele>
        <time>2013-08-30T07:56:57Z</time>
      </trkpt>
      <trkpt lat="45.01689" lon="6.58846">
        <ele>1677.6</ele>
        <time>2013-08-30T07:56:59Z</time>
      </trkpt>
      <trkpt lat="45.01691" lon="6.58852">
        <ele>1675.7</ele>
        <time>2013-08-30T07:57:01Z</time>
      </trkpt>
      <trkpt lat="45.01693" lon="6.58857">
        <ele>1674.3</ele>
        <time>2013-08-30T07:57:03Z</time>
      </trkpt>
      <trkpt lat="45.01699" lon="6.58877">
        <ele>1674.3</ele>
        <time>2013-08-30T07:57:13Z</time>
      </trkpt>
      <trkpt lat="45.01702" lon="6.58886">
        <ele>1672.4</ele>
        <time>2013-08-30T07:57:19Z</time>
      </trkpt>
      <trkpt lat="45.01703" lon="6.58889">
        <ele>1671.4</ele>
        <time>2013-08-30T07:57:20Z</time>
      </trkpt>
      <trkpt lat="45.01709" lon="6.58903">
        <ele>1667.1</ele>
        <time>2013-08-30T07:57:24Z</time>
      </trkpt>
      <trkpt lat="45.01714" lon="6.58921">
        <ele>1666.1</ele>
        <time>2013-08-30T07:57:27Z</time>
      </trkpt>
      <trkpt lat="45.01716" lon="6.58928">
        <ele>1665.6</ele>
        <time>2013-08-30T07:57:28Z</time>
      </trkpt>
      <trkpt lat="45.01718" lon="6.58933">
        <ele>1665.6</ele>
        <time>2013-08-30T07:57:29Z</time>
      </trkpt>
      <trkpt lat="45.0172" lon="6.58937">
        <ele>1665.6</ele>
        <time>2013-08-30T07:57:30Z</time>
      </trkpt>
      <trkpt lat="45.01722" lon="6.5894">
        <ele>1665.6</ele>
        <time>2013-08-30T07:57:31Z</time>
      </trkpt>
      <trkpt lat="45.01724" lon="6.58943">
        <ele>1665.1</ele>
        <time>2013-08-30T07:57:32Z</time>
      </trkpt>
      <trkpt lat="45.01726" lon="6.58946">
        <ele>1664.7</ele>
        <time>2013-08-30T07:57:33Z</time>
      </trkpt>
      <trkpt lat="45.01738" lon="6.58963">
        <ele>1662.7</ele>
        <time>2013-08-30T07:57:43Z</time>
      </trkpt>
      <trkpt lat="45.01744" lon="6.58974">
        <ele>1661.3</ele>
        <time>2013-08-30T07:57:53Z</time>
      </trkpt>
      <trkpt lat="45.01744" lon="6.58979">
        <ele>1660.8</ele>
        <time>2013-08-30T07:57:55Z</time>
      </trkpt>
      <trkpt lat="45.01745" lon="6.58983">
        <ele>1660.8</ele>
        <time>2013-08-30T07:57:56Z</time>
      </trkpt>
      <trkpt lat="45.01748" lon="6.58999">
        <ele>1660.8</ele>
        <time>2013-08-30T07:58:00Z</time>
      </trkpt>
      <trkpt lat="45.01748" lon="6.59003">
        <ele>1659.9</ele>
        <time>2013-08-30T07:58:01Z</time>
      </trkpt>
      <trkpt lat="45.01747" lon="6.59006">
        <ele>1660.3</ele>
        <time>2013-08-30T07:58:02Z</time>
      </trkpt>
      <trkpt lat="45.01749" lon="6.59037">
        <ele>1659.9</ele>
        <time>2013-08-30T07:58:09Z</time>
      </trkpt>
      <trkpt lat="45.01749" lon="6.59039">
        <ele>1659.4</ele>
        <time>2013-08-30T07:58:10Z</time>
      </trkpt>
      <trkpt lat="45.01752" lon="6.59048">
        <ele>1660.3</ele>
        <time>2013-08-30T07:58:20Z</time>
      </trkpt>
      <trkpt lat="45.01754" lon="6.59057">
        <ele>1660.8</ele>
        <time>2013-08-30T07:58:27Z</time>
      </trkpt>
      <trkpt lat="45.01758" lon="6.59077">
        <ele>1658.9</ele>
        <time>2013-08-30T07:58:33Z</time>
      </trkpt>
      <trkpt lat="45.01757" lon="6.59086">
        <ele>1657</ele>
        <time>2013-08-30T07:58:37Z</time>
      </trkpt>
      <trkpt lat="45.01757" lon="6.59089">
        <ele>1656.5</ele>
        <time>2013-08-30T07:58:38Z</time>
      </trkpt>
      <trkpt lat="45.01756" lon="6.59093">
        <ele>1656</ele>
        <time>2013-08-30T07:58:39Z</time>
      </trkpt>
      <trkpt lat="45.01754" lon="6.59095">
        <ele>1655.5</ele>
        <time>2013-08-30T07:58:40Z</time>
      </trkpt>
      <trkpt lat="45.01749" lon="6.59109">
        <ele>1655.1</ele>
        <time>2013-08-30T07:58:43Z</time>
      </trkpt>
      <trkpt lat="45.01749" lon="6.59114">
        <ele>1654.1</ele>
        <time>2013-08-30T07:58:44Z</time>
      </trkpt>
      <trkpt lat="45.0175" lon="6.5912">
        <ele>1654.1</ele>
        <time>2013-08-30T07:58:45Z</time>
      </trkpt>
      <trkpt lat="45.01751" lon="6.59132">
        <ele>1653.6</ele>
        <time>2013-08-30T07:58:48Z</time>
      </trkpt>
      <trkpt lat="45.01751" lon="6.59134">
        <ele>1654.6</ele>
        <time>2013-08-30T07:58:49Z</time>
      </trkpt>
      <trkpt lat="45.01751" lon="6.59138">
        <ele>1654.6</ele>
        <time>2013-08-30T07:58:51Z</time>
      </trkpt>
      <trkpt lat="45.01748" lon="6.59144">
        <ele>1655.1</ele>
        <time>2013-08-30T07:58:55Z</time>
      </trkpt>
      <trkpt lat="45.01747" lon="6.59151">
        <ele>1655.1</ele>
        <time>2013-08-30T07:58:59Z</time>
      </trkpt>
      <trkpt lat="45.01748" lon="6.59165">
        <ele>1654.1</ele>
        <time>2013-08-30T07:59:13Z</time>
      </trkpt>
      <trkpt lat="45.01755" lon="6.59176">
        <ele>1654.1</ele>
        <time>2013-08-30T07:59:46Z</time>
      </trkpt>
      <trkpt lat="45.01747" lon="6.59185">
        <ele>1653.1</ele>
        <time>2013-08-30T08:00:01Z</time>
      </trkpt>
      <trkpt lat="45.01745" lon="6.59193">
        <ele>1655.1</ele>
        <time>2013-08-30T08:00:14Z</time>
      </trkpt>
      <trkpt lat="45.01747" lon="6.59204">
        <ele>1655.1</ele>
        <time>2013-08-30T08:00:24Z</time>
      </trkpt>
      <trkpt lat="45.01746" lon="6.59215">
        <ele>1653.1</ele>
        <time>2013-08-30T08:00:35Z</time>
      </trkpt>
      <trkpt lat="45.01743" lon="6.59225">
        <ele>1652.2</ele>
        <time>2013-08-30T08:00:47Z</time>
      </trkpt>
      <trkpt lat="45.01742" lon="6.59236">
        <ele>1651.7</ele>
        <time>2013-08-30T08:00:56Z</time>
      </trkpt>
      <trkpt lat="45.0174" lon="6.59238">
        <ele>1651.7</ele>
        <time>2013-08-30T08:00:57Z</time>
      </trkpt>
      <trkpt lat="45.01727" lon="6.59256">
        <ele>1651.7</ele>
        <time>2013-08-30T08:01:08Z</time>
      </trkpt>
      <trkpt lat="45.01713" lon="6.59271">
        <ele>1650.2</ele>
        <time>2013-08-30T08:01:15Z</time>
      </trkpt>
      <trkpt lat="45.01703" lon="6.5931">
        <ele>1649.8</ele>
        <time>2013-08-30T08:01:26Z</time>
      </trkpt>
      <trkpt lat="45.01711" lon="6.59323">
        <ele>1649.3</ele>
        <time>2013-08-30T08:01:31Z</time>
      </trkpt>
      <trkpt lat="45.01717" lon="6.59365">
        <ele>1649.3</ele>
        <time>2013-08-30T08:01:43Z</time>
      </trkpt>
      <trkpt lat="45.01716" lon="6.59371">
        <ele>1649.8</ele>
        <time>2013-08-30T08:01:51Z</time>
      </trkpt>
      <trkpt lat="45.01716" lon="6.59376">
        <ele>1649.8</ele>
        <time>2013-08-30T08:01:58Z</time>
      </trkpt>
      <trkpt lat="45.01716" lon="6.5939">
        <ele>1648.8</ele>
        <time>2013-08-30T08:02:10Z</time>
      </trkpt>
      <trkpt lat="45.01717" lon="6.59392">
        <ele>1648.8</ele>
        <time>2013-08-30T08:02:14Z</time>
      </trkpt>
      <trkpt lat="45.01717" lon="6.59394">
        <ele>1648.3</ele>
        <time>2013-08-30T08:02:15Z</time>
      </trkpt>
      <trkpt lat="45.01726" lon="6.59445">
        <ele>1647.8</ele>
        <time>2013-08-30T08:02:28Z</time>
      </trkpt>
      <trkpt lat="45.01747" lon="6.5949">
        <ele>1646.4</ele>
        <time>2013-08-30T08:02:40Z</time>
      </trkpt>
      <trkpt lat="45.01761" lon="6.59542">
        <ele>1646.9</ele>
        <time>2013-08-30T08:02:54Z</time>
      </trkpt>
      <trkpt lat="45.01765" lon="6.59609">
        <ele>1646.4</ele>
        <time>2013-08-30T08:03:07Z</time>
      </trkpt>
      <trkpt lat="45.01765" lon="6.59671">
        <ele>1645.4</ele>
        <time>2013-08-30T08:03:22Z</time>
      </trkpt>
      <trkpt lat="45.01752" lon="6.59725">
        <ele>1645</ele>
        <time>2013-08-30T08:03:37Z</time>
      </trkpt>
      <trkpt lat="45.01731" lon="6.59754">
        <ele>1647.4</ele>
        <time>2013-08-30T08:03:52Z</time>
      </trkpt>
      <trkpt lat="45.01728" lon="6.5976">
        <ele>1647.8</ele>
        <time>2013-08-30T08:03:55Z</time>
      </trkpt>
      <trkpt lat="45.01729" lon="6.59762">
        <ele>1647.8</ele>
        <time>2013-08-30T08:03:56Z</time>
      </trkpt>
      <trkpt lat="45.01729" lon="6.59765">
        <ele>1648.3</ele>
        <time>2013-08-30T08:03:57Z</time>
      </trkpt>
      <trkpt lat="45.01731" lon="6.59767">
        <ele>1648.3</ele>
        <time>2013-08-30T08:03:58Z</time>
      </trkpt>
      <trkpt lat="45.01732" lon="6.59769">
        <ele>1648.8</ele>
        <time>2013-08-30T08:03:59Z</time>
      </trkpt>
      <trkpt lat="45.01733" lon="6.59772">
        <ele>1648.8</ele>
        <time>2013-08-30T08:04:00Z</time>
      </trkpt>
      <trkpt lat="45.01733" lon="6.59775">
        <ele>1649.3</ele>
        <time>2013-08-30T08:04:01Z</time>
      </trkpt>
      <trkpt lat="45.01732" lon="6.59788">
        <ele>1649.8</ele>
        <time>2013-08-30T08:04:09Z</time>
      </trkpt>
      <trkpt lat="45.01731" lon="6.5979">
        <ele>1649.8</ele>
        <time>2013-08-30T08:04:10Z</time>
      </trkpt>
      <trkpt lat="45.01731" lon="6.59792">
        <ele>1650.2</ele>
        <time>2013-08-30T08:04:11Z</time>
      </trkpt>
      <trkpt lat="45.0173" lon="6.59794">
        <ele>1650.2</ele>
        <time>2013-08-30T08:04:12Z</time>
      </trkpt>
      <trkpt lat="45.01729" lon="6.59795">
        <ele>1650.7</ele>
        <time>2013-08-30T08:04:13Z</time>
      </trkpt>
      <trkpt lat="45.01726" lon="6.59802">
        <ele>1650.7</ele>
        <time>2013-08-30T08:04:17Z</time>
      </trkpt>
      <trkpt lat="45.01726" lon="6.59804">
        <ele>1650.7</ele>
        <time>2013-08-30T08:04:18Z</time>
      </trkpt>
      <trkpt lat="45.01726" lon="6.59807">
        <ele>1650.7</ele>
        <time>2013-08-30T08:04:19Z</time>
      </trkpt>
      <trkpt lat="45.01726" lon="6.59809">
        <ele>1650.7</ele>
        <time>2013-08-30T08:04:20Z</time>
      </trkpt>
      <trkpt lat="45.01727" lon="6.59811">
        <ele>1651.2</ele>
        <time>2013-08-30T08:04:21Z</time>
      </trkpt>
      <trkpt lat="45.01727" lon="6.59813">
        <ele>1651.2</ele>
        <time>2013-08-30T08:04:22Z</time>
      </trkpt>
      <trkpt lat="45.01726" lon="6.59815">
        <ele>1651.2</ele>
        <time>2013-08-30T08:04:23Z</time>
      </trkpt>
      <trkpt lat="45.01726" lon="6.59837">
        <ele>1653.6</ele>
        <time>2013-08-30T08:04:34Z</time>
      </trkpt>
      <trkpt lat="45.01725" lon="6.59842">
        <ele>1654.1</ele>
        <time>2013-08-30T08:04:37Z</time>
      </trkpt>
      <trkpt lat="45.01727" lon="6.59858">
        <ele>1655.1</ele>
        <time>2013-08-30T08:04:45Z</time>
      </trkpt>
      <trkpt lat="45.01726" lon="6.5987">
        <ele>1656.5</ele>
        <time>2013-08-30T08:04:52Z</time>
      </trkpt>
      <trkpt lat="45.01726" lon="6.59881">
        <ele>1657</ele>
        <time>2013-08-30T08:05:00Z</time>
      </trkpt>
      <trkpt lat="45.01725" lon="6.59905">
        <ele>1658.9</ele>
        <time>2013-08-30T08:05:12Z</time>
      </trkpt>
      <trkpt lat="45.01725" lon="6.59906">
        <ele>1658.4</ele>
        <time>2013-08-30T08:05:13Z</time>
      </trkpt>
      <trkpt lat="45.01724" lon="6.59914">
        <ele>1658.4</ele>
        <time>2013-08-30T08:05:17Z</time>
      </trkpt>
      <trkpt lat="45.01722" lon="6.59938">
        <ele>1658.4</ele>
        <time>2013-08-30T08:05:27Z</time>
      </trkpt>
      <trkpt lat="45.01715" lon="6.59951">
        <ele>1658.9</ele>
        <time>2013-08-30T08:05:31Z</time>
      </trkpt>
      <trkpt lat="45.0171" lon="6.59989">
        <ele>1659.4</ele>
        <time>2013-08-30T08:05:43Z</time>
      </trkpt>
      <trkpt lat="45.01713" lon="6.59995">
        <ele>1658.9</ele>
        <time>2013-08-30T08:05:46Z</time>
      </trkpt>
      <trkpt lat="45.01726" lon="6.60018">
        <ele>1658.4</ele>
        <time>2013-08-30T08:05:59Z</time>
      </trkpt>
      <trkpt lat="45.0173" lon="6.60027">
        <ele>1657.9</ele>
        <time>2013-08-30T08:06:13Z</time>
      </trkpt>
      <trkpt lat="45.01729" lon="6.60034">
        <ele>1657</ele>
        <time>2013-08-30T08:06:16Z</time>
      </trkpt>
      <trkpt lat="45.01729" lon="6.60038">
        <ele>1657</ele>
        <time>2013-08-30T08:06:17Z</time>
      </trkpt>
      <trkpt lat="45.01728" lon="6.60042">
        <ele>1656.5</ele>
        <time>2013-08-30T08:06:18Z</time>
      </trkpt>
      <trkpt lat="45.01727" lon="6.60047">
        <ele>1657</ele>
        <time>2013-08-30T08:06:19Z</time>
      </trkpt>
      <trkpt lat="45.01725" lon="6.6005">
        <ele>1657</ele>
        <time>2013-08-30T08:06:20Z</time>
      </trkpt>
      <trkpt lat="45.01725" lon="6.60055">
        <ele>1657</ele>
        <time>2013-08-30T08:06:21Z</time>
      </trkpt>
      <trkpt lat="45.01724" lon="6.6006">
        <ele>1656.5</ele>
        <time>2013-08-30T08:06:22Z</time>
      </trkpt>
      <trkpt lat="45.01721" lon="6.60063">
        <ele>1657</ele>
        <time>2013-08-30T08:06:23Z</time>
      </trkpt>
      <trkpt lat="45.0172" lon="6.60066">
        <ele>1657</ele>
        <time>2013-08-30T08:06:24Z</time>
      </trkpt>
      <trkpt lat="45.01719" lon="6.60069">
        <ele>1657</ele>
        <time>2013-08-30T08:06:25Z</time>
      </trkpt>
      <trkpt lat="45.01718" lon="6.60072">
        <ele>1656.5</ele>
        <time>2013-08-30T08:06:26Z</time>
      </trkpt>
      <trkpt lat="45.01717" lon="6.60082">
        <ele>1655.1</ele>
        <time>2013-08-30T08:06:29Z</time>
      </trkpt>
      <trkpt lat="45.01718" lon="6.60087">
        <ele>1654.6</ele>
        <time>2013-08-30T08:06:30Z</time>
      </trkpt>
      <trkpt lat="45.01722" lon="6.60096">
        <ele>1653.1</ele>
        <time>2013-08-30T08:06:32Z</time>
      </trkpt>
      <trkpt lat="45.01722" lon="6.60099">
        <ele>1652.6</ele>
        <time>2013-08-30T08:06:33Z</time>
      </trkpt>
      <trkpt lat="45.01721" lon="6.60103">
        <ele>1652.2</ele>
        <time>2013-08-30T08:06:34Z</time>
      </trkpt>
      <trkpt lat="45.0172" lon="6.60106">
        <ele>1651.7</ele>
        <time>2013-08-30T08:06:35Z</time>
      </trkpt>
      <trkpt lat="45.01718" lon="6.6011">
        <ele>1651.2</ele>
        <time>2013-08-30T08:06:36Z</time>
      </trkpt>
      <trkpt lat="45.01715" lon="6.60113">
        <ele>1650.2</ele>
        <time>2013-08-30T08:06:37Z</time>
      </trkpt>
      <trkpt lat="45.01712" lon="6.60117">
        <ele>1650.2</ele>
        <time>2013-08-30T08:06:38Z</time>
      </trkpt>
      <trkpt lat="45.01709" lon="6.6012">
        <ele>1649.8</ele>
        <time>2013-08-30T08:06:39Z</time>
      </trkpt>
      <trkpt lat="45.01706" lon="6.60131">
        <ele>1647.8</ele>
        <time>2013-08-30T08:06:48Z</time>
      </trkpt>
      <trkpt lat="45.01707" lon="6.60138">
        <ele>1648.3</ele>
        <time>2013-08-30T08:07:00Z</time>
      </trkpt>
      <trkpt lat="45.0171" lon="6.60165">
        <ele>1645.9</ele>
        <time>2013-08-30T08:07:09Z</time>
      </trkpt>
      <trkpt lat="45.01714" lon="6.60178">
        <ele>1644.5</ele>
        <time>2013-08-30T08:07:12Z</time>
      </trkpt>
      <trkpt lat="45.01714" lon="6.60182">
        <ele>1644.5</ele>
        <time>2013-08-30T08:07:13Z</time>
      </trkpt>
      <trkpt lat="45.01715" lon="6.60195">
        <ele>1644.5</ele>
        <time>2013-08-30T08:07:16Z</time>
      </trkpt>
      <trkpt lat="45.01714" lon="6.60199">
        <ele>1643.5</ele>
        <time>2013-08-30T08:07:17Z</time>
      </trkpt>
      <trkpt lat="45.01714" lon="6.60204">
        <ele>1644</ele>
        <time>2013-08-30T08:07:18Z</time>
      </trkpt>
      <trkpt lat="45.01715" lon="6.60209">
        <ele>1643</ele>
        <time>2013-08-30T08:07:19Z</time>
      </trkpt>
      <trkpt lat="45.01715" lon="6.60213">
        <ele>1642.6</ele>
        <time>2013-08-30T08:07:20Z</time>
      </trkpt>
      <trkpt lat="45.01715" lon="6.60217">
        <ele>1643</ele>
        <time>2013-08-30T08:07:21Z</time>
      </trkpt>
      <trkpt lat="45.01715" lon="6.6022">
        <ele>1643</ele>
        <time>2013-08-30T08:07:22Z</time>
      </trkpt>
      <trkpt lat="45.01716" lon="6.60224">
        <ele>1643</ele>
        <time>2013-08-30T08:07:23Z</time>
      </trkpt>
      <trkpt lat="45.01715" lon="6.60228">
        <ele>1643</ele>
        <time>2013-08-30T08:07:24Z</time>
      </trkpt>
      <trkpt lat="45.01713" lon="6.60231">
        <ele>1641.6</ele>
        <time>2013-08-30T08:07:25Z</time>
      </trkpt>
      <trkpt lat="45.01712" lon="6.60235">
        <ele>1641.6</ele>
        <time>2013-08-30T08:07:26Z</time>
      </trkpt>
      <trkpt lat="45.01711" lon="6.60238">
        <ele>1641.6</ele>
        <time>2013-08-30T08:07:27Z</time>
      </trkpt>
      <trkpt lat="45.01712" lon="6.60251">
        <ele>1640.2</ele>
        <time>2013-08-30T08:07:31Z</time>
      </trkpt>
      <trkpt lat="45.01711" lon="6.60254">
        <ele>1639.7</ele>
        <time>2013-08-30T08:07:32Z</time>
      </trkpt>
      <trkpt lat="45.0171" lon="6.60257">
        <ele>1639.2</ele>
        <time>2013-08-30T08:07:33Z</time>
      </trkpt>
      <trkpt lat="45.01709" lon="6.6026">
        <ele>1637.7</ele>
        <time>2013-08-30T08:07:34Z</time>
      </trkpt>
      <trkpt lat="45.01705" lon="6.60266">
        <ele>1636.3</ele>
        <time>2013-08-30T08:07:36Z</time>
      </trkpt>
      <trkpt lat="45.01704" lon="6.60269">
        <ele>1635.8</ele>
        <time>2013-08-30T08:07:37Z</time>
      </trkpt>
      <trkpt lat="45.01702" lon="6.60277">
        <ele>1634.4</ele>
        <time>2013-08-30T08:07:40Z</time>
      </trkpt>
      <trkpt lat="45.01703" lon="6.60279">
        <ele>1634.4</ele>
        <time>2013-08-30T08:07:41Z</time>
      </trkpt>
      <trkpt lat="45.01703" lon="6.60281">
        <ele>1634.4</ele>
        <time>2013-08-30T08:07:42Z</time>
      </trkpt>
      <trkpt lat="45.01714" lon="6.60309">
        <ele>1631.5</ele>
        <time>2013-08-30T08:07:49Z</time>
      </trkpt>
      <trkpt lat="45.0172" lon="6.60355">
        <ele>1628.6</ele>
        <time>2013-08-30T08:07:58Z</time>
      </trkpt>
      <trkpt lat="45.01724" lon="6.60378">
        <ele>1627.2</ele>
        <time>2013-08-30T08:08:02Z</time>
      </trkpt>
      <trkpt lat="45.01734" lon="6.60393">
        <ele>1626.7</ele>
        <time>2013-08-30T08:08:05Z</time>
      </trkpt>
      <trkpt lat="45.01752" lon="6.60425">
        <ele>1623.8</ele>
        <time>2013-08-30T08:08:12Z</time>
      </trkpt>
      <trkpt lat="45.01773" lon="6.60451">
        <ele>1621.4</ele>
        <time>2013-08-30T08:08:22Z</time>
      </trkpt>
      <trkpt lat="45.01807" lon="6.60465">
        <ele>1620</ele>
        <time>2013-08-30T08:08:33Z</time>
      </trkpt>
      <trkpt lat="45.01812" lon="6.60463">
        <ele>1620.4</ele>
        <time>2013-08-30T08:08:34Z</time>
      </trkpt>
      <trkpt lat="45.01845" lon="6.60453">
        <ele>1620.4</ele>
        <time>2013-08-30T08:08:45Z</time>
      </trkpt>
      <trkpt lat="45.01846" lon="6.6045">
        <ele>1620.9</ele>
        <time>2013-08-30T08:08:46Z</time>
      </trkpt>
      <trkpt lat="45.01846" lon="6.6045">
        <ele>1620.4</ele>
        <time>2013-08-30T08:08:59Z</time>
      </trkpt>
      <trkpt lat="45.01846" lon="6.60456">
        <ele>1620.4</ele>
        <time>2013-08-30T08:09:00Z</time>
      </trkpt>
      <trkpt lat="45.01846" lon="6.6046">
        <ele>1620.9</ele>
        <time>2013-08-30T08:09:01Z</time>
      </trkpt>
      <trkpt lat="45.0185" lon="6.60461">
        <ele>1620.4</ele>
        <time>2013-08-30T08:09:03Z</time>
      </trkpt>
      <trkpt lat="45.01894" lon="6.60478">
        <ele>1620.4</ele>
        <time>2013-08-30T08:09:15Z</time>
      </trkpt>
      <trkpt lat="45.01899" lon="6.60484">
        <ele>1619</ele>
        <time>2013-08-30T08:09:23Z</time>
      </trkpt>
      <trkpt lat="45.01885" lon="6.60521">
        <ele>1622.8</ele>
        <time>2013-08-30T09:09:06Z</time>
      </trkpt>
      <trkpt lat="45.0188" lon="6.60546">
        <ele>1622.4</ele>
        <time>2013-08-30T09:09:16Z</time>
      </trkpt>
      <trkpt lat="45.0188" lon="6.60551">
        <ele>1622.8</ele>
        <time>2013-08-30T09:09:17Z</time>
      </trkpt>
      <trkpt lat="45.01881" lon="6.60557">
        <ele>1621.9</ele>
        <time>2013-08-30T09:09:18Z</time>
      </trkpt>
      <trkpt lat="45.01882" lon="6.60562">
        <ele>1621.4</ele>
        <time>2013-08-30T09:09:19Z</time>
      </trkpt>
      <trkpt lat="45.01882" lon="6.60568">
        <ele>1620.4</ele>
        <time>2013-08-30T09:09:20Z</time>
      </trkpt>
      <trkpt lat="45.01882" lon="6.60572">
        <ele>1620</ele>
        <time>2013-08-30T09:09:21Z</time>
      </trkpt>
      <trkpt lat="45.01883" lon="6.60575">
        <ele>1619</ele>
        <time>2013-08-30T09:09:22Z</time>
      </trkpt>
      <trkpt lat="45.01883" lon="6.60579">
        <ele>1619</ele>
        <time>2013-08-30T09:09:23Z</time>
      </trkpt>
      <trkpt lat="45.01884" lon="6.60596">
        <ele>1617.1</ele>
        <time>2013-08-30T09:09:27Z</time>
      </trkpt>
      <trkpt lat="45.01909" lon="6.60636">
        <ele>1615.6</ele>
        <time>2013-08-30T09:09:38Z</time>
      </trkpt>
      <trkpt lat="45.01932" lon="6.60691">
        <ele>1613.7</ele>
        <time>2013-08-30T09:09:56Z</time>
      </trkpt>
      <trkpt lat="45.01931" lon="6.60694">
        <ele>1613.7</ele>
        <time>2013-08-30T09:09:57Z</time>
      </trkpt>
      <trkpt lat="45.01928" lon="6.60696">
        <ele>1613.2</ele>
        <time>2013-08-30T09:09:58Z</time>
      </trkpt>
      <trkpt lat="45.01919" lon="6.60692">
        <ele>1613.2</ele>
        <time>2013-08-30T09:10:02Z</time>
      </trkpt>
      <trkpt lat="45.01917" lon="6.60689">
        <ele>1613.2</ele>
        <time>2013-08-30T09:10:04Z</time>
      </trkpt>
      <trkpt lat="45.01915" lon="6.60689">
        <ele>1613.2</ele>
        <time>2013-08-30T09:10:05Z</time>
      </trkpt>
      <trkpt lat="45.01916" lon="6.60693">
        <ele>1612.3</ele>
        <time>2013-08-30T09:10:16Z</time>
      </trkpt>
      <trkpt lat="45.01919" lon="6.60711">
        <ele>1611.8</ele>
        <time>2013-08-30T09:10:42Z</time>
      </trkpt>
      <trkpt lat="45.01922" lon="6.60698">
        <ele>1611.8</ele>
        <time>2013-08-30T09:10:49Z</time>
      </trkpt>
      <trkpt lat="45.01923" lon="6.60697">
        <ele>1611.8</ele>
        <time>2013-08-30T09:10:50Z</time>
      </trkpt>
      <trkpt lat="45.01928" lon="6.607">
        <ele>1611.3</ele>
        <time>2013-08-30T09:10:53Z</time>
      </trkpt>
      <trkpt lat="45.01936" lon="6.60697">
        <ele>1612.3</ele>
        <time>2013-08-30T09:10:58Z</time>
      </trkpt>
      <trkpt lat="45.01938" lon="6.60698">
        <ele>1612.3</ele>
        <time>2013-08-30T09:11:00Z</time>
      </trkpt>
      <trkpt lat="45.01938" lon="6.607">
        <ele>1612.8</ele>
        <time>2013-08-30T09:11:01Z</time>
      </trkpt>
      <trkpt lat="45.01931" lon="6.60709">
        <ele>1612.8</ele>
        <time>2013-08-30T09:11:06Z</time>
      </trkpt>
      <trkpt lat="45.01933" lon="6.60732">
        <ele>1610.8</ele>
        <time>2013-08-30T09:11:20Z</time>
      </trkpt>
      <trkpt lat="45.01934" lon="6.60736">
        <ele>1611.8</ele>
        <time>2013-08-30T09:11:47Z</time>
      </trkpt>
      <trkpt lat="45.01938" lon="6.60737">
        <ele>1611.8</ele>
        <time>2013-08-30T09:12:19Z</time>
      </trkpt>
      <trkpt lat="45.01936" lon="6.60738">
        <ele>1611.3</ele>
        <time>2013-08-30T09:12:46Z</time>
      </trkpt>
      <trkpt lat="45.01934" lon="6.60732">
        <ele>1611.8</ele>
        <time>2013-08-30T09:13:17Z</time>
      </trkpt>
      <trkpt lat="45.01933" lon="6.60736">
        <ele>1612.3</ele>
        <time>2013-08-30T09:13:54Z</time>
      </trkpt>
      <trkpt lat="45.01934" lon="6.60745">
        <ele>1612.8</ele>
        <time>2013-08-30T09:14:17Z</time>
      </trkpt>
      <trkpt lat="45.01943" lon="6.60798">
        <ele>1612.3</ele>
        <time>2013-08-30T09:14:31Z</time>
      </trkpt>
      <trkpt lat="45.01946" lon="6.60857">
        <ele>1611.3</ele>
        <time>2013-08-30T09:14:43Z</time>
      </trkpt>
      <trkpt lat="45.01938" lon="6.60924">
        <ele>1611.3</ele>
        <time>2013-08-30T09:14:55Z</time>
      </trkpt>
      <trkpt lat="45.01938" lon="6.60929">
        <ele>1610.8</ele>
        <time>2013-08-30T09:14:56Z</time>
      </trkpt>
      <trkpt lat="45.01939" lon="6.60935">
        <ele>1611.3</ele>
        <time>2013-08-30T09:14:57Z</time>
      </trkpt>
      <trkpt lat="45.0194" lon="6.60941">
        <ele>1610.8</ele>
        <time>2013-08-30T09:14:58Z</time>
      </trkpt>
      <trkpt lat="45.01941" lon="6.60947">
        <ele>1610.8</ele>
        <time>2013-08-30T09:14:59Z</time>
      </trkpt>
      <trkpt lat="45.01942" lon="6.60953">
        <ele>1610.4</ele>
        <time>2013-08-30T09:15:00Z</time>
      </trkpt>
      <trkpt lat="45.01942" lon="6.60959">
        <ele>1610.4</ele>
        <time>2013-08-30T09:15:01Z</time>
      </trkpt>
      <trkpt lat="45.01944" lon="6.60985">
        <ele>1610.4</ele>
        <time>2013-08-30T09:15:05Z</time>
      </trkpt>
      <trkpt lat="45.01944" lon="6.60991">
        <ele>1609.9</ele>
        <time>2013-08-30T09:15:06Z</time>
      </trkpt>
      <trkpt lat="45.01943" lon="6.60997">
        <ele>1610.4</ele>
        <time>2013-08-30T09:15:07Z</time>
      </trkpt>
      <trkpt lat="45.01941" lon="6.61003">
        <ele>1609.9</ele>
        <time>2013-08-30T09:15:08Z</time>
      </trkpt>
      <trkpt lat="45.01937" lon="6.61015">
        <ele>1609.9</ele>
        <time>2013-08-30T09:15:10Z</time>
      </trkpt>
      <trkpt lat="45.01899" lon="6.61096">
        <ele>1609.9</ele>
        <time>2013-08-30T09:15:27Z</time>
      </trkpt>
      <trkpt lat="45.01876" lon="6.61126">
        <ele>1610.4</ele>
        <time>2013-08-30T09:15:35Z</time>
      </trkpt>
      <trkpt lat="45.01828" lon="6.612">
        <ele>1609.4</ele>
        <time>2013-08-30T09:15:51Z</time>
      </trkpt>
      <trkpt lat="45.01804" lon="6.61287">
        <ele>1609.4</ele>
        <time>2013-08-30T09:16:06Z</time>
      </trkpt>
      <trkpt lat="45.01804" lon="6.61293">
        <ele>1609.4</ele>
        <time>2013-08-30T09:16:07Z</time>
      </trkpt>
      <trkpt lat="45.01804" lon="6.61299">
        <ele>1609.4</ele>
        <time>2013-08-30T09:16:08Z</time>
      </trkpt>
      <trkpt lat="45.01812" lon="6.61363">
        <ele>1607.9</ele>
        <time>2013-08-30T09:16:18Z</time>
      </trkpt>
      <trkpt lat="45.01821" lon="6.61416">
        <ele>1608.4</ele>
        <time>2013-08-30T09:16:26Z</time>
      </trkpt>
      <trkpt lat="45.01863" lon="6.615">
        <ele>1607.9</ele>
        <time>2013-08-30T09:16:41Z</time>
      </trkpt>
      <trkpt lat="45.01865" lon="6.61506">
        <ele>1607.5</ele>
        <time>2013-08-30T09:16:42Z</time>
      </trkpt>
      <trkpt lat="45.01866" lon="6.61513">
        <ele>1607.5</ele>
        <time>2013-08-30T09:16:43Z</time>
      </trkpt>
      <trkpt lat="45.01866" lon="6.6152">
        <ele>1607.5</ele>
        <time>2013-08-30T09:16:44Z</time>
      </trkpt>
      <trkpt lat="45.01866" lon="6.61527">
        <ele>1607</ele>
        <time>2013-08-30T09:16:45Z</time>
      </trkpt>
      <trkpt lat="45.01865" lon="6.61535">
        <ele>1607.5</ele>
        <time>2013-08-30T09:16:46Z</time>
      </trkpt>
      <trkpt lat="45.01862" lon="6.61658">
        <ele>1606.5</ele>
        <time>2013-08-30T09:17:03Z</time>
      </trkpt>
      <trkpt lat="45.01858" lon="6.6168">
        <ele>1605.5</ele>
        <time>2013-08-30T09:17:07Z</time>
      </trkpt>
      <trkpt lat="45.01821" lon="6.61762">
        <ele>1606.5</ele>
        <time>2013-08-30T09:17:22Z</time>
      </trkpt>
      <trkpt lat="45.01819" lon="6.61768">
        <ele>1606</ele>
        <time>2013-08-30T09:17:23Z</time>
      </trkpt>
      <trkpt lat="45.01817" lon="6.61774">
        <ele>1606</ele>
        <time>2013-08-30T09:17:24Z</time>
      </trkpt>
      <trkpt lat="45.01816" lon="6.6178">
        <ele>1605.5</ele>
        <time>2013-08-30T09:17:25Z</time>
      </trkpt>
      <trkpt lat="45.01815" lon="6.61787">
        <ele>1605.5</ele>
        <time>2013-08-30T09:17:26Z</time>
      </trkpt>
      <trkpt lat="45.01814" lon="6.61794">
        <ele>1605.5</ele>
        <time>2013-08-30T09:17:27Z</time>
      </trkpt>
      <trkpt lat="45.01798" lon="6.61931">
        <ele>1605.1</ele>
        <time>2013-08-30T09:17:46Z</time>
      </trkpt>
      <trkpt lat="45.01786" lon="6.62078">
        <ele>1604.6</ele>
        <time>2013-08-30T09:18:07Z</time>
      </trkpt>
      <trkpt lat="45.01785" lon="6.6221">
        <ele>1605.1</ele>
        <time>2013-08-30T09:18:28Z</time>
      </trkpt>
      <trkpt lat="45.0179" lon="6.62321">
        <ele>1605.5</ele>
        <time>2013-08-30T09:18:47Z</time>
      </trkpt>
      <trkpt lat="45.01795" lon="6.62433">
        <ele>1607</ele>
        <time>2013-08-30T09:19:07Z</time>
      </trkpt>
      <trkpt lat="45.018" lon="6.62555">
        <ele>1608.4</ele>
        <time>2013-08-30T09:19:28Z</time>
      </trkpt>
      <trkpt lat="45.01799" lon="6.62633">
        <ele>1607</ele>
        <time>2013-08-30T09:19:41Z</time>
      </trkpt>
      <trkpt lat="45.01769" lon="6.62765">
        <ele>1605.5</ele>
        <time>2013-08-30T09:20:01Z</time>
      </trkpt>
      <trkpt lat="45.01731" lon="6.62898">
        <ele>1604.6</ele>
        <time>2013-08-30T09:20:20Z</time>
      </trkpt>
      <trkpt lat="45.01704" lon="6.6301">
        <ele>1602.7</ele>
        <time>2013-08-30T09:20:37Z</time>
      </trkpt>
      <trkpt lat="45.01694" lon="6.6313">
        <ele>1602.2</ele>
        <time>2013-08-30T09:20:54Z</time>
      </trkpt>
      <trkpt lat="45.01693" lon="6.63187">
        <ele>1602.7</ele>
        <time>2013-08-30T09:21:06Z</time>
      </trkpt>
      <trkpt lat="45.01692" lon="6.63189">
        <ele>1602.7</ele>
        <time>2013-08-30T09:21:07Z</time>
      </trkpt>
      <trkpt lat="45.0169" lon="6.6319">
        <ele>1602.7</ele>
        <time>2013-08-30T09:21:08Z</time>
      </trkpt>
      <trkpt lat="45.01688" lon="6.63189">
        <ele>1602.7</ele>
        <time>2013-08-30T09:21:09Z</time>
      </trkpt>
      <trkpt lat="45.01685" lon="6.63188">
        <ele>1601.7</ele>
        <time>2013-08-30T09:21:10Z</time>
      </trkpt>
      <trkpt lat="45.01682" lon="6.63185">
        <ele>1601.7</ele>
        <time>2013-08-30T09:21:11Z</time>
      </trkpt>
      <trkpt lat="45.0168" lon="6.63181">
        <ele>1601.2</ele>
        <time>2013-08-30T09:21:12Z</time>
      </trkpt>
      <trkpt lat="45.01679" lon="6.63177">
        <ele>1600.7</ele>
        <time>2013-08-30T09:21:13Z</time>
      </trkpt>
      <trkpt lat="45.01679" lon="6.63172">
        <ele>1601.2</ele>
        <time>2013-08-30T09:21:14Z</time>
      </trkpt>
      <trkpt lat="45.0168" lon="6.63169">
        <ele>1601.2</ele>
        <time>2013-08-30T09:21:15Z</time>
      </trkpt>
      <trkpt lat="45.01681" lon="6.63165">
        <ele>1601.2</ele>
        <time>2013-08-30T09:21:16Z</time>
      </trkpt>
      <trkpt lat="45.01682" lon="6.63162">
        <ele>1601.2</ele>
        <time>2013-08-30T09:21:17Z</time>
      </trkpt>
      <trkpt lat="45.01683" lon="6.6316">
        <ele>1601.2</ele>
        <time>2013-08-30T09:21:18Z</time>
      </trkpt>
      <trkpt lat="45.01683" lon="6.6316">
        <ele>1600.7</ele>
        <time>2013-08-30T09:21:33Z</time>
      </trkpt>
      <trkpt lat="45.01683" lon="6.63159">
        <ele>1600.7</ele>
        <time>2013-08-30T09:22:01Z</time>
      </trkpt>
      <trkpt lat="45.01682" lon="6.63159">
        <ele>1600.7</ele>
        <time>2013-08-30T09:22:09Z</time>
      </trkpt>
      <trkpt lat="45.01682" lon="6.63159">
        <ele>1601.2</ele>
        <time>2013-08-30T09:29:02Z</time>
      </trkpt>
      <trkpt lat="45.01681" lon="6.63154">
        <ele>1601.2</ele>
        <time>2013-08-30T09:29:03Z</time>
      </trkpt>
      <trkpt lat="45.01681" lon="6.6316">
        <ele>1598.8</ele>
        <time>2013-08-30T09:29:11Z</time>
      </trkpt>
      <trkpt lat="45.0168" lon="6.63163">
        <ele>1596.9</ele>
        <time>2013-08-30T09:29:15Z</time>
      </trkpt>
      <trkpt lat="45.01685" lon="6.63179">
        <ele>1594.5</ele>
        <time>2013-08-30T09:29:31Z</time>
      </trkpt>
      <trkpt lat="45.01685" lon="6.63181">
        <ele>1594.5</ele>
        <time>2013-08-30T09:29:33Z</time>
      </trkpt>
      <trkpt lat="45.01693" lon="6.63186">
        <ele>1593.5</ele>
        <time>2013-08-30T09:29:51Z</time>
      </trkpt>
      <trkpt lat="45.01694" lon="6.63193">
        <ele>1593.5</ele>
        <time>2013-08-30T09:30:05Z</time>
      </trkpt>
      <trkpt lat="45.01695" lon="6.63197">
        <ele>1593</ele>
        <time>2013-08-30T09:30:24Z</time>
      </trkpt>
      <trkpt lat="45.01692" lon="6.63196">
        <ele>1593.5</ele>
        <time>2013-08-30T09:30:48Z</time>
      </trkpt>
      <trkpt lat="45.01691" lon="6.63194">
        <ele>1593.5</ele>
        <time>2013-08-30T09:31:07Z</time>
      </trkpt>
      <trkpt lat="45.01692" lon="6.63194">
        <ele>1593.5</ele>
        <time>2013-08-30T09:31:31Z</time>
      </trkpt>
      <trkpt lat="45.01694" lon="6.632">
        <ele>1593.5</ele>
        <time>2013-08-30T09:32:02Z</time>
      </trkpt>
      <trkpt lat="45.01697" lon="6.63203">
        <ele>1593.5</ele>
        <time>2013-08-30T09:32:16Z</time>
      </trkpt>
      <trkpt lat="45.01698" lon="6.63252">
        <ele>1594</ele>
        <time>2013-08-30T09:32:29Z</time>
      </trkpt>
      <trkpt lat="45.01701" lon="6.63338">
        <ele>1594.5</ele>
        <time>2013-08-30T09:32:46Z</time>
      </trkpt>
      <trkpt lat="45.01693" lon="6.63458">
        <ele>1595.9</ele>
        <time>2013-08-30T09:33:06Z</time>
      </trkpt>
      <trkpt lat="45.01678" lon="6.63563">
        <ele>1595.9</ele>
        <time>2013-08-30T09:33:24Z</time>
      </trkpt>
      <trkpt lat="45.01672" lon="6.63646">
        <ele>1592.6</ele>
        <time>2013-08-30T09:33:36Z</time>
      </trkpt>
      <trkpt lat="45.01669" lon="6.63663">
        <ele>1592.6</ele>
        <time>2013-08-30T09:33:38Z</time>
      </trkpt>
      <trkpt lat="45.01654" lon="6.63752">
        <ele>1589.2</ele>
        <time>2013-08-30T09:33:48Z</time>
      </trkpt>
      <trkpt lat="45.01652" lon="6.63761">
        <ele>1589.2</ele>
        <time>2013-08-30T09:33:49Z</time>
      </trkpt>
      <trkpt lat="45.01644" lon="6.63887">
        <ele>1585.8</ele>
        <time>2013-08-30T09:34:01Z</time>
      </trkpt>
      <trkpt lat="45.01662" lon="6.63962">
        <ele>1583</ele>
        <time>2013-08-30T09:34:08Z</time>
      </trkpt>
      <trkpt lat="45.01702" lon="6.64036">
        <ele>1580.1</ele>
        <time>2013-08-30T09:34:16Z</time>
      </trkpt>
      <trkpt lat="45.01707" lon="6.64045">
        <ele>1580.1</ele>
        <time>2013-08-30T09:34:17Z</time>
      </trkpt>
      <trkpt lat="45.0173" lon="6.64094">
        <ele>1578.1</ele>
        <time>2013-08-30T09:34:22Z</time>
      </trkpt>
      <trkpt lat="45.01732" lon="6.64105">
        <ele>1577.7</ele>
        <time>2013-08-30T09:34:23Z</time>
      </trkpt>
      <trkpt lat="45.01734" lon="6.64117">
        <ele>1577.7</ele>
        <time>2013-08-30T09:34:24Z</time>
      </trkpt>
      <trkpt lat="45.01734" lon="6.64129">
        <ele>1577.2</ele>
        <time>2013-08-30T09:34:25Z</time>
      </trkpt>
      <trkpt lat="45.01732" lon="6.64141">
        <ele>1576.7</ele>
        <time>2013-08-30T09:34:26Z</time>
      </trkpt>
      <trkpt lat="45.01729" lon="6.64152">
        <ele>1576.7</ele>
        <time>2013-08-30T09:34:27Z</time>
      </trkpt>
      <trkpt lat="45.01726" lon="6.64162">
        <ele>1575.7</ele>
        <time>2013-08-30T09:34:28Z</time>
      </trkpt>
      <trkpt lat="45.01721" lon="6.64182">
        <ele>1575.7</ele>
        <time>2013-08-30T09:34:30Z</time>
      </trkpt>
      <trkpt lat="45.01721" lon="6.64192">
        <ele>1574.8</ele>
        <time>2013-08-30T09:34:31Z</time>
      </trkpt>
      <trkpt lat="45.01722" lon="6.64202">
        <ele>1574.8</ele>
        <time>2013-08-30T09:34:32Z</time>
      </trkpt>
      <trkpt lat="45.01723" lon="6.64212">
        <ele>1574.3</ele>
        <time>2013-08-30T09:34:33Z</time>
      </trkpt>
      <trkpt lat="45.01725" lon="6.64222">
        <ele>1573.8</ele>
        <time>2013-08-30T09:34:34Z</time>
      </trkpt>
      <trkpt lat="45.01732" lon="6.64262">
        <ele>1571.9</ele>
        <time>2013-08-30T09:34:38Z</time>
      </trkpt>
      <trkpt lat="45.01732" lon="6.64315">
        <ele>1570.5</ele>
        <time>2013-08-30T09:34:43Z</time>
      </trkpt>
      <trkpt lat="45.01738" lon="6.64368">
        <ele>1568.5</ele>
        <time>2013-08-30T09:34:48Z</time>
      </trkpt>
      <trkpt lat="45.0174" lon="6.64378">
        <ele>1568.5</ele>
        <time>2013-08-30T09:34:49Z</time>
      </trkpt>
      <trkpt lat="45.01771" lon="6.64483">
        <ele>1565.2</ele>
        <time>2013-08-30T09:34:59Z</time>
      </trkpt>
      <trkpt lat="45.01786" lon="6.64537">
        <ele>1563.7</ele>
        <time>2013-08-30T09:35:04Z</time>
      </trkpt>
      <trkpt lat="45.01787" lon="6.64549">
        <ele>1563.2</ele>
        <time>2013-08-30T09:35:05Z</time>
      </trkpt>
      <trkpt lat="45.01787" lon="6.64561">
        <ele>1562.8</ele>
        <time>2013-08-30T09:35:06Z</time>
      </trkpt>
      <trkpt lat="45.01786" lon="6.64573">
        <ele>1562.3</ele>
        <time>2013-08-30T09:35:07Z</time>
      </trkpt>
      <trkpt lat="45.01785" lon="6.64585">
        <ele>1561.8</ele>
        <time>2013-08-30T09:35:08Z</time>
      </trkpt>
      <trkpt lat="45.01784" lon="6.64609">
        <ele>1561.3</ele>
        <time>2013-08-30T09:35:10Z</time>
      </trkpt>
      <trkpt lat="45.01784" lon="6.6462">
        <ele>1561.3</ele>
        <time>2013-08-30T09:35:11Z</time>
      </trkpt>
      <trkpt lat="45.01785" lon="6.64632">
        <ele>1560.4</ele>
        <time>2013-08-30T09:35:12Z</time>
      </trkpt>
      <trkpt lat="45.01794" lon="6.64687">
        <ele>1558.4</ele>
        <time>2013-08-30T09:35:17Z</time>
      </trkpt>
      <trkpt lat="45.01806" lon="6.64751">
        <ele>1556</ele>
        <time>2013-08-30T09:35:23Z</time>
      </trkpt>
      <trkpt lat="45.01807" lon="6.64762">
        <ele>1555.6</ele>
        <time>2013-08-30T09:35:24Z</time>
      </trkpt>
      <trkpt lat="45.01807" lon="6.64774">
        <ele>1555.6</ele>
        <time>2013-08-30T09:35:25Z</time>
      </trkpt>
      <trkpt lat="45.01805" lon="6.64785">
        <ele>1555.1</ele>
        <time>2013-08-30T09:35:26Z</time>
      </trkpt>
      <trkpt lat="45.01803" lon="6.64796">
        <ele>1554.6</ele>
        <time>2013-08-30T09:35:27Z</time>
      </trkpt>
      <trkpt lat="45.01801" lon="6.64807">
        <ele>1554.6</ele>
        <time>2013-08-30T09:35:28Z</time>
      </trkpt>
      <trkpt lat="45.01788" lon="6.6489">
        <ele>1551.7</ele>
        <time>2013-08-30T09:35:36Z</time>
      </trkpt>
      <trkpt lat="45.01782" lon="6.64988">
        <ele>1548.8</ele>
        <time>2013-08-30T09:35:46Z</time>
      </trkpt>
      <trkpt lat="45.01777" lon="6.65031">
        <ele>1547.9</ele>
        <time>2013-08-30T09:35:50Z</time>
      </trkpt>
      <trkpt lat="45.01774" lon="6.65041">
        <ele>1547.4</ele>
        <time>2013-08-30T09:35:51Z</time>
      </trkpt>
      <trkpt lat="45.0177" lon="6.65051">
        <ele>1546.9</ele>
        <time>2013-08-30T09:35:52Z</time>
      </trkpt>
      <trkpt lat="45.01766" lon="6.65062">
        <ele>1546.9</ele>
        <time>2013-08-30T09:35:53Z</time>
      </trkpt>
      <trkpt lat="45.01762" lon="6.65071">
        <ele>1545.9</ele>
        <time>2013-08-30T09:35:54Z</time>
      </trkpt>
      <trkpt lat="45.01708" lon="6.65179">
        <ele>1542.6</ele>
        <time>2013-08-30T09:36:06Z</time>
      </trkpt>
      <trkpt lat="45.01702" lon="6.65187">
        <ele>1543.1</ele>
        <time>2013-08-30T09:36:07Z</time>
      </trkpt>
      <trkpt lat="45.01696" lon="6.65194">
        <ele>1542.1</ele>
        <time>2013-08-30T09:36:08Z</time>
      </trkpt>
      <trkpt lat="45.01681" lon="6.65207">
        <ele>1541.1</ele>
        <time>2013-08-30T09:36:10Z</time>
      </trkpt>
      <trkpt lat="45.01673" lon="6.65212">
        <ele>1540.7</ele>
        <time>2013-08-30T09:36:11Z</time>
      </trkpt>
      <trkpt lat="45.01635" lon="6.65236">
        <ele>1539.2</ele>
        <time>2013-08-30T09:36:16Z</time>
      </trkpt>
      <trkpt lat="45.01628" lon="6.65244">
        <ele>1538.7</ele>
        <time>2013-08-30T09:36:17Z</time>
      </trkpt>
      <trkpt lat="45.01622" lon="6.65252">
        <ele>1538.3</ele>
        <time>2013-08-30T09:36:18Z</time>
      </trkpt>
      <trkpt lat="45.01617" lon="6.65261">
        <ele>1538.3</ele>
        <time>2013-08-30T09:36:19Z</time>
      </trkpt>
      <trkpt lat="45.01612" lon="6.65272">
        <ele>1537.8</ele>
        <time>2013-08-30T09:36:20Z</time>
      </trkpt>
      <trkpt lat="45.01607" lon="6.65282">
        <ele>1537.3</ele>
        <time>2013-08-30T09:36:21Z</time>
      </trkpt>
      <trkpt lat="45.01564" lon="6.6538">
        <ele>1534.4</ele>
        <time>2013-08-30T09:36:30Z</time>
      </trkpt>
      <trkpt lat="45.01491" lon="6.6553">
        <ele>1532.5</ele>
        <time>2013-08-30T09:36:45Z</time>
      </trkpt>
      <trkpt lat="45.0147" lon="6.65563">
        <ele>1531.5</ele>
        <time>2013-08-30T09:36:49Z</time>
      </trkpt>
      <trkpt lat="45.01463" lon="6.65569">
        <ele>1530.6</ele>
        <time>2013-08-30T09:36:50Z</time>
      </trkpt>
      <trkpt lat="45.01456" lon="6.65574">
        <ele>1531</ele>
        <time>2013-08-30T09:36:51Z</time>
      </trkpt>
      <trkpt lat="45.01449" lon="6.65577">
        <ele>1530.6</ele>
        <time>2013-08-30T09:36:52Z</time>
      </trkpt>
      <trkpt lat="45.01441" lon="6.65578">
        <ele>1530.1</ele>
        <time>2013-08-30T09:36:53Z</time>
      </trkpt>
      <trkpt lat="45.01434" lon="6.65578">
        <ele>1530.1</ele>
        <time>2013-08-30T09:36:54Z</time>
      </trkpt>
      <trkpt lat="45.01426" lon="6.65575">
        <ele>1530.1</ele>
        <time>2013-08-30T09:36:55Z</time>
      </trkpt>
      <trkpt lat="45.01419" lon="6.65572">
        <ele>1530.1</ele>
        <time>2013-08-30T09:36:56Z</time>
      </trkpt>
      <trkpt lat="45.01412" lon="6.65569">
        <ele>1530.1</ele>
        <time>2013-08-30T09:36:57Z</time>
      </trkpt>
      <trkpt lat="45.01377" lon="6.65558">
        <ele>1529.6</ele>
        <time>2013-08-30T09:37:02Z</time>
      </trkpt>
      <trkpt lat="45.01371" lon="6.65558">
        <ele>1529.6</ele>
        <time>2013-08-30T09:37:03Z</time>
      </trkpt>
      <trkpt lat="45.01364" lon="6.65561">
        <ele>1529.1</ele>
        <time>2013-08-30T09:37:04Z</time>
      </trkpt>
      <trkpt lat="45.01358" lon="6.65564">
        <ele>1529.1</ele>
        <time>2013-08-30T09:37:05Z</time>
      </trkpt>
      <trkpt lat="45.01351" lon="6.65569">
        <ele>1528.6</ele>
        <time>2013-08-30T09:37:06Z</time>
      </trkpt>
      <trkpt lat="45.01345" lon="6.65575">
        <ele>1528.2</ele>
        <time>2013-08-30T09:37:07Z</time>
      </trkpt>
      <trkpt lat="45.01339" lon="6.65582">
        <ele>1527.7</ele>
        <time>2013-08-30T09:37:08Z</time>
      </trkpt>
      <trkpt lat="45.01269" lon="6.65648">
        <ele>1524.8</ele>
        <time>2013-08-30T09:37:19Z</time>
      </trkpt>
      <trkpt lat="45.01169" lon="6.65742">
        <ele>1521.9</ele>
        <time>2013-08-30T09:37:36Z</time>
      </trkpt>
      <trkpt lat="45.01097" lon="6.65826">
        <ele>1519</ele>
        <time>2013-08-30T09:37:51Z</time>
      </trkpt>
      <trkpt lat="45.01035" lon="6.6588">
        <ele>1517.6</ele>
        <time>2013-08-30T09:38:02Z</time>
      </trkpt>
      <trkpt lat="45.01028" lon="6.65882">
        <ele>1516.6</ele>
        <time>2013-08-30T09:38:03Z</time>
      </trkpt>
      <trkpt lat="45.01021" lon="6.65882">
        <ele>1516.6</ele>
        <time>2013-08-30T09:38:04Z</time>
      </trkpt>
      <trkpt lat="45.00922" lon="6.65882">
        <ele>1514.2</ele>
        <time>2013-08-30T09:38:19Z</time>
      </trkpt>
      <trkpt lat="45.00869" lon="6.65897">
        <ele>1514.2</ele>
        <time>2013-08-30T09:38:28Z</time>
      </trkpt>
      <trkpt lat="45.00823" lon="6.65904">
        <ele>1513.7</ele>
        <time>2013-08-30T09:38:36Z</time>
      </trkpt>
      <trkpt lat="45.00818" lon="6.65905">
        <ele>1513.7</ele>
        <time>2013-08-30T09:38:37Z</time>
      </trkpt>
      <trkpt lat="45.00715" lon="6.65918">
        <ele>1511.3</ele>
        <time>2013-08-30T09:38:54Z</time>
      </trkpt>
      <trkpt lat="45.00595" lon="6.65931">
        <ele>1508.5</ele>
        <time>2013-08-30T09:39:12Z</time>
      </trkpt>
      <trkpt lat="45.00528" lon="6.65942">
        <ele>1506.5</ele>
        <time>2013-08-30T09:39:23Z</time>
      </trkpt>
      <trkpt lat="45.00522" lon="6.65942">
        <ele>1506.5</ele>
        <time>2013-08-30T09:39:24Z</time>
      </trkpt>
      <trkpt lat="45.00482" lon="6.65932">
        <ele>1504.6</ele>
        <time>2013-08-30T09:39:30Z</time>
      </trkpt>
      <trkpt lat="45.00454" lon="6.65927">
        <ele>1504.1</ele>
        <time>2013-08-30T09:39:34Z</time>
      </trkpt>
      <trkpt lat="45.00393" lon="6.65919">
        <ele>1502.2</ele>
        <time>2013-08-30T09:39:42Z</time>
      </trkpt>
      <trkpt lat="45.00386" lon="6.65921">
        <ele>1502.2</ele>
        <time>2013-08-30T09:39:43Z</time>
      </trkpt>
      <trkpt lat="45.00322" lon="6.65936">
        <ele>1500.8</ele>
        <time>2013-08-30T09:39:52Z</time>
      </trkpt>
      <trkpt lat="45.00315" lon="6.6594">
        <ele>1500.3</ele>
        <time>2013-08-30T09:39:53Z</time>
      </trkpt>
      <trkpt lat="45.00308" lon="6.65945">
        <ele>1499.8</ele>
        <time>2013-08-30T09:39:54Z</time>
      </trkpt>
      <trkpt lat="45.00303" lon="6.65953">
        <ele>1499.3</ele>
        <time>2013-08-30T09:39:55Z</time>
      </trkpt>
      <trkpt lat="45.00298" lon="6.65961">
        <ele>1498.8</ele>
        <time>2013-08-30T09:39:56Z</time>
      </trkpt>
      <trkpt lat="45.00293" lon="6.6597">
        <ele>1498.8</ele>
        <time>2013-08-30T09:39:57Z</time>
      </trkpt>
      <trkpt lat="45.0029" lon="6.6598">
        <ele>1498.4</ele>
        <time>2013-08-30T09:39:58Z</time>
      </trkpt>
      <trkpt lat="45.00287" lon="6.65991">
        <ele>1497.4</ele>
        <time>2013-08-30T09:39:59Z</time>
      </trkpt>
      <trkpt lat="45.00284" lon="6.66001">
        <ele>1497.4</ele>
        <time>2013-08-30T09:40:00Z</time>
      </trkpt>
      <trkpt lat="45.00278" lon="6.66048">
        <ele>1496</ele>
        <time>2013-08-30T09:40:05Z</time>
      </trkpt>
      <trkpt lat="45.00283" lon="6.66116">
        <ele>1494.5</ele>
        <time>2013-08-30T09:40:16Z</time>
      </trkpt>
      <trkpt lat="45.00274" lon="6.66151">
        <ele>1494</ele>
        <time>2013-08-30T09:40:26Z</time>
      </trkpt>
      <trkpt lat="45.00265" lon="6.66166">
        <ele>1494</ele>
        <time>2013-08-30T09:40:33Z</time>
      </trkpt>
      <trkpt lat="45.00266" lon="6.66167">
        <ele>1493.6</ele>
        <time>2013-08-30T09:40:34Z</time>
      </trkpt>
      <trkpt lat="45.00267" lon="6.66167">
        <ele>1493.6</ele>
        <time>2013-08-30T09:40:35Z</time>
      </trkpt>
      <trkpt lat="45.00268" lon="6.66167">
        <ele>1494</ele>
        <time>2013-08-30T09:40:36Z</time>
      </trkpt>
      <trkpt lat="45.00269" lon="6.66165">
        <ele>1494.5</ele>
        <time>2013-08-30T09:40:37Z</time>
      </trkpt>
      <trkpt lat="45.0027" lon="6.66163">
        <ele>1493.6</ele>
        <time>2013-08-30T09:40:38Z</time>
      </trkpt>
      <trkpt lat="45.00271" lon="6.6616">
        <ele>1494</ele>
        <time>2013-08-30T09:40:39Z</time>
      </trkpt>
      <trkpt lat="45.00291" lon="6.66123">
        <ele>1495</ele>
        <time>2013-08-30T09:40:53Z</time>
      </trkpt>
      <trkpt lat="45.00322" lon="6.661">
        <ele>1495</ele>
        <time>2013-08-30T09:41:06Z</time>
      </trkpt>
      <trkpt lat="45.00359" lon="6.66087">
        <ele>1496.9</ele>
        <time>2013-08-30T09:41:20Z</time>
      </trkpt>
      <trkpt lat="45.00365" lon="6.66088">
        <ele>1496.4</ele>
        <time>2013-08-30T09:41:22Z</time>
      </trkpt>
      <trkpt lat="45.00368" lon="6.6609">
        <ele>1496.4</ele>
        <time>2013-08-30T09:41:23Z</time>
      </trkpt>
      <trkpt lat="45.0037" lon="6.66094">
        <ele>1496.4</ele>
        <time>2013-08-30T09:41:24Z</time>
      </trkpt>
      <trkpt lat="45.00371" lon="6.66098">
        <ele>1496.4</ele>
        <time>2013-08-30T09:41:25Z</time>
      </trkpt>
      <trkpt lat="45.00371" lon="6.66102">
        <ele>1496.9</ele>
        <time>2013-08-30T09:41:26Z</time>
      </trkpt>
      <trkpt lat="45.00372" lon="6.66107">
        <ele>1496.4</ele>
        <time>2013-08-30T09:41:27Z</time>
      </trkpt>
      <trkpt lat="45.0037" lon="6.66135">
        <ele>1498.4</ele>
        <time>2013-08-30T09:41:39Z</time>
      </trkpt>
      <trkpt lat="45.00364" lon="6.66165">
        <ele>1501.7</ele>
        <time>2013-08-30T09:41:55Z</time>
      </trkpt>
      <trkpt lat="45.00354" lon="6.66191">
        <ele>1504.6</ele>
        <time>2013-08-30T09:42:12Z</time>
      </trkpt>
      <trkpt lat="45.00352" lon="6.66202">
        <ele>1504.6</ele>
        <time>2013-08-30T09:42:19Z</time>
      </trkpt>
      <trkpt lat="45.00353" lon="6.66204">
        <ele>1505.1</ele>
        <time>2013-08-30T09:42:20Z</time>
      </trkpt>
      <trkpt lat="45.00354" lon="6.66234">
        <ele>1508</ele>
        <time>2013-08-30T09:42:36Z</time>
      </trkpt>
      <trkpt lat="45.00353" lon="6.66264">
        <ele>1510.4</ele>
        <time>2013-08-30T09:42:52Z</time>
      </trkpt>
      <trkpt lat="45.00342" lon="6.66295">
        <ele>1511.8</ele>
        <time>2013-08-30T09:43:07Z</time>
      </trkpt>
      <trkpt lat="45.00341" lon="6.66296">
        <ele>1511.8</ele>
        <time>2013-08-30T09:43:08Z</time>
      </trkpt>
      <trkpt lat="45.0034" lon="6.66298">
        <ele>1511.3</ele>
        <time>2013-08-30T09:43:09Z</time>
      </trkpt>
      <trkpt lat="45.00328" lon="6.6633">
        <ele>1512.8</ele>
        <time>2013-08-30T09:43:25Z</time>
      </trkpt>
      <trkpt lat="45.00316" lon="6.66365">
        <ele>1515.7</ele>
        <time>2013-08-30T09:43:44Z</time>
      </trkpt>
      <trkpt lat="45.00308" lon="6.66387">
        <ele>1517.6</ele>
        <time>2013-08-30T09:44:01Z</time>
      </trkpt>
      <trkpt lat="45.00307" lon="6.66395">
        <ele>1518.5</ele>
        <time>2013-08-30T09:44:16Z</time>
      </trkpt>
      <trkpt lat="45.00305" lon="6.66416">
        <ele>1520.9</ele>
        <time>2013-08-30T09:44:35Z</time>
      </trkpt>
      <trkpt lat="45.00305" lon="6.66435">
        <ele>1523.4</ele>
        <time>2013-08-30T09:44:54Z</time>
      </trkpt>
      <trkpt lat="45.003" lon="6.66453">
        <ele>1525.3</ele>
        <time>2013-08-30T09:45:11Z</time>
      </trkpt>
      <trkpt lat="45.00294" lon="6.66469">
        <ele>1528.2</ele>
        <time>2013-08-30T09:45:29Z</time>
      </trkpt>
      <trkpt lat="45.00282" lon="6.66479">
        <ele>1530.6</ele>
        <time>2013-08-30T09:45:47Z</time>
      </trkpt>
      <trkpt lat="45.00267" lon="6.66493">
        <ele>1532.5</ele>
        <time>2013-08-30T09:46:08Z</time>
      </trkpt>
      <trkpt lat="45.00255" lon="6.66506">
        <ele>1533.9</ele>
        <time>2013-08-30T09:46:27Z</time>
      </trkpt>
      <trkpt lat="45.00244" lon="6.66521">
        <ele>1535.8</ele>
        <time>2013-08-30T09:46:45Z</time>
      </trkpt>
      <trkpt lat="45.00236" lon="6.66535">
        <ele>1537.8</ele>
        <time>2013-08-30T09:47:02Z</time>
      </trkpt>
      <trkpt lat="45.00227" lon="6.66548">
        <ele>1538.7</ele>
        <time>2013-08-30T09:47:18Z</time>
      </trkpt>
      <trkpt lat="45.00217" lon="6.6656">
        <ele>1541.1</ele>
        <time>2013-08-30T09:47:36Z</time>
      </trkpt>
      <trkpt lat="45.0021" lon="6.66576">
        <ele>1543.1</ele>
        <time>2013-08-30T09:47:54Z</time>
      </trkpt>
      <trkpt lat="45.00209" lon="6.66589">
        <ele>1544</ele>
        <time>2013-08-30T09:48:08Z</time>
      </trkpt>
      <trkpt lat="45.00202" lon="6.66605">
        <ele>1545.5</ele>
        <time>2013-08-30T09:48:23Z</time>
      </trkpt>
      <trkpt lat="45.00196" lon="6.66616">
        <ele>1546.9</ele>
        <time>2013-08-30T09:48:36Z</time>
      </trkpt>
      <trkpt lat="45.0019" lon="6.66626">
        <ele>1548.8</ele>
        <time>2013-08-30T09:48:50Z</time>
      </trkpt>
      <trkpt lat="45.00181" lon="6.66642">
        <ele>1549.8</ele>
        <time>2013-08-30T09:49:06Z</time>
      </trkpt>
      <trkpt lat="45.00172" lon="6.66648">
        <ele>1552.7</ele>
        <time>2013-08-30T09:49:20Z</time>
      </trkpt>
      <trkpt lat="45.00161" lon="6.66658">
        <ele>1553.2</ele>
        <time>2013-08-30T09:49:35Z</time>
      </trkpt>
      <trkpt lat="45.00155" lon="6.66667">
        <ele>1555.1</ele>
        <time>2013-08-30T09:49:47Z</time>
      </trkpt>
      <trkpt lat="45.00144" lon="6.66676">
        <ele>1557</ele>
        <time>2013-08-30T09:50:03Z</time>
      </trkpt>
      <trkpt lat="45.00143" lon="6.66689">
        <ele>1558.9</ele>
        <time>2013-08-30T09:50:15Z</time>
      </trkpt>
      <trkpt lat="45.00145" lon="6.66693">
        <ele>1558.9</ele>
        <time>2013-08-30T09:50:30Z</time>
      </trkpt>
      <trkpt lat="45.0015" lon="6.66689">
        <ele>1558.9</ele>
        <time>2013-08-30T09:50:37Z</time>
      </trkpt>
      <trkpt lat="45.00152" lon="6.66688">
        <ele>1559.4</ele>
        <time>2013-08-30T09:50:38Z</time>
      </trkpt>
      <trkpt lat="45.00153" lon="6.66686">
        <ele>1559.4</ele>
        <time>2013-08-30T09:50:39Z</time>
      </trkpt>
      <trkpt lat="45.00169" lon="6.66677">
        <ele>1561.3</ele>
        <time>2013-08-30T09:50:54Z</time>
      </trkpt>
      <trkpt lat="45.00182" lon="6.66674">
        <ele>1563.7</ele>
        <time>2013-08-30T09:51:07Z</time>
      </trkpt>
      <trkpt lat="45.00194" lon="6.66676">
        <ele>1565.2</ele>
        <time>2013-08-30T09:51:17Z</time>
      </trkpt>
      <trkpt lat="45.00196" lon="6.66679">
        <ele>1565.2</ele>
        <time>2013-08-30T09:51:19Z</time>
      </trkpt>
      <trkpt lat="45.00197" lon="6.66682">
        <ele>1565.2</ele>
        <time>2013-08-30T09:51:21Z</time>
      </trkpt>
      <trkpt lat="45.00196" lon="6.66684">
        <ele>1565.2</ele>
        <time>2013-08-30T09:51:22Z</time>
      </trkpt>
      <trkpt lat="45.00196" lon="6.66686">
        <ele>1566.1</ele>
        <time>2013-08-30T09:51:23Z</time>
      </trkpt>
      <trkpt lat="45.00184" lon="6.66689">
        <ele>1567.6</ele>
        <time>2013-08-30T09:51:33Z</time>
      </trkpt>
      <trkpt lat="45.00172" lon="6.66697">
        <ele>1570</ele>
        <time>2013-08-30T09:51:46Z</time>
      </trkpt>
      <trkpt lat="45.00163" lon="6.66712">
        <ele>1571.4</ele>
        <time>2013-08-30T09:51:58Z</time>
      </trkpt>
      <trkpt lat="45.00155" lon="6.66724">
        <ele>1573.3</ele>
        <time>2013-08-30T09:52:08Z</time>
      </trkpt>
      <trkpt lat="45.00153" lon="6.66726">
        <ele>1573.3</ele>
        <time>2013-08-30T09:52:09Z</time>
      </trkpt>
      <trkpt lat="45.00153" lon="6.66736">
        <ele>1574.8</ele>
        <time>2013-08-30T09:52:17Z</time>
      </trkpt>
      <trkpt lat="45.00154" lon="6.66737">
        <ele>1574.8</ele>
        <time>2013-08-30T09:52:18Z</time>
      </trkpt>
      <trkpt lat="45.00156" lon="6.66737">
        <ele>1574.3</ele>
        <time>2013-08-30T09:52:19Z</time>
      </trkpt>
      <trkpt lat="45.00165" lon="6.6673">
        <ele>1576.2</ele>
        <time>2013-08-30T09:52:29Z</time>
      </trkpt>
      <trkpt lat="45.00167" lon="6.66728">
        <ele>1576.7</ele>
        <time>2013-08-30T09:52:32Z</time>
      </trkpt>
      <trkpt lat="45.00168" lon="6.66727">
        <ele>1576.7</ele>
        <time>2013-08-30T09:52:33Z</time>
      </trkpt>
      <trkpt lat="45.00184" lon="6.66723">
        <ele>1578.6</ele>
        <time>2013-08-30T09:52:46Z</time>
      </trkpt>
      <trkpt lat="45.00208" lon="6.66715">
        <ele>1581.5</ele>
        <time>2013-08-30T09:53:04Z</time>
      </trkpt>
      <trkpt lat="45.00226" lon="6.66708">
        <ele>1583.9</ele>
        <time>2013-08-30T09:53:19Z</time>
      </trkpt>
      <trkpt lat="45.00236" lon="6.66703">
        <ele>1585.4</ele>
        <time>2013-08-30T09:53:28Z</time>
      </trkpt>
      <trkpt lat="45.00237" lon="6.66705">
        <ele>1585.4</ele>
        <time>2013-08-30T09:53:29Z</time>
      </trkpt>
      <trkpt lat="45.00238" lon="6.66706">
        <ele>1585.4</ele>
        <time>2013-08-30T09:53:30Z</time>
      </trkpt>
      <trkpt lat="45.00239" lon="6.66708">
        <ele>1585.4</ele>
        <time>2013-08-30T09:53:31Z</time>
      </trkpt>
      <trkpt lat="45.00239" lon="6.66709">
        <ele>1585.8</ele>
        <time>2013-08-30T09:53:32Z</time>
      </trkpt>
      <trkpt lat="45.00239" lon="6.66711">
        <ele>1585.8</ele>
        <time>2013-08-30T09:53:33Z</time>
      </trkpt>
      <trkpt lat="45.0024" lon="6.66713">
        <ele>1585.8</ele>
        <time>2013-08-30T09:53:34Z</time>
      </trkpt>
      <trkpt lat="45.00239" lon="6.66715">
        <ele>1586.3</ele>
        <time>2013-08-30T09:53:35Z</time>
      </trkpt>
      <trkpt lat="45.00238" lon="6.66717">
        <ele>1586.3</ele>
        <time>2013-08-30T09:53:37Z</time>
      </trkpt>
      <trkpt lat="45.00236" lon="6.66718">
        <ele>1587.3</ele>
        <time>2013-08-30T09:53:38Z</time>
      </trkpt>
      <trkpt lat="45.00235" lon="6.66719">
        <ele>1586.3</ele>
        <time>2013-08-30T09:53:39Z</time>
      </trkpt>
      <trkpt lat="45.00225" lon="6.66726">
        <ele>1588.7</ele>
        <time>2013-08-30T09:53:49Z</time>
      </trkpt>
      <trkpt lat="45.00224" lon="6.66727">
        <ele>1589.7</ele>
        <time>2013-08-30T09:53:50Z</time>
      </trkpt>
      <trkpt lat="45.00217" lon="6.66734">
        <ele>1590.6</ele>
        <time>2013-08-30T09:53:58Z</time>
      </trkpt>
      <trkpt lat="45.00216" lon="6.66735">
        <ele>1590.6</ele>
        <time>2013-08-30T09:53:59Z</time>
      </trkpt>
      <trkpt lat="45.00211" lon="6.66739">
        <ele>1592.1</ele>
        <time>2013-08-30T09:54:04Z</time>
      </trkpt>
      <trkpt lat="45.00203" lon="6.66751">
        <ele>1593</ele>
        <time>2013-08-30T09:54:14Z</time>
      </trkpt>
      <trkpt lat="45.00197" lon="6.66757">
        <ele>1594.5</ele>
        <time>2013-08-30T09:54:21Z</time>
      </trkpt>
      <trkpt lat="45.00189" lon="6.66772">
        <ele>1595.9</ele>
        <time>2013-08-30T09:54:32Z</time>
      </trkpt>
      <trkpt lat="45.00178" lon="6.66791">
        <ele>1597.9</ele>
        <time>2013-08-30T09:54:45Z</time>
      </trkpt>
      <trkpt lat="45.00168" lon="6.66808">
        <ele>1599.8</ele>
        <time>2013-08-30T09:54:59Z</time>
      </trkpt>
      <trkpt lat="45.00154" lon="6.66826">
        <ele>1602.2</ele>
        <time>2013-08-30T09:55:14Z</time>
      </trkpt>
      <trkpt lat="45.00143" lon="6.66841">
        <ele>1604.6</ele>
        <time>2013-08-30T09:55:29Z</time>
      </trkpt>
      <trkpt lat="45.00136" lon="6.66849">
        <ele>1606.5</ele>
        <time>2013-08-30T09:55:39Z</time>
      </trkpt>
      <trkpt lat="45.00134" lon="6.6685">
        <ele>1607</ele>
        <time>2013-08-30T09:55:40Z</time>
      </trkpt>
      <trkpt lat="45.00133" lon="6.66851">
        <ele>1606.5</ele>
        <time>2013-08-30T09:55:41Z</time>
      </trkpt>
      <trkpt lat="45.00132" lon="6.66851">
        <ele>1606.5</ele>
        <time>2013-08-30T09:55:42Z</time>
      </trkpt>
      <trkpt lat="45.0013" lon="6.66852">
        <ele>1607.5</ele>
        <time>2013-08-30T09:55:43Z</time>
      </trkpt>
      <trkpt lat="45.00115" lon="6.66863">
        <ele>1608.9</ele>
        <time>2013-08-30T09:55:53Z</time>
      </trkpt>
      <trkpt lat="45.00114" lon="6.66866">
        <ele>1609.4</ele>
        <time>2013-08-30T09:55:54Z</time>
      </trkpt>
      <trkpt lat="45.00113" lon="6.66869">
        <ele>1609.4</ele>
        <time>2013-08-30T09:55:55Z</time>
      </trkpt>
      <trkpt lat="45.00113" lon="6.66871">
        <ele>1609.9</ele>
        <time>2013-08-30T09:55:56Z</time>
      </trkpt>
      <trkpt lat="45.00113" lon="6.66875">
        <ele>1609.4</ele>
        <time>2013-08-30T09:55:58Z</time>
      </trkpt>
      <trkpt lat="45.00114" lon="6.66877">
        <ele>1608.9</ele>
        <time>2013-08-30T09:56:00Z</time>
      </trkpt>
      <trkpt lat="45.00126" lon="6.66874">
        <ele>1611.8</ele>
        <time>2013-08-30T09:56:13Z</time>
      </trkpt>
      <trkpt lat="45.00127" lon="6.66873">
        <ele>1611.8</ele>
        <time>2013-08-30T09:56:14Z</time>
      </trkpt>
      <trkpt lat="45.00129" lon="6.66873">
        <ele>1612.3</ele>
        <time>2013-08-30T09:56:15Z</time>
      </trkpt>
      <trkpt lat="45.00131" lon="6.66872">
        <ele>1612.3</ele>
        <time>2013-08-30T09:56:16Z</time>
      </trkpt>
      <trkpt lat="45.00153" lon="6.66866">
        <ele>1615.2</ele>
        <time>2013-08-30T09:56:33Z</time>
      </trkpt>
      <trkpt lat="45.00173" lon="6.66861">
        <ele>1618</ele>
        <time>2013-08-30T09:56:49Z</time>
      </trkpt>
      <trkpt lat="45.00187" lon="6.66856">
        <ele>1620.4</ele>
        <time>2013-08-30T09:57:04Z</time>
      </trkpt>
      <trkpt lat="45.00203" lon="6.66843">
        <ele>1622.8</ele>
        <time>2013-08-30T09:57:19Z</time>
      </trkpt>
      <trkpt lat="45.00219" lon="6.66831">
        <ele>1626.2</ele>
        <time>2013-08-30T09:57:35Z</time>
      </trkpt>
      <trkpt lat="45.00229" lon="6.66823">
        <ele>1627.7</ele>
        <time>2013-08-30T09:57:49Z</time>
      </trkpt>
      <trkpt lat="45.00241" lon="6.66813">
        <ele>1629.6</ele>
        <time>2013-08-30T09:58:08Z</time>
      </trkpt>
      <trkpt lat="45.00255" lon="6.66805">
        <ele>1631.5</ele>
        <time>2013-08-30T09:58:26Z</time>
      </trkpt>
      <trkpt lat="45.00269" lon="6.66797">
        <ele>1633.4</ele>
        <time>2013-08-30T09:58:44Z</time>
      </trkpt>
      <trkpt lat="45.00282" lon="6.6679">
        <ele>1635.8</ele>
        <time>2013-08-30T09:59:02Z</time>
      </trkpt>
      <trkpt lat="45.00295" lon="6.66781">
        <ele>1637.7</ele>
        <time>2013-08-30T09:59:21Z</time>
      </trkpt>
      <trkpt lat="45.00297" lon="6.66784">
        <ele>1637.7</ele>
        <time>2013-08-30T09:59:23Z</time>
      </trkpt>
      <trkpt lat="45.00297" lon="6.66785">
        <ele>1638.7</ele>
        <time>2013-08-30T09:59:24Z</time>
      </trkpt>
      <trkpt lat="45.00294" lon="6.66796">
        <ele>1639.7</ele>
        <time>2013-08-30T09:59:32Z</time>
      </trkpt>
      <trkpt lat="45.00284" lon="6.66807">
        <ele>1640.6</ele>
        <time>2013-08-30T09:59:48Z</time>
      </trkpt>
      <trkpt lat="45.00272" lon="6.66821">
        <ele>1643</ele>
        <time>2013-08-30T10:00:08Z</time>
      </trkpt>
      <trkpt lat="45.00262" lon="6.66836">
        <ele>1645</ele>
        <time>2013-08-30T10:00:27Z</time>
      </trkpt>
      <trkpt lat="45.00255" lon="6.66851">
        <ele>1646.4</ele>
        <time>2013-08-30T10:00:44Z</time>
      </trkpt>
      <trkpt lat="45.00247" lon="6.66869">
        <ele>1648.3</ele>
        <time>2013-08-30T10:01:02Z</time>
      </trkpt>
      <trkpt lat="45.00236" lon="6.66889">
        <ele>1651.2</ele>
        <time>2013-08-30T10:01:24Z</time>
      </trkpt>
      <trkpt lat="45.00227" lon="6.669">
        <ele>1652.6</ele>
        <time>2013-08-30T10:01:41Z</time>
      </trkpt>
      <trkpt lat="45.0022" lon="6.66915">
        <ele>1655.1</ele>
        <time>2013-08-30T10:01:58Z</time>
      </trkpt>
      <trkpt lat="45.00211" lon="6.66929">
        <ele>1657</ele>
        <time>2013-08-30T10:02:14Z</time>
      </trkpt>
      <trkpt lat="45.00201" lon="6.66944">
        <ele>1658.9</ele>
        <time>2013-08-30T10:02:31Z</time>
      </trkpt>
      <trkpt lat="45.00194" lon="6.66955">
        <ele>1660.3</ele>
        <time>2013-08-30T10:02:48Z</time>
      </trkpt>
      <trkpt lat="45.00185" lon="6.66969">
        <ele>1663.2</ele>
        <time>2013-08-30T10:03:06Z</time>
      </trkpt>
      <trkpt lat="45.00175" lon="6.66979">
        <ele>1664.2</ele>
        <time>2013-08-30T10:03:21Z</time>
      </trkpt>
      <trkpt lat="45.00166" lon="6.6699">
        <ele>1667.1</ele>
        <time>2013-08-30T10:03:37Z</time>
      </trkpt>
      <trkpt lat="45.00165" lon="6.66993">
        <ele>1666.6</ele>
        <time>2013-08-30T10:03:41Z</time>
      </trkpt>
      <trkpt lat="45.00164" lon="6.66995">
        <ele>1667.1</ele>
        <time>2013-08-30T10:03:43Z</time>
      </trkpt>
      <trkpt lat="45.00157" lon="6.67008">
        <ele>1668.5</ele>
        <time>2013-08-30T10:03:57Z</time>
      </trkpt>
      <trkpt lat="45.00152" lon="6.67027">
        <ele>1670.9</ele>
        <time>2013-08-30T10:04:15Z</time>
      </trkpt>
      <trkpt lat="45.00154" lon="6.6703">
        <ele>1671.4</ele>
        <time>2013-08-30T10:04:22Z</time>
      </trkpt>
      <trkpt lat="45.00162" lon="6.67019">
        <ele>1672.8</ele>
        <time>2013-08-30T10:04:39Z</time>
      </trkpt>
      <trkpt lat="45.00172" lon="6.67006">
        <ele>1675.2</ele>
        <time>2013-08-30T10:04:55Z</time>
      </trkpt>
      <trkpt lat="45.00183" lon="6.66994">
        <ele>1676.7</ele>
        <time>2013-08-30T10:05:10Z</time>
      </trkpt>
      <trkpt lat="45.00195" lon="6.66988">
        <ele>1678.6</ele>
        <time>2013-08-30T10:05:26Z</time>
      </trkpt>
      <trkpt lat="45.00196" lon="6.66988">
        <ele>1678.1</ele>
        <time>2013-08-30T10:05:27Z</time>
      </trkpt>
      <trkpt lat="45.00196" lon="6.67004">
        <ele>1680</ele>
        <time>2013-08-30T10:05:42Z</time>
      </trkpt>
      <trkpt lat="45.0019" lon="6.67007">
        <ele>1681.5</ele>
        <time>2013-08-30T10:05:49Z</time>
      </trkpt>
      <trkpt lat="45.00181" lon="6.67025">
        <ele>1682.9</ele>
        <time>2013-08-30T10:06:07Z</time>
      </trkpt>
      <trkpt lat="45.00171" lon="6.67044">
        <ele>1684.9</ele>
        <time>2013-08-30T10:06:27Z</time>
      </trkpt>
      <trkpt lat="45.00168" lon="6.67058">
        <ele>1686.8</ele>
        <time>2013-08-30T10:06:43Z</time>
      </trkpt>
      <trkpt lat="45.00167" lon="6.67072">
        <ele>1688.2</ele>
        <time>2013-08-30T10:07:00Z</time>
      </trkpt>
      <trkpt lat="45.00171" lon="6.67072">
        <ele>1688.2</ele>
        <time>2013-08-30T10:07:22Z</time>
      </trkpt>
      <trkpt lat="45.0017" lon="6.67068">
        <ele>1687.3</ele>
        <time>2013-08-30T10:07:48Z</time>
      </trkpt>
      <trkpt lat="45.00175" lon="6.67055">
        <ele>1688.7</ele>
        <time>2013-08-30T10:08:01Z</time>
      </trkpt>
      <trkpt lat="45.00182" lon="6.67043">
        <ele>1689.7</ele>
        <time>2013-08-30T10:08:17Z</time>
      </trkpt>
      <trkpt lat="45.0019" lon="6.6703">
        <ele>1691.6</ele>
        <time>2013-08-30T10:08:33Z</time>
      </trkpt>
      <trkpt lat="45.00199" lon="6.67023">
        <ele>1693.5</ele>
        <time>2013-08-30T10:08:50Z</time>
      </trkpt>
      <trkpt lat="45.00207" lon="6.6702">
        <ele>1694.5</ele>
        <time>2013-08-30T10:09:03Z</time>
      </trkpt>
      <trkpt lat="45.00218" lon="6.6701">
        <ele>1695.9</ele>
        <time>2013-08-30T10:09:19Z</time>
      </trkpt>
      <trkpt lat="45.00232" lon="6.66998">
        <ele>1698.3</ele>
        <time>2013-08-30T10:09:39Z</time>
      </trkpt>
      <trkpt lat="45.00243" lon="6.66987">
        <ele>1700.7</ele>
        <time>2013-08-30T10:09:57Z</time>
      </trkpt>
      <trkpt lat="45.00255" lon="6.66979">
        <ele>1702.2</ele>
        <time>2013-08-30T10:10:13Z</time>
      </trkpt>
      <trkpt lat="45.0027" lon="6.66971">
        <ele>1704.6</ele>
        <time>2013-08-30T10:10:32Z</time>
      </trkpt>
      <trkpt lat="45.00283" lon="6.66965">
        <ele>1706.5</ele>
        <time>2013-08-30T10:10:50Z</time>
      </trkpt>
      <trkpt lat="45.00294" lon="6.66961">
        <ele>1707.9</ele>
        <time>2013-08-30T10:11:05Z</time>
      </trkpt>
      <trkpt lat="45.00308" lon="6.66953">
        <ele>1710.3</ele>
        <time>2013-08-30T10:11:25Z</time>
      </trkpt>
      <trkpt lat="45.00321" lon="6.66941">
        <ele>1712.3</ele>
        <time>2013-08-30T10:11:44Z</time>
      </trkpt>
      <trkpt lat="45.00331" lon="6.66932">
        <ele>1714.2</ele>
        <time>2013-08-30T10:12:00Z</time>
      </trkpt>
      <trkpt lat="45.00335" lon="6.66929">
        <ele>1714.7</ele>
        <time>2013-08-30T10:12:20Z</time>
      </trkpt>
      <trkpt lat="45.00345" lon="6.66919">
        <ele>1716.6</ele>
        <time>2013-08-30T10:12:37Z</time>
      </trkpt>
      <trkpt lat="45.00357" lon="6.66907">
        <ele>1719</ele>
        <time>2013-08-30T10:12:57Z</time>
      </trkpt>
      <trkpt lat="45.0037" lon="6.66905">
        <ele>1721.4</ele>
        <time>2013-08-30T10:13:16Z</time>
      </trkpt>
      <trkpt lat="45.00363" lon="6.66919">
        <ele>1723.3</ele>
        <time>2013-08-30T10:13:31Z</time>
      </trkpt>
      <trkpt lat="45.0036" lon="6.66923">
        <ele>1724.3</ele>
        <time>2013-08-30T10:13:37Z</time>
      </trkpt>
      <trkpt lat="45.00351" lon="6.66938">
        <ele>1725.2</ele>
        <time>2013-08-30T10:13:53Z</time>
      </trkpt>
      <trkpt lat="45.00346" lon="6.66955">
        <ele>1728.1</ele>
        <time>2013-08-30T10:14:09Z</time>
      </trkpt>
      <trkpt lat="45.00336" lon="6.66965">
        <ele>1729.1</ele>
        <time>2013-08-30T10:14:22Z</time>
      </trkpt>
      <trkpt lat="45.00324" lon="6.66974">
        <ele>1731</ele>
        <time>2013-08-30T10:14:37Z</time>
      </trkpt>
      <trkpt lat="45.00313" lon="6.66987">
        <ele>1732.4</ele>
        <time>2013-08-30T10:14:55Z</time>
      </trkpt>
      <trkpt lat="45.00303" lon="6.67001">
        <ele>1734.4</ele>
        <time>2013-08-30T10:15:11Z</time>
      </trkpt>
      <trkpt lat="45.00295" lon="6.67011">
        <ele>1735.3</ele>
        <time>2013-08-30T10:15:25Z</time>
      </trkpt>
      <trkpt lat="45.00287" lon="6.67026">
        <ele>1737.7</ele>
        <time>2013-08-30T10:15:42Z</time>
      </trkpt>
      <trkpt lat="45.00277" lon="6.67041">
        <ele>1739.6</ele>
        <time>2013-08-30T10:15:59Z</time>
      </trkpt>
      <trkpt lat="45.00273" lon="6.6705">
        <ele>1741.1</ele>
        <time>2013-08-30T10:16:13Z</time>
      </trkpt>
      <trkpt lat="45.00272" lon="6.67049">
        <ele>1741.1</ele>
        <time>2013-08-30T10:16:42Z</time>
      </trkpt>
      <trkpt lat="45.00273" lon="6.67048">
        <ele>1741.1</ele>
        <time>2013-08-30T10:17:26Z</time>
      </trkpt>
      <trkpt lat="45.00273" lon="6.67047">
        <ele>1741.1</ele>
        <time>2013-08-30T10:18:16Z</time>
      </trkpt>
      <trkpt lat="45.00271" lon="6.67047">
        <ele>1740.6</ele>
        <time>2013-08-30T10:18:44Z</time>
      </trkpt>
      <trkpt lat="45.00271" lon="6.67049">
        <ele>1741.1</ele>
        <time>2013-08-30T10:19:24Z</time>
      </trkpt>
      <trkpt lat="45.00276" lon="6.6705">
        <ele>1741.1</ele>
        <time>2013-08-30T10:20:03Z</time>
      </trkpt>
      <trkpt lat="45.00274" lon="6.67049">
        <ele>1741.1</ele>
        <time>2013-08-30T10:20:41Z</time>
      </trkpt>
      <trkpt lat="45.00273" lon="6.67049">
        <ele>1741.6</ele>
        <time>2013-08-30T10:20:54Z</time>
      </trkpt>
      <trkpt lat="45.00271" lon="6.67056">
        <ele>1742.1</ele>
        <time>2013-08-30T10:21:20Z</time>
      </trkpt>
      <trkpt lat="45.00262" lon="6.67076">
        <ele>1744.9</ele>
        <time>2013-08-30T10:21:39Z</time>
      </trkpt>
      <trkpt lat="45.00255" lon="6.67092">
        <ele>1746.4</ele>
        <time>2013-08-30T10:21:56Z</time>
      </trkpt>
      <trkpt lat="45.0025" lon="6.67108">
        <ele>1748.3</ele>
        <time>2013-08-30T10:22:12Z</time>
      </trkpt>
      <trkpt lat="45.00246" lon="6.67125">
        <ele>1749.7</ele>
        <time>2013-08-30T10:22:29Z</time>
      </trkpt>
      <trkpt lat="45.00244" lon="6.67142">
        <ele>1751.7</ele>
        <time>2013-08-30T10:22:45Z</time>
      </trkpt>
      <trkpt lat="45.0024" lon="6.67161">
        <ele>1753.6</ele>
        <time>2013-08-30T10:23:02Z</time>
      </trkpt>
      <trkpt lat="45.00239" lon="6.6718">
        <ele>1755</ele>
        <time>2013-08-30T10:23:20Z</time>
      </trkpt>
      <trkpt lat="45.00236" lon="6.67198">
        <ele>1757.4</ele>
        <time>2013-08-30T10:23:37Z</time>
      </trkpt>
      <trkpt lat="45.00235" lon="6.67216">
        <ele>1758.9</ele>
        <time>2013-08-30T10:23:53Z</time>
      </trkpt>
      <trkpt lat="45.00232" lon="6.67235">
        <ele>1760.3</ele>
        <time>2013-08-30T10:24:09Z</time>
      </trkpt>
      <trkpt lat="45.00229" lon="6.67251">
        <ele>1762.2</ele>
        <time>2013-08-30T10:24:25Z</time>
      </trkpt>
      <trkpt lat="45.00227" lon="6.67264">
        <ele>1763.2</ele>
        <time>2013-08-30T10:24:37Z</time>
      </trkpt>
      <trkpt lat="45.00216" lon="6.6729">
        <ele>1766.6</ele>
        <time>2013-08-30T10:24:58Z</time>
      </trkpt>
      <trkpt lat="45.00211" lon="6.67297">
        <ele>1767</ele>
        <time>2013-08-30T10:25:02Z</time>
      </trkpt>
      <trkpt lat="45.00182" lon="6.67332">
        <ele>1769</ele>
        <time>2013-08-30T10:25:22Z</time>
      </trkpt>
      <trkpt lat="45.0015" lon="6.67366">
        <ele>1771.4</ele>
        <time>2013-08-30T10:25:41Z</time>
      </trkpt>
      <trkpt lat="45.00135" lon="6.67384">
        <ele>1772.3</ele>
        <time>2013-08-30T10:25:59Z</time>
      </trkpt>
      <trkpt lat="45.00038" lon="6.67455">
        <ele>1774.7</ele>
        <time>2013-08-30T10:26:22Z</time>
      </trkpt>
      <trkpt lat="44.99937" lon="6.67516">
        <ele>1777.1</ele>
        <time>2013-08-30T10:26:42Z</time>
      </trkpt>
      <trkpt lat="44.99929" lon="6.67536">
        <ele>1779.1</ele>
        <time>2013-08-30T10:26:58Z</time>
      </trkpt>
      <trkpt lat="44.99951" lon="6.67552">
        <ele>1780.5</ele>
        <time>2013-08-30T10:27:19Z</time>
      </trkpt>
      <trkpt lat="44.99995" lon="6.67551">
        <ele>1782.4</ele>
        <time>2013-08-30T10:27:37Z</time>
      </trkpt>
      <trkpt lat="45.0002" lon="6.67549">
        <ele>1784.3</ele>
        <time>2013-08-30T10:27:46Z</time>
      </trkpt>
      <trkpt lat="45.00027" lon="6.67549">
        <ele>1784.8</ele>
        <time>2013-08-30T10:27:49Z</time>
      </trkpt>
      <trkpt lat="45.00054" lon="6.67554">
        <ele>1785.8</ele>
        <time>2013-08-30T10:28:05Z</time>
      </trkpt>
      <trkpt lat="45.00251" lon="6.67488">
        <ele>1786.8</ele>
        <time>2013-08-30T10:28:20Z</time>
      </trkpt>
      <trkpt lat="45.00252" lon="6.67488">
        <ele>1786.8</ele>
        <time>2013-08-30T10:28:39Z</time>
      </trkpt>
      <trkpt lat="45.00253" lon="6.67488">
        <ele>1786.8</ele>
        <time>2013-08-30T10:28:41Z</time>
      </trkpt>
      <trkpt lat="45.00267" lon="6.67506">
        <ele>1788.7</ele>
        <time>2013-08-30T10:28:57Z</time>
      </trkpt>
      <trkpt lat="45.00281" lon="6.67519">
        <ele>1791.6</ele>
        <time>2013-08-30T10:29:15Z</time>
      </trkpt>
      <trkpt lat="45.0029" lon="6.67529">
        <ele>1793</ele>
        <time>2013-08-30T10:29:26Z</time>
      </trkpt>
      <trkpt lat="45.00305" lon="6.67545">
        <ele>1795.9</ele>
        <time>2013-08-30T10:29:43Z</time>
      </trkpt>
      <trkpt lat="45.00315" lon="6.6756">
        <ele>1796.8</ele>
        <time>2013-08-30T10:29:55Z</time>
      </trkpt>
      <trkpt lat="45.00319" lon="6.67568">
        <ele>1798.3</ele>
        <time>2013-08-30T10:29:59Z</time>
      </trkpt>
      <trkpt lat="45.00321" lon="6.67574">
        <ele>1798.3</ele>
        <time>2013-08-30T10:30:01Z</time>
      </trkpt>
      <trkpt lat="45.00335" lon="6.67595">
        <ele>1801.7</ele>
        <time>2013-08-30T10:30:18Z</time>
      </trkpt>
      <trkpt lat="45.00342" lon="6.67598">
        <ele>1802.1</ele>
        <time>2013-08-30T10:30:23Z</time>
      </trkpt>
      <trkpt lat="45.0035" lon="6.67607">
        <ele>1804.1</ele>
        <time>2013-08-30T10:30:35Z</time>
      </trkpt>
      <trkpt lat="45.00354" lon="6.67616">
        <ele>1804.5</ele>
        <time>2013-08-30T10:30:39Z</time>
      </trkpt>
      <trkpt lat="45.00369" lon="6.67636">
        <ele>1806.5</ele>
        <time>2013-08-30T10:30:53Z</time>
      </trkpt>
      <trkpt lat="45.00378" lon="6.67666">
        <ele>1809.8</ele>
        <time>2013-08-30T10:31:09Z</time>
      </trkpt>
      <trkpt lat="45.00389" lon="6.67697">
        <ele>1812.2</ele>
        <time>2013-08-30T10:31:27Z</time>
      </trkpt>
      <trkpt lat="45.00398" lon="6.67716">
        <ele>1814.6</ele>
        <time>2013-08-30T10:31:40Z</time>
      </trkpt>
      <trkpt lat="45.00398" lon="6.67719">
        <ele>1812.7</ele>
        <time>2013-08-30T10:31:54Z</time>
      </trkpt>
      <trkpt lat="45.00398" lon="6.67719">
        <ele>1816.1</ele>
        <time>2013-08-30T10:31:55Z</time>
      </trkpt>
      <trkpt lat="45.00398" lon="6.67719">
        <ele>1814.6</ele>
        <time>2013-08-30T10:31:56Z</time>
      </trkpt>
      <trkpt lat="45.00404" lon="6.67723">
        <ele>1815.1</ele>
        <time>2013-08-30T10:32:18Z</time>
      </trkpt>
      <trkpt lat="45.00407" lon="6.67729">
        <ele>1816.1</ele>
        <time>2013-08-30T10:32:22Z</time>
      </trkpt>
      <trkpt lat="45.00415" lon="6.6774">
        <ele>1817.5</ele>
        <time>2013-08-30T10:32:31Z</time>
      </trkpt>
      <trkpt lat="45.00418" lon="6.67745">
        <ele>1818</ele>
        <time>2013-08-30T10:32:35Z</time>
      </trkpt>
      <trkpt lat="45.0043" lon="6.67752">
        <ele>1819.4</ele>
        <time>2013-08-30T10:32:46Z</time>
      </trkpt>
      <trkpt lat="45.00437" lon="6.67758">
        <ele>1820.4</ele>
        <time>2013-08-30T10:32:52Z</time>
      </trkpt>
      <trkpt lat="45.00452" lon="6.67775">
        <ele>1822.8</ele>
        <time>2013-08-30T10:33:08Z</time>
      </trkpt>
      <trkpt lat="45.00453" lon="6.67779">
        <ele>1823.3</ele>
        <time>2013-08-30T10:33:10Z</time>
      </trkpt>
      <trkpt lat="45.0046" lon="6.67796">
        <ele>1826.2</ele>
        <time>2013-08-30T10:33:23Z</time>
      </trkpt>
      <trkpt lat="45.00471" lon="6.67805">
        <ele>1827.6</ele>
        <time>2013-08-30T10:33:33Z</time>
      </trkpt>
      <trkpt lat="45.00473" lon="6.67806">
        <ele>1827.6</ele>
        <time>2013-08-30T10:33:35Z</time>
      </trkpt>
      <trkpt lat="45.00489" lon="6.6781">
        <ele>1829.1</ele>
        <time>2013-08-30T10:33:44Z</time>
      </trkpt>
      <trkpt lat="45.00509" lon="6.67825">
        <ele>1832.4</ele>
        <time>2013-08-30T10:33:59Z</time>
      </trkpt>
      <trkpt lat="45.00523" lon="6.67839">
        <ele>1834.8</ele>
        <time>2013-08-30T10:34:14Z</time>
      </trkpt>
      <trkpt lat="45.00525" lon="6.67842">
        <ele>1835.3</ele>
        <time>2013-08-30T10:34:16Z</time>
      </trkpt>
      <trkpt lat="45.00542" lon="6.6786">
        <ele>1838.2</ele>
        <time>2013-08-30T10:34:32Z</time>
      </trkpt>
      <trkpt lat="45.00557" lon="6.67878">
        <ele>1840.6</ele>
        <time>2013-08-30T10:34:49Z</time>
      </trkpt>
      <trkpt lat="45.00564" lon="6.67879">
        <ele>1841.5</ele>
        <time>2013-08-30T10:34:54Z</time>
      </trkpt>
      <trkpt lat="45.00583" lon="6.67879">
        <ele>1844</ele>
        <time>2013-08-30T10:35:09Z</time>
      </trkpt>
      <trkpt lat="45.006" lon="6.67898">
        <ele>1844.4</ele>
        <time>2013-08-30T10:35:22Z</time>
      </trkpt>
      <trkpt lat="45.00617" lon="6.6794">
        <ele>1846.4</ele>
        <time>2013-08-30T10:35:37Z</time>
      </trkpt>
      <trkpt lat="45.0062" lon="6.67944">
        <ele>1846.4</ele>
        <time>2013-08-30T10:35:38Z</time>
      </trkpt>
      <trkpt lat="45.00623" lon="6.6795">
        <ele>1846.8</ele>
        <time>2013-08-30T10:35:40Z</time>
      </trkpt>
      <trkpt lat="45.00636" lon="6.67985">
        <ele>1846.8</ele>
        <time>2013-08-30T10:35:51Z</time>
      </trkpt>
      <trkpt lat="45.00642" lon="6.68024">
        <ele>1847.3</ele>
        <time>2013-08-30T10:36:03Z</time>
      </trkpt>
      <trkpt lat="45.00643" lon="6.68068">
        <ele>1848.3</ele>
        <time>2013-08-30T10:36:14Z</time>
      </trkpt>
      <trkpt lat="45.00651" lon="6.68108">
        <ele>1847.8</ele>
        <time>2013-08-30T10:36:27Z</time>
      </trkpt>
      <trkpt lat="45.00678" lon="6.68144">
        <ele>1848.3</ele>
        <time>2013-08-30T10:36:36Z</time>
      </trkpt>
      <trkpt lat="45.00683" lon="6.68151">
        <ele>1848.8</ele>
        <time>2013-08-30T10:36:39Z</time>
      </trkpt>
      <trkpt lat="45.00685" lon="6.68153">
        <ele>1849.2</ele>
        <time>2013-08-30T10:36:40Z</time>
      </trkpt>
      <trkpt lat="45.00688" lon="6.68155">
        <ele>1848.8</ele>
        <time>2013-08-30T10:36:41Z</time>
      </trkpt>
      <trkpt lat="45.00724" lon="6.68203">
        <ele>1847.8</ele>
        <time>2013-08-30T10:36:54Z</time>
      </trkpt>
      <trkpt lat="45.00752" lon="6.68234">
        <ele>1847.3</ele>
        <time>2013-08-30T10:37:06Z</time>
      </trkpt>
      <trkpt lat="45.00784" lon="6.68271">
        <ele>1846.4</ele>
        <time>2013-08-30T10:37:18Z</time>
      </trkpt>
      <trkpt lat="45.00794" lon="6.68296">
        <ele>1845.9</ele>
        <time>2013-08-30T10:37:28Z</time>
      </trkpt>
      <trkpt lat="45.00794" lon="6.68295">
        <ele>1846.8</ele>
        <time>2013-08-30T10:37:31Z</time>
      </trkpt>
      <trkpt lat="45.00794" lon="6.68296">
        <ele>1846.8</ele>
        <time>2013-08-30T10:37:36Z</time>
      </trkpt>
      <trkpt lat="45.00796" lon="6.68308">
        <ele>1846.4</ele>
        <time>2013-08-30T10:37:44Z</time>
      </trkpt>
      <trkpt lat="45.00797" lon="6.68309">
        <ele>1845.4</ele>
        <time>2013-08-30T10:37:45Z</time>
      </trkpt>
      <trkpt lat="45.00805" lon="6.68347">
        <ele>1846.8</ele>
        <time>2013-08-30T10:37:56Z</time>
      </trkpt>
      <trkpt lat="45.00815" lon="6.6839">
        <ele>1849.7</ele>
        <time>2013-08-30T10:38:10Z</time>
      </trkpt>
      <trkpt lat="45.00828" lon="6.68452">
        <ele>1848.3</ele>
        <time>2013-08-30T10:38:22Z</time>
      </trkpt>
      <trkpt lat="45.00827" lon="6.68458">
        <ele>1847.8</ele>
        <time>2013-08-30T10:38:23Z</time>
      </trkpt>
      <trkpt lat="45.00826" lon="6.68465">
        <ele>1847.3</ele>
        <time>2013-08-30T10:38:24Z</time>
      </trkpt>
      <trkpt lat="45.00817" lon="6.68495">
        <ele>1845.9</ele>
        <time>2013-08-30T10:38:28Z</time>
      </trkpt>
      <trkpt lat="45.00817" lon="6.68503">
        <ele>1845.9</ele>
        <time>2013-08-30T10:38:29Z</time>
      </trkpt>
      <trkpt lat="45.00818" lon="6.6851">
        <ele>1845.4</ele>
        <time>2013-08-30T10:38:30Z</time>
      </trkpt>
      <trkpt lat="45.00824" lon="6.6853">
        <ele>1844.9</ele>
        <time>2013-08-30T10:38:33Z</time>
      </trkpt>
      <trkpt lat="45.00827" lon="6.68535">
        <ele>1844.9</ele>
        <time>2013-08-30T10:38:34Z</time>
      </trkpt>
      <trkpt lat="45.00856" lon="6.68577">
        <ele>1843</ele>
        <time>2013-08-30T10:38:41Z</time>
      </trkpt>
      <trkpt lat="45.00861" lon="6.68582">
        <ele>1842</ele>
        <time>2013-08-30T10:38:42Z</time>
      </trkpt>
      <trkpt lat="45.00876" lon="6.68599">
        <ele>1841.1</ele>
        <time>2013-08-30T10:38:45Z</time>
      </trkpt>
      <trkpt lat="45.00879" lon="6.68605">
        <ele>1841.1</ele>
        <time>2013-08-30T10:38:46Z</time>
      </trkpt>
      <trkpt lat="45.00893" lon="6.68647">
        <ele>1842.5</ele>
        <time>2013-08-30T10:38:56Z</time>
      </trkpt>
      <trkpt lat="45.00898" lon="6.68655">
        <ele>1843</ele>
        <time>2013-08-30T10:38:58Z</time>
      </trkpt>
      <trkpt lat="45.00895" lon="6.6871">
        <ele>1844</ele>
        <time>2013-08-30T10:39:09Z</time>
      </trkpt>
      <trkpt lat="45.00875" lon="6.68762">
        <ele>1845.9</ele>
        <time>2013-08-30T10:39:22Z</time>
      </trkpt>
      <trkpt lat="45.00873" lon="6.68802">
        <ele>1846.8</ele>
        <time>2013-08-30T10:39:33Z</time>
      </trkpt>
      <trkpt lat="45.01064" lon="6.69268">
        <ele>1861.7</ele>
        <time>2013-08-30T10:42:36Z</time>
      </trkpt>
      <trkpt lat="45.01059" lon="6.69305">
        <ele>1862.7</ele>
        <time>2013-08-30T10:42:48Z</time>
      </trkpt>
      <trkpt lat="45.01059" lon="6.69331">
        <ele>1863.7</ele>
        <time>2013-08-30T10:42:57Z</time>
      </trkpt>
      <trkpt lat="45.01059" lon="6.69333">
        <ele>1863.7</ele>
        <time>2013-08-30T10:42:58Z</time>
      </trkpt>
      <trkpt lat="45.01072" lon="6.69378">
        <ele>1865.1</ele>
        <time>2013-08-30T10:43:14Z</time>
      </trkpt>
      <trkpt lat="45.01088" lon="6.69422">
        <ele>1867.5</ele>
        <time>2013-08-30T10:43:30Z</time>
      </trkpt>
      <trkpt lat="45.01034" lon="6.69465">
        <ele>1867.5</ele>
        <time>2013-08-30T10:43:43Z</time>
      </trkpt>
      <trkpt lat="45.01036" lon="6.69514">
        <ele>1869.4</ele>
        <time>2013-08-30T10:44:02Z</time>
      </trkpt>
      <trkpt lat="45.01041" lon="6.69526">
        <ele>1871.3</ele>
        <time>2013-08-30T10:44:16Z</time>
      </trkpt>
      <trkpt lat="45.01044" lon="6.69528">
        <ele>1871.8</ele>
        <time>2013-08-30T10:44:30Z</time>
      </trkpt>
      <trkpt lat="45.01052" lon="6.69536">
        <ele>1872.3</ele>
        <time>2013-08-30T10:44:47Z</time>
      </trkpt>
      <trkpt lat="45.01053" lon="6.69535">
        <ele>1870.4</ele>
        <time>2013-08-30T10:44:50Z</time>
      </trkpt>
      <trkpt lat="45.01053" lon="6.69535">
        <ele>1870.4</ele>
        <time>2013-08-30T10:44:51Z</time>
      </trkpt>
      <trkpt lat="45.01117" lon="6.69534">
        <ele>1878.1</ele>
        <time>2013-08-30T11:42:13Z</time>
      </trkpt>
      <trkpt lat="45.01114" lon="6.69539">
        <ele>1878.6</ele>
        <time>2013-08-30T11:42:17Z</time>
      </trkpt>
      <trkpt lat="45.01112" lon="6.69552">
        <ele>1878.1</ele>
        <time>2013-08-30T11:42:33Z</time>
      </trkpt>
      <trkpt lat="45.01112" lon="6.69553">
        <ele>1879</ele>
        <time>2013-08-30T11:42:36Z</time>
      </trkpt>
      <trkpt lat="45.01107" lon="6.69559">
        <ele>1878.6</ele>
        <time>2013-08-30T11:42:40Z</time>
      </trkpt>
      <trkpt lat="45.01082" lon="6.69554">
        <ele>1874.2</ele>
        <time>2013-08-30T11:42:48Z</time>
      </trkpt>
      <trkpt lat="45.01079" lon="6.69553">
        <ele>1874.2</ele>
        <time>2013-08-30T11:42:49Z</time>
      </trkpt>
      <trkpt lat="45.01075" lon="6.69551">
        <ele>1873.3</ele>
        <time>2013-08-30T11:42:50Z</time>
      </trkpt>
      <trkpt lat="45.01068" lon="6.69547">
        <ele>1872.3</ele>
        <time>2013-08-30T11:42:52Z</time>
      </trkpt>
      <trkpt lat="45.01044" lon="6.69534">
        <ele>1869.4</ele>
        <time>2013-08-30T11:43:00Z</time>
      </trkpt>
      <trkpt lat="45.01037" lon="6.69536">
        <ele>1868.5</ele>
        <time>2013-08-30T11:43:03Z</time>
      </trkpt>
      <trkpt lat="45.01035" lon="6.69539">
        <ele>1868.9</ele>
        <time>2013-08-30T11:43:04Z</time>
      </trkpt>
      <trkpt lat="45.01034" lon="6.69543">
        <ele>1868.9</ele>
        <time>2013-08-30T11:43:05Z</time>
      </trkpt>
      <trkpt lat="45.01034" lon="6.69553">
        <ele>1868.5</ele>
        <time>2013-08-30T11:43:08Z</time>
      </trkpt>
      <trkpt lat="45.01035" lon="6.69583">
        <ele>1869.4</ele>
        <time>2013-08-30T11:43:24Z</time>
      </trkpt>
      <trkpt lat="45.01023" lon="6.696">
        <ele>1868.5</ele>
        <time>2013-08-30T11:43:37Z</time>
      </trkpt>
      <trkpt lat="45.01016" lon="6.69605">
        <ele>1868.9</ele>
        <time>2013-08-30T11:43:50Z</time>
      </trkpt>
      <trkpt lat="45.0101" lon="6.69606">
        <ele>1869.9</ele>
        <time>2013-08-30T11:44:03Z</time>
      </trkpt>
      <trkpt lat="45.01007" lon="6.69611">
        <ele>1871.8</ele>
        <time>2013-08-30T11:44:18Z</time>
      </trkpt>
      <trkpt lat="45.01008" lon="6.69627">
        <ele>1873.3</ele>
        <time>2013-08-30T11:44:34Z</time>
      </trkpt>
      <trkpt lat="45.01004" lon="6.69638">
        <ele>1875.2</ele>
        <time>2013-08-30T11:44:47Z</time>
      </trkpt>
      <trkpt lat="45.00998" lon="6.69644">
        <ele>1877.6</ele>
        <time>2013-08-30T11:45:02Z</time>
      </trkpt>
      <trkpt lat="45.00991" lon="6.69653">
        <ele>1879</ele>
        <time>2013-08-30T11:45:17Z</time>
      </trkpt>
      <trkpt lat="45.00983" lon="6.69664">
        <ele>1881.9</ele>
        <time>2013-08-30T11:45:34Z</time>
      </trkpt>
      <trkpt lat="45.0098" lon="6.69666">
        <ele>1881.4</ele>
        <time>2013-08-30T11:45:40Z</time>
      </trkpt>
      <trkpt lat="45.0098" lon="6.69666">
        <ele>1882.9</ele>
        <time>2013-08-30T11:45:41Z</time>
      </trkpt>
      <trkpt lat="45.00974" lon="6.69675">
        <ele>1885.3</ele>
        <time>2013-08-30T11:45:59Z</time>
      </trkpt>
      <trkpt lat="45.00971" lon="6.6968">
        <ele>1888.2</ele>
        <time>2013-08-30T11:46:10Z</time>
      </trkpt>
      <trkpt lat="45.00963" lon="6.69686">
        <ele>1890.6</ele>
        <time>2013-08-30T11:46:24Z</time>
      </trkpt>
      <trkpt lat="45.00956" lon="6.6969">
        <ele>1893</ele>
        <time>2013-08-30T11:46:41Z</time>
      </trkpt>
      <trkpt lat="45.00951" lon="6.69689">
        <ele>1896.3</ele>
        <time>2013-08-30T11:46:56Z</time>
      </trkpt>
      <trkpt lat="45.0094" lon="6.69699">
        <ele>1898.7</ele>
        <time>2013-08-30T11:47:13Z</time>
      </trkpt>
      <trkpt lat="45.00931" lon="6.69708">
        <ele>1901.6</ele>
        <time>2013-08-30T11:47:30Z</time>
      </trkpt>
      <trkpt lat="45.00924" lon="6.69717">
        <ele>1904.5</ele>
        <time>2013-08-30T11:47:49Z</time>
      </trkpt>
      <trkpt lat="45.00917" lon="6.69721">
        <ele>1907.9</ele>
        <time>2013-08-30T11:48:02Z</time>
      </trkpt>
      <trkpt lat="45.00911" lon="6.69726">
        <ele>1911.2</ele>
        <time>2013-08-30T11:48:12Z</time>
      </trkpt>
      <trkpt lat="45.00911" lon="6.69726">
        <ele>1912.2</ele>
        <time>2013-08-30T11:48:14Z</time>
      </trkpt>
      <trkpt lat="45.00904" lon="6.69728">
        <ele>1915.6</ele>
        <time>2013-08-30T11:48:24Z</time>
      </trkpt>
      <trkpt lat="45.00898" lon="6.69742">
        <ele>1918.5</ele>
        <time>2013-08-30T11:48:42Z</time>
      </trkpt>
      <trkpt lat="45.00893" lon="6.69751">
        <ele>1921.3</ele>
        <time>2013-08-30T11:48:52Z</time>
      </trkpt>
      <trkpt lat="45.00887" lon="6.69766">
        <ele>1922.8</ele>
        <time>2013-08-30T11:49:06Z</time>
      </trkpt>
      <trkpt lat="45.00883" lon="6.69779">
        <ele>1924.7</ele>
        <time>2013-08-30T11:49:19Z</time>
      </trkpt>
      <trkpt lat="45.00879" lon="6.6979">
        <ele>1925.7</ele>
        <time>2013-08-30T11:49:33Z</time>
      </trkpt>
      <trkpt lat="45.00871" lon="6.69806">
        <ele>1928.1</ele>
        <time>2013-08-30T11:49:49Z</time>
      </trkpt>
      <trkpt lat="45.00861" lon="6.6982">
        <ele>1930</ele>
        <time>2013-08-30T11:50:06Z</time>
      </trkpt>
      <trkpt lat="45.00852" lon="6.69831">
        <ele>1931</ele>
        <time>2013-08-30T11:50:25Z</time>
      </trkpt>
      <trkpt lat="45.00849" lon="6.69834">
        <ele>1931</ele>
        <time>2013-08-30T11:50:33Z</time>
      </trkpt>
      <trkpt lat="45.00847" lon="6.69827">
        <ele>1931.4</ele>
        <time>2013-08-30T11:51:04Z</time>
      </trkpt>
      <trkpt lat="45.00846" lon="6.69841">
        <ele>1932.4</ele>
        <time>2013-08-30T11:51:29Z</time>
      </trkpt>
      <trkpt lat="45.00838" lon="6.69847">
        <ele>1933.8</ele>
        <time>2013-08-30T11:51:40Z</time>
      </trkpt>
      <trkpt lat="45.00837" lon="6.69849">
        <ele>1933.8</ele>
        <time>2013-08-30T11:52:06Z</time>
      </trkpt>
      <trkpt lat="45.00837" lon="6.69852">
        <ele>1933.8</ele>
        <time>2013-08-30T11:52:33Z</time>
      </trkpt>
      <trkpt lat="45.00834" lon="6.69852">
        <ele>1935.3</ele>
        <time>2013-08-30T11:52:52Z</time>
      </trkpt>
      <trkpt lat="45.00831" lon="6.69857">
        <ele>1936.2</ele>
        <time>2013-08-30T11:53:09Z</time>
      </trkpt>
      <trkpt lat="45.00827" lon="6.6986">
        <ele>1936.2</ele>
        <time>2013-08-30T11:53:24Z</time>
      </trkpt>
      <trkpt lat="45.00811" lon="6.69874">
        <ele>1938.6</ele>
        <time>2013-08-30T11:53:39Z</time>
      </trkpt>
      <trkpt lat="45.00794" lon="6.69883">
        <ele>1940.1</ele>
        <time>2013-08-30T11:53:54Z</time>
      </trkpt>
      <trkpt lat="45.00786" lon="6.69886">
        <ele>1941.5</ele>
        <time>2013-08-30T11:54:10Z</time>
      </trkpt>
      <trkpt lat="45.00776" lon="6.69897">
        <ele>1943</ele>
        <time>2013-08-30T11:54:23Z</time>
      </trkpt>
      <trkpt lat="45.00766" lon="6.69908">
        <ele>1945.4</ele>
        <time>2013-08-30T11:54:39Z</time>
      </trkpt>
      <trkpt lat="45.00753" lon="6.69923">
        <ele>1947.3</ele>
        <time>2013-08-30T11:54:59Z</time>
      </trkpt>
      <trkpt lat="45.00752" lon="6.69925">
        <ele>1947.8</ele>
        <time>2013-08-30T11:55:18Z</time>
      </trkpt>
      <trkpt lat="45.0075" lon="6.69923">
        <ele>1948.3</ele>
        <time>2013-08-30T11:55:35Z</time>
      </trkpt>
      <trkpt lat="45.00747" lon="6.69924">
        <ele>1948.3</ele>
        <time>2013-08-30T11:55:51Z</time>
      </trkpt>
      <trkpt lat="45.00737" lon="6.69933">
        <ele>1950.2</ele>
        <time>2013-08-30T11:56:04Z</time>
      </trkpt>
      <trkpt lat="45.00725" lon="6.69932">
        <ele>1952.1</ele>
        <time>2013-08-30T11:56:23Z</time>
      </trkpt>
      <trkpt lat="45.00715" lon="6.69936">
        <ele>1955.5</ele>
        <time>2013-08-30T11:56:37Z</time>
      </trkpt>
      <trkpt lat="45.00713" lon="6.69939">
        <ele>1956.4</ele>
        <time>2013-08-30T11:56:53Z</time>
      </trkpt>
      <trkpt lat="45.00709" lon="6.69942">
        <ele>1957.4</ele>
        <time>2013-08-30T11:57:09Z</time>
      </trkpt>
      <trkpt lat="45.00705" lon="6.69942">
        <ele>1958.3</ele>
        <time>2013-08-30T11:57:28Z</time>
      </trkpt>
      <trkpt lat="45.00703" lon="6.69943">
        <ele>1959.3</ele>
        <time>2013-08-30T11:57:40Z</time>
      </trkpt>
      <trkpt lat="45.00695" lon="6.69951">
        <ele>1961.7</ele>
        <time>2013-08-30T11:57:55Z</time>
      </trkpt>
      <trkpt lat="45.00687" lon="6.6996">
        <ele>1963.6</ele>
        <time>2013-08-30T11:58:11Z</time>
      </trkpt>
      <trkpt lat="45.00678" lon="6.69966">
        <ele>1967</ele>
        <time>2013-08-30T11:58:31Z</time>
      </trkpt>
      <trkpt lat="45.0067" lon="6.69973">
        <ele>1969.4</ele>
        <time>2013-08-30T11:58:48Z</time>
      </trkpt>
      <trkpt lat="45.00667" lon="6.69975">
        <ele>1970.4</ele>
        <time>2013-08-30T11:58:53Z</time>
      </trkpt>
      <trkpt lat="45.0066" lon="6.69983">
        <ele>1971.8</ele>
        <time>2013-08-30T11:59:08Z</time>
      </trkpt>
      <trkpt lat="45.00649" lon="6.69994">
        <ele>1973.7</ele>
        <time>2013-08-30T11:59:25Z</time>
      </trkpt>
      <trkpt lat="45.00639" lon="6.69999">
        <ele>1976.6</ele>
        <time>2013-08-30T11:59:41Z</time>
      </trkpt>
      <trkpt lat="45.00631" lon="6.70001">
        <ele>1978.5</ele>
        <time>2013-08-30T11:59:54Z</time>
      </trkpt>
      <trkpt lat="45.00629" lon="6.70001">
        <ele>1979</ele>
        <time>2013-08-30T11:59:58Z</time>
      </trkpt>
      <trkpt lat="45.00617" lon="6.70006">
        <ele>1980.5</ele>
        <time>2013-08-30T12:00:14Z</time>
      </trkpt>
      <trkpt lat="45.00609" lon="6.70011">
        <ele>1982.4</ele>
        <time>2013-08-30T12:00:32Z</time>
      </trkpt>
      <trkpt lat="45.00602" lon="6.70014">
        <ele>1983.8</ele>
        <time>2013-08-30T12:00:48Z</time>
      </trkpt>
      <trkpt lat="45.00593" lon="6.70017">
        <ele>1986.7</ele>
        <time>2013-08-30T12:01:02Z</time>
      </trkpt>
      <trkpt lat="45.00582" lon="6.70018">
        <ele>1988.6</ele>
        <time>2013-08-30T12:01:18Z</time>
      </trkpt>
      <trkpt lat="45.00572" lon="6.70018">
        <ele>1991</ele>
        <time>2013-08-30T12:01:36Z</time>
      </trkpt>
      <trkpt lat="45.0056" lon="6.70021">
        <ele>1993.4</ele>
        <time>2013-08-30T12:01:53Z</time>
      </trkpt>
      <trkpt lat="45.0055" lon="6.70028">
        <ele>1994.4</ele>
        <time>2013-08-30T12:02:11Z</time>
      </trkpt>
      <trkpt lat="45.00542" lon="6.70025">
        <ele>1995.8</ele>
        <time>2013-08-30T12:02:28Z</time>
      </trkpt>
      <trkpt lat="45.00532" lon="6.70025">
        <ele>1998.7</ele>
        <time>2013-08-30T12:02:44Z</time>
      </trkpt>
      <trkpt lat="45.00521" lon="6.70029">
        <ele>2001.6</ele>
        <time>2013-08-30T12:03:01Z</time>
      </trkpt>
      <trkpt lat="45.00512" lon="6.70036">
        <ele>2004.5</ele>
        <time>2013-08-30T12:03:19Z</time>
      </trkpt>
      <trkpt lat="45.00503" lon="6.70037">
        <ele>2006.4</ele>
        <time>2013-08-30T12:03:33Z</time>
      </trkpt>
      <trkpt lat="45.00494" lon="6.7004">
        <ele>2007.9</ele>
        <time>2013-08-30T12:03:47Z</time>
      </trkpt>
      <trkpt lat="45.00485" lon="6.70042">
        <ele>2009.8</ele>
        <time>2013-08-30T12:04:03Z</time>
      </trkpt>
      <trkpt lat="45.00476" lon="6.70047">
        <ele>2010.3</ele>
        <time>2013-08-30T12:04:16Z</time>
      </trkpt>
      <trkpt lat="45.0046" lon="6.7005">
        <ele>2011.7</ele>
        <time>2013-08-30T12:04:36Z</time>
      </trkpt>
      <trkpt lat="45.00444" lon="6.70052">
        <ele>2013.1</ele>
        <time>2013-08-30T12:04:52Z</time>
      </trkpt>
      <trkpt lat="45.0043" lon="6.70051">
        <ele>2014.1</ele>
        <time>2013-08-30T12:05:08Z</time>
      </trkpt>
      <trkpt lat="45.0042" lon="6.70057">
        <ele>2015.5</ele>
        <time>2013-08-30T12:05:22Z</time>
      </trkpt>
      <trkpt lat="45.00412" lon="6.70066">
        <ele>2017</ele>
        <time>2013-08-30T12:05:39Z</time>
      </trkpt>
      <trkpt lat="45.00406" lon="6.7007">
        <ele>2018.9</ele>
        <time>2013-08-30T12:05:54Z</time>
      </trkpt>
      <trkpt lat="45.00404" lon="6.7007">
        <ele>2019.9</ele>
        <time>2013-08-30T12:05:57Z</time>
      </trkpt>
      <trkpt lat="45.004" lon="6.70074">
        <ele>2020.4</ele>
        <time>2013-08-30T12:06:14Z</time>
      </trkpt>
      <trkpt lat="45.00392" lon="6.70078">
        <ele>2022.3</ele>
        <time>2013-08-30T12:06:29Z</time>
      </trkpt>
      <trkpt lat="45.00384" lon="6.70083">
        <ele>2024.2</ele>
        <time>2013-08-30T12:06:45Z</time>
      </trkpt>
      <trkpt lat="45.0038" lon="6.7009">
        <ele>2026.1</ele>
        <time>2013-08-30T12:07:00Z</time>
      </trkpt>
      <trkpt lat="45.00373" lon="6.70097">
        <ele>2029</ele>
        <time>2013-08-30T12:07:14Z</time>
      </trkpt>
      <trkpt lat="45.00367" lon="6.70109">
        <ele>2030.9</ele>
        <time>2013-08-30T12:07:32Z</time>
      </trkpt>
      <trkpt lat="45.0036" lon="6.70118">
        <ele>2032.8</ele>
        <time>2013-08-30T12:07:44Z</time>
      </trkpt>
      <trkpt lat="45.00352" lon="6.70124">
        <ele>2034.8</ele>
        <time>2013-08-30T12:07:59Z</time>
      </trkpt>
      <trkpt lat="45.00335" lon="6.70131">
        <ele>2035.7</ele>
        <time>2013-08-30T12:08:17Z</time>
      </trkpt>
      <trkpt lat="45.00328" lon="6.70132">
        <ele>2037.2</ele>
        <time>2013-08-30T12:08:31Z</time>
      </trkpt>
      <trkpt lat="45.00323" lon="6.70134">
        <ele>2037.2</ele>
        <time>2013-08-30T12:08:40Z</time>
      </trkpt>
      <trkpt lat="45.00316" lon="6.70137">
        <ele>2039.1</ele>
        <time>2013-08-30T12:08:47Z</time>
      </trkpt>
      <trkpt lat="45.00305" lon="6.70145">
        <ele>2040.1</ele>
        <time>2013-08-30T12:08:59Z</time>
      </trkpt>
      <trkpt lat="45.00296" lon="6.7016">
        <ele>2042.5</ele>
        <time>2013-08-30T12:09:12Z</time>
      </trkpt>
      <trkpt lat="45.00291" lon="6.7017">
        <ele>2043.9</ele>
        <time>2013-08-30T12:09:20Z</time>
      </trkpt>
      <trkpt lat="45.00277" lon="6.70186">
        <ele>2044.9</ele>
        <time>2013-08-30T12:09:29Z</time>
      </trkpt>
      <trkpt lat="45.00261" lon="6.70202">
        <ele>2045.8</ele>
        <time>2013-08-30T12:09:43Z</time>
      </trkpt>
      <trkpt lat="45.00239" lon="6.70203">
        <ele>2048.2</ele>
        <time>2013-08-30T12:09:58Z</time>
      </trkpt>
      <trkpt lat="45.00234" lon="6.70203">
        <ele>2048.7</ele>
        <time>2013-08-30T12:10:02Z</time>
      </trkpt>
      <trkpt lat="45.00221" lon="6.70218">
        <ele>2050.2</ele>
        <time>2013-08-30T12:10:15Z</time>
      </trkpt>
      <trkpt lat="45.0021" lon="6.70229">
        <ele>2052.6</ele>
        <time>2013-08-30T12:10:25Z</time>
      </trkpt>
      <trkpt lat="45.002" lon="6.70239">
        <ele>2054</ele>
        <time>2013-08-30T12:10:37Z</time>
      </trkpt>
      <trkpt lat="45.00198" lon="6.7024">
        <ele>2054.5</ele>
        <time>2013-08-30T12:10:38Z</time>
      </trkpt>
      <trkpt lat="45.00197" lon="6.7024">
        <ele>2054.5</ele>
        <time>2013-08-30T12:10:39Z</time>
      </trkpt>
      <trkpt lat="45.00182" lon="6.70243">
        <ele>2057.8</ele>
        <time>2013-08-30T12:10:53Z</time>
      </trkpt>
      <trkpt lat="45.00176" lon="6.70246">
        <ele>2058.3</ele>
        <time>2013-08-30T12:11:00Z</time>
      </trkpt>
      <trkpt lat="45.00167" lon="6.70259">
        <ele>2059.3</ele>
        <time>2013-08-30T12:11:11Z</time>
      </trkpt>
      <trkpt lat="45.00155" lon="6.70277">
        <ele>2061.2</ele>
        <time>2013-08-30T12:11:25Z</time>
      </trkpt>
      <trkpt lat="45.0014" lon="6.70291">
        <ele>2063.1</ele>
        <time>2013-08-30T12:11:40Z</time>
      </trkpt>
      <trkpt lat="45.00124" lon="6.70305">
        <ele>2066</ele>
        <time>2013-08-30T12:11:55Z</time>
      </trkpt>
      <trkpt lat="45.00109" lon="6.7032">
        <ele>2067</ele>
        <time>2013-08-30T12:12:10Z</time>
      </trkpt>
      <trkpt lat="45.00088" lon="6.70333">
        <ele>2068.4</ele>
        <time>2013-08-30T12:12:25Z</time>
      </trkpt>
      <trkpt lat="45.00065" lon="6.70337">
        <ele>2069.4</ele>
        <time>2013-08-30T12:12:41Z</time>
      </trkpt>
      <trkpt lat="45.00057" lon="6.70344">
        <ele>2069.9</ele>
        <time>2013-08-30T12:12:48Z</time>
      </trkpt>
      <trkpt lat="45.00044" lon="6.70358">
        <ele>2072.3</ele>
        <time>2013-08-30T12:13:01Z</time>
      </trkpt>
      <trkpt lat="45.0004" lon="6.70359">
        <ele>2073.2</ele>
        <time>2013-08-30T12:13:13Z</time>
      </trkpt>
      <trkpt lat="45.00031" lon="6.70368">
        <ele>2075.6</ele>
        <time>2013-08-30T12:13:33Z</time>
      </trkpt>
      <trkpt lat="45.00019" lon="6.70374">
        <ele>2077.6</ele>
        <time>2013-08-30T12:13:50Z</time>
      </trkpt>
      <trkpt lat="45.00005" lon="6.70376">
        <ele>2079.5</ele>
        <time>2013-08-30T12:14:08Z</time>
      </trkpt>
      <trkpt lat="44.99993" lon="6.70378">
        <ele>2081.9</ele>
        <time>2013-08-30T12:14:25Z</time>
      </trkpt>
      <trkpt lat="44.99989" lon="6.70379">
        <ele>2082.4</ele>
        <time>2013-08-30T12:14:31Z</time>
      </trkpt>
      <trkpt lat="44.99976" lon="6.7038">
        <ele>2085.2</ele>
        <time>2013-08-30T12:14:51Z</time>
      </trkpt>
      <trkpt lat="44.99966" lon="6.70379">
        <ele>2087.2</ele>
        <time>2013-08-30T12:15:08Z</time>
      </trkpt>
      <trkpt lat="44.99956" lon="6.7038">
        <ele>2089.1</ele>
        <time>2013-08-30T12:15:21Z</time>
      </trkpt>
      <trkpt lat="44.99947" lon="6.70381">
        <ele>2092</ele>
        <time>2013-08-30T12:15:37Z</time>
      </trkpt>
      <trkpt lat="44.99938" lon="6.70379">
        <ele>2095.3</ele>
        <time>2013-08-30T12:15:53Z</time>
      </trkpt>
      <trkpt lat="44.99931" lon="6.70376">
        <ele>2098.2</ele>
        <time>2013-08-30T12:16:08Z</time>
      </trkpt>
      <trkpt lat="44.99928" lon="6.70376">
        <ele>2098.7</ele>
        <time>2013-08-30T12:16:11Z</time>
      </trkpt>
      <trkpt lat="44.99924" lon="6.70378">
        <ele>2098.7</ele>
        <time>2013-08-30T12:16:26Z</time>
      </trkpt>
      <trkpt lat="44.99919" lon="6.70378">
        <ele>2098.7</ele>
        <time>2013-08-30T12:16:40Z</time>
      </trkpt>
      <trkpt lat="44.99909" lon="6.70375">
        <ele>2101.1</ele>
        <time>2013-08-30T12:16:58Z</time>
      </trkpt>
      <trkpt lat="44.99897" lon="6.70371">
        <ele>2103.5</ele>
        <time>2013-08-30T12:17:15Z</time>
      </trkpt>
      <trkpt lat="44.99888" lon="6.70376">
        <ele>2106.4</ele>
        <time>2013-08-30T12:17:32Z</time>
      </trkpt>
      <trkpt lat="44.99883" lon="6.70381">
        <ele>2105.9</ele>
        <time>2013-08-30T12:17:46Z</time>
      </trkpt>
      <trkpt lat="44.99883" lon="6.70381">
        <ele>2108.8</ele>
        <time>2013-08-30T12:17:47Z</time>
      </trkpt>
      <trkpt lat="44.99884" lon="6.7038">
        <ele>2107.8</ele>
        <time>2013-08-30T12:17:53Z</time>
      </trkpt>
      <trkpt lat="44.99885" lon="6.70379">
        <ele>2108.8</ele>
        <time>2013-08-30T12:18:10Z</time>
      </trkpt>
      <trkpt lat="44.9988" lon="6.70379">
        <ele>2108.3</ele>
        <time>2013-08-30T12:18:23Z</time>
      </trkpt>
      <trkpt lat="44.99871" lon="6.70378">
        <ele>2108.8</ele>
        <time>2013-08-30T12:18:37Z</time>
      </trkpt>
      <trkpt lat="44.99861" lon="6.70373">
        <ele>2110.7</ele>
        <time>2013-08-30T12:18:50Z</time>
      </trkpt>
      <trkpt lat="44.99853" lon="6.70367">
        <ele>2111.7</ele>
        <time>2013-08-30T12:19:04Z</time>
      </trkpt>
      <trkpt lat="44.99844" lon="6.70366">
        <ele>2113.6</ele>
        <time>2013-08-30T12:19:17Z</time>
      </trkpt>
      <trkpt lat="44.99836" lon="6.70364">
        <ele>2114.6</ele>
        <time>2013-08-30T12:19:31Z</time>
      </trkpt>
      <trkpt lat="44.99832" lon="6.70363">
        <ele>2116.5</ele>
        <time>2013-08-30T12:19:45Z</time>
      </trkpt>
      <trkpt lat="44.99826" lon="6.70367">
        <ele>2118.4</ele>
        <time>2013-08-30T12:19:57Z</time>
      </trkpt>
      <trkpt lat="44.99817" lon="6.70369">
        <ele>2118.4</ele>
        <time>2013-08-30T12:20:10Z</time>
      </trkpt>
      <trkpt lat="44.9981" lon="6.70373">
        <ele>2120.3</ele>
        <time>2013-08-30T12:20:19Z</time>
      </trkpt>
      <trkpt lat="44.99802" lon="6.70376">
        <ele>2122.3</ele>
        <time>2013-08-30T12:20:35Z</time>
      </trkpt>
      <trkpt lat="44.998" lon="6.7038">
        <ele>2123.2</ele>
        <time>2013-08-30T12:20:46Z</time>
      </trkpt>
      <trkpt lat="44.99798" lon="6.70382">
        <ele>2123.7</ele>
        <time>2013-08-30T12:21:04Z</time>
      </trkpt>
      <trkpt lat="44.99797" lon="6.70384">
        <ele>2123.7</ele>
        <time>2013-08-30T12:21:15Z</time>
      </trkpt>
      <trkpt lat="44.99792" lon="6.70392">
        <ele>2123.7</ele>
        <time>2013-08-30T12:21:52Z</time>
      </trkpt>
      <trkpt lat="44.99791" lon="6.70392">
        <ele>2122.7</ele>
        <time>2013-08-30T12:21:53Z</time>
      </trkpt>
      <trkpt lat="44.99791" lon="6.70392">
        <ele>2124.7</ele>
        <time>2013-08-30T12:21:54Z</time>
      </trkpt>
      <trkpt lat="44.99791" lon="6.70392">
        <ele>2122.3</ele>
        <time>2013-08-30T12:21:55Z</time>
      </trkpt>
      <trkpt lat="44.99791" lon="6.70393">
        <ele>2125.1</ele>
        <time>2013-08-30T12:21:56Z</time>
      </trkpt>
      <trkpt lat="44.99791" lon="6.70393">
        <ele>2123.2</ele>
        <time>2013-08-30T12:21:57Z</time>
      </trkpt>
      <trkpt lat="44.99791" lon="6.70394">
        <ele>2124.2</ele>
        <time>2013-08-30T12:21:59Z</time>
      </trkpt>
      <trkpt lat="44.9979" lon="6.70395">
        <ele>2121.3</ele>
        <time>2013-08-30T12:22:00Z</time>
      </trkpt>
      <trkpt lat="44.9979" lon="6.70395">
        <ele>2121.3</ele>
        <time>2013-08-30T12:22:01Z</time>
      </trkpt>
      <trkpt lat="44.9979" lon="6.70396">
        <ele>2124.7</ele>
        <time>2013-08-30T12:22:02Z</time>
      </trkpt>
      <trkpt lat="44.99789" lon="6.70397">
        <ele>2123.2</ele>
        <time>2013-08-30T12:22:03Z</time>
      </trkpt>
      <trkpt lat="44.99789" lon="6.70397">
        <ele>2126.6</ele>
        <time>2013-08-30T12:22:04Z</time>
      </trkpt>
      <trkpt lat="44.99789" lon="6.70397">
        <ele>2126.6</ele>
        <time>2013-08-30T12:22:05Z</time>
      </trkpt>
      <trkpt lat="44.99789" lon="6.70397">
        <ele>2121.3</ele>
        <time>2013-08-30T12:22:06Z</time>
      </trkpt>
      <trkpt lat="44.99788" lon="6.70397">
        <ele>2125.1</ele>
        <time>2013-08-30T12:22:07Z</time>
      </trkpt>
      <trkpt lat="44.99788" lon="6.70397">
        <ele>2123.2</ele>
        <time>2013-08-30T12:22:08Z</time>
      </trkpt>
      <trkpt lat="44.99788" lon="6.70397">
        <ele>2122.7</ele>
        <time>2013-08-30T12:22:10Z</time>
      </trkpt>
      <trkpt lat="44.99788" lon="6.70396">
        <ele>2125.6</ele>
        <time>2013-08-30T12:22:11Z</time>
      </trkpt>
      <trkpt lat="44.99787" lon="6.70396">
        <ele>2120.3</ele>
        <time>2013-08-30T12:22:12Z</time>
      </trkpt>
      <trkpt lat="44.99787" lon="6.70396">
        <ele>2126.1</ele>
        <time>2013-08-30T12:22:13Z</time>
      </trkpt>
      <trkpt lat="44.99787" lon="6.70396">
        <ele>2122.3</ele>
        <time>2013-08-30T12:22:14Z</time>
      </trkpt>
      <trkpt lat="44.99787" lon="6.70396">
        <ele>2125.1</ele>
        <time>2013-08-30T12:22:15Z</time>
      </trkpt>
      <trkpt lat="44.99788" lon="6.70396">
        <ele>2125.1</ele>
        <time>2013-08-30T12:22:16Z</time>
      </trkpt>
      <trkpt lat="44.99788" lon="6.70395">
        <ele>2124.2</ele>
        <time>2013-08-30T12:22:17Z</time>
      </trkpt>
      <trkpt lat="44.99788" lon="6.70394">
        <ele>2120.8</ele>
        <time>2013-08-30T12:22:18Z</time>
      </trkpt>
      <trkpt lat="44.99788" lon="6.70394">
        <ele>2125.1</ele>
        <time>2013-08-30T12:22:19Z</time>
      </trkpt>
      <trkpt lat="44.99788" lon="6.70393">
        <ele>2123.2</ele>
        <time>2013-08-30T12:22:20Z</time>
      </trkpt>
      <trkpt lat="44.99789" lon="6.70389">
        <ele>2127.1</ele>
        <time>2013-08-30T12:22:22Z</time>
      </trkpt>
      <trkpt lat="44.99789" lon="6.70388">
        <ele>2127.1</ele>
        <time>2013-08-30T12:22:23Z</time>
      </trkpt>
      <trkpt lat="44.99801" lon="6.70382">
        <ele>2124.2</ele>
        <time>2013-08-30T12:22:24Z</time>
      </trkpt>
      <trkpt lat="44.99795" lon="6.70373">
        <ele>2127.1</ele>
        <time>2013-08-30T12:22:27Z</time>
      </trkpt>
      <trkpt lat="44.99794" lon="6.70376">
        <ele>2123.7</ele>
        <time>2013-08-30T12:22:28Z</time>
      </trkpt>
      <trkpt lat="44.99787" lon="6.7039">
        <ele>2120.8</ele>
        <time>2013-08-30T12:22:35Z</time>
      </trkpt>
      <trkpt lat="44.99787" lon="6.70391">
        <ele>2127.1</ele>
        <time>2013-08-30T12:22:36Z</time>
      </trkpt>
      <trkpt lat="44.99786" lon="6.70392">
        <ele>2124.2</ele>
        <time>2013-08-30T12:22:37Z</time>
      </trkpt>
      <trkpt lat="44.99786" lon="6.70393">
        <ele>2125.6</ele>
        <time>2013-08-30T12:22:39Z</time>
      </trkpt>
      <trkpt lat="44.99786" lon="6.70394">
        <ele>2122.3</ele>
        <time>2013-08-30T12:22:40Z</time>
      </trkpt>
      <trkpt lat="44.99786" lon="6.70395">
        <ele>2124.7</ele>
        <time>2013-08-30T12:22:41Z</time>
      </trkpt>
      <trkpt lat="44.99786" lon="6.70397">
        <ele>2121.8</ele>
        <time>2013-08-30T12:22:46Z</time>
      </trkpt>
      <trkpt lat="44.99786" lon="6.70397">
        <ele>2125.6</ele>
        <time>2013-08-30T12:22:47Z</time>
      </trkpt>
      <trkpt lat="44.99785" lon="6.70398">
        <ele>2124.2</ele>
        <time>2013-08-30T12:22:48Z</time>
      </trkpt>
      <trkpt lat="44.99785" lon="6.70399">
        <ele>2122.7</ele>
        <time>2013-08-30T12:22:49Z</time>
      </trkpt>
      <trkpt lat="44.99785" lon="6.70399">
        <ele>2124.2</ele>
        <time>2013-08-30T12:22:50Z</time>
      </trkpt>
      <trkpt lat="44.99796" lon="6.70377">
        <ele>2123.7</ele>
        <time>2013-08-30T12:23:19Z</time>
      </trkpt>
      <trkpt lat="44.99794" lon="6.70378">
        <ele>2124.2</ele>
        <time>2013-08-30T12:23:39Z</time>
      </trkpt>
      <trkpt lat="44.99786" lon="6.70373">
        <ele>2125.6</ele>
        <time>2013-08-30T12:23:45Z</time>
      </trkpt>
      <trkpt lat="44.99784" lon="6.70373">
        <ele>2125.1</ele>
        <time>2013-08-30T12:23:46Z</time>
      </trkpt>
      <trkpt lat="44.99783" lon="6.70373">
        <ele>2125.6</ele>
        <time>2013-08-30T12:23:47Z</time>
      </trkpt>
      <trkpt lat="44.99782" lon="6.70372">
        <ele>2125.6</ele>
        <time>2013-08-30T12:23:48Z</time>
      </trkpt>
      <trkpt lat="44.9978" lon="6.70372">
        <ele>2126.1</ele>
        <time>2013-08-30T12:23:49Z</time>
      </trkpt>
      <trkpt lat="44.99776" lon="6.70371">
        <ele>2126.1</ele>
        <time>2013-08-30T12:23:53Z</time>
      </trkpt>
      <trkpt lat="44.99764" lon="6.7037">
        <ele>2129</ele>
        <time>2013-08-30T12:24:06Z</time>
      </trkpt>
      <trkpt lat="44.99748" lon="6.70371">
        <ele>2131.4</ele>
        <time>2013-08-30T12:24:19Z</time>
      </trkpt>
      <trkpt lat="44.99733" lon="6.70369">
        <ele>2133.3</ele>
        <time>2013-08-30T12:24:33Z</time>
      </trkpt>
      <trkpt lat="44.99726" lon="6.70366">
        <ele>2134.7</ele>
        <time>2013-08-30T12:24:45Z</time>
      </trkpt>
      <trkpt lat="44.99714" lon="6.70369">
        <ele>2136.2</ele>
        <time>2013-08-30T12:25:03Z</time>
      </trkpt>
      <trkpt lat="44.99705" lon="6.70372">
        <ele>2138.6</ele>
        <time>2013-08-30T12:25:22Z</time>
      </trkpt>
      <trkpt lat="44.99693" lon="6.70375">
        <ele>2141</ele>
        <time>2013-08-30T12:25:41Z</time>
      </trkpt>
      <trkpt lat="44.99683" lon="6.70379">
        <ele>2142.4</ele>
        <time>2013-08-30T12:25:57Z</time>
      </trkpt>
      <trkpt lat="44.9968" lon="6.70377">
        <ele>2143.9</ele>
        <time>2013-08-30T12:26:12Z</time>
      </trkpt>
      <trkpt lat="44.9968" lon="6.70376">
        <ele>2144.8</ele>
        <time>2013-08-30T12:26:15Z</time>
      </trkpt>
      <trkpt lat="44.99676" lon="6.70375">
        <ele>2144.8</ele>
        <time>2013-08-30T12:26:27Z</time>
      </trkpt>
      <trkpt lat="44.99673" lon="6.70374">
        <ele>2145.3</ele>
        <time>2013-08-30T12:26:41Z</time>
      </trkpt>
      <trkpt lat="44.99664" lon="6.70373">
        <ele>2147.2</ele>
        <time>2013-08-30T12:26:55Z</time>
      </trkpt>
      <trkpt lat="44.99657" lon="6.7039">
        <ele>2149.7</ele>
        <time>2013-08-30T12:27:11Z</time>
      </trkpt>
      <trkpt lat="44.99648" lon="6.70394">
        <ele>2150.6</ele>
        <time>2013-08-30T12:27:25Z</time>
      </trkpt>
      <trkpt lat="44.99646" lon="6.70396">
        <ele>2152.1</ele>
        <time>2013-08-30T12:27:42Z</time>
      </trkpt>
      <trkpt lat="44.99642" lon="6.70387">
        <ele>2152.5</ele>
        <time>2013-08-30T12:28:04Z</time>
      </trkpt>
      <trkpt lat="44.99634" lon="6.70386">
        <ele>2154.5</ele>
        <time>2013-08-30T12:28:21Z</time>
      </trkpt>
      <trkpt lat="44.99624" lon="6.70386">
        <ele>2155.9</ele>
        <time>2013-08-30T12:28:36Z</time>
      </trkpt>
      <trkpt lat="44.99618" lon="6.70386">
        <ele>2155.9</ele>
        <time>2013-08-30T12:28:52Z</time>
      </trkpt>
      <trkpt lat="44.99609" lon="6.70389">
        <ele>2156.9</ele>
        <time>2013-08-30T12:29:04Z</time>
      </trkpt>
      <trkpt lat="44.99601" lon="6.7039">
        <ele>2158.3</ele>
        <time>2013-08-30T12:29:19Z</time>
      </trkpt>
      <trkpt lat="44.99594" lon="6.7039">
        <ele>2159.3</ele>
        <time>2013-08-30T12:29:31Z</time>
      </trkpt>
      <trkpt lat="44.99585" lon="6.70391">
        <ele>2162.1</ele>
        <time>2013-08-30T12:29:48Z</time>
      </trkpt>
      <trkpt lat="44.99577" lon="6.70393">
        <ele>2164.1</ele>
        <time>2013-08-30T12:30:03Z</time>
      </trkpt>
      <trkpt lat="44.9957" lon="6.70396">
        <ele>2165</ele>
        <time>2013-08-30T12:30:16Z</time>
      </trkpt>
      <trkpt lat="44.99562" lon="6.704">
        <ele>2167.9</ele>
        <time>2013-08-30T12:30:33Z</time>
      </trkpt>
      <trkpt lat="44.99554" lon="6.70398">
        <ele>2169.4</ele>
        <time>2013-08-30T12:30:50Z</time>
      </trkpt>
      <trkpt lat="44.99545" lon="6.70391">
        <ele>2170.3</ele>
        <time>2013-08-30T12:31:04Z</time>
      </trkpt>
      <trkpt lat="44.99538" lon="6.70391">
        <ele>2171.8</ele>
        <time>2013-08-30T12:31:19Z</time>
      </trkpt>
      <trkpt lat="44.99532" lon="6.70394">
        <ele>2172.2</ele>
        <time>2013-08-30T12:31:31Z</time>
      </trkpt>
      <trkpt lat="44.99526" lon="6.70398">
        <ele>2174.2</ele>
        <time>2013-08-30T12:31:46Z</time>
      </trkpt>
      <trkpt lat="44.99519" lon="6.70397">
        <ele>2176.6</ele>
        <time>2013-08-30T12:32:01Z</time>
      </trkpt>
      <trkpt lat="44.99512" lon="6.70399">
        <ele>2178</ele>
        <time>2013-08-30T12:32:17Z</time>
      </trkpt>
      <trkpt lat="44.99505" lon="6.70399">
        <ele>2179</ele>
        <time>2013-08-30T12:32:33Z</time>
      </trkpt>
      <trkpt lat="44.99501" lon="6.70396">
        <ele>2179</ele>
        <time>2013-08-30T12:32:54Z</time>
      </trkpt>
      <trkpt lat="44.9949" lon="6.70402">
        <ele>2179</ele>
        <time>2013-08-30T12:33:08Z</time>
      </trkpt>
      <trkpt lat="44.99481" lon="6.70408">
        <ele>2180.4</ele>
        <time>2013-08-30T12:33:22Z</time>
      </trkpt>
      <trkpt lat="44.9947" lon="6.70409">
        <ele>2181.9</ele>
        <time>2013-08-30T12:33:37Z</time>
      </trkpt>
      <trkpt lat="44.99462" lon="6.70399">
        <ele>2181.4</ele>
        <time>2013-08-30T12:33:56Z</time>
      </trkpt>
      <trkpt lat="44.9946" lon="6.70399">
        <ele>2181.9</ele>
        <time>2013-08-30T12:34:15Z</time>
      </trkpt>
      <trkpt lat="44.99458" lon="6.70401">
        <ele>2182.8</ele>
        <time>2013-08-30T12:34:23Z</time>
      </trkpt>
      <trkpt lat="44.99444" lon="6.70418">
        <ele>2183.8</ele>
        <time>2013-08-30T12:34:35Z</time>
      </trkpt>
      <trkpt lat="44.99422" lon="6.70433">
        <ele>2182.8</ele>
        <time>2013-08-30T12:34:49Z</time>
      </trkpt>
      <trkpt lat="44.99405" lon="6.70447">
        <ele>2183.3</ele>
        <time>2013-08-30T12:35:00Z</time>
      </trkpt>
      <trkpt lat="44.99386" lon="6.70456">
        <ele>2184.7</ele>
        <time>2013-08-30T12:35:13Z</time>
      </trkpt>
      <trkpt lat="44.99366" lon="6.70461">
        <ele>2185.2</ele>
        <time>2013-08-30T12:35:28Z</time>
      </trkpt>
      <trkpt lat="44.99351" lon="6.70464">
        <ele>2186.7</ele>
        <time>2013-08-30T12:35:38Z</time>
      </trkpt>
      <trkpt lat="44.9935" lon="6.70464">
        <ele>2186.2</ele>
        <time>2013-08-30T12:35:39Z</time>
      </trkpt>
      <trkpt lat="44.99348" lon="6.70464">
        <ele>2186.7</ele>
        <time>2013-08-30T12:35:40Z</time>
      </trkpt>
      <trkpt lat="44.99347" lon="6.70465">
        <ele>2186.7</ele>
        <time>2013-08-30T12:35:41Z</time>
      </trkpt>
      <trkpt lat="44.99325" lon="6.7047">
        <ele>2188.6</ele>
        <time>2013-08-30T12:35:54Z</time>
      </trkpt>
      <trkpt lat="44.99306" lon="6.70475">
        <ele>2190</ele>
        <time>2013-08-30T12:36:07Z</time>
      </trkpt>
      <trkpt lat="44.99303" lon="6.70474">
        <ele>2191</ele>
        <time>2013-08-30T12:36:10Z</time>
      </trkpt>
      <trkpt lat="44.99301" lon="6.70474">
        <ele>2191.5</ele>
        <time>2013-08-30T12:36:11Z</time>
      </trkpt>
      <trkpt lat="44.993" lon="6.70474">
        <ele>2191.5</ele>
        <time>2013-08-30T12:36:12Z</time>
      </trkpt>
      <trkpt lat="44.99298" lon="6.70475">
        <ele>2191.9</ele>
        <time>2013-08-30T12:36:13Z</time>
      </trkpt>
      <trkpt lat="44.99297" lon="6.70475">
        <ele>2192.4</ele>
        <time>2013-08-30T12:36:14Z</time>
      </trkpt>
      <trkpt lat="44.99279" lon="6.70489">
        <ele>2193.4</ele>
        <time>2013-08-30T12:36:28Z</time>
      </trkpt>
      <trkpt lat="44.99276" lon="6.7049">
        <ele>2193.9</ele>
        <time>2013-08-30T12:36:30Z</time>
      </trkpt>
      <trkpt lat="44.99273" lon="6.70489">
        <ele>2194.4</ele>
        <time>2013-08-30T12:36:33Z</time>
      </trkpt>
      <trkpt lat="44.99271" lon="6.7049">
        <ele>2194.4</ele>
        <time>2013-08-30T12:36:34Z</time>
      </trkpt>
      <trkpt lat="44.99253" lon="6.70496">
        <ele>2196.3</ele>
        <time>2013-08-30T12:36:46Z</time>
      </trkpt>
      <trkpt lat="44.9924" lon="6.70497">
        <ele>2197.7</ele>
        <time>2013-08-30T12:37:00Z</time>
      </trkpt>
      <trkpt lat="44.9923" lon="6.70501">
        <ele>2197.2</ele>
        <time>2013-08-30T12:37:25Z</time>
      </trkpt>
      <trkpt lat="44.9921" lon="6.70508">
        <ele>2197.7</ele>
        <time>2013-08-30T12:37:38Z</time>
      </trkpt>
      <trkpt lat="44.99187" lon="6.70516">
        <ele>2198.2</ele>
        <time>2013-08-30T12:37:53Z</time>
      </trkpt>
      <trkpt lat="44.9918" lon="6.70521">
        <ele>2199.2</ele>
        <time>2013-08-30T12:37:59Z</time>
      </trkpt>
      <trkpt lat="44.99178" lon="6.70523">
        <ele>2198.7</ele>
        <time>2013-08-30T12:38:00Z</time>
      </trkpt>
      <trkpt lat="44.99176" lon="6.70525">
        <ele>2199.2</ele>
        <time>2013-08-30T12:38:01Z</time>
      </trkpt>
      <trkpt lat="44.99175" lon="6.70526">
        <ele>2199.2</ele>
        <time>2013-08-30T12:38:02Z</time>
      </trkpt>
      <trkpt lat="44.99174" lon="6.70528">
        <ele>2199.6</ele>
        <time>2013-08-30T12:38:03Z</time>
      </trkpt>
      <trkpt lat="44.99172" lon="6.70529">
        <ele>2199.6</ele>
        <time>2013-08-30T12:38:04Z</time>
      </trkpt>
      <trkpt lat="44.99171" lon="6.70529">
        <ele>2201.1</ele>
        <time>2013-08-30T12:38:16Z</time>
      </trkpt>
      <trkpt lat="44.99156" lon="6.70534">
        <ele>2201.6</ele>
        <time>2013-08-30T12:38:34Z</time>
      </trkpt>
      <trkpt lat="44.99141" lon="6.70541">
        <ele>2203.5</ele>
        <time>2013-08-30T12:38:53Z</time>
      </trkpt>
      <trkpt lat="44.99129" lon="6.70543">
        <ele>2205.9</ele>
        <time>2013-08-30T12:39:11Z</time>
      </trkpt>
      <trkpt lat="44.99114" lon="6.70546">
        <ele>2208.8</ele>
        <time>2013-08-30T12:39:33Z</time>
      </trkpt>
      <trkpt lat="44.99102" lon="6.70547">
        <ele>2210.7</ele>
        <time>2013-08-30T12:39:50Z</time>
      </trkpt>
      <trkpt lat="44.99088" lon="6.70557">
        <ele>2212.6</ele>
        <time>2013-08-30T12:40:10Z</time>
      </trkpt>
      <trkpt lat="44.99072" lon="6.70558">
        <ele>2215</ele>
        <time>2013-08-30T12:40:29Z</time>
      </trkpt>
      <trkpt lat="44.99067" lon="6.70558">
        <ele>2211.7</ele>
        <time>2013-08-30T12:40:34Z</time>
      </trkpt>
      <trkpt lat="44.99066" lon="6.70558">
        <ele>2212.1</ele>
        <time>2013-08-30T12:40:35Z</time>
      </trkpt>
      <trkpt lat="44.99065" lon="6.70558">
        <ele>2216.5</ele>
        <time>2013-08-30T12:40:36Z</time>
      </trkpt>
      <trkpt lat="44.99059" lon="6.7056">
        <ele>2215.5</ele>
        <time>2013-08-30T12:40:50Z</time>
      </trkpt>
      <trkpt lat="44.9904" lon="6.70559">
        <ele>2215.5</ele>
        <time>2013-08-30T12:41:01Z</time>
      </trkpt>
      <trkpt lat="44.99009" lon="6.70552">
        <ele>2215</ele>
        <time>2013-08-30T12:41:13Z</time>
      </trkpt>
      <trkpt lat="44.98992" lon="6.70547">
        <ele>2217.4</ele>
        <time>2013-08-30T12:41:27Z</time>
      </trkpt>
      <trkpt lat="44.98991" lon="6.70547">
        <ele>2217.9</ele>
        <time>2013-08-30T12:41:28Z</time>
      </trkpt>
      <trkpt lat="44.98989" lon="6.70547">
        <ele>2217.4</ele>
        <time>2013-08-30T12:41:29Z</time>
      </trkpt>
      <trkpt lat="44.98987" lon="6.70546">
        <ele>2217.4</ele>
        <time>2013-08-30T12:41:30Z</time>
      </trkpt>
      <trkpt lat="44.98966" lon="6.70546">
        <ele>2220.8</ele>
        <time>2013-08-30T12:41:48Z</time>
      </trkpt>
      <trkpt lat="44.98945" lon="6.70546">
        <ele>2223.7</ele>
        <time>2013-08-30T12:42:06Z</time>
      </trkpt>
      <trkpt lat="44.98938" lon="6.70546">
        <ele>2224.2</ele>
        <time>2013-08-30T12:42:12Z</time>
      </trkpt>
      <trkpt lat="44.98937" lon="6.70546">
        <ele>2224.6</ele>
        <time>2013-08-30T12:42:13Z</time>
      </trkpt>
      <trkpt lat="44.98935" lon="6.70547">
        <ele>2224.2</ele>
        <time>2013-08-30T12:42:14Z</time>
      </trkpt>
      <trkpt lat="44.98935" lon="6.70547">
        <ele>2224.6</ele>
        <time>2013-08-30T12:42:15Z</time>
      </trkpt>
      <trkpt lat="44.98934" lon="6.70547">
        <ele>2224.2</ele>
        <time>2013-08-30T12:42:16Z</time>
      </trkpt>
      <trkpt lat="44.98926" lon="6.70548">
        <ele>2225.6</ele>
        <time>2013-08-30T12:42:28Z</time>
      </trkpt>
      <trkpt lat="44.98924" lon="6.70548">
        <ele>2226.1</ele>
        <time>2013-08-30T12:42:30Z</time>
      </trkpt>
      <trkpt lat="44.98913" lon="6.70554">
        <ele>2227</ele>
        <time>2013-08-30T12:42:44Z</time>
      </trkpt>
      <trkpt lat="44.98899" lon="6.70559">
        <ele>2229.4</ele>
        <time>2013-08-30T12:43:02Z</time>
      </trkpt>
      <trkpt lat="44.98889" lon="6.70563">
        <ele>2231.8</ele>
        <time>2013-08-30T12:43:19Z</time>
      </trkpt>
      <trkpt lat="44.98873" lon="6.70563">
        <ele>2232.8</ele>
        <time>2013-08-30T12:43:37Z</time>
      </trkpt>
      <trkpt lat="44.98865" lon="6.70563">
        <ele>2235.7</ele>
        <time>2013-08-30T12:43:50Z</time>
      </trkpt>
      <trkpt lat="44.98858" lon="6.70564">
        <ele>2237.6</ele>
        <time>2013-08-30T12:44:05Z</time>
      </trkpt>
      <trkpt lat="44.98842" lon="6.70564">
        <ele>2239.5</ele>
        <time>2013-08-30T12:44:22Z</time>
      </trkpt>
      <trkpt lat="44.98828" lon="6.70564">
        <ele>2241.9</ele>
        <time>2013-08-30T12:44:44Z</time>
      </trkpt>
      <trkpt lat="44.98818" lon="6.70572">
        <ele>2243.4</ele>
        <time>2013-08-30T12:45:01Z</time>
      </trkpt>
      <trkpt lat="44.98807" lon="6.70584">
        <ele>2244.8</ele>
        <time>2013-08-30T12:45:19Z</time>
      </trkpt>
      <trkpt lat="44.98795" lon="6.70587">
        <ele>2247.7</ele>
        <time>2013-08-30T12:45:38Z</time>
      </trkpt>
      <trkpt lat="44.98782" lon="6.70595">
        <ele>2249.6</ele>
        <time>2013-08-30T12:45:57Z</time>
      </trkpt>
      <trkpt lat="44.98772" lon="6.70601">
        <ele>2253</ele>
        <time>2013-08-30T12:46:13Z</time>
      </trkpt>
      <trkpt lat="44.98756" lon="6.70603">
        <ele>2254.9</ele>
        <time>2013-08-30T12:46:32Z</time>
      </trkpt>
      <trkpt lat="44.98741" lon="6.70604">
        <ele>2256.4</ele>
        <time>2013-08-30T12:46:49Z</time>
      </trkpt>
      <trkpt lat="44.98728" lon="6.70605">
        <ele>2257.8</ele>
        <time>2013-08-30T12:47:06Z</time>
      </trkpt>
      <trkpt lat="44.98716" lon="6.70607">
        <ele>2259.7</ele>
        <time>2013-08-30T12:47:22Z</time>
      </trkpt>
      <trkpt lat="44.987" lon="6.70611">
        <ele>2262.1</ele>
        <time>2013-08-30T12:47:42Z</time>
      </trkpt>
      <trkpt lat="44.98686" lon="6.70614">
        <ele>2263.6</ele>
        <time>2013-08-30T12:48:01Z</time>
      </trkpt>
      <trkpt lat="44.98683" lon="6.70613">
        <ele>2264</ele>
        <time>2013-08-30T12:48:33Z</time>
      </trkpt>
      <trkpt lat="44.98684" lon="6.70617">
        <ele>2264</ele>
        <time>2013-08-30T12:48:50Z</time>
      </trkpt>
      <trkpt lat="44.98675" lon="6.70616">
        <ele>2265</ele>
        <time>2013-08-30T12:49:03Z</time>
      </trkpt>
      <trkpt lat="44.98657" lon="6.70617">
        <ele>2266</ele>
        <time>2013-08-30T12:49:17Z</time>
      </trkpt>
      <trkpt lat="44.98639" lon="6.7062">
        <ele>2266.5</ele>
        <time>2013-08-30T12:49:31Z</time>
      </trkpt>
      <trkpt lat="44.98618" lon="6.70621">
        <ele>2267.9</ele>
        <time>2013-08-30T12:49:46Z</time>
      </trkpt>
      <trkpt lat="44.98594" lon="6.70628">
        <ele>2269.8</ele>
        <time>2013-08-30T12:50:03Z</time>
      </trkpt>
      <trkpt lat="44.98568" lon="6.70643">
        <ele>2273.2</ele>
        <time>2013-08-30T12:50:22Z</time>
      </trkpt>
      <trkpt lat="44.98564" lon="6.70644">
        <ele>2273.2</ele>
        <time>2013-08-30T12:50:34Z</time>
      </trkpt>
      <trkpt lat="44.98557" lon="6.70649">
        <ele>2274.1</ele>
        <time>2013-08-30T12:50:48Z</time>
      </trkpt>
      <trkpt lat="44.98548" lon="6.70656">
        <ele>2276.5</ele>
        <time>2013-08-30T12:51:06Z</time>
      </trkpt>
      <trkpt lat="44.98537" lon="6.70661">
        <ele>2278</ele>
        <time>2013-08-30T12:51:23Z</time>
      </trkpt>
      <trkpt lat="44.98521" lon="6.70665">
        <ele>2280.4</ele>
        <time>2013-08-30T12:51:43Z</time>
      </trkpt>
      <trkpt lat="44.98506" lon="6.70664">
        <ele>2282.8</ele>
        <time>2013-08-30T12:52:00Z</time>
      </trkpt>
      <trkpt lat="44.98498" lon="6.70668">
        <ele>2283.8</ele>
        <time>2013-08-30T12:52:14Z</time>
      </trkpt>
      <trkpt lat="44.98483" lon="6.7067">
        <ele>2284.7</ele>
        <time>2013-08-30T12:52:31Z</time>
      </trkpt>
      <trkpt lat="44.98471" lon="6.70674">
        <ele>2286.6</ele>
        <time>2013-08-30T12:52:49Z</time>
      </trkpt>
      <trkpt lat="44.98453" lon="6.70673">
        <ele>2288.6</ele>
        <time>2013-08-30T12:53:07Z</time>
      </trkpt>
      <trkpt lat="44.98436" lon="6.70667">
        <ele>2290</ele>
        <time>2013-08-30T12:53:28Z</time>
      </trkpt>
      <trkpt lat="44.9842" lon="6.70665">
        <ele>2292.9</ele>
        <time>2013-08-30T12:53:46Z</time>
      </trkpt>
      <trkpt lat="44.98403" lon="6.70664">
        <ele>2294.8</ele>
        <time>2013-08-30T12:54:03Z</time>
      </trkpt>
      <trkpt lat="44.98394" lon="6.70656">
        <ele>2296.7</ele>
        <time>2013-08-30T12:54:20Z</time>
      </trkpt>
      <trkpt lat="44.98378" lon="6.70655">
        <ele>2299.6</ele>
        <time>2013-08-30T12:54:38Z</time>
      </trkpt>
      <trkpt lat="44.98369" lon="6.7065">
        <ele>2300.1</ele>
        <time>2013-08-30T12:54:57Z</time>
      </trkpt>
      <trkpt lat="44.98367" lon="6.70648">
        <ele>2300.1</ele>
        <time>2013-08-30T12:55:01Z</time>
      </trkpt>
      <trkpt lat="44.98366" lon="6.70647">
        <ele>2300.6</ele>
        <time>2013-08-30T12:55:02Z</time>
      </trkpt>
      <trkpt lat="44.98365" lon="6.70646">
        <ele>2299.6</ele>
        <time>2013-08-30T12:55:03Z</time>
      </trkpt>
      <trkpt lat="44.98364" lon="6.70645">
        <ele>2300.6</ele>
        <time>2013-08-30T12:55:04Z</time>
      </trkpt>
      <trkpt lat="44.98362" lon="6.70645">
        <ele>2300.6</ele>
        <time>2013-08-30T12:55:05Z</time>
      </trkpt>
      <trkpt lat="44.9834" lon="6.70638">
        <ele>2302.5</ele>
        <time>2013-08-30T12:55:21Z</time>
      </trkpt>
      <trkpt lat="44.98319" lon="6.70634">
        <ele>2303.9</ele>
        <time>2013-08-30T12:55:38Z</time>
      </trkpt>
      <trkpt lat="44.98305" lon="6.70635">
        <ele>2305.9</ele>
        <time>2013-08-30T12:55:50Z</time>
      </trkpt>
      <trkpt lat="44.98304" lon="6.70636">
        <ele>2305.9</ele>
        <time>2013-08-30T12:55:51Z</time>
      </trkpt>
      <trkpt lat="44.98303" lon="6.70636">
        <ele>2306.3</ele>
        <time>2013-08-30T12:55:52Z</time>
      </trkpt>
      <trkpt lat="44.98301" lon="6.70636">
        <ele>2306.8</ele>
        <time>2013-08-30T12:55:53Z</time>
      </trkpt>
      <trkpt lat="44.983" lon="6.70635">
        <ele>2306.3</ele>
        <time>2013-08-30T12:55:54Z</time>
      </trkpt>
      <trkpt lat="44.98298" lon="6.70635">
        <ele>2306.8</ele>
        <time>2013-08-30T12:55:55Z</time>
      </trkpt>
      <trkpt lat="44.98297" lon="6.70635">
        <ele>2306.8</ele>
        <time>2013-08-30T12:55:56Z</time>
      </trkpt>
      <trkpt lat="44.98295" lon="6.70636">
        <ele>2306.3</ele>
        <time>2013-08-30T12:55:57Z</time>
      </trkpt>
      <trkpt lat="44.98276" lon="6.70637">
        <ele>2308.7</ele>
        <time>2013-08-30T12:56:13Z</time>
      </trkpt>
      <trkpt lat="44.98272" lon="6.70638">
        <ele>2309.2</ele>
        <time>2013-08-30T12:56:28Z</time>
      </trkpt>
      <trkpt lat="44.98268" lon="6.70638">
        <ele>2309.7</ele>
        <time>2013-08-30T12:56:55Z</time>
      </trkpt>
      <trkpt lat="44.98257" lon="6.70638">
        <ele>2311.6</ele>
        <time>2013-08-30T12:57:11Z</time>
      </trkpt>
      <trkpt lat="44.9824" lon="6.70636">
        <ele>2314.5</ele>
        <time>2013-08-30T12:57:32Z</time>
      </trkpt>
      <trkpt lat="44.98228" lon="6.7063">
        <ele>2316.4</ele>
        <time>2013-08-30T12:57:50Z</time>
      </trkpt>
      <trkpt lat="44.98217" lon="6.70631">
        <ele>2318.8</ele>
        <time>2013-08-30T12:58:07Z</time>
      </trkpt>
      <trkpt lat="44.98215" lon="6.70631">
        <ele>2319.3</ele>
        <time>2013-08-30T12:58:09Z</time>
      </trkpt>
      <trkpt lat="44.98205" lon="6.70628">
        <ele>2320.8</ele>
        <time>2013-08-30T12:58:20Z</time>
      </trkpt>
      <trkpt lat="44.98202" lon="6.70629">
        <ele>2320.3</ele>
        <time>2013-08-30T12:58:24Z</time>
      </trkpt>
      <trkpt lat="44.98188" lon="6.70627">
        <ele>2322.7</ele>
        <time>2013-08-30T12:58:40Z</time>
      </trkpt>
      <trkpt lat="44.98176" lon="6.70629">
        <ele>2324.1</ele>
        <time>2013-08-30T12:58:52Z</time>
      </trkpt>
      <trkpt lat="44.98175" lon="6.70628">
        <ele>2324.6</ele>
        <time>2013-08-30T12:58:53Z</time>
      </trkpt>
      <trkpt lat="44.9816" lon="6.70619">
        <ele>2325.6</ele>
        <time>2013-08-30T12:59:10Z</time>
      </trkpt>
      <trkpt lat="44.98158" lon="6.70618">
        <ele>2326.1</ele>
        <time>2013-08-30T12:59:12Z</time>
      </trkpt>
      <trkpt lat="44.98144" lon="6.70622">
        <ele>2327</ele>
        <time>2013-08-30T12:59:28Z</time>
      </trkpt>
      <trkpt lat="44.98128" lon="6.70623">
        <ele>2328.9</ele>
        <time>2013-08-30T12:59:46Z</time>
      </trkpt>
      <trkpt lat="44.98116" lon="6.70623">
        <ele>2329.9</ele>
        <time>2013-08-30T13:00:00Z</time>
      </trkpt>
      <trkpt lat="44.98101" lon="6.70623">
        <ele>2331.8</ele>
        <time>2013-08-30T13:00:17Z</time>
      </trkpt>
      <trkpt lat="44.98089" lon="6.70625">
        <ele>2333.7</ele>
        <time>2013-08-30T13:00:31Z</time>
      </trkpt>
      <trkpt lat="44.98088" lon="6.70626">
        <ele>2333.3</ele>
        <time>2013-08-30T13:00:33Z</time>
      </trkpt>
      <trkpt lat="44.98072" lon="6.70632">
        <ele>2335.2</ele>
        <time>2013-08-30T13:00:51Z</time>
      </trkpt>
      <trkpt lat="44.98059" lon="6.70635">
        <ele>2336.6</ele>
        <time>2013-08-30T13:01:07Z</time>
      </trkpt>
      <trkpt lat="44.98055" lon="6.70637">
        <ele>2337.6</ele>
        <time>2013-08-30T13:01:12Z</time>
      </trkpt>
      <trkpt lat="44.98042" lon="6.70643">
        <ele>2339</ele>
        <time>2013-08-30T13:01:30Z</time>
      </trkpt>
      <trkpt lat="44.9803" lon="6.70647">
        <ele>2341.9</ele>
        <time>2013-08-30T13:01:49Z</time>
      </trkpt>
      <trkpt lat="44.98018" lon="6.70652">
        <ele>2344.3</ele>
        <time>2013-08-30T13:02:07Z</time>
      </trkpt>
      <trkpt lat="44.98007" lon="6.70655">
        <ele>2346.2</ele>
        <time>2013-08-30T13:02:23Z</time>
      </trkpt>
      <trkpt lat="44.97994" lon="6.70665">
        <ele>2349.1</ele>
        <time>2013-08-30T13:02:41Z</time>
      </trkpt>
      <trkpt lat="44.97981" lon="6.70674">
        <ele>2351.5</ele>
        <time>2013-08-30T13:02:59Z</time>
      </trkpt>
      <trkpt lat="44.97967" lon="6.70682">
        <ele>2353.9</ele>
        <time>2013-08-30T13:03:19Z</time>
      </trkpt>
      <trkpt lat="44.97955" lon="6.70691">
        <ele>2355.9</ele>
        <time>2013-08-30T13:03:38Z</time>
      </trkpt>
      <trkpt lat="44.97942" lon="6.70691">
        <ele>2357.8</ele>
        <time>2013-08-30T13:03:53Z</time>
      </trkpt>
      <trkpt lat="44.97941" lon="6.7069">
        <ele>2357.8</ele>
        <time>2013-08-30T13:03:55Z</time>
      </trkpt>
      <trkpt lat="44.97929" lon="6.7069">
        <ele>2360.7</ele>
        <time>2013-08-30T13:04:11Z</time>
      </trkpt>
      <trkpt lat="44.97916" lon="6.7069">
        <ele>2363.1</ele>
        <time>2013-08-30T13:04:29Z</time>
      </trkpt>
      <trkpt lat="44.97909" lon="6.70689">
        <ele>2364.5</ele>
        <time>2013-08-30T13:04:45Z</time>
      </trkpt>
      <trkpt lat="44.97904" lon="6.70687">
        <ele>2364.5</ele>
        <time>2013-08-30T13:05:26Z</time>
      </trkpt>
      <trkpt lat="44.97893" lon="6.70688">
        <ele>2367.4</ele>
        <time>2013-08-30T13:05:43Z</time>
      </trkpt>
      <trkpt lat="44.97882" lon="6.7069">
        <ele>2369.8</ele>
        <time>2013-08-30T13:06:01Z</time>
      </trkpt>
      <trkpt lat="44.9787" lon="6.70696">
        <ele>2372.2</ele>
        <time>2013-08-30T13:06:20Z</time>
      </trkpt>
      <trkpt lat="44.97862" lon="6.70697">
        <ele>2374.1</ele>
        <time>2013-08-30T13:06:38Z</time>
      </trkpt>
      <trkpt lat="44.97857" lon="6.70696">
        <ele>2376.5</ele>
        <time>2013-08-30T13:07:03Z</time>
      </trkpt>
      <trkpt lat="44.97848" lon="6.7069">
        <ele>2378.4</ele>
        <time>2013-08-30T13:07:22Z</time>
      </trkpt>
      <trkpt lat="44.97839" lon="6.70686">
        <ele>2380.4</ele>
        <time>2013-08-30T13:07:39Z</time>
      </trkpt>
      <trkpt lat="44.97836" lon="6.70685">
        <ele>2381.3</ele>
        <time>2013-08-30T13:07:57Z</time>
      </trkpt>
      <trkpt lat="44.9783" lon="6.70685">
        <ele>2381.8</ele>
        <time>2013-08-30T13:08:25Z</time>
      </trkpt>
      <trkpt lat="44.97821" lon="6.70685">
        <ele>2385.2</ele>
        <time>2013-08-30T13:08:39Z</time>
      </trkpt>
      <trkpt lat="44.9781" lon="6.70683">
        <ele>2387.1</ele>
        <time>2013-08-30T13:08:55Z</time>
      </trkpt>
      <trkpt lat="44.97799" lon="6.70685">
        <ele>2390.5</ele>
        <time>2013-08-30T13:09:12Z</time>
      </trkpt>
      <trkpt lat="44.97788" lon="6.70682">
        <ele>2393.8</ele>
        <time>2013-08-30T13:09:30Z</time>
      </trkpt>
      <trkpt lat="44.97783" lon="6.70671">
        <ele>2395.7</ele>
        <time>2013-08-30T13:09:46Z</time>
      </trkpt>
      <trkpt lat="44.97772" lon="6.70665">
        <ele>2397.7</ele>
        <time>2013-08-30T13:10:03Z</time>
      </trkpt>
      <trkpt lat="44.97758" lon="6.70657">
        <ele>2401</ele>
        <time>2013-08-30T13:10:25Z</time>
      </trkpt>
      <trkpt lat="44.97747" lon="6.70654">
        <ele>2403.4</ele>
        <time>2013-08-30T13:10:42Z</time>
      </trkpt>
      <trkpt lat="44.97739" lon="6.70652">
        <ele>2407.3</ele>
        <time>2013-08-30T13:10:55Z</time>
      </trkpt>
      <trkpt lat="44.97732" lon="6.70647">
        <ele>2408.2</ele>
        <time>2013-08-30T13:11:10Z</time>
      </trkpt>
      <trkpt lat="44.97725" lon="6.70642">
        <ele>2411.6</ele>
        <time>2013-08-30T13:11:22Z</time>
      </trkpt>
      <trkpt lat="44.97721" lon="6.70631">
        <ele>2413.5</ele>
        <time>2013-08-30T13:11:38Z</time>
      </trkpt>
      <trkpt lat="44.9771" lon="6.70632">
        <ele>2415.9</ele>
        <time>2013-08-30T13:11:55Z</time>
      </trkpt>
      <trkpt lat="44.97701" lon="6.70636">
        <ele>2417.9</ele>
        <time>2013-08-30T13:12:11Z</time>
      </trkpt>
      <trkpt lat="44.97691" lon="6.70637">
        <ele>2420.7</ele>
        <time>2013-08-30T13:12:28Z</time>
      </trkpt>
      <trkpt lat="44.97683" lon="6.70635">
        <ele>2423.1</ele>
        <time>2013-08-30T13:12:43Z</time>
      </trkpt>
      <trkpt lat="44.97678" lon="6.70635">
        <ele>2424.1</ele>
        <time>2013-08-30T13:13:01Z</time>
      </trkpt>
      <trkpt lat="44.97668" lon="6.70634">
        <ele>2427</ele>
        <time>2013-08-30T13:13:18Z</time>
      </trkpt>
      <trkpt lat="44.97656" lon="6.70631">
        <ele>2429.4</ele>
        <time>2013-08-30T13:13:36Z</time>
      </trkpt>
      <trkpt lat="44.97645" lon="6.70632">
        <ele>2432.3</ele>
        <time>2013-08-30T13:13:52Z</time>
      </trkpt>
      <trkpt lat="44.97636" lon="6.70633">
        <ele>2435.2</ele>
        <time>2013-08-30T13:14:06Z</time>
      </trkpt>
      <trkpt lat="44.97625" lon="6.70632">
        <ele>2437.6</ele>
        <time>2013-08-30T13:14:25Z</time>
      </trkpt>
      <trkpt lat="44.97615" lon="6.70635">
        <ele>2440.4</ele>
        <time>2013-08-30T13:14:43Z</time>
      </trkpt>
      <trkpt lat="44.97607" lon="6.70638">
        <ele>2443.8</ele>
        <time>2013-08-30T13:15:00Z</time>
      </trkpt>
      <trkpt lat="44.97595" lon="6.70642">
        <ele>2446.2</ele>
        <time>2013-08-30T13:15:21Z</time>
      </trkpt>
      <trkpt lat="44.97594" lon="6.70646">
        <ele>2444.8</ele>
        <time>2013-08-30T13:15:34Z</time>
      </trkpt>
      <trkpt lat="44.97594" lon="6.70647">
        <ele>2445.3</ele>
        <time>2013-08-30T13:16:24Z</time>
      </trkpt>
      <trkpt lat="44.97593" lon="6.70647">
        <ele>2442.9</ele>
        <time>2013-08-30T13:16:28Z</time>
      </trkpt>
      <trkpt lat="44.9756" lon="6.70651">
        <ele>2433.7</ele>
        <time>2013-08-30T13:42:29Z</time>
      </trkpt>
      <trkpt lat="44.97558" lon="6.70686">
        <ele>2432.3</ele>
        <time>2013-08-30T13:42:41Z</time>
      </trkpt>
      <trkpt lat="44.97558" lon="6.70723">
        <ele>2434.2</ele>
        <time>2013-08-30T13:42:53Z</time>
      </trkpt>
      <trkpt lat="44.97561" lon="6.70735">
        <ele>2437.1</ele>
        <time>2013-08-30T13:43:02Z</time>
      </trkpt>
      <trkpt lat="44.97566" lon="6.70749">
        <ele>2436.6</ele>
        <time>2013-08-30T13:43:18Z</time>
      </trkpt>
      <trkpt lat="44.9758" lon="6.70759">
        <ele>2439</ele>
        <time>2013-08-30T13:43:31Z</time>
      </trkpt>
      <trkpt lat="44.97584" lon="6.70767">
        <ele>2442.4</ele>
        <time>2013-08-30T13:43:34Z</time>
      </trkpt>
      <trkpt lat="44.97588" lon="6.70777">
        <ele>2445.7</ele>
        <time>2013-08-30T13:43:38Z</time>
      </trkpt>
      <trkpt lat="44.97587" lon="6.70788">
        <ele>2449.1</ele>
        <time>2013-08-30T13:43:42Z</time>
      </trkpt>
      <trkpt lat="44.97586" lon="6.70797">
        <ele>2452</ele>
        <time>2013-08-30T13:43:45Z</time>
      </trkpt>
      <trkpt lat="44.9758" lon="6.70816">
        <ele>2455.3</ele>
        <time>2013-08-30T13:43:53Z</time>
      </trkpt>
      <trkpt lat="44.97577" lon="6.70832">
        <ele>2458.2</ele>
        <time>2013-08-30T13:43:59Z</time>
      </trkpt>
      <trkpt lat="44.97562" lon="6.70863">
        <ele>2459.2</ele>
        <time>2013-08-30T13:44:13Z</time>
      </trkpt>
      <trkpt lat="44.97535" lon="6.70882">
        <ele>2462.6</ele>
        <time>2013-08-30T13:44:27Z</time>
      </trkpt>
      <trkpt lat="44.97523" lon="6.7089">
        <ele>2465.4</ele>
        <time>2013-08-30T13:44:37Z</time>
      </trkpt>
      <trkpt lat="44.97511" lon="6.70897">
        <ele>2468.3</ele>
        <time>2013-08-30T13:44:51Z</time>
      </trkpt>
      <trkpt lat="44.97501" lon="6.709">
        <ele>2469.3</ele>
        <time>2013-08-30T13:45:06Z</time>
      </trkpt>
      <trkpt lat="44.97494" lon="6.70898">
        <ele>2471.2</ele>
        <time>2013-08-30T13:45:28Z</time>
      </trkpt>
      <trkpt lat="44.97486" lon="6.70898">
        <ele>2472.7</ele>
        <time>2013-08-30T13:45:42Z</time>
      </trkpt>
      <trkpt lat="44.97476" lon="6.70903">
        <ele>2471.2</ele>
        <time>2013-08-30T13:45:48Z</time>
      </trkpt>
      <trkpt lat="44.97474" lon="6.70903">
        <ele>2471.2</ele>
        <time>2013-08-30T13:45:49Z</time>
      </trkpt>
      <trkpt lat="44.97471" lon="6.70902">
        <ele>2470.2</ele>
        <time>2013-08-30T13:45:50Z</time>
      </trkpt>
      <trkpt lat="44.97468" lon="6.70902">
        <ele>2470.2</ele>
        <time>2013-08-30T13:45:51Z</time>
      </trkpt>
      <trkpt lat="44.97465" lon="6.70902">
        <ele>2469.3</ele>
        <time>2013-08-30T13:45:52Z</time>
      </trkpt>
      <trkpt lat="44.97462" lon="6.70902">
        <ele>2469.8</ele>
        <time>2013-08-30T13:45:53Z</time>
      </trkpt>
      <trkpt lat="44.97454" lon="6.70903">
        <ele>2467.4</ele>
        <time>2013-08-30T13:45:55Z</time>
      </trkpt>
      <trkpt lat="44.97451" lon="6.70905">
        <ele>2466.9</ele>
        <time>2013-08-30T13:45:56Z</time>
      </trkpt>
      <trkpt lat="44.97429" lon="6.70908">
        <ele>2468.3</ele>
        <time>2013-08-30T13:46:05Z</time>
      </trkpt>
      <trkpt lat="44.97405" lon="6.70915">
        <ele>2467.8</ele>
        <time>2013-08-30T13:46:15Z</time>
      </trkpt>
      <trkpt lat="44.97377" lon="6.7093">
        <ele>2468.3</ele>
        <time>2013-08-30T13:46:29Z</time>
      </trkpt>
      <trkpt lat="44.97349" lon="6.70945">
        <ele>2468.3</ele>
        <time>2013-08-30T13:46:41Z</time>
      </trkpt>
      <trkpt lat="44.97343" lon="6.70946">
        <ele>2469.3</ele>
        <time>2013-08-30T13:46:50Z</time>
      </trkpt>
      <trkpt lat="44.97332" lon="6.70953">
        <ele>2470.2</ele>
        <time>2013-08-30T13:47:07Z</time>
      </trkpt>
      <trkpt lat="44.97322" lon="6.70963">
        <ele>2471.7</ele>
        <time>2013-08-30T13:47:14Z</time>
      </trkpt>
      <trkpt lat="44.97308" lon="6.70979">
        <ele>2472.2</ele>
        <time>2013-08-30T13:47:25Z</time>
      </trkpt>
      <trkpt lat="44.97292" lon="6.71009">
        <ele>2470.7</ele>
        <time>2013-08-30T13:47:35Z</time>
      </trkpt>
      <trkpt lat="44.9729" lon="6.71013">
        <ele>2470.7</ele>
        <time>2013-08-30T13:47:36Z</time>
      </trkpt>
      <trkpt lat="44.97288" lon="6.71016">
        <ele>2469.8</ele>
        <time>2013-08-30T13:47:37Z</time>
      </trkpt>
      <trkpt lat="44.97272" lon="6.7104">
        <ele>2471.2</ele>
        <time>2013-08-30T13:47:47Z</time>
      </trkpt>
      <trkpt lat="44.97237" lon="6.71065">
        <ele>2469.3</ele>
        <time>2013-08-30T13:48:04Z</time>
      </trkpt>
      <trkpt lat="44.9721" lon="6.7109">
        <ele>2467.4</ele>
        <time>2013-08-30T13:48:15Z</time>
      </trkpt>
      <trkpt lat="44.97205" lon="6.71097">
        <ele>2465.9</ele>
        <time>2013-08-30T13:48:17Z</time>
      </trkpt>
      <trkpt lat="44.97201" lon="6.71099">
        <ele>2465.9</ele>
        <time>2013-08-30T13:48:18Z</time>
      </trkpt>
      <trkpt lat="44.97178" lon="6.71119">
        <ele>2465.9</ele>
        <time>2013-08-30T13:48:28Z</time>
      </trkpt>
      <trkpt lat="44.97171" lon="6.71125">
        <ele>2465</ele>
        <time>2013-08-30T13:48:31Z</time>
      </trkpt>
      <trkpt lat="44.97167" lon="6.71127">
        <ele>2464.5</ele>
        <time>2013-08-30T13:48:32Z</time>
      </trkpt>
      <trkpt lat="44.97138" lon="6.7114">
        <ele>2463.5</ele>
        <time>2013-08-30T13:48:42Z</time>
      </trkpt>
      <trkpt lat="44.97134" lon="6.71143">
        <ele>2463</ele>
        <time>2013-08-30T13:48:43Z</time>
      </trkpt>
      <trkpt lat="44.97131" lon="6.71146">
        <ele>2462.6</ele>
        <time>2013-08-30T13:48:44Z</time>
      </trkpt>
      <trkpt lat="44.97127" lon="6.71148">
        <ele>2462.6</ele>
        <time>2013-08-30T13:48:45Z</time>
      </trkpt>
      <trkpt lat="44.97103" lon="6.71175">
        <ele>2461.6</ele>
        <time>2013-08-30T13:48:55Z</time>
      </trkpt>
      <trkpt lat="44.97079" lon="6.71192">
        <ele>2463</ele>
        <time>2013-08-30T13:49:06Z</time>
      </trkpt>
      <trkpt lat="44.97063" lon="6.71199">
        <ele>2465</ele>
        <time>2013-08-30T13:49:17Z</time>
      </trkpt>
      <trkpt lat="44.97061" lon="6.71201">
        <ele>2465.9</ele>
        <time>2013-08-30T13:49:19Z</time>
      </trkpt>
      <trkpt lat="44.97042" lon="6.71224">
        <ele>2463.5</ele>
        <time>2013-08-30T13:49:29Z</time>
      </trkpt>
      <trkpt lat="44.97029" lon="6.7124">
        <ele>2463</ele>
        <time>2013-08-30T13:49:37Z</time>
      </trkpt>
      <trkpt lat="44.97027" lon="6.71242">
        <ele>2463</ele>
        <time>2013-08-30T13:49:38Z</time>
      </trkpt>
      <trkpt lat="44.97018" lon="6.71252">
        <ele>2461.1</ele>
        <time>2013-08-30T13:49:43Z</time>
      </trkpt>
      <trkpt lat="44.97018" lon="6.71253">
        <ele>2462.1</ele>
        <time>2013-08-30T13:49:55Z</time>
      </trkpt>
      <trkpt lat="44.97015" lon="6.71252">
        <ele>2462.1</ele>
        <time>2013-08-30T13:50:18Z</time>
      </trkpt>
      <trkpt lat="44.97009" lon="6.71257">
        <ele>2464</ele>
        <time>2013-08-30T13:50:31Z</time>
      </trkpt>
      <trkpt lat="44.97004" lon="6.71261">
        <ele>2465</ele>
        <time>2013-08-30T13:50:44Z</time>
      </trkpt>
      <trkpt lat="44.96997" lon="6.71264">
        <ele>2467.8</ele>
        <time>2013-08-30T13:50:59Z</time>
      </trkpt>
      <trkpt lat="44.96992" lon="6.71266">
        <ele>2468.8</ele>
        <time>2013-08-30T13:51:13Z</time>
      </trkpt>
      <trkpt lat="44.96988" lon="6.71268">
        <ele>2469.8</ele>
        <time>2013-08-30T13:51:27Z</time>
      </trkpt>
      <trkpt lat="44.96982" lon="6.7127">
        <ele>2471.7</ele>
        <time>2013-08-30T13:51:41Z</time>
      </trkpt>
      <trkpt lat="44.96977" lon="6.71273">
        <ele>2475.1</ele>
        <time>2013-08-30T13:51:55Z</time>
      </trkpt>
      <trkpt lat="44.96971" lon="6.71275">
        <ele>2476.5</ele>
        <time>2013-08-30T13:52:10Z</time>
      </trkpt>
      <trkpt lat="44.96969" lon="6.71279">
        <ele>2478.9</ele>
        <time>2013-08-30T13:52:21Z</time>
      </trkpt>
      <trkpt lat="44.96961" lon="6.71283">
        <ele>2480.8</ele>
        <time>2013-08-30T13:52:37Z</time>
      </trkpt>
      <trkpt lat="44.96958" lon="6.71288">
        <ele>2483.2</ele>
        <time>2013-08-30T13:52:55Z</time>
      </trkpt>
      <trkpt lat="44.96959" lon="6.71296">
        <ele>2485.2</ele>
        <time>2013-08-30T13:53:11Z</time>
      </trkpt>
      <trkpt lat="44.9696" lon="6.71305">
        <ele>2487.6</ele>
        <time>2013-08-30T13:53:24Z</time>
      </trkpt>
      <trkpt lat="44.96958" lon="6.71316">
        <ele>2488.5</ele>
        <time>2013-08-30T13:53:38Z</time>
      </trkpt>
      <trkpt lat="44.96955" lon="6.7133">
        <ele>2490</ele>
        <time>2013-08-30T13:53:51Z</time>
      </trkpt>
      <trkpt lat="44.96953" lon="6.71342">
        <ele>2491.9</ele>
        <time>2013-08-30T13:54:06Z</time>
      </trkpt>
      <trkpt lat="44.96949" lon="6.71354">
        <ele>2493.8</ele>
        <time>2013-08-30T13:54:20Z</time>
      </trkpt>
      <trkpt lat="44.96946" lon="6.7136">
        <ele>2495.2</ele>
        <time>2013-08-30T13:54:30Z</time>
      </trkpt>
      <trkpt lat="44.96944" lon="6.71371">
        <ele>2496.7</ele>
        <time>2013-08-30T13:54:45Z</time>
      </trkpt>
      <trkpt lat="44.96941" lon="6.71379">
        <ele>2499.1</ele>
        <time>2013-08-30T13:54:58Z</time>
      </trkpt>
      <trkpt lat="44.96938" lon="6.7139">
        <ele>2501</ele>
        <time>2013-08-30T13:55:14Z</time>
      </trkpt>
      <trkpt lat="44.96933" lon="6.714">
        <ele>2502.5</ele>
        <time>2013-08-30T13:55:28Z</time>
      </trkpt>
      <trkpt lat="44.96931" lon="6.7141">
        <ele>2504.4</ele>
        <time>2013-08-30T13:55:42Z</time>
      </trkpt>
      <trkpt lat="44.96926" lon="6.71422">
        <ele>2505.3</ele>
        <time>2013-08-30T13:55:58Z</time>
      </trkpt>
      <trkpt lat="44.96918" lon="6.71436">
        <ele>2507.7</ele>
        <time>2013-08-30T13:56:16Z</time>
      </trkpt>
      <trkpt lat="44.96913" lon="6.71449">
        <ele>2509.2</ele>
        <time>2013-08-30T13:56:31Z</time>
      </trkpt>
      <trkpt lat="44.96909" lon="6.71457">
        <ele>2510.6</ele>
        <time>2013-08-30T13:56:43Z</time>
      </trkpt>
      <trkpt lat="44.96904" lon="6.71467">
        <ele>2512.1</ele>
        <time>2013-08-30T13:56:58Z</time>
      </trkpt>
      <trkpt lat="44.96899" lon="6.71476">
        <ele>2515</ele>
        <time>2013-08-30T13:57:15Z</time>
      </trkpt>
      <trkpt lat="44.96891" lon="6.71488">
        <ele>2515.9</ele>
        <time>2013-08-30T13:57:32Z</time>
      </trkpt>
      <trkpt lat="44.96882" lon="6.71498">
        <ele>2518.3</ele>
        <time>2013-08-30T13:57:52Z</time>
      </trkpt>
      <trkpt lat="44.96876" lon="6.71506">
        <ele>2520.7</ele>
        <time>2013-08-30T13:58:07Z</time>
      </trkpt>
      <trkpt lat="44.9687" lon="6.71514">
        <ele>2521.7</ele>
        <time>2013-08-30T13:58:23Z</time>
      </trkpt>
      <trkpt lat="44.96866" lon="6.71519">
        <ele>2523.6</ele>
        <time>2013-08-30T13:58:36Z</time>
      </trkpt>
      <trkpt lat="44.96863" lon="6.71525">
        <ele>2525</ele>
        <time>2013-08-30T13:58:51Z</time>
      </trkpt>
      <trkpt lat="44.96854" lon="6.71532">
        <ele>2527.4</ele>
        <time>2013-08-30T13:59:05Z</time>
      </trkpt>
      <trkpt lat="44.96851" lon="6.71534">
        <ele>2528.4</ele>
        <time>2013-08-30T13:59:18Z</time>
      </trkpt>
      <trkpt lat="44.96846" lon="6.7154">
        <ele>2529.9</ele>
        <time>2013-08-30T13:59:42Z</time>
      </trkpt>
      <trkpt lat="44.96839" lon="6.71545">
        <ele>2532.7</ele>
        <time>2013-08-30T13:59:55Z</time>
      </trkpt>
      <trkpt lat="44.96832" lon="6.71553">
        <ele>2535.1</ele>
        <time>2013-08-30T14:00:09Z</time>
      </trkpt>
      <trkpt lat="44.96825" lon="6.71561">
        <ele>2538</ele>
        <time>2013-08-30T14:00:27Z</time>
      </trkpt>
      <trkpt lat="44.96817" lon="6.71569">
        <ele>2540.9</ele>
        <time>2013-08-30T14:00:44Z</time>
      </trkpt>
      <trkpt lat="44.96818" lon="6.71575">
        <ele>2541.9</ele>
        <time>2013-08-30T14:00:59Z</time>
      </trkpt>
      <trkpt lat="44.96817" lon="6.71572">
        <ele>2542.3</ele>
        <time>2013-08-30T14:01:33Z</time>
      </trkpt>
      <trkpt lat="44.96817" lon="6.71574">
        <ele>2542.3</ele>
        <time>2013-08-30T14:02:05Z</time>
      </trkpt>
      <trkpt lat="44.96818" lon="6.71575">
        <ele>2541.9</ele>
        <time>2013-08-30T14:02:33Z</time>
      </trkpt>
      <trkpt lat="44.96818" lon="6.71578">
        <ele>2540.9</ele>
        <time>2013-08-30T14:03:02Z</time>
      </trkpt>
      <trkpt lat="44.96815" lon="6.71583">
        <ele>2539.5</ele>
        <time>2013-08-30T14:03:19Z</time>
      </trkpt>
      <trkpt lat="44.96818" lon="6.71589">
        <ele>2536.1</ele>
        <time>2013-08-30T14:03:33Z</time>
      </trkpt>
      <trkpt lat="44.9682" lon="6.71593">
        <ele>2534.2</ele>
        <time>2013-08-30T14:03:49Z</time>
      </trkpt>
      <trkpt lat="44.96815" lon="6.71594">
        <ele>2533.2</ele>
        <time>2013-08-30T14:04:04Z</time>
      </trkpt>
      <trkpt lat="44.9682" lon="6.71598">
        <ele>2532.3</ele>
        <time>2013-08-30T14:04:16Z</time>
      </trkpt>
      <trkpt lat="44.96822" lon="6.71599">
        <ele>2531.8</ele>
        <time>2013-08-30T14:04:35Z</time>
      </trkpt>
      <trkpt lat="44.96824" lon="6.71605">
        <ele>2528.9</ele>
        <time>2013-08-30T14:04:45Z</time>
      </trkpt>
      <trkpt lat="44.96825" lon="6.71606">
        <ele>2528.4</ele>
        <time>2013-08-30T14:04:46Z</time>
      </trkpt>
      <trkpt lat="44.96826" lon="6.71608">
        <ele>2527.9</ele>
        <time>2013-08-30T14:04:47Z</time>
      </trkpt>
      <trkpt lat="44.96827" lon="6.7161">
        <ele>2527.4</ele>
        <time>2013-08-30T14:04:48Z</time>
      </trkpt>
      <trkpt lat="44.96828" lon="6.71612">
        <ele>2526.5</ele>
        <time>2013-08-30T14:04:49Z</time>
      </trkpt>
      <trkpt lat="44.9683" lon="6.71614">
        <ele>2526</ele>
        <time>2013-08-30T14:04:50Z</time>
      </trkpt>
      <trkpt lat="44.96836" lon="6.71625">
        <ele>2523.1</ele>
        <time>2013-08-30T14:04:55Z</time>
      </trkpt>
      <trkpt lat="44.96843" lon="6.71638">
        <ele>2519.3</ele>
        <time>2013-08-30T14:05:00Z</time>
      </trkpt>
      <trkpt lat="44.96848" lon="6.71645">
        <ele>2517.4</ele>
        <time>2013-08-30T14:05:03Z</time>
      </trkpt>
      <trkpt lat="44.96852" lon="6.71653">
        <ele>2515.4</ele>
        <time>2013-08-30T14:05:06Z</time>
      </trkpt>
      <trkpt lat="44.96859" lon="6.71667">
        <ele>2511.1</ele>
        <time>2013-08-30T14:05:11Z</time>
      </trkpt>
      <trkpt lat="44.96866" lon="6.7168">
        <ele>2508.2</ele>
        <time>2013-08-30T14:05:14Z</time>
      </trkpt>
      <trkpt lat="44.96874" lon="6.71696">
        <ele>2504.9</ele>
        <time>2013-08-30T14:05:17Z</time>
      </trkpt>
      <trkpt lat="44.96876" lon="6.71701">
        <ele>2503.9</ele>
        <time>2013-08-30T14:05:18Z</time>
      </trkpt>
      <trkpt lat="44.96878" lon="6.71706">
        <ele>2503.4</ele>
        <time>2013-08-30T14:05:19Z</time>
      </trkpt>
      <trkpt lat="44.96881" lon="6.71711">
        <ele>2502.9</ele>
        <time>2013-08-30T14:05:20Z</time>
      </trkpt>
      <trkpt lat="44.96892" lon="6.71729">
        <ele>2499.1</ele>
        <time>2013-08-30T14:05:24Z</time>
      </trkpt>
      <trkpt lat="44.96893" lon="6.71733">
        <ele>2498.1</ele>
        <time>2013-08-30T14:05:25Z</time>
      </trkpt>
      <trkpt lat="44.96895" lon="6.71747">
        <ele>2495.2</ele>
        <time>2013-08-30T14:05:28Z</time>
      </trkpt>
      <trkpt lat="44.96898" lon="6.71753">
        <ele>2493.8</ele>
        <time>2013-08-30T14:05:29Z</time>
      </trkpt>
      <trkpt lat="44.96903" lon="6.71764">
        <ele>2491.4</ele>
        <time>2013-08-30T14:05:31Z</time>
      </trkpt>
      <trkpt lat="44.96909" lon="6.71775">
        <ele>2490.4</ele>
        <time>2013-08-30T14:05:33Z</time>
      </trkpt>
      <trkpt lat="44.96912" lon="6.71782">
        <ele>2489.5</ele>
        <time>2013-08-30T14:05:34Z</time>
      </trkpt>
      <trkpt lat="44.96914" lon="6.71789">
        <ele>2488.5</ele>
        <time>2013-08-30T14:05:35Z</time>
      </trkpt>
      <trkpt lat="44.96917" lon="6.71796">
        <ele>2488.5</ele>
        <time>2013-08-30T14:05:36Z</time>
      </trkpt>
      <trkpt lat="44.96918" lon="6.71799">
        <ele>2488.5</ele>
        <time>2013-08-30T14:05:37Z</time>
      </trkpt>
      <trkpt lat="44.96929" lon="6.71824">
        <ele>2484.7</ele>
        <time>2013-08-30T14:05:42Z</time>
      </trkpt>
      <trkpt lat="44.96936" lon="6.71838">
        <ele>2483.2</ele>
        <time>2013-08-30T14:05:45Z</time>
      </trkpt>
      <trkpt lat="44.96938" lon="6.71844">
        <ele>2482.3</ele>
        <time>2013-08-30T14:05:46Z</time>
      </trkpt>
      <trkpt lat="44.9694" lon="6.71851">
        <ele>2481.3</ele>
        <time>2013-08-30T14:05:47Z</time>
      </trkpt>
      <trkpt lat="44.96944" lon="6.71857">
        <ele>2480.3</ele>
        <time>2013-08-30T14:05:48Z</time>
      </trkpt>
      <trkpt lat="44.96947" lon="6.71864">
        <ele>2479.9</ele>
        <time>2013-08-30T14:05:49Z</time>
      </trkpt>
      <trkpt lat="44.96957" lon="6.71882">
        <ele>2477.5</ele>
        <time>2013-08-30T14:05:52Z</time>
      </trkpt>
      <trkpt lat="44.96963" lon="6.71894">
        <ele>2476</ele>
        <time>2013-08-30T14:05:54Z</time>
      </trkpt>
      <trkpt lat="44.96964" lon="6.719">
        <ele>2475.5</ele>
        <time>2013-08-30T14:05:55Z</time>
      </trkpt>
      <trkpt lat="44.96965" lon="6.71906">
        <ele>2474.1</ele>
        <time>2013-08-30T14:05:56Z</time>
      </trkpt>
      <trkpt lat="44.96964" lon="6.71913">
        <ele>2473.6</ele>
        <time>2013-08-30T14:05:57Z</time>
      </trkpt>
      <trkpt lat="44.96962" lon="6.71919">
        <ele>2472.7</ele>
        <time>2013-08-30T14:05:58Z</time>
      </trkpt>
      <trkpt lat="44.9696" lon="6.71923">
        <ele>2472.7</ele>
        <time>2013-08-30T14:05:59Z</time>
      </trkpt>
      <trkpt lat="44.96959" lon="6.71925">
        <ele>2472.7</ele>
        <time>2013-08-30T14:06:10Z</time>
      </trkpt>
      <trkpt lat="44.9696" lon="6.71927">
        <ele>2473.1</ele>
        <time>2013-08-30T14:06:47Z</time>
      </trkpt>
      <trkpt lat="44.96959" lon="6.71929">
        <ele>2472.7</ele>
        <time>2013-08-30T14:07:05Z</time>
      </trkpt>
      <trkpt lat="44.96958" lon="6.71931">
        <ele>2472.7</ele>
        <time>2013-08-30T14:07:06Z</time>
      </trkpt>
      <trkpt lat="44.96957" lon="6.71934">
        <ele>2472.2</ele>
        <time>2013-08-30T14:07:07Z</time>
      </trkpt>
      <trkpt lat="44.96955" lon="6.71939">
        <ele>2471.7</ele>
        <time>2013-08-30T14:07:08Z</time>
      </trkpt>
      <trkpt lat="44.96952" lon="6.71943">
        <ele>2470.2</ele>
        <time>2013-08-30T14:07:09Z</time>
      </trkpt>
      <trkpt lat="44.9695" lon="6.71947">
        <ele>2470.7</ele>
        <time>2013-08-30T14:07:10Z</time>
      </trkpt>
      <trkpt lat="44.96948" lon="6.71952">
        <ele>2470.2</ele>
        <time>2013-08-30T14:07:11Z</time>
      </trkpt>
      <trkpt lat="44.96945" lon="6.71957">
        <ele>2469.8</ele>
        <time>2013-08-30T14:07:12Z</time>
      </trkpt>
      <trkpt lat="44.96943" lon="6.71961">
        <ele>2470.2</ele>
        <time>2013-08-30T14:07:13Z</time>
      </trkpt>
      <trkpt lat="44.9694" lon="6.71964">
        <ele>2470.2</ele>
        <time>2013-08-30T14:07:14Z</time>
      </trkpt>
      <trkpt lat="44.96938" lon="6.71966">
        <ele>2469.8</ele>
        <time>2013-08-30T14:07:15Z</time>
      </trkpt>
      <trkpt lat="44.96936" lon="6.7197">
        <ele>2468.8</ele>
        <time>2013-08-30T14:07:16Z</time>
      </trkpt>
      <trkpt lat="44.96935" lon="6.71974">
        <ele>2468.3</ele>
        <time>2013-08-30T14:07:17Z</time>
      </trkpt>
      <trkpt lat="44.96935" lon="6.71979">
        <ele>2467.4</ele>
        <time>2013-08-30T14:07:18Z</time>
      </trkpt>
      <trkpt lat="44.96935" lon="6.71983">
        <ele>2467.4</ele>
        <time>2013-08-30T14:07:19Z</time>
      </trkpt>
      <trkpt lat="44.96936" lon="6.72002">
        <ele>2464</ele>
        <time>2013-08-30T14:07:23Z</time>
      </trkpt>
      <trkpt lat="44.96943" lon="6.72026">
        <ele>2460.6</ele>
        <time>2013-08-30T14:07:29Z</time>
      </trkpt>
      <trkpt lat="44.96948" lon="6.72048">
        <ele>2456.8</ele>
        <time>2013-08-30T14:07:33Z</time>
      </trkpt>
      <trkpt lat="44.96949" lon="6.72053">
        <ele>2455.3</ele>
        <time>2013-08-30T14:07:34Z</time>
      </trkpt>
      <trkpt lat="44.96952" lon="6.72066">
        <ele>2452.5</ele>
        <time>2013-08-30T14:07:36Z</time>
      </trkpt>
      <trkpt lat="44.96953" lon="6.72071">
        <ele>2451.5</ele>
        <time>2013-08-30T14:07:37Z</time>
      </trkpt>
      <trkpt lat="44.96953" lon="6.72076">
        <ele>2450.5</ele>
        <time>2013-08-30T14:07:38Z</time>
      </trkpt>
      <trkpt lat="44.96951" lon="6.72103">
        <ele>2447.2</ele>
        <time>2013-08-30T14:07:43Z</time>
      </trkpt>
      <trkpt lat="44.9695" lon="6.72115">
        <ele>2445.3</ele>
        <time>2013-08-30T14:07:45Z</time>
      </trkpt>
      <trkpt lat="44.96947" lon="6.72133">
        <ele>2442.4</ele>
        <time>2013-08-30T14:07:48Z</time>
      </trkpt>
      <trkpt lat="44.96943" lon="6.72146">
        <ele>2440.4</ele>
        <time>2013-08-30T14:07:50Z</time>
      </trkpt>
      <trkpt lat="44.96941" lon="6.72151">
        <ele>2439.5</ele>
        <time>2013-08-30T14:07:51Z</time>
      </trkpt>
      <trkpt lat="44.9694" lon="6.72156">
        <ele>2439.5</ele>
        <time>2013-08-30T14:07:52Z</time>
      </trkpt>
      <trkpt lat="44.96938" lon="6.72162">
        <ele>2439</ele>
        <time>2013-08-30T14:07:53Z</time>
      </trkpt>
      <trkpt lat="44.96935" lon="6.72166">
        <ele>2438.5</ele>
        <time>2013-08-30T14:07:54Z</time>
      </trkpt>
      <trkpt lat="44.96929" lon="6.72175">
        <ele>2438</ele>
        <time>2013-08-30T14:07:56Z</time>
      </trkpt>
      <trkpt lat="44.96926" lon="6.72181">
        <ele>2437.6</ele>
        <time>2013-08-30T14:07:57Z</time>
      </trkpt>
      <trkpt lat="44.96923" lon="6.72189">
        <ele>2436.6</ele>
        <time>2013-08-30T14:07:58Z</time>
      </trkpt>
      <trkpt lat="44.96918" lon="6.72201">
        <ele>2435.2</ele>
        <time>2013-08-30T14:08:00Z</time>
      </trkpt>
      <trkpt lat="44.96914" lon="6.72212">
        <ele>2433.2</ele>
        <time>2013-08-30T14:08:08Z</time>
      </trkpt>
      <trkpt lat="44.96914" lon="6.72213">
        <ele>2434.2</ele>
        <time>2013-08-30T14:08:28Z</time>
      </trkpt>
      <trkpt lat="44.96912" lon="6.72215">
        <ele>2433.7</ele>
        <time>2013-08-30T14:08:44Z</time>
      </trkpt>
      <trkpt lat="44.96911" lon="6.72215">
        <ele>2432.8</ele>
        <time>2013-08-30T14:08:45Z</time>
      </trkpt>
      <trkpt lat="44.96909" lon="6.72217">
        <ele>2432.8</ele>
        <time>2013-08-30T14:08:46Z</time>
      </trkpt>
      <trkpt lat="44.969" lon="6.72221">
        <ele>2432.8</ele>
        <time>2013-08-30T14:08:49Z</time>
      </trkpt>
      <trkpt lat="44.96883" lon="6.72222">
        <ele>2430.4</ele>
        <time>2013-08-30T14:08:53Z</time>
      </trkpt>
      <trkpt lat="44.96855" lon="6.72228">
        <ele>2427</ele>
        <time>2013-08-30T14:08:58Z</time>
      </trkpt>
      <trkpt lat="44.9685" lon="6.7223">
        <ele>2427.5</ele>
        <time>2013-08-30T14:08:59Z</time>
      </trkpt>
      <trkpt lat="44.96818" lon="6.72237">
        <ele>2425.1</ele>
        <time>2013-08-30T14:09:09Z</time>
      </trkpt>
      <trkpt lat="44.96778" lon="6.72243">
        <ele>2422.2</ele>
        <time>2013-08-30T14:09:20Z</time>
      </trkpt>
      <trkpt lat="44.9677" lon="6.72242">
        <ele>2420.7</ele>
        <time>2013-08-30T14:09:22Z</time>
      </trkpt>
      <trkpt lat="44.96761" lon="6.72242">
        <ele>2419.8</ele>
        <time>2013-08-30T14:09:24Z</time>
      </trkpt>
      <trkpt lat="44.96755" lon="6.72243">
        <ele>2417.9</ele>
        <time>2013-08-30T14:09:26Z</time>
      </trkpt>
      <trkpt lat="44.96748" lon="6.72242">
        <ele>2417.4</ele>
        <time>2013-08-30T14:09:28Z</time>
      </trkpt>
      <trkpt lat="44.96735" lon="6.72244">
        <ele>2415</ele>
        <time>2013-08-30T14:09:32Z</time>
      </trkpt>
      <trkpt lat="44.96714" lon="6.72254">
        <ele>2411.6</ele>
        <time>2013-08-30T14:09:39Z</time>
      </trkpt>
      <trkpt lat="44.96702" lon="6.72257">
        <ele>2410.2</ele>
        <time>2013-08-30T14:09:43Z</time>
      </trkpt>
      <trkpt lat="44.96687" lon="6.72269">
        <ele>2405.8</ele>
        <time>2013-08-30T14:09:49Z</time>
      </trkpt>
      <trkpt lat="44.96674" lon="6.72278">
        <ele>2403.9</ele>
        <time>2013-08-30T14:09:58Z</time>
      </trkpt>
      <trkpt lat="44.9667" lon="6.7228">
        <ele>2403</ele>
        <time>2013-08-30T14:09:59Z</time>
      </trkpt>
      <trkpt lat="44.96665" lon="6.72282">
        <ele>2402.5</ele>
        <time>2013-08-30T14:10:00Z</time>
      </trkpt>
      <trkpt lat="44.96661" lon="6.72285">
        <ele>2402</ele>
        <time>2013-08-30T14:10:01Z</time>
      </trkpt>
      <trkpt lat="44.96653" lon="6.72289">
        <ele>2400.6</ele>
        <time>2013-08-30T14:10:03Z</time>
      </trkpt>
      <trkpt lat="44.96649" lon="6.72291">
        <ele>2399.1</ele>
        <time>2013-08-30T14:10:04Z</time>
      </trkpt>
      <trkpt lat="44.96644" lon="6.72292">
        <ele>2398.6</ele>
        <time>2013-08-30T14:10:05Z</time>
      </trkpt>
      <trkpt lat="44.96639" lon="6.72293">
        <ele>2398.2</ele>
        <time>2013-08-30T14:10:06Z</time>
      </trkpt>
      <trkpt lat="44.96634" lon="6.72293">
        <ele>2398.2</ele>
        <time>2013-08-30T14:10:07Z</time>
      </trkpt>
      <trkpt lat="44.96628" lon="6.72293">
        <ele>2397.7</ele>
        <time>2013-08-30T14:10:08Z</time>
      </trkpt>
      <trkpt lat="44.96623" lon="6.72293">
        <ele>2397.2</ele>
        <time>2013-08-30T14:10:09Z</time>
      </trkpt>
      <trkpt lat="44.96598" lon="6.723">
        <ele>2393.3</ele>
        <time>2013-08-30T14:10:15Z</time>
      </trkpt>
      <trkpt lat="44.96584" lon="6.723">
        <ele>2391.9</ele>
        <time>2013-08-30T14:10:18Z</time>
      </trkpt>
      <trkpt lat="44.96572" lon="6.72305">
        <ele>2389</ele>
        <time>2013-08-30T14:10:21Z</time>
      </trkpt>
      <trkpt lat="44.9656" lon="6.72312">
        <ele>2386.6</ele>
        <time>2013-08-30T14:10:24Z</time>
      </trkpt>
      <trkpt lat="44.96548" lon="6.72319">
        <ele>2382.8</ele>
        <time>2013-08-30T14:10:27Z</time>
      </trkpt>
      <trkpt lat="44.9654" lon="6.72325">
        <ele>2379.9</ele>
        <time>2013-08-30T14:10:29Z</time>
      </trkpt>
      <trkpt lat="44.96536" lon="6.72329">
        <ele>2378.9</ele>
        <time>2013-08-30T14:10:30Z</time>
      </trkpt>
      <trkpt lat="44.96532" lon="6.72332">
        <ele>2377.5</ele>
        <time>2013-08-30T14:10:31Z</time>
      </trkpt>
      <trkpt lat="44.96527" lon="6.72334">
        <ele>2376.5</ele>
        <time>2013-08-30T14:10:32Z</time>
      </trkpt>
      <trkpt lat="44.96521" lon="6.72336">
        <ele>2375.6</ele>
        <time>2013-08-30T14:10:33Z</time>
      </trkpt>
      <trkpt lat="44.96511" lon="6.7234">
        <ele>2373.2</ele>
        <time>2013-08-30T14:10:35Z</time>
      </trkpt>
      <trkpt lat="44.96505" lon="6.72341">
        <ele>2371.2</ele>
        <time>2013-08-30T14:10:38Z</time>
      </trkpt>
      <trkpt lat="44.96508" lon="6.72339">
        <ele>2371.7</ele>
        <time>2013-08-30T14:10:54Z</time>
      </trkpt>
      <trkpt lat="44.96508" lon="6.72339">
        <ele>2371.2</ele>
        <time>2013-08-30T14:11:24Z</time>
      </trkpt>
      <trkpt lat="44.96506" lon="6.72338">
        <ele>2371.2</ele>
        <time>2013-08-30T14:11:43Z</time>
      </trkpt>
      <trkpt lat="44.96503" lon="6.72337">
        <ele>2371.2</ele>
        <time>2013-08-30T14:11:44Z</time>
      </trkpt>
      <trkpt lat="44.965" lon="6.72337">
        <ele>2371.2</ele>
        <time>2013-08-30T14:11:45Z</time>
      </trkpt>
      <trkpt lat="44.96476" lon="6.72343">
        <ele>2368.4</ele>
        <time>2013-08-30T14:11:50Z</time>
      </trkpt>
      <trkpt lat="44.96471" lon="6.72346">
        <ele>2367.4</ele>
        <time>2013-08-30T14:11:51Z</time>
      </trkpt>
      <trkpt lat="44.96453" lon="6.72354">
        <ele>2365.9</ele>
        <time>2013-08-30T14:11:54Z</time>
      </trkpt>
      <trkpt lat="44.96444" lon="6.72361">
        <ele>2364.5</ele>
        <time>2013-08-30T14:11:56Z</time>
      </trkpt>
      <trkpt lat="44.96434" lon="6.72367">
        <ele>2363.1</ele>
        <time>2013-08-30T14:11:58Z</time>
      </trkpt>
      <trkpt lat="44.96429" lon="6.7237">
        <ele>2362.6</ele>
        <time>2013-08-30T14:11:59Z</time>
      </trkpt>
      <trkpt lat="44.96422" lon="6.72374">
        <ele>2361.6</ele>
        <time>2013-08-30T14:12:00Z</time>
      </trkpt>
      <trkpt lat="44.96416" lon="6.72376">
        <ele>2360.7</ele>
        <time>2013-08-30T14:12:01Z</time>
      </trkpt>
      <trkpt lat="44.9641" lon="6.72377">
        <ele>2360.2</ele>
        <time>2013-08-30T14:12:02Z</time>
      </trkpt>
      <trkpt lat="44.96405" lon="6.72378">
        <ele>2359.2</ele>
        <time>2013-08-30T14:12:03Z</time>
      </trkpt>
      <trkpt lat="44.96388" lon="6.7238">
        <ele>2355.9</ele>
        <time>2013-08-30T14:12:07Z</time>
      </trkpt>
      <trkpt lat="44.96379" lon="6.72381">
        <ele>2352.5</ele>
        <time>2013-08-30T14:12:09Z</time>
      </trkpt>
      <trkpt lat="44.96366" lon="6.7239">
        <ele>2348.6</ele>
        <time>2013-08-30T14:12:13Z</time>
      </trkpt>
      <trkpt lat="44.96358" lon="6.72397">
        <ele>2347.7</ele>
        <time>2013-08-30T14:12:15Z</time>
      </trkpt>
      <trkpt lat="44.96355" lon="6.72402">
        <ele>2346.2</ele>
        <time>2013-08-30T14:12:16Z</time>
      </trkpt>
      <trkpt lat="44.96352" lon="6.72408">
        <ele>2345.3</ele>
        <time>2013-08-30T14:12:17Z</time>
      </trkpt>
      <trkpt lat="44.9635" lon="6.72412">
        <ele>2344.8</ele>
        <time>2013-08-30T14:12:18Z</time>
      </trkpt>
      <trkpt lat="44.96349" lon="6.72414">
        <ele>2343.8</ele>
        <time>2013-08-30T14:12:19Z</time>
      </trkpt>
      <trkpt lat="44.9635" lon="6.72414">
        <ele>2343.8</ele>
        <time>2013-08-30T14:12:35Z</time>
      </trkpt>
      <trkpt lat="44.96349" lon="6.72416">
        <ele>2343.4</ele>
        <time>2013-08-30T14:13:00Z</time>
      </trkpt>
      <trkpt lat="44.96337" lon="6.72431">
        <ele>2340</ele>
        <time>2013-08-30T14:13:06Z</time>
      </trkpt>
      <trkpt lat="44.96322" lon="6.72448">
        <ele>2336.1</ele>
        <time>2013-08-30T14:13:11Z</time>
      </trkpt>
      <trkpt lat="44.96306" lon="6.72464">
        <ele>2332.8</ele>
        <time>2013-08-30T14:13:17Z</time>
      </trkpt>
      <trkpt lat="44.96302" lon="6.72468">
        <ele>2331.8</ele>
        <time>2013-08-30T14:13:19Z</time>
      </trkpt>
      <trkpt lat="44.96292" lon="6.72478">
        <ele>2328</ele>
        <time>2013-08-30T14:13:24Z</time>
      </trkpt>
      <trkpt lat="44.9628" lon="6.72482">
        <ele>2324.6</ele>
        <time>2013-08-30T14:13:28Z</time>
      </trkpt>
      <trkpt lat="44.96265" lon="6.72484">
        <ele>2321.7</ele>
        <time>2013-08-30T14:13:31Z</time>
      </trkpt>
      <trkpt lat="44.96248" lon="6.72484">
        <ele>2317.4</ele>
        <time>2013-08-30T14:13:34Z</time>
      </trkpt>
      <trkpt lat="44.96236" lon="6.72486">
        <ele>2315</ele>
        <time>2013-08-30T14:13:36Z</time>
      </trkpt>
      <trkpt lat="44.96231" lon="6.72489">
        <ele>2314.5</ele>
        <time>2013-08-30T14:13:37Z</time>
      </trkpt>
      <trkpt lat="44.96221" lon="6.72494">
        <ele>2311.6</ele>
        <time>2013-08-30T14:13:39Z</time>
      </trkpt>
      <trkpt lat="44.96215" lon="6.72496">
        <ele>2311.6</ele>
        <time>2013-08-30T14:13:40Z</time>
      </trkpt>
      <trkpt lat="44.96202" lon="6.72499">
        <ele>2308.7</ele>
        <time>2013-08-30T14:13:42Z</time>
      </trkpt>
      <trkpt lat="44.96187" lon="6.72506">
        <ele>2305.9</ele>
        <time>2013-08-30T14:13:45Z</time>
      </trkpt>
      <trkpt lat="44.96184" lon="6.72507">
        <ele>2305.9</ele>
        <time>2013-08-30T14:13:46Z</time>
      </trkpt>
      <trkpt lat="44.96169" lon="6.72512">
        <ele>2302.5</ele>
        <time>2013-08-30T14:13:50Z</time>
      </trkpt>
      <trkpt lat="44.96154" lon="6.72518">
        <ele>2298.7</ele>
        <time>2013-08-30T14:13:54Z</time>
      </trkpt>
      <trkpt lat="44.96139" lon="6.72523">
        <ele>2296.7</ele>
        <time>2013-08-30T14:13:57Z</time>
      </trkpt>
      <trkpt lat="44.96135" lon="6.72524">
        <ele>2295.8</ele>
        <time>2013-08-30T14:13:58Z</time>
      </trkpt>
      <trkpt lat="44.96131" lon="6.72525">
        <ele>2295.8</ele>
        <time>2013-08-30T14:13:59Z</time>
      </trkpt>
      <trkpt lat="44.96121" lon="6.72529">
        <ele>2293.4</ele>
        <time>2013-08-30T14:14:02Z</time>
      </trkpt>
      <trkpt lat="44.96118" lon="6.72532">
        <ele>2292.4</ele>
        <time>2013-08-30T14:14:03Z</time>
      </trkpt>
      <trkpt lat="44.96115" lon="6.72537">
        <ele>2291.4</ele>
        <time>2013-08-30T14:14:04Z</time>
      </trkpt>
      <trkpt lat="44.96109" lon="6.7255">
        <ele>2290</ele>
        <time>2013-08-30T14:14:06Z</time>
      </trkpt>
      <trkpt lat="44.96102" lon="6.72563">
        <ele>2288.6</ele>
        <time>2013-08-30T14:14:08Z</time>
      </trkpt>
      <trkpt lat="44.96099" lon="6.72568">
        <ele>2288.6</ele>
        <time>2013-08-30T14:14:09Z</time>
      </trkpt>
      <trkpt lat="44.96096" lon="6.72573">
        <ele>2289</ele>
        <time>2013-08-30T14:14:10Z</time>
      </trkpt>
      <trkpt lat="44.96094" lon="6.72576">
        <ele>2289</ele>
        <time>2013-08-30T14:14:11Z</time>
      </trkpt>
      <trkpt lat="44.96091" lon="6.72578">
        <ele>2289</ele>
        <time>2013-08-30T14:14:12Z</time>
      </trkpt>
      <trkpt lat="44.96089" lon="6.72581">
        <ele>2289</ele>
        <time>2013-08-30T14:14:13Z</time>
      </trkpt>
      <trkpt lat="44.96086" lon="6.72583">
        <ele>2289.5</ele>
        <time>2013-08-30T14:14:14Z</time>
      </trkpt>
      <trkpt lat="44.96083" lon="6.72586">
        <ele>2288.6</ele>
        <time>2013-08-30T14:14:15Z</time>
      </trkpt>
      <trkpt lat="44.96075" lon="6.72595">
        <ele>2287.6</ele>
        <time>2013-08-30T14:14:17Z</time>
      </trkpt>
      <trkpt lat="44.9606" lon="6.72612">
        <ele>2285.7</ele>
        <time>2013-08-30T14:14:25Z</time>
      </trkpt>
      <trkpt lat="44.96063" lon="6.72605">
        <ele>2285.2</ele>
        <time>2013-08-30T14:14:57Z</time>
      </trkpt>
      <trkpt lat="44.96061" lon="6.72605">
        <ele>2284.2</ele>
        <time>2013-08-30T14:15:30Z</time>
      </trkpt>
      <trkpt lat="44.96063" lon="6.72607">
        <ele>2284.7</ele>
        <time>2013-08-30T14:16:02Z</time>
      </trkpt>
      <trkpt lat="44.96063" lon="6.72607">
        <ele>2283.8</ele>
        <time>2013-08-30T14:16:33Z</time>
      </trkpt>
      <trkpt lat="44.96064" lon="6.72606">
        <ele>2284.2</ele>
        <time>2013-08-30T14:17:03Z</time>
      </trkpt>
      <trkpt lat="44.96058" lon="6.72617">
        <ele>2282.8</ele>
        <time>2013-08-30T14:17:22Z</time>
      </trkpt>
      <trkpt lat="44.96056" lon="6.72629">
        <ele>2281.8</ele>
        <time>2013-08-30T14:17:24Z</time>
      </trkpt>
      <trkpt lat="44.96055" lon="6.72636">
        <ele>2280.9</ele>
        <time>2013-08-30T14:17:25Z</time>
      </trkpt>
      <trkpt lat="44.96053" lon="6.72651">
        <ele>2280.4</ele>
        <time>2013-08-30T14:17:27Z</time>
      </trkpt>
      <trkpt lat="44.96052" lon="6.72658">
        <ele>2280.4</ele>
        <time>2013-08-30T14:17:28Z</time>
      </trkpt>
      <trkpt lat="44.96046" lon="6.72694">
        <ele>2279.9</ele>
        <time>2013-08-30T14:17:34Z</time>
      </trkpt>
      <trkpt lat="44.96044" lon="6.727">
        <ele>2279.4</ele>
        <time>2013-08-30T14:17:35Z</time>
      </trkpt>
      <trkpt lat="44.9604" lon="6.7271">
        <ele>2278.9</ele>
        <time>2013-08-30T14:17:37Z</time>
      </trkpt>
      <trkpt lat="44.96018" lon="6.72749">
        <ele>2276.5</ele>
        <time>2013-08-30T14:17:47Z</time>
      </trkpt>
      <trkpt lat="44.96009" lon="6.72759">
        <ele>2275.6</ele>
        <time>2013-08-30T14:17:50Z</time>
      </trkpt>
      <trkpt lat="44.96002" lon="6.72766">
        <ele>2274.6</ele>
        <time>2013-08-30T14:17:52Z</time>
      </trkpt>
      <trkpt lat="44.96" lon="6.72771">
        <ele>2274.6</ele>
        <time>2013-08-30T14:17:53Z</time>
      </trkpt>
      <trkpt lat="44.95998" lon="6.72776">
        <ele>2274.1</ele>
        <time>2013-08-30T14:17:54Z</time>
      </trkpt>
      <trkpt lat="44.95996" lon="6.7278">
        <ele>2274.1</ele>
        <time>2013-08-30T14:17:55Z</time>
      </trkpt>
      <trkpt lat="44.95994" lon="6.72784">
        <ele>2274.6</ele>
        <time>2013-08-30T14:17:56Z</time>
      </trkpt>
      <trkpt lat="44.95992" lon="6.72787">
        <ele>2274.1</ele>
        <time>2013-08-30T14:17:57Z</time>
      </trkpt>
      <trkpt lat="44.9599" lon="6.7279">
        <ele>2274.1</ele>
        <time>2013-08-30T14:17:58Z</time>
      </trkpt>
      <trkpt lat="44.95987" lon="6.72793">
        <ele>2273.7</ele>
        <time>2013-08-30T14:17:59Z</time>
      </trkpt>
      <trkpt lat="44.95983" lon="6.72796">
        <ele>2273.7</ele>
        <time>2013-08-30T14:18:00Z</time>
      </trkpt>
      <trkpt lat="44.95966" lon="6.72814">
        <ele>2269.8</ele>
        <time>2013-08-30T14:18:05Z</time>
      </trkpt>
      <trkpt lat="44.95964" lon="6.72817">
        <ele>2269.8</ele>
        <time>2013-08-30T14:18:06Z</time>
      </trkpt>
      <trkpt lat="44.95959" lon="6.72823">
        <ele>2267.9</ele>
        <time>2013-08-30T14:18:09Z</time>
      </trkpt>
      <trkpt lat="44.95954" lon="6.7283">
        <ele>2266.9</ele>
        <time>2013-08-30T14:18:11Z</time>
      </trkpt>
      <trkpt lat="44.95939" lon="6.72853">
        <ele>2264</ele>
        <time>2013-08-30T14:18:16Z</time>
      </trkpt>
      <trkpt lat="44.95935" lon="6.72857">
        <ele>2263.6</ele>
        <time>2013-08-30T14:18:17Z</time>
      </trkpt>
      <trkpt lat="44.95932" lon="6.7286">
        <ele>2263.1</ele>
        <time>2013-08-30T14:18:18Z</time>
      </trkpt>
      <trkpt lat="44.95916" lon="6.72881">
        <ele>2261.6</ele>
        <time>2013-08-30T14:18:23Z</time>
      </trkpt>
      <trkpt lat="44.95913" lon="6.72885">
        <ele>2260.7</ele>
        <time>2013-08-30T14:18:24Z</time>
      </trkpt>
      <trkpt lat="44.9591" lon="6.72887">
        <ele>2260.7</ele>
        <time>2013-08-30T14:18:25Z</time>
      </trkpt>
      <trkpt lat="44.95893" lon="6.72894">
        <ele>2255.9</ele>
        <time>2013-08-30T14:18:30Z</time>
      </trkpt>
      <trkpt lat="44.95888" lon="6.72894">
        <ele>2255.9</ele>
        <time>2013-08-30T14:18:31Z</time>
      </trkpt>
      <trkpt lat="44.95883" lon="6.72895">
        <ele>2254.4</ele>
        <time>2013-08-30T14:18:32Z</time>
      </trkpt>
      <trkpt lat="44.95878" lon="6.72898">
        <ele>2254</ele>
        <time>2013-08-30T14:18:33Z</time>
      </trkpt>
      <trkpt lat="44.95872" lon="6.72901">
        <ele>2253</ele>
        <time>2013-08-30T14:18:35Z</time>
      </trkpt>
      <trkpt lat="44.95869" lon="6.729">
        <ele>2252.5</ele>
        <time>2013-08-30T14:18:36Z</time>
      </trkpt>
      <trkpt lat="44.95857" lon="6.72898">
        <ele>2249.6</ele>
        <time>2013-08-30T14:18:39Z</time>
      </trkpt>
      <trkpt lat="44.95853" lon="6.72902">
        <ele>2248.7</ele>
        <time>2013-08-30T14:18:40Z</time>
      </trkpt>
      <trkpt lat="44.9585" lon="6.72907">
        <ele>2249.1</ele>
        <time>2013-08-30T14:18:41Z</time>
      </trkpt>
      <trkpt lat="44.95847" lon="6.72912">
        <ele>2248.2</ele>
        <time>2013-08-30T14:18:42Z</time>
      </trkpt>
      <trkpt lat="44.95844" lon="6.72916">
        <ele>2247.7</ele>
        <time>2013-08-30T14:18:43Z</time>
      </trkpt>
      <trkpt lat="44.95841" lon="6.7292">
        <ele>2246.7</ele>
        <time>2013-08-30T14:18:44Z</time>
      </trkpt>
      <trkpt lat="44.95837" lon="6.72923">
        <ele>2247.2</ele>
        <time>2013-08-30T14:18:45Z</time>
      </trkpt>
      <trkpt lat="44.95832" lon="6.72926">
        <ele>2245.8</ele>
        <time>2013-08-30T14:18:46Z</time>
      </trkpt>
      <trkpt lat="44.95828" lon="6.72928">
        <ele>2244.3</ele>
        <time>2013-08-30T14:18:47Z</time>
      </trkpt>
      <trkpt lat="44.95822" lon="6.7293">
        <ele>2242.9</ele>
        <time>2013-08-30T14:18:48Z</time>
      </trkpt>
      <trkpt lat="44.95817" lon="6.72933">
        <ele>2241.9</ele>
        <time>2013-08-30T14:18:49Z</time>
      </trkpt>
      <trkpt lat="44.95811" lon="6.72937">
        <ele>2239.5</ele>
        <time>2013-08-30T14:18:50Z</time>
      </trkpt>
      <trkpt lat="44.95805" lon="6.72942">
        <ele>2238.6</ele>
        <time>2013-08-30T14:18:51Z</time>
      </trkpt>
      <trkpt lat="44.95801" lon="6.72947">
        <ele>2237.1</ele>
        <time>2013-08-30T14:18:52Z</time>
      </trkpt>
      <trkpt lat="44.95798" lon="6.72952">
        <ele>2236.6</ele>
        <time>2013-08-30T14:18:53Z</time>
      </trkpt>
      <trkpt lat="44.95795" lon="6.72957">
        <ele>2236.2</ele>
        <time>2013-08-30T14:18:54Z</time>
      </trkpt>
      <trkpt lat="44.9579" lon="6.72967">
        <ele>2234.7</ele>
        <time>2013-08-30T14:18:56Z</time>
      </trkpt>
      <trkpt lat="44.95781" lon="6.72982">
        <ele>2230.9</ele>
        <time>2013-08-30T14:18:59Z</time>
      </trkpt>
      <trkpt lat="44.95779" lon="6.72987">
        <ele>2230.4</ele>
        <time>2013-08-30T14:19:00Z</time>
      </trkpt>
      <trkpt lat="44.95775" lon="6.73004">
        <ele>2228</ele>
        <time>2013-08-30T14:19:03Z</time>
      </trkpt>
      <trkpt lat="44.95776" lon="6.73009">
        <ele>2226.6</ele>
        <time>2013-08-30T14:19:04Z</time>
      </trkpt>
      <trkpt lat="44.95777" lon="6.73012">
        <ele>2225.6</ele>
        <time>2013-08-30T14:19:05Z</time>
      </trkpt>
      <trkpt lat="44.95778" lon="6.73013">
        <ele>2225.6</ele>
        <time>2013-08-30T14:19:06Z</time>
      </trkpt>
      <trkpt lat="44.95781" lon="6.73013">
        <ele>2225.6</ele>
        <time>2013-08-30T14:19:27Z</time>
      </trkpt>
      <trkpt lat="44.9578" lon="6.73014">
        <ele>2226.1</ele>
        <time>2013-08-30T14:19:35Z</time>
      </trkpt>
      <trkpt lat="44.9578" lon="6.73024">
        <ele>2222.7</ele>
        <time>2013-08-30T14:19:52Z</time>
      </trkpt>
      <trkpt lat="44.9578" lon="6.73028">
        <ele>2221.3</ele>
        <time>2013-08-30T14:19:57Z</time>
      </trkpt>
      <trkpt lat="44.95781" lon="6.73035">
        <ele>2219.3</ele>
        <time>2013-08-30T14:20:05Z</time>
      </trkpt>
      <trkpt lat="44.95784" lon="6.73048">
        <ele>2216.5</ele>
        <time>2013-08-30T14:20:17Z</time>
      </trkpt>
      <trkpt lat="44.95786" lon="6.73059">
        <ele>2214.1</ele>
        <time>2013-08-30T14:20:31Z</time>
      </trkpt>
      <trkpt lat="44.9579" lon="6.7307">
        <ele>2210.2</ele>
        <time>2013-08-30T14:20:44Z</time>
      </trkpt>
      <trkpt lat="44.95794" lon="6.73078">
        <ele>2208.3</ele>
        <time>2013-08-30T14:21:03Z</time>
      </trkpt>
      <trkpt lat="44.95783" lon="6.73084">
        <ele>2205.9</ele>
        <time>2013-08-30T14:21:18Z</time>
      </trkpt>
      <trkpt lat="44.95783" lon="6.73085">
        <ele>2204.9</ele>
        <time>2013-08-30T14:21:21Z</time>
      </trkpt>
      <trkpt lat="44.95782" lon="6.73084">
        <ele>2204.4</ele>
        <time>2013-08-30T14:21:26Z</time>
      </trkpt>
      <trkpt lat="44.95781" lon="6.73085">
        <ele>2204.9</ele>
        <time>2013-08-30T14:21:27Z</time>
      </trkpt>
      <trkpt lat="44.9578" lon="6.73086">
        <ele>2204.4</ele>
        <time>2013-08-30T14:21:28Z</time>
      </trkpt>
      <trkpt lat="44.95779" lon="6.73088">
        <ele>2204.4</ele>
        <time>2013-08-30T14:21:29Z</time>
      </trkpt>
      <trkpt lat="44.95777" lon="6.7309">
        <ele>2203</ele>
        <time>2013-08-30T14:21:30Z</time>
      </trkpt>
      <trkpt lat="44.95775" lon="6.73092">
        <ele>2203</ele>
        <time>2013-08-30T14:21:31Z</time>
      </trkpt>
      <trkpt lat="44.95774" lon="6.73093">
        <ele>2202</ele>
        <time>2013-08-30T14:21:32Z</time>
      </trkpt>
      <trkpt lat="44.95772" lon="6.73095">
        <ele>2201.1</ele>
        <time>2013-08-30T14:21:33Z</time>
      </trkpt>
      <trkpt lat="44.95769" lon="6.73097">
        <ele>2201.1</ele>
        <time>2013-08-30T14:21:34Z</time>
      </trkpt>
      <trkpt lat="44.95762" lon="6.731">
        <ele>2197.7</ele>
        <time>2013-08-30T14:21:37Z</time>
      </trkpt>
      <trkpt lat="44.95757" lon="6.73105">
        <ele>2196.3</ele>
        <time>2013-08-30T14:21:39Z</time>
      </trkpt>
      <trkpt lat="44.95753" lon="6.73109">
        <ele>2194.8</ele>
        <time>2013-08-30T14:21:40Z</time>
      </trkpt>
      <trkpt lat="44.9575" lon="6.73115">
        <ele>2194.4</ele>
        <time>2013-08-30T14:21:41Z</time>
      </trkpt>
      <trkpt lat="44.95747" lon="6.73121">
        <ele>2192.9</ele>
        <time>2013-08-30T14:21:42Z</time>
      </trkpt>
      <trkpt lat="44.95745" lon="6.73128">
        <ele>2191.5</ele>
        <time>2013-08-30T14:21:43Z</time>
      </trkpt>
      <trkpt lat="44.95743" lon="6.73134">
        <ele>2190</ele>
        <time>2013-08-30T14:21:44Z</time>
      </trkpt>
      <trkpt lat="44.95737" lon="6.73146">
        <ele>2186.7</ele>
        <time>2013-08-30T14:21:46Z</time>
      </trkpt>
      <trkpt lat="44.95736" lon="6.73152">
        <ele>2185.7</ele>
        <time>2013-08-30T14:21:47Z</time>
      </trkpt>
      <trkpt lat="44.95735" lon="6.73158">
        <ele>2184.3</ele>
        <time>2013-08-30T14:21:48Z</time>
      </trkpt>
      <trkpt lat="44.95734" lon="6.73164">
        <ele>2182.8</ele>
        <time>2013-08-30T14:21:49Z</time>
      </trkpt>
      <trkpt lat="44.95731" lon="6.7317">
        <ele>2182.8</ele>
        <time>2013-08-30T14:21:50Z</time>
      </trkpt>
      <trkpt lat="44.95729" lon="6.73176">
        <ele>2181.9</ele>
        <time>2013-08-30T14:21:51Z</time>
      </trkpt>
      <trkpt lat="44.95727" lon="6.73184">
        <ele>2180.9</ele>
        <time>2013-08-30T14:21:52Z</time>
      </trkpt>
      <trkpt lat="44.95724" lon="6.73192">
        <ele>2179.5</ele>
        <time>2013-08-30T14:21:53Z</time>
      </trkpt>
      <trkpt lat="44.95721" lon="6.73198">
        <ele>2178.5</ele>
        <time>2013-08-30T14:21:54Z</time>
      </trkpt>
      <trkpt lat="44.95716" lon="6.73204">
        <ele>2178</ele>
        <time>2013-08-30T14:21:55Z</time>
      </trkpt>
      <trkpt lat="44.95711" lon="6.73211">
        <ele>2177.5</ele>
        <time>2013-08-30T14:21:56Z</time>
      </trkpt>
      <trkpt lat="44.95706" lon="6.73217">
        <ele>2176.6</ele>
        <time>2013-08-30T14:21:57Z</time>
      </trkpt>
      <trkpt lat="44.95702" lon="6.73223">
        <ele>2175.6</ele>
        <time>2013-08-30T14:21:58Z</time>
      </trkpt>
      <trkpt lat="44.95698" lon="6.7323">
        <ele>2175.6</ele>
        <time>2013-08-30T14:21:59Z</time>
      </trkpt>
      <trkpt lat="44.95686" lon="6.7325">
        <ele>2173.2</ele>
        <time>2013-08-30T14:22:02Z</time>
      </trkpt>
      <trkpt lat="44.95682" lon="6.73258">
        <ele>2172.7</ele>
        <time>2013-08-30T14:22:03Z</time>
      </trkpt>
      <trkpt lat="44.95678" lon="6.73266">
        <ele>2170.8</ele>
        <time>2013-08-30T14:22:04Z</time>
      </trkpt>
      <trkpt lat="44.95674" lon="6.73274">
        <ele>2170.8</ele>
        <time>2013-08-30T14:22:05Z</time>
      </trkpt>
      <trkpt lat="44.95671" lon="6.73282">
        <ele>2170.3</ele>
        <time>2013-08-30T14:22:06Z</time>
      </trkpt>
      <trkpt lat="44.95668" lon="6.73291">
        <ele>2169.8</ele>
        <time>2013-08-30T14:22:07Z</time>
      </trkpt>
      <trkpt lat="44.95667" lon="6.73299">
        <ele>2168.9</ele>
        <time>2013-08-30T14:22:08Z</time>
      </trkpt>
      <trkpt lat="44.95666" lon="6.73307">
        <ele>2168.9</ele>
        <time>2013-08-30T14:22:09Z</time>
      </trkpt>
      <trkpt lat="44.95665" lon="6.73313">
        <ele>2168.9</ele>
        <time>2013-08-30T14:22:10Z</time>
      </trkpt>
      <trkpt lat="44.95663" lon="6.73319">
        <ele>2168.4</ele>
        <time>2013-08-30T14:22:11Z</time>
      </trkpt>
      <trkpt lat="44.95659" lon="6.73324">
        <ele>2167.4</ele>
        <time>2013-08-30T14:22:12Z</time>
      </trkpt>
      <trkpt lat="44.95655" lon="6.73327">
        <ele>2166.5</ele>
        <time>2013-08-30T14:22:13Z</time>
      </trkpt>
      <trkpt lat="44.95652" lon="6.73331">
        <ele>2165.5</ele>
        <time>2013-08-30T14:22:14Z</time>
      </trkpt>
      <trkpt lat="44.95651" lon="6.73336">
        <ele>2164.6</ele>
        <time>2013-08-30T14:22:15Z</time>
      </trkpt>
      <trkpt lat="44.95651" lon="6.73341">
        <ele>2163.1</ele>
        <time>2013-08-30T14:22:16Z</time>
      </trkpt>
      <trkpt lat="44.95651" lon="6.73347">
        <ele>2163.1</ele>
        <time>2013-08-30T14:22:17Z</time>
      </trkpt>
      <trkpt lat="44.9565" lon="6.73354">
        <ele>2161.7</ele>
        <time>2013-08-30T14:22:18Z</time>
      </trkpt>
      <trkpt lat="44.95647" lon="6.7336">
        <ele>2160.7</ele>
        <time>2013-08-30T14:22:19Z</time>
      </trkpt>
      <trkpt lat="44.95644" lon="6.73367">
        <ele>2160.2</ele>
        <time>2013-08-30T14:22:20Z</time>
      </trkpt>
      <trkpt lat="44.95642" lon="6.73375">
        <ele>2158.8</ele>
        <time>2013-08-30T14:22:21Z</time>
      </trkpt>
      <trkpt lat="44.95641" lon="6.73382">
        <ele>2157.8</ele>
        <time>2013-08-30T14:22:22Z</time>
      </trkpt>
      <trkpt lat="44.9564" lon="6.73388">
        <ele>2157.8</ele>
        <time>2013-08-30T14:22:23Z</time>
      </trkpt>
      <trkpt lat="44.9564" lon="6.73393">
        <ele>2156.9</ele>
        <time>2013-08-30T14:22:24Z</time>
      </trkpt>
      <trkpt lat="44.9564" lon="6.73397">
        <ele>2155.9</ele>
        <time>2013-08-30T14:22:25Z</time>
      </trkpt>
      <trkpt lat="44.95641" lon="6.734">
        <ele>2155.9</ele>
        <time>2013-08-30T14:22:26Z</time>
      </trkpt>
      <trkpt lat="44.95642" lon="6.73402">
        <ele>2155.4</ele>
        <time>2013-08-30T14:22:27Z</time>
      </trkpt>
      <trkpt lat="44.95641" lon="6.73401">
        <ele>2154.9</ele>
        <time>2013-08-30T14:22:41Z</time>
      </trkpt>
      <trkpt lat="44.95641" lon="6.73402">
        <ele>2154.9</ele>
        <time>2013-08-30T14:22:44Z</time>
      </trkpt>
      <trkpt lat="44.95641" lon="6.73405">
        <ele>2155.4</ele>
        <time>2013-08-30T14:22:45Z</time>
      </trkpt>
      <trkpt lat="44.95633" lon="6.73431">
        <ele>2154</ele>
        <time>2013-08-30T14:22:52Z</time>
      </trkpt>
      <trkpt lat="44.95603" lon="6.73464">
        <ele>2150.1</ele>
        <time>2013-08-30T14:23:00Z</time>
      </trkpt>
      <trkpt lat="44.95595" lon="6.73475">
        <ele>2146.8</ele>
        <time>2013-08-30T14:23:08Z</time>
      </trkpt>
      <trkpt lat="44.95595" lon="6.73475">
        <ele>2146.8</ele>
        <time>2013-08-30T14:23:09Z</time>
      </trkpt>
      <trkpt lat="44.95595" lon="6.73482">
        <ele>2144.8</ele>
        <time>2013-08-30T14:23:24Z</time>
      </trkpt>
      <trkpt lat="44.95594" lon="6.73482">
        <ele>2144.8</ele>
        <time>2013-08-30T14:23:29Z</time>
      </trkpt>
      <trkpt lat="44.95591" lon="6.73498">
        <ele>2142</ele>
        <time>2013-08-30T14:23:36Z</time>
      </trkpt>
      <trkpt lat="44.9559" lon="6.73505">
        <ele>2139.6</ele>
        <time>2013-08-30T14:23:40Z</time>
      </trkpt>
      <trkpt lat="44.95583" lon="6.73509">
        <ele>2138.1</ele>
        <time>2013-08-30T14:23:44Z</time>
      </trkpt>
      <trkpt lat="44.95581" lon="6.73509">
        <ele>2137.2</ele>
        <time>2013-08-30T14:23:45Z</time>
      </trkpt>
      <trkpt lat="44.95579" lon="6.73508">
        <ele>2136.2</ele>
        <time>2013-08-30T14:23:46Z</time>
      </trkpt>
      <trkpt lat="44.95577" lon="6.73506">
        <ele>2136.2</ele>
        <time>2013-08-30T14:23:47Z</time>
      </trkpt>
      <trkpt lat="44.95575" lon="6.73503">
        <ele>2135.2</ele>
        <time>2013-08-30T14:23:48Z</time>
      </trkpt>
      <trkpt lat="44.95573" lon="6.73502">
        <ele>2134.7</ele>
        <time>2013-08-30T14:23:49Z</time>
      </trkpt>
      <trkpt lat="44.95571" lon="6.73503">
        <ele>2133.8</ele>
        <time>2013-08-30T14:23:56Z</time>
      </trkpt>
      <trkpt lat="44.95569" lon="6.73504">
        <ele>2133.8</ele>
        <time>2013-08-30T14:23:57Z</time>
      </trkpt>
      <trkpt lat="44.95568" lon="6.73505">
        <ele>2132.8</ele>
        <time>2013-08-30T14:23:58Z</time>
      </trkpt>
      <trkpt lat="44.95566" lon="6.73506">
        <ele>2132.8</ele>
        <time>2013-08-30T14:23:59Z</time>
      </trkpt>
      <trkpt lat="44.95563" lon="6.73507">
        <ele>2131.9</ele>
        <time>2013-08-30T14:24:00Z</time>
      </trkpt>
      <trkpt lat="44.95561" lon="6.73508">
        <ele>2130.9</ele>
        <time>2013-08-30T14:24:01Z</time>
      </trkpt>
      <trkpt lat="44.95558" lon="6.73507">
        <ele>2130.4</ele>
        <time>2013-08-30T14:24:02Z</time>
      </trkpt>
      <trkpt lat="44.95555" lon="6.73506">
        <ele>2129.5</ele>
        <time>2013-08-30T14:24:03Z</time>
      </trkpt>
      <trkpt lat="44.95552" lon="6.73505">
        <ele>2129.5</ele>
        <time>2013-08-30T14:24:04Z</time>
      </trkpt>
      <trkpt lat="44.95539" lon="6.73503">
        <ele>2126.1</ele>
        <time>2013-08-30T14:24:08Z</time>
      </trkpt>
      <trkpt lat="44.95534" lon="6.73505">
        <ele>2125.1</ele>
        <time>2013-08-30T14:24:10Z</time>
      </trkpt>
      <trkpt lat="44.95532" lon="6.73507">
        <ele>2123.2</ele>
        <time>2013-08-30T14:24:19Z</time>
      </trkpt>
      <trkpt lat="44.95528" lon="6.73508">
        <ele>2122.7</ele>
        <time>2013-08-30T14:24:21Z</time>
      </trkpt>
      <trkpt lat="44.95527" lon="6.73509">
        <ele>2122.3</ele>
        <time>2013-08-30T14:24:22Z</time>
      </trkpt>
      <trkpt lat="44.95525" lon="6.73511">
        <ele>2122.3</ele>
        <time>2013-08-30T14:24:23Z</time>
      </trkpt>
      <trkpt lat="44.95523" lon="6.73512">
        <ele>2121.3</ele>
        <time>2013-08-30T14:24:24Z</time>
      </trkpt>
      <trkpt lat="44.95521" lon="6.73513">
        <ele>2120.8</ele>
        <time>2013-08-30T14:24:25Z</time>
      </trkpt>
      <trkpt lat="44.95512" lon="6.73516">
        <ele>2117.4</ele>
        <time>2013-08-30T14:24:29Z</time>
      </trkpt>
      <trkpt lat="44.95501" lon="6.73523">
        <ele>2113.6</ele>
        <time>2013-08-30T14:24:33Z</time>
      </trkpt>
      <trkpt lat="44.9549" lon="6.73529">
        <ele>2109.8</ele>
        <time>2013-08-30T14:24:37Z</time>
      </trkpt>
      <trkpt lat="44.95485" lon="6.73531">
        <ele>2107.4</ele>
        <time>2013-08-30T14:24:42Z</time>
      </trkpt>
      <trkpt lat="44.95484" lon="6.73535">
        <ele>2107.8</ele>
        <time>2013-08-30T14:25:11Z</time>
      </trkpt>
      <trkpt lat="44.95484" lon="6.73533">
        <ele>2107.4</ele>
        <time>2013-08-30T14:25:14Z</time>
      </trkpt>
      <trkpt lat="44.95471" lon="6.73522">
        <ele>2104</ele>
        <time>2013-08-30T14:25:21Z</time>
      </trkpt>
      <trkpt lat="44.95466" lon="6.73518">
        <ele>2102.5</ele>
        <time>2013-08-30T14:25:24Z</time>
      </trkpt>
      <trkpt lat="44.95457" lon="6.73518">
        <ele>2100.1</ele>
        <time>2013-08-30T14:25:28Z</time>
      </trkpt>
      <trkpt lat="44.95454" lon="6.73517">
        <ele>2099.2</ele>
        <time>2013-08-30T14:25:29Z</time>
      </trkpt>
      <trkpt lat="44.95452" lon="6.73516">
        <ele>2098.2</ele>
        <time>2013-08-30T14:25:30Z</time>
      </trkpt>
      <trkpt lat="44.95449" lon="6.73515">
        <ele>2097.3</ele>
        <time>2013-08-30T14:25:31Z</time>
      </trkpt>
      <trkpt lat="44.95447" lon="6.73514">
        <ele>2097.3</ele>
        <time>2013-08-30T14:25:32Z</time>
      </trkpt>
      <trkpt lat="44.95444" lon="6.73513">
        <ele>2096.3</ele>
        <time>2013-08-30T14:25:33Z</time>
      </trkpt>
      <trkpt lat="44.95436" lon="6.7351">
        <ele>2094.9</ele>
        <time>2013-08-30T14:25:36Z</time>
      </trkpt>
      <trkpt lat="44.95425" lon="6.73506">
        <ele>2090.5</ele>
        <time>2013-08-30T14:25:40Z</time>
      </trkpt>
      <trkpt lat="44.95423" lon="6.73503">
        <ele>2090.5</ele>
        <time>2013-08-30T14:25:41Z</time>
      </trkpt>
      <trkpt lat="44.95419" lon="6.73496">
        <ele>2089.1</ele>
        <time>2013-08-30T14:25:43Z</time>
      </trkpt>
      <trkpt lat="44.95413" lon="6.73492">
        <ele>2088.1</ele>
        <time>2013-08-30T14:25:45Z</time>
      </trkpt>
      <trkpt lat="44.9541" lon="6.73492">
        <ele>2087.6</ele>
        <time>2013-08-30T14:25:46Z</time>
      </trkpt>
      <trkpt lat="44.95407" lon="6.73493">
        <ele>2087.6</ele>
        <time>2013-08-30T14:25:47Z</time>
      </trkpt>
      <trkpt lat="44.95404" lon="6.73496">
        <ele>2087.2</ele>
        <time>2013-08-30T14:25:48Z</time>
      </trkpt>
      <trkpt lat="44.95401" lon="6.73498">
        <ele>2086.7</ele>
        <time>2013-08-30T14:25:49Z</time>
      </trkpt>
      <trkpt lat="44.95398" lon="6.73501">
        <ele>2087.2</ele>
        <time>2013-08-30T14:25:50Z</time>
      </trkpt>
      <trkpt lat="44.95373" lon="6.73514">
        <ele>2088.1</ele>
        <time>2013-08-30T14:26:02Z</time>
      </trkpt>
      <trkpt lat="44.95368" lon="6.73516">
        <ele>2087.6</ele>
        <time>2013-08-30T14:26:13Z</time>
      </trkpt>
      <trkpt lat="44.95366" lon="6.73516">
        <ele>2087.2</ele>
        <time>2013-08-30T14:26:52Z</time>
      </trkpt>
      <trkpt lat="44.95364" lon="6.73518">
        <ele>2087.2</ele>
        <time>2013-08-30T14:27:26Z</time>
      </trkpt>
      <trkpt lat="44.95365" lon="6.73523">
        <ele>2087.6</ele>
        <time>2013-08-30T14:27:39Z</time>
      </trkpt>
      <trkpt lat="44.95353" lon="6.73528">
        <ele>2086.2</ele>
        <time>2013-08-30T14:27:49Z</time>
      </trkpt>
      <trkpt lat="44.95349" lon="6.73529">
        <ele>2086.2</ele>
        <time>2013-08-30T14:27:50Z</time>
      </trkpt>
      <trkpt lat="44.95332" lon="6.73538">
        <ele>2084.3</ele>
        <time>2013-08-30T14:27:53Z</time>
      </trkpt>
      <trkpt lat="44.95314" lon="6.73549">
        <ele>2081.4</ele>
        <time>2013-08-30T14:27:56Z</time>
      </trkpt>
      <trkpt lat="44.95309" lon="6.73552">
        <ele>2080.9</ele>
        <time>2013-08-30T14:27:57Z</time>
      </trkpt>
      <trkpt lat="44.95303" lon="6.73554">
        <ele>2080</ele>
        <time>2013-08-30T14:27:58Z</time>
      </trkpt>
      <trkpt lat="44.9529" lon="6.73557">
        <ele>2078.5</ele>
        <time>2013-08-30T14:28:00Z</time>
      </trkpt>
      <trkpt lat="44.95275" lon="6.7356">
        <ele>2077.1</ele>
        <time>2013-08-30T14:28:02Z</time>
      </trkpt>
      <trkpt lat="44.95267" lon="6.73563">
        <ele>2076.1</ele>
        <time>2013-08-30T14:28:03Z</time>
      </trkpt>
      <trkpt lat="44.9526" lon="6.73569">
        <ele>2075.1</ele>
        <time>2013-08-30T14:28:04Z</time>
      </trkpt>
      <trkpt lat="44.95253" lon="6.73574">
        <ele>2075.1</ele>
        <time>2013-08-30T14:28:05Z</time>
      </trkpt>
      <trkpt lat="44.95246" lon="6.73578">
        <ele>2074.2</ele>
        <time>2013-08-30T14:28:06Z</time>
      </trkpt>
      <trkpt lat="44.95217" lon="6.73589">
        <ele>2072.7</ele>
        <time>2013-08-30T14:28:10Z</time>
      </trkpt>
      <trkpt lat="44.95211" lon="6.7359">
        <ele>2072.3</ele>
        <time>2013-08-30T14:28:11Z</time>
      </trkpt>
      <trkpt lat="44.95205" lon="6.73589">
        <ele>2072.7</ele>
        <time>2013-08-30T14:28:12Z</time>
      </trkpt>
      <trkpt lat="44.952" lon="6.73586">
        <ele>2072.7</ele>
        <time>2013-08-30T14:28:13Z</time>
      </trkpt>
      <trkpt lat="44.95195" lon="6.73582">
        <ele>2070.8</ele>
        <time>2013-08-30T14:28:14Z</time>
      </trkpt>
      <trkpt lat="44.95188" lon="6.73579">
        <ele>2070.3</ele>
        <time>2013-08-30T14:28:15Z</time>
      </trkpt>
      <trkpt lat="44.95181" lon="6.73577">
        <ele>2068.9</ele>
        <time>2013-08-30T14:28:16Z</time>
      </trkpt>
      <trkpt lat="44.95174" lon="6.73577">
        <ele>2068.9</ele>
        <time>2013-08-30T14:28:17Z</time>
      </trkpt>
      <trkpt lat="44.95162" lon="6.73577">
        <ele>2069.9</ele>
        <time>2013-08-30T14:28:19Z</time>
      </trkpt>
      <trkpt lat="44.95146" lon="6.73575">
        <ele>2067.9</ele>
        <time>2013-08-30T14:28:22Z</time>
      </trkpt>
      <trkpt lat="44.95141" lon="6.73576">
        <ele>2066.5</ele>
        <time>2013-08-30T14:28:23Z</time>
      </trkpt>
      <trkpt lat="44.95136" lon="6.73578">
        <ele>2065.5</ele>
        <time>2013-08-30T14:28:24Z</time>
      </trkpt>
      <trkpt lat="44.95131" lon="6.73581">
        <ele>2065.1</ele>
        <time>2013-08-30T14:28:25Z</time>
      </trkpt>
      <trkpt lat="44.95126" lon="6.73585">
        <ele>2064.1</ele>
        <time>2013-08-30T14:28:26Z</time>
      </trkpt>
      <trkpt lat="44.95121" lon="6.73589">
        <ele>2063.1</ele>
        <time>2013-08-30T14:28:27Z</time>
      </trkpt>
      <trkpt lat="44.95116" lon="6.73593">
        <ele>2062.2</ele>
        <time>2013-08-30T14:28:28Z</time>
      </trkpt>
      <trkpt lat="44.95111" lon="6.73597">
        <ele>2060.7</ele>
        <time>2013-08-30T14:28:29Z</time>
      </trkpt>
      <trkpt lat="44.95106" lon="6.736">
        <ele>2060.2</ele>
        <time>2013-08-30T14:28:30Z</time>
      </trkpt>
      <trkpt lat="44.951" lon="6.73604">
        <ele>2058.8</ele>
        <time>2013-08-30T14:28:31Z</time>
      </trkpt>
      <trkpt lat="44.95082" lon="6.73613">
        <ele>2055</ele>
        <time>2013-08-30T14:28:34Z</time>
      </trkpt>
      <trkpt lat="44.95077" lon="6.73617">
        <ele>2054.5</ele>
        <time>2013-08-30T14:28:35Z</time>
      </trkpt>
      <trkpt lat="44.95073" lon="6.73622">
        <ele>2053</ele>
        <time>2013-08-30T14:28:36Z</time>
      </trkpt>
      <trkpt lat="44.95069" lon="6.73628">
        <ele>2053</ele>
        <time>2013-08-30T14:28:37Z</time>
      </trkpt>
      <trkpt lat="44.95056" lon="6.73645">
        <ele>2049.2</ele>
        <time>2013-08-30T14:28:40Z</time>
      </trkpt>
      <trkpt lat="44.95039" lon="6.73665">
        <ele>2045.8</ele>
        <time>2013-08-30T14:28:46Z</time>
      </trkpt>
      <trkpt lat="44.95022" lon="6.73684">
        <ele>2040.5</ele>
        <time>2013-08-30T14:28:50Z</time>
      </trkpt>
      <trkpt lat="44.95009" lon="6.73697">
        <ele>2037.2</ele>
        <time>2013-08-30T14:28:55Z</time>
      </trkpt>
      <trkpt lat="44.94994" lon="6.73706">
        <ele>2033.8</ele>
        <time>2013-08-30T14:29:02Z</time>
      </trkpt>
      <trkpt lat="44.94993" lon="6.73708">
        <ele>2032.8</ele>
        <time>2013-08-30T14:29:03Z</time>
      </trkpt>
      <trkpt lat="44.94994" lon="6.73707">
        <ele>2032.8</ele>
        <time>2013-08-30T14:29:15Z</time>
      </trkpt>
      <trkpt lat="44.94991" lon="6.73706">
        <ele>2032.4</ele>
        <time>2013-08-30T14:29:32Z</time>
      </trkpt>
      <trkpt lat="44.94989" lon="6.73707">
        <ele>2032.4</ele>
        <time>2013-08-30T14:29:33Z</time>
      </trkpt>
      <trkpt lat="44.94986" lon="6.73708">
        <ele>2032.4</ele>
        <time>2013-08-30T14:29:34Z</time>
      </trkpt>
      <trkpt lat="44.94968" lon="6.73716">
        <ele>2030</ele>
        <time>2013-08-30T14:29:38Z</time>
      </trkpt>
      <trkpt lat="44.94963" lon="6.73719">
        <ele>2029</ele>
        <time>2013-08-30T14:29:39Z</time>
      </trkpt>
      <trkpt lat="44.94958" lon="6.73723">
        <ele>2028.5</ele>
        <time>2013-08-30T14:29:40Z</time>
      </trkpt>
      <trkpt lat="44.94952" lon="6.73727">
        <ele>2027.1</ele>
        <time>2013-08-30T14:29:41Z</time>
      </trkpt>
      <trkpt lat="44.94947" lon="6.73731">
        <ele>2025.6</ele>
        <time>2013-08-30T14:29:42Z</time>
      </trkpt>
      <trkpt lat="44.94941" lon="6.73734">
        <ele>2024.2</ele>
        <time>2013-08-30T14:29:43Z</time>
      </trkpt>
      <trkpt lat="44.94936" lon="6.73737">
        <ele>2024.2</ele>
        <time>2013-08-30T14:29:44Z</time>
      </trkpt>
      <trkpt lat="44.9492" lon="6.73749">
        <ele>2021.3</ele>
        <time>2013-08-30T14:29:47Z</time>
      </trkpt>
      <trkpt lat="44.94908" lon="6.73755">
        <ele>2018.4</ele>
        <time>2013-08-30T14:29:49Z</time>
      </trkpt>
      <trkpt lat="44.94902" lon="6.73757">
        <ele>2017</ele>
        <time>2013-08-30T14:29:50Z</time>
      </trkpt>
      <trkpt lat="44.94896" lon="6.73757">
        <ele>2017</ele>
        <time>2013-08-30T14:29:51Z</time>
      </trkpt>
      <trkpt lat="44.94883" lon="6.73755">
        <ele>2014.6</ele>
        <time>2013-08-30T14:29:53Z</time>
      </trkpt>
      <trkpt lat="44.94876" lon="6.73756">
        <ele>2013.6</ele>
        <time>2013-08-30T14:29:54Z</time>
      </trkpt>
      <trkpt lat="44.94869" lon="6.73758">
        <ele>2012.7</ele>
        <time>2013-08-30T14:29:55Z</time>
      </trkpt>
      <trkpt lat="44.94862" lon="6.73759">
        <ele>2011.7</ele>
        <time>2013-08-30T14:29:56Z</time>
      </trkpt>
      <trkpt lat="44.94856" lon="6.73761">
        <ele>2010.7</ele>
        <time>2013-08-30T14:29:57Z</time>
      </trkpt>
      <trkpt lat="44.94849" lon="6.73762">
        <ele>2010.3</ele>
        <time>2013-08-30T14:29:58Z</time>
      </trkpt>
      <trkpt lat="44.94844" lon="6.73762">
        <ele>2009.3</ele>
        <time>2013-08-30T14:29:59Z</time>
      </trkpt>
      <trkpt lat="44.94822" lon="6.73767">
        <ele>2005.9</ele>
        <time>2013-08-30T14:30:04Z</time>
      </trkpt>
      <trkpt lat="44.94812" lon="6.73771">
        <ele>2005</ele>
        <time>2013-08-30T14:30:06Z</time>
      </trkpt>
      <trkpt lat="44.94807" lon="6.73771">
        <ele>2004.5</ele>
        <time>2013-08-30T14:30:07Z</time>
      </trkpt>
      <trkpt lat="44.94801" lon="6.7377">
        <ele>2003.5</ele>
        <time>2013-08-30T14:30:08Z</time>
      </trkpt>
      <trkpt lat="44.94794" lon="6.7377">
        <ele>2003.5</ele>
        <time>2013-08-30T14:30:09Z</time>
      </trkpt>
      <trkpt lat="44.94788" lon="6.73769">
        <ele>2003</ele>
        <time>2013-08-30T14:30:10Z</time>
      </trkpt>
      <trkpt lat="44.94781" lon="6.73767">
        <ele>2002.1</ele>
        <time>2013-08-30T14:30:11Z</time>
      </trkpt>
      <trkpt lat="44.94775" lon="6.73766">
        <ele>2001.6</ele>
        <time>2013-08-30T14:30:12Z</time>
      </trkpt>
      <trkpt lat="44.94768" lon="6.73765">
        <ele>2001.1</ele>
        <time>2013-08-30T14:30:13Z</time>
      </trkpt>
      <trkpt lat="44.94761" lon="6.73765">
        <ele>2000.6</ele>
        <time>2013-08-30T14:30:14Z</time>
      </trkpt>
      <trkpt lat="44.94755" lon="6.73766">
        <ele>1999.7</ele>
        <time>2013-08-30T14:30:15Z</time>
      </trkpt>
      <trkpt lat="44.94749" lon="6.73767">
        <ele>1998.7</ele>
        <time>2013-08-30T14:30:16Z</time>
      </trkpt>
      <trkpt lat="44.94744" lon="6.73767">
        <ele>1998.2</ele>
        <time>2013-08-30T14:30:17Z</time>
      </trkpt>
      <trkpt lat="44.94737" lon="6.73767">
        <ele>1998.2</ele>
        <time>2013-08-30T14:30:18Z</time>
      </trkpt>
      <trkpt lat="44.94717" lon="6.73768">
        <ele>1996.3</ele>
        <time>2013-08-30T14:30:21Z</time>
      </trkpt>
      <trkpt lat="44.94697" lon="6.73773">
        <ele>1995.8</ele>
        <time>2013-08-30T14:30:24Z</time>
      </trkpt>
      <trkpt lat="44.94672" lon="6.7378">
        <ele>1993.4</ele>
        <time>2013-08-30T14:30:28Z</time>
      </trkpt>
      <trkpt lat="44.94666" lon="6.73782">
        <ele>1993</ele>
        <time>2013-08-30T14:30:29Z</time>
      </trkpt>
      <trkpt lat="44.94652" lon="6.73787">
        <ele>1992</ele>
        <time>2013-08-30T14:30:31Z</time>
      </trkpt>
      <trkpt lat="44.94627" lon="6.73794">
        <ele>1990.6</ele>
        <time>2013-08-30T14:30:35Z</time>
      </trkpt>
      <trkpt lat="44.94601" lon="6.73807">
        <ele>1988.6</ele>
        <time>2013-08-30T14:30:39Z</time>
      </trkpt>
      <trkpt lat="44.94595" lon="6.73811">
        <ele>1988.1</ele>
        <time>2013-08-30T14:30:40Z</time>
      </trkpt>
      <trkpt lat="44.94576" lon="6.73821">
        <ele>1986.2</ele>
        <time>2013-08-30T14:30:43Z</time>
      </trkpt>
      <trkpt lat="44.94546" lon="6.73839">
        <ele>1984.3</ele>
        <time>2013-08-30T14:30:48Z</time>
      </trkpt>
      <trkpt lat="44.94536" lon="6.73844">
        <ele>1982.4</ele>
        <time>2013-08-30T14:30:50Z</time>
      </trkpt>
      <trkpt lat="44.94531" lon="6.73848">
        <ele>1982.4</ele>
        <time>2013-08-30T14:30:51Z</time>
      </trkpt>
      <trkpt lat="44.94526" lon="6.73853">
        <ele>1981.9</ele>
        <time>2013-08-30T14:30:52Z</time>
      </trkpt>
      <trkpt lat="44.94521" lon="6.73856">
        <ele>1982.4</ele>
        <time>2013-08-30T14:30:53Z</time>
      </trkpt>
      <trkpt lat="44.94516" lon="6.73857">
        <ele>1980.9</ele>
        <time>2013-08-30T14:30:54Z</time>
      </trkpt>
      <trkpt lat="44.94511" lon="6.73858">
        <ele>1980.9</ele>
        <time>2013-08-30T14:30:55Z</time>
      </trkpt>
      <trkpt lat="44.94506" lon="6.73859">
        <ele>1981.4</ele>
        <time>2013-08-30T14:30:56Z</time>
      </trkpt>
      <trkpt lat="44.94502" lon="6.7386">
        <ele>1980.9</ele>
        <time>2013-08-30T14:30:57Z</time>
      </trkpt>
      <trkpt lat="44.94497" lon="6.7386">
        <ele>1980.9</ele>
        <time>2013-08-30T14:30:58Z</time>
      </trkpt>
      <trkpt lat="44.94488" lon="6.7386">
        <ele>1981.4</ele>
        <time>2013-08-30T14:31:00Z</time>
      </trkpt>
      <trkpt lat="44.94483" lon="6.73861">
        <ele>1980.5</ele>
        <time>2013-08-30T14:31:01Z</time>
      </trkpt>
      <trkpt lat="44.94477" lon="6.73863">
        <ele>1980.5</ele>
        <time>2013-08-30T14:31:02Z</time>
      </trkpt>
      <trkpt lat="44.94441" lon="6.73874">
        <ele>1977.6</ele>
        <time>2013-08-30T14:31:08Z</time>
      </trkpt>
      <trkpt lat="44.94435" lon="6.73877">
        <ele>1977.6</ele>
        <time>2013-08-30T14:31:09Z</time>
      </trkpt>
      <trkpt lat="44.94411" lon="6.73886">
        <ele>1976.1</ele>
        <time>2013-08-30T14:31:13Z</time>
      </trkpt>
      <trkpt lat="44.94405" lon="6.73887">
        <ele>1976.1</ele>
        <time>2013-08-30T14:31:14Z</time>
      </trkpt>
      <trkpt lat="44.94384" lon="6.73891">
        <ele>1973.7</ele>
        <time>2013-08-30T14:31:17Z</time>
      </trkpt>
      <trkpt lat="44.94378" lon="6.73894">
        <ele>1974.2</ele>
        <time>2013-08-30T14:31:18Z</time>
      </trkpt>
      <trkpt lat="44.94372" lon="6.73898">
        <ele>1973.7</ele>
        <time>2013-08-30T14:31:19Z</time>
      </trkpt>
      <trkpt lat="44.94353" lon="6.73911">
        <ele>1972.8</ele>
        <time>2013-08-30T14:31:22Z</time>
      </trkpt>
      <trkpt lat="44.94334" lon="6.7392">
        <ele>1971.8</ele>
        <time>2013-08-30T14:31:25Z</time>
      </trkpt>
      <trkpt lat="44.94327" lon="6.73921">
        <ele>1970.8</ele>
        <time>2013-08-30T14:31:26Z</time>
      </trkpt>
      <trkpt lat="44.94321" lon="6.73921">
        <ele>1970.4</ele>
        <time>2013-08-30T14:31:27Z</time>
      </trkpt>
      <trkpt lat="44.94314" lon="6.73921">
        <ele>1969.4</ele>
        <time>2013-08-30T14:31:28Z</time>
      </trkpt>
      <trkpt lat="44.94308" lon="6.73919">
        <ele>1968.4</ele>
        <time>2013-08-30T14:31:29Z</time>
      </trkpt>
      <trkpt lat="44.94303" lon="6.73917">
        <ele>1967</ele>
        <time>2013-08-30T14:31:30Z</time>
      </trkpt>
      <trkpt lat="44.94297" lon="6.73915">
        <ele>1966</ele>
        <time>2013-08-30T14:31:31Z</time>
      </trkpt>
      <trkpt lat="44.94291" lon="6.73915">
        <ele>1965.1</ele>
        <time>2013-08-30T14:31:32Z</time>
      </trkpt>
      <trkpt lat="44.94285" lon="6.73915">
        <ele>1964.1</ele>
        <time>2013-08-30T14:31:33Z</time>
      </trkpt>
      <trkpt lat="44.94282" lon="6.73916">
        <ele>1963.6</ele>
        <time>2013-08-30T14:31:34Z</time>
      </trkpt>
      <trkpt lat="44.9428" lon="6.73916">
        <ele>1963.2</ele>
        <time>2013-08-30T14:31:43Z</time>
      </trkpt>
      <trkpt lat="44.94282" lon="6.73915">
        <ele>1963.6</ele>
        <time>2013-08-30T14:31:54Z</time>
      </trkpt>
      <trkpt lat="44.94287" lon="6.7391">
        <ele>1964.1</ele>
        <time>2013-08-30T14:32:06Z</time>
      </trkpt>
      <trkpt lat="44.94283" lon="6.73916">
        <ele>1961.7</ele>
        <time>2013-08-30T14:32:20Z</time>
      </trkpt>
      <trkpt lat="44.94282" lon="6.73917">
        <ele>1962.2</ele>
        <time>2013-08-30T14:32:25Z</time>
      </trkpt>
      <trkpt lat="44.9428" lon="6.73918">
        <ele>1962.2</ele>
        <time>2013-08-30T14:32:26Z</time>
      </trkpt>
      <trkpt lat="44.94278" lon="6.73921">
        <ele>1961.2</ele>
        <time>2013-08-30T14:32:27Z</time>
      </trkpt>
      <trkpt lat="44.94275" lon="6.73926">
        <ele>1961.2</ele>
        <time>2013-08-30T14:32:28Z</time>
      </trkpt>
      <trkpt lat="44.94273" lon="6.73931">
        <ele>1960.8</ele>
        <time>2013-08-30T14:32:29Z</time>
      </trkpt>
      <trkpt lat="44.9426" lon="6.73952">
        <ele>1957.9</ele>
        <time>2013-08-30T14:32:33Z</time>
      </trkpt>
      <trkpt lat="44.94241" lon="6.73975">
        <ele>1955.9</ele>
        <time>2013-08-30T14:32:38Z</time>
      </trkpt>
      <trkpt lat="44.94228" lon="6.73985">
        <ele>1952.6</ele>
        <time>2013-08-30T14:32:42Z</time>
      </trkpt>
      <trkpt lat="44.94225" lon="6.73988">
        <ele>1951.6</ele>
        <time>2013-08-30T14:32:43Z</time>
      </trkpt>
      <trkpt lat="44.94216" lon="6.73997">
        <ele>1949.7</ele>
        <time>2013-08-30T14:32:45Z</time>
      </trkpt>
      <trkpt lat="44.94199" lon="6.7401">
        <ele>1945.9</ele>
        <time>2013-08-30T14:32:48Z</time>
      </trkpt>
      <trkpt lat="44.94194" lon="6.74014">
        <ele>1944.9</ele>
        <time>2013-08-30T14:32:49Z</time>
      </trkpt>
      <trkpt lat="44.94175" lon="6.74026">
        <ele>1941.5</ele>
        <time>2013-08-30T14:32:53Z</time>
      </trkpt>
      <trkpt lat="44.94169" lon="6.7403">
        <ele>1940.6</ele>
        <time>2013-08-30T14:32:54Z</time>
      </trkpt>
      <trkpt lat="44.94165" lon="6.74034">
        <ele>1939.1</ele>
        <time>2013-08-30T14:32:55Z</time>
      </trkpt>
      <trkpt lat="44.94162" lon="6.74039">
        <ele>1938.2</ele>
        <time>2013-08-30T14:32:56Z</time>
      </trkpt>
      <trkpt lat="44.94154" lon="6.74051">
        <ele>1934.8</ele>
        <time>2013-08-30T14:32:59Z</time>
      </trkpt>
      <trkpt lat="44.94152" lon="6.74055">
        <ele>1934.8</ele>
        <time>2013-08-30T14:33:00Z</time>
      </trkpt>
      <trkpt lat="44.94142" lon="6.74068">
        <ele>1931.4</ele>
        <time>2013-08-30T14:33:04Z</time>
      </trkpt>
      <trkpt lat="44.94132" lon="6.74071">
        <ele>1929.5</ele>
        <time>2013-08-30T14:33:08Z</time>
      </trkpt>
      <trkpt lat="44.9413" lon="6.7407">
        <ele>1928.5</ele>
        <time>2013-08-30T14:33:09Z</time>
      </trkpt>
      <trkpt lat="44.94128" lon="6.74068">
        <ele>1927.6</ele>
        <time>2013-08-30T14:33:10Z</time>
      </trkpt>
      <trkpt lat="44.94125" lon="6.74067">
        <ele>1928.1</ele>
        <time>2013-08-30T14:33:11Z</time>
      </trkpt>
      <trkpt lat="44.94124" lon="6.74066">
        <ele>1928.1</ele>
        <time>2013-08-30T14:33:12Z</time>
      </trkpt>
      <trkpt lat="44.94122" lon="6.74066">
        <ele>1927.6</ele>
        <time>2013-08-30T14:33:14Z</time>
      </trkpt>
      <trkpt lat="44.94119" lon="6.74068">
        <ele>1926.6</ele>
        <time>2013-08-30T14:33:15Z</time>
      </trkpt>
      <trkpt lat="44.94116" lon="6.74068">
        <ele>1925.7</ele>
        <time>2013-08-30T14:33:16Z</time>
      </trkpt>
      <trkpt lat="44.94106" lon="6.74069">
        <ele>1922.8</ele>
        <time>2013-08-30T14:33:19Z</time>
      </trkpt>
      <trkpt lat="44.94093" lon="6.74075">
        <ele>1918</ele>
        <time>2013-08-30T14:33:23Z</time>
      </trkpt>
      <trkpt lat="44.94089" lon="6.74078">
        <ele>1918.5</ele>
        <time>2013-08-30T14:33:24Z</time>
      </trkpt>
      <trkpt lat="44.94081" lon="6.74082">
        <ele>1914.6</ele>
        <time>2013-08-30T14:33:26Z</time>
      </trkpt>
      <trkpt lat="44.94076" lon="6.74084">
        <ele>1913.6</ele>
        <time>2013-08-30T14:33:27Z</time>
      </trkpt>
      <trkpt lat="44.94071" lon="6.74085">
        <ele>1912.2</ele>
        <time>2013-08-30T14:33:28Z</time>
      </trkpt>
      <trkpt lat="44.94066" lon="6.74085">
        <ele>1910.8</ele>
        <time>2013-08-30T14:33:29Z</time>
      </trkpt>
      <trkpt lat="44.94061" lon="6.74084">
        <ele>1909.8</ele>
        <time>2013-08-30T14:33:30Z</time>
      </trkpt>
      <trkpt lat="44.94056" lon="6.74082">
        <ele>1908.8</ele>
        <time>2013-08-30T14:33:31Z</time>
      </trkpt>
      <trkpt lat="44.94051" lon="6.74081">
        <ele>1907.9</ele>
        <time>2013-08-30T14:33:32Z</time>
      </trkpt>
      <trkpt lat="44.94046" lon="6.74079">
        <ele>1906.9</ele>
        <time>2013-08-30T14:33:33Z</time>
      </trkpt>
      <trkpt lat="44.94036" lon="6.74075">
        <ele>1905</ele>
        <time>2013-08-30T14:33:35Z</time>
      </trkpt>
      <trkpt lat="44.94031" lon="6.74074">
        <ele>1904</ele>
        <time>2013-08-30T14:33:36Z</time>
      </trkpt>
      <trkpt lat="44.94026" lon="6.74073">
        <ele>1903.6</ele>
        <time>2013-08-30T14:33:37Z</time>
      </trkpt>
      <trkpt lat="44.94015" lon="6.74071">
        <ele>1900.7</ele>
        <time>2013-08-30T14:33:39Z</time>
      </trkpt>
      <trkpt lat="44.93999" lon="6.74071">
        <ele>1897.8</ele>
        <time>2013-08-30T14:33:42Z</time>
      </trkpt>
      <trkpt lat="44.93982" lon="6.74073">
        <ele>1894.4</ele>
        <time>2013-08-30T14:33:47Z</time>
      </trkpt>
      <trkpt lat="44.93979" lon="6.74073">
        <ele>1893.5</ele>
        <time>2013-08-30T14:33:48Z</time>
      </trkpt>
      <trkpt lat="44.93976" lon="6.74075">
        <ele>1892.5</ele>
        <time>2013-08-30T14:33:49Z</time>
      </trkpt>
      <trkpt lat="44.93973" lon="6.74078">
        <ele>1892.5</ele>
        <time>2013-08-30T14:33:50Z</time>
      </trkpt>
      <trkpt lat="44.93971" lon="6.74081">
        <ele>1892.5</ele>
        <time>2013-08-30T14:33:51Z</time>
      </trkpt>
      <trkpt lat="44.93968" lon="6.74085">
        <ele>1892.5</ele>
        <time>2013-08-30T14:33:52Z</time>
      </trkpt>
      <trkpt lat="44.93963" lon="6.74093">
        <ele>1890.6</ele>
        <time>2013-08-30T14:33:54Z</time>
      </trkpt>
      <trkpt lat="44.93953" lon="6.74101">
        <ele>1887.7</ele>
        <time>2013-08-30T14:33:57Z</time>
      </trkpt>
      <trkpt lat="44.93944" lon="6.74111">
        <ele>1884.8</ele>
        <time>2013-08-30T14:34:01Z</time>
      </trkpt>
      <trkpt lat="44.93937" lon="6.74122">
        <ele>1881.9</ele>
        <time>2013-08-30T14:34:05Z</time>
      </trkpt>
      <trkpt lat="44.93933" lon="6.74127">
        <ele>1880</ele>
        <time>2013-08-30T14:34:07Z</time>
      </trkpt>
      <trkpt lat="44.93922" lon="6.74136">
        <ele>1879</ele>
        <time>2013-08-30T14:34:16Z</time>
      </trkpt>
      <trkpt lat="44.93919" lon="6.7414">
        <ele>1879</ele>
        <time>2013-08-30T14:34:33Z</time>
      </trkpt>
      <trkpt lat="44.93918" lon="6.7414">
        <ele>1879</ele>
        <time>2013-08-30T14:34:34Z</time>
      </trkpt>
      <trkpt lat="44.93915" lon="6.74148">
        <ele>1878.1</ele>
        <time>2013-08-30T14:34:46Z</time>
      </trkpt>
      <trkpt lat="44.93911" lon="6.74153">
        <ele>1880</ele>
        <time>2013-08-30T14:35:06Z</time>
      </trkpt>
      <trkpt lat="44.939" lon="6.74154">
        <ele>1881.9</ele>
        <time>2013-08-30T14:35:18Z</time>
      </trkpt>
      <trkpt lat="44.93885" lon="6.74157">
        <ele>1882.9</ele>
        <time>2013-08-30T14:35:32Z</time>
      </trkpt>
      <trkpt lat="44.93871" lon="6.74165">
        <ele>1882.9</ele>
        <time>2013-08-30T14:35:49Z</time>
      </trkpt>
      <trkpt lat="44.93865" lon="6.74168">
        <ele>1883.4</ele>
        <time>2013-08-30T14:36:05Z</time>
      </trkpt>
      <trkpt lat="44.93862" lon="6.74178">
        <ele>1880</ele>
        <time>2013-08-30T14:36:16Z</time>
      </trkpt>
      <trkpt lat="44.93855" lon="6.74191">
        <ele>1876.6</ele>
        <time>2013-08-30T14:36:27Z</time>
      </trkpt>
      <trkpt lat="44.93845" lon="6.74199">
        <ele>1875.2</ele>
        <time>2013-08-30T14:36:42Z</time>
      </trkpt>
      <trkpt lat="44.93845" lon="6.74199">
        <ele>1875.2</ele>
        <time>2013-08-30T14:36:45Z</time>
      </trkpt>
      <trkpt lat="44.93841" lon="6.74207">
        <ele>1874.7</ele>
        <time>2013-08-30T14:36:48Z</time>
      </trkpt>
      <trkpt lat="44.93835" lon="6.74212">
        <ele>1873.8</ele>
        <time>2013-08-30T14:36:50Z</time>
      </trkpt>
      <trkpt lat="44.93824" lon="6.74215">
        <ele>1873.8</ele>
        <time>2013-08-30T14:36:55Z</time>
      </trkpt>
      <trkpt lat="44.93804" lon="6.74213">
        <ele>1872.8</ele>
        <time>2013-08-30T14:37:07Z</time>
      </trkpt>
      <trkpt lat="44.93804" lon="6.7421">
        <ele>1871.3</ele>
        <time>2013-08-30T14:37:39Z</time>
      </trkpt>
      <trkpt lat="44.93805" lon="6.74211">
        <ele>1871.8</ele>
        <time>2013-08-30T14:37:58Z</time>
      </trkpt>
      <trkpt lat="44.93807" lon="6.74219">
        <ele>1871.3</ele>
        <time>2013-08-30T14:38:02Z</time>
      </trkpt>
      <trkpt lat="44.93808" lon="6.74222">
        <ele>1870.9</ele>
        <time>2013-08-30T14:38:03Z</time>
      </trkpt>
      <trkpt lat="44.93808" lon="6.74245">
        <ele>1869.9</ele>
        <time>2013-08-30T14:38:08Z</time>
      </trkpt>
      <trkpt lat="44.938" lon="6.74272">
        <ele>1868</ele>
        <time>2013-08-30T14:38:18Z</time>
      </trkpt>
      <trkpt lat="44.938" lon="6.74275">
        <ele>1868.5</ele>
        <time>2013-08-30T14:38:28Z</time>
      </trkpt>
      <trkpt lat="44.938" lon="6.74276">
        <ele>1869.4</ele>
        <time>2013-08-30T14:38:54Z</time>
      </trkpt>
      <trkpt lat="44.938" lon="6.74276">
        <ele>1868</ele>
        <time>2013-08-30T14:38:55Z</time>
      </trkpt>
      <trkpt lat="44.93799" lon="6.74276">
        <ele>1867.5</ele>
        <time>2013-08-30T14:39:28Z</time>
      </trkpt>
      <trkpt lat="44.93802" lon="6.74269">
        <ele>1867.5</ele>
        <time>2013-08-30T14:39:45Z</time>
      </trkpt>
      <trkpt lat="44.93804" lon="6.74268">
        <ele>1868</ele>
        <time>2013-08-30T14:39:51Z</time>
      </trkpt>
      <trkpt lat="44.93805" lon="6.74267">
        <ele>1868.5</ele>
        <time>2013-08-30T14:39:52Z</time>
      </trkpt>
      <trkpt lat="44.93806" lon="6.74266">
        <ele>1868</ele>
        <time>2013-08-30T14:39:53Z</time>
      </trkpt>
      <trkpt lat="44.93807" lon="6.74264">
        <ele>1868</ele>
        <time>2013-08-30T14:39:54Z</time>
      </trkpt>
      <trkpt lat="44.93808" lon="6.74262">
        <ele>1868</ele>
        <time>2013-08-30T14:39:55Z</time>
      </trkpt>
      <trkpt lat="44.93808" lon="6.7426">
        <ele>1868.5</ele>
        <time>2013-08-30T14:39:56Z</time>
      </trkpt>
      <trkpt lat="44.93808" lon="6.74258">
        <ele>1868.5</ele>
        <time>2013-08-30T14:39:57Z</time>
      </trkpt>
      <trkpt lat="44.93808" lon="6.74256">
        <ele>1868.5</ele>
        <time>2013-08-30T14:39:58Z</time>
      </trkpt>
      <trkpt lat="44.93809" lon="6.74224">
        <ele>1870.4</ele>
        <time>2013-08-30T14:40:13Z</time>
      </trkpt>
      <trkpt lat="44.938" lon="6.74198">
        <ele>1872.3</ele>
        <time>2013-08-30T14:40:27Z</time>
      </trkpt>
      <trkpt lat="44.93774" lon="6.74182">
        <ele>1873.8</ele>
        <time>2013-08-30T14:40:43Z</time>
      </trkpt>
      <trkpt lat="44.93741" lon="6.74179">
        <ele>1876.6</ele>
        <time>2013-08-30T14:41:00Z</time>
      </trkpt>
      <trkpt lat="44.9371" lon="6.74172">
        <ele>1880</ele>
        <time>2013-08-30T14:41:16Z</time>
      </trkpt>
      <trkpt lat="44.93678" lon="6.74157">
        <ele>1883.4</ele>
        <time>2013-08-30T14:41:35Z</time>
      </trkpt>
      <trkpt lat="44.93656" lon="6.74136">
        <ele>1886.7</ele>
        <time>2013-08-30T14:41:50Z</time>
      </trkpt>
      <trkpt lat="44.93646" lon="6.74093">
        <ele>1889.1</ele>
        <time>2013-08-30T14:42:07Z</time>
      </trkpt>
      <trkpt lat="44.93639" lon="6.74044">
        <ele>1891.5</ele>
        <time>2013-08-30T14:42:25Z</time>
      </trkpt>
      <trkpt lat="44.93627" lon="6.73994">
        <ele>1893.9</ele>
        <time>2013-08-30T14:42:43Z</time>
      </trkpt>
      <trkpt lat="44.93616" lon="6.73942">
        <ele>1896.3</ele>
        <time>2013-08-30T14:43:02Z</time>
      </trkpt>
      <trkpt lat="44.93608" lon="6.73894">
        <ele>1897.8</ele>
        <time>2013-08-30T14:43:18Z</time>
      </trkpt>
      <trkpt lat="44.93604" lon="6.73838">
        <ele>1896.3</ele>
        <time>2013-08-30T14:43:33Z</time>
      </trkpt>
      <trkpt lat="44.93595" lon="6.7378">
        <ele>1893.5</ele>
        <time>2013-08-30T14:43:41Z</time>
      </trkpt>
      <trkpt lat="44.9358" lon="6.73723">
        <ele>1891.5</ele>
        <time>2013-08-30T14:43:47Z</time>
      </trkpt>
      <trkpt lat="44.93576" lon="6.73715">
        <ele>1890.6</ele>
        <time>2013-08-30T14:43:48Z</time>
      </trkpt>
      <trkpt lat="44.93571" lon="6.73709">
        <ele>1890.1</ele>
        <time>2013-08-30T14:43:49Z</time>
      </trkpt>
      <trkpt lat="44.93565" lon="6.73706">
        <ele>1890.1</ele>
        <time>2013-08-30T14:43:50Z</time>
      </trkpt>
      <trkpt lat="44.9356" lon="6.73703">
        <ele>1890.1</ele>
        <time>2013-08-30T14:43:51Z</time>
      </trkpt>
      <trkpt lat="44.93555" lon="6.73702">
        <ele>1890.1</ele>
        <time>2013-08-30T14:43:52Z</time>
      </trkpt>
      <trkpt lat="44.9355" lon="6.737">
        <ele>1890.1</ele>
        <time>2013-08-30T14:43:53Z</time>
      </trkpt>
      <trkpt lat="44.93545" lon="6.73699">
        <ele>1890.6</ele>
        <time>2013-08-30T14:43:54Z</time>
      </trkpt>
      <trkpt lat="44.9354" lon="6.73696">
        <ele>1889.6</ele>
        <time>2013-08-30T14:43:55Z</time>
      </trkpt>
      <trkpt lat="44.93537" lon="6.73693">
        <ele>1889.6</ele>
        <time>2013-08-30T14:43:56Z</time>
      </trkpt>
      <trkpt lat="44.93533" lon="6.73689">
        <ele>1889.6</ele>
        <time>2013-08-30T14:43:57Z</time>
      </trkpt>
      <trkpt lat="44.93529" lon="6.73683">
        <ele>1888.7</ele>
        <time>2013-08-30T14:43:58Z</time>
      </trkpt>
      <trkpt lat="44.93526" lon="6.73676">
        <ele>1889.1</ele>
        <time>2013-08-30T14:43:59Z</time>
      </trkpt>
      <trkpt lat="44.93523" lon="6.73668">
        <ele>1887.7</ele>
        <time>2013-08-30T14:44:00Z</time>
      </trkpt>
      <trkpt lat="44.93499" lon="6.73607">
        <ele>1884.3</ele>
        <time>2013-08-30T14:44:09Z</time>
      </trkpt>
      <trkpt lat="44.93486" lon="6.73565">
        <ele>1881</ele>
        <time>2013-08-30T14:44:19Z</time>
      </trkpt>
      <trkpt lat="44.93468" lon="6.7351">
        <ele>1877.6</ele>
        <time>2013-08-30T14:44:30Z</time>
      </trkpt>
      <trkpt lat="44.93438" lon="6.73405">
        <ele>1876.2</ele>
        <time>2013-08-30T14:44:46Z</time>
      </trkpt>
      <trkpt lat="44.9343" lon="6.73332">
        <ele>1873.3</ele>
        <time>2013-08-30T14:44:55Z</time>
      </trkpt>
      <trkpt lat="44.93422" lon="6.73242">
        <ele>1870.4</ele>
        <time>2013-08-30T14:45:08Z</time>
      </trkpt>
      <trkpt lat="44.93423" lon="6.73163">
        <ele>1869.4</ele>
        <time>2013-08-30T14:45:22Z</time>
      </trkpt>
      <trkpt lat="44.93414" lon="6.73113">
        <ele>1870.9</ele>
        <time>2013-08-30T14:45:36Z</time>
      </trkpt>
      <trkpt lat="44.934" lon="6.73071">
        <ele>1871.3</ele>
        <time>2013-08-30T14:45:48Z</time>
      </trkpt>
      <trkpt lat="44.93389" lon="6.73028">
        <ele>1872.8</ele>
        <time>2013-08-30T14:46:02Z</time>
      </trkpt>
      <trkpt lat="44.93377" lon="6.72982">
        <ele>1874.7</ele>
        <time>2013-08-30T14:46:18Z</time>
      </trkpt>
      <trkpt lat="44.93363" lon="6.72945">
        <ele>1875.7</ele>
        <time>2013-08-30T14:46:31Z</time>
      </trkpt>
      <trkpt lat="44.93345" lon="6.72896">
        <ele>1875.7</ele>
        <time>2013-08-30T14:46:47Z</time>
      </trkpt>
      <trkpt lat="44.93322" lon="6.7286">
        <ele>1875.2</ele>
        <time>2013-08-30T14:46:59Z</time>
      </trkpt>
      <trkpt lat="44.93304" lon="6.72825">
        <ele>1875.2</ele>
        <time>2013-08-30T14:47:09Z</time>
      </trkpt>
      <trkpt lat="44.93304" lon="6.72821">
        <ele>1875.7</ele>
        <time>2013-08-30T14:47:10Z</time>
      </trkpt>
      <trkpt lat="44.93305" lon="6.72818">
        <ele>1875.7</ele>
        <time>2013-08-30T14:47:11Z</time>
      </trkpt>
      <trkpt lat="44.93305" lon="6.72771">
        <ele>1875.7</ele>
        <time>2013-08-30T14:47:25Z</time>
      </trkpt>
      <trkpt lat="44.93293" lon="6.72759">
        <ele>1875.2</ele>
        <time>2013-08-30T14:47:32Z</time>
      </trkpt>
      <trkpt lat="44.93287" lon="6.72748">
        <ele>1876.2</ele>
        <time>2013-08-30T14:47:38Z</time>
      </trkpt>
      <trkpt lat="44.9327" lon="6.72706">
        <ele>1874.7</ele>
        <time>2013-08-30T14:47:53Z</time>
      </trkpt>
      <trkpt lat="44.93267" lon="6.72705">
        <ele>1872.3</ele>
        <time>2013-08-30T14:48:05Z</time>
      </trkpt>
      <trkpt lat="44.93268" lon="6.72705">
        <ele>1874.2</ele>
        <time>2013-08-30T14:48:06Z</time>
      </trkpt>
      <trkpt lat="44.92983" lon="6.72084">
        <ele>1825.2</ele>
        <time>2013-08-31T06:26:01Z</time>
      </trkpt>
      <trkpt lat="44.92996" lon="6.72078">
        <ele>1825.2</ele>
        <time>2013-08-31T06:26:14Z</time>
      </trkpt>
      <trkpt lat="44.93013" lon="6.72075">
        <ele>1827.1</ele>
        <time>2013-08-31T06:26:38Z</time>
      </trkpt>
      <trkpt lat="44.93012" lon="6.72075">
        <ele>1828.1</ele>
        <time>2013-08-31T06:26:39Z</time>
      </trkpt>
      <trkpt lat="44.93011" lon="6.72074">
        <ele>1828.6</ele>
        <time>2013-08-31T06:26:40Z</time>
      </trkpt>
      <trkpt lat="44.93011" lon="6.72071">
        <ele>1828.6</ele>
        <time>2013-08-31T06:26:41Z</time>
      </trkpt>
      <trkpt lat="44.93011" lon="6.72068">
        <ele>1829.5</ele>
        <time>2013-08-31T06:26:42Z</time>
      </trkpt>
      <trkpt lat="44.9301" lon="6.72061">
        <ele>1830.5</ele>
        <time>2013-08-31T06:26:44Z</time>
      </trkpt>
      <trkpt lat="44.93005" lon="6.72042">
        <ele>1831.9</ele>
        <time>2013-08-31T06:26:49Z</time>
      </trkpt>
      <trkpt lat="44.92979" lon="6.71949">
        <ele>1833.9</ele>
        <time>2013-08-31T06:27:04Z</time>
      </trkpt>
      <trkpt lat="44.92958" lon="6.71886">
        <ele>1831.9</ele>
        <time>2013-08-31T06:27:12Z</time>
      </trkpt>
      <trkpt lat="44.92955" lon="6.71879">
        <ele>1831.9</ele>
        <time>2013-08-31T06:27:13Z</time>
      </trkpt>
      <trkpt lat="44.9295" lon="6.71875">
        <ele>1831.5</ele>
        <time>2013-08-31T06:27:14Z</time>
      </trkpt>
      <trkpt lat="44.92945" lon="6.71874">
        <ele>1831.9</ele>
        <time>2013-08-31T06:27:15Z</time>
      </trkpt>
      <trkpt lat="44.9294" lon="6.71874">
        <ele>1831.9</ele>
        <time>2013-08-31T06:27:16Z</time>
      </trkpt>
      <trkpt lat="44.92935" lon="6.71874">
        <ele>1831.9</ele>
        <time>2013-08-31T06:27:17Z</time>
      </trkpt>
      <trkpt lat="44.92921" lon="6.71874">
        <ele>1832.4</ele>
        <time>2013-08-31T06:27:20Z</time>
      </trkpt>
      <trkpt lat="44.92916" lon="6.71876">
        <ele>1831.9</ele>
        <time>2013-08-31T06:27:21Z</time>
      </trkpt>
      <trkpt lat="44.92913" lon="6.71879">
        <ele>1832.4</ele>
        <time>2013-08-31T06:27:22Z</time>
      </trkpt>
      <trkpt lat="44.92911" lon="6.71883">
        <ele>1832.4</ele>
        <time>2013-08-31T06:27:23Z</time>
      </trkpt>
      <trkpt lat="44.9291" lon="6.71888">
        <ele>1833.4</ele>
        <time>2013-08-31T06:27:24Z</time>
      </trkpt>
      <trkpt lat="44.9291" lon="6.71892">
        <ele>1833.9</ele>
        <time>2013-08-31T06:27:25Z</time>
      </trkpt>
      <trkpt lat="44.9291" lon="6.71896">
        <ele>1834.3</ele>
        <time>2013-08-31T06:27:26Z</time>
      </trkpt>
      <trkpt lat="44.92909" lon="6.719">
        <ele>1834.3</ele>
        <time>2013-08-31T06:27:27Z</time>
      </trkpt>
      <trkpt lat="44.92908" lon="6.71903">
        <ele>1834.3</ele>
        <time>2013-08-31T06:27:28Z</time>
      </trkpt>
      <trkpt lat="44.92907" lon="6.71906">
        <ele>1834.8</ele>
        <time>2013-08-31T06:27:29Z</time>
      </trkpt>
      <trkpt lat="44.92905" lon="6.71909">
        <ele>1835.3</ele>
        <time>2013-08-31T06:27:30Z</time>
      </trkpt>
      <trkpt lat="44.92903" lon="6.71911">
        <ele>1835.3</ele>
        <time>2013-08-31T06:27:31Z</time>
      </trkpt>
      <trkpt lat="44.92902" lon="6.71912">
        <ele>1835.8</ele>
        <time>2013-08-31T06:27:32Z</time>
      </trkpt>
      <trkpt lat="44.929" lon="6.71913">
        <ele>1836.3</ele>
        <time>2013-08-31T06:27:33Z</time>
      </trkpt>
      <trkpt lat="44.92897" lon="6.71914">
        <ele>1836.3</ele>
        <time>2013-08-31T06:27:34Z</time>
      </trkpt>
      <trkpt lat="44.92894" lon="6.71914">
        <ele>1837.2</ele>
        <time>2013-08-31T06:27:36Z</time>
      </trkpt>
      <trkpt lat="44.92893" lon="6.71912">
        <ele>1837.2</ele>
        <time>2013-08-31T06:27:37Z</time>
      </trkpt>
      <trkpt lat="44.92892" lon="6.7191">
        <ele>1837.7</ele>
        <time>2013-08-31T06:27:38Z</time>
      </trkpt>
      <trkpt lat="44.9289" lon="6.71906">
        <ele>1838.2</ele>
        <time>2013-08-31T06:27:40Z</time>
      </trkpt>
      <trkpt lat="44.92877" lon="6.71894">
        <ele>1841.5</ele>
        <time>2013-08-31T06:27:52Z</time>
      </trkpt>
      <trkpt lat="44.92853" lon="6.71874">
        <ele>1843</ele>
        <time>2013-08-31T06:28:09Z</time>
      </trkpt>
      <trkpt lat="44.92817" lon="6.71841">
        <ele>1843.5</ele>
        <time>2013-08-31T06:28:25Z</time>
      </trkpt>
      <trkpt lat="44.92804" lon="6.71834">
        <ele>1843</ele>
        <time>2013-08-31T06:28:29Z</time>
      </trkpt>
      <trkpt lat="44.92797" lon="6.71827">
        <ele>1842</ele>
        <time>2013-08-31T06:28:31Z</time>
      </trkpt>
      <trkpt lat="44.92789" lon="6.71819">
        <ele>1841.1</ele>
        <time>2013-08-31T06:28:33Z</time>
      </trkpt>
      <trkpt lat="44.92785" lon="6.71813">
        <ele>1840.6</ele>
        <time>2013-08-31T06:28:34Z</time>
      </trkpt>
      <trkpt lat="44.92779" lon="6.71801">
        <ele>1839.6</ele>
        <time>2013-08-31T06:28:36Z</time>
      </trkpt>
      <trkpt lat="44.92777" lon="6.71795">
        <ele>1839.1</ele>
        <time>2013-08-31T06:28:37Z</time>
      </trkpt>
      <trkpt lat="44.92773" lon="6.71782">
        <ele>1839.1</ele>
        <time>2013-08-31T06:28:40Z</time>
      </trkpt>
      <trkpt lat="44.92773" lon="6.7178">
        <ele>1839.1</ele>
        <time>2013-08-31T06:28:41Z</time>
      </trkpt>
      <trkpt lat="44.92775" lon="6.7178">
        <ele>1839.6</ele>
        <time>2013-08-31T06:28:55Z</time>
      </trkpt>
      <trkpt lat="44.92775" lon="6.71777">
        <ele>1839.1</ele>
        <time>2013-08-31T06:29:08Z</time>
      </trkpt>
      <trkpt lat="44.92774" lon="6.71776">
        <ele>1838.7</ele>
        <time>2013-08-31T06:29:09Z</time>
      </trkpt>
      <trkpt lat="44.92773" lon="6.71775">
        <ele>1838.7</ele>
        <time>2013-08-31T06:29:10Z</time>
      </trkpt>
      <trkpt lat="44.92743" lon="6.71743">
        <ele>1837.7</ele>
        <time>2013-08-31T06:29:21Z</time>
      </trkpt>
      <trkpt lat="44.92721" lon="6.71695">
        <ele>1837.7</ele>
        <time>2013-08-31T06:29:35Z</time>
      </trkpt>
      <trkpt lat="44.92722" lon="6.71669">
        <ele>1838.2</ele>
        <time>2013-08-31T06:29:42Z</time>
      </trkpt>
      <trkpt lat="44.92723" lon="6.71667">
        <ele>1838.7</ele>
        <time>2013-08-31T06:29:43Z</time>
      </trkpt>
      <trkpt lat="44.92723" lon="6.71664">
        <ele>1838.7</ele>
        <time>2013-08-31T06:29:44Z</time>
      </trkpt>
      <trkpt lat="44.92723" lon="6.71609">
        <ele>1840.1</ele>
        <time>2013-08-31T06:30:00Z</time>
      </trkpt>
      <trkpt lat="44.92718" lon="6.71558">
        <ele>1839.6</ele>
        <time>2013-08-31T06:30:12Z</time>
      </trkpt>
      <trkpt lat="44.92705" lon="6.71516">
        <ele>1837.7</ele>
        <time>2013-08-31T06:30:23Z</time>
      </trkpt>
      <trkpt lat="44.92693" lon="6.715">
        <ele>1837.2</ele>
        <time>2013-08-31T06:30:27Z</time>
      </trkpt>
      <trkpt lat="44.92689" lon="6.71497">
        <ele>1836.7</ele>
        <time>2013-08-31T06:30:28Z</time>
      </trkpt>
      <trkpt lat="44.92667" lon="6.71469">
        <ele>1838.2</ele>
        <time>2013-08-31T06:30:38Z</time>
      </trkpt>
      <trkpt lat="44.92651" lon="6.71433">
        <ele>1841.1</ele>
        <time>2013-08-31T06:30:53Z</time>
      </trkpt>
      <trkpt lat="44.92646" lon="6.71422">
        <ele>1842</ele>
        <time>2013-08-31T06:30:58Z</time>
      </trkpt>
      <trkpt lat="44.92623" lon="6.71392">
        <ele>1844.4</ele>
        <time>2013-08-31T06:31:15Z</time>
      </trkpt>
      <trkpt lat="44.92604" lon="6.71369">
        <ele>1846.8</ele>
        <time>2013-08-31T06:31:30Z</time>
      </trkpt>
      <trkpt lat="44.92576" lon="6.71345">
        <ele>1850.7</ele>
        <time>2013-08-31T06:31:49Z</time>
      </trkpt>
      <trkpt lat="44.9255" lon="6.71331">
        <ele>1852.1</ele>
        <time>2013-08-31T06:32:05Z</time>
      </trkpt>
      <trkpt lat="44.92525" lon="6.71332">
        <ele>1855</ele>
        <time>2013-08-31T06:32:20Z</time>
      </trkpt>
      <trkpt lat="44.92503" lon="6.7135">
        <ele>1858.9</ele>
        <time>2013-08-31T06:32:37Z</time>
      </trkpt>
      <trkpt lat="44.92486" lon="6.71376">
        <ele>1859.8</ele>
        <time>2013-08-31T06:32:52Z</time>
      </trkpt>
      <trkpt lat="44.92464" lon="6.71401">
        <ele>1862.7</ele>
        <time>2013-08-31T06:33:10Z</time>
      </trkpt>
      <trkpt lat="44.92448" lon="6.71418">
        <ele>1865.6</ele>
        <time>2013-08-31T06:33:24Z</time>
      </trkpt>
      <trkpt lat="44.92431" lon="6.71459">
        <ele>1868.5</ele>
        <time>2013-08-31T06:33:44Z</time>
      </trkpt>
      <trkpt lat="44.92417" lon="6.71494">
        <ele>1870.9</ele>
        <time>2013-08-31T06:34:01Z</time>
      </trkpt>
      <trkpt lat="44.92408" lon="6.7153">
        <ele>1873.8</ele>
        <time>2013-08-31T06:34:18Z</time>
      </trkpt>
      <trkpt lat="44.92394" lon="6.71564">
        <ele>1876.6</ele>
        <time>2013-08-31T06:34:36Z</time>
      </trkpt>
      <trkpt lat="44.92379" lon="6.71585">
        <ele>1878.6</ele>
        <time>2013-08-31T06:34:49Z</time>
      </trkpt>
      <trkpt lat="44.92365" lon="6.71609">
        <ele>1880.5</ele>
        <time>2013-08-31T06:35:03Z</time>
      </trkpt>
      <trkpt lat="44.92354" lon="6.71639">
        <ele>1883.8</ele>
        <time>2013-08-31T06:35:17Z</time>
      </trkpt>
      <trkpt lat="44.92345" lon="6.71662">
        <ele>1884.8</ele>
        <time>2013-08-31T06:35:31Z</time>
      </trkpt>
      <trkpt lat="44.92335" lon="6.71682">
        <ele>1886.2</ele>
        <time>2013-08-31T06:35:46Z</time>
      </trkpt>
      <trkpt lat="44.92334" lon="6.7167">
        <ele>1887.2</ele>
        <time>2013-08-31T06:36:17Z</time>
      </trkpt>
      <trkpt lat="44.92337" lon="6.71663">
        <ele>1887.2</ele>
        <time>2013-08-31T06:36:54Z</time>
      </trkpt>
      <trkpt lat="44.92339" lon="6.71675">
        <ele>1886.2</ele>
        <time>2013-08-31T06:37:33Z</time>
      </trkpt>
      <trkpt lat="44.92339" lon="6.71674">
        <ele>1887.2</ele>
        <time>2013-08-31T06:37:34Z</time>
      </trkpt>
      <trkpt lat="44.92339" lon="6.71676">
        <ele>1887.2</ele>
        <time>2013-08-31T06:38:05Z</time>
      </trkpt>
      <trkpt lat="44.92338" lon="6.71675">
        <ele>1887.2</ele>
        <time>2013-08-31T06:38:13Z</time>
      </trkpt>
      <trkpt lat="44.92334" lon="6.71676">
        <ele>1887.7</ele>
        <time>2013-08-31T06:38:15Z</time>
      </trkpt>
      <trkpt lat="44.92327" lon="6.71668">
        <ele>1888.2</ele>
        <time>2013-08-31T06:38:21Z</time>
      </trkpt>
      <trkpt lat="44.92326" lon="6.71666">
        <ele>1888.2</ele>
        <time>2013-08-31T06:38:22Z</time>
      </trkpt>
      <trkpt lat="44.92315" lon="6.71639">
        <ele>1891.5</ele>
        <time>2013-08-31T06:38:37Z</time>
      </trkpt>
      <trkpt lat="44.92297" lon="6.71613">
        <ele>1893</ele>
        <time>2013-08-31T06:38:52Z</time>
      </trkpt>
      <trkpt lat="44.9228" lon="6.71581">
        <ele>1895.4</ele>
        <time>2013-08-31T06:39:08Z</time>
      </trkpt>
      <trkpt lat="44.9226" lon="6.71566">
        <ele>1897.3</ele>
        <time>2013-08-31T06:39:23Z</time>
      </trkpt>
      <trkpt lat="44.92266" lon="6.7159">
        <ele>1899.2</ele>
        <time>2013-08-31T06:39:34Z</time>
      </trkpt>
      <trkpt lat="44.92275" lon="6.71623">
        <ele>1902.1</ele>
        <time>2013-08-31T06:39:49Z</time>
      </trkpt>
      <trkpt lat="44.92275" lon="6.71625">
        <ele>1902.1</ele>
        <time>2013-08-31T06:39:50Z</time>
      </trkpt>
      <trkpt lat="44.92276" lon="6.71627">
        <ele>1901.6</ele>
        <time>2013-08-31T06:39:51Z</time>
      </trkpt>
      <trkpt lat="44.92281" lon="6.71661">
        <ele>1905</ele>
        <time>2013-08-31T06:40:06Z</time>
      </trkpt>
      <trkpt lat="44.9228" lon="6.717">
        <ele>1907.9</ele>
        <time>2013-08-31T06:40:22Z</time>
      </trkpt>
      <trkpt lat="44.92283" lon="6.71734">
        <ele>1910.3</ele>
        <time>2013-08-31T06:40:37Z</time>
      </trkpt>
      <trkpt lat="44.92284" lon="6.71767">
        <ele>1912.2</ele>
        <time>2013-08-31T06:40:52Z</time>
      </trkpt>
      <trkpt lat="44.92282" lon="6.71805">
        <ele>1914.1</ele>
        <time>2013-08-31T06:41:07Z</time>
      </trkpt>
      <trkpt lat="44.92286" lon="6.71831">
        <ele>1917</ele>
        <time>2013-08-31T06:41:19Z</time>
      </trkpt>
      <trkpt lat="44.92286" lon="6.71833">
        <ele>1917</ele>
        <time>2013-08-31T06:41:20Z</time>
      </trkpt>
      <trkpt lat="44.92286" lon="6.71836">
        <ele>1917</ele>
        <time>2013-08-31T06:41:21Z</time>
      </trkpt>
      <trkpt lat="44.92287" lon="6.71837">
        <ele>1917.5</ele>
        <time>2013-08-31T06:41:22Z</time>
      </trkpt>
      <trkpt lat="44.92287" lon="6.7184">
        <ele>1917</ele>
        <time>2013-08-31T06:41:23Z</time>
      </trkpt>
      <trkpt lat="44.92288" lon="6.71873">
        <ele>1918.9</ele>
        <time>2013-08-31T06:41:37Z</time>
      </trkpt>
      <trkpt lat="44.92286" lon="6.71917">
        <ele>1921.8</ele>
        <time>2013-08-31T06:41:54Z</time>
      </trkpt>
      <trkpt lat="44.92278" lon="6.71951">
        <ele>1924.7</ele>
        <time>2013-08-31T06:42:09Z</time>
      </trkpt>
      <trkpt lat="44.92277" lon="6.71984">
        <ele>1927.1</ele>
        <time>2013-08-31T06:42:24Z</time>
      </trkpt>
      <trkpt lat="44.92274" lon="6.71995">
        <ele>1928.5</ele>
        <time>2013-08-31T06:42:31Z</time>
      </trkpt>
      <trkpt lat="44.92273" lon="6.71996">
        <ele>1928.5</ele>
        <time>2013-08-31T06:42:32Z</time>
      </trkpt>
      <trkpt lat="44.92272" lon="6.71997">
        <ele>1928.5</ele>
        <time>2013-08-31T06:42:33Z</time>
      </trkpt>
      <trkpt lat="44.9227" lon="6.71998">
        <ele>1929</ele>
        <time>2013-08-31T06:42:34Z</time>
      </trkpt>
      <trkpt lat="44.92269" lon="6.71998">
        <ele>1929.5</ele>
        <time>2013-08-31T06:42:35Z</time>
      </trkpt>
      <trkpt lat="44.92267" lon="6.71998">
        <ele>1929.5</ele>
        <time>2013-08-31T06:42:36Z</time>
      </trkpt>
      <trkpt lat="44.92266" lon="6.71997">
        <ele>1929.5</ele>
        <time>2013-08-31T06:42:37Z</time>
      </trkpt>
      <trkpt lat="44.92257" lon="6.71965">
        <ele>1931</ele>
        <time>2013-08-31T06:42:51Z</time>
      </trkpt>
      <trkpt lat="44.92257" lon="6.71923">
        <ele>1933.8</ele>
        <time>2013-08-31T06:43:07Z</time>
      </trkpt>
      <trkpt lat="44.92246" lon="6.7189">
        <ele>1936.7</ele>
        <time>2013-08-31T06:43:23Z</time>
      </trkpt>
      <trkpt lat="44.92234" lon="6.71852">
        <ele>1938.6</ele>
        <time>2013-08-31T06:43:40Z</time>
      </trkpt>
      <trkpt lat="44.9223" lon="6.71823">
        <ele>1941</ele>
        <time>2013-08-31T06:43:52Z</time>
      </trkpt>
      <trkpt lat="44.92217" lon="6.71794">
        <ele>1943.4</ele>
        <time>2013-08-31T06:44:07Z</time>
      </trkpt>
      <trkpt lat="44.92194" lon="6.71769">
        <ele>1945.9</ele>
        <time>2013-08-31T06:44:24Z</time>
      </trkpt>
      <trkpt lat="44.92186" lon="6.71755">
        <ele>1947.3</ele>
        <time>2013-08-31T06:44:32Z</time>
      </trkpt>
      <trkpt lat="44.92175" lon="6.71726">
        <ele>1949.7</ele>
        <time>2013-08-31T06:44:46Z</time>
      </trkpt>
      <trkpt lat="44.92166" lon="6.71691">
        <ele>1952.6</ele>
        <time>2013-08-31T06:45:02Z</time>
      </trkpt>
      <trkpt lat="44.92158" lon="6.7169">
        <ele>1953.1</ele>
        <time>2013-08-31T06:45:08Z</time>
      </trkpt>
      <trkpt lat="44.92156" lon="6.71691">
        <ele>1953.5</ele>
        <time>2013-08-31T06:45:09Z</time>
      </trkpt>
      <trkpt lat="44.92156" lon="6.71693">
        <ele>1954.5</ele>
        <time>2013-08-31T06:45:10Z</time>
      </trkpt>
      <trkpt lat="44.92155" lon="6.71695">
        <ele>1954.5</ele>
        <time>2013-08-31T06:45:11Z</time>
      </trkpt>
      <trkpt lat="44.92155" lon="6.71697">
        <ele>1954</ele>
        <time>2013-08-31T06:45:12Z</time>
      </trkpt>
      <trkpt lat="44.92155" lon="6.71699">
        <ele>1955</ele>
        <time>2013-08-31T06:45:13Z</time>
      </trkpt>
      <trkpt lat="44.92155" lon="6.71701">
        <ele>1954.5</ele>
        <time>2013-08-31T06:45:14Z</time>
      </trkpt>
      <trkpt lat="44.92161" lon="6.71738">
        <ele>1956.9</ele>
        <time>2013-08-31T06:45:30Z</time>
      </trkpt>
      <trkpt lat="44.92171" lon="6.71775">
        <ele>1959.8</ele>
        <time>2013-08-31T06:45:46Z</time>
      </trkpt>
      <trkpt lat="44.92175" lon="6.71811">
        <ele>1962.7</ele>
        <time>2013-08-31T06:46:04Z</time>
      </trkpt>
      <trkpt lat="44.92175" lon="6.71819">
        <ele>1963.6</ele>
        <time>2013-08-31T06:46:08Z</time>
      </trkpt>
      <trkpt lat="44.92175" lon="6.71822">
        <ele>1963.6</ele>
        <time>2013-08-31T06:46:09Z</time>
      </trkpt>
      <trkpt lat="44.92176" lon="6.71824">
        <ele>1964.1</ele>
        <time>2013-08-31T06:46:10Z</time>
      </trkpt>
      <trkpt lat="44.92177" lon="6.71828">
        <ele>1964.1</ele>
        <time>2013-08-31T06:46:12Z</time>
      </trkpt>
      <trkpt lat="44.92176" lon="6.71831">
        <ele>1964.1</ele>
        <time>2013-08-31T06:46:13Z</time>
      </trkpt>
      <trkpt lat="44.92183" lon="6.71862">
        <ele>1967.5</ele>
        <time>2013-08-31T06:46:28Z</time>
      </trkpt>
      <trkpt lat="44.92187" lon="6.71895">
        <ele>1968.9</ele>
        <time>2013-08-31T06:46:42Z</time>
      </trkpt>
      <trkpt lat="44.92187" lon="6.71928">
        <ele>1972.3</ele>
        <time>2013-08-31T06:46:55Z</time>
      </trkpt>
      <trkpt lat="44.9218" lon="6.71959">
        <ele>1973.2</ele>
        <time>2013-08-31T06:47:08Z</time>
      </trkpt>
      <trkpt lat="44.92177" lon="6.71966">
        <ele>1973.7</ele>
        <time>2013-08-31T06:47:11Z</time>
      </trkpt>
      <trkpt lat="44.92176" lon="6.71971">
        <ele>1973.7</ele>
        <time>2013-08-31T06:47:14Z</time>
      </trkpt>
      <trkpt lat="44.92176" lon="6.71974">
        <ele>1974.7</ele>
        <time>2013-08-31T06:47:16Z</time>
      </trkpt>
      <trkpt lat="44.92175" lon="6.71976">
        <ele>1974.7</ele>
        <time>2013-08-31T06:47:17Z</time>
      </trkpt>
      <trkpt lat="44.92174" lon="6.71977">
        <ele>1975.2</ele>
        <time>2013-08-31T06:47:18Z</time>
      </trkpt>
      <trkpt lat="44.92173" lon="6.7198">
        <ele>1975.2</ele>
        <time>2013-08-31T06:47:19Z</time>
      </trkpt>
      <trkpt lat="44.92172" lon="6.71981">
        <ele>1975.2</ele>
        <time>2013-08-31T06:47:20Z</time>
      </trkpt>
      <trkpt lat="44.92172" lon="6.71982">
        <ele>1975.2</ele>
        <time>2013-08-31T06:47:21Z</time>
      </trkpt>
      <trkpt lat="44.92171" lon="6.71984">
        <ele>1975.7</ele>
        <time>2013-08-31T06:47:22Z</time>
      </trkpt>
      <trkpt lat="44.9217" lon="6.71985">
        <ele>1975.7</ele>
        <time>2013-08-31T06:47:23Z</time>
      </trkpt>
      <trkpt lat="44.92158" lon="6.72008">
        <ele>1978.1</ele>
        <time>2013-08-31T06:47:37Z</time>
      </trkpt>
      <trkpt lat="44.92146" lon="6.72026">
        <ele>1980</ele>
        <time>2013-08-31T06:47:50Z</time>
      </trkpt>
      <trkpt lat="44.92131" lon="6.72049">
        <ele>1982.9</ele>
        <time>2013-08-31T06:48:05Z</time>
      </trkpt>
      <trkpt lat="44.92112" lon="6.72072">
        <ele>1984.8</ele>
        <time>2013-08-31T06:48:20Z</time>
      </trkpt>
      <trkpt lat="44.92094" lon="6.72093">
        <ele>1987.2</ele>
        <time>2013-08-31T06:48:34Z</time>
      </trkpt>
      <trkpt lat="44.92076" lon="6.72119">
        <ele>1990.6</ele>
        <time>2013-08-31T06:48:50Z</time>
      </trkpt>
      <trkpt lat="44.92059" lon="6.72139">
        <ele>1992.5</ele>
        <time>2013-08-31T06:49:03Z</time>
      </trkpt>
      <trkpt lat="44.92033" lon="6.72165">
        <ele>1994.9</ele>
        <time>2013-08-31T06:49:21Z</time>
      </trkpt>
      <trkpt lat="44.92011" lon="6.72181">
        <ele>1996.8</ele>
        <time>2013-08-31T06:49:36Z</time>
      </trkpt>
      <trkpt lat="44.91995" lon="6.72194">
        <ele>1998.7</ele>
        <time>2013-08-31T06:49:48Z</time>
      </trkpt>
      <trkpt lat="44.91978" lon="6.72206">
        <ele>2000.2</ele>
        <time>2013-08-31T06:50:01Z</time>
      </trkpt>
      <trkpt lat="44.91953" lon="6.72215">
        <ele>2003.5</ele>
        <time>2013-08-31T06:50:16Z</time>
      </trkpt>
      <trkpt lat="44.91925" lon="6.72225">
        <ele>2005.9</ele>
        <time>2013-08-31T06:50:34Z</time>
      </trkpt>
      <trkpt lat="44.91902" lon="6.72234">
        <ele>2007.9</ele>
        <time>2013-08-31T06:50:48Z</time>
      </trkpt>
      <trkpt lat="44.91878" lon="6.72245">
        <ele>2010.3</ele>
        <time>2013-08-31T06:51:03Z</time>
      </trkpt>
      <trkpt lat="44.91856" lon="6.7226">
        <ele>2012.7</ele>
        <time>2013-08-31T06:51:18Z</time>
      </trkpt>
      <trkpt lat="44.9184" lon="6.7227">
        <ele>2015.1</ele>
        <time>2013-08-31T06:51:32Z</time>
      </trkpt>
      <trkpt lat="44.9182" lon="6.7228">
        <ele>2016.5</ele>
        <time>2013-08-31T06:51:47Z</time>
      </trkpt>
      <trkpt lat="44.91808" lon="6.72287">
        <ele>2017.9</ele>
        <time>2013-08-31T06:51:56Z</time>
      </trkpt>
      <trkpt lat="44.91788" lon="6.72298">
        <ele>2020.8</ele>
        <time>2013-08-31T06:52:10Z</time>
      </trkpt>
      <trkpt lat="44.91766" lon="6.72312">
        <ele>2023.2</ele>
        <time>2013-08-31T06:52:25Z</time>
      </trkpt>
      <trkpt lat="44.91739" lon="6.72325">
        <ele>2025.6</ele>
        <time>2013-08-31T06:52:41Z</time>
      </trkpt>
      <trkpt lat="44.91723" lon="6.72337">
        <ele>2027.1</ele>
        <time>2013-08-31T06:52:53Z</time>
      </trkpt>
      <trkpt lat="44.917" lon="6.72349">
        <ele>2029</ele>
        <time>2013-08-31T06:53:07Z</time>
      </trkpt>
      <trkpt lat="44.91699" lon="6.7235">
        <ele>2029.5</ele>
        <time>2013-08-31T06:53:08Z</time>
      </trkpt>
      <trkpt lat="44.91697" lon="6.72351">
        <ele>2029.5</ele>
        <time>2013-08-31T06:53:09Z</time>
      </trkpt>
      <trkpt lat="44.91695" lon="6.72352">
        <ele>2030</ele>
        <time>2013-08-31T06:53:10Z</time>
      </trkpt>
      <trkpt lat="44.91693" lon="6.72353">
        <ele>2030</ele>
        <time>2013-08-31T06:53:11Z</time>
      </trkpt>
      <trkpt lat="44.91691" lon="6.72354">
        <ele>2030.4</ele>
        <time>2013-08-31T06:53:12Z</time>
      </trkpt>
      <trkpt lat="44.91689" lon="6.72354">
        <ele>2030.9</ele>
        <time>2013-08-31T06:53:13Z</time>
      </trkpt>
      <trkpt lat="44.91687" lon="6.72355">
        <ele>2030.9</ele>
        <time>2013-08-31T06:53:14Z</time>
      </trkpt>
      <trkpt lat="44.91686" lon="6.72355">
        <ele>2030.4</ele>
        <time>2013-08-31T06:53:15Z</time>
      </trkpt>
      <trkpt lat="44.91663" lon="6.72361">
        <ele>2033.8</ele>
        <time>2013-08-31T06:53:29Z</time>
      </trkpt>
      <trkpt lat="44.91661" lon="6.72361">
        <ele>2033.8</ele>
        <time>2013-08-31T06:53:30Z</time>
      </trkpt>
      <trkpt lat="44.91632" lon="6.72366">
        <ele>2036.7</ele>
        <time>2013-08-31T06:53:48Z</time>
      </trkpt>
      <trkpt lat="44.91607" lon="6.72374">
        <ele>2038.6</ele>
        <time>2013-08-31T06:54:04Z</time>
      </trkpt>
      <trkpt lat="44.91581" lon="6.72397">
        <ele>2041.5</ele>
        <time>2013-08-31T06:54:24Z</time>
      </trkpt>
      <trkpt lat="44.91572" lon="6.72422">
        <ele>2043.4</ele>
        <time>2013-08-31T06:54:37Z</time>
      </trkpt>
      <trkpt lat="44.91572" lon="6.72424">
        <ele>2043.4</ele>
        <time>2013-08-31T06:54:38Z</time>
      </trkpt>
      <trkpt lat="44.91571" lon="6.72426">
        <ele>2043.4</ele>
        <time>2013-08-31T06:54:39Z</time>
      </trkpt>
      <trkpt lat="44.9157" lon="6.72428">
        <ele>2043.4</ele>
        <time>2013-08-31T06:54:40Z</time>
      </trkpt>
      <trkpt lat="44.91569" lon="6.7243">
        <ele>2044.4</ele>
        <time>2013-08-31T06:54:41Z</time>
      </trkpt>
      <trkpt lat="44.91544" lon="6.72446">
        <ele>2046.8</ele>
        <time>2013-08-31T06:54:58Z</time>
      </trkpt>
      <trkpt lat="44.91517" lon="6.72453">
        <ele>2049.7</ele>
        <time>2013-08-31T06:55:15Z</time>
      </trkpt>
      <trkpt lat="44.91492" lon="6.72431">
        <ele>2051.6</ele>
        <time>2013-08-31T06:55:33Z</time>
      </trkpt>
      <trkpt lat="44.91469" lon="6.72414">
        <ele>2055</ele>
        <time>2013-08-31T06:55:49Z</time>
      </trkpt>
      <trkpt lat="44.91447" lon="6.72401">
        <ele>2055.9</ele>
        <time>2013-08-31T06:56:04Z</time>
      </trkpt>
      <trkpt lat="44.91413" lon="6.72388">
        <ele>2059.3</ele>
        <time>2013-08-31T06:56:24Z</time>
      </trkpt>
      <trkpt lat="44.91386" lon="6.72395">
        <ele>2062.2</ele>
        <time>2013-08-31T06:56:40Z</time>
      </trkpt>
      <trkpt lat="44.91357" lon="6.72391">
        <ele>2064.6</ele>
        <time>2013-08-31T06:56:57Z</time>
      </trkpt>
      <trkpt lat="44.9133" lon="6.72375">
        <ele>2067.5</ele>
        <time>2013-08-31T06:57:15Z</time>
      </trkpt>
      <trkpt lat="44.91305" lon="6.72359">
        <ele>2070.3</ele>
        <time>2013-08-31T06:57:31Z</time>
      </trkpt>
      <trkpt lat="44.91285" lon="6.72326">
        <ele>2073.2</ele>
        <time>2013-08-31T06:57:50Z</time>
      </trkpt>
      <trkpt lat="44.9126" lon="6.72308">
        <ele>2075.1</ele>
        <time>2013-08-31T06:58:07Z</time>
      </trkpt>
      <trkpt lat="44.91231" lon="6.72305">
        <ele>2077.6</ele>
        <time>2013-08-31T06:58:26Z</time>
      </trkpt>
      <trkpt lat="44.9123" lon="6.72307">
        <ele>2077.6</ele>
        <time>2013-08-31T06:58:46Z</time>
      </trkpt>
      <trkpt lat="44.91231" lon="6.72311">
        <ele>2077.6</ele>
        <time>2013-08-31T06:59:14Z</time>
      </trkpt>
      <trkpt lat="44.9122" lon="6.72309">
        <ele>2078.5</ele>
        <time>2013-08-31T06:59:28Z</time>
      </trkpt>
      <trkpt lat="44.91187" lon="6.72308">
        <ele>2081.4</ele>
        <time>2013-08-31T06:59:45Z</time>
      </trkpt>
      <trkpt lat="44.9116" lon="6.72306">
        <ele>2084.8</ele>
        <time>2013-08-31T07:00:01Z</time>
      </trkpt>
      <trkpt lat="44.91128" lon="6.72287">
        <ele>2087.6</ele>
        <time>2013-08-31T07:00:22Z</time>
      </trkpt>
      <trkpt lat="44.91101" lon="6.72278">
        <ele>2089.1</ele>
        <time>2013-08-31T07:00:38Z</time>
      </trkpt>
      <trkpt lat="44.91072" lon="6.72285">
        <ele>2091.5</ele>
        <time>2013-08-31T07:00:55Z</time>
      </trkpt>
      <trkpt lat="44.91038" lon="6.72306">
        <ele>2092.9</ele>
        <time>2013-08-31T07:01:12Z</time>
      </trkpt>
      <trkpt lat="44.91022" lon="6.72334">
        <ele>2094.9</ele>
        <time>2013-08-31T07:01:28Z</time>
      </trkpt>
      <trkpt lat="44.91016" lon="6.72349">
        <ele>2098.2</ele>
        <time>2013-08-31T07:01:37Z</time>
      </trkpt>
      <trkpt lat="44.90999" lon="6.72367">
        <ele>2099.2</ele>
        <time>2013-08-31T07:01:51Z</time>
      </trkpt>
      <trkpt lat="44.90976" lon="6.72379">
        <ele>2102.5</ele>
        <time>2013-08-31T07:02:08Z</time>
      </trkpt>
      <trkpt lat="44.9097" lon="6.72406">
        <ele>2105.9</ele>
        <time>2013-08-31T07:02:26Z</time>
      </trkpt>
      <trkpt lat="44.90976" lon="6.72429">
        <ele>2108.8</ele>
        <time>2013-08-31T07:02:40Z</time>
      </trkpt>
      <trkpt lat="44.90984" lon="6.72452">
        <ele>2110.2</ele>
        <time>2013-08-31T07:02:53Z</time>
      </trkpt>
      <trkpt lat="44.90992" lon="6.72483">
        <ele>2113.1</ele>
        <time>2013-08-31T07:03:10Z</time>
      </trkpt>
      <trkpt lat="44.90979" lon="6.72499">
        <ele>2116.5</ele>
        <time>2013-08-31T07:03:24Z</time>
      </trkpt>
      <trkpt lat="44.90957" lon="6.72482">
        <ele>2118.9</ele>
        <time>2013-08-31T07:03:41Z</time>
      </trkpt>
      <trkpt lat="44.9093" lon="6.72467">
        <ele>2121.8</ele>
        <time>2013-08-31T07:04:00Z</time>
      </trkpt>
      <trkpt lat="44.90909" lon="6.7247">
        <ele>2123.7</ele>
        <time>2013-08-31T07:04:16Z</time>
      </trkpt>
      <trkpt lat="44.90911" lon="6.72495">
        <ele>2126.1</ele>
        <time>2013-08-31T07:04:28Z</time>
      </trkpt>
      <trkpt lat="44.90902" lon="6.72512">
        <ele>2127.1</ele>
        <time>2013-08-31T07:04:43Z</time>
      </trkpt>
      <trkpt lat="44.90894" lon="6.72505">
        <ele>2129.5</ele>
        <time>2013-08-31T07:04:50Z</time>
      </trkpt>
      <trkpt lat="44.90873" lon="6.72506">
        <ele>2131.9</ele>
        <time>2013-08-31T07:05:05Z</time>
      </trkpt>
      <trkpt lat="44.90845" lon="6.72518">
        <ele>2134.3</ele>
        <time>2013-08-31T07:05:26Z</time>
      </trkpt>
      <trkpt lat="44.90826" lon="6.72517">
        <ele>2135.7</ele>
        <time>2013-08-31T07:05:40Z</time>
      </trkpt>
      <trkpt lat="44.90811" lon="6.72516">
        <ele>2137.2</ele>
        <time>2013-08-31T07:05:51Z</time>
      </trkpt>
      <trkpt lat="44.90798" lon="6.72514">
        <ele>2140</ele>
        <time>2013-08-31T07:06:01Z</time>
      </trkpt>
      <trkpt lat="44.90797" lon="6.72514">
        <ele>2140</ele>
        <time>2013-08-31T07:06:02Z</time>
      </trkpt>
      <trkpt lat="44.90777" lon="6.72512">
        <ele>2143.4</ele>
        <time>2013-08-31T07:06:19Z</time>
      </trkpt>
      <trkpt lat="44.90776" lon="6.72515">
        <ele>2142.4</ele>
        <time>2013-08-31T07:06:34Z</time>
      </trkpt>
      <trkpt lat="44.90778" lon="6.72516">
        <ele>2142.9</ele>
        <time>2013-08-31T07:07:14Z</time>
      </trkpt>
      <trkpt lat="44.90776" lon="6.7252">
        <ele>2142.9</ele>
        <time>2013-08-31T07:07:40Z</time>
      </trkpt>
      <trkpt lat="44.90774" lon="6.7252">
        <ele>2143.4</ele>
        <time>2013-08-31T07:08:15Z</time>
      </trkpt>
      <trkpt lat="44.9077" lon="6.72515">
        <ele>2144.4</ele>
        <time>2013-08-31T07:08:33Z</time>
      </trkpt>
      <trkpt lat="44.90766" lon="6.72514">
        <ele>2146.3</ele>
        <time>2013-08-31T07:08:38Z</time>
      </trkpt>
      <trkpt lat="44.90754" lon="6.72515">
        <ele>2147.7</ele>
        <time>2013-08-31T07:08:55Z</time>
      </trkpt>
      <trkpt lat="44.90738" lon="6.72517">
        <ele>2150.6</ele>
        <time>2013-08-31T07:09:16Z</time>
      </trkpt>
      <trkpt lat="44.90725" lon="6.72519">
        <ele>2153.5</ele>
        <time>2013-08-31T07:09:34Z</time>
      </trkpt>
      <trkpt lat="44.90709" lon="6.7252">
        <ele>2155.4</ele>
        <time>2013-08-31T07:09:53Z</time>
      </trkpt>
      <trkpt lat="44.90696" lon="6.7252">
        <ele>2157.3</ele>
        <time>2013-08-31T07:10:09Z</time>
      </trkpt>
      <trkpt lat="44.90689" lon="6.72521">
        <ele>2159.3</ele>
        <time>2013-08-31T07:10:25Z</time>
      </trkpt>
      <trkpt lat="44.90672" lon="6.72521">
        <ele>2160.7</ele>
        <time>2013-08-31T07:10:44Z</time>
      </trkpt>
      <trkpt lat="44.90655" lon="6.72521">
        <ele>2163.6</ele>
        <time>2013-08-31T07:11:04Z</time>
      </trkpt>
      <trkpt lat="44.90641" lon="6.72521">
        <ele>2166.5</ele>
        <time>2013-08-31T07:11:21Z</time>
      </trkpt>
      <trkpt lat="44.90627" lon="6.72517">
        <ele>2168.9</ele>
        <time>2013-08-31T07:11:40Z</time>
      </trkpt>
      <trkpt lat="44.90618" lon="6.7251">
        <ele>2169.8</ele>
        <time>2013-08-31T07:12:01Z</time>
      </trkpt>
      <trkpt lat="44.90618" lon="6.72509">
        <ele>2170.3</ele>
        <time>2013-08-31T07:12:24Z</time>
      </trkpt>
      <trkpt lat="44.90617" lon="6.72507">
        <ele>2170.3</ele>
        <time>2013-08-31T07:12:26Z</time>
      </trkpt>
      <trkpt lat="44.90617" lon="6.72505">
        <ele>2170.3</ele>
        <time>2013-08-31T07:12:27Z</time>
      </trkpt>
      <trkpt lat="44.90616" lon="6.72504">
        <ele>2170.8</ele>
        <time>2013-08-31T07:12:28Z</time>
      </trkpt>
      <trkpt lat="44.90615" lon="6.72502">
        <ele>2170.8</ele>
        <time>2013-08-31T07:12:29Z</time>
      </trkpt>
      <trkpt lat="44.90614" lon="6.72501">
        <ele>2170.8</ele>
        <time>2013-08-31T07:12:30Z</time>
      </trkpt>
      <trkpt lat="44.90613" lon="6.72499">
        <ele>2170.3</ele>
        <time>2013-08-31T07:12:31Z</time>
      </trkpt>
      <trkpt lat="44.90612" lon="6.72498">
        <ele>2171.3</ele>
        <time>2013-08-31T07:12:32Z</time>
      </trkpt>
      <trkpt lat="44.90611" lon="6.72497">
        <ele>2170.8</ele>
        <time>2013-08-31T07:12:33Z</time>
      </trkpt>
      <trkpt lat="44.90603" lon="6.72485">
        <ele>2172.2</ele>
        <time>2013-08-31T07:12:41Z</time>
      </trkpt>
      <trkpt lat="44.90602" lon="6.72484">
        <ele>2172.2</ele>
        <time>2013-08-31T07:12:42Z</time>
      </trkpt>
      <trkpt lat="44.90601" lon="6.72482">
        <ele>2172.2</ele>
        <time>2013-08-31T07:12:43Z</time>
      </trkpt>
      <trkpt lat="44.906" lon="6.72481">
        <ele>2172.2</ele>
        <time>2013-08-31T07:12:44Z</time>
      </trkpt>
      <trkpt lat="44.906" lon="6.7248">
        <ele>2172.7</ele>
        <time>2013-08-31T07:12:45Z</time>
      </trkpt>
      <trkpt lat="44.90599" lon="6.72478">
        <ele>2172.7</ele>
        <time>2013-08-31T07:12:46Z</time>
      </trkpt>
      <trkpt lat="44.90598" lon="6.72477">
        <ele>2172.7</ele>
        <time>2013-08-31T07:12:47Z</time>
      </trkpt>
      <trkpt lat="44.90597" lon="6.72476">
        <ele>2173.2</ele>
        <time>2013-08-31T07:12:48Z</time>
      </trkpt>
      <trkpt lat="44.90596" lon="6.72475">
        <ele>2173.2</ele>
        <time>2013-08-31T07:12:49Z</time>
      </trkpt>
      <trkpt lat="44.90595" lon="6.72473">
        <ele>2173.2</ele>
        <time>2013-08-31T07:12:50Z</time>
      </trkpt>
      <trkpt lat="44.90594" lon="6.72472">
        <ele>2173.2</ele>
        <time>2013-08-31T07:12:51Z</time>
      </trkpt>
      <trkpt lat="44.90583" lon="6.72447">
        <ele>2175.1</ele>
        <time>2013-08-31T07:13:05Z</time>
      </trkpt>
      <trkpt lat="44.90563" lon="6.72424">
        <ele>2177.5</ele>
        <time>2013-08-31T07:13:21Z</time>
      </trkpt>
      <trkpt lat="44.90557" lon="6.72418">
        <ele>2179.5</ele>
        <time>2013-08-31T07:13:27Z</time>
      </trkpt>
      <trkpt lat="44.90531" lon="6.72401">
        <ele>2180.9</ele>
        <time>2013-08-31T07:13:45Z</time>
      </trkpt>
      <trkpt lat="44.90505" lon="6.72377">
        <ele>2183.3</ele>
        <time>2013-08-31T07:14:02Z</time>
      </trkpt>
      <trkpt lat="44.9048" lon="6.72357">
        <ele>2185.2</ele>
        <time>2013-08-31T07:14:19Z</time>
      </trkpt>
      <trkpt lat="44.90466" lon="6.72346">
        <ele>2188.1</ele>
        <time>2013-08-31T07:14:29Z</time>
      </trkpt>
      <trkpt lat="44.90449" lon="6.72357">
        <ele>2190.5</ele>
        <time>2013-08-31T07:14:43Z</time>
      </trkpt>
      <trkpt lat="44.90447" lon="6.72368">
        <ele>2191.5</ele>
        <time>2013-08-31T07:14:48Z</time>
      </trkpt>
      <trkpt lat="44.90446" lon="6.72377">
        <ele>2192.4</ele>
        <time>2013-08-31T07:14:52Z</time>
      </trkpt>
      <trkpt lat="44.90442" lon="6.72408">
        <ele>2194.4</ele>
        <time>2013-08-31T07:15:08Z</time>
      </trkpt>
      <trkpt lat="44.90441" lon="6.72418">
        <ele>2194.8</ele>
        <time>2013-08-31T07:15:12Z</time>
      </trkpt>
      <trkpt lat="44.90437" lon="6.72461">
        <ele>2196.8</ele>
        <time>2013-08-31T07:15:30Z</time>
      </trkpt>
      <trkpt lat="44.90432" lon="6.72504">
        <ele>2199.2</ele>
        <time>2013-08-31T07:15:49Z</time>
      </trkpt>
      <trkpt lat="44.90413" lon="6.72516">
        <ele>2202</ele>
        <time>2013-08-31T07:16:05Z</time>
      </trkpt>
      <trkpt lat="44.90392" lon="6.72489">
        <ele>2204.4</ele>
        <time>2013-08-31T07:16:22Z</time>
      </trkpt>
      <trkpt lat="44.90374" lon="6.72478">
        <ele>2206.8</ele>
        <time>2013-08-31T07:16:36Z</time>
      </trkpt>
      <trkpt lat="44.90373" lon="6.72512">
        <ele>2208.3</ele>
        <time>2013-08-31T07:16:50Z</time>
      </trkpt>
      <trkpt lat="44.9036" lon="6.72534">
        <ele>2210.7</ele>
        <time>2013-08-31T07:17:05Z</time>
      </trkpt>
      <trkpt lat="44.90359" lon="6.72533">
        <ele>2210.2</ele>
        <time>2013-08-31T07:17:06Z</time>
      </trkpt>
      <trkpt lat="44.90357" lon="6.72532">
        <ele>2210.7</ele>
        <time>2013-08-31T07:17:07Z</time>
      </trkpt>
      <trkpt lat="44.90341" lon="6.7251">
        <ele>2213.1</ele>
        <time>2013-08-31T07:17:23Z</time>
      </trkpt>
      <trkpt lat="44.90325" lon="6.7249">
        <ele>2214.1</ele>
        <time>2013-08-31T07:17:37Z</time>
      </trkpt>
      <trkpt lat="44.90301" lon="6.72456">
        <ele>2217.4</ele>
        <time>2013-08-31T07:17:57Z</time>
      </trkpt>
      <trkpt lat="44.90281" lon="6.72428">
        <ele>2218.9</ele>
        <time>2013-08-31T07:18:13Z</time>
      </trkpt>
      <trkpt lat="44.90263" lon="6.72402">
        <ele>2221.7</ele>
        <time>2013-08-31T07:18:29Z</time>
      </trkpt>
      <trkpt lat="44.90239" lon="6.72366">
        <ele>2224.6</ele>
        <time>2013-08-31T07:18:49Z</time>
      </trkpt>
      <trkpt lat="44.90215" lon="6.7234">
        <ele>2226.6</ele>
        <time>2013-08-31T07:19:07Z</time>
      </trkpt>
      <trkpt lat="44.90194" lon="6.72317">
        <ele>2228.5</ele>
        <time>2013-08-31T07:19:22Z</time>
      </trkpt>
      <trkpt lat="44.90172" lon="6.72297">
        <ele>2230.9</ele>
        <time>2013-08-31T07:19:37Z</time>
      </trkpt>
      <trkpt lat="44.90148" lon="6.72276">
        <ele>2233.8</ele>
        <time>2013-08-31T07:19:54Z</time>
      </trkpt>
      <trkpt lat="44.90144" lon="6.72274">
        <ele>2234.2</ele>
        <time>2013-08-31T07:19:57Z</time>
      </trkpt>
      <trkpt lat="44.90143" lon="6.72274">
        <ele>2234.7</ele>
        <time>2013-08-31T07:19:58Z</time>
      </trkpt>
      <trkpt lat="44.90141" lon="6.72273">
        <ele>2234.7</ele>
        <time>2013-08-31T07:19:59Z</time>
      </trkpt>
      <trkpt lat="44.90139" lon="6.72272">
        <ele>2235.2</ele>
        <time>2013-08-31T07:20:00Z</time>
      </trkpt>
      <trkpt lat="44.90138" lon="6.72271">
        <ele>2234.7</ele>
        <time>2013-08-31T07:20:01Z</time>
      </trkpt>
      <trkpt lat="44.90137" lon="6.72269">
        <ele>2235.2</ele>
        <time>2013-08-31T07:20:02Z</time>
      </trkpt>
      <trkpt lat="44.90135" lon="6.72268">
        <ele>2235.2</ele>
        <time>2013-08-31T07:20:03Z</time>
      </trkpt>
      <trkpt lat="44.90114" lon="6.7225">
        <ele>2238.1</ele>
        <time>2013-08-31T07:20:19Z</time>
      </trkpt>
      <trkpt lat="44.90093" lon="6.72269">
        <ele>2240</ele>
        <time>2013-08-31T07:20:35Z</time>
      </trkpt>
      <trkpt lat="44.90082" lon="6.72313">
        <ele>2242.9</ele>
        <time>2013-08-31T07:20:55Z</time>
      </trkpt>
      <trkpt lat="44.90073" lon="6.72353">
        <ele>2245.8</ele>
        <time>2013-08-31T07:21:12Z</time>
      </trkpt>
      <trkpt lat="44.90066" lon="6.72399">
        <ele>2248.2</ele>
        <time>2013-08-31T07:21:31Z</time>
      </trkpt>
      <trkpt lat="44.90057" lon="6.72446">
        <ele>2251.5</ele>
        <time>2013-08-31T07:21:51Z</time>
      </trkpt>
      <trkpt lat="44.90048" lon="6.72484">
        <ele>2253</ele>
        <time>2013-08-31T07:22:08Z</time>
      </trkpt>
      <trkpt lat="44.9004" lon="6.72527">
        <ele>2256.8</ele>
        <time>2013-08-31T07:22:28Z</time>
      </trkpt>
      <trkpt lat="44.90019" lon="6.72548">
        <ele>2257.8</ele>
        <time>2013-08-31T07:22:44Z</time>
      </trkpt>
      <trkpt lat="44.90002" lon="6.72561">
        <ele>2260.2</ele>
        <time>2013-08-31T07:22:58Z</time>
      </trkpt>
      <trkpt lat="44.89979" lon="6.72567">
        <ele>2262.6</ele>
        <time>2013-08-31T07:23:14Z</time>
      </trkpt>
      <trkpt lat="44.89965" lon="6.72574">
        <ele>2262.6</ele>
        <time>2013-08-31T07:23:25Z</time>
      </trkpt>
      <trkpt lat="44.89965" lon="6.72574">
        <ele>2263.1</ele>
        <time>2013-08-31T07:23:39Z</time>
      </trkpt>
      <trkpt lat="44.89964" lon="6.72574">
        <ele>2263.1</ele>
        <time>2013-08-31T07:24:13Z</time>
      </trkpt>
      <trkpt lat="44.89966" lon="6.72575">
        <ele>2263.1</ele>
        <time>2013-08-31T07:25:00Z</time>
      </trkpt>
      <trkpt lat="44.89967" lon="6.72573">
        <ele>2263.1</ele>
        <time>2013-08-31T07:25:29Z</time>
      </trkpt>
      <trkpt lat="44.89966" lon="6.72573">
        <ele>2263.6</ele>
        <time>2013-08-31T07:25:59Z</time>
      </trkpt>
      <trkpt lat="44.89963" lon="6.72574">
        <ele>2264</ele>
        <time>2013-08-31T07:26:30Z</time>
      </trkpt>
      <trkpt lat="44.89962" lon="6.72575">
        <ele>2264.5</ele>
        <time>2013-08-31T07:26:31Z</time>
      </trkpt>
      <trkpt lat="44.8996" lon="6.72575">
        <ele>2264.5</ele>
        <time>2013-08-31T07:26:32Z</time>
      </trkpt>
      <trkpt lat="44.89959" lon="6.72575">
        <ele>2265</ele>
        <time>2013-08-31T07:26:33Z</time>
      </trkpt>
      <trkpt lat="44.89958" lon="6.72576">
        <ele>2265</ele>
        <time>2013-08-31T07:26:34Z</time>
      </trkpt>
      <trkpt lat="44.89956" lon="6.72576">
        <ele>2265.5</ele>
        <time>2013-08-31T07:26:35Z</time>
      </trkpt>
      <trkpt lat="44.89955" lon="6.72576">
        <ele>2264.5</ele>
        <time>2013-08-31T07:26:36Z</time>
      </trkpt>
      <trkpt lat="44.89953" lon="6.72577">
        <ele>2265.5</ele>
        <time>2013-08-31T07:26:37Z</time>
      </trkpt>
      <trkpt lat="44.89952" lon="6.72578">
        <ele>2265.5</ele>
        <time>2013-08-31T07:26:38Z</time>
      </trkpt>
      <trkpt lat="44.8995" lon="6.72578">
        <ele>2265.5</ele>
        <time>2013-08-31T07:26:39Z</time>
      </trkpt>
      <trkpt lat="44.89926" lon="6.72585">
        <ele>2268.4</ele>
        <time>2013-08-31T07:26:59Z</time>
      </trkpt>
      <trkpt lat="44.89904" lon="6.72589">
        <ele>2270.8</ele>
        <time>2013-08-31T07:27:16Z</time>
      </trkpt>
      <trkpt lat="44.89893" lon="6.72587">
        <ele>2272.7</ele>
        <time>2013-08-31T07:27:25Z</time>
      </trkpt>
      <trkpt lat="44.89876" lon="6.72585">
        <ele>2274.1</ele>
        <time>2013-08-31T07:27:41Z</time>
      </trkpt>
      <trkpt lat="44.89857" lon="6.72589">
        <ele>2276.5</ele>
        <time>2013-08-31T07:27:56Z</time>
      </trkpt>
      <trkpt lat="44.89836" lon="6.7259">
        <ele>2278.5</ele>
        <time>2013-08-31T07:28:14Z</time>
      </trkpt>
      <trkpt lat="44.89818" lon="6.72592">
        <ele>2281.4</ele>
        <time>2013-08-31T07:28:29Z</time>
      </trkpt>
      <trkpt lat="44.89791" lon="6.726">
        <ele>2284.7</ele>
        <time>2013-08-31T07:28:50Z</time>
      </trkpt>
      <trkpt lat="44.89771" lon="6.72605">
        <ele>2286.6</ele>
        <time>2013-08-31T07:29:06Z</time>
      </trkpt>
      <trkpt lat="44.89751" lon="6.72608">
        <ele>2290</ele>
        <time>2013-08-31T07:29:23Z</time>
      </trkpt>
      <trkpt lat="44.89746" lon="6.72607">
        <ele>2290.5</ele>
        <time>2013-08-31T07:29:36Z</time>
      </trkpt>
      <trkpt lat="44.89746" lon="6.72607">
        <ele>2290.5</ele>
        <time>2013-08-31T07:30:01Z</time>
      </trkpt>
      <trkpt lat="44.89735" lon="6.72608">
        <ele>2293.4</ele>
        <time>2013-08-31T07:30:19Z</time>
      </trkpt>
      <trkpt lat="44.89725" lon="6.72606">
        <ele>2294.3</ele>
        <time>2013-08-31T07:30:37Z</time>
      </trkpt>
      <trkpt lat="44.89723" lon="6.72603">
        <ele>2294.8</ele>
        <time>2013-08-31T07:30:40Z</time>
      </trkpt>
      <trkpt lat="44.897" lon="6.72581">
        <ele>2296.3</ele>
        <time>2013-08-31T07:30:56Z</time>
      </trkpt>
      <trkpt lat="44.89678" lon="6.72577">
        <ele>2298.2</ele>
        <time>2013-08-31T07:31:11Z</time>
      </trkpt>
      <trkpt lat="44.8967" lon="6.72582">
        <ele>2299.6</ele>
        <time>2013-08-31T07:31:26Z</time>
      </trkpt>
      <trkpt lat="44.89657" lon="6.72592">
        <ele>2302.5</ele>
        <time>2013-08-31T07:31:44Z</time>
      </trkpt>
      <trkpt lat="44.89639" lon="6.72595">
        <ele>2303.9</ele>
        <time>2013-08-31T07:32:03Z</time>
      </trkpt>
      <trkpt lat="44.89634" lon="6.72607">
        <ele>2305.9</ele>
        <time>2013-08-31T07:32:19Z</time>
      </trkpt>
      <trkpt lat="44.89639" lon="6.72615">
        <ele>2306.3</ele>
        <time>2013-08-31T07:32:27Z</time>
      </trkpt>
      <trkpt lat="44.89646" lon="6.72636">
        <ele>2306.8</ele>
        <time>2013-08-31T07:32:44Z</time>
      </trkpt>
      <trkpt lat="44.89654" lon="6.72653">
        <ele>2308.7</ele>
        <time>2013-08-31T07:33:00Z</time>
      </trkpt>
      <trkpt lat="44.89661" lon="6.72671">
        <ele>2311.2</ele>
        <time>2013-08-31T07:33:20Z</time>
      </trkpt>
      <trkpt lat="44.89652" lon="6.72686">
        <ele>2313.6</ele>
        <time>2013-08-31T07:33:38Z</time>
      </trkpt>
      <trkpt lat="44.89646" lon="6.72691">
        <ele>2314</ele>
        <time>2013-08-31T07:33:57Z</time>
      </trkpt>
      <trkpt lat="44.89643" lon="6.7269">
        <ele>2314</ele>
        <time>2013-08-31T07:34:26Z</time>
      </trkpt>
      <trkpt lat="44.89643" lon="6.72688">
        <ele>2314.5</ele>
        <time>2013-08-31T07:34:43Z</time>
      </trkpt>
      <trkpt lat="44.89643" lon="6.72694">
        <ele>2315</ele>
        <time>2013-08-31T07:35:01Z</time>
      </trkpt>
      <trkpt lat="44.89642" lon="6.72702">
        <ele>2315</ele>
        <time>2013-08-31T07:35:14Z</time>
      </trkpt>
      <trkpt lat="44.89641" lon="6.72704">
        <ele>2314.5</ele>
        <time>2013-08-31T07:35:15Z</time>
      </trkpt>
      <trkpt lat="44.8964" lon="6.72706">
        <ele>2315</ele>
        <time>2013-08-31T07:35:16Z</time>
      </trkpt>
      <trkpt lat="44.89639" lon="6.72708">
        <ele>2314.5</ele>
        <time>2013-08-31T07:35:17Z</time>
      </trkpt>
      <trkpt lat="44.89638" lon="6.7271">
        <ele>2315</ele>
        <time>2013-08-31T07:35:18Z</time>
      </trkpt>
      <trkpt lat="44.89637" lon="6.72711">
        <ele>2315</ele>
        <time>2013-08-31T07:35:19Z</time>
      </trkpt>
      <trkpt lat="44.89637" lon="6.72713">
        <ele>2314.5</ele>
        <time>2013-08-31T07:35:20Z</time>
      </trkpt>
      <trkpt lat="44.89636" lon="6.72714">
        <ele>2314</ele>
        <time>2013-08-31T07:35:21Z</time>
      </trkpt>
      <trkpt lat="44.89635" lon="6.72714">
        <ele>2315</ele>
        <time>2013-08-31T07:35:22Z</time>
      </trkpt>
      <trkpt lat="44.89633" lon="6.72715">
        <ele>2315</ele>
        <time>2013-08-31T07:35:23Z</time>
      </trkpt>
      <trkpt lat="44.89632" lon="6.72716">
        <ele>2314</ele>
        <time>2013-08-31T07:35:24Z</time>
      </trkpt>
      <trkpt lat="44.8963" lon="6.72718">
        <ele>2314</ele>
        <time>2013-08-31T07:35:25Z</time>
      </trkpt>
      <trkpt lat="44.89628" lon="6.7272">
        <ele>2315</ele>
        <time>2013-08-31T07:35:26Z</time>
      </trkpt>
      <trkpt lat="44.89626" lon="6.72722">
        <ele>2314</ele>
        <time>2013-08-31T07:35:27Z</time>
      </trkpt>
      <trkpt lat="44.89624" lon="6.72724">
        <ele>2314</ele>
        <time>2013-08-31T07:35:28Z</time>
      </trkpt>
      <trkpt lat="44.89622" lon="6.72726">
        <ele>2313.6</ele>
        <time>2013-08-31T07:35:29Z</time>
      </trkpt>
      <trkpt lat="44.8962" lon="6.72731">
        <ele>2313.1</ele>
        <time>2013-08-31T07:35:41Z</time>
      </trkpt>
      <trkpt lat="44.89619" lon="6.72731">
        <ele>2313.6</ele>
        <time>2013-08-31T07:36:22Z</time>
      </trkpt>
      <trkpt lat="44.89619" lon="6.72731">
        <ele>2313.1</ele>
        <time>2013-08-31T07:36:49Z</time>
      </trkpt>
      <trkpt lat="44.89606" lon="6.72744">
        <ele>2312.6</ele>
        <time>2013-08-31T07:37:08Z</time>
      </trkpt>
      <trkpt lat="44.8958" lon="6.7276">
        <ele>2313.6</ele>
        <time>2013-08-31T07:37:20Z</time>
      </trkpt>
      <trkpt lat="44.89547" lon="6.7276">
        <ele>2312.6</ele>
        <time>2013-08-31T07:37:32Z</time>
      </trkpt>
      <trkpt lat="44.89546" lon="6.72761">
        <ele>2312.1</ele>
        <time>2013-08-31T07:37:33Z</time>
      </trkpt>
      <trkpt lat="44.89544" lon="6.72763">
        <ele>2312.1</ele>
        <time>2013-08-31T07:37:34Z</time>
      </trkpt>
      <trkpt lat="44.89517" lon="6.72789">
        <ele>2310.2</ele>
        <time>2013-08-31T07:37:47Z</time>
      </trkpt>
      <trkpt lat="44.89513" lon="6.72791">
        <ele>2309.7</ele>
        <time>2013-08-31T07:37:49Z</time>
      </trkpt>
      <trkpt lat="44.89512" lon="6.72793">
        <ele>2309.7</ele>
        <time>2013-08-31T07:37:50Z</time>
      </trkpt>
      <trkpt lat="44.89513" lon="6.72795">
        <ele>2308.7</ele>
        <time>2013-08-31T07:38:02Z</time>
      </trkpt>
      <trkpt lat="44.89514" lon="6.72797">
        <ele>2308.3</ele>
        <time>2013-08-31T07:38:35Z</time>
      </trkpt>
      <trkpt lat="44.89513" lon="6.72797">
        <ele>2308.7</ele>
        <time>2013-08-31T07:38:47Z</time>
      </trkpt>
      <trkpt lat="44.89512" lon="6.72799">
        <ele>2308.7</ele>
        <time>2013-08-31T07:38:48Z</time>
      </trkpt>
      <trkpt lat="44.8951" lon="6.728">
        <ele>2308.3</ele>
        <time>2013-08-31T07:38:49Z</time>
      </trkpt>
      <trkpt lat="44.89508" lon="6.72802">
        <ele>2308.3</ele>
        <time>2013-08-31T07:38:50Z</time>
      </trkpt>
      <trkpt lat="44.89506" lon="6.72803">
        <ele>2308.3</ele>
        <time>2013-08-31T07:38:51Z</time>
      </trkpt>
      <trkpt lat="44.89504" lon="6.72805">
        <ele>2307.8</ele>
        <time>2013-08-31T07:38:52Z</time>
      </trkpt>
      <trkpt lat="44.89503" lon="6.72807">
        <ele>2307.3</ele>
        <time>2013-08-31T07:38:53Z</time>
      </trkpt>
      <trkpt lat="44.89502" lon="6.72811">
        <ele>2307.3</ele>
        <time>2013-08-31T07:38:54Z</time>
      </trkpt>
      <trkpt lat="44.89502" lon="6.72815">
        <ele>2306.8</ele>
        <time>2013-08-31T07:38:55Z</time>
      </trkpt>
      <trkpt lat="44.89503" lon="6.72819">
        <ele>2306.3</ele>
        <time>2013-08-31T07:38:56Z</time>
      </trkpt>
      <trkpt lat="44.89502" lon="6.72824">
        <ele>2305.9</ele>
        <time>2013-08-31T07:38:57Z</time>
      </trkpt>
      <trkpt lat="44.895" lon="6.7283">
        <ele>2305.4</ele>
        <time>2013-08-31T07:38:58Z</time>
      </trkpt>
      <trkpt lat="44.89497" lon="6.72836">
        <ele>2303.9</ele>
        <time>2013-08-31T07:38:59Z</time>
      </trkpt>
      <trkpt lat="44.89492" lon="6.72841">
        <ele>2303.9</ele>
        <time>2013-08-31T07:39:00Z</time>
      </trkpt>
      <trkpt lat="44.89487" lon="6.72845">
        <ele>2303</ele>
        <time>2013-08-31T07:39:01Z</time>
      </trkpt>
      <trkpt lat="44.89483" lon="6.7285">
        <ele>2303.5</ele>
        <time>2013-08-31T07:39:02Z</time>
      </trkpt>
      <trkpt lat="44.8948" lon="6.72856">
        <ele>2303</ele>
        <time>2013-08-31T07:39:03Z</time>
      </trkpt>
      <trkpt lat="44.89477" lon="6.72862">
        <ele>2303.5</ele>
        <time>2013-08-31T07:39:04Z</time>
      </trkpt>
      <trkpt lat="44.89474" lon="6.72866">
        <ele>2303</ele>
        <time>2013-08-31T07:39:05Z</time>
      </trkpt>
      <trkpt lat="44.89471" lon="6.72869">
        <ele>2303</ele>
        <time>2013-08-31T07:39:06Z</time>
      </trkpt>
      <trkpt lat="44.89469" lon="6.72871">
        <ele>2303.5</ele>
        <time>2013-08-31T07:39:07Z</time>
      </trkpt>
      <trkpt lat="44.89467" lon="6.72873">
        <ele>2303</ele>
        <time>2013-08-31T07:39:08Z</time>
      </trkpt>
      <trkpt lat="44.89466" lon="6.72875">
        <ele>2303</ele>
        <time>2013-08-31T07:39:09Z</time>
      </trkpt>
      <trkpt lat="44.89466" lon="6.72877">
        <ele>2303</ele>
        <time>2013-08-31T07:39:10Z</time>
      </trkpt>
      <trkpt lat="44.89467" lon="6.72878">
        <ele>2302.5</ele>
        <time>2013-08-31T07:39:23Z</time>
      </trkpt>
      <trkpt lat="44.89467" lon="6.72879">
        <ele>2302.5</ele>
        <time>2013-08-31T07:39:32Z</time>
      </trkpt>
      <trkpt lat="44.89467" lon="6.72881">
        <ele>2302.5</ele>
        <time>2013-08-31T07:39:33Z</time>
      </trkpt>
      <trkpt lat="44.89466" lon="6.72886">
        <ele>2301.5</ele>
        <time>2013-08-31T07:39:36Z</time>
      </trkpt>
      <trkpt lat="44.89466" lon="6.72888">
        <ele>2301.5</ele>
        <time>2013-08-31T07:39:37Z</time>
      </trkpt>
      <trkpt lat="44.89467" lon="6.72891">
        <ele>2302</ele>
        <time>2013-08-31T07:39:38Z</time>
      </trkpt>
      <trkpt lat="44.89468" lon="6.72894">
        <ele>2302</ele>
        <time>2013-08-31T07:39:39Z</time>
      </trkpt>
      <trkpt lat="44.89469" lon="6.72897">
        <ele>2301.1</ele>
        <time>2013-08-31T07:39:40Z</time>
      </trkpt>
      <trkpt lat="44.8947" lon="6.72901">
        <ele>2300.6</ele>
        <time>2013-08-31T07:39:41Z</time>
      </trkpt>
      <trkpt lat="44.89472" lon="6.72905">
        <ele>2301.5</ele>
        <time>2013-08-31T07:39:42Z</time>
      </trkpt>
      <trkpt lat="44.89473" lon="6.7291">
        <ele>2300.6</ele>
        <time>2013-08-31T07:39:43Z</time>
      </trkpt>
      <trkpt lat="44.89481" lon="6.72927">
        <ele>2299.1</ele>
        <time>2013-08-31T07:39:47Z</time>
      </trkpt>
      <trkpt lat="44.89484" lon="6.7293">
        <ele>2298.2</ele>
        <time>2013-08-31T07:39:48Z</time>
      </trkpt>
      <trkpt lat="44.89485" lon="6.72934">
        <ele>2296.7</ele>
        <time>2013-08-31T07:39:49Z</time>
      </trkpt>
      <trkpt lat="44.89484" lon="6.72938">
        <ele>2296.7</ele>
        <time>2013-08-31T07:39:50Z</time>
      </trkpt>
      <trkpt lat="44.89481" lon="6.7294">
        <ele>2296.3</ele>
        <time>2013-08-31T07:39:51Z</time>
      </trkpt>
      <trkpt lat="44.89477" lon="6.72941">
        <ele>2296.3</ele>
        <time>2013-08-31T07:39:52Z</time>
      </trkpt>
      <trkpt lat="44.89461" lon="6.72944">
        <ele>2295.3</ele>
        <time>2013-08-31T07:39:57Z</time>
      </trkpt>
      <trkpt lat="44.89459" lon="6.72949">
        <ele>2295.3</ele>
        <time>2013-08-31T07:39:58Z</time>
      </trkpt>
      <trkpt lat="44.8946" lon="6.72956">
        <ele>2294.8</ele>
        <time>2013-08-31T07:39:59Z</time>
      </trkpt>
      <trkpt lat="44.89462" lon="6.72964">
        <ele>2293.8</ele>
        <time>2013-08-31T07:40:00Z</time>
      </trkpt>
      <trkpt lat="44.89465" lon="6.72971">
        <ele>2292.4</ele>
        <time>2013-08-31T07:40:01Z</time>
      </trkpt>
      <trkpt lat="44.89468" lon="6.72979">
        <ele>2292.9</ele>
        <time>2013-08-31T07:40:02Z</time>
      </trkpt>
      <trkpt lat="44.89472" lon="6.73003">
        <ele>2294.8</ele>
        <time>2013-08-31T07:40:09Z</time>
      </trkpt>
      <trkpt lat="44.89458" lon="6.73052">
        <ele>2292.9</ele>
        <time>2013-08-31T07:40:21Z</time>
      </trkpt>
      <trkpt lat="44.89459" lon="6.73104">
        <ele>2292.9</ele>
        <time>2013-08-31T07:40:32Z</time>
      </trkpt>
      <trkpt lat="44.89459" lon="6.73134">
        <ele>2292.9</ele>
        <time>2013-08-31T07:40:39Z</time>
      </trkpt>
      <trkpt lat="44.8946" lon="6.7314">
        <ele>2291.4</ele>
        <time>2013-08-31T07:40:40Z</time>
      </trkpt>
      <trkpt lat="44.89461" lon="6.73146">
        <ele>2291.9</ele>
        <time>2013-08-31T07:40:41Z</time>
      </trkpt>
      <trkpt lat="44.89464" lon="6.73151">
        <ele>2291</ele>
        <time>2013-08-31T07:40:42Z</time>
      </trkpt>
      <trkpt lat="44.89466" lon="6.73157">
        <ele>2290.5</ele>
        <time>2013-08-31T07:40:43Z</time>
      </trkpt>
      <trkpt lat="44.89468" lon="6.73164">
        <ele>2290</ele>
        <time>2013-08-31T07:40:44Z</time>
      </trkpt>
      <trkpt lat="44.89469" lon="6.73173">
        <ele>2288.6</ele>
        <time>2013-08-31T07:40:45Z</time>
      </trkpt>
      <trkpt lat="44.89469" lon="6.73182">
        <ele>2289</ele>
        <time>2013-08-31T07:40:46Z</time>
      </trkpt>
      <trkpt lat="44.8947" lon="6.73192">
        <ele>2288.1</ele>
        <time>2013-08-31T07:40:47Z</time>
      </trkpt>
      <trkpt lat="44.89471" lon="6.732">
        <ele>2288.6</ele>
        <time>2013-08-31T07:40:48Z</time>
      </trkpt>
      <trkpt lat="44.89475" lon="6.73229">
        <ele>2289.5</ele>
        <time>2013-08-31T07:40:54Z</time>
      </trkpt>
      <trkpt lat="44.89481" lon="6.73251">
        <ele>2288.1</ele>
        <time>2013-08-31T07:41:03Z</time>
      </trkpt>
      <trkpt lat="44.89481" lon="6.73252">
        <ele>2287.1</ele>
        <time>2013-08-31T07:41:13Z</time>
      </trkpt>
      <trkpt lat="44.89481" lon="6.73252">
        <ele>2288.6</ele>
        <time>2013-08-31T07:41:15Z</time>
      </trkpt>
      <trkpt lat="44.89482" lon="6.73251">
        <ele>2289</ele>
        <time>2013-08-31T07:41:36Z</time>
      </trkpt>
      <trkpt lat="44.89482" lon="6.73251">
        <ele>2289</ele>
        <time>2013-08-31T07:41:48Z</time>
      </trkpt>
      <trkpt lat="44.89483" lon="6.73252">
        <ele>2289</ele>
        <time>2013-08-31T07:41:49Z</time>
      </trkpt>
      <trkpt lat="44.89484" lon="6.73254">
        <ele>2289</ele>
        <time>2013-08-31T07:41:50Z</time>
      </trkpt>
      <trkpt lat="44.89485" lon="6.73255">
        <ele>2289</ele>
        <time>2013-08-31T07:41:51Z</time>
      </trkpt>
      <trkpt lat="44.89486" lon="6.73257">
        <ele>2288.6</ele>
        <time>2013-08-31T07:41:52Z</time>
      </trkpt>
      <trkpt lat="44.89487" lon="6.7326">
        <ele>2288.6</ele>
        <time>2013-08-31T07:41:53Z</time>
      </trkpt>
      <trkpt lat="44.895" lon="6.73304">
        <ele>2288.1</ele>
        <time>2013-08-31T07:42:06Z</time>
      </trkpt>
      <trkpt lat="44.89502" lon="6.7331">
        <ele>2287.6</ele>
        <time>2013-08-31T07:42:07Z</time>
      </trkpt>
      <trkpt lat="44.89504" lon="6.73316">
        <ele>2287.6</ele>
        <time>2013-08-31T07:42:08Z</time>
      </trkpt>
      <trkpt lat="44.89505" lon="6.73321">
        <ele>2287.1</ele>
        <time>2013-08-31T07:42:09Z</time>
      </trkpt>
      <trkpt lat="44.89509" lon="6.73333">
        <ele>2286.2</ele>
        <time>2013-08-31T07:42:18Z</time>
      </trkpt>
      <trkpt lat="44.89511" lon="6.73333">
        <ele>2287.1</ele>
        <time>2013-08-31T07:42:45Z</time>
      </trkpt>
      <trkpt lat="44.89513" lon="6.73344">
        <ele>2287.1</ele>
        <time>2013-08-31T07:43:04Z</time>
      </trkpt>
      <trkpt lat="44.89513" lon="6.73345">
        <ele>2287.6</ele>
        <time>2013-08-31T07:43:05Z</time>
      </trkpt>
      <trkpt lat="44.89513" lon="6.73346">
        <ele>2288.1</ele>
        <time>2013-08-31T07:43:06Z</time>
      </trkpt>
      <trkpt lat="44.89513" lon="6.73349">
        <ele>2287.6</ele>
        <time>2013-08-31T07:43:08Z</time>
      </trkpt>
      <trkpt lat="44.89514" lon="6.7337">
        <ele>2290.5</ele>
        <time>2013-08-31T07:43:27Z</time>
      </trkpt>
      <trkpt lat="44.89516" lon="6.73386">
        <ele>2291.9</ele>
        <time>2013-08-31T07:43:45Z</time>
      </trkpt>
      <trkpt lat="44.89516" lon="6.73401">
        <ele>2293.4</ele>
        <time>2013-08-31T07:44:02Z</time>
      </trkpt>
      <trkpt lat="44.89518" lon="6.73418">
        <ele>2296.3</ele>
        <time>2013-08-31T07:44:21Z</time>
      </trkpt>
      <trkpt lat="44.89518" lon="6.73417">
        <ele>2296.3</ele>
        <time>2013-08-31T07:44:40Z</time>
      </trkpt>
      <trkpt lat="44.89529" lon="6.73409">
        <ele>2298.7</ele>
        <time>2013-08-31T07:44:58Z</time>
      </trkpt>
      <trkpt lat="44.89541" lon="6.73399">
        <ele>2301.1</ele>
        <time>2013-08-31T07:45:17Z</time>
      </trkpt>
      <trkpt lat="44.89548" lon="6.73403">
        <ele>2303</ele>
        <time>2013-08-31T07:45:34Z</time>
      </trkpt>
      <trkpt lat="44.89551" lon="6.73416">
        <ele>2304.4</ele>
        <time>2013-08-31T07:45:51Z</time>
      </trkpt>
      <trkpt lat="44.89552" lon="6.73432">
        <ele>2307.3</ele>
        <time>2013-08-31T07:46:07Z</time>
      </trkpt>
      <trkpt lat="44.89554" lon="6.73455">
        <ele>2309.7</ele>
        <time>2013-08-31T07:46:28Z</time>
      </trkpt>
      <trkpt lat="44.89554" lon="6.73461">
        <ele>2310.7</ele>
        <time>2013-08-31T07:46:47Z</time>
      </trkpt>
      <trkpt lat="44.89555" lon="6.73472">
        <ele>2311.6</ele>
        <time>2013-08-31T07:47:05Z</time>
      </trkpt>
      <trkpt lat="44.89558" lon="6.73483">
        <ele>2312.1</ele>
        <time>2013-08-31T07:47:20Z</time>
      </trkpt>
      <trkpt lat="44.89564" lon="6.73506">
        <ele>2315.5</ele>
        <time>2013-08-31T07:47:32Z</time>
      </trkpt>
      <trkpt lat="44.89566" lon="6.73545">
        <ele>2317.9</ele>
        <time>2013-08-31T07:47:53Z</time>
      </trkpt>
      <trkpt lat="44.89562" lon="6.73579">
        <ele>2319.8</ele>
        <time>2013-08-31T07:48:09Z</time>
      </trkpt>
      <trkpt lat="44.89553" lon="6.73619">
        <ele>2321.7</ele>
        <time>2013-08-31T07:48:28Z</time>
      </trkpt>
      <trkpt lat="44.89543" lon="6.73665">
        <ele>2323.6</ele>
        <time>2013-08-31T07:48:48Z</time>
      </trkpt>
      <trkpt lat="44.8954" lon="6.73683">
        <ele>2325.6</ele>
        <time>2013-08-31T07:48:57Z</time>
      </trkpt>
      <trkpt lat="44.89541" lon="6.73685">
        <ele>2325.1</ele>
        <time>2013-08-31T07:49:10Z</time>
      </trkpt>
      <trkpt lat="44.8954" lon="6.73687">
        <ele>2325.6</ele>
        <time>2013-08-31T07:49:49Z</time>
      </trkpt>
      <trkpt lat="44.8954" lon="6.73687">
        <ele>2325.6</ele>
        <time>2013-08-31T07:50:30Z</time>
      </trkpt>
      <trkpt lat="44.8954" lon="6.73687">
        <ele>2326.1</ele>
        <time>2013-08-31T07:51:12Z</time>
      </trkpt>
      <trkpt lat="44.89542" lon="6.73686">
        <ele>2325.6</ele>
        <time>2013-08-31T07:51:39Z</time>
      </trkpt>
      <trkpt lat="44.89542" lon="6.73685">
        <ele>2326.1</ele>
        <time>2013-08-31T07:52:18Z</time>
      </trkpt>
      <trkpt lat="44.89543" lon="6.73685">
        <ele>2325.6</ele>
        <time>2013-08-31T07:52:45Z</time>
      </trkpt>
      <trkpt lat="44.89542" lon="6.73691">
        <ele>2326.1</ele>
        <time>2013-08-31T07:53:08Z</time>
      </trkpt>
      <trkpt lat="44.89542" lon="6.73694">
        <ele>2326.5</ele>
        <time>2013-08-31T07:53:18Z</time>
      </trkpt>
      <trkpt lat="44.89543" lon="6.73696">
        <ele>2326.5</ele>
        <time>2013-08-31T07:53:19Z</time>
      </trkpt>
      <trkpt lat="44.89543" lon="6.73698">
        <ele>2326.1</ele>
        <time>2013-08-31T07:53:20Z</time>
      </trkpt>
      <trkpt lat="44.89542" lon="6.73701">
        <ele>2326.1</ele>
        <time>2013-08-31T07:53:21Z</time>
      </trkpt>
      <trkpt lat="44.89542" lon="6.73703">
        <ele>2326.5</ele>
        <time>2013-08-31T07:53:22Z</time>
      </trkpt>
      <trkpt lat="44.89542" lon="6.73706">
        <ele>2327</ele>
        <time>2013-08-31T07:53:23Z</time>
      </trkpt>
      <trkpt lat="44.89542" lon="6.73708">
        <ele>2326.5</ele>
        <time>2013-08-31T07:53:24Z</time>
      </trkpt>
      <trkpt lat="44.89541" lon="6.73739">
        <ele>2328</ele>
        <time>2013-08-31T07:53:43Z</time>
      </trkpt>
      <trkpt lat="44.89553" lon="6.7377">
        <ele>2328</ele>
        <time>2013-08-31T07:53:54Z</time>
      </trkpt>
      <trkpt lat="44.89554" lon="6.73776">
        <ele>2327.5</ele>
        <time>2013-08-31T07:53:55Z</time>
      </trkpt>
      <trkpt lat="44.89554" lon="6.73782">
        <ele>2327</ele>
        <time>2013-08-31T07:53:56Z</time>
      </trkpt>
      <trkpt lat="44.89555" lon="6.73787">
        <ele>2328</ele>
        <time>2013-08-31T07:53:57Z</time>
      </trkpt>
      <trkpt lat="44.89555" lon="6.73838">
        <ele>2327</ele>
        <time>2013-08-31T07:54:07Z</time>
      </trkpt>
      <trkpt lat="44.89554" lon="6.73845">
        <ele>2326.1</ele>
        <time>2013-08-31T07:54:08Z</time>
      </trkpt>
      <trkpt lat="44.89552" lon="6.73861">
        <ele>2326.1</ele>
        <time>2013-08-31T07:54:10Z</time>
      </trkpt>
      <trkpt lat="44.89552" lon="6.73869">
        <ele>2324.6</ele>
        <time>2013-08-31T07:54:11Z</time>
      </trkpt>
      <trkpt lat="44.89551" lon="6.73878">
        <ele>2324.6</ele>
        <time>2013-08-31T07:54:12Z</time>
      </trkpt>
      <trkpt lat="44.8955" lon="6.73886">
        <ele>2324.1</ele>
        <time>2013-08-31T07:54:13Z</time>
      </trkpt>
      <trkpt lat="44.89545" lon="6.73962">
        <ele>2321.7</ele>
        <time>2013-08-31T07:54:22Z</time>
      </trkpt>
      <trkpt lat="44.89546" lon="6.73972">
        <ele>2321.2</ele>
        <time>2013-08-31T07:54:23Z</time>
      </trkpt>
      <trkpt lat="44.89547" lon="6.73982">
        <ele>2320.3</ele>
        <time>2013-08-31T07:54:24Z</time>
      </trkpt>
      <trkpt lat="44.89548" lon="6.74004">
        <ele>2321.2</ele>
        <time>2013-08-31T07:54:27Z</time>
      </trkpt>
      <trkpt lat="44.89549" lon="6.74008">
        <ele>2322.2</ele>
        <time>2013-08-31T07:54:28Z</time>
      </trkpt>
      <trkpt lat="44.89549" lon="6.74011">
        <ele>2322.7</ele>
        <time>2013-08-31T07:54:29Z</time>
      </trkpt>
      <trkpt lat="44.89553" lon="6.7405">
        <ele>2323.6</ele>
        <time>2013-08-31T07:54:40Z</time>
      </trkpt>
      <trkpt lat="44.89557" lon="6.74078">
        <ele>2325.1</ele>
        <time>2013-08-31T07:54:51Z</time>
      </trkpt>
      <trkpt lat="44.89557" lon="6.74081">
        <ele>2325.6</ele>
        <time>2013-08-31T07:54:52Z</time>
      </trkpt>
      <trkpt lat="44.89559" lon="6.7412">
        <ele>2328</ele>
        <time>2013-08-31T07:55:08Z</time>
      </trkpt>
      <trkpt lat="44.89562" lon="6.74175">
        <ele>2328</ele>
        <time>2013-08-31T07:55:22Z</time>
      </trkpt>
      <trkpt lat="44.89553" lon="6.74231">
        <ele>2328.5</ele>
        <time>2013-08-31T07:55:37Z</time>
      </trkpt>
      <trkpt lat="44.89536" lon="6.74272">
        <ele>2329.4</ele>
        <time>2013-08-31T07:55:49Z</time>
      </trkpt>
      <trkpt lat="44.89521" lon="6.74324">
        <ele>2329.4</ele>
        <time>2013-08-31T07:56:03Z</time>
      </trkpt>
      <trkpt lat="44.89499" lon="6.74367">
        <ele>2333.3</ele>
        <time>2013-08-31T07:56:19Z</time>
      </trkpt>
      <trkpt lat="44.89475" lon="6.74415">
        <ele>2335.2</ele>
        <time>2013-08-31T07:56:38Z</time>
      </trkpt>
      <trkpt lat="44.89464" lon="6.74459">
        <ele>2338.1</ele>
        <time>2013-08-31T07:56:53Z</time>
      </trkpt>
      <trkpt lat="44.89475" lon="6.74492">
        <ele>2340.5</ele>
        <time>2013-08-31T07:57:07Z</time>
      </trkpt>
      <trkpt lat="44.89479" lon="6.74528">
        <ele>2343.8</ele>
        <time>2013-08-31T07:57:24Z</time>
      </trkpt>
      <trkpt lat="44.89478" lon="6.74566">
        <ele>2342.9</ele>
        <time>2013-08-31T07:57:36Z</time>
      </trkpt>
      <trkpt lat="44.89486" lon="6.74589">
        <ele>2341.9</ele>
        <time>2013-08-31T07:57:41Z</time>
      </trkpt>
      <trkpt lat="44.89488" lon="6.74596">
        <ele>2341</ele>
        <time>2013-08-31T07:57:42Z</time>
      </trkpt>
      <trkpt lat="44.89489" lon="6.74603">
        <ele>2341</ele>
        <time>2013-08-31T07:57:43Z</time>
      </trkpt>
      <trkpt lat="44.89493" lon="6.74649">
        <ele>2341.4</ele>
        <time>2013-08-31T07:57:53Z</time>
      </trkpt>
      <trkpt lat="44.89495" lon="6.74659">
        <ele>2341</ele>
        <time>2013-08-31T07:57:55Z</time>
      </trkpt>
      <trkpt lat="44.89498" lon="6.74663">
        <ele>2340.5</ele>
        <time>2013-08-31T07:57:56Z</time>
      </trkpt>
      <trkpt lat="44.89504" lon="6.74671">
        <ele>2340.5</ele>
        <time>2013-08-31T07:57:58Z</time>
      </trkpt>
      <trkpt lat="44.89512" lon="6.74684">
        <ele>2340</ele>
        <time>2013-08-31T07:58:01Z</time>
      </trkpt>
      <trkpt lat="44.89513" lon="6.7469">
        <ele>2339.5</ele>
        <time>2013-08-31T07:58:02Z</time>
      </trkpt>
      <trkpt lat="44.89513" lon="6.74697">
        <ele>2338.5</ele>
        <time>2013-08-31T07:58:03Z</time>
      </trkpt>
      <trkpt lat="44.89514" lon="6.74712">
        <ele>2337.1</ele>
        <time>2013-08-31T07:58:05Z</time>
      </trkpt>
      <trkpt lat="44.89516" lon="6.7472">
        <ele>2336.1</ele>
        <time>2013-08-31T07:58:06Z</time>
      </trkpt>
      <trkpt lat="44.89518" lon="6.74727">
        <ele>2335.7</ele>
        <time>2013-08-31T07:58:07Z</time>
      </trkpt>
      <trkpt lat="44.89519" lon="6.74735">
        <ele>2335.2</ele>
        <time>2013-08-31T07:58:08Z</time>
      </trkpt>
      <trkpt lat="44.8952" lon="6.74741">
        <ele>2335.2</ele>
        <time>2013-08-31T07:58:09Z</time>
      </trkpt>
      <trkpt lat="44.89521" lon="6.74745">
        <ele>2334.7</ele>
        <time>2013-08-31T07:58:10Z</time>
      </trkpt>
      <trkpt lat="44.89522" lon="6.7475">
        <ele>2334.7</ele>
        <time>2013-08-31T07:58:11Z</time>
      </trkpt>
      <trkpt lat="44.89523" lon="6.74754">
        <ele>2334.2</ele>
        <time>2013-08-31T07:58:12Z</time>
      </trkpt>
      <trkpt lat="44.89538" lon="6.74773">
        <ele>2334.7</ele>
        <time>2013-08-31T07:58:23Z</time>
      </trkpt>
      <trkpt lat="44.89539" lon="6.74773">
        <ele>2334.2</ele>
        <time>2013-08-31T07:58:56Z</time>
      </trkpt>
      <trkpt lat="44.8954" lon="6.74774">
        <ele>2333.3</ele>
        <time>2013-08-31T07:58:57Z</time>
      </trkpt>
      <trkpt lat="44.89543" lon="6.74775">
        <ele>2334.2</ele>
        <time>2013-08-31T07:58:58Z</time>
      </trkpt>
      <trkpt lat="44.89546" lon="6.74777">
        <ele>2332.8</ele>
        <time>2013-08-31T07:58:59Z</time>
      </trkpt>
      <trkpt lat="44.89549" lon="6.7478">
        <ele>2332.3</ele>
        <time>2013-08-31T07:59:00Z</time>
      </trkpt>
      <trkpt lat="44.89551" lon="6.74782">
        <ele>2332.8</ele>
        <time>2013-08-31T07:59:01Z</time>
      </trkpt>
      <trkpt lat="44.89553" lon="6.74786">
        <ele>2332.8</ele>
        <time>2013-08-31T07:59:02Z</time>
      </trkpt>
      <trkpt lat="44.89554" lon="6.74788">
        <ele>2332.8</ele>
        <time>2013-08-31T07:59:03Z</time>
      </trkpt>
      <trkpt lat="44.89556" lon="6.7479">
        <ele>2331.8</ele>
        <time>2013-08-31T07:59:04Z</time>
      </trkpt>
      <trkpt lat="44.89559" lon="6.74795">
        <ele>2331.3</ele>
        <time>2013-08-31T07:59:06Z</time>
      </trkpt>
      <trkpt lat="44.8956" lon="6.74798">
        <ele>2331.3</ele>
        <time>2013-08-31T07:59:07Z</time>
      </trkpt>
      <trkpt lat="44.89559" lon="6.74802">
        <ele>2331.3</ele>
        <time>2013-08-31T07:59:08Z</time>
      </trkpt>
      <trkpt lat="44.89558" lon="6.74805">
        <ele>2330.9</ele>
        <time>2013-08-31T07:59:09Z</time>
      </trkpt>
      <trkpt lat="44.8955" lon="6.74829">
        <ele>2328</ele>
        <time>2013-08-31T07:59:17Z</time>
      </trkpt>
      <trkpt lat="44.89552" lon="6.7483">
        <ele>2327</ele>
        <time>2013-08-31T07:59:18Z</time>
      </trkpt>
      <trkpt lat="44.89554" lon="6.7483">
        <ele>2327</ele>
        <time>2013-08-31T07:59:19Z</time>
      </trkpt>
      <trkpt lat="44.8957" lon="6.74832">
        <ele>2323.6</ele>
        <time>2013-08-31T07:59:24Z</time>
      </trkpt>
      <trkpt lat="44.89586" lon="6.74837">
        <ele>2320.8</ele>
        <time>2013-08-31T07:59:29Z</time>
      </trkpt>
      <trkpt lat="44.89587" lon="6.74839">
        <ele>2320.8</ele>
        <time>2013-08-31T07:59:30Z</time>
      </trkpt>
      <trkpt lat="44.89588" lon="6.74843">
        <ele>2320.8</ele>
        <time>2013-08-31T07:59:31Z</time>
      </trkpt>
      <trkpt lat="44.89588" lon="6.74846">
        <ele>2318.8</ele>
        <time>2013-08-31T07:59:32Z</time>
      </trkpt>
      <trkpt lat="44.89587" lon="6.7485">
        <ele>2319.3</ele>
        <time>2013-08-31T07:59:33Z</time>
      </trkpt>
      <trkpt lat="44.89584" lon="6.74854">
        <ele>2318.8</ele>
        <time>2013-08-31T07:59:34Z</time>
      </trkpt>
      <trkpt lat="44.89583" lon="6.74856">
        <ele>2318.4</ele>
        <time>2013-08-31T07:59:35Z</time>
      </trkpt>
      <trkpt lat="44.89582" lon="6.74858">
        <ele>2318.4</ele>
        <time>2013-08-31T07:59:49Z</time>
      </trkpt>
      <trkpt lat="44.89578" lon="6.74875">
        <ele>2316.4</ele>
        <time>2013-08-31T07:59:58Z</time>
      </trkpt>
      <trkpt lat="44.89577" lon="6.74882">
        <ele>2315</ele>
        <time>2013-08-31T08:00:00Z</time>
      </trkpt>
      <trkpt lat="44.89572" lon="6.74908">
        <ele>2312.1</ele>
        <time>2013-08-31T08:00:06Z</time>
      </trkpt>
      <trkpt lat="44.89576" lon="6.74924">
        <ele>2308.7</ele>
        <time>2013-08-31T08:00:09Z</time>
      </trkpt>
      <trkpt lat="44.89575" lon="6.74941">
        <ele>2306.3</ele>
        <time>2013-08-31T08:00:13Z</time>
      </trkpt>
      <trkpt lat="44.89577" lon="6.74947">
        <ele>2305.4</ele>
        <time>2013-08-31T08:00:15Z</time>
      </trkpt>
      <trkpt lat="44.89578" lon="6.74949">
        <ele>2304.4</ele>
        <time>2013-08-31T08:00:16Z</time>
      </trkpt>
      <trkpt lat="44.89579" lon="6.74948">
        <ele>2304.4</ele>
        <time>2013-08-31T08:00:27Z</time>
      </trkpt>
      <trkpt lat="44.89578" lon="6.7495">
        <ele>2303.9</ele>
        <time>2013-08-31T08:00:48Z</time>
      </trkpt>
      <trkpt lat="44.89577" lon="6.7495">
        <ele>2305.4</ele>
        <time>2013-08-31T08:01:14Z</time>
      </trkpt>
      <trkpt lat="44.89577" lon="6.74952">
        <ele>2304.9</ele>
        <time>2013-08-31T08:01:20Z</time>
      </trkpt>
      <trkpt lat="44.89571" lon="6.74955">
        <ele>2305.4</ele>
        <time>2013-08-31T08:01:33Z</time>
      </trkpt>
      <trkpt lat="44.89545" lon="6.74985">
        <ele>2302</ele>
        <time>2013-08-31T08:01:45Z</time>
      </trkpt>
      <trkpt lat="44.89545" lon="6.74989">
        <ele>2301.5</ele>
        <time>2013-08-31T08:01:46Z</time>
      </trkpt>
      <trkpt lat="44.89544" lon="6.75013">
        <ele>2298.7</ele>
        <time>2013-08-31T08:01:51Z</time>
      </trkpt>
      <trkpt lat="44.89545" lon="6.75028">
        <ele>2296.7</ele>
        <time>2013-08-31T08:01:55Z</time>
      </trkpt>
      <trkpt lat="44.89544" lon="6.75029">
        <ele>2296.7</ele>
        <time>2013-08-31T08:01:56Z</time>
      </trkpt>
      <trkpt lat="44.89543" lon="6.75029">
        <ele>2296.3</ele>
        <time>2013-08-31T08:01:57Z</time>
      </trkpt>
      <trkpt lat="44.89541" lon="6.75026">
        <ele>2296.3</ele>
        <time>2013-08-31T08:01:58Z</time>
      </trkpt>
      <trkpt lat="44.8954" lon="6.75023">
        <ele>2296.3</ele>
        <time>2013-08-31T08:01:59Z</time>
      </trkpt>
      <trkpt lat="44.89537" lon="6.75019">
        <ele>2294.3</ele>
        <time>2013-08-31T08:02:00Z</time>
      </trkpt>
      <trkpt lat="44.89534" lon="6.75017">
        <ele>2294.8</ele>
        <time>2013-08-31T08:02:01Z</time>
      </trkpt>
      <trkpt lat="44.89531" lon="6.75017">
        <ele>2293.4</ele>
        <time>2013-08-31T08:02:02Z</time>
      </trkpt>
      <trkpt lat="44.89527" lon="6.75018">
        <ele>2292.9</ele>
        <time>2013-08-31T08:02:03Z</time>
      </trkpt>
      <trkpt lat="44.89523" lon="6.7502">
        <ele>2292.9</ele>
        <time>2013-08-31T08:02:04Z</time>
      </trkpt>
      <trkpt lat="44.89519" lon="6.75023">
        <ele>2291</ele>
        <time>2013-08-31T08:02:05Z</time>
      </trkpt>
      <trkpt lat="44.89516" lon="6.75028">
        <ele>2290.5</ele>
        <time>2013-08-31T08:02:06Z</time>
      </trkpt>
      <trkpt lat="44.89513" lon="6.75032">
        <ele>2290</ele>
        <time>2013-08-31T08:02:07Z</time>
      </trkpt>
      <trkpt lat="44.89503" lon="6.75049">
        <ele>2289</ele>
        <time>2013-08-31T08:02:11Z</time>
      </trkpt>
      <trkpt lat="44.89502" lon="6.75053">
        <ele>2288.6</ele>
        <time>2013-08-31T08:02:12Z</time>
      </trkpt>
      <trkpt lat="44.89503" lon="6.7506">
        <ele>2287.1</ele>
        <time>2013-08-31T08:02:20Z</time>
      </trkpt>
      <trkpt lat="44.89505" lon="6.75064">
        <ele>2287.1</ele>
        <time>2013-08-31T08:02:47Z</time>
      </trkpt>
      <trkpt lat="44.89504" lon="6.75062">
        <ele>2287.1</ele>
        <time>2013-08-31T08:03:19Z</time>
      </trkpt>
      <trkpt lat="44.89496" lon="6.75079">
        <ele>2283.8</ele>
        <time>2013-08-31T08:03:39Z</time>
      </trkpt>
      <trkpt lat="44.89494" lon="6.75085">
        <ele>2282.8</ele>
        <time>2013-08-31T08:03:42Z</time>
      </trkpt>
      <trkpt lat="44.89492" lon="6.75098">
        <ele>2280.4</ele>
        <time>2013-08-31T08:03:47Z</time>
      </trkpt>
      <trkpt lat="44.89491" lon="6.75103">
        <ele>2279.9</ele>
        <time>2013-08-31T08:03:48Z</time>
      </trkpt>
      <trkpt lat="44.89489" lon="6.75108">
        <ele>2279.9</ele>
        <time>2013-08-31T08:03:49Z</time>
      </trkpt>
      <trkpt lat="44.8948" lon="6.75126">
        <ele>2276.1</ele>
        <time>2013-08-31T08:03:52Z</time>
      </trkpt>
      <trkpt lat="44.89476" lon="6.75129">
        <ele>2275.6</ele>
        <time>2013-08-31T08:03:53Z</time>
      </trkpt>
      <trkpt lat="44.89472" lon="6.75132">
        <ele>2275.1</ele>
        <time>2013-08-31T08:03:54Z</time>
      </trkpt>
      <trkpt lat="44.89462" lon="6.75136">
        <ele>2273.7</ele>
        <time>2013-08-31T08:03:56Z</time>
      </trkpt>
      <trkpt lat="44.89458" lon="6.7514">
        <ele>2273.7</ele>
        <time>2013-08-31T08:03:57Z</time>
      </trkpt>
      <trkpt lat="44.89456" lon="6.75144">
        <ele>2272.7</ele>
        <time>2013-08-31T08:03:58Z</time>
      </trkpt>
      <trkpt lat="44.89449" lon="6.75163">
        <ele>2270.8</ele>
        <time>2013-08-31T08:04:01Z</time>
      </trkpt>
      <trkpt lat="44.89446" lon="6.75167">
        <ele>2269.8</ele>
        <time>2013-08-31T08:04:02Z</time>
      </trkpt>
      <trkpt lat="44.89443" lon="6.7517">
        <ele>2269.8</ele>
        <time>2013-08-31T08:04:03Z</time>
      </trkpt>
      <trkpt lat="44.89441" lon="6.75173">
        <ele>2268.9</ele>
        <time>2013-08-31T08:04:04Z</time>
      </trkpt>
      <trkpt lat="44.8944" lon="6.75175">
        <ele>2268.4</ele>
        <time>2013-08-31T08:04:05Z</time>
      </trkpt>
      <trkpt lat="44.89438" lon="6.75177">
        <ele>2267.9</ele>
        <time>2013-08-31T08:04:06Z</time>
      </trkpt>
      <trkpt lat="44.89436" lon="6.75181">
        <ele>2266</ele>
        <time>2013-08-31T08:04:09Z</time>
      </trkpt>
      <trkpt lat="44.89436" lon="6.7518">
        <ele>2266</ele>
        <time>2013-08-31T08:04:26Z</time>
      </trkpt>
      <trkpt lat="44.89438" lon="6.75182">
        <ele>2266</ele>
        <time>2013-08-31T08:05:03Z</time>
      </trkpt>
      <trkpt lat="44.89437" lon="6.75181">
        <ele>2266</ele>
        <time>2013-08-31T08:05:24Z</time>
      </trkpt>
      <trkpt lat="44.89439" lon="6.75183">
        <ele>2266</ele>
        <time>2013-08-31T08:05:54Z</time>
      </trkpt>
      <trkpt lat="44.89438" lon="6.75184">
        <ele>2265.5</ele>
        <time>2013-08-31T08:06:24Z</time>
      </trkpt>
      <trkpt lat="44.89438" lon="6.75182">
        <ele>2266.5</ele>
        <time>2013-08-31T08:06:50Z</time>
      </trkpt>
      <trkpt lat="44.89439" lon="6.75181">
        <ele>2265.5</ele>
        <time>2013-08-31T08:07:14Z</time>
      </trkpt>
      <trkpt lat="44.89437" lon="6.7518">
        <ele>2265.5</ele>
        <time>2013-08-31T08:07:36Z</time>
      </trkpt>
      <trkpt lat="44.89435" lon="6.75178">
        <ele>2265</ele>
        <time>2013-08-31T08:08:02Z</time>
      </trkpt>
      <trkpt lat="44.8943" lon="6.75177">
        <ele>2263.6</ele>
        <time>2013-08-31T08:08:15Z</time>
      </trkpt>
      <trkpt lat="44.89429" lon="6.75178">
        <ele>2263.1</ele>
        <time>2013-08-31T08:08:16Z</time>
      </trkpt>
      <trkpt lat="44.89427" lon="6.75186">
        <ele>2261.6</ele>
        <time>2013-08-31T08:08:20Z</time>
      </trkpt>
      <trkpt lat="44.89422" lon="6.75196">
        <ele>2260.7</ele>
        <time>2013-08-31T08:08:23Z</time>
      </trkpt>
      <trkpt lat="44.89419" lon="6.75197">
        <ele>2259.7</ele>
        <time>2013-08-31T08:08:24Z</time>
      </trkpt>
      <trkpt lat="44.89416" lon="6.75198">
        <ele>2260.2</ele>
        <time>2013-08-31T08:08:25Z</time>
      </trkpt>
      <trkpt lat="44.89412" lon="6.752">
        <ele>2258.8</ele>
        <time>2013-08-31T08:08:26Z</time>
      </trkpt>
      <trkpt lat="44.89408" lon="6.75203">
        <ele>2258.8</ele>
        <time>2013-08-31T08:08:27Z</time>
      </trkpt>
      <trkpt lat="44.89401" lon="6.75207">
        <ele>2258.3</ele>
        <time>2013-08-31T08:08:29Z</time>
      </trkpt>
      <trkpt lat="44.89398" lon="6.75206">
        <ele>2258.3</ele>
        <time>2013-08-31T08:08:30Z</time>
      </trkpt>
      <trkpt lat="44.89394" lon="6.75204">
        <ele>2258.3</ele>
        <time>2013-08-31T08:08:31Z</time>
      </trkpt>
      <trkpt lat="44.89391" lon="6.75201">
        <ele>2256.8</ele>
        <time>2013-08-31T08:08:32Z</time>
      </trkpt>
      <trkpt lat="44.89389" lon="6.75197">
        <ele>2256.4</ele>
        <time>2013-08-31T08:08:33Z</time>
      </trkpt>
      <trkpt lat="44.89388" lon="6.75191">
        <ele>2256.4</ele>
        <time>2013-08-31T08:08:34Z</time>
      </trkpt>
      <trkpt lat="44.89387" lon="6.75186">
        <ele>2255.9</ele>
        <time>2013-08-31T08:08:35Z</time>
      </trkpt>
      <trkpt lat="44.89384" lon="6.75182">
        <ele>2255.9</ele>
        <time>2013-08-31T08:08:36Z</time>
      </trkpt>
      <trkpt lat="44.89381" lon="6.75179">
        <ele>2255.9</ele>
        <time>2013-08-31T08:08:37Z</time>
      </trkpt>
      <trkpt lat="44.89377" lon="6.75177">
        <ele>2255.4</ele>
        <time>2013-08-31T08:08:38Z</time>
      </trkpt>
      <trkpt lat="44.89372" lon="6.75177">
        <ele>2254.9</ele>
        <time>2013-08-31T08:08:39Z</time>
      </trkpt>
      <trkpt lat="44.89367" lon="6.75177">
        <ele>2254.9</ele>
        <time>2013-08-31T08:08:40Z</time>
      </trkpt>
      <trkpt lat="44.89362" lon="6.75178">
        <ele>2254.4</ele>
        <time>2013-08-31T08:08:41Z</time>
      </trkpt>
      <trkpt lat="44.89357" lon="6.7518">
        <ele>2254.4</ele>
        <time>2013-08-31T08:08:42Z</time>
      </trkpt>
      <trkpt lat="44.89353" lon="6.75183">
        <ele>2254.9</ele>
        <time>2013-08-31T08:08:43Z</time>
      </trkpt>
      <trkpt lat="44.89349" lon="6.75187">
        <ele>2254</ele>
        <time>2013-08-31T08:08:44Z</time>
      </trkpt>
      <trkpt lat="44.89345" lon="6.75189">
        <ele>2253</ele>
        <time>2013-08-31T08:08:45Z</time>
      </trkpt>
      <trkpt lat="44.89341" lon="6.75191">
        <ele>2253</ele>
        <time>2013-08-31T08:08:46Z</time>
      </trkpt>
      <trkpt lat="44.89337" lon="6.75193">
        <ele>2252.5</ele>
        <time>2013-08-31T08:08:47Z</time>
      </trkpt>
      <trkpt lat="44.89332" lon="6.75195">
        <ele>2251.1</ele>
        <time>2013-08-31T08:08:48Z</time>
      </trkpt>
      <trkpt lat="44.89327" lon="6.75194">
        <ele>2250.6</ele>
        <time>2013-08-31T08:08:49Z</time>
      </trkpt>
      <trkpt lat="44.89322" lon="6.75194">
        <ele>2251.5</ele>
        <time>2013-08-31T08:08:50Z</time>
      </trkpt>
      <trkpt lat="44.89317" lon="6.75195">
        <ele>2250.6</ele>
        <time>2013-08-31T08:08:51Z</time>
      </trkpt>
      <trkpt lat="44.89314" lon="6.75196">
        <ele>2248.7</ele>
        <time>2013-08-31T08:08:52Z</time>
      </trkpt>
      <trkpt lat="44.89311" lon="6.75198">
        <ele>2249.6</ele>
        <time>2013-08-31T08:08:53Z</time>
      </trkpt>
      <trkpt lat="44.89308" lon="6.752">
        <ele>2248.7</ele>
        <time>2013-08-31T08:08:54Z</time>
      </trkpt>
      <trkpt lat="44.89303" lon="6.75202">
        <ele>2248.2</ele>
        <time>2013-08-31T08:08:55Z</time>
      </trkpt>
      <trkpt lat="44.89298" lon="6.75204">
        <ele>2247.7</ele>
        <time>2013-08-31T08:08:56Z</time>
      </trkpt>
      <trkpt lat="44.89282" lon="6.75214">
        <ele>2246.3</ele>
        <time>2013-08-31T08:08:59Z</time>
      </trkpt>
      <trkpt lat="44.89261" lon="6.75234">
        <ele>2243.9</ele>
        <time>2013-08-31T08:09:07Z</time>
      </trkpt>
      <trkpt lat="44.89249" lon="6.75243">
        <ele>2243.4</ele>
        <time>2013-08-31T08:09:12Z</time>
      </trkpt>
      <trkpt lat="44.89244" lon="6.75244">
        <ele>2242.4</ele>
        <time>2013-08-31T08:09:13Z</time>
      </trkpt>
      <trkpt lat="44.89239" lon="6.75246">
        <ele>2241</ele>
        <time>2013-08-31T08:09:14Z</time>
      </trkpt>
      <trkpt lat="44.89234" lon="6.75247">
        <ele>2241</ele>
        <time>2013-08-31T08:09:15Z</time>
      </trkpt>
      <trkpt lat="44.8923" lon="6.75248">
        <ele>2240</ele>
        <time>2013-08-31T08:09:16Z</time>
      </trkpt>
      <trkpt lat="44.89227" lon="6.75249">
        <ele>2239.5</ele>
        <time>2013-08-31T08:09:17Z</time>
      </trkpt>
      <trkpt lat="44.89224" lon="6.75251">
        <ele>2239.1</ele>
        <time>2013-08-31T08:09:18Z</time>
      </trkpt>
      <trkpt lat="44.89222" lon="6.75254">
        <ele>2238.6</ele>
        <time>2013-08-31T08:09:19Z</time>
      </trkpt>
      <trkpt lat="44.89221" lon="6.75257">
        <ele>2238.6</ele>
        <time>2013-08-31T08:09:20Z</time>
      </trkpt>
      <trkpt lat="44.8922" lon="6.75258">
        <ele>2238.6</ele>
        <time>2013-08-31T08:09:21Z</time>
      </trkpt>
      <trkpt lat="44.89221" lon="6.7526">
        <ele>2238.1</ele>
        <time>2013-08-31T08:09:29Z</time>
      </trkpt>
      <trkpt lat="44.89221" lon="6.7526">
        <ele>2237.1</ele>
        <time>2013-08-31T08:09:38Z</time>
      </trkpt>
      <trkpt lat="44.89221" lon="6.7526">
        <ele>2238.1</ele>
        <time>2013-08-31T08:09:49Z</time>
      </trkpt>
      <trkpt lat="44.89219" lon="6.75262">
        <ele>2238.1</ele>
        <time>2013-08-31T08:09:50Z</time>
      </trkpt>
      <trkpt lat="44.89218" lon="6.75265">
        <ele>2237.1</ele>
        <time>2013-08-31T08:09:51Z</time>
      </trkpt>
      <trkpt lat="44.89216" lon="6.75267">
        <ele>2237.6</ele>
        <time>2013-08-31T08:09:52Z</time>
      </trkpt>
      <trkpt lat="44.89215" lon="6.7527">
        <ele>2237.6</ele>
        <time>2013-08-31T08:09:53Z</time>
      </trkpt>
      <trkpt lat="44.89209" lon="6.75279">
        <ele>2235.7</ele>
        <time>2013-08-31T08:09:56Z</time>
      </trkpt>
      <trkpt lat="44.89207" lon="6.75282">
        <ele>2235.2</ele>
        <time>2013-08-31T08:10:05Z</time>
      </trkpt>
      <trkpt lat="44.89208" lon="6.75283">
        <ele>2235.2</ele>
        <time>2013-08-31T08:10:10Z</time>
      </trkpt>
      <trkpt lat="44.89208" lon="6.75285">
        <ele>2235.2</ele>
        <time>2013-08-31T08:10:11Z</time>
      </trkpt>
      <trkpt lat="44.89204" lon="6.75306">
        <ele>2231.8</ele>
        <time>2013-08-31T08:10:16Z</time>
      </trkpt>
      <trkpt lat="44.89203" lon="6.75308">
        <ele>2231.8</ele>
        <time>2013-08-31T08:10:17Z</time>
      </trkpt>
      <trkpt lat="44.89193" lon="6.75326">
        <ele>2229</ele>
        <time>2013-08-31T08:10:25Z</time>
      </trkpt>
      <trkpt lat="44.89182" lon="6.75332">
        <ele>2225.6</ele>
        <time>2013-08-31T08:10:28Z</time>
      </trkpt>
      <trkpt lat="44.89179" lon="6.75335">
        <ele>2225.1</ele>
        <time>2013-08-31T08:10:29Z</time>
      </trkpt>
      <trkpt lat="44.89176" lon="6.75339">
        <ele>2223.7</ele>
        <time>2013-08-31T08:10:30Z</time>
      </trkpt>
      <trkpt lat="44.89174" lon="6.75344">
        <ele>2223.2</ele>
        <time>2013-08-31T08:10:31Z</time>
      </trkpt>
      <trkpt lat="44.8917" lon="6.75355">
        <ele>2221.7</ele>
        <time>2013-08-31T08:10:33Z</time>
      </trkpt>
      <trkpt lat="44.89167" lon="6.75369">
        <ele>2220.3</ele>
        <time>2013-08-31T08:10:35Z</time>
      </trkpt>
      <trkpt lat="44.89162" lon="6.75394">
        <ele>2216.9</ele>
        <time>2013-08-31T08:10:38Z</time>
      </trkpt>
      <trkpt lat="44.89161" lon="6.75402">
        <ele>2217.4</ele>
        <time>2013-08-31T08:10:39Z</time>
      </trkpt>
      <trkpt lat="44.89159" lon="6.75408">
        <ele>2216.9</ele>
        <time>2013-08-31T08:10:40Z</time>
      </trkpt>
      <trkpt lat="44.89156" lon="6.75415">
        <ele>2216.9</ele>
        <time>2013-08-31T08:10:41Z</time>
      </trkpt>
      <trkpt lat="44.89153" lon="6.7542">
        <ele>2216</ele>
        <time>2013-08-31T08:10:42Z</time>
      </trkpt>
      <trkpt lat="44.89149" lon="6.75425">
        <ele>2217.4</ele>
        <time>2013-08-31T08:10:43Z</time>
      </trkpt>
      <trkpt lat="44.89144" lon="6.75427">
        <ele>2217.4</ele>
        <time>2013-08-31T08:10:44Z</time>
      </trkpt>
      <trkpt lat="44.8914" lon="6.75427">
        <ele>2216.5</ele>
        <time>2013-08-31T08:10:45Z</time>
      </trkpt>
      <trkpt lat="44.89136" lon="6.75424">
        <ele>2216.5</ele>
        <time>2013-08-31T08:10:46Z</time>
      </trkpt>
      <trkpt lat="44.89133" lon="6.75422">
        <ele>2216</ele>
        <time>2013-08-31T08:10:47Z</time>
      </trkpt>
      <trkpt lat="44.89122" lon="6.75408">
        <ele>2212.6</ele>
        <time>2013-08-31T08:10:51Z</time>
      </trkpt>
      <trkpt lat="44.89115" lon="6.75394">
        <ele>2209.3</ele>
        <time>2013-08-31T08:10:54Z</time>
      </trkpt>
      <trkpt lat="44.89108" lon="6.75381">
        <ele>2206.4</ele>
        <time>2013-08-31T08:10:57Z</time>
      </trkpt>
      <trkpt lat="44.89104" lon="6.75373">
        <ele>2203.5</ele>
        <time>2013-08-31T08:10:59Z</time>
      </trkpt>
      <trkpt lat="44.89102" lon="6.7537">
        <ele>2203.5</ele>
        <time>2013-08-31T08:11:00Z</time>
      </trkpt>
      <trkpt lat="44.89097" lon="6.75368">
        <ele>2201.6</ele>
        <time>2013-08-31T08:11:02Z</time>
      </trkpt>
      <trkpt lat="44.89092" lon="6.75367">
        <ele>2201.1</ele>
        <time>2013-08-31T08:11:11Z</time>
      </trkpt>
      <trkpt lat="44.89089" lon="6.75366">
        <ele>2200.6</ele>
        <time>2013-08-31T08:11:15Z</time>
      </trkpt>
      <trkpt lat="44.89087" lon="6.75365">
        <ele>2200.1</ele>
        <time>2013-08-31T08:11:16Z</time>
      </trkpt>
      <trkpt lat="44.89086" lon="6.75364">
        <ele>2200.1</ele>
        <time>2013-08-31T08:11:17Z</time>
      </trkpt>
      <trkpt lat="44.89084" lon="6.75363">
        <ele>2199.2</ele>
        <time>2013-08-31T08:11:18Z</time>
      </trkpt>
      <trkpt lat="44.89081" lon="6.75363">
        <ele>2198.7</ele>
        <time>2013-08-31T08:11:19Z</time>
      </trkpt>
      <trkpt lat="44.89079" lon="6.75362">
        <ele>2198.2</ele>
        <time>2013-08-31T08:11:20Z</time>
      </trkpt>
      <trkpt lat="44.89077" lon="6.75361">
        <ele>2197.7</ele>
        <time>2013-08-31T08:11:21Z</time>
      </trkpt>
      <trkpt lat="44.89075" lon="6.7536">
        <ele>2197.2</ele>
        <time>2013-08-31T08:11:22Z</time>
      </trkpt>
      <trkpt lat="44.89073" lon="6.75358">
        <ele>2196.3</ele>
        <time>2013-08-31T08:11:23Z</time>
      </trkpt>
      <trkpt lat="44.89072" lon="6.75357">
        <ele>2195.8</ele>
        <time>2013-08-31T08:11:24Z</time>
      </trkpt>
      <trkpt lat="44.8907" lon="6.75354">
        <ele>2194.8</ele>
        <time>2013-08-31T08:11:25Z</time>
      </trkpt>
      <trkpt lat="44.89063" lon="6.75342">
        <ele>2191.9</ele>
        <time>2013-08-31T08:11:29Z</time>
      </trkpt>
      <trkpt lat="44.89055" lon="6.75332">
        <ele>2188.1</ele>
        <time>2013-08-31T08:11:33Z</time>
      </trkpt>
      <trkpt lat="44.89048" lon="6.75331">
        <ele>2186.2</ele>
        <time>2013-08-31T08:11:36Z</time>
      </trkpt>
      <trkpt lat="44.89043" lon="6.75329">
        <ele>2184.7</ele>
        <time>2013-08-31T08:11:38Z</time>
      </trkpt>
      <trkpt lat="44.89035" lon="6.75327">
        <ele>2181.9</ele>
        <time>2013-08-31T08:11:47Z</time>
      </trkpt>
      <trkpt lat="44.89033" lon="6.75326">
        <ele>2181.9</ele>
        <time>2013-08-31T08:11:51Z</time>
      </trkpt>
      <trkpt lat="44.89031" lon="6.75326">
        <ele>2181.4</ele>
        <time>2013-08-31T08:11:52Z</time>
      </trkpt>
      <trkpt lat="44.89029" lon="6.75326">
        <ele>2181.9</ele>
        <time>2013-08-31T08:11:53Z</time>
      </trkpt>
      <trkpt lat="44.89027" lon="6.75328">
        <ele>2181.9</ele>
        <time>2013-08-31T08:11:54Z</time>
      </trkpt>
      <trkpt lat="44.89023" lon="6.7533">
        <ele>2181.4</ele>
        <time>2013-08-31T08:11:55Z</time>
      </trkpt>
      <trkpt lat="44.89021" lon="6.75334">
        <ele>2180.9</ele>
        <time>2013-08-31T08:11:56Z</time>
      </trkpt>
      <trkpt lat="44.89018" lon="6.75338">
        <ele>2179.5</ele>
        <time>2013-08-31T08:11:57Z</time>
      </trkpt>
      <trkpt lat="44.89017" lon="6.75341">
        <ele>2178.5</ele>
        <time>2013-08-31T08:11:58Z</time>
      </trkpt>
      <trkpt lat="44.89013" lon="6.75348">
        <ele>2178</ele>
        <time>2013-08-31T08:12:00Z</time>
      </trkpt>
      <trkpt lat="44.89009" lon="6.75356">
        <ele>2177</ele>
        <time>2013-08-31T08:12:02Z</time>
      </trkpt>
      <trkpt lat="44.89005" lon="6.75361">
        <ele>2177</ele>
        <time>2013-08-31T08:12:03Z</time>
      </trkpt>
      <trkpt lat="44.8899" lon="6.75388">
        <ele>2173.7</ele>
        <time>2013-08-31T08:12:08Z</time>
      </trkpt>
      <trkpt lat="44.88987" lon="6.75392">
        <ele>2172.7</ele>
        <time>2013-08-31T08:12:09Z</time>
      </trkpt>
      <trkpt lat="44.88984" lon="6.75393">
        <ele>2172.2</ele>
        <time>2013-08-31T08:12:10Z</time>
      </trkpt>
      <trkpt lat="44.8898" lon="6.75391">
        <ele>2170.8</ele>
        <time>2013-08-31T08:12:11Z</time>
      </trkpt>
      <trkpt lat="44.88976" lon="6.75388">
        <ele>2170.8</ele>
        <time>2013-08-31T08:12:12Z</time>
      </trkpt>
      <trkpt lat="44.88971" lon="6.75385">
        <ele>2171.3</ele>
        <time>2013-08-31T08:12:13Z</time>
      </trkpt>
      <trkpt lat="44.88966" lon="6.75383">
        <ele>2169.8</ele>
        <time>2013-08-31T08:12:14Z</time>
      </trkpt>
      <trkpt lat="44.8896" lon="6.75382">
        <ele>2169.4</ele>
        <time>2013-08-31T08:12:15Z</time>
      </trkpt>
      <trkpt lat="44.88954" lon="6.75384">
        <ele>2168.9</ele>
        <time>2013-08-31T08:12:16Z</time>
      </trkpt>
      <trkpt lat="44.88948" lon="6.75386">
        <ele>2168.4</ele>
        <time>2013-08-31T08:12:17Z</time>
      </trkpt>
      <trkpt lat="44.88939" lon="6.75392">
        <ele>2167</ele>
        <time>2013-08-31T08:12:19Z</time>
      </trkpt>
      <trkpt lat="44.88935" lon="6.75397">
        <ele>2166</ele>
        <time>2013-08-31T08:12:20Z</time>
      </trkpt>
      <trkpt lat="44.88933" lon="6.75402">
        <ele>2166.5</ele>
        <time>2013-08-31T08:12:21Z</time>
      </trkpt>
      <trkpt lat="44.88925" lon="6.75421">
        <ele>2163.1</ele>
        <time>2013-08-31T08:12:25Z</time>
      </trkpt>
      <trkpt lat="44.88914" lon="6.75435">
        <ele>2160.2</ele>
        <time>2013-08-31T08:12:29Z</time>
      </trkpt>
      <trkpt lat="44.8891" lon="6.75439">
        <ele>2159.7</ele>
        <time>2013-08-31T08:12:30Z</time>
      </trkpt>
      <trkpt lat="44.889" lon="6.75446">
        <ele>2156.4</ele>
        <time>2013-08-31T08:12:32Z</time>
      </trkpt>
      <trkpt lat="44.88889" lon="6.75458">
        <ele>2153</ele>
        <time>2013-08-31T08:12:35Z</time>
      </trkpt>
      <trkpt lat="44.88879" lon="6.75471">
        <ele>2149.7</ele>
        <time>2013-08-31T08:12:39Z</time>
      </trkpt>
      <trkpt lat="44.88875" lon="6.75477">
        <ele>2146.3</ele>
        <time>2013-08-31T08:12:41Z</time>
      </trkpt>
      <trkpt lat="44.88872" lon="6.75479">
        <ele>2146.3</ele>
        <time>2013-08-31T08:12:42Z</time>
      </trkpt>
      <trkpt lat="44.88868" lon="6.75479">
        <ele>2145.8</ele>
        <time>2013-08-31T08:12:43Z</time>
      </trkpt>
      <trkpt lat="44.88863" lon="6.75478">
        <ele>2143.4</ele>
        <time>2013-08-31T08:12:44Z</time>
      </trkpt>
      <trkpt lat="44.88857" lon="6.75475">
        <ele>2142.4</ele>
        <time>2013-08-31T08:12:45Z</time>
      </trkpt>
      <trkpt lat="44.88838" lon="6.75464">
        <ele>2140.5</ele>
        <time>2013-08-31T08:12:48Z</time>
      </trkpt>
      <trkpt lat="44.88817" lon="6.75441">
        <ele>2137.2</ele>
        <time>2013-08-31T08:12:54Z</time>
      </trkpt>
      <trkpt lat="44.88814" lon="6.75438">
        <ele>2136.7</ele>
        <time>2013-08-31T08:12:55Z</time>
      </trkpt>
      <trkpt lat="44.8881" lon="6.75436">
        <ele>2135.2</ele>
        <time>2013-08-31T08:12:56Z</time>
      </trkpt>
      <trkpt lat="44.88807" lon="6.75437">
        <ele>2134.7</ele>
        <time>2013-08-31T08:12:57Z</time>
      </trkpt>
      <trkpt lat="44.88805" lon="6.75439">
        <ele>2133.8</ele>
        <time>2013-08-31T08:12:58Z</time>
      </trkpt>
      <trkpt lat="44.88804" lon="6.75441">
        <ele>2133.3</ele>
        <time>2013-08-31T08:12:59Z</time>
      </trkpt>
      <trkpt lat="44.88807" lon="6.7544">
        <ele>2133.8</ele>
        <time>2013-08-31T08:13:13Z</time>
      </trkpt>
      <trkpt lat="44.88803" lon="6.75444">
        <ele>2133.3</ele>
        <time>2013-08-31T08:13:31Z</time>
      </trkpt>
      <trkpt lat="44.88796" lon="6.75455">
        <ele>2132.8</ele>
        <time>2013-08-31T08:13:43Z</time>
      </trkpt>
      <trkpt lat="44.88793" lon="6.75457">
        <ele>2132.8</ele>
        <time>2013-08-31T08:13:44Z</time>
      </trkpt>
      <trkpt lat="44.88791" lon="6.7546">
        <ele>2132.8</ele>
        <time>2013-08-31T08:13:45Z</time>
      </trkpt>
      <trkpt lat="44.88789" lon="6.75467">
        <ele>2133.8</ele>
        <time>2013-08-31T08:13:52Z</time>
      </trkpt>
      <trkpt lat="44.88788" lon="6.75469">
        <ele>2132.8</ele>
        <time>2013-08-31T08:13:53Z</time>
      </trkpt>
      <trkpt lat="44.88787" lon="6.75471">
        <ele>2132.8</ele>
        <time>2013-08-31T08:13:54Z</time>
      </trkpt>
      <trkpt lat="44.88769" lon="6.75503">
        <ele>2132.3</ele>
        <time>2013-08-31T08:14:05Z</time>
      </trkpt>
      <trkpt lat="44.88764" lon="6.7554">
        <ele>2130.4</ele>
        <time>2013-08-31T08:14:15Z</time>
      </trkpt>
      <trkpt lat="44.88764" lon="6.75562">
        <ele>2129.9</ele>
        <time>2013-08-31T08:14:27Z</time>
      </trkpt>
      <trkpt lat="44.88767" lon="6.75581">
        <ele>2129</ele>
        <time>2013-08-31T08:14:36Z</time>
      </trkpt>
      <trkpt lat="44.88766" lon="6.7559">
        <ele>2128</ele>
        <time>2013-08-31T08:14:38Z</time>
      </trkpt>
      <trkpt lat="44.88766" lon="6.75599">
        <ele>2125.6</ele>
        <time>2013-08-31T08:14:41Z</time>
      </trkpt>
      <trkpt lat="44.88776" lon="6.75607">
        <ele>2122.3</ele>
        <time>2013-08-31T08:14:47Z</time>
      </trkpt>
      <trkpt lat="44.88782" lon="6.75611">
        <ele>2120.8</ele>
        <time>2013-08-31T08:14:49Z</time>
      </trkpt>
      <trkpt lat="44.88789" lon="6.75635">
        <ele>2118.4</ele>
        <time>2013-08-31T08:14:54Z</time>
      </trkpt>
      <trkpt lat="44.88789" lon="6.7564">
        <ele>2117.9</ele>
        <time>2013-08-31T08:14:55Z</time>
      </trkpt>
      <trkpt lat="44.88789" lon="6.75659">
        <ele>2117.4</ele>
        <time>2013-08-31T08:15:00Z</time>
      </trkpt>
      <trkpt lat="44.88788" lon="6.75661">
        <ele>2117</ele>
        <time>2013-08-31T08:15:01Z</time>
      </trkpt>
      <trkpt lat="44.88785" lon="6.7566">
        <ele>2116</ele>
        <time>2013-08-31T08:15:02Z</time>
      </trkpt>
      <trkpt lat="44.8877" lon="6.75656">
        <ele>2114.1</ele>
        <time>2013-08-31T08:15:07Z</time>
      </trkpt>
      <trkpt lat="44.88765" lon="6.75655">
        <ele>2112.6</ele>
        <time>2013-08-31T08:15:09Z</time>
      </trkpt>
      <trkpt lat="44.88756" lon="6.75655">
        <ele>2110.7</ele>
        <time>2013-08-31T08:15:13Z</time>
      </trkpt>
      <trkpt lat="44.88746" lon="6.75653">
        <ele>2108.3</ele>
        <time>2013-08-31T08:15:17Z</time>
      </trkpt>
      <trkpt lat="44.88736" lon="6.75649">
        <ele>2104.9</ele>
        <time>2013-08-31T08:15:22Z</time>
      </trkpt>
      <trkpt lat="44.88726" lon="6.75646">
        <ele>2101.6</ele>
        <time>2013-08-31T08:15:27Z</time>
      </trkpt>
      <trkpt lat="44.88716" lon="6.7564">
        <ele>2098.2</ele>
        <time>2013-08-31T08:15:32Z</time>
      </trkpt>
      <trkpt lat="44.88711" lon="6.75635">
        <ele>2097.3</ele>
        <time>2013-08-31T08:15:34Z</time>
      </trkpt>
      <trkpt lat="44.88706" lon="6.7563">
        <ele>2095.3</ele>
        <time>2013-08-31T08:15:37Z</time>
      </trkpt>
      <trkpt lat="44.88704" lon="6.7563">
        <ele>2093.9</ele>
        <time>2013-08-31T08:15:46Z</time>
      </trkpt>
      <trkpt lat="44.88695" lon="6.75623">
        <ele>2091.5</ele>
        <time>2013-08-31T08:16:02Z</time>
      </trkpt>
      <trkpt lat="44.88691" lon="6.75621">
        <ele>2090.5</ele>
        <time>2013-08-31T08:16:16Z</time>
      </trkpt>
      <trkpt lat="44.88681" lon="6.7562">
        <ele>2088.1</ele>
        <time>2013-08-31T08:16:25Z</time>
      </trkpt>
      <trkpt lat="44.88679" lon="6.75621">
        <ele>2087.6</ele>
        <time>2013-08-31T08:16:26Z</time>
      </trkpt>
      <trkpt lat="44.88677" lon="6.75623">
        <ele>2087.2</ele>
        <time>2013-08-31T08:16:27Z</time>
      </trkpt>
      <trkpt lat="44.88676" lon="6.75625">
        <ele>2086.7</ele>
        <time>2013-08-31T08:16:28Z</time>
      </trkpt>
      <trkpt lat="44.88676" lon="6.75628">
        <ele>2086.7</ele>
        <time>2013-08-31T08:16:29Z</time>
      </trkpt>
      <trkpt lat="44.88675" lon="6.7563">
        <ele>2085.7</ele>
        <time>2013-08-31T08:16:30Z</time>
      </trkpt>
      <trkpt lat="44.88675" lon="6.75632">
        <ele>2085.7</ele>
        <time>2013-08-31T08:16:31Z</time>
      </trkpt>
      <trkpt lat="44.88672" lon="6.75634">
        <ele>2084.8</ele>
        <time>2013-08-31T08:16:36Z</time>
      </trkpt>
      <trkpt lat="44.88669" lon="6.75634">
        <ele>2084.8</ele>
        <time>2013-08-31T08:16:37Z</time>
      </trkpt>
      <trkpt lat="44.88666" lon="6.75633">
        <ele>2084.3</ele>
        <time>2013-08-31T08:16:38Z</time>
      </trkpt>
      <trkpt lat="44.88664" lon="6.75631">
        <ele>2083.8</ele>
        <time>2013-08-31T08:16:39Z</time>
      </trkpt>
      <trkpt lat="44.88662" lon="6.75629">
        <ele>2083.3</ele>
        <time>2013-08-31T08:16:40Z</time>
      </trkpt>
      <trkpt lat="44.88659" lon="6.75626">
        <ele>2083.3</ele>
        <time>2013-08-31T08:16:41Z</time>
      </trkpt>
      <trkpt lat="44.88656" lon="6.75623">
        <ele>2082.8</ele>
        <time>2013-08-31T08:16:42Z</time>
      </trkpt>
      <trkpt lat="44.88652" lon="6.7562">
        <ele>2081.9</ele>
        <time>2013-08-31T08:16:43Z</time>
      </trkpt>
      <trkpt lat="44.88649" lon="6.75616">
        <ele>2081.9</ele>
        <time>2013-08-31T08:16:44Z</time>
      </trkpt>
      <trkpt lat="44.88635" lon="6.75601">
        <ele>2079</ele>
        <time>2013-08-31T08:16:49Z</time>
      </trkpt>
      <trkpt lat="44.88632" lon="6.75597">
        <ele>2078.5</ele>
        <time>2013-08-31T08:16:50Z</time>
      </trkpt>
      <trkpt lat="44.8863" lon="6.75592">
        <ele>2078</ele>
        <time>2013-08-31T08:16:51Z</time>
      </trkpt>
      <trkpt lat="44.88626" lon="6.75582">
        <ele>2077.1</ele>
        <time>2013-08-31T08:16:53Z</time>
      </trkpt>
      <trkpt lat="44.88624" lon="6.75577">
        <ele>2076.6</ele>
        <time>2013-08-31T08:16:54Z</time>
      </trkpt>
      <trkpt lat="44.88622" lon="6.75572">
        <ele>2076.6</ele>
        <time>2013-08-31T08:16:55Z</time>
      </trkpt>
      <trkpt lat="44.8862" lon="6.75567">
        <ele>2076.6</ele>
        <time>2013-08-31T08:16:56Z</time>
      </trkpt>
      <trkpt lat="44.88616" lon="6.75561">
        <ele>2075.6</ele>
        <time>2013-08-31T08:16:57Z</time>
      </trkpt>
      <trkpt lat="44.88613" lon="6.75557">
        <ele>2075.6</ele>
        <time>2013-08-31T08:16:58Z</time>
      </trkpt>
      <trkpt lat="44.88609" lon="6.75554">
        <ele>2075.1</ele>
        <time>2013-08-31T08:16:59Z</time>
      </trkpt>
      <trkpt lat="44.88605" lon="6.75551">
        <ele>2074.7</ele>
        <time>2013-08-31T08:17:00Z</time>
      </trkpt>
      <trkpt lat="44.88602" lon="6.7555">
        <ele>2074.2</ele>
        <time>2013-08-31T08:17:01Z</time>
      </trkpt>
      <trkpt lat="44.886" lon="6.75552">
        <ele>2073.7</ele>
        <time>2013-08-31T08:17:12Z</time>
      </trkpt>
      <trkpt lat="44.88598" lon="6.75549">
        <ele>2073.2</ele>
        <time>2013-08-31T08:17:33Z</time>
      </trkpt>
      <trkpt lat="44.88587" lon="6.75539">
        <ele>2072.7</ele>
        <time>2013-08-31T08:17:42Z</time>
      </trkpt>
      <trkpt lat="44.88584" lon="6.75534">
        <ele>2071.8</ele>
        <time>2013-08-31T08:17:54Z</time>
      </trkpt>
      <trkpt lat="44.88579" lon="6.75528">
        <ele>2071.8</ele>
        <time>2013-08-31T08:18:07Z</time>
      </trkpt>
      <trkpt lat="44.88578" lon="6.75529">
        <ele>2072.3</ele>
        <time>2013-08-31T08:18:08Z</time>
      </trkpt>
      <trkpt lat="44.88577" lon="6.75529">
        <ele>2071.8</ele>
        <time>2013-08-31T08:18:09Z</time>
      </trkpt>
      <trkpt lat="44.88576" lon="6.7553">
        <ele>2071.8</ele>
        <time>2013-08-31T08:18:10Z</time>
      </trkpt>
      <trkpt lat="44.88572" lon="6.75531">
        <ele>2072.3</ele>
        <time>2013-08-31T08:18:23Z</time>
      </trkpt>
      <trkpt lat="44.8857" lon="6.75531">
        <ele>2072.7</ele>
        <time>2013-08-31T08:18:47Z</time>
      </trkpt>
      <trkpt lat="44.88569" lon="6.75532">
        <ele>2072.7</ele>
        <time>2013-08-31T08:18:48Z</time>
      </trkpt>
      <trkpt lat="44.88569" lon="6.75533">
        <ele>2072.7</ele>
        <time>2013-08-31T08:18:49Z</time>
      </trkpt>
      <trkpt lat="44.88568" lon="6.75534">
        <ele>2072.3</ele>
        <time>2013-08-31T08:18:50Z</time>
      </trkpt>
      <trkpt lat="44.88566" lon="6.75534">
        <ele>2072.7</ele>
        <time>2013-08-31T08:18:51Z</time>
      </trkpt>
      <trkpt lat="44.88565" lon="6.75534">
        <ele>2072.3</ele>
        <time>2013-08-31T08:18:52Z</time>
      </trkpt>
      <trkpt lat="44.88564" lon="6.75534">
        <ele>2072.3</ele>
        <time>2013-08-31T08:18:53Z</time>
      </trkpt>
      <trkpt lat="44.88563" lon="6.75534">
        <ele>2073.2</ele>
        <time>2013-08-31T08:18:54Z</time>
      </trkpt>
      <trkpt lat="44.88562" lon="6.75533">
        <ele>2072.7</ele>
        <time>2013-08-31T08:18:55Z</time>
      </trkpt>
      <trkpt lat="44.88561" lon="6.75533">
        <ele>2073.2</ele>
        <time>2013-08-31T08:18:56Z</time>
      </trkpt>
      <trkpt lat="44.88552" lon="6.75524">
        <ele>2074.2</ele>
        <time>2013-08-31T08:19:08Z</time>
      </trkpt>
      <trkpt lat="44.88533" lon="6.75529">
        <ele>2074.2</ele>
        <time>2013-08-31T08:19:29Z</time>
      </trkpt>
      <trkpt lat="44.88531" lon="6.7553">
        <ele>2073.2</ele>
        <time>2013-08-31T08:20:02Z</time>
      </trkpt>
      <trkpt lat="44.88521" lon="6.7553">
        <ele>2072.7</ele>
        <time>2013-08-31T08:20:15Z</time>
      </trkpt>
      <trkpt lat="44.88514" lon="6.75534">
        <ele>2072.7</ele>
        <time>2013-08-31T08:20:21Z</time>
      </trkpt>
      <trkpt lat="44.8851" lon="6.75542">
        <ele>2072.7</ele>
        <time>2013-08-31T08:20:25Z</time>
      </trkpt>
      <trkpt lat="44.88507" lon="6.75558">
        <ele>2072.3</ele>
        <time>2013-08-31T08:20:32Z</time>
      </trkpt>
      <trkpt lat="44.88512" lon="6.75568">
        <ele>2069.9</ele>
        <time>2013-08-31T08:20:45Z</time>
      </trkpt>
      <trkpt lat="44.8851" lon="6.75571">
        <ele>2068.4</ele>
        <time>2013-08-31T08:20:57Z</time>
      </trkpt>
      <trkpt lat="44.88511" lon="6.75572">
        <ele>2068.4</ele>
        <time>2013-08-31T08:21:08Z</time>
      </trkpt>
      <trkpt lat="44.88509" lon="6.75573">
        <ele>2068.4</ele>
        <time>2013-08-31T08:21:35Z</time>
      </trkpt>
      <trkpt lat="44.8851" lon="6.75571">
        <ele>2067.9</ele>
        <time>2013-08-31T08:22:11Z</time>
      </trkpt>
      <trkpt lat="44.8851" lon="6.75575">
        <ele>2067.9</ele>
        <time>2013-08-31T08:22:23Z</time>
      </trkpt>
      <trkpt lat="44.88503" lon="6.75585">
        <ele>2064.6</ele>
        <time>2013-08-31T08:22:32Z</time>
      </trkpt>
      <trkpt lat="44.885" lon="6.75586">
        <ele>2064.1</ele>
        <time>2013-08-31T08:22:39Z</time>
      </trkpt>
      <trkpt lat="44.88496" lon="6.75584">
        <ele>2064.1</ele>
        <time>2013-08-31T08:22:42Z</time>
      </trkpt>
      <trkpt lat="44.88493" lon="6.75584">
        <ele>2064.1</ele>
        <time>2013-08-31T08:22:43Z</time>
      </trkpt>
      <trkpt lat="44.8849" lon="6.75584">
        <ele>2063.1</ele>
        <time>2013-08-31T08:22:44Z</time>
      </trkpt>
      <trkpt lat="44.88488" lon="6.75585">
        <ele>2062.7</ele>
        <time>2013-08-31T08:22:45Z</time>
      </trkpt>
      <trkpt lat="44.88485" lon="6.75585">
        <ele>2062.7</ele>
        <time>2013-08-31T08:22:46Z</time>
      </trkpt>
      <trkpt lat="44.88476" lon="6.75582">
        <ele>2061.7</ele>
        <time>2013-08-31T08:22:49Z</time>
      </trkpt>
      <trkpt lat="44.88472" lon="6.75581">
        <ele>2060.7</ele>
        <time>2013-08-31T08:22:50Z</time>
      </trkpt>
      <trkpt lat="44.88463" lon="6.75578">
        <ele>2059.8</ele>
        <time>2013-08-31T08:22:52Z</time>
      </trkpt>
      <trkpt lat="44.88443" lon="6.7557">
        <ele>2056.4</ele>
        <time>2013-08-31T08:22:58Z</time>
      </trkpt>
      <trkpt lat="44.88441" lon="6.75566">
        <ele>2056.9</ele>
        <time>2013-08-31T08:23:05Z</time>
      </trkpt>
      <trkpt lat="44.88436" lon="6.75567">
        <ele>2055.9</ele>
        <time>2013-08-31T08:23:13Z</time>
      </trkpt>
      <trkpt lat="44.88434" lon="6.75567">
        <ele>2056.4</ele>
        <time>2013-08-31T08:23:14Z</time>
      </trkpt>
      <trkpt lat="44.88432" lon="6.75566">
        <ele>2056.4</ele>
        <time>2013-08-31T08:23:15Z</time>
      </trkpt>
      <trkpt lat="44.88429" lon="6.75565">
        <ele>2055.9</ele>
        <time>2013-08-31T08:23:16Z</time>
      </trkpt>
      <trkpt lat="44.88427" lon="6.75563">
        <ele>2055.9</ele>
        <time>2013-08-31T08:23:17Z</time>
      </trkpt>
      <trkpt lat="44.88401" lon="6.75551">
        <ele>2052.6</ele>
        <time>2013-08-31T08:23:25Z</time>
      </trkpt>
      <trkpt lat="44.88391" lon="6.75544">
        <ele>2050.6</ele>
        <time>2013-08-31T08:23:29Z</time>
      </trkpt>
      <trkpt lat="44.88389" lon="6.75543">
        <ele>2049.7</ele>
        <time>2013-08-31T08:23:30Z</time>
      </trkpt>
      <trkpt lat="44.88384" lon="6.75542">
        <ele>2047.8</ele>
        <time>2013-08-31T08:23:32Z</time>
      </trkpt>
      <trkpt lat="44.88382" lon="6.75539">
        <ele>2047.3</ele>
        <time>2013-08-31T08:23:33Z</time>
      </trkpt>
      <trkpt lat="44.88366" lon="6.75509">
        <ele>2043.4</ele>
        <time>2013-08-31T08:23:40Z</time>
      </trkpt>
      <trkpt lat="44.88365" lon="6.75507">
        <ele>2042.9</ele>
        <time>2013-08-31T08:23:41Z</time>
      </trkpt>
      <trkpt lat="44.88349" lon="6.75486">
        <ele>2039.6</ele>
        <time>2013-08-31T08:23:48Z</time>
      </trkpt>
      <trkpt lat="44.88342" lon="6.75473">
        <ele>2036.2</ele>
        <time>2013-08-31T08:23:51Z</time>
      </trkpt>
      <trkpt lat="44.88333" lon="6.75457">
        <ele>2032.8</ele>
        <time>2013-08-31T08:23:56Z</time>
      </trkpt>
      <trkpt lat="44.88326" lon="6.75446">
        <ele>2029.5</ele>
        <time>2013-08-31T08:23:59Z</time>
      </trkpt>
      <trkpt lat="44.88323" lon="6.7544">
        <ele>2029</ele>
        <time>2013-08-31T08:24:01Z</time>
      </trkpt>
      <trkpt lat="44.88318" lon="6.7543">
        <ele>2025.6</ele>
        <time>2013-08-31T08:24:04Z</time>
      </trkpt>
      <trkpt lat="44.88312" lon="6.75415">
        <ele>2022.3</ele>
        <time>2013-08-31T08:24:08Z</time>
      </trkpt>
      <trkpt lat="44.88308" lon="6.75404">
        <ele>2019.9</ele>
        <time>2013-08-31T08:24:11Z</time>
      </trkpt>
      <trkpt lat="44.88306" lon="6.75401">
        <ele>2018.4</ele>
        <time>2013-08-31T08:24:12Z</time>
      </trkpt>
      <trkpt lat="44.88299" lon="6.75391">
        <ele>2015.1</ele>
        <time>2013-08-31T08:24:15Z</time>
      </trkpt>
      <trkpt lat="44.88297" lon="6.75386">
        <ele>2014.1</ele>
        <time>2013-08-31T08:24:16Z</time>
      </trkpt>
      <trkpt lat="44.88296" lon="6.75383">
        <ele>2013.6</ele>
        <time>2013-08-31T08:24:17Z</time>
      </trkpt>
      <trkpt lat="44.88292" lon="6.75379">
        <ele>2012.7</ele>
        <time>2013-08-31T08:24:18Z</time>
      </trkpt>
      <trkpt lat="44.88288" lon="6.75375">
        <ele>2011.2</ele>
        <time>2013-08-31T08:24:19Z</time>
      </trkpt>
      <trkpt lat="44.88283" lon="6.75373">
        <ele>2010.3</ele>
        <time>2013-08-31T08:24:20Z</time>
      </trkpt>
      <trkpt lat="44.88278" lon="6.7537">
        <ele>2008.3</ele>
        <time>2013-08-31T08:24:21Z</time>
      </trkpt>
      <trkpt lat="44.88268" lon="6.75365">
        <ele>2005.9</ele>
        <time>2013-08-31T08:24:23Z</time>
      </trkpt>
      <trkpt lat="44.88257" lon="6.75354">
        <ele>2002.1</ele>
        <time>2013-08-31T08:24:26Z</time>
      </trkpt>
      <trkpt lat="44.88252" lon="6.75339">
        <ele>1998.2</ele>
        <time>2013-08-31T08:24:30Z</time>
      </trkpt>
      <trkpt lat="44.88251" lon="6.75333">
        <ele>1996.8</ele>
        <time>2013-08-31T08:24:32Z</time>
      </trkpt>
      <trkpt lat="44.88249" lon="6.75333">
        <ele>1995.8</ele>
        <time>2013-08-31T08:24:33Z</time>
      </trkpt>
      <trkpt lat="44.88247" lon="6.75332">
        <ele>1995.4</ele>
        <time>2013-08-31T08:24:34Z</time>
      </trkpt>
      <trkpt lat="44.88245" lon="6.75332">
        <ele>1994.9</ele>
        <time>2013-08-31T08:24:35Z</time>
      </trkpt>
      <trkpt lat="44.88245" lon="6.75333">
        <ele>1993.9</ele>
        <time>2013-08-31T08:24:36Z</time>
      </trkpt>
      <trkpt lat="44.88244" lon="6.75335">
        <ele>1993.9</ele>
        <time>2013-08-31T08:24:37Z</time>
      </trkpt>
      <trkpt lat="44.88241" lon="6.75333">
        <ele>1993</ele>
        <time>2013-08-31T08:24:45Z</time>
      </trkpt>
      <trkpt lat="44.88241" lon="6.75331">
        <ele>1992.5</ele>
        <time>2013-08-31T08:24:46Z</time>
      </trkpt>
      <trkpt lat="44.88241" lon="6.75328">
        <ele>1992.5</ele>
        <time>2013-08-31T08:24:47Z</time>
      </trkpt>
      <trkpt lat="44.88238" lon="6.75325">
        <ele>1991.5</ele>
        <time>2013-08-31T08:24:48Z</time>
      </trkpt>
      <trkpt lat="44.88235" lon="6.75322">
        <ele>1991</ele>
        <time>2013-08-31T08:24:49Z</time>
      </trkpt>
      <trkpt lat="44.88231" lon="6.75319">
        <ele>1990.6</ele>
        <time>2013-08-31T08:24:50Z</time>
      </trkpt>
      <trkpt lat="44.88226" lon="6.75318">
        <ele>1988.6</ele>
        <time>2013-08-31T08:24:51Z</time>
      </trkpt>
      <trkpt lat="44.88222" lon="6.75317">
        <ele>1987.7</ele>
        <time>2013-08-31T08:24:52Z</time>
      </trkpt>
      <trkpt lat="44.88218" lon="6.75317">
        <ele>1986.7</ele>
        <time>2013-08-31T08:24:53Z</time>
      </trkpt>
      <trkpt lat="44.88215" lon="6.75316">
        <ele>1985.7</ele>
        <time>2013-08-31T08:24:54Z</time>
      </trkpt>
      <trkpt lat="44.88213" lon="6.75315">
        <ele>1984.8</ele>
        <time>2013-08-31T08:24:55Z</time>
      </trkpt>
      <trkpt lat="44.88211" lon="6.75315">
        <ele>1983.8</ele>
        <time>2013-08-31T08:24:56Z</time>
      </trkpt>
      <trkpt lat="44.88211" lon="6.75316">
        <ele>1982.9</ele>
        <time>2013-08-31T08:25:05Z</time>
      </trkpt>
      <trkpt lat="44.88209" lon="6.75317">
        <ele>1982.9</ele>
        <time>2013-08-31T08:25:22Z</time>
      </trkpt>
      <trkpt lat="44.88206" lon="6.75315">
        <ele>1981.9</ele>
        <time>2013-08-31T08:25:29Z</time>
      </trkpt>
      <trkpt lat="44.88204" lon="6.75315">
        <ele>1981.9</ele>
        <time>2013-08-31T08:25:30Z</time>
      </trkpt>
      <trkpt lat="44.88203" lon="6.75314">
        <ele>1980.9</ele>
        <time>2013-08-31T08:25:31Z</time>
      </trkpt>
      <trkpt lat="44.88201" lon="6.75312">
        <ele>1980</ele>
        <time>2013-08-31T08:25:32Z</time>
      </trkpt>
      <trkpt lat="44.882" lon="6.75311">
        <ele>1979.5</ele>
        <time>2013-08-31T08:25:33Z</time>
      </trkpt>
      <trkpt lat="44.882" lon="6.75309">
        <ele>1979</ele>
        <time>2013-08-31T08:25:34Z</time>
      </trkpt>
      <trkpt lat="44.88198" lon="6.75303">
        <ele>1978.1</ele>
        <time>2013-08-31T08:25:43Z</time>
      </trkpt>
      <trkpt lat="44.88197" lon="6.75302">
        <ele>1978.1</ele>
        <time>2013-08-31T08:25:44Z</time>
      </trkpt>
      <trkpt lat="44.88195" lon="6.75302">
        <ele>1977.6</ele>
        <time>2013-08-31T08:25:45Z</time>
      </trkpt>
      <trkpt lat="44.88192" lon="6.753">
        <ele>1976.6</ele>
        <time>2013-08-31T08:25:48Z</time>
      </trkpt>
      <trkpt lat="44.8819" lon="6.75301">
        <ele>1976.1</ele>
        <time>2013-08-31T08:25:49Z</time>
      </trkpt>
      <trkpt lat="44.88188" lon="6.75302">
        <ele>1975.2</ele>
        <time>2013-08-31T08:25:50Z</time>
      </trkpt>
      <trkpt lat="44.88186" lon="6.75302">
        <ele>1975.7</ele>
        <time>2013-08-31T08:25:51Z</time>
      </trkpt>
      <trkpt lat="44.88183" lon="6.753">
        <ele>1974.2</ele>
        <time>2013-08-31T08:25:52Z</time>
      </trkpt>
      <trkpt lat="44.88181" lon="6.75299">
        <ele>1973.7</ele>
        <time>2013-08-31T08:25:53Z</time>
      </trkpt>
      <trkpt lat="44.88175" lon="6.75293">
        <ele>1969.9</ele>
        <time>2013-08-31T08:25:57Z</time>
      </trkpt>
      <trkpt lat="44.88173" lon="6.75289">
        <ele>1968.4</ele>
        <time>2013-08-31T08:25:59Z</time>
      </trkpt>
      <trkpt lat="44.88172" lon="6.75287">
        <ele>1968.4</ele>
        <time>2013-08-31T08:26:00Z</time>
      </trkpt>
      <trkpt lat="44.88171" lon="6.75284">
        <ele>1967</ele>
        <time>2013-08-31T08:26:11Z</time>
      </trkpt>
      <trkpt lat="44.8817" lon="6.75284">
        <ele>1966</ele>
        <time>2013-08-31T08:26:13Z</time>
      </trkpt>
      <trkpt lat="44.88169" lon="6.75283">
        <ele>1966</ele>
        <time>2013-08-31T08:26:18Z</time>
      </trkpt>
      <trkpt lat="44.88168" lon="6.75281">
        <ele>1965.6</ele>
        <time>2013-08-31T08:26:19Z</time>
      </trkpt>
      <trkpt lat="44.88167" lon="6.75279">
        <ele>1965.1</ele>
        <time>2013-08-31T08:26:20Z</time>
      </trkpt>
      <trkpt lat="44.88164" lon="6.75276">
        <ele>1963.6</ele>
        <time>2013-08-31T08:26:22Z</time>
      </trkpt>
      <trkpt lat="44.88162" lon="6.75277">
        <ele>1963.6</ele>
        <time>2013-08-31T08:26:23Z</time>
      </trkpt>
      <trkpt lat="44.88161" lon="6.75278">
        <ele>1963.2</ele>
        <time>2013-08-31T08:26:24Z</time>
      </trkpt>
      <trkpt lat="44.88158" lon="6.75277">
        <ele>1961.2</ele>
        <time>2013-08-31T08:26:29Z</time>
      </trkpt>
      <trkpt lat="44.88158" lon="6.75275">
        <ele>1961.2</ele>
        <time>2013-08-31T08:26:30Z</time>
      </trkpt>
      <trkpt lat="44.88157" lon="6.75264">
        <ele>1959.3</ele>
        <time>2013-08-31T08:26:34Z</time>
      </trkpt>
      <trkpt lat="44.88157" lon="6.75257">
        <ele>1957.4</ele>
        <time>2013-08-31T08:26:40Z</time>
      </trkpt>
      <trkpt lat="44.88157" lon="6.75255">
        <ele>1957.4</ele>
        <time>2013-08-31T08:26:41Z</time>
      </trkpt>
      <trkpt lat="44.88157" lon="6.75253">
        <ele>1957.4</ele>
        <time>2013-08-31T08:26:42Z</time>
      </trkpt>
      <trkpt lat="44.88156" lon="6.75251">
        <ele>1956.9</ele>
        <time>2013-08-31T08:26:43Z</time>
      </trkpt>
      <trkpt lat="44.88154" lon="6.7525">
        <ele>1955.5</ele>
        <time>2013-08-31T08:26:44Z</time>
      </trkpt>
      <trkpt lat="44.88153" lon="6.75249">
        <ele>1955.5</ele>
        <time>2013-08-31T08:26:45Z</time>
      </trkpt>
      <trkpt lat="44.88152" lon="6.75248">
        <ele>1954.5</ele>
        <time>2013-08-31T08:26:46Z</time>
      </trkpt>
      <trkpt lat="44.88151" lon="6.75246">
        <ele>1954.5</ele>
        <time>2013-08-31T08:26:47Z</time>
      </trkpt>
      <trkpt lat="44.88151" lon="6.75243">
        <ele>1954</ele>
        <time>2013-08-31T08:26:48Z</time>
      </trkpt>
      <trkpt lat="44.8815" lon="6.75242">
        <ele>1953.5</ele>
        <time>2013-08-31T08:26:49Z</time>
      </trkpt>
      <trkpt lat="44.88148" lon="6.7524">
        <ele>1953.1</ele>
        <time>2013-08-31T08:26:50Z</time>
      </trkpt>
      <trkpt lat="44.88146" lon="6.7524">
        <ele>1952.1</ele>
        <time>2013-08-31T08:26:51Z</time>
      </trkpt>
      <trkpt lat="44.88144" lon="6.7524">
        <ele>1951.6</ele>
        <time>2013-08-31T08:26:52Z</time>
      </trkpt>
      <trkpt lat="44.88142" lon="6.75239">
        <ele>1950.2</ele>
        <time>2013-08-31T08:27:00Z</time>
      </trkpt>
      <trkpt lat="44.88142" lon="6.75237">
        <ele>1949.2</ele>
        <time>2013-08-31T08:27:01Z</time>
      </trkpt>
      <trkpt lat="44.88143" lon="6.75235">
        <ele>1949.7</ele>
        <time>2013-08-31T08:27:02Z</time>
      </trkpt>
      <trkpt lat="44.88145" lon="6.75229">
        <ele>1948.3</ele>
        <time>2013-08-31T08:27:04Z</time>
      </trkpt>
      <trkpt lat="44.88145" lon="6.75227">
        <ele>1947.8</ele>
        <time>2013-08-31T08:27:05Z</time>
      </trkpt>
      <trkpt lat="44.88143" lon="6.75226">
        <ele>1947.3</ele>
        <time>2013-08-31T08:27:06Z</time>
      </trkpt>
      <trkpt lat="44.88142" lon="6.75227">
        <ele>1947.3</ele>
        <time>2013-08-31T08:27:07Z</time>
      </trkpt>
      <trkpt lat="44.88141" lon="6.7523">
        <ele>1947.3</ele>
        <time>2013-08-31T08:27:08Z</time>
      </trkpt>
      <trkpt lat="44.88139" lon="6.75232">
        <ele>1946.3</ele>
        <time>2013-08-31T08:27:09Z</time>
      </trkpt>
      <trkpt lat="44.88137" lon="6.75233">
        <ele>1945.9</ele>
        <time>2013-08-31T08:27:10Z</time>
      </trkpt>
      <trkpt lat="44.88135" lon="6.75232">
        <ele>1944.9</ele>
        <time>2013-08-31T08:27:11Z</time>
      </trkpt>
      <trkpt lat="44.88133" lon="6.75231">
        <ele>1944.9</ele>
        <time>2013-08-31T08:27:12Z</time>
      </trkpt>
      <trkpt lat="44.8813" lon="6.7523">
        <ele>1943.9</ele>
        <time>2013-08-31T08:27:13Z</time>
      </trkpt>
      <trkpt lat="44.88128" lon="6.75229">
        <ele>1943</ele>
        <time>2013-08-31T08:27:14Z</time>
      </trkpt>
      <trkpt lat="44.88124" lon="6.75226">
        <ele>1942</ele>
        <time>2013-08-31T08:27:16Z</time>
      </trkpt>
      <trkpt lat="44.88116" lon="6.75221">
        <ele>1940.1</ele>
        <time>2013-08-31T08:27:19Z</time>
      </trkpt>
      <trkpt lat="44.88111" lon="6.75219">
        <ele>1939.6</ele>
        <time>2013-08-31T08:27:20Z</time>
      </trkpt>
      <trkpt lat="44.88108" lon="6.75217">
        <ele>1939.1</ele>
        <time>2013-08-31T08:27:21Z</time>
      </trkpt>
      <trkpt lat="44.88091" lon="6.75208">
        <ele>1934.8</ele>
        <time>2013-08-31T08:27:26Z</time>
      </trkpt>
      <trkpt lat="44.88089" lon="6.75206">
        <ele>1934.8</ele>
        <time>2013-08-31T08:27:27Z</time>
      </trkpt>
      <trkpt lat="44.88085" lon="6.75201">
        <ele>1933.4</ele>
        <time>2013-08-31T08:27:35Z</time>
      </trkpt>
      <trkpt lat="44.88084" lon="6.75198">
        <ele>1933.4</ele>
        <time>2013-08-31T08:27:38Z</time>
      </trkpt>
      <trkpt lat="44.88083" lon="6.75196">
        <ele>1932.9</ele>
        <time>2013-08-31T08:27:39Z</time>
      </trkpt>
      <trkpt lat="44.88072" lon="6.75187">
        <ele>1931.4</ele>
        <time>2013-08-31T08:27:52Z</time>
      </trkpt>
      <trkpt lat="44.88069" lon="6.75185">
        <ele>1931</ele>
        <time>2013-08-31T08:28:12Z</time>
      </trkpt>
      <trkpt lat="44.88069" lon="6.75187">
        <ele>1931.4</ele>
        <time>2013-08-31T08:28:39Z</time>
      </trkpt>
      <trkpt lat="44.88052" lon="6.75172">
        <ele>1930</ele>
        <time>2013-08-31T08:28:51Z</time>
      </trkpt>
      <trkpt lat="44.88043" lon="6.75164">
        <ele>1929.5</ele>
        <time>2013-08-31T08:28:54Z</time>
      </trkpt>
      <trkpt lat="44.88039" lon="6.75161">
        <ele>1928.5</ele>
        <time>2013-08-31T08:28:55Z</time>
      </trkpt>
      <trkpt lat="44.8803" lon="6.75155">
        <ele>1928.1</ele>
        <time>2013-08-31T08:28:57Z</time>
      </trkpt>
      <trkpt lat="44.88023" lon="6.75152">
        <ele>1926.6</ele>
        <time>2013-08-31T08:29:00Z</time>
      </trkpt>
      <trkpt lat="44.88021" lon="6.75148">
        <ele>1925.7</ele>
        <time>2013-08-31T08:29:19Z</time>
      </trkpt>
      <trkpt lat="44.8802" lon="6.75146">
        <ele>1926.1</ele>
        <time>2013-08-31T08:29:20Z</time>
      </trkpt>
      <trkpt lat="44.88019" lon="6.75143">
        <ele>1926.1</ele>
        <time>2013-08-31T08:29:21Z</time>
      </trkpt>
      <trkpt lat="44.88019" lon="6.75141">
        <ele>1926.1</ele>
        <time>2013-08-31T08:29:22Z</time>
      </trkpt>
      <trkpt lat="44.88018" lon="6.75139">
        <ele>1925.2</ele>
        <time>2013-08-31T08:29:23Z</time>
      </trkpt>
      <trkpt lat="44.88015" lon="6.75093">
        <ele>1924.7</ele>
        <time>2013-08-31T08:29:36Z</time>
      </trkpt>
      <trkpt lat="44.88013" lon="6.75059">
        <ele>1922.8</ele>
        <time>2013-08-31T08:29:44Z</time>
      </trkpt>
      <trkpt lat="44.88007" lon="6.75045">
        <ele>1921.8</ele>
        <time>2013-08-31T08:29:46Z</time>
      </trkpt>
      <trkpt lat="44.88005" lon="6.75037">
        <ele>1921.3</ele>
        <time>2013-08-31T08:29:47Z</time>
      </trkpt>
      <trkpt lat="44.88002" lon="6.75023">
        <ele>1921.8</ele>
        <time>2013-08-31T08:29:49Z</time>
      </trkpt>
      <trkpt lat="44.87999" lon="6.75017">
        <ele>1921.3</ele>
        <time>2013-08-31T08:29:50Z</time>
      </trkpt>
      <trkpt lat="44.87996" lon="6.75012">
        <ele>1920.9</ele>
        <time>2013-08-31T08:29:51Z</time>
      </trkpt>
      <trkpt lat="44.87992" lon="6.75009">
        <ele>1920.9</ele>
        <time>2013-08-31T08:29:52Z</time>
      </trkpt>
      <trkpt lat="44.87989" lon="6.75007">
        <ele>1920.4</ele>
        <time>2013-08-31T08:29:53Z</time>
      </trkpt>
      <trkpt lat="44.87985" lon="6.75002">
        <ele>1920.4</ele>
        <time>2013-08-31T08:29:54Z</time>
      </trkpt>
      <trkpt lat="44.87982" lon="6.74996">
        <ele>1919.4</ele>
        <time>2013-08-31T08:29:55Z</time>
      </trkpt>
      <trkpt lat="44.87979" lon="6.74989">
        <ele>1919.4</ele>
        <time>2013-08-31T08:29:56Z</time>
      </trkpt>
      <trkpt lat="44.87972" lon="6.74971">
        <ele>1918</ele>
        <time>2013-08-31T08:29:59Z</time>
      </trkpt>
      <trkpt lat="44.87969" lon="6.7496">
        <ele>1917</ele>
        <time>2013-08-31T08:30:01Z</time>
      </trkpt>
      <trkpt lat="44.87968" lon="6.74953">
        <ele>1916.5</ele>
        <time>2013-08-31T08:30:02Z</time>
      </trkpt>
      <trkpt lat="44.87962" lon="6.74885">
        <ele>1913.6</ele>
        <time>2013-08-31T08:30:11Z</time>
      </trkpt>
      <trkpt lat="44.87959" lon="6.74858">
        <ele>1912.7</ele>
        <time>2013-08-31T08:30:14Z</time>
      </trkpt>
      <trkpt lat="44.87956" lon="6.7485">
        <ele>1911.7</ele>
        <time>2013-08-31T08:30:15Z</time>
      </trkpt>
      <trkpt lat="44.87953" lon="6.74842">
        <ele>1911.2</ele>
        <time>2013-08-31T08:30:16Z</time>
      </trkpt>
      <trkpt lat="44.87938" lon="6.7481">
        <ele>1909.3</ele>
        <time>2013-08-31T08:30:20Z</time>
      </trkpt>
      <trkpt lat="44.87936" lon="6.74801">
        <ele>1908.4</ele>
        <time>2013-08-31T08:30:21Z</time>
      </trkpt>
      <trkpt lat="44.87934" lon="6.74792">
        <ele>1907.9</ele>
        <time>2013-08-31T08:30:22Z</time>
      </trkpt>
      <trkpt lat="44.87932" lon="6.74784">
        <ele>1906.9</ele>
        <time>2013-08-31T08:30:23Z</time>
      </trkpt>
      <trkpt lat="44.8793" lon="6.74776">
        <ele>1906</ele>
        <time>2013-08-31T08:30:24Z</time>
      </trkpt>
      <trkpt lat="44.87928" lon="6.74769">
        <ele>1905.5</ele>
        <time>2013-08-31T08:30:25Z</time>
      </trkpt>
      <trkpt lat="44.87925" lon="6.74763">
        <ele>1904.5</ele>
        <time>2013-08-31T08:30:26Z</time>
      </trkpt>
      <trkpt lat="44.87922" lon="6.74757">
        <ele>1904</ele>
        <time>2013-08-31T08:30:27Z</time>
      </trkpt>
      <trkpt lat="44.87918" lon="6.74754">
        <ele>1904</ele>
        <time>2013-08-31T08:30:28Z</time>
      </trkpt>
      <trkpt lat="44.87915" lon="6.74751">
        <ele>1903.6</ele>
        <time>2013-08-31T08:30:29Z</time>
      </trkpt>
      <trkpt lat="44.87912" lon="6.7475">
        <ele>1903.6</ele>
        <time>2013-08-31T08:30:30Z</time>
      </trkpt>
      <trkpt lat="44.87909" lon="6.74751">
        <ele>1902.6</ele>
        <time>2013-08-31T08:30:31Z</time>
      </trkpt>
      <trkpt lat="44.87908" lon="6.74754">
        <ele>1902.6</ele>
        <time>2013-08-31T08:30:32Z</time>
      </trkpt>
      <trkpt lat="44.87907" lon="6.74758">
        <ele>1902.1</ele>
        <time>2013-08-31T08:30:33Z</time>
      </trkpt>
      <trkpt lat="44.87907" lon="6.74763">
        <ele>1902.1</ele>
        <time>2013-08-31T08:30:34Z</time>
      </trkpt>
      <trkpt lat="44.87909" lon="6.74768">
        <ele>1901.6</ele>
        <time>2013-08-31T08:30:35Z</time>
      </trkpt>
      <trkpt lat="44.87911" lon="6.74773">
        <ele>1901.6</ele>
        <time>2013-08-31T08:30:36Z</time>
      </trkpt>
      <trkpt lat="44.87913" lon="6.74778">
        <ele>1901.1</ele>
        <time>2013-08-31T08:30:37Z</time>
      </trkpt>
      <trkpt lat="44.87916" lon="6.74784">
        <ele>1901.6</ele>
        <time>2013-08-31T08:30:38Z</time>
      </trkpt>
      <trkpt lat="44.87921" lon="6.74802">
        <ele>1900.2</ele>
        <time>2013-08-31T08:30:41Z</time>
      </trkpt>
      <trkpt lat="44.87921" lon="6.74809">
        <ele>1900.2</ele>
        <time>2013-08-31T08:30:42Z</time>
      </trkpt>
      <trkpt lat="44.87921" lon="6.74816">
        <ele>1899.7</ele>
        <time>2013-08-31T08:30:43Z</time>
      </trkpt>
      <trkpt lat="44.87921" lon="6.74823">
        <ele>1900.2</ele>
        <time>2013-08-31T08:30:44Z</time>
      </trkpt>
      <trkpt lat="44.8792" lon="6.7483">
        <ele>1899.7</ele>
        <time>2013-08-31T08:30:45Z</time>
      </trkpt>
      <trkpt lat="44.87918" lon="6.74837">
        <ele>1899.2</ele>
        <time>2013-08-31T08:30:46Z</time>
      </trkpt>
      <trkpt lat="44.87915" lon="6.74844">
        <ele>1899.2</ele>
        <time>2013-08-31T08:30:47Z</time>
      </trkpt>
      <trkpt lat="44.87913" lon="6.7485">
        <ele>1899.2</ele>
        <time>2013-08-31T08:30:48Z</time>
      </trkpt>
      <trkpt lat="44.8791" lon="6.74855">
        <ele>1898.7</ele>
        <time>2013-08-31T08:30:49Z</time>
      </trkpt>
      <trkpt lat="44.87906" lon="6.74859">
        <ele>1898.7</ele>
        <time>2013-08-31T08:30:50Z</time>
      </trkpt>
      <trkpt lat="44.87903" lon="6.74863">
        <ele>1897.8</ele>
        <time>2013-08-31T08:30:51Z</time>
      </trkpt>
      <trkpt lat="44.87899" lon="6.74866">
        <ele>1898.3</ele>
        <time>2013-08-31T08:30:52Z</time>
      </trkpt>
      <trkpt lat="44.87895" lon="6.7487">
        <ele>1898.3</ele>
        <time>2013-08-31T08:30:53Z</time>
      </trkpt>
      <trkpt lat="44.87892" lon="6.74873">
        <ele>1897.3</ele>
        <time>2013-08-31T08:30:54Z</time>
      </trkpt>
      <trkpt lat="44.87872" lon="6.74904">
        <ele>1896.3</ele>
        <time>2013-08-31T08:31:04Z</time>
      </trkpt>
      <trkpt lat="44.87872" lon="6.74901">
        <ele>1896.3</ele>
        <time>2013-08-31T08:31:25Z</time>
      </trkpt>
      <trkpt lat="44.87869" lon="6.74921">
        <ele>1895.9</ele>
        <time>2013-08-31T08:31:42Z</time>
      </trkpt>
      <trkpt lat="44.8787" lon="6.74928">
        <ele>1895.4</ele>
        <time>2013-08-31T08:31:51Z</time>
      </trkpt>
      <trkpt lat="44.87866" lon="6.74971">
        <ele>1893.5</ele>
        <time>2013-08-31T08:32:04Z</time>
      </trkpt>
      <trkpt lat="44.87857" lon="6.7501">
        <ele>1892</ele>
        <time>2013-08-31T08:32:11Z</time>
      </trkpt>
      <trkpt lat="44.87856" lon="6.75033">
        <ele>1891.5</ele>
        <time>2013-08-31T08:32:14Z</time>
      </trkpt>
      <trkpt lat="44.87857" lon="6.75062">
        <ele>1891.1</ele>
        <time>2013-08-31T08:32:18Z</time>
      </trkpt>
      <trkpt lat="44.87857" lon="6.75067">
        <ele>1890.6</ele>
        <time>2013-08-31T08:32:19Z</time>
      </trkpt>
      <trkpt lat="44.87854" lon="6.75122">
        <ele>1888.7</ele>
        <time>2013-08-31T08:32:30Z</time>
      </trkpt>
      <trkpt lat="44.8785" lon="6.75139">
        <ele>1888.2</ele>
        <time>2013-08-31T08:32:33Z</time>
      </trkpt>
      <trkpt lat="44.87848" lon="6.75152">
        <ele>1887.7</ele>
        <time>2013-08-31T08:32:35Z</time>
      </trkpt>
      <trkpt lat="44.87846" lon="6.75159">
        <ele>1887.7</ele>
        <time>2013-08-31T08:32:36Z</time>
      </trkpt>
      <trkpt lat="44.87842" lon="6.7518">
        <ele>1886.7</ele>
        <time>2013-08-31T08:32:39Z</time>
      </trkpt>
      <trkpt lat="44.8784" lon="6.75187">
        <ele>1887.2</ele>
        <time>2013-08-31T08:32:40Z</time>
      </trkpt>
      <trkpt lat="44.87831" lon="6.75254">
        <ele>1884.3</ele>
        <time>2013-08-31T08:32:49Z</time>
      </trkpt>
      <trkpt lat="44.87826" lon="6.75294">
        <ele>1881.9</ele>
        <time>2013-08-31T08:32:54Z</time>
      </trkpt>
      <trkpt lat="44.87823" lon="6.75302">
        <ele>1881.9</ele>
        <time>2013-08-31T08:32:55Z</time>
      </trkpt>
      <trkpt lat="44.87819" lon="6.75307">
        <ele>1881</ele>
        <time>2013-08-31T08:32:56Z</time>
      </trkpt>
      <trkpt lat="44.87813" lon="6.75312">
        <ele>1881.4</ele>
        <time>2013-08-31T08:32:57Z</time>
      </trkpt>
      <trkpt lat="44.87808" lon="6.75316">
        <ele>1881</ele>
        <time>2013-08-31T08:32:58Z</time>
      </trkpt>
      <trkpt lat="44.87788" lon="6.75333">
        <ele>1880.5</ele>
        <time>2013-08-31T08:33:02Z</time>
      </trkpt>
      <trkpt lat="44.87783" lon="6.75337">
        <ele>1880</ele>
        <time>2013-08-31T08:33:03Z</time>
      </trkpt>
      <trkpt lat="44.87779" lon="6.75338">
        <ele>1879.5</ele>
        <time>2013-08-31T08:33:04Z</time>
      </trkpt>
      <trkpt lat="44.87774" lon="6.75338">
        <ele>1879.5</ele>
        <time>2013-08-31T08:33:05Z</time>
      </trkpt>
      <trkpt lat="44.8777" lon="6.75335">
        <ele>1878.6</ele>
        <time>2013-08-31T08:33:06Z</time>
      </trkpt>
      <trkpt lat="44.87766" lon="6.7533">
        <ele>1879</ele>
        <time>2013-08-31T08:33:07Z</time>
      </trkpt>
      <trkpt lat="44.87761" lon="6.75326">
        <ele>1878.1</ele>
        <time>2013-08-31T08:33:08Z</time>
      </trkpt>
      <trkpt lat="44.87756" lon="6.75323">
        <ele>1877.6</ele>
        <time>2013-08-31T08:33:09Z</time>
      </trkpt>
      <trkpt lat="44.87751" lon="6.75322">
        <ele>1877.6</ele>
        <time>2013-08-31T08:33:10Z</time>
      </trkpt>
      <trkpt lat="44.87746" lon="6.75324">
        <ele>1877.6</ele>
        <time>2013-08-31T08:33:11Z</time>
      </trkpt>
      <trkpt lat="44.87742" lon="6.75328">
        <ele>1877.6</ele>
        <time>2013-08-31T08:33:12Z</time>
      </trkpt>
      <trkpt lat="44.8774" lon="6.75333">
        <ele>1877.6</ele>
        <time>2013-08-31T08:33:13Z</time>
      </trkpt>
      <trkpt lat="44.87738" lon="6.75338">
        <ele>1877.6</ele>
        <time>2013-08-31T08:33:14Z</time>
      </trkpt>
      <trkpt lat="44.87736" lon="6.75344">
        <ele>1877.1</ele>
        <time>2013-08-31T08:33:15Z</time>
      </trkpt>
      <trkpt lat="44.87714" lon="6.7544">
        <ele>1878.6</ele>
        <time>2013-08-31T08:33:32Z</time>
      </trkpt>
      <trkpt lat="44.8771" lon="6.75463">
        <ele>1878.6</ele>
        <time>2013-08-31T08:33:36Z</time>
      </trkpt>
      <trkpt lat="44.87694" lon="6.75531">
        <ele>1878.1</ele>
        <time>2013-08-31T08:33:48Z</time>
      </trkpt>
      <trkpt lat="44.87685" lon="6.75571">
        <ele>1878.6</ele>
        <time>2013-08-31T08:33:55Z</time>
      </trkpt>
      <trkpt lat="44.87684" lon="6.75577">
        <ele>1879</ele>
        <time>2013-08-31T08:33:56Z</time>
      </trkpt>
      <trkpt lat="44.8766" lon="6.75685">
        <ele>1879</ele>
        <time>2013-08-31T08:34:14Z</time>
      </trkpt>
      <trkpt lat="44.87634" lon="6.75789">
        <ele>1879.5</ele>
        <time>2013-08-31T08:34:31Z</time>
      </trkpt>
      <trkpt lat="44.8763" lon="6.75807">
        <ele>1880</ele>
        <time>2013-08-31T08:34:34Z</time>
      </trkpt>
      <trkpt lat="44.87629" lon="6.75813">
        <ele>1879.5</ele>
        <time>2013-08-31T08:34:35Z</time>
      </trkpt>
      <trkpt lat="44.87597" lon="6.75953">
        <ele>1880.5</ele>
        <time>2013-08-31T08:34:58Z</time>
      </trkpt>
      <trkpt lat="44.87582" lon="6.76064">
        <ele>1881.4</ele>
        <time>2013-08-31T08:35:15Z</time>
      </trkpt>
      <trkpt lat="44.87577" lon="6.76115">
        <ele>1881.9</ele>
        <time>2013-08-31T08:35:23Z</time>
      </trkpt>
      <trkpt lat="44.87576" lon="6.76122">
        <ele>1881.4</ele>
        <time>2013-08-31T08:35:24Z</time>
      </trkpt>
      <trkpt lat="44.87564" lon="6.76245">
        <ele>1882.4</ele>
        <time>2013-08-31T08:35:43Z</time>
      </trkpt>
      <trkpt lat="44.87555" lon="6.76349">
        <ele>1883.8</ele>
        <time>2013-08-31T08:36:00Z</time>
      </trkpt>
      <trkpt lat="44.87545" lon="6.76454">
        <ele>1883.4</ele>
        <time>2013-08-31T08:36:17Z</time>
      </trkpt>
      <trkpt lat="44.87543" lon="6.7646">
        <ele>1883.4</ele>
        <time>2013-08-31T08:36:18Z</time>
      </trkpt>
      <trkpt lat="44.87531" lon="6.76587">
        <ele>1884.3</ele>
        <time>2013-08-31T08:36:38Z</time>
      </trkpt>
      <trkpt lat="44.87523" lon="6.76658">
        <ele>1885.3</ele>
        <time>2013-08-31T08:36:49Z</time>
      </trkpt>
      <trkpt lat="44.87523" lon="6.76663">
        <ele>1885.3</ele>
        <time>2013-08-31T08:36:50Z</time>
      </trkpt>
      <trkpt lat="44.87513" lon="6.76755">
        <ele>1885.3</ele>
        <time>2013-08-31T08:37:05Z</time>
      </trkpt>
      <trkpt lat="44.87493" lon="6.76894">
        <ele>1886.2</ele>
        <time>2013-08-31T08:37:27Z</time>
      </trkpt>
      <trkpt lat="44.8747" lon="6.7699">
        <ele>1887.7</ele>
        <time>2013-08-31T08:37:44Z</time>
      </trkpt>
      <trkpt lat="44.87465" lon="6.77007">
        <ele>1887.7</ele>
        <time>2013-08-31T08:37:54Z</time>
      </trkpt>
      <trkpt lat="44.87466" lon="6.77009">
        <ele>1887.2</ele>
        <time>2013-08-31T08:38:34Z</time>
      </trkpt>
      <trkpt lat="44.87458" lon="6.77035">
        <ele>1887.7</ele>
        <time>2013-08-31T08:38:44Z</time>
      </trkpt>
      <trkpt lat="44.87437" lon="6.7711">
        <ele>1888.2</ele>
        <time>2013-08-31T08:39:00Z</time>
      </trkpt>
      <trkpt lat="44.87415" lon="6.77217">
        <ele>1888.7</ele>
        <time>2013-08-31T08:39:19Z</time>
      </trkpt>
      <trkpt lat="44.87403" lon="6.77332">
        <ele>1889.6</ele>
        <time>2013-08-31T08:39:38Z</time>
      </trkpt>
      <trkpt lat="44.87395" lon="6.77461">
        <ele>1890.6</ele>
        <time>2013-08-31T08:39:58Z</time>
      </trkpt>
      <trkpt lat="44.8739" lon="6.77588">
        <ele>1892</ele>
        <time>2013-08-31T08:40:19Z</time>
      </trkpt>
      <trkpt lat="44.87386" lon="6.77619">
        <ele>1891.5</ele>
        <time>2013-08-31T08:40:24Z</time>
      </trkpt>
      <trkpt lat="44.87384" lon="6.77625">
        <ele>1891.5</ele>
        <time>2013-08-31T08:40:25Z</time>
      </trkpt>
      <trkpt lat="44.87381" lon="6.77631">
        <ele>1891.1</ele>
        <time>2013-08-31T08:40:26Z</time>
      </trkpt>
      <trkpt lat="44.87321" lon="6.77739">
        <ele>1893</ele>
        <time>2013-08-31T08:40:47Z</time>
      </trkpt>
      <trkpt lat="44.87268" lon="6.77834">
        <ele>1894.4</ele>
        <time>2013-08-31T08:41:06Z</time>
      </trkpt>
      <trkpt lat="44.8721" lon="6.77939">
        <ele>1896.3</ele>
        <time>2013-08-31T08:41:29Z</time>
      </trkpt>
      <trkpt lat="44.8715" lon="6.78048">
        <ele>1898.7</ele>
        <time>2013-08-31T08:41:52Z</time>
      </trkpt>
      <trkpt lat="44.87107" lon="6.78128">
        <ele>1900.2</ele>
        <time>2013-08-31T08:42:11Z</time>
      </trkpt>
      <trkpt lat="44.87065" lon="6.78204">
        <ele>1903.1</ele>
        <time>2013-08-31T08:42:31Z</time>
      </trkpt>
      <trkpt lat="44.87041" lon="6.78251">
        <ele>1904</ele>
        <time>2013-08-31T08:42:45Z</time>
      </trkpt>
      <trkpt lat="44.87001" lon="6.78327">
        <ele>1905.5</ele>
        <time>2013-08-31T08:43:04Z</time>
      </trkpt>
      <trkpt lat="44.86953" lon="6.78381">
        <ele>1907.4</ele>
        <time>2013-08-31T08:43:21Z</time>
      </trkpt>
      <trkpt lat="44.86919" lon="6.78408">
        <ele>1908.8</ele>
        <time>2013-08-31T08:43:37Z</time>
      </trkpt>
      <trkpt lat="44.86904" lon="6.7842">
        <ele>1909.8</ele>
        <time>2013-08-31T08:43:50Z</time>
      </trkpt>
      <trkpt lat="44.86904" lon="6.78428">
        <ele>1909.8</ele>
        <time>2013-08-31T08:44:13Z</time>
      </trkpt>
      <trkpt lat="44.86898" lon="6.7843">
        <ele>1910.3</ele>
        <time>2013-08-31T08:44:27Z</time>
      </trkpt>
      <trkpt lat="44.86883" lon="6.78458">
        <ele>1911.2</ele>
        <time>2013-08-31T08:44:40Z</time>
      </trkpt>
      <trkpt lat="44.86856" lon="6.78482">
        <ele>1913.2</ele>
        <time>2013-08-31T08:44:56Z</time>
      </trkpt>
      <trkpt lat="44.86836" lon="6.78503">
        <ele>1914.6</ele>
        <time>2013-08-31T08:45:08Z</time>
      </trkpt>
      <trkpt lat="44.86817" lon="6.78523">
        <ele>1915.6</ele>
        <time>2013-08-31T08:45:20Z</time>
      </trkpt>
      <trkpt lat="44.86775" lon="6.78574">
        <ele>1918</ele>
        <time>2013-08-31T08:45:39Z</time>
      </trkpt>
      <trkpt lat="44.86743" lon="6.78639">
        <ele>1919.4</ele>
        <time>2013-08-31T08:45:57Z</time>
      </trkpt>
      <trkpt lat="44.86693" lon="6.78697">
        <ele>1921.3</ele>
        <time>2013-08-31T08:46:16Z</time>
      </trkpt>
      <trkpt lat="44.86645" lon="6.78749">
        <ele>1922.8</ele>
        <time>2013-08-31T08:46:35Z</time>
      </trkpt>
      <trkpt lat="44.86608" lon="6.78796">
        <ele>1925.2</ele>
        <time>2013-08-31T08:46:52Z</time>
      </trkpt>
      <trkpt lat="44.8658" lon="6.78828">
        <ele>1928.5</ele>
        <time>2013-08-31T08:47:07Z</time>
      </trkpt>
      <trkpt lat="44.86548" lon="6.78857">
        <ele>1931.4</ele>
        <time>2013-08-31T08:47:25Z</time>
      </trkpt>
      <trkpt lat="44.86506" lon="6.78895">
        <ele>1934.8</ele>
        <time>2013-08-31T08:47:46Z</time>
      </trkpt>
      <trkpt lat="44.86479" lon="6.7892">
        <ele>1935.8</ele>
        <time>2013-08-31T08:48:01Z</time>
      </trkpt>
      <trkpt lat="44.86452" lon="6.78949">
        <ele>1936.7</ele>
        <time>2013-08-31T08:48:14Z</time>
      </trkpt>
      <trkpt lat="44.86441" lon="6.78996">
        <ele>1938.2</ele>
        <time>2013-08-31T08:48:27Z</time>
      </trkpt>
      <trkpt lat="44.86456" lon="6.79047">
        <ele>1939.6</ele>
        <time>2013-08-31T08:48:42Z</time>
      </trkpt>
      <trkpt lat="44.86463" lon="6.7909">
        <ele>1941</ele>
        <time>2013-08-31T08:48:55Z</time>
      </trkpt>
      <trkpt lat="44.86438" lon="6.7914">
        <ele>1943</ele>
        <time>2013-08-31T08:49:10Z</time>
      </trkpt>
      <trkpt lat="44.86419" lon="6.79182">
        <ele>1945.9</ele>
        <time>2013-08-31T08:49:25Z</time>
      </trkpt>
      <trkpt lat="44.86401" lon="6.79217">
        <ele>1948.7</ele>
        <time>2013-08-31T08:49:39Z</time>
      </trkpt>
      <trkpt lat="44.8637" lon="6.79257">
        <ele>1951.6</ele>
        <time>2013-08-31T08:49:58Z</time>
      </trkpt>
      <trkpt lat="44.86343" lon="6.79295">
        <ele>1954.5</ele>
        <time>2013-08-31T08:50:15Z</time>
      </trkpt>
      <trkpt lat="44.86318" lon="6.79344">
        <ele>1956.9</ele>
        <time>2013-08-31T08:50:32Z</time>
      </trkpt>
      <trkpt lat="44.86289" lon="6.79406">
        <ele>1959.8</ele>
        <time>2013-08-31T08:50:51Z</time>
      </trkpt>
      <trkpt lat="44.86267" lon="6.79455">
        <ele>1961.2</ele>
        <time>2013-08-31T08:51:07Z</time>
      </trkpt>
      <trkpt lat="44.86241" lon="6.79506">
        <ele>1963.6</ele>
        <time>2013-08-31T08:51:24Z</time>
      </trkpt>
      <trkpt lat="44.86197" lon="6.79568">
        <ele>1965.6</ele>
        <time>2013-08-31T08:51:44Z</time>
      </trkpt>
      <trkpt lat="44.86147" lon="6.79645">
        <ele>1967</ele>
        <time>2013-08-31T08:52:05Z</time>
      </trkpt>
      <trkpt lat="44.86103" lon="6.79707">
        <ele>1968.4</ele>
        <time>2013-08-31T08:52:22Z</time>
      </trkpt>
      <trkpt lat="44.86059" lon="6.79747">
        <ele>1970.4</ele>
        <time>2013-08-31T08:52:38Z</time>
      </trkpt>
      <trkpt lat="44.86009" lon="6.7978">
        <ele>1973.7</ele>
        <time>2013-08-31T08:52:58Z</time>
      </trkpt>
      <trkpt lat="44.85955" lon="6.79796">
        <ele>1975.7</ele>
        <time>2013-08-31T08:53:17Z</time>
      </trkpt>
      <trkpt lat="44.85921" lon="6.79815">
        <ele>1976.6</ele>
        <time>2013-08-31T08:53:32Z</time>
      </trkpt>
      <trkpt lat="44.85891" lon="6.79824">
        <ele>1977.1</ele>
        <time>2013-08-31T08:53:44Z</time>
      </trkpt>
      <trkpt lat="44.85859" lon="6.79858">
        <ele>1977.6</ele>
        <time>2013-08-31T08:53:58Z</time>
      </trkpt>
      <trkpt lat="44.85821" lon="6.79895">
        <ele>1980</ele>
        <time>2013-08-31T08:54:14Z</time>
      </trkpt>
      <trkpt lat="44.85819" lon="6.79897">
        <ele>1980.5</ele>
        <time>2013-08-31T08:54:16Z</time>
      </trkpt>
      <trkpt lat="44.85818" lon="6.79901">
        <ele>1980</ele>
        <time>2013-08-31T08:54:25Z</time>
      </trkpt>
      <trkpt lat="44.85818" lon="6.79902">
        <ele>1980</ele>
        <time>2013-08-31T08:54:59Z</time>
      </trkpt>
      <trkpt lat="44.85817" lon="6.79899">
        <ele>1979.5</ele>
        <time>2013-08-31T08:55:29Z</time>
      </trkpt>
      <trkpt lat="44.85813" lon="6.79901">
        <ele>1980</ele>
        <time>2013-08-31T08:56:05Z</time>
      </trkpt>
      <trkpt lat="44.85813" lon="6.79896">
        <ele>1980.9</ele>
        <time>2013-08-31T08:56:19Z</time>
      </trkpt>
      <trkpt lat="44.85812" lon="6.79896">
        <ele>1980.5</ele>
        <time>2013-08-31T08:56:20Z</time>
      </trkpt>
      <trkpt lat="44.85811" lon="6.79897">
        <ele>1981.4</ele>
        <time>2013-08-31T08:56:21Z</time>
      </trkpt>
      <trkpt lat="44.85809" lon="6.79898">
        <ele>1980.5</ele>
        <time>2013-08-31T08:56:22Z</time>
      </trkpt>
      <trkpt lat="44.85808" lon="6.79899">
        <ele>1980.9</ele>
        <time>2013-08-31T08:56:23Z</time>
      </trkpt>
      <trkpt lat="44.85783" lon="6.79914">
        <ele>1980</ele>
        <time>2013-08-31T08:56:36Z</time>
      </trkpt>
      <trkpt lat="44.85759" lon="6.79931">
        <ele>1981.4</ele>
        <time>2013-08-31T08:56:50Z</time>
      </trkpt>
      <trkpt lat="44.85741" lon="6.79955">
        <ele>1980.9</ele>
        <time>2013-08-31T08:56:58Z</time>
      </trkpt>
      <trkpt lat="44.85731" lon="6.79967">
        <ele>1980.5</ele>
        <time>2013-08-31T08:57:01Z</time>
      </trkpt>
      <trkpt lat="44.85728" lon="6.79969">
        <ele>1980.5</ele>
        <time>2013-08-31T08:57:02Z</time>
      </trkpt>
      <trkpt lat="44.85724" lon="6.7997">
        <ele>1980.9</ele>
        <time>2013-08-31T08:57:03Z</time>
      </trkpt>
      <trkpt lat="44.85699" lon="6.79986">
        <ele>1982.4</ele>
        <time>2013-08-31T08:57:12Z</time>
      </trkpt>
      <trkpt lat="44.85678" lon="6.80013">
        <ele>1985.3</ele>
        <time>2013-08-31T08:57:25Z</time>
      </trkpt>
      <trkpt lat="44.8565" lon="6.80052">
        <ele>1986.7</ele>
        <time>2013-08-31T08:57:44Z</time>
      </trkpt>
      <trkpt lat="44.85619" lon="6.80096">
        <ele>1985.3</ele>
        <time>2013-08-31T08:57:58Z</time>
      </trkpt>
      <trkpt lat="44.85591" lon="6.80142">
        <ele>1986.2</ele>
        <time>2013-08-31T08:58:13Z</time>
      </trkpt>
      <trkpt lat="44.85588" lon="6.80151">
        <ele>1987.2</ele>
        <time>2013-08-31T08:58:23Z</time>
      </trkpt>
      <trkpt lat="44.85588" lon="6.80155">
        <ele>1983.8</ele>
        <time>2013-08-31T08:58:27Z</time>
      </trkpt>
      <trkpt lat="44.85588" lon="6.80156">
        <ele>1983.8</ele>
        <time>2013-08-31T08:58:28Z</time>
      </trkpt>
      <trkpt lat="44.85581" lon="6.80172">
        <ele>1977.6</ele>
        <time>2013-08-31T09:19:50Z</time>
      </trkpt>
      <trkpt lat="44.8558" lon="6.80175">
        <ele>1977.6</ele>
        <time>2013-08-31T09:19:52Z</time>
      </trkpt>
      <trkpt lat="44.85572" lon="6.80206">
        <ele>1980.9</ele>
        <time>2013-08-31T09:20:08Z</time>
      </trkpt>
      <trkpt lat="44.85555" lon="6.80235">
        <ele>1981.9</ele>
        <time>2013-08-31T09:20:23Z</time>
      </trkpt>
      <trkpt lat="44.85539" lon="6.80253">
        <ele>1984.3</ele>
        <time>2013-08-31T09:20:38Z</time>
      </trkpt>
      <trkpt lat="44.85525" lon="6.80266">
        <ele>1986.2</ele>
        <time>2013-08-31T09:20:53Z</time>
      </trkpt>
      <trkpt lat="44.85505" lon="6.80286">
        <ele>1989.1</ele>
        <time>2013-08-31T09:21:11Z</time>
      </trkpt>
      <trkpt lat="44.8549" lon="6.80309">
        <ele>1991.5</ele>
        <time>2013-08-31T09:21:27Z</time>
      </trkpt>
      <trkpt lat="44.85472" lon="6.80329">
        <ele>1993.4</ele>
        <time>2013-08-31T09:21:43Z</time>
      </trkpt>
      <trkpt lat="44.85449" lon="6.8035">
        <ele>1996.3</ele>
        <time>2013-08-31T09:22:03Z</time>
      </trkpt>
      <trkpt lat="44.85423" lon="6.80353">
        <ele>1999.7</ele>
        <time>2013-08-31T09:22:19Z</time>
      </trkpt>
      <trkpt lat="44.85392" lon="6.80365">
        <ele>2002.6</ele>
        <time>2013-08-31T09:22:40Z</time>
      </trkpt>
      <trkpt lat="44.85369" lon="6.80374">
        <ele>2005.5</ele>
        <time>2013-08-31T09:22:57Z</time>
      </trkpt>
      <trkpt lat="44.85346" lon="6.80394">
        <ele>2007.4</ele>
        <time>2013-08-31T09:23:14Z</time>
      </trkpt>
      <trkpt lat="44.85321" lon="6.80421">
        <ele>2008.8</ele>
        <time>2013-08-31T09:23:29Z</time>
      </trkpt>
      <trkpt lat="44.85297" lon="6.80452">
        <ele>2010.7</ele>
        <time>2013-08-31T09:23:45Z</time>
      </trkpt>
      <trkpt lat="44.85288" lon="6.80468">
        <ele>2011.7</ele>
        <time>2013-08-31T09:23:51Z</time>
      </trkpt>
      <trkpt lat="44.85262" lon="6.80506">
        <ele>2014.6</ele>
        <time>2013-08-31T09:24:09Z</time>
      </trkpt>
      <trkpt lat="44.85235" lon="6.80551">
        <ele>2017.5</ele>
        <time>2013-08-31T09:24:29Z</time>
      </trkpt>
      <trkpt lat="44.85217" lon="6.80581">
        <ele>2019.9</ele>
        <time>2013-08-31T09:24:45Z</time>
      </trkpt>
      <trkpt lat="44.85216" lon="6.80583">
        <ele>2019.9</ele>
        <time>2013-08-31T09:24:46Z</time>
      </trkpt>
      <trkpt lat="44.85199" lon="6.80628">
        <ele>2022.3</ele>
        <time>2013-08-31T09:25:06Z</time>
      </trkpt>
      <trkpt lat="44.85178" lon="6.80673">
        <ele>2024.7</ele>
        <time>2013-08-31T09:25:25Z</time>
      </trkpt>
      <trkpt lat="44.85151" lon="6.80721">
        <ele>2027.6</ele>
        <time>2013-08-31T09:25:44Z</time>
      </trkpt>
      <trkpt lat="44.85137" lon="6.80747">
        <ele>2029.5</ele>
        <time>2013-08-31T09:25:54Z</time>
      </trkpt>
      <trkpt lat="44.85096" lon="6.80782">
        <ele>2031.4</ele>
        <time>2013-08-31T09:26:13Z</time>
      </trkpt>
      <trkpt lat="44.85068" lon="6.8083">
        <ele>2032.4</ele>
        <time>2013-08-31T09:26:28Z</time>
      </trkpt>
      <trkpt lat="44.85027" lon="6.80904">
        <ele>2033.8</ele>
        <time>2013-08-31T09:26:48Z</time>
      </trkpt>
      <trkpt lat="44.84981" lon="6.80932">
        <ele>2035.7</ele>
        <time>2013-08-31T09:27:03Z</time>
      </trkpt>
      <trkpt lat="44.84939" lon="6.80976">
        <ele>2037.7</ele>
        <time>2013-08-31T09:27:18Z</time>
      </trkpt>
      <trkpt lat="44.84899" lon="6.81038">
        <ele>2040.5</ele>
        <time>2013-08-31T09:27:37Z</time>
      </trkpt>
      <trkpt lat="44.84862" lon="6.81067">
        <ele>2042.9</ele>
        <time>2013-08-31T09:27:55Z</time>
      </trkpt>
      <trkpt lat="44.84818" lon="6.81108">
        <ele>2044.9</ele>
        <time>2013-08-31T09:28:13Z</time>
      </trkpt>
      <trkpt lat="44.84772" lon="6.81161">
        <ele>2047.3</ele>
        <time>2013-08-31T09:28:33Z</time>
      </trkpt>
      <trkpt lat="44.84736" lon="6.81219">
        <ele>2048.2</ele>
        <time>2013-08-31T09:28:49Z</time>
      </trkpt>
      <trkpt lat="44.84703" lon="6.81268">
        <ele>2049.7</ele>
        <time>2013-08-31T09:29:03Z</time>
      </trkpt>
      <trkpt lat="44.84674" lon="6.81305">
        <ele>2049.7</ele>
        <time>2013-08-31T09:29:13Z</time>
      </trkpt>
      <trkpt lat="44.84619" lon="6.81371">
        <ele>2051.1</ele>
        <time>2013-08-31T09:29:32Z</time>
      </trkpt>
      <trkpt lat="44.84613" lon="6.81379">
        <ele>2051.1</ele>
        <time>2013-08-31T09:29:34Z</time>
      </trkpt>
      <trkpt lat="44.84611" lon="6.81383">
        <ele>2051.6</ele>
        <time>2013-08-31T09:29:35Z</time>
      </trkpt>
      <trkpt lat="44.8458" lon="6.81468">
        <ele>2049.7</ele>
        <time>2013-08-31T09:29:49Z</time>
      </trkpt>
      <trkpt lat="44.84526" lon="6.81563">
        <ele>2047.8</ele>
        <time>2013-08-31T09:30:04Z</time>
      </trkpt>
      <trkpt lat="44.84492" lon="6.81602">
        <ele>2047.3</ele>
        <time>2013-08-31T09:30:16Z</time>
      </trkpt>
      <trkpt lat="44.84457" lon="6.81605">
        <ele>2047.3</ele>
        <time>2013-08-31T09:30:29Z</time>
      </trkpt>
      <trkpt lat="44.84426" lon="6.81606">
        <ele>2048.2</ele>
        <time>2013-08-31T09:30:43Z</time>
      </trkpt>
      <trkpt lat="44.84408" lon="6.8165">
        <ele>2050.2</ele>
        <time>2013-08-31T09:30:59Z</time>
      </trkpt>
      <trkpt lat="44.84405" lon="6.8166">
        <ele>2051.1</ele>
        <time>2013-08-31T09:31:03Z</time>
      </trkpt>
      <trkpt lat="44.84403" lon="6.81661">
        <ele>2051.1</ele>
        <time>2013-08-31T09:31:04Z</time>
      </trkpt>
      <trkpt lat="44.84401" lon="6.81662">
        <ele>2052.1</ele>
        <time>2013-08-31T09:31:05Z</time>
      </trkpt>
      <trkpt lat="44.84399" lon="6.81662">
        <ele>2052.1</ele>
        <time>2013-08-31T09:31:06Z</time>
      </trkpt>
      <trkpt lat="44.84396" lon="6.81662">
        <ele>2051.6</ele>
        <time>2013-08-31T09:31:07Z</time>
      </trkpt>
      <trkpt lat="44.84394" lon="6.81663">
        <ele>2052.1</ele>
        <time>2013-08-31T09:31:08Z</time>
      </trkpt>
      <trkpt lat="44.84387" lon="6.81665">
        <ele>2051.1</ele>
        <time>2013-08-31T09:31:12Z</time>
      </trkpt>
      <trkpt lat="44.84385" lon="6.81666">
        <ele>2051.6</ele>
        <time>2013-08-31T09:31:13Z</time>
      </trkpt>
      <trkpt lat="44.84384" lon="6.81667">
        <ele>2051.6</ele>
        <time>2013-08-31T09:31:14Z</time>
      </trkpt>
      <trkpt lat="44.84382" lon="6.81669">
        <ele>2052.1</ele>
        <time>2013-08-31T09:31:15Z</time>
      </trkpt>
      <trkpt lat="44.84381" lon="6.81671">
        <ele>2052.1</ele>
        <time>2013-08-31T09:31:16Z</time>
      </trkpt>
      <trkpt lat="44.8436" lon="6.81683">
        <ele>2053.5</ele>
        <time>2013-08-31T09:31:32Z</time>
      </trkpt>
      <trkpt lat="44.84342" lon="6.81699">
        <ele>2055.4</ele>
        <time>2013-08-31T09:31:45Z</time>
      </trkpt>
      <trkpt lat="44.84312" lon="6.81714">
        <ele>2055.9</ele>
        <time>2013-08-31T09:31:58Z</time>
      </trkpt>
      <trkpt lat="44.84285" lon="6.81718">
        <ele>2056.4</ele>
        <time>2013-08-31T09:32:08Z</time>
      </trkpt>
      <trkpt lat="44.84259" lon="6.81717">
        <ele>2055.4</ele>
        <time>2013-08-31T09:32:20Z</time>
      </trkpt>
      <trkpt lat="44.8424" lon="6.81714">
        <ele>2057.4</ele>
        <time>2013-08-31T09:32:32Z</time>
      </trkpt>
      <trkpt lat="44.84239" lon="6.81713">
        <ele>2057.4</ele>
        <time>2013-08-31T09:32:33Z</time>
      </trkpt>
      <trkpt lat="44.84238" lon="6.81711">
        <ele>2057.8</ele>
        <time>2013-08-31T09:32:34Z</time>
      </trkpt>
      <trkpt lat="44.84237" lon="6.81708">
        <ele>2057.8</ele>
        <time>2013-08-31T09:32:35Z</time>
      </trkpt>
      <trkpt lat="44.84231" lon="6.81698">
        <ele>2058.3</ele>
        <time>2013-08-31T09:32:43Z</time>
      </trkpt>
      <trkpt lat="44.8423" lon="6.81698">
        <ele>2058.8</ele>
        <time>2013-08-31T09:32:44Z</time>
      </trkpt>
      <trkpt lat="44.84229" lon="6.817">
        <ele>2058.8</ele>
        <time>2013-08-31T09:32:45Z</time>
      </trkpt>
      <trkpt lat="44.84228" lon="6.81701">
        <ele>2058.8</ele>
        <time>2013-08-31T09:32:46Z</time>
      </trkpt>
      <trkpt lat="44.84227" lon="6.81702">
        <ele>2058.8</ele>
        <time>2013-08-31T09:32:47Z</time>
      </trkpt>
      <trkpt lat="44.84225" lon="6.81703">
        <ele>2058.8</ele>
        <time>2013-08-31T09:32:48Z</time>
      </trkpt>
      <trkpt lat="44.84224" lon="6.81703">
        <ele>2058.8</ele>
        <time>2013-08-31T09:32:49Z</time>
      </trkpt>
      <trkpt lat="44.84223" lon="6.81703">
        <ele>2059.3</ele>
        <time>2013-08-31T09:32:50Z</time>
      </trkpt>
      <trkpt lat="44.84209" lon="6.81702">
        <ele>2062.2</ele>
        <time>2013-08-31T09:33:01Z</time>
      </trkpt>
      <trkpt lat="44.84212" lon="6.817">
        <ele>2062.2</ele>
        <time>2013-08-31T09:33:14Z</time>
      </trkpt>
      <trkpt lat="44.84203" lon="6.81706">
        <ele>2063.6</ele>
        <time>2013-08-31T09:33:28Z</time>
      </trkpt>
      <trkpt lat="44.84198" lon="6.81708">
        <ele>2064.1</ele>
        <time>2013-08-31T09:33:41Z</time>
      </trkpt>
      <trkpt lat="44.84192" lon="6.81714">
        <ele>2066</ele>
        <time>2013-08-31T09:33:54Z</time>
      </trkpt>
      <trkpt lat="44.84185" lon="6.81712">
        <ele>2067.5</ele>
        <time>2013-08-31T09:34:06Z</time>
      </trkpt>
      <trkpt lat="44.84179" lon="6.81714">
        <ele>2069.4</ele>
        <time>2013-08-31T09:34:21Z</time>
      </trkpt>
      <trkpt lat="44.84176" lon="6.81713">
        <ele>2071.3</ele>
        <time>2013-08-31T09:34:36Z</time>
      </trkpt>
      <trkpt lat="44.84169" lon="6.81715">
        <ele>2072.3</ele>
        <time>2013-08-31T09:34:56Z</time>
      </trkpt>
      <trkpt lat="44.84167" lon="6.81714">
        <ele>2073.2</ele>
        <time>2013-08-31T09:35:11Z</time>
      </trkpt>
      <trkpt lat="44.84162" lon="6.81723">
        <ele>2074.2</ele>
        <time>2013-08-31T09:35:23Z</time>
      </trkpt>
      <trkpt lat="44.84159" lon="6.81733">
        <ele>2077.1</ele>
        <time>2013-08-31T09:35:40Z</time>
      </trkpt>
      <trkpt lat="44.84157" lon="6.81743">
        <ele>2079.5</ele>
        <time>2013-08-31T09:35:52Z</time>
      </trkpt>
      <trkpt lat="44.84153" lon="6.81747">
        <ele>2081.9</ele>
        <time>2013-08-31T09:36:06Z</time>
      </trkpt>
      <trkpt lat="44.84148" lon="6.81751">
        <ele>2083.3</ele>
        <time>2013-08-31T09:36:16Z</time>
      </trkpt>
      <trkpt lat="44.84143" lon="6.81759">
        <ele>2084.8</ele>
        <time>2013-08-31T09:36:27Z</time>
      </trkpt>
      <trkpt lat="44.84141" lon="6.81768">
        <ele>2086.7</ele>
        <time>2013-08-31T09:36:39Z</time>
      </trkpt>
      <trkpt lat="44.84138" lon="6.81771">
        <ele>2088.1</ele>
        <time>2013-08-31T09:36:46Z</time>
      </trkpt>
      <trkpt lat="44.84133" lon="6.81781">
        <ele>2090</ele>
        <time>2013-08-31T09:37:00Z</time>
      </trkpt>
      <trkpt lat="44.8413" lon="6.81784">
        <ele>2091.5</ele>
        <time>2013-08-31T09:37:11Z</time>
      </trkpt>
      <trkpt lat="44.84128" lon="6.81786">
        <ele>2092.9</ele>
        <time>2013-08-31T09:37:16Z</time>
      </trkpt>
      <trkpt lat="44.84124" lon="6.81789">
        <ele>2094.4</ele>
        <time>2013-08-31T09:37:27Z</time>
      </trkpt>
      <trkpt lat="44.8412" lon="6.81794">
        <ele>2095.3</ele>
        <time>2013-08-31T09:37:41Z</time>
      </trkpt>
      <trkpt lat="44.84116" lon="6.81804">
        <ele>2098.7</ele>
        <time>2013-08-31T09:37:56Z</time>
      </trkpt>
      <trkpt lat="44.84111" lon="6.818">
        <ele>2100.6</ele>
        <time>2013-08-31T09:38:11Z</time>
      </trkpt>
      <trkpt lat="44.84106" lon="6.81795">
        <ele>2103</ele>
        <time>2013-08-31T09:38:24Z</time>
      </trkpt>
      <trkpt lat="44.84098" lon="6.81787">
        <ele>2104.9</ele>
        <time>2013-08-31T09:38:39Z</time>
      </trkpt>
      <trkpt lat="44.84092" lon="6.81773">
        <ele>2107.8</ele>
        <time>2013-08-31T09:38:57Z</time>
      </trkpt>
      <trkpt lat="44.84085" lon="6.81768">
        <ele>2109.3</ele>
        <time>2013-08-31T09:39:09Z</time>
      </trkpt>
      <trkpt lat="44.84074" lon="6.81763">
        <ele>2112.2</ele>
        <time>2013-08-31T09:39:26Z</time>
      </trkpt>
      <trkpt lat="44.84065" lon="6.81763">
        <ele>2114.1</ele>
        <time>2013-08-31T09:39:41Z</time>
      </trkpt>
      <trkpt lat="44.84059" lon="6.81763">
        <ele>2115.5</ele>
        <time>2013-08-31T09:39:55Z</time>
      </trkpt>
      <trkpt lat="44.84053" lon="6.8176">
        <ele>2117</ele>
        <time>2013-08-31T09:40:16Z</time>
      </trkpt>
      <trkpt lat="44.84048" lon="6.81759">
        <ele>2118.9</ele>
        <time>2013-08-31T09:40:25Z</time>
      </trkpt>
      <trkpt lat="44.84043" lon="6.81761">
        <ele>2119.8</ele>
        <time>2013-08-31T09:40:31Z</time>
      </trkpt>
      <trkpt lat="44.84027" lon="6.81764">
        <ele>2121.8</ele>
        <time>2013-08-31T09:40:48Z</time>
      </trkpt>
      <trkpt lat="44.84011" lon="6.81767">
        <ele>2123.2</ele>
        <time>2013-08-31T09:41:06Z</time>
      </trkpt>
      <trkpt lat="44.84002" lon="6.8176">
        <ele>2125.6</ele>
        <time>2013-08-31T09:41:21Z</time>
      </trkpt>
      <trkpt lat="44.8399" lon="6.81756">
        <ele>2128</ele>
        <time>2013-08-31T09:41:38Z</time>
      </trkpt>
      <trkpt lat="44.83979" lon="6.8175">
        <ele>2129.5</ele>
        <time>2013-08-31T09:41:52Z</time>
      </trkpt>
      <trkpt lat="44.83977" lon="6.8175">
        <ele>2131.4</ele>
        <time>2013-08-31T09:41:54Z</time>
      </trkpt>
      <trkpt lat="44.83965" lon="6.81748">
        <ele>2131.9</ele>
        <time>2013-08-31T09:42:08Z</time>
      </trkpt>
      <trkpt lat="44.83957" lon="6.81747">
        <ele>2133.3</ele>
        <time>2013-08-31T09:42:22Z</time>
      </trkpt>
      <trkpt lat="44.83945" lon="6.81744">
        <ele>2134.3</ele>
        <time>2013-08-31T09:42:34Z</time>
      </trkpt>
      <trkpt lat="44.83937" lon="6.81733">
        <ele>2137.2</ele>
        <time>2013-08-31T09:42:48Z</time>
      </trkpt>
      <trkpt lat="44.83935" lon="6.8173">
        <ele>2137.2</ele>
        <time>2013-08-31T09:42:51Z</time>
      </trkpt>
      <trkpt lat="44.83934" lon="6.81726">
        <ele>2137.2</ele>
        <time>2013-08-31T09:42:54Z</time>
      </trkpt>
      <trkpt lat="44.83933" lon="6.81726">
        <ele>2137.2</ele>
        <time>2013-08-31T09:42:55Z</time>
      </trkpt>
      <trkpt lat="44.83928" lon="6.81723">
        <ele>2138.1</ele>
        <time>2013-08-31T09:43:00Z</time>
      </trkpt>
      <trkpt lat="44.83925" lon="6.81721">
        <ele>2137.6</ele>
        <time>2013-08-31T09:43:03Z</time>
      </trkpt>
      <trkpt lat="44.83921" lon="6.81716">
        <ele>2138.1</ele>
        <time>2013-08-31T09:43:08Z</time>
      </trkpt>
      <trkpt lat="44.83917" lon="6.81713">
        <ele>2139.6</ele>
        <time>2013-08-31T09:43:13Z</time>
      </trkpt>
      <trkpt lat="44.83915" lon="6.81709">
        <ele>2140.5</ele>
        <time>2013-08-31T09:43:29Z</time>
      </trkpt>
      <trkpt lat="44.83915" lon="6.81711">
        <ele>2140.5</ele>
        <time>2013-08-31T09:43:45Z</time>
      </trkpt>
      <trkpt lat="44.83914" lon="6.81713">
        <ele>2140.5</ele>
        <time>2013-08-31T09:44:19Z</time>
      </trkpt>
      <trkpt lat="44.83915" lon="6.8171">
        <ele>2141.5</ele>
        <time>2013-08-31T09:44:37Z</time>
      </trkpt>
      <trkpt lat="44.83912" lon="6.81709">
        <ele>2141.5</ele>
        <time>2013-08-31T09:44:41Z</time>
      </trkpt>
      <trkpt lat="44.83911" lon="6.8171">
        <ele>2140.5</ele>
        <time>2013-08-31T09:44:42Z</time>
      </trkpt>
      <trkpt lat="44.83904" lon="6.8171">
        <ele>2140.5</ele>
        <time>2013-08-31T09:44:51Z</time>
      </trkpt>
      <trkpt lat="44.83903" lon="6.8171">
        <ele>2140</ele>
        <time>2013-08-31T09:44:52Z</time>
      </trkpt>
      <trkpt lat="44.83901" lon="6.81709">
        <ele>2140</ele>
        <time>2013-08-31T09:44:53Z</time>
      </trkpt>
      <trkpt lat="44.83893" lon="6.81709">
        <ele>2138.6</ele>
        <time>2013-08-31T09:45:04Z</time>
      </trkpt>
      <trkpt lat="44.83874" lon="6.81703">
        <ele>2137.2</ele>
        <time>2013-08-31T09:45:13Z</time>
      </trkpt>
      <trkpt lat="44.83871" lon="6.81703">
        <ele>2136.2</ele>
        <time>2013-08-31T09:45:14Z</time>
      </trkpt>
      <trkpt lat="44.83868" lon="6.81702">
        <ele>2135.2</ele>
        <time>2013-08-31T09:45:15Z</time>
      </trkpt>
      <trkpt lat="44.83865" lon="6.81701">
        <ele>2134.7</ele>
        <time>2013-08-31T09:45:16Z</time>
      </trkpt>
      <trkpt lat="44.83861" lon="6.817">
        <ele>2134.3</ele>
        <time>2013-08-31T09:45:17Z</time>
      </trkpt>
      <trkpt lat="44.83857" lon="6.817">
        <ele>2133.8</ele>
        <time>2013-08-31T09:45:18Z</time>
      </trkpt>
      <trkpt lat="44.83854" lon="6.81701">
        <ele>2133.3</ele>
        <time>2013-08-31T09:45:19Z</time>
      </trkpt>
      <trkpt lat="44.83825" lon="6.81693">
        <ele>2131.4</ele>
        <time>2013-08-31T09:45:28Z</time>
      </trkpt>
      <trkpt lat="44.83824" lon="6.81693">
        <ele>2133.8</ele>
        <time>2013-08-31T09:45:36Z</time>
      </trkpt>
      <trkpt lat="44.83823" lon="6.81692">
        <ele>2132.3</ele>
        <time>2013-08-31T09:45:47Z</time>
      </trkpt>
      <trkpt lat="44.83815" lon="6.81687">
        <ele>2133.3</ele>
        <time>2013-08-31T09:46:00Z</time>
      </trkpt>
      <trkpt lat="44.83807" lon="6.81679">
        <ele>2135.2</ele>
        <time>2013-08-31T09:46:13Z</time>
      </trkpt>
      <trkpt lat="44.83802" lon="6.81675">
        <ele>2134.7</ele>
        <time>2013-08-31T09:46:26Z</time>
      </trkpt>
      <trkpt lat="44.83801" lon="6.81675">
        <ele>2134.7</ele>
        <time>2013-08-31T09:46:41Z</time>
      </trkpt>
      <trkpt lat="44.83796" lon="6.81667">
        <ele>2135.7</ele>
        <time>2013-08-31T09:46:51Z</time>
      </trkpt>
      <trkpt lat="44.83794" lon="6.81663">
        <ele>2135.7</ele>
        <time>2013-08-31T09:46:53Z</time>
      </trkpt>
      <trkpt lat="44.83793" lon="6.81662">
        <ele>2135.7</ele>
        <time>2013-08-31T09:46:54Z</time>
      </trkpt>
      <trkpt lat="44.83792" lon="6.8166">
        <ele>2136.2</ele>
        <time>2013-08-31T09:46:55Z</time>
      </trkpt>
      <trkpt lat="44.83792" lon="6.81659">
        <ele>2135.7</ele>
        <time>2013-08-31T09:46:56Z</time>
      </trkpt>
      <trkpt lat="44.83791" lon="6.81658">
        <ele>2135.2</ele>
        <time>2013-08-31T09:46:57Z</time>
      </trkpt>
      <trkpt lat="44.83789" lon="6.81657">
        <ele>2135.7</ele>
        <time>2013-08-31T09:46:58Z</time>
      </trkpt>
      <trkpt lat="44.8377" lon="6.81634">
        <ele>2138.1</ele>
        <time>2013-08-31T09:47:16Z</time>
      </trkpt>
      <trkpt lat="44.83763" lon="6.81625">
        <ele>2139.6</ele>
        <time>2013-08-31T09:47:23Z</time>
      </trkpt>
      <trkpt lat="44.83762" lon="6.81623">
        <ele>2139.1</ele>
        <time>2013-08-31T09:47:24Z</time>
      </trkpt>
      <trkpt lat="44.83757" lon="6.81618">
        <ele>2140</ele>
        <time>2013-08-31T09:47:28Z</time>
      </trkpt>
      <trkpt lat="44.83739" lon="6.81593">
        <ele>2141.5</ele>
        <time>2013-08-31T09:47:44Z</time>
      </trkpt>
      <trkpt lat="44.83718" lon="6.81573">
        <ele>2144.4</ele>
        <time>2013-08-31T09:48:00Z</time>
      </trkpt>
      <trkpt lat="44.83714" lon="6.81564">
        <ele>2145.8</ele>
        <time>2013-08-31T09:48:13Z</time>
      </trkpt>
      <trkpt lat="44.83711" lon="6.81559">
        <ele>2145.3</ele>
        <time>2013-08-31T09:48:28Z</time>
      </trkpt>
      <trkpt lat="44.83707" lon="6.81556">
        <ele>2146.3</ele>
        <time>2013-08-31T09:48:46Z</time>
      </trkpt>
      <trkpt lat="44.83696" lon="6.81547">
        <ele>2148.7</ele>
        <time>2013-08-31T09:49:01Z</time>
      </trkpt>
      <trkpt lat="44.83687" lon="6.81535">
        <ele>2150.1</ele>
        <time>2013-08-31T09:49:15Z</time>
      </trkpt>
      <trkpt lat="44.83679" lon="6.81525">
        <ele>2153.5</ele>
        <time>2013-08-31T09:49:31Z</time>
      </trkpt>
      <trkpt lat="44.8367" lon="6.81519">
        <ele>2155.4</ele>
        <time>2013-08-31T09:49:47Z</time>
      </trkpt>
      <trkpt lat="44.83669" lon="6.81517">
        <ele>2155.9</ele>
        <time>2013-08-31T09:49:49Z</time>
      </trkpt>
      <trkpt lat="44.8366" lon="6.81512">
        <ele>2158.3</ele>
        <time>2013-08-31T09:50:03Z</time>
      </trkpt>
      <trkpt lat="44.8365" lon="6.81499">
        <ele>2160.2</ele>
        <time>2013-08-31T09:50:22Z</time>
      </trkpt>
      <trkpt lat="44.83639" lon="6.81491">
        <ele>2163.1</ele>
        <time>2013-08-31T09:50:37Z</time>
      </trkpt>
      <trkpt lat="44.83626" lon="6.81479">
        <ele>2165</ele>
        <time>2013-08-31T09:50:54Z</time>
      </trkpt>
      <trkpt lat="44.83619" lon="6.81474">
        <ele>2167</ele>
        <time>2013-08-31T09:51:07Z</time>
      </trkpt>
      <trkpt lat="44.8361" lon="6.81465">
        <ele>2168.9</ele>
        <time>2013-08-31T09:51:21Z</time>
      </trkpt>
      <trkpt lat="44.83602" lon="6.81459">
        <ele>2170.8</ele>
        <time>2013-08-31T09:51:38Z</time>
      </trkpt>
      <trkpt lat="44.83596" lon="6.81448">
        <ele>2172.2</ele>
        <time>2013-08-31T09:51:51Z</time>
      </trkpt>
      <trkpt lat="44.83596" lon="6.81447">
        <ele>2172.2</ele>
        <time>2013-08-31T09:51:52Z</time>
      </trkpt>
      <trkpt lat="44.83595" lon="6.81445">
        <ele>2172.2</ele>
        <time>2013-08-31T09:51:53Z</time>
      </trkpt>
      <trkpt lat="44.83587" lon="6.8143">
        <ele>2174.6</ele>
        <time>2013-08-31T09:52:11Z</time>
      </trkpt>
      <trkpt lat="44.8358" lon="6.81421">
        <ele>2177</ele>
        <time>2013-08-31T09:52:26Z</time>
      </trkpt>
      <trkpt lat="44.83576" lon="6.81418">
        <ele>2177.5</ele>
        <time>2013-08-31T09:52:31Z</time>
      </trkpt>
      <trkpt lat="44.83575" lon="6.81418">
        <ele>2177</ele>
        <time>2013-08-31T09:52:32Z</time>
      </trkpt>
      <trkpt lat="44.83574" lon="6.81417">
        <ele>2177</ele>
        <time>2013-08-31T09:52:33Z</time>
      </trkpt>
      <trkpt lat="44.8357" lon="6.81411">
        <ele>2176.6</ele>
        <time>2013-08-31T09:52:46Z</time>
      </trkpt>
      <trkpt lat="44.83563" lon="6.81404">
        <ele>2177</ele>
        <time>2013-08-31T09:52:51Z</time>
      </trkpt>
      <trkpt lat="44.83561" lon="6.81402">
        <ele>2176.6</ele>
        <time>2013-08-31T09:52:52Z</time>
      </trkpt>
      <trkpt lat="44.83556" lon="6.81394">
        <ele>2177.5</ele>
        <time>2013-08-31T09:52:56Z</time>
      </trkpt>
      <trkpt lat="44.83554" lon="6.81394">
        <ele>2178</ele>
        <time>2013-08-31T09:52:57Z</time>
      </trkpt>
      <trkpt lat="44.83552" lon="6.81394">
        <ele>2178</ele>
        <time>2013-08-31T09:52:58Z</time>
      </trkpt>
      <trkpt lat="44.83551" lon="6.81394">
        <ele>2177.5</ele>
        <time>2013-08-31T09:52:59Z</time>
      </trkpt>
      <trkpt lat="44.8355" lon="6.81393">
        <ele>2177.5</ele>
        <time>2013-08-31T09:53:00Z</time>
      </trkpt>
      <trkpt lat="44.83548" lon="6.81392">
        <ele>2177.5</ele>
        <time>2013-08-31T09:53:01Z</time>
      </trkpt>
      <trkpt lat="44.83547" lon="6.81391">
        <ele>2178</ele>
        <time>2013-08-31T09:53:02Z</time>
      </trkpt>
      <trkpt lat="44.83536" lon="6.81377">
        <ele>2177.5</ele>
        <time>2013-08-31T09:53:12Z</time>
      </trkpt>
      <trkpt lat="44.83535" lon="6.81375">
        <ele>2177</ele>
        <time>2013-08-31T09:53:13Z</time>
      </trkpt>
      <trkpt lat="44.83523" lon="6.81367">
        <ele>2175.6</ele>
        <time>2013-08-31T09:53:17Z</time>
      </trkpt>
      <trkpt lat="44.83516" lon="6.81367">
        <ele>2176.6</ele>
        <time>2013-08-31T09:53:28Z</time>
      </trkpt>
      <trkpt lat="44.83511" lon="6.81361">
        <ele>2177</ele>
        <time>2013-08-31T09:53:41Z</time>
      </trkpt>
      <trkpt lat="44.83498" lon="6.81359">
        <ele>2178.5</ele>
        <time>2013-08-31T09:53:56Z</time>
      </trkpt>
      <trkpt lat="44.83488" lon="6.81351">
        <ele>2180.4</ele>
        <time>2013-08-31T09:54:10Z</time>
      </trkpt>
      <trkpt lat="44.83486" lon="6.81353">
        <ele>2180.9</ele>
        <time>2013-08-31T09:54:25Z</time>
      </trkpt>
      <trkpt lat="44.83471" lon="6.81343">
        <ele>2181.4</ele>
        <time>2013-08-31T09:54:35Z</time>
      </trkpt>
      <trkpt lat="44.83452" lon="6.81332">
        <ele>2183.3</ele>
        <time>2013-08-31T09:54:46Z</time>
      </trkpt>
      <trkpt lat="44.83451" lon="6.8133">
        <ele>2183.3</ele>
        <time>2013-08-31T09:54:47Z</time>
      </trkpt>
      <trkpt lat="44.8345" lon="6.81328">
        <ele>2184.3</ele>
        <time>2013-08-31T09:54:48Z</time>
      </trkpt>
      <trkpt lat="44.83448" lon="6.81327">
        <ele>2183.8</ele>
        <time>2013-08-31T09:54:49Z</time>
      </trkpt>
      <trkpt lat="44.83447" lon="6.81326">
        <ele>2183.8</ele>
        <time>2013-08-31T09:54:50Z</time>
      </trkpt>
      <trkpt lat="44.83445" lon="6.81325">
        <ele>2184.7</ele>
        <time>2013-08-31T09:54:51Z</time>
      </trkpt>
      <trkpt lat="44.8343" lon="6.81313">
        <ele>2184.7</ele>
        <time>2013-08-31T09:55:03Z</time>
      </trkpt>
      <trkpt lat="44.83413" lon="6.81301">
        <ele>2186.7</ele>
        <time>2013-08-31T09:55:15Z</time>
      </trkpt>
      <trkpt lat="44.83409" lon="6.81298">
        <ele>2187.1</ele>
        <time>2013-08-31T09:55:26Z</time>
      </trkpt>
      <trkpt lat="44.8339" lon="6.81288">
        <ele>2188.1</ele>
        <time>2013-08-31T09:55:38Z</time>
      </trkpt>
      <trkpt lat="44.83388" lon="6.81287">
        <ele>2188.6</ele>
        <time>2013-08-31T09:55:51Z</time>
      </trkpt>
      <trkpt lat="44.83371" lon="6.81275">
        <ele>2187.1</ele>
        <time>2013-08-31T09:56:02Z</time>
      </trkpt>
      <trkpt lat="44.83348" lon="6.81263">
        <ele>2186.2</ele>
        <time>2013-08-31T09:56:11Z</time>
      </trkpt>
      <trkpt lat="44.83342" lon="6.81259">
        <ele>2185.7</ele>
        <time>2013-08-31T09:56:14Z</time>
      </trkpt>
      <trkpt lat="44.83339" lon="6.81259">
        <ele>2185.7</ele>
        <time>2013-08-31T09:56:15Z</time>
      </trkpt>
      <trkpt lat="44.83336" lon="6.81259">
        <ele>2185.2</ele>
        <time>2013-08-31T09:56:16Z</time>
      </trkpt>
      <trkpt lat="44.83334" lon="6.81258">
        <ele>2184.7</ele>
        <time>2013-08-31T09:56:17Z</time>
      </trkpt>
      <trkpt lat="44.83331" lon="6.81258">
        <ele>2185.2</ele>
        <time>2013-08-31T09:56:18Z</time>
      </trkpt>
      <trkpt lat="44.83305" lon="6.81244">
        <ele>2182.3</ele>
        <time>2013-08-31T09:56:28Z</time>
      </trkpt>
      <trkpt lat="44.83284" lon="6.81236">
        <ele>2181.4</ele>
        <time>2013-08-31T09:56:38Z</time>
      </trkpt>
      <trkpt lat="44.83283" lon="6.81234">
        <ele>2181.4</ele>
        <time>2013-08-31T09:56:39Z</time>
      </trkpt>
      <trkpt lat="44.83266" lon="6.81222">
        <ele>2183.3</ele>
        <time>2013-08-31T09:56:52Z</time>
      </trkpt>
      <trkpt lat="44.83245" lon="6.81208">
        <ele>2186.2</ele>
        <time>2013-08-31T09:57:09Z</time>
      </trkpt>
      <trkpt lat="44.83244" lon="6.81204">
        <ele>2185.2</ele>
        <time>2013-08-31T09:57:20Z</time>
      </trkpt>
      <trkpt lat="44.83242" lon="6.81195">
        <ele>2184.7</ele>
        <time>2013-08-31T09:57:32Z</time>
      </trkpt>
      <trkpt lat="44.83238" lon="6.81185">
        <ele>2185.7</ele>
        <time>2013-08-31T09:57:47Z</time>
      </trkpt>
      <trkpt lat="44.8323" lon="6.81175">
        <ele>2188.1</ele>
        <time>2013-08-31T09:58:02Z</time>
      </trkpt>
      <trkpt lat="44.83221" lon="6.81166">
        <ele>2189.5</ele>
        <time>2013-08-31T09:58:17Z</time>
      </trkpt>
      <trkpt lat="44.83214" lon="6.81155">
        <ele>2191.5</ele>
        <time>2013-08-31T09:58:32Z</time>
      </trkpt>
      <trkpt lat="44.83205" lon="6.81145">
        <ele>2192.4</ele>
        <time>2013-08-31T09:58:48Z</time>
      </trkpt>
      <trkpt lat="44.83205" lon="6.81143">
        <ele>2193.4</ele>
        <time>2013-08-31T09:59:04Z</time>
      </trkpt>
      <trkpt lat="44.83194" lon="6.81138">
        <ele>2194.4</ele>
        <time>2013-08-31T09:59:20Z</time>
      </trkpt>
      <trkpt lat="44.8319" lon="6.81135">
        <ele>2193.9</ele>
        <time>2013-08-31T09:59:24Z</time>
      </trkpt>
      <trkpt lat="44.83176" lon="6.81126">
        <ele>2196.3</ele>
        <time>2013-08-31T09:59:43Z</time>
      </trkpt>
      <trkpt lat="44.83163" lon="6.81122">
        <ele>2198.7</ele>
        <time>2013-08-31T10:00:01Z</time>
      </trkpt>
      <trkpt lat="44.83157" lon="6.81121">
        <ele>2199.6</ele>
        <time>2013-08-31T10:00:17Z</time>
      </trkpt>
      <trkpt lat="44.83153" lon="6.81125">
        <ele>2200.6</ele>
        <time>2013-08-31T10:00:28Z</time>
      </trkpt>
      <trkpt lat="44.83148" lon="6.8113">
        <ele>2203</ele>
        <time>2013-08-31T10:00:41Z</time>
      </trkpt>
      <trkpt lat="44.83147" lon="6.81129">
        <ele>2204</ele>
        <time>2013-08-31T10:00:43Z</time>
      </trkpt>
      <trkpt lat="44.83139" lon="6.81124">
        <ele>2204.9</ele>
        <time>2013-08-31T10:00:55Z</time>
      </trkpt>
      <trkpt lat="44.83132" lon="6.81123">
        <ele>2207.8</ele>
        <time>2013-08-31T10:01:08Z</time>
      </trkpt>
      <trkpt lat="44.83124" lon="6.81116">
        <ele>2209.3</ele>
        <time>2013-08-31T10:01:22Z</time>
      </trkpt>
      <trkpt lat="44.83119" lon="6.8111">
        <ele>2210.7</ele>
        <time>2013-08-31T10:01:34Z</time>
      </trkpt>
      <trkpt lat="44.83109" lon="6.81101">
        <ele>2214.1</ele>
        <time>2013-08-31T10:01:51Z</time>
      </trkpt>
      <trkpt lat="44.83104" lon="6.811">
        <ele>2216.5</ele>
        <time>2013-08-31T10:02:04Z</time>
      </trkpt>
      <trkpt lat="44.83098" lon="6.81093">
        <ele>2218.4</ele>
        <time>2013-08-31T10:02:18Z</time>
      </trkpt>
      <trkpt lat="44.83091" lon="6.81091">
        <ele>2221.3</ele>
        <time>2013-08-31T10:02:32Z</time>
      </trkpt>
      <trkpt lat="44.83089" lon="6.81093">
        <ele>2222.2</ele>
        <time>2013-08-31T10:02:44Z</time>
      </trkpt>
      <trkpt lat="44.83079" lon="6.81087">
        <ele>2223.2</ele>
        <time>2013-08-31T10:03:01Z</time>
      </trkpt>
      <trkpt lat="44.8308" lon="6.81087">
        <ele>2222.7</ele>
        <time>2013-08-31T10:03:14Z</time>
      </trkpt>
      <trkpt lat="44.83069" lon="6.81081">
        <ele>2223.7</ele>
        <time>2013-08-31T10:03:25Z</time>
      </trkpt>
      <trkpt lat="44.83055" lon="6.8107">
        <ele>2226.6</ele>
        <time>2013-08-31T10:03:36Z</time>
      </trkpt>
      <trkpt lat="44.83047" lon="6.81066">
        <ele>2228</ele>
        <time>2013-08-31T10:03:48Z</time>
      </trkpt>
      <trkpt lat="44.83041" lon="6.81061">
        <ele>2228.5</ele>
        <time>2013-08-31T10:04:07Z</time>
      </trkpt>
      <trkpt lat="44.83038" lon="6.8106">
        <ele>2229.9</ele>
        <time>2013-08-31T10:04:10Z</time>
      </trkpt>
      <trkpt lat="44.83028" lon="6.81054">
        <ele>2231.4</ele>
        <time>2013-08-31T10:04:18Z</time>
      </trkpt>
      <trkpt lat="44.83018" lon="6.8105">
        <ele>2234.2</ele>
        <time>2013-08-31T10:04:29Z</time>
      </trkpt>
      <trkpt lat="44.82999" lon="6.81044">
        <ele>2236.6</ele>
        <time>2013-08-31T10:04:46Z</time>
      </trkpt>
      <trkpt lat="44.82984" lon="6.81032">
        <ele>2240</ele>
        <time>2013-08-31T10:04:59Z</time>
      </trkpt>
      <trkpt lat="44.8297" lon="6.81025">
        <ele>2242.4</ele>
        <time>2013-08-31T10:05:10Z</time>
      </trkpt>
      <trkpt lat="44.82961" lon="6.81024">
        <ele>2244.8</ele>
        <time>2013-08-31T10:05:22Z</time>
      </trkpt>
      <trkpt lat="44.82952" lon="6.81021">
        <ele>2245.8</ele>
        <time>2013-08-31T10:05:37Z</time>
      </trkpt>
      <trkpt lat="44.82945" lon="6.81018">
        <ele>2246.7</ele>
        <time>2013-08-31T10:05:46Z</time>
      </trkpt>
      <trkpt lat="44.82945" lon="6.81017">
        <ele>2247.2</ele>
        <time>2013-08-31T10:05:47Z</time>
      </trkpt>
      <trkpt lat="44.82943" lon="6.81015">
        <ele>2247.7</ele>
        <time>2013-08-31T10:05:50Z</time>
      </trkpt>
      <trkpt lat="44.82935" lon="6.81022">
        <ele>2248.7</ele>
        <time>2013-08-31T10:06:02Z</time>
      </trkpt>
      <trkpt lat="44.82921" lon="6.81022">
        <ele>2250.6</ele>
        <time>2013-08-31T10:06:19Z</time>
      </trkpt>
      <trkpt lat="44.82911" lon="6.8102">
        <ele>2252</ele>
        <time>2013-08-31T10:06:35Z</time>
      </trkpt>
      <trkpt lat="44.82902" lon="6.81017">
        <ele>2253</ele>
        <time>2013-08-31T10:06:50Z</time>
      </trkpt>
      <trkpt lat="44.82898" lon="6.81018">
        <ele>2254.4</ele>
        <time>2013-08-31T10:07:02Z</time>
      </trkpt>
      <trkpt lat="44.8289" lon="6.81021">
        <ele>2257.3</ele>
        <time>2013-08-31T10:07:16Z</time>
      </trkpt>
      <trkpt lat="44.82878" lon="6.8101">
        <ele>2259.7</ele>
        <time>2013-08-31T10:07:31Z</time>
      </trkpt>
      <trkpt lat="44.82871" lon="6.81009">
        <ele>2260.7</ele>
        <time>2013-08-31T10:07:40Z</time>
      </trkpt>
      <trkpt lat="44.82863" lon="6.80996">
        <ele>2263.1</ele>
        <time>2013-08-31T10:07:55Z</time>
      </trkpt>
      <trkpt lat="44.82857" lon="6.80987">
        <ele>2265</ele>
        <time>2013-08-31T10:08:08Z</time>
      </trkpt>
      <trkpt lat="44.82851" lon="6.80976">
        <ele>2267.4</ele>
        <time>2013-08-31T10:08:23Z</time>
      </trkpt>
      <trkpt lat="44.82847" lon="6.80966">
        <ele>2268.4</ele>
        <time>2013-08-31T10:08:34Z</time>
      </trkpt>
      <trkpt lat="44.82841" lon="6.80952">
        <ele>2271.3</ele>
        <time>2013-08-31T10:08:50Z</time>
      </trkpt>
      <trkpt lat="44.82831" lon="6.80948">
        <ele>2273.7</ele>
        <time>2013-08-31T10:09:04Z</time>
      </trkpt>
      <trkpt lat="44.82828" lon="6.80936">
        <ele>2276.1</ele>
        <time>2013-08-31T10:09:18Z</time>
      </trkpt>
      <trkpt lat="44.8282" lon="6.80924">
        <ele>2278</ele>
        <time>2013-08-31T10:09:34Z</time>
      </trkpt>
      <trkpt lat="44.82815" lon="6.80917">
        <ele>2280.4</ele>
        <time>2013-08-31T10:09:46Z</time>
      </trkpt>
      <trkpt lat="44.82812" lon="6.8091">
        <ele>2281.8</ele>
        <time>2013-08-31T10:09:57Z</time>
      </trkpt>
      <trkpt lat="44.82811" lon="6.809">
        <ele>2284.2</ele>
        <time>2013-08-31T10:10:09Z</time>
      </trkpt>
      <trkpt lat="44.82807" lon="6.80891">
        <ele>2286.2</ele>
        <time>2013-08-31T10:10:22Z</time>
      </trkpt>
      <trkpt lat="44.82806" lon="6.80879">
        <ele>2288.1</ele>
        <time>2013-08-31T10:10:35Z</time>
      </trkpt>
      <trkpt lat="44.828" lon="6.80871">
        <ele>2290</ele>
        <time>2013-08-31T10:10:47Z</time>
      </trkpt>
      <trkpt lat="44.82795" lon="6.80863">
        <ele>2291.9</ele>
        <time>2013-08-31T10:11:00Z</time>
      </trkpt>
      <trkpt lat="44.8279" lon="6.80856">
        <ele>2295.3</ele>
        <time>2013-08-31T10:11:15Z</time>
      </trkpt>
      <trkpt lat="44.82786" lon="6.80848">
        <ele>2296.7</ele>
        <time>2013-08-31T10:11:29Z</time>
      </trkpt>
      <trkpt lat="44.82783" lon="6.80841">
        <ele>2298.2</ele>
        <time>2013-08-31T10:11:41Z</time>
      </trkpt>
      <trkpt lat="44.82781" lon="6.80829">
        <ele>2301.5</ele>
        <time>2013-08-31T10:11:58Z</time>
      </trkpt>
      <trkpt lat="44.82779" lon="6.80822">
        <ele>2303.5</ele>
        <time>2013-08-31T10:12:10Z</time>
      </trkpt>
      <trkpt lat="44.82775" lon="6.80819">
        <ele>2305.9</ele>
        <time>2013-08-31T10:12:22Z</time>
      </trkpt>
      <trkpt lat="44.82771" lon="6.80816">
        <ele>2307.3</ele>
        <time>2013-08-31T10:12:31Z</time>
      </trkpt>
      <trkpt lat="44.82768" lon="6.8081">
        <ele>2309.2</ele>
        <time>2013-08-31T10:12:44Z</time>
      </trkpt>
      <trkpt lat="44.82761" lon="6.80806">
        <ele>2311.6</ele>
        <time>2013-08-31T10:12:58Z</time>
      </trkpt>
      <trkpt lat="44.82755" lon="6.80801">
        <ele>2313.6</ele>
        <time>2013-08-31T10:13:12Z</time>
      </trkpt>
      <trkpt lat="44.82748" lon="6.80797">
        <ele>2315.5</ele>
        <time>2013-08-31T10:13:27Z</time>
      </trkpt>
      <trkpt lat="44.82739" lon="6.80795">
        <ele>2318.4</ele>
        <time>2013-08-31T10:13:42Z</time>
      </trkpt>
      <trkpt lat="44.82736" lon="6.808">
        <ele>2320.8</ele>
        <time>2013-08-31T10:13:56Z</time>
      </trkpt>
      <trkpt lat="44.82733" lon="6.80804">
        <ele>2322.7</ele>
        <time>2013-08-31T10:14:10Z</time>
      </trkpt>
      <trkpt lat="44.82727" lon="6.80807">
        <ele>2324.1</ele>
        <time>2013-08-31T10:14:20Z</time>
      </trkpt>
      <trkpt lat="44.82722" lon="6.80802">
        <ele>2325.6</ele>
        <time>2013-08-31T10:14:32Z</time>
      </trkpt>
      <trkpt lat="44.82722" lon="6.80801">
        <ele>2326.1</ele>
        <time>2013-08-31T10:14:33Z</time>
      </trkpt>
      <trkpt lat="44.8272" lon="6.80798">
        <ele>2326.5</ele>
        <time>2013-08-31T10:14:39Z</time>
      </trkpt>
      <trkpt lat="44.82715" lon="6.80792">
        <ele>2329.4</ele>
        <time>2013-08-31T10:14:53Z</time>
      </trkpt>
      <trkpt lat="44.82711" lon="6.8079">
        <ele>2331.3</ele>
        <time>2013-08-31T10:15:08Z</time>
      </trkpt>
      <trkpt lat="44.82707" lon="6.80793">
        <ele>2334.2</ele>
        <time>2013-08-31T10:15:22Z</time>
      </trkpt>
      <trkpt lat="44.82702" lon="6.80785">
        <ele>2335.7</ele>
        <time>2013-08-31T10:15:35Z</time>
      </trkpt>
      <trkpt lat="44.82693" lon="6.80785">
        <ele>2338.5</ele>
        <time>2013-08-31T10:15:51Z</time>
      </trkpt>
      <trkpt lat="44.82695" lon="6.80777">
        <ele>2340.5</ele>
        <time>2013-08-31T10:16:06Z</time>
      </trkpt>
      <trkpt lat="44.82694" lon="6.80769">
        <ele>2342.9</ele>
        <time>2013-08-31T10:16:20Z</time>
      </trkpt>
      <trkpt lat="44.82691" lon="6.80768">
        <ele>2345.3</ele>
        <time>2013-08-31T10:16:32Z</time>
      </trkpt>
      <trkpt lat="44.8269" lon="6.80768">
        <ele>2344.8</ele>
        <time>2013-08-31T10:16:33Z</time>
      </trkpt>
      <trkpt lat="44.82684" lon="6.8077">
        <ele>2347.2</ele>
        <time>2013-08-31T10:16:46Z</time>
      </trkpt>
      <trkpt lat="44.82684" lon="6.80764">
        <ele>2349.1</ele>
        <time>2013-08-31T10:17:01Z</time>
      </trkpt>
      <trkpt lat="44.82686" lon="6.80755">
        <ele>2351.5</ele>
        <time>2013-08-31T10:17:16Z</time>
      </trkpt>
      <trkpt lat="44.82688" lon="6.8075">
        <ele>2353</ele>
        <time>2013-08-31T10:17:32Z</time>
      </trkpt>
      <trkpt lat="44.82688" lon="6.80744">
        <ele>2355.4</ele>
        <time>2013-08-31T10:17:46Z</time>
      </trkpt>
      <trkpt lat="44.82682" lon="6.80747">
        <ele>2357.3</ele>
        <time>2013-08-31T10:18:00Z</time>
      </trkpt>
      <trkpt lat="44.82679" lon="6.80745">
        <ele>2358.3</ele>
        <time>2013-08-31T10:18:17Z</time>
      </trkpt>
      <trkpt lat="44.82675" lon="6.80743">
        <ele>2361.1</ele>
        <time>2013-08-31T10:18:32Z</time>
      </trkpt>
      <trkpt lat="44.82678" lon="6.80734">
        <ele>2363.5</ele>
        <time>2013-08-31T10:18:47Z</time>
      </trkpt>
      <trkpt lat="44.82682" lon="6.80732">
        <ele>2364.5</ele>
        <time>2013-08-31T10:19:10Z</time>
      </trkpt>
      <trkpt lat="44.82677" lon="6.80733">
        <ele>2365</ele>
        <time>2013-08-31T10:19:31Z</time>
      </trkpt>
      <trkpt lat="44.82675" lon="6.80729">
        <ele>2367.4</ele>
        <time>2013-08-31T10:19:47Z</time>
      </trkpt>
      <trkpt lat="44.82672" lon="6.80728">
        <ele>2369.8</ele>
        <time>2013-08-31T10:19:59Z</time>
      </trkpt>
      <trkpt lat="44.82665" lon="6.80728">
        <ele>2371.7</ele>
        <time>2013-08-31T10:20:13Z</time>
      </trkpt>
      <trkpt lat="44.8266" lon="6.80724">
        <ele>2373.2</ele>
        <time>2013-08-31T10:20:29Z</time>
      </trkpt>
      <trkpt lat="44.82658" lon="6.80724">
        <ele>2374.6</ele>
        <time>2013-08-31T10:20:41Z</time>
      </trkpt>
      <trkpt lat="44.82657" lon="6.80723">
        <ele>2376.5</ele>
        <time>2013-08-31T10:20:55Z</time>
      </trkpt>
      <trkpt lat="44.8266" lon="6.80723">
        <ele>2376.5</ele>
        <time>2013-08-31T10:20:59Z</time>
      </trkpt>
      <trkpt lat="44.82655" lon="6.80718">
        <ele>2376.5</ele>
        <time>2013-08-31T10:21:14Z</time>
      </trkpt>
      <trkpt lat="44.82659" lon="6.80715">
        <ele>2377</ele>
        <time>2013-08-31T10:21:43Z</time>
      </trkpt>
      <trkpt lat="44.82654" lon="6.80718">
        <ele>2378.4</ele>
        <time>2013-08-31T10:22:03Z</time>
      </trkpt>
      <trkpt lat="44.82648" lon="6.80722">
        <ele>2380.8</ele>
        <time>2013-08-31T10:22:15Z</time>
      </trkpt>
      <trkpt lat="44.82643" lon="6.80728">
        <ele>2383.3</ele>
        <time>2013-08-31T10:22:27Z</time>
      </trkpt>
      <trkpt lat="44.82639" lon="6.80731">
        <ele>2385.2</ele>
        <time>2013-08-31T10:22:38Z</time>
      </trkpt>
      <trkpt lat="44.82632" lon="6.80727">
        <ele>2387.6</ele>
        <time>2013-08-31T10:22:53Z</time>
      </trkpt>
      <trkpt lat="44.82627" lon="6.8073">
        <ele>2390.5</ele>
        <time>2013-08-31T10:23:09Z</time>
      </trkpt>
      <trkpt lat="44.82624" lon="6.80721">
        <ele>2393.8</ele>
        <time>2013-08-31T10:23:25Z</time>
      </trkpt>
      <trkpt lat="44.82625" lon="6.80716">
        <ele>2395.7</ele>
        <time>2013-08-31T10:23:36Z</time>
      </trkpt>
      <trkpt lat="44.82624" lon="6.80712">
        <ele>2397.7</ele>
        <time>2013-08-31T10:23:49Z</time>
      </trkpt>
      <trkpt lat="44.82622" lon="6.80712">
        <ele>2398.2</ele>
        <time>2013-08-31T10:23:51Z</time>
      </trkpt>
      <trkpt lat="44.82619" lon="6.80708">
        <ele>2400.1</ele>
        <time>2013-08-31T10:24:03Z</time>
      </trkpt>
      <trkpt lat="44.82614" lon="6.80709">
        <ele>2401</ele>
        <time>2013-08-31T10:24:14Z</time>
      </trkpt>
      <trkpt lat="44.82613" lon="6.80709">
        <ele>2402.5</ele>
        <time>2013-08-31T10:24:16Z</time>
      </trkpt>
      <trkpt lat="44.82607" lon="6.80706">
        <ele>2404.4</ele>
        <time>2013-08-31T10:24:30Z</time>
      </trkpt>
      <trkpt lat="44.82598" lon="6.80704">
        <ele>2407.8</ele>
        <time>2013-08-31T10:24:45Z</time>
      </trkpt>
      <trkpt lat="44.8259" lon="6.80702">
        <ele>2410.6</ele>
        <time>2013-08-31T10:24:58Z</time>
      </trkpt>
      <trkpt lat="44.82586" lon="6.80698">
        <ele>2412.6</ele>
        <time>2013-08-31T10:25:10Z</time>
      </trkpt>
      <trkpt lat="44.82581" lon="6.80689">
        <ele>2415.5</ele>
        <time>2013-08-31T10:25:25Z</time>
      </trkpt>
      <trkpt lat="44.82578" lon="6.80681">
        <ele>2416.9</ele>
        <time>2013-08-31T10:25:37Z</time>
      </trkpt>
      <trkpt lat="44.82574" lon="6.80674">
        <ele>2419.8</ele>
        <time>2013-08-31T10:25:51Z</time>
      </trkpt>
      <trkpt lat="44.82569" lon="6.80671">
        <ele>2422.2</ele>
        <time>2013-08-31T10:26:04Z</time>
      </trkpt>
      <trkpt lat="44.82563" lon="6.8067">
        <ele>2423.6</ele>
        <time>2013-08-31T10:26:15Z</time>
      </trkpt>
      <trkpt lat="44.82554" lon="6.80664">
        <ele>2426</ele>
        <time>2013-08-31T10:26:30Z</time>
      </trkpt>
      <trkpt lat="44.82546" lon="6.80659">
        <ele>2428.4</ele>
        <time>2013-08-31T10:26:45Z</time>
      </trkpt>
      <trkpt lat="44.82534" lon="6.80653">
        <ele>2430.4</ele>
        <time>2013-08-31T10:26:59Z</time>
      </trkpt>
      <trkpt lat="44.82522" lon="6.8065">
        <ele>2432.8</ele>
        <time>2013-08-31T10:27:14Z</time>
      </trkpt>
      <trkpt lat="44.82512" lon="6.80647">
        <ele>2433.2</ele>
        <time>2013-08-31T10:27:29Z</time>
      </trkpt>
      <trkpt lat="44.82512" lon="6.80644">
        <ele>2434.2</ele>
        <time>2013-08-31T10:27:55Z</time>
      </trkpt>
      <trkpt lat="44.8251" lon="6.80645">
        <ele>2434.2</ele>
        <time>2013-08-31T10:28:20Z</time>
      </trkpt>
      <trkpt lat="44.8251" lon="6.80642">
        <ele>2434.7</ele>
        <time>2013-08-31T10:28:56Z</time>
      </trkpt>
      <trkpt lat="44.82511" lon="6.80646">
        <ele>2434.2</ele>
        <time>2013-08-31T10:29:36Z</time>
      </trkpt>
      <trkpt lat="44.8251" lon="6.80643">
        <ele>2435.2</ele>
        <time>2013-08-31T10:30:15Z</time>
      </trkpt>
      <trkpt lat="44.82508" lon="6.80645">
        <ele>2435.2</ele>
        <time>2013-08-31T10:30:37Z</time>
      </trkpt>
      <trkpt lat="44.82504" lon="6.80652">
        <ele>2437.6</ele>
        <time>2013-08-31T10:30:51Z</time>
      </trkpt>
      <trkpt lat="44.82492" lon="6.80658">
        <ele>2439.5</ele>
        <time>2013-08-31T10:31:07Z</time>
      </trkpt>
      <trkpt lat="44.8248" lon="6.80658">
        <ele>2441.9</ele>
        <time>2013-08-31T10:31:23Z</time>
      </trkpt>
      <trkpt lat="44.82466" lon="6.80657">
        <ele>2443.3</ele>
        <time>2013-08-31T10:31:39Z</time>
      </trkpt>
      <trkpt lat="44.82455" lon="6.80659">
        <ele>2444.8</ele>
        <time>2013-08-31T10:31:56Z</time>
      </trkpt>
      <trkpt lat="44.82445" lon="6.80661">
        <ele>2446.7</ele>
        <time>2013-08-31T10:32:09Z</time>
      </trkpt>
      <trkpt lat="44.82434" lon="6.80662">
        <ele>2448.1</ele>
        <time>2013-08-31T10:32:26Z</time>
      </trkpt>
      <trkpt lat="44.82426" lon="6.80662">
        <ele>2450.1</ele>
        <time>2013-08-31T10:32:42Z</time>
      </trkpt>
      <trkpt lat="44.82409" lon="6.80662">
        <ele>2451.5</ele>
        <time>2013-08-31T10:32:55Z</time>
      </trkpt>
      <trkpt lat="44.82395" lon="6.80659">
        <ele>2453.9</ele>
        <time>2013-08-31T10:33:08Z</time>
      </trkpt>
      <trkpt lat="44.8239" lon="6.80662">
        <ele>2454.4</ele>
        <time>2013-08-31T10:33:23Z</time>
      </trkpt>
      <trkpt lat="44.82385" lon="6.80671">
        <ele>2456.8</ele>
        <time>2013-08-31T10:33:37Z</time>
      </trkpt>
      <trkpt lat="44.82379" lon="6.80676">
        <ele>2458.7</ele>
        <time>2013-08-31T10:33:52Z</time>
      </trkpt>
      <trkpt lat="44.82372" lon="6.80681">
        <ele>2460.2</ele>
        <time>2013-08-31T10:34:07Z</time>
      </trkpt>
      <trkpt lat="44.82358" lon="6.80684">
        <ele>2461.6</ele>
        <time>2013-08-31T10:34:22Z</time>
      </trkpt>
      <trkpt lat="44.82352" lon="6.80682">
        <ele>2462.1</ele>
        <time>2013-08-31T10:34:34Z</time>
      </trkpt>
      <trkpt lat="44.82335" lon="6.80674">
        <ele>2463.5</ele>
        <time>2013-08-31T10:34:45Z</time>
      </trkpt>
      <trkpt lat="44.82327" lon="6.80669">
        <ele>2465</ele>
        <time>2013-08-31T10:34:52Z</time>
      </trkpt>
      <trkpt lat="44.82326" lon="6.80669">
        <ele>2465.9</ele>
        <time>2013-08-31T10:34:53Z</time>
      </trkpt>
      <trkpt lat="44.82324" lon="6.80669">
        <ele>2465.4</ele>
        <time>2013-08-31T10:34:54Z</time>
      </trkpt>
      <trkpt lat="44.8232" lon="6.80668">
        <ele>2466.9</ele>
        <time>2013-08-31T10:35:06Z</time>
      </trkpt>
      <trkpt lat="44.82313" lon="6.80665">
        <ele>2468.8</ele>
        <time>2013-08-31T10:35:22Z</time>
      </trkpt>
      <trkpt lat="44.82305" lon="6.80656">
        <ele>2469.8</ele>
        <time>2013-08-31T10:35:37Z</time>
      </trkpt>
      <trkpt lat="44.82296" lon="6.80647">
        <ele>2472.2</ele>
        <time>2013-08-31T10:35:53Z</time>
      </trkpt>
      <trkpt lat="44.82287" lon="6.80643">
        <ele>2474.1</ele>
        <time>2013-08-31T10:36:08Z</time>
      </trkpt>
      <trkpt lat="44.82279" lon="6.80638">
        <ele>2477.5</ele>
        <time>2013-08-31T10:36:25Z</time>
      </trkpt>
      <trkpt lat="44.82273" lon="6.80636">
        <ele>2478.4</ele>
        <time>2013-08-31T10:36:42Z</time>
      </trkpt>
      <trkpt lat="44.82272" lon="6.80637">
        <ele>2478.4</ele>
        <time>2013-08-31T10:37:06Z</time>
      </trkpt>
      <trkpt lat="44.82271" lon="6.8064">
        <ele>2479.4</ele>
        <time>2013-08-31T10:37:25Z</time>
      </trkpt>
      <trkpt lat="44.82263" lon="6.80635">
        <ele>2480.8</ele>
        <time>2013-08-31T10:37:39Z</time>
      </trkpt>
      <trkpt lat="44.82255" lon="6.8063">
        <ele>2482.7</ele>
        <time>2013-08-31T10:37:54Z</time>
      </trkpt>
      <trkpt lat="44.82244" lon="6.80625">
        <ele>2484.2</ele>
        <time>2013-08-31T10:38:11Z</time>
      </trkpt>
      <trkpt lat="44.82235" lon="6.80621">
        <ele>2486.1</ele>
        <time>2013-08-31T10:38:27Z</time>
      </trkpt>
      <trkpt lat="44.82225" lon="6.80619">
        <ele>2488</ele>
        <time>2013-08-31T10:38:42Z</time>
      </trkpt>
      <trkpt lat="44.82212" lon="6.80613">
        <ele>2489.5</ele>
        <time>2013-08-31T10:38:57Z</time>
      </trkpt>
      <trkpt lat="44.82199" lon="6.80609">
        <ele>2492.4</ele>
        <time>2013-08-31T10:39:16Z</time>
      </trkpt>
      <trkpt lat="44.82188" lon="6.80608">
        <ele>2493.8</ele>
        <time>2013-08-31T10:39:30Z</time>
      </trkpt>
      <trkpt lat="44.82179" lon="6.8061">
        <ele>2495.7</ele>
        <time>2013-08-31T10:39:46Z</time>
      </trkpt>
      <trkpt lat="44.82169" lon="6.80607">
        <ele>2496.7</ele>
        <time>2013-08-31T10:40:00Z</time>
      </trkpt>
      <trkpt lat="44.82162" lon="6.80602">
        <ele>2496.7</ele>
        <time>2013-08-31T10:40:14Z</time>
      </trkpt>
      <trkpt lat="44.82142" lon="6.80591">
        <ele>2498.6</ele>
        <time>2013-08-31T10:40:29Z</time>
      </trkpt>
      <trkpt lat="44.82118" lon="6.80589">
        <ele>2501.5</ele>
        <time>2013-08-31T10:40:46Z</time>
      </trkpt>
      <trkpt lat="44.82097" lon="6.80574">
        <ele>2504.9</ele>
        <time>2013-08-31T10:41:03Z</time>
      </trkpt>
      <trkpt lat="44.82092" lon="6.8057">
        <ele>2505.3</ele>
        <time>2013-08-31T10:41:14Z</time>
      </trkpt>
      <trkpt lat="44.82091" lon="6.8057">
        <ele>2506.8</ele>
        <time>2013-08-31T10:41:29Z</time>
      </trkpt>
      <trkpt lat="44.82085" lon="6.80556">
        <ele>2509.2</ele>
        <time>2013-08-31T10:41:46Z</time>
      </trkpt>
      <trkpt lat="44.82083" lon="6.80551">
        <ele>2510.1</ele>
        <time>2013-08-31T10:42:04Z</time>
      </trkpt>
      <trkpt lat="44.82079" lon="6.80544">
        <ele>2511.6</ele>
        <time>2013-08-31T10:42:20Z</time>
      </trkpt>
      <trkpt lat="44.82076" lon="6.80537">
        <ele>2512.5</ele>
        <time>2013-08-31T10:42:34Z</time>
      </trkpt>
      <trkpt lat="44.8207" lon="6.8052">
        <ele>2515</ele>
        <time>2013-08-31T10:42:52Z</time>
      </trkpt>
      <trkpt lat="44.82065" lon="6.80508">
        <ele>2515.9</ele>
        <time>2013-08-31T10:43:01Z</time>
      </trkpt>
      <trkpt lat="44.82064" lon="6.80507">
        <ele>2516.4</ele>
        <time>2013-08-31T10:43:02Z</time>
      </trkpt>
      <trkpt lat="44.82063" lon="6.80506">
        <ele>2516.9</ele>
        <time>2013-08-31T10:43:03Z</time>
      </trkpt>
      <trkpt lat="44.82052" lon="6.80486">
        <ele>2519.3</ele>
        <time>2013-08-31T10:43:17Z</time>
      </trkpt>
      <trkpt lat="44.82047" lon="6.80479">
        <ele>2520.7</ele>
        <time>2013-08-31T10:43:29Z</time>
      </trkpt>
      <trkpt lat="44.82044" lon="6.80472">
        <ele>2521.7</ele>
        <time>2013-08-31T10:43:46Z</time>
      </trkpt>
      <trkpt lat="44.82038" lon="6.80457">
        <ele>2523.6</ele>
        <time>2013-08-31T10:44:03Z</time>
      </trkpt>
      <trkpt lat="44.82027" lon="6.80445">
        <ele>2524.6</ele>
        <time>2013-08-31T10:44:18Z</time>
      </trkpt>
      <trkpt lat="44.82013" lon="6.80428">
        <ele>2527</ele>
        <time>2013-08-31T10:44:38Z</time>
      </trkpt>
      <trkpt lat="44.82006" lon="6.80421">
        <ele>2529.9</ele>
        <time>2013-08-31T10:44:54Z</time>
      </trkpt>
      <trkpt lat="44.82005" lon="6.80422">
        <ele>2529.4</ele>
        <time>2013-08-31T10:45:08Z</time>
      </trkpt>
      <trkpt lat="44.82003" lon="6.80425">
        <ele>2529.4</ele>
        <time>2013-08-31T10:45:54Z</time>
      </trkpt>
      <trkpt lat="44.82001" lon="6.80425">
        <ele>2528.9</ele>
        <time>2013-08-31T10:46:35Z</time>
      </trkpt>
      <trkpt lat="44.82" lon="6.80417">
        <ele>2531.3</ele>
        <time>2013-08-31T10:47:02Z</time>
      </trkpt>
      <trkpt lat="44.81991" lon="6.80411">
        <ele>2532.7</ele>
        <time>2013-08-31T10:47:18Z</time>
      </trkpt>
      <trkpt lat="44.81985" lon="6.80403">
        <ele>2534.2</ele>
        <time>2013-08-31T10:47:34Z</time>
      </trkpt>
      <trkpt lat="44.8198" lon="6.80398">
        <ele>2535.1</ele>
        <time>2013-08-31T10:47:50Z</time>
      </trkpt>
      <trkpt lat="44.81972" lon="6.80387">
        <ele>2536.6</ele>
        <time>2013-08-31T10:48:05Z</time>
      </trkpt>
      <trkpt lat="44.81963" lon="6.80376">
        <ele>2539.5</ele>
        <time>2013-08-31T10:48:21Z</time>
      </trkpt>
      <trkpt lat="44.81954" lon="6.80369">
        <ele>2540.4</ele>
        <time>2013-08-31T10:48:37Z</time>
      </trkpt>
      <trkpt lat="44.81951" lon="6.80368">
        <ele>2540.4</ele>
        <time>2013-08-31T10:48:44Z</time>
      </trkpt>
      <trkpt lat="44.81931" lon="6.80364">
        <ele>2544.8</ele>
        <time>2013-08-31T10:49:00Z</time>
      </trkpt>
      <trkpt lat="44.81927" lon="6.80364">
        <ele>2545.2</ele>
        <time>2013-08-31T10:49:11Z</time>
      </trkpt>
      <trkpt lat="44.81921" lon="6.80366">
        <ele>2545.7</ele>
        <time>2013-08-31T10:49:23Z</time>
      </trkpt>
      <trkpt lat="44.81911" lon="6.80365">
        <ele>2548.1</ele>
        <time>2013-08-31T10:49:39Z</time>
      </trkpt>
      <trkpt lat="44.819" lon="6.8037">
        <ele>2549.1</ele>
        <time>2013-08-31T10:49:54Z</time>
      </trkpt>
      <trkpt lat="44.81897" lon="6.80368">
        <ele>2550</ele>
        <time>2013-08-31T10:49:57Z</time>
      </trkpt>
      <trkpt lat="44.81888" lon="6.80357">
        <ele>2552.4</ele>
        <time>2013-08-31T10:50:13Z</time>
      </trkpt>
      <trkpt lat="44.81884" lon="6.80347">
        <ele>2555.8</ele>
        <time>2013-08-31T10:50:27Z</time>
      </trkpt>
      <trkpt lat="44.81871" lon="6.80341">
        <ele>2556.3</ele>
        <time>2013-08-31T10:50:42Z</time>
      </trkpt>
      <trkpt lat="44.81862" lon="6.80341">
        <ele>2558.2</ele>
        <time>2013-08-31T10:50:56Z</time>
      </trkpt>
      <trkpt lat="44.81851" lon="6.80344">
        <ele>2559.7</ele>
        <time>2013-08-31T10:51:10Z</time>
      </trkpt>
      <trkpt lat="44.81839" lon="6.80349">
        <ele>2562.1</ele>
        <time>2013-08-31T10:51:26Z</time>
      </trkpt>
      <trkpt lat="44.81833" lon="6.80355">
        <ele>2564</ele>
        <time>2013-08-31T10:51:39Z</time>
      </trkpt>
      <trkpt lat="44.81829" lon="6.80357">
        <ele>2565.9</ele>
        <time>2013-08-31T10:51:52Z</time>
      </trkpt>
      <trkpt lat="44.81825" lon="6.80365">
        <ele>2568.3</ele>
        <time>2013-08-31T10:52:06Z</time>
      </trkpt>
      <trkpt lat="44.81821" lon="6.80371">
        <ele>2569.7</ele>
        <time>2013-08-31T10:52:24Z</time>
      </trkpt>
      <trkpt lat="44.81821" lon="6.80375">
        <ele>2570.7</ele>
        <time>2013-08-31T10:52:29Z</time>
      </trkpt>
      <trkpt lat="44.81818" lon="6.80387">
        <ele>2572.6</ele>
        <time>2013-08-31T10:52:44Z</time>
      </trkpt>
      <trkpt lat="44.81815" lon="6.80403">
        <ele>2574.6</ele>
        <time>2013-08-31T10:52:57Z</time>
      </trkpt>
      <trkpt lat="44.81813" lon="6.80413">
        <ele>2577</ele>
        <time>2013-08-31T10:53:11Z</time>
      </trkpt>
      <trkpt lat="44.81812" lon="6.80419">
        <ele>2578.4</ele>
        <time>2013-08-31T10:53:21Z</time>
      </trkpt>
      <trkpt lat="44.8181" lon="6.80423">
        <ele>2581.8</ele>
        <time>2013-08-31T10:53:35Z</time>
      </trkpt>
      <trkpt lat="44.81811" lon="6.80424">
        <ele>2578.9</ele>
        <time>2013-08-31T10:53:58Z</time>
      </trkpt>
      <trkpt lat="44.81809" lon="6.80428">
        <ele>2580.3</ele>
        <time>2013-08-31T10:54:22Z</time>
      </trkpt>
      <trkpt lat="44.81803" lon="6.80432">
        <ele>2583.2</ele>
        <time>2013-08-31T10:54:39Z</time>
      </trkpt>
      <trkpt lat="44.81797" lon="6.8043">
        <ele>2585.1</ele>
        <time>2013-08-31T10:54:54Z</time>
      </trkpt>
      <trkpt lat="44.81793" lon="6.80435">
        <ele>2587</ele>
        <time>2013-08-31T10:55:07Z</time>
      </trkpt>
      <trkpt lat="44.81787" lon="6.80439">
        <ele>2589.9</ele>
        <time>2013-08-31T10:55:20Z</time>
      </trkpt>
      <trkpt lat="44.81778" lon="6.8044">
        <ele>2591.9</ele>
        <time>2013-08-31T10:55:33Z</time>
      </trkpt>
      <trkpt lat="44.81772" lon="6.80438">
        <ele>2593.8</ele>
        <time>2013-08-31T10:55:42Z</time>
      </trkpt>
      <trkpt lat="44.81767" lon="6.80436">
        <ele>2595.7</ele>
        <time>2013-08-31T10:55:50Z</time>
      </trkpt>
      <trkpt lat="44.81754" lon="6.80442">
        <ele>2597.1</ele>
        <time>2013-08-31T10:56:05Z</time>
      </trkpt>
      <trkpt lat="44.81745" lon="6.80443">
        <ele>2599.5</ele>
        <time>2013-08-31T10:56:19Z</time>
      </trkpt>
      <trkpt lat="44.81733" lon="6.8044">
        <ele>2602.4</ele>
        <time>2013-08-31T10:56:35Z</time>
      </trkpt>
      <trkpt lat="44.81733" lon="6.80439">
        <ele>2602.4</ele>
        <time>2013-08-31T10:56:36Z</time>
      </trkpt>
      <trkpt lat="44.81728" lon="6.80435">
        <ele>2602.9</ele>
        <time>2013-08-31T10:56:48Z</time>
      </trkpt>
      <trkpt lat="44.81727" lon="6.80439">
        <ele>2602.4</ele>
        <time>2013-08-31T10:57:05Z</time>
      </trkpt>
      <trkpt lat="44.81722" lon="6.80437">
        <ele>2602.4</ele>
        <time>2013-08-31T10:57:25Z</time>
      </trkpt>
      <trkpt lat="44.8172" lon="6.80437">
        <ele>2602.4</ele>
        <time>2013-08-31T10:57:27Z</time>
      </trkpt>
      <trkpt lat="44.8171" lon="6.80438">
        <ele>2604.4</ele>
        <time>2013-08-31T10:57:41Z</time>
      </trkpt>
      <trkpt lat="44.81699" lon="6.8044">
        <ele>2606.3</ele>
        <time>2013-08-31T10:57:57Z</time>
      </trkpt>
      <trkpt lat="44.81686" lon="6.80443">
        <ele>2608.2</ele>
        <time>2013-08-31T10:58:15Z</time>
      </trkpt>
      <trkpt lat="44.8168" lon="6.80443">
        <ele>2608.7</ele>
        <time>2013-08-31T10:58:29Z</time>
      </trkpt>
      <trkpt lat="44.81673" lon="6.80439">
        <ele>2608.7</ele>
        <time>2013-08-31T10:58:34Z</time>
      </trkpt>
      <trkpt lat="44.81662" lon="6.80436">
        <ele>2610.6</ele>
        <time>2013-08-31T10:58:46Z</time>
      </trkpt>
      <trkpt lat="44.81649" lon="6.80434">
        <ele>2612</ele>
        <time>2013-08-31T10:59:02Z</time>
      </trkpt>
      <trkpt lat="44.81648" lon="6.80433">
        <ele>2612</ele>
        <time>2013-08-31T10:59:03Z</time>
      </trkpt>
      <trkpt lat="44.81646" lon="6.80431">
        <ele>2611.6</ele>
        <time>2013-08-31T10:59:05Z</time>
      </trkpt>
      <trkpt lat="44.81634" lon="6.80428">
        <ele>2614.9</ele>
        <time>2013-08-31T10:59:23Z</time>
      </trkpt>
      <trkpt lat="44.81627" lon="6.80424">
        <ele>2617.8</ele>
        <time>2013-08-31T10:59:39Z</time>
      </trkpt>
      <trkpt lat="44.81615" lon="6.80426">
        <ele>2619.3</ele>
        <time>2013-08-31T10:59:57Z</time>
      </trkpt>
      <trkpt lat="44.81611" lon="6.80427">
        <ele>2619.3</ele>
        <time>2013-08-31T11:00:09Z</time>
      </trkpt>
      <trkpt lat="44.81598" lon="6.80426">
        <ele>2622.1</ele>
        <time>2013-08-31T11:00:20Z</time>
      </trkpt>
      <trkpt lat="44.81575" lon="6.80424">
        <ele>2624.5</ele>
        <time>2013-08-31T11:00:37Z</time>
      </trkpt>
      <trkpt lat="44.81562" lon="6.80424">
        <ele>2627.4</ele>
        <time>2013-08-31T11:00:49Z</time>
      </trkpt>
      <trkpt lat="44.81545" lon="6.80418">
        <ele>2630.3</ele>
        <time>2013-08-31T11:01:04Z</time>
      </trkpt>
      <trkpt lat="44.81534" lon="6.80418">
        <ele>2630.3</ele>
        <time>2013-08-31T11:01:19Z</time>
      </trkpt>
      <trkpt lat="44.81533" lon="6.80418">
        <ele>2630.8</ele>
        <time>2013-08-31T11:01:51Z</time>
      </trkpt>
      <trkpt lat="44.81534" lon="6.80416">
        <ele>2631.3</ele>
        <time>2013-08-31T11:02:25Z</time>
      </trkpt>
      <trkpt lat="44.8151" lon="6.80395">
        <ele>2630.8</ele>
        <time>2013-08-31T11:02:37Z</time>
      </trkpt>
      <trkpt lat="44.81472" lon="6.8037">
        <ele>2627.4</ele>
        <time>2013-08-31T11:02:47Z</time>
      </trkpt>
      <trkpt lat="44.81469" lon="6.80367">
        <ele>2627.4</ele>
        <time>2013-08-31T11:02:48Z</time>
      </trkpt>
      <trkpt lat="44.81465" lon="6.80363">
        <ele>2626.9</ele>
        <time>2013-08-31T11:02:49Z</time>
      </trkpt>
      <trkpt lat="44.81462" lon="6.80359">
        <ele>2627.4</ele>
        <time>2013-08-31T11:02:50Z</time>
      </trkpt>
      <trkpt lat="44.8145" lon="6.80335">
        <ele>2626.9</ele>
        <time>2013-08-31T11:03:00Z</time>
      </trkpt>
      <trkpt lat="44.81449" lon="6.80337">
        <ele>2626.5</ele>
        <time>2013-08-31T11:03:24Z</time>
      </trkpt>
      <trkpt lat="44.81449" lon="6.80335">
        <ele>2626.9</ele>
        <time>2013-08-31T11:03:57Z</time>
      </trkpt>
      <trkpt lat="44.8144" lon="6.80314">
        <ele>2625</ele>
        <time>2013-08-31T11:04:22Z</time>
      </trkpt>
      <trkpt lat="44.81435" lon="6.803">
        <ele>2623.6</ele>
        <time>2013-08-31T11:04:24Z</time>
      </trkpt>
      <trkpt lat="44.81427" lon="6.80282">
        <ele>2624.1</ele>
        <time>2013-08-31T11:04:27Z</time>
      </trkpt>
      <trkpt lat="44.81423" lon="6.80277">
        <ele>2623.6</ele>
        <time>2013-08-31T11:04:28Z</time>
      </trkpt>
      <trkpt lat="44.8142" lon="6.80274">
        <ele>2623.6</ele>
        <time>2013-08-31T11:04:29Z</time>
      </trkpt>
      <trkpt lat="44.81415" lon="6.80272">
        <ele>2623.1</ele>
        <time>2013-08-31T11:04:30Z</time>
      </trkpt>
      <trkpt lat="44.81411" lon="6.80272">
        <ele>2622.6</ele>
        <time>2013-08-31T11:04:31Z</time>
      </trkpt>
      <trkpt lat="44.81407" lon="6.80271">
        <ele>2621.7</ele>
        <time>2013-08-31T11:04:32Z</time>
      </trkpt>
      <trkpt lat="44.81403" lon="6.8027">
        <ele>2621.7</ele>
        <time>2013-08-31T11:04:33Z</time>
      </trkpt>
      <trkpt lat="44.814" lon="6.80269">
        <ele>2621.2</ele>
        <time>2013-08-31T11:04:34Z</time>
      </trkpt>
      <trkpt lat="44.81396" lon="6.80267">
        <ele>2620.7</ele>
        <time>2013-08-31T11:04:35Z</time>
      </trkpt>
      <trkpt lat="44.81388" lon="6.80262">
        <ele>2617.3</ele>
        <time>2013-08-31T11:04:38Z</time>
      </trkpt>
      <trkpt lat="44.81386" lon="6.80262">
        <ele>2617.3</ele>
        <time>2013-08-31T11:04:39Z</time>
      </trkpt>
      <trkpt lat="44.81384" lon="6.80262">
        <ele>2615.9</ele>
        <time>2013-08-31T11:04:42Z</time>
      </trkpt>
      <trkpt lat="44.81383" lon="6.80263">
        <ele>2616.9</ele>
        <time>2013-08-31T11:04:48Z</time>
      </trkpt>
      <trkpt lat="44.81382" lon="6.80266">
        <ele>2611.1</ele>
        <time>2013-08-31T11:04:52Z</time>
      </trkpt>
      <trkpt lat="44.81382" lon="6.80266">
        <ele>2611.1</ele>
        <time>2013-08-31T11:04:53Z</time>
      </trkpt>
      <trkpt lat="44.81382" lon="6.80266">
        <ele>2611.1</ele>
        <time>2013-08-31T11:04:54Z</time>
      </trkpt>
      <trkpt lat="44.81382" lon="6.80265">
        <ele>2589.5</ele>
        <time>2013-08-31T12:11:31Z</time>
      </trkpt>
      <trkpt lat="44.81379" lon="6.80269">
        <ele>2591.4</ele>
        <time>2013-08-31T12:11:37Z</time>
      </trkpt>
      <trkpt lat="44.81382" lon="6.80266">
        <ele>2594.3</ele>
        <time>2013-08-31T12:11:42Z</time>
      </trkpt>
      <trkpt lat="44.81384" lon="6.80261">
        <ele>2596.2</ele>
        <time>2013-08-31T12:11:45Z</time>
      </trkpt>
      <trkpt lat="44.81382" lon="6.80256">
        <ele>2600</ele>
        <time>2013-08-31T12:11:54Z</time>
      </trkpt>
      <trkpt lat="44.81368" lon="6.80243">
        <ele>2598.6</ele>
        <time>2013-08-31T12:12:00Z</time>
      </trkpt>
      <trkpt lat="44.81361" lon="6.80238">
        <ele>2598.1</ele>
        <time>2013-08-31T12:12:02Z</time>
      </trkpt>
      <trkpt lat="44.81357" lon="6.80233">
        <ele>2597.6</ele>
        <time>2013-08-31T12:12:03Z</time>
      </trkpt>
      <trkpt lat="44.81351" lon="6.80225">
        <ele>2595.7</ele>
        <time>2013-08-31T12:12:05Z</time>
      </trkpt>
      <trkpt lat="44.81341" lon="6.80215">
        <ele>2594.3</ele>
        <time>2013-08-31T12:12:08Z</time>
      </trkpt>
      <trkpt lat="44.81339" lon="6.8021">
        <ele>2594.3</ele>
        <time>2013-08-31T12:12:09Z</time>
      </trkpt>
      <trkpt lat="44.81335" lon="6.80206">
        <ele>2593.3</ele>
        <time>2013-08-31T12:12:10Z</time>
      </trkpt>
      <trkpt lat="44.81331" lon="6.80201">
        <ele>2592.3</ele>
        <time>2013-08-31T12:12:11Z</time>
      </trkpt>
      <trkpt lat="44.81328" lon="6.80197">
        <ele>2591.9</ele>
        <time>2013-08-31T12:12:12Z</time>
      </trkpt>
      <trkpt lat="44.81324" lon="6.80194">
        <ele>2591.4</ele>
        <time>2013-08-31T12:12:13Z</time>
      </trkpt>
      <trkpt lat="44.8132" lon="6.80192">
        <ele>2590.4</ele>
        <time>2013-08-31T12:12:14Z</time>
      </trkpt>
      <trkpt lat="44.81317" lon="6.8019">
        <ele>2589.5</ele>
        <time>2013-08-31T12:12:15Z</time>
      </trkpt>
      <trkpt lat="44.81315" lon="6.80187">
        <ele>2589</ele>
        <time>2013-08-31T12:12:16Z</time>
      </trkpt>
      <trkpt lat="44.81313" lon="6.80183">
        <ele>2588.5</ele>
        <time>2013-08-31T12:12:17Z</time>
      </trkpt>
      <trkpt lat="44.8131" lon="6.80181">
        <ele>2587</ele>
        <time>2013-08-31T12:12:18Z</time>
      </trkpt>
      <trkpt lat="44.81307" lon="6.80179">
        <ele>2587</ele>
        <time>2013-08-31T12:12:19Z</time>
      </trkpt>
      <trkpt lat="44.81292" lon="6.80169">
        <ele>2584.6</ele>
        <time>2013-08-31T12:12:25Z</time>
      </trkpt>
      <trkpt lat="44.81282" lon="6.80162">
        <ele>2583.7</ele>
        <time>2013-08-31T12:12:28Z</time>
      </trkpt>
      <trkpt lat="44.81269" lon="6.80156">
        <ele>2582.2</ele>
        <time>2013-08-31T12:12:32Z</time>
      </trkpt>
      <trkpt lat="44.81252" lon="6.80153">
        <ele>2579.8</ele>
        <time>2013-08-31T12:12:36Z</time>
      </trkpt>
      <trkpt lat="44.81248" lon="6.80153">
        <ele>2579.4</ele>
        <time>2013-08-31T12:12:37Z</time>
      </trkpt>
      <trkpt lat="44.81246" lon="6.80153">
        <ele>2578.9</ele>
        <time>2013-08-31T12:12:38Z</time>
      </trkpt>
      <trkpt lat="44.81244" lon="6.80154">
        <ele>2578.4</ele>
        <time>2013-08-31T12:12:39Z</time>
      </trkpt>
      <trkpt lat="44.81245" lon="6.80156">
        <ele>2580.8</ele>
        <time>2013-08-31T12:12:54Z</time>
      </trkpt>
      <trkpt lat="44.81232" lon="6.80156">
        <ele>2580.8</ele>
        <time>2013-08-31T12:13:17Z</time>
      </trkpt>
      <trkpt lat="44.81206" lon="6.80162">
        <ele>2577.4</ele>
        <time>2013-08-31T12:13:29Z</time>
      </trkpt>
      <trkpt lat="44.81202" lon="6.80162">
        <ele>2577.4</ele>
        <time>2013-08-31T12:13:30Z</time>
      </trkpt>
      <trkpt lat="44.81174" lon="6.80163">
        <ele>2574.1</ele>
        <time>2013-08-31T12:13:38Z</time>
      </trkpt>
      <trkpt lat="44.81161" lon="6.80166">
        <ele>2572.1</ele>
        <time>2013-08-31T12:13:42Z</time>
      </trkpt>
      <trkpt lat="44.81158" lon="6.80165">
        <ele>2572.6</ele>
        <time>2013-08-31T12:13:43Z</time>
      </trkpt>
      <trkpt lat="44.81154" lon="6.80164">
        <ele>2572.1</ele>
        <time>2013-08-31T12:13:44Z</time>
      </trkpt>
      <trkpt lat="44.81151" lon="6.80164">
        <ele>2571.2</ele>
        <time>2013-08-31T12:13:45Z</time>
      </trkpt>
      <trkpt lat="44.81147" lon="6.80165">
        <ele>2570.2</ele>
        <time>2013-08-31T12:13:46Z</time>
      </trkpt>
      <trkpt lat="44.81143" lon="6.80164">
        <ele>2569.7</ele>
        <time>2013-08-31T12:13:47Z</time>
      </trkpt>
      <trkpt lat="44.81129" lon="6.80156">
        <ele>2567.8</ele>
        <time>2013-08-31T12:13:52Z</time>
      </trkpt>
      <trkpt lat="44.81123" lon="6.80153">
        <ele>2566.9</ele>
        <time>2013-08-31T12:14:01Z</time>
      </trkpt>
      <trkpt lat="44.8112" lon="6.80155">
        <ele>2565.9</ele>
        <time>2013-08-31T12:14:07Z</time>
      </trkpt>
      <trkpt lat="44.81115" lon="6.80153">
        <ele>2564.9</ele>
        <time>2013-08-31T12:14:17Z</time>
      </trkpt>
      <trkpt lat="44.81117" lon="6.80153">
        <ele>2564.9</ele>
        <time>2013-08-31T12:14:41Z</time>
      </trkpt>
      <trkpt lat="44.81115" lon="6.80153">
        <ele>2565.4</ele>
        <time>2013-08-31T12:15:22Z</time>
      </trkpt>
      <trkpt lat="44.81113" lon="6.80153">
        <ele>2564.5</ele>
        <time>2013-08-31T12:15:58Z</time>
      </trkpt>
      <trkpt lat="44.81115" lon="6.80157">
        <ele>2565.4</ele>
        <time>2013-08-31T12:16:32Z</time>
      </trkpt>
      <trkpt lat="44.81117" lon="6.80153">
        <ele>2565.4</ele>
        <time>2013-08-31T12:17:00Z</time>
      </trkpt>
      <trkpt lat="44.81115" lon="6.80152">
        <ele>2564.9</ele>
        <time>2013-08-31T12:17:32Z</time>
      </trkpt>
      <trkpt lat="44.81116" lon="6.80156">
        <ele>2565.4</ele>
        <time>2013-08-31T12:18:01Z</time>
      </trkpt>
      <trkpt lat="44.81115" lon="6.80152">
        <ele>2565.9</ele>
        <time>2013-08-31T12:18:49Z</time>
      </trkpt>
      <trkpt lat="44.81116" lon="6.80152">
        <ele>2565.9</ele>
        <time>2013-08-31T12:19:33Z</time>
      </trkpt>
      <trkpt lat="44.81115" lon="6.80155">
        <ele>2565.9</ele>
        <time>2013-08-31T12:20:17Z</time>
      </trkpt>
      <trkpt lat="44.81115" lon="6.80154">
        <ele>2565.4</ele>
        <time>2013-08-31T12:20:45Z</time>
      </trkpt>
      <trkpt lat="44.81116" lon="6.80151">
        <ele>2565.9</ele>
        <time>2013-08-31T12:21:23Z</time>
      </trkpt>
      <trkpt lat="44.81111" lon="6.8015">
        <ele>2565.4</ele>
        <time>2013-08-31T12:21:39Z</time>
      </trkpt>
      <trkpt lat="44.8111" lon="6.8015">
        <ele>2565.9</ele>
        <time>2013-08-31T12:21:40Z</time>
      </trkpt>
      <trkpt lat="44.81109" lon="6.8015">
        <ele>2565.9</ele>
        <time>2013-08-31T12:21:41Z</time>
      </trkpt>
      <trkpt lat="44.81106" lon="6.8015">
        <ele>2565.4</ele>
        <time>2013-08-31T12:21:42Z</time>
      </trkpt>
      <trkpt lat="44.81103" lon="6.8015">
        <ele>2565.4</ele>
        <time>2013-08-31T12:21:43Z</time>
      </trkpt>
      <trkpt lat="44.81099" lon="6.80151">
        <ele>2564</ele>
        <time>2013-08-31T12:21:44Z</time>
      </trkpt>
      <trkpt lat="44.81096" lon="6.80149">
        <ele>2563.5</ele>
        <time>2013-08-31T12:21:45Z</time>
      </trkpt>
      <trkpt lat="44.81093" lon="6.80146">
        <ele>2563</ele>
        <time>2013-08-31T12:21:46Z</time>
      </trkpt>
      <trkpt lat="44.81089" lon="6.80143">
        <ele>2563</ele>
        <time>2013-08-31T12:21:47Z</time>
      </trkpt>
      <trkpt lat="44.81085" lon="6.8014">
        <ele>2561.6</ele>
        <time>2013-08-31T12:21:48Z</time>
      </trkpt>
      <trkpt lat="44.81081" lon="6.80136">
        <ele>2561.1</ele>
        <time>2013-08-31T12:21:49Z</time>
      </trkpt>
      <trkpt lat="44.81076" lon="6.80132">
        <ele>2561.6</ele>
        <time>2013-08-31T12:21:50Z</time>
      </trkpt>
      <trkpt lat="44.81071" lon="6.8013">
        <ele>2561.6</ele>
        <time>2013-08-31T12:21:51Z</time>
      </trkpt>
      <trkpt lat="44.81063" lon="6.80126">
        <ele>2560.1</ele>
        <time>2013-08-31T12:21:53Z</time>
      </trkpt>
      <trkpt lat="44.81059" lon="6.80123">
        <ele>2560.6</ele>
        <time>2013-08-31T12:21:54Z</time>
      </trkpt>
      <trkpt lat="44.81055" lon="6.8012">
        <ele>2560.1</ele>
        <time>2013-08-31T12:21:55Z</time>
      </trkpt>
      <trkpt lat="44.8105" lon="6.80117">
        <ele>2560.1</ele>
        <time>2013-08-31T12:21:56Z</time>
      </trkpt>
      <trkpt lat="44.81046" lon="6.80115">
        <ele>2559.7</ele>
        <time>2013-08-31T12:21:57Z</time>
      </trkpt>
      <trkpt lat="44.81042" lon="6.80112">
        <ele>2559.2</ele>
        <time>2013-08-31T12:21:58Z</time>
      </trkpt>
      <trkpt lat="44.81038" lon="6.80109">
        <ele>2559.2</ele>
        <time>2013-08-31T12:21:59Z</time>
      </trkpt>
      <trkpt lat="44.81021" lon="6.80091">
        <ele>2556.8</ele>
        <time>2013-08-31T12:22:05Z</time>
      </trkpt>
      <trkpt lat="44.81016" lon="6.80088">
        <ele>2557.2</ele>
        <time>2013-08-31T12:22:07Z</time>
      </trkpt>
      <trkpt lat="44.81014" lon="6.80087">
        <ele>2556.8</ele>
        <time>2013-08-31T12:22:08Z</time>
      </trkpt>
      <trkpt lat="44.81012" lon="6.80087">
        <ele>2556.8</ele>
        <time>2013-08-31T12:22:09Z</time>
      </trkpt>
      <trkpt lat="44.81011" lon="6.80086">
        <ele>2556.8</ele>
        <time>2013-08-31T12:22:10Z</time>
      </trkpt>
      <trkpt lat="44.81009" lon="6.80086">
        <ele>2557.2</ele>
        <time>2013-08-31T12:22:11Z</time>
      </trkpt>
      <trkpt lat="44.81007" lon="6.80086">
        <ele>2556.3</ele>
        <time>2013-08-31T12:22:25Z</time>
      </trkpt>
      <trkpt lat="44.80994" lon="6.80083">
        <ele>2555.8</ele>
        <time>2013-08-31T12:22:35Z</time>
      </trkpt>
      <trkpt lat="44.80982" lon="6.80077">
        <ele>2554.8</ele>
        <time>2013-08-31T12:22:38Z</time>
      </trkpt>
      <trkpt lat="44.80951" lon="6.8006">
        <ele>2551</ele>
        <time>2013-08-31T12:22:45Z</time>
      </trkpt>
      <trkpt lat="44.80946" lon="6.80056">
        <ele>2550</ele>
        <time>2013-08-31T12:22:46Z</time>
      </trkpt>
      <trkpt lat="44.80941" lon="6.80053">
        <ele>2550</ele>
        <time>2013-08-31T12:22:47Z</time>
      </trkpt>
      <trkpt lat="44.80929" lon="6.80048">
        <ele>2548.6</ele>
        <time>2013-08-31T12:22:51Z</time>
      </trkpt>
      <trkpt lat="44.80925" lon="6.80046">
        <ele>2548.1</ele>
        <time>2013-08-31T12:22:52Z</time>
      </trkpt>
      <trkpt lat="44.80891" lon="6.80029">
        <ele>2546.7</ele>
        <time>2013-08-31T12:23:04Z</time>
      </trkpt>
      <trkpt lat="44.8088" lon="6.80027">
        <ele>2545.7</ele>
        <time>2013-08-31T12:23:07Z</time>
      </trkpt>
      <trkpt lat="44.80876" lon="6.80026">
        <ele>2546.2</ele>
        <time>2013-08-31T12:23:08Z</time>
      </trkpt>
      <trkpt lat="44.80859" lon="6.80016">
        <ele>2544.3</ele>
        <time>2013-08-31T12:23:13Z</time>
      </trkpt>
      <trkpt lat="44.80851" lon="6.80014">
        <ele>2542.8</ele>
        <time>2013-08-31T12:23:16Z</time>
      </trkpt>
      <trkpt lat="44.80841" lon="6.80005">
        <ele>2541.4</ele>
        <time>2013-08-31T12:23:19Z</time>
      </trkpt>
      <trkpt lat="44.80837" lon="6.80002">
        <ele>2540.9</ele>
        <time>2013-08-31T12:23:20Z</time>
      </trkpt>
      <trkpt lat="44.80833" lon="6.79999">
        <ele>2539.9</ele>
        <time>2013-08-31T12:23:21Z</time>
      </trkpt>
      <trkpt lat="44.80829" lon="6.79996">
        <ele>2539.5</ele>
        <time>2013-08-31T12:23:22Z</time>
      </trkpt>
      <trkpt lat="44.80824" lon="6.79994">
        <ele>2538.5</ele>
        <time>2013-08-31T12:23:23Z</time>
      </trkpt>
      <trkpt lat="44.80811" lon="6.79987">
        <ele>2535.1</ele>
        <time>2013-08-31T12:23:26Z</time>
      </trkpt>
      <trkpt lat="44.80807" lon="6.79983">
        <ele>2535.6</ele>
        <time>2013-08-31T12:23:27Z</time>
      </trkpt>
      <trkpt lat="44.80804" lon="6.79979">
        <ele>2534.2</ele>
        <time>2013-08-31T12:23:28Z</time>
      </trkpt>
      <trkpt lat="44.80801" lon="6.79978">
        <ele>2533.7</ele>
        <time>2013-08-31T12:23:29Z</time>
      </trkpt>
      <trkpt lat="44.80798" lon="6.79976">
        <ele>2533.2</ele>
        <time>2013-08-31T12:23:30Z</time>
      </trkpt>
      <trkpt lat="44.80795" lon="6.79973">
        <ele>2532.3</ele>
        <time>2013-08-31T12:23:31Z</time>
      </trkpt>
      <trkpt lat="44.8078" lon="6.79958">
        <ele>2528.9</ele>
        <time>2013-08-31T12:23:36Z</time>
      </trkpt>
      <trkpt lat="44.80777" lon="6.79955">
        <ele>2528.9</ele>
        <time>2013-08-31T12:23:37Z</time>
      </trkpt>
      <trkpt lat="44.80771" lon="6.79952">
        <ele>2527.4</ele>
        <time>2013-08-31T12:23:39Z</time>
      </trkpt>
      <trkpt lat="44.80767" lon="6.79949">
        <ele>2526</ele>
        <time>2013-08-31T12:23:40Z</time>
      </trkpt>
      <trkpt lat="44.80762" lon="6.79945">
        <ele>2525</ele>
        <time>2013-08-31T12:23:41Z</time>
      </trkpt>
      <trkpt lat="44.80758" lon="6.79941">
        <ele>2524.6</ele>
        <time>2013-08-31T12:23:42Z</time>
      </trkpt>
      <trkpt lat="44.80755" lon="6.79938">
        <ele>2524.1</ele>
        <time>2013-08-31T12:23:43Z</time>
      </trkpt>
      <trkpt lat="44.80751" lon="6.79934">
        <ele>2524.6</ele>
        <time>2013-08-31T12:23:44Z</time>
      </trkpt>
      <trkpt lat="44.80747" lon="6.79931">
        <ele>2524.1</ele>
        <time>2013-08-31T12:23:45Z</time>
      </trkpt>
      <trkpt lat="44.80744" lon="6.79928">
        <ele>2522.2</ele>
        <time>2013-08-31T12:23:46Z</time>
      </trkpt>
      <trkpt lat="44.80741" lon="6.79925">
        <ele>2522.6</ele>
        <time>2013-08-31T12:23:47Z</time>
      </trkpt>
      <trkpt lat="44.80737" lon="6.79921">
        <ele>2521.7</ele>
        <time>2013-08-31T12:23:48Z</time>
      </trkpt>
      <trkpt lat="44.80733" lon="6.79918">
        <ele>2521.2</ele>
        <time>2013-08-31T12:23:49Z</time>
      </trkpt>
      <trkpt lat="44.80729" lon="6.79914">
        <ele>2521.2</ele>
        <time>2013-08-31T12:23:50Z</time>
      </trkpt>
      <trkpt lat="44.80725" lon="6.7991">
        <ele>2520.7</ele>
        <time>2013-08-31T12:23:51Z</time>
      </trkpt>
      <trkpt lat="44.80721" lon="6.79906">
        <ele>2520.2</ele>
        <time>2013-08-31T12:23:52Z</time>
      </trkpt>
      <trkpt lat="44.80717" lon="6.79904">
        <ele>2520.2</ele>
        <time>2013-08-31T12:23:53Z</time>
      </trkpt>
      <trkpt lat="44.80714" lon="6.79901">
        <ele>2519.3</ele>
        <time>2013-08-31T12:23:54Z</time>
      </trkpt>
      <trkpt lat="44.8071" lon="6.79898">
        <ele>2519.8</ele>
        <time>2013-08-31T12:23:55Z</time>
      </trkpt>
      <trkpt lat="44.80707" lon="6.79894">
        <ele>2518.8</ele>
        <time>2013-08-31T12:23:56Z</time>
      </trkpt>
      <trkpt lat="44.80703" lon="6.7989">
        <ele>2518.3</ele>
        <time>2013-08-31T12:23:57Z</time>
      </trkpt>
      <trkpt lat="44.80686" lon="6.79874">
        <ele>2515</ele>
        <time>2013-08-31T12:24:02Z</time>
      </trkpt>
      <trkpt lat="44.80684" lon="6.79871">
        <ele>2515</ele>
        <time>2013-08-31T12:24:03Z</time>
      </trkpt>
      <trkpt lat="44.80679" lon="6.79866">
        <ele>2513.5</ele>
        <time>2013-08-31T12:24:06Z</time>
      </trkpt>
      <trkpt lat="44.80679" lon="6.79868">
        <ele>2512.5</ele>
        <time>2013-08-31T12:24:19Z</time>
      </trkpt>
      <trkpt lat="44.80679" lon="6.79869">
        <ele>2512.5</ele>
        <time>2013-08-31T12:24:52Z</time>
      </trkpt>
      <trkpt lat="44.80679" lon="6.79868">
        <ele>2513</ele>
        <time>2013-08-31T12:25:30Z</time>
      </trkpt>
      <trkpt lat="44.80677" lon="6.79863">
        <ele>2513.5</ele>
        <time>2013-08-31T12:25:41Z</time>
      </trkpt>
      <trkpt lat="44.80676" lon="6.79862">
        <ele>2512.1</ele>
        <time>2013-08-31T12:25:42Z</time>
      </trkpt>
      <trkpt lat="44.80675" lon="6.7986">
        <ele>2512.5</ele>
        <time>2013-08-31T12:25:43Z</time>
      </trkpt>
      <trkpt lat="44.80667" lon="6.79852">
        <ele>2510.6</ele>
        <time>2013-08-31T12:25:47Z</time>
      </trkpt>
      <trkpt lat="44.80664" lon="6.79851">
        <ele>2509.7</ele>
        <time>2013-08-31T12:25:48Z</time>
      </trkpt>
      <trkpt lat="44.8066" lon="6.7985">
        <ele>2509.7</ele>
        <time>2013-08-31T12:25:49Z</time>
      </trkpt>
      <trkpt lat="44.80657" lon="6.79848">
        <ele>2508.7</ele>
        <time>2013-08-31T12:25:50Z</time>
      </trkpt>
      <trkpt lat="44.80653" lon="6.79845">
        <ele>2507.3</ele>
        <time>2013-08-31T12:25:51Z</time>
      </trkpt>
      <trkpt lat="44.8065" lon="6.79843">
        <ele>2507.3</ele>
        <time>2013-08-31T12:25:52Z</time>
      </trkpt>
      <trkpt lat="44.80635" lon="6.79836">
        <ele>2503.9</ele>
        <time>2013-08-31T12:25:56Z</time>
      </trkpt>
      <trkpt lat="44.80617" lon="6.79829">
        <ele>2500.1</ele>
        <time>2013-08-31T12:26:01Z</time>
      </trkpt>
      <trkpt lat="44.8061" lon="6.79824">
        <ele>2499.1</ele>
        <time>2013-08-31T12:26:03Z</time>
      </trkpt>
      <trkpt lat="44.80602" lon="6.79819">
        <ele>2495.7</ele>
        <time>2013-08-31T12:26:06Z</time>
      </trkpt>
      <trkpt lat="44.80601" lon="6.79817">
        <ele>2495.7</ele>
        <time>2013-08-31T12:26:07Z</time>
      </trkpt>
      <trkpt lat="44.80594" lon="6.79812">
        <ele>2493.3</ele>
        <time>2013-08-31T12:26:11Z</time>
      </trkpt>
      <trkpt lat="44.80593" lon="6.79813">
        <ele>2492.4</ele>
        <time>2013-08-31T12:26:12Z</time>
      </trkpt>
      <trkpt lat="44.80591" lon="6.79813">
        <ele>2491.9</ele>
        <time>2013-08-31T12:26:13Z</time>
      </trkpt>
      <trkpt lat="44.80588" lon="6.79813">
        <ele>2490.9</ele>
        <time>2013-08-31T12:26:14Z</time>
      </trkpt>
      <trkpt lat="44.80586" lon="6.79813">
        <ele>2490.4</ele>
        <time>2013-08-31T12:26:15Z</time>
      </trkpt>
      <trkpt lat="44.80583" lon="6.79813">
        <ele>2490.4</ele>
        <time>2013-08-31T12:26:16Z</time>
      </trkpt>
      <trkpt lat="44.80581" lon="6.79812">
        <ele>2488.5</ele>
        <time>2013-08-31T12:26:17Z</time>
      </trkpt>
      <trkpt lat="44.80578" lon="6.79811">
        <ele>2488.5</ele>
        <time>2013-08-31T12:26:18Z</time>
      </trkpt>
      <trkpt lat="44.80568" lon="6.79799">
        <ele>2484.7</ele>
        <time>2013-08-31T12:26:22Z</time>
      </trkpt>
      <trkpt lat="44.80556" lon="6.79787">
        <ele>2481.3</ele>
        <time>2013-08-31T12:26:26Z</time>
      </trkpt>
      <trkpt lat="44.80548" lon="6.79781">
        <ele>2477.9</ele>
        <time>2013-08-31T12:26:29Z</time>
      </trkpt>
      <trkpt lat="44.80541" lon="6.79778">
        <ele>2476.5</ele>
        <time>2013-08-31T12:26:31Z</time>
      </trkpt>
      <trkpt lat="44.80538" lon="6.79775">
        <ele>2476.5</ele>
        <time>2013-08-31T12:26:32Z</time>
      </trkpt>
      <trkpt lat="44.80532" lon="6.79771">
        <ele>2475.1</ele>
        <time>2013-08-31T12:26:34Z</time>
      </trkpt>
      <trkpt lat="44.80523" lon="6.7977">
        <ele>2472.7</ele>
        <time>2013-08-31T12:26:38Z</time>
      </trkpt>
      <trkpt lat="44.80513" lon="6.7977">
        <ele>2471.2</ele>
        <time>2013-08-31T12:26:41Z</time>
      </trkpt>
      <trkpt lat="44.80498" lon="6.79772">
        <ele>2467.4</ele>
        <time>2013-08-31T12:26:46Z</time>
      </trkpt>
      <trkpt lat="44.80496" lon="6.79772">
        <ele>2467.8</ele>
        <time>2013-08-31T12:26:47Z</time>
      </trkpt>
      <trkpt lat="44.80494" lon="6.79771">
        <ele>2466.9</ele>
        <time>2013-08-31T12:26:48Z</time>
      </trkpt>
      <trkpt lat="44.80492" lon="6.79772">
        <ele>2465</ele>
        <time>2013-08-31T12:26:49Z</time>
      </trkpt>
      <trkpt lat="44.80489" lon="6.79771">
        <ele>2465</ele>
        <time>2013-08-31T12:26:50Z</time>
      </trkpt>
      <trkpt lat="44.80486" lon="6.79771">
        <ele>2465</ele>
        <time>2013-08-31T12:26:51Z</time>
      </trkpt>
      <trkpt lat="44.80483" lon="6.79771">
        <ele>2465</ele>
        <time>2013-08-31T12:26:52Z</time>
      </trkpt>
      <trkpt lat="44.8048" lon="6.7977">
        <ele>2463.5</ele>
        <time>2013-08-31T12:26:53Z</time>
      </trkpt>
      <trkpt lat="44.80478" lon="6.79769">
        <ele>2462.6</ele>
        <time>2013-08-31T12:26:54Z</time>
      </trkpt>
      <trkpt lat="44.80475" lon="6.79767">
        <ele>2462.6</ele>
        <time>2013-08-31T12:26:55Z</time>
      </trkpt>
      <trkpt lat="44.80472" lon="6.79766">
        <ele>2462.1</ele>
        <time>2013-08-31T12:26:56Z</time>
      </trkpt>
      <trkpt lat="44.80469" lon="6.79766">
        <ele>2461.1</ele>
        <time>2013-08-31T12:26:57Z</time>
      </trkpt>
      <trkpt lat="44.80465" lon="6.79766">
        <ele>2460.6</ele>
        <time>2013-08-31T12:26:58Z</time>
      </trkpt>
      <trkpt lat="44.80462" lon="6.79766">
        <ele>2460.2</ele>
        <time>2013-08-31T12:26:59Z</time>
      </trkpt>
      <trkpt lat="44.8046" lon="6.79766">
        <ele>2458.7</ele>
        <time>2013-08-31T12:27:00Z</time>
      </trkpt>
      <trkpt lat="44.80458" lon="6.79767">
        <ele>2458.2</ele>
        <time>2013-08-31T12:27:01Z</time>
      </trkpt>
      <trkpt lat="44.80456" lon="6.79767">
        <ele>2458.2</ele>
        <time>2013-08-31T12:27:02Z</time>
      </trkpt>
      <trkpt lat="44.80454" lon="6.79766">
        <ele>2457.3</ele>
        <time>2013-08-31T12:27:03Z</time>
      </trkpt>
      <trkpt lat="44.80452" lon="6.79766">
        <ele>2456.8</ele>
        <time>2013-08-31T12:27:04Z</time>
      </trkpt>
      <trkpt lat="44.8045" lon="6.79767">
        <ele>2456.3</ele>
        <time>2013-08-31T12:27:05Z</time>
      </trkpt>
      <trkpt lat="44.80448" lon="6.79768">
        <ele>2455.3</ele>
        <time>2013-08-31T12:27:06Z</time>
      </trkpt>
      <trkpt lat="44.80447" lon="6.79769">
        <ele>2455.3</ele>
        <time>2013-08-31T12:27:07Z</time>
      </trkpt>
      <trkpt lat="44.80446" lon="6.79772">
        <ele>2454.4</ele>
        <time>2013-08-31T12:27:19Z</time>
      </trkpt>
      <trkpt lat="44.80445" lon="6.79769">
        <ele>2454.9</ele>
        <time>2013-08-31T12:27:42Z</time>
      </trkpt>
      <trkpt lat="44.80443" lon="6.79768">
        <ele>2454.4</ele>
        <time>2013-08-31T12:27:43Z</time>
      </trkpt>
      <trkpt lat="44.80441" lon="6.79768">
        <ele>2453.9</ele>
        <time>2013-08-31T12:27:44Z</time>
      </trkpt>
      <trkpt lat="44.80438" lon="6.79769">
        <ele>2453.9</ele>
        <time>2013-08-31T12:27:45Z</time>
      </trkpt>
      <trkpt lat="44.80435" lon="6.79769">
        <ele>2452.9</ele>
        <time>2013-08-31T12:27:46Z</time>
      </trkpt>
      <trkpt lat="44.80433" lon="6.7977">
        <ele>2452</ele>
        <time>2013-08-31T12:27:47Z</time>
      </trkpt>
      <trkpt lat="44.80425" lon="6.79771">
        <ele>2450.5</ele>
        <time>2013-08-31T12:27:50Z</time>
      </trkpt>
      <trkpt lat="44.80414" lon="6.79773">
        <ele>2447.2</ele>
        <time>2013-08-31T12:27:54Z</time>
      </trkpt>
      <trkpt lat="44.80406" lon="6.79774">
        <ele>2445.3</ele>
        <time>2013-08-31T12:27:57Z</time>
      </trkpt>
      <trkpt lat="44.80398" lon="6.79778">
        <ele>2442.4</ele>
        <time>2013-08-31T12:28:00Z</time>
      </trkpt>
      <trkpt lat="44.80385" lon="6.79779">
        <ele>2438.5</ele>
        <time>2013-08-31T12:28:05Z</time>
      </trkpt>
      <trkpt lat="44.80372" lon="6.79775">
        <ele>2435.2</ele>
        <time>2013-08-31T12:28:09Z</time>
      </trkpt>
      <trkpt lat="44.80361" lon="6.7977">
        <ele>2431.8</ele>
        <time>2013-08-31T12:28:12Z</time>
      </trkpt>
      <trkpt lat="44.80359" lon="6.79769">
        <ele>2431.8</ele>
        <time>2013-08-31T12:28:13Z</time>
      </trkpt>
      <trkpt lat="44.80354" lon="6.79768">
        <ele>2430.4</ele>
        <time>2013-08-31T12:28:15Z</time>
      </trkpt>
      <trkpt lat="44.80346" lon="6.79767">
        <ele>2428.4</ele>
        <time>2013-08-31T12:28:24Z</time>
      </trkpt>
      <trkpt lat="44.80344" lon="6.79767">
        <ele>2428.9</ele>
        <time>2013-08-31T12:28:51Z</time>
      </trkpt>
      <trkpt lat="44.80337" lon="6.79758">
        <ele>2427.5</ele>
        <time>2013-08-31T12:28:55Z</time>
      </trkpt>
      <trkpt lat="44.80335" lon="6.79757">
        <ele>2426.5</ele>
        <time>2013-08-31T12:28:56Z</time>
      </trkpt>
      <trkpt lat="44.80333" lon="6.79756">
        <ele>2426.5</ele>
        <time>2013-08-31T12:28:57Z</time>
      </trkpt>
      <trkpt lat="44.8033" lon="6.79753">
        <ele>2424.6</ele>
        <time>2013-08-31T12:28:58Z</time>
      </trkpt>
      <trkpt lat="44.80327" lon="6.79751">
        <ele>2424.6</ele>
        <time>2013-08-31T12:28:59Z</time>
      </trkpt>
      <trkpt lat="44.80323" lon="6.79749">
        <ele>2423.6</ele>
        <time>2013-08-31T12:29:00Z</time>
      </trkpt>
      <trkpt lat="44.8032" lon="6.79749">
        <ele>2422.2</ele>
        <time>2013-08-31T12:29:01Z</time>
      </trkpt>
      <trkpt lat="44.80317" lon="6.79749">
        <ele>2422.2</ele>
        <time>2013-08-31T12:29:02Z</time>
      </trkpt>
      <trkpt lat="44.80314" lon="6.79749">
        <ele>2421.7</ele>
        <time>2013-08-31T12:29:03Z</time>
      </trkpt>
      <trkpt lat="44.8031" lon="6.79748">
        <ele>2419.8</ele>
        <time>2013-08-31T12:29:04Z</time>
      </trkpt>
      <trkpt lat="44.80306" lon="6.79746">
        <ele>2417.9</ele>
        <time>2013-08-31T12:29:05Z</time>
      </trkpt>
      <trkpt lat="44.80303" lon="6.79742">
        <ele>2417.4</ele>
        <time>2013-08-31T12:29:06Z</time>
      </trkpt>
      <trkpt lat="44.803" lon="6.79738">
        <ele>2415.9</ele>
        <time>2013-08-31T12:29:07Z</time>
      </trkpt>
      <trkpt lat="44.80293" lon="6.79732">
        <ele>2414</ele>
        <time>2013-08-31T12:29:09Z</time>
      </trkpt>
      <trkpt lat="44.8029" lon="6.79728">
        <ele>2413.5</ele>
        <time>2013-08-31T12:29:10Z</time>
      </trkpt>
      <trkpt lat="44.80288" lon="6.79725">
        <ele>2412.6</ele>
        <time>2013-08-31T12:29:11Z</time>
      </trkpt>
      <trkpt lat="44.80286" lon="6.79723">
        <ele>2412.1</ele>
        <time>2013-08-31T12:29:12Z</time>
      </trkpt>
      <trkpt lat="44.80283" lon="6.79723">
        <ele>2411.6</ele>
        <time>2013-08-31T12:29:13Z</time>
      </trkpt>
      <trkpt lat="44.80279" lon="6.79723">
        <ele>2411.6</ele>
        <time>2013-08-31T12:29:14Z</time>
      </trkpt>
      <trkpt lat="44.80276" lon="6.79724">
        <ele>2410.6</ele>
        <time>2013-08-31T12:29:15Z</time>
      </trkpt>
      <trkpt lat="44.80272" lon="6.79725">
        <ele>2410.2</ele>
        <time>2013-08-31T12:29:16Z</time>
      </trkpt>
      <trkpt lat="44.80264" lon="6.79726">
        <ele>2406.8</ele>
        <time>2013-08-31T12:29:18Z</time>
      </trkpt>
      <trkpt lat="44.80255" lon="6.79725">
        <ele>2405.4</ele>
        <time>2013-08-31T12:29:20Z</time>
      </trkpt>
      <trkpt lat="44.80251" lon="6.79723">
        <ele>2404.9</ele>
        <time>2013-08-31T12:29:21Z</time>
      </trkpt>
      <trkpt lat="44.80248" lon="6.79721">
        <ele>2403.4</ele>
        <time>2013-08-31T12:29:22Z</time>
      </trkpt>
      <trkpt lat="44.80245" lon="6.7972">
        <ele>2403</ele>
        <time>2013-08-31T12:29:23Z</time>
      </trkpt>
      <trkpt lat="44.80242" lon="6.7972">
        <ele>2402.5</ele>
        <time>2013-08-31T12:29:24Z</time>
      </trkpt>
      <trkpt lat="44.80238" lon="6.7972">
        <ele>2401.5</ele>
        <time>2013-08-31T12:29:25Z</time>
      </trkpt>
      <trkpt lat="44.80233" lon="6.7972">
        <ele>2400.1</ele>
        <time>2013-08-31T12:29:26Z</time>
      </trkpt>
      <trkpt lat="44.8023" lon="6.79718">
        <ele>2400.1</ele>
        <time>2013-08-31T12:29:27Z</time>
      </trkpt>
      <trkpt lat="44.80226" lon="6.79716">
        <ele>2399.1</ele>
        <time>2013-08-31T12:29:28Z</time>
      </trkpt>
      <trkpt lat="44.80223" lon="6.79714">
        <ele>2398.2</ele>
        <time>2013-08-31T12:29:29Z</time>
      </trkpt>
      <trkpt lat="44.80219" lon="6.79711">
        <ele>2397.7</ele>
        <time>2013-08-31T12:29:30Z</time>
      </trkpt>
      <trkpt lat="44.80217" lon="6.79707">
        <ele>2396.7</ele>
        <time>2013-08-31T12:29:31Z</time>
      </trkpt>
      <trkpt lat="44.80216" lon="6.79702">
        <ele>2395.7</ele>
        <time>2013-08-31T12:29:32Z</time>
      </trkpt>
      <trkpt lat="44.80216" lon="6.79696">
        <ele>2395.7</ele>
        <time>2013-08-31T12:29:33Z</time>
      </trkpt>
      <trkpt lat="44.80216" lon="6.79691">
        <ele>2396.2</ele>
        <time>2013-08-31T12:29:34Z</time>
      </trkpt>
      <trkpt lat="44.80215" lon="6.79686">
        <ele>2395.3</ele>
        <time>2013-08-31T12:29:35Z</time>
      </trkpt>
      <trkpt lat="44.80214" lon="6.79681">
        <ele>2394.3</ele>
        <time>2013-08-31T12:29:36Z</time>
      </trkpt>
      <trkpt lat="44.80213" lon="6.79675">
        <ele>2393.3</ele>
        <time>2013-08-31T12:29:37Z</time>
      </trkpt>
      <trkpt lat="44.80211" lon="6.79654">
        <ele>2389</ele>
        <time>2013-08-31T12:29:40Z</time>
      </trkpt>
      <trkpt lat="44.80211" lon="6.79647">
        <ele>2387.6</ele>
        <time>2013-08-31T12:29:41Z</time>
      </trkpt>
      <trkpt lat="44.80211" lon="6.7964">
        <ele>2387.6</ele>
        <time>2013-08-31T12:29:42Z</time>
      </trkpt>
      <trkpt lat="44.8021" lon="6.79633">
        <ele>2386.1</ele>
        <time>2013-08-31T12:29:43Z</time>
      </trkpt>
      <trkpt lat="44.80209" lon="6.79626">
        <ele>2386.1</ele>
        <time>2013-08-31T12:29:44Z</time>
      </trkpt>
      <trkpt lat="44.80207" lon="6.7962">
        <ele>2385.2</ele>
        <time>2013-08-31T12:29:45Z</time>
      </trkpt>
      <trkpt lat="44.80205" lon="6.79614">
        <ele>2383.7</ele>
        <time>2013-08-31T12:29:46Z</time>
      </trkpt>
      <trkpt lat="44.80202" lon="6.79607">
        <ele>2381.8</ele>
        <time>2013-08-31T12:29:47Z</time>
      </trkpt>
      <trkpt lat="44.80199" lon="6.79601">
        <ele>2380.4</ele>
        <time>2013-08-31T12:29:48Z</time>
      </trkpt>
      <trkpt lat="44.80196" lon="6.79595">
        <ele>2379.4</ele>
        <time>2013-08-31T12:29:49Z</time>
      </trkpt>
      <trkpt lat="44.80194" lon="6.7959">
        <ele>2378.4</ele>
        <time>2013-08-31T12:29:50Z</time>
      </trkpt>
      <trkpt lat="44.80193" lon="6.79587">
        <ele>2378</ele>
        <time>2013-08-31T12:29:51Z</time>
      </trkpt>
      <trkpt lat="44.8019" lon="6.79587">
        <ele>2377</ele>
        <time>2013-08-31T12:29:52Z</time>
      </trkpt>
      <trkpt lat="44.80188" lon="6.79588">
        <ele>2375.6</ele>
        <time>2013-08-31T12:29:53Z</time>
      </trkpt>
      <trkpt lat="44.80185" lon="6.7959">
        <ele>2375.6</ele>
        <time>2013-08-31T12:29:54Z</time>
      </trkpt>
      <trkpt lat="44.80183" lon="6.79592">
        <ele>2374.6</ele>
        <time>2013-08-31T12:29:55Z</time>
      </trkpt>
      <trkpt lat="44.80181" lon="6.79594">
        <ele>2373.6</ele>
        <time>2013-08-31T12:29:56Z</time>
      </trkpt>
      <trkpt lat="44.80179" lon="6.79594">
        <ele>2374.1</ele>
        <time>2013-08-31T12:29:57Z</time>
      </trkpt>
      <trkpt lat="44.80178" lon="6.79592">
        <ele>2372.7</ele>
        <time>2013-08-31T12:29:58Z</time>
      </trkpt>
      <trkpt lat="44.80178" lon="6.79589">
        <ele>2372.7</ele>
        <time>2013-08-31T12:29:59Z</time>
      </trkpt>
      <trkpt lat="44.80177" lon="6.79585">
        <ele>2372.7</ele>
        <time>2013-08-31T12:30:00Z</time>
      </trkpt>
      <trkpt lat="44.80177" lon="6.79581">
        <ele>2373.2</ele>
        <time>2013-08-31T12:30:01Z</time>
      </trkpt>
      <trkpt lat="44.80177" lon="6.79577">
        <ele>2372.7</ele>
        <time>2013-08-31T12:30:02Z</time>
      </trkpt>
      <trkpt lat="44.80176" lon="6.79568">
        <ele>2371.2</ele>
        <time>2013-08-31T12:30:05Z</time>
      </trkpt>
      <trkpt lat="44.80175" lon="6.79572">
        <ele>2370.3</ele>
        <time>2013-08-31T12:30:19Z</time>
      </trkpt>
      <trkpt lat="44.80165" lon="6.79587">
        <ele>2368.8</ele>
        <time>2013-08-31T12:30:27Z</time>
      </trkpt>
      <trkpt lat="44.80158" lon="6.79599">
        <ele>2366.4</ele>
        <time>2013-08-31T12:30:32Z</time>
      </trkpt>
      <trkpt lat="44.80155" lon="6.79598">
        <ele>2365.5</ele>
        <time>2013-08-31T12:30:36Z</time>
      </trkpt>
      <trkpt lat="44.80154" lon="6.79596">
        <ele>2365</ele>
        <time>2013-08-31T12:30:37Z</time>
      </trkpt>
      <trkpt lat="44.80151" lon="6.79577">
        <ele>2363.1</ele>
        <time>2013-08-31T12:30:42Z</time>
      </trkpt>
      <trkpt lat="44.80149" lon="6.79576">
        <ele>2362.1</ele>
        <time>2013-08-31T12:30:43Z</time>
      </trkpt>
      <trkpt lat="44.80147" lon="6.79578">
        <ele>2361.6</ele>
        <time>2013-08-31T12:30:44Z</time>
      </trkpt>
      <trkpt lat="44.80145" lon="6.79581">
        <ele>2361.6</ele>
        <time>2013-08-31T12:30:45Z</time>
      </trkpt>
      <trkpt lat="44.80144" lon="6.79585">
        <ele>2361.1</ele>
        <time>2013-08-31T12:30:46Z</time>
      </trkpt>
      <trkpt lat="44.80142" lon="6.7959">
        <ele>2361.1</ele>
        <time>2013-08-31T12:30:47Z</time>
      </trkpt>
      <trkpt lat="44.8014" lon="6.79595">
        <ele>2359.7</ele>
        <time>2013-08-31T12:30:48Z</time>
      </trkpt>
      <trkpt lat="44.80138" lon="6.796">
        <ele>2359.7</ele>
        <time>2013-08-31T12:30:49Z</time>
      </trkpt>
      <trkpt lat="44.80137" lon="6.79605">
        <ele>2359.2</ele>
        <time>2013-08-31T12:30:50Z</time>
      </trkpt>
      <trkpt lat="44.80135" lon="6.79612">
        <ele>2358.3</ele>
        <time>2013-08-31T12:30:52Z</time>
      </trkpt>
      <trkpt lat="44.80132" lon="6.79613">
        <ele>2355.9</ele>
        <time>2013-08-31T12:31:02Z</time>
      </trkpt>
      <trkpt lat="44.80127" lon="6.79588">
        <ele>2354.4</ele>
        <time>2013-08-31T12:31:08Z</time>
      </trkpt>
      <trkpt lat="44.80124" lon="6.79584">
        <ele>2352</ele>
        <time>2013-08-31T12:31:13Z</time>
      </trkpt>
      <trkpt lat="44.80123" lon="6.79586">
        <ele>2351.5</ele>
        <time>2013-08-31T12:31:14Z</time>
      </trkpt>
      <trkpt lat="44.80122" lon="6.79589">
        <ele>2351.5</ele>
        <time>2013-08-31T12:31:15Z</time>
      </trkpt>
      <trkpt lat="44.80121" lon="6.79592">
        <ele>2351.5</ele>
        <time>2013-08-31T12:31:16Z</time>
      </trkpt>
      <trkpt lat="44.8012" lon="6.79595">
        <ele>2351</ele>
        <time>2013-08-31T12:31:17Z</time>
      </trkpt>
      <trkpt lat="44.80118" lon="6.796">
        <ele>2350.1</ele>
        <time>2013-08-31T12:31:28Z</time>
      </trkpt>
      <trkpt lat="44.80116" lon="6.79597">
        <ele>2349.6</ele>
        <time>2013-08-31T12:31:50Z</time>
      </trkpt>
      <trkpt lat="44.80115" lon="6.79595">
        <ele>2349.6</ele>
        <time>2013-08-31T12:31:51Z</time>
      </trkpt>
      <trkpt lat="44.80115" lon="6.79594">
        <ele>2349.6</ele>
        <time>2013-08-31T12:31:52Z</time>
      </trkpt>
      <trkpt lat="44.80115" lon="6.79575">
        <ele>2348.6</ele>
        <time>2013-08-31T12:32:03Z</time>
      </trkpt>
      <trkpt lat="44.80121" lon="6.79541">
        <ele>2347.2</ele>
        <time>2013-08-31T12:32:12Z</time>
      </trkpt>
      <trkpt lat="44.80123" lon="6.79535">
        <ele>2346.2</ele>
        <time>2013-08-31T12:32:13Z</time>
      </trkpt>
      <trkpt lat="44.80125" lon="6.7953">
        <ele>2347.2</ele>
        <time>2013-08-31T12:32:14Z</time>
      </trkpt>
      <trkpt lat="44.80127" lon="6.79525">
        <ele>2346.7</ele>
        <time>2013-08-31T12:32:15Z</time>
      </trkpt>
      <trkpt lat="44.8013" lon="6.7952">
        <ele>2346.2</ele>
        <time>2013-08-31T12:32:16Z</time>
      </trkpt>
      <trkpt lat="44.80142" lon="6.79501">
        <ele>2346.2</ele>
        <time>2013-08-31T12:32:25Z</time>
      </trkpt>
      <trkpt lat="44.80142" lon="6.79494">
        <ele>2346.7</ele>
        <time>2013-08-31T12:32:36Z</time>
      </trkpt>
      <trkpt lat="44.80141" lon="6.79491">
        <ele>2347.2</ele>
        <time>2013-08-31T12:32:54Z</time>
      </trkpt>
      <trkpt lat="44.8014" lon="6.79482">
        <ele>2347.2</ele>
        <time>2013-08-31T12:33:07Z</time>
      </trkpt>
      <trkpt lat="44.80134" lon="6.79479">
        <ele>2348.2</ele>
        <time>2013-08-31T12:33:22Z</time>
      </trkpt>
      <trkpt lat="44.80133" lon="6.79477">
        <ele>2347.7</ele>
        <time>2013-08-31T12:33:25Z</time>
      </trkpt>
      <trkpt lat="44.80132" lon="6.79475">
        <ele>2348.2</ele>
        <time>2013-08-31T12:33:26Z</time>
      </trkpt>
      <trkpt lat="44.80131" lon="6.79474">
        <ele>2347.7</ele>
        <time>2013-08-31T12:33:27Z</time>
      </trkpt>
      <trkpt lat="44.80129" lon="6.79473">
        <ele>2347.7</ele>
        <time>2013-08-31T12:33:28Z</time>
      </trkpt>
      <trkpt lat="44.80127" lon="6.79472">
        <ele>2348.2</ele>
        <time>2013-08-31T12:33:29Z</time>
      </trkpt>
      <trkpt lat="44.80118" lon="6.79467">
        <ele>2350.1</ele>
        <time>2013-08-31T12:33:35Z</time>
      </trkpt>
      <trkpt lat="44.80117" lon="6.79466">
        <ele>2348.2</ele>
        <time>2013-08-31T12:33:38Z</time>
      </trkpt>
      <trkpt lat="44.8011" lon="6.79462">
        <ele>2349.1</ele>
        <time>2013-08-31T12:33:50Z</time>
      </trkpt>
      <trkpt lat="44.80104" lon="6.79459">
        <ele>2350.1</ele>
        <time>2013-08-31T12:34:03Z</time>
      </trkpt>
      <trkpt lat="44.80102" lon="6.79459">
        <ele>2350.1</ele>
        <time>2013-08-31T12:34:04Z</time>
      </trkpt>
      <trkpt lat="44.801" lon="6.79459">
        <ele>2350.6</ele>
        <time>2013-08-31T12:34:05Z</time>
      </trkpt>
      <trkpt lat="44.80098" lon="6.79458">
        <ele>2351</ele>
        <time>2013-08-31T12:34:06Z</time>
      </trkpt>
      <trkpt lat="44.80097" lon="6.79456">
        <ele>2350.6</ele>
        <time>2013-08-31T12:34:07Z</time>
      </trkpt>
      <trkpt lat="44.80096" lon="6.79454">
        <ele>2350.6</ele>
        <time>2013-08-31T12:34:08Z</time>
      </trkpt>
      <trkpt lat="44.80095" lon="6.79453">
        <ele>2351.5</ele>
        <time>2013-08-31T12:34:09Z</time>
      </trkpt>
      <trkpt lat="44.80093" lon="6.79452">
        <ele>2351</ele>
        <time>2013-08-31T12:34:10Z</time>
      </trkpt>
      <trkpt lat="44.80092" lon="6.79452">
        <ele>2351.5</ele>
        <time>2013-08-31T12:34:11Z</time>
      </trkpt>
      <trkpt lat="44.8009" lon="6.79451">
        <ele>2351.5</ele>
        <time>2013-08-31T12:34:12Z</time>
      </trkpt>
      <trkpt lat="44.80089" lon="6.79449">
        <ele>2351.5</ele>
        <time>2013-08-31T12:34:13Z</time>
      </trkpt>
      <trkpt lat="44.8007" lon="6.79451">
        <ele>2353.4</ele>
        <time>2013-08-31T12:34:26Z</time>
      </trkpt>
      <trkpt lat="44.8004" lon="6.7944">
        <ele>2353.4</ele>
        <time>2013-08-31T12:34:42Z</time>
      </trkpt>
      <trkpt lat="44.80038" lon="6.79437">
        <ele>2353.4</ele>
        <time>2013-08-31T12:34:54Z</time>
      </trkpt>
      <trkpt lat="44.80038" lon="6.7944">
        <ele>2353.4</ele>
        <time>2013-08-31T12:35:26Z</time>
      </trkpt>
      <trkpt lat="44.80039" lon="6.7944">
        <ele>2354.4</ele>
        <time>2013-08-31T12:35:48Z</time>
      </trkpt>
      <trkpt lat="44.80037" lon="6.79438">
        <ele>2354.4</ele>
        <time>2013-08-31T12:35:53Z</time>
      </trkpt>
      <trkpt lat="44.80033" lon="6.79434">
        <ele>2353.4</ele>
        <time>2013-08-31T12:36:04Z</time>
      </trkpt>
      <trkpt lat="44.80025" lon="6.79425">
        <ele>2352.5</ele>
        <time>2013-08-31T12:36:16Z</time>
      </trkpt>
      <trkpt lat="44.80014" lon="6.79412">
        <ele>2351.5</ele>
        <time>2013-08-31T12:36:31Z</time>
      </trkpt>
      <trkpt lat="44.80006" lon="6.79416">
        <ele>2353.4</ele>
        <time>2013-08-31T12:36:46Z</time>
      </trkpt>
      <trkpt lat="44.79998" lon="6.79418">
        <ele>2354.4</ele>
        <time>2013-08-31T12:37:00Z</time>
      </trkpt>
      <trkpt lat="44.79995" lon="6.79415">
        <ele>2354.4</ele>
        <time>2013-08-31T12:37:17Z</time>
      </trkpt>
      <trkpt lat="44.79985" lon="6.79413">
        <ele>2355.4</ele>
        <time>2013-08-31T12:37:32Z</time>
      </trkpt>
      <trkpt lat="44.7996" lon="6.79406">
        <ele>2356.3</ele>
        <time>2013-08-31T12:37:44Z</time>
      </trkpt>
      <trkpt lat="44.79951" lon="6.79397">
        <ele>2356.8</ele>
        <time>2013-08-31T12:37:50Z</time>
      </trkpt>
      <trkpt lat="44.7995" lon="6.79396">
        <ele>2357.3</ele>
        <time>2013-08-31T12:37:51Z</time>
      </trkpt>
      <trkpt lat="44.79948" lon="6.79396">
        <ele>2357.3</ele>
        <time>2013-08-31T12:37:52Z</time>
      </trkpt>
      <trkpt lat="44.79946" lon="6.79396">
        <ele>2357.3</ele>
        <time>2013-08-31T12:37:53Z</time>
      </trkpt>
      <trkpt lat="44.79943" lon="6.79393">
        <ele>2357.3</ele>
        <time>2013-08-31T12:37:54Z</time>
      </trkpt>
      <trkpt lat="44.79941" lon="6.79393">
        <ele>2357.3</ele>
        <time>2013-08-31T12:37:55Z</time>
      </trkpt>
      <trkpt lat="44.79912" lon="6.79376">
        <ele>2358.3</ele>
        <time>2013-08-31T12:38:09Z</time>
      </trkpt>
      <trkpt lat="44.79895" lon="6.79347">
        <ele>2355.4</ele>
        <time>2013-08-31T12:38:17Z</time>
      </trkpt>
      <trkpt lat="44.79884" lon="6.79334">
        <ele>2354.4</ele>
        <time>2013-08-31T12:38:21Z</time>
      </trkpt>
      <trkpt lat="44.79882" lon="6.79334">
        <ele>2354.9</ele>
        <time>2013-08-31T12:38:22Z</time>
      </trkpt>
      <trkpt lat="44.79879" lon="6.79335">
        <ele>2354.4</ele>
        <time>2013-08-31T12:38:23Z</time>
      </trkpt>
      <trkpt lat="44.79877" lon="6.79335">
        <ele>2354.9</ele>
        <time>2013-08-31T12:38:24Z</time>
      </trkpt>
      <trkpt lat="44.79875" lon="6.79336">
        <ele>2354.9</ele>
        <time>2013-08-31T12:38:25Z</time>
      </trkpt>
      <trkpt lat="44.79873" lon="6.79336">
        <ele>2354.9</ele>
        <time>2013-08-31T12:38:26Z</time>
      </trkpt>
      <trkpt lat="44.79871" lon="6.79336">
        <ele>2354.9</ele>
        <time>2013-08-31T12:38:27Z</time>
      </trkpt>
      <trkpt lat="44.79869" lon="6.79335">
        <ele>2355.4</ele>
        <time>2013-08-31T12:38:28Z</time>
      </trkpt>
      <trkpt lat="44.79867" lon="6.79334">
        <ele>2355.9</ele>
        <time>2013-08-31T12:38:29Z</time>
      </trkpt>
      <trkpt lat="44.79865" lon="6.79333">
        <ele>2355.9</ele>
        <time>2013-08-31T12:38:30Z</time>
      </trkpt>
      <trkpt lat="44.79842" lon="6.79317">
        <ele>2357.3</ele>
        <time>2013-08-31T12:38:44Z</time>
      </trkpt>
      <trkpt lat="44.79831" lon="6.79316">
        <ele>2356.8</ele>
        <time>2013-08-31T12:38:57Z</time>
      </trkpt>
      <trkpt lat="44.79809" lon="6.793">
        <ele>2355.9</ele>
        <time>2013-08-31T12:39:09Z</time>
      </trkpt>
      <trkpt lat="44.79807" lon="6.79299">
        <ele>2355.9</ele>
        <time>2013-08-31T12:39:10Z</time>
      </trkpt>
      <trkpt lat="44.79806" lon="6.79298">
        <ele>2356.8</ele>
        <time>2013-08-31T12:39:11Z</time>
      </trkpt>
      <trkpt lat="44.79805" lon="6.79298">
        <ele>2356.8</ele>
        <time>2013-08-31T12:39:12Z</time>
      </trkpt>
      <trkpt lat="44.79803" lon="6.79297">
        <ele>2355.9</ele>
        <time>2013-08-31T12:39:13Z</time>
      </trkpt>
      <trkpt lat="44.798" lon="6.79296">
        <ele>2356.8</ele>
        <time>2013-08-31T12:39:14Z</time>
      </trkpt>
      <trkpt lat="44.79798" lon="6.79296">
        <ele>2356.8</ele>
        <time>2013-08-31T12:39:15Z</time>
      </trkpt>
      <trkpt lat="44.79796" lon="6.79295">
        <ele>2356.3</ele>
        <time>2013-08-31T12:39:16Z</time>
      </trkpt>
      <trkpt lat="44.79794" lon="6.79293">
        <ele>2357.3</ele>
        <time>2013-08-31T12:39:17Z</time>
      </trkpt>
      <trkpt lat="44.79792" lon="6.79292">
        <ele>2357.8</ele>
        <time>2013-08-31T12:39:18Z</time>
      </trkpt>
      <trkpt lat="44.79779" lon="6.79281">
        <ele>2357.3</ele>
        <time>2013-08-31T12:39:26Z</time>
      </trkpt>
      <trkpt lat="44.79777" lon="6.7928">
        <ele>2357.3</ele>
        <time>2013-08-31T12:39:27Z</time>
      </trkpt>
      <trkpt lat="44.79774" lon="6.79279">
        <ele>2357.3</ele>
        <time>2013-08-31T12:39:29Z</time>
      </trkpt>
      <trkpt lat="44.79773" lon="6.7928">
        <ele>2358.3</ele>
        <time>2013-08-31T12:39:30Z</time>
      </trkpt>
      <trkpt lat="44.79769" lon="6.79284">
        <ele>2357.8</ele>
        <time>2013-08-31T12:39:43Z</time>
      </trkpt>
      <trkpt lat="44.7976" lon="6.79287">
        <ele>2357.8</ele>
        <time>2013-08-31T12:40:00Z</time>
      </trkpt>
      <trkpt lat="44.7976" lon="6.79288">
        <ele>2357.8</ele>
        <time>2013-08-31T12:40:25Z</time>
      </trkpt>
      <trkpt lat="44.7976" lon="6.79287">
        <ele>2357.8</ele>
        <time>2013-08-31T12:40:41Z</time>
      </trkpt>
      <trkpt lat="44.79754" lon="6.79291">
        <ele>2358.3</ele>
        <time>2013-08-31T12:40:56Z</time>
      </trkpt>
      <trkpt lat="44.79752" lon="6.79292">
        <ele>2358.7</ele>
        <time>2013-08-31T12:41:11Z</time>
      </trkpt>
      <trkpt lat="44.79751" lon="6.79292">
        <ele>2360.2</ele>
        <time>2013-08-31T12:41:15Z</time>
      </trkpt>
      <trkpt lat="44.79745" lon="6.79298">
        <ele>2359.7</ele>
        <time>2013-08-31T12:41:29Z</time>
      </trkpt>
      <trkpt lat="44.79731" lon="6.79307">
        <ele>2360.7</ele>
        <time>2013-08-31T12:41:40Z</time>
      </trkpt>
      <trkpt lat="44.79702" lon="6.79305">
        <ele>2361.6</ele>
        <time>2013-08-31T12:41:55Z</time>
      </trkpt>
      <trkpt lat="44.79697" lon="6.79301">
        <ele>2362.6</ele>
        <time>2013-08-31T12:42:06Z</time>
      </trkpt>
      <trkpt lat="44.79696" lon="6.79298">
        <ele>2362.6</ele>
        <time>2013-08-31T12:42:32Z</time>
      </trkpt>
      <trkpt lat="44.79688" lon="6.79274">
        <ele>2358.7</ele>
        <time>2013-08-31T12:42:37Z</time>
      </trkpt>
      <trkpt lat="44.79687" lon="6.79268">
        <ele>2358.7</ele>
        <time>2013-08-31T12:42:38Z</time>
      </trkpt>
      <trkpt lat="44.79686" lon="6.79263">
        <ele>2358.3</ele>
        <time>2013-08-31T12:42:39Z</time>
      </trkpt>
      <trkpt lat="44.79684" lon="6.79258">
        <ele>2357.3</ele>
        <time>2013-08-31T12:42:40Z</time>
      </trkpt>
      <trkpt lat="44.79683" lon="6.79254">
        <ele>2356.8</ele>
        <time>2013-08-31T12:42:41Z</time>
      </trkpt>
      <trkpt lat="44.79681" lon="6.79251">
        <ele>2356.3</ele>
        <time>2013-08-31T12:42:42Z</time>
      </trkpt>
      <trkpt lat="44.79679" lon="6.79247">
        <ele>2356.8</ele>
        <time>2013-08-31T12:42:43Z</time>
      </trkpt>
      <trkpt lat="44.79678" lon="6.79243">
        <ele>2355.9</ele>
        <time>2013-08-31T12:42:44Z</time>
      </trkpt>
      <trkpt lat="44.79669" lon="6.79213">
        <ele>2351.5</ele>
        <time>2013-08-31T12:42:51Z</time>
      </trkpt>
      <trkpt lat="44.79665" lon="6.7921">
        <ele>2351.5</ele>
        <time>2013-08-31T12:42:52Z</time>
      </trkpt>
      <trkpt lat="44.79662" lon="6.79209">
        <ele>2351.5</ele>
        <time>2013-08-31T12:42:53Z</time>
      </trkpt>
      <trkpt lat="44.79659" lon="6.79206">
        <ele>2350.6</ele>
        <time>2013-08-31T12:42:54Z</time>
      </trkpt>
      <trkpt lat="44.79656" lon="6.79202">
        <ele>2351</ele>
        <time>2013-08-31T12:42:55Z</time>
      </trkpt>
      <trkpt lat="44.79655" lon="6.79197">
        <ele>2350.1</ele>
        <time>2013-08-31T12:42:56Z</time>
      </trkpt>
      <trkpt lat="44.7965" lon="6.79185">
        <ele>2349.1</ele>
        <time>2013-08-31T12:42:58Z</time>
      </trkpt>
      <trkpt lat="44.79643" lon="6.79173">
        <ele>2349.6</ele>
        <time>2013-08-31T12:43:00Z</time>
      </trkpt>
      <trkpt lat="44.79633" lon="6.79155">
        <ele>2347.7</ele>
        <time>2013-08-31T12:43:05Z</time>
      </trkpt>
      <trkpt lat="44.79631" lon="6.79153">
        <ele>2348.2</ele>
        <time>2013-08-31T12:43:06Z</time>
      </trkpt>
      <trkpt lat="44.79629" lon="6.79151">
        <ele>2348.2</ele>
        <time>2013-08-31T12:43:07Z</time>
      </trkpt>
      <trkpt lat="44.79623" lon="6.79143">
        <ele>2348.6</ele>
        <time>2013-08-31T12:43:12Z</time>
      </trkpt>
      <trkpt lat="44.79622" lon="6.79143">
        <ele>2349.1</ele>
        <time>2013-08-31T12:43:13Z</time>
      </trkpt>
      <trkpt lat="44.79621" lon="6.79143">
        <ele>2349.6</ele>
        <time>2013-08-31T12:43:14Z</time>
      </trkpt>
      <trkpt lat="44.79619" lon="6.79142">
        <ele>2349.1</ele>
        <time>2013-08-31T12:43:15Z</time>
      </trkpt>
      <trkpt lat="44.79617" lon="6.79141">
        <ele>2350.1</ele>
        <time>2013-08-31T12:43:16Z</time>
      </trkpt>
      <trkpt lat="44.79615" lon="6.7914">
        <ele>2350.1</ele>
        <time>2013-08-31T12:43:17Z</time>
      </trkpt>
      <trkpt lat="44.79614" lon="6.79139">
        <ele>2350.6</ele>
        <time>2013-08-31T12:43:18Z</time>
      </trkpt>
      <trkpt lat="44.79613" lon="6.79137">
        <ele>2350.6</ele>
        <time>2013-08-31T12:43:19Z</time>
      </trkpt>
      <trkpt lat="44.79611" lon="6.79136">
        <ele>2350.6</ele>
        <time>2013-08-31T12:43:20Z</time>
      </trkpt>
      <trkpt lat="44.79611" lon="6.79134">
        <ele>2350.6</ele>
        <time>2013-08-31T12:43:21Z</time>
      </trkpt>
      <trkpt lat="44.7961" lon="6.79132">
        <ele>2351</ele>
        <time>2013-08-31T12:43:22Z</time>
      </trkpt>
      <trkpt lat="44.79607" lon="6.79123">
        <ele>2351</ele>
        <time>2013-08-31T12:43:26Z</time>
      </trkpt>
      <trkpt lat="44.79606" lon="6.79122">
        <ele>2351.5</ele>
        <time>2013-08-31T12:43:27Z</time>
      </trkpt>
      <trkpt lat="44.79585" lon="6.79108">
        <ele>2352</ele>
        <time>2013-08-31T12:43:40Z</time>
      </trkpt>
      <trkpt lat="44.79561" lon="6.79098">
        <ele>2353</ele>
        <time>2013-08-31T12:43:54Z</time>
      </trkpt>
      <trkpt lat="44.7956" lon="6.79096">
        <ele>2353.4</ele>
        <time>2013-08-31T12:43:55Z</time>
      </trkpt>
      <trkpt lat="44.79558" lon="6.79096">
        <ele>2353.9</ele>
        <time>2013-08-31T12:43:56Z</time>
      </trkpt>
      <trkpt lat="44.79557" lon="6.79096">
        <ele>2353.9</ele>
        <time>2013-08-31T12:43:57Z</time>
      </trkpt>
      <trkpt lat="44.79555" lon="6.79097">
        <ele>2353.9</ele>
        <time>2013-08-31T12:43:58Z</time>
      </trkpt>
      <trkpt lat="44.79554" lon="6.79096">
        <ele>2353.4</ele>
        <time>2013-08-31T12:43:59Z</time>
      </trkpt>
      <trkpt lat="44.79552" lon="6.79094">
        <ele>2353.9</ele>
        <time>2013-08-31T12:44:00Z</time>
      </trkpt>
      <trkpt lat="44.79548" lon="6.79091">
        <ele>2355.9</ele>
        <time>2013-08-31T12:44:10Z</time>
      </trkpt>
      <trkpt lat="44.79541" lon="6.79087">
        <ele>2356.8</ele>
        <time>2013-08-31T12:44:26Z</time>
      </trkpt>
      <trkpt lat="44.79531" lon="6.7908">
        <ele>2359.7</ele>
        <time>2013-08-31T12:44:44Z</time>
      </trkpt>
      <trkpt lat="44.79513" lon="6.79068">
        <ele>2361.6</ele>
        <time>2013-08-31T12:45:05Z</time>
      </trkpt>
      <trkpt lat="44.79497" lon="6.79066">
        <ele>2363.5</ele>
        <time>2013-08-31T12:45:25Z</time>
      </trkpt>
      <trkpt lat="44.79489" lon="6.79061">
        <ele>2364.5</ele>
        <time>2013-08-31T12:45:43Z</time>
      </trkpt>
      <trkpt lat="44.79489" lon="6.79064">
        <ele>2363.5</ele>
        <time>2013-08-31T12:46:10Z</time>
      </trkpt>
      <trkpt lat="44.79492" lon="6.79066">
        <ele>2364</ele>
        <time>2013-08-31T12:46:51Z</time>
      </trkpt>
      <trkpt lat="44.7949" lon="6.79064">
        <ele>2364.5</ele>
        <time>2013-08-31T12:47:15Z</time>
      </trkpt>
      <trkpt lat="44.79489" lon="6.79063">
        <ele>2364</ele>
        <time>2013-08-31T12:47:16Z</time>
      </trkpt>
      <trkpt lat="44.79487" lon="6.79061">
        <ele>2364</ele>
        <time>2013-08-31T12:47:17Z</time>
      </trkpt>
      <trkpt lat="44.79486" lon="6.7906">
        <ele>2363.5</ele>
        <time>2013-08-31T12:47:31Z</time>
      </trkpt>
      <trkpt lat="44.79486" lon="6.7906">
        <ele>2363.5</ele>
        <time>2013-08-31T12:48:07Z</time>
      </trkpt>
      <trkpt lat="44.79485" lon="6.79057">
        <ele>2364</ele>
        <time>2013-08-31T12:48:34Z</time>
      </trkpt>
      <trkpt lat="44.79479" lon="6.79053">
        <ele>2364</ele>
        <time>2013-08-31T12:49:11Z</time>
      </trkpt>
      <trkpt lat="44.79452" lon="6.79027">
        <ele>2363.1</ele>
        <time>2013-08-31T12:49:23Z</time>
      </trkpt>
      <trkpt lat="44.79426" lon="6.78992">
        <ele>2363.5</ele>
        <time>2013-08-31T12:49:36Z</time>
      </trkpt>
      <trkpt lat="44.79409" lon="6.78972">
        <ele>2363.1</ele>
        <time>2013-08-31T12:49:43Z</time>
      </trkpt>
      <trkpt lat="44.79407" lon="6.78966">
        <ele>2362.6</ele>
        <time>2013-08-31T12:49:44Z</time>
      </trkpt>
      <trkpt lat="44.79404" lon="6.7896">
        <ele>2362.6</ele>
        <time>2013-08-31T12:49:45Z</time>
      </trkpt>
      <trkpt lat="44.794" lon="6.78955">
        <ele>2361.6</ele>
        <time>2013-08-31T12:49:46Z</time>
      </trkpt>
      <trkpt lat="44.79389" lon="6.78941">
        <ele>2361.1</ele>
        <time>2013-08-31T12:49:50Z</time>
      </trkpt>
      <trkpt lat="44.79384" lon="6.7893">
        <ele>2360.2</ele>
        <time>2013-08-31T12:49:52Z</time>
      </trkpt>
      <trkpt lat="44.79381" lon="6.78926">
        <ele>2359.7</ele>
        <time>2013-08-31T12:49:53Z</time>
      </trkpt>
      <trkpt lat="44.79377" lon="6.78922">
        <ele>2359.2</ele>
        <time>2013-08-31T12:49:54Z</time>
      </trkpt>
      <trkpt lat="44.79366" lon="6.78905">
        <ele>2357.3</ele>
        <time>2013-08-31T12:49:58Z</time>
      </trkpt>
      <trkpt lat="44.79363" lon="6.789">
        <ele>2356.3</ele>
        <time>2013-08-31T12:49:59Z</time>
      </trkpt>
      <trkpt lat="44.79361" lon="6.78897">
        <ele>2355.9</ele>
        <time>2013-08-31T12:50:00Z</time>
      </trkpt>
      <trkpt lat="44.79355" lon="6.78889">
        <ele>2354.9</ele>
        <time>2013-08-31T12:50:02Z</time>
      </trkpt>
      <trkpt lat="44.79348" lon="6.78883">
        <ele>2353.4</ele>
        <time>2013-08-31T12:50:04Z</time>
      </trkpt>
      <trkpt lat="44.7934" lon="6.78876">
        <ele>2352</ele>
        <time>2013-08-31T12:50:06Z</time>
      </trkpt>
      <trkpt lat="44.79332" lon="6.78868">
        <ele>2350.1</ele>
        <time>2013-08-31T12:50:09Z</time>
      </trkpt>
      <trkpt lat="44.7933" lon="6.78864">
        <ele>2349.1</ele>
        <time>2013-08-31T12:50:11Z</time>
      </trkpt>
      <trkpt lat="44.79328" lon="6.78864">
        <ele>2348.2</ele>
        <time>2013-08-31T12:50:12Z</time>
      </trkpt>
      <trkpt lat="44.79327" lon="6.78865">
        <ele>2348.6</ele>
        <time>2013-08-31T12:50:13Z</time>
      </trkpt>
      <trkpt lat="44.79325" lon="6.78865">
        <ele>2349.1</ele>
        <time>2013-08-31T12:50:14Z</time>
      </trkpt>
      <trkpt lat="44.79323" lon="6.78865">
        <ele>2348.6</ele>
        <time>2013-08-31T12:50:15Z</time>
      </trkpt>
      <trkpt lat="44.79304" lon="6.78866">
        <ele>2350.1</ele>
        <time>2013-08-31T12:50:26Z</time>
      </trkpt>
      <trkpt lat="44.79278" lon="6.78874">
        <ele>2351</ele>
        <time>2013-08-31T12:50:39Z</time>
      </trkpt>
      <trkpt lat="44.7925" lon="6.78885">
        <ele>2350.1</ele>
        <time>2013-08-31T12:50:51Z</time>
      </trkpt>
      <trkpt lat="44.79221" lon="6.78894">
        <ele>2349.1</ele>
        <time>2013-08-31T12:51:01Z</time>
      </trkpt>
      <trkpt lat="44.792" lon="6.78875">
        <ele>2347.7</ele>
        <time>2013-08-31T12:51:10Z</time>
      </trkpt>
      <trkpt lat="44.79185" lon="6.78849">
        <ele>2344.8</ele>
        <time>2013-08-31T12:51:17Z</time>
      </trkpt>
      <trkpt lat="44.79182" lon="6.78847">
        <ele>2345.3</ele>
        <time>2013-08-31T12:51:18Z</time>
      </trkpt>
      <trkpt lat="44.79179" lon="6.78844">
        <ele>2343.8</ele>
        <time>2013-08-31T12:51:19Z</time>
      </trkpt>
      <trkpt lat="44.79169" lon="6.78832">
        <ele>2343.8</ele>
        <time>2013-08-31T12:51:23Z</time>
      </trkpt>
      <trkpt lat="44.79166" lon="6.78827">
        <ele>2343.4</ele>
        <time>2013-08-31T12:51:24Z</time>
      </trkpt>
      <trkpt lat="44.79164" lon="6.78822">
        <ele>2342.9</ele>
        <time>2013-08-31T12:51:25Z</time>
      </trkpt>
      <trkpt lat="44.79155" lon="6.78806">
        <ele>2341.9</ele>
        <time>2013-08-31T12:51:28Z</time>
      </trkpt>
      <trkpt lat="44.79152" lon="6.78803">
        <ele>2341</ele>
        <time>2013-08-31T12:51:29Z</time>
      </trkpt>
      <trkpt lat="44.79143" lon="6.78797">
        <ele>2339.5</ele>
        <time>2013-08-31T12:51:31Z</time>
      </trkpt>
      <trkpt lat="44.7911" lon="6.78775">
        <ele>2336.1</ele>
        <time>2013-08-31T12:51:40Z</time>
      </trkpt>
      <trkpt lat="44.79108" lon="6.78773">
        <ele>2335.7</ele>
        <time>2013-08-31T12:51:41Z</time>
      </trkpt>
      <trkpt lat="44.79106" lon="6.78772">
        <ele>2334.7</ele>
        <time>2013-08-31T12:51:43Z</time>
      </trkpt>
      <trkpt lat="44.79107" lon="6.78774">
        <ele>2335.2</ele>
        <time>2013-08-31T12:52:12Z</time>
      </trkpt>
      <trkpt lat="44.79106" lon="6.78774">
        <ele>2334.2</ele>
        <time>2013-08-31T12:52:35Z</time>
      </trkpt>
      <trkpt lat="44.79105" lon="6.78771">
        <ele>2333.7</ele>
        <time>2013-08-31T12:52:57Z</time>
      </trkpt>
      <trkpt lat="44.79104" lon="6.7877">
        <ele>2334.2</ele>
        <time>2013-08-31T12:52:58Z</time>
      </trkpt>
      <trkpt lat="44.79103" lon="6.78768">
        <ele>2334.2</ele>
        <time>2013-08-31T12:52:59Z</time>
      </trkpt>
      <trkpt lat="44.79102" lon="6.78764">
        <ele>2333.3</ele>
        <time>2013-08-31T12:53:00Z</time>
      </trkpt>
      <trkpt lat="44.79102" lon="6.7876">
        <ele>2332.3</ele>
        <time>2013-08-31T12:53:01Z</time>
      </trkpt>
      <trkpt lat="44.79101" lon="6.78756">
        <ele>2332.8</ele>
        <time>2013-08-31T12:53:02Z</time>
      </trkpt>
      <trkpt lat="44.791" lon="6.78751">
        <ele>2330.9</ele>
        <time>2013-08-31T12:53:03Z</time>
      </trkpt>
      <trkpt lat="44.79099" lon="6.78746">
        <ele>2330.4</ele>
        <time>2013-08-31T12:53:04Z</time>
      </trkpt>
      <trkpt lat="44.79098" lon="6.78742">
        <ele>2330.4</ele>
        <time>2013-08-31T12:53:05Z</time>
      </trkpt>
      <trkpt lat="44.79096" lon="6.78737">
        <ele>2328.9</ele>
        <time>2013-08-31T12:53:06Z</time>
      </trkpt>
      <trkpt lat="44.79094" lon="6.78732">
        <ele>2328</ele>
        <time>2013-08-31T12:53:07Z</time>
      </trkpt>
      <trkpt lat="44.79092" lon="6.78727">
        <ele>2327.5</ele>
        <time>2013-08-31T12:53:08Z</time>
      </trkpt>
      <trkpt lat="44.79085" lon="6.78704">
        <ele>2325.1</ele>
        <time>2013-08-31T12:53:12Z</time>
      </trkpt>
      <trkpt lat="44.79082" lon="6.78698">
        <ele>2323.2</ele>
        <time>2013-08-31T12:53:13Z</time>
      </trkpt>
      <trkpt lat="44.79079" lon="6.78694">
        <ele>2322.7</ele>
        <time>2013-08-31T12:53:14Z</time>
      </trkpt>
      <trkpt lat="44.79077" lon="6.7869">
        <ele>2322.7</ele>
        <time>2013-08-31T12:53:15Z</time>
      </trkpt>
      <trkpt lat="44.79074" lon="6.78687">
        <ele>2321.7</ele>
        <time>2013-08-31T12:53:16Z</time>
      </trkpt>
      <trkpt lat="44.79071" lon="6.78682">
        <ele>2321.7</ele>
        <time>2013-08-31T12:53:17Z</time>
      </trkpt>
      <trkpt lat="44.79052" lon="6.78665">
        <ele>2317.9</ele>
        <time>2013-08-31T12:53:23Z</time>
      </trkpt>
      <trkpt lat="44.79049" lon="6.78664">
        <ele>2317.9</ele>
        <time>2013-08-31T12:53:24Z</time>
      </trkpt>
      <trkpt lat="44.79046" lon="6.78662">
        <ele>2316.9</ele>
        <time>2013-08-31T12:53:25Z</time>
      </trkpt>
      <trkpt lat="44.79042" lon="6.78659">
        <ele>2316.4</ele>
        <time>2013-08-31T12:53:26Z</time>
      </trkpt>
      <trkpt lat="44.79039" lon="6.78656">
        <ele>2316</ele>
        <time>2013-08-31T12:53:27Z</time>
      </trkpt>
      <trkpt lat="44.79036" lon="6.78653">
        <ele>2315.5</ele>
        <time>2013-08-31T12:53:28Z</time>
      </trkpt>
      <trkpt lat="44.79033" lon="6.78651">
        <ele>2314</ele>
        <time>2013-08-31T12:53:29Z</time>
      </trkpt>
      <trkpt lat="44.7903" lon="6.78648">
        <ele>2314</ele>
        <time>2013-08-31T12:53:30Z</time>
      </trkpt>
      <trkpt lat="44.79007" lon="6.78634">
        <ele>2310.7</ele>
        <time>2013-08-31T12:53:39Z</time>
      </trkpt>
      <trkpt lat="44.79003" lon="6.78632">
        <ele>2309.2</ele>
        <time>2013-08-31T12:53:40Z</time>
      </trkpt>
      <trkpt lat="44.79" lon="6.78629">
        <ele>2309.7</ele>
        <time>2013-08-31T12:53:41Z</time>
      </trkpt>
      <trkpt lat="44.78989" lon="6.78625">
        <ele>2307.8</ele>
        <time>2013-08-31T12:53:45Z</time>
      </trkpt>
      <trkpt lat="44.78987" lon="6.78626">
        <ele>2307.3</ele>
        <time>2013-08-31T12:53:46Z</time>
      </trkpt>
      <trkpt lat="44.78984" lon="6.78627">
        <ele>2306.8</ele>
        <time>2013-08-31T12:53:47Z</time>
      </trkpt>
      <trkpt lat="44.78981" lon="6.78626">
        <ele>2306.3</ele>
        <time>2013-08-31T12:53:48Z</time>
      </trkpt>
      <trkpt lat="44.78979" lon="6.78626">
        <ele>2306.3</ele>
        <time>2013-08-31T12:53:49Z</time>
      </trkpt>
      <trkpt lat="44.78971" lon="6.78623">
        <ele>2304.4</ele>
        <time>2013-08-31T12:53:52Z</time>
      </trkpt>
      <trkpt lat="44.78966" lon="6.78621">
        <ele>2303</ele>
        <time>2013-08-31T12:53:54Z</time>
      </trkpt>
      <trkpt lat="44.78964" lon="6.78623">
        <ele>2303</ele>
        <time>2013-08-31T12:53:55Z</time>
      </trkpt>
      <trkpt lat="44.78962" lon="6.78624">
        <ele>2302.5</ele>
        <time>2013-08-31T12:53:56Z</time>
      </trkpt>
      <trkpt lat="44.7896" lon="6.78626">
        <ele>2302</ele>
        <time>2013-08-31T12:53:57Z</time>
      </trkpt>
      <trkpt lat="44.78958" lon="6.78626">
        <ele>2301.1</ele>
        <time>2013-08-31T12:53:58Z</time>
      </trkpt>
      <trkpt lat="44.78955" lon="6.78625">
        <ele>2300.6</ele>
        <time>2013-08-31T12:53:59Z</time>
      </trkpt>
      <trkpt lat="44.78952" lon="6.78624">
        <ele>2299.6</ele>
        <time>2013-08-31T12:54:00Z</time>
      </trkpt>
      <trkpt lat="44.7895" lon="6.78623">
        <ele>2299.6</ele>
        <time>2013-08-31T12:54:01Z</time>
      </trkpt>
      <trkpt lat="44.78946" lon="6.78619">
        <ele>2298.7</ele>
        <time>2013-08-31T12:54:03Z</time>
      </trkpt>
      <trkpt lat="44.78944" lon="6.78619">
        <ele>2298.2</ele>
        <time>2013-08-31T12:54:04Z</time>
      </trkpt>
      <trkpt lat="44.78943" lon="6.78621">
        <ele>2297.2</ele>
        <time>2013-08-31T12:54:05Z</time>
      </trkpt>
      <trkpt lat="44.78942" lon="6.78624">
        <ele>2296.7</ele>
        <time>2013-08-31T12:54:06Z</time>
      </trkpt>
      <trkpt lat="44.78942" lon="6.78627">
        <ele>2295.8</ele>
        <time>2013-08-31T12:54:07Z</time>
      </trkpt>
      <trkpt lat="44.78943" lon="6.78629">
        <ele>2295.3</ele>
        <time>2013-08-31T12:54:08Z</time>
      </trkpt>
      <trkpt lat="44.78944" lon="6.78631">
        <ele>2295.3</ele>
        <time>2013-08-31T12:54:09Z</time>
      </trkpt>
      <trkpt lat="44.78945" lon="6.78634">
        <ele>2294.8</ele>
        <time>2013-08-31T12:54:10Z</time>
      </trkpt>
      <trkpt lat="44.78945" lon="6.78637">
        <ele>2293.4</ele>
        <time>2013-08-31T12:54:11Z</time>
      </trkpt>
      <trkpt lat="44.78946" lon="6.7864">
        <ele>2293.4</ele>
        <time>2013-08-31T12:54:12Z</time>
      </trkpt>
      <trkpt lat="44.78946" lon="6.78642">
        <ele>2292.4</ele>
        <time>2013-08-31T12:54:13Z</time>
      </trkpt>
      <trkpt lat="44.78953" lon="6.78654">
        <ele>2290</ele>
        <time>2013-08-31T12:54:17Z</time>
      </trkpt>
      <trkpt lat="44.7896" lon="6.78668">
        <ele>2286.6</ele>
        <time>2013-08-31T12:54:22Z</time>
      </trkpt>
      <trkpt lat="44.78963" lon="6.78678">
        <ele>2283.8</ele>
        <time>2013-08-31T12:54:26Z</time>
      </trkpt>
      <trkpt lat="44.78964" lon="6.78679">
        <ele>2282.8</ele>
        <time>2013-08-31T12:54:28Z</time>
      </trkpt>
      <trkpt lat="44.78963" lon="6.78683">
        <ele>2282.8</ele>
        <time>2013-08-31T12:54:40Z</time>
      </trkpt>
      <trkpt lat="44.78965" lon="6.78684">
        <ele>2282.8</ele>
        <time>2013-08-31T12:55:06Z</time>
      </trkpt>
      <trkpt lat="44.78966" lon="6.78685">
        <ele>2282.3</ele>
        <time>2013-08-31T12:55:47Z</time>
      </trkpt>
      <trkpt lat="44.78964" lon="6.78684">
        <ele>2282.8</ele>
        <time>2013-08-31T12:56:25Z</time>
      </trkpt>
      <trkpt lat="44.78964" lon="6.78686">
        <ele>2282.8</ele>
        <time>2013-08-31T12:57:04Z</time>
      </trkpt>
      <trkpt lat="44.78963" lon="6.78683">
        <ele>2281.8</ele>
        <time>2013-08-31T12:57:54Z</time>
      </trkpt>
      <trkpt lat="44.78964" lon="6.78683">
        <ele>2282.3</ele>
        <time>2013-08-31T12:58:28Z</time>
      </trkpt>
      <trkpt lat="44.78961" lon="6.7868">
        <ele>2282.8</ele>
        <time>2013-08-31T12:59:05Z</time>
      </trkpt>
      <trkpt lat="44.78958" lon="6.78679">
        <ele>2281.8</ele>
        <time>2013-08-31T12:59:17Z</time>
      </trkpt>
      <trkpt lat="44.78957" lon="6.78677">
        <ele>2282.3</ele>
        <time>2013-08-31T12:59:18Z</time>
      </trkpt>
      <trkpt lat="44.78955" lon="6.78676">
        <ele>2282.8</ele>
        <time>2013-08-31T12:59:19Z</time>
      </trkpt>
      <trkpt lat="44.78953" lon="6.78675">
        <ele>2282.3</ele>
        <time>2013-08-31T12:59:20Z</time>
      </trkpt>
      <trkpt lat="44.7895" lon="6.78673">
        <ele>2281.8</ele>
        <time>2013-08-31T12:59:21Z</time>
      </trkpt>
      <trkpt lat="44.78947" lon="6.78671">
        <ele>2281.8</ele>
        <time>2013-08-31T12:59:22Z</time>
      </trkpt>
      <trkpt lat="44.78941" lon="6.78665">
        <ele>2281.8</ele>
        <time>2013-08-31T12:59:30Z</time>
      </trkpt>
      <trkpt lat="44.78941" lon="6.78665">
        <ele>2281.8</ele>
        <time>2013-08-31T12:59:56Z</time>
      </trkpt>
      <trkpt lat="44.78939" lon="6.78664">
        <ele>2281.4</ele>
        <time>2013-08-31T13:00:26Z</time>
      </trkpt>
      <trkpt lat="44.78917" lon="6.78647">
        <ele>2280.4</ele>
        <time>2013-08-31T13:00:37Z</time>
      </trkpt>
      <trkpt lat="44.78897" lon="6.78618">
        <ele>2278.5</ele>
        <time>2013-08-31T13:00:46Z</time>
      </trkpt>
      <trkpt lat="44.78877" lon="6.7856">
        <ele>2275.1</ele>
        <time>2013-08-31T13:00:58Z</time>
      </trkpt>
      <trkpt lat="44.78858" lon="6.78525">
        <ele>2274.1</ele>
        <time>2013-08-31T13:01:09Z</time>
      </trkpt>
      <trkpt lat="44.78829" lon="6.78491">
        <ele>2273.2</ele>
        <time>2013-08-31T13:01:20Z</time>
      </trkpt>
      <trkpt lat="44.78818" lon="6.78461">
        <ele>2273.2</ele>
        <time>2013-08-31T13:01:27Z</time>
      </trkpt>
      <trkpt lat="44.78816" lon="6.78455">
        <ele>2272.2</ele>
        <time>2013-08-31T13:01:28Z</time>
      </trkpt>
      <trkpt lat="44.78815" lon="6.7845">
        <ele>2273.2</ele>
        <time>2013-08-31T13:01:29Z</time>
      </trkpt>
      <trkpt lat="44.78814" lon="6.78445">
        <ele>2272.2</ele>
        <time>2013-08-31T13:01:30Z</time>
      </trkpt>
      <trkpt lat="44.78814" lon="6.7844">
        <ele>2271.7</ele>
        <time>2013-08-31T13:01:31Z</time>
      </trkpt>
      <trkpt lat="44.78813" lon="6.78435">
        <ele>2271.3</ele>
        <time>2013-08-31T13:01:32Z</time>
      </trkpt>
      <trkpt lat="44.78811" lon="6.78429">
        <ele>2269.8</ele>
        <time>2013-08-31T13:01:33Z</time>
      </trkpt>
      <trkpt lat="44.78811" lon="6.78424">
        <ele>2269.8</ele>
        <time>2013-08-31T13:01:34Z</time>
      </trkpt>
      <trkpt lat="44.78808" lon="6.78417">
        <ele>2269.8</ele>
        <time>2013-08-31T13:01:36Z</time>
      </trkpt>
      <trkpt lat="44.78806" lon="6.78416">
        <ele>2269.3</ele>
        <time>2013-08-31T13:01:37Z</time>
      </trkpt>
      <trkpt lat="44.78792" lon="6.78394">
        <ele>2267.4</ele>
        <time>2013-08-31T13:01:49Z</time>
      </trkpt>
      <trkpt lat="44.78789" lon="6.78387">
        <ele>2266</ele>
        <time>2013-08-31T13:02:03Z</time>
      </trkpt>
      <trkpt lat="44.78776" lon="6.78373">
        <ele>2266.9</ele>
        <time>2013-08-31T13:02:17Z</time>
      </trkpt>
      <trkpt lat="44.78749" lon="6.7836">
        <ele>2267.4</ele>
        <time>2013-08-31T13:02:29Z</time>
      </trkpt>
      <trkpt lat="44.78717" lon="6.78331">
        <ele>2265.5</ele>
        <time>2013-08-31T13:02:39Z</time>
      </trkpt>
      <trkpt lat="44.78713" lon="6.78329">
        <ele>2265.5</ele>
        <time>2013-08-31T13:02:40Z</time>
      </trkpt>
      <trkpt lat="44.78681" lon="6.78327">
        <ele>2266.9</ele>
        <time>2013-08-31T13:02:51Z</time>
      </trkpt>
      <trkpt lat="44.78676" lon="6.78326">
        <ele>2266.9</ele>
        <time>2013-08-31T13:02:53Z</time>
      </trkpt>
      <trkpt lat="44.78674" lon="6.78325">
        <ele>2266.5</ele>
        <time>2013-08-31T13:02:54Z</time>
      </trkpt>
      <trkpt lat="44.78673" lon="6.78325">
        <ele>2266.5</ele>
        <time>2013-08-31T13:03:00Z</time>
      </trkpt>
      <trkpt lat="44.78675" lon="6.78325">
        <ele>2266.9</ele>
        <time>2013-08-31T13:03:11Z</time>
      </trkpt>
      <trkpt lat="44.78672" lon="6.78323">
        <ele>2265.5</ele>
        <time>2013-08-31T13:03:37Z</time>
      </trkpt>
      <trkpt lat="44.78672" lon="6.78324">
        <ele>2265</ele>
        <time>2013-08-31T13:03:56Z</time>
      </trkpt>
      <trkpt lat="44.7867" lon="6.78322">
        <ele>2265.5</ele>
        <time>2013-08-31T13:03:58Z</time>
      </trkpt>
      <trkpt lat="44.78663" lon="6.78312">
        <ele>2262.1</ele>
        <time>2013-08-31T13:04:03Z</time>
      </trkpt>
      <trkpt lat="44.78661" lon="6.78311">
        <ele>2261.6</ele>
        <time>2013-08-31T13:04:04Z</time>
      </trkpt>
      <trkpt lat="44.78655" lon="6.78312">
        <ele>2261.2</ele>
        <time>2013-08-31T13:04:14Z</time>
      </trkpt>
      <trkpt lat="44.78645" lon="6.78305">
        <ele>2257.8</ele>
        <time>2013-08-31T13:04:20Z</time>
      </trkpt>
      <trkpt lat="44.78642" lon="6.78302">
        <ele>2256.4</ele>
        <time>2013-08-31T13:04:22Z</time>
      </trkpt>
      <trkpt lat="44.78639" lon="6.78299">
        <ele>2255.4</ele>
        <time>2013-08-31T13:04:25Z</time>
      </trkpt>
      <trkpt lat="44.78635" lon="6.78297">
        <ele>2254.4</ele>
        <time>2013-08-31T13:04:36Z</time>
      </trkpt>
      <trkpt lat="44.78627" lon="6.78283">
        <ele>2253</ele>
        <time>2013-08-31T13:04:52Z</time>
      </trkpt>
      <trkpt lat="44.78617" lon="6.78269">
        <ele>2252</ele>
        <time>2013-08-31T13:05:01Z</time>
      </trkpt>
      <trkpt lat="44.78599" lon="6.78261">
        <ele>2250.6</ele>
        <time>2013-08-31T13:05:06Z</time>
      </trkpt>
      <trkpt lat="44.78582" lon="6.78249">
        <ele>2247.2</ele>
        <time>2013-08-31T13:05:11Z</time>
      </trkpt>
      <trkpt lat="44.78576" lon="6.78244">
        <ele>2246.3</ele>
        <time>2013-08-31T13:05:13Z</time>
      </trkpt>
      <trkpt lat="44.78573" lon="6.7824">
        <ele>2245.8</ele>
        <time>2013-08-31T13:05:14Z</time>
      </trkpt>
      <trkpt lat="44.78571" lon="6.78238">
        <ele>2245.3</ele>
        <time>2013-08-31T13:05:15Z</time>
      </trkpt>
      <trkpt lat="44.78568" lon="6.78236">
        <ele>2244.3</ele>
        <time>2013-08-31T13:05:16Z</time>
      </trkpt>
      <trkpt lat="44.78565" lon="6.78235">
        <ele>2244.3</ele>
        <time>2013-08-31T13:05:17Z</time>
      </trkpt>
      <trkpt lat="44.78562" lon="6.78234">
        <ele>2243.4</ele>
        <time>2013-08-31T13:05:18Z</time>
      </trkpt>
      <trkpt lat="44.78558" lon="6.78234">
        <ele>2242.9</ele>
        <time>2013-08-31T13:05:19Z</time>
      </trkpt>
      <trkpt lat="44.7855" lon="6.78232">
        <ele>2241.9</ele>
        <time>2013-08-31T13:05:21Z</time>
      </trkpt>
      <trkpt lat="44.78545" lon="6.78229">
        <ele>2241.9</ele>
        <time>2013-08-31T13:05:23Z</time>
      </trkpt>
      <trkpt lat="44.78544" lon="6.78226">
        <ele>2241.5</ele>
        <time>2013-08-31T13:05:24Z</time>
      </trkpt>
      <trkpt lat="44.78536" lon="6.78206">
        <ele>2238.1</ele>
        <time>2013-08-31T13:05:29Z</time>
      </trkpt>
      <trkpt lat="44.78535" lon="6.78204">
        <ele>2237.6</ele>
        <time>2013-08-31T13:05:30Z</time>
      </trkpt>
      <trkpt lat="44.78533" lon="6.78202">
        <ele>2237.1</ele>
        <time>2013-08-31T13:05:31Z</time>
      </trkpt>
      <trkpt lat="44.7853" lon="6.78201">
        <ele>2237.1</ele>
        <time>2013-08-31T13:05:32Z</time>
      </trkpt>
      <trkpt lat="44.78528" lon="6.78199">
        <ele>2237.1</ele>
        <time>2013-08-31T13:05:33Z</time>
      </trkpt>
      <trkpt lat="44.78526" lon="6.78197">
        <ele>2236.6</ele>
        <time>2013-08-31T13:05:34Z</time>
      </trkpt>
      <trkpt lat="44.78517" lon="6.78184">
        <ele>2234.2</ele>
        <time>2013-08-31T13:05:40Z</time>
      </trkpt>
      <trkpt lat="44.78516" lon="6.78181">
        <ele>2234.7</ele>
        <time>2013-08-31T13:05:41Z</time>
      </trkpt>
      <trkpt lat="44.78516" lon="6.78179">
        <ele>2233.3</ele>
        <time>2013-08-31T13:05:42Z</time>
      </trkpt>
      <trkpt lat="44.78514" lon="6.78177">
        <ele>2233.3</ele>
        <time>2013-08-31T13:05:44Z</time>
      </trkpt>
      <trkpt lat="44.78513" lon="6.78177">
        <ele>2233.3</ele>
        <time>2013-08-31T13:05:45Z</time>
      </trkpt>
      <trkpt lat="44.7851" lon="6.78172">
        <ele>2232.3</ele>
        <time>2013-08-31T13:05:58Z</time>
      </trkpt>
      <trkpt lat="44.78509" lon="6.78172">
        <ele>2231.8</ele>
        <time>2013-08-31T13:05:59Z</time>
      </trkpt>
      <trkpt lat="44.78508" lon="6.7817">
        <ele>2231.8</ele>
        <time>2013-08-31T13:06:00Z</time>
      </trkpt>
      <trkpt lat="44.78506" lon="6.78168">
        <ele>2232.3</ele>
        <time>2013-08-31T13:06:01Z</time>
      </trkpt>
      <trkpt lat="44.78497" lon="6.78153">
        <ele>2229</ele>
        <time>2013-08-31T13:06:08Z</time>
      </trkpt>
      <trkpt lat="44.78495" lon="6.78152">
        <ele>2229</ele>
        <time>2013-08-31T13:06:09Z</time>
      </trkpt>
      <trkpt lat="44.78493" lon="6.7815">
        <ele>2228.5</ele>
        <time>2013-08-31T13:06:10Z</time>
      </trkpt>
      <trkpt lat="44.78492" lon="6.78148">
        <ele>2227.5</ele>
        <time>2013-08-31T13:06:11Z</time>
      </trkpt>
      <trkpt lat="44.7849" lon="6.78146">
        <ele>2227.5</ele>
        <time>2013-08-31T13:06:12Z</time>
      </trkpt>
      <trkpt lat="44.78489" lon="6.78146">
        <ele>2227</ele>
        <time>2013-08-31T13:06:13Z</time>
      </trkpt>
      <trkpt lat="44.78487" lon="6.78147">
        <ele>2226.1</ele>
        <time>2013-08-31T13:06:15Z</time>
      </trkpt>
      <trkpt lat="44.78479" lon="6.78146">
        <ele>2225.1</ele>
        <time>2013-08-31T13:06:25Z</time>
      </trkpt>
      <trkpt lat="44.78472" lon="6.78144">
        <ele>2223.2</ele>
        <time>2013-08-31T13:06:40Z</time>
      </trkpt>
      <trkpt lat="44.78471" lon="6.78144">
        <ele>2223.7</ele>
        <time>2013-08-31T13:06:41Z</time>
      </trkpt>
      <trkpt lat="44.7847" lon="6.78144">
        <ele>2221.7</ele>
        <time>2013-08-31T13:06:42Z</time>
      </trkpt>
      <trkpt lat="44.78436" lon="6.78147">
        <ele>2220.3</ele>
        <time>2013-08-31T13:06:53Z</time>
      </trkpt>
      <trkpt lat="44.78412" lon="6.78144">
        <ele>2216.9</ele>
        <time>2013-08-31T13:07:01Z</time>
      </trkpt>
      <trkpt lat="44.78404" lon="6.78143">
        <ele>2216</ele>
        <time>2013-08-31T13:07:03Z</time>
      </trkpt>
      <trkpt lat="44.78374" lon="6.78135">
        <ele>2213.6</ele>
        <time>2013-08-31T13:07:12Z</time>
      </trkpt>
      <trkpt lat="44.78361" lon="6.78134">
        <ele>2212.1</ele>
        <time>2013-08-31T13:07:16Z</time>
      </trkpt>
      <trkpt lat="44.78335" lon="6.7812">
        <ele>2208.8</ele>
        <time>2013-08-31T13:07:25Z</time>
      </trkpt>
      <trkpt lat="44.78333" lon="6.78118">
        <ele>2208.3</ele>
        <time>2013-08-31T13:07:27Z</time>
      </trkpt>
      <trkpt lat="44.78321" lon="6.78113">
        <ele>2206.8</ele>
        <time>2013-08-31T13:07:45Z</time>
      </trkpt>
      <trkpt lat="44.78314" lon="6.7811">
        <ele>2206.4</ele>
        <time>2013-08-31T13:07:47Z</time>
      </trkpt>
      <trkpt lat="44.78296" lon="6.78104">
        <ele>2203</ele>
        <time>2013-08-31T13:07:52Z</time>
      </trkpt>
      <trkpt lat="44.78285" lon="6.781">
        <ele>2200.6</ele>
        <time>2013-08-31T13:07:55Z</time>
      </trkpt>
      <trkpt lat="44.78281" lon="6.78097">
        <ele>2200.6</ele>
        <time>2013-08-31T13:07:56Z</time>
      </trkpt>
      <trkpt lat="44.78277" lon="6.78094">
        <ele>2199.6</ele>
        <time>2013-08-31T13:07:57Z</time>
      </trkpt>
      <trkpt lat="44.78274" lon="6.78092">
        <ele>2199.2</ele>
        <time>2013-08-31T13:07:58Z</time>
      </trkpt>
      <trkpt lat="44.78271" lon="6.78089">
        <ele>2198.7</ele>
        <time>2013-08-31T13:07:59Z</time>
      </trkpt>
      <trkpt lat="44.78267" lon="6.78086">
        <ele>2198.2</ele>
        <time>2013-08-31T13:08:00Z</time>
      </trkpt>
      <trkpt lat="44.7826" lon="6.7808">
        <ele>2197.2</ele>
        <time>2013-08-31T13:08:02Z</time>
      </trkpt>
      <trkpt lat="44.78254" lon="6.78073">
        <ele>2195.8</ele>
        <time>2013-08-31T13:08:05Z</time>
      </trkpt>
      <trkpt lat="44.78253" lon="6.78071">
        <ele>2195.8</ele>
        <time>2013-08-31T13:08:06Z</time>
      </trkpt>
      <trkpt lat="44.78248" lon="6.78063">
        <ele>2195.8</ele>
        <time>2013-08-31T13:08:09Z</time>
      </trkpt>
      <trkpt lat="44.78247" lon="6.7806">
        <ele>2195.3</ele>
        <time>2013-08-31T13:08:10Z</time>
      </trkpt>
      <trkpt lat="44.78248" lon="6.78058">
        <ele>2196.3</ele>
        <time>2013-08-31T13:08:20Z</time>
      </trkpt>
      <trkpt lat="44.78244" lon="6.78055">
        <ele>2195.3</ele>
        <time>2013-08-31T13:08:38Z</time>
      </trkpt>
      <trkpt lat="44.78242" lon="6.78051">
        <ele>2195.3</ele>
        <time>2013-08-31T13:09:00Z</time>
      </trkpt>
      <trkpt lat="44.78241" lon="6.7805">
        <ele>2195.8</ele>
        <time>2013-08-31T13:09:01Z</time>
      </trkpt>
      <trkpt lat="44.78239" lon="6.78049">
        <ele>2194.8</ele>
        <time>2013-08-31T13:09:02Z</time>
      </trkpt>
      <trkpt lat="44.78237" lon="6.78047">
        <ele>2195.3</ele>
        <time>2013-08-31T13:09:03Z</time>
      </trkpt>
      <trkpt lat="44.78235" lon="6.78045">
        <ele>2193.9</ele>
        <time>2013-08-31T13:09:04Z</time>
      </trkpt>
      <trkpt lat="44.78207" lon="6.78014">
        <ele>2191</ele>
        <time>2013-08-31T13:09:13Z</time>
      </trkpt>
      <trkpt lat="44.78191" lon="6.77998">
        <ele>2188.6</ele>
        <time>2013-08-31T13:09:19Z</time>
      </trkpt>
      <trkpt lat="44.78181" lon="6.77989">
        <ele>2186.2</ele>
        <time>2013-08-31T13:09:23Z</time>
      </trkpt>
      <trkpt lat="44.78172" lon="6.77984">
        <ele>2184.3</ele>
        <time>2013-08-31T13:09:26Z</time>
      </trkpt>
      <trkpt lat="44.78166" lon="6.77977">
        <ele>2183.8</ele>
        <time>2013-08-31T13:09:29Z</time>
      </trkpt>
      <trkpt lat="44.78163" lon="6.77977">
        <ele>2183.3</ele>
        <time>2013-08-31T13:09:30Z</time>
      </trkpt>
      <trkpt lat="44.78161" lon="6.77976">
        <ele>2182.8</ele>
        <time>2013-08-31T13:09:31Z</time>
      </trkpt>
      <trkpt lat="44.78159" lon="6.77974">
        <ele>2182.3</ele>
        <time>2013-08-31T13:09:32Z</time>
      </trkpt>
      <trkpt lat="44.78156" lon="6.77972">
        <ele>2181.9</ele>
        <time>2013-08-31T13:09:33Z</time>
      </trkpt>
      <trkpt lat="44.78154" lon="6.7797">
        <ele>2182.3</ele>
        <time>2013-08-31T13:09:34Z</time>
      </trkpt>
      <trkpt lat="44.78151" lon="6.77968">
        <ele>2182.3</ele>
        <time>2013-08-31T13:09:35Z</time>
      </trkpt>
      <trkpt lat="44.78129" lon="6.77959">
        <ele>2179</ele>
        <time>2013-08-31T13:09:42Z</time>
      </trkpt>
      <trkpt lat="44.78099" lon="6.77942">
        <ele>2178</ele>
        <time>2013-08-31T13:09:53Z</time>
      </trkpt>
      <trkpt lat="44.78062" lon="6.77928">
        <ele>2175.1</ele>
        <time>2013-08-31T13:10:03Z</time>
      </trkpt>
      <trkpt lat="44.78058" lon="6.77927">
        <ele>2175.1</ele>
        <time>2013-08-31T13:10:04Z</time>
      </trkpt>
      <trkpt lat="44.78037" lon="6.77917">
        <ele>2173.7</ele>
        <time>2013-08-31T13:10:09Z</time>
      </trkpt>
      <trkpt lat="44.78011" lon="6.77906">
        <ele>2170.8</ele>
        <time>2013-08-31T13:10:16Z</time>
      </trkpt>
      <trkpt lat="44.77987" lon="6.77897">
        <ele>2168.4</ele>
        <time>2013-08-31T13:10:21Z</time>
      </trkpt>
      <trkpt lat="44.77982" lon="6.77895">
        <ele>2167.9</ele>
        <time>2013-08-31T13:10:22Z</time>
      </trkpt>
      <trkpt lat="44.77977" lon="6.77893">
        <ele>2167.4</ele>
        <time>2013-08-31T13:10:23Z</time>
      </trkpt>
      <trkpt lat="44.77972" lon="6.77892">
        <ele>2167</ele>
        <time>2013-08-31T13:10:24Z</time>
      </trkpt>
      <trkpt lat="44.77968" lon="6.77891">
        <ele>2166.5</ele>
        <time>2013-08-31T13:10:25Z</time>
      </trkpt>
      <trkpt lat="44.7795" lon="6.77886">
        <ele>2164.1</ele>
        <time>2013-08-31T13:10:29Z</time>
      </trkpt>
      <trkpt lat="44.77945" lon="6.77885">
        <ele>2163.6</ele>
        <time>2013-08-31T13:10:30Z</time>
      </trkpt>
      <trkpt lat="44.77941" lon="6.77884">
        <ele>2162.6</ele>
        <time>2013-08-31T13:10:31Z</time>
      </trkpt>
      <trkpt lat="44.77937" lon="6.77883">
        <ele>2161.7</ele>
        <time>2013-08-31T13:10:32Z</time>
      </trkpt>
      <trkpt lat="44.77935" lon="6.77881">
        <ele>2161.7</ele>
        <time>2013-08-31T13:10:33Z</time>
      </trkpt>
      <trkpt lat="44.77922" lon="6.77877">
        <ele>2161.2</ele>
        <time>2013-08-31T13:10:37Z</time>
      </trkpt>
      <trkpt lat="44.77903" lon="6.77867">
        <ele>2161.7</ele>
        <time>2013-08-31T13:10:46Z</time>
      </trkpt>
      <trkpt lat="44.77874" lon="6.77854">
        <ele>2161.2</ele>
        <time>2013-08-31T13:10:59Z</time>
      </trkpt>
      <trkpt lat="44.77822" lon="6.77836">
        <ele>2159.3</ele>
        <time>2013-08-31T13:11:13Z</time>
      </trkpt>
      <trkpt lat="44.77812" lon="6.77833">
        <ele>2157.8</ele>
        <time>2013-08-31T13:11:15Z</time>
      </trkpt>
      <trkpt lat="44.77807" lon="6.77831">
        <ele>2157.8</ele>
        <time>2013-08-31T13:11:16Z</time>
      </trkpt>
      <trkpt lat="44.77771" lon="6.77813">
        <ele>2156.9</ele>
        <time>2013-08-31T13:11:24Z</time>
      </trkpt>
      <trkpt lat="44.77768" lon="6.7781">
        <ele>2156.4</ele>
        <time>2013-08-31T13:11:25Z</time>
      </trkpt>
      <trkpt lat="44.77766" lon="6.77806">
        <ele>2156.4</ele>
        <time>2013-08-31T13:11:26Z</time>
      </trkpt>
      <trkpt lat="44.77764" lon="6.77801">
        <ele>2155.9</ele>
        <time>2013-08-31T13:11:27Z</time>
      </trkpt>
      <trkpt lat="44.77762" lon="6.77795">
        <ele>2155.4</ele>
        <time>2013-08-31T13:11:28Z</time>
      </trkpt>
      <trkpt lat="44.77752" lon="6.7775">
        <ele>2152.5</ele>
        <time>2013-08-31T13:11:35Z</time>
      </trkpt>
      <trkpt lat="44.7775" lon="6.77742">
        <ele>2151.1</ele>
        <time>2013-08-31T13:11:37Z</time>
      </trkpt>
      <trkpt lat="44.77741" lon="6.77715">
        <ele>2149.7</ele>
        <time>2013-08-31T13:11:43Z</time>
      </trkpt>
      <trkpt lat="44.77738" lon="6.77709">
        <ele>2149.7</ele>
        <time>2013-08-31T13:11:44Z</time>
      </trkpt>
      <trkpt lat="44.77736" lon="6.77704">
        <ele>2149.7</ele>
        <time>2013-08-31T13:11:45Z</time>
      </trkpt>
      <trkpt lat="44.7773" lon="6.7769">
        <ele>2147.7</ele>
        <time>2013-08-31T13:11:54Z</time>
      </trkpt>
      <trkpt lat="44.77722" lon="6.77676">
        <ele>2147.2</ele>
        <time>2013-08-31T13:12:11Z</time>
      </trkpt>
      <trkpt lat="44.7772" lon="6.7767">
        <ele>2146.3</ele>
        <time>2013-08-31T13:12:26Z</time>
      </trkpt>
      <trkpt lat="44.77714" lon="6.77653">
        <ele>2143.9</ele>
        <time>2013-08-31T13:12:42Z</time>
      </trkpt>
      <trkpt lat="44.77713" lon="6.77648">
        <ele>2142.9</ele>
        <time>2013-08-31T13:12:46Z</time>
      </trkpt>
      <trkpt lat="44.77709" lon="6.7763">
        <ele>2141.5</ele>
        <time>2013-08-31T13:13:02Z</time>
      </trkpt>
      <trkpt lat="44.77706" lon="6.77621">
        <ele>2139.6</ele>
        <time>2013-08-31T13:13:20Z</time>
      </trkpt>
      <trkpt lat="44.77706" lon="6.77618">
        <ele>2139.1</ele>
        <time>2013-08-31T13:13:37Z</time>
      </trkpt>
      <trkpt lat="44.77706" lon="6.7762">
        <ele>2139.1</ele>
        <time>2013-08-31T13:14:09Z</time>
      </trkpt>
      <trkpt lat="44.77704" lon="6.77612">
        <ele>2138.1</ele>
        <time>2013-08-31T13:14:28Z</time>
      </trkpt>
      <trkpt lat="44.77702" lon="6.77608">
        <ele>2137.6</ele>
        <time>2013-08-31T13:14:34Z</time>
      </trkpt>
      <trkpt lat="44.77701" lon="6.77607">
        <ele>2137.6</ele>
        <time>2013-08-31T13:14:35Z</time>
      </trkpt>
      <trkpt lat="44.777" lon="6.77605">
        <ele>2136.7</ele>
        <time>2013-08-31T13:14:36Z</time>
      </trkpt>
      <trkpt lat="44.77699" lon="6.77601">
        <ele>2136.7</ele>
        <time>2013-08-31T13:14:37Z</time>
      </trkpt>
      <trkpt lat="44.77698" lon="6.77598">
        <ele>2136.7</ele>
        <time>2013-08-31T13:14:38Z</time>
      </trkpt>
      <trkpt lat="44.77698" lon="6.77595">
        <ele>2136.2</ele>
        <time>2013-08-31T13:14:39Z</time>
      </trkpt>
      <trkpt lat="44.77696" lon="6.77582">
        <ele>2132.8</ele>
        <time>2013-08-31T13:14:44Z</time>
      </trkpt>
      <trkpt lat="44.77697" lon="6.77563">
        <ele>2129.5</ele>
        <time>2013-08-31T13:14:50Z</time>
      </trkpt>
      <trkpt lat="44.77697" lon="6.77555">
        <ele>2127.5</ele>
        <time>2013-08-31T13:14:53Z</time>
      </trkpt>
      <trkpt lat="44.77694" lon="6.77538">
        <ele>2124.2</ele>
        <time>2013-08-31T13:14:59Z</time>
      </trkpt>
      <trkpt lat="44.77693" lon="6.7753">
        <ele>2122.3</ele>
        <time>2013-08-31T13:15:09Z</time>
      </trkpt>
      <trkpt lat="44.77692" lon="6.77525">
        <ele>2121.8</ele>
        <time>2013-08-31T13:15:22Z</time>
      </trkpt>
      <trkpt lat="44.77692" lon="6.77522">
        <ele>2121.3</ele>
        <time>2013-08-31T13:15:24Z</time>
      </trkpt>
      <trkpt lat="44.77693" lon="6.77519">
        <ele>2120.8</ele>
        <time>2013-08-31T13:15:25Z</time>
      </trkpt>
      <trkpt lat="44.77693" lon="6.77518">
        <ele>2120.8</ele>
        <time>2013-08-31T13:15:26Z</time>
      </trkpt>
      <trkpt lat="44.77693" lon="6.77516">
        <ele>2119.8</ele>
        <time>2013-08-31T13:15:27Z</time>
      </trkpt>
      <trkpt lat="44.77693" lon="6.77514">
        <ele>2118.9</ele>
        <time>2013-08-31T13:15:28Z</time>
      </trkpt>
      <trkpt lat="44.77693" lon="6.77512">
        <ele>2118.4</ele>
        <time>2013-08-31T13:15:29Z</time>
      </trkpt>
      <trkpt lat="44.77693" lon="6.77511">
        <ele>2118.4</ele>
        <time>2013-08-31T13:15:30Z</time>
      </trkpt>
      <trkpt lat="44.77693" lon="6.7751">
        <ele>2117.9</ele>
        <time>2013-08-31T13:15:31Z</time>
      </trkpt>
      <trkpt lat="44.77686" lon="6.77497">
        <ele>2113.6</ele>
        <time>2013-08-31T13:15:37Z</time>
      </trkpt>
      <trkpt lat="44.77687" lon="6.77492">
        <ele>2113.1</ele>
        <time>2013-08-31T13:15:40Z</time>
      </trkpt>
      <trkpt lat="44.77693" lon="6.77487">
        <ele>2110.7</ele>
        <time>2013-08-31T13:15:43Z</time>
      </trkpt>
      <trkpt lat="44.77695" lon="6.77486">
        <ele>2110.2</ele>
        <time>2013-08-31T13:15:44Z</time>
      </trkpt>
      <trkpt lat="44.77697" lon="6.77486">
        <ele>2110.7</ele>
        <time>2013-08-31T13:15:45Z</time>
      </trkpt>
      <trkpt lat="44.77712" lon="6.77479">
        <ele>2108.8</ele>
        <time>2013-08-31T13:15:51Z</time>
      </trkpt>
      <trkpt lat="44.77719" lon="6.77468">
        <ele>2106.9</ele>
        <time>2013-08-31T13:15:54Z</time>
      </trkpt>
      <trkpt lat="44.77722" lon="6.7746">
        <ele>2106.9</ele>
        <time>2013-08-31T13:15:56Z</time>
      </trkpt>
      <trkpt lat="44.77724" lon="6.77458">
        <ele>2106.4</ele>
        <time>2013-08-31T13:15:57Z</time>
      </trkpt>
      <trkpt lat="44.77737" lon="6.77443">
        <ele>2104.5</ele>
        <time>2013-08-31T13:16:03Z</time>
      </trkpt>
      <trkpt lat="44.7775" lon="6.77434">
        <ele>2102.5</ele>
        <time>2013-08-31T13:16:07Z</time>
      </trkpt>
      <trkpt lat="44.77757" lon="6.77422">
        <ele>2100.6</ele>
        <time>2013-08-31T13:16:10Z</time>
      </trkpt>
      <trkpt lat="44.77762" lon="6.77415">
        <ele>2099.7</ele>
        <time>2013-08-31T13:16:12Z</time>
      </trkpt>
      <trkpt lat="44.77764" lon="6.7741">
        <ele>2098.2</ele>
        <time>2013-08-31T13:16:21Z</time>
      </trkpt>
      <trkpt lat="44.77765" lon="6.77409">
        <ele>2097.7</ele>
        <time>2013-08-31T13:16:33Z</time>
      </trkpt>
      <trkpt lat="44.7777" lon="6.77398">
        <ele>2095.8</ele>
        <time>2013-08-31T13:16:39Z</time>
      </trkpt>
      <trkpt lat="44.7777" lon="6.774">
        <ele>2094.9</ele>
        <time>2013-08-31T13:16:53Z</time>
      </trkpt>
      <trkpt lat="44.77768" lon="6.77402">
        <ele>2094.4</ele>
        <time>2013-08-31T13:17:04Z</time>
      </trkpt>
      <trkpt lat="44.77761" lon="6.77401">
        <ele>2093.4</ele>
        <time>2013-08-31T13:17:08Z</time>
      </trkpt>
      <trkpt lat="44.77749" lon="6.77401">
        <ele>2090</ele>
        <time>2013-08-31T13:17:13Z</time>
      </trkpt>
      <trkpt lat="44.77729" lon="6.77396">
        <ele>2086.7</ele>
        <time>2013-08-31T13:17:18Z</time>
      </trkpt>
      <trkpt lat="44.77723" lon="6.77394">
        <ele>2084.8</ele>
        <time>2013-08-31T13:17:28Z</time>
      </trkpt>
      <trkpt lat="44.77724" lon="6.77392">
        <ele>2083.8</ele>
        <time>2013-08-31T13:17:32Z</time>
      </trkpt>
      <trkpt lat="44.77733" lon="6.77394">
        <ele>2083.8</ele>
        <time>2013-08-31T13:17:45Z</time>
      </trkpt>
      <trkpt lat="44.77753" lon="6.77373">
        <ele>2081.4</ele>
        <time>2013-08-31T13:17:54Z</time>
      </trkpt>
      <trkpt lat="44.77758" lon="6.77363">
        <ele>2080</ele>
        <time>2013-08-31T13:17:57Z</time>
      </trkpt>
      <trkpt lat="44.7777" lon="6.77347">
        <ele>2077.1</ele>
        <time>2013-08-31T13:18:05Z</time>
      </trkpt>
      <trkpt lat="44.77775" lon="6.77343">
        <ele>2076.6</ele>
        <time>2013-08-31T13:18:07Z</time>
      </trkpt>
      <trkpt lat="44.77784" lon="6.7733">
        <ele>2074.7</ele>
        <time>2013-08-31T13:18:10Z</time>
      </trkpt>
      <trkpt lat="44.7779" lon="6.7732">
        <ele>2073.2</ele>
        <time>2013-08-31T13:18:13Z</time>
      </trkpt>
      <trkpt lat="44.77794" lon="6.77306">
        <ele>2071.3</ele>
        <time>2013-08-31T13:18:16Z</time>
      </trkpt>
      <trkpt lat="44.77804" lon="6.7729">
        <ele>2068.4</ele>
        <time>2013-08-31T13:18:20Z</time>
      </trkpt>
      <trkpt lat="44.77826" lon="6.77267">
        <ele>2064.6</ele>
        <time>2013-08-31T13:18:28Z</time>
      </trkpt>
      <trkpt lat="44.77833" lon="6.77263">
        <ele>2063.1</ele>
        <time>2013-08-31T13:18:31Z</time>
      </trkpt>
      <trkpt lat="44.77835" lon="6.77262">
        <ele>2063.1</ele>
        <time>2013-08-31T13:18:35Z</time>
      </trkpt>
      <trkpt lat="44.77821" lon="6.77266">
        <ele>2060.2</ele>
        <time>2013-08-31T13:18:41Z</time>
      </trkpt>
      <trkpt lat="44.7781" lon="6.77265">
        <ele>2057.4</ele>
        <time>2013-08-31T13:18:45Z</time>
      </trkpt>
      <trkpt lat="44.77785" lon="6.77271">
        <ele>2053</ele>
        <time>2013-08-31T13:18:51Z</time>
      </trkpt>
      <trkpt lat="44.77773" lon="6.77271">
        <ele>2050.2</ele>
        <time>2013-08-31T13:18:54Z</time>
      </trkpt>
      <trkpt lat="44.77764" lon="6.77272">
        <ele>2047.3</ele>
        <time>2013-08-31T13:18:56Z</time>
      </trkpt>
      <trkpt lat="44.77739" lon="6.77279">
        <ele>2043.4</ele>
        <time>2013-08-31T13:19:03Z</time>
      </trkpt>
      <trkpt lat="44.77731" lon="6.77285">
        <ele>2041.5</ele>
        <time>2013-08-31T13:19:16Z</time>
      </trkpt>
      <trkpt lat="44.77731" lon="6.77286">
        <ele>2042</ele>
        <time>2013-08-31T13:19:18Z</time>
      </trkpt>
      <trkpt lat="44.7774" lon="6.7727">
        <ele>2039.6</ele>
        <time>2013-08-31T13:19:24Z</time>
      </trkpt>
      <trkpt lat="44.77756" lon="6.77262">
        <ele>2037.7</ele>
        <time>2013-08-31T13:19:29Z</time>
      </trkpt>
      <trkpt lat="44.77762" lon="6.77253">
        <ele>2036.7</ele>
        <time>2013-08-31T13:19:31Z</time>
      </trkpt>
      <trkpt lat="44.77764" lon="6.77248">
        <ele>2036.7</ele>
        <time>2013-08-31T13:19:32Z</time>
      </trkpt>
      <trkpt lat="44.7777" lon="6.77236">
        <ele>2034.8</ele>
        <time>2013-08-31T13:19:34Z</time>
      </trkpt>
      <trkpt lat="44.77785" lon="6.77213">
        <ele>2031.9</ele>
        <time>2013-08-31T13:19:38Z</time>
      </trkpt>
      <trkpt lat="44.77795" lon="6.77198">
        <ele>2030.4</ele>
        <time>2013-08-31T13:19:42Z</time>
      </trkpt>
      <trkpt lat="44.77796" lon="6.77198">
        <ele>2028</ele>
        <time>2013-08-31T13:19:54Z</time>
      </trkpt>
      <trkpt lat="44.77795" lon="6.77201">
        <ele>2027.6</ele>
        <time>2013-08-31T13:20:07Z</time>
      </trkpt>
      <trkpt lat="44.77794" lon="6.77203">
        <ele>2028</ele>
        <time>2013-08-31T13:20:10Z</time>
      </trkpt>
      <trkpt lat="44.77783" lon="6.77201">
        <ele>2025.6</ele>
        <time>2013-08-31T13:20:17Z</time>
      </trkpt>
      <trkpt lat="44.77781" lon="6.77206">
        <ele>2024.7</ele>
        <time>2013-08-31T13:20:32Z</time>
      </trkpt>
      <trkpt lat="44.77782" lon="6.77211">
        <ele>2024.2</ele>
        <time>2013-08-31T13:21:02Z</time>
      </trkpt>
      <trkpt lat="44.77775" lon="6.77214">
        <ele>2024.7</ele>
        <time>2013-08-31T13:21:22Z</time>
      </trkpt>
      <trkpt lat="44.77771" lon="6.77215">
        <ele>2023.7</ele>
        <time>2013-08-31T13:21:24Z</time>
      </trkpt>
      <trkpt lat="44.77758" lon="6.77218">
        <ele>2020.8</ele>
        <time>2013-08-31T13:21:29Z</time>
      </trkpt>
      <trkpt lat="44.77749" lon="6.77218">
        <ele>2018.9</ele>
        <time>2013-08-31T13:21:31Z</time>
      </trkpt>
      <trkpt lat="44.77731" lon="6.77218">
        <ele>2016.5</ele>
        <time>2013-08-31T13:21:35Z</time>
      </trkpt>
      <trkpt lat="44.77712" lon="6.7722">
        <ele>2012.2</ele>
        <time>2013-08-31T13:21:41Z</time>
      </trkpt>
      <trkpt lat="44.7771" lon="6.77221">
        <ele>2011.2</ele>
        <time>2013-08-31T13:21:42Z</time>
      </trkpt>
      <trkpt lat="44.77712" lon="6.77219">
        <ele>2009.8</ele>
        <time>2013-08-31T13:21:46Z</time>
      </trkpt>
      <trkpt lat="44.77714" lon="6.77218">
        <ele>2009.8</ele>
        <time>2013-08-31T13:21:48Z</time>
      </trkpt>
      <trkpt lat="44.7773" lon="6.77206">
        <ele>2007.9</ele>
        <time>2013-08-31T13:21:56Z</time>
      </trkpt>
      <trkpt lat="44.77748" lon="6.77193">
        <ele>2005.5</ele>
        <time>2013-08-31T13:22:00Z</time>
      </trkpt>
      <trkpt lat="44.7777" lon="6.77165">
        <ele>2002.1</ele>
        <time>2013-08-31T13:22:07Z</time>
      </trkpt>
      <trkpt lat="44.77776" lon="6.77155">
        <ele>2000.6</ele>
        <time>2013-08-31T13:22:09Z</time>
      </trkpt>
      <trkpt lat="44.77782" lon="6.77141">
        <ele>2000.2</ele>
        <time>2013-08-31T13:22:12Z</time>
      </trkpt>
      <trkpt lat="44.77782" lon="6.77139">
        <ele>1999.7</ele>
        <time>2013-08-31T13:22:18Z</time>
      </trkpt>
      <trkpt lat="44.77765" lon="6.77154">
        <ele>1996.3</ele>
        <time>2013-08-31T13:22:24Z</time>
      </trkpt>
      <trkpt lat="44.77745" lon="6.77164">
        <ele>1992.5</ele>
        <time>2013-08-31T13:22:28Z</time>
      </trkpt>
      <trkpt lat="44.77731" lon="6.77162">
        <ele>1991</ele>
        <time>2013-08-31T13:22:32Z</time>
      </trkpt>
      <trkpt lat="44.77732" lon="6.77159">
        <ele>1989.6</ele>
        <time>2013-08-31T13:22:42Z</time>
      </trkpt>
      <trkpt lat="44.77741" lon="6.77161">
        <ele>1988.6</ele>
        <time>2013-08-31T13:22:56Z</time>
      </trkpt>
      <trkpt lat="44.77748" lon="6.77147">
        <ele>1985.3</ele>
        <time>2013-08-31T13:23:02Z</time>
      </trkpt>
      <trkpt lat="44.77758" lon="6.7713">
        <ele>1981.9</ele>
        <time>2013-08-31T13:23:07Z</time>
      </trkpt>
      <trkpt lat="44.77757" lon="6.77124">
        <ele>1981.4</ele>
        <time>2013-08-31T13:23:11Z</time>
      </trkpt>
      <trkpt lat="44.77754" lon="6.77124">
        <ele>1980</ele>
        <time>2013-08-31T13:23:13Z</time>
      </trkpt>
      <trkpt lat="44.77737" lon="6.77125">
        <ele>1976.1</ele>
        <time>2013-08-31T13:23:17Z</time>
      </trkpt>
      <trkpt lat="44.77725" lon="6.77123">
        <ele>1974.2</ele>
        <time>2013-08-31T13:23:19Z</time>
      </trkpt>
      <trkpt lat="44.77706" lon="6.77123">
        <ele>1971.8</ele>
        <time>2013-08-31T13:23:24Z</time>
      </trkpt>
      <trkpt lat="44.77698" lon="6.77123">
        <ele>1968.4</ele>
        <time>2013-08-31T13:23:29Z</time>
      </trkpt>
      <trkpt lat="44.77699" lon="6.77122">
        <ele>1968.4</ele>
        <time>2013-08-31T13:23:33Z</time>
      </trkpt>
      <trkpt lat="44.77712" lon="6.77114">
        <ele>1967</ele>
        <time>2013-08-31T13:23:39Z</time>
      </trkpt>
      <trkpt lat="44.7772" lon="6.77107">
        <ele>1966.5</ele>
        <time>2013-08-31T13:23:41Z</time>
      </trkpt>
      <trkpt lat="44.77727" lon="6.771">
        <ele>1966.5</ele>
        <time>2013-08-31T13:23:43Z</time>
      </trkpt>
      <trkpt lat="44.77757" lon="6.77074">
        <ele>1964.1</ele>
        <time>2013-08-31T13:23:54Z</time>
      </trkpt>
      <trkpt lat="44.77756" lon="6.77072">
        <ele>1962.7</ele>
        <time>2013-08-31T13:24:01Z</time>
      </trkpt>
      <trkpt lat="44.77745" lon="6.77078">
        <ele>1960.8</ele>
        <time>2013-08-31T13:24:05Z</time>
      </trkpt>
      <trkpt lat="44.77727" lon="6.77084">
        <ele>1958.8</ele>
        <time>2013-08-31T13:24:09Z</time>
      </trkpt>
      <trkpt lat="44.77719" lon="6.77084">
        <ele>1956.9</ele>
        <time>2013-08-31T13:24:11Z</time>
      </trkpt>
      <trkpt lat="44.77702" lon="6.77085">
        <ele>1954</ele>
        <time>2013-08-31T13:24:15Z</time>
      </trkpt>
      <trkpt lat="44.77688" lon="6.77085">
        <ele>1951.6</ele>
        <time>2013-08-31T13:24:19Z</time>
      </trkpt>
      <trkpt lat="44.77661" lon="6.77093">
        <ele>1948.7</ele>
        <time>2013-08-31T13:24:27Z</time>
      </trkpt>
      <trkpt lat="44.77659" lon="6.77094">
        <ele>1947.8</ele>
        <time>2013-08-31T13:24:29Z</time>
      </trkpt>
      <trkpt lat="44.77663" lon="6.7708">
        <ele>1946.3</ele>
        <time>2013-08-31T13:24:33Z</time>
      </trkpt>
      <trkpt lat="44.77673" lon="6.77059">
        <ele>1942</ele>
        <time>2013-08-31T13:24:37Z</time>
      </trkpt>
      <trkpt lat="44.7768" lon="6.77041">
        <ele>1940.1</ele>
        <time>2013-08-31T13:24:40Z</time>
      </trkpt>
      <trkpt lat="44.77682" lon="6.77036">
        <ele>1939.1</ele>
        <time>2013-08-31T13:24:41Z</time>
      </trkpt>
      <trkpt lat="44.7771" lon="6.7702">
        <ele>1936.7</ele>
        <time>2013-08-31T13:24:49Z</time>
      </trkpt>
      <trkpt lat="44.77722" lon="6.77014">
        <ele>1935.3</ele>
        <time>2013-08-31T13:24:52Z</time>
      </trkpt>
      <trkpt lat="44.77739" lon="6.76996">
        <ele>1932.4</ele>
        <time>2013-08-31T13:24:56Z</time>
      </trkpt>
      <trkpt lat="44.77748" lon="6.76986">
        <ele>1930.5</ele>
        <time>2013-08-31T13:25:03Z</time>
      </trkpt>
      <trkpt lat="44.77747" lon="6.76985">
        <ele>1930</ele>
        <time>2013-08-31T13:25:05Z</time>
      </trkpt>
      <trkpt lat="44.77732" lon="6.76986">
        <ele>1928.1</ele>
        <time>2013-08-31T13:25:10Z</time>
      </trkpt>
      <trkpt lat="44.77728" lon="6.76985">
        <ele>1926.6</ele>
        <time>2013-08-31T13:25:11Z</time>
      </trkpt>
      <trkpt lat="44.77723" lon="6.76983">
        <ele>1925.7</ele>
        <time>2013-08-31T13:25:12Z</time>
      </trkpt>
      <trkpt lat="44.77719" lon="6.7698">
        <ele>1925.2</ele>
        <time>2013-08-31T13:25:13Z</time>
      </trkpt>
      <trkpt lat="44.77715" lon="6.76978">
        <ele>1923.7</ele>
        <time>2013-08-31T13:25:14Z</time>
      </trkpt>
      <trkpt lat="44.77711" lon="6.76978">
        <ele>1923.3</ele>
        <time>2013-08-31T13:25:15Z</time>
      </trkpt>
      <trkpt lat="44.77707" lon="6.76977">
        <ele>1922.3</ele>
        <time>2013-08-31T13:25:16Z</time>
      </trkpt>
      <trkpt lat="44.77703" lon="6.76975">
        <ele>1922.3</ele>
        <time>2013-08-31T13:25:17Z</time>
      </trkpt>
      <trkpt lat="44.77687" lon="6.76971">
        <ele>1919.4</ele>
        <time>2013-08-31T13:25:21Z</time>
      </trkpt>
      <trkpt lat="44.77678" lon="6.76967">
        <ele>1917.5</ele>
        <time>2013-08-31T13:25:24Z</time>
      </trkpt>
      <trkpt lat="44.77676" lon="6.76964">
        <ele>1916.5</ele>
        <time>2013-08-31T13:25:25Z</time>
      </trkpt>
      <trkpt lat="44.77674" lon="6.76962">
        <ele>1915.6</ele>
        <time>2013-08-31T13:25:26Z</time>
      </trkpt>
      <trkpt lat="44.77671" lon="6.7696">
        <ele>1915.6</ele>
        <time>2013-08-31T13:25:27Z</time>
      </trkpt>
      <trkpt lat="44.77663" lon="6.76957">
        <ele>1912.7</ele>
        <time>2013-08-31T13:25:31Z</time>
      </trkpt>
      <trkpt lat="44.77651" lon="6.7696">
        <ele>1909.3</ele>
        <time>2013-08-31T13:25:35Z</time>
      </trkpt>
      <trkpt lat="44.77644" lon="6.76962">
        <ele>1907.4</ele>
        <time>2013-08-31T13:25:37Z</time>
      </trkpt>
      <trkpt lat="44.77639" lon="6.76963">
        <ele>1906</ele>
        <time>2013-08-31T13:25:38Z</time>
      </trkpt>
      <trkpt lat="44.77635" lon="6.76962">
        <ele>1905.5</ele>
        <time>2013-08-31T13:25:39Z</time>
      </trkpt>
      <trkpt lat="44.77621" lon="6.76955">
        <ele>1901.1</ele>
        <time>2013-08-31T13:25:43Z</time>
      </trkpt>
      <trkpt lat="44.77611" lon="6.76947">
        <ele>1898.3</ele>
        <time>2013-08-31T13:25:46Z</time>
      </trkpt>
      <trkpt lat="44.77602" lon="6.76938">
        <ele>1895.4</ele>
        <time>2013-08-31T13:25:50Z</time>
      </trkpt>
      <trkpt lat="44.77599" lon="6.76936">
        <ele>1894.4</ele>
        <time>2013-08-31T13:25:53Z</time>
      </trkpt>
      <trkpt lat="44.776" lon="6.76934">
        <ele>1893.9</ele>
        <time>2013-08-31T13:25:54Z</time>
      </trkpt>
      <trkpt lat="44.77601" lon="6.76931">
        <ele>1893.5</ele>
        <time>2013-08-31T13:25:55Z</time>
      </trkpt>
      <trkpt lat="44.77602" lon="6.76928">
        <ele>1893</ele>
        <time>2013-08-31T13:25:56Z</time>
      </trkpt>
      <trkpt lat="44.77603" lon="6.76925">
        <ele>1892</ele>
        <time>2013-08-31T13:25:57Z</time>
      </trkpt>
      <trkpt lat="44.77603" lon="6.76923">
        <ele>1891.1</ele>
        <time>2013-08-31T13:25:58Z</time>
      </trkpt>
      <trkpt lat="44.77601" lon="6.76921">
        <ele>1890.1</ele>
        <time>2013-08-31T13:25:59Z</time>
      </trkpt>
      <trkpt lat="44.776" lon="6.7692">
        <ele>1890.6</ele>
        <time>2013-08-31T13:26:00Z</time>
      </trkpt>
      <trkpt lat="44.77598" lon="6.76919">
        <ele>1889.6</ele>
        <time>2013-08-31T13:26:01Z</time>
      </trkpt>
      <trkpt lat="44.77596" lon="6.76919">
        <ele>1888.2</ele>
        <time>2013-08-31T13:26:02Z</time>
      </trkpt>
      <trkpt lat="44.77594" lon="6.76919">
        <ele>1887.7</ele>
        <time>2013-08-31T13:26:03Z</time>
      </trkpt>
      <trkpt lat="44.77592" lon="6.76918">
        <ele>1886.7</ele>
        <time>2013-08-31T13:26:04Z</time>
      </trkpt>
      <trkpt lat="44.77587" lon="6.76918">
        <ele>1885.8</ele>
        <time>2013-08-31T13:26:06Z</time>
      </trkpt>
      <trkpt lat="44.77585" lon="6.76916">
        <ele>1884.3</ele>
        <time>2013-08-31T13:26:07Z</time>
      </trkpt>
      <trkpt lat="44.77585" lon="6.76914">
        <ele>1883.8</ele>
        <time>2013-08-31T13:26:08Z</time>
      </trkpt>
      <trkpt lat="44.77585" lon="6.76912">
        <ele>1883.4</ele>
        <time>2013-08-31T13:26:09Z</time>
      </trkpt>
      <trkpt lat="44.77587" lon="6.76909">
        <ele>1883.4</ele>
        <time>2013-08-31T13:26:10Z</time>
      </trkpt>
      <trkpt lat="44.77588" lon="6.76904">
        <ele>1882.9</ele>
        <time>2013-08-31T13:26:11Z</time>
      </trkpt>
      <trkpt lat="44.7759" lon="6.769">
        <ele>1881.4</ele>
        <time>2013-08-31T13:26:12Z</time>
      </trkpt>
      <trkpt lat="44.77593" lon="6.76889">
        <ele>1880</ele>
        <time>2013-08-31T13:26:15Z</time>
      </trkpt>
      <trkpt lat="44.77591" lon="6.76887">
        <ele>1880</ele>
        <time>2013-08-31T13:26:16Z</time>
      </trkpt>
      <trkpt lat="44.77588" lon="6.76886">
        <ele>1879</ele>
        <time>2013-08-31T13:26:17Z</time>
      </trkpt>
      <trkpt lat="44.77586" lon="6.76887">
        <ele>1879</ele>
        <time>2013-08-31T13:26:18Z</time>
      </trkpt>
      <trkpt lat="44.77583" lon="6.76889">
        <ele>1878.6</ele>
        <time>2013-08-31T13:26:19Z</time>
      </trkpt>
      <trkpt lat="44.7757" lon="6.76898">
        <ele>1876.2</ele>
        <time>2013-08-31T13:26:23Z</time>
      </trkpt>
      <trkpt lat="44.77549" lon="6.76916">
        <ele>1875.2</ele>
        <time>2013-08-31T13:26:34Z</time>
      </trkpt>
      <trkpt lat="44.77551" lon="6.76916">
        <ele>1871.8</ele>
        <time>2013-08-31T13:26:47Z</time>
      </trkpt>
      <trkpt lat="44.77547" lon="6.76916">
        <ele>1872.3</ele>
        <time>2013-08-31T13:27:17Z</time>
      </trkpt>
      <trkpt lat="44.77547" lon="6.76916">
        <ele>1870.9</ele>
        <time>2013-08-31T13:27:20Z</time>
      </trkpt>
      <trkpt lat="44.77547" lon="6.76916">
        <ele>1876.6</ele>
        <time>2013-08-31T13:28:29Z</time>
      </trkpt>
      <trkpt lat="44.77565" lon="6.76943">
        <ele>1876.2</ele>
        <time>2013-08-31T13:28:30Z</time>
      </trkpt>
      <trkpt lat="44.77554" lon="6.76936">
        <ele>1877.6</ele>
        <time>2013-08-31T13:28:34Z</time>
      </trkpt>
      <trkpt lat="44.77546" lon="6.7693">
        <ele>1876.6</ele>
        <time>2013-08-31T13:28:36Z</time>
      </trkpt>
      <trkpt lat="44.77543" lon="6.7693">
        <ele>1876.6</ele>
        <time>2013-08-31T13:28:37Z</time>
      </trkpt>
      <trkpt lat="44.77535" lon="6.76927">
        <ele>1876.2</ele>
        <time>2013-08-31T13:28:44Z</time>
      </trkpt>
      <trkpt lat="44.7754" lon="6.76931">
        <ele>1816.1</ele>
        <time>2013-09-01T06:12:15Z</time>
      </trkpt>
      <trkpt lat="44.77508" lon="6.76913">
        <ele>1816.1</ele>
        <time>2013-09-01T06:12:16Z</time>
      </trkpt>
      <trkpt lat="44.7751" lon="6.76907">
        <ele>1816.1</ele>
        <time>2013-09-01T06:12:22Z</time>
      </trkpt>
      <trkpt lat="44.77508" lon="6.76888">
        <ele>1813.2</ele>
        <time>2013-09-01T06:12:30Z</time>
      </trkpt>
      <trkpt lat="44.77502" lon="6.76883">
        <ele>1810.8</ele>
        <time>2013-09-01T06:12:35Z</time>
      </trkpt>
      <trkpt lat="44.77499" lon="6.76879">
        <ele>1807.9</ele>
        <time>2013-09-01T06:12:46Z</time>
      </trkpt>
      <trkpt lat="44.77498" lon="6.76877">
        <ele>1808.4</ele>
        <time>2013-09-01T06:12:49Z</time>
      </trkpt>
      <trkpt lat="44.77494" lon="6.76871">
        <ele>1806.5</ele>
        <time>2013-09-01T06:12:53Z</time>
      </trkpt>
      <trkpt lat="44.77495" lon="6.76858">
        <ele>1805</ele>
        <time>2013-09-01T06:12:57Z</time>
      </trkpt>
      <trkpt lat="44.77499" lon="6.76845">
        <ele>1804.5</ele>
        <time>2013-09-01T06:13:00Z</time>
      </trkpt>
      <trkpt lat="44.77522" lon="6.76832">
        <ele>1806</ele>
        <time>2013-09-01T06:13:09Z</time>
      </trkpt>
      <trkpt lat="44.77546" lon="6.76818">
        <ele>1806.5</ele>
        <time>2013-09-01T06:13:20Z</time>
      </trkpt>
      <trkpt lat="44.77588" lon="6.7679">
        <ele>1806.9</ele>
        <time>2013-09-01T06:13:31Z</time>
      </trkpt>
      <trkpt lat="44.77614" lon="6.76751">
        <ele>1805.5</ele>
        <time>2013-09-01T06:13:44Z</time>
      </trkpt>
      <trkpt lat="44.77614" lon="6.76745">
        <ele>1805</ele>
        <time>2013-09-01T06:13:45Z</time>
      </trkpt>
      <trkpt lat="44.77615" lon="6.76739">
        <ele>1804.1</ele>
        <time>2013-09-01T06:13:46Z</time>
      </trkpt>
      <trkpt lat="44.77614" lon="6.76714">
        <ele>1802.1</ele>
        <time>2013-09-01T06:13:52Z</time>
      </trkpt>
      <trkpt lat="44.7761" lon="6.76711">
        <ele>1801.7</ele>
        <time>2013-09-01T06:13:55Z</time>
      </trkpt>
      <trkpt lat="44.77607" lon="6.76715">
        <ele>1800.7</ele>
        <time>2013-09-01T06:13:57Z</time>
      </trkpt>
      <trkpt lat="44.77606" lon="6.76719">
        <ele>1800.2</ele>
        <time>2013-09-01T06:13:58Z</time>
      </trkpt>
      <trkpt lat="44.77605" lon="6.76724">
        <ele>1800.7</ele>
        <time>2013-09-01T06:13:59Z</time>
      </trkpt>
      <trkpt lat="44.77599" lon="6.76744">
        <ele>1798.8</ele>
        <time>2013-09-01T06:14:02Z</time>
      </trkpt>
      <trkpt lat="44.77598" lon="6.76753">
        <ele>1798.8</ele>
        <time>2013-09-01T06:14:03Z</time>
      </trkpt>
      <trkpt lat="44.77594" lon="6.76756">
        <ele>1799.2</ele>
        <time>2013-09-01T06:14:04Z</time>
      </trkpt>
      <trkpt lat="44.77591" lon="6.76757">
        <ele>1799.7</ele>
        <time>2013-09-01T06:14:05Z</time>
      </trkpt>
      <trkpt lat="44.77588" lon="6.76757">
        <ele>1799.7</ele>
        <time>2013-09-01T06:14:06Z</time>
      </trkpt>
      <trkpt lat="44.77587" lon="6.76753">
        <ele>1799.7</ele>
        <time>2013-09-01T06:14:07Z</time>
      </trkpt>
      <trkpt lat="44.77589" lon="6.76747">
        <ele>1800.2</ele>
        <time>2013-09-01T06:14:08Z</time>
      </trkpt>
      <trkpt lat="44.77592" lon="6.7674">
        <ele>1800.2</ele>
        <time>2013-09-01T06:14:09Z</time>
      </trkpt>
      <trkpt lat="44.77593" lon="6.76732">
        <ele>1800.7</ele>
        <time>2013-09-01T06:14:10Z</time>
      </trkpt>
      <trkpt lat="44.77594" lon="6.76724">
        <ele>1800.7</ele>
        <time>2013-09-01T06:14:11Z</time>
      </trkpt>
      <trkpt lat="44.77594" lon="6.76715">
        <ele>1801.2</ele>
        <time>2013-09-01T06:14:12Z</time>
      </trkpt>
      <trkpt lat="44.77594" lon="6.76707">
        <ele>1801.2</ele>
        <time>2013-09-01T06:14:13Z</time>
      </trkpt>
      <trkpt lat="44.77595" lon="6.76697">
        <ele>1801.2</ele>
        <time>2013-09-01T06:14:14Z</time>
      </trkpt>
      <trkpt lat="44.77599" lon="6.76668">
        <ele>1801.7</ele>
        <time>2013-09-01T06:14:17Z</time>
      </trkpt>
      <trkpt lat="44.77601" lon="6.76659">
        <ele>1801.2</ele>
        <time>2013-09-01T06:14:18Z</time>
      </trkpt>
      <trkpt lat="44.77604" lon="6.76649">
        <ele>1801.2</ele>
        <time>2013-09-01T06:14:19Z</time>
      </trkpt>
      <trkpt lat="44.77608" lon="6.76642">
        <ele>1800.7</ele>
        <time>2013-09-01T06:14:20Z</time>
      </trkpt>
      <trkpt lat="44.77612" lon="6.76637">
        <ele>1800.7</ele>
        <time>2013-09-01T06:14:21Z</time>
      </trkpt>
      <trkpt lat="44.77617" lon="6.76633">
        <ele>1801.2</ele>
        <time>2013-09-01T06:14:22Z</time>
      </trkpt>
      <trkpt lat="44.77623" lon="6.76631">
        <ele>1800.7</ele>
        <time>2013-09-01T06:14:23Z</time>
      </trkpt>
      <trkpt lat="44.77629" lon="6.76631">
        <ele>1800.2</ele>
        <time>2013-09-01T06:14:24Z</time>
      </trkpt>
      <trkpt lat="44.77636" lon="6.76632">
        <ele>1799.2</ele>
        <time>2013-09-01T06:14:25Z</time>
      </trkpt>
      <trkpt lat="44.77649" lon="6.76632">
        <ele>1798.8</ele>
        <time>2013-09-01T06:14:27Z</time>
      </trkpt>
      <trkpt lat="44.77655" lon="6.76631">
        <ele>1798.3</ele>
        <time>2013-09-01T06:14:28Z</time>
      </trkpt>
      <trkpt lat="44.77662" lon="6.76629">
        <ele>1798.8</ele>
        <time>2013-09-01T06:14:29Z</time>
      </trkpt>
      <trkpt lat="44.77667" lon="6.76626">
        <ele>1798.3</ele>
        <time>2013-09-01T06:14:30Z</time>
      </trkpt>
      <trkpt lat="44.7767" lon="6.76622">
        <ele>1798.3</ele>
        <time>2013-09-01T06:14:31Z</time>
      </trkpt>
      <trkpt lat="44.77672" lon="6.76616">
        <ele>1797.8</ele>
        <time>2013-09-01T06:14:32Z</time>
      </trkpt>
      <trkpt lat="44.7767" lon="6.7661">
        <ele>1796.8</ele>
        <time>2013-09-01T06:14:33Z</time>
      </trkpt>
      <trkpt lat="44.77666" lon="6.76605">
        <ele>1796.4</ele>
        <time>2013-09-01T06:14:34Z</time>
      </trkpt>
      <trkpt lat="44.77661" lon="6.76601">
        <ele>1795.9</ele>
        <time>2013-09-01T06:14:35Z</time>
      </trkpt>
      <trkpt lat="44.77627" lon="6.76568">
        <ele>1793.5</ele>
        <time>2013-09-01T06:14:42Z</time>
      </trkpt>
      <trkpt lat="44.77617" lon="6.7656">
        <ele>1792</ele>
        <time>2013-09-01T06:14:44Z</time>
      </trkpt>
      <trkpt lat="44.77613" lon="6.76554">
        <ele>1791.6</ele>
        <time>2013-09-01T06:14:45Z</time>
      </trkpt>
      <trkpt lat="44.77611" lon="6.76547">
        <ele>1791.1</ele>
        <time>2013-09-01T06:14:46Z</time>
      </trkpt>
      <trkpt lat="44.7761" lon="6.76539">
        <ele>1791.6</ele>
        <time>2013-09-01T06:14:47Z</time>
      </trkpt>
      <trkpt lat="44.77607" lon="6.76525">
        <ele>1793.5</ele>
        <time>2013-09-01T06:14:49Z</time>
      </trkpt>
      <trkpt lat="44.77605" lon="6.76519">
        <ele>1794.4</ele>
        <time>2013-09-01T06:14:50Z</time>
      </trkpt>
      <trkpt lat="44.77603" lon="6.76513">
        <ele>1794.4</ele>
        <time>2013-09-01T06:14:51Z</time>
      </trkpt>
      <trkpt lat="44.77599" lon="6.76509">
        <ele>1795.4</ele>
        <time>2013-09-01T06:14:52Z</time>
      </trkpt>
      <trkpt lat="44.77596" lon="6.76506">
        <ele>1796.8</ele>
        <time>2013-09-01T06:14:53Z</time>
      </trkpt>
      <trkpt lat="44.77593" lon="6.76503">
        <ele>1797.3</ele>
        <time>2013-09-01T06:14:54Z</time>
      </trkpt>
      <trkpt lat="44.77582" lon="6.76497">
        <ele>1798.8</ele>
        <time>2013-09-01T06:14:57Z</time>
      </trkpt>
      <trkpt lat="44.77572" lon="6.76493">
        <ele>1802.1</ele>
        <time>2013-09-01T06:15:00Z</time>
      </trkpt>
      <trkpt lat="44.77567" lon="6.76492">
        <ele>1803.1</ele>
        <time>2013-09-01T06:15:02Z</time>
      </trkpt>
      <trkpt lat="44.77556" lon="6.76493">
        <ele>1806</ele>
        <time>2013-09-01T06:15:08Z</time>
      </trkpt>
      <trkpt lat="44.7755" lon="6.76495">
        <ele>1809.3</ele>
        <time>2013-09-01T06:15:12Z</time>
      </trkpt>
      <trkpt lat="44.77549" lon="6.76495">
        <ele>1809.3</ele>
        <time>2013-09-01T06:15:13Z</time>
      </trkpt>
      <trkpt lat="44.77539" lon="6.76499">
        <ele>1812.7</ele>
        <time>2013-09-01T06:15:19Z</time>
      </trkpt>
      <trkpt lat="44.77532" lon="6.76506">
        <ele>1815.1</ele>
        <time>2013-09-01T06:15:26Z</time>
      </trkpt>
      <trkpt lat="44.77531" lon="6.76506">
        <ele>1815.1</ele>
        <time>2013-09-01T06:15:27Z</time>
      </trkpt>
      <trkpt lat="44.77526" lon="6.76514">
        <ele>1817.5</ele>
        <time>2013-09-01T06:15:31Z</time>
      </trkpt>
      <trkpt lat="44.77513" lon="6.7653">
        <ele>1820.9</ele>
        <time>2013-09-01T06:15:40Z</time>
      </trkpt>
      <trkpt lat="44.7751" lon="6.76532">
        <ele>1821.8</ele>
        <time>2013-09-01T06:15:42Z</time>
      </trkpt>
      <trkpt lat="44.77487" lon="6.76543">
        <ele>1824.7</ele>
        <time>2013-09-01T06:15:56Z</time>
      </trkpt>
      <trkpt lat="44.77464" lon="6.76562">
        <ele>1826.2</ele>
        <time>2013-09-01T06:16:11Z</time>
      </trkpt>
      <trkpt lat="44.77434" lon="6.76575">
        <ele>1829.1</ele>
        <time>2013-09-01T06:16:26Z</time>
      </trkpt>
      <trkpt lat="44.77397" lon="6.76554">
        <ele>1831.5</ele>
        <time>2013-09-01T06:16:44Z</time>
      </trkpt>
      <trkpt lat="44.77367" lon="6.76509">
        <ele>1831.5</ele>
        <time>2013-09-01T06:16:57Z</time>
      </trkpt>
      <trkpt lat="44.77338" lon="6.76473">
        <ele>1832.9</ele>
        <time>2013-09-01T06:17:11Z</time>
      </trkpt>
      <trkpt lat="44.77295" lon="6.7647">
        <ele>1833.4</ele>
        <time>2013-09-01T06:17:25Z</time>
      </trkpt>
      <trkpt lat="44.77252" lon="6.76468">
        <ele>1834.3</ele>
        <time>2013-09-01T06:17:38Z</time>
      </trkpt>
      <trkpt lat="44.7721" lon="6.76468">
        <ele>1834.8</ele>
        <time>2013-09-01T06:17:52Z</time>
      </trkpt>
      <trkpt lat="44.77168" lon="6.76465">
        <ele>1834.8</ele>
        <time>2013-09-01T06:18:05Z</time>
      </trkpt>
      <trkpt lat="44.77127" lon="6.76472">
        <ele>1834.8</ele>
        <time>2013-09-01T06:18:16Z</time>
      </trkpt>
      <trkpt lat="44.77113" lon="6.76478">
        <ele>1833.9</ele>
        <time>2013-09-01T06:18:20Z</time>
      </trkpt>
      <trkpt lat="44.77109" lon="6.76483">
        <ele>1833.4</ele>
        <time>2013-09-01T06:18:21Z</time>
      </trkpt>
      <trkpt lat="44.77106" lon="6.76488">
        <ele>1833.4</ele>
        <time>2013-09-01T06:18:22Z</time>
      </trkpt>
      <trkpt lat="44.77098" lon="6.76497">
        <ele>1833.9</ele>
        <time>2013-09-01T06:18:24Z</time>
      </trkpt>
      <trkpt lat="44.77093" lon="6.765">
        <ele>1832.9</ele>
        <time>2013-09-01T06:18:25Z</time>
      </trkpt>
      <trkpt lat="44.77077" lon="6.76508">
        <ele>1832.4</ele>
        <time>2013-09-01T06:18:29Z</time>
      </trkpt>
      <trkpt lat="44.77064" lon="6.76513">
        <ele>1831.9</ele>
        <time>2013-09-01T06:18:33Z</time>
      </trkpt>
      <trkpt lat="44.77066" lon="6.76513">
        <ele>1831.9</ele>
        <time>2013-09-01T06:18:46Z</time>
      </trkpt>
      <trkpt lat="44.77065" lon="6.76519">
        <ele>1832.4</ele>
        <time>2013-09-01T06:19:18Z</time>
      </trkpt>
      <trkpt lat="44.77064" lon="6.76515">
        <ele>1831.9</ele>
        <time>2013-09-01T06:19:41Z</time>
      </trkpt>
      <trkpt lat="44.77063" lon="6.76515">
        <ele>1832.4</ele>
        <time>2013-09-01T06:19:44Z</time>
      </trkpt>
      <trkpt lat="44.77035" lon="6.76532">
        <ele>1831.9</ele>
        <time>2013-09-01T06:19:56Z</time>
      </trkpt>
      <trkpt lat="44.76998" lon="6.76555">
        <ele>1831.5</ele>
        <time>2013-09-01T06:20:07Z</time>
      </trkpt>
      <trkpt lat="44.76991" lon="6.76562">
        <ele>1831</ele>
        <time>2013-09-01T06:20:09Z</time>
      </trkpt>
      <trkpt lat="44.76988" lon="6.76566">
        <ele>1831.5</ele>
        <time>2013-09-01T06:20:10Z</time>
      </trkpt>
      <trkpt lat="44.76978" lon="6.76581">
        <ele>1831.5</ele>
        <time>2013-09-01T06:20:13Z</time>
      </trkpt>
      <trkpt lat="44.76969" lon="6.76596">
        <ele>1830.5</ele>
        <time>2013-09-01T06:20:16Z</time>
      </trkpt>
      <trkpt lat="44.76965" lon="6.76599">
        <ele>1831</ele>
        <time>2013-09-01T06:20:17Z</time>
      </trkpt>
      <trkpt lat="44.76961" lon="6.76603">
        <ele>1830.5</ele>
        <time>2013-09-01T06:20:18Z</time>
      </trkpt>
      <trkpt lat="44.76956" lon="6.76606">
        <ele>1830.5</ele>
        <time>2013-09-01T06:20:19Z</time>
      </trkpt>
      <trkpt lat="44.76951" lon="6.76608">
        <ele>1830.5</ele>
        <time>2013-09-01T06:20:20Z</time>
      </trkpt>
      <trkpt lat="44.76947" lon="6.76609">
        <ele>1830</ele>
        <time>2013-09-01T06:20:21Z</time>
      </trkpt>
      <trkpt lat="44.76942" lon="6.76609">
        <ele>1830.5</ele>
        <time>2013-09-01T06:20:22Z</time>
      </trkpt>
      <trkpt lat="44.76937" lon="6.76609">
        <ele>1830.5</ele>
        <time>2013-09-01T06:20:23Z</time>
      </trkpt>
      <trkpt lat="44.76931" lon="6.76608">
        <ele>1830</ele>
        <time>2013-09-01T06:20:24Z</time>
      </trkpt>
      <trkpt lat="44.76901" lon="6.76601">
        <ele>1830</ele>
        <time>2013-09-01T06:20:30Z</time>
      </trkpt>
      <trkpt lat="44.76855" lon="6.76596">
        <ele>1828.6</ele>
        <time>2013-09-01T06:20:39Z</time>
      </trkpt>
      <trkpt lat="44.76851" lon="6.76597">
        <ele>1828.6</ele>
        <time>2013-09-01T06:20:40Z</time>
      </trkpt>
      <trkpt lat="44.76847" lon="6.766">
        <ele>1829.1</ele>
        <time>2013-09-01T06:20:41Z</time>
      </trkpt>
      <trkpt lat="44.76842" lon="6.7661">
        <ele>1828.1</ele>
        <time>2013-09-01T06:20:43Z</time>
      </trkpt>
      <trkpt lat="44.76842" lon="6.76618">
        <ele>1829.1</ele>
        <time>2013-09-01T06:20:44Z</time>
      </trkpt>
      <trkpt lat="44.7684" lon="6.76633">
        <ele>1828.6</ele>
        <time>2013-09-01T06:20:46Z</time>
      </trkpt>
      <trkpt lat="44.76838" lon="6.76641">
        <ele>1828.6</ele>
        <time>2013-09-01T06:20:47Z</time>
      </trkpt>
      <trkpt lat="44.76832" lon="6.76663">
        <ele>1828.1</ele>
        <time>2013-09-01T06:20:50Z</time>
      </trkpt>
      <trkpt lat="44.76831" lon="6.76669">
        <ele>1828.1</ele>
        <time>2013-09-01T06:20:51Z</time>
      </trkpt>
      <trkpt lat="44.7683" lon="6.76681">
        <ele>1829.1</ele>
        <time>2013-09-01T06:20:53Z</time>
      </trkpt>
      <trkpt lat="44.76829" lon="6.76687">
        <ele>1829.1</ele>
        <time>2013-09-01T06:20:54Z</time>
      </trkpt>
      <trkpt lat="44.76827" lon="6.76692">
        <ele>1829.1</ele>
        <time>2013-09-01T06:20:55Z</time>
      </trkpt>
      <trkpt lat="44.76822" lon="6.76703">
        <ele>1829.1</ele>
        <time>2013-09-01T06:20:57Z</time>
      </trkpt>
      <trkpt lat="44.76818" lon="6.76709">
        <ele>1829.1</ele>
        <time>2013-09-01T06:20:58Z</time>
      </trkpt>
      <trkpt lat="44.76788" lon="6.76747">
        <ele>1827.6</ele>
        <time>2013-09-01T06:21:06Z</time>
      </trkpt>
      <trkpt lat="44.76731" lon="6.76784">
        <ele>1829.1</ele>
        <time>2013-09-01T06:21:20Z</time>
      </trkpt>
      <trkpt lat="44.76684" lon="6.76795">
        <ele>1832.4</ele>
        <time>2013-09-01T06:21:35Z</time>
      </trkpt>
      <trkpt lat="44.76636" lon="6.7677">
        <ele>1833.9</ele>
        <time>2013-09-01T06:21:51Z</time>
      </trkpt>
      <trkpt lat="44.76587" lon="6.76758">
        <ele>1835.3</ele>
        <time>2013-09-01T06:22:06Z</time>
      </trkpt>
      <trkpt lat="44.76536" lon="6.76751">
        <ele>1835.3</ele>
        <time>2013-09-01T06:22:19Z</time>
      </trkpt>
      <trkpt lat="44.76485" lon="6.76758">
        <ele>1838.2</ele>
        <time>2013-09-01T06:22:35Z</time>
      </trkpt>
      <trkpt lat="44.76448" lon="6.76774">
        <ele>1840.6</ele>
        <time>2013-09-01T06:22:52Z</time>
      </trkpt>
      <trkpt lat="44.7642" lon="6.76788">
        <ele>1843.5</ele>
        <time>2013-09-01T06:23:06Z</time>
      </trkpt>
      <trkpt lat="44.76412" lon="6.76788">
        <ele>1843.5</ele>
        <time>2013-09-01T06:23:17Z</time>
      </trkpt>
      <trkpt lat="44.76407" lon="6.76799">
        <ele>1843.5</ele>
        <time>2013-09-01T06:23:42Z</time>
      </trkpt>
      <trkpt lat="44.76409" lon="6.76799">
        <ele>1844</ele>
        <time>2013-09-01T06:24:11Z</time>
      </trkpt>
      <trkpt lat="44.76409" lon="6.76797">
        <ele>1844</ele>
        <time>2013-09-01T06:24:46Z</time>
      </trkpt>
      <trkpt lat="44.76407" lon="6.76795">
        <ele>1844.4</ele>
        <time>2013-09-01T06:25:09Z</time>
      </trkpt>
      <trkpt lat="44.76407" lon="6.76803">
        <ele>1844.4</ele>
        <time>2013-09-01T06:25:38Z</time>
      </trkpt>
      <trkpt lat="44.76408" lon="6.76799">
        <ele>1844.9</ele>
        <time>2013-09-01T06:25:59Z</time>
      </trkpt>
      <trkpt lat="44.76412" lon="6.76791">
        <ele>1844.9</ele>
        <time>2013-09-01T06:26:06Z</time>
      </trkpt>
      <trkpt lat="44.76413" lon="6.76786">
        <ele>1844.9</ele>
        <time>2013-09-01T06:26:07Z</time>
      </trkpt>
      <trkpt lat="44.76435" lon="6.76758">
        <ele>1848.3</ele>
        <time>2013-09-01T06:26:19Z</time>
      </trkpt>
      <trkpt lat="44.76454" lon="6.76744">
        <ele>1850.2</ele>
        <time>2013-09-01T06:26:32Z</time>
      </trkpt>
      <trkpt lat="44.76473" lon="6.76723">
        <ele>1852.6</ele>
        <time>2013-09-01T06:26:46Z</time>
      </trkpt>
      <trkpt lat="44.76469" lon="6.76707">
        <ele>1854</ele>
        <time>2013-09-01T06:26:55Z</time>
      </trkpt>
      <trkpt lat="44.7644" lon="6.76701">
        <ele>1856.4</ele>
        <time>2013-09-01T06:27:09Z</time>
      </trkpt>
      <trkpt lat="44.76404" lon="6.76679">
        <ele>1857.9</ele>
        <time>2013-09-01T06:27:22Z</time>
      </trkpt>
      <trkpt lat="44.764" lon="6.76679">
        <ele>1857.4</ele>
        <time>2013-09-01T06:27:23Z</time>
      </trkpt>
      <trkpt lat="44.76396" lon="6.76679">
        <ele>1857.4</ele>
        <time>2013-09-01T06:27:24Z</time>
      </trkpt>
      <trkpt lat="44.7636" lon="6.76688">
        <ele>1856.9</ele>
        <time>2013-09-01T06:27:34Z</time>
      </trkpt>
      <trkpt lat="44.76313" lon="6.76678">
        <ele>1856.9</ele>
        <time>2013-09-01T06:27:46Z</time>
      </trkpt>
      <trkpt lat="44.76262" lon="6.76659">
        <ele>1859.3</ele>
        <time>2013-09-01T06:28:01Z</time>
      </trkpt>
      <trkpt lat="44.76204" lon="6.76621">
        <ele>1859.3</ele>
        <time>2013-09-01T06:28:17Z</time>
      </trkpt>
      <trkpt lat="44.76147" lon="6.76593">
        <ele>1862.2</ele>
        <time>2013-09-01T06:28:34Z</time>
      </trkpt>
      <trkpt lat="44.76106" lon="6.76565">
        <ele>1864.6</ele>
        <time>2013-09-01T06:28:50Z</time>
      </trkpt>
      <trkpt lat="44.76093" lon="6.76533">
        <ele>1865.1</ele>
        <time>2013-09-01T06:29:04Z</time>
      </trkpt>
      <trkpt lat="44.7609" lon="6.76531">
        <ele>1865.1</ele>
        <time>2013-09-01T06:29:14Z</time>
      </trkpt>
      <trkpt lat="44.7609" lon="6.76532">
        <ele>1864.6</ele>
        <time>2013-09-01T06:29:15Z</time>
      </trkpt>
      <trkpt lat="44.76089" lon="6.76534">
        <ele>1865.1</ele>
        <time>2013-09-01T06:29:16Z</time>
      </trkpt>
      <trkpt lat="44.76088" lon="6.76536">
        <ele>1865.1</ele>
        <time>2013-09-01T06:29:17Z</time>
      </trkpt>
      <trkpt lat="44.76087" lon="6.76538">
        <ele>1865.1</ele>
        <time>2013-09-01T06:29:18Z</time>
      </trkpt>
      <trkpt lat="44.76085" lon="6.7654">
        <ele>1864.6</ele>
        <time>2013-09-01T06:29:19Z</time>
      </trkpt>
      <trkpt lat="44.76084" lon="6.76542">
        <ele>1864.1</ele>
        <time>2013-09-01T06:29:20Z</time>
      </trkpt>
      <trkpt lat="44.76065" lon="6.76588">
        <ele>1864.1</ele>
        <time>2013-09-01T06:29:32Z</time>
      </trkpt>
      <trkpt lat="44.76048" lon="6.76617">
        <ele>1860.8</ele>
        <time>2013-09-01T06:29:39Z</time>
      </trkpt>
      <trkpt lat="44.76047" lon="6.7664">
        <ele>1859.3</ele>
        <time>2013-09-01T06:29:44Z</time>
      </trkpt>
      <trkpt lat="44.76048" lon="6.76648">
        <ele>1858.4</ele>
        <time>2013-09-01T06:29:45Z</time>
      </trkpt>
      <trkpt lat="44.76051" lon="6.76666">
        <ele>1857.4</ele>
        <time>2013-09-01T06:29:47Z</time>
      </trkpt>
      <trkpt lat="44.76053" lon="6.76674">
        <ele>1856.9</ele>
        <time>2013-09-01T06:29:48Z</time>
      </trkpt>
      <trkpt lat="44.76055" lon="6.76681">
        <ele>1856.9</ele>
        <time>2013-09-01T06:29:49Z</time>
      </trkpt>
      <trkpt lat="44.76056" lon="6.76687">
        <ele>1856.9</ele>
        <time>2013-09-01T06:29:50Z</time>
      </trkpt>
      <trkpt lat="44.76057" lon="6.76692">
        <ele>1856.4</ele>
        <time>2013-09-01T06:29:51Z</time>
      </trkpt>
      <trkpt lat="44.76058" lon="6.76696">
        <ele>1856</ele>
        <time>2013-09-01T06:29:52Z</time>
      </trkpt>
      <trkpt lat="44.7606" lon="6.76699">
        <ele>1856.9</ele>
        <time>2013-09-01T06:29:53Z</time>
      </trkpt>
      <trkpt lat="44.76062" lon="6.76701">
        <ele>1857.4</ele>
        <time>2013-09-01T06:29:54Z</time>
      </trkpt>
      <trkpt lat="44.76064" lon="6.76703">
        <ele>1856.9</ele>
        <time>2013-09-01T06:29:55Z</time>
      </trkpt>
      <trkpt lat="44.76066" lon="6.76705">
        <ele>1857.4</ele>
        <time>2013-09-01T06:29:56Z</time>
      </trkpt>
      <trkpt lat="44.76067" lon="6.76707">
        <ele>1857.4</ele>
        <time>2013-09-01T06:29:57Z</time>
      </trkpt>
      <trkpt lat="44.76068" lon="6.76709">
        <ele>1856.9</ele>
        <time>2013-09-01T06:29:58Z</time>
      </trkpt>
      <trkpt lat="44.76068" lon="6.76712">
        <ele>1857.4</ele>
        <time>2013-09-01T06:29:59Z</time>
      </trkpt>
      <trkpt lat="44.76074" lon="6.76749">
        <ele>1860.3</ele>
        <time>2013-09-01T06:30:12Z</time>
      </trkpt>
      <trkpt lat="44.76076" lon="6.76758">
        <ele>1860.8</ele>
        <time>2013-09-01T06:30:16Z</time>
      </trkpt>
      <trkpt lat="44.76076" lon="6.7676">
        <ele>1861.3</ele>
        <time>2013-09-01T06:30:17Z</time>
      </trkpt>
      <trkpt lat="44.76076" lon="6.76763">
        <ele>1861.7</ele>
        <time>2013-09-01T06:30:18Z</time>
      </trkpt>
      <trkpt lat="44.76074" lon="6.76797">
        <ele>1864.1</ele>
        <time>2013-09-01T06:30:31Z</time>
      </trkpt>
      <trkpt lat="44.76071" lon="6.76809">
        <ele>1864.6</ele>
        <time>2013-09-01T06:30:36Z</time>
      </trkpt>
      <trkpt lat="44.7607" lon="6.76811">
        <ele>1864.6</ele>
        <time>2013-09-01T06:30:37Z</time>
      </trkpt>
      <trkpt lat="44.76069" lon="6.76813">
        <ele>1864.6</ele>
        <time>2013-09-01T06:30:38Z</time>
      </trkpt>
      <trkpt lat="44.76054" lon="6.76859">
        <ele>1865.6</ele>
        <time>2013-09-01T06:30:53Z</time>
      </trkpt>
      <trkpt lat="44.76043" lon="6.76879">
        <ele>1863.7</ele>
        <time>2013-09-01T06:30:58Z</time>
      </trkpt>
      <trkpt lat="44.76032" lon="6.76898">
        <ele>1863.2</ele>
        <time>2013-09-01T06:31:01Z</time>
      </trkpt>
      <trkpt lat="44.76029" lon="6.76905">
        <ele>1863.2</ele>
        <time>2013-09-01T06:31:02Z</time>
      </trkpt>
      <trkpt lat="44.76017" lon="6.76929">
        <ele>1863.2</ele>
        <time>2013-09-01T06:31:06Z</time>
      </trkpt>
      <trkpt lat="44.76008" lon="6.76946">
        <ele>1862.2</ele>
        <time>2013-09-01T06:31:09Z</time>
      </trkpt>
      <trkpt lat="44.76005" lon="6.76951">
        <ele>1862.2</ele>
        <time>2013-09-01T06:31:10Z</time>
      </trkpt>
      <trkpt lat="44.75994" lon="6.76968">
        <ele>1862.7</ele>
        <time>2013-09-01T06:31:14Z</time>
      </trkpt>
      <trkpt lat="44.7599" lon="6.77016">
        <ele>1861.3</ele>
        <time>2013-09-01T06:31:22Z</time>
      </trkpt>
      <trkpt lat="44.7599" lon="6.77026">
        <ele>1860.3</ele>
        <time>2013-09-01T06:31:23Z</time>
      </trkpt>
      <trkpt lat="44.75991" lon="6.77036">
        <ele>1859.3</ele>
        <time>2013-09-01T06:31:24Z</time>
      </trkpt>
      <trkpt lat="44.75991" lon="6.77041">
        <ele>1859.3</ele>
        <time>2013-09-01T06:31:25Z</time>
      </trkpt>
      <trkpt lat="44.75995" lon="6.77058">
        <ele>1857.9</ele>
        <time>2013-09-01T06:31:26Z</time>
      </trkpt>
      <trkpt lat="44.75998" lon="6.77069">
        <ele>1857.9</ele>
        <time>2013-09-01T06:31:27Z</time>
      </trkpt>
      <trkpt lat="44.76002" lon="6.77079">
        <ele>1856.4</ele>
        <time>2013-09-01T06:31:28Z</time>
      </trkpt>
      <trkpt lat="44.76006" lon="6.77089">
        <ele>1855</ele>
        <time>2013-09-01T06:31:29Z</time>
      </trkpt>
      <trkpt lat="44.76027" lon="6.77141">
        <ele>1851.6</ele>
        <time>2013-09-01T06:31:34Z</time>
      </trkpt>
      <trkpt lat="44.7603" lon="6.7715">
        <ele>1851.6</ele>
        <time>2013-09-01T06:31:35Z</time>
      </trkpt>
      <trkpt lat="44.76041" lon="6.77184">
        <ele>1848.8</ele>
        <time>2013-09-01T06:31:41Z</time>
      </trkpt>
      <trkpt lat="44.76043" lon="6.77186">
        <ele>1848.8</ele>
        <time>2013-09-01T06:31:42Z</time>
      </trkpt>
      <trkpt lat="44.76044" lon="6.77188">
        <ele>1847.8</ele>
        <time>2013-09-01T06:31:43Z</time>
      </trkpt>
      <trkpt lat="44.76051" lon="6.77206">
        <ele>1844.4</ele>
        <time>2013-09-01T06:31:48Z</time>
      </trkpt>
      <trkpt lat="44.76052" lon="6.77209">
        <ele>1844.4</ele>
        <time>2013-09-01T06:31:49Z</time>
      </trkpt>
      <trkpt lat="44.76058" lon="6.77216">
        <ele>1842</ele>
        <time>2013-09-01T06:31:52Z</time>
      </trkpt>
      <trkpt lat="44.76067" lon="6.77227">
        <ele>1838.7</ele>
        <time>2013-09-01T06:32:03Z</time>
      </trkpt>
      <trkpt lat="44.76068" lon="6.77231">
        <ele>1838.2</ele>
        <time>2013-09-01T06:32:06Z</time>
      </trkpt>
      <trkpt lat="44.76072" lon="6.77237">
        <ele>1835.3</ele>
        <time>2013-09-01T06:32:15Z</time>
      </trkpt>
      <trkpt lat="44.76072" lon="6.77239">
        <ele>1834.8</ele>
        <time>2013-09-01T06:32:16Z</time>
      </trkpt>
      <trkpt lat="44.76073" lon="6.77241">
        <ele>1834.8</ele>
        <time>2013-09-01T06:32:17Z</time>
      </trkpt>
      <trkpt lat="44.76073" lon="6.77243">
        <ele>1833.9</ele>
        <time>2013-09-01T06:32:18Z</time>
      </trkpt>
      <trkpt lat="44.76074" lon="6.77245">
        <ele>1832.4</ele>
        <time>2013-09-01T06:32:19Z</time>
      </trkpt>
      <trkpt lat="44.76075" lon="6.77247">
        <ele>1832.9</ele>
        <time>2013-09-01T06:32:20Z</time>
      </trkpt>
      <trkpt lat="44.76076" lon="6.77249">
        <ele>1831.9</ele>
        <time>2013-09-01T06:32:21Z</time>
      </trkpt>
      <trkpt lat="44.76077" lon="6.77251">
        <ele>1831</ele>
        <time>2013-09-01T06:32:22Z</time>
      </trkpt>
      <trkpt lat="44.76078" lon="6.77254">
        <ele>1831</ele>
        <time>2013-09-01T06:32:23Z</time>
      </trkpt>
      <trkpt lat="44.76078" lon="6.77257">
        <ele>1830</ele>
        <time>2013-09-01T06:32:24Z</time>
      </trkpt>
      <trkpt lat="44.76078" lon="6.7726">
        <ele>1829.1</ele>
        <time>2013-09-01T06:32:25Z</time>
      </trkpt>
      <trkpt lat="44.76078" lon="6.77262">
        <ele>1828.6</ele>
        <time>2013-09-01T06:32:26Z</time>
      </trkpt>
      <trkpt lat="44.76077" lon="6.77265">
        <ele>1828.6</ele>
        <time>2013-09-01T06:32:27Z</time>
      </trkpt>
      <trkpt lat="44.76077" lon="6.77269">
        <ele>1827.1</ele>
        <time>2013-09-01T06:32:28Z</time>
      </trkpt>
      <trkpt lat="44.76076" lon="6.7728">
        <ele>1824.7</ele>
        <time>2013-09-01T06:32:30Z</time>
      </trkpt>
      <trkpt lat="44.76075" lon="6.77295">
        <ele>1822.3</ele>
        <time>2013-09-01T06:32:32Z</time>
      </trkpt>
      <trkpt lat="44.76071" lon="6.77319">
        <ele>1819.4</ele>
        <time>2013-09-01T06:32:35Z</time>
      </trkpt>
      <trkpt lat="44.76065" lon="6.77352">
        <ele>1817</ele>
        <time>2013-09-01T06:32:39Z</time>
      </trkpt>
      <trkpt lat="44.76063" lon="6.77361">
        <ele>1816.1</ele>
        <time>2013-09-01T06:32:40Z</time>
      </trkpt>
      <trkpt lat="44.76059" lon="6.77375">
        <ele>1815.6</ele>
        <time>2013-09-01T06:32:42Z</time>
      </trkpt>
      <trkpt lat="44.76055" lon="6.77381">
        <ele>1815.1</ele>
        <time>2013-09-01T06:32:43Z</time>
      </trkpt>
      <trkpt lat="44.76051" lon="6.77386">
        <ele>1814.6</ele>
        <time>2013-09-01T06:32:44Z</time>
      </trkpt>
      <trkpt lat="44.76048" lon="6.77392">
        <ele>1813.7</ele>
        <time>2013-09-01T06:32:45Z</time>
      </trkpt>
      <trkpt lat="44.76043" lon="6.77406">
        <ele>1812.7</ele>
        <time>2013-09-01T06:32:47Z</time>
      </trkpt>
      <trkpt lat="44.76036" lon="6.7742">
        <ele>1810.3</ele>
        <time>2013-09-01T06:32:49Z</time>
      </trkpt>
      <trkpt lat="44.76028" lon="6.77431">
        <ele>1807.9</ele>
        <time>2013-09-01T06:32:51Z</time>
      </trkpt>
      <trkpt lat="44.76025" lon="6.77436">
        <ele>1806.9</ele>
        <time>2013-09-01T06:32:52Z</time>
      </trkpt>
      <trkpt lat="44.76024" lon="6.77439">
        <ele>1806.5</ele>
        <time>2013-09-01T06:32:53Z</time>
      </trkpt>
      <trkpt lat="44.76017" lon="6.77462">
        <ele>1803.6</ele>
        <time>2013-09-01T06:32:58Z</time>
      </trkpt>
      <trkpt lat="44.76013" lon="6.77468">
        <ele>1802.1</ele>
        <time>2013-09-01T06:32:59Z</time>
      </trkpt>
      <trkpt lat="44.76009" lon="6.77473">
        <ele>1801.7</ele>
        <time>2013-09-01T06:33:00Z</time>
      </trkpt>
      <trkpt lat="44.76004" lon="6.7748">
        <ele>1801.2</ele>
        <time>2013-09-01T06:33:01Z</time>
      </trkpt>
      <trkpt lat="44.76" lon="6.77488">
        <ele>1800.7</ele>
        <time>2013-09-01T06:33:02Z</time>
      </trkpt>
      <trkpt lat="44.75996" lon="6.77503">
        <ele>1797.3</ele>
        <time>2013-09-01T06:33:04Z</time>
      </trkpt>
      <trkpt lat="44.75994" lon="6.77511">
        <ele>1797.8</ele>
        <time>2013-09-01T06:33:05Z</time>
      </trkpt>
      <trkpt lat="44.75992" lon="6.77518">
        <ele>1797.3</ele>
        <time>2013-09-01T06:33:06Z</time>
      </trkpt>
      <trkpt lat="44.7599" lon="6.77526">
        <ele>1796.4</ele>
        <time>2013-09-01T06:33:07Z</time>
      </trkpt>
      <trkpt lat="44.75989" lon="6.77533">
        <ele>1794.9</ele>
        <time>2013-09-01T06:33:08Z</time>
      </trkpt>
      <trkpt lat="44.75987" lon="6.77539">
        <ele>1795.4</ele>
        <time>2013-09-01T06:33:09Z</time>
      </trkpt>
      <trkpt lat="44.7598" lon="6.7758">
        <ele>1792.5</ele>
        <time>2013-09-01T06:33:16Z</time>
      </trkpt>
      <trkpt lat="44.75979" lon="6.77588">
        <ele>1791.6</ele>
        <time>2013-09-01T06:33:17Z</time>
      </trkpt>
      <trkpt lat="44.75978" lon="6.77595">
        <ele>1790.6</ele>
        <time>2013-09-01T06:33:18Z</time>
      </trkpt>
      <trkpt lat="44.75977" lon="6.77601">
        <ele>1790.1</ele>
        <time>2013-09-01T06:33:19Z</time>
      </trkpt>
      <trkpt lat="44.75975" lon="6.77607">
        <ele>1789.6</ele>
        <time>2013-09-01T06:33:20Z</time>
      </trkpt>
      <trkpt lat="44.75971" lon="6.77614">
        <ele>1787.7</ele>
        <time>2013-09-01T06:33:21Z</time>
      </trkpt>
      <trkpt lat="44.75968" lon="6.77618">
        <ele>1787.2</ele>
        <time>2013-09-01T06:33:22Z</time>
      </trkpt>
      <trkpt lat="44.75964" lon="6.77627">
        <ele>1785.8</ele>
        <time>2013-09-01T06:33:23Z</time>
      </trkpt>
      <trkpt lat="44.75962" lon="6.77634">
        <ele>1785.8</ele>
        <time>2013-09-01T06:33:24Z</time>
      </trkpt>
      <trkpt lat="44.75962" lon="6.77646">
        <ele>1783.4</ele>
        <time>2013-09-01T06:33:26Z</time>
      </trkpt>
      <trkpt lat="44.75961" lon="6.77661">
        <ele>1781</ele>
        <time>2013-09-01T06:33:29Z</time>
      </trkpt>
      <trkpt lat="44.75962" lon="6.77672">
        <ele>1778.6</ele>
        <time>2013-09-01T06:33:40Z</time>
      </trkpt>
      <trkpt lat="44.75962" lon="6.77667">
        <ele>1778.6</ele>
        <time>2013-09-01T06:33:44Z</time>
      </trkpt>
      <trkpt lat="44.75961" lon="6.77667">
        <ele>1777.1</ele>
        <time>2013-09-01T06:33:46Z</time>
      </trkpt>
      <trkpt lat="44.75961" lon="6.7767">
        <ele>1775.7</ele>
        <time>2013-09-01T06:33:49Z</time>
      </trkpt>
      <trkpt lat="44.75959" lon="6.77673">
        <ele>1774.7</ele>
        <time>2013-09-01T06:33:51Z</time>
      </trkpt>
      <trkpt lat="44.75957" lon="6.77674">
        <ele>1773.8</ele>
        <time>2013-09-01T06:33:52Z</time>
      </trkpt>
      <trkpt lat="44.75956" lon="6.77674">
        <ele>1773.8</ele>
        <time>2013-09-01T06:33:53Z</time>
      </trkpt>
      <trkpt lat="44.75954" lon="6.77675">
        <ele>1772.3</ele>
        <time>2013-09-01T06:33:55Z</time>
      </trkpt>
      <trkpt lat="44.7595" lon="6.77669">
        <ele>1770.9</ele>
        <time>2013-09-01T06:33:58Z</time>
      </trkpt>
      <trkpt lat="44.75949" lon="6.77666">
        <ele>1769.9</ele>
        <time>2013-09-01T06:33:59Z</time>
      </trkpt>
      <trkpt lat="44.75947" lon="6.77664">
        <ele>1770.4</ele>
        <time>2013-09-01T06:34:00Z</time>
      </trkpt>
      <trkpt lat="44.75938" lon="6.7767">
        <ele>1767</ele>
        <time>2013-09-01T06:34:03Z</time>
      </trkpt>
      <trkpt lat="44.75925" lon="6.77677">
        <ele>1765.1</ele>
        <time>2013-09-01T06:34:07Z</time>
      </trkpt>
      <trkpt lat="44.75916" lon="6.77686">
        <ele>1762.7</ele>
        <time>2013-09-01T06:34:10Z</time>
      </trkpt>
      <trkpt lat="44.75911" lon="6.77691">
        <ele>1761.3</ele>
        <time>2013-09-01T06:34:13Z</time>
      </trkpt>
      <trkpt lat="44.75907" lon="6.77702">
        <ele>1758.4</ele>
        <time>2013-09-01T06:34:17Z</time>
      </trkpt>
      <trkpt lat="44.75906" lon="6.77706">
        <ele>1757.9</ele>
        <time>2013-09-01T06:34:18Z</time>
      </trkpt>
      <trkpt lat="44.75906" lon="6.7771">
        <ele>1757.4</ele>
        <time>2013-09-01T06:34:19Z</time>
      </trkpt>
      <trkpt lat="44.75911" lon="6.77737">
        <ele>1754.5</ele>
        <time>2013-09-01T06:34:24Z</time>
      </trkpt>
      <trkpt lat="44.7591" lon="6.77748">
        <ele>1751.2</ele>
        <time>2013-09-01T06:34:27Z</time>
      </trkpt>
      <trkpt lat="44.7591" lon="6.77758">
        <ele>1750.2</ele>
        <time>2013-09-01T06:34:28Z</time>
      </trkpt>
      <trkpt lat="44.75911" lon="6.77762">
        <ele>1749.7</ele>
        <time>2013-09-01T06:34:29Z</time>
      </trkpt>
      <trkpt lat="44.75913" lon="6.77772">
        <ele>1748.3</ele>
        <time>2013-09-01T06:34:30Z</time>
      </trkpt>
      <trkpt lat="44.75916" lon="6.7779">
        <ele>1746.4</ele>
        <time>2013-09-01T06:34:32Z</time>
      </trkpt>
      <trkpt lat="44.75917" lon="6.77798">
        <ele>1745.9</ele>
        <time>2013-09-01T06:34:33Z</time>
      </trkpt>
      <trkpt lat="44.7592" lon="6.77805">
        <ele>1744.9</ele>
        <time>2013-09-01T06:34:34Z</time>
      </trkpt>
      <trkpt lat="44.75922" lon="6.77812">
        <ele>1744.5</ele>
        <time>2013-09-01T06:34:35Z</time>
      </trkpt>
      <trkpt lat="44.75924" lon="6.77819">
        <ele>1744</ele>
        <time>2013-09-01T06:34:36Z</time>
      </trkpt>
      <trkpt lat="44.75929" lon="6.77843">
        <ele>1740.6</ele>
        <time>2013-09-01T06:34:39Z</time>
      </trkpt>
      <trkpt lat="44.75932" lon="6.77857">
        <ele>1739.2</ele>
        <time>2013-09-01T06:34:41Z</time>
      </trkpt>
      <trkpt lat="44.75934" lon="6.77863">
        <ele>1737.7</ele>
        <time>2013-09-01T06:34:42Z</time>
      </trkpt>
      <trkpt lat="44.7594" lon="6.77879">
        <ele>1735.8</ele>
        <time>2013-09-01T06:34:45Z</time>
      </trkpt>
      <trkpt lat="44.75943" lon="6.77897">
        <ele>1732.9</ele>
        <time>2013-09-01T06:34:48Z</time>
      </trkpt>
      <trkpt lat="44.75946" lon="6.77905">
        <ele>1731.5</ele>
        <time>2013-09-01T06:34:50Z</time>
      </trkpt>
      <trkpt lat="44.75947" lon="6.77911">
        <ele>1731</ele>
        <time>2013-09-01T06:34:51Z</time>
      </trkpt>
      <trkpt lat="44.75949" lon="6.7792">
        <ele>1729.6</ele>
        <time>2013-09-01T06:34:53Z</time>
      </trkpt>
      <trkpt lat="44.75955" lon="6.77935">
        <ele>1726.7</ele>
        <time>2013-09-01T06:34:56Z</time>
      </trkpt>
      <trkpt lat="44.75957" lon="6.77945">
        <ele>1724.7</ele>
        <time>2013-09-01T06:34:58Z</time>
      </trkpt>
      <trkpt lat="44.75961" lon="6.77955">
        <ele>1722.8</ele>
        <time>2013-09-01T06:35:01Z</time>
      </trkpt>
      <trkpt lat="44.75962" lon="6.77958">
        <ele>1722.3</ele>
        <time>2013-09-01T06:35:03Z</time>
      </trkpt>
      <trkpt lat="44.75957" lon="6.77953">
        <ele>1719</ele>
        <time>2013-09-01T06:35:07Z</time>
      </trkpt>
      <trkpt lat="44.75945" lon="6.77949">
        <ele>1716.1</ele>
        <time>2013-09-01T06:35:11Z</time>
      </trkpt>
      <trkpt lat="44.75938" lon="6.77945">
        <ele>1713.7</ele>
        <time>2013-09-01T06:35:13Z</time>
      </trkpt>
      <trkpt lat="44.75926" lon="6.77942">
        <ele>1708.9</ele>
        <time>2013-09-01T06:35:18Z</time>
      </trkpt>
      <trkpt lat="44.75924" lon="6.77942">
        <ele>1707.9</ele>
        <time>2013-09-01T06:35:19Z</time>
      </trkpt>
      <trkpt lat="44.75922" lon="6.77944">
        <ele>1707</ele>
        <time>2013-09-01T06:35:21Z</time>
      </trkpt>
      <trkpt lat="44.75922" lon="6.77947">
        <ele>1706.5</ele>
        <time>2013-09-01T06:35:22Z</time>
      </trkpt>
      <trkpt lat="44.75921" lon="6.77954">
        <ele>1705</ele>
        <time>2013-09-01T06:35:23Z</time>
      </trkpt>
      <trkpt lat="44.7592" lon="6.77961">
        <ele>1704.6</ele>
        <time>2013-09-01T06:35:24Z</time>
      </trkpt>
      <trkpt lat="44.75917" lon="6.77966">
        <ele>1703.6</ele>
        <time>2013-09-01T06:35:25Z</time>
      </trkpt>
      <trkpt lat="44.75913" lon="6.77971">
        <ele>1702.2</ele>
        <time>2013-09-01T06:35:26Z</time>
      </trkpt>
      <trkpt lat="44.7591" lon="6.77973">
        <ele>1701.7</ele>
        <time>2013-09-01T06:35:27Z</time>
      </trkpt>
      <trkpt lat="44.7591" lon="6.77977">
        <ele>1701.2</ele>
        <time>2013-09-01T06:35:28Z</time>
      </trkpt>
      <trkpt lat="44.75908" lon="6.77987">
        <ele>1699.3</ele>
        <time>2013-09-01T06:35:31Z</time>
      </trkpt>
      <trkpt lat="44.75905" lon="6.77997">
        <ele>1696.4</ele>
        <time>2013-09-01T06:35:33Z</time>
      </trkpt>
      <trkpt lat="44.75905" lon="6.78001">
        <ele>1695.9</ele>
        <time>2013-09-01T06:35:34Z</time>
      </trkpt>
      <trkpt lat="44.75905" lon="6.7801">
        <ele>1694.9</ele>
        <time>2013-09-01T06:35:36Z</time>
      </trkpt>
      <trkpt lat="44.75903" lon="6.78013">
        <ele>1694</ele>
        <time>2013-09-01T06:35:37Z</time>
      </trkpt>
      <trkpt lat="44.75897" lon="6.78024">
        <ele>1692.5</ele>
        <time>2013-09-01T06:35:40Z</time>
      </trkpt>
      <trkpt lat="44.75895" lon="6.78038">
        <ele>1691.1</ele>
        <time>2013-09-01T06:35:43Z</time>
      </trkpt>
      <trkpt lat="44.75904" lon="6.78039">
        <ele>1690.6</ele>
        <time>2013-09-01T06:35:54Z</time>
      </trkpt>
      <trkpt lat="44.75909" lon="6.78033">
        <ele>1691.1</ele>
        <time>2013-09-01T06:36:10Z</time>
      </trkpt>
      <trkpt lat="44.7591" lon="6.78037">
        <ele>1690.6</ele>
        <time>2013-09-01T06:36:11Z</time>
      </trkpt>
      <trkpt lat="44.7591" lon="6.78049">
        <ele>1689.2</ele>
        <time>2013-09-01T06:36:13Z</time>
      </trkpt>
      <trkpt lat="44.75915" lon="6.78064">
        <ele>1687.3</ele>
        <time>2013-09-01T06:36:16Z</time>
      </trkpt>
      <trkpt lat="44.75918" lon="6.7807">
        <ele>1685.3</ele>
        <time>2013-09-01T06:36:17Z</time>
      </trkpt>
      <trkpt lat="44.75921" lon="6.78075">
        <ele>1684.9</ele>
        <time>2013-09-01T06:36:18Z</time>
      </trkpt>
      <trkpt lat="44.75923" lon="6.78079">
        <ele>1684.4</ele>
        <time>2013-09-01T06:36:19Z</time>
      </trkpt>
      <trkpt lat="44.75924" lon="6.78084">
        <ele>1683.4</ele>
        <time>2013-09-01T06:36:20Z</time>
      </trkpt>
      <trkpt lat="44.75926" lon="6.78089">
        <ele>1683.4</ele>
        <time>2013-09-01T06:36:21Z</time>
      </trkpt>
      <trkpt lat="44.75932" lon="6.78105">
        <ele>1679.6</ele>
        <time>2013-09-01T06:36:24Z</time>
      </trkpt>
      <trkpt lat="44.75936" lon="6.78115">
        <ele>1679.1</ele>
        <time>2013-09-01T06:36:26Z</time>
      </trkpt>
      <trkpt lat="44.75935" lon="6.78119">
        <ele>1678.6</ele>
        <time>2013-09-01T06:36:27Z</time>
      </trkpt>
      <trkpt lat="44.75933" lon="6.78124">
        <ele>1678.1</ele>
        <time>2013-09-01T06:36:28Z</time>
      </trkpt>
      <trkpt lat="44.75927" lon="6.78138">
        <ele>1676.2</ele>
        <time>2013-09-01T06:36:30Z</time>
      </trkpt>
      <trkpt lat="44.75924" lon="6.78147">
        <ele>1675.2</ele>
        <time>2013-09-01T06:36:31Z</time>
      </trkpt>
      <trkpt lat="44.75919" lon="6.78166">
        <ele>1675.2</ele>
        <time>2013-09-01T06:36:33Z</time>
      </trkpt>
      <trkpt lat="44.75916" lon="6.78185">
        <ele>1674.3</ele>
        <time>2013-09-01T06:36:35Z</time>
      </trkpt>
      <trkpt lat="44.75914" lon="6.78192">
        <ele>1673.3</ele>
        <time>2013-09-01T06:36:36Z</time>
      </trkpt>
      <trkpt lat="44.75912" lon="6.78199">
        <ele>1673.3</ele>
        <time>2013-09-01T06:36:37Z</time>
      </trkpt>
      <trkpt lat="44.75904" lon="6.78218">
        <ele>1670.4</ele>
        <time>2013-09-01T06:36:40Z</time>
      </trkpt>
      <trkpt lat="44.75902" lon="6.78223">
        <ele>1670</ele>
        <time>2013-09-01T06:36:41Z</time>
      </trkpt>
      <trkpt lat="44.75889" lon="6.78243">
        <ele>1666.1</ele>
        <time>2013-09-01T06:36:44Z</time>
      </trkpt>
      <trkpt lat="44.75876" lon="6.7827">
        <ele>1662.3</ele>
        <time>2013-09-01T06:36:48Z</time>
      </trkpt>
      <trkpt lat="44.75872" lon="6.78278">
        <ele>1661.3</ele>
        <time>2013-09-01T06:36:50Z</time>
      </trkpt>
      <trkpt lat="44.75869" lon="6.78284">
        <ele>1659.9</ele>
        <time>2013-09-01T06:36:53Z</time>
      </trkpt>
      <trkpt lat="44.75869" lon="6.78287">
        <ele>1658.4</ele>
        <time>2013-09-01T06:36:55Z</time>
      </trkpt>
      <trkpt lat="44.7587" lon="6.7829">
        <ele>1658.4</ele>
        <time>2013-09-01T06:36:57Z</time>
      </trkpt>
      <trkpt lat="44.75869" lon="6.78293">
        <ele>1657.5</ele>
        <time>2013-09-01T06:36:59Z</time>
      </trkpt>
      <trkpt lat="44.75871" lon="6.78302">
        <ele>1657</ele>
        <time>2013-09-01T06:37:10Z</time>
      </trkpt>
      <trkpt lat="44.75873" lon="6.78277">
        <ele>1657</ele>
        <time>2013-09-01T06:37:36Z</time>
      </trkpt>
      <trkpt lat="44.7588" lon="6.78274">
        <ele>1657.9</ele>
        <time>2013-09-01T06:38:00Z</time>
      </trkpt>
      <trkpt lat="44.75887" lon="6.78265">
        <ele>1657.9</ele>
        <time>2013-09-01T06:38:16Z</time>
      </trkpt>
      <trkpt lat="44.75889" lon="6.78269">
        <ele>1656</ele>
        <time>2013-09-01T06:38:18Z</time>
      </trkpt>
      <trkpt lat="44.7589" lon="6.78276">
        <ele>1655.1</ele>
        <time>2013-09-01T06:38:20Z</time>
      </trkpt>
      <trkpt lat="44.75896" lon="6.78294">
        <ele>1650.7</ele>
        <time>2013-09-01T06:38:25Z</time>
      </trkpt>
      <trkpt lat="44.759" lon="6.78302">
        <ele>1647.8</ele>
        <time>2013-09-01T06:38:28Z</time>
      </trkpt>
      <trkpt lat="44.75902" lon="6.78307">
        <ele>1645.9</ele>
        <time>2013-09-01T06:38:31Z</time>
      </trkpt>
      <trkpt lat="44.75907" lon="6.78316">
        <ele>1644</ele>
        <time>2013-09-01T06:38:34Z</time>
      </trkpt>
      <trkpt lat="44.75912" lon="6.78327">
        <ele>1642.1</ele>
        <time>2013-09-01T06:38:37Z</time>
      </trkpt>
      <trkpt lat="44.75913" lon="6.7834">
        <ele>1638.7</ele>
        <time>2013-09-01T06:38:41Z</time>
      </trkpt>
      <trkpt lat="44.75913" lon="6.78358">
        <ele>1635.8</ele>
        <time>2013-09-01T06:38:46Z</time>
      </trkpt>
      <trkpt lat="44.75909" lon="6.78371">
        <ele>1634.4</ele>
        <time>2013-09-01T06:38:57Z</time>
      </trkpt>
      <trkpt lat="44.75907" lon="6.78373">
        <ele>1633.4</ele>
        <time>2013-09-01T06:38:58Z</time>
      </trkpt>
      <trkpt lat="44.75906" lon="6.78374">
        <ele>1632.9</ele>
        <time>2013-09-01T06:38:59Z</time>
      </trkpt>
      <trkpt lat="44.75905" lon="6.78375">
        <ele>1632.9</ele>
        <time>2013-09-01T06:39:00Z</time>
      </trkpt>
      <trkpt lat="44.75906" lon="6.78381">
        <ele>1632</ele>
        <time>2013-09-01T06:39:08Z</time>
      </trkpt>
      <trkpt lat="44.75906" lon="6.78392">
        <ele>1629.1</ele>
        <time>2013-09-01T06:39:14Z</time>
      </trkpt>
      <trkpt lat="44.75902" lon="6.78404">
        <ele>1626.2</ele>
        <time>2013-09-01T06:39:25Z</time>
      </trkpt>
      <trkpt lat="44.75897" lon="6.78412">
        <ele>1623.8</ele>
        <time>2013-09-01T06:39:33Z</time>
      </trkpt>
      <trkpt lat="44.75893" lon="6.78419">
        <ele>1622.8</ele>
        <time>2013-09-01T06:39:40Z</time>
      </trkpt>
      <trkpt lat="44.75878" lon="6.78428">
        <ele>1619</ele>
        <time>2013-09-01T06:39:46Z</time>
      </trkpt>
      <trkpt lat="44.75873" lon="6.78411">
        <ele>1617.1</ele>
        <time>2013-09-01T06:39:49Z</time>
      </trkpt>
      <trkpt lat="44.75867" lon="6.78414">
        <ele>1615.6</ele>
        <time>2013-09-01T06:39:52Z</time>
      </trkpt>
      <trkpt lat="44.75866" lon="6.78417">
        <ele>1614.2</ele>
        <time>2013-09-01T06:39:58Z</time>
      </trkpt>
      <trkpt lat="44.7586" lon="6.78423">
        <ele>1612.3</ele>
        <time>2013-09-01T06:40:05Z</time>
      </trkpt>
      <trkpt lat="44.7585" lon="6.78426">
        <ele>1609.9</ele>
        <time>2013-09-01T06:40:15Z</time>
      </trkpt>
      <trkpt lat="44.75845" lon="6.78428">
        <ele>1607.9</ele>
        <time>2013-09-01T06:40:20Z</time>
      </trkpt>
      <trkpt lat="44.75838" lon="6.78433">
        <ele>1604.6</ele>
        <time>2013-09-01T06:40:31Z</time>
      </trkpt>
      <trkpt lat="44.7584" lon="6.78436">
        <ele>1604.1</ele>
        <time>2013-09-01T06:40:38Z</time>
      </trkpt>
      <trkpt lat="44.75837" lon="6.78451">
        <ele>1601.2</ele>
        <time>2013-09-01T06:40:46Z</time>
      </trkpt>
      <trkpt lat="44.75834" lon="6.78453">
        <ele>1600.3</ele>
        <time>2013-09-01T06:40:48Z</time>
      </trkpt>
      <trkpt lat="44.75812" lon="6.78461">
        <ele>1595.9</ele>
        <time>2013-09-01T06:40:55Z</time>
      </trkpt>
      <trkpt lat="44.75806" lon="6.78463">
        <ele>1594.5</ele>
        <time>2013-09-01T06:40:57Z</time>
      </trkpt>
      <trkpt lat="44.75802" lon="6.78463">
        <ele>1593.5</ele>
        <time>2013-09-01T06:40:59Z</time>
      </trkpt>
      <trkpt lat="44.75797" lon="6.78456">
        <ele>1590.6</ele>
        <time>2013-09-01T06:41:02Z</time>
      </trkpt>
      <trkpt lat="44.75794" lon="6.78459">
        <ele>1590.2</ele>
        <time>2013-09-01T06:41:04Z</time>
      </trkpt>
      <trkpt lat="44.75791" lon="6.7847">
        <ele>1587.3</ele>
        <time>2013-09-01T06:41:07Z</time>
      </trkpt>
      <trkpt lat="44.75788" lon="6.78473">
        <ele>1586.8</ele>
        <time>2013-09-01T06:41:08Z</time>
      </trkpt>
      <trkpt lat="44.75783" lon="6.78487">
        <ele>1583.9</ele>
        <time>2013-09-01T06:41:11Z</time>
      </trkpt>
      <trkpt lat="44.75783" lon="6.78492">
        <ele>1584.4</ele>
        <time>2013-09-01T06:41:12Z</time>
      </trkpt>
      <trkpt lat="44.75783" lon="6.78496">
        <ele>1583.9</ele>
        <time>2013-09-01T06:41:13Z</time>
      </trkpt>
      <trkpt lat="44.75783" lon="6.78505">
        <ele>1582.5</ele>
        <time>2013-09-01T06:41:15Z</time>
      </trkpt>
      <trkpt lat="44.75784" lon="6.78511">
        <ele>1581.5</ele>
        <time>2013-09-01T06:41:17Z</time>
      </trkpt>
      <trkpt lat="44.75782" lon="6.78515">
        <ele>1581</ele>
        <time>2013-09-01T06:41:18Z</time>
      </trkpt>
      <trkpt lat="44.75776" lon="6.7854">
        <ele>1578.6</ele>
        <time>2013-09-01T06:41:23Z</time>
      </trkpt>
      <trkpt lat="44.75793" lon="6.78493">
        <ele>1577.7</ele>
        <time>2013-09-01T06:41:28Z</time>
      </trkpt>
      <trkpt lat="44.75794" lon="6.78495">
        <ele>1576.7</ele>
        <time>2013-09-01T06:41:29Z</time>
      </trkpt>
      <trkpt lat="44.75798" lon="6.78509">
        <ele>1574.3</ele>
        <time>2013-09-01T06:41:33Z</time>
      </trkpt>
      <trkpt lat="44.75796" lon="6.78513">
        <ele>1573.8</ele>
        <time>2013-09-01T06:41:34Z</time>
      </trkpt>
      <trkpt lat="44.75793" lon="6.78516">
        <ele>1573.3</ele>
        <time>2013-09-01T06:41:35Z</time>
      </trkpt>
      <trkpt lat="44.75791" lon="6.78517">
        <ele>1572.4</ele>
        <time>2013-09-01T06:41:36Z</time>
      </trkpt>
      <trkpt lat="44.75789" lon="6.78517">
        <ele>1572.9</ele>
        <time>2013-09-01T06:41:37Z</time>
      </trkpt>
      <trkpt lat="44.75787" lon="6.78517">
        <ele>1571.9</ele>
        <time>2013-09-01T06:41:38Z</time>
      </trkpt>
      <trkpt lat="44.75784" lon="6.78517">
        <ele>1570.9</ele>
        <time>2013-09-01T06:41:39Z</time>
      </trkpt>
      <trkpt lat="44.75781" lon="6.78518">
        <ele>1570</ele>
        <time>2013-09-01T06:41:40Z</time>
      </trkpt>
      <trkpt lat="44.7578" lon="6.78518">
        <ele>1569.5</ele>
        <time>2013-09-01T06:41:41Z</time>
      </trkpt>
      <trkpt lat="44.75779" lon="6.78522">
        <ele>1568.1</ele>
        <time>2013-09-01T06:41:44Z</time>
      </trkpt>
      <trkpt lat="44.75779" lon="6.78523">
        <ele>1568.1</ele>
        <time>2013-09-01T06:41:45Z</time>
      </trkpt>
      <trkpt lat="44.75783" lon="6.78533">
        <ele>1566.1</ele>
        <time>2013-09-01T06:41:58Z</time>
      </trkpt>
      <trkpt lat="44.75782" lon="6.78537">
        <ele>1565.6</ele>
        <time>2013-09-01T06:42:09Z</time>
      </trkpt>
      <trkpt lat="44.75777" lon="6.78542">
        <ele>1562.3</ele>
        <time>2013-09-01T06:42:19Z</time>
      </trkpt>
      <trkpt lat="44.75778" lon="6.78548">
        <ele>1561.8</ele>
        <time>2013-09-01T06:42:22Z</time>
      </trkpt>
      <trkpt lat="44.75781" lon="6.7856">
        <ele>1559.4</ele>
        <time>2013-09-01T06:42:34Z</time>
      </trkpt>
      <trkpt lat="44.7578" lon="6.7856">
        <ele>1558.4</ele>
        <time>2013-09-01T06:42:46Z</time>
      </trkpt>
      <trkpt lat="44.75776" lon="6.78562">
        <ele>1555.1</ele>
        <time>2013-09-01T06:42:54Z</time>
      </trkpt>
      <trkpt lat="44.75773" lon="6.78563">
        <ele>1553.6</ele>
        <time>2013-09-01T06:43:00Z</time>
      </trkpt>
      <trkpt lat="44.75772" lon="6.78564">
        <ele>1553.6</ele>
        <time>2013-09-01T06:43:01Z</time>
      </trkpt>
      <trkpt lat="44.75763" lon="6.78572">
        <ele>1550.7</ele>
        <time>2013-09-01T06:43:06Z</time>
      </trkpt>
      <trkpt lat="44.75759" lon="6.78572">
        <ele>1550.3</ele>
        <time>2013-09-01T06:43:07Z</time>
      </trkpt>
      <trkpt lat="44.75756" lon="6.78572">
        <ele>1549.3</ele>
        <time>2013-09-01T06:43:08Z</time>
      </trkpt>
      <trkpt lat="44.75752" lon="6.78574">
        <ele>1548.3</ele>
        <time>2013-09-01T06:43:09Z</time>
      </trkpt>
      <trkpt lat="44.75748" lon="6.78575">
        <ele>1548.3</ele>
        <time>2013-09-01T06:43:10Z</time>
      </trkpt>
      <trkpt lat="44.75744" lon="6.78575">
        <ele>1546.9</ele>
        <time>2013-09-01T06:43:11Z</time>
      </trkpt>
      <trkpt lat="44.75742" lon="6.78574">
        <ele>1546.4</ele>
        <time>2013-09-01T06:43:12Z</time>
      </trkpt>
      <trkpt lat="44.75735" lon="6.78565">
        <ele>1544.5</ele>
        <time>2013-09-01T06:43:22Z</time>
      </trkpt>
      <trkpt lat="44.75731" lon="6.78563">
        <ele>1542.1</ele>
        <time>2013-09-01T06:43:29Z</time>
      </trkpt>
      <trkpt lat="44.75723" lon="6.78557">
        <ele>1539.2</ele>
        <time>2013-09-01T06:43:41Z</time>
      </trkpt>
      <trkpt lat="44.75718" lon="6.78551">
        <ele>1535.8</ele>
        <time>2013-09-01T06:43:55Z</time>
      </trkpt>
      <trkpt lat="44.75712" lon="6.78556">
        <ele>1533.4</ele>
        <time>2013-09-01T06:44:06Z</time>
      </trkpt>
      <trkpt lat="44.75711" lon="6.78558">
        <ele>1532</ele>
        <time>2013-09-01T06:44:18Z</time>
      </trkpt>
      <trkpt lat="44.75709" lon="6.78571">
        <ele>1530.1</ele>
        <time>2013-09-01T06:44:41Z</time>
      </trkpt>
      <trkpt lat="44.75709" lon="6.78576">
        <ele>1526.7</ele>
        <time>2013-09-01T06:44:52Z</time>
      </trkpt>
      <trkpt lat="44.75713" lon="6.78569">
        <ele>1527.2</ele>
        <time>2013-09-01T06:45:14Z</time>
      </trkpt>
      <trkpt lat="44.75713" lon="6.78568">
        <ele>1526.2</ele>
        <time>2013-09-01T06:45:37Z</time>
      </trkpt>
      <trkpt lat="44.75711" lon="6.78574">
        <ele>1523.4</ele>
        <time>2013-09-01T06:45:48Z</time>
      </trkpt>
      <trkpt lat="44.75712" lon="6.7858">
        <ele>1521.9</ele>
        <time>2013-09-01T06:46:00Z</time>
      </trkpt>
      <trkpt lat="44.75713" lon="6.78592">
        <ele>1518.5</ele>
        <time>2013-09-01T06:46:11Z</time>
      </trkpt>
      <trkpt lat="44.75714" lon="6.78594">
        <ele>1518.5</ele>
        <time>2013-09-01T06:46:13Z</time>
      </trkpt>
      <trkpt lat="44.7571" lon="6.78596">
        <ele>1515.2</ele>
        <time>2013-09-01T06:46:24Z</time>
      </trkpt>
      <trkpt lat="44.75711" lon="6.78601">
        <ele>1514.7</ele>
        <time>2013-09-01T06:46:33Z</time>
      </trkpt>
      <trkpt lat="44.75712" lon="6.78604">
        <ele>1513.7</ele>
        <time>2013-09-01T06:46:34Z</time>
      </trkpt>
      <trkpt lat="44.75713" lon="6.78607">
        <ele>1513.3</ele>
        <time>2013-09-01T06:46:35Z</time>
      </trkpt>
      <trkpt lat="44.75714" lon="6.78611">
        <ele>1513.3</ele>
        <time>2013-09-01T06:46:36Z</time>
      </trkpt>
      <trkpt lat="44.75714" lon="6.78614">
        <ele>1511.8</ele>
        <time>2013-09-01T06:46:37Z</time>
      </trkpt>
      <trkpt lat="44.75715" lon="6.78617">
        <ele>1511.8</ele>
        <time>2013-09-01T06:46:38Z</time>
      </trkpt>
      <trkpt lat="44.75717" lon="6.78626">
        <ele>1508.9</ele>
        <time>2013-09-01T06:46:42Z</time>
      </trkpt>
      <trkpt lat="44.75718" lon="6.78637">
        <ele>1507.5</ele>
        <time>2013-09-01T06:46:54Z</time>
      </trkpt>
      <trkpt lat="44.75715" lon="6.78634">
        <ele>1507</ele>
        <time>2013-09-01T06:46:57Z</time>
      </trkpt>
      <trkpt lat="44.75714" lon="6.78633">
        <ele>1507</ele>
        <time>2013-09-01T06:46:58Z</time>
      </trkpt>
      <trkpt lat="44.75706" lon="6.78628">
        <ele>1504.1</ele>
        <time>2013-09-01T06:47:08Z</time>
      </trkpt>
      <trkpt lat="44.75707" lon="6.78633">
        <ele>1502.7</ele>
        <time>2013-09-01T06:47:18Z</time>
      </trkpt>
      <trkpt lat="44.75708" lon="6.78635">
        <ele>1503.2</ele>
        <time>2013-09-01T06:47:19Z</time>
      </trkpt>
      <trkpt lat="44.75709" lon="6.78638">
        <ele>1501.7</ele>
        <time>2013-09-01T06:47:20Z</time>
      </trkpt>
      <trkpt lat="44.7571" lon="6.7864">
        <ele>1501.7</ele>
        <time>2013-09-01T06:47:21Z</time>
      </trkpt>
      <trkpt lat="44.75711" lon="6.78642">
        <ele>1501.2</ele>
        <time>2013-09-01T06:47:22Z</time>
      </trkpt>
      <trkpt lat="44.75714" lon="6.78652">
        <ele>1499.3</ele>
        <time>2013-09-01T06:47:27Z</time>
      </trkpt>
      <trkpt lat="44.75715" lon="6.78654">
        <ele>1498.8</ele>
        <time>2013-09-01T06:47:29Z</time>
      </trkpt>
      <trkpt lat="44.75716" lon="6.7866">
        <ele>1497.4</ele>
        <time>2013-09-01T06:47:33Z</time>
      </trkpt>
      <trkpt lat="44.75716" lon="6.78663">
        <ele>1496</ele>
        <time>2013-09-01T06:47:34Z</time>
      </trkpt>
      <trkpt lat="44.75721" lon="6.7867">
        <ele>1493.6</ele>
        <time>2013-09-01T06:47:40Z</time>
      </trkpt>
      <trkpt lat="44.75724" lon="6.78674">
        <ele>1492.1</ele>
        <time>2013-09-01T06:47:47Z</time>
      </trkpt>
      <trkpt lat="44.75725" lon="6.7868">
        <ele>1489.7</ele>
        <time>2013-09-01T06:47:57Z</time>
      </trkpt>
      <trkpt lat="44.75728" lon="6.78683">
        <ele>1486.8</ele>
        <time>2013-09-01T06:48:04Z</time>
      </trkpt>
      <trkpt lat="44.75725" lon="6.7869">
        <ele>1483.5</ele>
        <time>2013-09-01T06:48:12Z</time>
      </trkpt>
      <trkpt lat="44.75714" lon="6.78702">
        <ele>1481.1</ele>
        <time>2013-09-01T06:48:16Z</time>
      </trkpt>
      <trkpt lat="44.7571" lon="6.78705">
        <ele>1480.1</ele>
        <time>2013-09-01T06:48:17Z</time>
      </trkpt>
      <trkpt lat="44.75706" lon="6.78709">
        <ele>1480.1</ele>
        <time>2013-09-01T06:48:18Z</time>
      </trkpt>
      <trkpt lat="44.75689" lon="6.78724">
        <ele>1477.2</ele>
        <time>2013-09-01T06:48:23Z</time>
      </trkpt>
      <trkpt lat="44.75681" lon="6.78727">
        <ele>1474.8</ele>
        <time>2013-09-01T06:48:25Z</time>
      </trkpt>
      <trkpt lat="44.7568" lon="6.78727">
        <ele>1474.8</ele>
        <time>2013-09-01T06:48:26Z</time>
      </trkpt>
      <trkpt lat="44.75679" lon="6.78724">
        <ele>1474.3</ele>
        <time>2013-09-01T06:48:27Z</time>
      </trkpt>
      <trkpt lat="44.7567" lon="6.78716">
        <ele>1471</ele>
        <time>2013-09-01T06:48:32Z</time>
      </trkpt>
      <trkpt lat="44.75665" lon="6.78718">
        <ele>1470</ele>
        <time>2013-09-01T06:48:39Z</time>
      </trkpt>
      <trkpt lat="44.75662" lon="6.78715">
        <ele>1468.6</ele>
        <time>2013-09-01T06:48:45Z</time>
      </trkpt>
      <trkpt lat="44.75652" lon="6.78704">
        <ele>1466.6</ele>
        <time>2013-09-01T06:48:49Z</time>
      </trkpt>
      <trkpt lat="44.75649" lon="6.78701">
        <ele>1465.7</ele>
        <time>2013-09-01T06:48:50Z</time>
      </trkpt>
      <trkpt lat="44.75646" lon="6.78697">
        <ele>1464.7</ele>
        <time>2013-09-01T06:48:51Z</time>
      </trkpt>
      <trkpt lat="44.75643" lon="6.78692">
        <ele>1464.2</ele>
        <time>2013-09-01T06:48:52Z</time>
      </trkpt>
      <trkpt lat="44.75641" lon="6.78688">
        <ele>1462.8</ele>
        <time>2013-09-01T06:48:53Z</time>
      </trkpt>
      <trkpt lat="44.75639" lon="6.78685">
        <ele>1462.8</ele>
        <time>2013-09-01T06:48:54Z</time>
      </trkpt>
      <trkpt lat="44.75636" lon="6.78682">
        <ele>1461.8</ele>
        <time>2013-09-01T06:48:55Z</time>
      </trkpt>
      <trkpt lat="44.75634" lon="6.78679">
        <ele>1461.8</ele>
        <time>2013-09-01T06:48:56Z</time>
      </trkpt>
      <trkpt lat="44.75621" lon="6.78666">
        <ele>1458.5</ele>
        <time>2013-09-01T06:49:00Z</time>
      </trkpt>
      <trkpt lat="44.75618" lon="6.78662">
        <ele>1457.5</ele>
        <time>2013-09-01T06:49:01Z</time>
      </trkpt>
      <trkpt lat="44.75615" lon="6.78652">
        <ele>1455.6</ele>
        <time>2013-09-01T06:49:03Z</time>
      </trkpt>
      <trkpt lat="44.75614" lon="6.78648">
        <ele>1455.1</ele>
        <time>2013-09-01T06:49:04Z</time>
      </trkpt>
      <trkpt lat="44.75612" lon="6.78645">
        <ele>1454.6</ele>
        <time>2013-09-01T06:49:05Z</time>
      </trkpt>
      <trkpt lat="44.75612" lon="6.78643">
        <ele>1454.6</ele>
        <time>2013-09-01T06:49:06Z</time>
      </trkpt>
      <trkpt lat="44.75611" lon="6.78641">
        <ele>1454.1</ele>
        <time>2013-09-01T06:49:07Z</time>
      </trkpt>
      <trkpt lat="44.75607" lon="6.78635">
        <ele>1453.7</ele>
        <time>2013-09-01T06:49:17Z</time>
      </trkpt>
      <trkpt lat="44.75606" lon="6.78635">
        <ele>1453.2</ele>
        <time>2013-09-01T06:49:18Z</time>
      </trkpt>
      <trkpt lat="44.75603" lon="6.78627">
        <ele>1451.3</ele>
        <time>2013-09-01T06:49:26Z</time>
      </trkpt>
      <trkpt lat="44.75604" lon="6.78622">
        <ele>1450.8</ele>
        <time>2013-09-01T06:49:27Z</time>
      </trkpt>
      <trkpt lat="44.75606" lon="6.78617">
        <ele>1450.3</ele>
        <time>2013-09-01T06:49:28Z</time>
      </trkpt>
      <trkpt lat="44.75609" lon="6.78614">
        <ele>1450.3</ele>
        <time>2013-09-01T06:49:29Z</time>
      </trkpt>
      <trkpt lat="44.75612" lon="6.7861">
        <ele>1449.8</ele>
        <time>2013-09-01T06:49:30Z</time>
      </trkpt>
      <trkpt lat="44.75614" lon="6.78606">
        <ele>1449.3</ele>
        <time>2013-09-01T06:49:31Z</time>
      </trkpt>
      <trkpt lat="44.75615" lon="6.78602">
        <ele>1448.8</ele>
        <time>2013-09-01T06:49:32Z</time>
      </trkpt>
      <trkpt lat="44.75616" lon="6.786">
        <ele>1448.8</ele>
        <time>2013-09-01T06:49:33Z</time>
      </trkpt>
      <trkpt lat="44.75615" lon="6.78598">
        <ele>1448.8</ele>
        <time>2013-09-01T06:49:34Z</time>
      </trkpt>
      <trkpt lat="44.75615" lon="6.78595">
        <ele>1448.4</ele>
        <time>2013-09-01T06:49:35Z</time>
      </trkpt>
      <trkpt lat="44.75612" lon="6.78578">
        <ele>1445.5</ele>
        <time>2013-09-01T06:49:46Z</time>
      </trkpt>
      <trkpt lat="44.75612" lon="6.78575">
        <ele>1444.5</ele>
        <time>2013-09-01T06:49:48Z</time>
      </trkpt>
      <trkpt lat="44.75611" lon="6.78574">
        <ele>1444.5</ele>
        <time>2013-09-01T06:49:49Z</time>
      </trkpt>
      <trkpt lat="44.75607" lon="6.78562">
        <ele>1441.2</ele>
        <time>2013-09-01T06:49:54Z</time>
      </trkpt>
      <trkpt lat="44.75602" lon="6.78551">
        <ele>1438.3</ele>
        <time>2013-09-01T06:49:59Z</time>
      </trkpt>
      <trkpt lat="44.75596" lon="6.7854">
        <ele>1434.9</ele>
        <time>2013-09-01T06:50:04Z</time>
      </trkpt>
      <trkpt lat="44.75595" lon="6.78537">
        <ele>1434.4</ele>
        <time>2013-09-01T06:50:05Z</time>
      </trkpt>
      <trkpt lat="44.75594" lon="6.78535">
        <ele>1433.9</ele>
        <time>2013-09-01T06:50:06Z</time>
      </trkpt>
      <trkpt lat="44.7559" lon="6.78521">
        <ele>1430.6</ele>
        <time>2013-09-01T06:50:11Z</time>
      </trkpt>
      <trkpt lat="44.75589" lon="6.78519">
        <ele>1430.1</ele>
        <time>2013-09-01T06:50:12Z</time>
      </trkpt>
      <trkpt lat="44.75588" lon="6.78517">
        <ele>1429.6</ele>
        <time>2013-09-01T06:50:13Z</time>
      </trkpt>
      <trkpt lat="44.75586" lon="6.78514">
        <ele>1427.7</ele>
        <time>2013-09-01T06:50:24Z</time>
      </trkpt>
      <trkpt lat="44.75585" lon="6.78506">
        <ele>1426.3</ele>
        <time>2013-09-01T06:50:35Z</time>
      </trkpt>
      <trkpt lat="44.75583" lon="6.78513">
        <ele>1424.3</ele>
        <time>2013-09-01T06:50:44Z</time>
      </trkpt>
      <trkpt lat="44.75582" lon="6.78516">
        <ele>1423.4</ele>
        <time>2013-09-01T06:50:45Z</time>
      </trkpt>
      <trkpt lat="44.75581" lon="6.78519">
        <ele>1422.9</ele>
        <time>2013-09-01T06:50:46Z</time>
      </trkpt>
      <trkpt lat="44.75579" lon="6.78537">
        <ele>1420</ele>
        <time>2013-09-01T06:50:51Z</time>
      </trkpt>
      <trkpt lat="44.75577" lon="6.78551">
        <ele>1418.1</ele>
        <time>2013-09-01T06:50:55Z</time>
      </trkpt>
      <trkpt lat="44.75576" lon="6.78552">
        <ele>1417.6</ele>
        <time>2013-09-01T06:50:56Z</time>
      </trkpt>
      <trkpt lat="44.75575" lon="6.78553">
        <ele>1417.1</ele>
        <time>2013-09-01T06:50:57Z</time>
      </trkpt>
      <trkpt lat="44.75571" lon="6.78557">
        <ele>1413.8</ele>
        <time>2013-09-01T06:51:02Z</time>
      </trkpt>
      <trkpt lat="44.75567" lon="6.78562">
        <ele>1410.9</ele>
        <time>2013-09-01T06:51:06Z</time>
      </trkpt>
      <trkpt lat="44.75562" lon="6.78566">
        <ele>1408.5</ele>
        <time>2013-09-01T06:51:08Z</time>
      </trkpt>
      <trkpt lat="44.75559" lon="6.7857">
        <ele>1408.5</ele>
        <time>2013-09-01T06:51:09Z</time>
      </trkpt>
      <trkpt lat="44.75556" lon="6.78575">
        <ele>1408</ele>
        <time>2013-09-01T06:51:10Z</time>
      </trkpt>
      <trkpt lat="44.75553" lon="6.7858">
        <ele>1407</ele>
        <time>2013-09-01T06:51:11Z</time>
      </trkpt>
      <trkpt lat="44.75551" lon="6.78587">
        <ele>1406.1</ele>
        <time>2013-09-01T06:51:12Z</time>
      </trkpt>
      <trkpt lat="44.75547" lon="6.7862">
        <ele>1406.6</ele>
        <time>2013-09-01T06:51:20Z</time>
      </trkpt>
      <trkpt lat="44.75546" lon="6.78622">
        <ele>1406.1</ele>
        <time>2013-09-01T06:51:21Z</time>
      </trkpt>
      <trkpt lat="44.75545" lon="6.78624">
        <ele>1406.1</ele>
        <time>2013-09-01T06:51:22Z</time>
      </trkpt>
      <trkpt lat="44.75543" lon="6.78627">
        <ele>1405.1</ele>
        <time>2013-09-01T06:51:24Z</time>
      </trkpt>
      <trkpt lat="44.75537" lon="6.78639">
        <ele>1401.3</ele>
        <time>2013-09-01T06:51:29Z</time>
      </trkpt>
      <trkpt lat="44.75537" lon="6.78654">
        <ele>1398.9</ele>
        <time>2013-09-01T06:51:33Z</time>
      </trkpt>
      <trkpt lat="44.75548" lon="6.7869">
        <ele>1396.9</ele>
        <time>2013-09-01T06:51:39Z</time>
      </trkpt>
      <trkpt lat="44.75548" lon="6.78702">
        <ele>1396</ele>
        <time>2013-09-01T06:51:44Z</time>
      </trkpt>
      <trkpt lat="44.75545" lon="6.78706">
        <ele>1396.5</ele>
        <time>2013-09-01T06:51:47Z</time>
      </trkpt>
      <trkpt lat="44.75544" lon="6.78706">
        <ele>1396.9</ele>
        <time>2013-09-01T06:51:48Z</time>
      </trkpt>
      <trkpt lat="44.75543" lon="6.78702">
        <ele>1396.5</ele>
        <time>2013-09-01T06:51:49Z</time>
      </trkpt>
      <trkpt lat="44.75543" lon="6.78698">
        <ele>1396</ele>
        <time>2013-09-01T06:51:50Z</time>
      </trkpt>
      <trkpt lat="44.75543" lon="6.78694">
        <ele>1396</ele>
        <time>2013-09-01T06:51:51Z</time>
      </trkpt>
      <trkpt lat="44.75542" lon="6.7869">
        <ele>1396</ele>
        <time>2013-09-01T06:51:52Z</time>
      </trkpt>
      <trkpt lat="44.75541" lon="6.78688">
        <ele>1396</ele>
        <time>2013-09-01T06:51:53Z</time>
      </trkpt>
      <trkpt lat="44.7554" lon="6.7869">
        <ele>1396</ele>
        <time>2013-09-01T06:51:54Z</time>
      </trkpt>
      <trkpt lat="44.7554" lon="6.78692">
        <ele>1396.5</ele>
        <time>2013-09-01T06:51:55Z</time>
      </trkpt>
      <trkpt lat="44.75542" lon="6.78696">
        <ele>1396.5</ele>
        <time>2013-09-01T06:51:56Z</time>
      </trkpt>
      <trkpt lat="44.75543" lon="6.78698">
        <ele>1396.5</ele>
        <time>2013-09-01T06:51:57Z</time>
      </trkpt>
      <trkpt lat="44.75545" lon="6.78701">
        <ele>1396</ele>
        <time>2013-09-01T06:51:58Z</time>
      </trkpt>
      <trkpt lat="44.75547" lon="6.78704">
        <ele>1396.5</ele>
        <time>2013-09-01T06:51:59Z</time>
      </trkpt>
      <trkpt lat="44.75548" lon="6.78706">
        <ele>1396.5</ele>
        <time>2013-09-01T06:52:00Z</time>
      </trkpt>
      <trkpt lat="44.75549" lon="6.78709">
        <ele>1396.9</ele>
        <time>2013-09-01T06:52:01Z</time>
      </trkpt>
      <trkpt lat="44.75551" lon="6.78711">
        <ele>1396.9</ele>
        <time>2013-09-01T06:52:02Z</time>
      </trkpt>
      <trkpt lat="44.75552" lon="6.78714">
        <ele>1396.5</ele>
        <time>2013-09-01T06:52:03Z</time>
      </trkpt>
      <trkpt lat="44.75569" lon="6.78759">
        <ele>1399.3</ele>
        <time>2013-09-01T06:52:19Z</time>
      </trkpt>
      <trkpt lat="44.75585" lon="6.78784">
        <ele>1401.3</ele>
        <time>2013-09-01T06:52:32Z</time>
      </trkpt>
      <trkpt lat="44.75588" lon="6.78784">
        <ele>1401.7</ele>
        <time>2013-09-01T06:52:33Z</time>
      </trkpt>
      <trkpt lat="44.7562" lon="6.78807">
        <ele>1403.2</ele>
        <time>2013-09-01T06:52:46Z</time>
      </trkpt>
      <trkpt lat="44.75656" lon="6.78831">
        <ele>1405.1</ele>
        <time>2013-09-01T06:53:02Z</time>
      </trkpt>
      <trkpt lat="44.75692" lon="6.78834">
        <ele>1407.5</ele>
        <time>2013-09-01T06:53:16Z</time>
      </trkpt>
      <trkpt lat="44.75699" lon="6.78834">
        <ele>1408</ele>
        <time>2013-09-01T06:53:20Z</time>
      </trkpt>
      <trkpt lat="44.75703" lon="6.78843">
        <ele>1408.5</ele>
        <time>2013-09-01T06:53:24Z</time>
      </trkpt>
      <trkpt lat="44.75704" lon="6.78846">
        <ele>1408.5</ele>
        <time>2013-09-01T06:53:25Z</time>
      </trkpt>
      <trkpt lat="44.75704" lon="6.78848">
        <ele>1408</ele>
        <time>2013-09-01T06:53:26Z</time>
      </trkpt>
      <trkpt lat="44.75686" lon="6.78875">
        <ele>1410.4</ele>
        <time>2013-09-01T06:53:37Z</time>
      </trkpt>
      <trkpt lat="44.75645" lon="6.78913">
        <ele>1413.3</ele>
        <time>2013-09-01T06:53:56Z</time>
      </trkpt>
      <trkpt lat="44.75641" lon="6.78949">
        <ele>1415.2</ele>
        <time>2013-09-01T06:54:07Z</time>
      </trkpt>
      <trkpt lat="44.75643" lon="6.78993">
        <ele>1413.3</ele>
        <time>2013-09-01T06:54:20Z</time>
      </trkpt>
      <trkpt lat="44.75643" lon="6.79011">
        <ele>1409</ele>
        <time>2013-09-01T06:54:30Z</time>
      </trkpt>
      <trkpt lat="44.75643" lon="6.7901">
        <ele>1412.3</ele>
        <time>2013-09-01T06:54:31Z</time>
      </trkpt>
      <trkpt lat="44.75643" lon="6.7901">
        <ele>1412.3</ele>
        <time>2013-09-01T06:54:32Z</time>
      </trkpt>
      <trkpt lat="44.75666" lon="6.7889">
        <ele>1409</ele>
        <time>2013-09-01T07:05:25Z</time>
      </trkpt>
      <trkpt lat="44.75651" lon="6.79004">
        <ele>1406.6</ele>
        <time>2013-09-01T07:05:32Z</time>
      </trkpt>
      <trkpt lat="44.75652" lon="6.79004">
        <ele>1402.7</ele>
        <time>2013-09-01T07:05:39Z</time>
      </trkpt>
      <trkpt lat="44.75652" lon="6.79005">
        <ele>1402.7</ele>
        <time>2013-09-01T07:05:40Z</time>
      </trkpt>
      <trkpt lat="44.75653" lon="6.79003">
        <ele>1397.9</ele>
        <time>2013-09-01T07:05:48Z</time>
      </trkpt>
      <trkpt lat="44.75653" lon="6.79003">
        <ele>1403.2</ele>
        <time>2013-09-01T07:05:49Z</time>
      </trkpt>
      <trkpt lat="44.75654" lon="6.79003">
        <ele>1399.8</ele>
        <time>2013-09-01T07:05:52Z</time>
      </trkpt>
      <trkpt lat="44.75655" lon="6.79002">
        <ele>1398.9</ele>
        <time>2013-09-01T07:05:54Z</time>
      </trkpt>
      <trkpt lat="44.75657" lon="6.79003">
        <ele>1398.4</ele>
        <time>2013-09-01T07:05:59Z</time>
      </trkpt>
      <trkpt lat="44.75676" lon="6.79031">
        <ele>1396.9</ele>
        <time>2013-09-01T07:06:14Z</time>
      </trkpt>
      <trkpt lat="44.75695" lon="6.79067">
        <ele>1392.1</ele>
        <time>2013-09-01T07:06:23Z</time>
      </trkpt>
      <trkpt lat="44.75697" lon="6.79072">
        <ele>1397.4</ele>
        <time>2013-09-01T07:06:24Z</time>
      </trkpt>
      <trkpt lat="44.757" lon="6.79083">
        <ele>1394.1</ele>
        <time>2013-09-01T07:06:26Z</time>
      </trkpt>
      <trkpt lat="44.75702" lon="6.79088">
        <ele>1394.1</ele>
        <time>2013-09-01T07:06:27Z</time>
      </trkpt>
      <trkpt lat="44.75722" lon="6.79154">
        <ele>1390.2</ele>
        <time>2013-09-01T07:06:36Z</time>
      </trkpt>
      <trkpt lat="44.75725" lon="6.79163">
        <ele>1390.2</ele>
        <time>2013-09-01T07:06:37Z</time>
      </trkpt>
      <trkpt lat="44.75737" lon="6.79189">
        <ele>1389.2</ele>
        <time>2013-09-01T07:06:40Z</time>
      </trkpt>
      <trkpt lat="44.75762" lon="6.79227">
        <ele>1386.8</ele>
        <time>2013-09-01T07:06:45Z</time>
      </trkpt>
      <trkpt lat="44.75789" lon="6.79301">
        <ele>1383</ele>
        <time>2013-09-01T07:06:52Z</time>
      </trkpt>
      <trkpt lat="44.75796" lon="6.79325">
        <ele>1381.6</ele>
        <time>2013-09-01T07:06:54Z</time>
      </trkpt>
      <trkpt lat="44.75801" lon="6.79351">
        <ele>1380.1</ele>
        <time>2013-09-01T07:06:56Z</time>
      </trkpt>
      <trkpt lat="44.75807" lon="6.79404">
        <ele>1378.2</ele>
        <time>2013-09-01T07:07:00Z</time>
      </trkpt>
      <trkpt lat="44.75807" lon="6.79416">
        <ele>1376.8</ele>
        <time>2013-09-01T07:07:01Z</time>
      </trkpt>
      <trkpt lat="44.75807" lon="6.79427">
        <ele>1376.8</ele>
        <time>2013-09-01T07:07:02Z</time>
      </trkpt>
      <trkpt lat="44.75806" lon="6.79457">
        <ele>1374.3</ele>
        <time>2013-09-01T07:07:05Z</time>
      </trkpt>
      <trkpt lat="44.75803" lon="6.79522">
        <ele>1371.5</ele>
        <time>2013-09-01T07:07:10Z</time>
      </trkpt>
      <trkpt lat="44.75807" lon="6.79575">
        <ele>1369.1</ele>
        <time>2013-09-01T07:07:14Z</time>
      </trkpt>
      <trkpt lat="44.75809" lon="6.79588">
        <ele>1368.1</ele>
        <time>2013-09-01T07:07:15Z</time>
      </trkpt>
      <trkpt lat="44.7582" lon="6.79613">
        <ele>1367.1</ele>
        <time>2013-09-01T07:07:17Z</time>
      </trkpt>
      <trkpt lat="44.75841" lon="6.79677">
        <ele>1364.7</ele>
        <time>2013-09-01T07:07:23Z</time>
      </trkpt>
      <trkpt lat="44.75848" lon="6.7972">
        <ele>1362.8</ele>
        <time>2013-09-01T07:07:28Z</time>
      </trkpt>
      <trkpt lat="44.75847" lon="6.79727">
        <ele>1363.8</ele>
        <time>2013-09-01T07:07:29Z</time>
      </trkpt>
      <trkpt lat="44.7584" lon="6.79739">
        <ele>1363.8</ele>
        <time>2013-09-01T07:07:30Z</time>
      </trkpt>
      <trkpt lat="44.75832" lon="6.79751">
        <ele>1363.8</ele>
        <time>2013-09-01T07:07:31Z</time>
      </trkpt>
      <trkpt lat="44.75809" lon="6.79808">
        <ele>1365.2</ele>
        <time>2013-09-01T07:07:39Z</time>
      </trkpt>
      <trkpt lat="44.75805" lon="6.79834">
        <ele>1364.7</ele>
        <time>2013-09-01T07:07:43Z</time>
      </trkpt>
      <trkpt lat="44.75802" lon="6.79837">
        <ele>1364.7</ele>
        <time>2013-09-01T07:07:44Z</time>
      </trkpt>
      <trkpt lat="44.75799" lon="6.79838">
        <ele>1364.3</ele>
        <time>2013-09-01T07:07:45Z</time>
      </trkpt>
      <trkpt lat="44.75795" lon="6.79835">
        <ele>1364.3</ele>
        <time>2013-09-01T07:07:46Z</time>
      </trkpt>
      <trkpt lat="44.75793" lon="6.79829">
        <ele>1364.3</ele>
        <time>2013-09-01T07:07:47Z</time>
      </trkpt>
      <trkpt lat="44.75792" lon="6.79823">
        <ele>1363.8</ele>
        <time>2013-09-01T07:07:48Z</time>
      </trkpt>
      <trkpt lat="44.75791" lon="6.79816">
        <ele>1363.8</ele>
        <time>2013-09-01T07:07:49Z</time>
      </trkpt>
      <trkpt lat="44.7579" lon="6.79802">
        <ele>1363.3</ele>
        <time>2013-09-01T07:07:51Z</time>
      </trkpt>
      <trkpt lat="44.75779" lon="6.79716">
        <ele>1360.9</ele>
        <time>2013-09-01T07:08:03Z</time>
      </trkpt>
      <trkpt lat="44.75778" lon="6.79709">
        <ele>1361.4</ele>
        <time>2013-09-01T07:08:04Z</time>
      </trkpt>
      <trkpt lat="44.75762" lon="6.79587">
        <ele>1358.5</ele>
        <time>2013-09-01T07:08:21Z</time>
      </trkpt>
      <trkpt lat="44.75743" lon="6.79453">
        <ele>1356.1</ele>
        <time>2013-09-01T07:08:39Z</time>
      </trkpt>
      <trkpt lat="44.75741" lon="6.79446">
        <ele>1355.6</ele>
        <time>2013-09-01T07:08:40Z</time>
      </trkpt>
      <trkpt lat="44.7574" lon="6.7944">
        <ele>1356.1</ele>
        <time>2013-09-01T07:08:41Z</time>
      </trkpt>
      <trkpt lat="44.75739" lon="6.79436">
        <ele>1356.1</ele>
        <time>2013-09-01T07:08:42Z</time>
      </trkpt>
      <trkpt lat="44.75738" lon="6.79431">
        <ele>1356.1</ele>
        <time>2013-09-01T07:08:43Z</time>
      </trkpt>
      <trkpt lat="44.75738" lon="6.79427">
        <ele>1354.6</ele>
        <time>2013-09-01T07:08:44Z</time>
      </trkpt>
      <trkpt lat="44.75731" lon="6.79372">
        <ele>1356.6</ele>
        <time>2013-09-01T07:08:59Z</time>
      </trkpt>
      <trkpt lat="44.75729" lon="6.79336">
        <ele>1358.5</ele>
        <time>2013-09-01T07:09:12Z</time>
      </trkpt>
      <trkpt lat="44.75726" lon="6.79324">
        <ele>1359</ele>
        <time>2013-09-01T07:09:17Z</time>
      </trkpt>
      <trkpt lat="44.75722" lon="6.79324">
        <ele>1358</ele>
        <time>2013-09-01T07:09:18Z</time>
      </trkpt>
      <trkpt lat="44.75712" lon="6.79325">
        <ele>1357.5</ele>
        <time>2013-09-01T07:09:20Z</time>
      </trkpt>
      <trkpt lat="44.757" lon="6.79325">
        <ele>1356.1</ele>
        <time>2013-09-01T07:09:22Z</time>
      </trkpt>
      <trkpt lat="44.75689" lon="6.79325">
        <ele>1356.1</ele>
        <time>2013-09-01T07:09:24Z</time>
      </trkpt>
      <trkpt lat="44.75684" lon="6.79323">
        <ele>1355.6</ele>
        <time>2013-09-01T07:09:25Z</time>
      </trkpt>
      <trkpt lat="44.75679" lon="6.7932">
        <ele>1355.1</ele>
        <time>2013-09-01T07:09:26Z</time>
      </trkpt>
      <trkpt lat="44.75674" lon="6.79316">
        <ele>1354.6</ele>
        <time>2013-09-01T07:09:27Z</time>
      </trkpt>
      <trkpt lat="44.7567" lon="6.79313">
        <ele>1355.6</ele>
        <time>2013-09-01T07:09:28Z</time>
      </trkpt>
      <trkpt lat="44.75666" lon="6.79308">
        <ele>1355.1</ele>
        <time>2013-09-01T07:09:29Z</time>
      </trkpt>
      <trkpt lat="44.75662" lon="6.79305">
        <ele>1355.1</ele>
        <time>2013-09-01T07:09:30Z</time>
      </trkpt>
      <trkpt lat="44.75631" lon="6.79255">
        <ele>1355.6</ele>
        <time>2013-09-01T07:09:43Z</time>
      </trkpt>
      <trkpt lat="44.75606" lon="6.79215">
        <ele>1356.1</ele>
        <time>2013-09-01T07:09:55Z</time>
      </trkpt>
      <trkpt lat="44.75605" lon="6.79217">
        <ele>1356.1</ele>
        <time>2013-09-01T07:09:56Z</time>
      </trkpt>
      <trkpt lat="44.75605" lon="6.79219">
        <ele>1355.6</ele>
        <time>2013-09-01T07:09:57Z</time>
      </trkpt>
      <trkpt lat="44.75607" lon="6.79221">
        <ele>1356.1</ele>
        <time>2013-09-01T07:09:58Z</time>
      </trkpt>
      <trkpt lat="44.75609" lon="6.79223">
        <ele>1355.6</ele>
        <time>2013-09-01T07:09:59Z</time>
      </trkpt>
      <trkpt lat="44.75611" lon="6.79223">
        <ele>1355.6</ele>
        <time>2013-09-01T07:10:00Z</time>
      </trkpt>
      <trkpt lat="44.75613" lon="6.79221">
        <ele>1355.6</ele>
        <time>2013-09-01T07:10:01Z</time>
      </trkpt>
      <trkpt lat="44.75614" lon="6.7922">
        <ele>1355.6</ele>
        <time>2013-09-01T07:10:02Z</time>
      </trkpt>
      <trkpt lat="44.75616" lon="6.7922">
        <ele>1356.1</ele>
        <time>2013-09-01T07:10:15Z</time>
      </trkpt>
      <trkpt lat="44.75616" lon="6.79227">
        <ele>1356.1</ele>
        <time>2013-09-01T07:10:46Z</time>
      </trkpt>
      <trkpt lat="44.75614" lon="6.79238">
        <ele>1356.1</ele>
        <time>2013-09-01T07:11:07Z</time>
      </trkpt>
      <trkpt lat="44.75615" lon="6.79239">
        <ele>1356.6</ele>
        <time>2013-09-01T07:11:08Z</time>
      </trkpt>
      <trkpt lat="44.75615" lon="6.7924">
        <ele>1356.1</ele>
        <time>2013-09-01T07:11:09Z</time>
      </trkpt>
      <trkpt lat="44.75615" lon="6.7924">
        <ele>1356.1</ele>
        <time>2013-09-01T07:11:10Z</time>
      </trkpt>
      <trkpt lat="44.7561" lon="6.79221">
        <ele>1356.1</ele>
        <time>2013-09-01T07:11:17Z</time>
      </trkpt>
      <trkpt lat="44.75608" lon="6.7922">
        <ele>1356.6</ele>
        <time>2013-09-01T07:11:18Z</time>
      </trkpt>
      <trkpt lat="44.75606" lon="6.79219">
        <ele>1356.6</ele>
        <time>2013-09-01T07:11:19Z</time>
      </trkpt>
      <trkpt lat="44.75604" lon="6.79219">
        <ele>1356.6</ele>
        <time>2013-09-01T07:11:20Z</time>
      </trkpt>
      <trkpt lat="44.75601" lon="6.7922">
        <ele>1356.6</ele>
        <time>2013-09-01T07:11:21Z</time>
      </trkpt>
      <trkpt lat="44.75599" lon="6.79221">
        <ele>1356.1</ele>
        <time>2013-09-01T07:11:22Z</time>
      </trkpt>
      <trkpt lat="44.75597" lon="6.79223">
        <ele>1357</ele>
        <time>2013-09-01T07:11:23Z</time>
      </trkpt>
      <trkpt lat="44.75595" lon="6.79225">
        <ele>1357</ele>
        <time>2013-09-01T07:11:24Z</time>
      </trkpt>
      <trkpt lat="44.7559" lon="6.7923">
        <ele>1358</ele>
        <time>2013-09-01T07:11:28Z</time>
      </trkpt>
      <trkpt lat="44.75569" lon="6.7923">
        <ele>1358.5</ele>
        <time>2013-09-01T07:11:41Z</time>
      </trkpt>
      <trkpt lat="44.75569" lon="6.79228">
        <ele>1358</ele>
        <time>2013-09-01T07:11:42Z</time>
      </trkpt>
      <trkpt lat="44.75569" lon="6.79225">
        <ele>1359</ele>
        <time>2013-09-01T07:11:43Z</time>
      </trkpt>
      <trkpt lat="44.7555" lon="6.79182">
        <ele>1360.9</ele>
        <time>2013-09-01T07:11:59Z</time>
      </trkpt>
      <trkpt lat="44.75549" lon="6.7918">
        <ele>1361.4</ele>
        <time>2013-09-01T07:12:00Z</time>
      </trkpt>
      <trkpt lat="44.7553" lon="6.79156">
        <ele>1362.8</ele>
        <time>2013-09-01T07:12:12Z</time>
      </trkpt>
      <trkpt lat="44.75514" lon="6.79145">
        <ele>1363.3</ele>
        <time>2013-09-01T07:12:26Z</time>
      </trkpt>
      <trkpt lat="44.75485" lon="6.79129">
        <ele>1364.7</ele>
        <time>2013-09-01T07:12:39Z</time>
      </trkpt>
      <trkpt lat="44.75471" lon="6.79107">
        <ele>1366.2</ele>
        <time>2013-09-01T07:12:51Z</time>
      </trkpt>
      <trkpt lat="44.75434" lon="6.79074">
        <ele>1368.1</ele>
        <time>2013-09-01T07:13:06Z</time>
      </trkpt>
      <trkpt lat="44.75417" lon="6.79024">
        <ele>1369.1</ele>
        <time>2013-09-01T07:13:20Z</time>
      </trkpt>
      <trkpt lat="44.75417" lon="6.78996">
        <ele>1370</ele>
        <time>2013-09-01T07:13:27Z</time>
      </trkpt>
      <trkpt lat="44.75416" lon="6.78993">
        <ele>1370.5</ele>
        <time>2013-09-01T07:13:28Z</time>
      </trkpt>
      <trkpt lat="44.75433" lon="6.78949">
        <ele>1371.9</ele>
        <time>2013-09-01T07:13:41Z</time>
      </trkpt>
      <trkpt lat="44.75457" lon="6.7891">
        <ele>1371</ele>
        <time>2013-09-01T07:13:53Z</time>
      </trkpt>
      <trkpt lat="44.75459" lon="6.78899">
        <ele>1371.5</ele>
        <time>2013-09-01T07:13:55Z</time>
      </trkpt>
      <trkpt lat="44.7546" lon="6.78893">
        <ele>1370.5</ele>
        <time>2013-09-01T07:13:56Z</time>
      </trkpt>
      <trkpt lat="44.75459" lon="6.78886">
        <ele>1370.5</ele>
        <time>2013-09-01T07:13:57Z</time>
      </trkpt>
      <trkpt lat="44.75458" lon="6.78879">
        <ele>1370.5</ele>
        <time>2013-09-01T07:13:58Z</time>
      </trkpt>
      <trkpt lat="44.75456" lon="6.78872">
        <ele>1369.5</ele>
        <time>2013-09-01T07:13:59Z</time>
      </trkpt>
      <trkpt lat="44.75453" lon="6.78865">
        <ele>1369.1</ele>
        <time>2013-09-01T07:14:00Z</time>
      </trkpt>
      <trkpt lat="44.7545" lon="6.78858">
        <ele>1370</ele>
        <time>2013-09-01T07:14:01Z</time>
      </trkpt>
      <trkpt lat="44.75445" lon="6.78852">
        <ele>1369.1</ele>
        <time>2013-09-01T07:14:02Z</time>
      </trkpt>
      <trkpt lat="44.75441" lon="6.78847">
        <ele>1368.6</ele>
        <time>2013-09-01T07:14:03Z</time>
      </trkpt>
      <trkpt lat="44.75437" lon="6.78842">
        <ele>1368.1</ele>
        <time>2013-09-01T07:14:04Z</time>
      </trkpt>
      <trkpt lat="44.75407" lon="6.78799">
        <ele>1366.7</ele>
        <time>2013-09-01T07:14:12Z</time>
      </trkpt>
      <trkpt lat="44.75404" lon="6.78793">
        <ele>1367.1</ele>
        <time>2013-09-01T07:14:13Z</time>
      </trkpt>
      <trkpt lat="44.75379" lon="6.78731">
        <ele>1367.6</ele>
        <time>2013-09-01T07:14:26Z</time>
      </trkpt>
      <trkpt lat="44.75368" lon="6.78688">
        <ele>1370.5</ele>
        <time>2013-09-01T07:14:39Z</time>
      </trkpt>
      <trkpt lat="44.75361" lon="6.78653">
        <ele>1371.5</ele>
        <time>2013-09-01T07:14:51Z</time>
      </trkpt>
      <trkpt lat="44.75355" lon="6.78641">
        <ele>1373.4</ele>
        <time>2013-09-01T07:14:56Z</time>
      </trkpt>
      <trkpt lat="44.75337" lon="6.78604">
        <ele>1375.8</ele>
        <time>2013-09-01T07:15:12Z</time>
      </trkpt>
      <trkpt lat="44.75317" lon="6.78582">
        <ele>1378.7</ele>
        <time>2013-09-01T07:15:26Z</time>
      </trkpt>
      <trkpt lat="44.75288" lon="6.78571">
        <ele>1381.6</ele>
        <time>2013-09-01T07:15:41Z</time>
      </trkpt>
      <trkpt lat="44.75273" lon="6.7856">
        <ele>1383.5</ele>
        <time>2013-09-01T07:15:51Z</time>
      </trkpt>
      <trkpt lat="44.75272" lon="6.78559">
        <ele>1383.5</ele>
        <time>2013-09-01T07:15:52Z</time>
      </trkpt>
      <trkpt lat="44.7527" lon="6.78558">
        <ele>1384</ele>
        <time>2013-09-01T07:15:53Z</time>
      </trkpt>
      <trkpt lat="44.75258" lon="6.78535">
        <ele>1385.4</ele>
        <time>2013-09-01T07:16:06Z</time>
      </trkpt>
      <trkpt lat="44.75245" lon="6.785">
        <ele>1388.8</ele>
        <time>2013-09-01T07:16:21Z</time>
      </trkpt>
      <trkpt lat="44.75237" lon="6.78487">
        <ele>1389.7</ele>
        <time>2013-09-01T07:16:27Z</time>
      </trkpt>
      <trkpt lat="44.75233" lon="6.78486">
        <ele>1389.2</ele>
        <time>2013-09-01T07:16:28Z</time>
      </trkpt>
      <trkpt lat="44.75209" lon="6.78474">
        <ele>1392.6</ele>
        <time>2013-09-01T07:16:42Z</time>
      </trkpt>
      <trkpt lat="44.7519" lon="6.78451">
        <ele>1395</ele>
        <time>2013-09-01T07:16:54Z</time>
      </trkpt>
      <trkpt lat="44.7518" lon="6.78432">
        <ele>1396.5</ele>
        <time>2013-09-01T07:17:04Z</time>
      </trkpt>
      <trkpt lat="44.75179" lon="6.7843">
        <ele>1396.5</ele>
        <time>2013-09-01T07:17:05Z</time>
      </trkpt>
      <trkpt lat="44.75178" lon="6.78428">
        <ele>1396.5</ele>
        <time>2013-09-01T07:17:06Z</time>
      </trkpt>
      <trkpt lat="44.75178" lon="6.78426">
        <ele>1396.9</ele>
        <time>2013-09-01T07:17:07Z</time>
      </trkpt>
      <trkpt lat="44.75177" lon="6.78424">
        <ele>1396.9</ele>
        <time>2013-09-01T07:17:08Z</time>
      </trkpt>
      <trkpt lat="44.75177" lon="6.78423">
        <ele>1397.4</ele>
        <time>2013-09-01T07:17:09Z</time>
      </trkpt>
      <trkpt lat="44.75176" lon="6.78421">
        <ele>1396.9</ele>
        <time>2013-09-01T07:17:10Z</time>
      </trkpt>
      <trkpt lat="44.75176" lon="6.78418">
        <ele>1397.4</ele>
        <time>2013-09-01T07:17:11Z</time>
      </trkpt>
      <trkpt lat="44.75176" lon="6.78416">
        <ele>1398.4</ele>
        <time>2013-09-01T07:17:12Z</time>
      </trkpt>
      <trkpt lat="44.75175" lon="6.78414">
        <ele>1397.9</ele>
        <time>2013-09-01T07:17:13Z</time>
      </trkpt>
      <trkpt lat="44.75175" lon="6.78412">
        <ele>1397.9</ele>
        <time>2013-09-01T07:17:14Z</time>
      </trkpt>
      <trkpt lat="44.75165" lon="6.78393">
        <ele>1399.8</ele>
        <time>2013-09-01T07:17:23Z</time>
      </trkpt>
      <trkpt lat="44.75163" lon="6.78382">
        <ele>1401.3</ele>
        <time>2013-09-01T07:17:28Z</time>
      </trkpt>
      <trkpt lat="44.75161" lon="6.78378">
        <ele>1401.7</ele>
        <time>2013-09-01T07:17:30Z</time>
      </trkpt>
      <trkpt lat="44.75139" lon="6.78364">
        <ele>1403.2</ele>
        <time>2013-09-01T07:17:42Z</time>
      </trkpt>
      <trkpt lat="44.75119" lon="6.78342">
        <ele>1405.6</ele>
        <time>2013-09-01T07:17:56Z</time>
      </trkpt>
      <trkpt lat="44.75107" lon="6.78308">
        <ele>1408</ele>
        <time>2013-09-01T07:18:10Z</time>
      </trkpt>
      <trkpt lat="44.75094" lon="6.7829">
        <ele>1410.4</ele>
        <time>2013-09-01T07:18:20Z</time>
      </trkpt>
      <trkpt lat="44.75092" lon="6.78287">
        <ele>1409.9</ele>
        <time>2013-09-01T07:18:22Z</time>
      </trkpt>
      <trkpt lat="44.75091" lon="6.78286">
        <ele>1410.4</ele>
        <time>2013-09-01T07:18:23Z</time>
      </trkpt>
      <trkpt lat="44.75089" lon="6.78285">
        <ele>1410.9</ele>
        <time>2013-09-01T07:18:24Z</time>
      </trkpt>
      <trkpt lat="44.75088" lon="6.78283">
        <ele>1410.4</ele>
        <time>2013-09-01T07:18:25Z</time>
      </trkpt>
      <trkpt lat="44.75087" lon="6.78281">
        <ele>1410.9</ele>
        <time>2013-09-01T07:18:26Z</time>
      </trkpt>
      <trkpt lat="44.75085" lon="6.78279">
        <ele>1410.9</ele>
        <time>2013-09-01T07:18:27Z</time>
      </trkpt>
      <trkpt lat="44.75084" lon="6.78277">
        <ele>1410.9</ele>
        <time>2013-09-01T07:18:28Z</time>
      </trkpt>
      <trkpt lat="44.75083" lon="6.78275">
        <ele>1411.4</ele>
        <time>2013-09-01T07:18:29Z</time>
      </trkpt>
      <trkpt lat="44.75068" lon="6.78247">
        <ele>1413.8</ele>
        <time>2013-09-01T07:18:42Z</time>
      </trkpt>
      <trkpt lat="44.75053" lon="6.78246">
        <ele>1415.2</ele>
        <time>2013-09-01T07:18:51Z</time>
      </trkpt>
      <trkpt lat="44.75052" lon="6.78251">
        <ele>1415.7</ele>
        <time>2013-09-01T07:18:53Z</time>
      </trkpt>
      <trkpt lat="44.75068" lon="6.78287">
        <ele>1416.6</ele>
        <time>2013-09-01T07:19:05Z</time>
      </trkpt>
      <trkpt lat="44.75079" lon="6.7832">
        <ele>1417.6</ele>
        <time>2013-09-01T07:19:16Z</time>
      </trkpt>
      <trkpt lat="44.75091" lon="6.78365">
        <ele>1420.5</ele>
        <time>2013-09-01T07:19:31Z</time>
      </trkpt>
      <trkpt lat="44.75108" lon="6.78394">
        <ele>1422.9</ele>
        <time>2013-09-01T07:19:42Z</time>
      </trkpt>
      <trkpt lat="44.75116" lon="6.78429">
        <ele>1425.8</ele>
        <time>2013-09-01T07:19:54Z</time>
      </trkpt>
      <trkpt lat="44.75124" lon="6.78465">
        <ele>1426.7</ele>
        <time>2013-09-01T07:20:07Z</time>
      </trkpt>
      <trkpt lat="44.75139" lon="6.78509">
        <ele>1429.6</ele>
        <time>2013-09-01T07:20:23Z</time>
      </trkpt>
      <trkpt lat="44.7515" lon="6.78541">
        <ele>1431.1</ele>
        <time>2013-09-01T07:20:35Z</time>
      </trkpt>
      <trkpt lat="44.7515" lon="6.78543">
        <ele>1431.5</ele>
        <time>2013-09-01T07:20:36Z</time>
      </trkpt>
      <trkpt lat="44.75151" lon="6.78545">
        <ele>1431.1</ele>
        <time>2013-09-01T07:20:37Z</time>
      </trkpt>
      <trkpt lat="44.75152" lon="6.78547">
        <ele>1432</ele>
        <time>2013-09-01T07:20:38Z</time>
      </trkpt>
      <trkpt lat="44.75152" lon="6.7855">
        <ele>1431.5</ele>
        <time>2013-09-01T07:20:39Z</time>
      </trkpt>
      <trkpt lat="44.75153" lon="6.78553">
        <ele>1432.5</ele>
        <time>2013-09-01T07:20:40Z</time>
      </trkpt>
      <trkpt lat="44.75164" lon="6.78592">
        <ele>1434.9</ele>
        <time>2013-09-01T07:20:54Z</time>
      </trkpt>
      <trkpt lat="44.7517" lon="6.78627">
        <ele>1436.8</ele>
        <time>2013-09-01T07:21:06Z</time>
      </trkpt>
      <trkpt lat="44.75171" lon="6.7863">
        <ele>1436.8</ele>
        <time>2013-09-01T07:21:07Z</time>
      </trkpt>
      <trkpt lat="44.75171" lon="6.78633">
        <ele>1437.3</ele>
        <time>2013-09-01T07:21:08Z</time>
      </trkpt>
      <trkpt lat="44.75172" lon="6.78635">
        <ele>1437.3</ele>
        <time>2013-09-01T07:21:09Z</time>
      </trkpt>
      <trkpt lat="44.75174" lon="6.78637">
        <ele>1437.3</ele>
        <time>2013-09-01T07:21:10Z</time>
      </trkpt>
      <trkpt lat="44.75175" lon="6.7864">
        <ele>1437.8</ele>
        <time>2013-09-01T07:21:11Z</time>
      </trkpt>
      <trkpt lat="44.75176" lon="6.78643">
        <ele>1437.8</ele>
        <time>2013-09-01T07:21:12Z</time>
      </trkpt>
      <trkpt lat="44.75192" lon="6.78683">
        <ele>1440.2</ele>
        <time>2013-09-01T07:21:26Z</time>
      </trkpt>
      <trkpt lat="44.75202" lon="6.7872">
        <ele>1442.1</ele>
        <time>2013-09-01T07:21:39Z</time>
      </trkpt>
      <trkpt lat="44.75202" lon="6.78724">
        <ele>1442.1</ele>
        <time>2013-09-01T07:21:40Z</time>
      </trkpt>
      <trkpt lat="44.75205" lon="6.78773">
        <ele>1444.5</ele>
        <time>2013-09-01T07:21:56Z</time>
      </trkpt>
      <trkpt lat="44.75206" lon="6.78786">
        <ele>1445</ele>
        <time>2013-09-01T07:22:01Z</time>
      </trkpt>
      <trkpt lat="44.75206" lon="6.78788">
        <ele>1445</ele>
        <time>2013-09-01T07:22:02Z</time>
      </trkpt>
      <trkpt lat="44.75214" lon="6.78802">
        <ele>1445.5</ele>
        <time>2013-09-01T07:22:08Z</time>
      </trkpt>
      <trkpt lat="44.75229" lon="6.78839">
        <ele>1447.4</ele>
        <time>2013-09-01T07:22:20Z</time>
      </trkpt>
      <trkpt lat="44.75228" lon="6.78842">
        <ele>1447.9</ele>
        <time>2013-09-01T07:22:21Z</time>
      </trkpt>
      <trkpt lat="44.75227" lon="6.78844">
        <ele>1448.4</ele>
        <time>2013-09-01T07:22:22Z</time>
      </trkpt>
      <trkpt lat="44.75227" lon="6.78846">
        <ele>1447.9</ele>
        <time>2013-09-01T07:22:23Z</time>
      </trkpt>
      <trkpt lat="44.75226" lon="6.78847">
        <ele>1448.8</ele>
        <time>2013-09-01T07:22:24Z</time>
      </trkpt>
      <trkpt lat="44.75226" lon="6.78848">
        <ele>1448.8</ele>
        <time>2013-09-01T07:22:25Z</time>
      </trkpt>
      <trkpt lat="44.75223" lon="6.78848">
        <ele>1448.8</ele>
        <time>2013-09-01T07:22:28Z</time>
      </trkpt>
      <trkpt lat="44.75222" lon="6.78847">
        <ele>1449.8</ele>
        <time>2013-09-01T07:22:29Z</time>
      </trkpt>
      <trkpt lat="44.7522" lon="6.78846">
        <ele>1449.8</ele>
        <time>2013-09-01T07:22:30Z</time>
      </trkpt>
      <trkpt lat="44.7521" lon="6.78817">
        <ele>1452.2</ele>
        <time>2013-09-01T07:22:45Z</time>
      </trkpt>
      <trkpt lat="44.75205" lon="6.78796">
        <ele>1455.1</ele>
        <time>2013-09-01T07:22:58Z</time>
      </trkpt>
      <trkpt lat="44.75194" lon="6.78768">
        <ele>1456.1</ele>
        <time>2013-09-01T07:23:09Z</time>
      </trkpt>
      <trkpt lat="44.7518" lon="6.78742">
        <ele>1459.4</ele>
        <time>2013-09-01T07:23:21Z</time>
      </trkpt>
      <trkpt lat="44.75179" lon="6.7874">
        <ele>1458.9</ele>
        <time>2013-09-01T07:23:22Z</time>
      </trkpt>
      <trkpt lat="44.7517" lon="6.78721">
        <ele>1460.4</ele>
        <time>2013-09-01T07:23:29Z</time>
      </trkpt>
      <trkpt lat="44.75151" lon="6.78687">
        <ele>1463.3</ele>
        <time>2013-09-01T07:23:45Z</time>
      </trkpt>
      <trkpt lat="44.75139" lon="6.78661">
        <ele>1465.7</ele>
        <time>2013-09-01T07:23:59Z</time>
      </trkpt>
      <trkpt lat="44.7512" lon="6.78633">
        <ele>1469</ele>
        <time>2013-09-01T07:24:13Z</time>
      </trkpt>
      <trkpt lat="44.75104" lon="6.78612">
        <ele>1470.5</ele>
        <time>2013-09-01T07:24:25Z</time>
      </trkpt>
      <trkpt lat="44.75096" lon="6.78603">
        <ele>1471</ele>
        <time>2013-09-01T07:24:31Z</time>
      </trkpt>
      <trkpt lat="44.75089" lon="6.78596">
        <ele>1472.9</ele>
        <time>2013-09-01T07:24:36Z</time>
      </trkpt>
      <trkpt lat="44.75081" lon="6.78586">
        <ele>1473.4</ele>
        <time>2013-09-01T07:24:42Z</time>
      </trkpt>
      <trkpt lat="44.75079" lon="6.78586">
        <ele>1473.4</ele>
        <time>2013-09-01T07:24:43Z</time>
      </trkpt>
      <trkpt lat="44.75067" lon="6.78573">
        <ele>1475.3</ele>
        <time>2013-09-01T07:24:53Z</time>
      </trkpt>
      <trkpt lat="44.75065" lon="6.78572">
        <ele>1475.8</ele>
        <time>2013-09-01T07:24:54Z</time>
      </trkpt>
      <trkpt lat="44.7506" lon="6.78568">
        <ele>1477.2</ele>
        <time>2013-09-01T07:24:58Z</time>
      </trkpt>
      <trkpt lat="44.75042" lon="6.78552">
        <ele>1479.1</ele>
        <time>2013-09-01T07:25:12Z</time>
      </trkpt>
      <trkpt lat="44.75015" lon="6.78541">
        <ele>1482.5</ele>
        <time>2013-09-01T07:25:28Z</time>
      </trkpt>
      <trkpt lat="44.75012" lon="6.78539">
        <ele>1482</ele>
        <time>2013-09-01T07:25:29Z</time>
      </trkpt>
      <trkpt lat="44.74994" lon="6.78525">
        <ele>1484.9</ele>
        <time>2013-09-01T07:25:41Z</time>
      </trkpt>
      <trkpt lat="44.74989" lon="6.7852">
        <ele>1485.4</ele>
        <time>2013-09-01T07:25:44Z</time>
      </trkpt>
      <trkpt lat="44.74973" lon="6.78499">
        <ele>1487.3</ele>
        <time>2013-09-01T07:25:56Z</time>
      </trkpt>
      <trkpt lat="44.74969" lon="6.78464">
        <ele>1490.2</ele>
        <time>2013-09-01T07:26:12Z</time>
      </trkpt>
      <trkpt lat="44.74961" lon="6.78427">
        <ele>1494</ele>
        <time>2013-09-01T07:26:29Z</time>
      </trkpt>
      <trkpt lat="44.74948" lon="6.78398">
        <ele>1495.5</ele>
        <time>2013-09-01T07:26:43Z</time>
      </trkpt>
      <trkpt lat="44.74946" lon="6.78396">
        <ele>1496</ele>
        <time>2013-09-01T07:26:44Z</time>
      </trkpt>
      <trkpt lat="44.74945" lon="6.78394">
        <ele>1496.9</ele>
        <time>2013-09-01T07:26:45Z</time>
      </trkpt>
      <trkpt lat="44.74928" lon="6.78367">
        <ele>1498.8</ele>
        <time>2013-09-01T07:26:59Z</time>
      </trkpt>
      <trkpt lat="44.74913" lon="6.78338">
        <ele>1502.2</ele>
        <time>2013-09-01T07:27:16Z</time>
      </trkpt>
      <trkpt lat="44.7491" lon="6.78333">
        <ele>1503.2</ele>
        <time>2013-09-01T07:27:20Z</time>
      </trkpt>
      <trkpt lat="44.7491" lon="6.78331">
        <ele>1503.2</ele>
        <time>2013-09-01T07:27:21Z</time>
      </trkpt>
      <trkpt lat="44.74908" lon="6.78329">
        <ele>1503.2</ele>
        <time>2013-09-01T07:27:22Z</time>
      </trkpt>
      <trkpt lat="44.74894" lon="6.78305">
        <ele>1506</ele>
        <time>2013-09-01T07:27:36Z</time>
      </trkpt>
      <trkpt lat="44.74885" lon="6.78282">
        <ele>1508.5</ele>
        <time>2013-09-01T07:27:47Z</time>
      </trkpt>
      <trkpt lat="44.74874" lon="6.7825">
        <ele>1511.3</ele>
        <time>2013-09-01T07:28:02Z</time>
      </trkpt>
      <trkpt lat="44.74863" lon="6.78232">
        <ele>1512.3</ele>
        <time>2013-09-01T07:28:12Z</time>
      </trkpt>
      <trkpt lat="44.74863" lon="6.7823">
        <ele>1513.3</ele>
        <time>2013-09-01T07:28:13Z</time>
      </trkpt>
      <trkpt lat="44.74862" lon="6.78229">
        <ele>1513.3</ele>
        <time>2013-09-01T07:28:14Z</time>
      </trkpt>
      <trkpt lat="44.74861" lon="6.78228">
        <ele>1513.3</ele>
        <time>2013-09-01T07:28:15Z</time>
      </trkpt>
      <trkpt lat="44.74859" lon="6.78227">
        <ele>1513.3</ele>
        <time>2013-09-01T07:28:16Z</time>
      </trkpt>
      <trkpt lat="44.74844" lon="6.78227">
        <ele>1514.7</ele>
        <time>2013-09-01T07:28:24Z</time>
      </trkpt>
      <trkpt lat="44.74842" lon="6.78228">
        <ele>1515.2</ele>
        <time>2013-09-01T07:28:25Z</time>
      </trkpt>
      <trkpt lat="44.74841" lon="6.78229">
        <ele>1515.2</ele>
        <time>2013-09-01T07:28:26Z</time>
      </trkpt>
      <trkpt lat="44.7484" lon="6.78231">
        <ele>1515.2</ele>
        <time>2013-09-01T07:28:27Z</time>
      </trkpt>
      <trkpt lat="44.74839" lon="6.78233">
        <ele>1515.7</ele>
        <time>2013-09-01T07:28:28Z</time>
      </trkpt>
      <trkpt lat="44.74838" lon="6.78235">
        <ele>1515.7</ele>
        <time>2013-09-01T07:28:29Z</time>
      </trkpt>
      <trkpt lat="44.74837" lon="6.78237">
        <ele>1515.7</ele>
        <time>2013-09-01T07:28:30Z</time>
      </trkpt>
      <trkpt lat="44.74827" lon="6.78267">
        <ele>1518.1</ele>
        <time>2013-09-01T07:28:44Z</time>
      </trkpt>
      <trkpt lat="44.74811" lon="6.78302">
        <ele>1519.5</ele>
        <time>2013-09-01T07:28:58Z</time>
      </trkpt>
      <trkpt lat="44.74799" lon="6.78331">
        <ele>1520.9</ele>
        <time>2013-09-01T07:29:09Z</time>
      </trkpt>
      <trkpt lat="44.74798" lon="6.78361">
        <ele>1522.9</ele>
        <time>2013-09-01T07:29:19Z</time>
      </trkpt>
      <trkpt lat="44.74804" lon="6.78388">
        <ele>1524.3</ele>
        <time>2013-09-01T07:29:29Z</time>
      </trkpt>
      <trkpt lat="44.74804" lon="6.7839">
        <ele>1524.8</ele>
        <time>2013-09-01T07:29:30Z</time>
      </trkpt>
      <trkpt lat="44.74804" lon="6.78393">
        <ele>1524.8</ele>
        <time>2013-09-01T07:29:31Z</time>
      </trkpt>
      <trkpt lat="44.74799" lon="6.78431">
        <ele>1528.2</ele>
        <time>2013-09-01T07:29:46Z</time>
      </trkpt>
      <trkpt lat="44.74797" lon="6.78467">
        <ele>1529.6</ele>
        <time>2013-09-01T07:30:00Z</time>
      </trkpt>
      <trkpt lat="44.748" lon="6.78495">
        <ele>1532.5</ele>
        <time>2013-09-01T07:30:12Z</time>
      </trkpt>
      <trkpt lat="44.74805" lon="6.78527">
        <ele>1535.4</ele>
        <time>2013-09-01T07:30:26Z</time>
      </trkpt>
      <trkpt lat="44.7481" lon="6.78544">
        <ele>1537.3</ele>
        <time>2013-09-01T07:30:36Z</time>
      </trkpt>
      <trkpt lat="44.74823" lon="6.78575">
        <ele>1539.7</ele>
        <time>2013-09-01T07:30:50Z</time>
      </trkpt>
      <trkpt lat="44.74828" lon="6.78588">
        <ele>1540.7</ele>
        <time>2013-09-01T07:30:58Z</time>
      </trkpt>
      <trkpt lat="44.7483" lon="6.7859">
        <ele>1541.1</ele>
        <time>2013-09-01T07:30:59Z</time>
      </trkpt>
      <trkpt lat="44.74835" lon="6.78594">
        <ele>1541.6</ele>
        <time>2013-09-01T07:31:03Z</time>
      </trkpt>
      <trkpt lat="44.74837" lon="6.78595">
        <ele>1542.6</ele>
        <time>2013-09-01T07:31:05Z</time>
      </trkpt>
      <trkpt lat="44.74844" lon="6.78599">
        <ele>1543.5</ele>
        <time>2013-09-01T07:31:09Z</time>
      </trkpt>
      <trkpt lat="44.74879" lon="6.78618">
        <ele>1545.9</ele>
        <time>2013-09-01T07:31:24Z</time>
      </trkpt>
      <trkpt lat="44.74911" lon="6.78653">
        <ele>1546.4</ele>
        <time>2013-09-01T07:31:40Z</time>
      </trkpt>
      <trkpt lat="44.74939" lon="6.78684">
        <ele>1546.9</ele>
        <time>2013-09-01T07:31:53Z</time>
      </trkpt>
      <trkpt lat="44.74958" lon="6.78706">
        <ele>1548.8</ele>
        <time>2013-09-01T07:32:05Z</time>
      </trkpt>
      <trkpt lat="44.74968" lon="6.78733">
        <ele>1551.2</ele>
        <time>2013-09-01T07:32:17Z</time>
      </trkpt>
      <trkpt lat="44.74968" lon="6.78746">
        <ele>1552.7</ele>
        <time>2013-09-01T07:32:22Z</time>
      </trkpt>
      <trkpt lat="44.74965" lon="6.78776">
        <ele>1555.6</ele>
        <time>2013-09-01T07:32:34Z</time>
      </trkpt>
      <trkpt lat="44.74979" lon="6.78802">
        <ele>1557</ele>
        <time>2013-09-01T07:32:45Z</time>
      </trkpt>
      <trkpt lat="44.74989" lon="6.78819">
        <ele>1559.4</ele>
        <time>2013-09-01T07:32:56Z</time>
      </trkpt>
      <trkpt lat="44.74989" lon="6.78821">
        <ele>1559.4</ele>
        <time>2013-09-01T07:32:57Z</time>
      </trkpt>
      <trkpt lat="44.7499" lon="6.78842">
        <ele>1561.3</ele>
        <time>2013-09-01T07:33:08Z</time>
      </trkpt>
      <trkpt lat="44.74983" lon="6.78872">
        <ele>1563.7</ele>
        <time>2013-09-01T07:33:22Z</time>
      </trkpt>
      <trkpt lat="44.74965" lon="6.78885">
        <ele>1566.1</ele>
        <time>2013-09-01T07:33:35Z</time>
      </trkpt>
      <trkpt lat="44.74951" lon="6.78906">
        <ele>1568.5</ele>
        <time>2013-09-01T07:33:47Z</time>
      </trkpt>
      <trkpt lat="44.74944" lon="6.78944">
        <ele>1570.9</ele>
        <time>2013-09-01T07:34:03Z</time>
      </trkpt>
      <trkpt lat="44.7494" lon="6.78972">
        <ele>1571.9</ele>
        <time>2013-09-01T07:34:12Z</time>
      </trkpt>
      <trkpt lat="44.74932" lon="6.79007">
        <ele>1573.8</ele>
        <time>2013-09-01T07:34:25Z</time>
      </trkpt>
      <trkpt lat="44.7493" lon="6.79008">
        <ele>1573.3</ele>
        <time>2013-09-01T07:34:26Z</time>
      </trkpt>
      <trkpt lat="44.74907" lon="6.79011">
        <ele>1575.3</ele>
        <time>2013-09-01T07:34:38Z</time>
      </trkpt>
      <trkpt lat="44.74895" lon="6.79009">
        <ele>1576.7</ele>
        <time>2013-09-01T07:34:44Z</time>
      </trkpt>
      <trkpt lat="44.74867" lon="6.7901">
        <ele>1577.2</ele>
        <time>2013-09-01T07:34:54Z</time>
      </trkpt>
      <trkpt lat="44.74849" lon="6.79006">
        <ele>1578.6</ele>
        <time>2013-09-01T07:35:02Z</time>
      </trkpt>
      <trkpt lat="44.74834" lon="6.79014">
        <ele>1577.7</ele>
        <time>2013-09-01T07:35:07Z</time>
      </trkpt>
      <trkpt lat="44.74823" lon="6.79025">
        <ele>1577.2</ele>
        <time>2013-09-01T07:35:10Z</time>
      </trkpt>
      <trkpt lat="44.74804" lon="6.79058">
        <ele>1579.1</ele>
        <time>2013-09-01T07:35:21Z</time>
      </trkpt>
      <trkpt lat="44.74786" lon="6.79088">
        <ele>1582.5</ele>
        <time>2013-09-01T07:35:34Z</time>
      </trkpt>
      <trkpt lat="44.74756" lon="6.79128">
        <ele>1583.9</ele>
        <time>2013-09-01T07:35:50Z</time>
      </trkpt>
      <trkpt lat="44.74734" lon="6.79175">
        <ele>1586.3</ele>
        <time>2013-09-01T07:36:05Z</time>
      </trkpt>
      <trkpt lat="44.74703" lon="6.79219">
        <ele>1587.8</ele>
        <time>2013-09-01T07:36:20Z</time>
      </trkpt>
      <trkpt lat="44.74687" lon="6.79255">
        <ele>1589.2</ele>
        <time>2013-09-01T07:36:30Z</time>
      </trkpt>
      <trkpt lat="44.74663" lon="6.79288">
        <ele>1590.2</ele>
        <time>2013-09-01T07:36:42Z</time>
      </trkpt>
      <trkpt lat="44.74646" lon="6.79326">
        <ele>1592.6</ele>
        <time>2013-09-01T07:36:55Z</time>
      </trkpt>
      <trkpt lat="44.74647" lon="6.79331">
        <ele>1591.6</ele>
        <time>2013-09-01T07:36:56Z</time>
      </trkpt>
      <trkpt lat="44.74647" lon="6.79367">
        <ele>1593</ele>
        <time>2013-09-01T07:37:06Z</time>
      </trkpt>
      <trkpt lat="44.74648" lon="6.79374">
        <ele>1593</ele>
        <time>2013-09-01T07:37:08Z</time>
      </trkpt>
      <trkpt lat="44.74649" lon="6.79378">
        <ele>1593.5</ele>
        <time>2013-09-01T07:37:09Z</time>
      </trkpt>
      <trkpt lat="44.74647" lon="6.79392">
        <ele>1595</ele>
        <time>2013-09-01T07:37:13Z</time>
      </trkpt>
      <trkpt lat="44.74638" lon="6.79416">
        <ele>1595.9</ele>
        <time>2013-09-01T07:37:21Z</time>
      </trkpt>
      <trkpt lat="44.74626" lon="6.79448">
        <ele>1598.3</ele>
        <time>2013-09-01T07:37:32Z</time>
      </trkpt>
      <trkpt lat="44.74623" lon="6.79482">
        <ele>1598.8</ele>
        <time>2013-09-01T07:37:42Z</time>
      </trkpt>
      <trkpt lat="44.74623" lon="6.79489">
        <ele>1599.8</ele>
        <time>2013-09-01T07:37:44Z</time>
      </trkpt>
      <trkpt lat="44.74622" lon="6.79494">
        <ele>1599.3</ele>
        <time>2013-09-01T07:37:46Z</time>
      </trkpt>
      <trkpt lat="44.74623" lon="6.79497">
        <ele>1600.7</ele>
        <time>2013-09-01T07:37:47Z</time>
      </trkpt>
      <trkpt lat="44.74625" lon="6.7951">
        <ele>1600.7</ele>
        <time>2013-09-01T07:37:51Z</time>
      </trkpt>
      <trkpt lat="44.74625" lon="6.79513">
        <ele>1601.2</ele>
        <time>2013-09-01T07:37:52Z</time>
      </trkpt>
      <trkpt lat="44.74626" lon="6.79532">
        <ele>1602.2</ele>
        <time>2013-09-01T07:37:59Z</time>
      </trkpt>
      <trkpt lat="44.74626" lon="6.79534">
        <ele>1602.2</ele>
        <time>2013-09-01T07:38:00Z</time>
      </trkpt>
      <trkpt lat="44.74626" lon="6.79536">
        <ele>1603.1</ele>
        <time>2013-09-01T07:38:01Z</time>
      </trkpt>
      <trkpt lat="44.74625" lon="6.79543">
        <ele>1603.1</ele>
        <time>2013-09-01T07:38:04Z</time>
      </trkpt>
      <trkpt lat="44.74628" lon="6.79552">
        <ele>1604.1</ele>
        <time>2013-09-01T07:38:08Z</time>
      </trkpt>
      <trkpt lat="44.74645" lon="6.79574">
        <ele>1606</ele>
        <time>2013-09-01T07:38:18Z</time>
      </trkpt>
      <trkpt lat="44.74657" lon="6.79578">
        <ele>1606.5</ele>
        <time>2013-09-01T07:38:24Z</time>
      </trkpt>
      <trkpt lat="44.74673" lon="6.79553">
        <ele>1609.9</ele>
        <time>2013-09-01T07:38:37Z</time>
      </trkpt>
      <trkpt lat="44.74674" lon="6.79551">
        <ele>1609.9</ele>
        <time>2013-09-01T07:38:38Z</time>
      </trkpt>
      <trkpt lat="44.74696" lon="6.79521">
        <ele>1612.3</ele>
        <time>2013-09-01T07:38:55Z</time>
      </trkpt>
      <trkpt lat="44.74714" lon="6.79506">
        <ele>1614.2</ele>
        <time>2013-09-01T07:39:05Z</time>
      </trkpt>
      <trkpt lat="44.74735" lon="6.7949">
        <ele>1616.1</ele>
        <time>2013-09-01T07:39:18Z</time>
      </trkpt>
      <trkpt lat="44.74743" lon="6.79491">
        <ele>1617.6</ele>
        <time>2013-09-01T07:39:23Z</time>
      </trkpt>
      <trkpt lat="44.74744" lon="6.79497">
        <ele>1617.1</ele>
        <time>2013-09-01T07:39:25Z</time>
      </trkpt>
      <trkpt lat="44.74744" lon="6.79499">
        <ele>1617.6</ele>
        <time>2013-09-01T07:39:26Z</time>
      </trkpt>
      <trkpt lat="44.74744" lon="6.79501">
        <ele>1618.5</ele>
        <time>2013-09-01T07:39:27Z</time>
      </trkpt>
      <trkpt lat="44.74726" lon="6.79518">
        <ele>1620</ele>
        <time>2013-09-01T07:39:40Z</time>
      </trkpt>
      <trkpt lat="44.74708" lon="6.79534">
        <ele>1621.9</ele>
        <time>2013-09-01T07:39:51Z</time>
      </trkpt>
      <trkpt lat="44.74707" lon="6.79535">
        <ele>1622.4</ele>
        <time>2013-09-01T07:39:52Z</time>
      </trkpt>
      <trkpt lat="44.74694" lon="6.79561">
        <ele>1624.8</ele>
        <time>2013-09-01T07:40:06Z</time>
      </trkpt>
      <trkpt lat="44.74693" lon="6.79584">
        <ele>1626.7</ele>
        <time>2013-09-01T07:40:17Z</time>
      </trkpt>
      <trkpt lat="44.747" lon="6.79605">
        <ele>1628.1</ele>
        <time>2013-09-01T07:40:24Z</time>
      </trkpt>
      <trkpt lat="44.747" lon="6.7961">
        <ele>1628.1</ele>
        <time>2013-09-01T07:40:26Z</time>
      </trkpt>
      <trkpt lat="44.747" lon="6.79612">
        <ele>1629.1</ele>
        <time>2013-09-01T07:40:27Z</time>
      </trkpt>
      <trkpt lat="44.74702" lon="6.7963">
        <ele>1629.1</ele>
        <time>2013-09-01T07:40:34Z</time>
      </trkpt>
      <trkpt lat="44.747" lon="6.79632">
        <ele>1630.5</ele>
        <time>2013-09-01T07:40:35Z</time>
      </trkpt>
      <trkpt lat="44.74686" lon="6.79653">
        <ele>1632.5</ele>
        <time>2013-09-01T07:40:47Z</time>
      </trkpt>
      <trkpt lat="44.74679" lon="6.79664">
        <ele>1634.4</ele>
        <time>2013-09-01T07:40:54Z</time>
      </trkpt>
      <trkpt lat="44.74679" lon="6.79667">
        <ele>1633.9</ele>
        <time>2013-09-01T07:40:55Z</time>
      </trkpt>
      <trkpt lat="44.74679" lon="6.79674">
        <ele>1635.3</ele>
        <time>2013-09-01T07:40:58Z</time>
      </trkpt>
      <trkpt lat="44.74671" lon="6.79701">
        <ele>1637.3</ele>
        <time>2013-09-01T07:41:12Z</time>
      </trkpt>
      <trkpt lat="44.74661" lon="6.79721">
        <ele>1640.6</ele>
        <time>2013-09-01T07:41:24Z</time>
      </trkpt>
      <trkpt lat="44.74645" lon="6.79733">
        <ele>1642.6</ele>
        <time>2013-09-01T07:41:37Z</time>
      </trkpt>
      <trkpt lat="44.74629" lon="6.79743">
        <ele>1644.5</ele>
        <time>2013-09-01T07:41:49Z</time>
      </trkpt>
      <trkpt lat="44.74602" lon="6.79746">
        <ele>1647.8</ele>
        <time>2013-09-01T07:42:04Z</time>
      </trkpt>
      <trkpt lat="44.746" lon="6.79747">
        <ele>1647.8</ele>
        <time>2013-09-01T07:42:05Z</time>
      </trkpt>
      <trkpt lat="44.74585" lon="6.79747">
        <ele>1650.7</ele>
        <time>2013-09-01T07:42:15Z</time>
      </trkpt>
      <trkpt lat="44.7456" lon="6.79747">
        <ele>1653.6</ele>
        <time>2013-09-01T07:42:35Z</time>
      </trkpt>
      <trkpt lat="44.74549" lon="6.79745">
        <ele>1655.1</ele>
        <time>2013-09-01T07:42:44Z</time>
      </trkpt>
      <trkpt lat="44.74546" lon="6.79746">
        <ele>1656.5</ele>
        <time>2013-09-01T07:42:47Z</time>
      </trkpt>
      <trkpt lat="44.74533" lon="6.79757">
        <ele>1657.9</ele>
        <time>2013-09-01T07:42:57Z</time>
      </trkpt>
      <trkpt lat="44.74532" lon="6.79762">
        <ele>1658.4</ele>
        <time>2013-09-01T07:43:00Z</time>
      </trkpt>
      <trkpt lat="44.7455" lon="6.79768">
        <ele>1660.8</ele>
        <time>2013-09-01T07:43:13Z</time>
      </trkpt>
      <trkpt lat="44.74572" lon="6.79772">
        <ele>1662.3</ele>
        <time>2013-09-01T07:43:26Z</time>
      </trkpt>
      <trkpt lat="44.7459" lon="6.79784">
        <ele>1665.6</ele>
        <time>2013-09-01T07:43:40Z</time>
      </trkpt>
      <trkpt lat="44.74595" lon="6.79788">
        <ele>1666.1</ele>
        <time>2013-09-01T07:43:44Z</time>
      </trkpt>
      <trkpt lat="44.746" lon="6.79794">
        <ele>1667.1</ele>
        <time>2013-09-01T07:43:48Z</time>
      </trkpt>
      <trkpt lat="44.74624" lon="6.79814">
        <ele>1669</ele>
        <time>2013-09-01T07:44:04Z</time>
      </trkpt>
      <trkpt lat="44.74648" lon="6.79807">
        <ele>1672.4</ele>
        <time>2013-09-01T07:44:17Z</time>
      </trkpt>
      <trkpt lat="44.7466" lon="6.79799">
        <ele>1674.8</ele>
        <time>2013-09-01T07:44:27Z</time>
      </trkpt>
      <trkpt lat="44.74685" lon="6.79793">
        <ele>1677.6</ele>
        <time>2013-09-01T07:44:43Z</time>
      </trkpt>
      <trkpt lat="44.74688" lon="6.798">
        <ele>1678.6</ele>
        <time>2013-09-01T07:44:46Z</time>
      </trkpt>
      <trkpt lat="44.74688" lon="6.79802">
        <ele>1678.1</ele>
        <time>2013-09-01T07:44:47Z</time>
      </trkpt>
      <trkpt lat="44.74685" lon="6.79804">
        <ele>1679.1</ele>
        <time>2013-09-01T07:44:49Z</time>
      </trkpt>
      <trkpt lat="44.74684" lon="6.79804">
        <ele>1679.6</ele>
        <time>2013-09-01T07:44:50Z</time>
      </trkpt>
      <trkpt lat="44.74682" lon="6.79805">
        <ele>1678.6</ele>
        <time>2013-09-01T07:44:51Z</time>
      </trkpt>
      <trkpt lat="44.74681" lon="6.79805">
        <ele>1679.1</ele>
        <time>2013-09-01T07:44:52Z</time>
      </trkpt>
      <trkpt lat="44.74679" lon="6.79806">
        <ele>1679.1</ele>
        <time>2013-09-01T07:44:53Z</time>
      </trkpt>
      <trkpt lat="44.74677" lon="6.79807">
        <ele>1679.1</ele>
        <time>2013-09-01T07:44:54Z</time>
      </trkpt>
      <trkpt lat="44.74675" lon="6.79808">
        <ele>1679.6</ele>
        <time>2013-09-01T07:44:55Z</time>
      </trkpt>
      <trkpt lat="44.74674" lon="6.79809">
        <ele>1679.1</ele>
        <time>2013-09-01T07:44:56Z</time>
      </trkpt>
      <trkpt lat="44.74672" lon="6.7981">
        <ele>1680</ele>
        <time>2013-09-01T07:44:57Z</time>
      </trkpt>
      <trkpt lat="44.74671" lon="6.79811">
        <ele>1680</ele>
        <time>2013-09-01T07:44:58Z</time>
      </trkpt>
      <trkpt lat="44.74663" lon="6.79821">
        <ele>1681</ele>
        <time>2013-09-01T07:45:04Z</time>
      </trkpt>
      <trkpt lat="44.74662" lon="6.79822">
        <ele>1681.5</ele>
        <time>2013-09-01T07:45:05Z</time>
      </trkpt>
      <trkpt lat="44.7466" lon="6.79823">
        <ele>1680.5</ele>
        <time>2013-09-01T07:45:06Z</time>
      </trkpt>
      <trkpt lat="44.74648" lon="6.7984">
        <ele>1683.4</ele>
        <time>2013-09-01T07:45:17Z</time>
      </trkpt>
      <trkpt lat="44.74641" lon="6.79851">
        <ele>1685.3</ele>
        <time>2013-09-01T07:45:24Z</time>
      </trkpt>
      <trkpt lat="44.74624" lon="6.7986">
        <ele>1686.8</ele>
        <time>2013-09-01T07:45:38Z</time>
      </trkpt>
      <trkpt lat="44.74621" lon="6.79861">
        <ele>1689.2</ele>
        <time>2013-09-01T07:45:42Z</time>
      </trkpt>
      <trkpt lat="44.7462" lon="6.7986">
        <ele>1689.2</ele>
        <time>2013-09-01T07:45:43Z</time>
      </trkpt>
      <trkpt lat="44.74607" lon="6.79854">
        <ele>1690.6</ele>
        <time>2013-09-01T07:45:55Z</time>
      </trkpt>
      <trkpt lat="44.74587" lon="6.79848">
        <ele>1694</ele>
        <time>2013-09-01T07:46:08Z</time>
      </trkpt>
      <trkpt lat="44.74577" lon="6.79853">
        <ele>1694.5</ele>
        <time>2013-09-01T07:46:15Z</time>
      </trkpt>
      <trkpt lat="44.74576" lon="6.79854">
        <ele>1695.4</ele>
        <time>2013-09-01T07:46:16Z</time>
      </trkpt>
      <trkpt lat="44.74568" lon="6.79876">
        <ele>1697.3</ele>
        <time>2013-09-01T07:46:29Z</time>
      </trkpt>
      <trkpt lat="44.74565" lon="6.79886">
        <ele>1698.8</ele>
        <time>2013-09-01T07:46:34Z</time>
      </trkpt>
      <trkpt lat="44.74562" lon="6.79896">
        <ele>1699.8</ele>
        <time>2013-09-01T07:46:40Z</time>
      </trkpt>
      <trkpt lat="44.74558" lon="6.79909">
        <ele>1700.7</ele>
        <time>2013-09-01T07:46:47Z</time>
      </trkpt>
      <trkpt lat="44.74556" lon="6.79921">
        <ele>1702.2</ele>
        <time>2013-09-01T07:46:54Z</time>
      </trkpt>
      <trkpt lat="44.74547" lon="6.79939">
        <ele>1704.1</ele>
        <time>2013-09-01T07:47:05Z</time>
      </trkpt>
      <trkpt lat="44.7454" lon="6.79947">
        <ele>1704.1</ele>
        <time>2013-09-01T07:47:10Z</time>
      </trkpt>
      <trkpt lat="44.7454" lon="6.7995">
        <ele>1705.5</ele>
        <time>2013-09-01T07:47:12Z</time>
      </trkpt>
      <trkpt lat="44.74526" lon="6.79962">
        <ele>1707</ele>
        <time>2013-09-01T07:47:23Z</time>
      </trkpt>
      <trkpt lat="44.74513" lon="6.79974">
        <ele>1708.9</ele>
        <time>2013-09-01T07:47:35Z</time>
      </trkpt>
      <trkpt lat="44.74512" lon="6.79974">
        <ele>1709.8</ele>
        <time>2013-09-01T07:47:36Z</time>
      </trkpt>
      <trkpt lat="44.74494" lon="6.79988">
        <ele>1710.3</ele>
        <time>2013-09-01T07:47:50Z</time>
      </trkpt>
      <trkpt lat="44.74491" lon="6.79988">
        <ele>1711.8</ele>
        <time>2013-09-01T07:48:02Z</time>
      </trkpt>
      <trkpt lat="44.7449" lon="6.8001">
        <ele>1711.3</ele>
        <time>2013-09-01T07:48:34Z</time>
      </trkpt>
      <trkpt lat="44.74466" lon="6.79984">
        <ele>1711.8</ele>
        <time>2013-09-01T07:48:59Z</time>
      </trkpt>
      <trkpt lat="44.74457" lon="6.79972">
        <ele>1712.3</ele>
        <time>2013-09-01T07:49:11Z</time>
      </trkpt>
      <trkpt lat="44.74445" lon="6.79955">
        <ele>1714.7</ele>
        <time>2013-09-01T07:49:24Z</time>
      </trkpt>
      <trkpt lat="44.74438" lon="6.79938">
        <ele>1714.7</ele>
        <time>2013-09-01T07:49:37Z</time>
      </trkpt>
      <trkpt lat="44.74431" lon="6.79923">
        <ele>1717.1</ele>
        <time>2013-09-01T07:49:47Z</time>
      </trkpt>
      <trkpt lat="44.74431" lon="6.79919">
        <ele>1717.1</ele>
        <time>2013-09-01T07:49:50Z</time>
      </trkpt>
      <trkpt lat="44.74416" lon="6.79902">
        <ele>1718.5</ele>
        <time>2013-09-01T07:50:08Z</time>
      </trkpt>
      <trkpt lat="44.74404" lon="6.79897">
        <ele>1719.5</ele>
        <time>2013-09-01T07:50:22Z</time>
      </trkpt>
      <trkpt lat="44.74397" lon="6.79896">
        <ele>1720.9</ele>
        <time>2013-09-01T07:50:29Z</time>
      </trkpt>
      <trkpt lat="44.74379" lon="6.79892">
        <ele>1722.3</ele>
        <time>2013-09-01T07:50:48Z</time>
      </trkpt>
      <trkpt lat="44.74364" lon="6.79881">
        <ele>1724.7</ele>
        <time>2013-09-01T07:51:05Z</time>
      </trkpt>
      <trkpt lat="44.74351" lon="6.79871">
        <ele>1726.7</ele>
        <time>2013-09-01T07:51:21Z</time>
      </trkpt>
      <trkpt lat="44.74337" lon="6.79858">
        <ele>1727.6</ele>
        <time>2013-09-01T07:51:37Z</time>
      </trkpt>
      <trkpt lat="44.74333" lon="6.79848">
        <ele>1728.6</ele>
        <time>2013-09-01T07:51:51Z</time>
      </trkpt>
      <trkpt lat="44.74331" lon="6.79845">
        <ele>1729.6</ele>
        <time>2013-09-01T07:51:53Z</time>
      </trkpt>
      <trkpt lat="44.74312" lon="6.79819">
        <ele>1732.4</ele>
        <time>2013-09-01T07:52:10Z</time>
      </trkpt>
      <trkpt lat="44.74307" lon="6.79816">
        <ele>1732.9</ele>
        <time>2013-09-01T07:52:14Z</time>
      </trkpt>
      <trkpt lat="44.74289" lon="6.79818">
        <ele>1734.8</ele>
        <time>2013-09-01T07:52:26Z</time>
      </trkpt>
      <trkpt lat="44.7427" lon="6.79828">
        <ele>1737.2</ele>
        <time>2013-09-01T07:52:39Z</time>
      </trkpt>
      <trkpt lat="44.74248" lon="6.79841">
        <ele>1739.2</ele>
        <time>2013-09-01T07:52:53Z</time>
      </trkpt>
      <trkpt lat="44.74242" lon="6.79843">
        <ele>1739.2</ele>
        <time>2013-09-01T07:52:56Z</time>
      </trkpt>
      <trkpt lat="44.7422" lon="6.7984">
        <ele>1742.5</ele>
        <time>2013-09-01T07:53:10Z</time>
      </trkpt>
      <trkpt lat="44.74201" lon="6.79833">
        <ele>1744.5</ele>
        <time>2013-09-01T07:53:21Z</time>
      </trkpt>
      <trkpt lat="44.74199" lon="6.79832">
        <ele>1744.5</ele>
        <time>2013-09-01T07:53:22Z</time>
      </trkpt>
      <trkpt lat="44.74181" lon="6.79815">
        <ele>1746.9</ele>
        <time>2013-09-01T07:53:37Z</time>
      </trkpt>
      <trkpt lat="44.74164" lon="6.79801">
        <ele>1749.3</ele>
        <time>2013-09-01T07:53:49Z</time>
      </trkpt>
      <trkpt lat="44.74147" lon="6.79788">
        <ele>1750.7</ele>
        <time>2013-09-01T07:54:01Z</time>
      </trkpt>
      <trkpt lat="44.74128" lon="6.79772">
        <ele>1752.6</ele>
        <time>2013-09-01T07:54:14Z</time>
      </trkpt>
      <trkpt lat="44.74112" lon="6.79761">
        <ele>1756</ele>
        <time>2013-09-01T07:54:24Z</time>
      </trkpt>
      <trkpt lat="44.74108" lon="6.7976">
        <ele>1755.5</ele>
        <time>2013-09-01T07:54:27Z</time>
      </trkpt>
      <trkpt lat="44.74106" lon="6.7976">
        <ele>1756.5</ele>
        <time>2013-09-01T07:54:28Z</time>
      </trkpt>
      <trkpt lat="44.74105" lon="6.79761">
        <ele>1756</ele>
        <time>2013-09-01T07:54:29Z</time>
      </trkpt>
      <trkpt lat="44.74104" lon="6.79762">
        <ele>1756.5</ele>
        <time>2013-09-01T07:54:30Z</time>
      </trkpt>
      <trkpt lat="44.74103" lon="6.79764">
        <ele>1757</ele>
        <time>2013-09-01T07:54:31Z</time>
      </trkpt>
      <trkpt lat="44.74108" lon="6.79784">
        <ele>1759.4</ele>
        <time>2013-09-01T07:54:43Z</time>
      </trkpt>
      <trkpt lat="44.74129" lon="6.79809">
        <ele>1760.8</ele>
        <time>2013-09-01T07:55:00Z</time>
      </trkpt>
      <trkpt lat="44.7413" lon="6.79812">
        <ele>1761.3</ele>
        <time>2013-09-01T07:55:02Z</time>
      </trkpt>
      <trkpt lat="44.74131" lon="6.79814">
        <ele>1762.2</ele>
        <time>2013-09-01T07:55:03Z</time>
      </trkpt>
      <trkpt lat="44.74132" lon="6.79816">
        <ele>1763.2</ele>
        <time>2013-09-01T07:55:04Z</time>
      </trkpt>
      <trkpt lat="44.74132" lon="6.79817">
        <ele>1762.2</ele>
        <time>2013-09-01T07:55:05Z</time>
      </trkpt>
      <trkpt lat="44.74133" lon="6.79819">
        <ele>1762.7</ele>
        <time>2013-09-01T07:55:06Z</time>
      </trkpt>
      <trkpt lat="44.74144" lon="6.79834">
        <ele>1764.6</ele>
        <time>2013-09-01T07:55:17Z</time>
      </trkpt>
      <trkpt lat="44.74151" lon="6.79852">
        <ele>1766.1</ele>
        <time>2013-09-01T07:55:28Z</time>
      </trkpt>
      <trkpt lat="44.74152" lon="6.79854">
        <ele>1766.6</ele>
        <time>2013-09-01T07:55:29Z</time>
      </trkpt>
      <trkpt lat="44.74154" lon="6.79857">
        <ele>1767</ele>
        <time>2013-09-01T07:55:30Z</time>
      </trkpt>
      <trkpt lat="44.74154" lon="6.79858">
        <ele>1767</ele>
        <time>2013-09-01T07:55:31Z</time>
      </trkpt>
      <trkpt lat="44.74155" lon="6.7986">
        <ele>1766.6</ele>
        <time>2013-09-01T07:55:32Z</time>
      </trkpt>
      <trkpt lat="44.74156" lon="6.79862">
        <ele>1767.5</ele>
        <time>2013-09-01T07:55:33Z</time>
      </trkpt>
      <trkpt lat="44.74156" lon="6.79865">
        <ele>1767.5</ele>
        <time>2013-09-01T07:55:34Z</time>
      </trkpt>
      <trkpt lat="44.74156" lon="6.79867">
        <ele>1768</ele>
        <time>2013-09-01T07:55:35Z</time>
      </trkpt>
      <trkpt lat="44.74156" lon="6.79869">
        <ele>1768.5</ele>
        <time>2013-09-01T07:55:36Z</time>
      </trkpt>
      <trkpt lat="44.74157" lon="6.79871">
        <ele>1768</ele>
        <time>2013-09-01T07:55:37Z</time>
      </trkpt>
      <trkpt lat="44.74157" lon="6.79873">
        <ele>1768</ele>
        <time>2013-09-01T07:55:38Z</time>
      </trkpt>
      <trkpt lat="44.74158" lon="6.79875">
        <ele>1769</ele>
        <time>2013-09-01T07:55:39Z</time>
      </trkpt>
      <trkpt lat="44.74158" lon="6.79877">
        <ele>1769</ele>
        <time>2013-09-01T07:55:40Z</time>
      </trkpt>
      <trkpt lat="44.74158" lon="6.79879">
        <ele>1769</ele>
        <time>2013-09-01T07:55:41Z</time>
      </trkpt>
      <trkpt lat="44.74159" lon="6.7988">
        <ele>1768</ele>
        <time>2013-09-01T07:55:42Z</time>
      </trkpt>
      <trkpt lat="44.74159" lon="6.79882">
        <ele>1769</ele>
        <time>2013-09-01T07:55:43Z</time>
      </trkpt>
      <trkpt lat="44.74159" lon="6.79887">
        <ele>1769</ele>
        <time>2013-09-01T07:55:46Z</time>
      </trkpt>
      <trkpt lat="44.74159" lon="6.79889">
        <ele>1769</ele>
        <time>2013-09-01T07:55:47Z</time>
      </trkpt>
      <trkpt lat="44.7416" lon="6.79891">
        <ele>1770.4</ele>
        <time>2013-09-01T07:55:48Z</time>
      </trkpt>
      <trkpt lat="44.74161" lon="6.79893">
        <ele>1769.9</ele>
        <time>2013-09-01T07:55:49Z</time>
      </trkpt>
      <trkpt lat="44.74162" lon="6.79896">
        <ele>1770.4</ele>
        <time>2013-09-01T07:55:50Z</time>
      </trkpt>
      <trkpt lat="44.74163" lon="6.79898">
        <ele>1769.9</ele>
        <time>2013-09-01T07:55:51Z</time>
      </trkpt>
      <trkpt lat="44.74164" lon="6.799">
        <ele>1770.9</ele>
        <time>2013-09-01T07:55:52Z</time>
      </trkpt>
      <trkpt lat="44.74166" lon="6.79905">
        <ele>1771.9</ele>
        <time>2013-09-01T07:55:55Z</time>
      </trkpt>
      <trkpt lat="44.74168" lon="6.79907">
        <ele>1770.9</ele>
        <time>2013-09-01T07:55:56Z</time>
      </trkpt>
      <trkpt lat="44.74187" lon="6.79925">
        <ele>1773.3</ele>
        <time>2013-09-01T07:56:09Z</time>
      </trkpt>
      <trkpt lat="44.74188" lon="6.79926">
        <ele>1773.8</ele>
        <time>2013-09-01T07:56:10Z</time>
      </trkpt>
      <trkpt lat="44.74208" lon="6.79936">
        <ele>1775.7</ele>
        <time>2013-09-01T07:56:23Z</time>
      </trkpt>
      <trkpt lat="44.74231" lon="6.79935">
        <ele>1778.6</ele>
        <time>2013-09-01T07:56:36Z</time>
      </trkpt>
      <trkpt lat="44.74251" lon="6.7994">
        <ele>1780.5</ele>
        <time>2013-09-01T07:56:50Z</time>
      </trkpt>
      <trkpt lat="44.74274" lon="6.79952">
        <ele>1782.4</ele>
        <time>2013-09-01T07:57:03Z</time>
      </trkpt>
      <trkpt lat="44.74276" lon="6.79955">
        <ele>1782.9</ele>
        <time>2013-09-01T07:57:05Z</time>
      </trkpt>
      <trkpt lat="44.74279" lon="6.79962">
        <ele>1783.9</ele>
        <time>2013-09-01T07:57:09Z</time>
      </trkpt>
      <trkpt lat="44.74292" lon="6.7998">
        <ele>1786.3</ele>
        <time>2013-09-01T07:57:21Z</time>
      </trkpt>
      <trkpt lat="44.74303" lon="6.79986">
        <ele>1786.8</ele>
        <time>2013-09-01T07:57:27Z</time>
      </trkpt>
      <trkpt lat="44.74328" lon="6.80007">
        <ele>1788.7</ele>
        <time>2013-09-01T07:57:43Z</time>
      </trkpt>
      <trkpt lat="44.74333" lon="6.80012">
        <ele>1789.6</ele>
        <time>2013-09-01T07:57:46Z</time>
      </trkpt>
      <trkpt lat="44.74345" lon="6.80038">
        <ele>1792</ele>
        <time>2013-09-01T07:58:00Z</time>
      </trkpt>
      <trkpt lat="44.7435" lon="6.80059">
        <ele>1793</ele>
        <time>2013-09-01T07:58:10Z</time>
      </trkpt>
      <trkpt lat="44.74351" lon="6.80063">
        <ele>1794</ele>
        <time>2013-09-01T07:58:12Z</time>
      </trkpt>
      <trkpt lat="44.74359" lon="6.80093">
        <ele>1795.9</ele>
        <time>2013-09-01T07:58:23Z</time>
      </trkpt>
      <trkpt lat="44.74359" lon="6.80094">
        <ele>1795.9</ele>
        <time>2013-09-01T07:58:24Z</time>
      </trkpt>
      <trkpt lat="44.74359" lon="6.80096">
        <ele>1796.4</ele>
        <time>2013-09-01T07:58:25Z</time>
      </trkpt>
      <trkpt lat="44.74362" lon="6.80116">
        <ele>1798.3</ele>
        <time>2013-09-01T07:58:35Z</time>
      </trkpt>
      <trkpt lat="44.74362" lon="6.80118">
        <ele>1797.8</ele>
        <time>2013-09-01T07:58:36Z</time>
      </trkpt>
      <trkpt lat="44.74362" lon="6.8012">
        <ele>1798.3</ele>
        <time>2013-09-01T07:58:37Z</time>
      </trkpt>
      <trkpt lat="44.74362" lon="6.80122">
        <ele>1798.3</ele>
        <time>2013-09-01T07:58:38Z</time>
      </trkpt>
      <trkpt lat="44.74363" lon="6.80124">
        <ele>1798.3</ele>
        <time>2013-09-01T07:58:39Z</time>
      </trkpt>
      <trkpt lat="44.74363" lon="6.80126">
        <ele>1798.3</ele>
        <time>2013-09-01T07:58:40Z</time>
      </trkpt>
      <trkpt lat="44.74364" lon="6.80128">
        <ele>1798.8</ele>
        <time>2013-09-01T07:58:41Z</time>
      </trkpt>
      <trkpt lat="44.74364" lon="6.8013">
        <ele>1799.2</ele>
        <time>2013-09-01T07:58:42Z</time>
      </trkpt>
      <trkpt lat="44.74365" lon="6.80134">
        <ele>1799.2</ele>
        <time>2013-09-01T07:58:44Z</time>
      </trkpt>
      <trkpt lat="44.74365" lon="6.80136">
        <ele>1799.7</ele>
        <time>2013-09-01T07:58:45Z</time>
      </trkpt>
      <trkpt lat="44.74365" lon="6.80138">
        <ele>1799.2</ele>
        <time>2013-09-01T07:58:46Z</time>
      </trkpt>
      <trkpt lat="44.74365" lon="6.80141">
        <ele>1799.2</ele>
        <time>2013-09-01T07:58:47Z</time>
      </trkpt>
      <trkpt lat="44.74366" lon="6.80143">
        <ele>1799.7</ele>
        <time>2013-09-01T07:58:48Z</time>
      </trkpt>
      <trkpt lat="44.74366" lon="6.80145">
        <ele>1800.2</ele>
        <time>2013-09-01T07:58:49Z</time>
      </trkpt>
      <trkpt lat="44.74366" lon="6.80148">
        <ele>1799.7</ele>
        <time>2013-09-01T07:58:50Z</time>
      </trkpt>
      <trkpt lat="44.74366" lon="6.8015">
        <ele>1800.2</ele>
        <time>2013-09-01T07:58:51Z</time>
      </trkpt>
      <trkpt lat="44.74367" lon="6.80161">
        <ele>1801.7</ele>
        <time>2013-09-01T07:58:57Z</time>
      </trkpt>
      <trkpt lat="44.74367" lon="6.80162">
        <ele>1801.7</ele>
        <time>2013-09-01T07:58:58Z</time>
      </trkpt>
      <trkpt lat="44.74368" lon="6.80164">
        <ele>1802.1</ele>
        <time>2013-09-01T07:58:59Z</time>
      </trkpt>
      <trkpt lat="44.74369" lon="6.80167">
        <ele>1801.7</ele>
        <time>2013-09-01T07:59:00Z</time>
      </trkpt>
      <trkpt lat="44.74369" lon="6.80169">
        <ele>1801.2</ele>
        <time>2013-09-01T07:59:01Z</time>
      </trkpt>
      <trkpt lat="44.74378" lon="6.80194">
        <ele>1803.6</ele>
        <time>2013-09-01T07:59:13Z</time>
      </trkpt>
      <trkpt lat="44.744" lon="6.80213">
        <ele>1806.9</ele>
        <time>2013-09-01T07:59:29Z</time>
      </trkpt>
      <trkpt lat="44.74413" lon="6.80217">
        <ele>1808.4</ele>
        <time>2013-09-01T07:59:37Z</time>
      </trkpt>
      <trkpt lat="44.74424" lon="6.80238">
        <ele>1810.3</ele>
        <time>2013-09-01T07:59:48Z</time>
      </trkpt>
      <trkpt lat="44.74433" lon="6.80264">
        <ele>1812.7</ele>
        <time>2013-09-01T08:00:02Z</time>
      </trkpt>
      <trkpt lat="44.74446" lon="6.80284">
        <ele>1814.6</ele>
        <time>2013-09-01T08:00:14Z</time>
      </trkpt>
      <trkpt lat="44.74464" lon="6.80293">
        <ele>1816.6</ele>
        <time>2013-09-01T08:00:27Z</time>
      </trkpt>
      <trkpt lat="44.7447" lon="6.80286">
        <ele>1818</ele>
        <time>2013-09-01T08:00:32Z</time>
      </trkpt>
      <trkpt lat="44.74472" lon="6.80283">
        <ele>1818</ele>
        <time>2013-09-01T08:00:34Z</time>
      </trkpt>
      <trkpt lat="44.74484" lon="6.80261">
        <ele>1819.9</ele>
        <time>2013-09-01T08:00:47Z</time>
      </trkpt>
      <trkpt lat="44.74503" lon="6.80242">
        <ele>1821.8</ele>
        <time>2013-09-01T08:00:59Z</time>
      </trkpt>
      <trkpt lat="44.74523" lon="6.80222">
        <ele>1824.2</ele>
        <time>2013-09-01T08:01:15Z</time>
      </trkpt>
      <trkpt lat="44.7454" lon="6.80203">
        <ele>1826.6</ele>
        <time>2013-09-01T08:01:28Z</time>
      </trkpt>
      <trkpt lat="44.74563" lon="6.80182">
        <ele>1829.5</ele>
        <time>2013-09-01T08:01:43Z</time>
      </trkpt>
      <trkpt lat="44.74582" lon="6.80185">
        <ele>1831.5</ele>
        <time>2013-09-01T08:01:55Z</time>
      </trkpt>
      <trkpt lat="44.74611" lon="6.80186">
        <ele>1834.3</ele>
        <time>2013-09-01T08:02:12Z</time>
      </trkpt>
      <trkpt lat="44.7462" lon="6.80179">
        <ele>1836.3</ele>
        <time>2013-09-01T08:02:19Z</time>
      </trkpt>
      <trkpt lat="44.74637" lon="6.80154">
        <ele>1837.2</ele>
        <time>2013-09-01T08:02:34Z</time>
      </trkpt>
      <trkpt lat="44.74659" lon="6.80142">
        <ele>1840.6</ele>
        <time>2013-09-01T08:02:49Z</time>
      </trkpt>
      <trkpt lat="44.74679" lon="6.80135">
        <ele>1842</ele>
        <time>2013-09-01T08:03:02Z</time>
      </trkpt>
      <trkpt lat="44.74691" lon="6.80129">
        <ele>1843.5</ele>
        <time>2013-09-01T08:03:10Z</time>
      </trkpt>
      <trkpt lat="44.74712" lon="6.80116">
        <ele>1846.8</ele>
        <time>2013-09-01T08:03:24Z</time>
      </trkpt>
      <trkpt lat="44.74714" lon="6.80115">
        <ele>1846.8</ele>
        <time>2013-09-01T08:03:25Z</time>
      </trkpt>
      <trkpt lat="44.74734" lon="6.80102">
        <ele>1848.8</ele>
        <time>2013-09-01T08:03:39Z</time>
      </trkpt>
      <trkpt lat="44.74756" lon="6.80103">
        <ele>1852.1</ele>
        <time>2013-09-01T08:03:53Z</time>
      </trkpt>
      <trkpt lat="44.74777" lon="6.80116">
        <ele>1854.5</ele>
        <time>2013-09-01T08:04:07Z</time>
      </trkpt>
      <trkpt lat="44.74785" lon="6.80122">
        <ele>1855</ele>
        <time>2013-09-01T08:04:14Z</time>
      </trkpt>
      <trkpt lat="44.74807" lon="6.80124">
        <ele>1857.4</ele>
        <time>2013-09-01T08:04:27Z</time>
      </trkpt>
      <trkpt lat="44.74826" lon="6.80107">
        <ele>1859.3</ele>
        <time>2013-09-01T08:04:41Z</time>
      </trkpt>
      <trkpt lat="44.74827" lon="6.80106">
        <ele>1860.3</ele>
        <time>2013-09-01T08:04:42Z</time>
      </trkpt>
      <trkpt lat="44.74846" lon="6.80082">
        <ele>1862.7</ele>
        <time>2013-09-01T08:04:56Z</time>
      </trkpt>
      <trkpt lat="44.74862" lon="6.80057">
        <ele>1865.6</ele>
        <time>2013-09-01T08:05:10Z</time>
      </trkpt>
      <trkpt lat="44.74877" lon="6.80023">
        <ele>1868.5</ele>
        <time>2013-09-01T08:05:27Z</time>
      </trkpt>
      <trkpt lat="44.74897" lon="6.80034">
        <ele>1870.4</ele>
        <time>2013-09-01T08:05:41Z</time>
      </trkpt>
      <trkpt lat="44.74907" lon="6.80061">
        <ele>1872.3</ele>
        <time>2013-09-01T08:05:53Z</time>
      </trkpt>
      <trkpt lat="44.74907" lon="6.80063">
        <ele>1872.8</ele>
        <time>2013-09-01T08:05:54Z</time>
      </trkpt>
      <trkpt lat="44.74908" lon="6.80065">
        <ele>1872.8</ele>
        <time>2013-09-01T08:05:55Z</time>
      </trkpt>
      <trkpt lat="44.74908" lon="6.80067">
        <ele>1872.8</ele>
        <time>2013-09-01T08:05:56Z</time>
      </trkpt>
      <trkpt lat="44.74908" lon="6.8007">
        <ele>1873.8</ele>
        <time>2013-09-01T08:05:57Z</time>
      </trkpt>
      <trkpt lat="44.7491" lon="6.80093">
        <ele>1875.2</ele>
        <time>2013-09-01T08:06:08Z</time>
      </trkpt>
      <trkpt lat="44.74911" lon="6.80097">
        <ele>1875.2</ele>
        <time>2013-09-01T08:06:10Z</time>
      </trkpt>
      <trkpt lat="44.74911" lon="6.80099">
        <ele>1875.2</ele>
        <time>2013-09-01T08:06:11Z</time>
      </trkpt>
      <trkpt lat="44.74912" lon="6.80101">
        <ele>1875.7</ele>
        <time>2013-09-01T08:06:12Z</time>
      </trkpt>
      <trkpt lat="44.74912" lon="6.80104">
        <ele>1876.2</ele>
        <time>2013-09-01T08:06:13Z</time>
      </trkpt>
      <trkpt lat="44.74912" lon="6.80112">
        <ele>1876.6</ele>
        <time>2013-09-01T08:06:17Z</time>
      </trkpt>
      <trkpt lat="44.74915" lon="6.80131">
        <ele>1877.6</ele>
        <time>2013-09-01T08:06:25Z</time>
      </trkpt>
      <trkpt lat="44.74916" lon="6.80133">
        <ele>1878.6</ele>
        <time>2013-09-01T08:06:26Z</time>
      </trkpt>
      <trkpt lat="44.74916" lon="6.80136">
        <ele>1878.6</ele>
        <time>2013-09-01T08:06:27Z</time>
      </trkpt>
      <trkpt lat="44.74915" lon="6.80139">
        <ele>1878.6</ele>
        <time>2013-09-01T08:06:28Z</time>
      </trkpt>
      <trkpt lat="44.74915" lon="6.80141">
        <ele>1878.6</ele>
        <time>2013-09-01T08:06:29Z</time>
      </trkpt>
      <trkpt lat="44.74914" lon="6.80143">
        <ele>1878.6</ele>
        <time>2013-09-01T08:06:30Z</time>
      </trkpt>
      <trkpt lat="44.74913" lon="6.80146">
        <ele>1879</ele>
        <time>2013-09-01T08:06:31Z</time>
      </trkpt>
      <trkpt lat="44.74913" lon="6.80149">
        <ele>1879</ele>
        <time>2013-09-01T08:06:32Z</time>
      </trkpt>
      <trkpt lat="44.74912" lon="6.80152">
        <ele>1879.5</ele>
        <time>2013-09-01T08:06:33Z</time>
      </trkpt>
      <trkpt lat="44.74911" lon="6.80155">
        <ele>1880</ele>
        <time>2013-09-01T08:06:34Z</time>
      </trkpt>
      <trkpt lat="44.74911" lon="6.80157">
        <ele>1879.5</ele>
        <time>2013-09-01T08:06:35Z</time>
      </trkpt>
      <trkpt lat="44.7491" lon="6.80159">
        <ele>1879.5</ele>
        <time>2013-09-01T08:06:36Z</time>
      </trkpt>
      <trkpt lat="44.74909" lon="6.80161">
        <ele>1880.5</ele>
        <time>2013-09-01T08:06:37Z</time>
      </trkpt>
      <trkpt lat="44.74908" lon="6.80162">
        <ele>1880.5</ele>
        <time>2013-09-01T08:06:38Z</time>
      </trkpt>
      <trkpt lat="44.74907" lon="6.80164">
        <ele>1880.5</ele>
        <time>2013-09-01T08:06:39Z</time>
      </trkpt>
      <trkpt lat="44.74906" lon="6.80167">
        <ele>1880.5</ele>
        <time>2013-09-01T08:06:40Z</time>
      </trkpt>
      <trkpt lat="44.74906" lon="6.8017">
        <ele>1880.5</ele>
        <time>2013-09-01T08:06:41Z</time>
      </trkpt>
      <trkpt lat="44.74903" lon="6.8018">
        <ele>1881.4</ele>
        <time>2013-09-01T08:06:45Z</time>
      </trkpt>
      <trkpt lat="44.74902" lon="6.80182">
        <ele>1881.9</ele>
        <time>2013-09-01T08:06:46Z</time>
      </trkpt>
      <trkpt lat="44.74899" lon="6.80225">
        <ele>1883.8</ele>
        <time>2013-09-01T08:06:59Z</time>
      </trkpt>
      <trkpt lat="44.74899" lon="6.80265">
        <ele>1886.7</ele>
        <time>2013-09-01T08:07:15Z</time>
      </trkpt>
      <trkpt lat="44.74901" lon="6.80276">
        <ele>1886.7</ele>
        <time>2013-09-01T08:07:19Z</time>
      </trkpt>
      <trkpt lat="44.74901" lon="6.80279">
        <ele>1887.2</ele>
        <time>2013-09-01T08:07:20Z</time>
      </trkpt>
      <trkpt lat="44.749" lon="6.80282">
        <ele>1887.2</ele>
        <time>2013-09-01T08:07:21Z</time>
      </trkpt>
      <trkpt lat="44.74899" lon="6.80285">
        <ele>1887.2</ele>
        <time>2013-09-01T08:07:22Z</time>
      </trkpt>
      <trkpt lat="44.74898" lon="6.80287">
        <ele>1887.7</ele>
        <time>2013-09-01T08:07:23Z</time>
      </trkpt>
      <trkpt lat="44.74897" lon="6.80289">
        <ele>1888.2</ele>
        <time>2013-09-01T08:07:24Z</time>
      </trkpt>
      <trkpt lat="44.74898" lon="6.80291">
        <ele>1888.2</ele>
        <time>2013-09-01T08:07:25Z</time>
      </trkpt>
      <trkpt lat="44.74898" lon="6.80294">
        <ele>1888.2</ele>
        <time>2013-09-01T08:07:26Z</time>
      </trkpt>
      <trkpt lat="44.74899" lon="6.80307">
        <ele>1889.1</ele>
        <time>2013-09-01T08:07:30Z</time>
      </trkpt>
      <trkpt lat="44.74893" lon="6.80327">
        <ele>1890.6</ele>
        <time>2013-09-01T08:07:38Z</time>
      </trkpt>
      <trkpt lat="44.74893" lon="6.8033">
        <ele>1890.6</ele>
        <time>2013-09-01T08:07:39Z</time>
      </trkpt>
      <trkpt lat="44.74894" lon="6.80333">
        <ele>1891.1</ele>
        <time>2013-09-01T08:07:40Z</time>
      </trkpt>
      <trkpt lat="44.74893" lon="6.80336">
        <ele>1891.1</ele>
        <time>2013-09-01T08:07:41Z</time>
      </trkpt>
      <trkpt lat="44.74893" lon="6.80339">
        <ele>1891.5</ele>
        <time>2013-09-01T08:07:42Z</time>
      </trkpt>
      <trkpt lat="44.74892" lon="6.80341">
        <ele>1891.5</ele>
        <time>2013-09-01T08:07:43Z</time>
      </trkpt>
      <trkpt lat="44.74891" lon="6.80343">
        <ele>1891.5</ele>
        <time>2013-09-01T08:07:44Z</time>
      </trkpt>
      <trkpt lat="44.7489" lon="6.80345">
        <ele>1892</ele>
        <time>2013-09-01T08:07:45Z</time>
      </trkpt>
      <trkpt lat="44.7489" lon="6.80347">
        <ele>1892</ele>
        <time>2013-09-01T08:07:46Z</time>
      </trkpt>
      <trkpt lat="44.74888" lon="6.80349">
        <ele>1892</ele>
        <time>2013-09-01T08:07:47Z</time>
      </trkpt>
      <trkpt lat="44.74887" lon="6.80351">
        <ele>1892.5</ele>
        <time>2013-09-01T08:07:48Z</time>
      </trkpt>
      <trkpt lat="44.74885" lon="6.80353">
        <ele>1892.5</ele>
        <time>2013-09-01T08:07:49Z</time>
      </trkpt>
      <trkpt lat="44.74874" lon="6.80369">
        <ele>1894.4</ele>
        <time>2013-09-01T08:07:58Z</time>
      </trkpt>
      <trkpt lat="44.74877" lon="6.80406">
        <ele>1896.3</ele>
        <time>2013-09-01T08:08:12Z</time>
      </trkpt>
      <trkpt lat="44.74892" lon="6.80442">
        <ele>1898.3</ele>
        <time>2013-09-01T08:08:27Z</time>
      </trkpt>
      <trkpt lat="44.74902" lon="6.80467">
        <ele>1901.6</ele>
        <time>2013-09-01T08:08:38Z</time>
      </trkpt>
      <trkpt lat="44.74912" lon="6.80494">
        <ele>1903.6</ele>
        <time>2013-09-01T08:08:51Z</time>
      </trkpt>
      <trkpt lat="44.74921" lon="6.80527">
        <ele>1905</ele>
        <time>2013-09-01T08:09:05Z</time>
      </trkpt>
      <trkpt lat="44.74913" lon="6.80539">
        <ele>1906.4</ele>
        <time>2013-09-01T08:09:13Z</time>
      </trkpt>
      <trkpt lat="44.74912" lon="6.80539">
        <ele>1906.9</ele>
        <time>2013-09-01T08:09:14Z</time>
      </trkpt>
      <trkpt lat="44.74894" lon="6.80521">
        <ele>1909.8</ele>
        <time>2013-09-01T08:09:27Z</time>
      </trkpt>
      <trkpt lat="44.74872" lon="6.80501">
        <ele>1911.7</ele>
        <time>2013-09-01T08:09:42Z</time>
      </trkpt>
      <trkpt lat="44.74857" lon="6.80487">
        <ele>1915.1</ele>
        <time>2013-09-01T08:09:54Z</time>
      </trkpt>
      <trkpt lat="44.74838" lon="6.80468">
        <ele>1917.5</ele>
        <time>2013-09-01T08:10:09Z</time>
      </trkpt>
      <trkpt lat="44.74821" lon="6.80452">
        <ele>1919.9</ele>
        <time>2013-09-01T08:10:22Z</time>
      </trkpt>
      <trkpt lat="44.74805" lon="6.80437">
        <ele>1922.3</ele>
        <time>2013-09-01T08:10:34Z</time>
      </trkpt>
      <trkpt lat="44.74788" lon="6.80418">
        <ele>1925.2</ele>
        <time>2013-09-01T08:10:48Z</time>
      </trkpt>
      <trkpt lat="44.74768" lon="6.80392">
        <ele>1928.1</ele>
        <time>2013-09-01T08:11:05Z</time>
      </trkpt>
      <trkpt lat="44.74747" lon="6.80366">
        <ele>1931</ele>
        <time>2013-09-01T08:11:22Z</time>
      </trkpt>
      <trkpt lat="44.74726" lon="6.80365">
        <ele>1933.8</ele>
        <time>2013-09-01T08:11:36Z</time>
      </trkpt>
      <trkpt lat="44.74724" lon="6.80366">
        <ele>1933.8</ele>
        <time>2013-09-01T08:11:37Z</time>
      </trkpt>
      <trkpt lat="44.74713" lon="6.80382">
        <ele>1935.8</ele>
        <time>2013-09-01T08:11:48Z</time>
      </trkpt>
      <trkpt lat="44.74712" lon="6.80384">
        <ele>1935.3</ele>
        <time>2013-09-01T08:11:49Z</time>
      </trkpt>
      <trkpt lat="44.74711" lon="6.80386">
        <ele>1936.2</ele>
        <time>2013-09-01T08:11:50Z</time>
      </trkpt>
      <trkpt lat="44.7471" lon="6.80387">
        <ele>1936.2</ele>
        <time>2013-09-01T08:11:51Z</time>
      </trkpt>
      <trkpt lat="44.74709" lon="6.8039">
        <ele>1935.8</ele>
        <time>2013-09-01T08:11:52Z</time>
      </trkpt>
      <trkpt lat="44.74708" lon="6.80392">
        <ele>1936.7</ele>
        <time>2013-09-01T08:11:53Z</time>
      </trkpt>
      <trkpt lat="44.74707" lon="6.80394">
        <ele>1937.2</ele>
        <time>2013-09-01T08:11:54Z</time>
      </trkpt>
      <trkpt lat="44.747" lon="6.80418">
        <ele>1938.6</ele>
        <time>2013-09-01T08:12:06Z</time>
      </trkpt>
      <trkpt lat="44.74695" lon="6.80417">
        <ele>1939.1</ele>
        <time>2013-09-01T08:12:17Z</time>
      </trkpt>
      <trkpt lat="44.74693" lon="6.80417">
        <ele>1939.6</ele>
        <time>2013-09-01T08:12:30Z</time>
      </trkpt>
      <trkpt lat="44.7468" lon="6.80425">
        <ele>1942</ele>
        <time>2013-09-01T08:12:47Z</time>
      </trkpt>
      <trkpt lat="44.74672" lon="6.80436">
        <ele>1943.9</ele>
        <time>2013-09-01T08:13:02Z</time>
      </trkpt>
      <trkpt lat="44.7466" lon="6.80444">
        <ele>1945.4</ele>
        <time>2013-09-01T08:13:18Z</time>
      </trkpt>
      <trkpt lat="44.74654" lon="6.80445">
        <ele>1945.9</ele>
        <time>2013-09-01T08:13:33Z</time>
      </trkpt>
      <trkpt lat="44.74653" lon="6.80447">
        <ele>1946.3</ele>
        <time>2013-09-01T08:14:05Z</time>
      </trkpt>
      <trkpt lat="44.74656" lon="6.80447">
        <ele>1946.3</ele>
        <time>2013-09-01T08:14:34Z</time>
      </trkpt>
      <trkpt lat="44.74659" lon="6.80448">
        <ele>1947.3</ele>
        <time>2013-09-01T08:15:00Z</time>
      </trkpt>
      <trkpt lat="44.74658" lon="6.80448">
        <ele>1947.3</ele>
        <time>2013-09-01T08:15:26Z</time>
      </trkpt>
      <trkpt lat="44.74658" lon="6.80451">
        <ele>1947.3</ele>
        <time>2013-09-01T08:15:55Z</time>
      </trkpt>
      <trkpt lat="44.74656" lon="6.80451">
        <ele>1947.3</ele>
        <time>2013-09-01T08:16:20Z</time>
      </trkpt>
      <trkpt lat="44.74653" lon="6.80452">
        <ele>1947.3</ele>
        <time>2013-09-01T08:16:49Z</time>
      </trkpt>
      <trkpt lat="44.74655" lon="6.80452">
        <ele>1949.2</ele>
        <time>2013-09-01T08:17:19Z</time>
      </trkpt>
      <trkpt lat="44.74651" lon="6.80448">
        <ele>1949.2</ele>
        <time>2013-09-01T08:17:44Z</time>
      </trkpt>
      <trkpt lat="44.74652" lon="6.80447">
        <ele>1949.2</ele>
        <time>2013-09-01T08:18:18Z</time>
      </trkpt>
      <trkpt lat="44.74655" lon="6.80445">
        <ele>1949.7</ele>
        <time>2013-09-01T08:18:48Z</time>
      </trkpt>
      <trkpt lat="44.74652" lon="6.80446">
        <ele>1949.7</ele>
        <time>2013-09-01T08:19:16Z</time>
      </trkpt>
      <trkpt lat="44.74651" lon="6.8045">
        <ele>1949.2</ele>
        <time>2013-09-01T08:19:32Z</time>
      </trkpt>
      <trkpt lat="44.74655" lon="6.80455">
        <ele>1950.2</ele>
        <time>2013-09-01T08:19:54Z</time>
      </trkpt>
      <trkpt lat="44.74655" lon="6.80459">
        <ele>1950.2</ele>
        <time>2013-09-01T08:20:10Z</time>
      </trkpt>
      <trkpt lat="44.74651" lon="6.80454">
        <ele>1950.2</ele>
        <time>2013-09-01T08:20:35Z</time>
      </trkpt>
      <trkpt lat="44.74652" lon="6.80455">
        <ele>1951.1</ele>
        <time>2013-09-01T08:21:02Z</time>
      </trkpt>
      <trkpt lat="44.74653" lon="6.80463">
        <ele>1951.1</ele>
        <time>2013-09-01T08:21:37Z</time>
      </trkpt>
      <trkpt lat="44.74655" lon="6.80461">
        <ele>1951.6</ele>
        <time>2013-09-01T08:21:55Z</time>
      </trkpt>
      <trkpt lat="44.74654" lon="6.80456">
        <ele>1952.1</ele>
        <time>2013-09-01T08:22:22Z</time>
      </trkpt>
      <trkpt lat="44.74655" lon="6.80458">
        <ele>1952.6</ele>
        <time>2013-09-01T08:22:57Z</time>
      </trkpt>
      <trkpt lat="44.74655" lon="6.80452">
        <ele>1952.6</ele>
        <time>2013-09-01T08:23:31Z</time>
      </trkpt>
      <trkpt lat="44.74653" lon="6.80445">
        <ele>1952.6</ele>
        <time>2013-09-01T08:23:58Z</time>
      </trkpt>
      <trkpt lat="44.74653" lon="6.80449">
        <ele>1953.5</ele>
        <time>2013-09-01T08:24:27Z</time>
      </trkpt>
      <trkpt lat="44.74655" lon="6.80453">
        <ele>1953.5</ele>
        <time>2013-09-01T08:24:53Z</time>
      </trkpt>
      <trkpt lat="44.74655" lon="6.80453">
        <ele>1953.1</ele>
        <time>2013-09-01T08:25:17Z</time>
      </trkpt>
      <trkpt lat="44.74655" lon="6.80456">
        <ele>1953.5</ele>
        <time>2013-09-01T08:25:46Z</time>
      </trkpt>
      <trkpt lat="44.7465" lon="6.80454">
        <ele>1953.5</ele>
        <time>2013-09-01T08:26:25Z</time>
      </trkpt>
      <trkpt lat="44.7465" lon="6.80448">
        <ele>1955</ele>
        <time>2013-09-01T08:26:54Z</time>
      </trkpt>
      <trkpt lat="44.7465" lon="6.80455">
        <ele>1955.5</ele>
        <time>2013-09-01T08:27:08Z</time>
      </trkpt>
      <trkpt lat="44.74634" lon="6.80469">
        <ele>1955</ele>
        <time>2013-09-01T08:27:26Z</time>
      </trkpt>
      <trkpt lat="44.74623" lon="6.80485">
        <ele>1955</ele>
        <time>2013-09-01T08:27:41Z</time>
      </trkpt>
      <trkpt lat="44.74617" lon="6.80496">
        <ele>1956.4</ele>
        <time>2013-09-01T08:27:57Z</time>
      </trkpt>
      <trkpt lat="44.74612" lon="6.80507">
        <ele>1958.3</ele>
        <time>2013-09-01T08:28:12Z</time>
      </trkpt>
      <trkpt lat="44.74608" lon="6.80513">
        <ele>1959.8</ele>
        <time>2013-09-01T08:28:28Z</time>
      </trkpt>
      <trkpt lat="44.74607" lon="6.80515">
        <ele>1960.3</ele>
        <time>2013-09-01T08:28:44Z</time>
      </trkpt>
      <trkpt lat="44.74599" lon="6.80526">
        <ele>1960.3</ele>
        <time>2013-09-01T08:28:59Z</time>
      </trkpt>
      <trkpt lat="44.74599" lon="6.80556">
        <ele>1962.2</ele>
        <time>2013-09-01T08:29:16Z</time>
      </trkpt>
      <trkpt lat="44.746" lon="6.80565">
        <ele>1962.7</ele>
        <time>2013-09-01T08:29:21Z</time>
      </trkpt>
      <trkpt lat="44.74603" lon="6.80592">
        <ele>1964.1</ele>
        <time>2013-09-01T08:29:36Z</time>
      </trkpt>
      <trkpt lat="44.74605" lon="6.80606">
        <ele>1965.6</ele>
        <time>2013-09-01T08:29:44Z</time>
      </trkpt>
      <trkpt lat="44.74607" lon="6.80622">
        <ele>1966.5</ele>
        <time>2013-09-01T08:29:51Z</time>
      </trkpt>
      <trkpt lat="44.74597" lon="6.80655">
        <ele>1970.4</ele>
        <time>2013-09-01T08:30:07Z</time>
      </trkpt>
      <trkpt lat="44.74579" lon="6.80679">
        <ele>1971.3</ele>
        <time>2013-09-01T08:30:23Z</time>
      </trkpt>
      <trkpt lat="44.74559" lon="6.80683">
        <ele>1974.7</ele>
        <time>2013-09-01T08:30:38Z</time>
      </trkpt>
      <trkpt lat="44.74534" lon="6.80668">
        <ele>1975.7</ele>
        <time>2013-09-01T08:30:54Z</time>
      </trkpt>
      <trkpt lat="44.74528" lon="6.80663">
        <ele>1976.6</ele>
        <time>2013-09-01T08:30:58Z</time>
      </trkpt>
      <trkpt lat="44.74525" lon="6.80661">
        <ele>1973.2</ele>
        <time>2013-09-01T08:31:00Z</time>
      </trkpt>
      <trkpt lat="44.74524" lon="6.8066">
        <ele>1979</ele>
        <time>2013-09-01T08:31:01Z</time>
      </trkpt>
      <trkpt lat="44.74511" lon="6.80653">
        <ele>1979</ele>
        <time>2013-09-01T08:31:09Z</time>
      </trkpt>
      <trkpt lat="44.74487" lon="6.80651">
        <ele>1980.9</ele>
        <time>2013-09-01T08:31:25Z</time>
      </trkpt>
      <trkpt lat="44.74463" lon="6.80661">
        <ele>1982.9</ele>
        <time>2013-09-01T08:31:41Z</time>
      </trkpt>
      <trkpt lat="44.74443" lon="6.80666">
        <ele>1984.3</ele>
        <time>2013-09-01T08:31:56Z</time>
      </trkpt>
      <trkpt lat="44.74418" lon="6.80663">
        <ele>1988.1</ele>
        <time>2013-09-01T08:32:11Z</time>
      </trkpt>
      <trkpt lat="44.74394" lon="6.80653">
        <ele>1990.1</ele>
        <time>2013-09-01T08:32:26Z</time>
      </trkpt>
      <trkpt lat="44.74374" lon="6.8063">
        <ele>1992.5</ele>
        <time>2013-09-01T08:32:43Z</time>
      </trkpt>
      <trkpt lat="44.74359" lon="6.80606">
        <ele>1993.9</ele>
        <time>2013-09-01T08:32:57Z</time>
      </trkpt>
      <trkpt lat="44.7434" lon="6.80591">
        <ele>1996.8</ele>
        <time>2013-09-01T08:33:10Z</time>
      </trkpt>
      <trkpt lat="44.74315" lon="6.8058">
        <ele>1999.2</ele>
        <time>2013-09-01T08:33:26Z</time>
      </trkpt>
      <trkpt lat="44.74291" lon="6.80575">
        <ele>2002.1</ele>
        <time>2013-09-01T08:33:41Z</time>
      </trkpt>
      <trkpt lat="44.74264" lon="6.80567">
        <ele>2004.5</ele>
        <time>2013-09-01T08:33:57Z</time>
      </trkpt>
      <trkpt lat="44.74243" lon="6.80563">
        <ele>2006.4</ele>
        <time>2013-09-01T08:34:10Z</time>
      </trkpt>
      <trkpt lat="44.74218" lon="6.80557">
        <ele>2009.3</ele>
        <time>2013-09-01T08:34:25Z</time>
      </trkpt>
      <trkpt lat="44.74193" lon="6.80551">
        <ele>2011.7</ele>
        <time>2013-09-01T08:34:40Z</time>
      </trkpt>
      <trkpt lat="44.7418" lon="6.80548">
        <ele>2013.1</ele>
        <time>2013-09-01T08:34:49Z</time>
      </trkpt>
      <trkpt lat="44.74168" lon="6.80558">
        <ele>2014.1</ele>
        <time>2013-09-01T08:34:57Z</time>
      </trkpt>
      <trkpt lat="44.74169" lon="6.80568">
        <ele>2014.1</ele>
        <time>2013-09-01T08:35:02Z</time>
      </trkpt>
      <trkpt lat="44.7419" lon="6.80589">
        <ele>2016.5</ele>
        <time>2013-09-01T08:35:18Z</time>
      </trkpt>
      <trkpt lat="44.74209" lon="6.80603">
        <ele>2019.4</ele>
        <time>2013-09-01T08:35:30Z</time>
      </trkpt>
      <trkpt lat="44.74229" lon="6.80623">
        <ele>2020.8</ele>
        <time>2013-09-01T08:35:45Z</time>
      </trkpt>
      <trkpt lat="44.74246" lon="6.8065">
        <ele>2023.7</ele>
        <time>2013-09-01T08:36:01Z</time>
      </trkpt>
      <trkpt lat="44.74267" lon="6.80673">
        <ele>2026.6</ele>
        <time>2013-09-01T08:36:15Z</time>
      </trkpt>
      <trkpt lat="44.74287" lon="6.80698">
        <ele>2029</ele>
        <time>2013-09-01T08:36:30Z</time>
      </trkpt>
      <trkpt lat="44.74302" lon="6.8072">
        <ele>2030.9</ele>
        <time>2013-09-01T08:36:43Z</time>
      </trkpt>
      <trkpt lat="44.74307" lon="6.80727">
        <ele>2032.4</ele>
        <time>2013-09-01T08:36:48Z</time>
      </trkpt>
      <trkpt lat="44.74314" lon="6.80735">
        <ele>2032.8</ele>
        <time>2013-09-01T08:36:53Z</time>
      </trkpt>
      <trkpt lat="44.74335" lon="6.80762">
        <ele>2035.7</ele>
        <time>2013-09-01T08:37:10Z</time>
      </trkpt>
      <trkpt lat="44.7435" lon="6.80782">
        <ele>2038.6</ele>
        <time>2013-09-01T08:37:22Z</time>
      </trkpt>
      <trkpt lat="44.74371" lon="6.80803">
        <ele>2040.5</ele>
        <time>2013-09-01T08:37:36Z</time>
      </trkpt>
      <trkpt lat="44.74395" lon="6.80819">
        <ele>2043.9</ele>
        <time>2013-09-01T08:37:51Z</time>
      </trkpt>
      <trkpt lat="44.74413" lon="6.8083">
        <ele>2045.8</ele>
        <time>2013-09-01T08:38:04Z</time>
      </trkpt>
      <trkpt lat="44.7442" lon="6.80834">
        <ele>2046.8</ele>
        <time>2013-09-01T08:38:08Z</time>
      </trkpt>
      <trkpt lat="44.74445" lon="6.80847">
        <ele>2048.7</ele>
        <time>2013-09-01T08:38:24Z</time>
      </trkpt>
      <trkpt lat="44.74465" lon="6.80861">
        <ele>2051.1</ele>
        <time>2013-09-01T08:38:36Z</time>
      </trkpt>
      <trkpt lat="44.74488" lon="6.80892">
        <ele>2054.5</ele>
        <time>2013-09-01T08:38:53Z</time>
      </trkpt>
      <trkpt lat="44.74504" lon="6.80925">
        <ele>2057.4</ele>
        <time>2013-09-01T08:39:09Z</time>
      </trkpt>
      <trkpt lat="44.74512" lon="6.80952">
        <ele>2059.3</ele>
        <time>2013-09-01T08:39:23Z</time>
      </trkpt>
      <trkpt lat="44.74523" lon="6.80983">
        <ele>2062.2</ele>
        <time>2013-09-01T08:39:36Z</time>
      </trkpt>
      <trkpt lat="44.74532" lon="6.81016">
        <ele>2063.6</ele>
        <time>2013-09-01T08:39:49Z</time>
      </trkpt>
      <trkpt lat="44.74532" lon="6.81053">
        <ele>2066</ele>
        <time>2013-09-01T08:40:04Z</time>
      </trkpt>
      <trkpt lat="44.74521" lon="6.81086">
        <ele>2068.4</ele>
        <time>2013-09-01T08:40:18Z</time>
      </trkpt>
      <trkpt lat="44.7452" lon="6.81122">
        <ele>2070.8</ele>
        <time>2013-09-01T08:40:32Z</time>
      </trkpt>
      <trkpt lat="44.74532" lon="6.81163">
        <ele>2072.3</ele>
        <time>2013-09-01T08:40:47Z</time>
      </trkpt>
      <trkpt lat="44.74532" lon="6.81197">
        <ele>2073.7</ele>
        <time>2013-09-01T08:41:00Z</time>
      </trkpt>
      <trkpt lat="44.74514" lon="6.81186">
        <ele>2075.1</ele>
        <time>2013-09-01T08:41:11Z</time>
      </trkpt>
      <trkpt lat="44.74506" lon="6.81152">
        <ele>2077.1</ele>
        <time>2013-09-01T08:41:24Z</time>
      </trkpt>
      <trkpt lat="44.74494" lon="6.8111">
        <ele>2080</ele>
        <time>2013-09-01T08:41:39Z</time>
      </trkpt>
      <trkpt lat="44.74484" lon="6.81071">
        <ele>2082.4</ele>
        <time>2013-09-01T08:41:54Z</time>
      </trkpt>
      <trkpt lat="44.74483" lon="6.81069">
        <ele>2081.9</ele>
        <time>2013-09-01T08:41:55Z</time>
      </trkpt>
      <trkpt lat="44.74482" lon="6.81067">
        <ele>2082.4</ele>
        <time>2013-09-01T08:41:56Z</time>
      </trkpt>
      <trkpt lat="44.74481" lon="6.81064">
        <ele>2082.4</ele>
        <time>2013-09-01T08:41:57Z</time>
      </trkpt>
      <trkpt lat="44.7448" lon="6.81063">
        <ele>2082.8</ele>
        <time>2013-09-01T08:41:58Z</time>
      </trkpt>
      <trkpt lat="44.74474" lon="6.81054">
        <ele>2083.3</ele>
        <time>2013-09-01T08:42:02Z</time>
      </trkpt>
      <trkpt lat="44.74473" lon="6.81051">
        <ele>2083.3</ele>
        <time>2013-09-01T08:42:03Z</time>
      </trkpt>
      <trkpt lat="44.74447" lon="6.81026">
        <ele>2085.7</ele>
        <time>2013-09-01T08:42:19Z</time>
      </trkpt>
      <trkpt lat="44.74426" lon="6.81013">
        <ele>2087.6</ele>
        <time>2013-09-01T08:42:31Z</time>
      </trkpt>
      <trkpt lat="44.74398" lon="6.80993">
        <ele>2090.5</ele>
        <time>2013-09-01T08:42:46Z</time>
      </trkpt>
      <trkpt lat="44.74372" lon="6.80967">
        <ele>2092.9</ele>
        <time>2013-09-01T08:43:02Z</time>
      </trkpt>
      <trkpt lat="44.74363" lon="6.80961">
        <ele>2093.4</ele>
        <time>2013-09-01T08:43:06Z</time>
      </trkpt>
      <trkpt lat="44.74362" lon="6.80959">
        <ele>2093.4</ele>
        <time>2013-09-01T08:43:07Z</time>
      </trkpt>
      <trkpt lat="44.7436" lon="6.80957">
        <ele>2093.9</ele>
        <time>2013-09-01T08:43:08Z</time>
      </trkpt>
      <trkpt lat="44.7434" lon="6.80939">
        <ele>2095.3</ele>
        <time>2013-09-01T08:43:19Z</time>
      </trkpt>
      <trkpt lat="44.74339" lon="6.80938">
        <ele>2095.3</ele>
        <time>2013-09-01T08:43:20Z</time>
      </trkpt>
      <trkpt lat="44.74337" lon="6.80937">
        <ele>2095.3</ele>
        <time>2013-09-01T08:43:21Z</time>
      </trkpt>
      <trkpt lat="44.74318" lon="6.80934">
        <ele>2096.8</ele>
        <time>2013-09-01T08:43:31Z</time>
      </trkpt>
      <trkpt lat="44.7429" lon="6.80941">
        <ele>2099.2</ele>
        <time>2013-09-01T08:43:45Z</time>
      </trkpt>
      <trkpt lat="44.74266" lon="6.80939">
        <ele>2101.6</ele>
        <time>2013-09-01T08:43:58Z</time>
      </trkpt>
      <trkpt lat="44.74253" lon="6.80939">
        <ele>2103</ele>
        <time>2013-09-01T08:44:04Z</time>
      </trkpt>
      <trkpt lat="44.74222" lon="6.80929">
        <ele>2104</ele>
        <time>2013-09-01T08:44:20Z</time>
      </trkpt>
      <trkpt lat="44.74206" lon="6.8093">
        <ele>2105.9</ele>
        <time>2013-09-01T08:44:29Z</time>
      </trkpt>
      <trkpt lat="44.74205" lon="6.80939">
        <ele>2106.9</ele>
        <time>2013-09-01T08:44:33Z</time>
      </trkpt>
      <trkpt lat="44.74206" lon="6.80941">
        <ele>2106.9</ele>
        <time>2013-09-01T08:44:34Z</time>
      </trkpt>
      <trkpt lat="44.74207" lon="6.80943">
        <ele>2106.9</ele>
        <time>2013-09-01T08:44:35Z</time>
      </trkpt>
      <trkpt lat="44.74208" lon="6.80944">
        <ele>2106.4</ele>
        <time>2013-09-01T08:44:36Z</time>
      </trkpt>
      <trkpt lat="44.7421" lon="6.80945">
        <ele>2107.4</ele>
        <time>2013-09-01T08:44:37Z</time>
      </trkpt>
      <trkpt lat="44.74212" lon="6.80945">
        <ele>2107.4</ele>
        <time>2013-09-01T08:44:38Z</time>
      </trkpt>
      <trkpt lat="44.74214" lon="6.80946">
        <ele>2107.4</ele>
        <time>2013-09-01T08:44:39Z</time>
      </trkpt>
      <trkpt lat="44.74238" lon="6.80961">
        <ele>2109.8</ele>
        <time>2013-09-01T08:44:54Z</time>
      </trkpt>
      <trkpt lat="44.74256" lon="6.80982">
        <ele>2111.7</ele>
        <time>2013-09-01T08:45:09Z</time>
      </trkpt>
      <trkpt lat="44.74278" lon="6.80996">
        <ele>2113.6</ele>
        <time>2013-09-01T08:45:24Z</time>
      </trkpt>
      <trkpt lat="44.74283" lon="6.80999">
        <ele>2115.5</ele>
        <time>2013-09-01T08:45:27Z</time>
      </trkpt>
      <trkpt lat="44.74302" lon="6.81015">
        <ele>2116.5</ele>
        <time>2013-09-01T08:45:40Z</time>
      </trkpt>
      <trkpt lat="44.74316" lon="6.81025">
        <ele>2118.9</ele>
        <time>2013-09-01T08:45:50Z</time>
      </trkpt>
      <trkpt lat="44.74317" lon="6.81026">
        <ele>2119.4</ele>
        <time>2013-09-01T08:45:51Z</time>
      </trkpt>
      <trkpt lat="44.74336" lon="6.81042">
        <ele>2120.8</ele>
        <time>2013-09-01T08:46:03Z</time>
      </trkpt>
      <trkpt lat="44.74338" lon="6.81044">
        <ele>2120.8</ele>
        <time>2013-09-01T08:46:04Z</time>
      </trkpt>
      <trkpt lat="44.74346" lon="6.81055">
        <ele>2122.3</ele>
        <time>2013-09-01T08:46:10Z</time>
      </trkpt>
      <trkpt lat="44.74347" lon="6.81057">
        <ele>2122.3</ele>
        <time>2013-09-01T08:46:11Z</time>
      </trkpt>
      <trkpt lat="44.74365" lon="6.81089">
        <ele>2125.1</ele>
        <time>2013-09-01T08:46:28Z</time>
      </trkpt>
      <trkpt lat="44.74378" lon="6.81123">
        <ele>2128</ele>
        <time>2013-09-01T08:46:42Z</time>
      </trkpt>
      <trkpt lat="44.74384" lon="6.81147">
        <ele>2129</ele>
        <time>2013-09-01T08:46:51Z</time>
      </trkpt>
      <trkpt lat="44.74384" lon="6.81149">
        <ele>2129.5</ele>
        <time>2013-09-01T08:46:52Z</time>
      </trkpt>
      <trkpt lat="44.74384" lon="6.81151">
        <ele>2129.5</ele>
        <time>2013-09-01T08:46:53Z</time>
      </trkpt>
      <trkpt lat="44.74384" lon="6.81154">
        <ele>2129.5</ele>
        <time>2013-09-01T08:46:54Z</time>
      </trkpt>
      <trkpt lat="44.74385" lon="6.81157">
        <ele>2129.5</ele>
        <time>2013-09-01T08:46:55Z</time>
      </trkpt>
      <trkpt lat="44.74385" lon="6.8116">
        <ele>2129.9</ele>
        <time>2013-09-01T08:46:56Z</time>
      </trkpt>
      <trkpt lat="44.74385" lon="6.81163">
        <ele>2129.9</ele>
        <time>2013-09-01T08:46:57Z</time>
      </trkpt>
      <trkpt lat="44.74386" lon="6.81197">
        <ele>2131.9</ele>
        <time>2013-09-01T08:47:10Z</time>
      </trkpt>
      <trkpt lat="44.74389" lon="6.81233">
        <ele>2134.7</ele>
        <time>2013-09-01T08:47:24Z</time>
      </trkpt>
      <trkpt lat="44.74392" lon="6.81255">
        <ele>2136.2</ele>
        <time>2013-09-01T08:47:32Z</time>
      </trkpt>
      <trkpt lat="44.74383" lon="6.81282">
        <ele>2138.1</ele>
        <time>2013-09-01T08:47:46Z</time>
      </trkpt>
      <trkpt lat="44.74382" lon="6.81282">
        <ele>2139.1</ele>
        <time>2013-09-01T08:47:47Z</time>
      </trkpt>
      <trkpt lat="44.7438" lon="6.8128">
        <ele>2139.1</ele>
        <time>2013-09-01T08:47:48Z</time>
      </trkpt>
      <trkpt lat="44.74379" lon="6.81278">
        <ele>2139.1</ele>
        <time>2013-09-01T08:47:49Z</time>
      </trkpt>
      <trkpt lat="44.74378" lon="6.81276">
        <ele>2138.1</ele>
        <time>2013-09-01T08:47:50Z</time>
      </trkpt>
      <trkpt lat="44.74378" lon="6.81274">
        <ele>2139.1</ele>
        <time>2013-09-01T08:47:51Z</time>
      </trkpt>
      <trkpt lat="44.74378" lon="6.81271">
        <ele>2139.1</ele>
        <time>2013-09-01T08:47:52Z</time>
      </trkpt>
      <trkpt lat="44.74376" lon="6.81237">
        <ele>2141.5</ele>
        <time>2013-09-01T08:48:05Z</time>
      </trkpt>
      <trkpt lat="44.74375" lon="6.81222">
        <ele>2142.4</ele>
        <time>2013-09-01T08:48:11Z</time>
      </trkpt>
      <trkpt lat="44.74371" lon="6.81205">
        <ele>2144.4</ele>
        <time>2013-09-01T08:48:18Z</time>
      </trkpt>
      <trkpt lat="44.7437" lon="6.81202">
        <ele>2144.4</ele>
        <time>2013-09-01T08:48:19Z</time>
      </trkpt>
      <trkpt lat="44.74361" lon="6.81173">
        <ele>2147.2</ele>
        <time>2013-09-01T08:48:32Z</time>
      </trkpt>
      <trkpt lat="44.74341" lon="6.81153">
        <ele>2148.7</ele>
        <time>2013-09-01T08:48:45Z</time>
      </trkpt>
      <trkpt lat="44.74339" lon="6.81152">
        <ele>2148.7</ele>
        <time>2013-09-01T08:48:46Z</time>
      </trkpt>
      <trkpt lat="44.74337" lon="6.81152">
        <ele>2148.7</ele>
        <time>2013-09-01T08:48:47Z</time>
      </trkpt>
      <trkpt lat="44.74313" lon="6.81139">
        <ele>2151.6</ele>
        <time>2013-09-01T08:49:01Z</time>
      </trkpt>
      <trkpt lat="44.74285" lon="6.81122">
        <ele>2154</ele>
        <time>2013-09-01T08:49:17Z</time>
      </trkpt>
      <trkpt lat="44.74262" lon="6.81109">
        <ele>2157.3</ele>
        <time>2013-09-01T08:49:31Z</time>
      </trkpt>
      <trkpt lat="44.74257" lon="6.81105">
        <ele>2157.8</ele>
        <time>2013-09-01T08:49:35Z</time>
      </trkpt>
      <trkpt lat="44.74255" lon="6.81105">
        <ele>2157.8</ele>
        <time>2013-09-01T08:49:36Z</time>
      </trkpt>
      <trkpt lat="44.74227" lon="6.8109">
        <ele>2159.7</ele>
        <time>2013-09-01T08:49:52Z</time>
      </trkpt>
      <trkpt lat="44.74204" lon="6.8108">
        <ele>2162.6</ele>
        <time>2013-09-01T08:50:06Z</time>
      </trkpt>
      <trkpt lat="44.74181" lon="6.81079">
        <ele>2164.6</ele>
        <time>2013-09-01T08:50:20Z</time>
      </trkpt>
      <trkpt lat="44.74155" lon="6.81078">
        <ele>2168.4</ele>
        <time>2013-09-01T08:50:34Z</time>
      </trkpt>
      <trkpt lat="44.74153" lon="6.81078">
        <ele>2168.4</ele>
        <time>2013-09-01T08:50:35Z</time>
      </trkpt>
      <trkpt lat="44.74124" lon="6.81077">
        <ele>2171.3</ele>
        <time>2013-09-01T08:50:50Z</time>
      </trkpt>
      <trkpt lat="44.74104" lon="6.81077">
        <ele>2172.7</ele>
        <time>2013-09-01T08:51:01Z</time>
      </trkpt>
      <trkpt lat="44.74102" lon="6.81077">
        <ele>2172.2</ele>
        <time>2013-09-01T08:51:02Z</time>
      </trkpt>
      <trkpt lat="44.741" lon="6.81077">
        <ele>2172.7</ele>
        <time>2013-09-01T08:51:03Z</time>
      </trkpt>
      <trkpt lat="44.74081" lon="6.81077">
        <ele>2175.1</ele>
        <time>2013-09-01T08:51:14Z</time>
      </trkpt>
      <trkpt lat="44.7405" lon="6.81068">
        <ele>2177.5</ele>
        <time>2013-09-01T08:51:30Z</time>
      </trkpt>
      <trkpt lat="44.74022" lon="6.81065">
        <ele>2180.4</ele>
        <time>2013-09-01T08:51:46Z</time>
      </trkpt>
      <trkpt lat="44.74" lon="6.8108">
        <ele>2183.3</ele>
        <time>2013-09-01T08:52:00Z</time>
      </trkpt>
      <trkpt lat="44.73987" lon="6.81085">
        <ele>2184.3</ele>
        <time>2013-09-01T08:52:08Z</time>
      </trkpt>
      <trkpt lat="44.73966" lon="6.81102">
        <ele>2186.7</ele>
        <time>2013-09-01T08:52:24Z</time>
      </trkpt>
      <trkpt lat="44.73944" lon="6.81108">
        <ele>2190</ele>
        <time>2013-09-01T08:52:40Z</time>
      </trkpt>
      <trkpt lat="44.73919" lon="6.81111">
        <ele>2192.9</ele>
        <time>2013-09-01T08:52:56Z</time>
      </trkpt>
      <trkpt lat="44.73896" lon="6.81117">
        <ele>2193.9</ele>
        <time>2013-09-01T08:53:10Z</time>
      </trkpt>
      <trkpt lat="44.73877" lon="6.81137">
        <ele>2194.8</ele>
        <time>2013-09-01T08:53:21Z</time>
      </trkpt>
      <trkpt lat="44.73863" lon="6.81152">
        <ele>2196.3</ele>
        <time>2013-09-01T08:53:35Z</time>
      </trkpt>
      <trkpt lat="44.73865" lon="6.81153">
        <ele>2196.3</ele>
        <time>2013-09-01T08:53:58Z</time>
      </trkpt>
      <trkpt lat="44.73866" lon="6.81152">
        <ele>2196.8</ele>
        <time>2013-09-01T08:54:12Z</time>
      </trkpt>
      <trkpt lat="44.73863" lon="6.81152">
        <ele>2196.3</ele>
        <time>2013-09-01T08:54:43Z</time>
      </trkpt>
      <trkpt lat="44.73862" lon="6.81151">
        <ele>2196.3</ele>
        <time>2013-09-01T08:54:54Z</time>
      </trkpt>
      <trkpt lat="44.73861" lon="6.81151">
        <ele>2196.8</ele>
        <time>2013-09-01T08:54:55Z</time>
      </trkpt>
      <trkpt lat="44.7386" lon="6.81152">
        <ele>2196.8</ele>
        <time>2013-09-01T08:54:56Z</time>
      </trkpt>
      <trkpt lat="44.73858" lon="6.81152">
        <ele>2196.8</ele>
        <time>2013-09-01T08:54:57Z</time>
      </trkpt>
      <trkpt lat="44.73857" lon="6.81153">
        <ele>2196.8</ele>
        <time>2013-09-01T08:54:58Z</time>
      </trkpt>
      <trkpt lat="44.73855" lon="6.81153">
        <ele>2196.3</ele>
        <time>2013-09-01T08:54:59Z</time>
      </trkpt>
      <trkpt lat="44.73847" lon="6.81152">
        <ele>2197.7</ele>
        <time>2013-09-01T08:55:10Z</time>
      </trkpt>
      <trkpt lat="44.73838" lon="6.81152">
        <ele>2197.2</ele>
        <time>2013-09-01T08:55:22Z</time>
      </trkpt>
      <trkpt lat="44.73835" lon="6.81153">
        <ele>2196.8</ele>
        <time>2013-09-01T08:55:23Z</time>
      </trkpt>
      <trkpt lat="44.73831" lon="6.81154">
        <ele>2195.8</ele>
        <time>2013-09-01T08:55:24Z</time>
      </trkpt>
      <trkpt lat="44.73827" lon="6.81156">
        <ele>2195.8</ele>
        <time>2013-09-01T08:55:25Z</time>
      </trkpt>
      <trkpt lat="44.73823" lon="6.81157">
        <ele>2195.8</ele>
        <time>2013-09-01T08:55:26Z</time>
      </trkpt>
      <trkpt lat="44.73819" lon="6.81158">
        <ele>2196.3</ele>
        <time>2013-09-01T08:55:27Z</time>
      </trkpt>
      <trkpt lat="44.73796" lon="6.81158">
        <ele>2194.4</ele>
        <time>2013-09-01T08:55:36Z</time>
      </trkpt>
      <trkpt lat="44.73763" lon="6.81169">
        <ele>2194.4</ele>
        <time>2013-09-01T08:55:49Z</time>
      </trkpt>
      <trkpt lat="44.73738" lon="6.81192">
        <ele>2192.9</ele>
        <time>2013-09-01T08:55:59Z</time>
      </trkpt>
      <trkpt lat="44.73733" lon="6.81214">
        <ele>2192.4</ele>
        <time>2013-09-01T08:56:03Z</time>
      </trkpt>
      <trkpt lat="44.73731" lon="6.8122">
        <ele>2191.5</ele>
        <time>2013-09-01T08:56:04Z</time>
      </trkpt>
      <trkpt lat="44.73729" lon="6.81225">
        <ele>2191.5</ele>
        <time>2013-09-01T08:56:05Z</time>
      </trkpt>
      <trkpt lat="44.73725" lon="6.81228">
        <ele>2191</ele>
        <time>2013-09-01T08:56:06Z</time>
      </trkpt>
      <trkpt lat="44.73721" lon="6.81231">
        <ele>2191</ele>
        <time>2013-09-01T08:56:07Z</time>
      </trkpt>
      <trkpt lat="44.73717" lon="6.81233">
        <ele>2191</ele>
        <time>2013-09-01T08:56:08Z</time>
      </trkpt>
      <trkpt lat="44.73713" lon="6.81233">
        <ele>2190</ele>
        <time>2013-09-01T08:56:09Z</time>
      </trkpt>
      <trkpt lat="44.73709" lon="6.81233">
        <ele>2191</ele>
        <time>2013-09-01T08:56:10Z</time>
      </trkpt>
      <trkpt lat="44.73705" lon="6.81231">
        <ele>2190.5</ele>
        <time>2013-09-01T08:56:11Z</time>
      </trkpt>
      <trkpt lat="44.73702" lon="6.8123">
        <ele>2191</ele>
        <time>2013-09-01T08:56:12Z</time>
      </trkpt>
      <trkpt lat="44.73698" lon="6.81228">
        <ele>2190.5</ele>
        <time>2013-09-01T08:56:13Z</time>
      </trkpt>
      <trkpt lat="44.73691" lon="6.81227">
        <ele>2190.5</ele>
        <time>2013-09-01T08:56:15Z</time>
      </trkpt>
      <trkpt lat="44.73689" lon="6.8123">
        <ele>2191</ele>
        <time>2013-09-01T08:56:16Z</time>
      </trkpt>
      <trkpt lat="44.73687" lon="6.81233">
        <ele>2190</ele>
        <time>2013-09-01T08:56:17Z</time>
      </trkpt>
      <trkpt lat="44.73678" lon="6.81248">
        <ele>2190</ele>
        <time>2013-09-01T08:56:21Z</time>
      </trkpt>
      <trkpt lat="44.73673" lon="6.81252">
        <ele>2189.5</ele>
        <time>2013-09-01T08:56:23Z</time>
      </trkpt>
      <trkpt lat="44.73671" lon="6.81255">
        <ele>2189.1</ele>
        <time>2013-09-01T08:56:24Z</time>
      </trkpt>
      <trkpt lat="44.7367" lon="6.81259">
        <ele>2189.5</ele>
        <time>2013-09-01T08:56:25Z</time>
      </trkpt>
      <trkpt lat="44.73669" lon="6.81263">
        <ele>2189.1</ele>
        <time>2013-09-01T08:56:26Z</time>
      </trkpt>
      <trkpt lat="44.73669" lon="6.81267">
        <ele>2188.6</ele>
        <time>2013-09-01T08:56:27Z</time>
      </trkpt>
      <trkpt lat="44.73669" lon="6.8127">
        <ele>2188.6</ele>
        <time>2013-09-01T08:56:28Z</time>
      </trkpt>
      <trkpt lat="44.73667" lon="6.81271">
        <ele>2187.6</ele>
        <time>2013-09-01T08:56:38Z</time>
      </trkpt>
      <trkpt lat="44.73673" lon="6.8127">
        <ele>2188.6</ele>
        <time>2013-09-01T08:57:04Z</time>
      </trkpt>
      <trkpt lat="44.73669" lon="6.81271">
        <ele>2187.6</ele>
        <time>2013-09-01T08:57:33Z</time>
      </trkpt>
      <trkpt lat="44.73671" lon="6.81267">
        <ele>2188.6</ele>
        <time>2013-09-01T08:58:14Z</time>
      </trkpt>
      <trkpt lat="44.73667" lon="6.81273">
        <ele>2188.6</ele>
        <time>2013-09-01T08:58:43Z</time>
      </trkpt>
      <trkpt lat="44.73668" lon="6.81272">
        <ele>2189.5</ele>
        <time>2013-09-01T08:59:23Z</time>
      </trkpt>
      <trkpt lat="44.73663" lon="6.81274">
        <ele>2189.5</ele>
        <time>2013-09-01T09:00:00Z</time>
      </trkpt>
      <trkpt lat="44.73668" lon="6.81271">
        <ele>2190</ele>
        <time>2013-09-01T09:00:27Z</time>
      </trkpt>
      <trkpt lat="44.73667" lon="6.81272">
        <ele>2186.7</ele>
        <time>2013-09-01T09:00:43Z</time>
      </trkpt>
      <trkpt lat="44.73658" lon="6.81282">
        <ele>2174.2</ele>
        <time>2013-09-01T09:08:19Z</time>
      </trkpt>
      <trkpt lat="44.73655" lon="6.81283">
        <ele>2174.2</ele>
        <time>2013-09-01T09:08:21Z</time>
      </trkpt>
      <trkpt lat="44.73653" lon="6.81284">
        <ele>2173.2</ele>
        <time>2013-09-01T09:08:22Z</time>
      </trkpt>
      <trkpt lat="44.73651" lon="6.81285">
        <ele>2175.1</ele>
        <time>2013-09-01T09:08:23Z</time>
      </trkpt>
      <trkpt lat="44.73649" lon="6.81286">
        <ele>2175.1</ele>
        <time>2013-09-01T09:08:24Z</time>
      </trkpt>
      <trkpt lat="44.73621" lon="6.81296">
        <ele>2177</ele>
        <time>2013-09-01T09:08:33Z</time>
      </trkpt>
      <trkpt lat="44.73614" lon="6.81295">
        <ele>2177</ele>
        <time>2013-09-01T09:08:36Z</time>
      </trkpt>
      <trkpt lat="44.73611" lon="6.81296">
        <ele>2178</ele>
        <time>2013-09-01T09:08:37Z</time>
      </trkpt>
      <trkpt lat="44.73608" lon="6.81296">
        <ele>2178.5</ele>
        <time>2013-09-01T09:08:38Z</time>
      </trkpt>
      <trkpt lat="44.73597" lon="6.81292">
        <ele>2179</ele>
        <time>2013-09-01T09:08:41Z</time>
      </trkpt>
      <trkpt lat="44.73595" lon="6.81288">
        <ele>2179.5</ele>
        <time>2013-09-01T09:08:42Z</time>
      </trkpt>
      <trkpt lat="44.73594" lon="6.81282">
        <ele>2179</ele>
        <time>2013-09-01T09:08:43Z</time>
      </trkpt>
      <trkpt lat="44.73594" lon="6.81278">
        <ele>2179.5</ele>
        <time>2013-09-01T09:08:44Z</time>
      </trkpt>
      <trkpt lat="44.73594" lon="6.81273">
        <ele>2179</ele>
        <time>2013-09-01T09:08:45Z</time>
      </trkpt>
      <trkpt lat="44.73594" lon="6.81266">
        <ele>2179.5</ele>
        <time>2013-09-01T09:08:46Z</time>
      </trkpt>
      <trkpt lat="44.73593" lon="6.81261">
        <ele>2179</ele>
        <time>2013-09-01T09:08:47Z</time>
      </trkpt>
      <trkpt lat="44.73591" lon="6.81259">
        <ele>2179</ele>
        <time>2013-09-01T09:08:48Z</time>
      </trkpt>
      <trkpt lat="44.73588" lon="6.81257">
        <ele>2180.4</ele>
        <time>2013-09-01T09:08:49Z</time>
      </trkpt>
      <trkpt lat="44.73585" lon="6.81255">
        <ele>2180.4</ele>
        <time>2013-09-01T09:08:50Z</time>
      </trkpt>
      <trkpt lat="44.7357" lon="6.81246">
        <ele>2180.9</ele>
        <time>2013-09-01T09:08:55Z</time>
      </trkpt>
      <trkpt lat="44.73561" lon="6.81242">
        <ele>2179.5</ele>
        <time>2013-09-01T09:08:57Z</time>
      </trkpt>
      <trkpt lat="44.7353" lon="6.81252">
        <ele>2178.5</ele>
        <time>2013-09-01T09:09:06Z</time>
      </trkpt>
      <trkpt lat="44.73524" lon="6.8126">
        <ele>2179</ele>
        <time>2013-09-01T09:09:08Z</time>
      </trkpt>
      <trkpt lat="44.73512" lon="6.81266">
        <ele>2178</ele>
        <time>2013-09-01T09:09:11Z</time>
      </trkpt>
      <trkpt lat="44.73509" lon="6.81264">
        <ele>2178</ele>
        <time>2013-09-01T09:09:12Z</time>
      </trkpt>
      <trkpt lat="44.73504" lon="6.81254">
        <ele>2177</ele>
        <time>2013-09-01T09:09:15Z</time>
      </trkpt>
      <trkpt lat="44.73503" lon="6.81252">
        <ele>2177.5</ele>
        <time>2013-09-01T09:09:16Z</time>
      </trkpt>
      <trkpt lat="44.73502" lon="6.8125">
        <ele>2178</ele>
        <time>2013-09-01T09:09:17Z</time>
      </trkpt>
      <trkpt lat="44.73501" lon="6.81247">
        <ele>2179.5</ele>
        <time>2013-09-01T09:09:29Z</time>
      </trkpt>
      <trkpt lat="44.73501" lon="6.81246">
        <ele>2179.9</ele>
        <time>2013-09-01T09:09:31Z</time>
      </trkpt>
      <trkpt lat="44.73497" lon="6.81202">
        <ele>2180.9</ele>
        <time>2013-09-01T09:09:43Z</time>
      </trkpt>
      <trkpt lat="44.73496" lon="6.81168">
        <ele>2180.4</ele>
        <time>2013-09-01T09:09:52Z</time>
      </trkpt>
      <trkpt lat="44.73496" lon="6.81166">
        <ele>2181.4</ele>
        <time>2013-09-01T09:09:53Z</time>
      </trkpt>
      <trkpt lat="44.73496" lon="6.81164">
        <ele>2181.9</ele>
        <time>2013-09-01T09:09:54Z</time>
      </trkpt>
      <trkpt lat="44.73493" lon="6.81159">
        <ele>2181.4</ele>
        <time>2013-09-01T09:09:58Z</time>
      </trkpt>
      <trkpt lat="44.73491" lon="6.81157">
        <ele>2180.9</ele>
        <time>2013-09-01T09:09:59Z</time>
      </trkpt>
      <trkpt lat="44.73489" lon="6.81156">
        <ele>2180.9</ele>
        <time>2013-09-01T09:10:00Z</time>
      </trkpt>
      <trkpt lat="44.73486" lon="6.81156">
        <ele>2181.4</ele>
        <time>2013-09-01T09:10:01Z</time>
      </trkpt>
      <trkpt lat="44.73483" lon="6.81156">
        <ele>2180.9</ele>
        <time>2013-09-01T09:10:02Z</time>
      </trkpt>
      <trkpt lat="44.7348" lon="6.81157">
        <ele>2180.4</ele>
        <time>2013-09-01T09:10:03Z</time>
      </trkpt>
      <trkpt lat="44.73465" lon="6.8117">
        <ele>2179.5</ele>
        <time>2013-09-01T09:10:08Z</time>
      </trkpt>
      <trkpt lat="44.73454" lon="6.81177">
        <ele>2179</ele>
        <time>2013-09-01T09:10:11Z</time>
      </trkpt>
      <trkpt lat="44.7345" lon="6.81175">
        <ele>2178.5</ele>
        <time>2013-09-01T09:10:12Z</time>
      </trkpt>
      <trkpt lat="44.73447" lon="6.81172">
        <ele>2178</ele>
        <time>2013-09-01T09:10:13Z</time>
      </trkpt>
      <trkpt lat="44.73444" lon="6.81169">
        <ele>2178</ele>
        <time>2013-09-01T09:10:14Z</time>
      </trkpt>
      <trkpt lat="44.73442" lon="6.81167">
        <ele>2177.5</ele>
        <time>2013-09-01T09:10:15Z</time>
      </trkpt>
      <trkpt lat="44.7344" lon="6.81166">
        <ele>2177</ele>
        <time>2013-09-01T09:10:16Z</time>
      </trkpt>
      <trkpt lat="44.73438" lon="6.81165">
        <ele>2176.6</ele>
        <time>2013-09-01T09:10:17Z</time>
      </trkpt>
      <trkpt lat="44.73435" lon="6.81166">
        <ele>2177</ele>
        <time>2013-09-01T09:10:18Z</time>
      </trkpt>
      <trkpt lat="44.73432" lon="6.81168">
        <ele>2176.6</ele>
        <time>2013-09-01T09:10:19Z</time>
      </trkpt>
      <trkpt lat="44.73428" lon="6.8117">
        <ele>2177</ele>
        <time>2013-09-01T09:10:20Z</time>
      </trkpt>
      <trkpt lat="44.73425" lon="6.81173">
        <ele>2176.1</ele>
        <time>2013-09-01T09:10:21Z</time>
      </trkpt>
      <trkpt lat="44.7342" lon="6.81176">
        <ele>2176.1</ele>
        <time>2013-09-01T09:10:22Z</time>
      </trkpt>
      <trkpt lat="44.73416" lon="6.81178">
        <ele>2175.1</ele>
        <time>2013-09-01T09:10:23Z</time>
      </trkpt>
      <trkpt lat="44.73412" lon="6.81179">
        <ele>2174.6</ele>
        <time>2013-09-01T09:10:24Z</time>
      </trkpt>
      <trkpt lat="44.73407" lon="6.8118">
        <ele>2174.6</ele>
        <time>2013-09-01T09:10:25Z</time>
      </trkpt>
      <trkpt lat="44.73401" lon="6.81181">
        <ele>2174.2</ele>
        <time>2013-09-01T09:10:26Z</time>
      </trkpt>
      <trkpt lat="44.73396" lon="6.81182">
        <ele>2174.2</ele>
        <time>2013-09-01T09:10:27Z</time>
      </trkpt>
      <trkpt lat="44.73391" lon="6.81183">
        <ele>2174.2</ele>
        <time>2013-09-01T09:10:28Z</time>
      </trkpt>
      <trkpt lat="44.73385" lon="6.81183">
        <ele>2173.2</ele>
        <time>2013-09-01T09:10:29Z</time>
      </trkpt>
      <trkpt lat="44.7338" lon="6.81183">
        <ele>2173.7</ele>
        <time>2013-09-01T09:10:30Z</time>
      </trkpt>
      <trkpt lat="44.73376" lon="6.81183">
        <ele>2173.2</ele>
        <time>2013-09-01T09:10:31Z</time>
      </trkpt>
      <trkpt lat="44.73371" lon="6.81185">
        <ele>2172.7</ele>
        <time>2013-09-01T09:10:32Z</time>
      </trkpt>
      <trkpt lat="44.73367" lon="6.81187">
        <ele>2172.2</ele>
        <time>2013-09-01T09:10:33Z</time>
      </trkpt>
      <trkpt lat="44.73357" lon="6.81193">
        <ele>2171.3</ele>
        <time>2013-09-01T09:10:35Z</time>
      </trkpt>
      <trkpt lat="44.73349" lon="6.81202">
        <ele>2171.3</ele>
        <time>2013-09-01T09:10:37Z</time>
      </trkpt>
      <trkpt lat="44.73347" lon="6.81206">
        <ele>2170.8</ele>
        <time>2013-09-01T09:10:38Z</time>
      </trkpt>
      <trkpt lat="44.73344" lon="6.8121">
        <ele>2169.8</ele>
        <time>2013-09-01T09:10:39Z</time>
      </trkpt>
      <trkpt lat="44.73342" lon="6.81213">
        <ele>2170.3</ele>
        <time>2013-09-01T09:10:40Z</time>
      </trkpt>
      <trkpt lat="44.7334" lon="6.81218">
        <ele>2169.8</ele>
        <time>2013-09-01T09:10:41Z</time>
      </trkpt>
      <trkpt lat="44.73339" lon="6.81223">
        <ele>2169.4</ele>
        <time>2013-09-01T09:10:42Z</time>
      </trkpt>
      <trkpt lat="44.73338" lon="6.81227">
        <ele>2169.4</ele>
        <time>2013-09-01T09:10:43Z</time>
      </trkpt>
      <trkpt lat="44.73337" lon="6.8123">
        <ele>2169.8</ele>
        <time>2013-09-01T09:10:44Z</time>
      </trkpt>
      <trkpt lat="44.73336" lon="6.81234">
        <ele>2168.9</ele>
        <time>2013-09-01T09:10:45Z</time>
      </trkpt>
      <trkpt lat="44.73336" lon="6.81238">
        <ele>2168.4</ele>
        <time>2013-09-01T09:10:46Z</time>
      </trkpt>
      <trkpt lat="44.73336" lon="6.81263">
        <ele>2167.9</ele>
        <time>2013-09-01T09:10:51Z</time>
      </trkpt>
      <trkpt lat="44.73335" lon="6.81269">
        <ele>2167.4</ele>
        <time>2013-09-01T09:10:52Z</time>
      </trkpt>
      <trkpt lat="44.73334" lon="6.81275">
        <ele>2167.9</ele>
        <time>2013-09-01T09:10:53Z</time>
      </trkpt>
      <trkpt lat="44.73333" lon="6.81281">
        <ele>2167</ele>
        <time>2013-09-01T09:10:54Z</time>
      </trkpt>
      <trkpt lat="44.73331" lon="6.81287">
        <ele>2167</ele>
        <time>2013-09-01T09:10:55Z</time>
      </trkpt>
      <trkpt lat="44.73329" lon="6.81293">
        <ele>2167.4</ele>
        <time>2013-09-01T09:10:56Z</time>
      </trkpt>
      <trkpt lat="44.73327" lon="6.813">
        <ele>2166.5</ele>
        <time>2013-09-01T09:10:57Z</time>
      </trkpt>
      <trkpt lat="44.73327" lon="6.81306">
        <ele>2166.5</ele>
        <time>2013-09-01T09:10:58Z</time>
      </trkpt>
      <trkpt lat="44.73327" lon="6.81313">
        <ele>2166</ele>
        <time>2013-09-01T09:10:59Z</time>
      </trkpt>
      <trkpt lat="44.73327" lon="6.81319">
        <ele>2165</ele>
        <time>2013-09-01T09:11:00Z</time>
      </trkpt>
      <trkpt lat="44.73325" lon="6.81326">
        <ele>2165.5</ele>
        <time>2013-09-01T09:11:01Z</time>
      </trkpt>
      <trkpt lat="44.73323" lon="6.81331">
        <ele>2165.5</ele>
        <time>2013-09-01T09:11:02Z</time>
      </trkpt>
      <trkpt lat="44.73314" lon="6.81348">
        <ele>2164.1</ele>
        <time>2013-09-01T09:11:05Z</time>
      </trkpt>
      <trkpt lat="44.7331" lon="6.81355">
        <ele>2163.1</ele>
        <time>2013-09-01T09:11:12Z</time>
      </trkpt>
      <trkpt lat="44.73309" lon="6.81357">
        <ele>2163.1</ele>
        <time>2013-09-01T09:11:44Z</time>
      </trkpt>
      <trkpt lat="44.73307" lon="6.81357">
        <ele>2163.1</ele>
        <time>2013-09-01T09:12:00Z</time>
      </trkpt>
      <trkpt lat="44.73304" lon="6.81355">
        <ele>2162.6</ele>
        <time>2013-09-01T09:12:02Z</time>
      </trkpt>
      <trkpt lat="44.73301" lon="6.81356">
        <ele>2162.6</ele>
        <time>2013-09-01T09:12:03Z</time>
      </trkpt>
      <trkpt lat="44.73294" lon="6.81358">
        <ele>2161.2</ele>
        <time>2013-09-01T09:12:05Z</time>
      </trkpt>
      <trkpt lat="44.73274" lon="6.81351">
        <ele>2160.2</ele>
        <time>2013-09-01T09:12:12Z</time>
      </trkpt>
      <trkpt lat="44.73269" lon="6.81356">
        <ele>2160.7</ele>
        <time>2013-09-01T09:12:20Z</time>
      </trkpt>
      <trkpt lat="44.73271" lon="6.81373">
        <ele>2163.6</ele>
        <time>2013-09-01T09:12:36Z</time>
      </trkpt>
      <trkpt lat="44.73271" lon="6.8138">
        <ele>2164.1</ele>
        <time>2013-09-01T09:12:48Z</time>
      </trkpt>
      <trkpt lat="44.7327" lon="6.81386">
        <ele>2163.6</ele>
        <time>2013-09-01T09:12:51Z</time>
      </trkpt>
      <trkpt lat="44.73255" lon="6.81415">
        <ele>2162.6</ele>
        <time>2013-09-01T09:13:03Z</time>
      </trkpt>
      <trkpt lat="44.73253" lon="6.81417">
        <ele>2162.6</ele>
        <time>2013-09-01T09:13:05Z</time>
      </trkpt>
      <trkpt lat="44.73252" lon="6.81418">
        <ele>2163.1</ele>
        <time>2013-09-01T09:13:06Z</time>
      </trkpt>
      <trkpt lat="44.73234" lon="6.8143">
        <ele>2162.1</ele>
        <time>2013-09-01T09:13:17Z</time>
      </trkpt>
      <trkpt lat="44.7321" lon="6.81435">
        <ele>2159.3</ele>
        <time>2013-09-01T09:13:23Z</time>
      </trkpt>
      <trkpt lat="44.73189" lon="6.81444">
        <ele>2158.3</ele>
        <time>2013-09-01T09:13:33Z</time>
      </trkpt>
      <trkpt lat="44.73187" lon="6.8145">
        <ele>2157.8</ele>
        <time>2013-09-01T09:13:56Z</time>
      </trkpt>
      <trkpt lat="44.73173" lon="6.8147">
        <ele>2154.5</ele>
        <time>2013-09-01T09:14:05Z</time>
      </trkpt>
      <trkpt lat="44.73147" lon="6.81475">
        <ele>2152.5</ele>
        <time>2013-09-01T09:14:15Z</time>
      </trkpt>
      <trkpt lat="44.73118" lon="6.81476">
        <ele>2153.5</ele>
        <time>2013-09-01T09:14:27Z</time>
      </trkpt>
      <trkpt lat="44.73096" lon="6.81453">
        <ele>2154</ele>
        <time>2013-09-01T09:14:38Z</time>
      </trkpt>
      <trkpt lat="44.73067" lon="6.81419">
        <ele>2155.4</ele>
        <time>2013-09-01T09:14:53Z</time>
      </trkpt>
      <trkpt lat="44.73038" lon="6.81394">
        <ele>2154.5</ele>
        <time>2013-09-01T09:15:03Z</time>
      </trkpt>
      <trkpt lat="44.73033" lon="6.81371">
        <ele>2154.9</ele>
        <time>2013-09-01T09:15:09Z</time>
      </trkpt>
      <trkpt lat="44.73006" lon="6.81314">
        <ele>2155.9</ele>
        <time>2013-09-01T09:15:23Z</time>
      </trkpt>
      <trkpt lat="44.72979" lon="6.81272">
        <ele>2157.3</ele>
        <time>2013-09-01T09:15:36Z</time>
      </trkpt>
      <trkpt lat="44.72957" lon="6.81246">
        <ele>2159.3</ele>
        <time>2013-09-01T09:15:47Z</time>
      </trkpt>
      <trkpt lat="44.7293" lon="6.81229">
        <ele>2160.7</ele>
        <time>2013-09-01T09:15:58Z</time>
      </trkpt>
      <trkpt lat="44.72903" lon="6.81202">
        <ele>2162.6</ele>
        <time>2013-09-01T09:16:10Z</time>
      </trkpt>
      <trkpt lat="44.72871" lon="6.81178">
        <ele>2164.1</ele>
        <time>2013-09-01T09:16:25Z</time>
      </trkpt>
      <trkpt lat="44.72831" lon="6.81159">
        <ele>2164.6</ele>
        <time>2013-09-01T09:16:39Z</time>
      </trkpt>
      <trkpt lat="44.72809" lon="6.81148">
        <ele>2166.5</ele>
        <time>2013-09-01T09:16:50Z</time>
      </trkpt>
      <trkpt lat="44.72784" lon="6.81134">
        <ele>2169.8</ele>
        <time>2013-09-01T09:17:04Z</time>
      </trkpt>
      <trkpt lat="44.72748" lon="6.81127">
        <ele>2169.8</ele>
        <time>2013-09-01T09:17:17Z</time>
      </trkpt>
      <trkpt lat="44.72717" lon="6.81125">
        <ele>2168.4</ele>
        <time>2013-09-01T09:17:26Z</time>
      </trkpt>
      <trkpt lat="44.72692" lon="6.8111">
        <ele>2170.3</ele>
        <time>2013-09-01T09:17:36Z</time>
      </trkpt>
      <trkpt lat="44.72684" lon="6.81104">
        <ele>2171.8</ele>
        <time>2013-09-01T09:17:43Z</time>
      </trkpt>
      <trkpt lat="44.72664" lon="6.81088">
        <ele>2173.2</ele>
        <time>2013-09-01T09:17:53Z</time>
      </trkpt>
      <trkpt lat="44.72655" lon="6.81085">
        <ele>2173.7</ele>
        <time>2013-09-01T09:17:57Z</time>
      </trkpt>
      <trkpt lat="44.72653" lon="6.81083">
        <ele>2174.6</ele>
        <time>2013-09-01T09:17:58Z</time>
      </trkpt>
      <trkpt lat="44.7263" lon="6.81052">
        <ele>2175.1</ele>
        <time>2013-09-01T09:18:11Z</time>
      </trkpt>
      <trkpt lat="44.72608" lon="6.81019">
        <ele>2175.1</ele>
        <time>2013-09-01T09:18:24Z</time>
      </trkpt>
      <trkpt lat="44.72586" lon="6.80989">
        <ele>2174.6</ele>
        <time>2013-09-01T09:18:34Z</time>
      </trkpt>
      <trkpt lat="44.72561" lon="6.80963">
        <ele>2174.6</ele>
        <time>2013-09-01T09:18:43Z</time>
      </trkpt>
      <trkpt lat="44.72552" lon="6.80956">
        <ele>2174.2</ele>
        <time>2013-09-01T09:18:45Z</time>
      </trkpt>
      <trkpt lat="44.72547" lon="6.80952">
        <ele>2172.2</ele>
        <time>2013-09-01T09:18:46Z</time>
      </trkpt>
      <trkpt lat="44.72541" lon="6.80948">
        <ele>2171.8</ele>
        <time>2013-09-01T09:18:47Z</time>
      </trkpt>
      <trkpt lat="44.72516" lon="6.80931">
        <ele>2167.9</ele>
        <time>2013-09-01T09:18:51Z</time>
      </trkpt>
      <trkpt lat="44.72509" lon="6.80928">
        <ele>2167.4</ele>
        <time>2013-09-01T09:18:52Z</time>
      </trkpt>
      <trkpt lat="44.72503" lon="6.80924">
        <ele>2167</ele>
        <time>2013-09-01T09:18:53Z</time>
      </trkpt>
      <trkpt lat="44.72492" lon="6.80914">
        <ele>2166</ele>
        <time>2013-09-01T09:18:55Z</time>
      </trkpt>
      <trkpt lat="44.72487" lon="6.80908">
        <ele>2165.5</ele>
        <time>2013-09-01T09:18:56Z</time>
      </trkpt>
      <trkpt lat="44.72481" lon="6.80903">
        <ele>2165</ele>
        <time>2013-09-01T09:18:57Z</time>
      </trkpt>
      <trkpt lat="44.72475" lon="6.80899">
        <ele>2164.1</ele>
        <time>2013-09-01T09:18:58Z</time>
      </trkpt>
      <trkpt lat="44.72468" lon="6.80896">
        <ele>2163.1</ele>
        <time>2013-09-01T09:18:59Z</time>
      </trkpt>
      <trkpt lat="44.72457" lon="6.80889">
        <ele>2164.1</ele>
        <time>2013-09-01T09:19:01Z</time>
      </trkpt>
      <trkpt lat="44.72453" lon="6.80886">
        <ele>2163.6</ele>
        <time>2013-09-01T09:19:02Z</time>
      </trkpt>
      <trkpt lat="44.72447" lon="6.80882">
        <ele>2162.6</ele>
        <time>2013-09-01T09:19:04Z</time>
      </trkpt>
      <trkpt lat="44.72434" lon="6.80873">
        <ele>2159.7</ele>
        <time>2013-09-01T09:19:08Z</time>
      </trkpt>
      <trkpt lat="44.72429" lon="6.8087">
        <ele>2160.2</ele>
        <time>2013-09-01T09:19:09Z</time>
      </trkpt>
      <trkpt lat="44.72415" lon="6.80858">
        <ele>2158.8</ele>
        <time>2013-09-01T09:19:12Z</time>
      </trkpt>
      <trkpt lat="44.7241" lon="6.80854">
        <ele>2157.8</ele>
        <time>2013-09-01T09:19:13Z</time>
      </trkpt>
      <trkpt lat="44.72392" lon="6.80844">
        <ele>2155.4</ele>
        <time>2013-09-01T09:19:16Z</time>
      </trkpt>
      <trkpt lat="44.72387" lon="6.80839">
        <ele>2155.9</ele>
        <time>2013-09-01T09:19:17Z</time>
      </trkpt>
      <trkpt lat="44.72359" lon="6.80817">
        <ele>2153</ele>
        <time>2013-09-01T09:19:22Z</time>
      </trkpt>
      <trkpt lat="44.72343" lon="6.8081">
        <ele>2151.6</ele>
        <time>2013-09-01T09:19:25Z</time>
      </trkpt>
      <trkpt lat="44.72338" lon="6.80807">
        <ele>2152.1</ele>
        <time>2013-09-01T09:19:26Z</time>
      </trkpt>
      <trkpt lat="44.7231" lon="6.80793">
        <ele>2151.1</ele>
        <time>2013-09-01T09:19:35Z</time>
      </trkpt>
      <trkpt lat="44.72302" lon="6.80789">
        <ele>2149.7</ele>
        <time>2013-09-01T09:19:37Z</time>
      </trkpt>
      <trkpt lat="44.72297" lon="6.80786">
        <ele>2150.1</ele>
        <time>2013-09-01T09:19:38Z</time>
      </trkpt>
      <trkpt lat="44.72292" lon="6.80782">
        <ele>2150.1</ele>
        <time>2013-09-01T09:19:39Z</time>
      </trkpt>
      <trkpt lat="44.72285" lon="6.80775">
        <ele>2149.2</ele>
        <time>2013-09-01T09:19:41Z</time>
      </trkpt>
      <trkpt lat="44.7228" lon="6.80773">
        <ele>2148.2</ele>
        <time>2013-09-01T09:19:42Z</time>
      </trkpt>
      <trkpt lat="44.72275" lon="6.80771">
        <ele>2149.2</ele>
        <time>2013-09-01T09:19:43Z</time>
      </trkpt>
      <trkpt lat="44.72271" lon="6.80769">
        <ele>2148.7</ele>
        <time>2013-09-01T09:19:44Z</time>
      </trkpt>
      <trkpt lat="44.72266" lon="6.80767">
        <ele>2148.7</ele>
        <time>2013-09-01T09:19:45Z</time>
      </trkpt>
      <trkpt lat="44.72263" lon="6.80763">
        <ele>2147.7</ele>
        <time>2013-09-01T09:19:46Z</time>
      </trkpt>
      <trkpt lat="44.7226" lon="6.80759">
        <ele>2148.2</ele>
        <time>2013-09-01T09:19:47Z</time>
      </trkpt>
      <trkpt lat="44.72258" lon="6.80756">
        <ele>2148.7</ele>
        <time>2013-09-01T09:19:48Z</time>
      </trkpt>
      <trkpt lat="44.72256" lon="6.80752">
        <ele>2148.2</ele>
        <time>2013-09-01T09:19:49Z</time>
      </trkpt>
      <trkpt lat="44.72254" lon="6.80749">
        <ele>2147.2</ele>
        <time>2013-09-01T09:19:50Z</time>
      </trkpt>
      <trkpt lat="44.7225" lon="6.80745">
        <ele>2145.3</ele>
        <time>2013-09-01T09:19:51Z</time>
      </trkpt>
      <trkpt lat="44.72247" lon="6.80742">
        <ele>2145.3</ele>
        <time>2013-09-01T09:19:52Z</time>
      </trkpt>
      <trkpt lat="44.72244" lon="6.80738">
        <ele>2144.8</ele>
        <time>2013-09-01T09:19:53Z</time>
      </trkpt>
      <trkpt lat="44.72234" lon="6.80731">
        <ele>2142</ele>
        <time>2013-09-01T09:19:57Z</time>
      </trkpt>
      <trkpt lat="44.7223" lon="6.8073">
        <ele>2142</ele>
        <time>2013-09-01T09:20:08Z</time>
      </trkpt>
      <trkpt lat="44.72221" lon="6.80719">
        <ele>2140</ele>
        <time>2013-09-01T09:20:24Z</time>
      </trkpt>
      <trkpt lat="44.72218" lon="6.80713">
        <ele>2139.1</ele>
        <time>2013-09-01T09:20:25Z</time>
      </trkpt>
      <trkpt lat="44.72215" lon="6.80708">
        <ele>2139.1</ele>
        <time>2013-09-01T09:20:26Z</time>
      </trkpt>
      <trkpt lat="44.72211" lon="6.80704">
        <ele>2139.1</ele>
        <time>2013-09-01T09:20:27Z</time>
      </trkpt>
      <trkpt lat="44.72207" lon="6.80699">
        <ele>2138.6</ele>
        <time>2013-09-01T09:20:28Z</time>
      </trkpt>
      <trkpt lat="44.72198" lon="6.8069">
        <ele>2136.2</ele>
        <time>2013-09-01T09:20:30Z</time>
      </trkpt>
      <trkpt lat="44.72181" lon="6.80671">
        <ele>2135.2</ele>
        <time>2013-09-01T09:20:36Z</time>
      </trkpt>
      <trkpt lat="44.72177" lon="6.80668">
        <ele>2133.8</ele>
        <time>2013-09-01T09:20:37Z</time>
      </trkpt>
      <trkpt lat="44.72173" lon="6.80664">
        <ele>2133.8</ele>
        <time>2013-09-01T09:20:38Z</time>
      </trkpt>
      <trkpt lat="44.72167" lon="6.8066">
        <ele>2132.8</ele>
        <time>2013-09-01T09:20:39Z</time>
      </trkpt>
      <trkpt lat="44.72162" lon="6.80654">
        <ele>2131.4</ele>
        <time>2013-09-01T09:20:40Z</time>
      </trkpt>
      <trkpt lat="44.72156" lon="6.80649">
        <ele>2131.4</ele>
        <time>2013-09-01T09:20:41Z</time>
      </trkpt>
      <trkpt lat="44.72151" lon="6.80644">
        <ele>2131.4</ele>
        <time>2013-09-01T09:20:42Z</time>
      </trkpt>
      <trkpt lat="44.72145" lon="6.8064">
        <ele>2130.4</ele>
        <time>2013-09-01T09:20:43Z</time>
      </trkpt>
      <trkpt lat="44.72139" lon="6.80636">
        <ele>2130.4</ele>
        <time>2013-09-01T09:20:44Z</time>
      </trkpt>
      <trkpt lat="44.72133" lon="6.80631">
        <ele>2129</ele>
        <time>2013-09-01T09:20:45Z</time>
      </trkpt>
      <trkpt lat="44.72127" lon="6.80625">
        <ele>2128.5</ele>
        <time>2013-09-01T09:20:46Z</time>
      </trkpt>
      <trkpt lat="44.72106" lon="6.8061">
        <ele>2126.6</ele>
        <time>2013-09-01T09:20:49Z</time>
      </trkpt>
      <trkpt lat="44.72099" lon="6.80605">
        <ele>2126.6</ele>
        <time>2013-09-01T09:20:50Z</time>
      </trkpt>
      <trkpt lat="44.72092" lon="6.80599">
        <ele>2125.6</ele>
        <time>2013-09-01T09:20:51Z</time>
      </trkpt>
      <trkpt lat="44.72085" lon="6.80592">
        <ele>2126.1</ele>
        <time>2013-09-01T09:20:52Z</time>
      </trkpt>
      <trkpt lat="44.72049" lon="6.80543">
        <ele>2125.1</ele>
        <time>2013-09-01T09:21:00Z</time>
      </trkpt>
      <trkpt lat="44.72045" lon="6.80541">
        <ele>2125.6</ele>
        <time>2013-09-01T09:21:01Z</time>
      </trkpt>
      <trkpt lat="44.72041" lon="6.80539">
        <ele>2125.6</ele>
        <time>2013-09-01T09:21:02Z</time>
      </trkpt>
      <trkpt lat="44.72032" lon="6.80535">
        <ele>2125.1</ele>
        <time>2013-09-01T09:21:04Z</time>
      </trkpt>
      <trkpt lat="44.72028" lon="6.80532">
        <ele>2123.7</ele>
        <time>2013-09-01T09:21:05Z</time>
      </trkpt>
      <trkpt lat="44.72002" lon="6.80508">
        <ele>2125.1</ele>
        <time>2013-09-01T09:21:15Z</time>
      </trkpt>
      <trkpt lat="44.71955" lon="6.80478">
        <ele>2126.1</ele>
        <time>2013-09-01T09:21:28Z</time>
      </trkpt>
      <trkpt lat="44.71923" lon="6.80459">
        <ele>2127.1</ele>
        <time>2013-09-01T09:21:41Z</time>
      </trkpt>
      <trkpt lat="44.71882" lon="6.80442">
        <ele>2129</ele>
        <time>2013-09-01T09:21:58Z</time>
      </trkpt>
      <trkpt lat="44.71834" lon="6.80436">
        <ele>2129</ele>
        <time>2013-09-01T09:22:12Z</time>
      </trkpt>
      <trkpt lat="44.71831" lon="6.80436">
        <ele>2128.5</ele>
        <time>2013-09-01T09:22:29Z</time>
      </trkpt>
      <trkpt lat="44.71832" lon="6.80441">
        <ele>2129</ele>
        <time>2013-09-01T09:22:59Z</time>
      </trkpt>
      <trkpt lat="44.71819" lon="6.80438">
        <ele>2129</ele>
        <time>2013-09-01T09:23:09Z</time>
      </trkpt>
      <trkpt lat="44.71769" lon="6.80439">
        <ele>2129.9</ele>
        <time>2013-09-01T09:23:25Z</time>
      </trkpt>
      <trkpt lat="44.71732" lon="6.80435">
        <ele>2131.4</ele>
        <time>2013-09-01T09:23:38Z</time>
      </trkpt>
      <trkpt lat="44.71693" lon="6.80433">
        <ele>2131.9</ele>
        <time>2013-09-01T09:23:51Z</time>
      </trkpt>
      <trkpt lat="44.71664" lon="6.80454">
        <ele>2133.3</ele>
        <time>2013-09-01T09:24:04Z</time>
      </trkpt>
      <trkpt lat="44.71643" lon="6.80452">
        <ele>2133.8</ele>
        <time>2013-09-01T09:24:15Z</time>
      </trkpt>
      <trkpt lat="44.71625" lon="6.80444">
        <ele>2132.8</ele>
        <time>2013-09-01T09:24:25Z</time>
      </trkpt>
      <trkpt lat="44.71622" lon="6.80443">
        <ele>2132.8</ele>
        <time>2013-09-01T09:24:35Z</time>
      </trkpt>
      <trkpt lat="44.71615" lon="6.80444">
        <ele>2134.3</ele>
        <time>2013-09-01T09:24:50Z</time>
      </trkpt>
      <trkpt lat="44.71604" lon="6.80446">
        <ele>2136.7</ele>
        <time>2013-09-01T09:25:06Z</time>
      </trkpt>
      <trkpt lat="44.71599" lon="6.80447">
        <ele>2137.2</ele>
        <time>2013-09-01T09:25:32Z</time>
      </trkpt>
      <trkpt lat="44.7159" lon="6.80444">
        <ele>2139.6</ele>
        <time>2013-09-01T09:25:47Z</time>
      </trkpt>
      <trkpt lat="44.71581" lon="6.80439">
        <ele>2142</ele>
        <time>2013-09-01T09:26:02Z</time>
      </trkpt>
      <trkpt lat="44.71569" lon="6.80437">
        <ele>2143.4</ele>
        <time>2013-09-01T09:26:16Z</time>
      </trkpt>
      <trkpt lat="44.71559" lon="6.80436">
        <ele>2146.8</ele>
        <time>2013-09-01T09:26:30Z</time>
      </trkpt>
      <trkpt lat="44.71547" lon="6.80434">
        <ele>2149.2</ele>
        <time>2013-09-01T09:26:46Z</time>
      </trkpt>
      <trkpt lat="44.71533" lon="6.80436">
        <ele>2153</ele>
        <time>2013-09-01T09:27:05Z</time>
      </trkpt>
      <trkpt lat="44.71518" lon="6.8044">
        <ele>2154.9</ele>
        <time>2013-09-01T09:27:26Z</time>
      </trkpt>
      <trkpt lat="44.71505" lon="6.80447">
        <ele>2158.3</ele>
        <time>2013-09-01T09:27:43Z</time>
      </trkpt>
      <trkpt lat="44.71495" lon="6.80456">
        <ele>2159.7</ele>
        <time>2013-09-01T09:27:59Z</time>
      </trkpt>
      <trkpt lat="44.71486" lon="6.80463">
        <ele>2162.1</ele>
        <time>2013-09-01T09:28:14Z</time>
      </trkpt>
      <trkpt lat="44.7148" lon="6.80466">
        <ele>2162.6</ele>
        <time>2013-09-01T09:28:25Z</time>
      </trkpt>
      <trkpt lat="44.71472" lon="6.80468">
        <ele>2163.1</ele>
        <time>2013-09-01T09:28:41Z</time>
      </trkpt>
      <trkpt lat="44.71463" lon="6.80468">
        <ele>2166.5</ele>
        <time>2013-09-01T09:28:54Z</time>
      </trkpt>
      <trkpt lat="44.71451" lon="6.80466">
        <ele>2168.9</ele>
        <time>2013-09-01T09:29:09Z</time>
      </trkpt>
      <trkpt lat="44.71439" lon="6.80463">
        <ele>2170.3</ele>
        <time>2013-09-01T09:29:23Z</time>
      </trkpt>
      <trkpt lat="44.71427" lon="6.80466">
        <ele>2172.2</ele>
        <time>2013-09-01T09:29:37Z</time>
      </trkpt>
      <trkpt lat="44.71412" lon="6.80462">
        <ele>2174.6</ele>
        <time>2013-09-01T09:29:53Z</time>
      </trkpt>
      <trkpt lat="44.71407" lon="6.80462">
        <ele>2175.6</ele>
        <time>2013-09-01T09:29:57Z</time>
      </trkpt>
      <trkpt lat="44.71396" lon="6.80469">
        <ele>2177</ele>
        <time>2013-09-01T09:30:10Z</time>
      </trkpt>
      <trkpt lat="44.71381" lon="6.80478">
        <ele>2179</ele>
        <time>2013-09-01T09:30:26Z</time>
      </trkpt>
      <trkpt lat="44.71368" lon="6.80481">
        <ele>2181.4</ele>
        <time>2013-09-01T09:30:40Z</time>
      </trkpt>
      <trkpt lat="44.71358" lon="6.80483">
        <ele>2182.3</ele>
        <time>2013-09-01T09:30:51Z</time>
      </trkpt>
      <trkpt lat="44.71341" lon="6.80499">
        <ele>2183.3</ele>
        <time>2013-09-01T09:31:09Z</time>
      </trkpt>
      <trkpt lat="44.7133" lon="6.80507">
        <ele>2184.7</ele>
        <time>2013-09-01T09:31:23Z</time>
      </trkpt>
      <trkpt lat="44.71327" lon="6.80511">
        <ele>2184.7</ele>
        <time>2013-09-01T09:31:49Z</time>
      </trkpt>
      <trkpt lat="44.71327" lon="6.80511">
        <ele>2183.3</ele>
        <time>2013-09-01T09:31:56Z</time>
      </trkpt>
      <trkpt lat="44.71321" lon="6.80518">
        <ele>2186.7</ele>
        <time>2013-09-01T09:32:17Z</time>
      </trkpt>
      <trkpt lat="44.71307" lon="6.80533">
        <ele>2188.6</ele>
        <time>2013-09-01T09:32:36Z</time>
      </trkpt>
      <trkpt lat="44.71295" lon="6.80543">
        <ele>2190.5</ele>
        <time>2013-09-01T09:32:53Z</time>
      </trkpt>
      <trkpt lat="44.71294" lon="6.80543">
        <ele>2191</ele>
        <time>2013-09-01T09:32:54Z</time>
      </trkpt>
      <trkpt lat="44.71278" lon="6.80549">
        <ele>2193.4</ele>
        <time>2013-09-01T09:33:12Z</time>
      </trkpt>
      <trkpt lat="44.71263" lon="6.80558">
        <ele>2195.8</ele>
        <time>2013-09-01T09:33:32Z</time>
      </trkpt>
      <trkpt lat="44.71244" lon="6.80569">
        <ele>2197.7</ele>
        <time>2013-09-01T09:33:52Z</time>
      </trkpt>
      <trkpt lat="44.71231" lon="6.80579">
        <ele>2200.1</ele>
        <time>2013-09-01T09:34:11Z</time>
      </trkpt>
      <trkpt lat="44.71222" lon="6.80592">
        <ele>2202</ele>
        <time>2013-09-01T09:34:26Z</time>
      </trkpt>
      <trkpt lat="44.71213" lon="6.80602">
        <ele>2204</ele>
        <time>2013-09-01T09:34:41Z</time>
      </trkpt>
      <trkpt lat="44.71206" lon="6.8059">
        <ele>2206.8</ele>
        <time>2013-09-01T09:34:57Z</time>
      </trkpt>
      <trkpt lat="44.712" lon="6.80566">
        <ele>2208.3</ele>
        <time>2013-09-01T09:35:15Z</time>
      </trkpt>
      <trkpt lat="44.71194" lon="6.80547">
        <ele>2211.2</ele>
        <time>2013-09-01T09:35:33Z</time>
      </trkpt>
      <trkpt lat="44.71193" lon="6.80541">
        <ele>2211.2</ele>
        <time>2013-09-01T09:35:38Z</time>
      </trkpt>
      <trkpt lat="44.71196" lon="6.80539">
        <ele>2212.1</ele>
        <time>2013-09-01T09:35:55Z</time>
      </trkpt>
      <trkpt lat="44.71198" lon="6.80531">
        <ele>2214.1</ele>
        <time>2013-09-01T09:36:21Z</time>
      </trkpt>
      <trkpt lat="44.71194" lon="6.80523">
        <ele>2216</ele>
        <time>2013-09-01T09:36:35Z</time>
      </trkpt>
      <trkpt lat="44.71192" lon="6.80522">
        <ele>2216</ele>
        <time>2013-09-01T09:36:56Z</time>
      </trkpt>
      <trkpt lat="44.7119" lon="6.80521">
        <ele>2216</ele>
        <time>2013-09-01T09:36:58Z</time>
      </trkpt>
      <trkpt lat="44.71186" lon="6.8052">
        <ele>2217.4</ele>
        <time>2013-09-01T09:37:03Z</time>
      </trkpt>
      <trkpt lat="44.71185" lon="6.8052">
        <ele>2216.9</ele>
        <time>2013-09-01T09:37:04Z</time>
      </trkpt>
      <trkpt lat="44.71174" lon="6.80515">
        <ele>2218.4</ele>
        <time>2013-09-01T09:37:22Z</time>
      </trkpt>
      <trkpt lat="44.71174" lon="6.80514">
        <ele>2219.3</ele>
        <time>2013-09-01T09:37:49Z</time>
      </trkpt>
      <trkpt lat="44.71163" lon="6.80513">
        <ele>2220.8</ele>
        <time>2013-09-01T09:38:05Z</time>
      </trkpt>
      <trkpt lat="44.71148" lon="6.80515">
        <ele>2223.7</ele>
        <time>2013-09-01T09:38:22Z</time>
      </trkpt>
      <trkpt lat="44.71146" lon="6.80514">
        <ele>2223.7</ele>
        <time>2013-09-01T09:38:25Z</time>
      </trkpt>
      <trkpt lat="44.71141" lon="6.80507">
        <ele>2225.6</ele>
        <time>2013-09-01T09:38:35Z</time>
      </trkpt>
      <trkpt lat="44.71143" lon="6.80496">
        <ele>2227.5</ele>
        <time>2013-09-01T09:38:54Z</time>
      </trkpt>
      <trkpt lat="44.71145" lon="6.80492">
        <ele>2228.5</ele>
        <time>2013-09-01T09:39:05Z</time>
      </trkpt>
      <trkpt lat="44.7115" lon="6.80481">
        <ele>2229.4</ele>
        <time>2013-09-01T09:39:19Z</time>
      </trkpt>
      <trkpt lat="44.71155" lon="6.80476">
        <ele>2232.3</ele>
        <time>2013-09-01T09:39:33Z</time>
      </trkpt>
      <trkpt lat="44.71152" lon="6.80468">
        <ele>2232.8</ele>
        <time>2013-09-01T09:39:45Z</time>
      </trkpt>
      <trkpt lat="44.71145" lon="6.80466">
        <ele>2235.2</ele>
        <time>2013-09-01T09:39:58Z</time>
      </trkpt>
      <trkpt lat="44.71149" lon="6.80457">
        <ele>2237.1</ele>
        <time>2013-09-01T09:40:12Z</time>
      </trkpt>
      <trkpt lat="44.7115" lon="6.80451">
        <ele>2238.6</ele>
        <time>2013-09-01T09:40:24Z</time>
      </trkpt>
      <trkpt lat="44.71153" lon="6.8044">
        <ele>2241.5</ele>
        <time>2013-09-01T09:40:41Z</time>
      </trkpt>
      <trkpt lat="44.71157" lon="6.80431">
        <ele>2241.5</ele>
        <time>2013-09-01T09:40:51Z</time>
      </trkpt>
      <trkpt lat="44.71161" lon="6.80423">
        <ele>2243.9</ele>
        <time>2013-09-01T09:41:05Z</time>
      </trkpt>
      <trkpt lat="44.71166" lon="6.80415">
        <ele>2244.8</ele>
        <time>2013-09-01T09:41:14Z</time>
      </trkpt>
      <trkpt lat="44.71172" lon="6.80401">
        <ele>2248.2</ele>
        <time>2013-09-01T09:41:31Z</time>
      </trkpt>
      <trkpt lat="44.71176" lon="6.80395">
        <ele>2248.7</ele>
        <time>2013-09-01T09:41:44Z</time>
      </trkpt>
      <trkpt lat="44.71184" lon="6.80385">
        <ele>2250.1</ele>
        <time>2013-09-01T09:41:57Z</time>
      </trkpt>
      <trkpt lat="44.71189" lon="6.80374">
        <ele>2249.6</ele>
        <time>2013-09-01T09:42:09Z</time>
      </trkpt>
      <trkpt lat="44.71193" lon="6.80361">
        <ele>2252</ele>
        <time>2013-09-01T09:42:16Z</time>
      </trkpt>
      <trkpt lat="44.71195" lon="6.80349">
        <ele>2254</ele>
        <time>2013-09-01T09:42:28Z</time>
      </trkpt>
      <trkpt lat="44.71201" lon="6.80343">
        <ele>2255.4</ele>
        <time>2013-09-01T09:42:51Z</time>
      </trkpt>
      <trkpt lat="44.71206" lon="6.8033">
        <ele>2257.8</ele>
        <time>2013-09-01T09:43:08Z</time>
      </trkpt>
      <trkpt lat="44.71202" lon="6.80328">
        <ele>2259.7</ele>
        <time>2013-09-01T09:43:24Z</time>
      </trkpt>
      <trkpt lat="44.71193" lon="6.80332">
        <ele>2261.2</ele>
        <time>2013-09-01T09:43:42Z</time>
      </trkpt>
      <trkpt lat="44.71191" lon="6.80333">
        <ele>2261.6</ele>
        <time>2013-09-01T09:43:45Z</time>
      </trkpt>
      <trkpt lat="44.71181" lon="6.80333">
        <ele>2264</ele>
        <time>2013-09-01T09:44:01Z</time>
      </trkpt>
      <trkpt lat="44.71177" lon="6.80333">
        <ele>2265</ele>
        <time>2013-09-01T09:44:14Z</time>
      </trkpt>
      <trkpt lat="44.71169" lon="6.80334">
        <ele>2268.4</ele>
        <time>2013-09-01T09:44:27Z</time>
      </trkpt>
      <trkpt lat="44.71164" lon="6.80333">
        <ele>2269.3</ele>
        <time>2013-09-01T09:44:41Z</time>
      </trkpt>
      <trkpt lat="44.71163" lon="6.80326">
        <ele>2270.3</ele>
        <time>2013-09-01T09:44:59Z</time>
      </trkpt>
      <trkpt lat="44.71163" lon="6.80313">
        <ele>2271.3</ele>
        <time>2013-09-01T09:45:14Z</time>
      </trkpt>
      <trkpt lat="44.71164" lon="6.80311">
        <ele>2271.3</ele>
        <time>2013-09-01T09:45:16Z</time>
      </trkpt>
      <trkpt lat="44.71159" lon="6.80304">
        <ele>2273.2</ele>
        <time>2013-09-01T09:45:31Z</time>
      </trkpt>
      <trkpt lat="44.7115" lon="6.8031">
        <ele>2277</ele>
        <time>2013-09-01T09:45:47Z</time>
      </trkpt>
      <trkpt lat="44.71143" lon="6.80312">
        <ele>2278</ele>
        <time>2013-09-01T09:46:02Z</time>
      </trkpt>
      <trkpt lat="44.71141" lon="6.80308">
        <ele>2278</ele>
        <time>2013-09-01T09:46:21Z</time>
      </trkpt>
      <trkpt lat="44.71137" lon="6.80306">
        <ele>2278.9</ele>
        <time>2013-09-01T09:46:41Z</time>
      </trkpt>
      <trkpt lat="44.71132" lon="6.80306">
        <ele>2280.4</ele>
        <time>2013-09-01T09:46:48Z</time>
      </trkpt>
      <trkpt lat="44.71126" lon="6.80306">
        <ele>2280.4</ele>
        <time>2013-09-01T09:46:55Z</time>
      </trkpt>
      <trkpt lat="44.71123" lon="6.80306">
        <ele>2281.8</ele>
        <time>2013-09-01T09:47:00Z</time>
      </trkpt>
      <trkpt lat="44.71117" lon="6.80294">
        <ele>2282.3</ele>
        <time>2013-09-01T09:47:15Z</time>
      </trkpt>
      <trkpt lat="44.71125" lon="6.80295">
        <ele>2284.2</ele>
        <time>2013-09-01T09:47:29Z</time>
      </trkpt>
      <trkpt lat="44.71128" lon="6.80297">
        <ele>2284.2</ele>
        <time>2013-09-01T09:47:41Z</time>
      </trkpt>
      <trkpt lat="44.71129" lon="6.80296">
        <ele>2283.8</ele>
        <time>2013-09-01T09:47:46Z</time>
      </trkpt>
      <trkpt lat="44.71127" lon="6.80298">
        <ele>2280.9</ele>
        <time>2013-09-01T09:54:06Z</time>
      </trkpt>
      <trkpt lat="44.71115" lon="6.80293">
        <ele>2280.9</ele>
        <time>2013-09-01T09:54:07Z</time>
      </trkpt>
      <trkpt lat="44.7111" lon="6.80294">
        <ele>2279.9</ele>
        <time>2013-09-01T09:54:12Z</time>
      </trkpt>
      <trkpt lat="44.71109" lon="6.80292">
        <ele>2280.4</ele>
        <time>2013-09-01T09:54:13Z</time>
      </trkpt>
      <trkpt lat="44.71108" lon="6.80292">
        <ele>2280.9</ele>
        <time>2013-09-01T09:54:14Z</time>
      </trkpt>
      <trkpt lat="44.71106" lon="6.80292">
        <ele>2280.9</ele>
        <time>2013-09-01T09:54:15Z</time>
      </trkpt>
      <trkpt lat="44.71104" lon="6.80293">
        <ele>2280.9</ele>
        <time>2013-09-01T09:54:16Z</time>
      </trkpt>
      <trkpt lat="44.71102" lon="6.80294">
        <ele>2280.9</ele>
        <time>2013-09-01T09:54:17Z</time>
      </trkpt>
      <trkpt lat="44.711" lon="6.80295">
        <ele>2280.9</ele>
        <time>2013-09-01T09:54:18Z</time>
      </trkpt>
      <trkpt lat="44.71098" lon="6.80296">
        <ele>2280.4</ele>
        <time>2013-09-01T09:54:19Z</time>
      </trkpt>
      <trkpt lat="44.71096" lon="6.80296">
        <ele>2280.9</ele>
        <time>2013-09-01T09:54:20Z</time>
      </trkpt>
      <trkpt lat="44.71094" lon="6.80296">
        <ele>2281.4</ele>
        <time>2013-09-01T09:54:21Z</time>
      </trkpt>
      <trkpt lat="44.71091" lon="6.80297">
        <ele>2280.4</ele>
        <time>2013-09-01T09:54:22Z</time>
      </trkpt>
      <trkpt lat="44.71087" lon="6.80299">
        <ele>2281.4</ele>
        <time>2013-09-01T09:54:24Z</time>
      </trkpt>
      <trkpt lat="44.71085" lon="6.80301">
        <ele>2280.9</ele>
        <time>2013-09-01T09:54:25Z</time>
      </trkpt>
      <trkpt lat="44.71079" lon="6.80304">
        <ele>2282.3</ele>
        <time>2013-09-01T09:54:29Z</time>
      </trkpt>
      <trkpt lat="44.71078" lon="6.80304">
        <ele>2282.8</ele>
        <time>2013-09-01T09:54:30Z</time>
      </trkpt>
      <trkpt lat="44.71075" lon="6.80304">
        <ele>2281.8</ele>
        <time>2013-09-01T09:54:31Z</time>
      </trkpt>
      <trkpt lat="44.71072" lon="6.80304">
        <ele>2282.3</ele>
        <time>2013-09-01T09:54:32Z</time>
      </trkpt>
      <trkpt lat="44.71069" lon="6.80305">
        <ele>2281.4</ele>
        <time>2013-09-01T09:54:33Z</time>
      </trkpt>
      <trkpt lat="44.71065" lon="6.80305">
        <ele>2281.8</ele>
        <time>2013-09-01T09:54:34Z</time>
      </trkpt>
      <trkpt lat="44.71062" lon="6.80304">
        <ele>2281.4</ele>
        <time>2013-09-01T09:54:35Z</time>
      </trkpt>
      <trkpt lat="44.7106" lon="6.80303">
        <ele>2280.9</ele>
        <time>2013-09-01T09:54:36Z</time>
      </trkpt>
      <trkpt lat="44.71056" lon="6.80304">
        <ele>2280.9</ele>
        <time>2013-09-01T09:54:37Z</time>
      </trkpt>
      <trkpt lat="44.71052" lon="6.80305">
        <ele>2280.9</ele>
        <time>2013-09-01T09:54:38Z</time>
      </trkpt>
      <trkpt lat="44.71049" lon="6.80304">
        <ele>2279.9</ele>
        <time>2013-09-01T09:54:39Z</time>
      </trkpt>
      <trkpt lat="44.71045" lon="6.80302">
        <ele>2280.4</ele>
        <time>2013-09-01T09:54:40Z</time>
      </trkpt>
      <trkpt lat="44.71041" lon="6.803">
        <ele>2279.9</ele>
        <time>2013-09-01T09:54:41Z</time>
      </trkpt>
      <trkpt lat="44.71039" lon="6.80297">
        <ele>2279.9</ele>
        <time>2013-09-01T09:54:42Z</time>
      </trkpt>
      <trkpt lat="44.71035" lon="6.80296">
        <ele>2280.9</ele>
        <time>2013-09-01T09:54:51Z</time>
      </trkpt>
      <trkpt lat="44.71029" lon="6.80293">
        <ele>2281.8</ele>
        <time>2013-09-01T09:55:03Z</time>
      </trkpt>
      <trkpt lat="44.71028" lon="6.80293">
        <ele>2281.8</ele>
        <time>2013-09-01T09:55:04Z</time>
      </trkpt>
      <trkpt lat="44.71026" lon="6.80293">
        <ele>2281.4</ele>
        <time>2013-09-01T09:55:05Z</time>
      </trkpt>
      <trkpt lat="44.71024" lon="6.80293">
        <ele>2281.8</ele>
        <time>2013-09-01T09:55:06Z</time>
      </trkpt>
      <trkpt lat="44.71022" lon="6.80292">
        <ele>2281.8</ele>
        <time>2013-09-01T09:55:07Z</time>
      </trkpt>
      <trkpt lat="44.7102" lon="6.80292">
        <ele>2282.3</ele>
        <time>2013-09-01T09:55:08Z</time>
      </trkpt>
      <trkpt lat="44.71014" lon="6.80293">
        <ele>2282.3</ele>
        <time>2013-09-01T09:55:13Z</time>
      </trkpt>
      <trkpt lat="44.71011" lon="6.80295">
        <ele>2282.3</ele>
        <time>2013-09-01T09:55:14Z</time>
      </trkpt>
      <trkpt lat="44.71007" lon="6.80297">
        <ele>2281.8</ele>
        <time>2013-09-01T09:55:15Z</time>
      </trkpt>
      <trkpt lat="44.70993" lon="6.80302">
        <ele>2280.4</ele>
        <time>2013-09-01T09:55:18Z</time>
      </trkpt>
      <trkpt lat="44.70988" lon="6.80302">
        <ele>2279.9</ele>
        <time>2013-09-01T09:55:19Z</time>
      </trkpt>
      <trkpt lat="44.70983" lon="6.80301">
        <ele>2279.9</ele>
        <time>2013-09-01T09:55:20Z</time>
      </trkpt>
      <trkpt lat="44.70978" lon="6.80299">
        <ele>2279.9</ele>
        <time>2013-09-01T09:55:21Z</time>
      </trkpt>
      <trkpt lat="44.70974" lon="6.80297">
        <ele>2279.9</ele>
        <time>2013-09-01T09:55:22Z</time>
      </trkpt>
      <trkpt lat="44.70942" lon="6.80291">
        <ele>2281.4</ele>
        <time>2013-09-01T09:55:33Z</time>
      </trkpt>
      <trkpt lat="44.70935" lon="6.80285">
        <ele>2282.3</ele>
        <time>2013-09-01T09:55:38Z</time>
      </trkpt>
      <trkpt lat="44.70932" lon="6.80284">
        <ele>2282.3</ele>
        <time>2013-09-01T09:55:39Z</time>
      </trkpt>
      <trkpt lat="44.70907" lon="6.80284">
        <ele>2283.3</ele>
        <time>2013-09-01T09:55:49Z</time>
      </trkpt>
      <trkpt lat="44.70906" lon="6.80285">
        <ele>2283.8</ele>
        <time>2013-09-01T09:55:50Z</time>
      </trkpt>
      <trkpt lat="44.70905" lon="6.80285">
        <ele>2283.3</ele>
        <time>2013-09-01T09:55:51Z</time>
      </trkpt>
      <trkpt lat="44.709" lon="6.80288">
        <ele>2283.8</ele>
        <time>2013-09-01T09:55:55Z</time>
      </trkpt>
      <trkpt lat="44.70881" lon="6.80288">
        <ele>2285.7</ele>
        <time>2013-09-01T09:56:04Z</time>
      </trkpt>
      <trkpt lat="44.70879" lon="6.80289">
        <ele>2285.7</ele>
        <time>2013-09-01T09:56:05Z</time>
      </trkpt>
      <trkpt lat="44.70878" lon="6.80289">
        <ele>2285.7</ele>
        <time>2013-09-01T09:56:06Z</time>
      </trkpt>
      <trkpt lat="44.70877" lon="6.8029">
        <ele>2286.6</ele>
        <time>2013-09-01T09:56:07Z</time>
      </trkpt>
      <trkpt lat="44.70854" lon="6.80302">
        <ele>2287.6</ele>
        <time>2013-09-01T09:56:19Z</time>
      </trkpt>
      <trkpt lat="44.70835" lon="6.80294">
        <ele>2289.5</ele>
        <time>2013-09-01T09:56:31Z</time>
      </trkpt>
      <trkpt lat="44.7081" lon="6.80294">
        <ele>2291</ele>
        <time>2013-09-01T09:56:46Z</time>
      </trkpt>
      <trkpt lat="44.7081" lon="6.80292">
        <ele>2291.4</ele>
        <time>2013-09-01T09:57:00Z</time>
      </trkpt>
      <trkpt lat="44.70802" lon="6.80287">
        <ele>2293.4</ele>
        <time>2013-09-01T09:57:18Z</time>
      </trkpt>
      <trkpt lat="44.70797" lon="6.80283">
        <ele>2295.3</ele>
        <time>2013-09-01T09:57:28Z</time>
      </trkpt>
      <trkpt lat="44.70787" lon="6.80276">
        <ele>2296.3</ele>
        <time>2013-09-01T09:57:46Z</time>
      </trkpt>
      <trkpt lat="44.70776" lon="6.80273">
        <ele>2299.1</ele>
        <time>2013-09-01T09:57:59Z</time>
      </trkpt>
      <trkpt lat="44.70775" lon="6.80273">
        <ele>2299.6</ele>
        <time>2013-09-01T09:58:00Z</time>
      </trkpt>
      <trkpt lat="44.70766" lon="6.80277">
        <ele>2302.5</ele>
        <time>2013-09-01T09:58:15Z</time>
      </trkpt>
      <trkpt lat="44.70765" lon="6.80281">
        <ele>2302.5</ele>
        <time>2013-09-01T09:58:24Z</time>
      </trkpt>
      <trkpt lat="44.70763" lon="6.80284">
        <ele>2302.5</ele>
        <time>2013-09-01T09:58:38Z</time>
      </trkpt>
      <trkpt lat="44.70761" lon="6.80284">
        <ele>2303.5</ele>
        <time>2013-09-01T09:58:47Z</time>
      </trkpt>
      <trkpt lat="44.70759" lon="6.80284">
        <ele>2302.5</ele>
        <time>2013-09-01T09:58:48Z</time>
      </trkpt>
      <trkpt lat="44.70753" lon="6.80286">
        <ele>2303.5</ele>
        <time>2013-09-01T09:58:52Z</time>
      </trkpt>
      <trkpt lat="44.70738" lon="6.80304">
        <ele>2306.3</ele>
        <time>2013-09-01T09:59:04Z</time>
      </trkpt>
      <trkpt lat="44.70732" lon="6.80308">
        <ele>2306.8</ele>
        <time>2013-09-01T09:59:08Z</time>
      </trkpt>
      <trkpt lat="44.70731" lon="6.8031">
        <ele>2307.3</ele>
        <time>2013-09-01T09:59:09Z</time>
      </trkpt>
      <trkpt lat="44.7073" lon="6.80312">
        <ele>2306.3</ele>
        <time>2013-09-01T09:59:10Z</time>
      </trkpt>
      <trkpt lat="44.70728" lon="6.80313">
        <ele>2306.3</ele>
        <time>2013-09-01T09:59:11Z</time>
      </trkpt>
      <trkpt lat="44.70727" lon="6.80315">
        <ele>2306.8</ele>
        <time>2013-09-01T09:59:12Z</time>
      </trkpt>
      <trkpt lat="44.70726" lon="6.80317">
        <ele>2306.8</ele>
        <time>2013-09-01T09:59:13Z</time>
      </trkpt>
      <trkpt lat="44.70721" lon="6.80331">
        <ele>2305.9</ele>
        <time>2013-09-01T09:59:21Z</time>
      </trkpt>
      <trkpt lat="44.70719" lon="6.80334">
        <ele>2306.3</ele>
        <time>2013-09-01T09:59:22Z</time>
      </trkpt>
      <trkpt lat="44.70718" lon="6.80337">
        <ele>2306.3</ele>
        <time>2013-09-01T09:59:23Z</time>
      </trkpt>
      <trkpt lat="44.70714" lon="6.80342">
        <ele>2306.3</ele>
        <time>2013-09-01T09:59:26Z</time>
      </trkpt>
      <trkpt lat="44.70711" lon="6.80344">
        <ele>2306.3</ele>
        <time>2013-09-01T09:59:27Z</time>
      </trkpt>
      <trkpt lat="44.70709" lon="6.80344">
        <ele>2305.9</ele>
        <time>2013-09-01T09:59:28Z</time>
      </trkpt>
      <trkpt lat="44.70699" lon="6.80354">
        <ele>2304.4</ele>
        <time>2013-09-01T09:59:34Z</time>
      </trkpt>
      <trkpt lat="44.70696" lon="6.80359">
        <ele>2304.4</ele>
        <time>2013-09-01T09:59:35Z</time>
      </trkpt>
      <trkpt lat="44.70691" lon="6.80368">
        <ele>2304.9</ele>
        <time>2013-09-01T09:59:38Z</time>
      </trkpt>
      <trkpt lat="44.70678" lon="6.80409">
        <ele>2303</ele>
        <time>2013-09-01T09:59:48Z</time>
      </trkpt>
      <trkpt lat="44.70678" lon="6.80414">
        <ele>2301.5</ele>
        <time>2013-09-01T09:59:49Z</time>
      </trkpt>
      <trkpt lat="44.70677" lon="6.80419">
        <ele>2302.5</ele>
        <time>2013-09-01T09:59:50Z</time>
      </trkpt>
      <trkpt lat="44.70674" lon="6.80423">
        <ele>2303</ele>
        <time>2013-09-01T09:59:51Z</time>
      </trkpt>
      <trkpt lat="44.70672" lon="6.80426">
        <ele>2303</ele>
        <time>2013-09-01T09:59:52Z</time>
      </trkpt>
      <trkpt lat="44.70646" lon="6.80453">
        <ele>2303.9</ele>
        <time>2013-09-01T10:00:02Z</time>
      </trkpt>
      <trkpt lat="44.70642" lon="6.80454">
        <ele>2304.4</ele>
        <time>2013-09-01T10:00:04Z</time>
      </trkpt>
      <trkpt lat="44.70632" lon="6.80457">
        <ele>2307.3</ele>
        <time>2013-09-01T10:00:11Z</time>
      </trkpt>
      <trkpt lat="44.70631" lon="6.80458">
        <ele>2306.8</ele>
        <time>2013-09-01T10:00:12Z</time>
      </trkpt>
      <trkpt lat="44.7063" lon="6.8046">
        <ele>2306.8</ele>
        <time>2013-09-01T10:00:13Z</time>
      </trkpt>
      <trkpt lat="44.70621" lon="6.80479">
        <ele>2310.2</ele>
        <time>2013-09-01T10:00:23Z</time>
      </trkpt>
      <trkpt lat="44.70621" lon="6.8048">
        <ele>2309.7</ele>
        <time>2013-09-01T10:00:24Z</time>
      </trkpt>
      <trkpt lat="44.70614" lon="6.80495">
        <ele>2308.7</ele>
        <time>2013-09-01T10:00:30Z</time>
      </trkpt>
      <trkpt lat="44.70613" lon="6.80501">
        <ele>2308.3</ele>
        <time>2013-09-01T10:00:31Z</time>
      </trkpt>
      <trkpt lat="44.70611" lon="6.80505">
        <ele>2306.8</ele>
        <time>2013-09-01T10:00:32Z</time>
      </trkpt>
      <trkpt lat="44.7061" lon="6.80509">
        <ele>2306.8</ele>
        <time>2013-09-01T10:00:33Z</time>
      </trkpt>
      <trkpt lat="44.70605" lon="6.80519">
        <ele>2306.3</ele>
        <time>2013-09-01T10:00:35Z</time>
      </trkpt>
      <trkpt lat="44.70602" lon="6.80524">
        <ele>2305.4</ele>
        <time>2013-09-01T10:00:36Z</time>
      </trkpt>
      <trkpt lat="44.70598" lon="6.80527">
        <ele>2304.9</ele>
        <time>2013-09-01T10:00:37Z</time>
      </trkpt>
      <trkpt lat="44.70578" lon="6.8053">
        <ele>2306.8</ele>
        <time>2013-09-01T10:00:45Z</time>
      </trkpt>
      <trkpt lat="44.70576" lon="6.80531">
        <ele>2306.3</ele>
        <time>2013-09-01T10:00:46Z</time>
      </trkpt>
      <trkpt lat="44.70566" lon="6.80542">
        <ele>2304.4</ele>
        <time>2013-09-01T10:00:49Z</time>
      </trkpt>
      <trkpt lat="44.70559" lon="6.80552">
        <ele>2303.9</ele>
        <time>2013-09-01T10:00:51Z</time>
      </trkpt>
      <trkpt lat="44.70554" lon="6.80557">
        <ele>2303.5</ele>
        <time>2013-09-01T10:00:52Z</time>
      </trkpt>
      <trkpt lat="44.70549" lon="6.8056">
        <ele>2303</ele>
        <time>2013-09-01T10:00:53Z</time>
      </trkpt>
      <trkpt lat="44.70544" lon="6.8056">
        <ele>2303</ele>
        <time>2013-09-01T10:00:54Z</time>
      </trkpt>
      <trkpt lat="44.70539" lon="6.80559">
        <ele>2303.9</ele>
        <time>2013-09-01T10:00:55Z</time>
      </trkpt>
      <trkpt lat="44.70535" lon="6.80557">
        <ele>2303.5</ele>
        <time>2013-09-01T10:00:56Z</time>
      </trkpt>
      <trkpt lat="44.70531" lon="6.80556">
        <ele>2303.5</ele>
        <time>2013-09-01T10:00:57Z</time>
      </trkpt>
      <trkpt lat="44.70528" lon="6.80555">
        <ele>2303.5</ele>
        <time>2013-09-01T10:00:58Z</time>
      </trkpt>
      <trkpt lat="44.70526" lon="6.80555">
        <ele>2303.5</ele>
        <time>2013-09-01T10:00:59Z</time>
      </trkpt>
      <trkpt lat="44.70523" lon="6.80555">
        <ele>2302.5</ele>
        <time>2013-09-01T10:01:00Z</time>
      </trkpt>
      <trkpt lat="44.70521" lon="6.80556">
        <ele>2302.5</ele>
        <time>2013-09-01T10:01:01Z</time>
      </trkpt>
      <trkpt lat="44.70519" lon="6.80556">
        <ele>2301.5</ele>
        <time>2013-09-01T10:01:02Z</time>
      </trkpt>
      <trkpt lat="44.70517" lon="6.80555">
        <ele>2300.6</ele>
        <time>2013-09-01T10:01:03Z</time>
      </trkpt>
      <trkpt lat="44.70515" lon="6.80554">
        <ele>2301.5</ele>
        <time>2013-09-01T10:01:04Z</time>
      </trkpt>
      <trkpt lat="44.70512" lon="6.80554">
        <ele>2301.1</ele>
        <time>2013-09-01T10:01:05Z</time>
      </trkpt>
      <trkpt lat="44.7051" lon="6.80552">
        <ele>2301.1</ele>
        <time>2013-09-01T10:01:06Z</time>
      </trkpt>
      <trkpt lat="44.70507" lon="6.80552">
        <ele>2301.5</ele>
        <time>2013-09-01T10:01:07Z</time>
      </trkpt>
      <trkpt lat="44.70498" lon="6.8055">
        <ele>2300.1</ele>
        <time>2013-09-01T10:01:09Z</time>
      </trkpt>
      <trkpt lat="44.70478" lon="6.80541">
        <ele>2296.3</ele>
        <time>2013-09-01T10:01:15Z</time>
      </trkpt>
      <trkpt lat="44.70471" lon="6.80541">
        <ele>2296.3</ele>
        <time>2013-09-01T10:01:16Z</time>
      </trkpt>
      <trkpt lat="44.70466" lon="6.80541">
        <ele>2295.3</ele>
        <time>2013-09-01T10:01:17Z</time>
      </trkpt>
      <trkpt lat="44.70456" lon="6.80542">
        <ele>2294.8</ele>
        <time>2013-09-01T10:01:19Z</time>
      </trkpt>
      <trkpt lat="44.70451" lon="6.80543">
        <ele>2294.3</ele>
        <time>2013-09-01T10:01:20Z</time>
      </trkpt>
      <trkpt lat="44.70426" lon="6.80548">
        <ele>2292.9</ele>
        <time>2013-09-01T10:01:25Z</time>
      </trkpt>
      <trkpt lat="44.70413" lon="6.80545">
        <ele>2291.4</ele>
        <time>2013-09-01T10:01:27Z</time>
      </trkpt>
      <trkpt lat="44.70407" lon="6.80545">
        <ele>2291.9</ele>
        <time>2013-09-01T10:01:28Z</time>
      </trkpt>
      <trkpt lat="44.70401" lon="6.80547">
        <ele>2290.5</ele>
        <time>2013-09-01T10:01:29Z</time>
      </trkpt>
      <trkpt lat="44.70388" lon="6.8055">
        <ele>2291</ele>
        <time>2013-09-01T10:01:32Z</time>
      </trkpt>
      <trkpt lat="44.70376" lon="6.80555">
        <ele>2289.5</ele>
        <time>2013-09-01T10:01:34Z</time>
      </trkpt>
      <trkpt lat="44.70371" lon="6.80558">
        <ele>2290</ele>
        <time>2013-09-01T10:01:35Z</time>
      </trkpt>
      <trkpt lat="44.70367" lon="6.80559">
        <ele>2289</ele>
        <time>2013-09-01T10:01:36Z</time>
      </trkpt>
      <trkpt lat="44.70348" lon="6.80565">
        <ele>2289.5</ele>
        <time>2013-09-01T10:01:46Z</time>
      </trkpt>
      <trkpt lat="44.7033" lon="6.80566">
        <ele>2288.6</ele>
        <time>2013-09-01T10:02:17Z</time>
      </trkpt>
      <trkpt lat="44.70318" lon="6.80571">
        <ele>2288.1</ele>
        <time>2013-09-01T10:02:20Z</time>
      </trkpt>
      <trkpt lat="44.70314" lon="6.80572">
        <ele>2288.1</ele>
        <time>2013-09-01T10:02:21Z</time>
      </trkpt>
      <trkpt lat="44.7031" lon="6.80573">
        <ele>2286.6</ele>
        <time>2013-09-01T10:02:22Z</time>
      </trkpt>
      <trkpt lat="44.70306" lon="6.80576">
        <ele>2286.6</ele>
        <time>2013-09-01T10:02:23Z</time>
      </trkpt>
      <trkpt lat="44.70302" lon="6.80579">
        <ele>2286.6</ele>
        <time>2013-09-01T10:02:24Z</time>
      </trkpt>
      <trkpt lat="44.70298" lon="6.80582">
        <ele>2286.6</ele>
        <time>2013-09-01T10:02:25Z</time>
      </trkpt>
      <trkpt lat="44.70293" lon="6.80586">
        <ele>2285.2</ele>
        <time>2013-09-01T10:02:26Z</time>
      </trkpt>
      <trkpt lat="44.70289" lon="6.8059">
        <ele>2285.7</ele>
        <time>2013-09-01T10:02:27Z</time>
      </trkpt>
      <trkpt lat="44.70284" lon="6.80594">
        <ele>2284.7</ele>
        <time>2013-09-01T10:02:28Z</time>
      </trkpt>
      <trkpt lat="44.70276" lon="6.806">
        <ele>2283.3</ele>
        <time>2013-09-01T10:02:30Z</time>
      </trkpt>
      <trkpt lat="44.70272" lon="6.80603">
        <ele>2282.8</ele>
        <time>2013-09-01T10:02:31Z</time>
      </trkpt>
      <trkpt lat="44.70264" lon="6.8061">
        <ele>2283.3</ele>
        <time>2013-09-01T10:02:33Z</time>
      </trkpt>
      <trkpt lat="44.7026" lon="6.80614">
        <ele>2282.8</ele>
        <time>2013-09-01T10:02:34Z</time>
      </trkpt>
      <trkpt lat="44.70249" lon="6.80624">
        <ele>2282.8</ele>
        <time>2013-09-01T10:02:37Z</time>
      </trkpt>
      <trkpt lat="44.70246" lon="6.80628">
        <ele>2282.3</ele>
        <time>2013-09-01T10:02:38Z</time>
      </trkpt>
      <trkpt lat="44.70243" lon="6.80631">
        <ele>2281.8</ele>
        <time>2013-09-01T10:02:39Z</time>
      </trkpt>
      <trkpt lat="44.70236" lon="6.80636">
        <ele>2281.4</ele>
        <time>2013-09-01T10:02:41Z</time>
      </trkpt>
      <trkpt lat="44.70233" lon="6.8064">
        <ele>2280.9</ele>
        <time>2013-09-01T10:02:42Z</time>
      </trkpt>
      <trkpt lat="44.7023" lon="6.80645">
        <ele>2280.4</ele>
        <time>2013-09-01T10:02:43Z</time>
      </trkpt>
      <trkpt lat="44.70227" lon="6.80648">
        <ele>2280.4</ele>
        <time>2013-09-01T10:02:44Z</time>
      </trkpt>
      <trkpt lat="44.70224" lon="6.8065">
        <ele>2279.9</ele>
        <time>2013-09-01T10:02:45Z</time>
      </trkpt>
      <trkpt lat="44.7022" lon="6.80651">
        <ele>2280.4</ele>
        <time>2013-09-01T10:02:46Z</time>
      </trkpt>
      <trkpt lat="44.70217" lon="6.80651">
        <ele>2280.4</ele>
        <time>2013-09-01T10:02:47Z</time>
      </trkpt>
      <trkpt lat="44.70215" lon="6.80649">
        <ele>2280.4</ele>
        <time>2013-09-01T10:02:48Z</time>
      </trkpt>
      <trkpt lat="44.70213" lon="6.80646">
        <ele>2279.9</ele>
        <time>2013-09-01T10:02:49Z</time>
      </trkpt>
      <trkpt lat="44.70191" lon="6.80639">
        <ele>2283.3</ele>
        <time>2013-09-01T10:03:01Z</time>
      </trkpt>
      <trkpt lat="44.70182" lon="6.80644">
        <ele>2284.2</ele>
        <time>2013-09-01T10:03:05Z</time>
      </trkpt>
      <trkpt lat="44.70147" lon="6.80664">
        <ele>2284.2</ele>
        <time>2013-09-01T10:03:19Z</time>
      </trkpt>
      <trkpt lat="44.70139" lon="6.8067">
        <ele>2285.7</ele>
        <time>2013-09-01T10:03:24Z</time>
      </trkpt>
      <trkpt lat="44.70113" lon="6.80686">
        <ele>2288.1</ele>
        <time>2013-09-01T10:03:40Z</time>
      </trkpt>
      <trkpt lat="44.70101" lon="6.80688">
        <ele>2287.1</ele>
        <time>2013-09-01T10:03:44Z</time>
      </trkpt>
      <trkpt lat="44.70093" lon="6.80693">
        <ele>2286.2</ele>
        <time>2013-09-01T10:03:46Z</time>
      </trkpt>
      <trkpt lat="44.70075" lon="6.80704">
        <ele>2285.2</ele>
        <time>2013-09-01T10:03:50Z</time>
      </trkpt>
      <trkpt lat="44.70072" lon="6.80707">
        <ele>2284.2</ele>
        <time>2013-09-01T10:03:51Z</time>
      </trkpt>
      <trkpt lat="44.70067" lon="6.80709">
        <ele>2284.2</ele>
        <time>2013-09-01T10:03:52Z</time>
      </trkpt>
      <trkpt lat="44.70059" lon="6.80713">
        <ele>2283.8</ele>
        <time>2013-09-01T10:03:54Z</time>
      </trkpt>
      <trkpt lat="44.70055" lon="6.80715">
        <ele>2283.3</ele>
        <time>2013-09-01T10:03:55Z</time>
      </trkpt>
      <trkpt lat="44.70029" lon="6.80727">
        <ele>2284.2</ele>
        <time>2013-09-01T10:04:04Z</time>
      </trkpt>
      <trkpt lat="44.70004" lon="6.8073">
        <ele>2286.2</ele>
        <time>2013-09-01T10:04:18Z</time>
      </trkpt>
      <trkpt lat="44.69969" lon="6.80722">
        <ele>2283.8</ele>
        <time>2013-09-01T10:04:28Z</time>
      </trkpt>
      <trkpt lat="44.69947" lon="6.80711">
        <ele>2287.1</ele>
        <time>2013-09-01T10:04:39Z</time>
      </trkpt>
      <trkpt lat="44.69941" lon="6.80709">
        <ele>2288.6</ele>
        <time>2013-09-01T10:04:43Z</time>
      </trkpt>
      <trkpt lat="44.69918" lon="6.80698">
        <ele>2291</ele>
        <time>2013-09-01T10:04:58Z</time>
      </trkpt>
      <trkpt lat="44.69894" lon="6.80691">
        <ele>2293.8</ele>
        <time>2013-09-01T10:05:14Z</time>
      </trkpt>
      <trkpt lat="44.69869" lon="6.8069">
        <ele>2295.8</ele>
        <time>2013-09-01T10:05:30Z</time>
      </trkpt>
      <trkpt lat="44.69853" lon="6.80695">
        <ele>2298.7</ele>
        <time>2013-09-01T10:05:40Z</time>
      </trkpt>
      <trkpt lat="44.69829" lon="6.8071">
        <ele>2299.6</ele>
        <time>2013-09-01T10:05:55Z</time>
      </trkpt>
      <trkpt lat="44.69803" lon="6.80718">
        <ele>2302</ele>
        <time>2013-09-01T10:06:07Z</time>
      </trkpt>
      <trkpt lat="44.69776" lon="6.80723">
        <ele>2303.5</ele>
        <time>2013-09-01T10:06:20Z</time>
      </trkpt>
      <trkpt lat="44.69748" lon="6.80736">
        <ele>2303.9</ele>
        <time>2013-09-01T10:06:34Z</time>
      </trkpt>
      <trkpt lat="44.6972" lon="6.8076">
        <ele>2303</ele>
        <time>2013-09-01T10:06:44Z</time>
      </trkpt>
      <trkpt lat="44.69705" lon="6.80783">
        <ele>2300.6</ele>
        <time>2013-09-01T10:06:52Z</time>
      </trkpt>
      <trkpt lat="44.69704" lon="6.80784">
        <ele>2300.6</ele>
        <time>2013-09-01T10:07:07Z</time>
      </trkpt>
      <trkpt lat="44.69703" lon="6.80785">
        <ele>2300.1</ele>
        <time>2013-09-01T10:07:08Z</time>
      </trkpt>
      <trkpt lat="44.69702" lon="6.80787">
        <ele>2301.1</ele>
        <time>2013-09-01T10:07:09Z</time>
      </trkpt>
      <trkpt lat="44.69701" lon="6.80789">
        <ele>2300.6</ele>
        <time>2013-09-01T10:07:10Z</time>
      </trkpt>
      <trkpt lat="44.69699" lon="6.80791">
        <ele>2300.6</ele>
        <time>2013-09-01T10:07:11Z</time>
      </trkpt>
      <trkpt lat="44.69689" lon="6.80812">
        <ele>2303.5</ele>
        <time>2013-09-01T10:07:19Z</time>
      </trkpt>
      <trkpt lat="44.69687" lon="6.80814">
        <ele>2302.5</ele>
        <time>2013-09-01T10:07:20Z</time>
      </trkpt>
      <trkpt lat="44.69685" lon="6.80817">
        <ele>2302.5</ele>
        <time>2013-09-01T10:07:21Z</time>
      </trkpt>
      <trkpt lat="44.69669" lon="6.8085">
        <ele>2302</ele>
        <time>2013-09-01T10:07:30Z</time>
      </trkpt>
      <trkpt lat="44.69666" lon="6.80854">
        <ele>2301.5</ele>
        <time>2013-09-01T10:07:31Z</time>
      </trkpt>
      <trkpt lat="44.69662" lon="6.80857">
        <ele>2301.1</ele>
        <time>2013-09-01T10:07:32Z</time>
      </trkpt>
      <trkpt lat="44.69658" lon="6.80859">
        <ele>2301.1</ele>
        <time>2013-09-01T10:07:33Z</time>
      </trkpt>
      <trkpt lat="44.69654" lon="6.80861">
        <ele>2301.5</ele>
        <time>2013-09-01T10:07:34Z</time>
      </trkpt>
      <trkpt lat="44.69652" lon="6.80863">
        <ele>2301.5</ele>
        <time>2013-09-01T10:07:35Z</time>
      </trkpt>
      <trkpt lat="44.69649" lon="6.80863">
        <ele>2302</ele>
        <time>2013-09-01T10:07:36Z</time>
      </trkpt>
      <trkpt lat="44.69621" lon="6.80872">
        <ele>2301.5</ele>
        <time>2013-09-01T10:07:47Z</time>
      </trkpt>
      <trkpt lat="44.69592" lon="6.80871">
        <ele>2301.1</ele>
        <time>2013-09-01T10:07:56Z</time>
      </trkpt>
      <trkpt lat="44.6956" lon="6.8087">
        <ele>2300.1</ele>
        <time>2013-09-01T10:08:07Z</time>
      </trkpt>
      <trkpt lat="44.69537" lon="6.8087">
        <ele>2299.6</ele>
        <time>2013-09-01T10:08:18Z</time>
      </trkpt>
      <trkpt lat="44.69539" lon="6.80865">
        <ele>2300.1</ele>
        <time>2013-09-01T10:08:45Z</time>
      </trkpt>
      <trkpt lat="44.69542" lon="6.80866">
        <ele>2299.6</ele>
        <time>2013-09-01T10:09:16Z</time>
      </trkpt>
      <trkpt lat="44.69536" lon="6.80866">
        <ele>2300.1</ele>
        <time>2013-09-01T10:09:31Z</time>
      </trkpt>
      <trkpt lat="44.69535" lon="6.80866">
        <ele>2299.1</ele>
        <time>2013-09-01T10:09:32Z</time>
      </trkpt>
      <trkpt lat="44.69506" lon="6.80851">
        <ele>2299.1</ele>
        <time>2013-09-01T10:09:44Z</time>
      </trkpt>
      <trkpt lat="44.6949" lon="6.8083">
        <ele>2302.5</ele>
        <time>2013-09-01T10:09:57Z</time>
      </trkpt>
      <trkpt lat="44.69486" lon="6.80824">
        <ele>2302</ele>
        <time>2013-09-01T10:10:00Z</time>
      </trkpt>
      <trkpt lat="44.6946" lon="6.80813">
        <ele>2303.5</ele>
        <time>2013-09-01T10:10:14Z</time>
      </trkpt>
      <trkpt lat="44.69422" lon="6.80811">
        <ele>2301.1</ele>
        <time>2013-09-01T10:10:27Z</time>
      </trkpt>
      <trkpt lat="44.6942" lon="6.80809">
        <ele>2302</ele>
        <time>2013-09-01T10:10:29Z</time>
      </trkpt>
      <trkpt lat="44.69419" lon="6.80808">
        <ele>2302</ele>
        <time>2013-09-01T10:10:30Z</time>
      </trkpt>
      <trkpt lat="44.69417" lon="6.80802">
        <ele>2301.5</ele>
        <time>2013-09-01T10:10:42Z</time>
      </trkpt>
      <trkpt lat="44.69419" lon="6.80801">
        <ele>2301.5</ele>
        <time>2013-09-01T10:11:09Z</time>
      </trkpt>
      <trkpt lat="44.69418" lon="6.80799">
        <ele>2301.1</ele>
        <time>2013-09-01T10:11:26Z</time>
      </trkpt>
      <trkpt lat="44.69416" lon="6.80799">
        <ele>2301.1</ele>
        <time>2013-09-01T10:11:28Z</time>
      </trkpt>
      <trkpt lat="44.69415" lon="6.80799">
        <ele>2300.1</ele>
        <time>2013-09-01T10:11:29Z</time>
      </trkpt>
      <trkpt lat="44.69414" lon="6.808">
        <ele>2301.1</ele>
        <time>2013-09-01T10:11:30Z</time>
      </trkpt>
      <trkpt lat="44.69412" lon="6.808">
        <ele>2301.1</ele>
        <time>2013-09-01T10:11:31Z</time>
      </trkpt>
      <trkpt lat="44.69411" lon="6.80801">
        <ele>2299.1</ele>
        <time>2013-09-01T10:11:32Z</time>
      </trkpt>
      <trkpt lat="44.69409" lon="6.80801">
        <ele>2300.1</ele>
        <time>2013-09-01T10:11:33Z</time>
      </trkpt>
      <trkpt lat="44.69407" lon="6.80802">
        <ele>2300.1</ele>
        <time>2013-09-01T10:11:34Z</time>
      </trkpt>
      <trkpt lat="44.69404" lon="6.80803">
        <ele>2298.7</ele>
        <time>2013-09-01T10:11:35Z</time>
      </trkpt>
      <trkpt lat="44.69401" lon="6.80805">
        <ele>2298.7</ele>
        <time>2013-09-01T10:11:36Z</time>
      </trkpt>
      <trkpt lat="44.69399" lon="6.80807">
        <ele>2297.2</ele>
        <time>2013-09-01T10:11:37Z</time>
      </trkpt>
      <trkpt lat="44.69396" lon="6.8081">
        <ele>2297.7</ele>
        <time>2013-09-01T10:11:38Z</time>
      </trkpt>
      <trkpt lat="44.69391" lon="6.80812">
        <ele>2296.7</ele>
        <time>2013-09-01T10:11:40Z</time>
      </trkpt>
      <trkpt lat="44.69389" lon="6.8081">
        <ele>2295.8</ele>
        <time>2013-09-01T10:11:41Z</time>
      </trkpt>
      <trkpt lat="44.69385" lon="6.80801">
        <ele>2296.3</ele>
        <time>2013-09-01T10:11:50Z</time>
      </trkpt>
      <trkpt lat="44.69384" lon="6.80798">
        <ele>2297.7</ele>
        <time>2013-09-01T10:11:53Z</time>
      </trkpt>
      <trkpt lat="44.69373" lon="6.80787">
        <ele>2297.7</ele>
        <time>2013-09-01T10:12:04Z</time>
      </trkpt>
      <trkpt lat="44.69366" lon="6.80779">
        <ele>2297.7</ele>
        <time>2013-09-01T10:12:13Z</time>
      </trkpt>
      <trkpt lat="44.69363" lon="6.80777">
        <ele>2298.2</ele>
        <time>2013-09-01T10:12:14Z</time>
      </trkpt>
      <trkpt lat="44.69339" lon="6.80773">
        <ele>2296.3</ele>
        <time>2013-09-01T10:12:21Z</time>
      </trkpt>
      <trkpt lat="44.69309" lon="6.80786">
        <ele>2293.8</ele>
        <time>2013-09-01T10:12:27Z</time>
      </trkpt>
      <trkpt lat="44.69303" lon="6.80786">
        <ele>2292.9</ele>
        <time>2013-09-01T10:12:28Z</time>
      </trkpt>
      <trkpt lat="44.69283" lon="6.80782">
        <ele>2291.4</ele>
        <time>2013-09-01T10:12:32Z</time>
      </trkpt>
      <trkpt lat="44.69252" lon="6.80778">
        <ele>2290.5</ele>
        <time>2013-09-01T10:12:38Z</time>
      </trkpt>
      <trkpt lat="44.69227" lon="6.8078">
        <ele>2292.4</ele>
        <time>2013-09-01T10:12:47Z</time>
      </trkpt>
      <trkpt lat="44.69226" lon="6.8078">
        <ele>2291.9</ele>
        <time>2013-09-01T10:12:48Z</time>
      </trkpt>
      <trkpt lat="44.69193" lon="6.80775">
        <ele>2291</ele>
        <time>2013-09-01T10:13:01Z</time>
      </trkpt>
      <trkpt lat="44.69161" lon="6.80764">
        <ele>2293.4</ele>
        <time>2013-09-01T10:13:14Z</time>
      </trkpt>
      <trkpt lat="44.69137" lon="6.80742">
        <ele>2294.8</ele>
        <time>2013-09-01T10:13:30Z</time>
      </trkpt>
      <trkpt lat="44.69132" lon="6.80737">
        <ele>2295.3</ele>
        <time>2013-09-01T10:13:43Z</time>
      </trkpt>
      <trkpt lat="44.69131" lon="6.80733">
        <ele>2295.8</ele>
        <time>2013-09-01T10:14:20Z</time>
      </trkpt>
      <trkpt lat="44.69123" lon="6.80722">
        <ele>2298.2</ele>
        <time>2013-09-01T10:14:35Z</time>
      </trkpt>
      <trkpt lat="44.69117" lon="6.80708">
        <ele>2301.1</ele>
        <time>2013-09-01T10:14:52Z</time>
      </trkpt>
      <trkpt lat="44.69115" lon="6.80701">
        <ele>2302</ele>
        <time>2013-09-01T10:15:07Z</time>
      </trkpt>
      <trkpt lat="44.69114" lon="6.80701">
        <ele>2303</ele>
        <time>2013-09-01T10:15:39Z</time>
      </trkpt>
      <trkpt lat="44.69109" lon="6.8069">
        <ele>2305.9</ele>
        <time>2013-09-01T10:15:53Z</time>
      </trkpt>
      <trkpt lat="44.69109" lon="6.80689">
        <ele>2305.9</ele>
        <time>2013-09-01T10:15:54Z</time>
      </trkpt>
      <trkpt lat="44.69106" lon="6.8068">
        <ele>2306.8</ele>
        <time>2013-09-01T10:16:07Z</time>
      </trkpt>
      <trkpt lat="44.69104" lon="6.80676">
        <ele>2307.8</ele>
        <time>2013-09-01T10:16:19Z</time>
      </trkpt>
      <trkpt lat="44.69101" lon="6.80674">
        <ele>2307.8</ele>
        <time>2013-09-01T10:16:35Z</time>
      </trkpt>
      <trkpt lat="44.691" lon="6.80675">
        <ele>2307.3</ele>
        <time>2013-09-01T10:17:00Z</time>
      </trkpt>
      <trkpt lat="44.69102" lon="6.80674">
        <ele>2307.8</ele>
        <time>2013-09-01T10:17:30Z</time>
      </trkpt>
      <trkpt lat="44.69098" lon="6.80671">
        <ele>2307.3</ele>
        <time>2013-09-01T10:17:49Z</time>
      </trkpt>
      <trkpt lat="44.69097" lon="6.8067">
        <ele>2306.8</ele>
        <time>2013-09-01T10:17:50Z</time>
      </trkpt>
      <trkpt lat="44.69095" lon="6.80669">
        <ele>2306.3</ele>
        <time>2013-09-01T10:17:51Z</time>
      </trkpt>
      <trkpt lat="44.69092" lon="6.80668">
        <ele>2306.3</ele>
        <time>2013-09-01T10:17:52Z</time>
      </trkpt>
      <trkpt lat="44.69089" lon="6.80668">
        <ele>2306.8</ele>
        <time>2013-09-01T10:17:53Z</time>
      </trkpt>
      <trkpt lat="44.69048" lon="6.80665">
        <ele>2304.4</ele>
        <time>2013-09-01T10:18:05Z</time>
      </trkpt>
      <trkpt lat="44.69043" lon="6.80665">
        <ele>2304.4</ele>
        <time>2013-09-01T10:18:06Z</time>
      </trkpt>
      <trkpt lat="44.69038" lon="6.80664">
        <ele>2303.9</ele>
        <time>2013-09-01T10:18:07Z</time>
      </trkpt>
      <trkpt lat="44.69033" lon="6.80662">
        <ele>2303.9</ele>
        <time>2013-09-01T10:18:08Z</time>
      </trkpt>
      <trkpt lat="44.69024" lon="6.80655">
        <ele>2303.9</ele>
        <time>2013-09-01T10:18:10Z</time>
      </trkpt>
      <trkpt lat="44.69015" lon="6.80643">
        <ele>2305.9</ele>
        <time>2013-09-01T10:18:15Z</time>
      </trkpt>
      <trkpt lat="44.69013" lon="6.80642">
        <ele>2305.9</ele>
        <time>2013-09-01T10:18:16Z</time>
      </trkpt>
      <trkpt lat="44.69012" lon="6.8064">
        <ele>2306.3</ele>
        <time>2013-09-01T10:18:17Z</time>
      </trkpt>
      <trkpt lat="44.6901" lon="6.80637">
        <ele>2305.9</ele>
        <time>2013-09-01T10:18:18Z</time>
      </trkpt>
      <trkpt lat="44.69008" lon="6.80636">
        <ele>2306.3</ele>
        <time>2013-09-01T10:18:19Z</time>
      </trkpt>
      <trkpt lat="44.69006" lon="6.80636">
        <ele>2306.3</ele>
        <time>2013-09-01T10:18:20Z</time>
      </trkpt>
      <trkpt lat="44.69004" lon="6.80635">
        <ele>2305.9</ele>
        <time>2013-09-01T10:18:21Z</time>
      </trkpt>
      <trkpt lat="44.69002" lon="6.80635">
        <ele>2306.3</ele>
        <time>2013-09-01T10:18:22Z</time>
      </trkpt>
      <trkpt lat="44.69" lon="6.80635">
        <ele>2306.8</ele>
        <time>2013-09-01T10:18:23Z</time>
      </trkpt>
      <trkpt lat="44.68998" lon="6.80635">
        <ele>2307.3</ele>
        <time>2013-09-01T10:18:24Z</time>
      </trkpt>
      <trkpt lat="44.68997" lon="6.80635">
        <ele>2307.8</ele>
        <time>2013-09-01T10:18:25Z</time>
      </trkpt>
      <trkpt lat="44.68995" lon="6.80634">
        <ele>2307.8</ele>
        <time>2013-09-01T10:18:26Z</time>
      </trkpt>
      <trkpt lat="44.68994" lon="6.80633">
        <ele>2307.3</ele>
        <time>2013-09-01T10:18:27Z</time>
      </trkpt>
      <trkpt lat="44.68993" lon="6.80632">
        <ele>2308.3</ele>
        <time>2013-09-01T10:18:28Z</time>
      </trkpt>
      <trkpt lat="44.68986" lon="6.80623">
        <ele>2309.7</ele>
        <time>2013-09-01T10:18:33Z</time>
      </trkpt>
      <trkpt lat="44.68983" lon="6.80617">
        <ele>2311.2</ele>
        <time>2013-09-01T10:18:44Z</time>
      </trkpt>
      <trkpt lat="44.68977" lon="6.80612">
        <ele>2311.2</ele>
        <time>2013-09-01T10:18:57Z</time>
      </trkpt>
      <trkpt lat="44.68978" lon="6.80615">
        <ele>2311.6</ele>
        <time>2013-09-01T10:19:33Z</time>
      </trkpt>
      <trkpt lat="44.68976" lon="6.80614">
        <ele>2311.6</ele>
        <time>2013-09-01T10:20:06Z</time>
      </trkpt>
      <trkpt lat="44.68974" lon="6.80615">
        <ele>2311.6</ele>
        <time>2013-09-01T10:20:09Z</time>
      </trkpt>
      <trkpt lat="44.68973" lon="6.80615">
        <ele>2311.6</ele>
        <time>2013-09-01T10:20:10Z</time>
      </trkpt>
      <trkpt lat="44.68972" lon="6.80614">
        <ele>2311.6</ele>
        <time>2013-09-01T10:20:11Z</time>
      </trkpt>
      <trkpt lat="44.68965" lon="6.80613">
        <ele>2312.6</ele>
        <time>2013-09-01T10:20:25Z</time>
      </trkpt>
      <trkpt lat="44.68966" lon="6.80613">
        <ele>2312.1</ele>
        <time>2013-09-01T10:20:54Z</time>
      </trkpt>
      <trkpt lat="44.68967" lon="6.80612">
        <ele>2313.1</ele>
        <time>2013-09-01T10:21:33Z</time>
      </trkpt>
      <trkpt lat="44.68965" lon="6.80614">
        <ele>2312.6</ele>
        <time>2013-09-01T10:22:23Z</time>
      </trkpt>
      <trkpt lat="44.68965" lon="6.80614">
        <ele>2312.1</ele>
        <time>2013-09-01T10:23:00Z</time>
      </trkpt>
      <trkpt lat="44.68967" lon="6.80612">
        <ele>2311.6</ele>
        <time>2013-09-01T10:23:46Z</time>
      </trkpt>
      <trkpt lat="44.68966" lon="6.80613">
        <ele>2311.6</ele>
        <time>2013-09-01T10:24:32Z</time>
      </trkpt>
      <trkpt lat="44.68966" lon="6.80614">
        <ele>2312.1</ele>
        <time>2013-09-01T10:25:00Z</time>
      </trkpt>
      <trkpt lat="44.68967" lon="6.80614">
        <ele>2311.6</ele>
        <time>2013-09-01T10:25:42Z</time>
      </trkpt>
      <trkpt lat="44.68966" lon="6.80613">
        <ele>2312.1</ele>
        <time>2013-09-01T10:26:14Z</time>
      </trkpt>
      <trkpt lat="44.68964" lon="6.80611">
        <ele>2311.6</ele>
        <time>2013-09-01T10:26:18Z</time>
      </trkpt>
      <trkpt lat="44.68952" lon="6.80607">
        <ele>2309.2</ele>
        <time>2013-09-01T10:26:25Z</time>
      </trkpt>
      <trkpt lat="44.68949" lon="6.80608">
        <ele>2308.3</ele>
        <time>2013-09-01T10:26:26Z</time>
      </trkpt>
      <trkpt lat="44.68946" lon="6.80608">
        <ele>2308.3</ele>
        <time>2013-09-01T10:26:27Z</time>
      </trkpt>
      <trkpt lat="44.68941" lon="6.80607">
        <ele>2306.8</ele>
        <time>2013-09-01T10:26:29Z</time>
      </trkpt>
      <trkpt lat="44.68939" lon="6.80604">
        <ele>2306.3</ele>
        <time>2013-09-01T10:26:30Z</time>
      </trkpt>
      <trkpt lat="44.68937" lon="6.80601">
        <ele>2306.3</ele>
        <time>2013-09-01T10:26:31Z</time>
      </trkpt>
      <trkpt lat="44.68935" lon="6.806">
        <ele>2305.4</ele>
        <time>2013-09-01T10:26:32Z</time>
      </trkpt>
      <trkpt lat="44.68933" lon="6.80598">
        <ele>2304.9</ele>
        <time>2013-09-01T10:26:33Z</time>
      </trkpt>
      <trkpt lat="44.6893" lon="6.80597">
        <ele>2304.4</ele>
        <time>2013-09-01T10:26:34Z</time>
      </trkpt>
      <trkpt lat="44.68928" lon="6.80595">
        <ele>2303.9</ele>
        <time>2013-09-01T10:26:35Z</time>
      </trkpt>
      <trkpt lat="44.68924" lon="6.80595">
        <ele>2303.5</ele>
        <time>2013-09-01T10:26:36Z</time>
      </trkpt>
      <trkpt lat="44.6892" lon="6.80595">
        <ele>2303.5</ele>
        <time>2013-09-01T10:26:37Z</time>
      </trkpt>
      <trkpt lat="44.68909" lon="6.80599">
        <ele>2301.5</ele>
        <time>2013-09-01T10:26:40Z</time>
      </trkpt>
      <trkpt lat="44.68905" lon="6.80599">
        <ele>2301.1</ele>
        <time>2013-09-01T10:26:41Z</time>
      </trkpt>
      <trkpt lat="44.68897" lon="6.80598">
        <ele>2299.6</ele>
        <time>2013-09-01T10:26:43Z</time>
      </trkpt>
      <trkpt lat="44.68884" lon="6.80598">
        <ele>2298.2</ele>
        <time>2013-09-01T10:26:48Z</time>
      </trkpt>
      <trkpt lat="44.68874" lon="6.80597">
        <ele>2296.7</ele>
        <time>2013-09-01T10:26:52Z</time>
      </trkpt>
      <trkpt lat="44.6886" lon="6.80591">
        <ele>2293.4</ele>
        <time>2013-09-01T10:26:58Z</time>
      </trkpt>
      <trkpt lat="44.68852" lon="6.80585">
        <ele>2291.9</ele>
        <time>2013-09-01T10:27:02Z</time>
      </trkpt>
      <trkpt lat="44.6885" lon="6.80587">
        <ele>2291.9</ele>
        <time>2013-09-01T10:27:03Z</time>
      </trkpt>
      <trkpt lat="44.6885" lon="6.8059">
        <ele>2291</ele>
        <time>2013-09-01T10:27:04Z</time>
      </trkpt>
      <trkpt lat="44.6885" lon="6.80593">
        <ele>2290.5</ele>
        <time>2013-09-01T10:27:05Z</time>
      </trkpt>
      <trkpt lat="44.6885" lon="6.80596">
        <ele>2290</ele>
        <time>2013-09-01T10:27:06Z</time>
      </trkpt>
      <trkpt lat="44.6885" lon="6.806">
        <ele>2289.5</ele>
        <time>2013-09-01T10:27:17Z</time>
      </trkpt>
      <trkpt lat="44.6885" lon="6.80604">
        <ele>2288.6</ele>
        <time>2013-09-01T10:27:23Z</time>
      </trkpt>
      <trkpt lat="44.68851" lon="6.80607">
        <ele>2288.6</ele>
        <time>2013-09-01T10:27:24Z</time>
      </trkpt>
      <trkpt lat="44.68851" lon="6.8061">
        <ele>2288.6</ele>
        <time>2013-09-01T10:27:25Z</time>
      </trkpt>
      <trkpt lat="44.6885" lon="6.80613">
        <ele>2289</ele>
        <time>2013-09-01T10:27:26Z</time>
      </trkpt>
      <trkpt lat="44.68849" lon="6.80616">
        <ele>2288.6</ele>
        <time>2013-09-01T10:27:27Z</time>
      </trkpt>
      <trkpt lat="44.68847" lon="6.80621">
        <ele>2287.1</ele>
        <time>2013-09-01T10:27:29Z</time>
      </trkpt>
      <trkpt lat="44.68845" lon="6.80621">
        <ele>2286.6</ele>
        <time>2013-09-01T10:27:30Z</time>
      </trkpt>
      <trkpt lat="44.68844" lon="6.8062">
        <ele>2286.6</ele>
        <time>2013-09-01T10:27:31Z</time>
      </trkpt>
      <trkpt lat="44.68842" lon="6.80621">
        <ele>2286.2</ele>
        <time>2013-09-01T10:27:32Z</time>
      </trkpt>
      <trkpt lat="44.68839" lon="6.80623">
        <ele>2285.7</ele>
        <time>2013-09-01T10:27:45Z</time>
      </trkpt>
      <trkpt lat="44.68838" lon="6.80621">
        <ele>2285.7</ele>
        <time>2013-09-01T10:27:57Z</time>
      </trkpt>
      <trkpt lat="44.68837" lon="6.80619">
        <ele>2286.2</ele>
        <time>2013-09-01T10:27:58Z</time>
      </trkpt>
      <trkpt lat="44.68826" lon="6.80609">
        <ele>2282.3</ele>
        <time>2013-09-01T10:28:04Z</time>
      </trkpt>
      <trkpt lat="44.68823" lon="6.80607">
        <ele>2282.8</ele>
        <time>2013-09-01T10:28:05Z</time>
      </trkpt>
      <trkpt lat="44.68815" lon="6.80581">
        <ele>2279.4</ele>
        <time>2013-09-01T10:28:14Z</time>
      </trkpt>
      <trkpt lat="44.68815" lon="6.80577">
        <ele>2278.5</ele>
        <time>2013-09-01T10:28:16Z</time>
      </trkpt>
      <trkpt lat="44.68814" lon="6.80577">
        <ele>2278.5</ele>
        <time>2013-09-01T10:28:17Z</time>
      </trkpt>
      <trkpt lat="44.68812" lon="6.80579">
        <ele>2278</ele>
        <time>2013-09-01T10:28:18Z</time>
      </trkpt>
      <trkpt lat="44.6881" lon="6.80581">
        <ele>2277.5</ele>
        <time>2013-09-01T10:28:19Z</time>
      </trkpt>
      <trkpt lat="44.68807" lon="6.80583">
        <ele>2276.5</ele>
        <time>2013-09-01T10:28:20Z</time>
      </trkpt>
      <trkpt lat="44.68804" lon="6.80586">
        <ele>2276.5</ele>
        <time>2013-09-01T10:28:21Z</time>
      </trkpt>
      <trkpt lat="44.68802" lon="6.8059">
        <ele>2276.1</ele>
        <time>2013-09-01T10:28:22Z</time>
      </trkpt>
      <trkpt lat="44.688" lon="6.80594">
        <ele>2275.1</ele>
        <time>2013-09-01T10:28:23Z</time>
      </trkpt>
      <trkpt lat="44.688" lon="6.80598">
        <ele>2275.1</ele>
        <time>2013-09-01T10:28:24Z</time>
      </trkpt>
      <trkpt lat="44.68799" lon="6.80601">
        <ele>2273.7</ele>
        <time>2013-09-01T10:28:25Z</time>
      </trkpt>
      <trkpt lat="44.68799" lon="6.80604">
        <ele>2274.1</ele>
        <time>2013-09-01T10:28:26Z</time>
      </trkpt>
      <trkpt lat="44.68798" lon="6.80605">
        <ele>2274.1</ele>
        <time>2013-09-01T10:28:27Z</time>
      </trkpt>
      <trkpt lat="44.68797" lon="6.80605">
        <ele>2273.2</ele>
        <time>2013-09-01T10:28:28Z</time>
      </trkpt>
      <trkpt lat="44.68796" lon="6.80601">
        <ele>2272.7</ele>
        <time>2013-09-01T10:28:32Z</time>
      </trkpt>
      <trkpt lat="44.68795" lon="6.80599">
        <ele>2272.2</ele>
        <time>2013-09-01T10:28:33Z</time>
      </trkpt>
      <trkpt lat="44.68794" lon="6.80597">
        <ele>2272.7</ele>
        <time>2013-09-01T10:28:34Z</time>
      </trkpt>
      <trkpt lat="44.68793" lon="6.80595">
        <ele>2271.7</ele>
        <time>2013-09-01T10:28:35Z</time>
      </trkpt>
      <trkpt lat="44.68791" lon="6.80595">
        <ele>2271.7</ele>
        <time>2013-09-01T10:28:37Z</time>
      </trkpt>
      <trkpt lat="44.6879" lon="6.80596">
        <ele>2270.8</ele>
        <time>2013-09-01T10:28:38Z</time>
      </trkpt>
      <trkpt lat="44.6879" lon="6.80599">
        <ele>2270.8</ele>
        <time>2013-09-01T10:28:39Z</time>
      </trkpt>
      <trkpt lat="44.68791" lon="6.806">
        <ele>2269.3</ele>
        <time>2013-09-01T10:28:42Z</time>
      </trkpt>
      <trkpt lat="44.68789" lon="6.80628">
        <ele>2266.9</ele>
        <time>2013-09-01T10:28:52Z</time>
      </trkpt>
      <trkpt lat="44.68791" lon="6.80664">
        <ele>2263.6</ele>
        <time>2013-09-01T10:29:00Z</time>
      </trkpt>
      <trkpt lat="44.68793" lon="6.80667">
        <ele>2263.1</ele>
        <time>2013-09-01T10:29:01Z</time>
      </trkpt>
      <trkpt lat="44.68795" lon="6.80671">
        <ele>2261.6</ele>
        <time>2013-09-01T10:29:04Z</time>
      </trkpt>
      <trkpt lat="44.68793" lon="6.80672">
        <ele>2260.7</ele>
        <time>2013-09-01T10:29:08Z</time>
      </trkpt>
      <trkpt lat="44.68792" lon="6.80671">
        <ele>2261.2</ele>
        <time>2013-09-01T10:29:09Z</time>
      </trkpt>
      <trkpt lat="44.6879" lon="6.80669">
        <ele>2260.7</ele>
        <time>2013-09-01T10:29:10Z</time>
      </trkpt>
      <trkpt lat="44.68787" lon="6.80667">
        <ele>2259.7</ele>
        <time>2013-09-01T10:29:11Z</time>
      </trkpt>
      <trkpt lat="44.68783" lon="6.80664">
        <ele>2260.2</ele>
        <time>2013-09-01T10:29:12Z</time>
      </trkpt>
      <trkpt lat="44.68775" lon="6.80656">
        <ele>2258.3</ele>
        <time>2013-09-01T10:29:15Z</time>
      </trkpt>
      <trkpt lat="44.68771" lon="6.80651">
        <ele>2256.4</ele>
        <time>2013-09-01T10:29:18Z</time>
      </trkpt>
      <trkpt lat="44.68769" lon="6.80648">
        <ele>2256.4</ele>
        <time>2013-09-01T10:29:19Z</time>
      </trkpt>
      <trkpt lat="44.68767" lon="6.80645">
        <ele>2255.4</ele>
        <time>2013-09-01T10:29:20Z</time>
      </trkpt>
      <trkpt lat="44.68758" lon="6.80631">
        <ele>2251.5</ele>
        <time>2013-09-01T10:29:24Z</time>
      </trkpt>
      <trkpt lat="44.68749" lon="6.80623">
        <ele>2247.7</ele>
        <time>2013-09-01T10:29:28Z</time>
      </trkpt>
      <trkpt lat="44.6874" lon="6.80606">
        <ele>2245.3</ele>
        <time>2013-09-01T10:29:33Z</time>
      </trkpt>
      <trkpt lat="44.68739" lon="6.80598">
        <ele>2243.9</ele>
        <time>2013-09-01T10:29:36Z</time>
      </trkpt>
      <trkpt lat="44.68738" lon="6.80593">
        <ele>2241.9</ele>
        <time>2013-09-01T10:29:47Z</time>
      </trkpt>
      <trkpt lat="44.68734" lon="6.80597">
        <ele>2241</ele>
        <time>2013-09-01T10:29:57Z</time>
      </trkpt>
      <trkpt lat="44.68726" lon="6.80618">
        <ele>2238.1</ele>
        <time>2013-09-01T10:30:03Z</time>
      </trkpt>
      <trkpt lat="44.68722" lon="6.80636">
        <ele>2234.7</ele>
        <time>2013-09-01T10:30:07Z</time>
      </trkpt>
      <trkpt lat="44.68723" lon="6.80652">
        <ele>2231.8</ele>
        <time>2013-09-01T10:30:12Z</time>
      </trkpt>
      <trkpt lat="44.68725" lon="6.80654">
        <ele>2231.4</ele>
        <time>2013-09-01T10:30:14Z</time>
      </trkpt>
      <trkpt lat="44.68723" lon="6.80652">
        <ele>2230.9</ele>
        <time>2013-09-01T10:30:28Z</time>
      </trkpt>
      <trkpt lat="44.68723" lon="6.80648">
        <ele>2230.4</ele>
        <time>2013-09-01T10:30:34Z</time>
      </trkpt>
      <trkpt lat="44.68721" lon="6.80645">
        <ele>2229.9</ele>
        <time>2013-09-01T10:30:35Z</time>
      </trkpt>
      <trkpt lat="44.68718" lon="6.8064">
        <ele>2229</ele>
        <time>2013-09-01T10:30:38Z</time>
      </trkpt>
      <trkpt lat="44.68717" lon="6.80643">
        <ele>2227.5</ele>
        <time>2013-09-01T10:30:40Z</time>
      </trkpt>
      <trkpt lat="44.68717" lon="6.80645">
        <ele>2227</ele>
        <time>2013-09-01T10:30:41Z</time>
      </trkpt>
      <trkpt lat="44.68717" lon="6.80647">
        <ele>2227</ele>
        <time>2013-09-01T10:30:42Z</time>
      </trkpt>
      <trkpt lat="44.68717" lon="6.80649">
        <ele>2226.6</ele>
        <time>2013-09-01T10:30:43Z</time>
      </trkpt>
      <trkpt lat="44.68717" lon="6.80651">
        <ele>2226.1</ele>
        <time>2013-09-01T10:30:44Z</time>
      </trkpt>
      <trkpt lat="44.68718" lon="6.80652">
        <ele>2225.6</ele>
        <time>2013-09-01T10:30:58Z</time>
      </trkpt>
      <trkpt lat="44.68716" lon="6.8065">
        <ele>2224.6</ele>
        <time>2013-09-01T10:31:07Z</time>
      </trkpt>
      <trkpt lat="44.68709" lon="6.80639">
        <ele>2222.7</ele>
        <time>2013-09-01T10:31:13Z</time>
      </trkpt>
      <trkpt lat="44.68707" lon="6.8064">
        <ele>2221.7</ele>
        <time>2013-09-01T10:31:15Z</time>
      </trkpt>
      <trkpt lat="44.68707" lon="6.80643">
        <ele>2221.7</ele>
        <time>2013-09-01T10:31:16Z</time>
      </trkpt>
      <trkpt lat="44.68708" lon="6.80646">
        <ele>2220.8</ele>
        <time>2013-09-01T10:31:17Z</time>
      </trkpt>
      <trkpt lat="44.68708" lon="6.80649">
        <ele>2221.7</ele>
        <time>2013-09-01T10:31:18Z</time>
      </trkpt>
      <trkpt lat="44.68709" lon="6.80652">
        <ele>2220.3</ele>
        <time>2013-09-01T10:31:19Z</time>
      </trkpt>
      <trkpt lat="44.68709" lon="6.80655">
        <ele>2220.8</ele>
        <time>2013-09-01T10:31:20Z</time>
      </trkpt>
      <trkpt lat="44.6871" lon="6.80657">
        <ele>2219.8</ele>
        <time>2013-09-01T10:31:21Z</time>
      </trkpt>
      <trkpt lat="44.6871" lon="6.80659">
        <ele>2218.9</ele>
        <time>2013-09-01T10:31:22Z</time>
      </trkpt>
      <trkpt lat="44.68707" lon="6.80657">
        <ele>2218.4</ele>
        <time>2013-09-01T10:31:30Z</time>
      </trkpt>
      <trkpt lat="44.68704" lon="6.80652">
        <ele>2216</ele>
        <time>2013-09-01T10:31:33Z</time>
      </trkpt>
      <trkpt lat="44.68703" lon="6.8065">
        <ele>2215</ele>
        <time>2013-09-01T10:31:35Z</time>
      </trkpt>
      <trkpt lat="44.687" lon="6.80643">
        <ele>2213.1</ele>
        <time>2013-09-01T10:31:43Z</time>
      </trkpt>
      <trkpt lat="44.68698" lon="6.80637">
        <ele>2211.7</ele>
        <time>2013-09-01T10:31:46Z</time>
      </trkpt>
      <trkpt lat="44.68696" lon="6.80626">
        <ele>2209.7</ele>
        <time>2013-09-01T10:31:51Z</time>
      </trkpt>
      <trkpt lat="44.68694" lon="6.80622">
        <ele>2208.8</ele>
        <time>2013-09-01T10:31:52Z</time>
      </trkpt>
      <trkpt lat="44.68692" lon="6.80618">
        <ele>2208.3</ele>
        <time>2013-09-01T10:31:53Z</time>
      </trkpt>
      <trkpt lat="44.6869" lon="6.80614">
        <ele>2207.8</ele>
        <time>2013-09-01T10:31:54Z</time>
      </trkpt>
      <trkpt lat="44.6868" lon="6.80595">
        <ele>2204.4</ele>
        <time>2013-09-01T10:31:59Z</time>
      </trkpt>
      <trkpt lat="44.68679" lon="6.80593">
        <ele>2204</ele>
        <time>2013-09-01T10:32:00Z</time>
      </trkpt>
      <trkpt lat="44.68676" lon="6.80588">
        <ele>2204.4</ele>
        <time>2013-09-01T10:32:01Z</time>
      </trkpt>
      <trkpt lat="44.68674" lon="6.80584">
        <ele>2204</ele>
        <time>2013-09-01T10:32:02Z</time>
      </trkpt>
      <trkpt lat="44.68672" lon="6.80581">
        <ele>2203</ele>
        <time>2013-09-01T10:32:03Z</time>
      </trkpt>
      <trkpt lat="44.6867" lon="6.80578">
        <ele>2202.5</ele>
        <time>2013-09-01T10:32:04Z</time>
      </trkpt>
      <trkpt lat="44.68668" lon="6.80575">
        <ele>2202</ele>
        <time>2013-09-01T10:32:05Z</time>
      </trkpt>
      <trkpt lat="44.68666" lon="6.80572">
        <ele>2202</ele>
        <time>2013-09-01T10:32:06Z</time>
      </trkpt>
      <trkpt lat="44.68664" lon="6.80568">
        <ele>2201.6</ele>
        <time>2013-09-01T10:32:07Z</time>
      </trkpt>
      <trkpt lat="44.68662" lon="6.80565">
        <ele>2201.1</ele>
        <time>2013-09-01T10:32:08Z</time>
      </trkpt>
      <trkpt lat="44.6865" lon="6.80553">
        <ele>2196.8</ele>
        <time>2013-09-01T10:32:12Z</time>
      </trkpt>
      <trkpt lat="44.68648" lon="6.8055">
        <ele>2196.8</ele>
        <time>2013-09-01T10:32:13Z</time>
      </trkpt>
      <trkpt lat="44.68635" lon="6.80535">
        <ele>2193.4</ele>
        <time>2013-09-01T10:32:19Z</time>
      </trkpt>
      <trkpt lat="44.68618" lon="6.80529">
        <ele>2189.1</ele>
        <time>2013-09-01T10:32:25Z</time>
      </trkpt>
      <trkpt lat="44.68604" lon="6.80518">
        <ele>2185.2</ele>
        <time>2013-09-01T10:32:30Z</time>
      </trkpt>
      <trkpt lat="44.68601" lon="6.80515">
        <ele>2185.2</ele>
        <time>2013-09-01T10:32:31Z</time>
      </trkpt>
      <trkpt lat="44.68593" lon="6.80503">
        <ele>2181.9</ele>
        <time>2013-09-01T10:32:35Z</time>
      </trkpt>
      <trkpt lat="44.68589" lon="6.80499">
        <ele>2182.3</ele>
        <time>2013-09-01T10:32:36Z</time>
      </trkpt>
      <trkpt lat="44.68579" lon="6.80486">
        <ele>2179.5</ele>
        <time>2013-09-01T10:32:40Z</time>
      </trkpt>
      <trkpt lat="44.68577" lon="6.80483">
        <ele>2177.5</ele>
        <time>2013-09-01T10:32:41Z</time>
      </trkpt>
      <trkpt lat="44.68574" lon="6.8048">
        <ele>2178</ele>
        <time>2013-09-01T10:32:42Z</time>
      </trkpt>
      <trkpt lat="44.68563" lon="6.80467">
        <ele>2174.6</ele>
        <time>2013-09-01T10:32:46Z</time>
      </trkpt>
      <trkpt lat="44.68551" lon="6.80457">
        <ele>2171.8</ele>
        <time>2013-09-01T10:32:50Z</time>
      </trkpt>
      <trkpt lat="44.68545" lon="6.80452">
        <ele>2170.8</ele>
        <time>2013-09-01T10:32:52Z</time>
      </trkpt>
      <trkpt lat="44.68536" lon="6.80442">
        <ele>2168.4</ele>
        <time>2013-09-01T10:32:56Z</time>
      </trkpt>
      <trkpt lat="44.68535" lon="6.80438">
        <ele>2168.4</ele>
        <time>2013-09-01T10:32:57Z</time>
      </trkpt>
      <trkpt lat="44.68533" lon="6.80433">
        <ele>2167.9</ele>
        <time>2013-09-01T10:32:58Z</time>
      </trkpt>
      <trkpt lat="44.6853" lon="6.80429">
        <ele>2166</ele>
        <time>2013-09-01T10:32:59Z</time>
      </trkpt>
      <trkpt lat="44.68527" lon="6.80424">
        <ele>2165</ele>
        <time>2013-09-01T10:33:00Z</time>
      </trkpt>
      <trkpt lat="44.68524" lon="6.8042">
        <ele>2165.5</ele>
        <time>2013-09-01T10:33:01Z</time>
      </trkpt>
      <trkpt lat="44.68521" lon="6.80417">
        <ele>2163.6</ele>
        <time>2013-09-01T10:33:02Z</time>
      </trkpt>
      <trkpt lat="44.68518" lon="6.80414">
        <ele>2163.6</ele>
        <time>2013-09-01T10:33:03Z</time>
      </trkpt>
      <trkpt lat="44.68514" lon="6.80412">
        <ele>2163.1</ele>
        <time>2013-09-01T10:33:04Z</time>
      </trkpt>
      <trkpt lat="44.6851" lon="6.8041">
        <ele>2163.1</ele>
        <time>2013-09-01T10:33:05Z</time>
      </trkpt>
      <trkpt lat="44.68506" lon="6.80409">
        <ele>2161.7</ele>
        <time>2013-09-01T10:33:06Z</time>
      </trkpt>
      <trkpt lat="44.68481" lon="6.80395">
        <ele>2159.7</ele>
        <time>2013-09-01T10:33:14Z</time>
      </trkpt>
      <trkpt lat="44.68464" lon="6.80385">
        <ele>2156.4</ele>
        <time>2013-09-01T10:33:21Z</time>
      </trkpt>
      <trkpt lat="44.68456" lon="6.80374">
        <ele>2154.9</ele>
        <time>2013-09-01T10:33:24Z</time>
      </trkpt>
      <trkpt lat="44.68453" lon="6.80371">
        <ele>2154.5</ele>
        <time>2013-09-01T10:33:25Z</time>
      </trkpt>
      <trkpt lat="44.6845" lon="6.80368">
        <ele>2153.5</ele>
        <time>2013-09-01T10:33:26Z</time>
      </trkpt>
      <trkpt lat="44.68447" lon="6.80366">
        <ele>2153.5</ele>
        <time>2013-09-01T10:33:27Z</time>
      </trkpt>
      <trkpt lat="44.68444" lon="6.80364">
        <ele>2153.5</ele>
        <time>2013-09-01T10:33:28Z</time>
      </trkpt>
      <trkpt lat="44.68443" lon="6.80362">
        <ele>2152.5</ele>
        <time>2013-09-01T10:33:29Z</time>
      </trkpt>
      <trkpt lat="44.68441" lon="6.80361">
        <ele>2153</ele>
        <time>2013-09-01T10:33:30Z</time>
      </trkpt>
      <trkpt lat="44.6844" lon="6.8036">
        <ele>2151.6</ele>
        <time>2013-09-01T10:33:31Z</time>
      </trkpt>
      <trkpt lat="44.68439" lon="6.80361">
        <ele>2151.1</ele>
        <time>2013-09-01T10:33:32Z</time>
      </trkpt>
      <trkpt lat="44.68439" lon="6.80364">
        <ele>2150.6</ele>
        <time>2013-09-01T10:33:33Z</time>
      </trkpt>
      <trkpt lat="44.68439" lon="6.80367">
        <ele>2150.6</ele>
        <time>2013-09-01T10:33:34Z</time>
      </trkpt>
      <trkpt lat="44.68449" lon="6.80397">
        <ele>2147.2</ele>
        <time>2013-09-01T10:33:42Z</time>
      </trkpt>
      <trkpt lat="44.6845" lon="6.8041">
        <ele>2144.4</ele>
        <time>2013-09-01T10:33:50Z</time>
      </trkpt>
      <trkpt lat="44.68448" lon="6.80407">
        <ele>2144.4</ele>
        <time>2013-09-01T10:33:51Z</time>
      </trkpt>
      <trkpt lat="44.68445" lon="6.80404">
        <ele>2142.9</ele>
        <time>2013-09-01T10:33:52Z</time>
      </trkpt>
      <trkpt lat="44.68443" lon="6.804">
        <ele>2143.4</ele>
        <time>2013-09-01T10:33:53Z</time>
      </trkpt>
      <trkpt lat="44.68439" lon="6.80397">
        <ele>2142.4</ele>
        <time>2013-09-01T10:33:54Z</time>
      </trkpt>
      <trkpt lat="44.68436" lon="6.80395">
        <ele>2142</ele>
        <time>2013-09-01T10:33:55Z</time>
      </trkpt>
      <trkpt lat="44.68433" lon="6.80393">
        <ele>2141</ele>
        <time>2013-09-01T10:33:56Z</time>
      </trkpt>
      <trkpt lat="44.68429" lon="6.80392">
        <ele>2139.6</ele>
        <time>2013-09-01T10:33:57Z</time>
      </trkpt>
      <trkpt lat="44.68426" lon="6.80391">
        <ele>2140</ele>
        <time>2013-09-01T10:33:58Z</time>
      </trkpt>
      <trkpt lat="44.68422" lon="6.80389">
        <ele>2139.1</ele>
        <time>2013-09-01T10:33:59Z</time>
      </trkpt>
      <trkpt lat="44.68419" lon="6.80387">
        <ele>2138.1</ele>
        <time>2013-09-01T10:34:00Z</time>
      </trkpt>
      <trkpt lat="44.68416" lon="6.80384">
        <ele>2137.2</ele>
        <time>2013-09-01T10:34:01Z</time>
      </trkpt>
      <trkpt lat="44.68413" lon="6.8038">
        <ele>2136.2</ele>
        <time>2013-09-01T10:34:02Z</time>
      </trkpt>
      <trkpt lat="44.68411" lon="6.80377">
        <ele>2135.7</ele>
        <time>2013-09-01T10:34:03Z</time>
      </trkpt>
      <trkpt lat="44.68409" lon="6.80376">
        <ele>2135.7</ele>
        <time>2013-09-01T10:34:04Z</time>
      </trkpt>
      <trkpt lat="44.68395" lon="6.80363">
        <ele>2132.3</ele>
        <time>2013-09-01T10:34:10Z</time>
      </trkpt>
      <trkpt lat="44.68379" lon="6.80353">
        <ele>2129.5</ele>
        <time>2013-09-01T10:34:14Z</time>
      </trkpt>
      <trkpt lat="44.68366" lon="6.80339">
        <ele>2125.6</ele>
        <time>2013-09-01T10:34:19Z</time>
      </trkpt>
      <trkpt lat="44.68362" lon="6.80336">
        <ele>2126.1</ele>
        <time>2013-09-01T10:34:20Z</time>
      </trkpt>
      <trkpt lat="44.68347" lon="6.80326">
        <ele>2122.7</ele>
        <time>2013-09-01T10:34:24Z</time>
      </trkpt>
      <trkpt lat="44.6834" lon="6.80318">
        <ele>2120.8</ele>
        <time>2013-09-01T10:34:27Z</time>
      </trkpt>
      <trkpt lat="44.68334" lon="6.80311">
        <ele>2119.4</ele>
        <time>2013-09-01T10:34:29Z</time>
      </trkpt>
      <trkpt lat="44.68327" lon="6.80304">
        <ele>2117.9</ele>
        <time>2013-09-01T10:34:31Z</time>
      </trkpt>
      <trkpt lat="44.68318" lon="6.80295">
        <ele>2116</ele>
        <time>2013-09-01T10:34:34Z</time>
      </trkpt>
      <trkpt lat="44.68314" lon="6.80293">
        <ele>2114.6</ele>
        <time>2013-09-01T10:34:35Z</time>
      </trkpt>
      <trkpt lat="44.68311" lon="6.8029">
        <ele>2114.1</ele>
        <time>2013-09-01T10:34:36Z</time>
      </trkpt>
      <trkpt lat="44.68307" lon="6.80287">
        <ele>2113.6</ele>
        <time>2013-09-01T10:34:37Z</time>
      </trkpt>
      <trkpt lat="44.68304" lon="6.80283">
        <ele>2112.2</ele>
        <time>2013-09-01T10:34:38Z</time>
      </trkpt>
      <trkpt lat="44.68302" lon="6.80278">
        <ele>2111.7</ele>
        <time>2013-09-01T10:34:39Z</time>
      </trkpt>
      <trkpt lat="44.68292" lon="6.80265">
        <ele>2108.3</ele>
        <time>2013-09-01T10:34:43Z</time>
      </trkpt>
      <trkpt lat="44.68277" lon="6.80258">
        <ele>2105.4</ele>
        <time>2013-09-01T10:34:47Z</time>
      </trkpt>
      <trkpt lat="44.68268" lon="6.80251">
        <ele>2102.5</ele>
        <time>2013-09-01T10:34:50Z</time>
      </trkpt>
      <trkpt lat="44.68256" lon="6.80239">
        <ele>2100.6</ele>
        <time>2013-09-01T10:34:54Z</time>
      </trkpt>
      <trkpt lat="44.68244" lon="6.80222">
        <ele>2096.8</ele>
        <time>2013-09-01T10:34:59Z</time>
      </trkpt>
      <trkpt lat="44.68242" lon="6.80217">
        <ele>2097.3</ele>
        <time>2013-09-01T10:35:00Z</time>
      </trkpt>
      <trkpt lat="44.68239" lon="6.80208">
        <ele>2094.9</ele>
        <time>2013-09-01T10:35:04Z</time>
      </trkpt>
      <trkpt lat="44.68234" lon="6.80203">
        <ele>2094.9</ele>
        <time>2013-09-01T10:35:17Z</time>
      </trkpt>
      <trkpt lat="44.68234" lon="6.80203">
        <ele>2093.9</ele>
        <time>2013-09-01T10:35:33Z</time>
      </trkpt>
      <trkpt lat="44.68232" lon="6.80203">
        <ele>2094.4</ele>
        <time>2013-09-01T10:35:34Z</time>
      </trkpt>
      <trkpt lat="44.6823" lon="6.80201">
        <ele>2093.9</ele>
        <time>2013-09-01T10:35:35Z</time>
      </trkpt>
      <trkpt lat="44.68228" lon="6.802">
        <ele>2093.4</ele>
        <time>2013-09-01T10:35:36Z</time>
      </trkpt>
      <trkpt lat="44.68226" lon="6.80198">
        <ele>2092.9</ele>
        <time>2013-09-01T10:35:37Z</time>
      </trkpt>
      <trkpt lat="44.68225" lon="6.80197">
        <ele>2092</ele>
        <time>2013-09-01T10:35:38Z</time>
      </trkpt>
      <trkpt lat="44.68223" lon="6.80195">
        <ele>2091.5</ele>
        <time>2013-09-01T10:35:39Z</time>
      </trkpt>
      <trkpt lat="44.68221" lon="6.80194">
        <ele>2091</ele>
        <time>2013-09-01T10:35:40Z</time>
      </trkpt>
      <trkpt lat="44.68219" lon="6.80192">
        <ele>2090.5</ele>
        <time>2013-09-01T10:35:41Z</time>
      </trkpt>
      <trkpt lat="44.68218" lon="6.80191">
        <ele>2089.6</ele>
        <time>2013-09-01T10:35:42Z</time>
      </trkpt>
      <trkpt lat="44.68216" lon="6.80189">
        <ele>2089.6</ele>
        <time>2013-09-01T10:35:43Z</time>
      </trkpt>
      <trkpt lat="44.68214" lon="6.80187">
        <ele>2089.1</ele>
        <time>2013-09-01T10:35:44Z</time>
      </trkpt>
      <trkpt lat="44.68212" lon="6.80185">
        <ele>2087.6</ele>
        <time>2013-09-01T10:35:45Z</time>
      </trkpt>
      <trkpt lat="44.68196" lon="6.80171">
        <ele>2084.3</ele>
        <time>2013-09-01T10:35:51Z</time>
      </trkpt>
      <trkpt lat="44.68189" lon="6.80166">
        <ele>2082.8</ele>
        <time>2013-09-01T10:35:54Z</time>
      </trkpt>
      <trkpt lat="44.68185" lon="6.80162">
        <ele>2081.4</ele>
        <time>2013-09-01T10:35:56Z</time>
      </trkpt>
      <trkpt lat="44.68183" lon="6.8016">
        <ele>2081.4</ele>
        <time>2013-09-01T10:35:57Z</time>
      </trkpt>
      <trkpt lat="44.6818" lon="6.80158">
        <ele>2080.9</ele>
        <time>2013-09-01T10:35:58Z</time>
      </trkpt>
      <trkpt lat="44.68177" lon="6.80155">
        <ele>2079.5</ele>
        <time>2013-09-01T10:35:59Z</time>
      </trkpt>
      <trkpt lat="44.68174" lon="6.80152">
        <ele>2079</ele>
        <time>2013-09-01T10:36:00Z</time>
      </trkpt>
      <trkpt lat="44.68171" lon="6.80148">
        <ele>2078.5</ele>
        <time>2013-09-01T10:36:01Z</time>
      </trkpt>
      <trkpt lat="44.68168" lon="6.80146">
        <ele>2077.6</ele>
        <time>2013-09-01T10:36:02Z</time>
      </trkpt>
      <trkpt lat="44.68166" lon="6.80143">
        <ele>2077.1</ele>
        <time>2013-09-01T10:36:03Z</time>
      </trkpt>
      <trkpt lat="44.68152" lon="6.80129">
        <ele>2074.2</ele>
        <time>2013-09-01T10:36:09Z</time>
      </trkpt>
      <trkpt lat="44.68138" lon="6.80119">
        <ele>2070.3</ele>
        <time>2013-09-01T10:36:14Z</time>
      </trkpt>
      <trkpt lat="44.68127" lon="6.8011">
        <ele>2067.9</ele>
        <time>2013-09-01T10:36:20Z</time>
      </trkpt>
      <trkpt lat="44.68127" lon="6.80111">
        <ele>2067.5</ele>
        <time>2013-09-01T10:36:21Z</time>
      </trkpt>
      <trkpt lat="44.68127" lon="6.80114">
        <ele>2066.5</ele>
        <time>2013-09-01T10:36:22Z</time>
      </trkpt>
      <trkpt lat="44.68128" lon="6.80117">
        <ele>2066.5</ele>
        <time>2013-09-01T10:36:23Z</time>
      </trkpt>
      <trkpt lat="44.68129" lon="6.8012">
        <ele>2065.5</ele>
        <time>2013-09-01T10:36:24Z</time>
      </trkpt>
      <trkpt lat="44.6813" lon="6.80123">
        <ele>2065.5</ele>
        <time>2013-09-01T10:36:25Z</time>
      </trkpt>
      <trkpt lat="44.68134" lon="6.80133">
        <ele>2062.7</ele>
        <time>2013-09-01T10:36:30Z</time>
      </trkpt>
      <trkpt lat="44.68133" lon="6.80134">
        <ele>2062.2</ele>
        <time>2013-09-01T10:36:39Z</time>
      </trkpt>
      <trkpt lat="44.68131" lon="6.80135">
        <ele>2062.7</ele>
        <time>2013-09-01T10:36:56Z</time>
      </trkpt>
      <trkpt lat="44.68129" lon="6.80135">
        <ele>2062.2</ele>
        <time>2013-09-01T10:37:03Z</time>
      </trkpt>
      <trkpt lat="44.68127" lon="6.80133">
        <ele>2062.7</ele>
        <time>2013-09-01T10:37:04Z</time>
      </trkpt>
      <trkpt lat="44.68121" lon="6.80127">
        <ele>2061.2</ele>
        <time>2013-09-01T10:37:07Z</time>
      </trkpt>
      <trkpt lat="44.68114" lon="6.80119">
        <ele>2059.3</ele>
        <time>2013-09-01T10:37:11Z</time>
      </trkpt>
      <trkpt lat="44.68113" lon="6.80117">
        <ele>2058.8</ele>
        <time>2013-09-01T10:37:12Z</time>
      </trkpt>
      <trkpt lat="44.68112" lon="6.80115">
        <ele>2058.3</ele>
        <time>2013-09-01T10:37:13Z</time>
      </trkpt>
      <trkpt lat="44.68111" lon="6.80115">
        <ele>2057.8</ele>
        <time>2013-09-01T10:37:14Z</time>
      </trkpt>
      <trkpt lat="44.6811" lon="6.80117">
        <ele>2057.4</ele>
        <time>2013-09-01T10:37:15Z</time>
      </trkpt>
      <trkpt lat="44.6811" lon="6.80121">
        <ele>2057.4</ele>
        <time>2013-09-01T10:37:16Z</time>
      </trkpt>
      <trkpt lat="44.6811" lon="6.80131">
        <ele>2055.4</ele>
        <time>2013-09-01T10:37:19Z</time>
      </trkpt>
      <trkpt lat="44.68113" lon="6.80139">
        <ele>2054.5</ele>
        <time>2013-09-01T10:37:22Z</time>
      </trkpt>
      <trkpt lat="44.68114" lon="6.80143">
        <ele>2054</ele>
        <time>2013-09-01T10:37:23Z</time>
      </trkpt>
      <trkpt lat="44.68114" lon="6.80159">
        <ele>2050.6</ele>
        <time>2013-09-01T10:37:27Z</time>
      </trkpt>
      <trkpt lat="44.68115" lon="6.80168">
        <ele>2048.7</ele>
        <time>2013-09-01T10:37:29Z</time>
      </trkpt>
      <trkpt lat="44.68115" lon="6.80187">
        <ele>2045.8</ele>
        <time>2013-09-01T10:37:34Z</time>
      </trkpt>
      <trkpt lat="44.68118" lon="6.80193">
        <ele>2043.9</ele>
        <time>2013-09-01T10:37:44Z</time>
      </trkpt>
      <trkpt lat="44.68115" lon="6.80189">
        <ele>2043.4</ele>
        <time>2013-09-01T10:37:48Z</time>
      </trkpt>
      <trkpt lat="44.68114" lon="6.80187">
        <ele>2042.9</ele>
        <time>2013-09-01T10:37:49Z</time>
      </trkpt>
      <trkpt lat="44.68107" lon="6.80182">
        <ele>2041.5</ele>
        <time>2013-09-01T10:37:52Z</time>
      </trkpt>
      <trkpt lat="44.68099" lon="6.80175">
        <ele>2040.1</ele>
        <time>2013-09-01T10:37:56Z</time>
      </trkpt>
      <trkpt lat="44.68094" lon="6.80172">
        <ele>2038.1</ele>
        <time>2013-09-01T10:37:58Z</time>
      </trkpt>
      <trkpt lat="44.68089" lon="6.80167">
        <ele>2036.2</ele>
        <time>2013-09-01T10:38:01Z</time>
      </trkpt>
      <trkpt lat="44.68083" lon="6.80159">
        <ele>2032.4</ele>
        <time>2013-09-01T10:38:05Z</time>
      </trkpt>
      <trkpt lat="44.68081" lon="6.80157">
        <ele>2032.4</ele>
        <time>2013-09-01T10:38:06Z</time>
      </trkpt>
      <trkpt lat="44.6807" lon="6.80148">
        <ele>2028.5</ele>
        <time>2013-09-01T10:38:11Z</time>
      </trkpt>
      <trkpt lat="44.6806" lon="6.8014">
        <ele>2024.2</ele>
        <time>2013-09-01T10:38:15Z</time>
      </trkpt>
      <trkpt lat="44.68044" lon="6.80126">
        <ele>2019.9</ele>
        <time>2013-09-01T10:38:22Z</time>
      </trkpt>
      <trkpt lat="44.68041" lon="6.80124">
        <ele>2019.9</ele>
        <time>2013-09-01T10:38:23Z</time>
      </trkpt>
      <trkpt lat="44.68029" lon="6.80116">
        <ele>2016.5</ele>
        <time>2013-09-01T10:38:27Z</time>
      </trkpt>
      <trkpt lat="44.68026" lon="6.80115">
        <ele>2016.5</ele>
        <time>2013-09-01T10:38:28Z</time>
      </trkpt>
      <trkpt lat="44.68018" lon="6.8011">
        <ele>2012.7</ele>
        <time>2013-09-01T10:38:31Z</time>
      </trkpt>
      <trkpt lat="44.68015" lon="6.80109">
        <ele>2013.1</ele>
        <time>2013-09-01T10:38:32Z</time>
      </trkpt>
      <trkpt lat="44.68007" lon="6.80103">
        <ele>2009.8</ele>
        <time>2013-09-01T10:38:36Z</time>
      </trkpt>
      <trkpt lat="44.68005" lon="6.80102">
        <ele>2009.8</ele>
        <time>2013-09-01T10:38:37Z</time>
      </trkpt>
      <trkpt lat="44.68003" lon="6.801">
        <ele>2008.8</ele>
        <time>2013-09-01T10:38:38Z</time>
      </trkpt>
      <trkpt lat="44.68001" lon="6.80099">
        <ele>2007.9</ele>
        <time>2013-09-01T10:38:39Z</time>
      </trkpt>
      <trkpt lat="44.67999" lon="6.80097">
        <ele>2007.9</ele>
        <time>2013-09-01T10:38:40Z</time>
      </trkpt>
      <trkpt lat="44.67996" lon="6.80094">
        <ele>2006.9</ele>
        <time>2013-09-01T10:38:41Z</time>
      </trkpt>
      <trkpt lat="44.67995" lon="6.80092">
        <ele>2005.9</ele>
        <time>2013-09-01T10:38:42Z</time>
      </trkpt>
      <trkpt lat="44.67992" lon="6.8009">
        <ele>2005.9</ele>
        <time>2013-09-01T10:38:43Z</time>
      </trkpt>
      <trkpt lat="44.6799" lon="6.80089">
        <ele>2005</ele>
        <time>2013-09-01T10:38:44Z</time>
      </trkpt>
      <trkpt lat="44.67987" lon="6.80088">
        <ele>2004</ele>
        <time>2013-09-01T10:38:45Z</time>
      </trkpt>
      <trkpt lat="44.67985" lon="6.80086">
        <ele>2003.5</ele>
        <time>2013-09-01T10:38:46Z</time>
      </trkpt>
      <trkpt lat="44.67983" lon="6.80085">
        <ele>2002.1</ele>
        <time>2013-09-01T10:38:47Z</time>
      </trkpt>
      <trkpt lat="44.67979" lon="6.80082">
        <ele>2001.6</ele>
        <time>2013-09-01T10:38:49Z</time>
      </trkpt>
      <trkpt lat="44.67973" lon="6.80072">
        <ele>1998.7</ele>
        <time>2013-09-01T10:38:53Z</time>
      </trkpt>
      <trkpt lat="44.67971" lon="6.80073">
        <ele>1999.2</ele>
        <time>2013-09-01T10:38:54Z</time>
      </trkpt>
      <trkpt lat="44.6797" lon="6.80075">
        <ele>1998.7</ele>
        <time>2013-09-01T10:38:55Z</time>
      </trkpt>
      <trkpt lat="44.67968" lon="6.80077">
        <ele>1997.3</ele>
        <time>2013-09-01T10:38:56Z</time>
      </trkpt>
      <trkpt lat="44.67967" lon="6.80079">
        <ele>1997.3</ele>
        <time>2013-09-01T10:38:57Z</time>
      </trkpt>
      <trkpt lat="44.67966" lon="6.80082">
        <ele>1996.8</ele>
        <time>2013-09-01T10:38:58Z</time>
      </trkpt>
      <trkpt lat="44.67969" lon="6.80082">
        <ele>1995.4</ele>
        <time>2013-09-01T10:39:10Z</time>
      </trkpt>
      <trkpt lat="44.67967" lon="6.80082">
        <ele>1995.4</ele>
        <time>2013-09-01T10:39:30Z</time>
      </trkpt>
      <trkpt lat="44.67965" lon="6.8008">
        <ele>1994.9</ele>
        <time>2013-09-01T10:39:44Z</time>
      </trkpt>
      <trkpt lat="44.67965" lon="6.80078">
        <ele>1994.4</ele>
        <time>2013-09-01T10:39:45Z</time>
      </trkpt>
      <trkpt lat="44.67964" lon="6.80076">
        <ele>1994.4</ele>
        <time>2013-09-01T10:39:46Z</time>
      </trkpt>
      <trkpt lat="44.67963" lon="6.80074">
        <ele>1993.9</ele>
        <time>2013-09-01T10:39:47Z</time>
      </trkpt>
      <trkpt lat="44.67962" lon="6.80071">
        <ele>1993.4</ele>
        <time>2013-09-01T10:39:48Z</time>
      </trkpt>
      <trkpt lat="44.67961" lon="6.80069">
        <ele>1993.4</ele>
        <time>2013-09-01T10:39:49Z</time>
      </trkpt>
      <trkpt lat="44.6796" lon="6.80067">
        <ele>1993</ele>
        <time>2013-09-01T10:39:50Z</time>
      </trkpt>
      <trkpt lat="44.67959" lon="6.80064">
        <ele>1992</ele>
        <time>2013-09-01T10:39:51Z</time>
      </trkpt>
      <trkpt lat="44.67955" lon="6.80055">
        <ele>1988.6</ele>
        <time>2013-09-01T10:39:55Z</time>
      </trkpt>
      <trkpt lat="44.67954" lon="6.80053">
        <ele>1988.6</ele>
        <time>2013-09-01T10:39:56Z</time>
      </trkpt>
      <trkpt lat="44.67952" lon="6.80046">
        <ele>1986.2</ele>
        <time>2013-09-01T10:40:06Z</time>
      </trkpt>
      <trkpt lat="44.6795" lon="6.80052">
        <ele>1985.7</ele>
        <time>2013-09-01T10:40:13Z</time>
      </trkpt>
      <trkpt lat="44.67949" lon="6.80054">
        <ele>1985.7</ele>
        <time>2013-09-01T10:40:14Z</time>
      </trkpt>
      <trkpt lat="44.67943" lon="6.80072">
        <ele>1981.9</ele>
        <time>2013-09-01T10:40:20Z</time>
      </trkpt>
      <trkpt lat="44.67941" lon="6.80076">
        <ele>1981.9</ele>
        <time>2013-09-01T10:40:21Z</time>
      </trkpt>
      <trkpt lat="44.67939" lon="6.8009">
        <ele>1979.5</ele>
        <time>2013-09-01T10:40:25Z</time>
      </trkpt>
      <trkpt lat="44.67936" lon="6.80104">
        <ele>1976.1</ele>
        <time>2013-09-01T10:40:31Z</time>
      </trkpt>
      <trkpt lat="44.67938" lon="6.80108">
        <ele>1976.6</ele>
        <time>2013-09-01T10:40:45Z</time>
      </trkpt>
      <trkpt lat="44.67936" lon="6.80105">
        <ele>1975.2</ele>
        <time>2013-09-01T10:40:58Z</time>
      </trkpt>
      <trkpt lat="44.67935" lon="6.80102">
        <ele>1975.2</ele>
        <time>2013-09-01T10:41:00Z</time>
      </trkpt>
      <trkpt lat="44.6793" lon="6.80087">
        <ele>1971.8</ele>
        <time>2013-09-01T10:41:05Z</time>
      </trkpt>
      <trkpt lat="44.67929" lon="6.80084">
        <ele>1971.8</ele>
        <time>2013-09-01T10:41:06Z</time>
      </trkpt>
      <trkpt lat="44.67926" lon="6.80069">
        <ele>1968</ele>
        <time>2013-09-01T10:41:11Z</time>
      </trkpt>
      <trkpt lat="44.67923" lon="6.80042">
        <ele>1965.6</ele>
        <time>2013-09-01T10:41:18Z</time>
      </trkpt>
      <trkpt lat="44.67914" lon="6.80008">
        <ele>1961.7</ele>
        <time>2013-09-01T10:41:27Z</time>
      </trkpt>
      <trkpt lat="44.67907" lon="6.79975">
        <ele>1958.8</ele>
        <time>2013-09-01T10:41:35Z</time>
      </trkpt>
      <trkpt lat="44.679" lon="6.79952">
        <ele>1955.5</ele>
        <time>2013-09-01T10:41:41Z</time>
      </trkpt>
      <trkpt lat="44.679" lon="6.79945">
        <ele>1955</ele>
        <time>2013-09-01T10:41:43Z</time>
      </trkpt>
      <trkpt lat="44.67904" lon="6.79944">
        <ele>1954</ele>
        <time>2013-09-01T10:41:54Z</time>
      </trkpt>
      <trkpt lat="44.67904" lon="6.79946">
        <ele>1953.5</ele>
        <time>2013-09-01T10:42:21Z</time>
      </trkpt>
      <trkpt lat="44.67901" lon="6.79941">
        <ele>1952.6</ele>
        <time>2013-09-01T10:42:44Z</time>
      </trkpt>
      <trkpt lat="44.679" lon="6.79937">
        <ele>1951.6</ele>
        <time>2013-09-01T10:42:47Z</time>
      </trkpt>
      <trkpt lat="44.67897" lon="6.79921">
        <ele>1948.7</ele>
        <time>2013-09-01T10:43:04Z</time>
      </trkpt>
      <trkpt lat="44.67895" lon="6.79908">
        <ele>1947.3</ele>
        <time>2013-09-01T10:43:19Z</time>
      </trkpt>
      <trkpt lat="44.67893" lon="6.79909">
        <ele>1945.4</ele>
        <time>2013-09-01T10:43:33Z</time>
      </trkpt>
      <trkpt lat="44.67891" lon="6.79925">
        <ele>1942.5</ele>
        <time>2013-09-01T10:43:48Z</time>
      </trkpt>
      <trkpt lat="44.6789" lon="6.79928">
        <ele>1942.5</ele>
        <time>2013-09-01T10:43:50Z</time>
      </trkpt>
      <trkpt lat="44.67889" lon="6.79931">
        <ele>1940.6</ele>
        <time>2013-09-01T10:44:04Z</time>
      </trkpt>
      <trkpt lat="44.67887" lon="6.7992">
        <ele>1938.6</ele>
        <time>2013-09-01T10:44:27Z</time>
      </trkpt>
      <trkpt lat="44.67884" lon="6.79915">
        <ele>1936.7</ele>
        <time>2013-09-01T10:44:34Z</time>
      </trkpt>
      <trkpt lat="44.67883" lon="6.79912">
        <ele>1935.3</ele>
        <time>2013-09-01T10:44:37Z</time>
      </trkpt>
      <trkpt lat="44.67881" lon="6.79907">
        <ele>1934.3</ele>
        <time>2013-09-01T10:44:51Z</time>
      </trkpt>
      <trkpt lat="44.67879" lon="6.79905">
        <ele>1934.8</ele>
        <time>2013-09-01T10:45:09Z</time>
      </trkpt>
      <trkpt lat="44.67879" lon="6.79903">
        <ele>1934.8</ele>
        <time>2013-09-01T10:45:10Z</time>
      </trkpt>
      <trkpt lat="44.67878" lon="6.79902">
        <ele>1933.8</ele>
        <time>2013-09-01T10:45:11Z</time>
      </trkpt>
      <trkpt lat="44.67878" lon="6.79899">
        <ele>1933.4</ele>
        <time>2013-09-01T10:45:12Z</time>
      </trkpt>
      <trkpt lat="44.67878" lon="6.79897">
        <ele>1933.4</ele>
        <time>2013-09-01T10:45:13Z</time>
      </trkpt>
      <trkpt lat="44.67878" lon="6.79893">
        <ele>1932.9</ele>
        <time>2013-09-01T10:45:14Z</time>
      </trkpt>
      <trkpt lat="44.67878" lon="6.7989">
        <ele>1932.9</ele>
        <time>2013-09-01T10:45:15Z</time>
      </trkpt>
      <trkpt lat="44.67875" lon="6.79866">
        <ele>1929.5</ele>
        <time>2013-09-01T10:45:23Z</time>
      </trkpt>
      <trkpt lat="44.67874" lon="6.7986">
        <ele>1928.5</ele>
        <time>2013-09-01T10:45:25Z</time>
      </trkpt>
      <trkpt lat="44.6787" lon="6.7984">
        <ele>1925.2</ele>
        <time>2013-09-01T10:45:31Z</time>
      </trkpt>
      <trkpt lat="44.6787" lon="6.7983">
        <ele>1924.2</ele>
        <time>2013-09-01T10:45:34Z</time>
      </trkpt>
      <trkpt lat="44.67869" lon="6.79828">
        <ele>1923.7</ele>
        <time>2013-09-01T10:45:35Z</time>
      </trkpt>
      <trkpt lat="44.67863" lon="6.79813">
        <ele>1920.4</ele>
        <time>2013-09-01T10:45:39Z</time>
      </trkpt>
      <trkpt lat="44.67863" lon="6.79809">
        <ele>1920.4</ele>
        <time>2013-09-01T10:45:40Z</time>
      </trkpt>
      <trkpt lat="44.6786" lon="6.79791">
        <ele>1917.5</ele>
        <time>2013-09-01T10:45:45Z</time>
      </trkpt>
      <trkpt lat="44.67854" lon="6.7977">
        <ele>1913.2</ele>
        <time>2013-09-01T10:45:52Z</time>
      </trkpt>
      <trkpt lat="44.67852" lon="6.79767">
        <ele>1913.2</ele>
        <time>2013-09-01T10:45:53Z</time>
      </trkpt>
      <trkpt lat="44.67843" lon="6.79754">
        <ele>1909.8</ele>
        <time>2013-09-01T10:45:57Z</time>
      </trkpt>
      <trkpt lat="44.6784" lon="6.79751">
        <ele>1909.8</ele>
        <time>2013-09-01T10:45:58Z</time>
      </trkpt>
      <trkpt lat="44.6783" lon="6.79741">
        <ele>1906.9</ele>
        <time>2013-09-01T10:46:02Z</time>
      </trkpt>
      <trkpt lat="44.67829" lon="6.79739">
        <ele>1906.4</ele>
        <time>2013-09-01T10:46:03Z</time>
      </trkpt>
      <trkpt lat="44.67821" lon="6.79726">
        <ele>1903.6</ele>
        <time>2013-09-01T10:46:09Z</time>
      </trkpt>
      <trkpt lat="44.6782" lon="6.79727">
        <ele>1903.1</ele>
        <time>2013-09-01T10:46:10Z</time>
      </trkpt>
      <trkpt lat="44.67819" lon="6.79728">
        <ele>1903.6</ele>
        <time>2013-09-01T10:46:11Z</time>
      </trkpt>
      <trkpt lat="44.67819" lon="6.7973">
        <ele>1903.1</ele>
        <time>2013-09-01T10:46:12Z</time>
      </trkpt>
      <trkpt lat="44.67815" lon="6.79744">
        <ele>1900.2</ele>
        <time>2013-09-01T10:46:18Z</time>
      </trkpt>
      <trkpt lat="44.67813" lon="6.79745">
        <ele>1900.7</ele>
        <time>2013-09-01T10:46:21Z</time>
      </trkpt>
      <trkpt lat="44.67812" lon="6.79747">
        <ele>1899.7</ele>
        <time>2013-09-01T10:46:22Z</time>
      </trkpt>
      <trkpt lat="44.67811" lon="6.79749">
        <ele>1899.7</ele>
        <time>2013-09-01T10:46:23Z</time>
      </trkpt>
      <trkpt lat="44.67807" lon="6.79757">
        <ele>1897.3</ele>
        <time>2013-09-01T10:46:28Z</time>
      </trkpt>
      <trkpt lat="44.67805" lon="6.79761">
        <ele>1896.3</ele>
        <time>2013-09-01T10:46:47Z</time>
      </trkpt>
      <trkpt lat="44.67799" lon="6.7976">
        <ele>1894.4</ele>
        <time>2013-09-01T10:47:00Z</time>
      </trkpt>
      <trkpt lat="44.67798" lon="6.79759">
        <ele>1894.4</ele>
        <time>2013-09-01T10:47:01Z</time>
      </trkpt>
      <trkpt lat="44.67796" lon="6.79756">
        <ele>1894.4</ele>
        <time>2013-09-01T10:47:02Z</time>
      </trkpt>
      <trkpt lat="44.67795" lon="6.79753">
        <ele>1893.5</ele>
        <time>2013-09-01T10:47:03Z</time>
      </trkpt>
      <trkpt lat="44.67793" lon="6.79749">
        <ele>1893.5</ele>
        <time>2013-09-01T10:47:04Z</time>
      </trkpt>
      <trkpt lat="44.67791" lon="6.79746">
        <ele>1892.5</ele>
        <time>2013-09-01T10:47:05Z</time>
      </trkpt>
      <trkpt lat="44.67785" lon="6.79735">
        <ele>1891.1</ele>
        <time>2013-09-01T10:47:09Z</time>
      </trkpt>
      <trkpt lat="44.67776" lon="6.7972">
        <ele>1888.7</ele>
        <time>2013-09-01T10:47:15Z</time>
      </trkpt>
      <trkpt lat="44.67774" lon="6.79719">
        <ele>1888.7</ele>
        <time>2013-09-01T10:47:16Z</time>
      </trkpt>
      <trkpt lat="44.67771" lon="6.79718">
        <ele>1888.2</ele>
        <time>2013-09-01T10:47:17Z</time>
      </trkpt>
      <trkpt lat="44.67769" lon="6.79717">
        <ele>1887.7</ele>
        <time>2013-09-01T10:47:18Z</time>
      </trkpt>
      <trkpt lat="44.67766" lon="6.79715">
        <ele>1887.2</ele>
        <time>2013-09-01T10:47:19Z</time>
      </trkpt>
      <trkpt lat="44.67758" lon="6.79707">
        <ele>1885.8</ele>
        <time>2013-09-01T10:47:22Z</time>
      </trkpt>
      <trkpt lat="44.67747" lon="6.7969">
        <ele>1882.9</ele>
        <time>2013-09-01T10:47:28Z</time>
      </trkpt>
      <trkpt lat="44.67743" lon="6.79682">
        <ele>1881.4</ele>
        <time>2013-09-01T10:47:31Z</time>
      </trkpt>
      <trkpt lat="44.67741" lon="6.79681">
        <ele>1881.4</ele>
        <time>2013-09-01T10:47:32Z</time>
      </trkpt>
      <trkpt lat="44.67739" lon="6.7968">
        <ele>1880.5</ele>
        <time>2013-09-01T10:47:33Z</time>
      </trkpt>
      <trkpt lat="44.67737" lon="6.7968">
        <ele>1880</ele>
        <time>2013-09-01T10:47:34Z</time>
      </trkpt>
      <trkpt lat="44.67736" lon="6.79678">
        <ele>1879</ele>
        <time>2013-09-01T10:47:35Z</time>
      </trkpt>
      <trkpt lat="44.67735" lon="6.79675">
        <ele>1879.5</ele>
        <time>2013-09-01T10:47:36Z</time>
      </trkpt>
      <trkpt lat="44.67735" lon="6.79671">
        <ele>1878.6</ele>
        <time>2013-09-01T10:47:37Z</time>
      </trkpt>
      <trkpt lat="44.67734" lon="6.79667">
        <ele>1878.1</ele>
        <time>2013-09-01T10:47:38Z</time>
      </trkpt>
      <trkpt lat="44.67729" lon="6.79647">
        <ele>1875.2</ele>
        <time>2013-09-01T10:47:48Z</time>
      </trkpt>
      <trkpt lat="44.67728" lon="6.79649">
        <ele>1875.2</ele>
        <time>2013-09-01T10:47:50Z</time>
      </trkpt>
      <trkpt lat="44.67727" lon="6.79651">
        <ele>1874.7</ele>
        <time>2013-09-01T10:47:51Z</time>
      </trkpt>
      <trkpt lat="44.67726" lon="6.79652">
        <ele>1875.2</ele>
        <time>2013-09-01T10:47:52Z</time>
      </trkpt>
      <trkpt lat="44.67719" lon="6.79662">
        <ele>1873.3</ele>
        <time>2013-09-01T10:47:56Z</time>
      </trkpt>
      <trkpt lat="44.67717" lon="6.79663">
        <ele>1872.8</ele>
        <time>2013-09-01T10:47:57Z</time>
      </trkpt>
      <trkpt lat="44.67716" lon="6.79662">
        <ele>1872.3</ele>
        <time>2013-09-01T10:47:58Z</time>
      </trkpt>
      <trkpt lat="44.67715" lon="6.7966">
        <ele>1871.8</ele>
        <time>2013-09-01T10:47:59Z</time>
      </trkpt>
      <trkpt lat="44.67714" lon="6.79657">
        <ele>1871.3</ele>
        <time>2013-09-01T10:48:00Z</time>
      </trkpt>
      <trkpt lat="44.67712" lon="6.79653">
        <ele>1871.8</ele>
        <time>2013-09-01T10:48:01Z</time>
      </trkpt>
      <trkpt lat="44.67709" lon="6.79649">
        <ele>1870.9</ele>
        <time>2013-09-01T10:48:02Z</time>
      </trkpt>
      <trkpt lat="44.67706" lon="6.79645">
        <ele>1868.9</ele>
        <time>2013-09-01T10:48:03Z</time>
      </trkpt>
      <trkpt lat="44.67701" lon="6.79636">
        <ele>1868</ele>
        <time>2013-09-01T10:48:05Z</time>
      </trkpt>
      <trkpt lat="44.67689" lon="6.79617">
        <ele>1864.6</ele>
        <time>2013-09-01T10:48:11Z</time>
      </trkpt>
      <trkpt lat="44.67685" lon="6.79606">
        <ele>1863.2</ele>
        <time>2013-09-01T10:48:14Z</time>
      </trkpt>
      <trkpt lat="44.67683" lon="6.79603">
        <ele>1863.2</ele>
        <time>2013-09-01T10:48:15Z</time>
      </trkpt>
      <trkpt lat="44.67681" lon="6.79602">
        <ele>1862.2</ele>
        <time>2013-09-01T10:48:16Z</time>
      </trkpt>
      <trkpt lat="44.67679" lon="6.79601">
        <ele>1861.3</ele>
        <time>2013-09-01T10:48:17Z</time>
      </trkpt>
      <trkpt lat="44.67671" lon="6.79599">
        <ele>1859.8</ele>
        <time>2013-09-01T10:48:20Z</time>
      </trkpt>
      <trkpt lat="44.67667" lon="6.79598">
        <ele>1857.9</ele>
        <time>2013-09-01T10:48:22Z</time>
      </trkpt>
      <trkpt lat="44.67665" lon="6.79601">
        <ele>1857.4</ele>
        <time>2013-09-01T10:48:23Z</time>
      </trkpt>
      <trkpt lat="44.67662" lon="6.79607">
        <ele>1856.9</ele>
        <time>2013-09-01T10:48:31Z</time>
      </trkpt>
      <trkpt lat="44.67662" lon="6.7961">
        <ele>1856.9</ele>
        <time>2013-09-01T10:48:59Z</time>
      </trkpt>
      <trkpt lat="44.67662" lon="6.79609">
        <ele>1856.9</ele>
        <time>2013-09-01T10:49:02Z</time>
      </trkpt>
      <trkpt lat="44.67661" lon="6.79608">
        <ele>1856.4</ele>
        <time>2013-09-01T10:49:03Z</time>
      </trkpt>
      <trkpt lat="44.67661" lon="6.79606">
        <ele>1856.9</ele>
        <time>2013-09-01T10:49:04Z</time>
      </trkpt>
      <trkpt lat="44.6766" lon="6.79603">
        <ele>1856.4</ele>
        <time>2013-09-01T10:49:05Z</time>
      </trkpt>
      <trkpt lat="44.6766" lon="6.796">
        <ele>1856.4</ele>
        <time>2013-09-01T10:49:06Z</time>
      </trkpt>
      <trkpt lat="44.67659" lon="6.79598">
        <ele>1856</ele>
        <time>2013-09-01T10:49:07Z</time>
      </trkpt>
      <trkpt lat="44.67651" lon="6.79549">
        <ele>1855</ele>
        <time>2013-09-01T10:49:18Z</time>
      </trkpt>
      <trkpt lat="44.67651" lon="6.79544">
        <ele>1854</ele>
        <time>2013-09-01T10:49:19Z</time>
      </trkpt>
      <trkpt lat="44.67651" lon="6.79538">
        <ele>1854</ele>
        <time>2013-09-01T10:49:20Z</time>
      </trkpt>
      <trkpt lat="44.67652" lon="6.79531">
        <ele>1853.6</ele>
        <time>2013-09-01T10:49:21Z</time>
      </trkpt>
      <trkpt lat="44.67652" lon="6.79524">
        <ele>1853.1</ele>
        <time>2013-09-01T10:49:22Z</time>
      </trkpt>
      <trkpt lat="44.67651" lon="6.79518">
        <ele>1853.1</ele>
        <time>2013-09-01T10:49:23Z</time>
      </trkpt>
      <trkpt lat="44.67649" lon="6.79511">
        <ele>1852.6</ele>
        <time>2013-09-01T10:49:24Z</time>
      </trkpt>
      <trkpt lat="44.67647" lon="6.79504">
        <ele>1852.1</ele>
        <time>2013-09-01T10:49:25Z</time>
      </trkpt>
      <trkpt lat="44.67645" lon="6.79498">
        <ele>1851.6</ele>
        <time>2013-09-01T10:49:26Z</time>
      </trkpt>
      <trkpt lat="44.67628" lon="6.79437">
        <ele>1850.7</ele>
        <time>2013-09-01T10:49:36Z</time>
      </trkpt>
      <trkpt lat="44.67626" lon="6.79431">
        <ele>1850.2</ele>
        <time>2013-09-01T10:49:37Z</time>
      </trkpt>
      <trkpt lat="44.67592" lon="6.79364">
        <ele>1846.8</ele>
        <time>2013-09-01T10:49:50Z</time>
      </trkpt>
      <trkpt lat="44.67564" lon="6.7931">
        <ele>1845.4</ele>
        <time>2013-09-01T10:50:00Z</time>
      </trkpt>
      <trkpt lat="44.67542" lon="6.79268">
        <ele>1844</ele>
        <time>2013-09-01T10:50:07Z</time>
      </trkpt>
      <trkpt lat="44.67536" lon="6.79247">
        <ele>1843.5</ele>
        <time>2013-09-01T10:50:10Z</time>
      </trkpt>
      <trkpt lat="44.67535" lon="6.79239">
        <ele>1843</ele>
        <time>2013-09-01T10:50:11Z</time>
      </trkpt>
      <trkpt lat="44.67535" lon="6.79232">
        <ele>1843.5</ele>
        <time>2013-09-01T10:50:12Z</time>
      </trkpt>
      <trkpt lat="44.67535" lon="6.79224">
        <ele>1844</ele>
        <time>2013-09-01T10:50:13Z</time>
      </trkpt>
      <trkpt lat="44.67536" lon="6.79216">
        <ele>1843.5</ele>
        <time>2013-09-01T10:50:14Z</time>
      </trkpt>
      <trkpt lat="44.67537" lon="6.7921">
        <ele>1843</ele>
        <time>2013-09-01T10:50:15Z</time>
      </trkpt>
      <trkpt lat="44.67542" lon="6.79161">
        <ele>1841.5</ele>
        <time>2013-09-01T10:50:22Z</time>
      </trkpt>
      <trkpt lat="44.6755" lon="6.79085">
        <ele>1839.6</ele>
        <time>2013-09-01T10:50:32Z</time>
      </trkpt>
      <trkpt lat="44.67549" lon="6.79078">
        <ele>1839.6</ele>
        <time>2013-09-01T10:50:33Z</time>
      </trkpt>
      <trkpt lat="44.67547" lon="6.79071">
        <ele>1839.6</ele>
        <time>2013-09-01T10:50:34Z</time>
      </trkpt>
      <trkpt lat="44.67543" lon="6.79064">
        <ele>1839.1</ele>
        <time>2013-09-01T10:50:35Z</time>
      </trkpt>
      <trkpt lat="44.67538" lon="6.79058">
        <ele>1839.6</ele>
        <time>2013-09-01T10:50:36Z</time>
      </trkpt>
      <trkpt lat="44.67533" lon="6.79054">
        <ele>1839.6</ele>
        <time>2013-09-01T10:50:37Z</time>
      </trkpt>
      <trkpt lat="44.67523" lon="6.79045">
        <ele>1839.6</ele>
        <time>2013-09-01T10:50:39Z</time>
      </trkpt>
      <trkpt lat="44.6752" lon="6.79039">
        <ele>1839.1</ele>
        <time>2013-09-01T10:50:40Z</time>
      </trkpt>
      <trkpt lat="44.67517" lon="6.79032">
        <ele>1838.7</ele>
        <time>2013-09-01T10:50:41Z</time>
      </trkpt>
      <trkpt lat="44.67514" lon="6.79025">
        <ele>1838.7</ele>
        <time>2013-09-01T10:50:42Z</time>
      </trkpt>
      <trkpt lat="44.67513" lon="6.79017">
        <ele>1837.7</ele>
        <time>2013-09-01T10:50:43Z</time>
      </trkpt>
      <trkpt lat="44.67513" lon="6.7901">
        <ele>1837.2</ele>
        <time>2013-09-01T10:50:44Z</time>
      </trkpt>
      <trkpt lat="44.67513" lon="6.79003">
        <ele>1835.8</ele>
        <time>2013-09-01T10:50:45Z</time>
      </trkpt>
      <trkpt lat="44.67515" lon="6.78996">
        <ele>1835.8</ele>
        <time>2013-09-01T10:50:46Z</time>
      </trkpt>
      <trkpt lat="44.67517" lon="6.7899">
        <ele>1834.8</ele>
        <time>2013-09-01T10:50:47Z</time>
      </trkpt>
      <trkpt lat="44.67519" lon="6.78982">
        <ele>1833.9</ele>
        <time>2013-09-01T10:50:48Z</time>
      </trkpt>
      <trkpt lat="44.67519" lon="6.78973">
        <ele>1833.4</ele>
        <time>2013-09-01T10:50:49Z</time>
      </trkpt>
      <trkpt lat="44.67519" lon="6.78965">
        <ele>1832.9</ele>
        <time>2013-09-01T10:50:50Z</time>
      </trkpt>
      <trkpt lat="44.67517" lon="6.78956">
        <ele>1831.9</ele>
        <time>2013-09-01T10:50:51Z</time>
      </trkpt>
      <trkpt lat="44.67514" lon="6.7894">
        <ele>1830.5</ele>
        <time>2013-09-01T10:50:53Z</time>
      </trkpt>
      <trkpt lat="44.67513" lon="6.78931">
        <ele>1829.5</ele>
        <time>2013-09-01T10:50:54Z</time>
      </trkpt>
      <trkpt lat="44.67511" lon="6.78923">
        <ele>1829.1</ele>
        <time>2013-09-01T10:50:55Z</time>
      </trkpt>
      <trkpt lat="44.67509" lon="6.78915">
        <ele>1828.6</ele>
        <time>2013-09-01T10:50:56Z</time>
      </trkpt>
      <trkpt lat="44.67506" lon="6.78911">
        <ele>1828.6</ele>
        <time>2013-09-01T10:50:57Z</time>
      </trkpt>
      <trkpt lat="44.67502" lon="6.78908">
        <ele>1828.1</ele>
        <time>2013-09-01T10:50:58Z</time>
      </trkpt>
      <trkpt lat="44.67498" lon="6.78905">
        <ele>1828.1</ele>
        <time>2013-09-01T10:50:59Z</time>
      </trkpt>
      <trkpt lat="44.67485" lon="6.78899">
        <ele>1826.2</ele>
        <time>2013-09-01T10:51:02Z</time>
      </trkpt>
      <trkpt lat="44.67482" lon="6.78894">
        <ele>1825.2</ele>
        <time>2013-09-01T10:51:03Z</time>
      </trkpt>
      <trkpt lat="44.67479" lon="6.78889">
        <ele>1824.7</ele>
        <time>2013-09-01T10:51:04Z</time>
      </trkpt>
      <trkpt lat="44.67476" lon="6.78882">
        <ele>1823.3</ele>
        <time>2013-09-01T10:51:05Z</time>
      </trkpt>
      <trkpt lat="44.67473" lon="6.78877">
        <ele>1823.8</ele>
        <time>2013-09-01T10:51:06Z</time>
      </trkpt>
      <trkpt lat="44.67462" lon="6.78862">
        <ele>1820.9</ele>
        <time>2013-09-01T10:51:09Z</time>
      </trkpt>
      <trkpt lat="44.6746" lon="6.78856">
        <ele>1820.9</ele>
        <time>2013-09-01T10:51:10Z</time>
      </trkpt>
      <trkpt lat="44.67457" lon="6.7885">
        <ele>1820.4</ele>
        <time>2013-09-01T10:51:11Z</time>
      </trkpt>
      <trkpt lat="44.67456" lon="6.78842">
        <ele>1819.9</ele>
        <time>2013-09-01T10:51:12Z</time>
      </trkpt>
      <trkpt lat="44.67456" lon="6.78833">
        <ele>1818.5</ele>
        <time>2013-09-01T10:51:13Z</time>
      </trkpt>
      <trkpt lat="44.67456" lon="6.78823">
        <ele>1818.5</ele>
        <time>2013-09-01T10:51:14Z</time>
      </trkpt>
      <trkpt lat="44.67455" lon="6.78793">
        <ele>1816.6</ele>
        <time>2013-09-01T10:51:17Z</time>
      </trkpt>
      <trkpt lat="44.67454" lon="6.78785">
        <ele>1817</ele>
        <time>2013-09-01T10:51:18Z</time>
      </trkpt>
      <trkpt lat="44.67448" lon="6.78741">
        <ele>1815.1</ele>
        <time>2013-09-01T10:51:23Z</time>
      </trkpt>
      <trkpt lat="44.67445" lon="6.78735">
        <ele>1814.2</ele>
        <time>2013-09-01T10:51:24Z</time>
      </trkpt>
      <trkpt lat="44.67442" lon="6.78729">
        <ele>1814.2</ele>
        <time>2013-09-01T10:51:25Z</time>
      </trkpt>
      <trkpt lat="44.67437" lon="6.78724">
        <ele>1813.7</ele>
        <time>2013-09-01T10:51:26Z</time>
      </trkpt>
      <trkpt lat="44.67431" lon="6.78718">
        <ele>1812.7</ele>
        <time>2013-09-01T10:51:27Z</time>
      </trkpt>
      <trkpt lat="44.67408" lon="6.78695">
        <ele>1810.3</ele>
        <time>2013-09-01T10:51:32Z</time>
      </trkpt>
      <trkpt lat="44.67386" lon="6.78672">
        <ele>1806.9</ele>
        <time>2013-09-01T10:51:36Z</time>
      </trkpt>
      <trkpt lat="44.67372" lon="6.78657">
        <ele>1804.5</ele>
        <time>2013-09-01T10:51:39Z</time>
      </trkpt>
      <trkpt lat="44.67361" lon="6.78644">
        <ele>1804.1</ele>
        <time>2013-09-01T10:51:42Z</time>
      </trkpt>
      <trkpt lat="44.67354" lon="6.78614">
        <ele>1800.7</ele>
        <time>2013-09-01T10:51:48Z</time>
      </trkpt>
      <trkpt lat="44.67355" lon="6.78608">
        <ele>1799.7</ele>
        <time>2013-09-01T10:51:49Z</time>
      </trkpt>
      <trkpt lat="44.67362" lon="6.78592">
        <ele>1798.3</ele>
        <time>2013-09-01T10:51:52Z</time>
      </trkpt>
      <trkpt lat="44.67363" lon="6.78586">
        <ele>1798.8</ele>
        <time>2013-09-01T10:51:53Z</time>
      </trkpt>
      <trkpt lat="44.67363" lon="6.7858">
        <ele>1798.3</ele>
        <time>2013-09-01T10:51:54Z</time>
      </trkpt>
      <trkpt lat="44.67361" lon="6.78569">
        <ele>1797.3</ele>
        <time>2013-09-01T10:51:56Z</time>
      </trkpt>
      <trkpt lat="44.67358" lon="6.78567">
        <ele>1797.3</ele>
        <time>2013-09-01T10:51:57Z</time>
      </trkpt>
      <trkpt lat="44.67356" lon="6.78565">
        <ele>1797.8</ele>
        <time>2013-09-01T10:51:58Z</time>
      </trkpt>
      <trkpt lat="44.67355" lon="6.78563">
        <ele>1796.8</ele>
        <time>2013-09-01T10:51:59Z</time>
      </trkpt>
      <trkpt lat="44.67353" lon="6.78564">
        <ele>1796.8</ele>
        <time>2013-09-01T10:52:00Z</time>
      </trkpt>
      <trkpt lat="44.67355" lon="6.78565">
        <ele>1796.8</ele>
        <time>2013-09-01T10:52:12Z</time>
      </trkpt>
      <trkpt lat="44.67342" lon="6.78533">
        <ele>1795.4</ele>
        <time>2013-09-01T10:52:21Z</time>
      </trkpt>
      <trkpt lat="44.6734" lon="6.78527">
        <ele>1795.4</ele>
        <time>2013-09-01T10:52:22Z</time>
      </trkpt>
      <trkpt lat="44.67333" lon="6.78507">
        <ele>1794.4</ele>
        <time>2013-09-01T10:52:25Z</time>
      </trkpt>
      <trkpt lat="44.67328" lon="6.78493">
        <ele>1794</ele>
        <time>2013-09-01T10:52:27Z</time>
      </trkpt>
      <trkpt lat="44.67326" lon="6.78484">
        <ele>1793.5</ele>
        <time>2013-09-01T10:52:28Z</time>
      </trkpt>
      <trkpt lat="44.67324" lon="6.78467">
        <ele>1792.5</ele>
        <time>2013-09-01T10:52:30Z</time>
      </trkpt>
      <trkpt lat="44.67323" lon="6.78434">
        <ele>1790.6</ele>
        <time>2013-09-01T10:52:34Z</time>
      </trkpt>
      <trkpt lat="44.67321" lon="6.78428">
        <ele>1790.6</ele>
        <time>2013-09-01T10:52:35Z</time>
      </trkpt>
      <trkpt lat="44.67318" lon="6.78423">
        <ele>1790.6</ele>
        <time>2013-09-01T10:52:36Z</time>
      </trkpt>
      <trkpt lat="44.67311" lon="6.78412">
        <ele>1789.6</ele>
        <time>2013-09-01T10:52:38Z</time>
      </trkpt>
      <trkpt lat="44.67308" lon="6.78405">
        <ele>1789.6</ele>
        <time>2013-09-01T10:52:39Z</time>
      </trkpt>
      <trkpt lat="44.673" lon="6.78393">
        <ele>1788.7</ele>
        <time>2013-09-01T10:52:41Z</time>
      </trkpt>
      <trkpt lat="44.67295" lon="6.78388">
        <ele>1788.2</ele>
        <time>2013-09-01T10:52:42Z</time>
      </trkpt>
      <trkpt lat="44.67285" lon="6.78382">
        <ele>1788.2</ele>
        <time>2013-09-01T10:52:44Z</time>
      </trkpt>
      <trkpt lat="44.67281" lon="6.78377">
        <ele>1787.7</ele>
        <time>2013-09-01T10:52:45Z</time>
      </trkpt>
      <trkpt lat="44.67279" lon="6.78372">
        <ele>1786.8</ele>
        <time>2013-09-01T10:52:46Z</time>
      </trkpt>
      <trkpt lat="44.67278" lon="6.78366">
        <ele>1786.3</ele>
        <time>2013-09-01T10:52:47Z</time>
      </trkpt>
      <trkpt lat="44.67275" lon="6.78353">
        <ele>1786.3</ele>
        <time>2013-09-01T10:52:49Z</time>
      </trkpt>
      <trkpt lat="44.67273" lon="6.78346">
        <ele>1786.8</ele>
        <time>2013-09-01T10:52:50Z</time>
      </trkpt>
      <trkpt lat="44.6727" lon="6.7834">
        <ele>1786.3</ele>
        <time>2013-09-01T10:52:51Z</time>
      </trkpt>
      <trkpt lat="44.67267" lon="6.78335">
        <ele>1786.3</ele>
        <time>2013-09-01T10:52:52Z</time>
      </trkpt>
      <trkpt lat="44.67262" lon="6.78333">
        <ele>1785.8</ele>
        <time>2013-09-01T10:52:53Z</time>
      </trkpt>
      <trkpt lat="44.67257" lon="6.78332">
        <ele>1785.8</ele>
        <time>2013-09-01T10:52:54Z</time>
      </trkpt>
      <trkpt lat="44.67252" lon="6.78333">
        <ele>1785.3</ele>
        <time>2013-09-01T10:52:55Z</time>
      </trkpt>
      <trkpt lat="44.67242" lon="6.78334">
        <ele>1784.8</ele>
        <time>2013-09-01T10:52:57Z</time>
      </trkpt>
      <trkpt lat="44.67237" lon="6.78332">
        <ele>1783.9</ele>
        <time>2013-09-01T10:52:58Z</time>
      </trkpt>
      <trkpt lat="44.67233" lon="6.78328">
        <ele>1783.9</ele>
        <time>2013-09-01T10:52:59Z</time>
      </trkpt>
      <trkpt lat="44.6723" lon="6.78323">
        <ele>1782.9</ele>
        <time>2013-09-01T10:53:00Z</time>
      </trkpt>
      <trkpt lat="44.67227" lon="6.78317">
        <ele>1782.9</ele>
        <time>2013-09-01T10:53:01Z</time>
      </trkpt>
      <trkpt lat="44.67224" lon="6.7831">
        <ele>1781.9</ele>
        <time>2013-09-01T10:53:02Z</time>
      </trkpt>
      <trkpt lat="44.67212" lon="6.7828">
        <ele>1779.1</ele>
        <time>2013-09-01T10:53:07Z</time>
      </trkpt>
      <trkpt lat="44.67211" lon="6.78274">
        <ele>1778.6</ele>
        <time>2013-09-01T10:53:08Z</time>
      </trkpt>
      <trkpt lat="44.67211" lon="6.78264">
        <ele>1777.1</ele>
        <time>2013-09-01T10:53:10Z</time>
      </trkpt>
      <trkpt lat="44.67211" lon="6.78249">
        <ele>1775.2</ele>
        <time>2013-09-01T10:53:13Z</time>
      </trkpt>
      <trkpt lat="44.67209" lon="6.78244">
        <ele>1775.2</ele>
        <time>2013-09-01T10:53:14Z</time>
      </trkpt>
      <trkpt lat="44.67206" lon="6.78238">
        <ele>1775.2</ele>
        <time>2013-09-01T10:53:15Z</time>
      </trkpt>
      <trkpt lat="44.67204" lon="6.78232">
        <ele>1773.8</ele>
        <time>2013-09-01T10:53:16Z</time>
      </trkpt>
      <trkpt lat="44.67203" lon="6.78225">
        <ele>1773.3</ele>
        <time>2013-09-01T10:53:17Z</time>
      </trkpt>
      <trkpt lat="44.67203" lon="6.78218">
        <ele>1771.9</ele>
        <time>2013-09-01T10:53:18Z</time>
      </trkpt>
      <trkpt lat="44.67204" lon="6.78204">
        <ele>1770.4</ele>
        <time>2013-09-01T10:53:20Z</time>
      </trkpt>
      <trkpt lat="44.67205" lon="6.78191">
        <ele>1769.9</ele>
        <time>2013-09-01T10:53:22Z</time>
      </trkpt>
      <trkpt lat="44.67216" lon="6.78162">
        <ele>1766.6</ele>
        <time>2013-09-01T10:53:29Z</time>
      </trkpt>
      <trkpt lat="44.6723" lon="6.78146">
        <ele>1765.6</ele>
        <time>2013-09-01T10:53:33Z</time>
      </trkpt>
      <trkpt lat="44.67232" lon="6.7814">
        <ele>1764.6</ele>
        <time>2013-09-01T10:53:34Z</time>
      </trkpt>
      <trkpt lat="44.67232" lon="6.78133">
        <ele>1765.6</ele>
        <time>2013-09-01T10:53:35Z</time>
      </trkpt>
      <trkpt lat="44.67231" lon="6.78127">
        <ele>1765.1</ele>
        <time>2013-09-01T10:53:36Z</time>
      </trkpt>
      <trkpt lat="44.67228" lon="6.7812">
        <ele>1764.2</ele>
        <time>2013-09-01T10:53:37Z</time>
      </trkpt>
      <trkpt lat="44.67225" lon="6.78114">
        <ele>1763.2</ele>
        <time>2013-09-01T10:53:38Z</time>
      </trkpt>
      <trkpt lat="44.67222" lon="6.78108">
        <ele>1763.2</ele>
        <time>2013-09-01T10:53:39Z</time>
      </trkpt>
      <trkpt lat="44.67217" lon="6.78103">
        <ele>1762.7</ele>
        <time>2013-09-01T10:53:40Z</time>
      </trkpt>
      <trkpt lat="44.67203" lon="6.78087">
        <ele>1761.3</ele>
        <time>2013-09-01T10:53:43Z</time>
      </trkpt>
      <trkpt lat="44.67198" lon="6.78082">
        <ele>1761.3</ele>
        <time>2013-09-01T10:53:44Z</time>
      </trkpt>
      <trkpt lat="44.67193" lon="6.78078">
        <ele>1760.3</ele>
        <time>2013-09-01T10:53:45Z</time>
      </trkpt>
      <trkpt lat="44.67187" lon="6.78074">
        <ele>1760.3</ele>
        <time>2013-09-01T10:53:46Z</time>
      </trkpt>
      <trkpt lat="44.67156" lon="6.78051">
        <ele>1757</ele>
        <time>2013-09-01T10:53:52Z</time>
      </trkpt>
      <trkpt lat="44.67152" lon="6.78045">
        <ele>1756.5</ele>
        <time>2013-09-01T10:53:53Z</time>
      </trkpt>
      <trkpt lat="44.67148" lon="6.78038">
        <ele>1756</ele>
        <time>2013-09-01T10:53:54Z</time>
      </trkpt>
      <trkpt lat="44.67145" lon="6.78032">
        <ele>1755.5</ele>
        <time>2013-09-01T10:53:55Z</time>
      </trkpt>
      <trkpt lat="44.67143" lon="6.78025">
        <ele>1755</ele>
        <time>2013-09-01T10:53:56Z</time>
      </trkpt>
      <trkpt lat="44.67144" lon="6.78019">
        <ele>1754.1</ele>
        <time>2013-09-01T10:53:57Z</time>
      </trkpt>
      <trkpt lat="44.67145" lon="6.78013">
        <ele>1753.6</ele>
        <time>2013-09-01T10:53:58Z</time>
      </trkpt>
      <trkpt lat="44.67149" lon="6.78008">
        <ele>1752.6</ele>
        <time>2013-09-01T10:53:59Z</time>
      </trkpt>
      <trkpt lat="44.67153" lon="6.78003">
        <ele>1752.1</ele>
        <time>2013-09-01T10:54:00Z</time>
      </trkpt>
      <trkpt lat="44.67173" lon="6.77979">
        <ele>1749.3</ele>
        <time>2013-09-01T10:54:04Z</time>
      </trkpt>
      <trkpt lat="44.67199" lon="6.77945">
        <ele>1745.4</ele>
        <time>2013-09-01T10:54:11Z</time>
      </trkpt>
      <trkpt lat="44.67203" lon="6.77938">
        <ele>1745.4</ele>
        <time>2013-09-01T10:54:12Z</time>
      </trkpt>
      <trkpt lat="44.67203" lon="6.77933">
        <ele>1744.5</ele>
        <time>2013-09-01T10:54:13Z</time>
      </trkpt>
      <trkpt lat="44.67201" lon="6.77929">
        <ele>1744.5</ele>
        <time>2013-09-01T10:54:14Z</time>
      </trkpt>
      <trkpt lat="44.67198" lon="6.77928">
        <ele>1743.5</ele>
        <time>2013-09-01T10:54:15Z</time>
      </trkpt>
      <trkpt lat="44.67194" lon="6.77929">
        <ele>1743.5</ele>
        <time>2013-09-01T10:54:16Z</time>
      </trkpt>
      <trkpt lat="44.67187" lon="6.77936">
        <ele>1743</ele>
        <time>2013-09-01T10:54:18Z</time>
      </trkpt>
      <trkpt lat="44.67151" lon="6.77971">
        <ele>1741.1</ele>
        <time>2013-09-01T10:54:26Z</time>
      </trkpt>
      <trkpt lat="44.67145" lon="6.77973">
        <ele>1740.6</ele>
        <time>2013-09-01T10:54:27Z</time>
      </trkpt>
      <trkpt lat="44.67139" lon="6.77975">
        <ele>1740.6</ele>
        <time>2013-09-01T10:54:28Z</time>
      </trkpt>
      <trkpt lat="44.67133" lon="6.77975">
        <ele>1740.1</ele>
        <time>2013-09-01T10:54:29Z</time>
      </trkpt>
      <trkpt lat="44.6712" lon="6.77973">
        <ele>1738.7</ele>
        <time>2013-09-01T10:54:31Z</time>
      </trkpt>
      <trkpt lat="44.67098" lon="6.77968">
        <ele>1737.7</ele>
        <time>2013-09-01T10:54:35Z</time>
      </trkpt>
      <trkpt lat="44.67094" lon="6.77969">
        <ele>1737.2</ele>
        <time>2013-09-01T10:54:36Z</time>
      </trkpt>
      <trkpt lat="44.67089" lon="6.77971">
        <ele>1736.8</ele>
        <time>2013-09-01T10:54:37Z</time>
      </trkpt>
      <trkpt lat="44.67086" lon="6.77975">
        <ele>1735.8</ele>
        <time>2013-09-01T10:54:38Z</time>
      </trkpt>
      <trkpt lat="44.67084" lon="6.7798">
        <ele>1734.8</ele>
        <time>2013-09-01T10:54:39Z</time>
      </trkpt>
      <trkpt lat="44.67082" lon="6.77985">
        <ele>1734.8</ele>
        <time>2013-09-01T10:54:40Z</time>
      </trkpt>
      <trkpt lat="44.67078" lon="6.77998">
        <ele>1733.9</ele>
        <time>2013-09-01T10:54:42Z</time>
      </trkpt>
      <trkpt lat="44.67072" lon="6.7802">
        <ele>1731</ele>
        <time>2013-09-01T10:54:45Z</time>
      </trkpt>
      <trkpt lat="44.6707" lon="6.78026">
        <ele>1730.5</ele>
        <time>2013-09-01T10:54:46Z</time>
      </trkpt>
      <trkpt lat="44.6707" lon="6.78032">
        <ele>1730.5</ele>
        <time>2013-09-01T10:54:47Z</time>
      </trkpt>
      <trkpt lat="44.6707" lon="6.78039">
        <ele>1730</ele>
        <time>2013-09-01T10:54:48Z</time>
      </trkpt>
      <trkpt lat="44.6707" lon="6.78045">
        <ele>1729.1</ele>
        <time>2013-09-01T10:54:49Z</time>
      </trkpt>
      <trkpt lat="44.67079" lon="6.78083">
        <ele>1726.2</ele>
        <time>2013-09-01T10:54:55Z</time>
      </trkpt>
      <trkpt lat="44.67083" lon="6.78098">
        <ele>1723.8</ele>
        <time>2013-09-01T10:54:59Z</time>
      </trkpt>
      <trkpt lat="44.67081" lon="6.78101">
        <ele>1723.3</ele>
        <time>2013-09-01T10:55:00Z</time>
      </trkpt>
      <trkpt lat="44.67074" lon="6.781">
        <ele>1722.8</ele>
        <time>2013-09-01T10:55:02Z</time>
      </trkpt>
      <trkpt lat="44.67069" lon="6.78092">
        <ele>1722.3</ele>
        <time>2013-09-01T10:55:04Z</time>
      </trkpt>
      <trkpt lat="44.67061" lon="6.78081">
        <ele>1720.9</ele>
        <time>2013-09-01T10:55:06Z</time>
      </trkpt>
      <trkpt lat="44.67051" lon="6.7807">
        <ele>1720.4</ele>
        <time>2013-09-01T10:55:08Z</time>
      </trkpt>
      <trkpt lat="44.67046" lon="6.78066">
        <ele>1719.9</ele>
        <time>2013-09-01T10:55:09Z</time>
      </trkpt>
      <trkpt lat="44.6704" lon="6.78064">
        <ele>1719.5</ele>
        <time>2013-09-01T10:55:10Z</time>
      </trkpt>
      <trkpt lat="44.67019" lon="6.78057">
        <ele>1717.1</ele>
        <time>2013-09-01T10:55:15Z</time>
      </trkpt>
      <trkpt lat="44.67015" lon="6.78053">
        <ele>1716.1</ele>
        <time>2013-09-01T10:55:16Z</time>
      </trkpt>
      <trkpt lat="44.67004" lon="6.78036">
        <ele>1714.7</ele>
        <time>2013-09-01T10:55:19Z</time>
      </trkpt>
      <trkpt lat="44.67001" lon="6.7803">
        <ele>1714.2</ele>
        <time>2013-09-01T10:55:20Z</time>
      </trkpt>
      <trkpt lat="44.66999" lon="6.78025">
        <ele>1714.2</ele>
        <time>2013-09-01T10:55:21Z</time>
      </trkpt>
      <trkpt lat="44.66997" lon="6.78019">
        <ele>1714.2</ele>
        <time>2013-09-01T10:55:22Z</time>
      </trkpt>
      <trkpt lat="44.66997" lon="6.78013">
        <ele>1713.7</ele>
        <time>2013-09-01T10:55:23Z</time>
      </trkpt>
      <trkpt lat="44.66996" lon="6.77998">
        <ele>1712.7</ele>
        <time>2013-09-01T10:55:25Z</time>
      </trkpt>
      <trkpt lat="44.66998" lon="6.77982">
        <ele>1710.8</ele>
        <time>2013-09-01T10:55:27Z</time>
      </trkpt>
      <trkpt lat="44.66999" lon="6.77974">
        <ele>1709.8</ele>
        <time>2013-09-01T10:55:28Z</time>
      </trkpt>
      <trkpt lat="44.67001" lon="6.77967">
        <ele>1709.4</ele>
        <time>2013-09-01T10:55:29Z</time>
      </trkpt>
      <trkpt lat="44.67011" lon="6.77926">
        <ele>1706.5</ele>
        <time>2013-09-01T10:55:36Z</time>
      </trkpt>
      <trkpt lat="44.67022" lon="6.77892">
        <ele>1703.6</ele>
        <time>2013-09-01T10:55:41Z</time>
      </trkpt>
      <trkpt lat="44.67025" lon="6.77885">
        <ele>1703.6</ele>
        <time>2013-09-01T10:55:42Z</time>
      </trkpt>
      <trkpt lat="44.67033" lon="6.77871">
        <ele>1701.2</ele>
        <time>2013-09-01T10:55:44Z</time>
      </trkpt>
      <trkpt lat="44.67035" lon="6.77864">
        <ele>1700.2</ele>
        <time>2013-09-01T10:55:45Z</time>
      </trkpt>
      <trkpt lat="44.67037" lon="6.77855">
        <ele>1700.2</ele>
        <time>2013-09-01T10:55:46Z</time>
      </trkpt>
      <trkpt lat="44.67037" lon="6.77846">
        <ele>1699.3</ele>
        <time>2013-09-01T10:55:47Z</time>
      </trkpt>
      <trkpt lat="44.67035" lon="6.77838">
        <ele>1698.3</ele>
        <time>2013-09-01T10:55:48Z</time>
      </trkpt>
      <trkpt lat="44.67033" lon="6.77831">
        <ele>1696.9</ele>
        <time>2013-09-01T10:55:49Z</time>
      </trkpt>
      <trkpt lat="44.6703" lon="6.77827">
        <ele>1697.3</ele>
        <time>2013-09-01T10:55:50Z</time>
      </trkpt>
      <trkpt lat="44.67026" lon="6.77824">
        <ele>1696.9</ele>
        <time>2013-09-01T10:55:51Z</time>
      </trkpt>
      <trkpt lat="44.67022" lon="6.77821">
        <ele>1696.9</ele>
        <time>2013-09-01T10:55:52Z</time>
      </trkpt>
      <trkpt lat="44.67016" lon="6.77819">
        <ele>1696.4</ele>
        <time>2013-09-01T10:55:53Z</time>
      </trkpt>
      <trkpt lat="44.6701" lon="6.77817">
        <ele>1695.4</ele>
        <time>2013-09-01T10:55:54Z</time>
      </trkpt>
      <trkpt lat="44.66996" lon="6.77811">
        <ele>1694.5</ele>
        <time>2013-09-01T10:55:56Z</time>
      </trkpt>
      <trkpt lat="44.6699" lon="6.77807">
        <ele>1693</ele>
        <time>2013-09-01T10:55:57Z</time>
      </trkpt>
      <trkpt lat="44.66983" lon="6.77801">
        <ele>1692.1</ele>
        <time>2013-09-01T10:55:58Z</time>
      </trkpt>
      <trkpt lat="44.66977" lon="6.77794">
        <ele>1690.6</ele>
        <time>2013-09-01T10:55:59Z</time>
      </trkpt>
      <trkpt lat="44.66962" lon="6.77772">
        <ele>1688.7</ele>
        <time>2013-09-01T10:56:02Z</time>
      </trkpt>
      <trkpt lat="44.66958" lon="6.77763">
        <ele>1687.7</ele>
        <time>2013-09-01T10:56:03Z</time>
      </trkpt>
      <trkpt lat="44.66945" lon="6.77726">
        <ele>1684.9</ele>
        <time>2013-09-01T10:56:07Z</time>
      </trkpt>
      <trkpt lat="44.66938" lon="6.77711">
        <ele>1682.4</ele>
        <time>2013-09-01T10:56:09Z</time>
      </trkpt>
      <trkpt lat="44.66933" lon="6.77706">
        <ele>1681.5</ele>
        <time>2013-09-01T10:56:10Z</time>
      </trkpt>
      <trkpt lat="44.66927" lon="6.77703">
        <ele>1681</ele>
        <time>2013-09-01T10:56:11Z</time>
      </trkpt>
      <trkpt lat="44.66921" lon="6.77703">
        <ele>1680.5</ele>
        <time>2013-09-01T10:56:12Z</time>
      </trkpt>
      <trkpt lat="44.66915" lon="6.77705">
        <ele>1680.5</ele>
        <time>2013-09-01T10:56:13Z</time>
      </trkpt>
      <trkpt lat="44.66888" lon="6.77723">
        <ele>1680</ele>
        <time>2013-09-01T10:56:22Z</time>
      </trkpt>
      <trkpt lat="44.6686" lon="6.77755">
        <ele>1679.6</ele>
        <time>2013-09-01T10:56:35Z</time>
      </trkpt>
      <trkpt lat="44.66834" lon="6.77772">
        <ele>1678.6</ele>
        <time>2013-09-01T10:56:47Z</time>
      </trkpt>
      <trkpt lat="44.66833" lon="6.77773">
        <ele>1679.1</ele>
        <time>2013-09-01T10:56:50Z</time>
      </trkpt>
      <trkpt lat="44.66813" lon="6.77788">
        <ele>1678.1</ele>
        <time>2013-09-01T10:56:59Z</time>
      </trkpt>
      <trkpt lat="44.66791" lon="6.77818">
        <ele>1677.2</ele>
        <time>2013-09-01T10:57:08Z</time>
      </trkpt>
      <trkpt lat="44.66801" lon="6.77831">
        <ele>1677.6</ele>
        <time>2013-09-01T10:57:18Z</time>
      </trkpt>
      <trkpt lat="44.6681" lon="6.77838">
        <ele>1678.1</ele>
        <time>2013-09-01T10:57:25Z</time>
      </trkpt>
      <trkpt lat="44.66811" lon="6.7784">
        <ele>1678.6</ele>
        <time>2013-09-01T10:57:26Z</time>
      </trkpt>
      <trkpt lat="44.66821" lon="6.77851">
        <ele>1678.6</ele>
        <time>2013-09-01T10:57:38Z</time>
      </trkpt>
      <trkpt lat="44.66817" lon="6.77852">
        <ele>1678.6</ele>
        <time>2013-09-01T10:57:50Z</time>
      </trkpt>
      <trkpt lat="44.66816" lon="6.77851">
        <ele>1678.1</ele>
        <time>2013-09-01T10:57:51Z</time>
      </trkpt>
      <trkpt lat="44.66799" lon="6.77833">
        <ele>1678.1</ele>
        <time>2013-09-01T10:58:01Z</time>
      </trkpt>
      <trkpt lat="44.66769" lon="6.77795">
        <ele>1677.2</ele>
        <time>2013-09-01T10:58:12Z</time>
      </trkpt>
      <trkpt lat="44.66759" lon="6.77783">
        <ele>1675.2</ele>
        <time>2013-09-01T10:58:21Z</time>
      </trkpt>
      <trkpt lat="44.66757" lon="6.77782">
        <ele>1675.2</ele>
        <time>2013-09-01T10:58:22Z</time>
      </trkpt>
      <trkpt lat="44.66756" lon="6.7778">
        <ele>1674.3</ele>
        <time>2013-09-01T10:58:23Z</time>
      </trkpt>
      <trkpt lat="44.66746" lon="6.77765">
        <ele>1673.8</ele>
        <time>2013-09-01T10:58:27Z</time>
      </trkpt>
      <trkpt lat="44.66722" lon="6.77736">
        <ele>1673.8</ele>
        <time>2013-09-01T10:58:39Z</time>
      </trkpt>
      <trkpt lat="44.66713" lon="6.77725">
        <ele>1672.8</ele>
        <time>2013-09-01T10:58:52Z</time>
      </trkpt>
      <trkpt lat="44.66716" lon="6.7772">
        <ele>1673.8</ele>
        <time>2013-09-01T10:59:19Z</time>
      </trkpt>
      <trkpt lat="44.66726" lon="6.77715">
        <ele>1673.3</ele>
        <time>2013-09-01T10:59:34Z</time>
      </trkpt>
      <trkpt lat="44.66731" lon="6.77712">
        <ele>1672.4</ele>
        <time>2013-09-01T10:59:43Z</time>
      </trkpt>
      <trkpt lat="44.66498" lon="6.77531">
        <ele>1664.7</ele>
        <time>2013-09-01T12:26:21Z</time>
      </trkpt>
      <trkpt lat="44.66496" lon="6.77531">
        <ele>1665.1</ele>
        <time>2013-09-01T12:26:22Z</time>
      </trkpt>
      <trkpt lat="44.66499" lon="6.77525">
        <ele>1665.6</ele>
        <time>2013-09-01T12:26:25Z</time>
      </trkpt>
      <trkpt lat="44.66495" lon="6.77533">
        <ele>1664.7</ele>
        <time>2013-09-01T12:26:30Z</time>
      </trkpt>
      <trkpt lat="44.66493" lon="6.77537">
        <ele>1665.6</ele>
        <time>2013-09-01T12:26:31Z</time>
      </trkpt>
      <trkpt lat="44.66492" lon="6.77541">
        <ele>1663.7</ele>
        <time>2013-09-01T12:26:32Z</time>
      </trkpt>
      <trkpt lat="44.66489" lon="6.77551">
        <ele>1662.7</ele>
        <time>2013-09-01T12:26:35Z</time>
      </trkpt>
      <trkpt lat="44.66484" lon="6.77562">
        <ele>1660.8</ele>
        <time>2013-09-01T12:26:38Z</time>
      </trkpt>
      <trkpt lat="44.66477" lon="6.77577">
        <ele>1657.9</ele>
        <time>2013-09-01T12:26:43Z</time>
      </trkpt>
      <trkpt lat="44.66473" lon="6.77588">
        <ele>1655.5</ele>
        <time>2013-09-01T12:26:47Z</time>
      </trkpt>
      <trkpt lat="44.66469" lon="6.77601">
        <ele>1654.1</ele>
        <time>2013-09-01T12:26:52Z</time>
      </trkpt>
      <trkpt lat="44.66469" lon="6.77604">
        <ele>1650.7</ele>
        <time>2013-09-01T12:27:00Z</time>
      </trkpt>
      <trkpt lat="44.66467" lon="6.77604">
        <ele>1647.8</ele>
        <time>2013-09-01T12:27:11Z</time>
      </trkpt>
      <trkpt lat="44.66472" lon="6.77596">
        <ele>1645</ele>
        <time>2013-09-01T12:27:40Z</time>
      </trkpt>
      <trkpt lat="44.66467" lon="6.77595">
        <ele>1644.5</ele>
        <time>2013-09-01T12:27:51Z</time>
      </trkpt>
      <trkpt lat="44.66449" lon="6.77623">
        <ele>1644.5</ele>
        <time>2013-09-01T12:28:02Z</time>
      </trkpt>
      <trkpt lat="44.66417" lon="6.77684">
        <ele>1645</ele>
        <time>2013-09-01T12:28:18Z</time>
      </trkpt>
      <trkpt lat="44.66384" lon="6.77758">
        <ele>1646.9</ele>
        <time>2013-09-01T12:28:36Z</time>
      </trkpt>
      <trkpt lat="44.66355" lon="6.77834">
        <ele>1646.9</ele>
        <time>2013-09-01T12:28:53Z</time>
      </trkpt>
      <trkpt lat="44.66352" lon="6.77841">
        <ele>1647.4</ele>
        <time>2013-09-01T12:29:02Z</time>
      </trkpt>
      <trkpt lat="44.66352" lon="6.77848">
        <ele>1646.4</ele>
        <time>2013-09-01T12:29:20Z</time>
      </trkpt>
      <trkpt lat="44.66338" lon="6.779">
        <ele>1647.4</ele>
        <time>2013-09-01T12:29:33Z</time>
      </trkpt>
      <trkpt lat="44.6631" lon="6.77994">
        <ele>1647.4</ele>
        <time>2013-09-01T12:29:52Z</time>
      </trkpt>
      <trkpt lat="44.66261" lon="6.78075">
        <ele>1648.8</ele>
        <time>2013-09-01T12:30:11Z</time>
      </trkpt>
      <trkpt lat="44.66204" lon="6.78125">
        <ele>1650.7</ele>
        <time>2013-09-01T12:30:29Z</time>
      </trkpt>
      <trkpt lat="44.66143" lon="6.78169">
        <ele>1652.2</ele>
        <time>2013-09-01T12:30:47Z</time>
      </trkpt>
      <trkpt lat="44.66073" lon="6.7822">
        <ele>1654.1</ele>
        <time>2013-09-01T12:31:07Z</time>
      </trkpt>
      <trkpt lat="44.65995" lon="6.7828">
        <ele>1657</ele>
        <time>2013-09-01T12:31:30Z</time>
      </trkpt>
      <trkpt lat="44.65934" lon="6.78345">
        <ele>1657.9</ele>
        <time>2013-09-01T12:31:50Z</time>
      </trkpt>
      <trkpt lat="44.65871" lon="6.78423">
        <ele>1660.3</ele>
        <time>2013-09-01T12:32:12Z</time>
      </trkpt>
      <trkpt lat="44.65805" lon="6.785">
        <ele>1663.7</ele>
        <time>2013-09-01T12:32:34Z</time>
      </trkpt>
      <trkpt lat="44.65724" lon="6.7857">
        <ele>1664.7</ele>
        <time>2013-09-01T12:32:57Z</time>
      </trkpt>
      <trkpt lat="44.65665" lon="6.7863">
        <ele>1667.5</ele>
        <time>2013-09-01T12:33:15Z</time>
      </trkpt>
      <trkpt lat="44.65599" lon="6.78699">
        <ele>1670</ele>
        <time>2013-09-01T12:33:35Z</time>
      </trkpt>
      <trkpt lat="44.65537" lon="6.78764">
        <ele>1671.4</ele>
        <time>2013-09-01T12:33:54Z</time>
      </trkpt>
      <trkpt lat="44.65473" lon="6.78831">
        <ele>1675.2</ele>
        <time>2013-09-01T12:34:13Z</time>
      </trkpt>
      <trkpt lat="44.65405" lon="6.78902">
        <ele>1676.7</ele>
        <time>2013-09-01T12:34:34Z</time>
      </trkpt>
      <trkpt lat="44.65356" lon="6.78955">
        <ele>1678.6</ele>
        <time>2013-09-01T12:34:51Z</time>
      </trkpt>
      <trkpt lat="44.65308" lon="6.79016">
        <ele>1681.5</ele>
        <time>2013-09-01T12:35:12Z</time>
      </trkpt>
      <trkpt lat="44.65287" lon="6.79042">
        <ele>1684.4</ele>
        <time>2013-09-01T12:35:26Z</time>
      </trkpt>
      <trkpt lat="44.65265" lon="6.79064">
        <ele>1686.8</ele>
        <time>2013-09-01T12:35:41Z</time>
      </trkpt>
      <trkpt lat="44.65236" lon="6.79087">
        <ele>1690.1</ele>
        <time>2013-09-01T12:36:00Z</time>
      </trkpt>
      <trkpt lat="44.65214" lon="6.791">
        <ele>1693</ele>
        <time>2013-09-01T12:36:14Z</time>
      </trkpt>
      <trkpt lat="44.65187" lon="6.79114">
        <ele>1696.4</ele>
        <time>2013-09-01T12:36:30Z</time>
      </trkpt>
      <trkpt lat="44.65177" lon="6.79121">
        <ele>1698.3</ele>
        <time>2013-09-01T12:36:36Z</time>
      </trkpt>
      <trkpt lat="44.65149" lon="6.7915">
        <ele>1699.3</ele>
        <time>2013-09-01T12:36:53Z</time>
      </trkpt>
      <trkpt lat="44.6513" lon="6.79174">
        <ele>1702.2</ele>
        <time>2013-09-01T12:37:05Z</time>
      </trkpt>
      <trkpt lat="44.65124" lon="6.7918">
        <ele>1703.1</ele>
        <time>2013-09-01T12:37:09Z</time>
      </trkpt>
      <trkpt lat="44.65101" lon="6.79213">
        <ele>1705</ele>
        <time>2013-09-01T12:37:26Z</time>
      </trkpt>
      <trkpt lat="44.65088" lon="6.79237">
        <ele>1707.9</ele>
        <time>2013-09-01T12:37:37Z</time>
      </trkpt>
      <trkpt lat="44.65066" lon="6.79274">
        <ele>1711.3</ele>
        <time>2013-09-01T12:37:54Z</time>
      </trkpt>
      <trkpt lat="44.65047" lon="6.79309">
        <ele>1712.7</ele>
        <time>2013-09-01T12:38:10Z</time>
      </trkpt>
      <trkpt lat="44.65029" lon="6.7934">
        <ele>1714.7</ele>
        <time>2013-09-01T12:38:25Z</time>
      </trkpt>
      <trkpt lat="44.65008" lon="6.79368">
        <ele>1718</ele>
        <time>2013-09-01T12:38:39Z</time>
      </trkpt>
      <trkpt lat="44.64997" lon="6.79386">
        <ele>1719</ele>
        <time>2013-09-01T12:38:47Z</time>
      </trkpt>
      <trkpt lat="44.64978" lon="6.79409">
        <ele>1721.9</ele>
        <time>2013-09-01T12:39:01Z</time>
      </trkpt>
      <trkpt lat="44.6496" lon="6.79429">
        <ele>1725.2</ele>
        <time>2013-09-01T12:39:15Z</time>
      </trkpt>
      <trkpt lat="44.64935" lon="6.79453">
        <ele>1728.6</ele>
        <time>2013-09-01T12:39:33Z</time>
      </trkpt>
      <trkpt lat="44.64916" lon="6.79471">
        <ele>1730</ele>
        <time>2013-09-01T12:39:46Z</time>
      </trkpt>
      <trkpt lat="44.64904" lon="6.79484">
        <ele>1732</ele>
        <time>2013-09-01T12:39:55Z</time>
      </trkpt>
      <trkpt lat="44.64886" lon="6.79509">
        <ele>1734.8</ele>
        <time>2013-09-01T12:40:11Z</time>
      </trkpt>
      <trkpt lat="44.64868" lon="6.79535">
        <ele>1737.7</ele>
        <time>2013-09-01T12:40:26Z</time>
      </trkpt>
      <trkpt lat="44.64867" lon="6.79537">
        <ele>1738.2</ele>
        <time>2013-09-01T12:40:27Z</time>
      </trkpt>
      <trkpt lat="44.64845" lon="6.79565">
        <ele>1741.1</ele>
        <time>2013-09-01T12:40:45Z</time>
      </trkpt>
      <trkpt lat="44.64842" lon="6.7957">
        <ele>1742.5</ele>
        <time>2013-09-01T12:40:48Z</time>
      </trkpt>
      <trkpt lat="44.64834" lon="6.79591">
        <ele>1744</ele>
        <time>2013-09-01T12:40:58Z</time>
      </trkpt>
      <trkpt lat="44.64824" lon="6.79608">
        <ele>1746.4</ele>
        <time>2013-09-01T12:41:08Z</time>
      </trkpt>
      <trkpt lat="44.64806" lon="6.79642">
        <ele>1749.7</ele>
        <time>2013-09-01T12:41:27Z</time>
      </trkpt>
      <trkpt lat="44.64787" lon="6.79686">
        <ele>1752.6</ele>
        <time>2013-09-01T12:41:48Z</time>
      </trkpt>
      <trkpt lat="44.64769" lon="6.79728">
        <ele>1755.5</ele>
        <time>2013-09-01T12:42:09Z</time>
      </trkpt>
      <trkpt lat="44.64757" lon="6.79764">
        <ele>1758.9</ele>
        <time>2013-09-01T12:42:26Z</time>
      </trkpt>
      <trkpt lat="44.64742" lon="6.79794">
        <ele>1761.8</ele>
        <time>2013-09-01T12:42:42Z</time>
      </trkpt>
      <trkpt lat="44.64732" lon="6.79822">
        <ele>1764.6</ele>
        <time>2013-09-01T12:42:57Z</time>
      </trkpt>
      <trkpt lat="44.64724" lon="6.79843">
        <ele>1768</ele>
        <time>2013-09-01T12:43:09Z</time>
      </trkpt>
      <trkpt lat="44.64711" lon="6.79872">
        <ele>1770.9</ele>
        <time>2013-09-01T12:43:26Z</time>
      </trkpt>
      <trkpt lat="44.64699" lon="6.79896">
        <ele>1772.8</ele>
        <time>2013-09-01T12:43:40Z</time>
      </trkpt>
      <trkpt lat="44.64695" lon="6.79904">
        <ele>1774.7</ele>
        <time>2013-09-01T12:43:45Z</time>
      </trkpt>
      <trkpt lat="44.6468" lon="6.79931">
        <ele>1778.1</ele>
        <time>2013-09-01T12:44:02Z</time>
      </trkpt>
      <trkpt lat="44.6467" lon="6.79951">
        <ele>1781</ele>
        <time>2013-09-01T12:44:14Z</time>
      </trkpt>
      <trkpt lat="44.64654" lon="6.79978">
        <ele>1783.9</ele>
        <time>2013-09-01T12:44:31Z</time>
      </trkpt>
      <trkpt lat="44.64635" lon="6.80009">
        <ele>1787.2</ele>
        <time>2013-09-01T12:44:50Z</time>
      </trkpt>
      <trkpt lat="44.64614" lon="6.80047">
        <ele>1791.6</ele>
        <time>2013-09-01T12:45:09Z</time>
      </trkpt>
      <trkpt lat="44.64596" lon="6.80075">
        <ele>1794.4</ele>
        <time>2013-09-01T12:45:23Z</time>
      </trkpt>
      <trkpt lat="44.64578" lon="6.80099">
        <ele>1796.8</ele>
        <time>2013-09-01T12:45:36Z</time>
      </trkpt>
      <trkpt lat="44.64561" lon="6.80121">
        <ele>1800.2</ele>
        <time>2013-09-01T12:45:48Z</time>
      </trkpt>
      <trkpt lat="44.64543" lon="6.80147">
        <ele>1803.1</ele>
        <time>2013-09-01T12:46:03Z</time>
      </trkpt>
      <trkpt lat="44.64524" lon="6.80168">
        <ele>1806.5</ele>
        <time>2013-09-01T12:46:19Z</time>
      </trkpt>
      <trkpt lat="44.64499" lon="6.80195">
        <ele>1809.3</ele>
        <time>2013-09-01T12:46:38Z</time>
      </trkpt>
      <trkpt lat="44.64481" lon="6.80217">
        <ele>1811.3</ele>
        <time>2013-09-01T12:46:53Z</time>
      </trkpt>
      <trkpt lat="44.64465" lon="6.80241">
        <ele>1814.6</ele>
        <time>2013-09-01T12:47:07Z</time>
      </trkpt>
      <trkpt lat="44.64445" lon="6.80269">
        <ele>1817.5</ele>
        <time>2013-09-01T12:47:25Z</time>
      </trkpt>
      <trkpt lat="44.64429" lon="6.80287">
        <ele>1820.4</ele>
        <time>2013-09-01T12:47:39Z</time>
      </trkpt>
      <trkpt lat="44.64415" lon="6.80297">
        <ele>1821.4</ele>
        <time>2013-09-01T12:47:48Z</time>
      </trkpt>
      <trkpt lat="44.64414" lon="6.80298">
        <ele>1821.8</ele>
        <time>2013-09-01T12:47:49Z</time>
      </trkpt>
      <trkpt lat="44.64411" lon="6.80297">
        <ele>1821.4</ele>
        <time>2013-09-01T12:48:03Z</time>
      </trkpt>
      <trkpt lat="44.64405" lon="6.80297">
        <ele>1822.8</ele>
        <time>2013-09-01T12:48:32Z</time>
      </trkpt>
      <trkpt lat="44.64403" lon="6.80301">
        <ele>1822.8</ele>
        <time>2013-09-01T12:48:34Z</time>
      </trkpt>
      <trkpt lat="44.64401" lon="6.80304">
        <ele>1823.3</ele>
        <time>2013-09-01T12:48:35Z</time>
      </trkpt>
      <trkpt lat="44.64402" lon="6.80311">
        <ele>1823.3</ele>
        <time>2013-09-01T12:48:36Z</time>
      </trkpt>
      <trkpt lat="44.64403" lon="6.80316">
        <ele>1823.3</ele>
        <time>2013-09-01T12:48:37Z</time>
      </trkpt>
      <trkpt lat="44.64402" lon="6.80319">
        <ele>1824.2</ele>
        <time>2013-09-01T12:48:38Z</time>
      </trkpt>
      <trkpt lat="44.64391" lon="6.80358">
        <ele>1826.6</ele>
        <time>2013-09-01T12:48:55Z</time>
      </trkpt>
      <trkpt lat="44.64376" lon="6.80386">
        <ele>1829.5</ele>
        <time>2013-09-01T12:49:07Z</time>
      </trkpt>
      <trkpt lat="44.64351" lon="6.80418">
        <ele>1831</ele>
        <time>2013-09-01T12:49:23Z</time>
      </trkpt>
      <trkpt lat="44.64332" lon="6.80447">
        <ele>1833.4</ele>
        <time>2013-09-01T12:49:37Z</time>
      </trkpt>
      <trkpt lat="44.64311" lon="6.80485">
        <ele>1836.7</ele>
        <time>2013-09-01T12:49:53Z</time>
      </trkpt>
      <trkpt lat="44.64284" lon="6.80547">
        <ele>1838.7</ele>
        <time>2013-09-01T12:50:14Z</time>
      </trkpt>
      <trkpt lat="44.64257" lon="6.80626">
        <ele>1840.1</ele>
        <time>2013-09-01T12:50:36Z</time>
      </trkpt>
      <trkpt lat="44.64225" lon="6.80703">
        <ele>1842.5</ele>
        <time>2013-09-01T12:50:57Z</time>
      </trkpt>
      <trkpt lat="44.64198" lon="6.80746">
        <ele>1845.4</ele>
        <time>2013-09-01T12:51:15Z</time>
      </trkpt>
      <trkpt lat="44.64188" lon="6.80761">
        <ele>1845.9</ele>
        <time>2013-09-01T12:51:23Z</time>
      </trkpt>
      <trkpt lat="44.64186" lon="6.80761">
        <ele>1846.4</ele>
        <time>2013-09-01T12:51:24Z</time>
      </trkpt>
      <trkpt lat="44.64186" lon="6.80761">
        <ele>1846.8</ele>
        <time>2013-09-01T12:51:39Z</time>
      </trkpt>
      <trkpt lat="44.64183" lon="6.80766">
        <ele>1846.8</ele>
        <time>2013-09-01T12:52:14Z</time>
      </trkpt>
      <trkpt lat="44.64185" lon="6.80765">
        <ele>1846.4</ele>
        <time>2013-09-01T12:52:51Z</time>
      </trkpt>
      <trkpt lat="44.64186" lon="6.80766">
        <ele>1846.8</ele>
        <time>2013-09-01T12:52:57Z</time>
      </trkpt>
      <trkpt lat="44.64175" lon="6.80783">
        <ele>1849.2</ele>
        <time>2013-09-01T12:53:10Z</time>
      </trkpt>
      <trkpt lat="44.64174" lon="6.80787">
        <ele>1849.7</ele>
        <time>2013-09-01T12:53:12Z</time>
      </trkpt>
      <trkpt lat="44.64154" lon="6.80815">
        <ele>1852.1</ele>
        <time>2013-09-01T12:53:30Z</time>
      </trkpt>
      <trkpt lat="44.64136" lon="6.80846">
        <ele>1856</ele>
        <time>2013-09-01T12:53:48Z</time>
      </trkpt>
      <trkpt lat="44.64115" lon="6.80889">
        <ele>1858.9</ele>
        <time>2013-09-01T12:54:11Z</time>
      </trkpt>
      <trkpt lat="44.64098" lon="6.80923">
        <ele>1862.2</ele>
        <time>2013-09-01T12:54:28Z</time>
      </trkpt>
      <trkpt lat="44.64078" lon="6.80956">
        <ele>1865.1</ele>
        <time>2013-09-01T12:54:47Z</time>
      </trkpt>
      <trkpt lat="44.64057" lon="6.80977">
        <ele>1868</ele>
        <time>2013-09-01T12:55:02Z</time>
      </trkpt>
      <trkpt lat="44.64039" lon="6.81003">
        <ele>1869.9</ele>
        <time>2013-09-01T12:55:18Z</time>
      </trkpt>
      <trkpt lat="44.64028" lon="6.81023">
        <ele>1872.8</ele>
        <time>2013-09-01T12:55:28Z</time>
      </trkpt>
      <trkpt lat="44.64018" lon="6.81053">
        <ele>1875.2</ele>
        <time>2013-09-01T12:55:44Z</time>
      </trkpt>
      <trkpt lat="44.64008" lon="6.81082">
        <ele>1878.1</ele>
        <time>2013-09-01T12:55:59Z</time>
      </trkpt>
      <trkpt lat="44.63996" lon="6.81117">
        <ele>1880.5</ele>
        <time>2013-09-01T12:56:16Z</time>
      </trkpt>
      <trkpt lat="44.63981" lon="6.81145">
        <ele>1883.8</ele>
        <time>2013-09-01T12:56:32Z</time>
      </trkpt>
      <trkpt lat="44.63974" lon="6.81157">
        <ele>1885.8</ele>
        <time>2013-09-01T12:56:42Z</time>
      </trkpt>
      <trkpt lat="44.63973" lon="6.81158">
        <ele>1885.8</ele>
        <time>2013-09-01T12:56:43Z</time>
      </trkpt>
      <trkpt lat="44.63971" lon="6.81159">
        <ele>1885.8</ele>
        <time>2013-09-01T12:56:44Z</time>
      </trkpt>
      <trkpt lat="44.6397" lon="6.81159">
        <ele>1886.2</ele>
        <time>2013-09-01T12:56:45Z</time>
      </trkpt>
      <trkpt lat="44.63968" lon="6.8116">
        <ele>1886.2</ele>
        <time>2013-09-01T12:56:46Z</time>
      </trkpt>
      <trkpt lat="44.63952" lon="6.81167">
        <ele>1889.1</ele>
        <time>2013-09-01T12:56:59Z</time>
      </trkpt>
      <trkpt lat="44.63934" lon="6.81181">
        <ele>1891.1</ele>
        <time>2013-09-01T12:57:14Z</time>
      </trkpt>
      <trkpt lat="44.63929" lon="6.81184">
        <ele>1892.5</ele>
        <time>2013-09-01T12:57:18Z</time>
      </trkpt>
      <trkpt lat="44.63928" lon="6.81184">
        <ele>1892.5</ele>
        <time>2013-09-01T12:57:19Z</time>
      </trkpt>
      <trkpt lat="44.63907" lon="6.81195">
        <ele>1895.4</ele>
        <time>2013-09-01T12:57:33Z</time>
      </trkpt>
      <trkpt lat="44.6389" lon="6.81207">
        <ele>1897.8</ele>
        <time>2013-09-01T12:57:48Z</time>
      </trkpt>
      <trkpt lat="44.63872" lon="6.81221">
        <ele>1900.7</ele>
        <time>2013-09-01T12:58:03Z</time>
      </trkpt>
      <trkpt lat="44.63846" lon="6.81238">
        <ele>1904</ele>
        <time>2013-09-01T12:58:20Z</time>
      </trkpt>
      <trkpt lat="44.63827" lon="6.81261">
        <ele>1906.4</ele>
        <time>2013-09-01T12:58:36Z</time>
      </trkpt>
      <trkpt lat="44.63809" lon="6.81288">
        <ele>1908.8</ele>
        <time>2013-09-01T12:58:51Z</time>
      </trkpt>
      <trkpt lat="44.63792" lon="6.81312">
        <ele>1911.7</ele>
        <time>2013-09-01T12:59:05Z</time>
      </trkpt>
      <trkpt lat="44.63789" lon="6.81318">
        <ele>1912.2</ele>
        <time>2013-09-01T12:59:10Z</time>
      </trkpt>
      <trkpt lat="44.63787" lon="6.81319">
        <ele>1912.7</ele>
        <time>2013-09-01T12:59:11Z</time>
      </trkpt>
      <trkpt lat="44.63786" lon="6.81319">
        <ele>1911.7</ele>
        <time>2013-09-01T12:59:12Z</time>
      </trkpt>
      <trkpt lat="44.63768" lon="6.81327">
        <ele>1915.1</ele>
        <time>2013-09-01T12:59:24Z</time>
      </trkpt>
      <trkpt lat="44.6374" lon="6.81344">
        <ele>1917.5</ele>
        <time>2013-09-01T12:59:38Z</time>
      </trkpt>
      <trkpt lat="44.63734" lon="6.81353">
        <ele>1918.5</ele>
        <time>2013-09-01T12:59:45Z</time>
      </trkpt>
      <trkpt lat="44.63708" lon="6.8137">
        <ele>1919.4</ele>
        <time>2013-09-01T12:59:59Z</time>
      </trkpt>
      <trkpt lat="44.63686" lon="6.81382">
        <ele>1920.9</ele>
        <time>2013-09-01T13:00:07Z</time>
      </trkpt>
      <trkpt lat="44.63684" lon="6.81384">
        <ele>1920.9</ele>
        <time>2013-09-01T13:00:08Z</time>
      </trkpt>
      <trkpt lat="44.63664" lon="6.81402">
        <ele>1922.3</ele>
        <time>2013-09-01T13:00:19Z</time>
      </trkpt>
      <trkpt lat="44.6363" lon="6.81421">
        <ele>1924.2</ele>
        <time>2013-09-01T13:00:33Z</time>
      </trkpt>
      <trkpt lat="44.63629" lon="6.81423">
        <ele>1925.2</ele>
        <time>2013-09-01T13:00:34Z</time>
      </trkpt>
      <trkpt lat="44.63627" lon="6.81425">
        <ele>1925.2</ele>
        <time>2013-09-01T13:00:35Z</time>
      </trkpt>
      <trkpt lat="44.63599" lon="6.81449">
        <ele>1925.7</ele>
        <time>2013-09-01T13:00:51Z</time>
      </trkpt>
      <trkpt lat="44.63566" lon="6.81483">
        <ele>1928.1</ele>
        <time>2013-09-01T13:01:08Z</time>
      </trkpt>
      <trkpt lat="44.6354" lon="6.81514">
        <ele>1930.5</ele>
        <time>2013-09-01T13:01:21Z</time>
      </trkpt>
      <trkpt lat="44.63525" lon="6.81538">
        <ele>1931.9</ele>
        <time>2013-09-01T13:01:30Z</time>
      </trkpt>
      <trkpt lat="44.63491" lon="6.81602">
        <ele>1933.8</ele>
        <time>2013-09-01T13:01:49Z</time>
      </trkpt>
      <trkpt lat="44.63456" lon="6.8166">
        <ele>1935.3</ele>
        <time>2013-09-01T13:02:06Z</time>
      </trkpt>
      <trkpt lat="44.63415" lon="6.817">
        <ele>1937.2</ele>
        <time>2013-09-01T13:02:22Z</time>
      </trkpt>
      <trkpt lat="44.63371" lon="6.81753">
        <ele>1939.6</ele>
        <time>2013-09-01T13:02:40Z</time>
      </trkpt>
      <trkpt lat="44.63326" lon="6.81803">
        <ele>1941.5</ele>
        <time>2013-09-01T13:02:58Z</time>
      </trkpt>
      <trkpt lat="44.63271" lon="6.81852">
        <ele>1943.9</ele>
        <time>2013-09-01T13:03:17Z</time>
      </trkpt>
      <trkpt lat="44.63236" lon="6.8189">
        <ele>1945.9</ele>
        <time>2013-09-01T13:03:32Z</time>
      </trkpt>
      <trkpt lat="44.63184" lon="6.81913">
        <ele>1948.7</ele>
        <time>2013-09-01T13:03:48Z</time>
      </trkpt>
      <trkpt lat="44.63134" lon="6.81932">
        <ele>1950.7</ele>
        <time>2013-09-01T13:04:05Z</time>
      </trkpt>
      <trkpt lat="44.6311" lon="6.81948">
        <ele>1952.1</ele>
        <time>2013-09-01T13:04:15Z</time>
      </trkpt>
      <trkpt lat="44.63107" lon="6.81949">
        <ele>1952.1</ele>
        <time>2013-09-01T13:04:16Z</time>
      </trkpt>
      <trkpt lat="44.63104" lon="6.81951">
        <ele>1952.6</ele>
        <time>2013-09-01T13:04:17Z</time>
      </trkpt>
      <trkpt lat="44.63101" lon="6.81953">
        <ele>1952.6</ele>
        <time>2013-09-01T13:04:18Z</time>
      </trkpt>
      <trkpt lat="44.63098" lon="6.81955">
        <ele>1952.1</ele>
        <time>2013-09-01T13:04:19Z</time>
      </trkpt>
      <trkpt lat="44.63097" lon="6.81958">
        <ele>1953.1</ele>
        <time>2013-09-01T13:04:20Z</time>
      </trkpt>
      <trkpt lat="44.63096" lon="6.81961">
        <ele>1952.6</ele>
        <time>2013-09-01T13:04:21Z</time>
      </trkpt>
      <trkpt lat="44.63095" lon="6.81964">
        <ele>1952.6</ele>
        <time>2013-09-01T13:04:22Z</time>
      </trkpt>
      <trkpt lat="44.63094" lon="6.81967">
        <ele>1953.1</ele>
        <time>2013-09-01T13:04:23Z</time>
      </trkpt>
      <trkpt lat="44.63092" lon="6.81969">
        <ele>1952.6</ele>
        <time>2013-09-01T13:04:24Z</time>
      </trkpt>
      <trkpt lat="44.63084" lon="6.82006">
        <ele>1955.5</ele>
        <time>2013-09-01T13:04:36Z</time>
      </trkpt>
      <trkpt lat="44.6306" lon="6.82034">
        <ele>1957.9</ele>
        <time>2013-09-01T13:04:52Z</time>
      </trkpt>
      <trkpt lat="44.63035" lon="6.82051">
        <ele>1959.8</ele>
        <time>2013-09-01T13:05:06Z</time>
      </trkpt>
      <trkpt lat="44.63013" lon="6.82059">
        <ele>1963.2</ele>
        <time>2013-09-01T13:05:17Z</time>
      </trkpt>
      <trkpt lat="44.62987" lon="6.82077">
        <ele>1965.1</ele>
        <time>2013-09-01T13:05:34Z</time>
      </trkpt>
      <trkpt lat="44.6298" lon="6.82081">
        <ele>1965.1</ele>
        <time>2013-09-01T13:05:38Z</time>
      </trkpt>
      <trkpt lat="44.62978" lon="6.82084">
        <ele>1965.1</ele>
        <time>2013-09-01T13:05:41Z</time>
      </trkpt>
      <trkpt lat="44.62977" lon="6.82084">
        <ele>1966</ele>
        <time>2013-09-01T13:05:42Z</time>
      </trkpt>
      <trkpt lat="44.62975" lon="6.82085">
        <ele>1966</ele>
        <time>2013-09-01T13:05:43Z</time>
      </trkpt>
      <trkpt lat="44.62974" lon="6.82086">
        <ele>1965.1</ele>
        <time>2013-09-01T13:05:44Z</time>
      </trkpt>
      <trkpt lat="44.62973" lon="6.82088">
        <ele>1965.6</ele>
        <time>2013-09-01T13:05:45Z</time>
      </trkpt>
      <trkpt lat="44.62973" lon="6.82089">
        <ele>1965.6</ele>
        <time>2013-09-01T13:05:46Z</time>
      </trkpt>
      <trkpt lat="44.62971" lon="6.8209">
        <ele>1966</ele>
        <time>2013-09-01T13:05:47Z</time>
      </trkpt>
      <trkpt lat="44.6297" lon="6.82091">
        <ele>1966</ele>
        <time>2013-09-01T13:05:48Z</time>
      </trkpt>
      <trkpt lat="44.62968" lon="6.82091">
        <ele>1966.5</ele>
        <time>2013-09-01T13:05:49Z</time>
      </trkpt>
      <trkpt lat="44.6296" lon="6.82108">
        <ele>1968.9</ele>
        <time>2013-09-01T13:05:59Z</time>
      </trkpt>
      <trkpt lat="44.6296" lon="6.82111">
        <ele>1968.4</ele>
        <time>2013-09-01T13:06:00Z</time>
      </trkpt>
      <trkpt lat="44.62961" lon="6.82114">
        <ele>1968.4</ele>
        <time>2013-09-01T13:06:01Z</time>
      </trkpt>
      <trkpt lat="44.62962" lon="6.82117">
        <ele>1968.4</ele>
        <time>2013-09-01T13:06:02Z</time>
      </trkpt>
      <trkpt lat="44.62962" lon="6.82119">
        <ele>1968.9</ele>
        <time>2013-09-01T13:06:03Z</time>
      </trkpt>
      <trkpt lat="44.62963" lon="6.82127">
        <ele>1968.9</ele>
        <time>2013-09-01T13:06:07Z</time>
      </trkpt>
      <trkpt lat="44.62963" lon="6.82129">
        <ele>1969.4</ele>
        <time>2013-09-01T13:06:08Z</time>
      </trkpt>
      <trkpt lat="44.62962" lon="6.82131">
        <ele>1968.9</ele>
        <time>2013-09-01T13:06:10Z</time>
      </trkpt>
      <trkpt lat="44.62957" lon="6.82134">
        <ele>1970.4</ele>
        <time>2013-09-01T13:06:15Z</time>
      </trkpt>
      <trkpt lat="44.62953" lon="6.82134">
        <ele>1970.8</ele>
        <time>2013-09-01T13:06:22Z</time>
      </trkpt>
      <trkpt lat="44.6295" lon="6.82124">
        <ele>1970.4</ele>
        <time>2013-09-01T13:06:26Z</time>
      </trkpt>
      <trkpt lat="44.62945" lon="6.82123">
        <ele>1969.4</ele>
        <time>2013-09-01T13:06:39Z</time>
      </trkpt>
      <trkpt lat="44.62936" lon="6.82122">
        <ele>1970.4</ele>
        <time>2013-09-01T13:06:51Z</time>
      </trkpt>
      <trkpt lat="44.62938" lon="6.82123">
        <ele>1968.4</ele>
        <time>2013-09-01T13:07:01Z</time>
      </trkpt>
      <trkpt lat="44.62939" lon="6.82123">
        <ele>1971.3</ele>
        <time>2013-09-01T13:07:03Z</time>
      </trkpt>
      <trkpt lat="44.62939" lon="6.82124">
        <ele>1969.9</ele>
        <time>2013-09-01T13:07:04Z</time>
      </trkpt>
      <trkpt lat="44.62937" lon="6.82124">
        <ele>1971.3</ele>
        <time>2013-09-01T13:07:25Z</time>
      </trkpt>
      <trkpt lat="44.6294" lon="6.8213">
        <ele>1971.8</ele>
        <time>2013-09-01T13:07:44Z</time>
      </trkpt>
      <trkpt lat="44.62939" lon="6.82129">
        <ele>1971.8</ele>
        <time>2013-09-01T13:07:52Z</time>
      </trkpt>
      <trkpt lat="44.62937" lon="6.82129">
        <ele>1969.9</ele>
        <time>2013-09-01T13:07:59Z</time>
      </trkpt>
      <trkpt lat="44.62937" lon="6.8213">
        <ele>1972.3</ele>
        <time>2013-09-01T13:08:01Z</time>
      </trkpt>
      <trkpt lat="44.62937" lon="6.8213">
        <ele>1968.9</ele>
        <time>2013-09-01T13:08:02Z</time>
      </trkpt>
      <trkpt lat="44.62936" lon="6.82131">
        <ele>1968.9</ele>
        <time>2013-09-01T13:08:04Z</time>
      </trkpt>
      <trkpt lat="44.62936" lon="6.82132">
        <ele>1971.8</ele>
        <time>2013-09-01T13:08:05Z</time>
      </trkpt>
      <trkpt lat="44.62936" lon="6.82133">
        <ele>1969.9</ele>
        <time>2013-09-01T13:08:12Z</time>
      </trkpt>
      <trkpt lat="44.62935" lon="6.82134">
        <ele>1972.8</ele>
        <time>2013-09-01T13:08:16Z</time>
      </trkpt>
      <trkpt lat="44.62935" lon="6.82134">
        <ele>1970.4</ele>
        <time>2013-09-01T13:08:17Z</time>
      </trkpt>
      <trkpt lat="44.62933" lon="6.8214">
        <ele>1973.2</ele>
        <time>2013-09-01T13:08:30Z</time>
      </trkpt>
      <trkpt lat="44.62933" lon="6.8214">
        <ele>1973.2</ele>
        <time>2013-09-01T13:08:31Z</time>
      </trkpt>
      <trkpt lat="44.62933" lon="6.8214">
        <ele>1969.9</ele>
        <time>2013-09-01T13:08:32Z</time>
      </trkpt>
      <trkpt lat="44.6293" lon="6.82142">
        <ele>1968.4</ele>
        <time>2013-09-01T13:08:41Z</time>
      </trkpt>
      <trkpt lat="44.6293" lon="6.82142">
        <ele>1973.7</ele>
        <time>2013-09-01T13:08:42Z</time>
      </trkpt>
      <trkpt lat="44.62931" lon="6.82142">
        <ele>1973.7</ele>
        <time>2013-09-01T13:08:43Z</time>
      </trkpt>
      <trkpt lat="44.62931" lon="6.82142">
        <ele>1970.8</ele>
        <time>2013-09-01T13:08:44Z</time>
      </trkpt>
      <trkpt lat="44.62931" lon="6.82144">
        <ele>1969.9</ele>
        <time>2013-09-01T13:08:48Z</time>
      </trkpt>
      <trkpt lat="44.6293" lon="6.82144">
        <ele>1971.8</ele>
        <time>2013-09-01T13:08:49Z</time>
      </trkpt>
      <trkpt lat="44.6293" lon="6.82146">
        <ele>1972.8</ele>
        <time>2013-09-01T13:08:53Z</time>
      </trkpt>
      <trkpt lat="44.62929" lon="6.82145">
        <ele>1970.8</ele>
        <time>2013-09-01T13:08:54Z</time>
      </trkpt>
      <trkpt lat="44.62927" lon="6.8214">
        <ele>1969.9</ele>
        <time>2013-09-01T13:08:59Z</time>
      </trkpt>
      <trkpt lat="44.62927" lon="6.8214">
        <ele>1972.3</ele>
        <time>2013-09-01T13:09:00Z</time>
      </trkpt>
      <trkpt lat="44.62931" lon="6.82133">
        <ele>1968.9</ele>
        <time>2013-09-01T13:09:02Z</time>
      </trkpt>
      <trkpt lat="44.62933" lon="6.82133">
        <ele>1973.7</ele>
        <time>2013-09-01T13:09:03Z</time>
      </trkpt>
      <trkpt lat="44.62935" lon="6.82131">
        <ele>1970.8</ele>
        <time>2013-09-01T13:09:05Z</time>
      </trkpt>
      <trkpt lat="44.62932" lon="6.82134">
        <ele>1971.3</ele>
        <time>2013-09-01T13:09:20Z</time>
      </trkpt>
      <trkpt lat="44.62924" lon="6.82146">
        <ele>1973.7</ele>
        <time>2013-09-01T13:09:36Z</time>
      </trkpt>
      <trkpt lat="44.62921" lon="6.82155">
        <ele>1974.7</ele>
        <time>2013-09-01T13:09:45Z</time>
      </trkpt>
      <trkpt lat="44.62915" lon="6.8216">
        <ele>1977.6</ele>
        <time>2013-09-01T13:09:55Z</time>
      </trkpt>
      <trkpt lat="44.62914" lon="6.82162">
        <ele>1978.1</ele>
        <time>2013-09-01T13:09:57Z</time>
      </trkpt>
      <trkpt lat="44.6291" lon="6.82166">
        <ele>1978.5</ele>
        <time>2013-09-01T13:10:02Z</time>
      </trkpt>
      <trkpt lat="44.62907" lon="6.82175">
        <ele>1979.5</ele>
        <time>2013-09-01T13:10:11Z</time>
      </trkpt>
      <trkpt lat="44.62897" lon="6.82185">
        <ele>1982.9</ele>
        <time>2013-09-01T13:10:26Z</time>
      </trkpt>
      <trkpt lat="44.62897" lon="6.82185">
        <ele>1981.9</ele>
        <time>2013-09-01T13:10:27Z</time>
      </trkpt>
      <trkpt lat="44.6289" lon="6.82193">
        <ele>1984.3</ele>
        <time>2013-09-01T13:10:40Z</time>
      </trkpt>
      <trkpt lat="44.62883" lon="6.822">
        <ele>1985.7</ele>
        <time>2013-09-01T13:10:51Z</time>
      </trkpt>
      <trkpt lat="44.62876" lon="6.82203">
        <ele>1987.2</ele>
        <time>2013-09-01T13:10:58Z</time>
      </trkpt>
      <trkpt lat="44.62868" lon="6.82211">
        <ele>1989.1</ele>
        <time>2013-09-01T13:11:11Z</time>
      </trkpt>
      <trkpt lat="44.62863" lon="6.8222">
        <ele>1991</ele>
        <time>2013-09-01T13:11:23Z</time>
      </trkpt>
      <trkpt lat="44.62851" lon="6.8223">
        <ele>1992.5</ele>
        <time>2013-09-01T13:11:36Z</time>
      </trkpt>
      <trkpt lat="44.62846" lon="6.82239">
        <ele>1993.9</ele>
        <time>2013-09-01T13:11:49Z</time>
      </trkpt>
      <trkpt lat="44.6284" lon="6.82246">
        <ele>1995.4</ele>
        <time>2013-09-01T13:11:58Z</time>
      </trkpt>
      <trkpt lat="44.62834" lon="6.8226">
        <ele>1997.3</ele>
        <time>2013-09-01T13:12:12Z</time>
      </trkpt>
      <trkpt lat="44.62825" lon="6.8227">
        <ele>1998.7</ele>
        <time>2013-09-01T13:12:26Z</time>
      </trkpt>
      <trkpt lat="44.62816" lon="6.82282">
        <ele>2000.6</ele>
        <time>2013-09-01T13:12:39Z</time>
      </trkpt>
      <trkpt lat="44.62809" lon="6.82293">
        <ele>2003</ele>
        <time>2013-09-01T13:12:55Z</time>
      </trkpt>
      <trkpt lat="44.62807" lon="6.82294">
        <ele>2004</ele>
        <time>2013-09-01T13:12:57Z</time>
      </trkpt>
      <trkpt lat="44.62805" lon="6.82298">
        <ele>2004</ele>
        <time>2013-09-01T13:13:02Z</time>
      </trkpt>
      <trkpt lat="44.62796" lon="6.82311">
        <ele>2006.4</ele>
        <time>2013-09-01T13:13:17Z</time>
      </trkpt>
      <trkpt lat="44.62788" lon="6.8232">
        <ele>2007.4</ele>
        <time>2013-09-01T13:13:29Z</time>
      </trkpt>
      <trkpt lat="44.62783" lon="6.82326">
        <ele>2008.3</ele>
        <time>2013-09-01T13:13:37Z</time>
      </trkpt>
      <trkpt lat="44.62773" lon="6.82335">
        <ele>2010.3</ele>
        <time>2013-09-01T13:13:50Z</time>
      </trkpt>
      <trkpt lat="44.62761" lon="6.82338">
        <ele>2012.2</ele>
        <time>2013-09-01T13:14:06Z</time>
      </trkpt>
      <trkpt lat="44.62756" lon="6.82342">
        <ele>2011.7</ele>
        <time>2013-09-01T13:14:13Z</time>
      </trkpt>
      <trkpt lat="44.62743" lon="6.82353">
        <ele>2014.1</ele>
        <time>2013-09-01T13:14:33Z</time>
      </trkpt>
      <trkpt lat="44.62742" lon="6.82365">
        <ele>2014.6</ele>
        <time>2013-09-01T13:14:46Z</time>
      </trkpt>
      <trkpt lat="44.62742" lon="6.82366">
        <ele>2015.1</ele>
        <time>2013-09-01T13:14:47Z</time>
      </trkpt>
      <trkpt lat="44.62747" lon="6.82375">
        <ele>2014.6</ele>
        <time>2013-09-01T13:14:55Z</time>
      </trkpt>
      <trkpt lat="44.6275" lon="6.82396">
        <ele>2017</ele>
        <time>2013-09-01T13:15:13Z</time>
      </trkpt>
      <trkpt lat="44.62748" lon="6.82405">
        <ele>2018.9</ele>
        <time>2013-09-01T13:15:22Z</time>
      </trkpt>
      <trkpt lat="44.62745" lon="6.82414">
        <ele>2020.4</ele>
        <time>2013-09-01T13:15:37Z</time>
      </trkpt>
      <trkpt lat="44.62744" lon="6.82413">
        <ele>2022.3</ele>
        <time>2013-09-01T13:15:47Z</time>
      </trkpt>
      <trkpt lat="44.62745" lon="6.82414">
        <ele>2023.7</ele>
        <time>2013-09-01T13:15:49Z</time>
      </trkpt>
      <trkpt lat="44.62742" lon="6.82418">
        <ele>2024.7</ele>
        <time>2013-09-01T13:15:58Z</time>
      </trkpt>
      <trkpt lat="44.62736" lon="6.82426">
        <ele>2026.6</ele>
        <time>2013-09-01T13:16:14Z</time>
      </trkpt>
      <trkpt lat="44.62734" lon="6.82433">
        <ele>2026.6</ele>
        <time>2013-09-01T13:16:29Z</time>
      </trkpt>
      <trkpt lat="44.62735" lon="6.82438">
        <ele>2027.1</ele>
        <time>2013-09-01T13:16:44Z</time>
      </trkpt>
      <trkpt lat="44.6243" lon="6.82885">
        <ele>2173.7</ele>
        <time>2013-09-01T13:40:19Z</time>
      </trkpt>
      <trkpt lat="44.6243" lon="6.82885">
        <ele>2174.2</ele>
        <time>2013-09-01T13:40:21Z</time>
      </trkpt>
      <trkpt lat="44.62418" lon="6.82888">
        <ele>2176.6</ele>
        <time>2013-09-01T13:40:36Z</time>
      </trkpt>
      <trkpt lat="44.62412" lon="6.82891">
        <ele>2178.5</ele>
        <time>2013-09-01T13:40:51Z</time>
      </trkpt>
      <trkpt lat="44.62406" lon="6.82899">
        <ele>2180.4</ele>
        <time>2013-09-01T13:41:06Z</time>
      </trkpt>
      <trkpt lat="44.624" lon="6.82909">
        <ele>2182.3</ele>
        <time>2013-09-01T13:41:21Z</time>
      </trkpt>
      <trkpt lat="44.62392" lon="6.82916">
        <ele>2184.7</ele>
        <time>2013-09-01T13:41:36Z</time>
      </trkpt>
      <trkpt lat="44.62384" lon="6.82923">
        <ele>2186.7</ele>
        <time>2013-09-01T13:41:52Z</time>
      </trkpt>
      <trkpt lat="44.62379" lon="6.82925">
        <ele>2188.6</ele>
        <time>2013-09-01T13:42:09Z</time>
      </trkpt>
      <trkpt lat="44.62378" lon="6.82925">
        <ele>2188.6</ele>
        <time>2013-09-01T13:42:26Z</time>
      </trkpt>
      <trkpt lat="44.62369" lon="6.82926">
        <ele>2189.5</ele>
        <time>2013-09-01T13:42:39Z</time>
      </trkpt>
      <trkpt lat="44.62365" lon="6.82929">
        <ele>2192.4</ele>
        <time>2013-09-01T13:42:46Z</time>
      </trkpt>
      <trkpt lat="44.62361" lon="6.82928">
        <ele>2196.3</ele>
        <time>2013-09-01T13:42:53Z</time>
      </trkpt>
      <trkpt lat="44.62358" lon="6.82932">
        <ele>2198.7</ele>
        <time>2013-09-01T13:42:58Z</time>
      </trkpt>
      <trkpt lat="44.62354" lon="6.82937">
        <ele>2202</ele>
        <time>2013-09-01T13:43:08Z</time>
      </trkpt>
      <trkpt lat="44.62349" lon="6.82938">
        <ele>2203.5</ele>
        <time>2013-09-01T13:43:14Z</time>
      </trkpt>
      <trkpt lat="44.62344" lon="6.82944">
        <ele>2206.8</ele>
        <time>2013-09-01T13:43:22Z</time>
      </trkpt>
      <trkpt lat="44.62342" lon="6.82948">
        <ele>2207.8</ele>
        <time>2013-09-01T13:43:26Z</time>
      </trkpt>
      <trkpt lat="44.62341" lon="6.82951">
        <ele>2209.3</ele>
        <time>2013-09-01T13:43:29Z</time>
      </trkpt>
      <trkpt lat="44.6234" lon="6.82954">
        <ele>2210.7</ele>
        <time>2013-09-01T13:43:31Z</time>
      </trkpt>
      <trkpt lat="44.62331" lon="6.82961">
        <ele>2212.1</ele>
        <time>2013-09-01T13:43:45Z</time>
      </trkpt>
      <trkpt lat="44.62328" lon="6.82967">
        <ele>2213.6</ele>
        <time>2013-09-01T13:43:57Z</time>
      </trkpt>
      <trkpt lat="44.62319" lon="6.82976">
        <ele>2216.5</ele>
        <time>2013-09-01T13:44:10Z</time>
      </trkpt>
      <trkpt lat="44.62314" lon="6.82977">
        <ele>2216.9</ele>
        <time>2013-09-01T13:44:23Z</time>
      </trkpt>
      <trkpt lat="44.62307" lon="6.82984">
        <ele>2218.4</ele>
        <time>2013-09-01T13:44:40Z</time>
      </trkpt>
      <trkpt lat="44.62306" lon="6.82984">
        <ele>2221.7</ele>
        <time>2013-09-01T13:45:01Z</time>
      </trkpt>
      <trkpt lat="44.62307" lon="6.82984">
        <ele>2223.7</ele>
        <time>2013-09-01T13:45:20Z</time>
      </trkpt>
      <trkpt lat="44.62304" lon="6.82989">
        <ele>2224.2</ele>
        <time>2013-09-01T13:45:25Z</time>
      </trkpt>
      <trkpt lat="44.62294" lon="6.82998">
        <ele>2225.6</ele>
        <time>2013-09-01T13:45:42Z</time>
      </trkpt>
      <trkpt lat="44.62273" lon="6.83025">
        <ele>2229</ele>
        <time>2013-09-01T13:45:59Z</time>
      </trkpt>
      <trkpt lat="44.62263" lon="6.83042">
        <ele>2229.9</ele>
        <time>2013-09-01T13:46:13Z</time>
      </trkpt>
      <trkpt lat="44.62264" lon="6.8304">
        <ele>2229.4</ele>
        <time>2013-09-01T13:46:41Z</time>
      </trkpt>
      <trkpt lat="44.62257" lon="6.83047">
        <ele>2229.9</ele>
        <time>2013-09-01T13:47:08Z</time>
      </trkpt>
      <trkpt lat="44.62245" lon="6.83073">
        <ele>2232.3</ele>
        <time>2013-09-01T13:47:24Z</time>
      </trkpt>
      <trkpt lat="44.62232" lon="6.83099">
        <ele>2235.7</ele>
        <time>2013-09-01T13:47:41Z</time>
      </trkpt>
      <trkpt lat="44.62226" lon="6.83111">
        <ele>2236.2</ele>
        <time>2013-09-01T13:47:53Z</time>
      </trkpt>
      <trkpt lat="44.62221" lon="6.8312">
        <ele>2237.6</ele>
        <time>2013-09-01T13:48:10Z</time>
      </trkpt>
      <trkpt lat="44.62215" lon="6.83135">
        <ele>2241</ele>
        <time>2013-09-01T13:48:25Z</time>
      </trkpt>
      <trkpt lat="44.62207" lon="6.83149">
        <ele>2242.9</ele>
        <time>2013-09-01T13:48:42Z</time>
      </trkpt>
      <trkpt lat="44.62206" lon="6.83154">
        <ele>2243.4</ele>
        <time>2013-09-01T13:48:46Z</time>
      </trkpt>
      <trkpt lat="44.62202" lon="6.83155">
        <ele>2244.3</ele>
        <time>2013-09-01T13:49:02Z</time>
      </trkpt>
      <trkpt lat="44.62203" lon="6.83154">
        <ele>2244.3</ele>
        <time>2013-09-01T13:49:33Z</time>
      </trkpt>
      <trkpt lat="44.622" lon="6.83162">
        <ele>2245.3</ele>
        <time>2013-09-01T13:49:47Z</time>
      </trkpt>
      <trkpt lat="44.62189" lon="6.83168">
        <ele>2247.7</ele>
        <time>2013-09-01T13:50:02Z</time>
      </trkpt>
      <trkpt lat="44.6218" lon="6.83179">
        <ele>2250.1</ele>
        <time>2013-09-01T13:50:18Z</time>
      </trkpt>
      <trkpt lat="44.62173" lon="6.83189">
        <ele>2252.5</ele>
        <time>2013-09-01T13:50:32Z</time>
      </trkpt>
      <trkpt lat="44.62162" lon="6.83201">
        <ele>2255.4</ele>
        <time>2013-09-01T13:50:48Z</time>
      </trkpt>
      <trkpt lat="44.62151" lon="6.83213">
        <ele>2256.4</ele>
        <time>2013-09-01T13:51:06Z</time>
      </trkpt>
      <trkpt lat="44.62149" lon="6.83213">
        <ele>2256.8</ele>
        <time>2013-09-01T13:51:22Z</time>
      </trkpt>
      <trkpt lat="44.62135" lon="6.83227">
        <ele>2258.8</ele>
        <time>2013-09-01T13:51:38Z</time>
      </trkpt>
      <trkpt lat="44.62114" lon="6.83247">
        <ele>2260.7</ele>
        <time>2013-09-01T13:51:55Z</time>
      </trkpt>
      <trkpt lat="44.62094" lon="6.83261">
        <ele>2263.6</ele>
        <time>2013-09-01T13:52:12Z</time>
      </trkpt>
      <trkpt lat="44.6207" lon="6.83281">
        <ele>2266</ele>
        <time>2013-09-01T13:52:32Z</time>
      </trkpt>
      <trkpt lat="44.62062" lon="6.83286">
        <ele>2266.5</ele>
        <time>2013-09-01T13:52:42Z</time>
      </trkpt>
      <trkpt lat="44.62058" lon="6.83288">
        <ele>2266.5</ele>
        <time>2013-09-01T13:52:56Z</time>
      </trkpt>
      <trkpt lat="44.62051" lon="6.8329">
        <ele>2268.4</ele>
        <time>2013-09-01T13:53:16Z</time>
      </trkpt>
      <trkpt lat="44.62051" lon="6.83291">
        <ele>2268.9</ele>
        <time>2013-09-01T13:53:19Z</time>
      </trkpt>
      <trkpt lat="44.62027" lon="6.83308">
        <ele>2271.3</ele>
        <time>2013-09-01T13:53:35Z</time>
      </trkpt>
      <trkpt lat="44.62006" lon="6.83313">
        <ele>2273.2</ele>
        <time>2013-09-01T13:53:50Z</time>
      </trkpt>
      <trkpt lat="44.61982" lon="6.8332">
        <ele>2276.5</ele>
        <time>2013-09-01T13:54:07Z</time>
      </trkpt>
      <trkpt lat="44.61964" lon="6.83329">
        <ele>2279.9</ele>
        <time>2013-09-01T13:54:22Z</time>
      </trkpt>
      <trkpt lat="44.61964" lon="6.83329">
        <ele>2279.9</ele>
        <time>2013-09-01T13:54:36Z</time>
      </trkpt>
      <trkpt lat="44.61953" lon="6.83333">
        <ele>2281.8</ele>
        <time>2013-09-01T13:54:56Z</time>
      </trkpt>
      <trkpt lat="44.61938" lon="6.83339">
        <ele>2283.8</ele>
        <time>2013-09-01T13:55:14Z</time>
      </trkpt>
      <trkpt lat="44.61924" lon="6.83343">
        <ele>2285.2</ele>
        <time>2013-09-01T13:55:32Z</time>
      </trkpt>
      <trkpt lat="44.61917" lon="6.83344">
        <ele>2286.2</ele>
        <time>2013-09-01T13:55:52Z</time>
      </trkpt>
      <trkpt lat="44.61905" lon="6.83346">
        <ele>2288.6</ele>
        <time>2013-09-01T13:56:08Z</time>
      </trkpt>
      <trkpt lat="44.61887" lon="6.83354">
        <ele>2290.5</ele>
        <time>2013-09-01T13:56:28Z</time>
      </trkpt>
      <trkpt lat="44.61877" lon="6.83358">
        <ele>2292.9</ele>
        <time>2013-09-01T13:56:43Z</time>
      </trkpt>
      <trkpt lat="44.61867" lon="6.83364">
        <ele>2295.8</ele>
        <time>2013-09-01T13:57:00Z</time>
      </trkpt>
      <trkpt lat="44.61859" lon="6.83368">
        <ele>2297.2</ele>
        <time>2013-09-01T13:57:19Z</time>
      </trkpt>
      <trkpt lat="44.61844" lon="6.83371">
        <ele>2299.6</ele>
        <time>2013-09-01T13:57:39Z</time>
      </trkpt>
      <trkpt lat="44.61834" lon="6.8338">
        <ele>2302.5</ele>
        <time>2013-09-01T13:57:58Z</time>
      </trkpt>
      <trkpt lat="44.61828" lon="6.83387">
        <ele>2304.4</ele>
        <time>2013-09-01T13:58:12Z</time>
      </trkpt>
      <trkpt lat="44.61822" lon="6.83396">
        <ele>2306.8</ele>
        <time>2013-09-01T13:58:28Z</time>
      </trkpt>
      <trkpt lat="44.61812" lon="6.83404">
        <ele>2308.7</ele>
        <time>2013-09-01T13:58:45Z</time>
      </trkpt>
      <trkpt lat="44.61801" lon="6.83409">
        <ele>2310.7</ele>
        <time>2013-09-01T13:59:01Z</time>
      </trkpt>
      <trkpt lat="44.6179" lon="6.83413">
        <ele>2313.1</ele>
        <time>2013-09-01T13:59:17Z</time>
      </trkpt>
      <trkpt lat="44.61786" lon="6.83422">
        <ele>2314.5</ele>
        <time>2013-09-01T13:59:32Z</time>
      </trkpt>
      <trkpt lat="44.61783" lon="6.83423">
        <ele>2316</ele>
        <time>2013-09-01T13:59:50Z</time>
      </trkpt>
      <trkpt lat="44.61778" lon="6.83429">
        <ele>2317.4</ele>
        <time>2013-09-01T14:00:10Z</time>
      </trkpt>
      <trkpt lat="44.61777" lon="6.83431">
        <ele>2317.4</ele>
        <time>2013-09-01T14:00:14Z</time>
      </trkpt>
      <trkpt lat="44.61776" lon="6.83432">
        <ele>2317.4</ele>
        <time>2013-09-01T14:00:15Z</time>
      </trkpt>
      <trkpt lat="44.61776" lon="6.83434">
        <ele>2316.9</ele>
        <time>2013-09-01T14:00:16Z</time>
      </trkpt>
      <trkpt lat="44.61768" lon="6.83456">
        <ele>2320.3</ele>
        <time>2013-09-01T14:00:27Z</time>
      </trkpt>
      <trkpt lat="44.61756" lon="6.83477">
        <ele>2322.7</ele>
        <time>2013-09-01T14:00:41Z</time>
      </trkpt>
      <trkpt lat="44.61744" lon="6.83501">
        <ele>2326.1</ele>
        <time>2013-09-01T14:00:56Z</time>
      </trkpt>
      <trkpt lat="44.61731" lon="6.83525">
        <ele>2327.5</ele>
        <time>2013-09-01T14:01:11Z</time>
      </trkpt>
      <trkpt lat="44.61726" lon="6.83551">
        <ele>2330.4</ele>
        <time>2013-09-01T14:01:27Z</time>
      </trkpt>
      <trkpt lat="44.61726" lon="6.83551">
        <ele>2330.9</ele>
        <time>2013-09-01T14:01:45Z</time>
      </trkpt>
      <trkpt lat="44.61725" lon="6.83552">
        <ele>2330.9</ele>
        <time>2013-09-01T14:01:46Z</time>
      </trkpt>
      <trkpt lat="44.61724" lon="6.83554">
        <ele>2330.9</ele>
        <time>2013-09-01T14:01:47Z</time>
      </trkpt>
      <trkpt lat="44.61723" lon="6.83555">
        <ele>2331.3</ele>
        <time>2013-09-01T14:01:48Z</time>
      </trkpt>
      <trkpt lat="44.61722" lon="6.83557">
        <ele>2331.8</ele>
        <time>2013-09-01T14:01:49Z</time>
      </trkpt>
      <trkpt lat="44.61721" lon="6.83559">
        <ele>2331.3</ele>
        <time>2013-09-01T14:01:50Z</time>
      </trkpt>
      <trkpt lat="44.6172" lon="6.8356">
        <ele>2331.3</ele>
        <time>2013-09-01T14:01:51Z</time>
      </trkpt>
      <trkpt lat="44.61719" lon="6.83562">
        <ele>2332.3</ele>
        <time>2013-09-01T14:01:52Z</time>
      </trkpt>
      <trkpt lat="44.61718" lon="6.83563">
        <ele>2331.8</ele>
        <time>2013-09-01T14:01:53Z</time>
      </trkpt>
      <trkpt lat="44.61718" lon="6.83565">
        <ele>2332.3</ele>
        <time>2013-09-01T14:01:54Z</time>
      </trkpt>
      <trkpt lat="44.61717" lon="6.83567">
        <ele>2332.8</ele>
        <time>2013-09-01T14:01:55Z</time>
      </trkpt>
      <trkpt lat="44.61715" lon="6.83571">
        <ele>2332.8</ele>
        <time>2013-09-01T14:01:58Z</time>
      </trkpt>
      <trkpt lat="44.61713" lon="6.83573">
        <ele>2333.3</ele>
        <time>2013-09-01T14:01:59Z</time>
      </trkpt>
      <trkpt lat="44.61713" lon="6.83574">
        <ele>2333.3</ele>
        <time>2013-09-01T14:02:00Z</time>
      </trkpt>
      <trkpt lat="44.61712" lon="6.83576">
        <ele>2333.3</ele>
        <time>2013-09-01T14:02:01Z</time>
      </trkpt>
      <trkpt lat="44.61712" lon="6.83577">
        <ele>2333.7</ele>
        <time>2013-09-01T14:02:02Z</time>
      </trkpt>
      <trkpt lat="44.61702" lon="6.83595">
        <ele>2337.1</ele>
        <time>2013-09-01T14:02:15Z</time>
      </trkpt>
      <trkpt lat="44.61701" lon="6.83596">
        <ele>2337.1</ele>
        <time>2013-09-01T14:02:16Z</time>
      </trkpt>
      <trkpt lat="44.61701" lon="6.83598">
        <ele>2337.6</ele>
        <time>2013-09-01T14:02:17Z</time>
      </trkpt>
      <trkpt lat="44.61693" lon="6.83618">
        <ele>2340</ele>
        <time>2013-09-01T14:02:31Z</time>
      </trkpt>
      <trkpt lat="44.61683" lon="6.83639">
        <ele>2342.4</ele>
        <time>2013-09-01T14:02:46Z</time>
      </trkpt>
      <trkpt lat="44.61673" lon="6.83661">
        <ele>2345.8</ele>
        <time>2013-09-01T14:03:00Z</time>
      </trkpt>
      <trkpt lat="44.61663" lon="6.83684">
        <ele>2348.6</ele>
        <time>2013-09-01T14:03:16Z</time>
      </trkpt>
      <trkpt lat="44.6166" lon="6.83695">
        <ele>2350.1</ele>
        <time>2013-09-01T14:03:22Z</time>
      </trkpt>
      <trkpt lat="44.61652" lon="6.83716">
        <ele>2353</ele>
        <time>2013-09-01T14:03:35Z</time>
      </trkpt>
      <trkpt lat="44.61647" lon="6.83725">
        <ele>2354.9</ele>
        <time>2013-09-01T14:03:47Z</time>
      </trkpt>
      <trkpt lat="44.61645" lon="6.83732">
        <ele>2356.3</ele>
        <time>2013-09-01T14:04:09Z</time>
      </trkpt>
      <trkpt lat="44.61638" lon="6.83742">
        <ele>2358.3</ele>
        <time>2013-09-01T14:04:25Z</time>
      </trkpt>
      <trkpt lat="44.61633" lon="6.83761">
        <ele>2360.2</ele>
        <time>2013-09-01T14:04:42Z</time>
      </trkpt>
      <trkpt lat="44.61626" lon="6.83773">
        <ele>2363.1</ele>
        <time>2013-09-01T14:04:58Z</time>
      </trkpt>
      <trkpt lat="44.61618" lon="6.83788">
        <ele>2365.9</ele>
        <time>2013-09-01T14:05:17Z</time>
      </trkpt>
      <trkpt lat="44.61611" lon="6.83801">
        <ele>2367.9</ele>
        <time>2013-09-01T14:05:34Z</time>
      </trkpt>
      <trkpt lat="44.61606" lon="6.83819">
        <ele>2370.8</ele>
        <time>2013-09-01T14:05:52Z</time>
      </trkpt>
      <trkpt lat="44.616" lon="6.83837">
        <ele>2373.6</ele>
        <time>2013-09-01T14:06:10Z</time>
      </trkpt>
      <trkpt lat="44.61595" lon="6.83848">
        <ele>2376</ele>
        <time>2013-09-01T14:06:29Z</time>
      </trkpt>
      <trkpt lat="44.61595" lon="6.83852">
        <ele>2376</ele>
        <time>2013-09-01T14:06:51Z</time>
      </trkpt>
      <trkpt lat="44.61594" lon="6.83855">
        <ele>2376.5</ele>
        <time>2013-09-01T14:07:08Z</time>
      </trkpt>
      <trkpt lat="44.61592" lon="6.83865">
        <ele>2378</ele>
        <time>2013-09-01T14:07:21Z</time>
      </trkpt>
      <trkpt lat="44.61589" lon="6.83874">
        <ele>2380.8</ele>
        <time>2013-09-01T14:07:35Z</time>
      </trkpt>
      <trkpt lat="44.61581" lon="6.83882">
        <ele>2383.3</ele>
        <time>2013-09-01T14:07:51Z</time>
      </trkpt>
      <trkpt lat="44.61574" lon="6.83888">
        <ele>2385.2</ele>
        <time>2013-09-01T14:08:05Z</time>
      </trkpt>
      <trkpt lat="44.61566" lon="6.83896">
        <ele>2387.1</ele>
        <time>2013-09-01T14:08:22Z</time>
      </trkpt>
      <trkpt lat="44.61558" lon="6.83902">
        <ele>2389.5</ele>
        <time>2013-09-01T14:08:37Z</time>
      </trkpt>
      <trkpt lat="44.61554" lon="6.83914">
        <ele>2390.9</ele>
        <time>2013-09-01T14:08:53Z</time>
      </trkpt>
      <trkpt lat="44.61546" lon="6.83919">
        <ele>2393.3</ele>
        <time>2013-09-01T14:09:07Z</time>
      </trkpt>
      <trkpt lat="44.61539" lon="6.8393">
        <ele>2396.2</ele>
        <time>2013-09-01T14:09:24Z</time>
      </trkpt>
      <trkpt lat="44.6153" lon="6.83936">
        <ele>2398.2</ele>
        <time>2013-09-01T14:09:40Z</time>
      </trkpt>
      <trkpt lat="44.61522" lon="6.83945">
        <ele>2399.6</ele>
        <time>2013-09-01T14:09:57Z</time>
      </trkpt>
      <trkpt lat="44.61515" lon="6.83954">
        <ele>2403</ele>
        <time>2013-09-01T14:10:13Z</time>
      </trkpt>
      <trkpt lat="44.6151" lon="6.83962">
        <ele>2404.4</ele>
        <time>2013-09-01T14:10:28Z</time>
      </trkpt>
      <trkpt lat="44.61506" lon="6.83969">
        <ele>2406.3</ele>
        <time>2013-09-01T14:10:40Z</time>
      </trkpt>
      <trkpt lat="44.61499" lon="6.83977">
        <ele>2407.8</ele>
        <time>2013-09-01T14:10:55Z</time>
      </trkpt>
      <trkpt lat="44.61492" lon="6.83985">
        <ele>2409.7</ele>
        <time>2013-09-01T14:11:07Z</time>
      </trkpt>
      <trkpt lat="44.61484" lon="6.83995">
        <ele>2411.6</ele>
        <time>2013-09-01T14:11:23Z</time>
      </trkpt>
      <trkpt lat="44.61483" lon="6.84001">
        <ele>2412.6</ele>
        <time>2013-09-01T14:11:37Z</time>
      </trkpt>
      <trkpt lat="44.61485" lon="6.8401">
        <ele>2412.6</ele>
        <time>2013-09-01T14:11:50Z</time>
      </trkpt>
      <trkpt lat="44.61483" lon="6.84012">
        <ele>2414</ele>
        <time>2013-09-01T14:12:20Z</time>
      </trkpt>
      <trkpt lat="44.61483" lon="6.84011">
        <ele>2414.5</ele>
        <time>2013-09-01T14:12:37Z</time>
      </trkpt>
      <trkpt lat="44.61477" lon="6.84011">
        <ele>2415.5</ele>
        <time>2013-09-01T14:12:49Z</time>
      </trkpt>
      <trkpt lat="44.61467" lon="6.8402">
        <ele>2417.4</ele>
        <time>2013-09-01T14:13:05Z</time>
      </trkpt>
      <trkpt lat="44.61459" lon="6.84028">
        <ele>2419.3</ele>
        <time>2013-09-01T14:13:21Z</time>
      </trkpt>
      <trkpt lat="44.61449" lon="6.84032">
        <ele>2421.7</ele>
        <time>2013-09-01T14:13:36Z</time>
      </trkpt>
      <trkpt lat="44.6144" lon="6.84044">
        <ele>2423.6</ele>
        <time>2013-09-01T14:13:55Z</time>
      </trkpt>
      <trkpt lat="44.61434" lon="6.84052">
        <ele>2425.5</ele>
        <time>2013-09-01T14:14:10Z</time>
      </trkpt>
      <trkpt lat="44.61427" lon="6.84059">
        <ele>2428</ele>
        <time>2013-09-01T14:14:25Z</time>
      </trkpt>
      <trkpt lat="44.61421" lon="6.84062">
        <ele>2428.9</ele>
        <time>2013-09-01T14:14:40Z</time>
      </trkpt>
      <trkpt lat="44.6142" lon="6.84074">
        <ele>2430.8</ele>
        <time>2013-09-01T14:14:55Z</time>
      </trkpt>
      <trkpt lat="44.61417" lon="6.84083">
        <ele>2432.3</ele>
        <time>2013-09-01T14:15:08Z</time>
      </trkpt>
      <trkpt lat="44.61421" lon="6.84088">
        <ele>2433.7</ele>
        <time>2013-09-01T14:15:18Z</time>
      </trkpt>
      <trkpt lat="44.61422" lon="6.84103">
        <ele>2435.2</ele>
        <time>2013-09-01T14:15:32Z</time>
      </trkpt>
      <trkpt lat="44.61419" lon="6.84116">
        <ele>2437.1</ele>
        <time>2013-09-01T14:15:47Z</time>
      </trkpt>
      <trkpt lat="44.61415" lon="6.84121">
        <ele>2438.5</ele>
        <time>2013-09-01T14:16:03Z</time>
      </trkpt>
      <trkpt lat="44.61414" lon="6.84132">
        <ele>2440</ele>
        <time>2013-09-01T14:16:20Z</time>
      </trkpt>
      <trkpt lat="44.6141" lon="6.84136">
        <ele>2442.4</ele>
        <time>2013-09-01T14:16:35Z</time>
      </trkpt>
      <trkpt lat="44.61407" lon="6.84142">
        <ele>2442.9</ele>
        <time>2013-09-01T14:16:48Z</time>
      </trkpt>
      <trkpt lat="44.61403" lon="6.84153">
        <ele>2444.8</ele>
        <time>2013-09-01T14:17:01Z</time>
      </trkpt>
      <trkpt lat="44.614" lon="6.84158">
        <ele>2446.7</ele>
        <time>2013-09-01T14:17:14Z</time>
      </trkpt>
      <trkpt lat="44.61395" lon="6.84166">
        <ele>2448.1</ele>
        <time>2013-09-01T14:17:26Z</time>
      </trkpt>
      <trkpt lat="44.61392" lon="6.84182">
        <ele>2450.1</ele>
        <time>2013-09-01T14:17:41Z</time>
      </trkpt>
      <trkpt lat="44.61386" lon="6.84184">
        <ele>2452</ele>
        <time>2013-09-01T14:17:54Z</time>
      </trkpt>
      <trkpt lat="44.61386" lon="6.84203">
        <ele>2453.4</ele>
        <time>2013-09-01T14:18:10Z</time>
      </trkpt>
      <trkpt lat="44.61384" lon="6.84216">
        <ele>2455.3</ele>
        <time>2013-09-01T14:18:26Z</time>
      </trkpt>
      <trkpt lat="44.61384" lon="6.84233">
        <ele>2456.8</ele>
        <time>2013-09-01T14:18:41Z</time>
      </trkpt>
      <trkpt lat="44.61382" lon="6.84238">
        <ele>2458.7</ele>
        <time>2013-09-01T14:18:51Z</time>
      </trkpt>
      <trkpt lat="44.61378" lon="6.84246">
        <ele>2459.7</ele>
        <time>2013-09-01T14:19:03Z</time>
      </trkpt>
      <trkpt lat="44.61374" lon="6.84256">
        <ele>2462.1</ele>
        <time>2013-09-01T14:19:18Z</time>
      </trkpt>
      <trkpt lat="44.61367" lon="6.84258">
        <ele>2464</ele>
        <time>2013-09-01T14:19:32Z</time>
      </trkpt>
      <trkpt lat="44.61362" lon="6.84267">
        <ele>2465.9</ele>
        <time>2013-09-01T14:19:45Z</time>
      </trkpt>
      <trkpt lat="44.61358" lon="6.84274">
        <ele>2467.4</ele>
        <time>2013-09-01T14:19:59Z</time>
      </trkpt>
      <trkpt lat="44.61352" lon="6.84274">
        <ele>2469.3</ele>
        <time>2013-09-01T14:20:13Z</time>
      </trkpt>
      <trkpt lat="44.61345" lon="6.84275">
        <ele>2471.2</ele>
        <time>2013-09-01T14:20:34Z</time>
      </trkpt>
      <trkpt lat="44.61343" lon="6.8428">
        <ele>2473.1</ele>
        <time>2013-09-01T14:20:48Z</time>
      </trkpt>
      <trkpt lat="44.6134" lon="6.84292">
        <ele>2475.1</ele>
        <time>2013-09-01T14:21:04Z</time>
      </trkpt>
      <trkpt lat="44.61334" lon="6.84299">
        <ele>2477.5</ele>
        <time>2013-09-01T14:21:18Z</time>
      </trkpt>
      <trkpt lat="44.61329" lon="6.84305">
        <ele>2479.9</ele>
        <time>2013-09-01T14:21:33Z</time>
      </trkpt>
      <trkpt lat="44.61324" lon="6.84309">
        <ele>2481.3</ele>
        <time>2013-09-01T14:21:45Z</time>
      </trkpt>
      <trkpt lat="44.6132" lon="6.84312">
        <ele>2482.7</ele>
        <time>2013-09-01T14:22:02Z</time>
      </trkpt>
      <trkpt lat="44.61314" lon="6.84322">
        <ele>2485.2</ele>
        <time>2013-09-01T14:22:19Z</time>
      </trkpt>
      <trkpt lat="44.61313" lon="6.8433">
        <ele>2486.6</ele>
        <time>2013-09-01T14:22:31Z</time>
      </trkpt>
      <trkpt lat="44.61311" lon="6.8434">
        <ele>2488.5</ele>
        <time>2013-09-01T14:22:44Z</time>
      </trkpt>
      <trkpt lat="44.61308" lon="6.84352">
        <ele>2490</ele>
        <time>2013-09-01T14:22:58Z</time>
      </trkpt>
      <trkpt lat="44.61309" lon="6.84357">
        <ele>2490</ele>
        <time>2013-09-01T14:23:27Z</time>
      </trkpt>
      <trkpt lat="44.61307" lon="6.84363">
        <ele>2492.4</ele>
        <time>2013-09-01T14:23:40Z</time>
      </trkpt>
      <trkpt lat="44.61305" lon="6.84379">
        <ele>2493.8</ele>
        <time>2013-09-01T14:23:55Z</time>
      </trkpt>
      <trkpt lat="44.61304" lon="6.84383">
        <ele>2493.8</ele>
        <time>2013-09-01T14:23:58Z</time>
      </trkpt>
      <trkpt lat="44.61306" lon="6.84403">
        <ele>2496.7</ele>
        <time>2013-09-01T14:24:16Z</time>
      </trkpt>
      <trkpt lat="44.61306" lon="6.84414">
        <ele>2498.6</ele>
        <time>2013-09-01T14:24:31Z</time>
      </trkpt>
      <trkpt lat="44.61303" lon="6.84423">
        <ele>2500.5</ele>
        <time>2013-09-01T14:24:45Z</time>
      </trkpt>
      <trkpt lat="44.61302" lon="6.84428">
        <ele>2502.5</ele>
        <time>2013-09-01T14:24:57Z</time>
      </trkpt>
      <trkpt lat="44.61301" lon="6.84436">
        <ele>2503.9</ele>
        <time>2013-09-01T14:25:09Z</time>
      </trkpt>
      <trkpt lat="44.61299" lon="6.84434">
        <ele>2505.8</ele>
        <time>2013-09-01T14:25:23Z</time>
      </trkpt>
      <trkpt lat="44.61295" lon="6.84438">
        <ele>2507.7</ele>
        <time>2013-09-01T14:25:38Z</time>
      </trkpt>
      <trkpt lat="44.61291" lon="6.84443">
        <ele>2509.7</ele>
        <time>2013-09-01T14:25:53Z</time>
      </trkpt>
      <trkpt lat="44.6129" lon="6.84455">
        <ele>2511.1</ele>
        <time>2013-09-01T14:26:06Z</time>
      </trkpt>
      <trkpt lat="44.6129" lon="6.84465">
        <ele>2513</ele>
        <time>2013-09-01T14:26:19Z</time>
      </trkpt>
      <trkpt lat="44.61284" lon="6.84476">
        <ele>2515</ele>
        <time>2013-09-01T14:26:35Z</time>
      </trkpt>
      <trkpt lat="44.61282" lon="6.84488">
        <ele>2516.4</ele>
        <time>2013-09-01T14:26:49Z</time>
      </trkpt>
      <trkpt lat="44.61281" lon="6.84496">
        <ele>2518.3</ele>
        <time>2013-09-01T14:27:02Z</time>
      </trkpt>
      <trkpt lat="44.61275" lon="6.845">
        <ele>2520.7</ele>
        <time>2013-09-01T14:27:19Z</time>
      </trkpt>
      <trkpt lat="44.61271" lon="6.84508">
        <ele>2523.1</ele>
        <time>2013-09-01T14:27:36Z</time>
      </trkpt>
      <trkpt lat="44.61269" lon="6.84515">
        <ele>2525</ele>
        <time>2013-09-01T14:27:53Z</time>
      </trkpt>
      <trkpt lat="44.61267" lon="6.84522">
        <ele>2527</ele>
        <time>2013-09-01T14:28:08Z</time>
      </trkpt>
      <trkpt lat="44.61265" lon="6.84531">
        <ele>2529.4</ele>
        <time>2013-09-01T14:28:24Z</time>
      </trkpt>
      <trkpt lat="44.61262" lon="6.84535">
        <ele>2532.3</ele>
        <time>2013-09-01T14:28:40Z</time>
      </trkpt>
      <trkpt lat="44.61258" lon="6.84531">
        <ele>2533.2</ele>
        <time>2013-09-01T14:28:55Z</time>
      </trkpt>
      <trkpt lat="44.61254" lon="6.8453">
        <ele>2535.6</ele>
        <time>2013-09-01T14:29:09Z</time>
      </trkpt>
      <trkpt lat="44.61254" lon="6.8454">
        <ele>2538</ele>
        <time>2013-09-01T14:29:27Z</time>
      </trkpt>
      <trkpt lat="44.61252" lon="6.8455">
        <ele>2540.9</ele>
        <time>2013-09-01T14:29:45Z</time>
      </trkpt>
      <trkpt lat="44.61252" lon="6.84558">
        <ele>2542.8</ele>
        <time>2013-09-01T14:30:00Z</time>
      </trkpt>
      <trkpt lat="44.61254" lon="6.84567">
        <ele>2545.2</ele>
        <time>2013-09-01T14:30:15Z</time>
      </trkpt>
      <trkpt lat="44.61256" lon="6.84573">
        <ele>2547.2</ele>
        <time>2013-09-01T14:30:30Z</time>
      </trkpt>
      <trkpt lat="44.61256" lon="6.84577">
        <ele>2549.6</ele>
        <time>2013-09-01T14:30:44Z</time>
      </trkpt>
      <trkpt lat="44.6125" lon="6.84579">
        <ele>2552</ele>
        <time>2013-09-01T14:31:00Z</time>
      </trkpt>
      <trkpt lat="44.61246" lon="6.84577">
        <ele>2554.4</ele>
        <time>2013-09-01T14:31:19Z</time>
      </trkpt>
      <trkpt lat="44.61245" lon="6.8458">
        <ele>2556.3</ele>
        <time>2013-09-01T14:31:35Z</time>
      </trkpt>
      <trkpt lat="44.61249" lon="6.84589">
        <ele>2558.7</ele>
        <time>2013-09-01T14:31:51Z</time>
      </trkpt>
      <trkpt lat="44.61248" lon="6.84592">
        <ele>2561.6</ele>
        <time>2013-09-01T14:32:07Z</time>
      </trkpt>
      <trkpt lat="44.61239" lon="6.84591">
        <ele>2564</ele>
        <time>2013-09-01T14:32:23Z</time>
      </trkpt>
      <trkpt lat="44.61234" lon="6.8459">
        <ele>2566.4</ele>
        <time>2013-09-01T14:32:38Z</time>
      </trkpt>
      <trkpt lat="44.61227" lon="6.84591">
        <ele>2567.3</ele>
        <time>2013-09-01T14:32:58Z</time>
      </trkpt>
      <trkpt lat="44.61228" lon="6.84592">
        <ele>2569.7</ele>
        <time>2013-09-01T14:33:14Z</time>
      </trkpt>
      <trkpt lat="44.61234" lon="6.84601">
        <ele>2572.1</ele>
        <time>2013-09-01T14:33:33Z</time>
      </trkpt>
      <trkpt lat="44.6124" lon="6.8461">
        <ele>2573.6</ele>
        <time>2013-09-01T14:33:48Z</time>
      </trkpt>
      <trkpt lat="44.61242" lon="6.84619">
        <ele>2576.5</ele>
        <time>2013-09-01T14:34:05Z</time>
      </trkpt>
      <trkpt lat="44.61246" lon="6.84625">
        <ele>2577.9</ele>
        <time>2013-09-01T14:34:20Z</time>
      </trkpt>
      <trkpt lat="44.61245" lon="6.84627">
        <ele>2577.4</ele>
        <time>2013-09-01T14:34:48Z</time>
      </trkpt>
      <trkpt lat="44.61244" lon="6.84625">
        <ele>2578.4</ele>
        <time>2013-09-01T14:35:31Z</time>
      </trkpt>
      <trkpt lat="44.61248" lon="6.8463">
        <ele>2579.8</ele>
        <time>2013-09-01T14:35:53Z</time>
      </trkpt>
      <trkpt lat="44.61252" lon="6.84642">
        <ele>2583.2</ele>
        <time>2013-09-01T14:36:09Z</time>
      </trkpt>
      <trkpt lat="44.61245" lon="6.8464">
        <ele>2585.1</ele>
        <time>2013-09-01T14:36:22Z</time>
      </trkpt>
      <trkpt lat="44.6124" lon="6.84637">
        <ele>2586.6</ele>
        <time>2013-09-01T14:36:31Z</time>
      </trkpt>
      <trkpt lat="44.61231" lon="6.84634">
        <ele>2589</ele>
        <time>2013-09-01T14:36:45Z</time>
      </trkpt>
      <trkpt lat="44.61223" lon="6.8463">
        <ele>2591.9</ele>
        <time>2013-09-01T14:37:01Z</time>
      </trkpt>
      <trkpt lat="44.61222" lon="6.84634">
        <ele>2594.7</ele>
        <time>2013-09-01T14:37:17Z</time>
      </trkpt>
      <trkpt lat="44.61228" lon="6.84643">
        <ele>2596.2</ele>
        <time>2013-09-01T14:37:30Z</time>
      </trkpt>
      <trkpt lat="44.6123" lon="6.84646">
        <ele>2596.2</ele>
        <time>2013-09-01T14:37:33Z</time>
      </trkpt>
      <trkpt lat="44.61235" lon="6.84656">
        <ele>2599.1</ele>
        <time>2013-09-01T14:37:46Z</time>
      </trkpt>
      <trkpt lat="44.61238" lon="6.84666">
        <ele>2600.5</ele>
        <time>2013-09-01T14:37:59Z</time>
      </trkpt>
      <trkpt lat="44.61239" lon="6.84674">
        <ele>2603.9</ele>
        <time>2013-09-01T14:38:12Z</time>
      </trkpt>
      <trkpt lat="44.61231" lon="6.84668">
        <ele>2605.8</ele>
        <time>2013-09-01T14:38:26Z</time>
      </trkpt>
      <trkpt lat="44.61225" lon="6.84669">
        <ele>2608.2</ele>
        <time>2013-09-01T14:38:40Z</time>
      </trkpt>
      <trkpt lat="44.61219" lon="6.8467">
        <ele>2610.6</ele>
        <time>2013-09-01T14:38:53Z</time>
      </trkpt>
      <trkpt lat="44.61218" lon="6.84673">
        <ele>2612.5</ele>
        <time>2013-09-01T14:39:05Z</time>
      </trkpt>
      <trkpt lat="44.61223" lon="6.8468">
        <ele>2614</ele>
        <time>2013-09-01T14:39:16Z</time>
      </trkpt>
      <trkpt lat="44.61228" lon="6.84689">
        <ele>2616.9</ele>
        <time>2013-09-01T14:39:29Z</time>
      </trkpt>
      <trkpt lat="44.61223" lon="6.84693">
        <ele>2619.3</ele>
        <time>2013-09-01T14:39:41Z</time>
      </trkpt>
      <trkpt lat="44.61226" lon="6.84696">
        <ele>2620.2</ele>
        <time>2013-09-01T14:39:55Z</time>
      </trkpt>
      <trkpt lat="44.61227" lon="6.84704">
        <ele>2622.6</ele>
        <time>2013-09-01T14:40:08Z</time>
      </trkpt>
      <trkpt lat="44.61219" lon="6.84698">
        <ele>2624.1</ele>
        <time>2013-09-01T14:40:21Z</time>
      </trkpt>
      <trkpt lat="44.61207" lon="6.84696">
        <ele>2626.5</ele>
        <time>2013-09-01T14:40:35Z</time>
      </trkpt>
      <trkpt lat="44.612" lon="6.84697">
        <ele>2628.4</ele>
        <time>2013-09-01T14:40:49Z</time>
      </trkpt>
      <trkpt lat="44.612" lon="6.84705">
        <ele>2631.8</ele>
        <time>2013-09-01T14:41:02Z</time>
      </trkpt>
      <trkpt lat="44.61201" lon="6.84709">
        <ele>2632.2</ele>
        <time>2013-09-01T14:41:06Z</time>
      </trkpt>
      <trkpt lat="44.612" lon="6.84725">
        <ele>2634.6</ele>
        <time>2013-09-01T14:41:21Z</time>
      </trkpt>
      <trkpt lat="44.612" lon="6.84726">
        <ele>2634.6</ele>
        <time>2013-09-01T14:41:23Z</time>
      </trkpt>
      <trkpt lat="44.61197" lon="6.84735">
        <ele>2637</ele>
        <time>2013-09-01T14:41:35Z</time>
      </trkpt>
      <trkpt lat="44.61192" lon="6.84749">
        <ele>2639</ele>
        <time>2013-09-01T14:41:50Z</time>
      </trkpt>
      <trkpt lat="44.61193" lon="6.84758">
        <ele>2640.4</ele>
        <time>2013-09-01T14:41:58Z</time>
      </trkpt>
      <trkpt lat="44.61187" lon="6.8476">
        <ele>2642.3</ele>
        <time>2013-09-01T14:42:09Z</time>
      </trkpt>
      <trkpt lat="44.61179" lon="6.84759">
        <ele>2644.7</ele>
        <time>2013-09-01T14:42:22Z</time>
      </trkpt>
      <trkpt lat="44.61168" lon="6.84754">
        <ele>2647.1</ele>
        <time>2013-09-01T14:42:37Z</time>
      </trkpt>
      <trkpt lat="44.61159" lon="6.84755">
        <ele>2650</ele>
        <time>2013-09-01T14:42:52Z</time>
      </trkpt>
      <trkpt lat="44.61151" lon="6.84757">
        <ele>2651.9</ele>
        <time>2013-09-01T14:43:05Z</time>
      </trkpt>
      <trkpt lat="44.6115" lon="6.84766">
        <ele>2654.3</ele>
        <time>2013-09-01T14:43:18Z</time>
      </trkpt>
      <trkpt lat="44.61146" lon="6.84765">
        <ele>2655.3</ele>
        <time>2013-09-01T14:43:31Z</time>
      </trkpt>
      <trkpt lat="44.61139" lon="6.84763">
        <ele>2656.3</ele>
        <time>2013-09-01T14:43:57Z</time>
      </trkpt>
      <trkpt lat="44.61138" lon="6.84768">
        <ele>2658.7</ele>
        <time>2013-09-01T14:44:11Z</time>
      </trkpt>
      <trkpt lat="44.6114" lon="6.84763">
        <ele>2658.2</ele>
        <time>2013-09-01T14:44:25Z</time>
      </trkpt>
      <trkpt lat="44.61135" lon="6.84761">
        <ele>2658.2</ele>
        <time>2013-09-01T14:45:06Z</time>
      </trkpt>
      <trkpt lat="44.61138" lon="6.84764">
        <ele>2658.2</ele>
        <time>2013-09-01T14:45:44Z</time>
      </trkpt>
      <trkpt lat="44.61137" lon="6.84763">
        <ele>2658.7</ele>
        <time>2013-09-01T14:46:18Z</time>
      </trkpt>
      <trkpt lat="44.61139" lon="6.84769">
        <ele>2658.2</ele>
        <time>2013-09-01T14:46:56Z</time>
      </trkpt>
      <trkpt lat="44.61131" lon="6.84767">
        <ele>2655.8</ele>
        <time>2013-09-01T14:47:10Z</time>
      </trkpt>
      <trkpt lat="44.61124" lon="6.84759">
        <ele>2653.9</ele>
        <time>2013-09-01T14:47:23Z</time>
      </trkpt>
      <trkpt lat="44.61123" lon="6.84753">
        <ele>2652.9</ele>
        <time>2013-09-01T14:47:41Z</time>
      </trkpt>
      <trkpt lat="44.61116" lon="6.84752">
        <ele>2652.4</ele>
        <time>2013-09-01T14:48:03Z</time>
      </trkpt>
      <trkpt lat="44.61113" lon="6.84746">
        <ele>2650</ele>
        <time>2013-09-01T14:48:19Z</time>
      </trkpt>
      <trkpt lat="44.61107" lon="6.84741">
        <ele>2647.6</ele>
        <time>2013-09-01T14:48:36Z</time>
      </trkpt>
      <trkpt lat="44.61108" lon="6.84739">
        <ele>2639.9</ele>
        <time>2013-09-01T14:48:44Z</time>
      </trkpt>
      <trkpt lat="44.61109" lon="6.8474">
        <ele>2653.4</ele>
        <time>2013-09-01T14:48:45Z</time>
      </trkpt>
      <trkpt lat="44.61109" lon="6.84741">
        <ele>2647.6</ele>
        <time>2013-09-01T14:48:46Z</time>
      </trkpt>
      <trkpt lat="44.6111" lon="6.84744">
        <ele>2646.7</ele>
        <time>2013-09-01T14:48:48Z</time>
      </trkpt>
      <trkpt lat="44.61111" lon="6.84746">
        <ele>2647.1</ele>
        <time>2013-09-01T14:48:49Z</time>
      </trkpt>
      <trkpt lat="44.61108" lon="6.84749">
        <ele>2644.7</ele>
        <time>2013-09-01T14:49:01Z</time>
      </trkpt>
      <trkpt lat="44.61102" lon="6.84745">
        <ele>2642.3</ele>
        <time>2013-09-01T14:49:15Z</time>
      </trkpt>
      <trkpt lat="44.61107" lon="6.8475">
        <ele>2640.4</ele>
        <time>2013-09-01T14:49:29Z</time>
      </trkpt>
      <trkpt lat="44.61107" lon="6.84758">
        <ele>2639.9</ele>
        <time>2013-09-01T14:49:59Z</time>
      </trkpt>
      <trkpt lat="44.61103" lon="6.8476">
        <ele>2637.5</ele>
        <time>2013-09-01T14:50:12Z</time>
      </trkpt>
      <trkpt lat="44.61095" lon="6.84753">
        <ele>2637</ele>
        <time>2013-09-01T14:50:21Z</time>
      </trkpt>
      <trkpt lat="44.61095" lon="6.84753">
        <ele>2635.1</ele>
        <time>2013-09-01T14:50:34Z</time>
      </trkpt>
      <trkpt lat="44.61096" lon="6.84756">
        <ele>2634.6</ele>
        <time>2013-09-01T14:50:36Z</time>
      </trkpt>
      <trkpt lat="44.61094" lon="6.84768">
        <ele>2631.8</ele>
        <time>2013-09-01T14:50:51Z</time>
      </trkpt>
      <trkpt lat="44.61091" lon="6.84771">
        <ele>2631.3</ele>
        <time>2013-09-01T14:51:08Z</time>
      </trkpt>
      <trkpt lat="44.61091" lon="6.84771">
        <ele>2631.8</ele>
        <time>2013-09-01T14:51:16Z</time>
      </trkpt>
      <trkpt lat="44.61088" lon="6.84765">
        <ele>2631.3</ele>
        <time>2013-09-01T14:51:19Z</time>
      </trkpt>
      <trkpt lat="44.61082" lon="6.84758">
        <ele>2629.8</ele>
        <time>2013-09-01T14:51:22Z</time>
      </trkpt>
      <trkpt lat="44.61074" lon="6.84748">
        <ele>2626.5</ele>
        <time>2013-09-01T14:51:27Z</time>
      </trkpt>
      <trkpt lat="44.61069" lon="6.8474">
        <ele>2624.1</ele>
        <time>2013-09-01T14:51:38Z</time>
      </trkpt>
      <trkpt lat="44.61067" lon="6.84738">
        <ele>2622.6</ele>
        <time>2013-09-01T14:51:50Z</time>
      </trkpt>
      <trkpt lat="44.61064" lon="6.84743">
        <ele>2620.2</ele>
        <time>2013-09-01T14:52:05Z</time>
      </trkpt>
      <trkpt lat="44.61061" lon="6.84741">
        <ele>2619.7</ele>
        <time>2013-09-01T14:52:10Z</time>
      </trkpt>
      <trkpt lat="44.61052" lon="6.84737">
        <ele>2616.9</ele>
        <time>2013-09-01T14:52:22Z</time>
      </trkpt>
      <trkpt lat="44.61045" lon="6.84732">
        <ele>2613.5</ele>
        <time>2013-09-01T14:52:36Z</time>
      </trkpt>
      <trkpt lat="44.6104" lon="6.8473">
        <ele>2612</ele>
        <time>2013-09-01T14:52:41Z</time>
      </trkpt>
      <trkpt lat="44.61035" lon="6.8473">
        <ele>2610.1</ele>
        <time>2013-09-01T14:52:50Z</time>
      </trkpt>
      <trkpt lat="44.61032" lon="6.84725">
        <ele>2608.7</ele>
        <time>2013-09-01T14:53:03Z</time>
      </trkpt>
      <trkpt lat="44.6103" lon="6.84724">
        <ele>2608.7</ele>
        <time>2013-09-01T14:53:06Z</time>
      </trkpt>
      <trkpt lat="44.61022" lon="6.84725">
        <ele>2605.3</ele>
        <time>2013-09-01T14:53:16Z</time>
      </trkpt>
      <trkpt lat="44.61017" lon="6.84722">
        <ele>2604.4</ele>
        <time>2013-09-01T14:53:28Z</time>
      </trkpt>
      <trkpt lat="44.61008" lon="6.8472">
        <ele>2601</ele>
        <time>2013-09-01T14:53:33Z</time>
      </trkpt>
      <trkpt lat="44.61007" lon="6.8472">
        <ele>2601</ele>
        <time>2013-09-01T14:53:34Z</time>
      </trkpt>
      <trkpt lat="44.61001" lon="6.84716">
        <ele>2599.1</ele>
        <time>2013-09-01T14:53:45Z</time>
      </trkpt>
      <trkpt lat="44.60991" lon="6.84714">
        <ele>2595.7</ele>
        <time>2013-09-01T14:53:57Z</time>
      </trkpt>
      <trkpt lat="44.60989" lon="6.84714">
        <ele>2594.7</ele>
        <time>2013-09-01T14:53:59Z</time>
      </trkpt>
      <trkpt lat="44.60978" lon="6.84705">
        <ele>2592.8</ele>
        <time>2013-09-01T14:54:15Z</time>
      </trkpt>
      <trkpt lat="44.60966" lon="6.84698">
        <ele>2589.5</ele>
        <time>2013-09-01T14:54:23Z</time>
      </trkpt>
      <trkpt lat="44.60965" lon="6.84697">
        <ele>2589.5</ele>
        <time>2013-09-01T14:54:24Z</time>
      </trkpt>
      <trkpt lat="44.60955" lon="6.84695">
        <ele>2586.1</ele>
        <time>2013-09-01T14:54:31Z</time>
      </trkpt>
      <trkpt lat="44.6095" lon="6.84694">
        <ele>2584.6</ele>
        <time>2013-09-01T14:54:41Z</time>
      </trkpt>
      <trkpt lat="44.60948" lon="6.84697">
        <ele>2582.7</ele>
        <time>2013-09-01T14:54:54Z</time>
      </trkpt>
      <trkpt lat="44.6094" lon="6.84698">
        <ele>2580.8</ele>
        <time>2013-09-01T14:55:03Z</time>
      </trkpt>
      <trkpt lat="44.60933" lon="6.84703">
        <ele>2579.8</ele>
        <time>2013-09-01T14:55:14Z</time>
      </trkpt>
      <trkpt lat="44.60931" lon="6.84704">
        <ele>2579.4</ele>
        <time>2013-09-01T14:55:15Z</time>
      </trkpt>
      <trkpt lat="44.6093" lon="6.84703">
        <ele>2578.9</ele>
        <time>2013-09-01T14:55:16Z</time>
      </trkpt>
      <trkpt lat="44.60925" lon="6.84706">
        <ele>2577.4</ele>
        <time>2013-09-01T14:55:19Z</time>
      </trkpt>
      <trkpt lat="44.60914" lon="6.84712">
        <ele>2574.6</ele>
        <time>2013-09-01T14:55:24Z</time>
      </trkpt>
      <trkpt lat="44.60908" lon="6.84715">
        <ele>2572.1</ele>
        <time>2013-09-01T14:55:28Z</time>
      </trkpt>
      <trkpt lat="44.60907" lon="6.84716">
        <ele>2572.1</ele>
        <time>2013-09-01T14:55:29Z</time>
      </trkpt>
      <trkpt lat="44.609" lon="6.84724">
        <ele>2570.2</ele>
        <time>2013-09-01T14:55:33Z</time>
      </trkpt>
      <trkpt lat="44.60898" lon="6.84725">
        <ele>2569.3</ele>
        <time>2013-09-01T14:55:34Z</time>
      </trkpt>
      <trkpt lat="44.60882" lon="6.84731">
        <ele>2566.4</ele>
        <time>2013-09-01T14:55:39Z</time>
      </trkpt>
      <trkpt lat="44.60847" lon="6.84742">
        <ele>2563.5</ele>
        <time>2013-09-01T14:55:49Z</time>
      </trkpt>
      <trkpt lat="44.60819" lon="6.8476">
        <ele>2560.1</ele>
        <time>2013-09-01T14:55:59Z</time>
      </trkpt>
      <trkpt lat="44.60809" lon="6.84763">
        <ele>2559.7</ele>
        <time>2013-09-01T14:56:09Z</time>
      </trkpt>
      <trkpt lat="44.60809" lon="6.84759">
        <ele>2559.7</ele>
        <time>2013-09-01T14:56:33Z</time>
      </trkpt>
      <trkpt lat="44.60809" lon="6.84756">
        <ele>2560.1</ele>
        <time>2013-09-01T14:56:51Z</time>
      </trkpt>
      <trkpt lat="44.60804" lon="6.84754">
        <ele>2560.6</ele>
        <time>2013-09-01T14:57:03Z</time>
      </trkpt>
      <trkpt lat="44.60793" lon="6.84745">
        <ele>2561.6</ele>
        <time>2013-09-01T14:57:17Z</time>
      </trkpt>
      <trkpt lat="44.6078" lon="6.84745">
        <ele>2560.6</ele>
        <time>2013-09-01T14:57:32Z</time>
      </trkpt>
      <trkpt lat="44.6077" lon="6.84748">
        <ele>2559.2</ele>
        <time>2013-09-01T14:57:42Z</time>
      </trkpt>
      <trkpt lat="44.60758" lon="6.84755">
        <ele>2556.8</ele>
        <time>2013-09-01T14:57:59Z</time>
      </trkpt>
      <trkpt lat="44.60758" lon="6.84761">
        <ele>2556.8</ele>
        <time>2013-09-01T14:58:15Z</time>
      </trkpt>
      <trkpt lat="44.6076" lon="6.84768">
        <ele>2554.8</ele>
        <time>2013-09-01T14:58:22Z</time>
      </trkpt>
      <trkpt lat="44.60755" lon="6.84785">
        <ele>2554.8</ele>
        <time>2013-09-01T14:58:35Z</time>
      </trkpt>
      <trkpt lat="44.60747" lon="6.84796">
        <ele>2552.9</ele>
        <time>2013-09-01T14:58:47Z</time>
      </trkpt>
      <trkpt lat="44.60737" lon="6.84801">
        <ele>2552.4</ele>
        <time>2013-09-01T14:59:00Z</time>
      </trkpt>
      <trkpt lat="44.60728" lon="6.84802">
        <ele>2550.5</ele>
        <time>2013-09-01T14:59:14Z</time>
      </trkpt>
      <trkpt lat="44.60723" lon="6.848">
        <ele>2548.1</ele>
        <time>2013-09-01T14:59:25Z</time>
      </trkpt>
      <trkpt lat="44.60708" lon="6.84802">
        <ele>2546.2</ele>
        <time>2013-09-01T14:59:40Z</time>
      </trkpt>
      <trkpt lat="44.607" lon="6.84804">
        <ele>2546.2</ele>
        <time>2013-09-01T14:59:48Z</time>
      </trkpt>
      <trkpt lat="44.6069" lon="6.84803">
        <ele>2545.7</ele>
        <time>2013-09-01T14:59:56Z</time>
      </trkpt>
      <trkpt lat="44.60684" lon="6.84797">
        <ele>2546.2</ele>
        <time>2013-09-01T15:00:09Z</time>
      </trkpt>
      <trkpt lat="44.60683" lon="6.84798">
        <ele>2546.2</ele>
        <time>2013-09-01T15:00:28Z</time>
      </trkpt>
      <trkpt lat="44.60682" lon="6.84794">
        <ele>2545.7</ele>
        <time>2013-09-01T15:00:49Z</time>
      </trkpt>
      <trkpt lat="44.60679" lon="6.84804">
        <ele>2545.2</ele>
        <time>2013-09-01T15:01:05Z</time>
      </trkpt>
      <trkpt lat="44.60673" lon="6.84806">
        <ele>2543.3</ele>
        <time>2013-09-01T15:01:15Z</time>
      </trkpt>
      <trkpt lat="44.60668" lon="6.8481">
        <ele>2540.9</ele>
        <time>2013-09-01T15:01:20Z</time>
      </trkpt>
      <trkpt lat="44.60665" lon="6.8481">
        <ele>2539.9</ele>
        <time>2013-09-01T15:01:25Z</time>
      </trkpt>
      <trkpt lat="44.60651" lon="6.84819">
        <ele>2537.1</ele>
        <time>2013-09-01T15:01:40Z</time>
      </trkpt>
      <trkpt lat="44.60641" lon="6.84827">
        <ele>2535.1</ele>
        <time>2013-09-01T15:01:56Z</time>
      </trkpt>
      <trkpt lat="44.6064" lon="6.84831">
        <ele>2533.7</ele>
        <time>2013-09-01T15:02:11Z</time>
      </trkpt>
      <trkpt lat="44.60635" lon="6.84836">
        <ele>2532.3</ele>
        <time>2013-09-01T15:02:20Z</time>
      </trkpt>
      <trkpt lat="44.60629" lon="6.84849">
        <ele>2529.4</ele>
        <time>2013-09-01T15:02:33Z</time>
      </trkpt>
      <trkpt lat="44.60626" lon="6.84858">
        <ele>2527</ele>
        <time>2013-09-01T15:02:47Z</time>
      </trkpt>
      <trkpt lat="44.60623" lon="6.84857">
        <ele>2526.5</ele>
        <time>2013-09-01T15:02:55Z</time>
      </trkpt>
      <trkpt lat="44.6062" lon="6.84854">
        <ele>2526.5</ele>
        <time>2013-09-01T15:02:57Z</time>
      </trkpt>
      <trkpt lat="44.60614" lon="6.84846">
        <ele>2524.6</ele>
        <time>2013-09-01T15:03:00Z</time>
      </trkpt>
      <trkpt lat="44.60603" lon="6.84843">
        <ele>2521.7</ele>
        <time>2013-09-01T15:03:07Z</time>
      </trkpt>
      <trkpt lat="44.60598" lon="6.84842">
        <ele>2520.2</ele>
        <time>2013-09-01T15:03:10Z</time>
      </trkpt>
      <trkpt lat="44.60597" lon="6.84844">
        <ele>2519.8</ele>
        <time>2013-09-01T15:03:11Z</time>
      </trkpt>
      <trkpt lat="44.60597" lon="6.84846">
        <ele>2519.3</ele>
        <time>2013-09-01T15:03:12Z</time>
      </trkpt>
      <trkpt lat="44.60597" lon="6.84849">
        <ele>2518.8</ele>
        <time>2013-09-01T15:03:13Z</time>
      </trkpt>
      <trkpt lat="44.60596" lon="6.84852">
        <ele>2518.8</ele>
        <time>2013-09-01T15:03:14Z</time>
      </trkpt>
      <trkpt lat="44.60595" lon="6.84855">
        <ele>2518.3</ele>
        <time>2013-09-01T15:03:15Z</time>
      </trkpt>
      <trkpt lat="44.60594" lon="6.84857">
        <ele>2517.4</ele>
        <time>2013-09-01T15:03:16Z</time>
      </trkpt>
      <trkpt lat="44.60593" lon="6.84859">
        <ele>2517.4</ele>
        <time>2013-09-01T15:03:17Z</time>
      </trkpt>
      <trkpt lat="44.60591" lon="6.84859">
        <ele>2516.4</ele>
        <time>2013-09-01T15:03:18Z</time>
      </trkpt>
      <trkpt lat="44.6059" lon="6.84859">
        <ele>2515.9</ele>
        <time>2013-09-01T15:03:19Z</time>
      </trkpt>
      <trkpt lat="44.60588" lon="6.84858">
        <ele>2515.9</ele>
        <time>2013-09-01T15:03:20Z</time>
      </trkpt>
      <trkpt lat="44.6058" lon="6.84857">
        <ele>2513.5</ele>
        <time>2013-09-01T15:03:29Z</time>
      </trkpt>
      <trkpt lat="44.60576" lon="6.84855">
        <ele>2513</ele>
        <time>2013-09-01T15:03:33Z</time>
      </trkpt>
      <trkpt lat="44.60575" lon="6.84855">
        <ele>2513</ele>
        <time>2013-09-01T15:03:34Z</time>
      </trkpt>
      <trkpt lat="44.60574" lon="6.84854">
        <ele>2512.5</ele>
        <time>2013-09-01T15:03:35Z</time>
      </trkpt>
      <trkpt lat="44.60576" lon="6.84855">
        <ele>2512.1</ele>
        <time>2013-09-01T15:03:52Z</time>
      </trkpt>
      <trkpt lat="44.60567" lon="6.84857">
        <ele>2509.2</ele>
        <time>2013-09-01T15:04:04Z</time>
      </trkpt>
      <trkpt lat="44.60568" lon="6.84857">
        <ele>2508.7</ele>
        <time>2013-09-01T15:04:06Z</time>
      </trkpt>
      <trkpt lat="44.60569" lon="6.84858">
        <ele>2508.7</ele>
        <time>2013-09-01T15:04:07Z</time>
      </trkpt>
      <trkpt lat="44.60569" lon="6.8486">
        <ele>2508.2</ele>
        <time>2013-09-01T15:04:08Z</time>
      </trkpt>
      <trkpt lat="44.6057" lon="6.84861">
        <ele>2507.3</ele>
        <time>2013-09-01T15:04:09Z</time>
      </trkpt>
      <trkpt lat="44.6057" lon="6.84864">
        <ele>2507.3</ele>
        <time>2013-09-01T15:04:10Z</time>
      </trkpt>
      <trkpt lat="44.60573" lon="6.84875">
        <ele>2505.3</ele>
        <time>2013-09-01T15:04:14Z</time>
      </trkpt>
      <trkpt lat="44.60574" lon="6.84882">
        <ele>2504.4</ele>
        <time>2013-09-01T15:04:17Z</time>
      </trkpt>
      <trkpt lat="44.60575" lon="6.84884">
        <ele>2503.4</ele>
        <time>2013-09-01T15:04:18Z</time>
      </trkpt>
      <trkpt lat="44.60573" lon="6.84889">
        <ele>2502</ele>
        <time>2013-09-01T15:04:25Z</time>
      </trkpt>
      <trkpt lat="44.60571" lon="6.84888">
        <ele>2502</ele>
        <time>2013-09-01T15:04:26Z</time>
      </trkpt>
      <trkpt lat="44.60557" lon="6.84881">
        <ele>2498.6</ele>
        <time>2013-09-01T15:04:34Z</time>
      </trkpt>
      <trkpt lat="44.60553" lon="6.84878">
        <ele>2497.6</ele>
        <time>2013-09-01T15:04:36Z</time>
      </trkpt>
      <trkpt lat="44.60552" lon="6.84876">
        <ele>2497.2</ele>
        <time>2013-09-01T15:04:37Z</time>
      </trkpt>
      <trkpt lat="44.60549" lon="6.84875">
        <ele>2496.2</ele>
        <time>2013-09-01T15:04:39Z</time>
      </trkpt>
      <trkpt lat="44.60548" lon="6.84874">
        <ele>2495.7</ele>
        <time>2013-09-01T15:04:40Z</time>
      </trkpt>
      <trkpt lat="44.60545" lon="6.84873">
        <ele>2495.7</ele>
        <time>2013-09-01T15:04:42Z</time>
      </trkpt>
      <trkpt lat="44.60543" lon="6.84873">
        <ele>2494.8</ele>
        <time>2013-09-01T15:04:43Z</time>
      </trkpt>
      <trkpt lat="44.60541" lon="6.84874">
        <ele>2493.8</ele>
        <time>2013-09-01T15:04:44Z</time>
      </trkpt>
      <trkpt lat="44.60539" lon="6.84875">
        <ele>2492.8</ele>
        <time>2013-09-01T15:04:45Z</time>
      </trkpt>
      <trkpt lat="44.60536" lon="6.84876">
        <ele>2492.8</ele>
        <time>2013-09-01T15:04:46Z</time>
      </trkpt>
      <trkpt lat="44.60534" lon="6.84875">
        <ele>2491.9</ele>
        <time>2013-09-01T15:04:47Z</time>
      </trkpt>
      <trkpt lat="44.60523" lon="6.84871">
        <ele>2490</ele>
        <time>2013-09-01T15:04:51Z</time>
      </trkpt>
      <trkpt lat="44.60509" lon="6.84866">
        <ele>2488</ele>
        <time>2013-09-01T15:04:55Z</time>
      </trkpt>
      <trkpt lat="44.60495" lon="6.84855">
        <ele>2485.6</ele>
        <time>2013-09-01T15:05:00Z</time>
      </trkpt>
      <trkpt lat="44.60485" lon="6.84842">
        <ele>2483.2</ele>
        <time>2013-09-01T15:05:04Z</time>
      </trkpt>
      <trkpt lat="44.60475" lon="6.84825">
        <ele>2479.9</ele>
        <time>2013-09-01T15:05:09Z</time>
      </trkpt>
      <trkpt lat="44.60473" lon="6.84824">
        <ele>2479.9</ele>
        <time>2013-09-01T15:05:10Z</time>
      </trkpt>
      <trkpt lat="44.60472" lon="6.84826">
        <ele>2478.9</ele>
        <time>2013-09-01T15:05:11Z</time>
      </trkpt>
      <trkpt lat="44.60468" lon="6.84834">
        <ele>2477.5</ele>
        <time>2013-09-01T15:05:13Z</time>
      </trkpt>
      <trkpt lat="44.60467" lon="6.84838">
        <ele>2477</ele>
        <time>2013-09-01T15:05:14Z</time>
      </trkpt>
      <trkpt lat="44.60467" lon="6.84844">
        <ele>2476</ele>
        <time>2013-09-01T15:05:15Z</time>
      </trkpt>
      <trkpt lat="44.60466" lon="6.84849">
        <ele>2475.1</ele>
        <time>2013-09-01T15:05:16Z</time>
      </trkpt>
      <trkpt lat="44.60465" lon="6.84854">
        <ele>2474.1</ele>
        <time>2013-09-01T15:05:17Z</time>
      </trkpt>
      <trkpt lat="44.60458" lon="6.84876">
        <ele>2471.2</ele>
        <time>2013-09-01T15:05:22Z</time>
      </trkpt>
      <trkpt lat="44.60457" lon="6.84897">
        <ele>2467.8</ele>
        <time>2013-09-01T15:05:27Z</time>
      </trkpt>
      <trkpt lat="44.60452" lon="6.84905">
        <ele>2464.5</ele>
        <time>2013-09-01T15:05:30Z</time>
      </trkpt>
      <trkpt lat="44.60449" lon="6.84907">
        <ele>2464.5</ele>
        <time>2013-09-01T15:05:31Z</time>
      </trkpt>
      <trkpt lat="44.6044" lon="6.84912">
        <ele>2461.6</ele>
        <time>2013-09-01T15:05:35Z</time>
      </trkpt>
      <trkpt lat="44.60438" lon="6.84914">
        <ele>2460.2</ele>
        <time>2013-09-01T15:05:38Z</time>
      </trkpt>
      <trkpt lat="44.60439" lon="6.84913">
        <ele>2460.2</ele>
        <time>2013-09-01T15:06:02Z</time>
      </trkpt>
      <trkpt lat="44.60438" lon="6.84912">
        <ele>2459.7</ele>
        <time>2013-09-01T15:06:22Z</time>
      </trkpt>
      <trkpt lat="44.60438" lon="6.84912">
        <ele>2459.2</ele>
        <time>2013-09-01T15:06:44Z</time>
      </trkpt>
      <trkpt lat="44.60435" lon="6.84914">
        <ele>2459.2</ele>
        <time>2013-09-01T15:06:59Z</time>
      </trkpt>
      <trkpt lat="44.60426" lon="6.84909">
        <ele>2457.8</ele>
        <time>2013-09-01T15:07:15Z</time>
      </trkpt>
      <trkpt lat="44.60426" lon="6.84909">
        <ele>2457.8</ele>
        <time>2013-09-01T15:07:16Z</time>
      </trkpt>
      <trkpt lat="44.60425" lon="6.84913">
        <ele>2456.8</ele>
        <time>2013-09-01T15:07:26Z</time>
      </trkpt>
      <trkpt lat="44.60423" lon="6.84925">
        <ele>2453.9</ele>
        <time>2013-09-01T15:07:36Z</time>
      </trkpt>
      <trkpt lat="44.60424" lon="6.84926">
        <ele>2453.4</ele>
        <time>2013-09-01T15:07:37Z</time>
      </trkpt>
      <trkpt lat="44.60426" lon="6.84929">
        <ele>2452.9</ele>
        <time>2013-09-01T15:08:02Z</time>
      </trkpt>
      <trkpt lat="44.60428" lon="6.84938">
        <ele>2451.5</ele>
        <time>2013-09-01T15:08:07Z</time>
      </trkpt>
      <trkpt lat="44.60428" lon="6.8494">
        <ele>2451</ele>
        <time>2013-09-01T15:08:08Z</time>
      </trkpt>
      <trkpt lat="44.60428" lon="6.84943">
        <ele>2450.1</ele>
        <time>2013-09-01T15:08:09Z</time>
      </trkpt>
      <trkpt lat="44.60428" lon="6.84945">
        <ele>2450.1</ele>
        <time>2013-09-01T15:08:10Z</time>
      </trkpt>
      <trkpt lat="44.60425" lon="6.84954">
        <ele>2446.7</ele>
        <time>2013-09-01T15:08:14Z</time>
      </trkpt>
      <trkpt lat="44.60423" lon="6.84962">
        <ele>2444.3</ele>
        <time>2013-09-01T15:08:17Z</time>
      </trkpt>
      <trkpt lat="44.60424" lon="6.84966">
        <ele>2444.3</ele>
        <time>2013-09-01T15:08:18Z</time>
      </trkpt>
      <trkpt lat="44.60425" lon="6.84972">
        <ele>2442.9</ele>
        <time>2013-09-01T15:08:20Z</time>
      </trkpt>
      <trkpt lat="44.60426" lon="6.84984">
        <ele>2440.9</ele>
        <time>2013-09-01T15:08:24Z</time>
      </trkpt>
      <trkpt lat="44.60425" lon="6.84986">
        <ele>2440.4</ele>
        <time>2013-09-01T15:08:25Z</time>
      </trkpt>
      <trkpt lat="44.60421" lon="6.84986">
        <ele>2440</ele>
        <time>2013-09-01T15:08:27Z</time>
      </trkpt>
      <trkpt lat="44.60419" lon="6.84985">
        <ele>2439</ele>
        <time>2013-09-01T15:08:28Z</time>
      </trkpt>
      <trkpt lat="44.60418" lon="6.84982">
        <ele>2438.5</ele>
        <time>2013-09-01T15:08:40Z</time>
      </trkpt>
      <trkpt lat="44.60412" lon="6.84979">
        <ele>2437.6</ele>
        <time>2013-09-01T15:08:58Z</time>
      </trkpt>
      <trkpt lat="44.60408" lon="6.84976">
        <ele>2437.1</ele>
        <time>2013-09-01T15:09:10Z</time>
      </trkpt>
      <trkpt lat="44.60409" lon="6.84981">
        <ele>2437.1</ele>
        <time>2013-09-01T15:09:22Z</time>
      </trkpt>
      <trkpt lat="44.60409" lon="6.84984">
        <ele>2436.6</ele>
        <time>2013-09-01T15:09:23Z</time>
      </trkpt>
      <trkpt lat="44.6041" lon="6.84987">
        <ele>2436.1</ele>
        <time>2013-09-01T15:09:24Z</time>
      </trkpt>
      <trkpt lat="44.60411" lon="6.84989">
        <ele>2435.2</ele>
        <time>2013-09-01T15:09:25Z</time>
      </trkpt>
      <trkpt lat="44.60411" lon="6.84992">
        <ele>2435.2</ele>
        <time>2013-09-01T15:09:26Z</time>
      </trkpt>
      <trkpt lat="44.60412" lon="6.84995">
        <ele>2434.7</ele>
        <time>2013-09-01T15:09:27Z</time>
      </trkpt>
      <trkpt lat="44.60412" lon="6.84999">
        <ele>2433.7</ele>
        <time>2013-09-01T15:09:28Z</time>
      </trkpt>
      <trkpt lat="44.60413" lon="6.85002">
        <ele>2433.7</ele>
        <time>2013-09-01T15:09:29Z</time>
      </trkpt>
      <trkpt lat="44.60418" lon="6.85016">
        <ele>2430.8</ele>
        <time>2013-09-01T15:09:38Z</time>
      </trkpt>
      <trkpt lat="44.60418" lon="6.85017">
        <ele>2430.8</ele>
        <time>2013-09-01T15:09:39Z</time>
      </trkpt>
      <trkpt lat="44.60411" lon="6.85017">
        <ele>2429.4</ele>
        <time>2013-09-01T15:09:43Z</time>
      </trkpt>
      <trkpt lat="44.604" lon="6.8501">
        <ele>2427.5</ele>
        <time>2013-09-01T15:09:47Z</time>
      </trkpt>
      <trkpt lat="44.60381" lon="6.84996">
        <ele>2424.1</ele>
        <time>2013-09-01T15:09:53Z</time>
      </trkpt>
      <trkpt lat="44.60366" lon="6.84982">
        <ele>2420.7</ele>
        <time>2013-09-01T15:09:59Z</time>
      </trkpt>
      <trkpt lat="44.60365" lon="6.84984">
        <ele>2419.8</ele>
        <time>2013-09-01T15:10:00Z</time>
      </trkpt>
      <trkpt lat="44.60364" lon="6.84987">
        <ele>2419.8</ele>
        <time>2013-09-01T15:10:01Z</time>
      </trkpt>
      <trkpt lat="44.60363" lon="6.8499">
        <ele>2418.8</ele>
        <time>2013-09-01T15:10:02Z</time>
      </trkpt>
      <trkpt lat="44.60362" lon="6.84995">
        <ele>2418.3</ele>
        <time>2013-09-01T15:10:03Z</time>
      </trkpt>
      <trkpt lat="44.60363" lon="6.85011">
        <ele>2415</ele>
        <time>2013-09-01T15:10:07Z</time>
      </trkpt>
      <trkpt lat="44.60363" lon="6.85015">
        <ele>2415</ele>
        <time>2013-09-01T15:10:08Z</time>
      </trkpt>
      <trkpt lat="44.60364" lon="6.85018">
        <ele>2414</ele>
        <time>2013-09-01T15:10:09Z</time>
      </trkpt>
      <trkpt lat="44.60364" lon="6.85021">
        <ele>2413.5</ele>
        <time>2013-09-01T15:10:10Z</time>
      </trkpt>
      <trkpt lat="44.60363" lon="6.85025">
        <ele>2413.1</ele>
        <time>2013-09-01T15:10:11Z</time>
      </trkpt>
      <trkpt lat="44.60363" lon="6.85029">
        <ele>2413.1</ele>
        <time>2013-09-01T15:10:12Z</time>
      </trkpt>
      <trkpt lat="44.60363" lon="6.85033">
        <ele>2412.1</ele>
        <time>2013-09-01T15:10:13Z</time>
      </trkpt>
      <trkpt lat="44.60365" lon="6.85051">
        <ele>2407.8</ele>
        <time>2013-09-01T15:10:17Z</time>
      </trkpt>
      <trkpt lat="44.60366" lon="6.85055">
        <ele>2407.8</ele>
        <time>2013-09-01T15:10:18Z</time>
      </trkpt>
      <trkpt lat="44.60368" lon="6.85066">
        <ele>2407.3</ele>
        <time>2013-09-01T15:10:20Z</time>
      </trkpt>
      <trkpt lat="44.60368" lon="6.85071">
        <ele>2406.3</ele>
        <time>2013-09-01T15:10:21Z</time>
      </trkpt>
      <trkpt lat="44.60369" lon="6.85077">
        <ele>2406.3</ele>
        <time>2013-09-01T15:10:22Z</time>
      </trkpt>
      <trkpt lat="44.60368" lon="6.85086">
        <ele>2406.3</ele>
        <time>2013-09-01T15:10:29Z</time>
      </trkpt>
      <trkpt lat="44.60371" lon="6.85084">
        <ele>2406.8</ele>
        <time>2013-09-01T15:10:57Z</time>
      </trkpt>
      <trkpt lat="44.60374" lon="6.85094">
        <ele>2403.9</ele>
        <time>2013-09-01T15:11:13Z</time>
      </trkpt>
      <trkpt lat="44.60378" lon="6.851">
        <ele>2403.4</ele>
        <time>2013-09-01T15:11:19Z</time>
      </trkpt>
      <trkpt lat="44.60371" lon="6.85103">
        <ele>2401</ele>
        <time>2013-09-01T15:11:31Z</time>
      </trkpt>
      <trkpt lat="44.60368" lon="6.85103">
        <ele>2401</ele>
        <time>2013-09-01T15:11:34Z</time>
      </trkpt>
      <trkpt lat="44.60367" lon="6.85103">
        <ele>2400.6</ele>
        <time>2013-09-01T15:11:35Z</time>
      </trkpt>
      <trkpt lat="44.60355" lon="6.851">
        <ele>2397.7</ele>
        <time>2013-09-01T15:11:48Z</time>
      </trkpt>
      <trkpt lat="44.6035" lon="6.85096">
        <ele>2396.7</ele>
        <time>2013-09-01T15:12:01Z</time>
      </trkpt>
      <trkpt lat="44.60349" lon="6.85096">
        <ele>2396.2</ele>
        <time>2013-09-01T15:12:02Z</time>
      </trkpt>
      <trkpt lat="44.60344" lon="6.851">
        <ele>2393.3</ele>
        <time>2013-09-01T15:12:12Z</time>
      </trkpt>
      <trkpt lat="44.60338" lon="6.85101">
        <ele>2391.4</ele>
        <time>2013-09-01T15:12:29Z</time>
      </trkpt>
      <trkpt lat="44.60331" lon="6.85099">
        <ele>2388.5</ele>
        <time>2013-09-01T15:12:42Z</time>
      </trkpt>
      <trkpt lat="44.6033" lon="6.85106">
        <ele>2387.1</ele>
        <time>2013-09-01T15:12:50Z</time>
      </trkpt>
      <trkpt lat="44.6033" lon="6.85108">
        <ele>2387.6</ele>
        <time>2013-09-01T15:12:51Z</time>
      </trkpt>
      <trkpt lat="44.6033" lon="6.85111">
        <ele>2387.1</ele>
        <time>2013-09-01T15:12:52Z</time>
      </trkpt>
      <trkpt lat="44.6033" lon="6.85118">
        <ele>2385.7</ele>
        <time>2013-09-01T15:12:54Z</time>
      </trkpt>
      <trkpt lat="44.60328" lon="6.85131">
        <ele>2383.3</ele>
        <time>2013-09-01T15:12:58Z</time>
      </trkpt>
      <trkpt lat="44.60323" lon="6.85146">
        <ele>2379.9</ele>
        <time>2013-09-01T15:13:05Z</time>
      </trkpt>
      <trkpt lat="44.60323" lon="6.85147">
        <ele>2379.9</ele>
        <time>2013-09-01T15:13:06Z</time>
      </trkpt>
      <trkpt lat="44.60322" lon="6.8516">
        <ele>2377</ele>
        <time>2013-09-01T15:13:16Z</time>
      </trkpt>
      <trkpt lat="44.60321" lon="6.85166">
        <ele>2376</ele>
        <time>2013-09-01T15:13:19Z</time>
      </trkpt>
      <trkpt lat="44.60326" lon="6.85182">
        <ele>2373.2</ele>
        <time>2013-09-01T15:13:24Z</time>
      </trkpt>
      <trkpt lat="44.60325" lon="6.85188">
        <ele>2373.2</ele>
        <time>2013-09-01T15:13:31Z</time>
      </trkpt>
      <trkpt lat="44.60323" lon="6.85195">
        <ele>2372.2</ele>
        <time>2013-09-01T15:13:46Z</time>
      </trkpt>
      <trkpt lat="44.6032" lon="6.85203">
        <ele>2370.3</ele>
        <time>2013-09-01T15:13:56Z</time>
      </trkpt>
      <trkpt lat="44.6032" lon="6.85205">
        <ele>2370.3</ele>
        <time>2013-09-01T15:13:57Z</time>
      </trkpt>
      <trkpt lat="44.60319" lon="6.85206">
        <ele>2370.3</ele>
        <time>2013-09-01T15:13:58Z</time>
      </trkpt>
      <trkpt lat="44.60318" lon="6.85208">
        <ele>2369.8</ele>
        <time>2013-09-01T15:13:59Z</time>
      </trkpt>
      <trkpt lat="44.60318" lon="6.85209">
        <ele>2369.8</ele>
        <time>2013-09-01T15:14:00Z</time>
      </trkpt>
      <trkpt lat="44.60317" lon="6.85215">
        <ele>2367.4</ele>
        <time>2013-09-01T15:14:15Z</time>
      </trkpt>
      <trkpt lat="44.60317" lon="6.85215">
        <ele>2367.4</ele>
        <time>2013-09-01T15:14:16Z</time>
      </trkpt>
      <trkpt lat="44.60319" lon="6.8522">
        <ele>2367.9</ele>
        <time>2013-09-01T15:14:43Z</time>
      </trkpt>
      <trkpt lat="44.60312" lon="6.8523">
        <ele>2364.5</ele>
        <time>2013-09-01T15:14:52Z</time>
      </trkpt>
      <trkpt lat="44.60308" lon="6.85239">
        <ele>2362.6</ele>
        <time>2013-09-01T15:15:03Z</time>
      </trkpt>
      <trkpt lat="44.60308" lon="6.85254">
        <ele>2359.7</ele>
        <time>2013-09-01T15:15:10Z</time>
      </trkpt>
      <trkpt lat="44.60307" lon="6.85255">
        <ele>2359.2</ele>
        <time>2013-09-01T15:15:11Z</time>
      </trkpt>
      <trkpt lat="44.60306" lon="6.85256">
        <ele>2358.7</ele>
        <time>2013-09-01T15:15:12Z</time>
      </trkpt>
      <trkpt lat="44.60306" lon="6.85258">
        <ele>2358.3</ele>
        <time>2013-09-01T15:15:13Z</time>
      </trkpt>
      <trkpt lat="44.60305" lon="6.8526">
        <ele>2357.8</ele>
        <time>2013-09-01T15:15:14Z</time>
      </trkpt>
      <trkpt lat="44.60303" lon="6.85261">
        <ele>2357.3</ele>
        <time>2013-09-01T15:15:15Z</time>
      </trkpt>
      <trkpt lat="44.60303" lon="6.85263">
        <ele>2356.8</ele>
        <time>2013-09-01T15:15:16Z</time>
      </trkpt>
      <trkpt lat="44.60303" lon="6.85265">
        <ele>2356.3</ele>
        <time>2013-09-01T15:15:17Z</time>
      </trkpt>
      <trkpt lat="44.60302" lon="6.85267">
        <ele>2355.4</ele>
        <time>2013-09-01T15:15:18Z</time>
      </trkpt>
      <trkpt lat="44.60302" lon="6.85268">
        <ele>2354.9</ele>
        <time>2013-09-01T15:15:19Z</time>
      </trkpt>
      <trkpt lat="44.60301" lon="6.8527">
        <ele>2354.9</ele>
        <time>2013-09-01T15:15:20Z</time>
      </trkpt>
      <trkpt lat="44.603" lon="6.85271">
        <ele>2353.4</ele>
        <time>2013-09-01T15:15:22Z</time>
      </trkpt>
      <trkpt lat="44.60294" lon="6.85273">
        <ele>2351.5</ele>
        <time>2013-09-01T15:15:33Z</time>
      </trkpt>
      <trkpt lat="44.6029" lon="6.85288">
        <ele>2348.6</ele>
        <time>2013-09-01T15:15:46Z</time>
      </trkpt>
      <trkpt lat="44.6029" lon="6.85295">
        <ele>2347.7</ele>
        <time>2013-09-01T15:15:52Z</time>
      </trkpt>
      <trkpt lat="44.60289" lon="6.85305">
        <ele>2347.7</ele>
        <time>2013-09-01T15:16:01Z</time>
      </trkpt>
      <trkpt lat="44.60289" lon="6.85307">
        <ele>2347.7</ele>
        <time>2013-09-01T15:16:02Z</time>
      </trkpt>
      <trkpt lat="44.60284" lon="6.85322">
        <ele>2347.2</ele>
        <time>2013-09-01T15:16:14Z</time>
      </trkpt>
      <trkpt lat="44.60281" lon="6.85337">
        <ele>2345.8</ele>
        <time>2013-09-01T15:16:24Z</time>
      </trkpt>
      <trkpt lat="44.6028" lon="6.85342">
        <ele>2347.7</ele>
        <time>2013-09-01T15:16:29Z</time>
      </trkpt>
      <trkpt lat="44.60281" lon="6.85353">
        <ele>2347.2</ele>
        <time>2013-09-01T15:16:45Z</time>
      </trkpt>
      <trkpt lat="44.60281" lon="6.85359">
        <ele>2346.7</ele>
        <time>2013-09-01T15:17:02Z</time>
      </trkpt>
      <trkpt lat="44.60282" lon="6.85364">
        <ele>2345.8</ele>
        <time>2013-09-01T15:17:06Z</time>
      </trkpt>
      <trkpt lat="44.60282" lon="6.85366">
        <ele>2346.2</ele>
        <time>2013-09-01T15:17:07Z</time>
      </trkpt>
      <trkpt lat="44.60283" lon="6.8537">
        <ele>2344.8</ele>
        <time>2013-09-01T15:17:18Z</time>
      </trkpt>
      <trkpt lat="44.6028" lon="6.85375">
        <ele>2344.3</ele>
        <time>2013-09-01T15:17:24Z</time>
      </trkpt>
      <trkpt lat="44.60274" lon="6.8538">
        <ele>2341</ele>
        <time>2013-09-01T15:17:36Z</time>
      </trkpt>
      <trkpt lat="44.60267" lon="6.85385">
        <ele>2339.5</ele>
        <time>2013-09-01T15:17:51Z</time>
      </trkpt>
      <trkpt lat="44.6026" lon="6.85398">
        <ele>2336.6</ele>
        <time>2013-09-01T15:18:08Z</time>
      </trkpt>
      <trkpt lat="44.60253" lon="6.85405">
        <ele>2333.3</ele>
        <time>2013-09-01T15:18:21Z</time>
      </trkpt>
      <trkpt lat="44.60245" lon="6.85415">
        <ele>2329.9</ele>
        <time>2013-09-01T15:18:36Z</time>
      </trkpt>
      <trkpt lat="44.60242" lon="6.85419">
        <ele>2328.9</ele>
        <time>2013-09-01T15:18:47Z</time>
      </trkpt>
      <trkpt lat="44.6024" lon="6.85422">
        <ele>2328</ele>
        <time>2013-09-01T15:19:04Z</time>
      </trkpt>
      <trkpt lat="44.60236" lon="6.8543">
        <ele>2325.1</ele>
        <time>2013-09-01T15:19:17Z</time>
      </trkpt>
      <trkpt lat="44.60235" lon="6.85433">
        <ele>2325.1</ele>
        <time>2013-09-01T15:19:22Z</time>
      </trkpt>
      <trkpt lat="44.60235" lon="6.85436">
        <ele>2324.6</ele>
        <time>2013-09-01T15:19:23Z</time>
      </trkpt>
      <trkpt lat="44.60232" lon="6.85448">
        <ele>2322.7</ele>
        <time>2013-09-01T15:19:27Z</time>
      </trkpt>
      <trkpt lat="44.60228" lon="6.85456">
        <ele>2320.8</ele>
        <time>2013-09-01T15:19:31Z</time>
      </trkpt>
      <trkpt lat="44.60226" lon="6.85459">
        <ele>2319.3</ele>
        <time>2013-09-01T15:19:33Z</time>
      </trkpt>
      <trkpt lat="44.60225" lon="6.8546">
        <ele>2319.3</ele>
        <time>2013-09-01T15:19:34Z</time>
      </trkpt>
      <trkpt lat="44.60223" lon="6.85456">
        <ele>2318.4</ele>
        <time>2013-09-01T15:19:37Z</time>
      </trkpt>
      <trkpt lat="44.60222" lon="6.85453">
        <ele>2317.9</ele>
        <time>2013-09-01T15:19:38Z</time>
      </trkpt>
      <trkpt lat="44.60222" lon="6.8545">
        <ele>2317.9</ele>
        <time>2013-09-01T15:19:39Z</time>
      </trkpt>
      <trkpt lat="44.60221" lon="6.85446">
        <ele>2316.9</ele>
        <time>2013-09-01T15:19:40Z</time>
      </trkpt>
      <trkpt lat="44.60213" lon="6.85435">
        <ele>2314.5</ele>
        <time>2013-09-01T15:19:49Z</time>
      </trkpt>
      <trkpt lat="44.60212" lon="6.85436">
        <ele>2314</ele>
        <time>2013-09-01T15:19:50Z</time>
      </trkpt>
      <trkpt lat="44.60211" lon="6.85438">
        <ele>2313.6</ele>
        <time>2013-09-01T15:19:51Z</time>
      </trkpt>
      <trkpt lat="44.60207" lon="6.85459">
        <ele>2311.2</ele>
        <time>2013-09-01T15:19:58Z</time>
      </trkpt>
      <trkpt lat="44.60203" lon="6.85493">
        <ele>2309.2</ele>
        <time>2013-09-01T15:20:07Z</time>
      </trkpt>
      <trkpt lat="44.60201" lon="6.85497">
        <ele>2308.7</ele>
        <time>2013-09-01T15:20:20Z</time>
      </trkpt>
      <trkpt lat="44.60197" lon="6.85504">
        <ele>2308.3</ele>
        <time>2013-09-01T15:20:35Z</time>
      </trkpt>
      <trkpt lat="44.60198" lon="6.85513">
        <ele>2309.2</ele>
        <time>2013-09-01T15:20:52Z</time>
      </trkpt>
      <trkpt lat="44.60195" lon="6.85524">
        <ele>2306.8</ele>
        <time>2013-09-01T15:21:08Z</time>
      </trkpt>
      <trkpt lat="44.60191" lon="6.85531">
        <ele>2303.5</ele>
        <time>2013-09-01T15:21:23Z</time>
      </trkpt>
      <trkpt lat="44.6019" lon="6.85535">
        <ele>2303.5</ele>
        <time>2013-09-01T15:21:28Z</time>
      </trkpt>
      <trkpt lat="44.60186" lon="6.85543">
        <ele>2301.1</ele>
        <time>2013-09-01T15:21:40Z</time>
      </trkpt>
      <trkpt lat="44.60182" lon="6.85549">
        <ele>2297.7</ele>
        <time>2013-09-01T15:21:47Z</time>
      </trkpt>
      <trkpt lat="44.60181" lon="6.8555">
        <ele>2297.2</ele>
        <time>2013-09-01T15:21:48Z</time>
      </trkpt>
      <trkpt lat="44.60175" lon="6.85556">
        <ele>2293.8</ele>
        <time>2013-09-01T15:22:00Z</time>
      </trkpt>
      <trkpt lat="44.60172" lon="6.8555">
        <ele>2292.4</ele>
        <time>2013-09-01T15:22:12Z</time>
      </trkpt>
      <trkpt lat="44.60171" lon="6.85548">
        <ele>2291.9</ele>
        <time>2013-09-01T15:22:13Z</time>
      </trkpt>
      <trkpt lat="44.60171" lon="6.85546">
        <ele>2291.9</ele>
        <time>2013-09-01T15:22:14Z</time>
      </trkpt>
      <trkpt lat="44.60171" lon="6.85545">
        <ele>2291.4</ele>
        <time>2013-09-01T15:22:15Z</time>
      </trkpt>
      <trkpt lat="44.6017" lon="6.85543">
        <ele>2291</ele>
        <time>2013-09-01T15:22:16Z</time>
      </trkpt>
      <trkpt lat="44.60168" lon="6.85539">
        <ele>2289.5</ele>
        <time>2013-09-01T15:22:20Z</time>
      </trkpt>
      <trkpt lat="44.60168" lon="6.85535">
        <ele>2288.6</ele>
        <time>2013-09-01T15:22:26Z</time>
      </trkpt>
      <trkpt lat="44.60168" lon="6.85533">
        <ele>2288.6</ele>
        <time>2013-09-01T15:22:27Z</time>
      </trkpt>
      <trkpt lat="44.60168" lon="6.8553">
        <ele>2287.6</ele>
        <time>2013-09-01T15:22:33Z</time>
      </trkpt>
      <trkpt lat="44.60167" lon="6.85529">
        <ele>2287.6</ele>
        <time>2013-09-01T15:22:34Z</time>
      </trkpt>
      <trkpt lat="44.60166" lon="6.85528">
        <ele>2287.1</ele>
        <time>2013-09-01T15:22:35Z</time>
      </trkpt>
      <trkpt lat="44.60166" lon="6.85526">
        <ele>2286.6</ele>
        <time>2013-09-01T15:22:36Z</time>
      </trkpt>
      <trkpt lat="44.60165" lon="6.85524">
        <ele>2285.7</ele>
        <time>2013-09-01T15:22:37Z</time>
      </trkpt>
      <trkpt lat="44.60165" lon="6.85521">
        <ele>2285.2</ele>
        <time>2013-09-01T15:22:38Z</time>
      </trkpt>
      <trkpt lat="44.60163" lon="6.85519">
        <ele>2285.2</ele>
        <time>2013-09-01T15:22:39Z</time>
      </trkpt>
      <trkpt lat="44.60162" lon="6.85517">
        <ele>2284.2</ele>
        <time>2013-09-01T15:22:40Z</time>
      </trkpt>
      <trkpt lat="44.60162" lon="6.85514">
        <ele>2283.8</ele>
        <time>2013-09-01T15:22:41Z</time>
      </trkpt>
      <trkpt lat="44.60162" lon="6.85511">
        <ele>2283.8</ele>
        <time>2013-09-01T15:22:42Z</time>
      </trkpt>
      <trkpt lat="44.60162" lon="6.85508">
        <ele>2282.8</ele>
        <time>2013-09-01T15:22:43Z</time>
      </trkpt>
      <trkpt lat="44.60162" lon="6.85506">
        <ele>2282.3</ele>
        <time>2013-09-01T15:22:44Z</time>
      </trkpt>
      <trkpt lat="44.60159" lon="6.85501">
        <ele>2281.4</ele>
        <time>2013-09-01T15:22:55Z</time>
      </trkpt>
      <trkpt lat="44.60158" lon="6.85492">
        <ele>2278.9</ele>
        <time>2013-09-01T15:23:07Z</time>
      </trkpt>
      <trkpt lat="44.60157" lon="6.85487">
        <ele>2278</ele>
        <time>2013-09-01T15:23:12Z</time>
      </trkpt>
      <trkpt lat="44.60156" lon="6.85486">
        <ele>2277</ele>
        <time>2013-09-01T15:23:13Z</time>
      </trkpt>
      <trkpt lat="44.60155" lon="6.85486">
        <ele>2277</ele>
        <time>2013-09-01T15:23:14Z</time>
      </trkpt>
      <trkpt lat="44.60153" lon="6.85478">
        <ele>2274.1</ele>
        <time>2013-09-01T15:23:24Z</time>
      </trkpt>
      <trkpt lat="44.60148" lon="6.85473">
        <ele>2271.3</ele>
        <time>2013-09-01T15:23:37Z</time>
      </trkpt>
      <trkpt lat="44.60142" lon="6.85467">
        <ele>2268.9</ele>
        <time>2013-09-01T15:23:50Z</time>
      </trkpt>
      <trkpt lat="44.60137" lon="6.8546">
        <ele>2265.5</ele>
        <time>2013-09-01T15:24:02Z</time>
      </trkpt>
      <trkpt lat="44.60131" lon="6.85461">
        <ele>2262.6</ele>
        <time>2013-09-01T15:24:13Z</time>
      </trkpt>
      <trkpt lat="44.60131" lon="6.85463">
        <ele>2262.6</ele>
        <time>2013-09-01T15:24:14Z</time>
      </trkpt>
      <trkpt lat="44.60129" lon="6.85466">
        <ele>2260.7</ele>
        <time>2013-09-01T15:24:21Z</time>
      </trkpt>
      <trkpt lat="44.60128" lon="6.85465">
        <ele>2260.7</ele>
        <time>2013-09-01T15:24:22Z</time>
      </trkpt>
      <trkpt lat="44.60125" lon="6.8546">
        <ele>2259.7</ele>
        <time>2013-09-01T15:24:26Z</time>
      </trkpt>
      <trkpt lat="44.6012" lon="6.85465">
        <ele>2257.3</ele>
        <time>2013-09-01T15:24:37Z</time>
      </trkpt>
      <trkpt lat="44.60116" lon="6.85458">
        <ele>2254.4</ele>
        <time>2013-09-01T15:24:48Z</time>
      </trkpt>
      <trkpt lat="44.60112" lon="6.85456">
        <ele>2251.5</ele>
        <time>2013-09-01T15:25:03Z</time>
      </trkpt>
      <trkpt lat="44.60111" lon="6.85445">
        <ele>2248.2</ele>
        <time>2013-09-01T15:25:15Z</time>
      </trkpt>
      <trkpt lat="44.60111" lon="6.85438">
        <ele>2245.8</ele>
        <time>2013-09-01T15:25:26Z</time>
      </trkpt>
      <trkpt lat="44.60114" lon="6.85431">
        <ele>2243.4</ele>
        <time>2013-09-01T15:25:36Z</time>
      </trkpt>
      <trkpt lat="44.60105" lon="6.85435">
        <ele>2241</ele>
        <time>2013-09-01T15:25:51Z</time>
      </trkpt>
      <trkpt lat="44.60103" lon="6.85428">
        <ele>2239.1</ele>
        <time>2013-09-01T15:26:07Z</time>
      </trkpt>
      <trkpt lat="44.60103" lon="6.85415">
        <ele>2236.2</ele>
        <time>2013-09-01T15:26:18Z</time>
      </trkpt>
      <trkpt lat="44.60101" lon="6.85418">
        <ele>2235.7</ele>
        <time>2013-09-01T15:26:29Z</time>
      </trkpt>
      <trkpt lat="44.60095" lon="6.85421">
        <ele>2233.3</ele>
        <time>2013-09-01T15:26:44Z</time>
      </trkpt>
      <trkpt lat="44.60096" lon="6.85416">
        <ele>2232.3</ele>
        <time>2013-09-01T15:26:59Z</time>
      </trkpt>
      <trkpt lat="44.60095" lon="6.8541">
        <ele>2230.9</ele>
        <time>2013-09-01T15:27:11Z</time>
      </trkpt>
      <trkpt lat="44.60094" lon="6.85401">
        <ele>2229.4</ele>
        <time>2013-09-01T15:27:24Z</time>
      </trkpt>
      <trkpt lat="44.60089" lon="6.85393">
        <ele>2226.1</ele>
        <time>2013-09-01T15:27:35Z</time>
      </trkpt>
      <trkpt lat="44.60088" lon="6.85382">
        <ele>2224.6</ele>
        <time>2013-09-01T15:27:46Z</time>
      </trkpt>
      <trkpt lat="44.60088" lon="6.85375">
        <ele>2222.7</ele>
        <time>2013-09-01T15:28:01Z</time>
      </trkpt>
      <trkpt lat="44.60086" lon="6.85369">
        <ele>2221.7</ele>
        <time>2013-09-01T15:28:14Z</time>
      </trkpt>
      <trkpt lat="44.60083" lon="6.85358">
        <ele>2218.9</ele>
        <time>2013-09-01T15:28:28Z</time>
      </trkpt>
      <trkpt lat="44.60083" lon="6.85347">
        <ele>2216.5</ele>
        <time>2013-09-01T15:28:42Z</time>
      </trkpt>
      <trkpt lat="44.60079" lon="6.85346">
        <ele>2215</ele>
        <time>2013-09-01T15:28:54Z</time>
      </trkpt>
      <trkpt lat="44.60075" lon="6.85335">
        <ele>2211.7</ele>
        <time>2013-09-01T15:29:07Z</time>
      </trkpt>
      <trkpt lat="44.60071" lon="6.85336">
        <ele>2209.3</ele>
        <time>2013-09-01T15:29:20Z</time>
      </trkpt>
      <trkpt lat="44.60071" lon="6.85337">
        <ele>2208.8</ele>
        <time>2013-09-01T15:29:21Z</time>
      </trkpt>
      <trkpt lat="44.60069" lon="6.85341">
        <ele>2207.8</ele>
        <time>2013-09-01T15:29:25Z</time>
      </trkpt>
      <trkpt lat="44.60064" lon="6.85333">
        <ele>2205.9</ele>
        <time>2013-09-01T15:29:39Z</time>
      </trkpt>
      <trkpt lat="44.60061" lon="6.85322">
        <ele>2203</ele>
        <time>2013-09-01T15:29:52Z</time>
      </trkpt>
      <trkpt lat="44.60059" lon="6.85311">
        <ele>2201.1</ele>
        <time>2013-09-01T15:30:06Z</time>
      </trkpt>
      <trkpt lat="44.6006" lon="6.85297">
        <ele>2198.7</ele>
        <time>2013-09-01T15:30:21Z</time>
      </trkpt>
      <trkpt lat="44.60059" lon="6.85288">
        <ele>2196.3</ele>
        <time>2013-09-01T15:30:30Z</time>
      </trkpt>
      <trkpt lat="44.60059" lon="6.85284">
        <ele>2194.8</ele>
        <time>2013-09-01T15:30:34Z</time>
      </trkpt>
      <trkpt lat="44.60059" lon="6.85279">
        <ele>2194.4</ele>
        <time>2013-09-01T15:30:40Z</time>
      </trkpt>
      <trkpt lat="44.60059" lon="6.85278">
        <ele>2193.9</ele>
        <time>2013-09-01T15:30:41Z</time>
      </trkpt>
      <trkpt lat="44.60052" lon="6.85272">
        <ele>2191</ele>
        <time>2013-09-01T15:30:53Z</time>
      </trkpt>
      <trkpt lat="44.60049" lon="6.8527">
        <ele>2189.5</ele>
        <time>2013-09-01T15:31:09Z</time>
      </trkpt>
      <trkpt lat="44.60047" lon="6.85268">
        <ele>2189.1</ele>
        <time>2013-09-01T15:31:23Z</time>
      </trkpt>
      <trkpt lat="44.60047" lon="6.8527">
        <ele>2188.1</ele>
        <time>2013-09-01T15:31:45Z</time>
      </trkpt>
      <trkpt lat="44.60047" lon="6.8527">
        <ele>2187.6</ele>
        <time>2013-09-01T15:32:20Z</time>
      </trkpt>
      <trkpt lat="44.60047" lon="6.85268">
        <ele>2187.1</ele>
        <time>2013-09-01T15:32:57Z</time>
      </trkpt>
      <trkpt lat="44.60045" lon="6.85268">
        <ele>2187.6</ele>
        <time>2013-09-01T15:33:26Z</time>
      </trkpt>
      <trkpt lat="44.60047" lon="6.85268">
        <ele>2187.6</ele>
        <time>2013-09-01T15:33:59Z</time>
      </trkpt>
      <trkpt lat="44.60048" lon="6.85267">
        <ele>2187.1</ele>
        <time>2013-09-01T15:34:29Z</time>
      </trkpt>
      <trkpt lat="44.60042" lon="6.85255">
        <ele>2184.7</ele>
        <time>2013-09-01T15:34:43Z</time>
      </trkpt>
      <trkpt lat="44.60035" lon="6.85248">
        <ele>2181.4</ele>
        <time>2013-09-01T15:34:56Z</time>
      </trkpt>
      <trkpt lat="44.60029" lon="6.8524">
        <ele>2179.5</ele>
        <time>2013-09-01T15:35:09Z</time>
      </trkpt>
      <trkpt lat="44.60029" lon="6.85237">
        <ele>2178</ele>
        <time>2013-09-01T15:35:20Z</time>
      </trkpt>
      <trkpt lat="44.60028" lon="6.85236">
        <ele>2178</ele>
        <time>2013-09-01T15:35:21Z</time>
      </trkpt>
      <trkpt lat="44.60028" lon="6.85234">
        <ele>2177.5</ele>
        <time>2013-09-01T15:35:22Z</time>
      </trkpt>
      <trkpt lat="44.60026" lon="6.85233">
        <ele>2177.5</ele>
        <time>2013-09-01T15:35:33Z</time>
      </trkpt>
      <trkpt lat="44.60024" lon="6.8523">
        <ele>2177</ele>
        <time>2013-09-01T15:35:39Z</time>
      </trkpt>
      <trkpt lat="44.60023" lon="6.85229">
        <ele>2176.6</ele>
        <time>2013-09-01T15:35:40Z</time>
      </trkpt>
      <trkpt lat="44.6002" lon="6.85221">
        <ele>2174.2</ele>
        <time>2013-09-01T15:35:53Z</time>
      </trkpt>
      <trkpt lat="44.60013" lon="6.85205">
        <ele>2172.2</ele>
        <time>2013-09-01T15:36:08Z</time>
      </trkpt>
      <trkpt lat="44.60008" lon="6.85193">
        <ele>2170.8</ele>
        <time>2013-09-01T15:36:21Z</time>
      </trkpt>
      <trkpt lat="44.60003" lon="6.85184">
        <ele>2169.8</ele>
        <time>2013-09-01T15:36:35Z</time>
      </trkpt>
      <trkpt lat="44.60003" lon="6.85179">
        <ele>2167.9</ele>
        <time>2013-09-01T15:36:59Z</time>
      </trkpt>
      <trkpt lat="44.60002" lon="6.85174">
        <ele>2167.4</ele>
        <time>2013-09-01T15:37:21Z</time>
      </trkpt>
      <trkpt lat="44.59998" lon="6.8516">
        <ele>2165</ele>
        <time>2013-09-01T15:37:34Z</time>
      </trkpt>
      <trkpt lat="44.59991" lon="6.85144">
        <ele>2165</ele>
        <time>2013-09-01T15:37:49Z</time>
      </trkpt>
      <trkpt lat="44.59989" lon="6.85136">
        <ele>2165.5</ele>
        <time>2013-09-01T15:38:06Z</time>
      </trkpt>
      <trkpt lat="44.59988" lon="6.85128">
        <ele>2165.5</ele>
        <time>2013-09-01T15:38:35Z</time>
      </trkpt>
      <trkpt lat="44.59986" lon="6.85116">
        <ele>2164.6</ele>
        <time>2013-09-01T15:38:50Z</time>
      </trkpt>
      <trkpt lat="44.59983" lon="6.85107">
        <ele>2165</ele>
        <time>2013-09-01T15:39:03Z</time>
      </trkpt>
      <trkpt lat="44.59982" lon="6.85101">
        <ele>2164.6</ele>
        <time>2013-09-01T15:39:23Z</time>
      </trkpt>
      <trkpt lat="44.5998" lon="6.85086">
        <ele>2162.6</ele>
        <time>2013-09-01T15:39:38Z</time>
      </trkpt>
      <trkpt lat="44.59973" lon="6.85081">
        <ele>2159.7</ele>
        <time>2013-09-01T15:39:53Z</time>
      </trkpt>
      <trkpt lat="44.59965" lon="6.85075">
        <ele>2156.9</ele>
        <time>2013-09-01T15:40:07Z</time>
      </trkpt>
      <trkpt lat="44.59959" lon="6.85069">
        <ele>2154.5</ele>
        <time>2013-09-01T15:40:18Z</time>
      </trkpt>
      <trkpt lat="44.59958" lon="6.85068">
        <ele>2154.5</ele>
        <time>2013-09-01T15:40:19Z</time>
      </trkpt>
      <trkpt lat="44.59951" lon="6.8505">
        <ele>2153.5</ele>
        <time>2013-09-01T15:40:34Z</time>
      </trkpt>
      <trkpt lat="44.59945" lon="6.85039">
        <ele>2152.5</ele>
        <time>2013-09-01T15:40:46Z</time>
      </trkpt>
      <trkpt lat="44.59939" lon="6.85031">
        <ele>2150.6</ele>
        <time>2013-09-01T15:40:58Z</time>
      </trkpt>
      <trkpt lat="44.59939" lon="6.8503">
        <ele>2150.1</ele>
        <time>2013-09-01T15:40:59Z</time>
      </trkpt>
      <trkpt lat="44.59937" lon="6.8502">
        <ele>2149.7</ele>
        <time>2013-09-01T15:41:14Z</time>
      </trkpt>
      <trkpt lat="44.59936" lon="6.85014">
        <ele>2148.7</ele>
        <time>2013-09-01T15:41:33Z</time>
      </trkpt>
      <trkpt lat="44.59935" lon="6.85007">
        <ele>2146.8</ele>
        <time>2013-09-01T15:41:40Z</time>
      </trkpt>
      <trkpt lat="44.59935" lon="6.84994">
        <ele>2143.9</ele>
        <time>2013-09-01T15:41:56Z</time>
      </trkpt>
      <trkpt lat="44.5993" lon="6.8499">
        <ele>2142</ele>
        <time>2013-09-01T15:42:09Z</time>
      </trkpt>
      <trkpt lat="44.59923" lon="6.84984">
        <ele>2139.1</ele>
        <time>2013-09-01T15:42:21Z</time>
      </trkpt>
      <trkpt lat="44.59919" lon="6.84975">
        <ele>2135.7</ele>
        <time>2013-09-01T15:42:32Z</time>
      </trkpt>
      <trkpt lat="44.59913" lon="6.8497">
        <ele>2133.3</ele>
        <time>2013-09-01T15:42:46Z</time>
      </trkpt>
      <trkpt lat="44.59911" lon="6.84969">
        <ele>2131.4</ele>
        <time>2013-09-01T15:42:59Z</time>
      </trkpt>
      <trkpt lat="44.59906" lon="6.84966">
        <ele>2130.4</ele>
        <time>2013-09-01T15:43:13Z</time>
      </trkpt>
      <trkpt lat="44.59905" lon="6.84964">
        <ele>2130.4</ele>
        <time>2013-09-01T15:43:15Z</time>
      </trkpt>
      <trkpt lat="44.59903" lon="6.84964">
        <ele>2129.5</ele>
        <time>2013-09-01T15:43:16Z</time>
      </trkpt>
      <trkpt lat="44.59901" lon="6.84963">
        <ele>2129</ele>
        <time>2013-09-01T15:43:17Z</time>
      </trkpt>
      <trkpt lat="44.59899" lon="6.84961">
        <ele>2129</ele>
        <time>2013-09-01T15:43:18Z</time>
      </trkpt>
      <trkpt lat="44.59897" lon="6.84959">
        <ele>2128</ele>
        <time>2013-09-01T15:43:19Z</time>
      </trkpt>
      <trkpt lat="44.59895" lon="6.84957">
        <ele>2127.5</ele>
        <time>2013-09-01T15:43:20Z</time>
      </trkpt>
      <trkpt lat="44.59893" lon="6.84956">
        <ele>2127.5</ele>
        <time>2013-09-01T15:43:21Z</time>
      </trkpt>
      <trkpt lat="44.59891" lon="6.84954">
        <ele>2126.1</ele>
        <time>2013-09-01T15:43:23Z</time>
      </trkpt>
      <trkpt lat="44.59886" lon="6.84951">
        <ele>2124.2</ele>
        <time>2013-09-01T15:43:31Z</time>
      </trkpt>
      <trkpt lat="44.59885" lon="6.8495">
        <ele>2124.2</ele>
        <time>2013-09-01T15:43:32Z</time>
      </trkpt>
      <trkpt lat="44.59884" lon="6.84948">
        <ele>2123.7</ele>
        <time>2013-09-01T15:43:33Z</time>
      </trkpt>
      <trkpt lat="44.59883" lon="6.84948">
        <ele>2122.7</ele>
        <time>2013-09-01T15:43:35Z</time>
      </trkpt>
      <trkpt lat="44.5988" lon="6.84943">
        <ele>2121.3</ele>
        <time>2013-09-01T15:43:49Z</time>
      </trkpt>
      <trkpt lat="44.59875" lon="6.84935">
        <ele>2118.4</ele>
        <time>2013-09-01T15:44:00Z</time>
      </trkpt>
      <trkpt lat="44.59873" lon="6.84925">
        <ele>2115</ele>
        <time>2013-09-01T15:44:13Z</time>
      </trkpt>
      <trkpt lat="44.59871" lon="6.84918">
        <ele>2112.6</ele>
        <time>2013-09-01T15:44:19Z</time>
      </trkpt>
      <trkpt lat="44.59867" lon="6.8491">
        <ele>2109.3</ele>
        <time>2013-09-01T15:44:31Z</time>
      </trkpt>
      <trkpt lat="44.59864" lon="6.84899">
        <ele>2105.9</ele>
        <time>2013-09-01T15:44:42Z</time>
      </trkpt>
      <trkpt lat="44.59859" lon="6.84896">
        <ele>2104</ele>
        <time>2013-09-01T15:44:52Z</time>
      </trkpt>
      <trkpt lat="44.59858" lon="6.84896">
        <ele>2103.5</ele>
        <time>2013-09-01T15:44:53Z</time>
      </trkpt>
      <trkpt lat="44.59852" lon="6.84894">
        <ele>2102.5</ele>
        <time>2013-09-01T15:45:00Z</time>
      </trkpt>
      <trkpt lat="44.59848" lon="6.84892">
        <ele>2101.6</ele>
        <time>2013-09-01T15:45:06Z</time>
      </trkpt>
      <trkpt lat="44.59842" lon="6.84886">
        <ele>2098.2</ele>
        <time>2013-09-01T15:45:17Z</time>
      </trkpt>
      <trkpt lat="44.59835" lon="6.84885">
        <ele>2095.3</ele>
        <time>2013-09-01T15:45:33Z</time>
      </trkpt>
      <trkpt lat="44.59833" lon="6.84882">
        <ele>2094.4</ele>
        <time>2013-09-01T15:45:40Z</time>
      </trkpt>
      <trkpt lat="44.59827" lon="6.84879">
        <ele>2092.5</ele>
        <time>2013-09-01T15:45:52Z</time>
      </trkpt>
      <trkpt lat="44.59824" lon="6.84877">
        <ele>2091</ele>
        <time>2013-09-01T15:46:04Z</time>
      </trkpt>
      <trkpt lat="44.59823" lon="6.84879">
        <ele>2089.6</ele>
        <time>2013-09-01T15:46:15Z</time>
      </trkpt>
      <trkpt lat="44.59818" lon="6.84877">
        <ele>2087.2</ele>
        <time>2013-09-01T15:46:27Z</time>
      </trkpt>
      <trkpt lat="44.59812" lon="6.84876">
        <ele>2084.8</ele>
        <time>2013-09-01T15:46:40Z</time>
      </trkpt>
      <trkpt lat="44.59806" lon="6.84867">
        <ele>2081.9</ele>
        <time>2013-09-01T15:46:55Z</time>
      </trkpt>
      <trkpt lat="44.59803" lon="6.84876">
        <ele>2079.5</ele>
        <time>2013-09-01T15:47:09Z</time>
      </trkpt>
      <trkpt lat="44.59796" lon="6.8487">
        <ele>2076.1</ele>
        <time>2013-09-01T15:47:21Z</time>
      </trkpt>
      <trkpt lat="44.59791" lon="6.84866">
        <ele>2074.2</ele>
        <time>2013-09-01T15:47:35Z</time>
      </trkpt>
      <trkpt lat="44.59791" lon="6.84874">
        <ele>2072.3</ele>
        <time>2013-09-01T15:47:50Z</time>
      </trkpt>
      <trkpt lat="44.59789" lon="6.84878">
        <ele>2069.9</ele>
        <time>2013-09-01T15:48:05Z</time>
      </trkpt>
      <trkpt lat="44.59785" lon="6.84883">
        <ele>2067.5</ele>
        <time>2013-09-01T15:48:14Z</time>
      </trkpt>
      <trkpt lat="44.59785" lon="6.84893">
        <ele>2063.6</ele>
        <time>2013-09-01T15:48:25Z</time>
      </trkpt>
      <trkpt lat="44.5978" lon="6.84903">
        <ele>2061.2</ele>
        <time>2013-09-01T15:48:39Z</time>
      </trkpt>
      <trkpt lat="44.59775" lon="6.84913">
        <ele>2057.8</ele>
        <time>2013-09-01T15:48:50Z</time>
      </trkpt>
      <trkpt lat="44.59776" lon="6.84915">
        <ele>2056.9</ele>
        <time>2013-09-01T15:49:02Z</time>
      </trkpt>
      <trkpt lat="44.59775" lon="6.84918">
        <ele>2055.9</ele>
        <time>2013-09-01T15:49:34Z</time>
      </trkpt>
      <trkpt lat="44.59775" lon="6.84921">
        <ele>2054.5</ele>
        <time>2013-09-01T15:49:46Z</time>
      </trkpt>
      <trkpt lat="44.59772" lon="6.8492">
        <ele>2054</ele>
        <time>2013-09-01T15:49:51Z</time>
      </trkpt>
      <trkpt lat="44.5977" lon="6.84919">
        <ele>2053</ele>
        <time>2013-09-01T15:49:53Z</time>
      </trkpt>
      <trkpt lat="44.59761" lon="6.8491">
        <ele>2050.2</ele>
        <time>2013-09-01T15:50:04Z</time>
      </trkpt>
      <trkpt lat="44.59755" lon="6.84904">
        <ele>2046.8</ele>
        <time>2013-09-01T15:50:15Z</time>
      </trkpt>
      <trkpt lat="44.59753" lon="6.84906">
        <ele>2046.8</ele>
        <time>2013-09-01T15:50:19Z</time>
      </trkpt>
      <trkpt lat="44.59754" lon="6.84911">
        <ele>2042.5</ele>
        <time>2013-09-01T15:50:26Z</time>
      </trkpt>
      <trkpt lat="44.59754" lon="6.84911">
        <ele>2047.8</ele>
        <time>2013-09-01T15:50:28Z</time>
      </trkpt>
      <trkpt lat="44.59754" lon="6.84911">
        <ele>2044.9</ele>
        <time>2013-09-01T15:50:29Z</time>
      </trkpt>
      <trkpt lat="44.59753" lon="6.84922">
        <ele>2042</ele>
        <time>2013-09-01T15:50:47Z</time>
      </trkpt>
      <trkpt lat="44.59751" lon="6.84928">
        <ele>2039.6</ele>
        <time>2013-09-01T15:50:56Z</time>
      </trkpt>
      <trkpt lat="44.59746" lon="6.84927">
        <ele>2037.7</ele>
        <time>2013-09-01T15:51:08Z</time>
      </trkpt>
      <trkpt lat="44.59742" lon="6.84932">
        <ele>2035.7</ele>
        <time>2013-09-01T15:51:22Z</time>
      </trkpt>
      <trkpt lat="44.59739" lon="6.84939">
        <ele>2034.8</ele>
        <time>2013-09-01T15:51:43Z</time>
      </trkpt>
      <trkpt lat="44.59734" lon="6.84942">
        <ele>2032.8</ele>
        <time>2013-09-01T15:51:51Z</time>
      </trkpt>
      <trkpt lat="44.59729" lon="6.84945">
        <ele>2031.4</ele>
        <time>2013-09-01T15:52:00Z</time>
      </trkpt>
      <trkpt lat="44.59727" lon="6.84943">
        <ele>2030</ele>
        <time>2013-09-01T15:52:02Z</time>
      </trkpt>
      <trkpt lat="44.5972" lon="6.84945">
        <ele>2027.6</ele>
        <time>2013-09-01T15:52:16Z</time>
      </trkpt>
      <trkpt lat="44.59717" lon="6.84946">
        <ele>2027.1</ele>
        <time>2013-09-01T15:52:23Z</time>
      </trkpt>
      <trkpt lat="44.59713" lon="6.84949">
        <ele>2025.2</ele>
        <time>2013-09-01T15:52:26Z</time>
      </trkpt>
      <trkpt lat="44.59699" lon="6.84948">
        <ele>2020.8</ele>
        <time>2013-09-01T15:52:32Z</time>
      </trkpt>
      <trkpt lat="44.59693" lon="6.84946">
        <ele>2018.9</ele>
        <time>2013-09-01T15:52:34Z</time>
      </trkpt>
      <trkpt lat="44.59689" lon="6.84947">
        <ele>2018.4</ele>
        <time>2013-09-01T15:52:35Z</time>
      </trkpt>
      <trkpt lat="44.59685" lon="6.84948">
        <ele>2017.9</ele>
        <time>2013-09-01T15:52:36Z</time>
      </trkpt>
      <trkpt lat="44.59676" lon="6.84951">
        <ele>2015.5</ele>
        <time>2013-09-01T15:52:38Z</time>
      </trkpt>
      <trkpt lat="44.59672" lon="6.84954">
        <ele>2014.1</ele>
        <time>2013-09-01T15:52:39Z</time>
      </trkpt>
      <trkpt lat="44.59657" lon="6.8496">
        <ele>2010.7</ele>
        <time>2013-09-01T15:52:42Z</time>
      </trkpt>
      <trkpt lat="44.59647" lon="6.84962">
        <ele>2007.9</ele>
        <time>2013-09-01T15:52:44Z</time>
      </trkpt>
      <trkpt lat="44.59642" lon="6.84965">
        <ele>2006.4</ele>
        <time>2013-09-01T15:52:45Z</time>
      </trkpt>
      <trkpt lat="44.59637" lon="6.84968">
        <ele>2005</ele>
        <time>2013-09-01T15:52:46Z</time>
      </trkpt>
      <trkpt lat="44.59631" lon="6.8497">
        <ele>2004</ele>
        <time>2013-09-01T15:52:47Z</time>
      </trkpt>
      <trkpt lat="44.59625" lon="6.84972">
        <ele>2002.6</ele>
        <time>2013-09-01T15:52:48Z</time>
      </trkpt>
      <trkpt lat="44.59609" lon="6.84978">
        <ele>1999.2</ele>
        <time>2013-09-01T15:52:51Z</time>
      </trkpt>
      <trkpt lat="44.59604" lon="6.8498">
        <ele>1998.2</ele>
        <time>2013-09-01T15:52:52Z</time>
      </trkpt>
      <trkpt lat="44.59585" lon="6.84987">
        <ele>1994.4</ele>
        <time>2013-09-01T15:52:55Z</time>
      </trkpt>
      <trkpt lat="44.59568" lon="6.84997">
        <ele>1990.6</ele>
        <time>2013-09-01T15:52:59Z</time>
      </trkpt>
      <trkpt lat="44.59566" lon="6.84996">
        <ele>1989.6</ele>
        <time>2013-09-01T15:53:01Z</time>
      </trkpt>
      <trkpt lat="44.59568" lon="6.84995">
        <ele>1990.6</ele>
        <time>2013-09-01T15:53:16Z</time>
      </trkpt>
      <trkpt lat="44.59568" lon="6.84994">
        <ele>1989.6</ele>
        <time>2013-09-01T15:53:40Z</time>
      </trkpt>
      <trkpt lat="44.59568" lon="6.84992">
        <ele>1989.6</ele>
        <time>2013-09-01T15:53:41Z</time>
      </trkpt>
      <trkpt lat="44.59568" lon="6.84989">
        <ele>1989.1</ele>
        <time>2013-09-01T15:53:42Z</time>
      </trkpt>
      <trkpt lat="44.59568" lon="6.84986">
        <ele>1989.1</ele>
        <time>2013-09-01T15:53:43Z</time>
      </trkpt>
      <trkpt lat="44.59568" lon="6.84982">
        <ele>1989.1</ele>
        <time>2013-09-01T15:53:44Z</time>
      </trkpt>
      <trkpt lat="44.59567" lon="6.84977">
        <ele>1988.6</ele>
        <time>2013-09-01T15:53:45Z</time>
      </trkpt>
      <trkpt lat="44.59559" lon="6.84927">
        <ele>1985.7</ele>
        <time>2013-09-01T15:53:53Z</time>
      </trkpt>
      <trkpt lat="44.59557" lon="6.84921">
        <ele>1985.7</ele>
        <time>2013-09-01T15:53:54Z</time>
      </trkpt>
      <trkpt lat="44.59556" lon="6.84915">
        <ele>1984.8</ele>
        <time>2013-09-01T15:53:55Z</time>
      </trkpt>
      <trkpt lat="44.59552" lon="6.84902">
        <ele>1984.3</ele>
        <time>2013-09-01T15:53:57Z</time>
      </trkpt>
      <trkpt lat="44.59532" lon="6.84863">
        <ele>1981.9</ele>
        <time>2013-09-01T15:54:04Z</time>
      </trkpt>
      <trkpt lat="44.5951" lon="6.84836">
        <ele>1980.5</ele>
        <time>2013-09-01T15:54:11Z</time>
      </trkpt>
      <trkpt lat="44.59507" lon="6.84832">
        <ele>1978.5</ele>
        <time>2013-09-01T15:54:12Z</time>
      </trkpt>
      <trkpt lat="44.59491" lon="6.84812">
        <ele>1976.1</ele>
        <time>2013-09-01T15:54:16Z</time>
      </trkpt>
      <trkpt lat="44.59489" lon="6.84805">
        <ele>1975.7</ele>
        <time>2013-09-01T15:54:17Z</time>
      </trkpt>
      <trkpt lat="44.59487" lon="6.84797">
        <ele>1974.7</ele>
        <time>2013-09-01T15:54:18Z</time>
      </trkpt>
      <trkpt lat="44.59478" lon="6.84765">
        <ele>1971.3</ele>
        <time>2013-09-01T15:54:22Z</time>
      </trkpt>
      <trkpt lat="44.59464" lon="6.84728">
        <ele>1967.5</ele>
        <time>2013-09-01T15:54:27Z</time>
      </trkpt>
      <trkpt lat="44.5945" lon="6.84687">
        <ele>1964.1</ele>
        <time>2013-09-01T15:54:32Z</time>
      </trkpt>
      <trkpt lat="44.59442" lon="6.84654">
        <ele>1960.8</ele>
        <time>2013-09-01T15:54:38Z</time>
      </trkpt>
      <trkpt lat="44.59441" lon="6.84644">
        <ele>1959.8</ele>
        <time>2013-09-01T15:54:40Z</time>
      </trkpt>
      <trkpt lat="44.5944" lon="6.84631">
        <ele>1959.8</ele>
        <time>2013-09-01T15:54:42Z</time>
      </trkpt>
      <trkpt lat="44.59437" lon="6.84612">
        <ele>1957.9</ele>
        <time>2013-09-01T15:54:45Z</time>
      </trkpt>
      <trkpt lat="44.59434" lon="6.84608">
        <ele>1957.4</ele>
        <time>2013-09-01T15:54:46Z</time>
      </trkpt>
      <trkpt lat="44.5942" lon="6.84587">
        <ele>1954</ele>
        <time>2013-09-01T15:54:50Z</time>
      </trkpt>
      <trkpt lat="44.59417" lon="6.8458">
        <ele>1952.6</ele>
        <time>2013-09-01T15:54:51Z</time>
      </trkpt>
      <trkpt lat="44.59408" lon="6.84552">
        <ele>1950.2</ele>
        <time>2013-09-01T15:54:56Z</time>
      </trkpt>
      <trkpt lat="44.59403" lon="6.84532">
        <ele>1948.3</ele>
        <time>2013-09-01T15:55:00Z</time>
      </trkpt>
      <trkpt lat="44.59401" lon="6.84516">
        <ele>1946.8</ele>
        <time>2013-09-01T15:55:04Z</time>
      </trkpt>
      <trkpt lat="44.594" lon="6.84511">
        <ele>1945.4</ele>
        <time>2013-09-01T15:55:05Z</time>
      </trkpt>
      <trkpt lat="44.59399" lon="6.84507">
        <ele>1944.9</ele>
        <time>2013-09-01T15:55:06Z</time>
      </trkpt>
      <trkpt lat="44.59399" lon="6.84502">
        <ele>1944.9</ele>
        <time>2013-09-01T15:55:07Z</time>
      </trkpt>
      <trkpt lat="44.59398" lon="6.84499">
        <ele>1943.4</ele>
        <time>2013-09-01T15:55:08Z</time>
      </trkpt>
      <trkpt lat="44.59397" lon="6.84496">
        <ele>1943.4</ele>
        <time>2013-09-01T15:55:09Z</time>
      </trkpt>
      <trkpt lat="44.59395" lon="6.84493">
        <ele>1943.4</ele>
        <time>2013-09-01T15:55:10Z</time>
      </trkpt>
      <trkpt lat="44.59394" lon="6.8449">
        <ele>1943</ele>
        <time>2013-09-01T15:55:11Z</time>
      </trkpt>
      <trkpt lat="44.59394" lon="6.84487">
        <ele>1942.5</ele>
        <time>2013-09-01T15:55:12Z</time>
      </trkpt>
      <trkpt lat="44.59392" lon="6.84483">
        <ele>1941.5</ele>
        <time>2013-09-01T15:55:13Z</time>
      </trkpt>
      <trkpt lat="44.59391" lon="6.84479">
        <ele>1941.5</ele>
        <time>2013-09-01T15:55:14Z</time>
      </trkpt>
      <trkpt lat="44.59378" lon="6.84439">
        <ele>1937.7</ele>
        <time>2013-09-01T15:55:23Z</time>
      </trkpt>
      <trkpt lat="44.59374" lon="6.84427">
        <ele>1936.7</ele>
        <time>2013-09-01T15:55:26Z</time>
      </trkpt>
      <trkpt lat="44.59367" lon="6.8441">
        <ele>1934.8</ele>
        <time>2013-09-01T15:55:31Z</time>
      </trkpt>
      <trkpt lat="44.59351" lon="6.84355">
        <ele>1932.4</ele>
        <time>2013-09-01T15:55:46Z</time>
      </trkpt>
      <trkpt lat="44.59335" lon="6.84305">
        <ele>1931</ele>
        <time>2013-09-01T15:55:55Z</time>
      </trkpt>
      <trkpt lat="44.59313" lon="6.84258">
        <ele>1929.5</ele>
        <time>2013-09-01T15:56:07Z</time>
      </trkpt>
      <trkpt lat="44.59309" lon="6.84261">
        <ele>1929</ele>
        <time>2013-09-01T15:56:16Z</time>
      </trkpt>
      <trkpt lat="44.59302" lon="6.84258">
        <ele>1928.1</ele>
        <time>2013-09-01T15:56:23Z</time>
      </trkpt>
      <trkpt lat="44.593" lon="6.84259">
        <ele>1927.6</ele>
        <time>2013-09-01T15:56:24Z</time>
      </trkpt>
      <trkpt lat="44.59293" lon="6.84273">
        <ele>1924.2</ele>
        <time>2013-09-01T15:56:34Z</time>
      </trkpt>
      <trkpt lat="44.5929" lon="6.84284">
        <ele>1923.3</ele>
        <time>2013-09-01T15:56:41Z</time>
      </trkpt>
      <trkpt lat="44.59299" lon="6.84307">
        <ele>1921.8</ele>
        <time>2013-09-01T15:56:52Z</time>
      </trkpt>
      <trkpt lat="44.593" lon="6.84309">
        <ele>1921.8</ele>
        <time>2013-09-01T15:57:05Z</time>
      </trkpt>
      <trkpt lat="44.59301" lon="6.8431">
        <ele>1920.9</ele>
        <time>2013-09-01T15:57:06Z</time>
      </trkpt>
      <trkpt lat="44.59302" lon="6.84313">
        <ele>1920.4</ele>
        <time>2013-09-01T15:57:08Z</time>
      </trkpt>
      <trkpt lat="44.59302" lon="6.84316">
        <ele>1920.4</ele>
        <time>2013-09-01T15:57:09Z</time>
      </trkpt>
      <trkpt lat="44.59301" lon="6.84317">
        <ele>1919.9</ele>
        <time>2013-09-01T15:57:10Z</time>
      </trkpt>
      <trkpt lat="44.593" lon="6.84318">
        <ele>1920.4</ele>
        <time>2013-09-01T15:57:11Z</time>
      </trkpt>
      <trkpt lat="44.59298" lon="6.84319">
        <ele>1919.4</ele>
        <time>2013-09-01T15:57:12Z</time>
      </trkpt>
      <trkpt lat="44.59287" lon="6.84323">
        <ele>1918</ele>
        <time>2013-09-01T15:57:22Z</time>
      </trkpt>
      <trkpt lat="44.59287" lon="6.84323">
        <ele>1913.2</ele>
        <time>2013-09-01T15:57:25Z</time>
      </trkpt>
      <trkpt lat="44.59287" lon="6.84323">
        <ele>1913.2</ele>
        <time>2013-09-01T15:57:27Z</time>
      </trkpt>
      <trkpt lat="44.59287" lon="6.84323">
        <ele>1918.5</ele>
        <time>2013-09-01T16:21:06Z</time>
      </trkpt>
      <trkpt lat="44.59282" lon="6.84315">
        <ele>1918.5</ele>
        <time>2013-09-01T16:21:07Z</time>
      </trkpt>
      <trkpt lat="44.59284" lon="6.84316">
        <ele>1915.1</ele>
        <time>2013-09-01T16:21:24Z</time>
      </trkpt>
      <trkpt lat="44.59284" lon="6.84316">
        <ele>1915.1</ele>
        <time>2013-09-01T16:21:25Z</time>
      </trkpt>
      <trkpt lat="44.59284" lon="6.84316">
        <ele>1913.6</ele>
        <time>2013-09-01T16:21:31Z</time>
      </trkpt>
      <trkpt lat="44.59284" lon="6.84317">
        <ele>1909.8</ele>
        <time>2013-09-01T16:21:38Z</time>
      </trkpt>
      <trkpt lat="44.59284" lon="6.84317">
        <ele>1909.8</ele>
        <time>2013-09-01T16:21:39Z</time>
      </trkpt>
      <trkpt lat="44.59284" lon="6.84317">
        <ele>1911.2</ele>
        <time>2013-09-01T16:21:41Z</time>
      </trkpt>
      <trkpt lat="44.59285" lon="6.84315">
        <ele>1907.4</ele>
        <time>2013-09-01T16:22:00Z</time>
      </trkpt>
      <trkpt lat="44.59285" lon="6.84315">
        <ele>1907.4</ele>
        <time>2013-09-01T16:22:01Z</time>
      </trkpt>
      <trkpt lat="44.59285" lon="6.84315">
        <ele>1859.8</ele>
        <time>2013-09-02T06:00:56Z</time>
      </trkpt>
      <trkpt lat="44.59301" lon="6.84316">
        <ele>1860.8</ele>
        <time>2013-09-02T06:01:12Z</time>
      </trkpt>
      <trkpt lat="44.59309" lon="6.84337">
        <ele>1862.7</ele>
        <time>2013-09-02T06:01:29Z</time>
      </trkpt>
      <trkpt lat="44.59321" lon="6.84342">
        <ele>1864.1</ele>
        <time>2013-09-02T06:01:49Z</time>
      </trkpt>
      <trkpt lat="44.59329" lon="6.84334">
        <ele>1864.6</ele>
        <time>2013-09-02T06:01:52Z</time>
      </trkpt>
      <trkpt lat="44.59338" lon="6.84341">
        <ele>1865.6</ele>
        <time>2013-09-02T06:02:06Z</time>
      </trkpt>
      <trkpt lat="44.59342" lon="6.8435">
        <ele>1868.9</ele>
        <time>2013-09-02T06:02:14Z</time>
      </trkpt>
      <trkpt lat="44.59343" lon="6.84353">
        <ele>1872.3</ele>
        <time>2013-09-02T06:02:17Z</time>
      </trkpt>
      <trkpt lat="44.59344" lon="6.84356">
        <ele>1876.6</ele>
        <time>2013-09-02T06:02:20Z</time>
      </trkpt>
      <trkpt lat="44.59346" lon="6.84359">
        <ele>1879.5</ele>
        <time>2013-09-02T06:02:23Z</time>
      </trkpt>
      <trkpt lat="44.59347" lon="6.8436">
        <ele>1880</ele>
        <time>2013-09-02T06:02:24Z</time>
      </trkpt>
      <trkpt lat="44.59348" lon="6.84362">
        <ele>1883.8</ele>
        <time>2013-09-02T06:02:27Z</time>
      </trkpt>
      <trkpt lat="44.5935" lon="6.84363">
        <ele>1887.2</ele>
        <time>2013-09-02T06:02:31Z</time>
      </trkpt>
      <trkpt lat="44.59351" lon="6.84366">
        <ele>1890.6</ele>
        <time>2013-09-02T06:02:35Z</time>
      </trkpt>
      <trkpt lat="44.59352" lon="6.84367">
        <ele>1892</ele>
        <time>2013-09-02T06:02:37Z</time>
      </trkpt>
      <trkpt lat="44.59353" lon="6.84371">
        <ele>1894.9</ele>
        <time>2013-09-02T06:02:41Z</time>
      </trkpt>
      <trkpt lat="44.59356" lon="6.84375">
        <ele>1898.3</ele>
        <time>2013-09-02T06:02:46Z</time>
      </trkpt>
      <trkpt lat="44.59357" lon="6.84377">
        <ele>1899.2</ele>
        <time>2013-09-02T06:02:48Z</time>
      </trkpt>
      <trkpt lat="44.5936" lon="6.84381">
        <ele>1901.1</ele>
        <time>2013-09-02T06:02:52Z</time>
      </trkpt>
      <trkpt lat="44.59361" lon="6.84383">
        <ele>1904.5</ele>
        <time>2013-09-02T06:03:01Z</time>
      </trkpt>
      <trkpt lat="44.59368" lon="6.84407">
        <ele>1907.9</ele>
        <time>2013-09-02T06:03:13Z</time>
      </trkpt>
      <trkpt lat="44.59374" lon="6.84441">
        <ele>1903.6</ele>
        <time>2013-09-02T06:03:26Z</time>
      </trkpt>
      <trkpt lat="44.59375" lon="6.84444">
        <ele>1903.6</ele>
        <time>2013-09-02T06:03:27Z</time>
      </trkpt>
      <trkpt lat="44.59376" lon="6.84446">
        <ele>1915.6</ele>
        <time>2013-09-02T06:03:28Z</time>
      </trkpt>
      <trkpt lat="44.59376" lon="6.84448">
        <ele>1912.2</ele>
        <time>2013-09-02T06:03:29Z</time>
      </trkpt>
      <trkpt lat="44.59376" lon="6.84496">
        <ele>1914.1</ele>
        <time>2013-09-02T06:03:47Z</time>
      </trkpt>
      <trkpt lat="44.59358" lon="6.84531">
        <ele>1915.6</ele>
        <time>2013-09-02T06:04:00Z</time>
      </trkpt>
      <trkpt lat="44.5935" lon="6.84591">
        <ele>1916.5</ele>
        <time>2013-09-02T06:04:17Z</time>
      </trkpt>
      <trkpt lat="44.5934" lon="6.84656">
        <ele>1919.4</ele>
        <time>2013-09-02T06:04:36Z</time>
      </trkpt>
      <trkpt lat="44.59337" lon="6.84725">
        <ele>1919.9</ele>
        <time>2013-09-02T06:04:53Z</time>
      </trkpt>
      <trkpt lat="44.59341" lon="6.84769">
        <ele>1920.4</ele>
        <time>2013-09-02T06:05:07Z</time>
      </trkpt>
      <trkpt lat="44.59345" lon="6.84818">
        <ele>1917</ele>
        <time>2013-09-02T06:05:18Z</time>
      </trkpt>
      <trkpt lat="44.5935" lon="6.84833">
        <ele>1916</ele>
        <time>2013-09-02T06:05:20Z</time>
      </trkpt>
      <trkpt lat="44.59353" lon="6.8484">
        <ele>1916</ele>
        <time>2013-09-02T06:05:21Z</time>
      </trkpt>
      <trkpt lat="44.59356" lon="6.84847">
        <ele>1915.6</ele>
        <time>2013-09-02T06:05:22Z</time>
      </trkpt>
      <trkpt lat="44.59358" lon="6.84854">
        <ele>1914.6</ele>
        <time>2013-09-02T06:05:23Z</time>
      </trkpt>
      <trkpt lat="44.59361" lon="6.84862">
        <ele>1913.6</ele>
        <time>2013-09-02T06:05:24Z</time>
      </trkpt>
      <trkpt lat="44.59363" lon="6.8487">
        <ele>1913.2</ele>
        <time>2013-09-02T06:05:25Z</time>
      </trkpt>
      <trkpt lat="44.59366" lon="6.84879">
        <ele>1913.2</ele>
        <time>2013-09-02T06:05:26Z</time>
      </trkpt>
      <trkpt lat="44.59389" lon="6.8497">
        <ele>1909.8</ele>
        <time>2013-09-02T06:05:37Z</time>
      </trkpt>
      <trkpt lat="44.59399" lon="6.85006">
        <ele>1908.8</ele>
        <time>2013-09-02T06:05:42Z</time>
      </trkpt>
      <trkpt lat="44.59407" lon="6.85071">
        <ele>1909.8</ele>
        <time>2013-09-02T06:05:56Z</time>
      </trkpt>
      <trkpt lat="44.59418" lon="6.8513">
        <ele>1911.7</ele>
        <time>2013-09-02T06:06:11Z</time>
      </trkpt>
      <trkpt lat="44.59424" lon="6.85144">
        <ele>1911.7</ele>
        <time>2013-09-02T06:06:15Z</time>
      </trkpt>
      <trkpt lat="44.59434" lon="6.85163">
        <ele>1913.2</ele>
        <time>2013-09-02T06:06:23Z</time>
      </trkpt>
      <trkpt lat="44.59434" lon="6.85166">
        <ele>1913.2</ele>
        <time>2013-09-02T06:06:24Z</time>
      </trkpt>
      <trkpt lat="44.59433" lon="6.85168">
        <ele>1913.2</ele>
        <time>2013-09-02T06:06:25Z</time>
      </trkpt>
      <trkpt lat="44.59434" lon="6.8517">
        <ele>1913.2</ele>
        <time>2013-09-02T06:06:36Z</time>
      </trkpt>
      <trkpt lat="44.59432" lon="6.85169">
        <ele>1913.2</ele>
        <time>2013-09-02T06:06:51Z</time>
      </trkpt>
      <trkpt lat="44.59431" lon="6.85171">
        <ele>1913.2</ele>
        <time>2013-09-02T06:06:52Z</time>
      </trkpt>
      <trkpt lat="44.5943" lon="6.85173">
        <ele>1913.2</ele>
        <time>2013-09-02T06:06:53Z</time>
      </trkpt>
      <trkpt lat="44.59429" lon="6.85176">
        <ele>1913.2</ele>
        <time>2013-09-02T06:06:54Z</time>
      </trkpt>
      <trkpt lat="44.59428" lon="6.85179">
        <ele>1913.2</ele>
        <time>2013-09-02T06:06:55Z</time>
      </trkpt>
      <trkpt lat="44.59428" lon="6.85182">
        <ele>1912.7</ele>
        <time>2013-09-02T06:06:56Z</time>
      </trkpt>
      <trkpt lat="44.59428" lon="6.85186">
        <ele>1912.7</ele>
        <time>2013-09-02T06:06:57Z</time>
      </trkpt>
      <trkpt lat="44.59427" lon="6.85189">
        <ele>1912.7</ele>
        <time>2013-09-02T06:06:58Z</time>
      </trkpt>
      <trkpt lat="44.59426" lon="6.85192">
        <ele>1913.2</ele>
        <time>2013-09-02T06:06:59Z</time>
      </trkpt>
      <trkpt lat="44.59411" lon="6.8524">
        <ele>1914.6</ele>
        <time>2013-09-02T06:07:15Z</time>
      </trkpt>
      <trkpt lat="44.5941" lon="6.85253">
        <ele>1916.5</ele>
        <time>2013-09-02T06:07:21Z</time>
      </trkpt>
      <trkpt lat="44.59411" lon="6.85283">
        <ele>1918.9</ele>
        <time>2013-09-02T06:07:37Z</time>
      </trkpt>
      <trkpt lat="44.59412" lon="6.85305">
        <ele>1920.4</ele>
        <time>2013-09-02T06:07:47Z</time>
      </trkpt>
      <trkpt lat="44.59411" lon="6.85307">
        <ele>1920.9</ele>
        <time>2013-09-02T06:07:48Z</time>
      </trkpt>
      <trkpt lat="44.59411" lon="6.85309">
        <ele>1920.9</ele>
        <time>2013-09-02T06:07:49Z</time>
      </trkpt>
      <trkpt lat="44.59411" lon="6.85311">
        <ele>1921.3</ele>
        <time>2013-09-02T06:07:50Z</time>
      </trkpt>
      <trkpt lat="44.59411" lon="6.85314">
        <ele>1921.8</ele>
        <time>2013-09-02T06:07:51Z</time>
      </trkpt>
      <trkpt lat="44.5941" lon="6.85315">
        <ele>1921.3</ele>
        <time>2013-09-02T06:07:52Z</time>
      </trkpt>
      <trkpt lat="44.5941" lon="6.85317">
        <ele>1921.3</ele>
        <time>2013-09-02T06:07:53Z</time>
      </trkpt>
      <trkpt lat="44.59407" lon="6.8533">
        <ele>1922.8</ele>
        <time>2013-09-02T06:08:00Z</time>
      </trkpt>
      <trkpt lat="44.59401" lon="6.85347">
        <ele>1924.2</ele>
        <time>2013-09-02T06:08:11Z</time>
      </trkpt>
      <trkpt lat="44.594" lon="6.85349">
        <ele>1924.7</ele>
        <time>2013-09-02T06:08:13Z</time>
      </trkpt>
      <trkpt lat="44.59394" lon="6.85377">
        <ele>1927.1</ele>
        <time>2013-09-02T06:08:27Z</time>
      </trkpt>
      <trkpt lat="44.59389" lon="6.85399">
        <ele>1929.5</ele>
        <time>2013-09-02T06:08:40Z</time>
      </trkpt>
      <trkpt lat="44.59379" lon="6.85422">
        <ele>1931.4</ele>
        <time>2013-09-02T06:08:54Z</time>
      </trkpt>
      <trkpt lat="44.59369" lon="6.85451">
        <ele>1934.3</ele>
        <time>2013-09-02T06:09:08Z</time>
      </trkpt>
      <trkpt lat="44.59359" lon="6.85471">
        <ele>1935.3</ele>
        <time>2013-09-02T06:09:20Z</time>
      </trkpt>
      <trkpt lat="44.59347" lon="6.85488">
        <ele>1938.2</ele>
        <time>2013-09-02T06:09:33Z</time>
      </trkpt>
      <trkpt lat="44.59337" lon="6.85505">
        <ele>1940.1</ele>
        <time>2013-09-02T06:09:45Z</time>
      </trkpt>
      <trkpt lat="44.59336" lon="6.85506">
        <ele>1940.6</ele>
        <time>2013-09-02T06:09:46Z</time>
      </trkpt>
      <trkpt lat="44.59335" lon="6.85508">
        <ele>1940.6</ele>
        <time>2013-09-02T06:09:47Z</time>
      </trkpt>
      <trkpt lat="44.59334" lon="6.85509">
        <ele>1940.6</ele>
        <time>2013-09-02T06:09:48Z</time>
      </trkpt>
      <trkpt lat="44.59333" lon="6.85511">
        <ele>1940.6</ele>
        <time>2013-09-02T06:09:49Z</time>
      </trkpt>
      <trkpt lat="44.59332" lon="6.85512">
        <ele>1941</ele>
        <time>2013-09-02T06:09:50Z</time>
      </trkpt>
      <trkpt lat="44.5933" lon="6.85514">
        <ele>1941</ele>
        <time>2013-09-02T06:09:51Z</time>
      </trkpt>
      <trkpt lat="44.59329" lon="6.85516">
        <ele>1941</ele>
        <time>2013-09-02T06:09:52Z</time>
      </trkpt>
      <trkpt lat="44.59314" lon="6.85533">
        <ele>1944.4</ele>
        <time>2013-09-02T06:10:06Z</time>
      </trkpt>
      <trkpt lat="44.59313" lon="6.85536">
        <ele>1945.4</ele>
        <time>2013-09-02T06:10:08Z</time>
      </trkpt>
      <trkpt lat="44.59296" lon="6.85553">
        <ele>1947.3</ele>
        <time>2013-09-02T06:10:23Z</time>
      </trkpt>
      <trkpt lat="44.59274" lon="6.85575">
        <ele>1949.7</ele>
        <time>2013-09-02T06:10:41Z</time>
      </trkpt>
      <trkpt lat="44.59263" lon="6.85579">
        <ele>1952.1</ele>
        <time>2013-09-02T06:10:55Z</time>
      </trkpt>
      <trkpt lat="44.59259" lon="6.85584">
        <ele>1953.1</ele>
        <time>2013-09-02T06:11:00Z</time>
      </trkpt>
      <trkpt lat="44.59257" lon="6.85586">
        <ele>1953.1</ele>
        <time>2013-09-02T06:11:01Z</time>
      </trkpt>
      <trkpt lat="44.59256" lon="6.85587">
        <ele>1953.1</ele>
        <time>2013-09-02T06:11:02Z</time>
      </trkpt>
      <trkpt lat="44.59238" lon="6.85607">
        <ele>1955.9</ele>
        <time>2013-09-02T06:11:17Z</time>
      </trkpt>
      <trkpt lat="44.59218" lon="6.85623">
        <ele>1958.3</ele>
        <time>2013-09-02T06:11:34Z</time>
      </trkpt>
      <trkpt lat="44.59205" lon="6.85645">
        <ele>1961.7</ele>
        <time>2013-09-02T06:11:50Z</time>
      </trkpt>
      <trkpt lat="44.59202" lon="6.8565">
        <ele>1962.2</ele>
        <time>2013-09-02T06:11:58Z</time>
      </trkpt>
      <trkpt lat="44.592" lon="6.85657">
        <ele>1964.1</ele>
        <time>2013-09-02T06:12:13Z</time>
      </trkpt>
      <trkpt lat="44.59192" lon="6.85665">
        <ele>1965.6</ele>
        <time>2013-09-02T06:12:27Z</time>
      </trkpt>
      <trkpt lat="44.59183" lon="6.85675">
        <ele>1967</ele>
        <time>2013-09-02T06:12:42Z</time>
      </trkpt>
      <trkpt lat="44.59178" lon="6.85684">
        <ele>1969.4</ele>
        <time>2013-09-02T06:12:57Z</time>
      </trkpt>
      <trkpt lat="44.59172" lon="6.85691">
        <ele>1970.4</ele>
        <time>2013-09-02T06:13:14Z</time>
      </trkpt>
      <trkpt lat="44.5917" lon="6.85706">
        <ele>1973.2</ele>
        <time>2013-09-02T06:13:30Z</time>
      </trkpt>
      <trkpt lat="44.59169" lon="6.85718">
        <ele>1975.7</ele>
        <time>2013-09-02T06:13:44Z</time>
      </trkpt>
      <trkpt lat="44.59165" lon="6.8573">
        <ele>1977.1</ele>
        <time>2013-09-02T06:13:58Z</time>
      </trkpt>
      <trkpt lat="44.5916" lon="6.85739">
        <ele>1977.6</ele>
        <time>2013-09-02T06:14:21Z</time>
      </trkpt>
      <trkpt lat="44.5916" lon="6.85742">
        <ele>1977.6</ele>
        <time>2013-09-02T06:14:52Z</time>
      </trkpt>
      <trkpt lat="44.59164" lon="6.85742">
        <ele>1977.6</ele>
        <time>2013-09-02T06:15:13Z</time>
      </trkpt>
      <trkpt lat="44.59157" lon="6.85738">
        <ele>1978.5</ele>
        <time>2013-09-02T06:15:36Z</time>
      </trkpt>
      <trkpt lat="44.59156" lon="6.85737">
        <ele>1978.5</ele>
        <time>2013-09-02T06:15:37Z</time>
      </trkpt>
      <trkpt lat="44.59155" lon="6.85737">
        <ele>1978.5</ele>
        <time>2013-09-02T06:15:38Z</time>
      </trkpt>
      <trkpt lat="44.59154" lon="6.85736">
        <ele>1978.5</ele>
        <time>2013-09-02T06:15:39Z</time>
      </trkpt>
      <trkpt lat="44.59152" lon="6.85735">
        <ele>1979</ele>
        <time>2013-09-02T06:15:41Z</time>
      </trkpt>
      <trkpt lat="44.59151" lon="6.85733">
        <ele>1979.5</ele>
        <time>2013-09-02T06:15:42Z</time>
      </trkpt>
      <trkpt lat="44.5915" lon="6.85731">
        <ele>1979</ele>
        <time>2013-09-02T06:15:43Z</time>
      </trkpt>
      <trkpt lat="44.59146" lon="6.85714">
        <ele>1982.4</ele>
        <time>2013-09-02T06:15:55Z</time>
      </trkpt>
      <trkpt lat="44.59148" lon="6.85699">
        <ele>1984.3</ele>
        <time>2013-09-02T06:16:06Z</time>
      </trkpt>
      <trkpt lat="44.59151" lon="6.85671">
        <ele>1986.7</ele>
        <time>2013-09-02T06:16:21Z</time>
      </trkpt>
      <trkpt lat="44.59151" lon="6.85664">
        <ele>1987.7</ele>
        <time>2013-09-02T06:16:25Z</time>
      </trkpt>
      <trkpt lat="44.59159" lon="6.85643">
        <ele>1991</ele>
        <time>2013-09-02T06:16:39Z</time>
      </trkpt>
      <trkpt lat="44.59158" lon="6.85638">
        <ele>1991.5</ele>
        <time>2013-09-02T06:16:44Z</time>
      </trkpt>
      <trkpt lat="44.59157" lon="6.85638">
        <ele>1992</ele>
        <time>2013-09-02T06:16:45Z</time>
      </trkpt>
      <trkpt lat="44.59156" lon="6.85638">
        <ele>1992</ele>
        <time>2013-09-02T06:16:46Z</time>
      </trkpt>
      <trkpt lat="44.59154" lon="6.85639">
        <ele>1991.5</ele>
        <time>2013-09-02T06:16:47Z</time>
      </trkpt>
      <trkpt lat="44.59153" lon="6.8564">
        <ele>1992.5</ele>
        <time>2013-09-02T06:16:48Z</time>
      </trkpt>
      <trkpt lat="44.59152" lon="6.85641">
        <ele>1992</ele>
        <time>2013-09-02T06:16:49Z</time>
      </trkpt>
      <trkpt lat="44.59141" lon="6.85653">
        <ele>1995.4</ele>
        <time>2013-09-02T06:17:03Z</time>
      </trkpt>
      <trkpt lat="44.59133" lon="6.85669">
        <ele>1997.8</ele>
        <time>2013-09-02T06:17:17Z</time>
      </trkpt>
      <trkpt lat="44.59126" lon="6.85687">
        <ele>2001.1</ele>
        <time>2013-09-02T06:17:32Z</time>
      </trkpt>
      <trkpt lat="44.59117" lon="6.85705">
        <ele>2004</ele>
        <time>2013-09-02T06:17:47Z</time>
      </trkpt>
      <trkpt lat="44.59114" lon="6.85715">
        <ele>2005.5</ele>
        <time>2013-09-02T06:17:59Z</time>
      </trkpt>
      <trkpt lat="44.59108" lon="6.85729">
        <ele>2006.9</ele>
        <time>2013-09-02T06:18:14Z</time>
      </trkpt>
      <trkpt lat="44.59105" lon="6.85741">
        <ele>2006.9</ele>
        <time>2013-09-02T06:18:28Z</time>
      </trkpt>
      <trkpt lat="44.59104" lon="6.85751">
        <ele>2009.8</ele>
        <time>2013-09-02T06:18:43Z</time>
      </trkpt>
      <trkpt lat="44.59101" lon="6.85766">
        <ele>2011.7</ele>
        <time>2013-09-02T06:18:57Z</time>
      </trkpt>
      <trkpt lat="44.59104" lon="6.85792">
        <ele>2014.1</ele>
        <time>2013-09-02T06:19:11Z</time>
      </trkpt>
      <trkpt lat="44.59107" lon="6.85807">
        <ele>2016.5</ele>
        <time>2013-09-02T06:19:28Z</time>
      </trkpt>
      <trkpt lat="44.5911" lon="6.85817">
        <ele>2018.4</ele>
        <time>2013-09-02T06:19:41Z</time>
      </trkpt>
      <trkpt lat="44.59111" lon="6.85828">
        <ele>2020.8</ele>
        <time>2013-09-02T06:19:55Z</time>
      </trkpt>
      <trkpt lat="44.59112" lon="6.85848">
        <ele>2022.8</ele>
        <time>2013-09-02T06:20:10Z</time>
      </trkpt>
      <trkpt lat="44.5911" lon="6.85864">
        <ele>2025.2</ele>
        <time>2013-09-02T06:20:27Z</time>
      </trkpt>
      <trkpt lat="44.59109" lon="6.85879">
        <ele>2028</ele>
        <time>2013-09-02T06:20:41Z</time>
      </trkpt>
      <trkpt lat="44.59104" lon="6.85894">
        <ele>2029</ele>
        <time>2013-09-02T06:20:56Z</time>
      </trkpt>
      <trkpt lat="44.59096" lon="6.85904">
        <ele>2030.9</ele>
        <time>2013-09-02T06:21:11Z</time>
      </trkpt>
      <trkpt lat="44.59088" lon="6.85913">
        <ele>2033.8</ele>
        <time>2013-09-02T06:21:24Z</time>
      </trkpt>
      <trkpt lat="44.59076" lon="6.8592">
        <ele>2034.8</ele>
        <time>2013-09-02T06:21:37Z</time>
      </trkpt>
      <trkpt lat="44.59068" lon="6.85922">
        <ele>2035.3</ele>
        <time>2013-09-02T06:21:49Z</time>
      </trkpt>
      <trkpt lat="44.59062" lon="6.85923">
        <ele>2036.2</ele>
        <time>2013-09-02T06:21:54Z</time>
      </trkpt>
      <trkpt lat="44.59056" lon="6.85918">
        <ele>2037.7</ele>
        <time>2013-09-02T06:22:00Z</time>
      </trkpt>
      <trkpt lat="44.59042" lon="6.85904">
        <ele>2039.6</ele>
        <time>2013-09-02T06:22:14Z</time>
      </trkpt>
      <trkpt lat="44.59037" lon="6.85899">
        <ele>2040.5</ele>
        <time>2013-09-02T06:22:19Z</time>
      </trkpt>
      <trkpt lat="44.5902" lon="6.8589">
        <ele>2042.9</ele>
        <time>2013-09-02T06:22:32Z</time>
      </trkpt>
      <trkpt lat="44.59019" lon="6.85889">
        <ele>2042.9</ele>
        <time>2013-09-02T06:22:33Z</time>
      </trkpt>
      <trkpt lat="44.58998" lon="6.85879">
        <ele>2045.8</ele>
        <time>2013-09-02T06:22:51Z</time>
      </trkpt>
      <trkpt lat="44.58989" lon="6.85879">
        <ele>2047.3</ele>
        <time>2013-09-02T06:22:58Z</time>
      </trkpt>
      <trkpt lat="44.58988" lon="6.8588">
        <ele>2047.8</ele>
        <time>2013-09-02T06:22:59Z</time>
      </trkpt>
      <trkpt lat="44.58987" lon="6.85881">
        <ele>2048.2</ele>
        <time>2013-09-02T06:23:00Z</time>
      </trkpt>
      <trkpt lat="44.58978" lon="6.85888">
        <ele>2049.7</ele>
        <time>2013-09-02T06:23:09Z</time>
      </trkpt>
      <trkpt lat="44.58977" lon="6.85889">
        <ele>2050.6</ele>
        <time>2013-09-02T06:23:10Z</time>
      </trkpt>
      <trkpt lat="44.58976" lon="6.8589">
        <ele>2050.6</ele>
        <time>2013-09-02T06:23:11Z</time>
      </trkpt>
      <trkpt lat="44.58965" lon="6.85902">
        <ele>2053</ele>
        <time>2013-09-02T06:23:22Z</time>
      </trkpt>
      <trkpt lat="44.58964" lon="6.85902">
        <ele>2053</ele>
        <time>2013-09-02T06:23:23Z</time>
      </trkpt>
      <trkpt lat="44.58963" lon="6.85903">
        <ele>2053</ele>
        <time>2013-09-02T06:23:24Z</time>
      </trkpt>
      <trkpt lat="44.58962" lon="6.85903">
        <ele>2053.5</ele>
        <time>2013-09-02T06:23:25Z</time>
      </trkpt>
      <trkpt lat="44.5896" lon="6.85903">
        <ele>2053.5</ele>
        <time>2013-09-02T06:23:26Z</time>
      </trkpt>
      <trkpt lat="44.58948" lon="6.85898">
        <ele>2055.4</ele>
        <time>2013-09-02T06:23:37Z</time>
      </trkpt>
      <trkpt lat="44.58929" lon="6.85898">
        <ele>2058.3</ele>
        <time>2013-09-02T06:23:52Z</time>
      </trkpt>
      <trkpt lat="44.58911" lon="6.85889">
        <ele>2059.8</ele>
        <time>2013-09-02T06:24:08Z</time>
      </trkpt>
      <trkpt lat="44.58891" lon="6.8589">
        <ele>2061.2</ele>
        <time>2013-09-02T06:24:21Z</time>
      </trkpt>
      <trkpt lat="44.58865" lon="6.8589">
        <ele>2063.6</ele>
        <time>2013-09-02T06:24:37Z</time>
      </trkpt>
      <trkpt lat="44.58862" lon="6.85894">
        <ele>2065.1</ele>
        <time>2013-09-02T06:24:47Z</time>
      </trkpt>
      <trkpt lat="44.58854" lon="6.85895">
        <ele>2066.5</ele>
        <time>2013-09-02T06:25:01Z</time>
      </trkpt>
      <trkpt lat="44.58853" lon="6.85895">
        <ele>2066.5</ele>
        <time>2013-09-02T06:25:05Z</time>
      </trkpt>
      <trkpt lat="44.58852" lon="6.85895">
        <ele>2066.5</ele>
        <time>2013-09-02T06:25:06Z</time>
      </trkpt>
      <trkpt lat="44.58851" lon="6.85895">
        <ele>2067.5</ele>
        <time>2013-09-02T06:25:07Z</time>
      </trkpt>
      <trkpt lat="44.58849" lon="6.85895">
        <ele>2067</ele>
        <time>2013-09-02T06:25:08Z</time>
      </trkpt>
      <trkpt lat="44.58848" lon="6.85895">
        <ele>2067.5</ele>
        <time>2013-09-02T06:25:09Z</time>
      </trkpt>
      <trkpt lat="44.58846" lon="6.85895">
        <ele>2067.5</ele>
        <time>2013-09-02T06:25:10Z</time>
      </trkpt>
      <trkpt lat="44.58845" lon="6.85895">
        <ele>2067</ele>
        <time>2013-09-02T06:25:11Z</time>
      </trkpt>
      <trkpt lat="44.58824" lon="6.8589">
        <ele>2068.9</ele>
        <time>2013-09-02T06:25:23Z</time>
      </trkpt>
      <trkpt lat="44.58806" lon="6.85883">
        <ele>2071.8</ele>
        <time>2013-09-02T06:25:36Z</time>
      </trkpt>
      <trkpt lat="44.5879" lon="6.85876">
        <ele>2073.2</ele>
        <time>2013-09-02T06:25:48Z</time>
      </trkpt>
      <trkpt lat="44.58784" lon="6.85876">
        <ele>2074.2</ele>
        <time>2013-09-02T06:25:52Z</time>
      </trkpt>
      <trkpt lat="44.58783" lon="6.85876">
        <ele>2074.2</ele>
        <time>2013-09-02T06:25:53Z</time>
      </trkpt>
      <trkpt lat="44.58781" lon="6.85876">
        <ele>2073.7</ele>
        <time>2013-09-02T06:25:54Z</time>
      </trkpt>
      <trkpt lat="44.5878" lon="6.85877">
        <ele>2074.2</ele>
        <time>2013-09-02T06:25:55Z</time>
      </trkpt>
      <trkpt lat="44.58779" lon="6.85877">
        <ele>2074.7</ele>
        <time>2013-09-02T06:25:56Z</time>
      </trkpt>
      <trkpt lat="44.58771" lon="6.85876">
        <ele>2076.1</ele>
        <time>2013-09-02T06:26:08Z</time>
      </trkpt>
      <trkpt lat="44.5876" lon="6.8587">
        <ele>2076.6</ele>
        <time>2013-09-02T06:26:22Z</time>
      </trkpt>
      <trkpt lat="44.58742" lon="6.85868">
        <ele>2079</ele>
        <time>2013-09-02T06:26:35Z</time>
      </trkpt>
      <trkpt lat="44.58733" lon="6.8587">
        <ele>2081.4</ele>
        <time>2013-09-02T06:26:41Z</time>
      </trkpt>
      <trkpt lat="44.58731" lon="6.85872">
        <ele>2081.4</ele>
        <time>2013-09-02T06:26:54Z</time>
      </trkpt>
      <trkpt lat="44.58731" lon="6.85875">
        <ele>2081.9</ele>
        <time>2013-09-02T06:27:08Z</time>
      </trkpt>
      <trkpt lat="44.58723" lon="6.8588">
        <ele>2084.8</ele>
        <time>2013-09-02T06:27:27Z</time>
      </trkpt>
      <trkpt lat="44.58716" lon="6.85877">
        <ele>2086.7</ele>
        <time>2013-09-02T06:27:41Z</time>
      </trkpt>
      <trkpt lat="44.58709" lon="6.85876">
        <ele>2089.6</ele>
        <time>2013-09-02T06:27:55Z</time>
      </trkpt>
      <trkpt lat="44.58701" lon="6.85877">
        <ele>2092.9</ele>
        <time>2013-09-02T06:28:08Z</time>
      </trkpt>
      <trkpt lat="44.587" lon="6.85877">
        <ele>2092.5</ele>
        <time>2013-09-02T06:28:09Z</time>
      </trkpt>
      <trkpt lat="44.58692" lon="6.85871">
        <ele>2095.3</ele>
        <time>2013-09-02T06:28:26Z</time>
      </trkpt>
      <trkpt lat="44.58683" lon="6.85866">
        <ele>2097.7</ele>
        <time>2013-09-02T06:28:41Z</time>
      </trkpt>
      <trkpt lat="44.58674" lon="6.85861">
        <ele>2099.7</ele>
        <time>2013-09-02T06:28:55Z</time>
      </trkpt>
      <trkpt lat="44.58666" lon="6.85861">
        <ele>2101.6</ele>
        <time>2013-09-02T06:29:08Z</time>
      </trkpt>
      <trkpt lat="44.58653" lon="6.85863">
        <ele>2103.5</ele>
        <time>2013-09-02T06:29:26Z</time>
      </trkpt>
      <trkpt lat="44.58643" lon="6.85865">
        <ele>2106.9</ele>
        <time>2013-09-02T06:29:41Z</time>
      </trkpt>
      <trkpt lat="44.58635" lon="6.85866">
        <ele>2108.8</ele>
        <time>2013-09-02T06:29:57Z</time>
      </trkpt>
      <trkpt lat="44.5863" lon="6.85868">
        <ele>2111.2</ele>
        <time>2013-09-02T06:30:12Z</time>
      </trkpt>
      <trkpt lat="44.58624" lon="6.85875">
        <ele>2113.6</ele>
        <time>2013-09-02T06:30:26Z</time>
      </trkpt>
      <trkpt lat="44.58618" lon="6.85873">
        <ele>2115</ele>
        <time>2013-09-02T06:30:40Z</time>
      </trkpt>
      <trkpt lat="44.58616" lon="6.85872">
        <ele>2117</ele>
        <time>2013-09-02T06:30:55Z</time>
      </trkpt>
      <trkpt lat="44.58612" lon="6.85875">
        <ele>2116.5</ele>
        <time>2013-09-02T06:31:10Z</time>
      </trkpt>
      <trkpt lat="44.58606" lon="6.85878">
        <ele>2118.9</ele>
        <time>2013-09-02T06:31:25Z</time>
      </trkpt>
      <trkpt lat="44.58601" lon="6.85886">
        <ele>2121.3</ele>
        <time>2013-09-02T06:31:38Z</time>
      </trkpt>
      <trkpt lat="44.58599" lon="6.85894">
        <ele>2123.7</ele>
        <time>2013-09-02T06:31:54Z</time>
      </trkpt>
      <trkpt lat="44.58593" lon="6.85902">
        <ele>2125.6</ele>
        <time>2013-09-02T06:32:09Z</time>
      </trkpt>
      <trkpt lat="44.58583" lon="6.85906">
        <ele>2127.1</ele>
        <time>2013-09-02T06:32:23Z</time>
      </trkpt>
      <trkpt lat="44.58579" lon="6.85907">
        <ele>2128.5</ele>
        <time>2013-09-02T06:32:30Z</time>
      </trkpt>
      <trkpt lat="44.58574" lon="6.85908">
        <ele>2130.9</ele>
        <time>2013-09-02T06:32:45Z</time>
      </trkpt>
      <trkpt lat="44.58567" lon="6.85914">
        <ele>2132.8</ele>
        <time>2013-09-02T06:33:00Z</time>
      </trkpt>
      <trkpt lat="44.5856" lon="6.85923">
        <ele>2135.2</ele>
        <time>2013-09-02T06:33:14Z</time>
      </trkpt>
      <trkpt lat="44.58555" lon="6.85927">
        <ele>2136.7</ele>
        <time>2013-09-02T06:33:27Z</time>
      </trkpt>
      <trkpt lat="44.58554" lon="6.85933">
        <ele>2138.1</ele>
        <time>2013-09-02T06:33:42Z</time>
      </trkpt>
      <trkpt lat="44.58556" lon="6.85945">
        <ele>2140</ele>
        <time>2013-09-02T06:33:58Z</time>
      </trkpt>
      <trkpt lat="44.58549" lon="6.85948">
        <ele>2142.4</ele>
        <time>2013-09-02T06:34:12Z</time>
      </trkpt>
      <trkpt lat="44.58543" lon="6.85946">
        <ele>2144.4</ele>
        <time>2013-09-02T06:34:26Z</time>
      </trkpt>
      <trkpt lat="44.58537" lon="6.85942">
        <ele>2146.8</ele>
        <time>2013-09-02T06:34:41Z</time>
      </trkpt>
      <trkpt lat="44.58536" lon="6.85942">
        <ele>2147.2</ele>
        <time>2013-09-02T06:34:42Z</time>
      </trkpt>
      <trkpt lat="44.58527" lon="6.85936">
        <ele>2148.2</ele>
        <time>2013-09-02T06:34:55Z</time>
      </trkpt>
      <trkpt lat="44.58524" lon="6.85938">
        <ele>2150.1</ele>
        <time>2013-09-02T06:35:10Z</time>
      </trkpt>
      <trkpt lat="44.58524" lon="6.8594">
        <ele>2151.1</ele>
        <time>2013-09-02T06:35:21Z</time>
      </trkpt>
      <trkpt lat="44.58519" lon="6.85938">
        <ele>2152.5</ele>
        <time>2013-09-02T06:35:32Z</time>
      </trkpt>
      <trkpt lat="44.58514" lon="6.85938">
        <ele>2154</ele>
        <time>2013-09-02T06:35:47Z</time>
      </trkpt>
      <trkpt lat="44.58512" lon="6.85941">
        <ele>2155.9</ele>
        <time>2013-09-02T06:35:58Z</time>
      </trkpt>
      <trkpt lat="44.5851" lon="6.85938">
        <ele>2157.3</ele>
        <time>2013-09-02T06:36:11Z</time>
      </trkpt>
      <trkpt lat="44.58504" lon="6.85938">
        <ele>2158.8</ele>
        <time>2013-09-02T06:36:24Z</time>
      </trkpt>
      <trkpt lat="44.58497" lon="6.85937">
        <ele>2159.7</ele>
        <time>2013-09-02T06:36:37Z</time>
      </trkpt>
      <trkpt lat="44.58488" lon="6.85939">
        <ele>2161.7</ele>
        <time>2013-09-02T06:36:51Z</time>
      </trkpt>
      <trkpt lat="44.58494" lon="6.85946">
        <ele>2163.6</ele>
        <time>2013-09-02T06:37:04Z</time>
      </trkpt>
      <trkpt lat="44.5849" lon="6.8595">
        <ele>2165</ele>
        <time>2013-09-02T06:37:17Z</time>
      </trkpt>
      <trkpt lat="44.58481" lon="6.85951">
        <ele>2166.5</ele>
        <time>2013-09-02T06:37:32Z</time>
      </trkpt>
      <trkpt lat="44.58477" lon="6.85948">
        <ele>2167.4</ele>
        <time>2013-09-02T06:37:50Z</time>
      </trkpt>
      <trkpt lat="44.58472" lon="6.85947">
        <ele>2167.9</ele>
        <time>2013-09-02T06:38:06Z</time>
      </trkpt>
      <trkpt lat="44.58467" lon="6.85943">
        <ele>2168.9</ele>
        <time>2013-09-02T06:38:18Z</time>
      </trkpt>
      <trkpt lat="44.58463" lon="6.85941">
        <ele>2169.4</ele>
        <time>2013-09-02T06:38:35Z</time>
      </trkpt>
      <trkpt lat="44.58463" lon="6.8594">
        <ele>2169.4</ele>
        <time>2013-09-02T06:38:49Z</time>
      </trkpt>
      <trkpt lat="44.58464" lon="6.8594">
        <ele>2169.4</ele>
        <time>2013-09-02T06:39:17Z</time>
      </trkpt>
      <trkpt lat="44.5846" lon="6.85936">
        <ele>2169.4</ele>
        <time>2013-09-02T06:39:34Z</time>
      </trkpt>
      <trkpt lat="44.58455" lon="6.8594">
        <ele>2171.3</ele>
        <time>2013-09-02T06:39:47Z</time>
      </trkpt>
      <trkpt lat="44.58448" lon="6.85941">
        <ele>2172.2</ele>
        <time>2013-09-02T06:40:02Z</time>
      </trkpt>
      <trkpt lat="44.58438" lon="6.85945">
        <ele>2173.2</ele>
        <time>2013-09-02T06:40:16Z</time>
      </trkpt>
      <trkpt lat="44.5843" lon="6.8595">
        <ele>2172.7</ele>
        <time>2013-09-02T06:40:26Z</time>
      </trkpt>
      <trkpt lat="44.58425" lon="6.85955">
        <ele>2173.2</ele>
        <time>2013-09-02T06:40:33Z</time>
      </trkpt>
      <trkpt lat="44.58423" lon="6.85957">
        <ele>2173.7</ele>
        <time>2013-09-02T06:40:36Z</time>
      </trkpt>
      <trkpt lat="44.58422" lon="6.85958">
        <ele>2174.2</ele>
        <time>2013-09-02T06:40:37Z</time>
      </trkpt>
      <trkpt lat="44.58417" lon="6.8596">
        <ele>2174.2</ele>
        <time>2013-09-02T06:40:42Z</time>
      </trkpt>
      <trkpt lat="44.58417" lon="6.8596">
        <ele>2173.7</ele>
        <time>2013-09-02T06:40:43Z</time>
      </trkpt>
      <trkpt lat="44.58415" lon="6.85961">
        <ele>2173.7</ele>
        <time>2013-09-02T06:40:44Z</time>
      </trkpt>
      <trkpt lat="44.58403" lon="6.85969">
        <ele>2172.7</ele>
        <time>2013-09-02T06:40:58Z</time>
      </trkpt>
      <trkpt lat="44.58388" lon="6.85983">
        <ele>2171.8</ele>
        <time>2013-09-02T06:41:14Z</time>
      </trkpt>
      <trkpt lat="44.58387" lon="6.85984">
        <ele>2171.3</ele>
        <time>2013-09-02T06:41:15Z</time>
      </trkpt>
      <trkpt lat="44.58385" lon="6.85987">
        <ele>2171.3</ele>
        <time>2013-09-02T06:41:19Z</time>
      </trkpt>
      <trkpt lat="44.58369" lon="6.85997">
        <ele>2171.3</ele>
        <time>2013-09-02T06:41:34Z</time>
      </trkpt>
      <trkpt lat="44.58357" lon="6.86007">
        <ele>2171.8</ele>
        <time>2013-09-02T06:41:49Z</time>
      </trkpt>
      <trkpt lat="44.58346" lon="6.86014">
        <ele>2172.2</ele>
        <time>2013-09-02T06:42:04Z</time>
      </trkpt>
      <trkpt lat="44.58339" lon="6.86015">
        <ele>2173.2</ele>
        <time>2013-09-02T06:42:11Z</time>
      </trkpt>
      <trkpt lat="44.58323" lon="6.86009">
        <ele>2174.2</ele>
        <time>2013-09-02T06:42:27Z</time>
      </trkpt>
      <trkpt lat="44.5832" lon="6.86009">
        <ele>2174.2</ele>
        <time>2013-09-02T06:42:30Z</time>
      </trkpt>
      <trkpt lat="44.58319" lon="6.86008">
        <ele>2174.6</ele>
        <time>2013-09-02T06:42:31Z</time>
      </trkpt>
      <trkpt lat="44.58298" lon="6.86013">
        <ele>2173.7</ele>
        <time>2013-09-02T06:42:49Z</time>
      </trkpt>
      <trkpt lat="44.58284" lon="6.86016">
        <ele>2171.8</ele>
        <time>2013-09-02T06:43:04Z</time>
      </trkpt>
      <trkpt lat="44.58276" lon="6.86012">
        <ele>2171.8</ele>
        <time>2013-09-02T06:43:18Z</time>
      </trkpt>
      <trkpt lat="44.58271" lon="6.86004">
        <ele>2173.7</ele>
        <time>2013-09-02T06:43:31Z</time>
      </trkpt>
      <trkpt lat="44.58263" lon="6.85992">
        <ele>2174.6</ele>
        <time>2013-09-02T06:43:47Z</time>
      </trkpt>
      <trkpt lat="44.58253" lon="6.85989">
        <ele>2175.6</ele>
        <time>2013-09-02T06:44:01Z</time>
      </trkpt>
      <trkpt lat="44.58242" lon="6.85985">
        <ele>2177</ele>
        <time>2013-09-02T06:44:16Z</time>
      </trkpt>
      <trkpt lat="44.58229" lon="6.85982">
        <ele>2179.5</ele>
        <time>2013-09-02T06:44:31Z</time>
      </trkpt>
      <trkpt lat="44.58221" lon="6.85974">
        <ele>2180.9</ele>
        <time>2013-09-02T06:44:43Z</time>
      </trkpt>
      <trkpt lat="44.5822" lon="6.85967">
        <ele>2180.4</ele>
        <time>2013-09-02T06:44:54Z</time>
      </trkpt>
      <trkpt lat="44.5822" lon="6.85963">
        <ele>2179.9</ele>
        <time>2013-09-02T06:45:12Z</time>
      </trkpt>
      <trkpt lat="44.58218" lon="6.85963">
        <ele>2180.4</ele>
        <time>2013-09-02T06:45:15Z</time>
      </trkpt>
      <trkpt lat="44.58216" lon="6.85962">
        <ele>2180.4</ele>
        <time>2013-09-02T06:45:16Z</time>
      </trkpt>
      <trkpt lat="44.58214" lon="6.85961">
        <ele>2179.9</ele>
        <time>2013-09-02T06:45:17Z</time>
      </trkpt>
      <trkpt lat="44.58195" lon="6.85956">
        <ele>2181.9</ele>
        <time>2013-09-02T06:45:30Z</time>
      </trkpt>
      <trkpt lat="44.58183" lon="6.85952">
        <ele>2183.3</ele>
        <time>2013-09-02T06:45:43Z</time>
      </trkpt>
      <trkpt lat="44.58182" lon="6.85951">
        <ele>2183.3</ele>
        <time>2013-09-02T06:45:44Z</time>
      </trkpt>
      <trkpt lat="44.58181" lon="6.85951">
        <ele>2182.8</ele>
        <time>2013-09-02T06:45:45Z</time>
      </trkpt>
      <trkpt lat="44.58179" lon="6.8595">
        <ele>2182.8</ele>
        <time>2013-09-02T06:45:46Z</time>
      </trkpt>
      <trkpt lat="44.58167" lon="6.85943">
        <ele>2183.8</ele>
        <time>2013-09-02T06:45:54Z</time>
      </trkpt>
      <trkpt lat="44.58166" lon="6.85943">
        <ele>2183.8</ele>
        <time>2013-09-02T06:45:55Z</time>
      </trkpt>
      <trkpt lat="44.58164" lon="6.85942">
        <ele>2184.3</ele>
        <time>2013-09-02T06:45:56Z</time>
      </trkpt>
      <trkpt lat="44.58162" lon="6.85942">
        <ele>2184.3</ele>
        <time>2013-09-02T06:45:57Z</time>
      </trkpt>
      <trkpt lat="44.5816" lon="6.85942">
        <ele>2184.7</ele>
        <time>2013-09-02T06:45:58Z</time>
      </trkpt>
      <trkpt lat="44.58159" lon="6.85941">
        <ele>2185.2</ele>
        <time>2013-09-02T06:45:59Z</time>
      </trkpt>
      <trkpt lat="44.58157" lon="6.85941">
        <ele>2184.7</ele>
        <time>2013-09-02T06:46:00Z</time>
      </trkpt>
      <trkpt lat="44.58156" lon="6.8594">
        <ele>2185.2</ele>
        <time>2013-09-02T06:46:01Z</time>
      </trkpt>
      <trkpt lat="44.58154" lon="6.85939">
        <ele>2185.7</ele>
        <time>2013-09-02T06:46:02Z</time>
      </trkpt>
      <trkpt lat="44.58153" lon="6.85939">
        <ele>2185.7</ele>
        <time>2013-09-02T06:46:03Z</time>
      </trkpt>
      <trkpt lat="44.58133" lon="6.85941">
        <ele>2188.6</ele>
        <time>2013-09-02T06:46:19Z</time>
      </trkpt>
      <trkpt lat="44.58115" lon="6.85943">
        <ele>2189.5</ele>
        <time>2013-09-02T06:46:32Z</time>
      </trkpt>
      <trkpt lat="44.581" lon="6.8595">
        <ele>2191.9</ele>
        <time>2013-09-02T06:46:46Z</time>
      </trkpt>
      <trkpt lat="44.58093" lon="6.85953">
        <ele>2192.9</ele>
        <time>2013-09-02T06:46:57Z</time>
      </trkpt>
      <trkpt lat="44.58087" lon="6.85953">
        <ele>2193.4</ele>
        <time>2013-09-02T06:47:08Z</time>
      </trkpt>
      <trkpt lat="44.58086" lon="6.85952">
        <ele>2193.9</ele>
        <time>2013-09-02T06:47:09Z</time>
      </trkpt>
      <trkpt lat="44.58067" lon="6.85954">
        <ele>2195.3</ele>
        <time>2013-09-02T06:47:21Z</time>
      </trkpt>
      <trkpt lat="44.58047" lon="6.85958">
        <ele>2198.7</ele>
        <time>2013-09-02T06:47:36Z</time>
      </trkpt>
      <trkpt lat="44.58037" lon="6.85962">
        <ele>2200.6</ele>
        <time>2013-09-02T06:47:45Z</time>
      </trkpt>
      <trkpt lat="44.58036" lon="6.85962">
        <ele>2200.6</ele>
        <time>2013-09-02T06:47:46Z</time>
      </trkpt>
      <trkpt lat="44.58035" lon="6.85962">
        <ele>2200.6</ele>
        <time>2013-09-02T06:47:47Z</time>
      </trkpt>
      <trkpt lat="44.58033" lon="6.85961">
        <ele>2201.1</ele>
        <time>2013-09-02T06:47:48Z</time>
      </trkpt>
      <trkpt lat="44.58032" lon="6.85962">
        <ele>2201.1</ele>
        <time>2013-09-02T06:47:49Z</time>
      </trkpt>
      <trkpt lat="44.58031" lon="6.85962">
        <ele>2201.6</ele>
        <time>2013-09-02T06:47:50Z</time>
      </trkpt>
      <trkpt lat="44.58023" lon="6.85962">
        <ele>2203</ele>
        <time>2013-09-02T06:48:01Z</time>
      </trkpt>
      <trkpt lat="44.58013" lon="6.85963">
        <ele>2204.9</ele>
        <time>2013-09-02T06:48:14Z</time>
      </trkpt>
      <trkpt lat="44.58003" lon="6.85964">
        <ele>2207.3</ele>
        <time>2013-09-02T06:48:34Z</time>
      </trkpt>
      <trkpt lat="44.58" lon="6.85965">
        <ele>2208.8</ele>
        <time>2013-09-02T06:48:51Z</time>
      </trkpt>
      <trkpt lat="44.57994" lon="6.85965">
        <ele>2210.2</ele>
        <time>2013-09-02T06:49:08Z</time>
      </trkpt>
      <trkpt lat="44.57985" lon="6.8597">
        <ele>2211.7</ele>
        <time>2013-09-02T06:49:21Z</time>
      </trkpt>
      <trkpt lat="44.57979" lon="6.85971">
        <ele>2212.6</ele>
        <time>2013-09-02T06:49:34Z</time>
      </trkpt>
      <trkpt lat="44.57969" lon="6.85973">
        <ele>2215.5</ele>
        <time>2013-09-02T06:49:48Z</time>
      </trkpt>
      <trkpt lat="44.57956" lon="6.85982">
        <ele>2216.9</ele>
        <time>2013-09-02T06:50:07Z</time>
      </trkpt>
      <trkpt lat="44.57951" lon="6.85989">
        <ele>2216.9</ele>
        <time>2013-09-02T06:50:14Z</time>
      </trkpt>
      <trkpt lat="44.57951" lon="6.8599">
        <ele>2216.9</ele>
        <time>2013-09-02T06:50:15Z</time>
      </trkpt>
      <trkpt lat="44.5795" lon="6.8599">
        <ele>2216.9</ele>
        <time>2013-09-02T06:50:16Z</time>
      </trkpt>
      <trkpt lat="44.57949" lon="6.85992">
        <ele>2216.9</ele>
        <time>2013-09-02T06:50:17Z</time>
      </trkpt>
      <trkpt lat="44.57938" lon="6.85999">
        <ele>2218.9</ele>
        <time>2013-09-02T06:50:30Z</time>
      </trkpt>
      <trkpt lat="44.57926" lon="6.86004">
        <ele>2219.8</ele>
        <time>2013-09-02T06:50:43Z</time>
      </trkpt>
      <trkpt lat="44.57917" lon="6.86014">
        <ele>2221.7</ele>
        <time>2013-09-02T06:51:00Z</time>
      </trkpt>
      <trkpt lat="44.5791" lon="6.86019">
        <ele>2224.2</ele>
        <time>2013-09-02T06:51:16Z</time>
      </trkpt>
      <trkpt lat="44.57904" lon="6.86025">
        <ele>2225.1</ele>
        <time>2013-09-02T06:51:28Z</time>
      </trkpt>
      <trkpt lat="44.57896" lon="6.86031">
        <ele>2226.6</ele>
        <time>2013-09-02T06:51:44Z</time>
      </trkpt>
      <trkpt lat="44.5789" lon="6.86035">
        <ele>2228</ele>
        <time>2013-09-02T06:51:56Z</time>
      </trkpt>
      <trkpt lat="44.57885" lon="6.8604">
        <ele>2228.5</ele>
        <time>2013-09-02T06:52:02Z</time>
      </trkpt>
      <trkpt lat="44.57875" lon="6.86054">
        <ele>2230.9</ele>
        <time>2013-09-02T06:52:20Z</time>
      </trkpt>
      <trkpt lat="44.57861" lon="6.86067">
        <ele>2233.3</ele>
        <time>2013-09-02T06:52:40Z</time>
      </trkpt>
      <trkpt lat="44.57848" lon="6.86079">
        <ele>2235.7</ele>
        <time>2013-09-02T06:52:59Z</time>
      </trkpt>
      <trkpt lat="44.57836" lon="6.86088">
        <ele>2237.1</ele>
        <time>2013-09-02T06:53:13Z</time>
      </trkpt>
      <trkpt lat="44.57825" lon="6.86094">
        <ele>2240.5</ele>
        <time>2013-09-02T06:53:29Z</time>
      </trkpt>
      <trkpt lat="44.57814" lon="6.86093">
        <ele>2242.9</ele>
        <time>2013-09-02T06:53:47Z</time>
      </trkpt>
      <trkpt lat="44.578" lon="6.86097">
        <ele>2244.8</ele>
        <time>2013-09-02T06:54:03Z</time>
      </trkpt>
      <trkpt lat="44.57788" lon="6.86099">
        <ele>2246.7</ele>
        <time>2013-09-02T06:54:21Z</time>
      </trkpt>
      <trkpt lat="44.57782" lon="6.86099">
        <ele>2249.6</ele>
        <time>2013-09-02T06:54:36Z</time>
      </trkpt>
      <trkpt lat="44.5777" lon="6.86105">
        <ele>2252.5</ele>
        <time>2013-09-02T06:54:56Z</time>
      </trkpt>
      <trkpt lat="44.57759" lon="6.86109">
        <ele>2254</ele>
        <time>2013-09-02T06:55:12Z</time>
      </trkpt>
      <trkpt lat="44.57754" lon="6.86113">
        <ele>2255.4</ele>
        <time>2013-09-02T06:55:25Z</time>
      </trkpt>
      <trkpt lat="44.57743" lon="6.8612">
        <ele>2256.4</ele>
        <time>2013-09-02T06:55:37Z</time>
      </trkpt>
      <trkpt lat="44.57728" lon="6.86134">
        <ele>2259.2</ele>
        <time>2013-09-02T06:55:51Z</time>
      </trkpt>
      <trkpt lat="44.57713" lon="6.86148">
        <ele>2262.1</ele>
        <time>2013-09-02T06:56:06Z</time>
      </trkpt>
      <trkpt lat="44.57697" lon="6.86163">
        <ele>2263.6</ele>
        <time>2013-09-02T06:56:22Z</time>
      </trkpt>
      <trkpt lat="44.57688" lon="6.86171">
        <ele>2265</ele>
        <time>2013-09-02T06:56:38Z</time>
      </trkpt>
      <trkpt lat="44.57687" lon="6.86171">
        <ele>2264</ele>
        <time>2013-09-02T06:56:46Z</time>
      </trkpt>
      <trkpt lat="44.57687" lon="6.86172">
        <ele>2264</ele>
        <time>2013-09-02T06:56:47Z</time>
      </trkpt>
      <trkpt lat="44.5768" lon="6.86178">
        <ele>2264.5</ele>
        <time>2013-09-02T06:56:53Z</time>
      </trkpt>
      <trkpt lat="44.57679" lon="6.8618">
        <ele>2265</ele>
        <time>2013-09-02T06:56:54Z</time>
      </trkpt>
      <trkpt lat="44.57679" lon="6.86182">
        <ele>2265</ele>
        <time>2013-09-02T06:56:55Z</time>
      </trkpt>
      <trkpt lat="44.57678" lon="6.86183">
        <ele>2265</ele>
        <time>2013-09-02T06:56:56Z</time>
      </trkpt>
      <trkpt lat="44.57676" lon="6.86184">
        <ele>2265.5</ele>
        <time>2013-09-02T06:56:57Z</time>
      </trkpt>
      <trkpt lat="44.57675" lon="6.86186">
        <ele>2266</ele>
        <time>2013-09-02T06:56:58Z</time>
      </trkpt>
      <trkpt lat="44.57674" lon="6.86188">
        <ele>2265.5</ele>
        <time>2013-09-02T06:56:59Z</time>
      </trkpt>
      <trkpt lat="44.57671" lon="6.86201">
        <ele>2266.9</ele>
        <time>2013-09-02T06:57:11Z</time>
      </trkpt>
      <trkpt lat="44.5767" lon="6.86203">
        <ele>2266.9</ele>
        <time>2013-09-02T06:57:12Z</time>
      </trkpt>
      <trkpt lat="44.57653" lon="6.86219">
        <ele>2269.3</ele>
        <time>2013-09-02T06:57:26Z</time>
      </trkpt>
      <trkpt lat="44.57638" lon="6.86235">
        <ele>2271.3</ele>
        <time>2013-09-02T06:57:41Z</time>
      </trkpt>
      <trkpt lat="44.57622" lon="6.86249">
        <ele>2272.7</ele>
        <time>2013-09-02T06:57:59Z</time>
      </trkpt>
      <trkpt lat="44.57617" lon="6.86252">
        <ele>2273.2</ele>
        <time>2013-09-02T06:58:11Z</time>
      </trkpt>
      <trkpt lat="44.57617" lon="6.86253">
        <ele>2272.7</ele>
        <time>2013-09-02T06:58:12Z</time>
      </trkpt>
      <trkpt lat="44.57604" lon="6.86275">
        <ele>2273.2</ele>
        <time>2013-09-02T06:58:26Z</time>
      </trkpt>
      <trkpt lat="44.57594" lon="6.86288">
        <ele>2272.7</ele>
        <time>2013-09-02T06:58:36Z</time>
      </trkpt>
      <trkpt lat="44.57575" lon="6.8633">
        <ele>2272.7</ele>
        <time>2013-09-02T06:58:48Z</time>
      </trkpt>
      <trkpt lat="44.57558" lon="6.86355">
        <ele>2272.2</ele>
        <time>2013-09-02T06:58:58Z</time>
      </trkpt>
      <trkpt lat="44.57535" lon="6.86354">
        <ele>2273.2</ele>
        <time>2013-09-02T06:59:09Z</time>
      </trkpt>
      <trkpt lat="44.57506" lon="6.86374">
        <ele>2275.1</ele>
        <time>2013-09-02T06:59:25Z</time>
      </trkpt>
      <trkpt lat="44.57498" lon="6.86377">
        <ele>2276.1</ele>
        <time>2013-09-02T06:59:35Z</time>
      </trkpt>
      <trkpt lat="44.57488" lon="6.8638">
        <ele>2278</ele>
        <time>2013-09-02T06:59:48Z</time>
      </trkpt>
      <trkpt lat="44.57486" lon="6.86381">
        <ele>2278.5</ele>
        <time>2013-09-02T06:59:49Z</time>
      </trkpt>
      <trkpt lat="44.57485" lon="6.86383">
        <ele>2278</ele>
        <time>2013-09-02T06:59:50Z</time>
      </trkpt>
      <trkpt lat="44.57463" lon="6.86402">
        <ele>2279.4</ele>
        <time>2013-09-02T07:00:03Z</time>
      </trkpt>
      <trkpt lat="44.57442" lon="6.86411">
        <ele>2282.3</ele>
        <time>2013-09-02T07:00:18Z</time>
      </trkpt>
      <trkpt lat="44.57432" lon="6.86416">
        <ele>2284.2</ele>
        <time>2013-09-02T07:00:34Z</time>
      </trkpt>
      <trkpt lat="44.57422" lon="6.86414">
        <ele>2286.6</ele>
        <time>2013-09-02T07:00:49Z</time>
      </trkpt>
      <trkpt lat="44.57419" lon="6.86401">
        <ele>2287.6</ele>
        <time>2013-09-02T07:01:02Z</time>
      </trkpt>
      <trkpt lat="44.57411" lon="6.86395">
        <ele>2290</ele>
        <time>2013-09-02T07:01:17Z</time>
      </trkpt>
      <trkpt lat="44.57401" lon="6.86396">
        <ele>2291.9</ele>
        <time>2013-09-02T07:01:33Z</time>
      </trkpt>
      <trkpt lat="44.57389" lon="6.86404">
        <ele>2292.9</ele>
        <time>2013-09-02T07:01:45Z</time>
      </trkpt>
      <trkpt lat="44.57378" lon="6.86407">
        <ele>2293.8</ele>
        <time>2013-09-02T07:01:57Z</time>
      </trkpt>
      <trkpt lat="44.57377" lon="6.86408">
        <ele>2293.4</ele>
        <time>2013-09-02T07:01:58Z</time>
      </trkpt>
      <trkpt lat="44.57376" lon="6.86409">
        <ele>2293.8</ele>
        <time>2013-09-02T07:01:59Z</time>
      </trkpt>
      <trkpt lat="44.57374" lon="6.8641">
        <ele>2293.8</ele>
        <time>2013-09-02T07:02:00Z</time>
      </trkpt>
      <trkpt lat="44.57373" lon="6.86412">
        <ele>2293.8</ele>
        <time>2013-09-02T07:02:01Z</time>
      </trkpt>
      <trkpt lat="44.57371" lon="6.86414">
        <ele>2294.3</ele>
        <time>2013-09-02T07:02:02Z</time>
      </trkpt>
      <trkpt lat="44.57369" lon="6.86415">
        <ele>2293.8</ele>
        <time>2013-09-02T07:02:03Z</time>
      </trkpt>
      <trkpt lat="44.57367" lon="6.86416">
        <ele>2294.3</ele>
        <time>2013-09-02T07:02:04Z</time>
      </trkpt>
      <trkpt lat="44.57365" lon="6.86418">
        <ele>2294.3</ele>
        <time>2013-09-02T07:02:05Z</time>
      </trkpt>
      <trkpt lat="44.57339" lon="6.86423">
        <ele>2296.3</ele>
        <time>2013-09-02T07:02:18Z</time>
      </trkpt>
      <trkpt lat="44.57318" lon="6.86431">
        <ele>2300.1</ele>
        <time>2013-09-02T07:02:33Z</time>
      </trkpt>
      <trkpt lat="44.57308" lon="6.86436">
        <ele>2302</ele>
        <time>2013-09-02T07:02:46Z</time>
      </trkpt>
      <trkpt lat="44.57291" lon="6.86446">
        <ele>2304.4</ele>
        <time>2013-09-02T07:02:59Z</time>
      </trkpt>
      <trkpt lat="44.57285" lon="6.86453">
        <ele>2304.4</ele>
        <time>2013-09-02T07:03:05Z</time>
      </trkpt>
      <trkpt lat="44.57267" lon="6.86471">
        <ele>2305.9</ele>
        <time>2013-09-02T07:03:20Z</time>
      </trkpt>
      <trkpt lat="44.57251" lon="6.86487">
        <ele>2308.3</ele>
        <time>2013-09-02T07:03:34Z</time>
      </trkpt>
      <trkpt lat="44.57235" lon="6.86509">
        <ele>2310.7</ele>
        <time>2013-09-02T07:03:49Z</time>
      </trkpt>
      <trkpt lat="44.5722" lon="6.86535">
        <ele>2312.1</ele>
        <time>2013-09-02T07:04:03Z</time>
      </trkpt>
      <trkpt lat="44.57212" lon="6.86574">
        <ele>2315</ele>
        <time>2013-09-02T07:04:22Z</time>
      </trkpt>
      <trkpt lat="44.57206" lon="6.86614">
        <ele>2318.4</ele>
        <time>2013-09-02T07:04:41Z</time>
      </trkpt>
      <trkpt lat="44.57201" lon="6.86642">
        <ele>2320.8</ele>
        <time>2013-09-02T07:04:59Z</time>
      </trkpt>
      <trkpt lat="44.57202" lon="6.86644">
        <ele>2320.3</ele>
        <time>2013-09-02T07:05:21Z</time>
      </trkpt>
      <trkpt lat="44.57197" lon="6.86657">
        <ele>2321.7</ele>
        <time>2013-09-02T07:05:38Z</time>
      </trkpt>
      <trkpt lat="44.57194" lon="6.86697">
        <ele>2322.2</ele>
        <time>2013-09-02T07:05:54Z</time>
      </trkpt>
      <trkpt lat="44.57192" lon="6.86705">
        <ele>2323.6</ele>
        <time>2013-09-02T07:06:10Z</time>
      </trkpt>
      <trkpt lat="44.57186" lon="6.86718">
        <ele>2326.1</ele>
        <time>2013-09-02T07:06:24Z</time>
      </trkpt>
      <trkpt lat="44.57186" lon="6.86725">
        <ele>2326.1</ele>
        <time>2013-09-02T07:06:32Z</time>
      </trkpt>
      <trkpt lat="44.57185" lon="6.86726">
        <ele>2326.1</ele>
        <time>2013-09-02T07:06:33Z</time>
      </trkpt>
      <trkpt lat="44.57185" lon="6.86728">
        <ele>2327</ele>
        <time>2013-09-02T07:06:34Z</time>
      </trkpt>
      <trkpt lat="44.57179" lon="6.86744">
        <ele>2328.5</ele>
        <time>2013-09-02T07:06:43Z</time>
      </trkpt>
      <trkpt lat="44.57163" lon="6.8677">
        <ele>2331.8</ele>
        <time>2013-09-02T07:06:57Z</time>
      </trkpt>
      <trkpt lat="44.57146" lon="6.86798">
        <ele>2332.3</ele>
        <time>2013-09-02T07:07:12Z</time>
      </trkpt>
      <trkpt lat="44.57129" lon="6.8683">
        <ele>2333.3</ele>
        <time>2013-09-02T07:07:28Z</time>
      </trkpt>
      <trkpt lat="44.57122" lon="6.86838">
        <ele>2335.2</ele>
        <time>2013-09-02T07:07:38Z</time>
      </trkpt>
      <trkpt lat="44.57112" lon="6.8685">
        <ele>2336.6</ele>
        <time>2013-09-02T07:07:52Z</time>
      </trkpt>
      <trkpt lat="44.57103" lon="6.86863">
        <ele>2337.6</ele>
        <time>2013-09-02T07:08:07Z</time>
      </trkpt>
      <trkpt lat="44.57088" lon="6.86876">
        <ele>2339</ele>
        <time>2013-09-02T07:08:17Z</time>
      </trkpt>
      <trkpt lat="44.57081" lon="6.86881">
        <ele>2340</ele>
        <time>2013-09-02T07:08:28Z</time>
      </trkpt>
      <trkpt lat="44.57078" lon="6.86879">
        <ele>2340.5</ele>
        <time>2013-09-02T07:08:32Z</time>
      </trkpt>
      <trkpt lat="44.57073" lon="6.86881">
        <ele>2340.5</ele>
        <time>2013-09-02T07:08:37Z</time>
      </trkpt>
      <trkpt lat="44.57067" lon="6.86883">
        <ele>2341</ele>
        <time>2013-09-02T07:08:45Z</time>
      </trkpt>
      <trkpt lat="44.57059" lon="6.86894">
        <ele>2341.4</ele>
        <time>2013-09-02T07:08:59Z</time>
      </trkpt>
      <trkpt lat="44.57056" lon="6.86891">
        <ele>2341.4</ele>
        <time>2013-09-02T07:09:12Z</time>
      </trkpt>
      <trkpt lat="44.57051" lon="6.86887">
        <ele>2341</ele>
        <time>2013-09-02T07:09:24Z</time>
      </trkpt>
      <trkpt lat="44.57047" lon="6.86895">
        <ele>2342.9</ele>
        <time>2013-09-02T07:09:38Z</time>
      </trkpt>
      <trkpt lat="44.5704" lon="6.86899">
        <ele>2345.3</ele>
        <time>2013-09-02T07:09:51Z</time>
      </trkpt>
      <trkpt lat="44.57034" lon="6.86904">
        <ele>2347.2</ele>
        <time>2013-09-02T07:10:06Z</time>
      </trkpt>
      <trkpt lat="44.5703" lon="6.86906">
        <ele>2349.6</ele>
        <time>2013-09-02T07:10:19Z</time>
      </trkpt>
      <trkpt lat="44.57024" lon="6.86911">
        <ele>2351.5</ele>
        <time>2013-09-02T07:10:33Z</time>
      </trkpt>
      <trkpt lat="44.5702" lon="6.86924">
        <ele>2353</ele>
        <time>2013-09-02T07:10:50Z</time>
      </trkpt>
      <trkpt lat="44.57011" lon="6.86933">
        <ele>2355.4</ele>
        <time>2013-09-02T07:11:07Z</time>
      </trkpt>
      <trkpt lat="44.57001" lon="6.86938">
        <ele>2357.3</ele>
        <time>2013-09-02T07:11:23Z</time>
      </trkpt>
      <trkpt lat="44.56991" lon="6.86941">
        <ele>2359.7</ele>
        <time>2013-09-02T07:11:38Z</time>
      </trkpt>
      <trkpt lat="44.56982" lon="6.86947">
        <ele>2362.6</ele>
        <time>2013-09-02T07:11:53Z</time>
      </trkpt>
      <trkpt lat="44.56974" lon="6.86958">
        <ele>2365</ele>
        <time>2013-09-02T07:12:08Z</time>
      </trkpt>
      <trkpt lat="44.56968" lon="6.86961">
        <ele>2366.4</ele>
        <time>2013-09-02T07:12:15Z</time>
      </trkpt>
      <trkpt lat="44.56959" lon="6.8697">
        <ele>2367.9</ele>
        <time>2013-09-02T07:12:29Z</time>
      </trkpt>
      <trkpt lat="44.56955" lon="6.86976">
        <ele>2369.3</ele>
        <time>2013-09-02T07:12:43Z</time>
      </trkpt>
      <trkpt lat="44.56938" lon="6.86989">
        <ele>2371.2</ele>
        <time>2013-09-02T07:13:03Z</time>
      </trkpt>
      <trkpt lat="44.56939" lon="6.86989">
        <ele>2370.8</ele>
        <time>2013-09-02T07:13:15Z</time>
      </trkpt>
      <trkpt lat="44.56935" lon="6.86991">
        <ele>2371.2</ele>
        <time>2013-09-02T07:13:30Z</time>
      </trkpt>
      <trkpt lat="44.56915" lon="6.87002">
        <ele>2372.2</ele>
        <time>2013-09-02T07:13:44Z</time>
      </trkpt>
      <trkpt lat="44.56903" lon="6.87006">
        <ele>2373.2</ele>
        <time>2013-09-02T07:13:53Z</time>
      </trkpt>
      <trkpt lat="44.56901" lon="6.87006">
        <ele>2372.7</ele>
        <time>2013-09-02T07:13:54Z</time>
      </trkpt>
      <trkpt lat="44.569" lon="6.87006">
        <ele>2373.2</ele>
        <time>2013-09-02T07:13:55Z</time>
      </trkpt>
      <trkpt lat="44.56898" lon="6.87006">
        <ele>2373.2</ele>
        <time>2013-09-02T07:13:56Z</time>
      </trkpt>
      <trkpt lat="44.56896" lon="6.87007">
        <ele>2373.6</ele>
        <time>2013-09-02T07:13:57Z</time>
      </trkpt>
      <trkpt lat="44.56895" lon="6.87007">
        <ele>2373.6</ele>
        <time>2013-09-02T07:13:58Z</time>
      </trkpt>
      <trkpt lat="44.5689" lon="6.87009">
        <ele>2373.6</ele>
        <time>2013-09-02T07:14:01Z</time>
      </trkpt>
      <trkpt lat="44.56889" lon="6.87011">
        <ele>2373.6</ele>
        <time>2013-09-02T07:14:02Z</time>
      </trkpt>
      <trkpt lat="44.56862" lon="6.87018">
        <ele>2372.2</ele>
        <time>2013-09-02T07:14:15Z</time>
      </trkpt>
      <trkpt lat="44.56845" lon="6.87024">
        <ele>2373.2</ele>
        <time>2013-09-02T07:14:26Z</time>
      </trkpt>
      <trkpt lat="44.56837" lon="6.87025">
        <ele>2373.6</ele>
        <time>2013-09-02T07:14:31Z</time>
      </trkpt>
      <trkpt lat="44.56835" lon="6.87026">
        <ele>2373.2</ele>
        <time>2013-09-02T07:14:32Z</time>
      </trkpt>
      <trkpt lat="44.56834" lon="6.87027">
        <ele>2373.2</ele>
        <time>2013-09-02T07:14:33Z</time>
      </trkpt>
      <trkpt lat="44.56832" lon="6.87028">
        <ele>2373.6</ele>
        <time>2013-09-02T07:14:34Z</time>
      </trkpt>
      <trkpt lat="44.56831" lon="6.8703">
        <ele>2373.6</ele>
        <time>2013-09-02T07:14:35Z</time>
      </trkpt>
      <trkpt lat="44.56829" lon="6.87031">
        <ele>2374.1</ele>
        <time>2013-09-02T07:14:36Z</time>
      </trkpt>
      <trkpt lat="44.56827" lon="6.87032">
        <ele>2373.6</ele>
        <time>2013-09-02T07:14:37Z</time>
      </trkpt>
      <trkpt lat="44.56826" lon="6.87033">
        <ele>2373.2</ele>
        <time>2013-09-02T07:14:38Z</time>
      </trkpt>
      <trkpt lat="44.56822" lon="6.87036">
        <ele>2374.6</ele>
        <time>2013-09-02T07:14:49Z</time>
      </trkpt>
      <trkpt lat="44.56817" lon="6.87035">
        <ele>2375.6</ele>
        <time>2013-09-02T07:15:09Z</time>
      </trkpt>
      <trkpt lat="44.56811" lon="6.87042">
        <ele>2378</ele>
        <time>2013-09-02T07:15:23Z</time>
      </trkpt>
      <trkpt lat="44.56807" lon="6.87046">
        <ele>2377</ele>
        <time>2013-09-02T07:15:29Z</time>
      </trkpt>
      <trkpt lat="44.568" lon="6.87054">
        <ele>2376</ele>
        <time>2013-09-02T07:15:40Z</time>
      </trkpt>
      <trkpt lat="44.56799" lon="6.87054">
        <ele>2375.6</ele>
        <time>2013-09-02T07:15:41Z</time>
      </trkpt>
      <trkpt lat="44.56798" lon="6.87055">
        <ele>2376</ele>
        <time>2013-09-02T07:15:42Z</time>
      </trkpt>
      <trkpt lat="44.56784" lon="6.87074">
        <ele>2377</ele>
        <time>2013-09-02T07:15:55Z</time>
      </trkpt>
      <trkpt lat="44.56783" lon="6.87078">
        <ele>2376.5</ele>
        <time>2013-09-02T07:16:09Z</time>
      </trkpt>
      <trkpt lat="44.56778" lon="6.87096">
        <ele>2378.9</ele>
        <time>2013-09-02T07:16:21Z</time>
      </trkpt>
      <trkpt lat="44.5678" lon="6.87116">
        <ele>2378.9</ele>
        <time>2013-09-02T07:16:35Z</time>
      </trkpt>
      <trkpt lat="44.56776" lon="6.87122">
        <ele>2379.9</ele>
        <time>2013-09-02T07:16:43Z</time>
      </trkpt>
      <trkpt lat="44.5677" lon="6.8713">
        <ele>2380.4</ele>
        <time>2013-09-02T07:16:57Z</time>
      </trkpt>
      <trkpt lat="44.5675" lon="6.87155">
        <ele>2381.3</ele>
        <time>2013-09-02T07:17:12Z</time>
      </trkpt>
      <trkpt lat="44.56743" lon="6.87168">
        <ele>2381.3</ele>
        <time>2013-09-02T07:17:25Z</time>
      </trkpt>
      <trkpt lat="44.56743" lon="6.87168">
        <ele>2382.8</ele>
        <time>2013-09-02T07:17:27Z</time>
      </trkpt>
      <trkpt lat="44.56744" lon="6.87167">
        <ele>2381.8</ele>
        <time>2013-09-02T07:17:58Z</time>
      </trkpt>
      <trkpt lat="44.56737" lon="6.87178">
        <ele>2383.3</ele>
        <time>2013-09-02T07:18:18Z</time>
      </trkpt>
      <trkpt lat="44.56724" lon="6.87201">
        <ele>2384.2</ele>
        <time>2013-09-02T07:18:31Z</time>
      </trkpt>
      <trkpt lat="44.56719" lon="6.87206">
        <ele>2385.7</ele>
        <time>2013-09-02T07:18:36Z</time>
      </trkpt>
      <trkpt lat="44.56718" lon="6.87207">
        <ele>2385.7</ele>
        <time>2013-09-02T07:18:37Z</time>
      </trkpt>
      <trkpt lat="44.56717" lon="6.87209">
        <ele>2385.2</ele>
        <time>2013-09-02T07:18:38Z</time>
      </trkpt>
      <trkpt lat="44.56717" lon="6.87211">
        <ele>2385.7</ele>
        <time>2013-09-02T07:18:39Z</time>
      </trkpt>
      <trkpt lat="44.56716" lon="6.87212">
        <ele>2385.2</ele>
        <time>2013-09-02T07:18:40Z</time>
      </trkpt>
      <trkpt lat="44.56716" lon="6.87215">
        <ele>2385.2</ele>
        <time>2013-09-02T07:18:41Z</time>
      </trkpt>
      <trkpt lat="44.56716" lon="6.87217">
        <ele>2385.7</ele>
        <time>2013-09-02T07:18:42Z</time>
      </trkpt>
      <trkpt lat="44.56715" lon="6.87219">
        <ele>2386.1</ele>
        <time>2013-09-02T07:18:43Z</time>
      </trkpt>
      <trkpt lat="44.56715" lon="6.8722">
        <ele>2386.1</ele>
        <time>2013-09-02T07:18:44Z</time>
      </trkpt>
      <trkpt lat="44.56714" lon="6.87222">
        <ele>2387.1</ele>
        <time>2013-09-02T07:18:45Z</time>
      </trkpt>
      <trkpt lat="44.56713" lon="6.87223">
        <ele>2387.1</ele>
        <time>2013-09-02T07:18:46Z</time>
      </trkpt>
      <trkpt lat="44.56695" lon="6.87239">
        <ele>2389</ele>
        <time>2013-09-02T07:19:02Z</time>
      </trkpt>
      <trkpt lat="44.56678" lon="6.87238">
        <ele>2389.5</ele>
        <time>2013-09-02T07:19:17Z</time>
      </trkpt>
      <trkpt lat="44.56669" lon="6.87238">
        <ele>2390</ele>
        <time>2013-09-02T07:19:30Z</time>
      </trkpt>
      <trkpt lat="44.56668" lon="6.87238">
        <ele>2390.5</ele>
        <time>2013-09-02T07:19:31Z</time>
      </trkpt>
      <trkpt lat="44.56664" lon="6.87247">
        <ele>2392.4</ele>
        <time>2013-09-02T07:19:46Z</time>
      </trkpt>
      <trkpt lat="44.56658" lon="6.87257">
        <ele>2392.9</ele>
        <time>2013-09-02T07:20:02Z</time>
      </trkpt>
      <trkpt lat="44.56643" lon="6.8727">
        <ele>2393.8</ele>
        <time>2013-09-02T07:20:11Z</time>
      </trkpt>
      <trkpt lat="44.56633" lon="6.87286">
        <ele>2395.3</ele>
        <time>2013-09-02T07:20:21Z</time>
      </trkpt>
      <trkpt lat="44.56631" lon="6.87288">
        <ele>2395.3</ele>
        <time>2013-09-02T07:20:22Z</time>
      </trkpt>
      <trkpt lat="44.5662" lon="6.87304">
        <ele>2396.2</ele>
        <time>2013-09-02T07:20:36Z</time>
      </trkpt>
      <trkpt lat="44.56616" lon="6.87311">
        <ele>2398.2</ele>
        <time>2013-09-02T07:20:48Z</time>
      </trkpt>
      <trkpt lat="44.5661" lon="6.87324">
        <ele>2399.6</ele>
        <time>2013-09-02T07:21:04Z</time>
      </trkpt>
      <trkpt lat="44.56603" lon="6.87327">
        <ele>2399.6</ele>
        <time>2013-09-02T07:21:12Z</time>
      </trkpt>
      <trkpt lat="44.56595" lon="6.87333">
        <ele>2400.1</ele>
        <time>2013-09-02T07:21:25Z</time>
      </trkpt>
      <trkpt lat="44.56587" lon="6.87341">
        <ele>2401</ele>
        <time>2013-09-02T07:21:39Z</time>
      </trkpt>
      <trkpt lat="44.56579" lon="6.87347">
        <ele>2403</ele>
        <time>2013-09-02T07:21:55Z</time>
      </trkpt>
      <trkpt lat="44.56569" lon="6.8736">
        <ele>2403.4</ele>
        <time>2013-09-02T07:22:11Z</time>
      </trkpt>
      <trkpt lat="44.56558" lon="6.87365">
        <ele>2405.4</ele>
        <time>2013-09-02T07:22:27Z</time>
      </trkpt>
      <trkpt lat="44.56557" lon="6.87362">
        <ele>2405.4</ele>
        <time>2013-09-02T07:22:47Z</time>
      </trkpt>
      <trkpt lat="44.56554" lon="6.87363">
        <ele>2406.3</ele>
        <time>2013-09-02T07:22:59Z</time>
      </trkpt>
      <trkpt lat="44.56548" lon="6.87359">
        <ele>2407.3</ele>
        <time>2013-09-02T07:23:18Z</time>
      </trkpt>
      <trkpt lat="44.56544" lon="6.87359">
        <ele>2410.2</ele>
        <time>2013-09-02T07:23:35Z</time>
      </trkpt>
      <trkpt lat="44.56542" lon="6.8737">
        <ele>2412.1</ele>
        <time>2013-09-02T07:23:50Z</time>
      </trkpt>
      <trkpt lat="44.56536" lon="6.87377">
        <ele>2415</ele>
        <time>2013-09-02T07:24:07Z</time>
      </trkpt>
      <trkpt lat="44.56527" lon="6.87374">
        <ele>2416.9</ele>
        <time>2013-09-02T07:24:23Z</time>
      </trkpt>
      <trkpt lat="44.56521" lon="6.87384">
        <ele>2419.3</ele>
        <time>2013-09-02T07:24:38Z</time>
      </trkpt>
      <trkpt lat="44.56512" lon="6.8739">
        <ele>2421.7</ele>
        <time>2013-09-02T07:24:54Z</time>
      </trkpt>
      <trkpt lat="44.56508" lon="6.87394">
        <ele>2423.6</ele>
        <time>2013-09-02T07:25:08Z</time>
      </trkpt>
      <trkpt lat="44.56503" lon="6.87396">
        <ele>2424.6</ele>
        <time>2013-09-02T07:25:14Z</time>
      </trkpt>
      <trkpt lat="44.56492" lon="6.87403">
        <ele>2426.5</ele>
        <time>2013-09-02T07:25:29Z</time>
      </trkpt>
      <trkpt lat="44.56488" lon="6.87411">
        <ele>2426.5</ele>
        <time>2013-09-02T07:25:43Z</time>
      </trkpt>
      <trkpt lat="44.56487" lon="6.87412">
        <ele>2426</ele>
        <time>2013-09-02T07:25:47Z</time>
      </trkpt>
      <trkpt lat="44.56486" lon="6.87413">
        <ele>2426.5</ele>
        <time>2013-09-02T07:25:48Z</time>
      </trkpt>
      <trkpt lat="44.56485" lon="6.87415">
        <ele>2427</ele>
        <time>2013-09-02T07:25:49Z</time>
      </trkpt>
      <trkpt lat="44.56467" lon="6.8744">
        <ele>2425.1</ele>
        <time>2013-09-02T07:25:59Z</time>
      </trkpt>
      <trkpt lat="44.5645" lon="6.87479">
        <ele>2423.1</ele>
        <time>2013-09-02T07:26:12Z</time>
      </trkpt>
      <trkpt lat="44.56447" lon="6.87516">
        <ele>2424.6</ele>
        <time>2013-09-02T07:26:25Z</time>
      </trkpt>
      <trkpt lat="44.56442" lon="6.87525">
        <ele>2426</ele>
        <time>2013-09-02T07:26:30Z</time>
      </trkpt>
      <trkpt lat="44.56442" lon="6.87527">
        <ele>2426.5</ele>
        <time>2013-09-02T07:26:31Z</time>
      </trkpt>
      <trkpt lat="44.56441" lon="6.87534">
        <ele>2427.5</ele>
        <time>2013-09-02T07:26:34Z</time>
      </trkpt>
      <trkpt lat="44.56447" lon="6.87567">
        <ele>2426.5</ele>
        <time>2013-09-02T07:26:48Z</time>
      </trkpt>
      <trkpt lat="44.5644" lon="6.87573">
        <ele>2427</ele>
        <time>2013-09-02T07:27:00Z</time>
      </trkpt>
      <trkpt lat="44.56438" lon="6.87569">
        <ele>2426.5</ele>
        <time>2013-09-02T07:27:33Z</time>
      </trkpt>
      <trkpt lat="44.56433" lon="6.8758">
        <ele>2426.5</ele>
        <time>2013-09-02T07:27:48Z</time>
      </trkpt>
      <trkpt lat="44.56432" lon="6.87581">
        <ele>2427.5</ele>
        <time>2013-09-02T07:27:49Z</time>
      </trkpt>
      <trkpt lat="44.56426" lon="6.87593">
        <ele>2427.5</ele>
        <time>2013-09-02T07:28:02Z</time>
      </trkpt>
      <trkpt lat="44.5642" lon="6.87604">
        <ele>2429.4</ele>
        <time>2013-09-02T07:28:19Z</time>
      </trkpt>
      <trkpt lat="44.56414" lon="6.87607">
        <ele>2429.4</ele>
        <time>2013-09-02T07:28:51Z</time>
      </trkpt>
      <trkpt lat="44.5642" lon="6.87603">
        <ele>2429.4</ele>
        <time>2013-09-02T07:29:35Z</time>
      </trkpt>
      <trkpt lat="44.56419" lon="6.87608">
        <ele>2430.4</ele>
        <time>2013-09-02T07:30:06Z</time>
      </trkpt>
      <trkpt lat="44.56418" lon="6.87616">
        <ele>2430.8</ele>
        <time>2013-09-02T07:30:14Z</time>
      </trkpt>
      <trkpt lat="44.56418" lon="6.87618">
        <ele>2430.8</ele>
        <time>2013-09-02T07:30:15Z</time>
      </trkpt>
      <trkpt lat="44.5642" lon="6.87622">
        <ele>2431.3</ele>
        <time>2013-09-02T07:30:18Z</time>
      </trkpt>
      <trkpt lat="44.56421" lon="6.87623">
        <ele>2431.8</ele>
        <time>2013-09-02T07:30:19Z</time>
      </trkpt>
      <trkpt lat="44.56424" lon="6.87634">
        <ele>2431.8</ele>
        <time>2013-09-02T07:30:27Z</time>
      </trkpt>
      <trkpt lat="44.5642" lon="6.87636">
        <ele>2432.3</ele>
        <time>2013-09-02T07:30:30Z</time>
      </trkpt>
      <trkpt lat="44.5641" lon="6.8764">
        <ele>2433.2</ele>
        <time>2013-09-02T07:30:40Z</time>
      </trkpt>
      <trkpt lat="44.56397" lon="6.87652">
        <ele>2433.7</ele>
        <time>2013-09-02T07:30:55Z</time>
      </trkpt>
      <trkpt lat="44.56388" lon="6.87658">
        <ele>2435.2</ele>
        <time>2013-09-02T07:31:04Z</time>
      </trkpt>
      <trkpt lat="44.56387" lon="6.87658">
        <ele>2434.2</ele>
        <time>2013-09-02T07:31:05Z</time>
      </trkpt>
      <trkpt lat="44.56384" lon="6.87658">
        <ele>2436.6</ele>
        <time>2013-09-02T07:31:18Z</time>
      </trkpt>
      <trkpt lat="44.5638" lon="6.87659">
        <ele>2436.1</ele>
        <time>2013-09-02T07:31:28Z</time>
      </trkpt>
      <trkpt lat="44.56376" lon="6.87654">
        <ele>2437.6</ele>
        <time>2013-09-02T07:31:48Z</time>
      </trkpt>
      <trkpt lat="44.5637" lon="6.87654">
        <ele>2438.5</ele>
        <time>2013-09-02T07:31:57Z</time>
      </trkpt>
      <trkpt lat="44.56369" lon="6.87655">
        <ele>2439</ele>
        <time>2013-09-02T07:31:58Z</time>
      </trkpt>
      <trkpt lat="44.56362" lon="6.8765">
        <ele>2440.4</ele>
        <time>2013-09-02T07:32:12Z</time>
      </trkpt>
      <trkpt lat="44.56355" lon="6.87642">
        <ele>2442.9</ele>
        <time>2013-09-02T07:32:25Z</time>
      </trkpt>
      <trkpt lat="44.5635" lon="6.87636">
        <ele>2445.3</ele>
        <time>2013-09-02T07:32:41Z</time>
      </trkpt>
      <trkpt lat="44.56348" lon="6.87628">
        <ele>2446.7</ele>
        <time>2013-09-02T07:32:55Z</time>
      </trkpt>
      <trkpt lat="44.56344" lon="6.87624">
        <ele>2447.7</ele>
        <time>2013-09-02T07:33:13Z</time>
      </trkpt>
      <trkpt lat="44.5634" lon="6.87615">
        <ele>2449.6</ele>
        <time>2013-09-02T07:33:27Z</time>
      </trkpt>
      <trkpt lat="44.56336" lon="6.87607">
        <ele>2451.5</ele>
        <time>2013-09-02T07:33:40Z</time>
      </trkpt>
      <trkpt lat="44.56334" lon="6.87609">
        <ele>2452</ele>
        <time>2013-09-02T07:33:45Z</time>
      </trkpt>
      <trkpt lat="44.56331" lon="6.87615">
        <ele>2453.9</ele>
        <time>2013-09-02T07:33:57Z</time>
      </trkpt>
      <trkpt lat="44.56327" lon="6.87631">
        <ele>2456.3</ele>
        <time>2013-09-02T07:34:13Z</time>
      </trkpt>
      <trkpt lat="44.56324" lon="6.87641">
        <ele>2458.2</ele>
        <time>2013-09-02T07:34:26Z</time>
      </trkpt>
      <trkpt lat="44.56315" lon="6.87647">
        <ele>2460.2</ele>
        <time>2013-09-02T07:34:41Z</time>
      </trkpt>
      <trkpt lat="44.56308" lon="6.87651">
        <ele>2463.5</ele>
        <time>2013-09-02T07:34:57Z</time>
      </trkpt>
      <trkpt lat="44.56301" lon="6.87654">
        <ele>2464.5</ele>
        <time>2013-09-02T07:35:12Z</time>
      </trkpt>
      <trkpt lat="44.56302" lon="6.87661">
        <ele>2466.9</ele>
        <time>2013-09-02T07:35:26Z</time>
      </trkpt>
      <trkpt lat="44.56298" lon="6.87671">
        <ele>2468.3</ele>
        <time>2013-09-02T07:35:38Z</time>
      </trkpt>
      <trkpt lat="44.56296" lon="6.87675">
        <ele>2467.8</ele>
        <time>2013-09-02T07:35:42Z</time>
      </trkpt>
      <trkpt lat="44.56296" lon="6.87676">
        <ele>2467.8</ele>
        <time>2013-09-02T07:35:43Z</time>
      </trkpt>
      <trkpt lat="44.56289" lon="6.87689">
        <ele>2468.8</ele>
        <time>2013-09-02T07:35:57Z</time>
      </trkpt>
      <trkpt lat="44.56281" lon="6.87697">
        <ele>2471.2</ele>
        <time>2013-09-02T07:36:11Z</time>
      </trkpt>
      <trkpt lat="44.56274" lon="6.8771">
        <ele>2472.2</ele>
        <time>2013-09-02T07:36:24Z</time>
      </trkpt>
      <trkpt lat="44.56268" lon="6.8772">
        <ele>2474.1</ele>
        <time>2013-09-02T07:36:38Z</time>
      </trkpt>
      <trkpt lat="44.56261" lon="6.87722">
        <ele>2476</ele>
        <time>2013-09-02T07:36:51Z</time>
      </trkpt>
      <trkpt lat="44.56255" lon="6.87726">
        <ele>2477.5</ele>
        <time>2013-09-02T07:37:04Z</time>
      </trkpt>
      <trkpt lat="44.56249" lon="6.87732">
        <ele>2478.9</ele>
        <time>2013-09-02T07:37:16Z</time>
      </trkpt>
      <trkpt lat="44.56243" lon="6.87736">
        <ele>2480.3</ele>
        <time>2013-09-02T07:37:30Z</time>
      </trkpt>
      <trkpt lat="44.56239" lon="6.87744">
        <ele>2482.3</ele>
        <time>2013-09-02T07:37:42Z</time>
      </trkpt>
      <trkpt lat="44.56234" lon="6.8775">
        <ele>2484.2</ele>
        <time>2013-09-02T07:37:55Z</time>
      </trkpt>
      <trkpt lat="44.56234" lon="6.87753">
        <ele>2483.7</ele>
        <time>2013-09-02T07:37:58Z</time>
      </trkpt>
      <trkpt lat="44.56234" lon="6.87761">
        <ele>2483.7</ele>
        <time>2013-09-02T07:38:04Z</time>
      </trkpt>
      <trkpt lat="44.5623" lon="6.87765">
        <ele>2483.2</ele>
        <time>2013-09-02T07:38:08Z</time>
      </trkpt>
      <trkpt lat="44.56227" lon="6.87766">
        <ele>2483.7</ele>
        <time>2013-09-02T07:38:11Z</time>
      </trkpt>
      <trkpt lat="44.56217" lon="6.87773">
        <ele>2484.7</ele>
        <time>2013-09-02T07:38:24Z</time>
      </trkpt>
      <trkpt lat="44.5621" lon="6.87777">
        <ele>2486.1</ele>
        <time>2013-09-02T07:38:34Z</time>
      </trkpt>
      <trkpt lat="44.56198" lon="6.87785">
        <ele>2488</ele>
        <time>2013-09-02T07:38:49Z</time>
      </trkpt>
      <trkpt lat="44.56186" lon="6.87793">
        <ele>2490.9</ele>
        <time>2013-09-02T07:39:05Z</time>
      </trkpt>
      <trkpt lat="44.56178" lon="6.87797">
        <ele>2490.9</ele>
        <time>2013-09-02T07:39:13Z</time>
      </trkpt>
      <trkpt lat="44.56168" lon="6.87806">
        <ele>2492.8</ele>
        <time>2013-09-02T07:39:26Z</time>
      </trkpt>
      <trkpt lat="44.56155" lon="6.87811">
        <ele>2491.4</ele>
        <time>2013-09-02T07:39:39Z</time>
      </trkpt>
      <trkpt lat="44.56142" lon="6.87813">
        <ele>2492.4</ele>
        <time>2013-09-02T07:39:52Z</time>
      </trkpt>
      <trkpt lat="44.56134" lon="6.87816">
        <ele>2493.8</ele>
        <time>2013-09-02T07:40:01Z</time>
      </trkpt>
      <trkpt lat="44.56119" lon="6.87829">
        <ele>2495.2</ele>
        <time>2013-09-02T07:40:17Z</time>
      </trkpt>
      <trkpt lat="44.5611" lon="6.87832">
        <ele>2498.6</ele>
        <time>2013-09-02T07:40:30Z</time>
      </trkpt>
      <trkpt lat="44.56103" lon="6.87845">
        <ele>2499.1</ele>
        <time>2013-09-02T07:40:41Z</time>
      </trkpt>
      <trkpt lat="44.56094" lon="6.87856">
        <ele>2501.5</ele>
        <time>2013-09-02T07:40:57Z</time>
      </trkpt>
      <trkpt lat="44.56089" lon="6.87861">
        <ele>2502</ele>
        <time>2013-09-02T07:41:06Z</time>
      </trkpt>
      <trkpt lat="44.56088" lon="6.87862">
        <ele>2501.5</ele>
        <time>2013-09-02T07:41:07Z</time>
      </trkpt>
      <trkpt lat="44.56087" lon="6.87863">
        <ele>2501.5</ele>
        <time>2013-09-02T07:41:08Z</time>
      </trkpt>
      <trkpt lat="44.56085" lon="6.87863">
        <ele>2501.5</ele>
        <time>2013-09-02T07:41:09Z</time>
      </trkpt>
      <trkpt lat="44.56081" lon="6.87866">
        <ele>2502</ele>
        <time>2013-09-02T07:41:14Z</time>
      </trkpt>
      <trkpt lat="44.56077" lon="6.87872">
        <ele>2503.4</ele>
        <time>2013-09-02T07:41:26Z</time>
      </trkpt>
      <trkpt lat="44.56073" lon="6.87875">
        <ele>2503.9</ele>
        <time>2013-09-02T07:41:30Z</time>
      </trkpt>
      <trkpt lat="44.56072" lon="6.87875">
        <ele>2503.4</ele>
        <time>2013-09-02T07:41:31Z</time>
      </trkpt>
      <trkpt lat="44.56071" lon="6.87877">
        <ele>2503.4</ele>
        <time>2013-09-02T07:41:32Z</time>
      </trkpt>
      <trkpt lat="44.5607" lon="6.87878">
        <ele>2502.9</ele>
        <time>2013-09-02T07:41:33Z</time>
      </trkpt>
      <trkpt lat="44.56069" lon="6.87879">
        <ele>2502.5</ele>
        <time>2013-09-02T07:41:34Z</time>
      </trkpt>
      <trkpt lat="44.56068" lon="6.8788">
        <ele>2502.9</ele>
        <time>2013-09-02T07:41:35Z</time>
      </trkpt>
      <trkpt lat="44.56067" lon="6.87881">
        <ele>2503.4</ele>
        <time>2013-09-02T07:41:36Z</time>
      </trkpt>
      <trkpt lat="44.56065" lon="6.87882">
        <ele>2502.9</ele>
        <time>2013-09-02T07:41:37Z</time>
      </trkpt>
      <trkpt lat="44.56064" lon="6.87884">
        <ele>2502.5</ele>
        <time>2013-09-02T07:41:38Z</time>
      </trkpt>
      <trkpt lat="44.56054" lon="6.87903">
        <ele>2502.9</ele>
        <time>2013-09-02T07:41:54Z</time>
      </trkpt>
      <trkpt lat="44.56046" lon="6.87915">
        <ele>2502.9</ele>
        <time>2013-09-02T07:42:09Z</time>
      </trkpt>
      <trkpt lat="44.56037" lon="6.87924">
        <ele>2505.3</ele>
        <time>2013-09-02T07:42:25Z</time>
      </trkpt>
      <trkpt lat="44.56033" lon="6.87932">
        <ele>2506.3</ele>
        <time>2013-09-02T07:42:38Z</time>
      </trkpt>
      <trkpt lat="44.56031" lon="6.87943">
        <ele>2508.7</ele>
        <time>2013-09-02T07:42:51Z</time>
      </trkpt>
      <trkpt lat="44.56031" lon="6.87956">
        <ele>2510.1</ele>
        <time>2013-09-02T07:43:06Z</time>
      </trkpt>
      <trkpt lat="44.56025" lon="6.87967">
        <ele>2512.5</ele>
        <time>2013-09-02T07:43:24Z</time>
      </trkpt>
      <trkpt lat="44.56022" lon="6.87973">
        <ele>2515.4</ele>
        <time>2013-09-02T07:43:33Z</time>
      </trkpt>
      <trkpt lat="44.56018" lon="6.87985">
        <ele>2517.4</ele>
        <time>2013-09-02T07:43:48Z</time>
      </trkpt>
      <trkpt lat="44.56014" lon="6.87997">
        <ele>2518.8</ele>
        <time>2013-09-02T07:44:02Z</time>
      </trkpt>
      <trkpt lat="44.56007" lon="6.88014">
        <ele>2521.2</ele>
        <time>2013-09-02T07:44:20Z</time>
      </trkpt>
      <trkpt lat="44.55998" lon="6.88028">
        <ele>2523.6</ele>
        <time>2013-09-02T07:44:35Z</time>
      </trkpt>
      <trkpt lat="44.55987" lon="6.8804">
        <ele>2525</ele>
        <time>2013-09-02T07:44:50Z</time>
      </trkpt>
      <trkpt lat="44.55985" lon="6.88043">
        <ele>2525</ele>
        <time>2013-09-02T07:44:53Z</time>
      </trkpt>
      <trkpt lat="44.55984" lon="6.88044">
        <ele>2525</ele>
        <time>2013-09-02T07:44:54Z</time>
      </trkpt>
      <trkpt lat="44.55976" lon="6.88056">
        <ele>2526</ele>
        <time>2013-09-02T07:45:07Z</time>
      </trkpt>
      <trkpt lat="44.55968" lon="6.88065">
        <ele>2527.4</ele>
        <time>2013-09-02T07:45:21Z</time>
      </trkpt>
      <trkpt lat="44.55966" lon="6.88066">
        <ele>2527</ele>
        <time>2013-09-02T07:45:24Z</time>
      </trkpt>
      <trkpt lat="44.55955" lon="6.8807">
        <ele>2528.4</ele>
        <time>2013-09-02T07:45:38Z</time>
      </trkpt>
      <trkpt lat="44.55944" lon="6.88076">
        <ele>2530.3</ele>
        <time>2013-09-02T07:45:52Z</time>
      </trkpt>
      <trkpt lat="44.55943" lon="6.88077">
        <ele>2531.3</ele>
        <time>2013-09-02T07:45:54Z</time>
      </trkpt>
      <trkpt lat="44.55942" lon="6.88077">
        <ele>2530.8</ele>
        <time>2013-09-02T07:45:55Z</time>
      </trkpt>
      <trkpt lat="44.55941" lon="6.88078">
        <ele>2531.3</ele>
        <time>2013-09-02T07:45:56Z</time>
      </trkpt>
      <trkpt lat="44.5594" lon="6.88079">
        <ele>2531.3</ele>
        <time>2013-09-02T07:45:57Z</time>
      </trkpt>
      <trkpt lat="44.55939" lon="6.8808">
        <ele>2531.8</ele>
        <time>2013-09-02T07:45:58Z</time>
      </trkpt>
      <trkpt lat="44.55939" lon="6.88081">
        <ele>2530.8</ele>
        <time>2013-09-02T07:45:59Z</time>
      </trkpt>
      <trkpt lat="44.55929" lon="6.88089">
        <ele>2532.3</ele>
        <time>2013-09-02T07:46:14Z</time>
      </trkpt>
      <trkpt lat="44.55929" lon="6.88088">
        <ele>2530.8</ele>
        <time>2013-09-02T07:46:27Z</time>
      </trkpt>
      <trkpt lat="44.55922" lon="6.88094">
        <ele>2530.3</ele>
        <time>2013-09-02T07:46:50Z</time>
      </trkpt>
      <trkpt lat="44.55917" lon="6.88096">
        <ele>2530.3</ele>
        <time>2013-09-02T07:46:54Z</time>
      </trkpt>
      <trkpt lat="44.55915" lon="6.88098">
        <ele>2529.9</ele>
        <time>2013-09-02T07:46:55Z</time>
      </trkpt>
      <trkpt lat="44.55914" lon="6.88099">
        <ele>2530.3</ele>
        <time>2013-09-02T07:46:56Z</time>
      </trkpt>
      <trkpt lat="44.55913" lon="6.881">
        <ele>2530.3</ele>
        <time>2013-09-02T07:46:57Z</time>
      </trkpt>
      <trkpt lat="44.55912" lon="6.88102">
        <ele>2530.3</ele>
        <time>2013-09-02T07:46:58Z</time>
      </trkpt>
      <trkpt lat="44.55911" lon="6.88103">
        <ele>2530.8</ele>
        <time>2013-09-02T07:46:59Z</time>
      </trkpt>
      <trkpt lat="44.5591" lon="6.88105">
        <ele>2530.3</ele>
        <time>2013-09-02T07:47:00Z</time>
      </trkpt>
      <trkpt lat="44.55909" lon="6.88107">
        <ele>2531.3</ele>
        <time>2013-09-02T07:47:01Z</time>
      </trkpt>
      <trkpt lat="44.55908" lon="6.88109">
        <ele>2530.3</ele>
        <time>2013-09-02T07:47:02Z</time>
      </trkpt>
      <trkpt lat="44.55906" lon="6.88111">
        <ele>2529.9</ele>
        <time>2013-09-02T07:47:03Z</time>
      </trkpt>
      <trkpt lat="44.55905" lon="6.88113">
        <ele>2531.3</ele>
        <time>2013-09-02T07:47:04Z</time>
      </trkpt>
      <trkpt lat="44.5589" lon="6.88135">
        <ele>2531.8</ele>
        <time>2013-09-02T07:47:15Z</time>
      </trkpt>
      <trkpt lat="44.5588" lon="6.8817">
        <ele>2532.3</ele>
        <time>2013-09-02T07:47:30Z</time>
      </trkpt>
      <trkpt lat="44.5586" lon="6.882">
        <ele>2534.7</ele>
        <time>2013-09-02T07:47:47Z</time>
      </trkpt>
      <trkpt lat="44.5584" lon="6.8823">
        <ele>2536.1</ele>
        <time>2013-09-02T07:48:03Z</time>
      </trkpt>
      <trkpt lat="44.55827" lon="6.88255">
        <ele>2535.6</ele>
        <time>2013-09-02T07:48:12Z</time>
      </trkpt>
      <trkpt lat="44.55819" lon="6.88259">
        <ele>2536.6</ele>
        <time>2013-09-02T07:48:17Z</time>
      </trkpt>
      <trkpt lat="44.55818" lon="6.8826">
        <ele>2537.1</ele>
        <time>2013-09-02T07:48:18Z</time>
      </trkpt>
      <trkpt lat="44.55817" lon="6.88261">
        <ele>2537.5</ele>
        <time>2013-09-02T07:48:19Z</time>
      </trkpt>
      <trkpt lat="44.55808" lon="6.88269">
        <ele>2539</ele>
        <time>2013-09-02T07:48:26Z</time>
      </trkpt>
      <trkpt lat="44.55807" lon="6.88269">
        <ele>2539.9</ele>
        <time>2013-09-02T07:48:27Z</time>
      </trkpt>
      <trkpt lat="44.55805" lon="6.88271">
        <ele>2539</ele>
        <time>2013-09-02T07:48:28Z</time>
      </trkpt>
      <trkpt lat="44.55805" lon="6.88273">
        <ele>2539</ele>
        <time>2013-09-02T07:48:29Z</time>
      </trkpt>
      <trkpt lat="44.55804" lon="6.88275">
        <ele>2539</ele>
        <time>2013-09-02T07:48:30Z</time>
      </trkpt>
      <trkpt lat="44.55803" lon="6.88277">
        <ele>2539.5</ele>
        <time>2013-09-02T07:48:31Z</time>
      </trkpt>
      <trkpt lat="44.55799" lon="6.88284">
        <ele>2539.9</ele>
        <time>2013-09-02T07:48:35Z</time>
      </trkpt>
      <trkpt lat="44.55797" lon="6.88285">
        <ele>2540.4</ele>
        <time>2013-09-02T07:48:36Z</time>
      </trkpt>
      <trkpt lat="44.55796" lon="6.88287">
        <ele>2539.9</ele>
        <time>2013-09-02T07:48:37Z</time>
      </trkpt>
      <trkpt lat="44.55794" lon="6.88288">
        <ele>2540.4</ele>
        <time>2013-09-02T07:48:38Z</time>
      </trkpt>
      <trkpt lat="44.55792" lon="6.8829">
        <ele>2540.9</ele>
        <time>2013-09-02T07:48:39Z</time>
      </trkpt>
      <trkpt lat="44.5579" lon="6.88293">
        <ele>2540.9</ele>
        <time>2013-09-02T07:48:41Z</time>
      </trkpt>
      <trkpt lat="44.55788" lon="6.88295">
        <ele>2540.4</ele>
        <time>2013-09-02T07:48:42Z</time>
      </trkpt>
      <trkpt lat="44.55787" lon="6.88297">
        <ele>2540.9</ele>
        <time>2013-09-02T07:48:43Z</time>
      </trkpt>
      <trkpt lat="44.55785" lon="6.88298">
        <ele>2540.9</ele>
        <time>2013-09-02T07:48:44Z</time>
      </trkpt>
      <trkpt lat="44.55784" lon="6.883">
        <ele>2540.9</ele>
        <time>2013-09-02T07:48:45Z</time>
      </trkpt>
      <trkpt lat="44.55783" lon="6.88301">
        <ele>2541.4</ele>
        <time>2013-09-02T07:48:46Z</time>
      </trkpt>
      <trkpt lat="44.55782" lon="6.88303">
        <ele>2540.9</ele>
        <time>2013-09-02T07:48:47Z</time>
      </trkpt>
      <trkpt lat="44.55758" lon="6.88317">
        <ele>2542.3</ele>
        <time>2013-09-02T07:49:02Z</time>
      </trkpt>
      <trkpt lat="44.55736" lon="6.88338">
        <ele>2545.7</ele>
        <time>2013-09-02T07:49:17Z</time>
      </trkpt>
      <trkpt lat="44.55713" lon="6.88357">
        <ele>2546.7</ele>
        <time>2013-09-02T07:49:31Z</time>
      </trkpt>
      <trkpt lat="44.557" lon="6.88368">
        <ele>2548.6</ele>
        <time>2013-09-02T07:49:39Z</time>
      </trkpt>
      <trkpt lat="44.55688" lon="6.88383">
        <ele>2548.6</ele>
        <time>2013-09-02T07:49:48Z</time>
      </trkpt>
      <trkpt lat="44.55686" lon="6.88385">
        <ele>2548.6</ele>
        <time>2013-09-02T07:49:49Z</time>
      </trkpt>
      <trkpt lat="44.55684" lon="6.88386">
        <ele>2548.6</ele>
        <time>2013-09-02T07:49:50Z</time>
      </trkpt>
      <trkpt lat="44.55682" lon="6.88386">
        <ele>2549.1</ele>
        <time>2013-09-02T07:49:51Z</time>
      </trkpt>
      <trkpt lat="44.55681" lon="6.88388">
        <ele>2548.1</ele>
        <time>2013-09-02T07:49:52Z</time>
      </trkpt>
      <trkpt lat="44.55679" lon="6.88389">
        <ele>2549.1</ele>
        <time>2013-09-02T07:49:53Z</time>
      </trkpt>
      <trkpt lat="44.55678" lon="6.88391">
        <ele>2549.6</ele>
        <time>2013-09-02T07:49:54Z</time>
      </trkpt>
      <trkpt lat="44.55667" lon="6.8841">
        <ele>2553.4</ele>
        <time>2013-09-02T07:50:07Z</time>
      </trkpt>
      <trkpt lat="44.55661" lon="6.88415">
        <ele>2553.9</ele>
        <time>2013-09-02T07:50:19Z</time>
      </trkpt>
      <trkpt lat="44.55663" lon="6.88418">
        <ele>2550.5</ele>
        <time>2013-09-02T07:50:36Z</time>
      </trkpt>
      <trkpt lat="44.55663" lon="6.88417">
        <ele>2555.3</ele>
        <time>2013-09-02T07:50:37Z</time>
      </trkpt>
      <trkpt lat="44.55664" lon="6.88418">
        <ele>2552</ele>
        <time>2013-09-02T07:50:40Z</time>
      </trkpt>
      <trkpt lat="44.55665" lon="6.88418">
        <ele>2554.8</ele>
        <time>2013-09-02T07:50:41Z</time>
      </trkpt>
      <trkpt lat="44.55664" lon="6.88426">
        <ele>2554.8</ele>
        <time>2013-09-02T07:51:00Z</time>
      </trkpt>
      <trkpt lat="44.55656" lon="6.88438">
        <ele>2557.7</ele>
        <time>2013-09-02T07:51:19Z</time>
      </trkpt>
      <trkpt lat="44.55651" lon="6.88443">
        <ele>2560.6</ele>
        <time>2013-09-02T07:51:30Z</time>
      </trkpt>
      <trkpt lat="44.55645" lon="6.88444">
        <ele>2562.5</ele>
        <time>2013-09-02T07:51:40Z</time>
      </trkpt>
      <trkpt lat="44.55638" lon="6.88449">
        <ele>2564.5</ele>
        <time>2013-09-02T07:51:56Z</time>
      </trkpt>
      <trkpt lat="44.55633" lon="6.88451">
        <ele>2565.4</ele>
        <time>2013-09-02T07:52:09Z</time>
      </trkpt>
      <trkpt lat="44.55622" lon="6.88454">
        <ele>2567.3</ele>
        <time>2013-09-02T07:52:23Z</time>
      </trkpt>
      <trkpt lat="44.55617" lon="6.88461">
        <ele>2570.7</ele>
        <time>2013-09-02T07:52:39Z</time>
      </trkpt>
      <trkpt lat="44.55602" lon="6.88468">
        <ele>2573.1</ele>
        <time>2013-09-02T07:52:58Z</time>
      </trkpt>
      <trkpt lat="44.55594" lon="6.88477">
        <ele>2575</ele>
        <time>2013-09-02T07:53:13Z</time>
      </trkpt>
      <trkpt lat="44.55581" lon="6.8849">
        <ele>2577.4</ele>
        <time>2013-09-02T07:53:32Z</time>
      </trkpt>
      <trkpt lat="44.55572" lon="6.88501">
        <ele>2578.9</ele>
        <time>2013-09-02T07:53:47Z</time>
      </trkpt>
      <trkpt lat="44.55565" lon="6.88505">
        <ele>2579.8</ele>
        <time>2013-09-02T07:53:58Z</time>
      </trkpt>
      <trkpt lat="44.55554" lon="6.88509">
        <ele>2581.8</ele>
        <time>2013-09-02T07:54:13Z</time>
      </trkpt>
      <trkpt lat="44.5555" lon="6.88512">
        <ele>2581.3</ele>
        <time>2013-09-02T07:54:21Z</time>
      </trkpt>
      <trkpt lat="44.55549" lon="6.88513">
        <ele>2581.3</ele>
        <time>2013-09-02T07:54:22Z</time>
      </trkpt>
      <trkpt lat="44.55548" lon="6.88513">
        <ele>2580.8</ele>
        <time>2013-09-02T07:54:23Z</time>
      </trkpt>
      <trkpt lat="44.55535" lon="6.88517">
        <ele>2583.2</ele>
        <time>2013-09-02T07:54:37Z</time>
      </trkpt>
      <trkpt lat="44.55529" lon="6.88524">
        <ele>2583.7</ele>
        <time>2013-09-02T07:54:47Z</time>
      </trkpt>
      <trkpt lat="44.55528" lon="6.88524">
        <ele>2584.6</ele>
        <time>2013-09-02T07:54:48Z</time>
      </trkpt>
      <trkpt lat="44.55518" lon="6.88537">
        <ele>2585.6</ele>
        <time>2013-09-02T07:55:04Z</time>
      </trkpt>
      <trkpt lat="44.55509" lon="6.88548">
        <ele>2587</ele>
        <time>2013-09-02T07:55:21Z</time>
      </trkpt>
      <trkpt lat="44.55503" lon="6.88562">
        <ele>2589</ele>
        <time>2013-09-02T07:55:36Z</time>
      </trkpt>
      <trkpt lat="44.55492" lon="6.88575">
        <ele>2589.9</ele>
        <time>2013-09-02T07:55:52Z</time>
      </trkpt>
      <trkpt lat="44.55482" lon="6.88589">
        <ele>2590.9</ele>
        <time>2013-09-02T07:56:07Z</time>
      </trkpt>
      <trkpt lat="44.55474" lon="6.88598">
        <ele>2591.4</ele>
        <time>2013-09-02T07:56:19Z</time>
      </trkpt>
      <trkpt lat="44.5547" lon="6.88599">
        <ele>2592.8</ele>
        <time>2013-09-02T07:56:33Z</time>
      </trkpt>
      <trkpt lat="44.55464" lon="6.88601">
        <ele>2594.3</ele>
        <time>2013-09-02T07:56:50Z</time>
      </trkpt>
      <trkpt lat="44.55456" lon="6.88608">
        <ele>2597.6</ele>
        <time>2013-09-02T07:57:06Z</time>
      </trkpt>
      <trkpt lat="44.5545" lon="6.88606">
        <ele>2600</ele>
        <time>2013-09-02T07:57:22Z</time>
      </trkpt>
      <trkpt lat="44.5544" lon="6.88604">
        <ele>2601.5</ele>
        <time>2013-09-02T07:57:38Z</time>
      </trkpt>
      <trkpt lat="44.55434" lon="6.88604">
        <ele>2602.4</ele>
        <time>2013-09-02T07:57:58Z</time>
      </trkpt>
      <trkpt lat="44.55425" lon="6.88609">
        <ele>2606.3</ele>
        <time>2013-09-02T07:58:16Z</time>
      </trkpt>
      <trkpt lat="44.55419" lon="6.88622">
        <ele>2609.6</ele>
        <time>2013-09-02T07:58:36Z</time>
      </trkpt>
      <trkpt lat="44.55415" lon="6.88631">
        <ele>2610.6</ele>
        <time>2013-09-02T07:58:51Z</time>
      </trkpt>
      <trkpt lat="44.55405" lon="6.88639">
        <ele>2612.5</ele>
        <time>2013-09-02T07:59:06Z</time>
      </trkpt>
      <trkpt lat="44.55393" lon="6.88641">
        <ele>2615.4</ele>
        <time>2013-09-02T07:59:22Z</time>
      </trkpt>
      <trkpt lat="44.55381" lon="6.88644">
        <ele>2616.9</ele>
        <time>2013-09-02T07:59:38Z</time>
      </trkpt>
      <trkpt lat="44.55369" lon="6.88644">
        <ele>2619.3</ele>
        <time>2013-09-02T07:59:55Z</time>
      </trkpt>
      <trkpt lat="44.55358" lon="6.8864">
        <ele>2621.7</ele>
        <time>2013-09-02T08:00:13Z</time>
      </trkpt>
      <trkpt lat="44.55341" lon="6.88634">
        <ele>2623.6</ele>
        <time>2013-09-02T08:00:30Z</time>
      </trkpt>
      <trkpt lat="44.5533" lon="6.88633">
        <ele>2625.5</ele>
        <time>2013-09-02T08:00:47Z</time>
      </trkpt>
      <trkpt lat="44.55323" lon="6.8863">
        <ele>2627.9</ele>
        <time>2013-09-02T08:00:57Z</time>
      </trkpt>
      <trkpt lat="44.55314" lon="6.88627">
        <ele>2629.8</ele>
        <time>2013-09-02T08:01:16Z</time>
      </trkpt>
      <trkpt lat="44.55312" lon="6.88625">
        <ele>2631.8</ele>
        <time>2013-09-02T08:01:23Z</time>
      </trkpt>
      <trkpt lat="44.55305" lon="6.88626">
        <ele>2632.7</ele>
        <time>2013-09-02T08:01:39Z</time>
      </trkpt>
      <trkpt lat="44.55293" lon="6.88631">
        <ele>2634.6</ele>
        <time>2013-09-02T08:01:55Z</time>
      </trkpt>
      <trkpt lat="44.5529" lon="6.88632">
        <ele>2635.6</ele>
        <time>2013-09-02T08:01:59Z</time>
      </trkpt>
      <trkpt lat="44.55273" lon="6.88637">
        <ele>2636.1</ele>
        <time>2013-09-02T08:02:15Z</time>
      </trkpt>
      <trkpt lat="44.55254" lon="6.88644">
        <ele>2637.5</ele>
        <time>2013-09-02T08:02:26Z</time>
      </trkpt>
      <trkpt lat="44.55253" lon="6.88644">
        <ele>2638</ele>
        <time>2013-09-02T08:02:27Z</time>
      </trkpt>
      <trkpt lat="44.55243" lon="6.88645">
        <ele>2639.4</ele>
        <time>2013-09-02T08:02:34Z</time>
      </trkpt>
      <trkpt lat="44.55242" lon="6.88645">
        <ele>2639</ele>
        <time>2013-09-02T08:02:35Z</time>
      </trkpt>
      <trkpt lat="44.55228" lon="6.88647">
        <ele>2641.8</ele>
        <time>2013-09-02T08:02:46Z</time>
      </trkpt>
      <trkpt lat="44.5522" lon="6.8865">
        <ele>2642.8</ele>
        <time>2013-09-02T08:02:59Z</time>
      </trkpt>
      <trkpt lat="44.55221" lon="6.88651">
        <ele>2642.8</ele>
        <time>2013-09-02T08:03:15Z</time>
      </trkpt>
      <trkpt lat="44.55224" lon="6.88642">
        <ele>2642.8</ele>
        <time>2013-09-02T08:03:30Z</time>
      </trkpt>
      <trkpt lat="44.55224" lon="6.88636">
        <ele>2643.3</ele>
        <time>2013-09-02T08:03:35Z</time>
      </trkpt>
      <trkpt lat="44.55223" lon="6.88635">
        <ele>2643.3</ele>
        <time>2013-09-02T08:03:36Z</time>
      </trkpt>
      <trkpt lat="44.55219" lon="6.88633">
        <ele>2643.3</ele>
        <time>2013-09-02T08:03:40Z</time>
      </trkpt>
      <trkpt lat="44.55217" lon="6.88633">
        <ele>2643.3</ele>
        <time>2013-09-02T08:03:41Z</time>
      </trkpt>
      <trkpt lat="44.55216" lon="6.88633">
        <ele>2643.3</ele>
        <time>2013-09-02T08:03:42Z</time>
      </trkpt>
      <trkpt lat="44.55215" lon="6.88633">
        <ele>2643.8</ele>
        <time>2013-09-02T08:03:43Z</time>
      </trkpt>
      <trkpt lat="44.55214" lon="6.88632">
        <ele>2643.3</ele>
        <time>2013-09-02T08:03:44Z</time>
      </trkpt>
      <trkpt lat="44.55202" lon="6.88624">
        <ele>2644.7</ele>
        <time>2013-09-02T08:04:02Z</time>
      </trkpt>
      <trkpt lat="44.55198" lon="6.88619">
        <ele>2644.2</ele>
        <time>2013-09-02T08:04:17Z</time>
      </trkpt>
      <trkpt lat="44.55195" lon="6.88615">
        <ele>2645.7</ele>
        <time>2013-09-02T08:04:32Z</time>
      </trkpt>
      <trkpt lat="44.55193" lon="6.88611">
        <ele>2646.7</ele>
        <time>2013-09-02T08:04:44Z</time>
      </trkpt>
      <trkpt lat="44.55186" lon="6.88606">
        <ele>2649.1</ele>
        <time>2013-09-02T08:04:58Z</time>
      </trkpt>
      <trkpt lat="44.55179" lon="6.88599">
        <ele>2650</ele>
        <time>2013-09-02T08:05:13Z</time>
      </trkpt>
      <trkpt lat="44.55173" lon="6.88593">
        <ele>2652.4</ele>
        <time>2013-09-02T08:05:27Z</time>
      </trkpt>
      <trkpt lat="44.55168" lon="6.88589">
        <ele>2653.9</ele>
        <time>2013-09-02T08:05:41Z</time>
      </trkpt>
      <trkpt lat="44.55167" lon="6.88581">
        <ele>2655.8</ele>
        <time>2013-09-02T08:05:56Z</time>
      </trkpt>
      <trkpt lat="44.55163" lon="6.88575">
        <ele>2657.7</ele>
        <time>2013-09-02T08:06:09Z</time>
      </trkpt>
      <trkpt lat="44.55158" lon="6.88573">
        <ele>2660.6</ele>
        <time>2013-09-02T08:06:23Z</time>
      </trkpt>
      <trkpt lat="44.55154" lon="6.88571">
        <ele>2661.6</ele>
        <time>2013-09-02T08:06:35Z</time>
      </trkpt>
      <trkpt lat="44.55148" lon="6.88567">
        <ele>2663.5</ele>
        <time>2013-09-02T08:06:48Z</time>
      </trkpt>
      <trkpt lat="44.55144" lon="6.88562">
        <ele>2665.4</ele>
        <time>2013-09-02T08:07:03Z</time>
      </trkpt>
      <trkpt lat="44.5514" lon="6.88563">
        <ele>2666.8</ele>
        <time>2013-09-02T08:07:12Z</time>
      </trkpt>
      <trkpt lat="44.55132" lon="6.88561">
        <ele>2667.8</ele>
        <time>2013-09-02T08:07:25Z</time>
      </trkpt>
      <trkpt lat="44.55127" lon="6.88557">
        <ele>2669.7</ele>
        <time>2013-09-02T08:07:37Z</time>
      </trkpt>
      <trkpt lat="44.55133" lon="6.88553">
        <ele>2671.2</ele>
        <time>2013-09-02T08:07:51Z</time>
      </trkpt>
      <trkpt lat="44.55138" lon="6.88549">
        <ele>2673.6</ele>
        <time>2013-09-02T08:08:05Z</time>
      </trkpt>
      <trkpt lat="44.55143" lon="6.88543">
        <ele>2675.5</ele>
        <time>2013-09-02T08:08:18Z</time>
      </trkpt>
      <trkpt lat="44.5515" lon="6.88539">
        <ele>2677.4</ele>
        <time>2013-09-02T08:08:33Z</time>
      </trkpt>
      <trkpt lat="44.55155" lon="6.88534">
        <ele>2679.8</ele>
        <time>2013-09-02T08:08:47Z</time>
      </trkpt>
      <trkpt lat="44.55163" lon="6.88527">
        <ele>2681.7</ele>
        <time>2013-09-02T08:09:02Z</time>
      </trkpt>
      <trkpt lat="44.55166" lon="6.88522">
        <ele>2683.7</ele>
        <time>2013-09-02T08:09:16Z</time>
      </trkpt>
      <trkpt lat="44.5517" lon="6.88514">
        <ele>2687</ele>
        <time>2013-09-02T08:09:32Z</time>
      </trkpt>
      <trkpt lat="44.55167" lon="6.88506">
        <ele>2688.5</ele>
        <time>2013-09-02T08:09:45Z</time>
      </trkpt>
      <trkpt lat="44.55159" lon="6.88491">
        <ele>2690.4</ele>
        <time>2013-09-02T08:10:00Z</time>
      </trkpt>
      <trkpt lat="44.55166" lon="6.88476">
        <ele>2692.8</ele>
        <time>2013-09-02T08:10:18Z</time>
      </trkpt>
      <trkpt lat="44.55165" lon="6.88461">
        <ele>2694.2</ele>
        <time>2013-09-02T08:10:33Z</time>
      </trkpt>
      <trkpt lat="44.55168" lon="6.88446">
        <ele>2695.7</ele>
        <time>2013-09-02T08:10:48Z</time>
      </trkpt>
      <trkpt lat="44.55173" lon="6.88437">
        <ele>2697.6</ele>
        <time>2013-09-02T08:11:03Z</time>
      </trkpt>
      <trkpt lat="44.55177" lon="6.88431">
        <ele>2698.6</ele>
        <time>2013-09-02T08:11:09Z</time>
      </trkpt>
      <trkpt lat="44.55183" lon="6.88422">
        <ele>2699</ele>
        <time>2013-09-02T08:11:17Z</time>
      </trkpt>
      <trkpt lat="44.55189" lon="6.88405">
        <ele>2700</ele>
        <time>2013-09-02T08:11:30Z</time>
      </trkpt>
      <trkpt lat="44.55197" lon="6.88393">
        <ele>2701.4</ele>
        <time>2013-09-02T08:11:44Z</time>
      </trkpt>
      <trkpt lat="44.552" lon="6.88384">
        <ele>2703.9</ele>
        <time>2013-09-02T08:11:59Z</time>
      </trkpt>
      <trkpt lat="44.55204" lon="6.88374">
        <ele>2705.8</ele>
        <time>2013-09-02T08:12:14Z</time>
      </trkpt>
      <trkpt lat="44.55212" lon="6.88365">
        <ele>2708.7</ele>
        <time>2013-09-02T08:12:30Z</time>
      </trkpt>
      <trkpt lat="44.55217" lon="6.88357">
        <ele>2711.5</ele>
        <time>2013-09-02T08:12:47Z</time>
      </trkpt>
      <trkpt lat="44.55223" lon="6.88351">
        <ele>2713</ele>
        <time>2013-09-02T08:13:01Z</time>
      </trkpt>
      <trkpt lat="44.55226" lon="6.88346">
        <ele>2716.3</ele>
        <time>2013-09-02T08:13:12Z</time>
      </trkpt>
      <trkpt lat="44.55231" lon="6.8834">
        <ele>2717.3</ele>
        <time>2013-09-02T08:13:27Z</time>
      </trkpt>
      <trkpt lat="44.55234" lon="6.88332">
        <ele>2718.8</ele>
        <time>2013-09-02T08:13:41Z</time>
      </trkpt>
      <trkpt lat="44.55227" lon="6.88321">
        <ele>2721.6</ele>
        <time>2013-09-02T08:13:56Z</time>
      </trkpt>
      <trkpt lat="44.55226" lon="6.88317">
        <ele>2721.6</ele>
        <time>2013-09-02T08:13:59Z</time>
      </trkpt>
      <trkpt lat="44.55227" lon="6.88297">
        <ele>2723.6</ele>
        <time>2013-09-02T08:14:17Z</time>
      </trkpt>
      <trkpt lat="44.55228" lon="6.88289">
        <ele>2725</ele>
        <time>2013-09-02T08:14:25Z</time>
      </trkpt>
      <trkpt lat="44.55234" lon="6.88279">
        <ele>2725</ele>
        <time>2013-09-02T08:14:33Z</time>
      </trkpt>
      <trkpt lat="44.55239" lon="6.88265">
        <ele>2727.9</ele>
        <time>2013-09-02T08:14:51Z</time>
      </trkpt>
      <trkpt lat="44.55243" lon="6.88256">
        <ele>2729.3</ele>
        <time>2013-09-02T08:15:06Z</time>
      </trkpt>
      <trkpt lat="44.55249" lon="6.88246">
        <ele>2732.2</ele>
        <time>2013-09-02T08:15:21Z</time>
      </trkpt>
      <trkpt lat="44.5525" lon="6.88244">
        <ele>2731.2</ele>
        <time>2013-09-02T08:15:23Z</time>
      </trkpt>
      <trkpt lat="44.55259" lon="6.88228">
        <ele>2731.7</ele>
        <time>2013-09-02T08:15:36Z</time>
      </trkpt>
      <trkpt lat="44.55262" lon="6.88221">
        <ele>2731.7</ele>
        <time>2013-09-02T08:15:48Z</time>
      </trkpt>
      <trkpt lat="44.55263" lon="6.8821">
        <ele>2733.2</ele>
        <time>2013-09-02T08:16:03Z</time>
      </trkpt>
      <trkpt lat="44.55266" lon="6.88203">
        <ele>2735.1</ele>
        <time>2013-09-02T08:16:17Z</time>
      </trkpt>
      <trkpt lat="44.55269" lon="6.88197">
        <ele>2737.5</ele>
        <time>2013-09-02T08:16:32Z</time>
      </trkpt>
      <trkpt lat="44.55271" lon="6.88191">
        <ele>2739.9</ele>
        <time>2013-09-02T08:16:46Z</time>
      </trkpt>
      <trkpt lat="44.55273" lon="6.88187">
        <ele>2741.8</ele>
        <time>2013-09-02T08:16:54Z</time>
      </trkpt>
      <trkpt lat="44.55275" lon="6.88182">
        <ele>2742.8</ele>
        <time>2013-09-02T08:17:08Z</time>
      </trkpt>
      <trkpt lat="44.55278" lon="6.88173">
        <ele>2744.7</ele>
        <time>2013-09-02T08:17:22Z</time>
      </trkpt>
      <trkpt lat="44.55284" lon="6.88165">
        <ele>2746.6</ele>
        <time>2013-09-02T08:17:37Z</time>
      </trkpt>
      <trkpt lat="44.55288" lon="6.88159">
        <ele>2748.6</ele>
        <time>2013-09-02T08:17:49Z</time>
      </trkpt>
      <trkpt lat="44.55292" lon="6.88151">
        <ele>2751.4</ele>
        <time>2013-09-02T08:18:06Z</time>
      </trkpt>
      <trkpt lat="44.553" lon="6.8814">
        <ele>2752.4</ele>
        <time>2013-09-02T08:18:21Z</time>
      </trkpt>
      <trkpt lat="44.55305" lon="6.88128">
        <ele>2754.3</ele>
        <time>2013-09-02T08:18:37Z</time>
      </trkpt>
      <trkpt lat="44.55305" lon="6.88118">
        <ele>2755.8</ele>
        <time>2013-09-02T08:18:50Z</time>
      </trkpt>
      <trkpt lat="44.55308" lon="6.8811">
        <ele>2759.1</ele>
        <time>2013-09-02T08:19:07Z</time>
      </trkpt>
      <trkpt lat="44.55311" lon="6.88104">
        <ele>2761</ele>
        <time>2013-09-02T08:19:21Z</time>
      </trkpt>
      <trkpt lat="44.55315" lon="6.88098">
        <ele>2762.5</ele>
        <time>2013-09-02T08:19:35Z</time>
      </trkpt>
      <trkpt lat="44.55322" lon="6.88087">
        <ele>2763.5</ele>
        <time>2013-09-02T08:19:51Z</time>
      </trkpt>
      <trkpt lat="44.55329" lon="6.88078">
        <ele>2765.9</ele>
        <time>2013-09-02T08:20:06Z</time>
      </trkpt>
      <trkpt lat="44.55333" lon="6.8807">
        <ele>2766.8</ele>
        <time>2013-09-02T08:20:18Z</time>
      </trkpt>
      <trkpt lat="44.55334" lon="6.8807">
        <ele>2767.3</ele>
        <time>2013-09-02T08:20:36Z</time>
      </trkpt>
      <trkpt lat="44.55335" lon="6.88069">
        <ele>2766.8</ele>
        <time>2013-09-02T08:20:43Z</time>
      </trkpt>
      <trkpt lat="44.55336" lon="6.8806">
        <ele>2765.9</ele>
        <time>2013-09-02T08:20:51Z</time>
      </trkpt>
      <trkpt lat="44.55339" lon="6.88055">
        <ele>2764.4</ele>
        <time>2013-09-02T08:21:04Z</time>
      </trkpt>
      <trkpt lat="44.5534" lon="6.88052">
        <ele>2764.9</ele>
        <time>2013-09-02T08:21:13Z</time>
      </trkpt>
      <trkpt lat="44.5535" lon="6.88032">
        <ele>2765.9</ele>
        <time>2013-09-02T08:21:31Z</time>
      </trkpt>
      <trkpt lat="44.55353" lon="6.88021">
        <ele>2766.8</ele>
        <time>2013-09-02T08:21:48Z</time>
      </trkpt>
      <trkpt lat="44.55353" lon="6.88017">
        <ele>2766.3</ele>
        <time>2013-09-02T08:21:58Z</time>
      </trkpt>
      <trkpt lat="44.55354" lon="6.88008">
        <ele>2767.8</ele>
        <time>2013-09-02T08:22:13Z</time>
      </trkpt>
      <trkpt lat="44.55356" lon="6.87997">
        <ele>2769.7</ele>
        <time>2013-09-02T08:22:36Z</time>
      </trkpt>
      <trkpt lat="44.55355" lon="6.87982">
        <ele>2770.7</ele>
        <time>2013-09-02T08:22:51Z</time>
      </trkpt>
      <trkpt lat="44.55356" lon="6.87967">
        <ele>2772.1</ele>
        <time>2013-09-02T08:23:04Z</time>
      </trkpt>
      <trkpt lat="44.55349" lon="6.87945">
        <ele>2774.5</ele>
        <time>2013-09-02T08:23:24Z</time>
      </trkpt>
      <trkpt lat="44.55343" lon="6.87926">
        <ele>2775.5</ele>
        <time>2013-09-02T08:23:38Z</time>
      </trkpt>
      <trkpt lat="44.55337" lon="6.87912">
        <ele>2776.4</ele>
        <time>2013-09-02T08:23:50Z</time>
      </trkpt>
      <trkpt lat="44.55332" lon="6.87898">
        <ele>2777.9</ele>
        <time>2013-09-02T08:24:06Z</time>
      </trkpt>
      <trkpt lat="44.5533" lon="6.87883">
        <ele>2779.3</ele>
        <time>2013-09-02T08:24:22Z</time>
      </trkpt>
      <trkpt lat="44.55325" lon="6.87876">
        <ele>2778.8</ele>
        <time>2013-09-02T08:24:38Z</time>
      </trkpt>
      <trkpt lat="44.5532" lon="6.87871">
        <ele>2778.8</ele>
        <time>2013-09-02T08:24:43Z</time>
      </trkpt>
      <trkpt lat="44.55316" lon="6.8786">
        <ele>2778.8</ele>
        <time>2013-09-02T08:24:52Z</time>
      </trkpt>
      <trkpt lat="44.5532" lon="6.87838">
        <ele>2780.3</ele>
        <time>2013-09-02T08:25:09Z</time>
      </trkpt>
      <trkpt lat="44.55314" lon="6.87809">
        <ele>2781.2</ele>
        <time>2013-09-02T08:25:29Z</time>
      </trkpt>
      <trkpt lat="44.55308" lon="6.87793">
        <ele>2781.7</ele>
        <time>2013-09-02T08:25:43Z</time>
      </trkpt>
      <trkpt lat="44.55303" lon="6.87782">
        <ele>2783.6</ele>
        <time>2013-09-02T08:25:59Z</time>
      </trkpt>
      <trkpt lat="44.55302" lon="6.87778">
        <ele>2784.1</ele>
        <time>2013-09-02T08:26:13Z</time>
      </trkpt>
      <trkpt lat="44.55296" lon="6.87767">
        <ele>2783.6</ele>
        <time>2013-09-02T08:26:26Z</time>
      </trkpt>
      <trkpt lat="44.55281" lon="6.87751">
        <ele>2786</ele>
        <time>2013-09-02T08:26:38Z</time>
      </trkpt>
      <trkpt lat="44.5527" lon="6.87711">
        <ele>2786.5</ele>
        <time>2013-09-02T08:26:53Z</time>
      </trkpt>
      <trkpt lat="44.5526" lon="6.87696">
        <ele>2786.5</ele>
        <time>2013-09-02T08:27:01Z</time>
      </trkpt>
      <trkpt lat="44.55252" lon="6.87689">
        <ele>2788.9</ele>
        <time>2013-09-02T08:27:16Z</time>
      </trkpt>
      <trkpt lat="44.55241" lon="6.87676">
        <ele>2791.8</ele>
        <time>2013-09-02T08:27:34Z</time>
      </trkpt>
      <trkpt lat="44.55234" lon="6.87665">
        <ele>2792.8</ele>
        <time>2013-09-02T08:27:49Z</time>
      </trkpt>
      <trkpt lat="44.55223" lon="6.87651">
        <ele>2792.3</ele>
        <time>2013-09-02T08:28:02Z</time>
      </trkpt>
      <trkpt lat="44.55218" lon="6.87651">
        <ele>2791.8</ele>
        <time>2013-09-02T08:28:24Z</time>
      </trkpt>
      <trkpt lat="44.55217" lon="6.87651">
        <ele>2792.3</ele>
        <time>2013-09-02T08:28:34Z</time>
      </trkpt>
      <trkpt lat="44.55202" lon="6.87668">
        <ele>2792.8</ele>
        <time>2013-09-02T08:28:53Z</time>
      </trkpt>
      <trkpt lat="44.55189" lon="6.87679">
        <ele>2791.8</ele>
        <time>2013-09-02T08:29:09Z</time>
      </trkpt>
      <trkpt lat="44.55184" lon="6.87686">
        <ele>2790.4</ele>
        <time>2013-09-02T08:29:22Z</time>
      </trkpt>
      <trkpt lat="44.55179" lon="6.87694">
        <ele>2789.9</ele>
        <time>2013-09-02T08:29:35Z</time>
      </trkpt>
      <trkpt lat="44.55169" lon="6.87706">
        <ele>2788</ele>
        <time>2013-09-02T08:29:49Z</time>
      </trkpt>
      <trkpt lat="44.55166" lon="6.87712">
        <ele>2787.5</ele>
        <time>2013-09-02T08:29:55Z</time>
      </trkpt>
      <trkpt lat="44.55157" lon="6.87716">
        <ele>2787</ele>
        <time>2013-09-02T08:30:10Z</time>
      </trkpt>
      <trkpt lat="44.55153" lon="6.8771">
        <ele>2786</ele>
        <time>2013-09-02T08:30:33Z</time>
      </trkpt>
      <trkpt lat="44.55153" lon="6.87709">
        <ele>2786</ele>
        <time>2013-09-02T08:30:42Z</time>
      </trkpt>
      <trkpt lat="44.55161" lon="6.87716">
        <ele>2786.5</ele>
        <time>2013-09-02T08:31:08Z</time>
      </trkpt>
      <trkpt lat="44.55161" lon="6.87711">
        <ele>2786.5</ele>
        <time>2013-09-02T08:31:42Z</time>
      </trkpt>
      <trkpt lat="44.5516" lon="6.87708">
        <ele>2786.5</ele>
        <time>2013-09-02T08:32:19Z</time>
      </trkpt>
      <trkpt lat="44.55165" lon="6.87708">
        <ele>2787</ele>
        <time>2013-09-02T08:32:53Z</time>
      </trkpt>
      <trkpt lat="44.55169" lon="6.87707">
        <ele>2787</ele>
        <time>2013-09-02T08:33:24Z</time>
      </trkpt>
      <trkpt lat="44.55174" lon="6.87706">
        <ele>2787</ele>
        <time>2013-09-02T08:33:58Z</time>
      </trkpt>
      <trkpt lat="44.55157" lon="6.87717">
        <ele>2787.5</ele>
        <time>2013-09-02T08:34:12Z</time>
      </trkpt>
      <trkpt lat="44.55156" lon="6.87717">
        <ele>2788</ele>
        <time>2013-09-02T08:34:25Z</time>
      </trkpt>
      <trkpt lat="44.55155" lon="6.8772">
        <ele>2788</ele>
        <time>2013-09-02T08:34:40Z</time>
      </trkpt>
      <trkpt lat="44.55154" lon="6.87717">
        <ele>2788</ele>
        <time>2013-09-02T08:34:57Z</time>
      </trkpt>
      <trkpt lat="44.55153" lon="6.87714">
        <ele>2787.5</ele>
        <time>2013-09-02T08:35:13Z</time>
      </trkpt>
      <trkpt lat="44.55151" lon="6.87717">
        <ele>2788</ele>
        <time>2013-09-02T08:35:29Z</time>
      </trkpt>
      <trkpt lat="44.55143" lon="6.87724">
        <ele>2787</ele>
        <time>2013-09-02T08:35:44Z</time>
      </trkpt>
      <trkpt lat="44.55134" lon="6.87734">
        <ele>2788</ele>
        <time>2013-09-02T08:35:59Z</time>
      </trkpt>
      <trkpt lat="44.55127" lon="6.87735">
        <ele>2788.9</ele>
        <time>2013-09-02T08:36:14Z</time>
      </trkpt>
      <trkpt lat="44.55121" lon="6.87735">
        <ele>2788.9</ele>
        <time>2013-09-02T08:36:28Z</time>
      </trkpt>
      <trkpt lat="44.55118" lon="6.87737">
        <ele>2788.9</ele>
        <time>2013-09-02T08:36:41Z</time>
      </trkpt>
      <trkpt lat="44.55115" lon="6.87737">
        <ele>2788.4</ele>
        <time>2013-09-02T08:37:02Z</time>
      </trkpt>
      <trkpt lat="44.55111" lon="6.87739">
        <ele>2787.5</ele>
        <time>2013-09-02T08:37:16Z</time>
      </trkpt>
      <trkpt lat="44.55107" lon="6.87741">
        <ele>2787.5</ele>
        <time>2013-09-02T08:37:30Z</time>
      </trkpt>
      <trkpt lat="44.55104" lon="6.87744">
        <ele>2788</ele>
        <time>2013-09-02T08:37:45Z</time>
      </trkpt>
      <trkpt lat="44.55104" lon="6.87745">
        <ele>2788</ele>
        <time>2013-09-02T08:38:01Z</time>
      </trkpt>
      <trkpt lat="44.55102" lon="6.87745">
        <ele>2788.4</ele>
        <time>2013-09-02T08:38:18Z</time>
      </trkpt>
      <trkpt lat="44.55098" lon="6.87744">
        <ele>2788.9</ele>
        <time>2013-09-02T08:38:37Z</time>
      </trkpt>
      <trkpt lat="44.55096" lon="6.87742">
        <ele>2789.9</ele>
        <time>2013-09-02T08:38:51Z</time>
      </trkpt>
      <trkpt lat="44.55095" lon="6.87747">
        <ele>2791.3</ele>
        <time>2013-09-02T08:39:02Z</time>
      </trkpt>
      <trkpt lat="44.55092" lon="6.87756">
        <ele>2792.8</ele>
        <time>2013-09-02T08:39:16Z</time>
      </trkpt>
      <trkpt lat="44.55096" lon="6.87753">
        <ele>2792.8</ele>
        <time>2013-09-02T08:39:42Z</time>
      </trkpt>
      <trkpt lat="44.55095" lon="6.87759">
        <ele>2793.3</ele>
        <time>2013-09-02T08:39:57Z</time>
      </trkpt>
      <trkpt lat="44.55094" lon="6.87765">
        <ele>2792.8</ele>
        <time>2013-09-02T08:40:10Z</time>
      </trkpt>
      <trkpt lat="44.55086" lon="6.8777">
        <ele>2793.7</ele>
        <time>2013-09-02T08:40:23Z</time>
      </trkpt>
      <trkpt lat="44.55079" lon="6.87772">
        <ele>2793.7</ele>
        <time>2013-09-02T08:40:37Z</time>
      </trkpt>
      <trkpt lat="44.55073" lon="6.87778">
        <ele>2793.3</ele>
        <time>2013-09-02T08:40:50Z</time>
      </trkpt>
      <trkpt lat="44.55067" lon="6.87782">
        <ele>2791.8</ele>
        <time>2013-09-02T08:41:03Z</time>
      </trkpt>
      <trkpt lat="44.55066" lon="6.87784">
        <ele>2791.3</ele>
        <time>2013-09-02T08:41:16Z</time>
      </trkpt>
      <trkpt lat="44.55063" lon="6.87789">
        <ele>2789.9</ele>
        <time>2013-09-02T08:41:33Z</time>
      </trkpt>
      <trkpt lat="44.55063" lon="6.87796">
        <ele>2788.4</ele>
        <time>2013-09-02T08:41:44Z</time>
      </trkpt>
      <trkpt lat="44.55059" lon="6.87801">
        <ele>2788.4</ele>
        <time>2013-09-02T08:41:57Z</time>
      </trkpt>
      <trkpt lat="44.5506" lon="6.87805">
        <ele>2788.9</ele>
        <time>2013-09-02T08:42:11Z</time>
      </trkpt>
      <trkpt lat="44.55057" lon="6.87814">
        <ele>2789.4</ele>
        <time>2013-09-02T08:42:22Z</time>
      </trkpt>
      <trkpt lat="44.55051" lon="6.87827">
        <ele>2788.9</ele>
        <time>2013-09-02T08:42:38Z</time>
      </trkpt>
      <trkpt lat="44.55046" lon="6.87837">
        <ele>2789.9</ele>
        <time>2013-09-02T08:42:53Z</time>
      </trkpt>
      <trkpt lat="44.55045" lon="6.87847">
        <ele>2791.8</ele>
        <time>2013-09-02T08:43:10Z</time>
      </trkpt>
      <trkpt lat="44.55041" lon="6.87854">
        <ele>2793.7</ele>
        <time>2013-09-02T08:43:23Z</time>
      </trkpt>
      <trkpt lat="44.55037" lon="6.87868">
        <ele>2794.7</ele>
        <time>2013-09-02T08:43:39Z</time>
      </trkpt>
      <trkpt lat="44.55031" lon="6.8788">
        <ele>2796.1</ele>
        <time>2013-09-02T08:43:56Z</time>
      </trkpt>
      <trkpt lat="44.55027" lon="6.87883">
        <ele>2798.1</ele>
        <time>2013-09-02T08:44:09Z</time>
      </trkpt>
      <trkpt lat="44.55023" lon="6.8789">
        <ele>2799.5</ele>
        <time>2013-09-02T08:44:23Z</time>
      </trkpt>
      <trkpt lat="44.55019" lon="6.87894">
        <ele>2800.9</ele>
        <time>2013-09-02T08:44:35Z</time>
      </trkpt>
      <trkpt lat="44.55013" lon="6.879">
        <ele>2802.9</ele>
        <time>2013-09-02T08:44:49Z</time>
      </trkpt>
      <trkpt lat="44.55009" lon="6.87912">
        <ele>2804.3</ele>
        <time>2013-09-02T08:45:02Z</time>
      </trkpt>
      <trkpt lat="44.55001" lon="6.8792">
        <ele>2806.2</ele>
        <time>2013-09-02T08:45:17Z</time>
      </trkpt>
      <trkpt lat="44.54992" lon="6.87925">
        <ele>2808.6</ele>
        <time>2013-09-02T08:45:35Z</time>
      </trkpt>
      <trkpt lat="44.54987" lon="6.87933">
        <ele>2808.6</ele>
        <time>2013-09-02T08:45:45Z</time>
      </trkpt>
      <trkpt lat="44.54977" lon="6.87942">
        <ele>2810.1</ele>
        <time>2013-09-02T08:46:02Z</time>
      </trkpt>
      <trkpt lat="44.54973" lon="6.87946">
        <ele>2811.5</ele>
        <time>2013-09-02T08:46:15Z</time>
      </trkpt>
      <trkpt lat="44.5497" lon="6.87948">
        <ele>2812.5</ele>
        <time>2013-09-02T08:46:33Z</time>
      </trkpt>
      <trkpt lat="44.54962" lon="6.8795">
        <ele>2813.9</ele>
        <time>2013-09-02T08:46:48Z</time>
      </trkpt>
      <trkpt lat="44.54957" lon="6.87948">
        <ele>2817.3</ele>
        <time>2013-09-02T08:47:00Z</time>
      </trkpt>
      <trkpt lat="44.54948" lon="6.87947">
        <ele>2818.2</ele>
        <time>2013-09-02T08:47:17Z</time>
      </trkpt>
      <trkpt lat="44.54939" lon="6.87954">
        <ele>2818.7</ele>
        <time>2013-09-02T08:47:32Z</time>
      </trkpt>
      <trkpt lat="44.54932" lon="6.87959">
        <ele>2820.2</ele>
        <time>2013-09-02T08:47:45Z</time>
      </trkpt>
      <trkpt lat="44.54922" lon="6.87963">
        <ele>2822.1</ele>
        <time>2013-09-02T08:48:00Z</time>
      </trkpt>
      <trkpt lat="44.54911" lon="6.87968">
        <ele>2823.1</ele>
        <time>2013-09-02T08:48:15Z</time>
      </trkpt>
      <trkpt lat="44.54904" lon="6.87969">
        <ele>2825.5</ele>
        <time>2013-09-02T08:48:29Z</time>
      </trkpt>
      <trkpt lat="44.54896" lon="6.87973">
        <ele>2826.9</ele>
        <time>2013-09-02T08:48:43Z</time>
      </trkpt>
      <trkpt lat="44.54886" lon="6.87976">
        <ele>2827.9</ele>
        <time>2013-09-02T08:48:58Z</time>
      </trkpt>
      <trkpt lat="44.54883" lon="6.87975">
        <ele>2829.3</ele>
        <time>2013-09-02T08:49:11Z</time>
      </trkpt>
      <trkpt lat="44.54876" lon="6.87974">
        <ele>2830.3</ele>
        <time>2013-09-02T08:49:23Z</time>
      </trkpt>
      <trkpt lat="44.54867" lon="6.87967">
        <ele>2831.7</ele>
        <time>2013-09-02T08:49:38Z</time>
      </trkpt>
      <trkpt lat="44.54861" lon="6.87965">
        <ele>2833.1</ele>
        <time>2013-09-02T08:49:50Z</time>
      </trkpt>
      <trkpt lat="44.54853" lon="6.87963">
        <ele>2833.1</ele>
        <time>2013-09-02T08:50:05Z</time>
      </trkpt>
      <trkpt lat="44.54851" lon="6.87965">
        <ele>2833.6</ele>
        <time>2013-09-02T08:50:08Z</time>
      </trkpt>
      <trkpt lat="44.54846" lon="6.87971">
        <ele>2835.1</ele>
        <time>2013-09-02T08:50:20Z</time>
      </trkpt>
      <trkpt lat="44.54836" lon="6.87967">
        <ele>2836</ele>
        <time>2013-09-02T08:50:34Z</time>
      </trkpt>
      <trkpt lat="44.54819" lon="6.87959">
        <ele>2836.5</ele>
        <time>2013-09-02T08:50:52Z</time>
      </trkpt>
      <trkpt lat="44.54817" lon="6.87957">
        <ele>2837</ele>
        <time>2013-09-02T08:50:54Z</time>
      </trkpt>
      <trkpt lat="44.54804" lon="6.87954">
        <ele>2836.5</ele>
        <time>2013-09-02T08:51:12Z</time>
      </trkpt>
      <trkpt lat="44.54803" lon="6.87955">
        <ele>2836.5</ele>
        <time>2013-09-02T08:51:14Z</time>
      </trkpt>
      <trkpt lat="44.54791" lon="6.87955">
        <ele>2837.5</ele>
        <time>2013-09-02T08:51:30Z</time>
      </trkpt>
      <trkpt lat="44.54781" lon="6.8796">
        <ele>2837</ele>
        <time>2013-09-02T08:51:45Z</time>
      </trkpt>
      <trkpt lat="44.54776" lon="6.87963">
        <ele>2838</ele>
        <time>2013-09-02T08:51:56Z</time>
      </trkpt>
      <trkpt lat="44.54775" lon="6.87964">
        <ele>2838.4</ele>
        <time>2013-09-02T08:51:58Z</time>
      </trkpt>
      <trkpt lat="44.54765" lon="6.87973">
        <ele>2839.9</ele>
        <time>2013-09-02T08:52:11Z</time>
      </trkpt>
      <trkpt lat="44.54759" lon="6.87977">
        <ele>2841.8</ele>
        <time>2013-09-02T08:52:24Z</time>
      </trkpt>
      <trkpt lat="44.54754" lon="6.87977">
        <ele>2842.3</ele>
        <time>2013-09-02T08:52:37Z</time>
      </trkpt>
      <trkpt lat="44.5475" lon="6.87982">
        <ele>2841.3</ele>
        <time>2013-09-02T08:52:52Z</time>
      </trkpt>
      <trkpt lat="44.54745" lon="6.87988">
        <ele>2842.3</ele>
        <time>2013-09-02T08:53:05Z</time>
      </trkpt>
      <trkpt lat="44.54742" lon="6.87992">
        <ele>2845.2</ele>
        <time>2013-09-02T08:53:18Z</time>
      </trkpt>
      <trkpt lat="44.54738" lon="6.87999">
        <ele>2847.1</ele>
        <time>2013-09-02T08:53:32Z</time>
      </trkpt>
      <trkpt lat="44.54728" lon="6.88004">
        <ele>2847.6</ele>
        <time>2013-09-02T08:53:48Z</time>
      </trkpt>
      <trkpt lat="44.54721" lon="6.88013">
        <ele>2847.6</ele>
        <time>2013-09-02T08:54:02Z</time>
      </trkpt>
      <trkpt lat="44.54718" lon="6.88021">
        <ele>2849</ele>
        <time>2013-09-02T08:54:13Z</time>
      </trkpt>
      <trkpt lat="44.54715" lon="6.88029">
        <ele>2850.5</ele>
        <time>2013-09-02T08:54:25Z</time>
      </trkpt>
      <trkpt lat="44.54712" lon="6.88036">
        <ele>2850</ele>
        <time>2013-09-02T08:54:38Z</time>
      </trkpt>
      <trkpt lat="44.54712" lon="6.88037">
        <ele>2851.4</ele>
        <time>2013-09-02T08:54:49Z</time>
      </trkpt>
      <trkpt lat="44.54707" lon="6.88038">
        <ele>2852.9</ele>
        <time>2013-09-02T08:55:02Z</time>
      </trkpt>
      <trkpt lat="44.54705" lon="6.88049">
        <ele>2855.7</ele>
        <time>2013-09-02T08:55:16Z</time>
      </trkpt>
      <trkpt lat="44.54704" lon="6.88057">
        <ele>2856.7</ele>
        <time>2013-09-02T08:55:28Z</time>
      </trkpt>
      <trkpt lat="44.54702" lon="6.88061">
        <ele>2858.6</ele>
        <time>2013-09-02T08:55:41Z</time>
      </trkpt>
      <trkpt lat="44.547" lon="6.88064">
        <ele>2859.1</ele>
        <time>2013-09-02T08:55:56Z</time>
      </trkpt>
      <trkpt lat="44.54697" lon="6.88066">
        <ele>2861.5</ele>
        <time>2013-09-02T08:56:13Z</time>
      </trkpt>
      <trkpt lat="44.54697" lon="6.88068">
        <ele>2862.5</ele>
        <time>2013-09-02T08:56:28Z</time>
      </trkpt>
      <trkpt lat="44.54697" lon="6.8807">
        <ele>2862.5</ele>
        <time>2013-09-02T08:56:57Z</time>
      </trkpt>
      <trkpt lat="44.54693" lon="6.88065">
        <ele>2862.5</ele>
        <time>2013-09-02T08:57:20Z</time>
      </trkpt>
      <trkpt lat="44.5469" lon="6.88058">
        <ele>2865.4</ele>
        <time>2013-09-02T08:57:35Z</time>
      </trkpt>
      <trkpt lat="44.54688" lon="6.88055">
        <ele>2865.8</ele>
        <time>2013-09-02T08:57:49Z</time>
      </trkpt>
      <trkpt lat="44.54689" lon="6.88053">
        <ele>2868.2</ele>
        <time>2013-09-02T08:58:10Z</time>
      </trkpt>
      <trkpt lat="44.54686" lon="6.88058">
        <ele>2869.2</ele>
        <time>2013-09-02T08:58:31Z</time>
      </trkpt>
      <trkpt lat="44.54685" lon="6.88062">
        <ele>2871.1</ele>
        <time>2013-09-02T08:58:43Z</time>
      </trkpt>
      <trkpt lat="44.54681" lon="6.88056">
        <ele>2872.1</ele>
        <time>2013-09-02T08:58:56Z</time>
      </trkpt>
      <trkpt lat="44.5468" lon="6.88051">
        <ele>2873.5</ele>
        <time>2013-09-02T08:59:09Z</time>
      </trkpt>
      <trkpt lat="44.54676" lon="6.88051">
        <ele>2874.5</ele>
        <time>2013-09-02T08:59:27Z</time>
      </trkpt>
      <trkpt lat="44.54672" lon="6.88054">
        <ele>2874.5</ele>
        <time>2013-09-02T08:59:48Z</time>
      </trkpt>
      <trkpt lat="44.54673" lon="6.88057">
        <ele>2875.9</ele>
        <time>2013-09-02T08:59:59Z</time>
      </trkpt>
      <trkpt lat="44.54673" lon="6.8806">
        <ele>2876.9</ele>
        <time>2013-09-02T09:00:11Z</time>
      </trkpt>
      <trkpt lat="44.54674" lon="6.88066">
        <ele>2878.3</ele>
        <time>2013-09-02T09:00:26Z</time>
      </trkpt>
      <trkpt lat="44.5467" lon="6.88062">
        <ele>2880.7</ele>
        <time>2013-09-02T09:00:43Z</time>
      </trkpt>
      <trkpt lat="44.54669" lon="6.88066">
        <ele>2881.7</ele>
        <time>2013-09-02T09:00:55Z</time>
      </trkpt>
      <trkpt lat="44.54668" lon="6.88067">
        <ele>2883.1</ele>
        <time>2013-09-02T09:01:13Z</time>
      </trkpt>
      <trkpt lat="44.54665" lon="6.88061">
        <ele>2884.6</ele>
        <time>2013-09-02T09:01:27Z</time>
      </trkpt>
      <trkpt lat="44.54664" lon="6.88058">
        <ele>2887</ele>
        <time>2013-09-02T09:01:42Z</time>
      </trkpt>
      <trkpt lat="44.54663" lon="6.88061">
        <ele>2888.4</ele>
        <time>2013-09-02T09:01:55Z</time>
      </trkpt>
      <trkpt lat="44.5466" lon="6.88063">
        <ele>2889.9</ele>
        <time>2013-09-02T09:02:10Z</time>
      </trkpt>
      <trkpt lat="44.54658" lon="6.88067">
        <ele>2891.3</ele>
        <time>2013-09-02T09:02:23Z</time>
      </trkpt>
      <trkpt lat="44.54656" lon="6.8807">
        <ele>2892.7</ele>
        <time>2013-09-02T09:02:40Z</time>
      </trkpt>
      <trkpt lat="44.54654" lon="6.88072">
        <ele>2893.7</ele>
        <time>2013-09-02T09:02:58Z</time>
      </trkpt>
      <trkpt lat="44.54654" lon="6.88076">
        <ele>2895.6</ele>
        <time>2013-09-02T09:03:11Z</time>
      </trkpt>
      <trkpt lat="44.54654" lon="6.88077">
        <ele>2896.6</ele>
        <time>2013-09-02T09:03:13Z</time>
      </trkpt>
      <trkpt lat="44.54653" lon="6.88082">
        <ele>2897.6</ele>
        <time>2013-09-02T09:03:27Z</time>
      </trkpt>
      <trkpt lat="44.54652" lon="6.88085">
        <ele>2899</ele>
        <time>2013-09-02T09:03:42Z</time>
      </trkpt>
      <trkpt lat="44.54652" lon="6.88087">
        <ele>2900.4</ele>
        <time>2013-09-02T09:03:53Z</time>
      </trkpt>
      <trkpt lat="44.5465" lon="6.88086">
        <ele>2901.4</ele>
        <time>2013-09-02T09:04:04Z</time>
      </trkpt>
      <trkpt lat="44.54648" lon="6.88084">
        <ele>2902.8</ele>
        <time>2013-09-02T09:04:17Z</time>
      </trkpt>
      <trkpt lat="44.54646" lon="6.88089">
        <ele>2904.8</ele>
        <time>2013-09-02T09:04:29Z</time>
      </trkpt>
      <trkpt lat="44.54645" lon="6.88091">
        <ele>2905.7</ele>
        <time>2013-09-02T09:04:44Z</time>
      </trkpt>
      <trkpt lat="44.54641" lon="6.88086">
        <ele>2907.2</ele>
        <time>2013-09-02T09:04:59Z</time>
      </trkpt>
      <trkpt lat="44.54641" lon="6.8809">
        <ele>2908.6</ele>
        <time>2013-09-02T09:05:14Z</time>
      </trkpt>
      <trkpt lat="44.5464" lon="6.88094">
        <ele>2910.5</ele>
        <time>2013-09-02T09:05:29Z</time>
      </trkpt>
      <trkpt lat="44.54636" lon="6.88091">
        <ele>2912.5</ele>
        <time>2013-09-02T09:05:44Z</time>
      </trkpt>
      <trkpt lat="44.54633" lon="6.88093">
        <ele>2914.9</ele>
        <time>2013-09-02T09:06:02Z</time>
      </trkpt>
      <trkpt lat="44.54634" lon="6.88095">
        <ele>2915.3</ele>
        <time>2013-09-02T09:06:18Z</time>
      </trkpt>
      <trkpt lat="44.54633" lon="6.88099">
        <ele>2917.3</ele>
        <time>2013-09-02T09:06:34Z</time>
      </trkpt>
      <trkpt lat="44.54632" lon="6.88101">
        <ele>2918.2</ele>
        <time>2013-09-02T09:06:48Z</time>
      </trkpt>
      <trkpt lat="44.54631" lon="6.88105">
        <ele>2919.7</ele>
        <time>2013-09-02T09:07:02Z</time>
      </trkpt>
      <trkpt lat="44.54631" lon="6.8811">
        <ele>2922.1</ele>
        <time>2013-09-02T09:07:16Z</time>
      </trkpt>
      <trkpt lat="44.54631" lon="6.88113">
        <ele>2923</ele>
        <time>2013-09-02T09:07:30Z</time>
      </trkpt>
      <trkpt lat="44.54629" lon="6.88113">
        <ele>2924.5</ele>
        <time>2013-09-02T09:07:43Z</time>
      </trkpt>
      <trkpt lat="44.5463" lon="6.88108">
        <ele>2925</ele>
        <time>2013-09-02T09:07:58Z</time>
      </trkpt>
      <trkpt lat="44.54624" lon="6.88109">
        <ele>2927.4</ele>
        <time>2013-09-02T09:08:14Z</time>
      </trkpt>
      <trkpt lat="44.54622" lon="6.8811">
        <ele>2928.3</ele>
        <time>2013-09-02T09:08:25Z</time>
      </trkpt>
      <trkpt lat="44.54619" lon="6.88108">
        <ele>2929.8</ele>
        <time>2013-09-02T09:08:38Z</time>
      </trkpt>
      <trkpt lat="44.54617" lon="6.88104">
        <ele>2930.7</ele>
        <time>2013-09-02T09:08:52Z</time>
      </trkpt>
      <trkpt lat="44.54615" lon="6.88106">
        <ele>2931.7</ele>
        <time>2013-09-02T09:09:11Z</time>
      </trkpt>
      <trkpt lat="44.54613" lon="6.88107">
        <ele>2933.1</ele>
        <time>2013-09-02T09:09:23Z</time>
      </trkpt>
      <trkpt lat="44.54611" lon="6.88107">
        <ele>2935.5</ele>
        <time>2013-09-02T09:09:39Z</time>
      </trkpt>
      <trkpt lat="44.54609" lon="6.88104">
        <ele>2937.5</ele>
        <time>2013-09-02T09:09:53Z</time>
      </trkpt>
      <trkpt lat="44.54606" lon="6.8811">
        <ele>2939.9</ele>
        <time>2013-09-02T09:10:07Z</time>
      </trkpt>
      <trkpt lat="44.54605" lon="6.88111">
        <ele>2940.3</ele>
        <time>2013-09-02T09:10:20Z</time>
      </trkpt>
      <trkpt lat="44.54601" lon="6.88112">
        <ele>2943.7</ele>
        <time>2013-09-02T09:10:37Z</time>
      </trkpt>
      <trkpt lat="44.54599" lon="6.8811">
        <ele>2945.1</ele>
        <time>2013-09-02T09:10:51Z</time>
      </trkpt>
      <trkpt lat="44.54595" lon="6.88113">
        <ele>2947.5</ele>
        <time>2013-09-02T09:11:06Z</time>
      </trkpt>
      <trkpt lat="44.5459" lon="6.88115">
        <ele>2949.5</ele>
        <time>2013-09-02T09:11:23Z</time>
      </trkpt>
      <trkpt lat="44.54588" lon="6.88115">
        <ele>2951.4</ele>
        <time>2013-09-02T09:11:30Z</time>
      </trkpt>
      <trkpt lat="44.54582" lon="6.88119">
        <ele>2952.4</ele>
        <time>2013-09-02T09:11:45Z</time>
      </trkpt>
      <trkpt lat="44.5458" lon="6.88121">
        <ele>2951.9</ele>
        <time>2013-09-02T09:12:00Z</time>
      </trkpt>
      <trkpt lat="44.54581" lon="6.88119">
        <ele>2952.8</ele>
        <time>2013-09-02T09:12:18Z</time>
      </trkpt>
      <trkpt lat="44.54583" lon="6.88114">
        <ele>2951.9</ele>
        <time>2013-09-02T09:12:31Z</time>
      </trkpt>
      <trkpt lat="44.54584" lon="6.8811">
        <ele>2950.4</ele>
        <time>2013-09-02T09:12:49Z</time>
      </trkpt>
      <trkpt lat="44.54586" lon="6.88115">
        <ele>2950.4</ele>
        <time>2013-09-02T09:13:22Z</time>
      </trkpt>
      <trkpt lat="44.54582" lon="6.88113">
        <ele>2951.9</ele>
        <time>2013-09-02T09:13:51Z</time>
      </trkpt>
      <trkpt lat="44.54583" lon="6.88114">
        <ele>2952.4</ele>
        <time>2013-09-02T09:14:29Z</time>
      </trkpt>
      <trkpt lat="44.54582" lon="6.88114">
        <ele>2951.9</ele>
        <time>2013-09-02T09:15:10Z</time>
      </trkpt>
      <trkpt lat="44.54582" lon="6.88112">
        <ele>2951.9</ele>
        <time>2013-09-02T09:15:45Z</time>
      </trkpt>
      <trkpt lat="44.54582" lon="6.88113">
        <ele>2951.9</ele>
        <time>2013-09-02T09:16:16Z</time>
      </trkpt>
      <trkpt lat="44.54582" lon="6.88113">
        <ele>2952.4</ele>
        <time>2013-09-02T09:16:52Z</time>
      </trkpt>
      <trkpt lat="44.54583" lon="6.88115">
        <ele>2952.4</ele>
        <time>2013-09-02T09:17:20Z</time>
      </trkpt>
      <trkpt lat="44.54584" lon="6.88114">
        <ele>2952.8</ele>
        <time>2013-09-02T09:17:44Z</time>
      </trkpt>
      <trkpt lat="44.54583" lon="6.88114">
        <ele>2952.4</ele>
        <time>2013-09-02T09:18:15Z</time>
      </trkpt>
      <trkpt lat="44.54579" lon="6.88115">
        <ele>2951.4</ele>
        <time>2013-09-02T09:18:34Z</time>
      </trkpt>
      <trkpt lat="44.54577" lon="6.88115">
        <ele>2951.4</ele>
        <time>2013-09-02T09:18:52Z</time>
      </trkpt>
      <trkpt lat="44.54575" lon="6.88113">
        <ele>2949.9</ele>
        <time>2013-09-02T09:19:04Z</time>
      </trkpt>
      <trkpt lat="44.54571" lon="6.88112">
        <ele>2948.5</ele>
        <time>2013-09-02T09:19:19Z</time>
      </trkpt>
      <trkpt lat="44.54571" lon="6.88108">
        <ele>2946.6</ele>
        <time>2013-09-02T09:19:36Z</time>
      </trkpt>
      <trkpt lat="44.54569" lon="6.88107">
        <ele>2945.1</ele>
        <time>2013-09-02T09:19:51Z</time>
      </trkpt>
      <trkpt lat="44.54567" lon="6.88106">
        <ele>2944.7</ele>
        <time>2013-09-02T09:19:59Z</time>
      </trkpt>
      <trkpt lat="44.54566" lon="6.88103">
        <ele>2942.3</ele>
        <time>2013-09-02T09:20:14Z</time>
      </trkpt>
      <trkpt lat="44.54564" lon="6.88099">
        <ele>2940.8</ele>
        <time>2013-09-02T09:20:29Z</time>
      </trkpt>
      <trkpt lat="44.54565" lon="6.88095">
        <ele>2939.9</ele>
        <time>2013-09-02T09:20:44Z</time>
      </trkpt>
      <trkpt lat="44.54564" lon="6.88093">
        <ele>2938.4</ele>
        <time>2013-09-02T09:21:01Z</time>
      </trkpt>
      <trkpt lat="44.54562" lon="6.8809">
        <ele>2935.5</ele>
        <time>2013-09-02T09:21:15Z</time>
      </trkpt>
      <trkpt lat="44.5456" lon="6.88087">
        <ele>2934.1</ele>
        <time>2013-09-02T09:21:30Z</time>
      </trkpt>
      <trkpt lat="44.54556" lon="6.88086">
        <ele>2932.2</ele>
        <time>2013-09-02T09:21:43Z</time>
      </trkpt>
      <trkpt lat="44.54556" lon="6.88082">
        <ele>2931.2</ele>
        <time>2013-09-02T09:21:56Z</time>
      </trkpt>
      <trkpt lat="44.54554" lon="6.8808">
        <ele>2929.3</ele>
        <time>2013-09-02T09:22:11Z</time>
      </trkpt>
      <trkpt lat="44.54553" lon="6.88077">
        <ele>2927.8</ele>
        <time>2013-09-02T09:22:28Z</time>
      </trkpt>
      <trkpt lat="44.54553" lon="6.88078">
        <ele>2928.8</ele>
        <time>2013-09-02T09:22:50Z</time>
      </trkpt>
      <trkpt lat="44.54554" lon="6.88073">
        <ele>2926.9</ele>
        <time>2013-09-02T09:23:05Z</time>
      </trkpt>
      <trkpt lat="44.54556" lon="6.88061">
        <ele>2925</ele>
        <time>2013-09-02T09:23:21Z</time>
      </trkpt>
      <trkpt lat="44.54551" lon="6.88055">
        <ele>2922.1</ele>
        <time>2013-09-02T09:23:37Z</time>
      </trkpt>
      <trkpt lat="44.54546" lon="6.88049">
        <ele>2918.2</ele>
        <time>2013-09-02T09:23:54Z</time>
      </trkpt>
      <trkpt lat="44.54543" lon="6.88045">
        <ele>2916.3</ele>
        <time>2013-09-02T09:24:08Z</time>
      </trkpt>
      <trkpt lat="44.54538" lon="6.88037">
        <ele>2912.9</ele>
        <time>2013-09-02T09:24:24Z</time>
      </trkpt>
      <trkpt lat="44.54536" lon="6.88041">
        <ele>2912</ele>
        <time>2013-09-02T09:24:37Z</time>
      </trkpt>
      <trkpt lat="44.54529" lon="6.88041">
        <ele>2908.6</ele>
        <time>2013-09-02T09:24:53Z</time>
      </trkpt>
      <trkpt lat="44.54523" lon="6.88044">
        <ele>2906.7</ele>
        <time>2013-09-02T09:25:08Z</time>
      </trkpt>
      <trkpt lat="44.5452" lon="6.88043">
        <ele>2904.8</ele>
        <time>2013-09-02T09:25:23Z</time>
      </trkpt>
      <trkpt lat="44.54519" lon="6.88039">
        <ele>2904.3</ele>
        <time>2013-09-02T09:25:36Z</time>
      </trkpt>
      <trkpt lat="44.54516" lon="6.88037">
        <ele>2901.4</ele>
        <time>2013-09-02T09:25:47Z</time>
      </trkpt>
      <trkpt lat="44.54511" lon="6.88036">
        <ele>2898</ele>
        <time>2013-09-02T09:26:00Z</time>
      </trkpt>
      <trkpt lat="44.54508" lon="6.88037">
        <ele>2897.6</ele>
        <time>2013-09-02T09:26:14Z</time>
      </trkpt>
      <trkpt lat="44.54509" lon="6.88031">
        <ele>2895.2</ele>
        <time>2013-09-02T09:26:28Z</time>
      </trkpt>
      <trkpt lat="44.54511" lon="6.88022">
        <ele>2893.2</ele>
        <time>2013-09-02T09:26:45Z</time>
      </trkpt>
      <trkpt lat="44.54511" lon="6.88016">
        <ele>2889.9</ele>
        <time>2013-09-02T09:26:57Z</time>
      </trkpt>
      <trkpt lat="44.54506" lon="6.88019">
        <ele>2888.4</ele>
        <time>2013-09-02T09:27:10Z</time>
      </trkpt>
      <trkpt lat="44.54505" lon="6.88011">
        <ele>2886.5</ele>
        <time>2013-09-02T09:27:26Z</time>
      </trkpt>
      <trkpt lat="44.54502" lon="6.88011">
        <ele>2884.6</ele>
        <time>2013-09-02T09:27:39Z</time>
      </trkpt>
      <trkpt lat="44.54498" lon="6.88013">
        <ele>2882.2</ele>
        <time>2013-09-02T09:27:57Z</time>
      </trkpt>
      <trkpt lat="44.54497" lon="6.88009">
        <ele>2880.7</ele>
        <time>2013-09-02T09:28:13Z</time>
      </trkpt>
      <trkpt lat="44.54493" lon="6.88014">
        <ele>2880.3</ele>
        <time>2013-09-02T09:28:31Z</time>
      </trkpt>
      <trkpt lat="44.54491" lon="6.88013">
        <ele>2878.8</ele>
        <time>2013-09-02T09:28:47Z</time>
      </trkpt>
      <trkpt lat="44.54491" lon="6.88008">
        <ele>2876.9</ele>
        <time>2013-09-02T09:29:00Z</time>
      </trkpt>
      <trkpt lat="44.54487" lon="6.88009">
        <ele>2875.4</ele>
        <time>2013-09-02T09:29:15Z</time>
      </trkpt>
      <trkpt lat="44.54486" lon="6.88003">
        <ele>2874</ele>
        <time>2013-09-02T09:29:32Z</time>
      </trkpt>
      <trkpt lat="44.54481" lon="6.88004">
        <ele>2870.6</ele>
        <time>2013-09-02T09:29:47Z</time>
      </trkpt>
      <trkpt lat="44.54483" lon="6.87996">
        <ele>2869.2</ele>
        <time>2013-09-02T09:29:59Z</time>
      </trkpt>
      <trkpt lat="44.54481" lon="6.87995">
        <ele>2867.8</ele>
        <time>2013-09-02T09:30:08Z</time>
      </trkpt>
      <trkpt lat="44.54478" lon="6.87996">
        <ele>2865.8</ele>
        <time>2013-09-02T09:30:22Z</time>
      </trkpt>
      <trkpt lat="44.54477" lon="6.87994">
        <ele>2864.4</ele>
        <time>2013-09-02T09:30:35Z</time>
      </trkpt>
      <trkpt lat="44.54477" lon="6.87987">
        <ele>2862</ele>
        <time>2013-09-02T09:30:53Z</time>
      </trkpt>
      <trkpt lat="44.54476" lon="6.87985">
        <ele>2861.5</ele>
        <time>2013-09-02T09:31:09Z</time>
      </trkpt>
      <trkpt lat="44.54475" lon="6.87989">
        <ele>2860.5</ele>
        <time>2013-09-02T09:31:23Z</time>
      </trkpt>
      <trkpt lat="44.54478" lon="6.87989">
        <ele>2860.1</ele>
        <time>2013-09-02T09:31:42Z</time>
      </trkpt>
      <trkpt lat="44.54477" lon="6.87988">
        <ele>2859.6</ele>
        <time>2013-09-02T09:31:57Z</time>
      </trkpt>
      <trkpt lat="44.54477" lon="6.87987">
        <ele>2859.6</ele>
        <time>2013-09-02T09:32:16Z</time>
      </trkpt>
      <trkpt lat="44.54476" lon="6.87988">
        <ele>2865.4</ele>
        <time>2013-09-02T09:32:19Z</time>
      </trkpt>
      <trkpt lat="44.54477" lon="6.87988">
        <ele>2860.1</ele>
        <time>2013-09-02T09:32:20Z</time>
      </trkpt>
      <trkpt lat="44.54476" lon="6.87986">
        <ele>2863.4</ele>
        <time>2013-09-02T09:32:37Z</time>
      </trkpt>
      <trkpt lat="44.54476" lon="6.87986">
        <ele>2860.1</ele>
        <time>2013-09-02T09:32:38Z</time>
      </trkpt>
      <trkpt lat="44.54473" lon="6.87988">
        <ele>2859.6</ele>
        <time>2013-09-02T09:33:04Z</time>
      </trkpt>
      <trkpt lat="44.54471" lon="6.87986">
        <ele>2858.6</ele>
        <time>2013-09-02T09:33:32Z</time>
      </trkpt>
      <trkpt lat="44.54472" lon="6.87986">
        <ele>2860.1</ele>
        <time>2013-09-02T09:33:35Z</time>
      </trkpt>
      <trkpt lat="44.54474" lon="6.87988">
        <ele>2861.5</ele>
        <time>2013-09-02T09:33:53Z</time>
      </trkpt>
      <trkpt lat="44.54475" lon="6.87988">
        <ele>2862</ele>
        <time>2013-09-02T09:34:13Z</time>
      </trkpt>
      <trkpt lat="44.54474" lon="6.87988">
        <ele>2861.5</ele>
        <time>2013-09-02T09:34:31Z</time>
      </trkpt>
      <trkpt lat="44.54473" lon="6.87989">
        <ele>2860.1</ele>
        <time>2013-09-02T09:34:47Z</time>
      </trkpt>
      <trkpt lat="44.54469" lon="6.87983">
        <ele>2857.7</ele>
        <time>2013-09-02T09:35:00Z</time>
      </trkpt>
      <trkpt lat="44.5447" lon="6.87982">
        <ele>2855.7</ele>
        <time>2013-09-02T09:35:16Z</time>
      </trkpt>
      <trkpt lat="44.54471" lon="6.87976">
        <ele>2854.3</ele>
        <time>2013-09-02T09:35:30Z</time>
      </trkpt>
      <trkpt lat="44.5447" lon="6.8797">
        <ele>2852.9</ele>
        <time>2013-09-02T09:35:38Z</time>
      </trkpt>
      <trkpt lat="44.54465" lon="6.87968">
        <ele>2850</ele>
        <time>2013-09-02T09:35:52Z</time>
      </trkpt>
      <trkpt lat="44.54456" lon="6.87966">
        <ele>2848</ele>
        <time>2013-09-02T09:36:10Z</time>
      </trkpt>
      <trkpt lat="44.54458" lon="6.87956">
        <ele>2844.7</ele>
        <time>2013-09-02T09:36:20Z</time>
      </trkpt>
      <trkpt lat="44.5445" lon="6.87959">
        <ele>2841.8</ele>
        <time>2013-09-02T09:36:40Z</time>
      </trkpt>
      <trkpt lat="44.54449" lon="6.87959">
        <ele>2840.8</ele>
        <time>2013-09-02T09:36:42Z</time>
      </trkpt>
      <trkpt lat="44.54441" lon="6.87963">
        <ele>2837</ele>
        <time>2013-09-02T09:36:55Z</time>
      </trkpt>
      <trkpt lat="44.54441" lon="6.87954">
        <ele>2836</ele>
        <time>2013-09-02T09:37:13Z</time>
      </trkpt>
      <trkpt lat="44.54435" lon="6.87955">
        <ele>2833.1</ele>
        <time>2013-09-02T09:37:36Z</time>
      </trkpt>
      <trkpt lat="44.54434" lon="6.87952">
        <ele>2829.8</ele>
        <time>2013-09-02T09:37:48Z</time>
      </trkpt>
      <trkpt lat="44.54432" lon="6.87945">
        <ele>2826.4</ele>
        <time>2013-09-02T09:38:01Z</time>
      </trkpt>
      <trkpt lat="44.54426" lon="6.87948">
        <ele>2823.5</ele>
        <time>2013-09-02T09:38:12Z</time>
      </trkpt>
      <trkpt lat="44.54424" lon="6.87947">
        <ele>2822.1</ele>
        <time>2013-09-02T09:38:15Z</time>
      </trkpt>
      <trkpt lat="44.54423" lon="6.87944">
        <ele>2817.8</ele>
        <time>2013-09-02T09:38:22Z</time>
      </trkpt>
      <trkpt lat="44.54423" lon="6.87945">
        <ele>2824.5</ele>
        <time>2013-09-02T09:38:23Z</time>
      </trkpt>
      <trkpt lat="44.54423" lon="6.87945">
        <ele>2821.1</ele>
        <time>2013-09-02T09:38:24Z</time>
      </trkpt>
      <trkpt lat="44.54423" lon="6.87946">
        <ele>2822.6</ele>
        <time>2013-09-02T09:38:32Z</time>
      </trkpt>
      <trkpt lat="44.54423" lon="6.87946">
        <ele>2821.1</ele>
        <time>2013-09-02T09:38:34Z</time>
      </trkpt>
      <trkpt lat="44.54423" lon="6.87944">
        <ele>2819.7</ele>
        <time>2013-09-02T09:38:56Z</time>
      </trkpt>
      <trkpt lat="44.54423" lon="6.87944">
        <ele>2824</ele>
        <time>2013-09-02T09:38:57Z</time>
      </trkpt>
      <trkpt lat="44.54423" lon="6.87944">
        <ele>2820.7</ele>
        <time>2013-09-02T09:38:58Z</time>
      </trkpt>
      <trkpt lat="44.54417" lon="6.87942">
        <ele>2817.3</ele>
        <time>2013-09-02T09:39:11Z</time>
      </trkpt>
      <trkpt lat="44.54416" lon="6.8794">
        <ele>2816.8</ele>
        <time>2013-09-02T09:39:13Z</time>
      </trkpt>
      <trkpt lat="44.54414" lon="6.8794">
        <ele>2815.4</ele>
        <time>2013-09-02T09:39:16Z</time>
      </trkpt>
      <trkpt lat="44.54412" lon="6.87941">
        <ele>2814.4</ele>
        <time>2013-09-02T09:39:18Z</time>
      </trkpt>
      <trkpt lat="44.54409" lon="6.87938">
        <ele>2811</ele>
        <time>2013-09-02T09:39:30Z</time>
      </trkpt>
      <trkpt lat="44.54403" lon="6.87934">
        <ele>2807.7</ele>
        <time>2013-09-02T09:39:43Z</time>
      </trkpt>
      <trkpt lat="44.54401" lon="6.87931">
        <ele>2804.8</ele>
        <time>2013-09-02T09:39:52Z</time>
      </trkpt>
      <trkpt lat="44.54397" lon="6.87931">
        <ele>2803.3</ele>
        <time>2013-09-02T09:39:59Z</time>
      </trkpt>
      <trkpt lat="44.54397" lon="6.8792">
        <ele>2800</ele>
        <time>2013-09-02T09:40:11Z</time>
      </trkpt>
      <trkpt lat="44.54388" lon="6.87926">
        <ele>2796.6</ele>
        <time>2013-09-02T09:40:26Z</time>
      </trkpt>
      <trkpt lat="44.54388" lon="6.87925">
        <ele>2796.6</ele>
        <time>2013-09-02T09:40:27Z</time>
      </trkpt>
      <trkpt lat="44.54389" lon="6.87916">
        <ele>2794.2</ele>
        <time>2013-09-02T09:40:35Z</time>
      </trkpt>
      <trkpt lat="44.54386" lon="6.87909">
        <ele>2791.3</ele>
        <time>2013-09-02T09:40:45Z</time>
      </trkpt>
      <trkpt lat="44.54381" lon="6.87903">
        <ele>2788</ele>
        <time>2013-09-02T09:40:59Z</time>
      </trkpt>
      <trkpt lat="44.54375" lon="6.87899">
        <ele>2784.6</ele>
        <time>2013-09-02T09:41:13Z</time>
      </trkpt>
      <trkpt lat="44.54366" lon="6.87894">
        <ele>2780.8</ele>
        <time>2013-09-02T09:41:27Z</time>
      </trkpt>
      <trkpt lat="44.54362" lon="6.87888">
        <ele>2777.4</ele>
        <time>2013-09-02T09:41:38Z</time>
      </trkpt>
      <trkpt lat="44.54358" lon="6.87883">
        <ele>2776.4</ele>
        <time>2013-09-02T09:41:54Z</time>
      </trkpt>
      <trkpt lat="44.54357" lon="6.8788">
        <ele>2776.4</ele>
        <time>2013-09-02T09:42:17Z</time>
      </trkpt>
      <trkpt lat="44.54366" lon="6.87882">
        <ele>2776.4</ele>
        <time>2013-09-02T09:42:49Z</time>
      </trkpt>
      <trkpt lat="44.54359" lon="6.87886">
        <ele>2774</ele>
        <time>2013-09-02T09:43:03Z</time>
      </trkpt>
      <trkpt lat="44.54352" lon="6.87881">
        <ele>2770.7</ele>
        <time>2013-09-02T09:43:12Z</time>
      </trkpt>
      <trkpt lat="44.54344" lon="6.87875">
        <ele>2767.8</ele>
        <time>2013-09-02T09:43:23Z</time>
      </trkpt>
      <trkpt lat="44.54334" lon="6.87869">
        <ele>2764.4</ele>
        <time>2013-09-02T09:43:38Z</time>
      </trkpt>
      <trkpt lat="44.54327" lon="6.87869">
        <ele>2762</ele>
        <time>2013-09-02T09:43:52Z</time>
      </trkpt>
      <trkpt lat="44.54326" lon="6.87872">
        <ele>2760.1</ele>
        <time>2013-09-02T09:44:03Z</time>
      </trkpt>
      <trkpt lat="44.54327" lon="6.87866">
        <ele>2757.7</ele>
        <time>2013-09-02T09:44:10Z</time>
      </trkpt>
      <trkpt lat="44.54327" lon="6.87865">
        <ele>2757.7</ele>
        <time>2013-09-02T09:44:11Z</time>
      </trkpt>
      <trkpt lat="44.54327" lon="6.87848">
        <ele>2754.3</ele>
        <time>2013-09-02T09:44:25Z</time>
      </trkpt>
      <trkpt lat="44.54328" lon="6.87841">
        <ele>2751.4</ele>
        <time>2013-09-02T09:44:37Z</time>
      </trkpt>
      <trkpt lat="44.54328" lon="6.8784">
        <ele>2750.5</ele>
        <time>2013-09-02T09:44:38Z</time>
      </trkpt>
      <trkpt lat="44.54315" lon="6.87827">
        <ele>2747.1</ele>
        <time>2013-09-02T09:44:53Z</time>
      </trkpt>
      <trkpt lat="44.54293" lon="6.87818">
        <ele>2743.7</ele>
        <time>2013-09-02T09:45:08Z</time>
      </trkpt>
      <trkpt lat="44.5429" lon="6.87814">
        <ele>2743.3</ele>
        <time>2013-09-02T09:45:12Z</time>
      </trkpt>
      <trkpt lat="44.54282" lon="6.87801">
        <ele>2740.9</ele>
        <time>2013-09-02T09:45:24Z</time>
      </trkpt>
      <trkpt lat="44.54273" lon="6.87795">
        <ele>2738</ele>
        <time>2013-09-02T09:45:37Z</time>
      </trkpt>
      <trkpt lat="44.54268" lon="6.87792">
        <ele>2735.6</ele>
        <time>2013-09-02T09:45:54Z</time>
      </trkpt>
      <trkpt lat="44.54259" lon="6.87807">
        <ele>2734.6</ele>
        <time>2013-09-02T09:46:08Z</time>
      </trkpt>
      <trkpt lat="44.54262" lon="6.87814">
        <ele>2734.6</ele>
        <time>2013-09-02T09:46:47Z</time>
      </trkpt>
      <trkpt lat="44.5426" lon="6.87816">
        <ele>2735.1</ele>
        <time>2013-09-02T09:47:22Z</time>
      </trkpt>
      <trkpt lat="44.54253" lon="6.87808">
        <ele>2734.6</ele>
        <time>2013-09-02T09:47:47Z</time>
      </trkpt>
      <trkpt lat="44.54247" lon="6.87807">
        <ele>2735.1</ele>
        <time>2013-09-02T09:48:08Z</time>
      </trkpt>
      <trkpt lat="44.54242" lon="6.87805">
        <ele>2732.7</ele>
        <time>2013-09-02T09:48:22Z</time>
      </trkpt>
      <trkpt lat="44.54236" lon="6.878">
        <ele>2729.3</ele>
        <time>2013-09-02T09:48:35Z</time>
      </trkpt>
      <trkpt lat="44.54228" lon="6.87785">
        <ele>2726.9</ele>
        <time>2013-09-02T09:48:48Z</time>
      </trkpt>
      <trkpt lat="44.54218" lon="6.87781">
        <ele>2725</ele>
        <time>2013-09-02T09:49:04Z</time>
      </trkpt>
      <trkpt lat="44.5421" lon="6.87776">
        <ele>2723.6</ele>
        <time>2013-09-02T09:49:15Z</time>
      </trkpt>
      <trkpt lat="44.54197" lon="6.87773">
        <ele>2721.6</ele>
        <time>2013-09-02T09:49:30Z</time>
      </trkpt>
      <trkpt lat="44.54189" lon="6.87768">
        <ele>2721.2</ele>
        <time>2013-09-02T09:49:45Z</time>
      </trkpt>
      <trkpt lat="44.54175" lon="6.87769">
        <ele>2720.2</ele>
        <time>2013-09-02T09:49:58Z</time>
      </trkpt>
      <trkpt lat="44.54159" lon="6.87769">
        <ele>2718.3</ele>
        <time>2013-09-02T09:50:12Z</time>
      </trkpt>
      <trkpt lat="44.54157" lon="6.87768">
        <ele>2717.3</ele>
        <time>2013-09-02T09:50:15Z</time>
      </trkpt>
      <trkpt lat="44.5416" lon="6.87763">
        <ele>2717.8</ele>
        <time>2013-09-02T09:50:34Z</time>
      </trkpt>
      <trkpt lat="44.54155" lon="6.87768">
        <ele>2716.8</ele>
        <time>2013-09-02T09:50:48Z</time>
      </trkpt>
      <trkpt lat="44.54151" lon="6.87764">
        <ele>2716.3</ele>
        <time>2013-09-02T09:51:04Z</time>
      </trkpt>
      <trkpt lat="44.54144" lon="6.87762">
        <ele>2716.3</ele>
        <time>2013-09-02T09:51:18Z</time>
      </trkpt>
      <trkpt lat="44.54137" lon="6.87755">
        <ele>2714.4</ele>
        <time>2013-09-02T09:51:35Z</time>
      </trkpt>
      <trkpt lat="44.54125" lon="6.8775">
        <ele>2713.9</ele>
        <time>2013-09-02T09:51:49Z</time>
      </trkpt>
      <trkpt lat="44.54121" lon="6.87749">
        <ele>2713</ele>
        <time>2013-09-02T09:51:52Z</time>
      </trkpt>
      <trkpt lat="44.54108" lon="6.87743">
        <ele>2711.5</ele>
        <time>2013-09-02T09:52:04Z</time>
      </trkpt>
      <trkpt lat="44.54092" lon="6.8774">
        <ele>2711.1</ele>
        <time>2013-09-02T09:52:19Z</time>
      </trkpt>
      <trkpt lat="44.54086" lon="6.87742">
        <ele>2710.6</ele>
        <time>2013-09-02T09:52:30Z</time>
      </trkpt>
      <trkpt lat="44.54075" lon="6.87746">
        <ele>2709.1</ele>
        <time>2013-09-02T09:52:44Z</time>
      </trkpt>
      <trkpt lat="44.5407" lon="6.87742">
        <ele>2706.7</ele>
        <time>2013-09-02T09:52:53Z</time>
      </trkpt>
      <trkpt lat="44.54061" lon="6.8774">
        <ele>2706.7</ele>
        <time>2013-09-02T09:53:02Z</time>
      </trkpt>
      <trkpt lat="44.54049" lon="6.87734">
        <ele>2705.3</ele>
        <time>2013-09-02T09:53:15Z</time>
      </trkpt>
      <trkpt lat="44.54047" lon="6.8774">
        <ele>2705.8</ele>
        <time>2013-09-02T09:53:48Z</time>
      </trkpt>
      <trkpt lat="44.54043" lon="6.87737">
        <ele>2705.8</ele>
        <time>2013-09-02T09:53:53Z</time>
      </trkpt>
      <trkpt lat="44.54018" lon="6.87741">
        <ele>2705.8</ele>
        <time>2013-09-02T09:54:07Z</time>
      </trkpt>
      <trkpt lat="44.53995" lon="6.87743">
        <ele>2705.8</ele>
        <time>2013-09-02T09:54:19Z</time>
      </trkpt>
      <trkpt lat="44.53985" lon="6.8774">
        <ele>2705.8</ele>
        <time>2013-09-02T09:54:26Z</time>
      </trkpt>
      <trkpt lat="44.5397" lon="6.87732">
        <ele>2704.3</ele>
        <time>2013-09-02T09:54:36Z</time>
      </trkpt>
      <trkpt lat="44.5396" lon="6.87722">
        <ele>2702.9</ele>
        <time>2013-09-02T09:54:48Z</time>
      </trkpt>
      <trkpt lat="44.53955" lon="6.87721">
        <ele>2703.4</ele>
        <time>2013-09-02T09:54:54Z</time>
      </trkpt>
      <trkpt lat="44.53948" lon="6.87712">
        <ele>2703.4</ele>
        <time>2013-09-02T09:55:09Z</time>
      </trkpt>
      <trkpt lat="44.53944" lon="6.8771">
        <ele>2702.4</ele>
        <time>2013-09-02T09:55:15Z</time>
      </trkpt>
      <trkpt lat="44.53941" lon="6.87715">
        <ele>2701.9</ele>
        <time>2013-09-02T09:55:31Z</time>
      </trkpt>
      <trkpt lat="44.53941" lon="6.87713">
        <ele>2702.9</ele>
        <time>2013-09-02T09:55:42Z</time>
      </trkpt>
      <trkpt lat="44.53939" lon="6.87712">
        <ele>2699</ele>
        <time>2013-09-02T09:55:54Z</time>
      </trkpt>
      <trkpt lat="44.53938" lon="6.87712">
        <ele>2699</ele>
        <time>2013-09-02T09:55:55Z</time>
      </trkpt>
      <trkpt lat="44.53938" lon="6.87712">
        <ele>2705.8</ele>
        <time>2013-09-02T09:55:56Z</time>
      </trkpt>
      <trkpt lat="44.53938" lon="6.87712">
        <ele>2702.4</ele>
        <time>2013-09-02T09:55:57Z</time>
      </trkpt>
      <trkpt lat="44.53938" lon="6.87712">
        <ele>2697.1</ele>
        <time>2013-09-02T09:55:58Z</time>
      </trkpt>
      <trkpt lat="44.53938" lon="6.87712">
        <ele>2706.3</ele>
        <time>2013-09-02T09:55:59Z</time>
      </trkpt>
      <trkpt lat="44.53938" lon="6.87712">
        <ele>2701.4</ele>
        <time>2013-09-02T09:56:00Z</time>
      </trkpt>
      <trkpt lat="44.53938" lon="6.87712">
        <ele>2702.9</ele>
        <time>2013-09-02T09:56:01Z</time>
      </trkpt>
      <trkpt lat="44.53938" lon="6.87712">
        <ele>2699.5</ele>
        <time>2013-09-02T09:56:02Z</time>
      </trkpt>
      <trkpt lat="44.53937" lon="6.87712">
        <ele>2703.9</ele>
        <time>2013-09-02T09:56:05Z</time>
      </trkpt>
      <trkpt lat="44.53938" lon="6.87712">
        <ele>2700.5</ele>
        <time>2013-09-02T09:56:06Z</time>
      </trkpt>
      <trkpt lat="44.53938" lon="6.87712">
        <ele>2705.3</ele>
        <time>2013-09-02T09:56:09Z</time>
      </trkpt>
      <trkpt lat="44.53938" lon="6.87712">
        <ele>2701.4</ele>
        <time>2013-09-02T09:56:10Z</time>
      </trkpt>
      <trkpt lat="44.53936" lon="6.87717">
        <ele>2701.9</ele>
        <time>2013-09-02T09:56:39Z</time>
      </trkpt>
      <trkpt lat="44.53925" lon="6.87723">
        <ele>2700.5</ele>
        <time>2013-09-02T09:56:54Z</time>
      </trkpt>
      <trkpt lat="44.53922" lon="6.87725">
        <ele>2700.5</ele>
        <time>2013-09-02T09:56:55Z</time>
      </trkpt>
      <trkpt lat="44.5391" lon="6.87735">
        <ele>2699.5</ele>
        <time>2013-09-02T09:57:06Z</time>
      </trkpt>
      <trkpt lat="44.53907" lon="6.87739">
        <ele>2699.5</ele>
        <time>2013-09-02T09:57:12Z</time>
      </trkpt>
      <trkpt lat="44.53902" lon="6.87746">
        <ele>2699</ele>
        <time>2013-09-02T09:57:21Z</time>
      </trkpt>
      <trkpt lat="44.53897" lon="6.87758">
        <ele>2697.1</ele>
        <time>2013-09-02T09:57:27Z</time>
      </trkpt>
      <trkpt lat="44.53893" lon="6.87763">
        <ele>2697.1</ele>
        <time>2013-09-02T09:57:33Z</time>
      </trkpt>
      <trkpt lat="44.5389" lon="6.87767">
        <ele>2696.6</ele>
        <time>2013-09-02T09:57:38Z</time>
      </trkpt>
      <trkpt lat="44.53878" lon="6.87777">
        <ele>2696.6</ele>
        <time>2013-09-02T09:57:57Z</time>
      </trkpt>
      <trkpt lat="44.5385" lon="6.87793">
        <ele>2695.7</ele>
        <time>2013-09-02T09:58:08Z</time>
      </trkpt>
      <trkpt lat="44.53835" lon="6.878">
        <ele>2696.2</ele>
        <time>2013-09-02T09:58:19Z</time>
      </trkpt>
      <trkpt lat="44.53826" lon="6.8781">
        <ele>2695.7</ele>
        <time>2013-09-02T09:58:35Z</time>
      </trkpt>
      <trkpt lat="44.5381" lon="6.87821">
        <ele>2695.7</ele>
        <time>2013-09-02T09:58:53Z</time>
      </trkpt>
      <trkpt lat="44.53799" lon="6.87828">
        <ele>2694.7</ele>
        <time>2013-09-02T09:59:07Z</time>
      </trkpt>
      <trkpt lat="44.53796" lon="6.87829">
        <ele>2694.2</ele>
        <time>2013-09-02T09:59:23Z</time>
      </trkpt>
      <trkpt lat="44.53789" lon="6.87827">
        <ele>2693.8</ele>
        <time>2013-09-02T09:59:35Z</time>
      </trkpt>
      <trkpt lat="44.53774" lon="6.87826">
        <ele>2691.8</ele>
        <time>2013-09-02T09:59:42Z</time>
      </trkpt>
      <trkpt lat="44.53758" lon="6.87819">
        <ele>2695.2</ele>
        <time>2013-09-02T09:59:57Z</time>
      </trkpt>
      <trkpt lat="44.53757" lon="6.87818">
        <ele>2694.7</ele>
        <time>2013-09-02T09:59:58Z</time>
      </trkpt>
      <trkpt lat="44.53755" lon="6.87819">
        <ele>2692.8</ele>
        <time>2013-09-02T10:00:02Z</time>
      </trkpt>
      <trkpt lat="44.5375" lon="6.8782">
        <ele>2694.2</ele>
        <time>2013-09-02T10:00:06Z</time>
      </trkpt>
      <trkpt lat="44.53725" lon="6.87825">
        <ele>2691.8</ele>
        <time>2013-09-02T10:00:16Z</time>
      </trkpt>
      <trkpt lat="44.53706" lon="6.87813">
        <ele>2691.4</ele>
        <time>2013-09-02T10:00:27Z</time>
      </trkpt>
      <trkpt lat="44.53705" lon="6.87812">
        <ele>2691.8</ele>
        <time>2013-09-02T10:00:39Z</time>
      </trkpt>
      <trkpt lat="44.53702" lon="6.87809">
        <ele>2690.4</ele>
        <time>2013-09-02T10:00:48Z</time>
      </trkpt>
      <trkpt lat="44.53696" lon="6.87808">
        <ele>2689.9</ele>
        <time>2013-09-02T10:00:52Z</time>
      </trkpt>
      <trkpt lat="44.53695" lon="6.87809">
        <ele>2689.9</ele>
        <time>2013-09-02T10:00:53Z</time>
      </trkpt>
      <trkpt lat="44.53688" lon="6.87803">
        <ele>2687.5</ele>
        <time>2013-09-02T10:00:58Z</time>
      </trkpt>
      <trkpt lat="44.53678" lon="6.87795">
        <ele>2685.1</ele>
        <time>2013-09-02T10:01:03Z</time>
      </trkpt>
      <trkpt lat="44.53671" lon="6.87785">
        <ele>2685.1</ele>
        <time>2013-09-02T10:01:13Z</time>
      </trkpt>
      <trkpt lat="44.53672" lon="6.87783">
        <ele>2682.2</ele>
        <time>2013-09-02T10:01:28Z</time>
      </trkpt>
      <trkpt lat="44.53672" lon="6.87785">
        <ele>2682.2</ele>
        <time>2013-09-02T10:01:29Z</time>
      </trkpt>
      <trkpt lat="44.53672" lon="6.87785">
        <ele>2685.6</ele>
        <time>2013-09-02T10:01:30Z</time>
      </trkpt>
      <trkpt lat="44.5367" lon="6.87786">
        <ele>2685.1</ele>
        <time>2013-09-02T10:01:34Z</time>
      </trkpt>
      <trkpt lat="44.53666" lon="6.87789">
        <ele>2683.2</ele>
        <time>2013-09-02T10:01:37Z</time>
      </trkpt>
      <trkpt lat="44.53663" lon="6.87794">
        <ele>2681.7</ele>
        <time>2013-09-02T10:01:40Z</time>
      </trkpt>
      <trkpt lat="44.53657" lon="6.87804">
        <ele>2678.4</ele>
        <time>2013-09-02T10:01:46Z</time>
      </trkpt>
      <trkpt lat="44.53649" lon="6.87808">
        <ele>2676.5</ele>
        <time>2013-09-02T10:01:50Z</time>
      </trkpt>
      <trkpt lat="44.53641" lon="6.87817">
        <ele>2673.1</ele>
        <time>2013-09-02T10:01:56Z</time>
      </trkpt>
      <trkpt lat="44.53636" lon="6.87817">
        <ele>2672.1</ele>
        <time>2013-09-02T10:02:00Z</time>
      </trkpt>
      <trkpt lat="44.53629" lon="6.87827">
        <ele>2669.7</ele>
        <time>2013-09-02T10:02:11Z</time>
      </trkpt>
      <trkpt lat="44.53625" lon="6.87831">
        <ele>2667.8</ele>
        <time>2013-09-02T10:02:24Z</time>
      </trkpt>
      <trkpt lat="44.53622" lon="6.87831">
        <ele>2668.3</ele>
        <time>2013-09-02T10:02:42Z</time>
      </trkpt>
      <trkpt lat="44.53614" lon="6.87834">
        <ele>2665.9</ele>
        <time>2013-09-02T10:03:02Z</time>
      </trkpt>
      <trkpt lat="44.53613" lon="6.87832">
        <ele>2665.4</ele>
        <time>2013-09-02T10:03:03Z</time>
      </trkpt>
      <trkpt lat="44.53612" lon="6.87832">
        <ele>2664.9</ele>
        <time>2013-09-02T10:03:04Z</time>
      </trkpt>
      <trkpt lat="44.53607" lon="6.87823">
        <ele>2664.4</ele>
        <time>2013-09-02T10:03:10Z</time>
      </trkpt>
      <trkpt lat="44.53606" lon="6.87821">
        <ele>2663</ele>
        <time>2013-09-02T10:03:14Z</time>
      </trkpt>
      <trkpt lat="44.53602" lon="6.87822">
        <ele>2662</ele>
        <time>2013-09-02T10:03:20Z</time>
      </trkpt>
      <trkpt lat="44.53578" lon="6.87828">
        <ele>2661.1</ele>
        <time>2013-09-02T10:03:35Z</time>
      </trkpt>
      <trkpt lat="44.53571" lon="6.87828">
        <ele>2661.6</ele>
        <time>2013-09-02T10:03:48Z</time>
      </trkpt>
      <trkpt lat="44.5356" lon="6.87827">
        <ele>2661.1</ele>
        <time>2013-09-02T10:04:04Z</time>
      </trkpt>
      <trkpt lat="44.53555" lon="6.8783">
        <ele>2661.1</ele>
        <time>2013-09-02T10:04:17Z</time>
      </trkpt>
      <trkpt lat="44.53548" lon="6.87841">
        <ele>2661.6</ele>
        <time>2013-09-02T10:04:30Z</time>
      </trkpt>
      <trkpt lat="44.53542" lon="6.8785">
        <ele>2660.6</ele>
        <time>2013-09-02T10:04:38Z</time>
      </trkpt>
      <trkpt lat="44.53531" lon="6.87859">
        <ele>2661.1</ele>
        <time>2013-09-02T10:04:51Z</time>
      </trkpt>
      <trkpt lat="44.5352" lon="6.87875">
        <ele>2661.6</ele>
        <time>2013-09-02T10:05:07Z</time>
      </trkpt>
      <trkpt lat="44.5352" lon="6.87875">
        <ele>2662</ele>
        <time>2013-09-02T10:05:08Z</time>
      </trkpt>
      <trkpt lat="44.53508" lon="6.87878">
        <ele>2661.6</ele>
        <time>2013-09-02T10:05:20Z</time>
      </trkpt>
      <trkpt lat="44.53505" lon="6.87879">
        <ele>2661.6</ele>
        <time>2013-09-02T10:05:22Z</time>
      </trkpt>
      <trkpt lat="44.53481" lon="6.87891">
        <ele>2662</ele>
        <time>2013-09-02T10:05:38Z</time>
      </trkpt>
      <trkpt lat="44.53447" lon="6.87893">
        <ele>2659.1</ele>
        <time>2013-09-02T10:05:49Z</time>
      </trkpt>
      <trkpt lat="44.53429" lon="6.87897">
        <ele>2659.1</ele>
        <time>2013-09-02T10:05:58Z</time>
      </trkpt>
      <trkpt lat="44.5343" lon="6.87896">
        <ele>2662</ele>
        <time>2013-09-02T10:06:08Z</time>
      </trkpt>
      <trkpt lat="44.5343" lon="6.87896">
        <ele>2658.7</ele>
        <time>2013-09-02T10:06:09Z</time>
      </trkpt>
      <trkpt lat="44.53432" lon="6.87898">
        <ele>2658.2</ele>
        <time>2013-09-02T10:06:29Z</time>
      </trkpt>
      <trkpt lat="44.53431" lon="6.87898">
        <ele>2662.5</ele>
        <time>2013-09-02T10:06:30Z</time>
      </trkpt>
      <trkpt lat="44.53431" lon="6.87897">
        <ele>2659.1</ele>
        <time>2013-09-02T10:06:32Z</time>
      </trkpt>
      <trkpt lat="44.53433" lon="6.87893">
        <ele>2658.2</ele>
        <time>2013-09-02T10:06:47Z</time>
      </trkpt>
      <trkpt lat="44.53429" lon="6.87896">
        <ele>2658.7</ele>
        <time>2013-09-02T10:07:04Z</time>
      </trkpt>
      <trkpt lat="44.5343" lon="6.87901">
        <ele>2659.6</ele>
        <time>2013-09-02T10:07:18Z</time>
      </trkpt>
      <trkpt lat="44.53432" lon="6.87902">
        <ele>2659.6</ele>
        <time>2013-09-02T10:07:19Z</time>
      </trkpt>
      <trkpt lat="44.53441" lon="6.87898">
        <ele>2659.6</ele>
        <time>2013-09-02T10:07:34Z</time>
      </trkpt>
      <trkpt lat="44.5344" lon="6.87899">
        <ele>2659.1</ele>
        <time>2013-09-02T10:08:04Z</time>
      </trkpt>
      <trkpt lat="44.53441" lon="6.87895">
        <ele>2659.6</ele>
        <time>2013-09-02T10:08:30Z</time>
      </trkpt>
      <trkpt lat="44.53436" lon="6.87899">
        <ele>2659.6</ele>
        <time>2013-09-02T10:08:44Z</time>
      </trkpt>
      <trkpt lat="44.53431" lon="6.879">
        <ele>2659.1</ele>
        <time>2013-09-02T10:09:01Z</time>
      </trkpt>
      <trkpt lat="44.53429" lon="6.87898">
        <ele>2659.1</ele>
        <time>2013-09-02T10:09:16Z</time>
      </trkpt>
      <trkpt lat="44.53429" lon="6.87896">
        <ele>2659.1</ele>
        <time>2013-09-02T10:09:37Z</time>
      </trkpt>
      <trkpt lat="44.53428" lon="6.87894">
        <ele>2659.6</ele>
        <time>2013-09-02T10:09:57Z</time>
      </trkpt>
      <trkpt lat="44.53429" lon="6.87893">
        <ele>2657.7</ele>
        <time>2013-09-02T10:10:20Z</time>
      </trkpt>
      <trkpt lat="44.53428" lon="6.87896">
        <ele>2659.1</ele>
        <time>2013-09-02T10:10:43Z</time>
      </trkpt>
      <trkpt lat="44.53421" lon="6.87897">
        <ele>2659.6</ele>
        <time>2013-09-02T10:11:07Z</time>
      </trkpt>
      <trkpt lat="44.53425" lon="6.87896">
        <ele>2659.6</ele>
        <time>2013-09-02T10:11:35Z</time>
      </trkpt>
      <trkpt lat="44.53425" lon="6.87892">
        <ele>2659.6</ele>
        <time>2013-09-02T10:12:07Z</time>
      </trkpt>
      <trkpt lat="44.53426" lon="6.87894">
        <ele>2660.1</ele>
        <time>2013-09-02T10:12:39Z</time>
      </trkpt>
      <trkpt lat="44.53424" lon="6.87911">
        <ele>2660.1</ele>
        <time>2013-09-02T10:13:04Z</time>
      </trkpt>
      <trkpt lat="44.53425" lon="6.87905">
        <ele>2660.1</ele>
        <time>2013-09-02T10:13:28Z</time>
      </trkpt>
      <trkpt lat="44.53424" lon="6.87891">
        <ele>2657.7</ele>
        <time>2013-09-02T10:13:59Z</time>
      </trkpt>
      <trkpt lat="44.53424" lon="6.87892">
        <ele>2659.6</ele>
        <time>2013-09-02T10:14:02Z</time>
      </trkpt>
      <trkpt lat="44.53427" lon="6.87893">
        <ele>2659.6</ele>
        <time>2013-09-02T10:14:34Z</time>
      </trkpt>
      <trkpt lat="44.5343" lon="6.87895">
        <ele>2660.1</ele>
        <time>2013-09-02T10:15:13Z</time>
      </trkpt>
      <trkpt lat="44.53431" lon="6.87896">
        <ele>2660.6</ele>
        <time>2013-09-02T10:15:47Z</time>
      </trkpt>
      <trkpt lat="44.53431" lon="6.87893">
        <ele>2660.1</ele>
        <time>2013-09-02T10:16:24Z</time>
      </trkpt>
      <trkpt lat="44.53429" lon="6.87894">
        <ele>2660.1</ele>
        <time>2013-09-02T10:16:29Z</time>
      </trkpt>
      <trkpt lat="44.53427" lon="6.87893">
        <ele>2660.1</ele>
        <time>2013-09-02T10:17:00Z</time>
      </trkpt>
      <trkpt lat="44.53428" lon="6.87892">
        <ele>2659.6</ele>
        <time>2013-09-02T10:17:39Z</time>
      </trkpt>
      <trkpt lat="44.53434" lon="6.87895">
        <ele>2659.6</ele>
        <time>2013-09-02T10:18:10Z</time>
      </trkpt>
      <trkpt lat="44.53429" lon="6.8789">
        <ele>2658.7</ele>
        <time>2013-09-02T10:18:37Z</time>
      </trkpt>
      <trkpt lat="44.53427" lon="6.87892">
        <ele>2660.1</ele>
        <time>2013-09-02T10:19:03Z</time>
      </trkpt>
      <trkpt lat="44.53427" lon="6.87895">
        <ele>2660.6</ele>
        <time>2013-09-02T10:19:27Z</time>
      </trkpt>
      <trkpt lat="44.53426" lon="6.879">
        <ele>2660.6</ele>
        <time>2013-09-02T10:19:49Z</time>
      </trkpt>
      <trkpt lat="44.53427" lon="6.87886">
        <ele>2661.6</ele>
        <time>2013-09-02T10:20:23Z</time>
      </trkpt>
      <trkpt lat="44.53425" lon="6.87889">
        <ele>2660.6</ele>
        <time>2013-09-02T10:20:50Z</time>
      </trkpt>
      <trkpt lat="44.53425" lon="6.87887">
        <ele>2658.2</ele>
        <time>2013-09-02T10:21:07Z</time>
      </trkpt>
      <trkpt lat="44.53422" lon="6.87884">
        <ele>2659.6</ele>
        <time>2013-09-02T10:21:13Z</time>
      </trkpt>
      <trkpt lat="44.53417" lon="6.87882">
        <ele>2660.1</ele>
        <time>2013-09-02T10:21:18Z</time>
      </trkpt>
      <trkpt lat="44.53421" lon="6.87886">
        <ele>2661.1</ele>
        <time>2013-09-02T10:21:26Z</time>
      </trkpt>
      <trkpt lat="44.53422" lon="6.87892">
        <ele>2660.6</ele>
        <time>2013-09-02T10:22:02Z</time>
      </trkpt>
      <trkpt lat="44.53425" lon="6.87887">
        <ele>2660.6</ele>
        <time>2013-09-02T10:22:35Z</time>
      </trkpt>
      <trkpt lat="44.53426" lon="6.87888">
        <ele>2655.3</ele>
        <time>2013-09-02T10:22:45Z</time>
      </trkpt>
      <trkpt lat="44.53426" lon="6.87888">
        <ele>2664</ele>
        <time>2013-09-02T10:22:46Z</time>
      </trkpt>
      <trkpt lat="44.53426" lon="6.87888">
        <ele>2660.1</ele>
        <time>2013-09-02T10:22:47Z</time>
      </trkpt>
      <trkpt lat="44.53423" lon="6.8789">
        <ele>2660.6</ele>
        <time>2013-09-02T10:23:12Z</time>
      </trkpt>
      <trkpt lat="44.53424" lon="6.8789">
        <ele>2660.6</ele>
        <time>2013-09-02T10:23:44Z</time>
      </trkpt>
      <trkpt lat="44.53424" lon="6.87892">
        <ele>2660.1</ele>
        <time>2013-09-02T10:24:18Z</time>
      </trkpt>
      <trkpt lat="44.53423" lon="6.8789">
        <ele>2660.6</ele>
        <time>2013-09-02T10:24:47Z</time>
      </trkpt>
      <trkpt lat="44.53422" lon="6.87893">
        <ele>2659.6</ele>
        <time>2013-09-02T10:24:54Z</time>
      </trkpt>
      <trkpt lat="44.53424" lon="6.87889">
        <ele>2661.1</ele>
        <time>2013-09-02T10:25:32Z</time>
      </trkpt>
      <trkpt lat="44.53423" lon="6.87889">
        <ele>2656.7</ele>
        <time>2013-09-02T10:25:35Z</time>
      </trkpt>
      <trkpt lat="44.53424" lon="6.8789">
        <ele>2663.5</ele>
        <time>2013-09-02T10:25:36Z</time>
      </trkpt>
      <trkpt lat="44.53419" lon="6.87896">
        <ele>2661.1</ele>
        <time>2013-09-02T10:25:45Z</time>
      </trkpt>
      <trkpt lat="44.5341" lon="6.87905">
        <ele>2661.1</ele>
        <time>2013-09-02T10:25:59Z</time>
      </trkpt>
      <trkpt lat="44.53396" lon="6.87914">
        <ele>2662</ele>
        <time>2013-09-02T10:26:16Z</time>
      </trkpt>
      <trkpt lat="44.53395" lon="6.87919">
        <ele>2662.5</ele>
        <time>2013-09-02T10:26:39Z</time>
      </trkpt>
      <trkpt lat="44.53393" lon="6.87913">
        <ele>2662.5</ele>
        <time>2013-09-02T10:27:09Z</time>
      </trkpt>
      <trkpt lat="44.53404" lon="6.87904">
        <ele>2661.1</ele>
        <time>2013-09-02T10:27:27Z</time>
      </trkpt>
      <trkpt lat="44.53406" lon="6.87903">
        <ele>2661.6</ele>
        <time>2013-09-02T10:27:29Z</time>
      </trkpt>
      <trkpt lat="44.53413" lon="6.87902">
        <ele>2661.1</ele>
        <time>2013-09-02T10:27:42Z</time>
      </trkpt>
      <trkpt lat="44.53421" lon="6.87891">
        <ele>2660.6</ele>
        <time>2013-09-02T10:28:04Z</time>
      </trkpt>
      <trkpt lat="44.53424" lon="6.87895">
        <ele>2660.6</ele>
        <time>2013-09-02T10:28:21Z</time>
      </trkpt>
      <trkpt lat="44.53425" lon="6.87893">
        <ele>2660.1</ele>
        <time>2013-09-02T10:28:54Z</time>
      </trkpt>
      <trkpt lat="44.53426" lon="6.8789">
        <ele>2660.1</ele>
        <time>2013-09-02T10:29:10Z</time>
      </trkpt>
      <trkpt lat="44.53427" lon="6.87887">
        <ele>2659.6</ele>
        <time>2013-09-02T10:29:43Z</time>
      </trkpt>
      <trkpt lat="44.53427" lon="6.87888">
        <ele>2658.7</ele>
        <time>2013-09-02T10:30:16Z</time>
      </trkpt>
      <trkpt lat="44.53427" lon="6.87894">
        <ele>2659.1</ele>
        <time>2013-09-02T10:30:54Z</time>
      </trkpt>
      <trkpt lat="44.53427" lon="6.87898">
        <ele>2659.6</ele>
        <time>2013-09-02T10:31:24Z</time>
      </trkpt>
      <trkpt lat="44.53425" lon="6.879">
        <ele>2659.6</ele>
        <time>2013-09-02T10:31:39Z</time>
      </trkpt>
      <trkpt lat="44.53417" lon="6.87889">
        <ele>2660.1</ele>
        <time>2013-09-02T10:31:59Z</time>
      </trkpt>
      <trkpt lat="44.53421" lon="6.87896">
        <ele>2659.6</ele>
        <time>2013-09-02T10:32:30Z</time>
      </trkpt>
      <trkpt lat="44.53421" lon="6.87896">
        <ele>2655.8</ele>
        <time>2013-09-02T10:32:32Z</time>
      </trkpt>
      <trkpt lat="44.5342" lon="6.87897">
        <ele>2659.1</ele>
        <time>2013-09-02T10:32:35Z</time>
      </trkpt>
      <trkpt lat="44.5342" lon="6.87898">
        <ele>2658.2</ele>
        <time>2013-09-02T10:32:39Z</time>
      </trkpt>
      <trkpt lat="44.5342" lon="6.87893">
        <ele>2659.1</ele>
        <time>2013-09-02T10:33:09Z</time>
      </trkpt>
      <trkpt lat="44.53424" lon="6.8789">
        <ele>2659.1</ele>
        <time>2013-09-02T10:33:39Z</time>
      </trkpt>
      <trkpt lat="44.53422" lon="6.87892">
        <ele>2659.1</ele>
        <time>2013-09-02T10:34:08Z</time>
      </trkpt>
      <trkpt lat="44.53423" lon="6.87889">
        <ele>2659.1</ele>
        <time>2013-09-02T10:34:52Z</time>
      </trkpt>
      <trkpt lat="44.53422" lon="6.8789">
        <ele>2659.1</ele>
        <time>2013-09-02T10:35:33Z</time>
      </trkpt>
      <trkpt lat="44.53425" lon="6.87887">
        <ele>2658.7</ele>
        <time>2013-09-02T10:36:04Z</time>
      </trkpt>
      <trkpt lat="44.53417" lon="6.87893">
        <ele>2658.7</ele>
        <time>2013-09-02T10:36:28Z</time>
      </trkpt>
      <trkpt lat="44.53421" lon="6.87886">
        <ele>2658.7</ele>
        <time>2013-09-02T10:36:57Z</time>
      </trkpt>
      <trkpt lat="44.53427" lon="6.87882">
        <ele>2656.3</ele>
        <time>2013-09-02T10:37:17Z</time>
      </trkpt>
      <trkpt lat="44.5342" lon="6.87887">
        <ele>2610.1</ele>
        <time>2013-09-02T10:52:19Z</time>
      </trkpt>
      <trkpt lat="44.53425" lon="6.87886">
        <ele>2611.1</ele>
        <time>2013-09-02T10:52:20Z</time>
      </trkpt>
      <trkpt lat="44.53424" lon="6.87887">
        <ele>2609.2</ele>
        <time>2013-09-02T10:52:21Z</time>
      </trkpt>
      <trkpt lat="44.53424" lon="6.87889">
        <ele>2611.6</ele>
        <time>2013-09-02T10:52:22Z</time>
      </trkpt>
      <trkpt lat="44.53427" lon="6.87886">
        <ele>2611.1</ele>
        <time>2013-09-02T10:52:38Z</time>
      </trkpt>
      <trkpt lat="44.53422" lon="6.87895">
        <ele>2614.4</ele>
        <time>2013-09-02T10:52:46Z</time>
      </trkpt>
      <trkpt lat="44.5342" lon="6.87896">
        <ele>2615.9</ele>
        <time>2013-09-02T10:52:48Z</time>
      </trkpt>
      <trkpt lat="44.53419" lon="6.87897">
        <ele>2618.8</ele>
        <time>2013-09-02T10:52:50Z</time>
      </trkpt>
      <trkpt lat="44.5342" lon="6.87894">
        <ele>2622.1</ele>
        <time>2013-09-02T10:52:54Z</time>
      </trkpt>
      <trkpt lat="44.5342" lon="6.87894">
        <ele>2622.1</ele>
        <time>2013-09-02T10:52:55Z</time>
      </trkpt>
      <trkpt lat="44.53418" lon="6.87896">
        <ele>2626</ele>
        <time>2013-09-02T10:52:59Z</time>
      </trkpt>
      <trkpt lat="44.53415" lon="6.87901">
        <ele>2628.9</ele>
        <time>2013-09-02T10:53:06Z</time>
      </trkpt>
      <trkpt lat="44.53414" lon="6.87902">
        <ele>2629.3</ele>
        <time>2013-09-02T10:53:07Z</time>
      </trkpt>
      <trkpt lat="44.53407" lon="6.87905">
        <ele>2632.2</ele>
        <time>2013-09-02T10:53:15Z</time>
      </trkpt>
      <trkpt lat="44.53394" lon="6.87905">
        <ele>2630.3</ele>
        <time>2013-09-02T10:53:29Z</time>
      </trkpt>
      <trkpt lat="44.53377" lon="6.87907">
        <ele>2631.8</ele>
        <time>2013-09-02T10:53:43Z</time>
      </trkpt>
      <trkpt lat="44.53364" lon="6.87908">
        <ele>2633.2</ele>
        <time>2013-09-02T10:53:56Z</time>
      </trkpt>
      <trkpt lat="44.53361" lon="6.87908">
        <ele>2634.2</ele>
        <time>2013-09-02T10:53:58Z</time>
      </trkpt>
      <trkpt lat="44.53355" lon="6.87907">
        <ele>2634.6</ele>
        <time>2013-09-02T10:54:03Z</time>
      </trkpt>
      <trkpt lat="44.53341" lon="6.8791">
        <ele>2634.2</ele>
        <time>2013-09-02T10:54:18Z</time>
      </trkpt>
      <trkpt lat="44.53327" lon="6.87912">
        <ele>2635.6</ele>
        <time>2013-09-02T10:54:32Z</time>
      </trkpt>
      <trkpt lat="44.53312" lon="6.87912">
        <ele>2638</ele>
        <time>2013-09-02T10:54:47Z</time>
      </trkpt>
      <trkpt lat="44.53302" lon="6.8791">
        <ele>2638</ele>
        <time>2013-09-02T10:54:56Z</time>
      </trkpt>
      <trkpt lat="44.53286" lon="6.87919">
        <ele>2634.6</ele>
        <time>2013-09-02T10:55:12Z</time>
      </trkpt>
      <trkpt lat="44.53283" lon="6.8792">
        <ele>2636.6</ele>
        <time>2013-09-02T10:55:15Z</time>
      </trkpt>
      <trkpt lat="44.53272" lon="6.8793">
        <ele>2632.7</ele>
        <time>2013-09-02T10:55:29Z</time>
      </trkpt>
      <trkpt lat="44.53265" lon="6.87934">
        <ele>2631.8</ele>
        <time>2013-09-02T10:55:33Z</time>
      </trkpt>
      <trkpt lat="44.53255" lon="6.87941">
        <ele>2630.8</ele>
        <time>2013-09-02T10:55:38Z</time>
      </trkpt>
      <trkpt lat="44.53251" lon="6.87944">
        <ele>2630.8</ele>
        <time>2013-09-02T10:55:40Z</time>
      </trkpt>
      <trkpt lat="44.53237" lon="6.87955">
        <ele>2627.9</ele>
        <time>2013-09-02T10:55:49Z</time>
      </trkpt>
      <trkpt lat="44.53227" lon="6.87983">
        <ele>2625</ele>
        <time>2013-09-02T10:56:01Z</time>
      </trkpt>
      <trkpt lat="44.53227" lon="6.87987">
        <ele>2626</ele>
        <time>2013-09-02T10:56:04Z</time>
      </trkpt>
      <trkpt lat="44.5323" lon="6.88005">
        <ele>2624.5</ele>
        <time>2013-09-02T10:56:15Z</time>
      </trkpt>
      <trkpt lat="44.53231" lon="6.88015">
        <ele>2623.6</ele>
        <time>2013-09-02T10:56:18Z</time>
      </trkpt>
      <trkpt lat="44.53232" lon="6.8803">
        <ele>2621.7</ele>
        <time>2013-09-02T10:56:22Z</time>
      </trkpt>
      <trkpt lat="44.5323" lon="6.88052">
        <ele>2618.3</ele>
        <time>2013-09-02T10:56:29Z</time>
      </trkpt>
      <trkpt lat="44.53231" lon="6.88081">
        <ele>2614.9</ele>
        <time>2013-09-02T10:56:37Z</time>
      </trkpt>
      <trkpt lat="44.53232" lon="6.88086">
        <ele>2613.5</ele>
        <time>2013-09-02T10:56:38Z</time>
      </trkpt>
      <trkpt lat="44.53232" lon="6.88093">
        <ele>2613</ele>
        <time>2013-09-02T10:56:40Z</time>
      </trkpt>
      <trkpt lat="44.53228" lon="6.8811">
        <ele>2612.5</ele>
        <time>2013-09-02T10:56:45Z</time>
      </trkpt>
      <trkpt lat="44.53221" lon="6.88145">
        <ele>2610.1</ele>
        <time>2013-09-02T10:56:57Z</time>
      </trkpt>
      <trkpt lat="44.53216" lon="6.88154">
        <ele>2608.2</ele>
        <time>2013-09-02T10:57:00Z</time>
      </trkpt>
      <trkpt lat="44.53198" lon="6.88202">
        <ele>2605.3</ele>
        <time>2013-09-02T10:57:12Z</time>
      </trkpt>
      <trkpt lat="44.53193" lon="6.88207">
        <ele>2606.3</ele>
        <time>2013-09-02T10:57:20Z</time>
      </trkpt>
      <trkpt lat="44.53185" lon="6.88192">
        <ele>2606.8</ele>
        <time>2013-09-02T10:57:46Z</time>
      </trkpt>
      <trkpt lat="44.53183" lon="6.88193">
        <ele>2606.3</ele>
        <time>2013-09-02T10:58:02Z</time>
      </trkpt>
      <trkpt lat="44.53178" lon="6.88197">
        <ele>2606.3</ele>
        <time>2013-09-02T10:58:15Z</time>
      </trkpt>
      <trkpt lat="44.53172" lon="6.88191">
        <ele>2607.7</ele>
        <time>2013-09-02T10:58:29Z</time>
      </trkpt>
      <trkpt lat="44.5317" lon="6.8819">
        <ele>2607.7</ele>
        <time>2013-09-02T10:58:31Z</time>
      </trkpt>
      <trkpt lat="44.53168" lon="6.88181">
        <ele>2611.1</ele>
        <time>2013-09-02T10:58:44Z</time>
      </trkpt>
      <trkpt lat="44.53163" lon="6.88174">
        <ele>2613</ele>
        <time>2013-09-02T10:58:55Z</time>
      </trkpt>
      <trkpt lat="44.53159" lon="6.88168">
        <ele>2615.9</ele>
        <time>2013-09-02T10:59:10Z</time>
      </trkpt>
      <trkpt lat="44.53157" lon="6.88165">
        <ele>2617.8</ele>
        <time>2013-09-02T10:59:15Z</time>
      </trkpt>
      <trkpt lat="44.53156" lon="6.88163">
        <ele>2619.7</ele>
        <time>2013-09-02T10:59:29Z</time>
      </trkpt>
      <trkpt lat="44.53158" lon="6.88158">
        <ele>2622.1</ele>
        <time>2013-09-02T10:59:36Z</time>
      </trkpt>
      <trkpt lat="44.53161" lon="6.88149">
        <ele>2623.6</ele>
        <time>2013-09-02T10:59:52Z</time>
      </trkpt>
      <trkpt lat="44.53156" lon="6.8814">
        <ele>2626.5</ele>
        <time>2013-09-02T11:00:05Z</time>
      </trkpt>
      <trkpt lat="44.53153" lon="6.88131">
        <ele>2629.8</ele>
        <time>2013-09-02T11:00:18Z</time>
      </trkpt>
      <trkpt lat="44.53136" lon="6.88123">
        <ele>2629.3</ele>
        <time>2013-09-02T11:00:28Z</time>
      </trkpt>
      <trkpt lat="44.53135" lon="6.88109">
        <ele>2632.7</ele>
        <time>2013-09-02T11:00:44Z</time>
      </trkpt>
      <trkpt lat="44.53135" lon="6.88106">
        <ele>2633.2</ele>
        <time>2013-09-02T11:00:47Z</time>
      </trkpt>
      <trkpt lat="44.53132" lon="6.88105">
        <ele>2634.2</ele>
        <time>2013-09-02T11:00:51Z</time>
      </trkpt>
      <trkpt lat="44.53126" lon="6.88097">
        <ele>2637.5</ele>
        <time>2013-09-02T11:01:05Z</time>
      </trkpt>
      <trkpt lat="44.53126" lon="6.88097">
        <ele>2637.5</ele>
        <time>2013-09-02T11:01:06Z</time>
      </trkpt>
      <trkpt lat="44.53125" lon="6.88095">
        <ele>2639.4</ele>
        <time>2013-09-02T11:01:20Z</time>
      </trkpt>
      <trkpt lat="44.53121" lon="6.88095">
        <ele>2640.4</ele>
        <time>2013-09-02T11:01:27Z</time>
      </trkpt>
      <trkpt lat="44.5312" lon="6.88093">
        <ele>2641.8</ele>
        <time>2013-09-02T11:01:28Z</time>
      </trkpt>
      <trkpt lat="44.53118" lon="6.88087">
        <ele>2644.7</ele>
        <time>2013-09-02T11:01:40Z</time>
      </trkpt>
      <trkpt lat="44.53114" lon="6.8808">
        <ele>2648.1</ele>
        <time>2013-09-02T11:01:52Z</time>
      </trkpt>
      <trkpt lat="44.5311" lon="6.88071">
        <ele>2648.6</ele>
        <time>2013-09-02T11:02:05Z</time>
      </trkpt>
      <trkpt lat="44.53108" lon="6.88069">
        <ele>2651.9</ele>
        <time>2013-09-02T11:02:13Z</time>
      </trkpt>
      <trkpt lat="44.53103" lon="6.8806">
        <ele>2653.4</ele>
        <time>2013-09-02T11:02:26Z</time>
      </trkpt>
      <trkpt lat="44.53098" lon="6.88053">
        <ele>2654.8</ele>
        <time>2013-09-02T11:02:40Z</time>
      </trkpt>
      <trkpt lat="44.53097" lon="6.88041">
        <ele>2658.2</ele>
        <time>2013-09-02T11:02:53Z</time>
      </trkpt>
      <trkpt lat="44.53096" lon="6.88028">
        <ele>2662.5</ele>
        <time>2013-09-02T11:03:08Z</time>
      </trkpt>
      <trkpt lat="44.53095" lon="6.88028">
        <ele>2663</ele>
        <time>2013-09-02T11:03:09Z</time>
      </trkpt>
      <trkpt lat="44.53089" lon="6.88016">
        <ele>2664.9</ele>
        <time>2013-09-02T11:03:23Z</time>
      </trkpt>
      <trkpt lat="44.53088" lon="6.88015">
        <ele>2664.9</ele>
        <time>2013-09-02T11:03:24Z</time>
      </trkpt>
      <trkpt lat="44.5308" lon="6.88005">
        <ele>2667.8</ele>
        <time>2013-09-02T11:03:37Z</time>
      </trkpt>
      <trkpt lat="44.53072" lon="6.88004">
        <ele>2671.6</ele>
        <time>2013-09-02T11:03:50Z</time>
      </trkpt>
      <trkpt lat="44.53071" lon="6.88002">
        <ele>2673.1</ele>
        <time>2013-09-02T11:03:55Z</time>
      </trkpt>
      <trkpt lat="44.53063" lon="6.88002">
        <ele>2675.5</ele>
        <time>2013-09-02T11:04:11Z</time>
      </trkpt>
      <trkpt lat="44.53056" lon="6.88002">
        <ele>2678.4</ele>
        <time>2013-09-02T11:04:23Z</time>
      </trkpt>
      <trkpt lat="44.53052" lon="6.87995">
        <ele>2682.2</ele>
        <time>2013-09-02T11:04:36Z</time>
      </trkpt>
      <trkpt lat="44.53041" lon="6.87995">
        <ele>2685.1</ele>
        <time>2013-09-02T11:04:51Z</time>
      </trkpt>
      <trkpt lat="44.53062" lon="6.88016">
        <ele>2688.5</ele>
        <time>2013-09-02T11:05:07Z</time>
      </trkpt>
      <trkpt lat="44.53053" lon="6.88009">
        <ele>2690.9</ele>
        <time>2013-09-02T11:05:19Z</time>
      </trkpt>
      <trkpt lat="44.53051" lon="6.88019">
        <ele>2693.8</ele>
        <time>2013-09-02T11:05:30Z</time>
      </trkpt>
      <trkpt lat="44.53045" lon="6.88016">
        <ele>2695.7</ele>
        <time>2013-09-02T11:05:42Z</time>
      </trkpt>
      <trkpt lat="44.53039" lon="6.88004">
        <ele>2698.6</ele>
        <time>2013-09-02T11:05:56Z</time>
      </trkpt>
      <trkpt lat="44.53036" lon="6.88002">
        <ele>2701.4</ele>
        <time>2013-09-02T11:06:09Z</time>
      </trkpt>
      <trkpt lat="44.53032" lon="6.88004">
        <ele>2704.8</ele>
        <time>2013-09-02T11:06:21Z</time>
      </trkpt>
      <trkpt lat="44.53028" lon="6.87997">
        <ele>2706.7</ele>
        <time>2013-09-02T11:06:34Z</time>
      </trkpt>
      <trkpt lat="44.53027" lon="6.87996">
        <ele>2707.7</ele>
        <time>2013-09-02T11:06:37Z</time>
      </trkpt>
      <trkpt lat="44.53025" lon="6.87995">
        <ele>2710.6</ele>
        <time>2013-09-02T11:06:49Z</time>
      </trkpt>
      <trkpt lat="44.53023" lon="6.87988">
        <ele>2713.9</ele>
        <time>2013-09-02T11:07:02Z</time>
      </trkpt>
      <trkpt lat="44.53021" lon="6.87987">
        <ele>2716.8</ele>
        <time>2013-09-02T11:07:14Z</time>
      </trkpt>
      <trkpt lat="44.53019" lon="6.87982">
        <ele>2719.7</ele>
        <time>2013-09-02T11:07:27Z</time>
      </trkpt>
      <trkpt lat="44.53017" lon="6.87982">
        <ele>2722.6</ele>
        <time>2013-09-02T11:07:40Z</time>
      </trkpt>
      <trkpt lat="44.53013" lon="6.87977">
        <ele>2726</ele>
        <time>2013-09-02T11:07:54Z</time>
      </trkpt>
      <trkpt lat="44.53014" lon="6.8797">
        <ele>2728.8</ele>
        <time>2013-09-02T11:08:12Z</time>
      </trkpt>
      <trkpt lat="44.53014" lon="6.87966">
        <ele>2730.8</ele>
        <time>2013-09-02T11:08:27Z</time>
      </trkpt>
      <trkpt lat="44.53017" lon="6.87963">
        <ele>2733.2</ele>
        <time>2013-09-02T11:08:40Z</time>
      </trkpt>
      <trkpt lat="44.53017" lon="6.87957">
        <ele>2735.6</ele>
        <time>2013-09-02T11:08:55Z</time>
      </trkpt>
      <trkpt lat="44.53018" lon="6.87957">
        <ele>2736.5</ele>
        <time>2013-09-02T11:08:57Z</time>
      </trkpt>
      <trkpt lat="44.53015" lon="6.87953">
        <ele>2738</ele>
        <time>2013-09-02T11:09:11Z</time>
      </trkpt>
      <trkpt lat="44.53011" lon="6.87956">
        <ele>2740.4</ele>
        <time>2013-09-02T11:09:28Z</time>
      </trkpt>
      <trkpt lat="44.53008" lon="6.87952">
        <ele>2743.3</ele>
        <time>2013-09-02T11:09:42Z</time>
      </trkpt>
      <trkpt lat="44.53005" lon="6.87948">
        <ele>2745.2</ele>
        <time>2013-09-02T11:09:56Z</time>
      </trkpt>
      <trkpt lat="44.52996" lon="6.87954">
        <ele>2747.6</ele>
        <time>2013-09-02T11:10:13Z</time>
      </trkpt>
      <trkpt lat="44.52989" lon="6.87956">
        <ele>2749.5</ele>
        <time>2013-09-02T11:10:30Z</time>
      </trkpt>
      <trkpt lat="44.52984" lon="6.87959">
        <ele>2752.4</ele>
        <time>2013-09-02T11:10:46Z</time>
      </trkpt>
      <trkpt lat="44.52979" lon="6.87959">
        <ele>2755.3</ele>
        <time>2013-09-02T11:11:02Z</time>
      </trkpt>
      <trkpt lat="44.52978" lon="6.87955">
        <ele>2757.7</ele>
        <time>2013-09-02T11:11:11Z</time>
      </trkpt>
      <trkpt lat="44.52976" lon="6.8795">
        <ele>2760.6</ele>
        <time>2013-09-02T11:11:27Z</time>
      </trkpt>
      <trkpt lat="44.52972" lon="6.87948">
        <ele>2763.5</ele>
        <time>2013-09-02T11:11:44Z</time>
      </trkpt>
      <trkpt lat="44.52971" lon="6.87945">
        <ele>2766.3</ele>
        <time>2013-09-02T11:12:00Z</time>
      </trkpt>
      <trkpt lat="44.52969" lon="6.87939">
        <ele>2768.3</ele>
        <time>2013-09-02T11:12:14Z</time>
      </trkpt>
      <trkpt lat="44.52968" lon="6.87938">
        <ele>2769.7</ele>
        <time>2013-09-02T11:12:27Z</time>
      </trkpt>
      <trkpt lat="44.52969" lon="6.87946">
        <ele>2769.2</ele>
        <time>2013-09-02T11:12:43Z</time>
      </trkpt>
      <trkpt lat="44.52969" lon="6.87945">
        <ele>2765.9</ele>
        <time>2013-09-02T11:12:44Z</time>
      </trkpt>
      <trkpt lat="44.52968" lon="6.87945">
        <ele>2769.7</ele>
        <time>2013-09-02T11:12:46Z</time>
      </trkpt>
      <trkpt lat="44.52968" lon="6.87944">
        <ele>2769.7</ele>
        <time>2013-09-02T11:12:47Z</time>
      </trkpt>
      <trkpt lat="44.52968" lon="6.87938">
        <ele>2768.7</ele>
        <time>2013-09-02T11:13:13Z</time>
      </trkpt>
      <trkpt lat="44.52967" lon="6.87941">
        <ele>2768.7</ele>
        <time>2013-09-02T11:13:49Z</time>
      </trkpt>
      <trkpt lat="44.52967" lon="6.87937">
        <ele>2769.7</ele>
        <time>2013-09-02T11:14:23Z</time>
      </trkpt>
      <trkpt lat="44.52967" lon="6.87941">
        <ele>2769.7</ele>
        <time>2013-09-02T11:14:48Z</time>
      </trkpt>
      <trkpt lat="44.52966" lon="6.8794">
        <ele>2769.7</ele>
        <time>2013-09-02T11:15:19Z</time>
      </trkpt>
      <trkpt lat="44.52966" lon="6.87939">
        <ele>2769.2</ele>
        <time>2013-09-02T11:15:47Z</time>
      </trkpt>
      <trkpt lat="44.52968" lon="6.87936">
        <ele>2770.7</ele>
        <time>2013-09-02T11:16:20Z</time>
      </trkpt>
      <trkpt lat="44.52966" lon="6.87942">
        <ele>2770.7</ele>
        <time>2013-09-02T11:16:49Z</time>
      </trkpt>
      <trkpt lat="44.52967" lon="6.87939">
        <ele>2770.2</ele>
        <time>2013-09-02T11:17:21Z</time>
      </trkpt>
      <trkpt lat="44.52966" lon="6.87936">
        <ele>2771.1</ele>
        <time>2013-09-02T11:17:56Z</time>
      </trkpt>
      <trkpt lat="44.52966" lon="6.87942">
        <ele>2771.1</ele>
        <time>2013-09-02T11:18:23Z</time>
      </trkpt>
      <trkpt lat="44.52966" lon="6.8794">
        <ele>2772.1</ele>
        <time>2013-09-02T11:18:52Z</time>
      </trkpt>
      <trkpt lat="44.52966" lon="6.87939">
        <ele>2772.1</ele>
        <time>2013-09-02T11:19:21Z</time>
      </trkpt>
      <trkpt lat="44.52965" lon="6.8794">
        <ele>2772.6</ele>
        <time>2013-09-02T11:19:51Z</time>
      </trkpt>
      <trkpt lat="44.52966" lon="6.87935">
        <ele>2773.1</ele>
        <time>2013-09-02T11:20:26Z</time>
      </trkpt>
      <trkpt lat="44.52966" lon="6.8794">
        <ele>2772.6</ele>
        <time>2013-09-02T11:21:01Z</time>
      </trkpt>
      <trkpt lat="44.52966" lon="6.87939">
        <ele>2773.5</ele>
        <time>2013-09-02T11:21:37Z</time>
      </trkpt>
      <trkpt lat="44.52966" lon="6.8794">
        <ele>2768.7</ele>
        <time>2013-09-02T11:21:44Z</time>
      </trkpt>
      <trkpt lat="44.52966" lon="6.8794">
        <ele>2763.5</ele>
        <time>2013-09-02T11:21:45Z</time>
      </trkpt>
      <trkpt lat="44.52966" lon="6.8794">
        <ele>2771.6</ele>
        <time>2013-09-02T11:21:46Z</time>
      </trkpt>
      <trkpt lat="44.52966" lon="6.8794">
        <ele>2777.9</ele>
        <time>2013-09-02T11:21:47Z</time>
      </trkpt>
      <trkpt lat="44.52966" lon="6.8794">
        <ele>2776.4</ele>
        <time>2013-09-02T11:21:48Z</time>
      </trkpt>
      <trkpt lat="44.52966" lon="6.8794">
        <ele>2773.5</ele>
        <time>2013-09-02T11:21:50Z</time>
      </trkpt>
      <trkpt lat="44.52966" lon="6.8794">
        <ele>2773.1</ele>
        <time>2013-09-02T11:21:51Z</time>
      </trkpt>
      <trkpt lat="44.52967" lon="6.87942">
        <ele>2774</ele>
        <time>2013-09-02T11:22:07Z</time>
      </trkpt>
      <trkpt lat="44.52969" lon="6.87942">
        <ele>2774.5</ele>
        <time>2013-09-02T11:22:27Z</time>
      </trkpt>
      <trkpt lat="44.52973" lon="6.87941">
        <ele>2774.5</ele>
        <time>2013-09-02T11:22:35Z</time>
      </trkpt>
      <trkpt lat="44.52991" lon="6.87932">
        <ele>2774</ele>
        <time>2013-09-02T11:22:50Z</time>
      </trkpt>
      <trkpt lat="44.53007" lon="6.87923">
        <ele>2772.6</ele>
        <time>2013-09-02T11:23:06Z</time>
      </trkpt>
      <trkpt lat="44.53013" lon="6.87912">
        <ele>2769.2</ele>
        <time>2013-09-02T11:23:12Z</time>
      </trkpt>
      <trkpt lat="44.53012" lon="6.879">
        <ele>2768.7</ele>
        <time>2013-09-02T11:23:28Z</time>
      </trkpt>
      <trkpt lat="44.53012" lon="6.87902">
        <ele>2764.9</ele>
        <time>2013-09-02T11:23:34Z</time>
      </trkpt>
      <trkpt lat="44.53012" lon="6.87903">
        <ele>2771.6</ele>
        <time>2013-09-02T11:23:35Z</time>
      </trkpt>
      <trkpt lat="44.53012" lon="6.87904">
        <ele>2770.7</ele>
        <time>2013-09-02T11:23:36Z</time>
      </trkpt>
      <trkpt lat="44.53011" lon="6.87904">
        <ele>2764.9</ele>
        <time>2013-09-02T11:23:38Z</time>
      </trkpt>
      <trkpt lat="44.53011" lon="6.87904">
        <ele>2773.5</ele>
        <time>2013-09-02T11:23:39Z</time>
      </trkpt>
      <trkpt lat="44.53011" lon="6.87903">
        <ele>2765.4</ele>
        <time>2013-09-02T11:23:40Z</time>
      </trkpt>
      <trkpt lat="44.53011" lon="6.87903">
        <ele>2769.2</ele>
        <time>2013-09-02T11:23:41Z</time>
      </trkpt>
      <trkpt lat="44.53011" lon="6.87902">
        <ele>2775</ele>
        <time>2013-09-02T11:23:42Z</time>
      </trkpt>
      <trkpt lat="44.5301" lon="6.87901">
        <ele>2770.7</ele>
        <time>2013-09-02T11:23:43Z</time>
      </trkpt>
      <trkpt lat="44.5301" lon="6.87903">
        <ele>2769.7</ele>
        <time>2013-09-02T11:23:45Z</time>
      </trkpt>
      <trkpt lat="44.53011" lon="6.87906">
        <ele>2767.3</ele>
        <time>2013-09-02T11:23:47Z</time>
      </trkpt>
      <trkpt lat="44.53011" lon="6.87906">
        <ele>2770.2</ele>
        <time>2013-09-02T11:23:48Z</time>
      </trkpt>
      <trkpt lat="44.53011" lon="6.87899">
        <ele>2769.7</ele>
        <time>2013-09-02T11:24:09Z</time>
      </trkpt>
      <trkpt lat="44.53014" lon="6.87891">
        <ele>2768.7</ele>
        <time>2013-09-02T11:24:22Z</time>
      </trkpt>
      <trkpt lat="44.53015" lon="6.87881">
        <ele>2767.3</ele>
        <time>2013-09-02T11:24:28Z</time>
      </trkpt>
      <trkpt lat="44.53016" lon="6.87859">
        <ele>2766.3</ele>
        <time>2013-09-02T11:24:44Z</time>
      </trkpt>
      <trkpt lat="44.53018" lon="6.87853">
        <ele>2765.9</ele>
        <time>2013-09-02T11:24:59Z</time>
      </trkpt>
      <trkpt lat="44.53016" lon="6.87855">
        <ele>2765.9</ele>
        <time>2013-09-02T11:25:25Z</time>
      </trkpt>
      <trkpt lat="44.53018" lon="6.87855">
        <ele>2765.9</ele>
        <time>2013-09-02T11:25:58Z</time>
      </trkpt>
      <trkpt lat="44.53015" lon="6.87854">
        <ele>2766.3</ele>
        <time>2013-09-02T11:26:25Z</time>
      </trkpt>
      <trkpt lat="44.53018" lon="6.87839">
        <ele>2765.9</ele>
        <time>2013-09-02T11:26:42Z</time>
      </trkpt>
      <trkpt lat="44.53018" lon="6.87827">
        <ele>2765.9</ele>
        <time>2013-09-02T11:26:56Z</time>
      </trkpt>
      <trkpt lat="44.53017" lon="6.87818">
        <ele>2764.9</ele>
        <time>2013-09-02T11:27:11Z</time>
      </trkpt>
      <trkpt lat="44.53016" lon="6.87809">
        <ele>2762.5</ele>
        <time>2013-09-02T11:27:24Z</time>
      </trkpt>
      <trkpt lat="44.53016" lon="6.8781">
        <ele>2762.5</ele>
        <time>2013-09-02T11:27:39Z</time>
      </trkpt>
      <trkpt lat="44.53014" lon="6.87807">
        <ele>2762.5</ele>
        <time>2013-09-02T11:27:59Z</time>
      </trkpt>
      <trkpt lat="44.53014" lon="6.87798">
        <ele>2763.9</ele>
        <time>2013-09-02T11:28:11Z</time>
      </trkpt>
      <trkpt lat="44.53016" lon="6.87794">
        <ele>2762.5</ele>
        <time>2013-09-02T11:28:29Z</time>
      </trkpt>
      <trkpt lat="44.53012" lon="6.87792">
        <ele>2760.6</ele>
        <time>2013-09-02T11:28:44Z</time>
      </trkpt>
      <trkpt lat="44.5301" lon="6.87793">
        <ele>2760.1</ele>
        <time>2013-09-02T11:28:52Z</time>
      </trkpt>
      <trkpt lat="44.53008" lon="6.87774">
        <ele>2760.1</ele>
        <time>2013-09-02T11:29:07Z</time>
      </trkpt>
      <trkpt lat="44.53009" lon="6.87765">
        <ele>2758.6</ele>
        <time>2013-09-02T11:29:15Z</time>
      </trkpt>
      <trkpt lat="44.53008" lon="6.87759">
        <ele>2757.7</ele>
        <time>2013-09-02T11:29:19Z</time>
      </trkpt>
      <trkpt lat="44.53004" lon="6.87757">
        <ele>2757.2</ele>
        <time>2013-09-02T11:29:23Z</time>
      </trkpt>
      <trkpt lat="44.53" lon="6.8774">
        <ele>2758.2</ele>
        <time>2013-09-02T11:29:36Z</time>
      </trkpt>
      <trkpt lat="44.52995" lon="6.87723">
        <ele>2757.2</ele>
        <time>2013-09-02T11:29:49Z</time>
      </trkpt>
      <trkpt lat="44.52992" lon="6.87711">
        <ele>2759.1</ele>
        <time>2013-09-02T11:30:01Z</time>
      </trkpt>
      <trkpt lat="44.52984" lon="6.87696">
        <ele>2760.1</ele>
        <time>2013-09-02T11:30:15Z</time>
      </trkpt>
      <trkpt lat="44.52984" lon="6.8768">
        <ele>2761</ele>
        <time>2013-09-02T11:30:28Z</time>
      </trkpt>
      <trkpt lat="44.52982" lon="6.87672">
        <ele>2762</ele>
        <time>2013-09-02T11:30:34Z</time>
      </trkpt>
      <trkpt lat="44.52979" lon="6.87658">
        <ele>2763</ele>
        <time>2013-09-02T11:30:47Z</time>
      </trkpt>
      <trkpt lat="44.52977" lon="6.87643">
        <ele>2765.4</ele>
        <time>2013-09-02T11:31:02Z</time>
      </trkpt>
      <trkpt lat="44.52973" lon="6.87636">
        <ele>2765.4</ele>
        <time>2013-09-02T11:31:14Z</time>
      </trkpt>
      <trkpt lat="44.52971" lon="6.87631">
        <ele>2764.9</ele>
        <time>2013-09-02T11:31:26Z</time>
      </trkpt>
      <trkpt lat="44.52967" lon="6.87629">
        <ele>2765.9</ele>
        <time>2013-09-02T11:31:38Z</time>
      </trkpt>
      <trkpt lat="44.52968" lon="6.87626">
        <ele>2765.9</ele>
        <time>2013-09-02T11:31:54Z</time>
      </trkpt>
      <trkpt lat="44.52969" lon="6.87623">
        <ele>2764.4</ele>
        <time>2013-09-02T11:32:09Z</time>
      </trkpt>
      <trkpt lat="44.52967" lon="6.87623">
        <ele>2765.4</ele>
        <time>2013-09-02T11:32:20Z</time>
      </trkpt>
      <trkpt lat="44.52964" lon="6.87622">
        <ele>2764.9</ele>
        <time>2013-09-02T11:32:27Z</time>
      </trkpt>
      <trkpt lat="44.52957" lon="6.87622">
        <ele>2766.3</ele>
        <time>2013-09-02T11:32:40Z</time>
      </trkpt>
      <trkpt lat="44.52955" lon="6.87616">
        <ele>2765.9</ele>
        <time>2013-09-02T11:32:50Z</time>
      </trkpt>
      <trkpt lat="44.52952" lon="6.87608">
        <ele>2766.3</ele>
        <time>2013-09-02T11:33:03Z</time>
      </trkpt>
      <trkpt lat="44.52948" lon="6.87611">
        <ele>2766.3</ele>
        <time>2013-09-02T11:33:19Z</time>
      </trkpt>
      <trkpt lat="44.52948" lon="6.87599">
        <ele>2767.8</ele>
        <time>2013-09-02T11:33:35Z</time>
      </trkpt>
      <trkpt lat="44.52945" lon="6.87595">
        <ele>2768.3</ele>
        <time>2013-09-02T11:33:48Z</time>
      </trkpt>
      <trkpt lat="44.52947" lon="6.87597">
        <ele>2768.7</ele>
        <time>2013-09-02T11:34:07Z</time>
      </trkpt>
      <trkpt lat="44.5294" lon="6.87595">
        <ele>2768.7</ele>
        <time>2013-09-02T11:34:23Z</time>
      </trkpt>
      <trkpt lat="44.52942" lon="6.87591">
        <ele>2768.7</ele>
        <time>2013-09-02T11:34:40Z</time>
      </trkpt>
      <trkpt lat="44.52944" lon="6.87591">
        <ele>2768.7</ele>
        <time>2013-09-02T11:35:10Z</time>
      </trkpt>
      <trkpt lat="44.52931" lon="6.87588">
        <ele>2769.2</ele>
        <time>2013-09-02T11:35:26Z</time>
      </trkpt>
      <trkpt lat="44.52919" lon="6.87581">
        <ele>2770.2</ele>
        <time>2013-09-02T11:35:44Z</time>
      </trkpt>
      <trkpt lat="44.52918" lon="6.87581">
        <ele>2771.1</ele>
        <time>2013-09-02T11:35:46Z</time>
      </trkpt>
      <trkpt lat="44.52908" lon="6.87575">
        <ele>2773.1</ele>
        <time>2013-09-02T11:36:02Z</time>
      </trkpt>
      <trkpt lat="44.52902" lon="6.87571">
        <ele>2775</ele>
        <time>2013-09-02T11:36:14Z</time>
      </trkpt>
      <trkpt lat="44.52892" lon="6.87563">
        <ele>2775.9</ele>
        <time>2013-09-02T11:36:31Z</time>
      </trkpt>
      <trkpt lat="44.52885" lon="6.87556">
        <ele>2777.9</ele>
        <time>2013-09-02T11:36:46Z</time>
      </trkpt>
      <trkpt lat="44.52877" lon="6.87549">
        <ele>2779.8</ele>
        <time>2013-09-02T11:37:01Z</time>
      </trkpt>
      <trkpt lat="44.52875" lon="6.87545">
        <ele>2780.3</ele>
        <time>2013-09-02T11:37:13Z</time>
      </trkpt>
      <trkpt lat="44.5287" lon="6.87539">
        <ele>2781.2</ele>
        <time>2013-09-02T11:37:27Z</time>
      </trkpt>
      <trkpt lat="44.52862" lon="6.87533">
        <ele>2782.7</ele>
        <time>2013-09-02T11:37:41Z</time>
      </trkpt>
      <trkpt lat="44.52854" lon="6.8753">
        <ele>2782.7</ele>
        <time>2013-09-02T11:37:55Z</time>
      </trkpt>
      <trkpt lat="44.52846" lon="6.87523">
        <ele>2785.6</ele>
        <time>2013-09-02T11:38:08Z</time>
      </trkpt>
      <trkpt lat="44.52829" lon="6.87519">
        <ele>2787</ele>
        <time>2013-09-02T11:38:27Z</time>
      </trkpt>
      <trkpt lat="44.52818" lon="6.87513">
        <ele>2788.4</ele>
        <time>2013-09-02T11:38:48Z</time>
      </trkpt>
      <trkpt lat="44.52815" lon="6.87512">
        <ele>2789.4</ele>
        <time>2013-09-02T11:38:59Z</time>
      </trkpt>
      <trkpt lat="44.52808" lon="6.87507">
        <ele>2790.8</ele>
        <time>2013-09-02T11:39:12Z</time>
      </trkpt>
      <trkpt lat="44.52802" lon="6.87502">
        <ele>2793.3</ele>
        <time>2013-09-02T11:39:27Z</time>
      </trkpt>
      <trkpt lat="44.52796" lon="6.875">
        <ele>2795.2</ele>
        <time>2013-09-02T11:39:43Z</time>
      </trkpt>
      <trkpt lat="44.52788" lon="6.87496">
        <ele>2797.6</ele>
        <time>2013-09-02T11:39:59Z</time>
      </trkpt>
      <trkpt lat="44.52785" lon="6.87492">
        <ele>2799</ele>
        <time>2013-09-02T11:40:13Z</time>
      </trkpt>
      <trkpt lat="44.52783" lon="6.87484">
        <ele>2800.9</ele>
        <time>2013-09-02T11:40:28Z</time>
      </trkpt>
      <trkpt lat="44.52778" lon="6.87483">
        <ele>2802.9</ele>
        <time>2013-09-02T11:40:44Z</time>
      </trkpt>
      <trkpt lat="44.52775" lon="6.87479">
        <ele>2804.8</ele>
        <time>2013-09-02T11:40:57Z</time>
      </trkpt>
      <trkpt lat="44.52771" lon="6.87473">
        <ele>2806.2</ele>
        <time>2013-09-02T11:41:12Z</time>
      </trkpt>
      <trkpt lat="44.52763" lon="6.87469">
        <ele>2808.2</ele>
        <time>2013-09-02T11:41:25Z</time>
      </trkpt>
      <trkpt lat="44.52757" lon="6.87464">
        <ele>2809.6</ele>
        <time>2013-09-02T11:41:35Z</time>
      </trkpt>
      <trkpt lat="44.5275" lon="6.87458">
        <ele>2810.6</ele>
        <time>2013-09-02T11:41:49Z</time>
      </trkpt>
      <trkpt lat="44.52743" lon="6.87456">
        <ele>2812.5</ele>
        <time>2013-09-02T11:42:04Z</time>
      </trkpt>
      <trkpt lat="44.52742" lon="6.8745">
        <ele>2812</ele>
        <time>2013-09-02T11:42:12Z</time>
      </trkpt>
      <trkpt lat="44.52737" lon="6.87452">
        <ele>2813</ele>
        <time>2013-09-02T11:42:25Z</time>
      </trkpt>
      <trkpt lat="44.52731" lon="6.87449">
        <ele>2815.4</ele>
        <time>2013-09-02T11:42:37Z</time>
      </trkpt>
      <trkpt lat="44.52726" lon="6.87445">
        <ele>2816.8</ele>
        <time>2013-09-02T11:42:47Z</time>
      </trkpt>
      <trkpt lat="44.52718" lon="6.87441">
        <ele>2818.2</ele>
        <time>2013-09-02T11:43:00Z</time>
      </trkpt>
      <trkpt lat="44.52715" lon="6.8744">
        <ele>2817.8</ele>
        <time>2013-09-02T11:43:03Z</time>
      </trkpt>
      <trkpt lat="44.52704" lon="6.87433">
        <ele>2819.7</ele>
        <time>2013-09-02T11:43:19Z</time>
      </trkpt>
      <trkpt lat="44.52696" lon="6.87428">
        <ele>2823.1</ele>
        <time>2013-09-02T11:43:35Z</time>
      </trkpt>
      <trkpt lat="44.52686" lon="6.87423">
        <ele>2825</ele>
        <time>2013-09-02T11:43:49Z</time>
      </trkpt>
      <trkpt lat="44.52669" lon="6.87422">
        <ele>2825.5</ele>
        <time>2013-09-02T11:44:08Z</time>
      </trkpt>
      <trkpt lat="44.52668" lon="6.8742">
        <ele>2825.5</ele>
        <time>2013-09-02T11:44:25Z</time>
      </trkpt>
      <trkpt lat="44.52664" lon="6.8742">
        <ele>2825.5</ele>
        <time>2013-09-02T11:44:43Z</time>
      </trkpt>
      <trkpt lat="44.52664" lon="6.87421">
        <ele>2825.5</ele>
        <time>2013-09-02T11:44:47Z</time>
      </trkpt>
      <trkpt lat="44.52663" lon="6.87422">
        <ele>2825</ele>
        <time>2013-09-02T11:45:00Z</time>
      </trkpt>
      <trkpt lat="44.5265" lon="6.87421">
        <ele>2822.1</ele>
        <time>2013-09-02T11:45:13Z</time>
      </trkpt>
      <trkpt lat="44.52651" lon="6.87418">
        <ele>2820.7</ele>
        <time>2013-09-02T11:45:25Z</time>
      </trkpt>
      <trkpt lat="44.52654" lon="6.87409">
        <ele>2818.7</ele>
        <time>2013-09-02T11:45:34Z</time>
      </trkpt>
      <trkpt lat="44.52657" lon="6.87402">
        <ele>2816.8</ele>
        <time>2013-09-02T11:45:40Z</time>
      </trkpt>
      <trkpt lat="44.52658" lon="6.87386">
        <ele>2814.4</ele>
        <time>2013-09-02T11:45:54Z</time>
      </trkpt>
      <trkpt lat="44.52655" lon="6.87374">
        <ele>2812.5</ele>
        <time>2013-09-02T11:46:06Z</time>
      </trkpt>
      <trkpt lat="44.52651" lon="6.87366">
        <ele>2811</ele>
        <time>2013-09-02T11:46:20Z</time>
      </trkpt>
      <trkpt lat="44.52642" lon="6.87351">
        <ele>2807.7</ele>
        <time>2013-09-02T11:46:27Z</time>
      </trkpt>
      <trkpt lat="44.5264" lon="6.87348">
        <ele>2808.2</ele>
        <time>2013-09-02T11:46:28Z</time>
      </trkpt>
      <trkpt lat="44.52629" lon="6.87342">
        <ele>2806.2</ele>
        <time>2013-09-02T11:46:32Z</time>
      </trkpt>
      <trkpt lat="44.52621" lon="6.87339">
        <ele>2804.3</ele>
        <time>2013-09-02T11:46:36Z</time>
      </trkpt>
      <trkpt lat="44.52616" lon="6.87329">
        <ele>2802.4</ele>
        <time>2013-09-02T11:46:41Z</time>
      </trkpt>
      <trkpt lat="44.52612" lon="6.87324">
        <ele>2800.9</ele>
        <time>2013-09-02T11:46:43Z</time>
      </trkpt>
      <trkpt lat="44.52599" lon="6.87309">
        <ele>2800</ele>
        <time>2013-09-02T11:46:53Z</time>
      </trkpt>
      <trkpt lat="44.52584" lon="6.87315">
        <ele>2800.5</ele>
        <time>2013-09-02T11:47:03Z</time>
      </trkpt>
      <trkpt lat="44.52582" lon="6.87311">
        <ele>2800.5</ele>
        <time>2013-09-02T11:47:07Z</time>
      </trkpt>
      <trkpt lat="44.52583" lon="6.87309">
        <ele>2800.9</ele>
        <time>2013-09-02T11:47:08Z</time>
      </trkpt>
      <trkpt lat="44.52568" lon="6.87282">
        <ele>2799.5</ele>
        <time>2013-09-02T11:47:22Z</time>
      </trkpt>
      <trkpt lat="44.52564" lon="6.87279">
        <ele>2798.1</ele>
        <time>2013-09-02T11:47:25Z</time>
      </trkpt>
      <trkpt lat="44.52561" lon="6.87278">
        <ele>2798.1</ele>
        <time>2013-09-02T11:47:33Z</time>
      </trkpt>
      <trkpt lat="44.52561" lon="6.87275">
        <ele>2797.1</ele>
        <time>2013-09-02T11:47:36Z</time>
      </trkpt>
      <trkpt lat="44.5255" lon="6.87264">
        <ele>2796.6</ele>
        <time>2013-09-02T11:47:44Z</time>
      </trkpt>
      <trkpt lat="44.52517" lon="6.87234">
        <ele>2796.1</ele>
        <time>2013-09-02T11:47:59Z</time>
      </trkpt>
      <trkpt lat="44.52493" lon="6.87215">
        <ele>2796.6</ele>
        <time>2013-09-02T11:48:13Z</time>
      </trkpt>
      <trkpt lat="44.52488" lon="6.87213">
        <ele>2796.6</ele>
        <time>2013-09-02T11:48:24Z</time>
      </trkpt>
      <trkpt lat="44.52489" lon="6.87219">
        <ele>2796.6</ele>
        <time>2013-09-02T11:48:58Z</time>
      </trkpt>
      <trkpt lat="44.52479" lon="6.87215">
        <ele>2794.7</ele>
        <time>2013-09-02T11:49:10Z</time>
      </trkpt>
      <trkpt lat="44.52468" lon="6.87215">
        <ele>2791.8</ele>
        <time>2013-09-02T11:49:15Z</time>
      </trkpt>
      <trkpt lat="44.52461" lon="6.87186">
        <ele>2791.8</ele>
        <time>2013-09-02T11:49:25Z</time>
      </trkpt>
      <trkpt lat="44.52463" lon="6.87177">
        <ele>2793.3</ele>
        <time>2013-09-02T11:49:37Z</time>
      </trkpt>
      <trkpt lat="44.52465" lon="6.87162">
        <ele>2795.2</ele>
        <time>2013-09-02T11:49:54Z</time>
      </trkpt>
      <trkpt lat="44.52457" lon="6.87141">
        <ele>2794.7</ele>
        <time>2013-09-02T11:50:03Z</time>
      </trkpt>
      <trkpt lat="44.52434" lon="6.87134">
        <ele>2792.3</ele>
        <time>2013-09-02T11:50:10Z</time>
      </trkpt>
      <trkpt lat="44.52415" lon="6.87134">
        <ele>2789.4</ele>
        <time>2013-09-02T11:50:15Z</time>
      </trkpt>
      <trkpt lat="44.52411" lon="6.87134">
        <ele>2789.4</ele>
        <time>2013-09-02T11:50:16Z</time>
      </trkpt>
      <trkpt lat="44.52403" lon="6.8713">
        <ele>2788.4</ele>
        <time>2013-09-02T11:50:18Z</time>
      </trkpt>
      <trkpt lat="44.52397" lon="6.87125">
        <ele>2788.9</ele>
        <time>2013-09-02T11:50:25Z</time>
      </trkpt>
      <trkpt lat="44.52396" lon="6.87123">
        <ele>2788.4</ele>
        <time>2013-09-02T11:50:29Z</time>
      </trkpt>
      <trkpt lat="44.52387" lon="6.87108">
        <ele>2789.9</ele>
        <time>2013-09-02T11:50:45Z</time>
      </trkpt>
      <trkpt lat="44.52371" lon="6.871">
        <ele>2789.9</ele>
        <time>2013-09-02T11:51:00Z</time>
      </trkpt>
      <trkpt lat="44.52361" lon="6.87102">
        <ele>2789.4</ele>
        <time>2013-09-02T11:51:10Z</time>
      </trkpt>
      <trkpt lat="44.52345" lon="6.87095">
        <ele>2788.4</ele>
        <time>2013-09-02T11:51:23Z</time>
      </trkpt>
      <trkpt lat="44.52342" lon="6.87091">
        <ele>2788</ele>
        <time>2013-09-02T11:51:51Z</time>
      </trkpt>
      <trkpt lat="44.52336" lon="6.87083">
        <ele>2785.6</ele>
        <time>2013-09-02T11:52:01Z</time>
      </trkpt>
      <trkpt lat="44.5233" lon="6.87073">
        <ele>2782.7</ele>
        <time>2013-09-02T11:52:07Z</time>
      </trkpt>
      <trkpt lat="44.52328" lon="6.8707">
        <ele>2781.7</ele>
        <time>2013-09-02T11:52:09Z</time>
      </trkpt>
      <trkpt lat="44.52325" lon="6.87065">
        <ele>2779.3</ele>
        <time>2013-09-02T11:52:13Z</time>
      </trkpt>
      <trkpt lat="44.52323" lon="6.87061">
        <ele>2778.8</ele>
        <time>2013-09-02T11:52:15Z</time>
      </trkpt>
      <trkpt lat="44.52318" lon="6.8705">
        <ele>2777.9</ele>
        <time>2013-09-02T11:52:27Z</time>
      </trkpt>
      <trkpt lat="44.52314" lon="6.87033">
        <ele>2775</ele>
        <time>2013-09-02T11:52:41Z</time>
      </trkpt>
      <trkpt lat="44.5231" lon="6.87032">
        <ele>2773.5</ele>
        <time>2013-09-02T11:52:47Z</time>
      </trkpt>
      <trkpt lat="44.52307" lon="6.87029">
        <ele>2771.6</ele>
        <time>2013-09-02T11:52:51Z</time>
      </trkpt>
      <trkpt lat="44.52303" lon="6.87024">
        <ele>2770.2</ele>
        <time>2013-09-02T11:52:56Z</time>
      </trkpt>
      <trkpt lat="44.52299" lon="6.87016">
        <ele>2768.3</ele>
        <time>2013-09-02T11:53:04Z</time>
      </trkpt>
      <trkpt lat="44.52298" lon="6.87011">
        <ele>2766.3</ele>
        <time>2013-09-02T11:53:11Z</time>
      </trkpt>
      <trkpt lat="44.52293" lon="6.87003">
        <ele>2763</ele>
        <time>2013-09-02T11:53:24Z</time>
      </trkpt>
      <trkpt lat="44.52292" lon="6.86985">
        <ele>2761</ele>
        <time>2013-09-02T11:53:41Z</time>
      </trkpt>
      <trkpt lat="44.5229" lon="6.86972">
        <ele>2757.7</ele>
        <time>2013-09-02T11:53:55Z</time>
      </trkpt>
      <trkpt lat="44.52291" lon="6.86962">
        <ele>2756.2</ele>
        <time>2013-09-02T11:54:12Z</time>
      </trkpt>
      <trkpt lat="44.52292" lon="6.86954">
        <ele>2755.3</ele>
        <time>2013-09-02T11:54:22Z</time>
      </trkpt>
      <trkpt lat="44.52291" lon="6.86937">
        <ele>2751</ele>
        <time>2013-09-02T11:54:37Z</time>
      </trkpt>
      <trkpt lat="44.5229" lon="6.86934">
        <ele>2749.5</ele>
        <time>2013-09-02T11:54:40Z</time>
      </trkpt>
      <trkpt lat="44.52289" lon="6.86927">
        <ele>2748.6</ele>
        <time>2013-09-02T11:54:46Z</time>
      </trkpt>
      <trkpt lat="44.52288" lon="6.86915">
        <ele>2745.2</ele>
        <time>2013-09-02T11:54:56Z</time>
      </trkpt>
      <trkpt lat="44.52288" lon="6.86909">
        <ele>2744.7</ele>
        <time>2013-09-02T11:55:00Z</time>
      </trkpt>
      <trkpt lat="44.52286" lon="6.86901">
        <ele>2743.7</ele>
        <time>2013-09-02T11:55:14Z</time>
      </trkpt>
      <trkpt lat="44.52283" lon="6.86897">
        <ele>2741.8</ele>
        <time>2013-09-02T11:55:31Z</time>
      </trkpt>
      <trkpt lat="44.52278" lon="6.86888">
        <ele>2740.4</ele>
        <time>2013-09-02T11:55:44Z</time>
      </trkpt>
      <trkpt lat="44.52277" lon="6.86872">
        <ele>2742.3</ele>
        <time>2013-09-02T11:55:59Z</time>
      </trkpt>
      <trkpt lat="44.52278" lon="6.86867">
        <ele>2742.3</ele>
        <time>2013-09-02T11:56:16Z</time>
      </trkpt>
      <trkpt lat="44.52279" lon="6.86859">
        <ele>2744.2</ele>
        <time>2013-09-02T11:56:32Z</time>
      </trkpt>
      <trkpt lat="44.52285" lon="6.86852">
        <ele>2745.7</ele>
        <time>2013-09-02T11:56:43Z</time>
      </trkpt>
      <trkpt lat="44.5229" lon="6.86847">
        <ele>2746.1</ele>
        <time>2013-09-02T11:56:58Z</time>
      </trkpt>
      <trkpt lat="44.52299" lon="6.86839">
        <ele>2747.1</ele>
        <time>2013-09-02T11:57:15Z</time>
      </trkpt>
      <trkpt lat="44.52301" lon="6.86836">
        <ele>2746.6</ele>
        <time>2013-09-02T11:57:42Z</time>
      </trkpt>
      <trkpt lat="44.52303" lon="6.86833">
        <ele>2746.6</ele>
        <time>2013-09-02T11:58:01Z</time>
      </trkpt>
      <trkpt lat="44.52306" lon="6.86832">
        <ele>2746.1</ele>
        <time>2013-09-02T11:58:25Z</time>
      </trkpt>
      <trkpt lat="44.52304" lon="6.86835">
        <ele>2747.1</ele>
        <time>2013-09-02T11:58:37Z</time>
      </trkpt>
      <trkpt lat="44.52302" lon="6.86836">
        <ele>2747.1</ele>
        <time>2013-09-02T11:58:54Z</time>
      </trkpt>
      <trkpt lat="44.52304" lon="6.86834">
        <ele>2745.7</ele>
        <time>2013-09-02T11:59:09Z</time>
      </trkpt>
      <trkpt lat="44.52305" lon="6.86834">
        <ele>2745.2</ele>
        <time>2013-09-02T11:59:25Z</time>
      </trkpt>
      <trkpt lat="44.52304" lon="6.86838">
        <ele>2746.1</ele>
        <time>2013-09-02T11:59:37Z</time>
      </trkpt>
      <trkpt lat="44.52309" lon="6.86838">
        <ele>2744.7</ele>
        <time>2013-09-02T12:00:13Z</time>
      </trkpt>
      <trkpt lat="44.52306" lon="6.86837">
        <ele>2745.2</ele>
        <time>2013-09-02T12:00:49Z</time>
      </trkpt>
      <trkpt lat="44.52306" lon="6.86835">
        <ele>2745.2</ele>
        <time>2013-09-02T12:01:22Z</time>
      </trkpt>
      <trkpt lat="44.52307" lon="6.86836">
        <ele>2745.2</ele>
        <time>2013-09-02T12:01:53Z</time>
      </trkpt>
      <trkpt lat="44.52303" lon="6.86837">
        <ele>2745.2</ele>
        <time>2013-09-02T12:02:25Z</time>
      </trkpt>
      <trkpt lat="44.52306" lon="6.86839">
        <ele>2745.2</ele>
        <time>2013-09-02T12:02:59Z</time>
      </trkpt>
      <trkpt lat="44.52305" lon="6.86834">
        <ele>2747.1</ele>
        <time>2013-09-02T12:03:18Z</time>
      </trkpt>
      <trkpt lat="44.52306" lon="6.86836">
        <ele>2747.6</ele>
        <time>2013-09-02T12:03:36Z</time>
      </trkpt>
      <trkpt lat="44.5231" lon="6.86834">
        <ele>2746.6</ele>
        <time>2013-09-02T12:03:41Z</time>
      </trkpt>
      <trkpt lat="44.5232" lon="6.86828">
        <ele>2746.1</ele>
        <time>2013-09-02T12:03:56Z</time>
      </trkpt>
      <trkpt lat="44.52326" lon="6.86824">
        <ele>2747.6</ele>
        <time>2013-09-02T12:04:12Z</time>
      </trkpt>
      <trkpt lat="44.52328" lon="6.86821">
        <ele>2748.1</ele>
        <time>2013-09-02T12:04:22Z</time>
      </trkpt>
      <trkpt lat="44.52331" lon="6.86815">
        <ele>2745.7</ele>
        <time>2013-09-02T12:04:29Z</time>
      </trkpt>
      <trkpt lat="44.52337" lon="6.86805">
        <ele>2746.6</ele>
        <time>2013-09-02T12:04:39Z</time>
      </trkpt>
      <trkpt lat="44.52353" lon="6.86797">
        <ele>2745.2</ele>
        <time>2013-09-02T12:04:54Z</time>
      </trkpt>
      <trkpt lat="44.52361" lon="6.86786">
        <ele>2741.8</ele>
        <time>2013-09-02T12:05:05Z</time>
      </trkpt>
      <trkpt lat="44.52362" lon="6.86785">
        <ele>2741.8</ele>
        <time>2013-09-02T12:05:06Z</time>
      </trkpt>
      <trkpt lat="44.52374" lon="6.86774">
        <ele>2741.3</ele>
        <time>2013-09-02T12:05:21Z</time>
      </trkpt>
      <trkpt lat="44.52375" lon="6.86767">
        <ele>2740.9</ele>
        <time>2013-09-02T12:05:27Z</time>
      </trkpt>
      <trkpt lat="44.52375" lon="6.86763">
        <ele>2739.9</ele>
        <time>2013-09-02T12:05:30Z</time>
      </trkpt>
      <trkpt lat="44.52376" lon="6.86752">
        <ele>2739.9</ele>
        <time>2013-09-02T12:05:43Z</time>
      </trkpt>
      <trkpt lat="44.52379" lon="6.8674">
        <ele>2738.5</ele>
        <time>2013-09-02T12:05:56Z</time>
      </trkpt>
      <trkpt lat="44.52379" lon="6.86739">
        <ele>2739.4</ele>
        <time>2013-09-02T12:05:57Z</time>
      </trkpt>
      <trkpt lat="44.52388" lon="6.86725">
        <ele>2739.4</ele>
        <time>2013-09-02T12:06:10Z</time>
      </trkpt>
      <trkpt lat="44.52394" lon="6.86716">
        <ele>2738.5</ele>
        <time>2013-09-02T12:06:23Z</time>
      </trkpt>
      <trkpt lat="44.52401" lon="6.86711">
        <ele>2740.9</ele>
        <time>2013-09-02T12:06:38Z</time>
      </trkpt>
      <trkpt lat="44.52409" lon="6.86705">
        <ele>2741.3</ele>
        <time>2013-09-02T12:06:52Z</time>
      </trkpt>
      <trkpt lat="44.52417" lon="6.86694">
        <ele>2743.7</ele>
        <time>2013-09-02T12:07:07Z</time>
      </trkpt>
      <trkpt lat="44.52422" lon="6.86682">
        <ele>2744.2</ele>
        <time>2013-09-02T12:07:21Z</time>
      </trkpt>
      <trkpt lat="44.52429" lon="6.86667">
        <ele>2743.3</ele>
        <time>2013-09-02T12:07:38Z</time>
      </trkpt>
      <trkpt lat="44.52432" lon="6.86656">
        <ele>2745.7</ele>
        <time>2013-09-02T12:07:53Z</time>
      </trkpt>
      <trkpt lat="44.52437" lon="6.86644">
        <ele>2747.6</ele>
        <time>2013-09-02T12:08:07Z</time>
      </trkpt>
      <trkpt lat="44.52443" lon="6.86634">
        <ele>2749</ele>
        <time>2013-09-02T12:08:23Z</time>
      </trkpt>
      <trkpt lat="44.52448" lon="6.86625">
        <ele>2750.5</ele>
        <time>2013-09-02T12:08:38Z</time>
      </trkpt>
      <trkpt lat="44.52453" lon="6.86614">
        <ele>2751</ele>
        <time>2013-09-02T12:08:53Z</time>
      </trkpt>
      <trkpt lat="44.52458" lon="6.86607">
        <ele>2751.9</ele>
        <time>2013-09-02T12:09:06Z</time>
      </trkpt>
      <trkpt lat="44.52461" lon="6.86605">
        <ele>2753.4</ele>
        <time>2013-09-02T12:09:14Z</time>
      </trkpt>
      <trkpt lat="44.52465" lon="6.86594">
        <ele>2752.9</ele>
        <time>2013-09-02T12:09:28Z</time>
      </trkpt>
      <trkpt lat="44.52468" lon="6.86586">
        <ele>2752.4</ele>
        <time>2013-09-02T12:09:42Z</time>
      </trkpt>
      <trkpt lat="44.52471" lon="6.86576">
        <ele>2753.4</ele>
        <time>2013-09-02T12:09:56Z</time>
      </trkpt>
      <trkpt lat="44.52472" lon="6.86562">
        <ele>2753.4</ele>
        <time>2013-09-02T12:10:10Z</time>
      </trkpt>
      <trkpt lat="44.52475" lon="6.86556">
        <ele>2754.8</ele>
        <time>2013-09-02T12:10:19Z</time>
      </trkpt>
      <trkpt lat="44.52477" lon="6.86543">
        <ele>2753.8</ele>
        <time>2013-09-02T12:10:34Z</time>
      </trkpt>
      <trkpt lat="44.52483" lon="6.86534">
        <ele>2753.8</ele>
        <time>2013-09-02T12:10:49Z</time>
      </trkpt>
      <trkpt lat="44.52485" lon="6.86526">
        <ele>2755.3</ele>
        <time>2013-09-02T12:11:02Z</time>
      </trkpt>
      <trkpt lat="44.52488" lon="6.86516">
        <ele>2756.2</ele>
        <time>2013-09-02T12:11:16Z</time>
      </trkpt>
      <trkpt lat="44.52489" lon="6.86509">
        <ele>2758.2</ele>
        <time>2013-09-02T12:11:29Z</time>
      </trkpt>
      <trkpt lat="44.52493" lon="6.86505">
        <ele>2758.6</ele>
        <time>2013-09-02T12:11:43Z</time>
      </trkpt>
      <trkpt lat="44.52498" lon="6.86502">
        <ele>2761</ele>
        <time>2013-09-02T12:11:58Z</time>
      </trkpt>
      <trkpt lat="44.52505" lon="6.865">
        <ele>2763</ele>
        <time>2013-09-02T12:12:14Z</time>
      </trkpt>
      <trkpt lat="44.52508" lon="6.86501">
        <ele>2764.9</ele>
        <time>2013-09-02T12:12:32Z</time>
      </trkpt>
      <trkpt lat="44.52512" lon="6.86499">
        <ele>2765.4</ele>
        <time>2013-09-02T12:12:44Z</time>
      </trkpt>
      <trkpt lat="44.52519" lon="6.86497">
        <ele>2767.3</ele>
        <time>2013-09-02T12:12:58Z</time>
      </trkpt>
      <trkpt lat="44.52526" lon="6.8649">
        <ele>2768.3</ele>
        <time>2013-09-02T12:13:12Z</time>
      </trkpt>
      <trkpt lat="44.52527" lon="6.86491">
        <ele>2768.7</ele>
        <time>2013-09-02T12:13:28Z</time>
      </trkpt>
      <trkpt lat="44.52533" lon="6.8648">
        <ele>2770.2</ele>
        <time>2013-09-02T12:13:44Z</time>
      </trkpt>
      <trkpt lat="44.52538" lon="6.86473">
        <ele>2772.1</ele>
        <time>2013-09-02T12:13:58Z</time>
      </trkpt>
      <trkpt lat="44.5254" lon="6.86461">
        <ele>2773.5</ele>
        <time>2013-09-02T12:14:11Z</time>
      </trkpt>
      <trkpt lat="44.52547" lon="6.86456">
        <ele>2775.5</ele>
        <time>2013-09-02T12:14:25Z</time>
      </trkpt>
      <trkpt lat="44.52555" lon="6.86446">
        <ele>2777.4</ele>
        <time>2013-09-02T12:14:39Z</time>
      </trkpt>
      <trkpt lat="44.52561" lon="6.86443">
        <ele>2777.9</ele>
        <time>2013-09-02T12:14:52Z</time>
      </trkpt>
      <trkpt lat="44.52562" lon="6.86443">
        <ele>2777.9</ele>
        <time>2013-09-02T12:15:05Z</time>
      </trkpt>
      <trkpt lat="44.52568" lon="6.86446">
        <ele>2777.4</ele>
        <time>2013-09-02T12:15:11Z</time>
      </trkpt>
      <trkpt lat="44.52581" lon="6.86446">
        <ele>2777.9</ele>
        <time>2013-09-02T12:15:28Z</time>
      </trkpt>
      <trkpt lat="44.52585" lon="6.86449">
        <ele>2778.4</ele>
        <time>2013-09-02T12:15:44Z</time>
      </trkpt>
      <trkpt lat="44.52586" lon="6.86449">
        <ele>2778.4</ele>
        <time>2013-09-02T12:15:45Z</time>
      </trkpt>
      <trkpt lat="44.52603" lon="6.86442">
        <ele>2778.8</ele>
        <time>2013-09-02T12:15:57Z</time>
      </trkpt>
      <trkpt lat="44.52609" lon="6.86436">
        <ele>2779.8</ele>
        <time>2013-09-02T12:16:07Z</time>
      </trkpt>
      <trkpt lat="44.52608" lon="6.86435">
        <ele>2778.8</ele>
        <time>2013-09-02T12:16:17Z</time>
      </trkpt>
      <trkpt lat="44.5261" lon="6.86428">
        <ele>2780.3</ele>
        <time>2013-09-02T12:16:27Z</time>
      </trkpt>
      <trkpt lat="44.52624" lon="6.86415">
        <ele>2781.7</ele>
        <time>2013-09-02T12:16:38Z</time>
      </trkpt>
      <trkpt lat="44.52638" lon="6.86404">
        <ele>2781.7</ele>
        <time>2013-09-02T12:16:45Z</time>
      </trkpt>
      <trkpt lat="44.52644" lon="6.86402">
        <ele>2782.2</ele>
        <time>2013-09-02T12:16:56Z</time>
      </trkpt>
      <trkpt lat="44.5265" lon="6.86391">
        <ele>2782.2</ele>
        <time>2013-09-02T12:17:12Z</time>
      </trkpt>
      <trkpt lat="44.52666" lon="6.86384">
        <ele>2784.6</ele>
        <time>2013-09-02T12:17:22Z</time>
      </trkpt>
      <trkpt lat="44.52686" lon="6.8637">
        <ele>2785.6</ele>
        <time>2013-09-02T12:17:36Z</time>
      </trkpt>
      <trkpt lat="44.5269" lon="6.86367">
        <ele>2785.1</ele>
        <time>2013-09-02T12:17:38Z</time>
      </trkpt>
      <trkpt lat="44.52702" lon="6.86373">
        <ele>2784.6</ele>
        <time>2013-09-02T12:17:49Z</time>
      </trkpt>
      <trkpt lat="44.52708" lon="6.86367">
        <ele>2787.5</ele>
        <time>2013-09-02T12:18:02Z</time>
      </trkpt>
      <trkpt lat="44.52719" lon="6.86359">
        <ele>2788</ele>
        <time>2013-09-02T12:18:20Z</time>
      </trkpt>
      <trkpt lat="44.52729" lon="6.86357">
        <ele>2790.8</ele>
        <time>2013-09-02T12:18:36Z</time>
      </trkpt>
      <trkpt lat="44.52735" lon="6.86353">
        <ele>2792.3</ele>
        <time>2013-09-02T12:18:50Z</time>
      </trkpt>
      <trkpt lat="44.52743" lon="6.86354">
        <ele>2794.7</ele>
        <time>2013-09-02T12:19:08Z</time>
      </trkpt>
      <trkpt lat="44.52752" lon="6.86349">
        <ele>2797.6</ele>
        <time>2013-09-02T12:19:25Z</time>
      </trkpt>
      <trkpt lat="44.52759" lon="6.86344">
        <ele>2797.6</ele>
        <time>2013-09-02T12:19:35Z</time>
      </trkpt>
      <trkpt lat="44.52767" lon="6.86346">
        <ele>2800</ele>
        <time>2013-09-02T12:19:50Z</time>
      </trkpt>
      <trkpt lat="44.52773" lon="6.86344">
        <ele>2802.4</ele>
        <time>2013-09-02T12:20:05Z</time>
      </trkpt>
      <trkpt lat="44.52777" lon="6.86342">
        <ele>2802.4</ele>
        <time>2013-09-02T12:20:35Z</time>
      </trkpt>
      <trkpt lat="44.52784" lon="6.86343">
        <ele>2803.8</ele>
        <time>2013-09-02T12:20:43Z</time>
      </trkpt>
      <trkpt lat="44.52803" lon="6.86346">
        <ele>2804.8</ele>
        <time>2013-09-02T12:21:04Z</time>
      </trkpt>
      <trkpt lat="44.52819" lon="6.86354">
        <ele>2807.2</ele>
        <time>2013-09-02T12:21:21Z</time>
      </trkpt>
      <trkpt lat="44.52827" lon="6.86354">
        <ele>2807.2</ele>
        <time>2013-09-02T12:21:32Z</time>
      </trkpt>
      <trkpt lat="44.52839" lon="6.86346">
        <ele>2809.1</ele>
        <time>2013-09-02T12:21:49Z</time>
      </trkpt>
      <trkpt lat="44.52853" lon="6.86347">
        <ele>2811.5</ele>
        <time>2013-09-02T12:22:07Z</time>
      </trkpt>
      <trkpt lat="44.52856" lon="6.8635">
        <ele>2812.5</ele>
        <time>2013-09-02T12:22:11Z</time>
      </trkpt>
      <trkpt lat="44.52871" lon="6.86357">
        <ele>2814.9</ele>
        <time>2013-09-02T12:22:30Z</time>
      </trkpt>
      <trkpt lat="44.52879" lon="6.86357">
        <ele>2817.8</ele>
        <time>2013-09-02T12:22:45Z</time>
      </trkpt>
      <trkpt lat="44.52884" lon="6.86361">
        <ele>2817.8</ele>
        <time>2013-09-02T12:23:00Z</time>
      </trkpt>
      <trkpt lat="44.52888" lon="6.86362">
        <ele>2820.7</ele>
        <time>2013-09-02T12:23:18Z</time>
      </trkpt>
      <trkpt lat="44.52899" lon="6.86366">
        <ele>2821.1</ele>
        <time>2013-09-02T12:23:35Z</time>
      </trkpt>
      <trkpt lat="44.52914" lon="6.86372">
        <ele>2821.6</ele>
        <time>2013-09-02T12:23:45Z</time>
      </trkpt>
      <trkpt lat="44.52935" lon="6.86381">
        <ele>2822.1</ele>
        <time>2013-09-02T12:23:55Z</time>
      </trkpt>
      <trkpt lat="44.52951" lon="6.86385">
        <ele>2824</ele>
        <time>2013-09-02T12:24:03Z</time>
      </trkpt>
      <trkpt lat="44.52957" lon="6.86387">
        <ele>2825.5</ele>
        <time>2013-09-02T12:24:07Z</time>
      </trkpt>
      <trkpt lat="44.52961" lon="6.86393">
        <ele>2826.4</ele>
        <time>2013-09-02T12:24:11Z</time>
      </trkpt>
      <trkpt lat="44.52977" lon="6.86409">
        <ele>2828.3</ele>
        <time>2013-09-02T12:24:25Z</time>
      </trkpt>
      <trkpt lat="44.52982" lon="6.86412">
        <ele>2828.3</ele>
        <time>2013-09-02T12:24:30Z</time>
      </trkpt>
      <trkpt lat="44.52986" lon="6.86412">
        <ele>2829.3</ele>
        <time>2013-09-02T12:24:32Z</time>
      </trkpt>
      <trkpt lat="44.52989" lon="6.86415">
        <ele>2829.3</ele>
        <time>2013-09-02T12:24:35Z</time>
      </trkpt>
      <trkpt lat="44.5299" lon="6.86418">
        <ele>2830.3</ele>
        <time>2013-09-02T12:24:38Z</time>
      </trkpt>
      <trkpt lat="44.52995" lon="6.86419">
        <ele>2829.8</ele>
        <time>2013-09-02T12:24:42Z</time>
      </trkpt>
      <trkpt lat="44.53022" lon="6.8642">
        <ele>2829.3</ele>
        <time>2013-09-02T12:24:56Z</time>
      </trkpt>
      <trkpt lat="44.53045" lon="6.86424">
        <ele>2830.7</ele>
        <time>2013-09-02T12:25:09Z</time>
      </trkpt>
      <trkpt lat="44.53053" lon="6.86425">
        <ele>2831.2</ele>
        <time>2013-09-02T12:25:13Z</time>
      </trkpt>
      <trkpt lat="44.53064" lon="6.86423">
        <ele>2830.3</ele>
        <time>2013-09-02T12:25:18Z</time>
      </trkpt>
      <trkpt lat="44.53069" lon="6.86427">
        <ele>2830.7</ele>
        <time>2013-09-02T12:25:22Z</time>
      </trkpt>
      <trkpt lat="44.5309" lon="6.86421">
        <ele>2830.3</ele>
        <time>2013-09-02T12:25:32Z</time>
      </trkpt>
      <trkpt lat="44.53089" lon="6.86422">
        <ele>2831.7</ele>
        <time>2013-09-02T12:25:42Z</time>
      </trkpt>
      <trkpt lat="44.53095" lon="6.8642">
        <ele>2831.2</ele>
        <time>2013-09-02T12:25:55Z</time>
      </trkpt>
      <trkpt lat="44.53106" lon="6.8641">
        <ele>2831.2</ele>
        <time>2013-09-02T12:26:10Z</time>
      </trkpt>
      <trkpt lat="44.53118" lon="6.86408">
        <ele>2830.7</ele>
        <time>2013-09-02T12:26:24Z</time>
      </trkpt>
      <trkpt lat="44.5313" lon="6.86407">
        <ele>2831.7</ele>
        <time>2013-09-02T12:26:38Z</time>
      </trkpt>
      <trkpt lat="44.53137" lon="6.86406">
        <ele>2831.7</ele>
        <time>2013-09-02T12:26:52Z</time>
      </trkpt>
      <trkpt lat="44.5314" lon="6.86411">
        <ele>2832.2</ele>
        <time>2013-09-02T12:27:03Z</time>
      </trkpt>
      <trkpt lat="44.53151" lon="6.86414">
        <ele>2831.2</ele>
        <time>2013-09-02T12:27:17Z</time>
      </trkpt>
      <trkpt lat="44.53152" lon="6.86413">
        <ele>2831.2</ele>
        <time>2013-09-02T12:27:31Z</time>
      </trkpt>
      <trkpt lat="44.53152" lon="6.86409">
        <ele>2830.7</ele>
        <time>2013-09-02T12:27:46Z</time>
      </trkpt>
      <trkpt lat="44.53159" lon="6.86403">
        <ele>2831.7</ele>
        <time>2013-09-02T12:27:58Z</time>
      </trkpt>
      <trkpt lat="44.53163" lon="6.86399">
        <ele>2832.7</ele>
        <time>2013-09-02T12:28:10Z</time>
      </trkpt>
      <trkpt lat="44.53168" lon="6.86402">
        <ele>2832.7</ele>
        <time>2013-09-02T12:28:24Z</time>
      </trkpt>
      <trkpt lat="44.53174" lon="6.86397">
        <ele>2834.6</ele>
        <time>2013-09-02T12:28:37Z</time>
      </trkpt>
      <trkpt lat="44.53186" lon="6.86396">
        <ele>2836</ele>
        <time>2013-09-02T12:28:54Z</time>
      </trkpt>
      <trkpt lat="44.53197" lon="6.8639">
        <ele>2835.6</ele>
        <time>2013-09-02T12:29:08Z</time>
      </trkpt>
      <trkpt lat="44.5321" lon="6.8639">
        <ele>2835.6</ele>
        <time>2013-09-02T12:29:22Z</time>
      </trkpt>
      <trkpt lat="44.53211" lon="6.8639">
        <ele>2835.1</ele>
        <time>2013-09-02T12:29:25Z</time>
      </trkpt>
      <trkpt lat="44.5322" lon="6.86387">
        <ele>2835.1</ele>
        <time>2013-09-02T12:29:39Z</time>
      </trkpt>
      <trkpt lat="44.53226" lon="6.86391">
        <ele>2836</ele>
        <time>2013-09-02T12:29:52Z</time>
      </trkpt>
      <trkpt lat="44.53235" lon="6.86395">
        <ele>2838.9</ele>
        <time>2013-09-02T12:30:07Z</time>
      </trkpt>
      <trkpt lat="44.53241" lon="6.86396">
        <ele>2841.3</ele>
        <time>2013-09-02T12:30:24Z</time>
      </trkpt>
      <trkpt lat="44.53245" lon="6.864">
        <ele>2843.2</ele>
        <time>2013-09-02T12:30:38Z</time>
      </trkpt>
      <trkpt lat="44.53252" lon="6.86405">
        <ele>2847.1</ele>
        <time>2013-09-02T12:30:56Z</time>
      </trkpt>
      <trkpt lat="44.53257" lon="6.86406">
        <ele>2848</ele>
        <time>2013-09-02T12:31:11Z</time>
      </trkpt>
      <trkpt lat="44.53261" lon="6.86407">
        <ele>2850.5</ele>
        <time>2013-09-02T12:31:28Z</time>
      </trkpt>
      <trkpt lat="44.53266" lon="6.86412">
        <ele>2853.8</ele>
        <time>2013-09-02T12:31:44Z</time>
      </trkpt>
      <trkpt lat="44.53272" lon="6.86418">
        <ele>2855.7</ele>
        <time>2013-09-02T12:32:00Z</time>
      </trkpt>
      <trkpt lat="44.53279" lon="6.86421">
        <ele>2857.7</ele>
        <time>2013-09-02T12:32:18Z</time>
      </trkpt>
      <trkpt lat="44.53287" lon="6.86425">
        <ele>2860.5</ele>
        <time>2013-09-02T12:32:36Z</time>
      </trkpt>
      <trkpt lat="44.53293" lon="6.86428">
        <ele>2862.9</ele>
        <time>2013-09-02T12:32:51Z</time>
      </trkpt>
      <trkpt lat="44.53296" lon="6.86429">
        <ele>2864.4</ele>
        <time>2013-09-02T12:33:08Z</time>
      </trkpt>
      <trkpt lat="44.53303" lon="6.86436">
        <ele>2866.8</ele>
        <time>2013-09-02T12:33:26Z</time>
      </trkpt>
      <trkpt lat="44.53309" lon="6.8644">
        <ele>2868.7</ele>
        <time>2013-09-02T12:33:44Z</time>
      </trkpt>
      <trkpt lat="44.53313" lon="6.86444">
        <ele>2871.1</ele>
        <time>2013-09-02T12:33:59Z</time>
      </trkpt>
      <trkpt lat="44.53318" lon="6.86449">
        <ele>2873</ele>
        <time>2013-09-02T12:34:16Z</time>
      </trkpt>
      <trkpt lat="44.53321" lon="6.8645">
        <ele>2874.5</ele>
        <time>2013-09-02T12:34:30Z</time>
      </trkpt>
      <trkpt lat="44.53324" lon="6.86451">
        <ele>2877.8</ele>
        <time>2013-09-02T12:34:43Z</time>
      </trkpt>
      <trkpt lat="44.53328" lon="6.86452">
        <ele>2876.9</ele>
        <time>2013-09-02T12:35:00Z</time>
      </trkpt>
      <trkpt lat="44.53329" lon="6.86452">
        <ele>2876.9</ele>
        <time>2013-09-02T12:35:35Z</time>
      </trkpt>
      <trkpt lat="44.53328" lon="6.86455">
        <ele>2878.3</ele>
        <time>2013-09-02T12:35:56Z</time>
      </trkpt>
      <trkpt lat="44.53333" lon="6.86459">
        <ele>2880.7</ele>
        <time>2013-09-02T12:36:09Z</time>
      </trkpt>
      <trkpt lat="44.53336" lon="6.86452">
        <ele>2884.1</ele>
        <time>2013-09-02T12:36:20Z</time>
      </trkpt>
      <trkpt lat="44.53338" lon="6.86442">
        <ele>2886</ele>
        <time>2013-09-02T12:36:36Z</time>
      </trkpt>
      <trkpt lat="44.53341" lon="6.86437">
        <ele>2888.9</ele>
        <time>2013-09-02T12:36:52Z</time>
      </trkpt>
      <trkpt lat="44.53341" lon="6.86426">
        <ele>2891.3</ele>
        <time>2013-09-02T12:37:06Z</time>
      </trkpt>
      <trkpt lat="44.53341" lon="6.86426">
        <ele>2891.3</ele>
        <time>2013-09-02T12:37:07Z</time>
      </trkpt>
      <trkpt lat="44.53348" lon="6.86429">
        <ele>2892.7</ele>
        <time>2013-09-02T12:37:20Z</time>
      </trkpt>
      <trkpt lat="44.5335" lon="6.8643">
        <ele>2892.7</ele>
        <time>2013-09-02T12:37:35Z</time>
      </trkpt>
      <trkpt lat="44.5335" lon="6.8643">
        <ele>2893.2</ele>
        <time>2013-09-02T12:38:02Z</time>
      </trkpt>
      <trkpt lat="44.53355" lon="6.86428">
        <ele>2894.7</ele>
        <time>2013-09-02T12:38:20Z</time>
      </trkpt>
      <trkpt lat="44.53363" lon="6.86422">
        <ele>2897.1</ele>
        <time>2013-09-02T12:38:37Z</time>
      </trkpt>
      <trkpt lat="44.5337" lon="6.86423">
        <ele>2898</ele>
        <time>2013-09-02T12:38:56Z</time>
      </trkpt>
      <trkpt lat="44.53376" lon="6.86419">
        <ele>2899</ele>
        <time>2013-09-02T12:39:10Z</time>
      </trkpt>
      <trkpt lat="44.53402" lon="6.86409">
        <ele>2900.9</ele>
        <time>2013-09-02T12:39:31Z</time>
      </trkpt>
      <trkpt lat="44.53422" lon="6.864">
        <ele>2903.3</ele>
        <time>2013-09-02T12:39:46Z</time>
      </trkpt>
      <trkpt lat="44.53423" lon="6.86399">
        <ele>2902.8</ele>
        <time>2013-09-02T12:39:47Z</time>
      </trkpt>
      <trkpt lat="44.53434" lon="6.86396">
        <ele>2905.2</ele>
        <time>2013-09-02T12:39:55Z</time>
      </trkpt>
      <trkpt lat="44.5344" lon="6.86399">
        <ele>2906.7</ele>
        <time>2013-09-02T12:40:08Z</time>
      </trkpt>
      <trkpt lat="44.53449" lon="6.86393">
        <ele>2907.2</ele>
        <time>2013-09-02T12:40:20Z</time>
      </trkpt>
      <trkpt lat="44.53464" lon="6.8639">
        <ele>2908.6</ele>
        <time>2013-09-02T12:40:40Z</time>
      </trkpt>
      <trkpt lat="44.53474" lon="6.86394">
        <ele>2910.5</ele>
        <time>2013-09-02T12:40:56Z</time>
      </trkpt>
      <trkpt lat="44.53483" lon="6.86385">
        <ele>2912.5</ele>
        <time>2013-09-02T12:41:12Z</time>
      </trkpt>
      <trkpt lat="44.53493" lon="6.86375">
        <ele>2914.4</ele>
        <time>2013-09-02T12:41:27Z</time>
      </trkpt>
      <trkpt lat="44.53505" lon="6.86369">
        <ele>2914.9</ele>
        <time>2013-09-02T12:41:40Z</time>
      </trkpt>
      <trkpt lat="44.53519" lon="6.86365">
        <ele>2915.8</ele>
        <time>2013-09-02T12:41:57Z</time>
      </trkpt>
      <trkpt lat="44.53529" lon="6.86364">
        <ele>2918.7</ele>
        <time>2013-09-02T12:42:13Z</time>
      </trkpt>
      <trkpt lat="44.5354" lon="6.86365">
        <ele>2921.1</ele>
        <time>2013-09-02T12:42:31Z</time>
      </trkpt>
      <trkpt lat="44.53545" lon="6.86364">
        <ele>2923</ele>
        <time>2013-09-02T12:42:47Z</time>
      </trkpt>
      <trkpt lat="44.53546" lon="6.86363">
        <ele>2924</ele>
        <time>2013-09-02T12:42:55Z</time>
      </trkpt>
      <trkpt lat="44.53545" lon="6.8636">
        <ele>2925.9</ele>
        <time>2013-09-02T12:43:11Z</time>
      </trkpt>
      <trkpt lat="44.5355" lon="6.86356">
        <ele>2928.3</ele>
        <time>2013-09-02T12:43:26Z</time>
      </trkpt>
      <trkpt lat="44.53556" lon="6.86347">
        <ele>2930.7</ele>
        <time>2013-09-02T12:43:41Z</time>
      </trkpt>
      <trkpt lat="44.53558" lon="6.86348">
        <ele>2932.2</ele>
        <time>2013-09-02T12:43:44Z</time>
      </trkpt>
      <trkpt lat="44.53567" lon="6.86343">
        <ele>2934.1</ele>
        <time>2013-09-02T12:44:01Z</time>
      </trkpt>
      <trkpt lat="44.53574" lon="6.86336">
        <ele>2935</ele>
        <time>2013-09-02T12:44:20Z</time>
      </trkpt>
      <trkpt lat="44.53575" lon="6.86332">
        <ele>2934.6</ele>
        <time>2013-09-02T12:44:37Z</time>
      </trkpt>
      <trkpt lat="44.53574" lon="6.8633">
        <ele>2934.6</ele>
        <time>2013-09-02T12:44:53Z</time>
      </trkpt>
      <trkpt lat="44.53575" lon="6.86332">
        <ele>2934.6</ele>
        <time>2013-09-02T12:44:59Z</time>
      </trkpt>
      <trkpt lat="44.53578" lon="6.86317">
        <ele>2933.1</ele>
        <time>2013-09-02T12:45:05Z</time>
      </trkpt>
      <trkpt lat="44.53578" lon="6.8631">
        <ele>2931.7</ele>
        <time>2013-09-02T12:45:07Z</time>
      </trkpt>
      <trkpt lat="44.5358" lon="6.86298">
        <ele>2929.8</ele>
        <time>2013-09-02T12:45:10Z</time>
      </trkpt>
      <trkpt lat="44.53585" lon="6.86282">
        <ele>2927.4</ele>
        <time>2013-09-02T12:45:14Z</time>
      </trkpt>
      <trkpt lat="44.53587" lon="6.86278">
        <ele>2927.4</ele>
        <time>2013-09-02T12:45:15Z</time>
      </trkpt>
      <trkpt lat="44.53588" lon="6.86274">
        <ele>2926.9</ele>
        <time>2013-09-02T12:45:16Z</time>
      </trkpt>
      <trkpt lat="44.53588" lon="6.86271">
        <ele>2925</ele>
        <time>2013-09-02T12:45:17Z</time>
      </trkpt>
      <trkpt lat="44.53591" lon="6.86258">
        <ele>2924.5</ele>
        <time>2013-09-02T12:45:21Z</time>
      </trkpt>
      <trkpt lat="44.53595" lon="6.86246">
        <ele>2924.5</ele>
        <time>2013-09-02T12:45:24Z</time>
      </trkpt>
      <trkpt lat="44.53595" lon="6.86243">
        <ele>2923.5</ele>
        <time>2013-09-02T12:45:25Z</time>
      </trkpt>
      <trkpt lat="44.53596" lon="6.8624">
        <ele>2924</ele>
        <time>2013-09-02T12:45:26Z</time>
      </trkpt>
      <trkpt lat="44.53596" lon="6.86237">
        <ele>2923</ele>
        <time>2013-09-02T12:45:27Z</time>
      </trkpt>
      <trkpt lat="44.53596" lon="6.86234">
        <ele>2923.5</ele>
        <time>2013-09-02T12:45:28Z</time>
      </trkpt>
      <trkpt lat="44.53596" lon="6.86231">
        <ele>2923</ele>
        <time>2013-09-02T12:45:29Z</time>
      </trkpt>
      <trkpt lat="44.53597" lon="6.8623">
        <ele>2921.1</ele>
        <time>2013-09-02T12:45:30Z</time>
      </trkpt>
      <trkpt lat="44.53598" lon="6.86228">
        <ele>2921.6</ele>
        <time>2013-09-02T12:45:31Z</time>
      </trkpt>
      <trkpt lat="44.53599" lon="6.86226">
        <ele>2920.1</ele>
        <time>2013-09-02T12:45:32Z</time>
      </trkpt>
      <trkpt lat="44.53602" lon="6.86216">
        <ele>2918.2</ele>
        <time>2013-09-02T12:45:37Z</time>
      </trkpt>
      <trkpt lat="44.53603" lon="6.86212">
        <ele>2917.3</ele>
        <time>2013-09-02T12:45:50Z</time>
      </trkpt>
      <trkpt lat="44.53606" lon="6.862">
        <ele>2913.9</ele>
        <time>2013-09-02T12:45:56Z</time>
      </trkpt>
      <trkpt lat="44.53607" lon="6.86198">
        <ele>2913.9</ele>
        <time>2013-09-02T12:45:57Z</time>
      </trkpt>
      <trkpt lat="44.53608" lon="6.86195">
        <ele>2913.4</ele>
        <time>2013-09-02T12:45:59Z</time>
      </trkpt>
      <trkpt lat="44.53609" lon="6.86192">
        <ele>2912.9</ele>
        <time>2013-09-02T12:46:00Z</time>
      </trkpt>
      <trkpt lat="44.53613" lon="6.86176">
        <ele>2911.5</ele>
        <time>2013-09-02T12:46:11Z</time>
      </trkpt>
      <trkpt lat="44.53619" lon="6.86164">
        <ele>2908.1</ele>
        <time>2013-09-02T12:46:22Z</time>
      </trkpt>
      <trkpt lat="44.53623" lon="6.86159">
        <ele>2907.2</ele>
        <time>2013-09-02T12:46:25Z</time>
      </trkpt>
      <trkpt lat="44.53624" lon="6.86158">
        <ele>2905.7</ele>
        <time>2013-09-02T12:46:26Z</time>
      </trkpt>
      <trkpt lat="44.53625" lon="6.86156">
        <ele>2905.7</ele>
        <time>2013-09-02T12:46:27Z</time>
      </trkpt>
      <trkpt lat="44.53626" lon="6.86154">
        <ele>2905.2</ele>
        <time>2013-09-02T12:46:28Z</time>
      </trkpt>
      <trkpt lat="44.53627" lon="6.86152">
        <ele>2903.8</ele>
        <time>2013-09-02T12:46:29Z</time>
      </trkpt>
      <trkpt lat="44.53628" lon="6.8615">
        <ele>2902.8</ele>
        <time>2013-09-02T12:46:30Z</time>
      </trkpt>
      <trkpt lat="44.5363" lon="6.86147">
        <ele>2903.8</ele>
        <time>2013-09-02T12:46:31Z</time>
      </trkpt>
      <trkpt lat="44.53631" lon="6.86139">
        <ele>2901.4</ele>
        <time>2013-09-02T12:46:34Z</time>
      </trkpt>
      <trkpt lat="44.53633" lon="6.86136">
        <ele>2899.5</ele>
        <time>2013-09-02T12:46:45Z</time>
      </trkpt>
      <trkpt lat="44.53634" lon="6.86141">
        <ele>2899</ele>
        <time>2013-09-02T12:47:01Z</time>
      </trkpt>
      <trkpt lat="44.53639" lon="6.86148">
        <ele>2897.6</ele>
        <time>2013-09-02T12:47:16Z</time>
      </trkpt>
      <trkpt lat="44.53642" lon="6.86144">
        <ele>2896.6</ele>
        <time>2013-09-02T12:47:30Z</time>
      </trkpt>
      <trkpt lat="44.53643" lon="6.86137">
        <ele>2895.6</ele>
        <time>2013-09-02T12:47:45Z</time>
      </trkpt>
      <trkpt lat="44.53646" lon="6.86132">
        <ele>2894.2</ele>
        <time>2013-09-02T12:47:48Z</time>
      </trkpt>
      <trkpt lat="44.53649" lon="6.86125">
        <ele>2891.3</ele>
        <time>2013-09-02T12:47:52Z</time>
      </trkpt>
      <trkpt lat="44.53655" lon="6.86127">
        <ele>2890.3</ele>
        <time>2013-09-02T12:47:56Z</time>
      </trkpt>
      <trkpt lat="44.5366" lon="6.86123">
        <ele>2887.5</ele>
        <time>2013-09-02T12:48:02Z</time>
      </trkpt>
      <trkpt lat="44.53662" lon="6.86128">
        <ele>2886.5</ele>
        <time>2013-09-02T12:48:17Z</time>
      </trkpt>
      <trkpt lat="44.53668" lon="6.86129">
        <ele>2883.6</ele>
        <time>2013-09-02T12:48:26Z</time>
      </trkpt>
      <trkpt lat="44.53675" lon="6.86127">
        <ele>2880.3</ele>
        <time>2013-09-02T12:48:38Z</time>
      </trkpt>
      <trkpt lat="44.53675" lon="6.86126">
        <ele>2880.7</ele>
        <time>2013-09-02T12:48:39Z</time>
      </trkpt>
      <trkpt lat="44.53683" lon="6.86124">
        <ele>2877.8</ele>
        <time>2013-09-02T12:48:52Z</time>
      </trkpt>
      <trkpt lat="44.53684" lon="6.86119">
        <ele>2876.9</ele>
        <time>2013-09-02T12:49:01Z</time>
      </trkpt>
      <trkpt lat="44.53688" lon="6.86117">
        <ele>2876.4</ele>
        <time>2013-09-02T12:49:05Z</time>
      </trkpt>
      <trkpt lat="44.53691" lon="6.86124">
        <ele>2874.5</ele>
        <time>2013-09-02T12:49:08Z</time>
      </trkpt>
      <trkpt lat="44.53696" lon="6.86127">
        <ele>2872.6</ele>
        <time>2013-09-02T12:49:13Z</time>
      </trkpt>
      <trkpt lat="44.53699" lon="6.86125">
        <ele>2872.1</ele>
        <time>2013-09-02T12:49:15Z</time>
      </trkpt>
      <trkpt lat="44.53707" lon="6.86121">
        <ele>2868.7</ele>
        <time>2013-09-02T12:49:24Z</time>
      </trkpt>
      <trkpt lat="44.5371" lon="6.86121">
        <ele>2869.2</ele>
        <time>2013-09-02T12:49:33Z</time>
      </trkpt>
      <trkpt lat="44.53712" lon="6.86121">
        <ele>2867.8</ele>
        <time>2013-09-02T12:49:36Z</time>
      </trkpt>
      <trkpt lat="44.53719" lon="6.86119">
        <ele>2864.4</ele>
        <time>2013-09-02T12:49:46Z</time>
      </trkpt>
      <trkpt lat="44.5372" lon="6.8612">
        <ele>2865.8</ele>
        <time>2013-09-02T12:49:48Z</time>
      </trkpt>
      <trkpt lat="44.5373" lon="6.86126">
        <ele>2862.9</ele>
        <time>2013-09-02T12:49:56Z</time>
      </trkpt>
      <trkpt lat="44.53738" lon="6.86133">
        <ele>2860.5</ele>
        <time>2013-09-02T12:50:00Z</time>
      </trkpt>
      <trkpt lat="44.53754" lon="6.86146">
        <ele>2859.1</ele>
        <time>2013-09-02T12:50:07Z</time>
      </trkpt>
      <trkpt lat="44.53757" lon="6.86145">
        <ele>2857.7</ele>
        <time>2013-09-02T12:50:08Z</time>
      </trkpt>
      <trkpt lat="44.5376" lon="6.86144">
        <ele>2858.1</ele>
        <time>2013-09-02T12:50:09Z</time>
      </trkpt>
      <trkpt lat="44.53763" lon="6.86145">
        <ele>2857.7</ele>
        <time>2013-09-02T12:50:10Z</time>
      </trkpt>
      <trkpt lat="44.53766" lon="6.86144">
        <ele>2857.7</ele>
        <time>2013-09-02T12:50:11Z</time>
      </trkpt>
      <trkpt lat="44.53769" lon="6.86144">
        <ele>2857.2</ele>
        <time>2013-09-02T12:50:12Z</time>
      </trkpt>
      <trkpt lat="44.53772" lon="6.86145">
        <ele>2856.7</ele>
        <time>2013-09-02T12:50:13Z</time>
      </trkpt>
      <trkpt lat="44.53775" lon="6.86145">
        <ele>2856.2</ele>
        <time>2013-09-02T12:50:14Z</time>
      </trkpt>
      <trkpt lat="44.53778" lon="6.86145">
        <ele>2856.7</ele>
        <time>2013-09-02T12:50:15Z</time>
      </trkpt>
      <trkpt lat="44.53781" lon="6.86145">
        <ele>2855.3</ele>
        <time>2013-09-02T12:50:16Z</time>
      </trkpt>
      <trkpt lat="44.53787" lon="6.86144">
        <ele>2857.2</ele>
        <time>2013-09-02T12:50:25Z</time>
      </trkpt>
      <trkpt lat="44.53783" lon="6.86141">
        <ele>2855.7</ele>
        <time>2013-09-02T12:50:37Z</time>
      </trkpt>
      <trkpt lat="44.5378" lon="6.8614">
        <ele>2854.3</ele>
        <time>2013-09-02T12:51:11Z</time>
      </trkpt>
      <trkpt lat="44.53779" lon="6.86137">
        <ele>2854.8</ele>
        <time>2013-09-02T12:51:12Z</time>
      </trkpt>
      <trkpt lat="44.53774" lon="6.86122">
        <ele>2854.8</ele>
        <time>2013-09-02T12:51:16Z</time>
      </trkpt>
      <trkpt lat="44.5377" lon="6.86116">
        <ele>2854.3</ele>
        <time>2013-09-02T12:51:18Z</time>
      </trkpt>
      <trkpt lat="44.53768" lon="6.86112">
        <ele>2853.8</ele>
        <time>2013-09-02T12:51:19Z</time>
      </trkpt>
      <trkpt lat="44.53761" lon="6.86087">
        <ele>2853.8</ele>
        <time>2013-09-02T12:51:27Z</time>
      </trkpt>
      <trkpt lat="44.53749" lon="6.86041">
        <ele>2854.8</ele>
        <time>2013-09-02T12:51:41Z</time>
      </trkpt>
      <trkpt lat="44.53741" lon="6.86011">
        <ele>2855.7</ele>
        <time>2013-09-02T12:51:50Z</time>
      </trkpt>
      <trkpt lat="44.53734" lon="6.85976">
        <ele>2855.7</ele>
        <time>2013-09-02T12:52:05Z</time>
      </trkpt>
      <trkpt lat="44.53733" lon="6.85963">
        <ele>2856.2</ele>
        <time>2013-09-02T12:52:11Z</time>
      </trkpt>
      <trkpt lat="44.53733" lon="6.85957">
        <ele>2855.7</ele>
        <time>2013-09-02T12:52:22Z</time>
      </trkpt>
      <trkpt lat="44.53732" lon="6.85951">
        <ele>2856.2</ele>
        <time>2013-09-02T12:52:27Z</time>
      </trkpt>
      <trkpt lat="44.53728" lon="6.85944">
        <ele>2855.3</ele>
        <time>2013-09-02T12:52:40Z</time>
      </trkpt>
      <trkpt lat="44.53726" lon="6.85943">
        <ele>2855.7</ele>
        <time>2013-09-02T12:52:50Z</time>
      </trkpt>
      <trkpt lat="44.53725" lon="6.85941">
        <ele>2856.7</ele>
        <time>2013-09-02T12:52:51Z</time>
      </trkpt>
      <trkpt lat="44.53725" lon="6.85938">
        <ele>2855.7</ele>
        <time>2013-09-02T12:52:52Z</time>
      </trkpt>
      <trkpt lat="44.53724" lon="6.85935">
        <ele>2854.8</ele>
        <time>2013-09-02T12:52:53Z</time>
      </trkpt>
      <trkpt lat="44.53723" lon="6.85931">
        <ele>2855.3</ele>
        <time>2013-09-02T12:52:54Z</time>
      </trkpt>
      <trkpt lat="44.5372" lon="6.85928">
        <ele>2855.3</ele>
        <time>2013-09-02T12:52:55Z</time>
      </trkpt>
      <trkpt lat="44.53717" lon="6.85924">
        <ele>2855.3</ele>
        <time>2013-09-02T12:52:56Z</time>
      </trkpt>
      <trkpt lat="44.53716" lon="6.85919">
        <ele>2854.3</ele>
        <time>2013-09-02T12:52:57Z</time>
      </trkpt>
      <trkpt lat="44.53715" lon="6.85913">
        <ele>2853.3</ele>
        <time>2013-09-02T12:52:58Z</time>
      </trkpt>
      <trkpt lat="44.53715" lon="6.85908">
        <ele>2854.3</ele>
        <time>2013-09-02T12:52:59Z</time>
      </trkpt>
      <trkpt lat="44.53715" lon="6.85882">
        <ele>2850</ele>
        <time>2013-09-02T12:53:04Z</time>
      </trkpt>
      <trkpt lat="44.53715" lon="6.85878">
        <ele>2850</ele>
        <time>2013-09-02T12:53:05Z</time>
      </trkpt>
      <trkpt lat="44.53717" lon="6.85869">
        <ele>2849</ele>
        <time>2013-09-02T12:53:08Z</time>
      </trkpt>
      <trkpt lat="44.53717" lon="6.85865">
        <ele>2849</ele>
        <time>2013-09-02T12:53:09Z</time>
      </trkpt>
      <trkpt lat="44.53716" lon="6.85862">
        <ele>2848.5</ele>
        <time>2013-09-02T12:53:10Z</time>
      </trkpt>
      <trkpt lat="44.53716" lon="6.85858">
        <ele>2849</ele>
        <time>2013-09-02T12:53:11Z</time>
      </trkpt>
      <trkpt lat="44.53716" lon="6.85855">
        <ele>2849</ele>
        <time>2013-09-02T12:53:12Z</time>
      </trkpt>
      <trkpt lat="44.53716" lon="6.85852">
        <ele>2848.5</ele>
        <time>2013-09-02T12:53:13Z</time>
      </trkpt>
      <trkpt lat="44.53715" lon="6.8585">
        <ele>2848</ele>
        <time>2013-09-02T12:53:14Z</time>
      </trkpt>
      <trkpt lat="44.53714" lon="6.8582">
        <ele>2849.5</ele>
        <time>2013-09-02T12:53:23Z</time>
      </trkpt>
      <trkpt lat="44.53713" lon="6.85818">
        <ele>2849.5</ele>
        <time>2013-09-02T12:53:24Z</time>
      </trkpt>
      <trkpt lat="44.53712" lon="6.85816">
        <ele>2850</ele>
        <time>2013-09-02T12:53:25Z</time>
      </trkpt>
      <trkpt lat="44.53712" lon="6.85813">
        <ele>2850</ele>
        <time>2013-09-02T12:53:26Z</time>
      </trkpt>
      <trkpt lat="44.53712" lon="6.85811">
        <ele>2850.5</ele>
        <time>2013-09-02T12:53:27Z</time>
      </trkpt>
      <trkpt lat="44.53712" lon="6.85808">
        <ele>2850</ele>
        <time>2013-09-02T12:53:28Z</time>
      </trkpt>
      <trkpt lat="44.53711" lon="6.85804">
        <ele>2850</ele>
        <time>2013-09-02T12:53:29Z</time>
      </trkpt>
      <trkpt lat="44.5371" lon="6.858">
        <ele>2850</ele>
        <time>2013-09-02T12:53:30Z</time>
      </trkpt>
      <trkpt lat="44.53706" lon="6.85774">
        <ele>2849.5</ele>
        <time>2013-09-02T12:53:41Z</time>
      </trkpt>
      <trkpt lat="44.53705" lon="6.85772">
        <ele>2850</ele>
        <time>2013-09-02T12:53:44Z</time>
      </trkpt>
      <trkpt lat="44.53704" lon="6.85771">
        <ele>2850.5</ele>
        <time>2013-09-02T12:53:45Z</time>
      </trkpt>
      <trkpt lat="44.53703" lon="6.8577">
        <ele>2850</ele>
        <time>2013-09-02T12:53:46Z</time>
      </trkpt>
      <trkpt lat="44.53702" lon="6.85768">
        <ele>2850.5</ele>
        <time>2013-09-02T12:53:47Z</time>
      </trkpt>
      <trkpt lat="44.53701" lon="6.85766">
        <ele>2850.9</ele>
        <time>2013-09-02T12:53:48Z</time>
      </trkpt>
      <trkpt lat="44.53701" lon="6.85763">
        <ele>2850.9</ele>
        <time>2013-09-02T12:53:49Z</time>
      </trkpt>
      <trkpt lat="44.537" lon="6.8576">
        <ele>2850.5</ele>
        <time>2013-09-02T12:53:50Z</time>
      </trkpt>
      <trkpt lat="44.53699" lon="6.85757">
        <ele>2850.5</ele>
        <time>2013-09-02T12:53:51Z</time>
      </trkpt>
      <trkpt lat="44.53692" lon="6.85717">
        <ele>2848</ele>
        <time>2013-09-02T12:54:01Z</time>
      </trkpt>
      <trkpt lat="44.53691" lon="6.85713">
        <ele>2848</ele>
        <time>2013-09-02T12:54:02Z</time>
      </trkpt>
      <trkpt lat="44.53688" lon="6.85707">
        <ele>2849</ele>
        <time>2013-09-02T12:54:04Z</time>
      </trkpt>
      <trkpt lat="44.53689" lon="6.85704">
        <ele>2848</ele>
        <time>2013-09-02T12:54:05Z</time>
      </trkpt>
      <trkpt lat="44.53689" lon="6.85701">
        <ele>2847.6</ele>
        <time>2013-09-02T12:54:06Z</time>
      </trkpt>
      <trkpt lat="44.53689" lon="6.85699">
        <ele>2848</ele>
        <time>2013-09-02T12:54:07Z</time>
      </trkpt>
      <trkpt lat="44.53688" lon="6.85697">
        <ele>2849.5</ele>
        <time>2013-09-02T12:54:08Z</time>
      </trkpt>
      <trkpt lat="44.53687" lon="6.85695">
        <ele>2850</ele>
        <time>2013-09-02T12:54:09Z</time>
      </trkpt>
      <trkpt lat="44.53686" lon="6.85693">
        <ele>2850</ele>
        <time>2013-09-02T12:54:10Z</time>
      </trkpt>
      <trkpt lat="44.53681" lon="6.85659">
        <ele>2848.5</ele>
        <time>2013-09-02T12:54:22Z</time>
      </trkpt>
      <trkpt lat="44.53683" lon="6.85652">
        <ele>2847.1</ele>
        <time>2013-09-02T12:54:24Z</time>
      </trkpt>
      <trkpt lat="44.53686" lon="6.85629">
        <ele>2846.1</ele>
        <time>2013-09-02T12:54:31Z</time>
      </trkpt>
      <trkpt lat="44.53684" lon="6.85622">
        <ele>2844.7</ele>
        <time>2013-09-02T12:54:44Z</time>
      </trkpt>
      <trkpt lat="44.53682" lon="6.85615">
        <ele>2844.2</ele>
        <time>2013-09-02T12:54:58Z</time>
      </trkpt>
      <trkpt lat="44.53676" lon="6.85599">
        <ele>2842.8</ele>
        <time>2013-09-02T12:55:10Z</time>
      </trkpt>
      <trkpt lat="44.53678" lon="6.85592">
        <ele>2842.3</ele>
        <time>2013-09-02T12:55:15Z</time>
      </trkpt>
      <trkpt lat="44.53681" lon="6.85582">
        <ele>2843.2</ele>
        <time>2013-09-02T12:55:22Z</time>
      </trkpt>
      <trkpt lat="44.53681" lon="6.8558">
        <ele>2842.8</ele>
        <time>2013-09-02T12:55:23Z</time>
      </trkpt>
      <trkpt lat="44.53682" lon="6.85579">
        <ele>2842.3</ele>
        <time>2013-09-02T12:55:24Z</time>
      </trkpt>
      <trkpt lat="44.53682" lon="6.85577">
        <ele>2843.2</ele>
        <time>2013-09-02T12:55:25Z</time>
      </trkpt>
      <trkpt lat="44.53683" lon="6.85576">
        <ele>2842.8</ele>
        <time>2013-09-02T12:55:26Z</time>
      </trkpt>
      <trkpt lat="44.53683" lon="6.85574">
        <ele>2842.8</ele>
        <time>2013-09-02T12:55:27Z</time>
      </trkpt>
      <trkpt lat="44.53686" lon="6.85558">
        <ele>2842.3</ele>
        <time>2013-09-02T12:55:40Z</time>
      </trkpt>
      <trkpt lat="44.53683" lon="6.85554">
        <ele>2842.3</ele>
        <time>2013-09-02T12:55:48Z</time>
      </trkpt>
      <trkpt lat="44.53682" lon="6.85552">
        <ele>2841.3</ele>
        <time>2013-09-02T12:55:49Z</time>
      </trkpt>
      <trkpt lat="44.53683" lon="6.85541">
        <ele>2840.8</ele>
        <time>2013-09-02T12:55:58Z</time>
      </trkpt>
      <trkpt lat="44.5369" lon="6.85527">
        <ele>2838</ele>
        <time>2013-09-02T12:56:08Z</time>
      </trkpt>
      <trkpt lat="44.5369" lon="6.85519">
        <ele>2835.6</ele>
        <time>2013-09-02T12:56:19Z</time>
      </trkpt>
      <trkpt lat="44.53692" lon="6.85511">
        <ele>2833.6</ele>
        <time>2013-09-02T12:56:28Z</time>
      </trkpt>
      <trkpt lat="44.53692" lon="6.85507">
        <ele>2834.1</ele>
        <time>2013-09-02T12:56:29Z</time>
      </trkpt>
      <trkpt lat="44.53693" lon="6.85503">
        <ele>2833.6</ele>
        <time>2013-09-02T12:56:30Z</time>
      </trkpt>
      <trkpt lat="44.53692" lon="6.855">
        <ele>2832.7</ele>
        <time>2013-09-02T12:56:31Z</time>
      </trkpt>
      <trkpt lat="44.53692" lon="6.85497">
        <ele>2832.2</ele>
        <time>2013-09-02T12:56:32Z</time>
      </trkpt>
      <trkpt lat="44.53693" lon="6.85494">
        <ele>2831.7</ele>
        <time>2013-09-02T12:56:33Z</time>
      </trkpt>
      <trkpt lat="44.53695" lon="6.8548">
        <ele>2830.7</ele>
        <time>2013-09-02T12:56:37Z</time>
      </trkpt>
      <trkpt lat="44.53696" lon="6.85463">
        <ele>2826.9</ele>
        <time>2013-09-02T12:56:44Z</time>
      </trkpt>
      <trkpt lat="44.53692" lon="6.8545">
        <ele>2824.5</ele>
        <time>2013-09-02T12:56:49Z</time>
      </trkpt>
      <trkpt lat="44.53689" lon="6.85437">
        <ele>2822.6</ele>
        <time>2013-09-02T12:56:54Z</time>
      </trkpt>
      <trkpt lat="44.53694" lon="6.8543">
        <ele>2820.7</ele>
        <time>2013-09-02T12:56:58Z</time>
      </trkpt>
      <trkpt lat="44.53699" lon="6.85428">
        <ele>2819.7</ele>
        <time>2013-09-02T12:57:00Z</time>
      </trkpt>
      <trkpt lat="44.53705" lon="6.85427">
        <ele>2819.7</ele>
        <time>2013-09-02T12:57:10Z</time>
      </trkpt>
      <trkpt lat="44.53709" lon="6.85421">
        <ele>2820.7</ele>
        <time>2013-09-02T12:57:26Z</time>
      </trkpt>
      <trkpt lat="44.5371" lon="6.85421">
        <ele>2820.2</ele>
        <time>2013-09-02T12:57:32Z</time>
      </trkpt>
      <trkpt lat="44.53711" lon="6.85416">
        <ele>2819.2</ele>
        <time>2013-09-02T12:57:35Z</time>
      </trkpt>
      <trkpt lat="44.53711" lon="6.85412">
        <ele>2819.7</ele>
        <time>2013-09-02T12:57:36Z</time>
      </trkpt>
      <trkpt lat="44.53712" lon="6.85408">
        <ele>2818.2</ele>
        <time>2013-09-02T12:57:37Z</time>
      </trkpt>
      <trkpt lat="44.53714" lon="6.85404">
        <ele>2818.2</ele>
        <time>2013-09-02T12:57:38Z</time>
      </trkpt>
      <trkpt lat="44.53721" lon="6.85389">
        <ele>2815.8</ele>
        <time>2013-09-02T12:57:43Z</time>
      </trkpt>
      <trkpt lat="44.53722" lon="6.85386">
        <ele>2816.3</ele>
        <time>2013-09-02T12:57:44Z</time>
      </trkpt>
      <trkpt lat="44.53723" lon="6.85383">
        <ele>2815.8</ele>
        <time>2013-09-02T12:57:45Z</time>
      </trkpt>
      <trkpt lat="44.53725" lon="6.8538">
        <ele>2814.9</ele>
        <time>2013-09-02T12:57:46Z</time>
      </trkpt>
      <trkpt lat="44.53726" lon="6.85377">
        <ele>2813.9</ele>
        <time>2013-09-02T12:57:47Z</time>
      </trkpt>
      <trkpt lat="44.53727" lon="6.85375">
        <ele>2813</ele>
        <time>2013-09-02T12:57:48Z</time>
      </trkpt>
      <trkpt lat="44.53729" lon="6.85374">
        <ele>2813</ele>
        <time>2013-09-02T12:57:49Z</time>
      </trkpt>
      <trkpt lat="44.5373" lon="6.85374">
        <ele>2811.5</ele>
        <time>2013-09-02T12:57:51Z</time>
      </trkpt>
      <trkpt lat="44.53732" lon="6.85371">
        <ele>2811.5</ele>
        <time>2013-09-02T12:57:56Z</time>
      </trkpt>
      <trkpt lat="44.53728" lon="6.85362">
        <ele>2809.6</ele>
        <time>2013-09-02T12:58:05Z</time>
      </trkpt>
      <trkpt lat="44.53728" lon="6.85359">
        <ele>2810.6</ele>
        <time>2013-09-02T12:58:06Z</time>
      </trkpt>
      <trkpt lat="44.53727" lon="6.85356">
        <ele>2810.1</ele>
        <time>2013-09-02T12:58:07Z</time>
      </trkpt>
      <trkpt lat="44.53727" lon="6.85351">
        <ele>2810.6</ele>
        <time>2013-09-02T12:58:18Z</time>
      </trkpt>
      <trkpt lat="44.53727" lon="6.85348">
        <ele>2810.1</ele>
        <time>2013-09-02T12:58:23Z</time>
      </trkpt>
      <trkpt lat="44.53725" lon="6.8534">
        <ele>2809.6</ele>
        <time>2013-09-02T12:58:34Z</time>
      </trkpt>
      <trkpt lat="44.5373" lon="6.85328">
        <ele>2809.6</ele>
        <time>2013-09-02T12:58:48Z</time>
      </trkpt>
      <trkpt lat="44.53738" lon="6.85318">
        <ele>2811.5</ele>
        <time>2013-09-02T12:59:03Z</time>
      </trkpt>
      <trkpt lat="44.5375" lon="6.85307">
        <ele>2814.4</ele>
        <time>2013-09-02T12:59:23Z</time>
      </trkpt>
      <trkpt lat="44.5375" lon="6.853">
        <ele>2815.4</ele>
        <time>2013-09-02T12:59:36Z</time>
      </trkpt>
      <trkpt lat="44.53753" lon="6.85297">
        <ele>2816.8</ele>
        <time>2013-09-02T12:59:46Z</time>
      </trkpt>
      <trkpt lat="44.53756" lon="6.85289">
        <ele>2818.2</ele>
        <time>2013-09-02T13:00:04Z</time>
      </trkpt>
      <trkpt lat="44.5376" lon="6.8528">
        <ele>2820.2</ele>
        <time>2013-09-02T13:00:20Z</time>
      </trkpt>
      <trkpt lat="44.53761" lon="6.85267">
        <ele>2821.1</ele>
        <time>2013-09-02T13:00:34Z</time>
      </trkpt>
      <trkpt lat="44.53759" lon="6.85253">
        <ele>2823.5</ele>
        <time>2013-09-02T13:00:52Z</time>
      </trkpt>
      <trkpt lat="44.53758" lon="6.85254">
        <ele>2823.5</ele>
        <time>2013-09-02T13:01:14Z</time>
      </trkpt>
      <trkpt lat="44.53758" lon="6.85251">
        <ele>2823.1</ele>
        <time>2013-09-02T13:01:19Z</time>
      </trkpt>
      <trkpt lat="44.53759" lon="6.85249">
        <ele>2823.1</ele>
        <time>2013-09-02T13:01:20Z</time>
      </trkpt>
      <trkpt lat="44.53755" lon="6.85221">
        <ele>2821.1</ele>
        <time>2013-09-02T13:01:29Z</time>
      </trkpt>
      <trkpt lat="44.53753" lon="6.8522">
        <ele>2821.1</ele>
        <time>2013-09-02T13:01:30Z</time>
      </trkpt>
      <trkpt lat="44.5375" lon="6.85219">
        <ele>2820.2</ele>
        <time>2013-09-02T13:01:32Z</time>
      </trkpt>
      <trkpt lat="44.5375" lon="6.85217">
        <ele>2819.7</ele>
        <time>2013-09-02T13:01:33Z</time>
      </trkpt>
      <trkpt lat="44.5375" lon="6.85214">
        <ele>2818.7</ele>
        <time>2013-09-02T13:01:34Z</time>
      </trkpt>
      <trkpt lat="44.5375" lon="6.85211">
        <ele>2818.7</ele>
        <time>2013-09-02T13:01:35Z</time>
      </trkpt>
      <trkpt lat="44.5375" lon="6.85209">
        <ele>2818.2</ele>
        <time>2013-09-02T13:01:36Z</time>
      </trkpt>
      <trkpt lat="44.53749" lon="6.85207">
        <ele>2818.2</ele>
        <time>2013-09-02T13:01:37Z</time>
      </trkpt>
      <trkpt lat="44.53747" lon="6.85203">
        <ele>2817.3</ele>
        <time>2013-09-02T13:01:39Z</time>
      </trkpt>
      <trkpt lat="44.53746" lon="6.85203">
        <ele>2816.3</ele>
        <time>2013-09-02T13:01:40Z</time>
      </trkpt>
      <trkpt lat="44.53744" lon="6.85202">
        <ele>2815.8</ele>
        <time>2013-09-02T13:01:41Z</time>
      </trkpt>
      <trkpt lat="44.53742" lon="6.85201">
        <ele>2814.9</ele>
        <time>2013-09-02T13:01:42Z</time>
      </trkpt>
      <trkpt lat="44.5374" lon="6.85199">
        <ele>2814.9</ele>
        <time>2013-09-02T13:01:43Z</time>
      </trkpt>
      <trkpt lat="44.53739" lon="6.85196">
        <ele>2813.9</ele>
        <time>2013-09-02T13:01:44Z</time>
      </trkpt>
      <trkpt lat="44.53738" lon="6.85194">
        <ele>2813.4</ele>
        <time>2013-09-02T13:01:45Z</time>
      </trkpt>
      <trkpt lat="44.53739" lon="6.85191">
        <ele>2813</ele>
        <time>2013-09-02T13:01:46Z</time>
      </trkpt>
      <trkpt lat="44.53739" lon="6.85189">
        <ele>2813</ele>
        <time>2013-09-02T13:01:47Z</time>
      </trkpt>
      <trkpt lat="44.5374" lon="6.85187">
        <ele>2812</ele>
        <time>2013-09-02T13:01:48Z</time>
      </trkpt>
      <trkpt lat="44.53741" lon="6.85185">
        <ele>2811</ele>
        <time>2013-09-02T13:01:49Z</time>
      </trkpt>
      <trkpt lat="44.53742" lon="6.85184">
        <ele>2810.6</ele>
        <time>2013-09-02T13:01:50Z</time>
      </trkpt>
      <trkpt lat="44.53743" lon="6.8518">
        <ele>2810.1</ele>
        <time>2013-09-02T13:01:51Z</time>
      </trkpt>
      <trkpt lat="44.53743" lon="6.85175">
        <ele>2809.1</ele>
        <time>2013-09-02T13:01:52Z</time>
      </trkpt>
      <trkpt lat="44.53742" lon="6.85169">
        <ele>2808.6</ele>
        <time>2013-09-02T13:01:53Z</time>
      </trkpt>
      <trkpt lat="44.53742" lon="6.85162">
        <ele>2808.2</ele>
        <time>2013-09-02T13:01:54Z</time>
      </trkpt>
      <trkpt lat="44.53741" lon="6.85157">
        <ele>2807.2</ele>
        <time>2013-09-02T13:01:55Z</time>
      </trkpt>
      <trkpt lat="44.53741" lon="6.85152">
        <ele>2806.7</ele>
        <time>2013-09-02T13:01:56Z</time>
      </trkpt>
      <trkpt lat="44.5374" lon="6.85148">
        <ele>2808.2</ele>
        <time>2013-09-02T13:01:57Z</time>
      </trkpt>
      <trkpt lat="44.53739" lon="6.85143">
        <ele>2808.2</ele>
        <time>2013-09-02T13:01:58Z</time>
      </trkpt>
      <trkpt lat="44.53739" lon="6.85138">
        <ele>2807.2</ele>
        <time>2013-09-02T13:01:59Z</time>
      </trkpt>
      <trkpt lat="44.53739" lon="6.85133">
        <ele>2806.7</ele>
        <time>2013-09-02T13:02:00Z</time>
      </trkpt>
      <trkpt lat="44.53739" lon="6.85127">
        <ele>2807.2</ele>
        <time>2013-09-02T13:02:01Z</time>
      </trkpt>
      <trkpt lat="44.53738" lon="6.8512">
        <ele>2805.8</ele>
        <time>2013-09-02T13:02:03Z</time>
      </trkpt>
      <trkpt lat="44.53737" lon="6.85118">
        <ele>2805.8</ele>
        <time>2013-09-02T13:02:04Z</time>
      </trkpt>
      <trkpt lat="44.53736" lon="6.85116">
        <ele>2806.7</ele>
        <time>2013-09-02T13:02:05Z</time>
      </trkpt>
      <trkpt lat="44.53735" lon="6.85114">
        <ele>2806.7</ele>
        <time>2013-09-02T13:02:06Z</time>
      </trkpt>
      <trkpt lat="44.53734" lon="6.85108">
        <ele>2806.2</ele>
        <time>2013-09-02T13:02:16Z</time>
      </trkpt>
      <trkpt lat="44.53734" lon="6.85098">
        <ele>2808.6</ele>
        <time>2013-09-02T13:02:32Z</time>
      </trkpt>
      <trkpt lat="44.53732" lon="6.85092">
        <ele>2809.1</ele>
        <time>2013-09-02T13:02:54Z</time>
      </trkpt>
      <trkpt lat="44.53731" lon="6.85092">
        <ele>2809.6</ele>
        <time>2013-09-02T13:03:17Z</time>
      </trkpt>
      <trkpt lat="44.53733" lon="6.85089">
        <ele>2809.1</ele>
        <time>2013-09-02T13:03:49Z</time>
      </trkpt>
      <trkpt lat="44.53734" lon="6.8509">
        <ele>2809.1</ele>
        <time>2013-09-02T13:04:21Z</time>
      </trkpt>
      <trkpt lat="44.53731" lon="6.8509">
        <ele>2809.1</ele>
        <time>2013-09-02T13:04:57Z</time>
      </trkpt>
      <trkpt lat="44.53728" lon="6.85084">
        <ele>2811.5</ele>
        <time>2013-09-02T13:05:26Z</time>
      </trkpt>
      <trkpt lat="44.53719" lon="6.85076">
        <ele>2813.9</ele>
        <time>2013-09-02T13:05:43Z</time>
      </trkpt>
      <trkpt lat="44.53711" lon="6.85062">
        <ele>2816.3</ele>
        <time>2013-09-02T13:06:02Z</time>
      </trkpt>
      <trkpt lat="44.5371" lon="6.85057">
        <ele>2815.8</ele>
        <time>2013-09-02T13:06:10Z</time>
      </trkpt>
      <trkpt lat="44.5371" lon="6.85055">
        <ele>2815.8</ele>
        <time>2013-09-02T13:06:11Z</time>
      </trkpt>
      <trkpt lat="44.5371" lon="6.85053">
        <ele>2816.3</ele>
        <time>2013-09-02T13:06:12Z</time>
      </trkpt>
      <trkpt lat="44.53709" lon="6.85051">
        <ele>2815.8</ele>
        <time>2013-09-02T13:06:13Z</time>
      </trkpt>
      <trkpt lat="44.53708" lon="6.85048">
        <ele>2815.8</ele>
        <time>2013-09-02T13:06:14Z</time>
      </trkpt>
      <trkpt lat="44.537" lon="6.85036">
        <ele>2815.4</ele>
        <time>2013-09-02T13:06:18Z</time>
      </trkpt>
      <trkpt lat="44.53699" lon="6.85029">
        <ele>2816.3</ele>
        <time>2013-09-02T13:06:25Z</time>
      </trkpt>
      <trkpt lat="44.53696" lon="6.85026">
        <ele>2817.3</ele>
        <time>2013-09-02T13:06:38Z</time>
      </trkpt>
      <trkpt lat="44.53687" lon="6.85015">
        <ele>2818.2</ele>
        <time>2013-09-02T13:07:00Z</time>
      </trkpt>
      <trkpt lat="44.53679" lon="6.85005">
        <ele>2819.2</ele>
        <time>2013-09-02T13:07:14Z</time>
      </trkpt>
      <trkpt lat="44.53678" lon="6.85002">
        <ele>2819.2</ele>
        <time>2013-09-02T13:07:17Z</time>
      </trkpt>
      <trkpt lat="44.53675" lon="6.84996">
        <ele>2819.2</ele>
        <time>2013-09-02T13:07:25Z</time>
      </trkpt>
      <trkpt lat="44.53673" lon="6.84994">
        <ele>2818.7</ele>
        <time>2013-09-02T13:07:26Z</time>
      </trkpt>
      <trkpt lat="44.5367" lon="6.84993">
        <ele>2818.2</ele>
        <time>2013-09-02T13:07:27Z</time>
      </trkpt>
      <trkpt lat="44.53668" lon="6.8499">
        <ele>2817.8</ele>
        <time>2013-09-02T13:07:28Z</time>
      </trkpt>
      <trkpt lat="44.53666" lon="6.84986">
        <ele>2817.8</ele>
        <time>2013-09-02T13:07:29Z</time>
      </trkpt>
      <trkpt lat="44.53665" lon="6.84983">
        <ele>2817.8</ele>
        <time>2013-09-02T13:07:30Z</time>
      </trkpt>
      <trkpt lat="44.53664" lon="6.84981">
        <ele>2817.3</ele>
        <time>2013-09-02T13:07:31Z</time>
      </trkpt>
      <trkpt lat="44.53664" lon="6.8498">
        <ele>2817.8</ele>
        <time>2013-09-02T13:07:43Z</time>
      </trkpt>
      <trkpt lat="44.53661" lon="6.84977">
        <ele>2816.8</ele>
        <time>2013-09-02T13:08:01Z</time>
      </trkpt>
      <trkpt lat="44.53653" lon="6.84963">
        <ele>2814.9</ele>
        <time>2013-09-02T13:08:10Z</time>
      </trkpt>
      <trkpt lat="44.53649" lon="6.84953">
        <ele>2812.5</ele>
        <time>2013-09-02T13:08:15Z</time>
      </trkpt>
      <trkpt lat="44.53642" lon="6.84939">
        <ele>2809.6</ele>
        <time>2013-09-02T13:08:24Z</time>
      </trkpt>
      <trkpt lat="44.53641" lon="6.84936">
        <ele>2808.6</ele>
        <time>2013-09-02T13:08:25Z</time>
      </trkpt>
      <trkpt lat="44.53641" lon="6.84933">
        <ele>2807.7</ele>
        <time>2013-09-02T13:08:26Z</time>
      </trkpt>
      <trkpt lat="44.5364" lon="6.84929">
        <ele>2807.2</ele>
        <time>2013-09-02T13:08:27Z</time>
      </trkpt>
      <trkpt lat="44.53638" lon="6.84926">
        <ele>2807.2</ele>
        <time>2013-09-02T13:08:28Z</time>
      </trkpt>
      <trkpt lat="44.53636" lon="6.84918">
        <ele>2805.8</ele>
        <time>2013-09-02T13:08:31Z</time>
      </trkpt>
      <trkpt lat="44.53634" lon="6.84916">
        <ele>2804.8</ele>
        <time>2013-09-02T13:08:32Z</time>
      </trkpt>
      <trkpt lat="44.53632" lon="6.84914">
        <ele>2804.3</ele>
        <time>2013-09-02T13:08:33Z</time>
      </trkpt>
      <trkpt lat="44.53629" lon="6.8491">
        <ele>2803.3</ele>
        <time>2013-09-02T13:08:35Z</time>
      </trkpt>
      <trkpt lat="44.53625" lon="6.84903">
        <ele>2800</ele>
        <time>2013-09-02T13:08:40Z</time>
      </trkpt>
      <trkpt lat="44.53623" lon="6.84893">
        <ele>2799.5</ele>
        <time>2013-09-02T13:08:58Z</time>
      </trkpt>
      <trkpt lat="44.53613" lon="6.84872">
        <ele>2795.7</ele>
        <time>2013-09-02T13:09:09Z</time>
      </trkpt>
      <trkpt lat="44.53612" lon="6.84868">
        <ele>2795.7</ele>
        <time>2013-09-02T13:09:10Z</time>
      </trkpt>
      <trkpt lat="44.53608" lon="6.8486">
        <ele>2794.7</ele>
        <time>2013-09-02T13:09:12Z</time>
      </trkpt>
      <trkpt lat="44.53605" lon="6.84858">
        <ele>2794.7</ele>
        <time>2013-09-02T13:09:13Z</time>
      </trkpt>
      <trkpt lat="44.53603" lon="6.84856">
        <ele>2794.7</ele>
        <time>2013-09-02T13:09:14Z</time>
      </trkpt>
      <trkpt lat="44.53599" lon="6.84847">
        <ele>2793.3</ele>
        <time>2013-09-02T13:09:16Z</time>
      </trkpt>
      <trkpt lat="44.53593" lon="6.84844">
        <ele>2791.8</ele>
        <time>2013-09-02T13:09:19Z</time>
      </trkpt>
      <trkpt lat="44.53592" lon="6.84842">
        <ele>2791.8</ele>
        <time>2013-09-02T13:09:20Z</time>
      </trkpt>
      <trkpt lat="44.53584" lon="6.84832">
        <ele>2790.4</ele>
        <time>2013-09-02T13:09:25Z</time>
      </trkpt>
      <trkpt lat="44.5358" lon="6.84822">
        <ele>2790.8</ele>
        <time>2013-09-02T13:09:35Z</time>
      </trkpt>
      <trkpt lat="44.53576" lon="6.84819">
        <ele>2791.3</ele>
        <time>2013-09-02T13:10:02Z</time>
      </trkpt>
      <trkpt lat="44.53567" lon="6.84813">
        <ele>2792.3</ele>
        <time>2013-09-02T13:10:17Z</time>
      </trkpt>
      <trkpt lat="44.53564" lon="6.8481">
        <ele>2792.3</ele>
        <time>2013-09-02T13:10:24Z</time>
      </trkpt>
      <trkpt lat="44.53538" lon="6.84805">
        <ele>2794.2</ele>
        <time>2013-09-02T13:10:38Z</time>
      </trkpt>
      <trkpt lat="44.53529" lon="6.84799">
        <ele>2795.7</ele>
        <time>2013-09-02T13:10:46Z</time>
      </trkpt>
      <trkpt lat="44.53527" lon="6.84799">
        <ele>2795.7</ele>
        <time>2013-09-02T13:10:47Z</time>
      </trkpt>
      <trkpt lat="44.53526" lon="6.84801">
        <ele>2795.7</ele>
        <time>2013-09-02T13:10:57Z</time>
      </trkpt>
      <trkpt lat="44.53511" lon="6.84791">
        <ele>2796.6</ele>
        <time>2013-09-02T13:11:19Z</time>
      </trkpt>
      <trkpt lat="44.53484" lon="6.84782">
        <ele>2796.6</ele>
        <time>2013-09-02T13:11:31Z</time>
      </trkpt>
      <trkpt lat="44.53481" lon="6.84781">
        <ele>2796.6</ele>
        <time>2013-09-02T13:11:32Z</time>
      </trkpt>
      <trkpt lat="44.53462" lon="6.84776">
        <ele>2798.1</ele>
        <time>2013-09-02T13:11:41Z</time>
      </trkpt>
      <trkpt lat="44.53454" lon="6.84771">
        <ele>2798.5</ele>
        <time>2013-09-02T13:11:53Z</time>
      </trkpt>
      <trkpt lat="44.53449" lon="6.84771">
        <ele>2796.1</ele>
        <time>2013-09-02T13:12:07Z</time>
      </trkpt>
      <trkpt lat="44.53436" lon="6.84765">
        <ele>2794.7</ele>
        <time>2013-09-02T13:12:28Z</time>
      </trkpt>
      <trkpt lat="44.53423" lon="6.84758">
        <ele>2792.8</ele>
        <time>2013-09-02T13:12:32Z</time>
      </trkpt>
      <trkpt lat="44.53419" lon="6.84756">
        <ele>2792.3</ele>
        <time>2013-09-02T13:12:33Z</time>
      </trkpt>
      <trkpt lat="44.53411" lon="6.84752">
        <ele>2791.3</ele>
        <time>2013-09-02T13:12:35Z</time>
      </trkpt>
      <trkpt lat="44.5338" lon="6.84726">
        <ele>2791.3</ele>
        <time>2013-09-02T13:12:48Z</time>
      </trkpt>
      <trkpt lat="44.53374" lon="6.8472">
        <ele>2792.8</ele>
        <time>2013-09-02T13:12:52Z</time>
      </trkpt>
      <trkpt lat="44.53373" lon="6.84718">
        <ele>2791.8</ele>
        <time>2013-09-02T13:12:53Z</time>
      </trkpt>
      <trkpt lat="44.53372" lon="6.84717">
        <ele>2793.3</ele>
        <time>2013-09-02T13:12:54Z</time>
      </trkpt>
      <trkpt lat="44.53371" lon="6.84714">
        <ele>2792.8</ele>
        <time>2013-09-02T13:12:55Z</time>
      </trkpt>
      <trkpt lat="44.5337" lon="6.84712">
        <ele>2792.3</ele>
        <time>2013-09-02T13:12:56Z</time>
      </trkpt>
      <trkpt lat="44.5337" lon="6.84711">
        <ele>2792.3</ele>
        <time>2013-09-02T13:12:57Z</time>
      </trkpt>
      <trkpt lat="44.53366" lon="6.84704">
        <ele>2793.3</ele>
        <time>2013-09-02T13:13:01Z</time>
      </trkpt>
      <trkpt lat="44.53365" lon="6.84702">
        <ele>2793.3</ele>
        <time>2013-09-02T13:13:02Z</time>
      </trkpt>
      <trkpt lat="44.53364" lon="6.847">
        <ele>2793.3</ele>
        <time>2013-09-02T13:13:03Z</time>
      </trkpt>
      <trkpt lat="44.53344" lon="6.84672">
        <ele>2792.8</ele>
        <time>2013-09-02T13:13:16Z</time>
      </trkpt>
      <trkpt lat="44.53342" lon="6.84665">
        <ele>2791.8</ele>
        <time>2013-09-02T13:13:23Z</time>
      </trkpt>
      <trkpt lat="44.53341" lon="6.84665">
        <ele>2793.3</ele>
        <time>2013-09-02T13:13:24Z</time>
      </trkpt>
      <trkpt lat="44.5334" lon="6.84665">
        <ele>2791.3</ele>
        <time>2013-09-02T13:13:27Z</time>
      </trkpt>
      <trkpt lat="44.53338" lon="6.84663">
        <ele>2791.3</ele>
        <time>2013-09-02T13:13:32Z</time>
      </trkpt>
      <trkpt lat="44.53334" lon="6.84656">
        <ele>2789.9</ele>
        <time>2013-09-02T13:13:38Z</time>
      </trkpt>
      <trkpt lat="44.53333" lon="6.84638">
        <ele>2789.4</ele>
        <time>2013-09-02T13:13:54Z</time>
      </trkpt>
      <trkpt lat="44.53331" lon="6.84613">
        <ele>2785.6</ele>
        <time>2013-09-02T13:14:07Z</time>
      </trkpt>
      <trkpt lat="44.53331" lon="6.8461">
        <ele>2785.1</ele>
        <time>2013-09-02T13:14:09Z</time>
      </trkpt>
      <trkpt lat="44.5333" lon="6.84606">
        <ele>2784.6</ele>
        <time>2013-09-02T13:14:23Z</time>
      </trkpt>
      <trkpt lat="44.5333" lon="6.84599">
        <ele>2782.7</ele>
        <time>2013-09-02T13:14:35Z</time>
      </trkpt>
      <trkpt lat="44.5333" lon="6.84592">
        <ele>2781.7</ele>
        <time>2013-09-02T13:14:47Z</time>
      </trkpt>
      <trkpt lat="44.53329" lon="6.8459">
        <ele>2780.3</ele>
        <time>2013-09-02T13:14:51Z</time>
      </trkpt>
      <trkpt lat="44.53327" lon="6.84589">
        <ele>2778.4</ele>
        <time>2013-09-02T13:15:04Z</time>
      </trkpt>
      <trkpt lat="44.53326" lon="6.84587">
        <ele>2777.9</ele>
        <time>2013-09-02T13:15:09Z</time>
      </trkpt>
      <trkpt lat="44.53327" lon="6.84585">
        <ele>2777.4</ele>
        <time>2013-09-02T13:15:10Z</time>
      </trkpt>
      <trkpt lat="44.53321" lon="6.84562">
        <ele>2775.9</ele>
        <time>2013-09-02T13:15:16Z</time>
      </trkpt>
      <trkpt lat="44.53319" lon="6.84556">
        <ele>2775.9</ele>
        <time>2013-09-02T13:15:17Z</time>
      </trkpt>
      <trkpt lat="44.53318" lon="6.8455">
        <ele>2775</ele>
        <time>2013-09-02T13:15:18Z</time>
      </trkpt>
      <trkpt lat="44.53316" lon="6.84546">
        <ele>2775.5</ele>
        <time>2013-09-02T13:15:19Z</time>
      </trkpt>
      <trkpt lat="44.53313" lon="6.84541">
        <ele>2774.5</ele>
        <time>2013-09-02T13:15:20Z</time>
      </trkpt>
      <trkpt lat="44.53311" lon="6.84536">
        <ele>2773.5</ele>
        <time>2013-09-02T13:15:21Z</time>
      </trkpt>
      <trkpt lat="44.53305" lon="6.84509">
        <ele>2772.1</ele>
        <time>2013-09-02T13:15:26Z</time>
      </trkpt>
      <trkpt lat="44.53304" lon="6.84503">
        <ele>2771.1</ele>
        <time>2013-09-02T13:15:27Z</time>
      </trkpt>
      <trkpt lat="44.53303" lon="6.84497">
        <ele>2771.1</ele>
        <time>2013-09-02T13:15:28Z</time>
      </trkpt>
      <trkpt lat="44.53302" lon="6.84491">
        <ele>2770.7</ele>
        <time>2013-09-02T13:15:29Z</time>
      </trkpt>
      <trkpt lat="44.53302" lon="6.84485">
        <ele>2769.2</ele>
        <time>2013-09-02T13:15:30Z</time>
      </trkpt>
      <trkpt lat="44.53302" lon="6.8448">
        <ele>2768.3</ele>
        <time>2013-09-02T13:15:31Z</time>
      </trkpt>
      <trkpt lat="44.53302" lon="6.84476">
        <ele>2767.3</ele>
        <time>2013-09-02T13:15:32Z</time>
      </trkpt>
      <trkpt lat="44.53302" lon="6.84471">
        <ele>2766.8</ele>
        <time>2013-09-02T13:15:33Z</time>
      </trkpt>
      <trkpt lat="44.53301" lon="6.84467">
        <ele>2765.9</ele>
        <time>2013-09-02T13:15:34Z</time>
      </trkpt>
      <trkpt lat="44.53301" lon="6.84462">
        <ele>2765.9</ele>
        <time>2013-09-02T13:15:35Z</time>
      </trkpt>
      <trkpt lat="44.533" lon="6.84458">
        <ele>2764.4</ele>
        <time>2013-09-02T13:15:36Z</time>
      </trkpt>
      <trkpt lat="44.533" lon="6.84454">
        <ele>2763.9</ele>
        <time>2013-09-02T13:15:37Z</time>
      </trkpt>
      <trkpt lat="44.53299" lon="6.84451">
        <ele>2763.9</ele>
        <time>2013-09-02T13:15:38Z</time>
      </trkpt>
      <trkpt lat="44.53299" lon="6.84447">
        <ele>2763.5</ele>
        <time>2013-09-02T13:15:39Z</time>
      </trkpt>
      <trkpt lat="44.53298" lon="6.84442">
        <ele>2763</ele>
        <time>2013-09-02T13:15:40Z</time>
      </trkpt>
      <trkpt lat="44.53297" lon="6.84435">
        <ele>2762</ele>
        <time>2013-09-02T13:15:41Z</time>
      </trkpt>
      <trkpt lat="44.53297" lon="6.84428">
        <ele>2762.5</ele>
        <time>2013-09-02T13:15:42Z</time>
      </trkpt>
      <trkpt lat="44.53299" lon="6.84422">
        <ele>2762</ele>
        <time>2013-09-02T13:15:43Z</time>
      </trkpt>
      <trkpt lat="44.53301" lon="6.84417">
        <ele>2762.5</ele>
        <time>2013-09-02T13:15:44Z</time>
      </trkpt>
      <trkpt lat="44.53303" lon="6.84412">
        <ele>2762.5</ele>
        <time>2013-09-02T13:15:45Z</time>
      </trkpt>
      <trkpt lat="44.53304" lon="6.84409">
        <ele>2763</ele>
        <time>2013-09-02T13:15:46Z</time>
      </trkpt>
      <trkpt lat="44.53305" lon="6.84406">
        <ele>2763.5</ele>
        <time>2013-09-02T13:15:47Z</time>
      </trkpt>
      <trkpt lat="44.53305" lon="6.84403">
        <ele>2763</ele>
        <time>2013-09-02T13:15:48Z</time>
      </trkpt>
      <trkpt lat="44.53305" lon="6.844">
        <ele>2763.9</ele>
        <time>2013-09-02T13:15:49Z</time>
      </trkpt>
      <trkpt lat="44.53306" lon="6.84396">
        <ele>2763.5</ele>
        <time>2013-09-02T13:15:50Z</time>
      </trkpt>
      <trkpt lat="44.53307" lon="6.84393">
        <ele>2763</ele>
        <time>2013-09-02T13:15:51Z</time>
      </trkpt>
      <trkpt lat="44.53308" lon="6.84389">
        <ele>2763</ele>
        <time>2013-09-02T13:15:52Z</time>
      </trkpt>
      <trkpt lat="44.53309" lon="6.84383">
        <ele>2762</ele>
        <time>2013-09-02T13:15:55Z</time>
      </trkpt>
      <trkpt lat="44.53308" lon="6.84381">
        <ele>2761.5</ele>
        <time>2013-09-02T13:15:56Z</time>
      </trkpt>
      <trkpt lat="44.53308" lon="6.84378">
        <ele>2761</ele>
        <time>2013-09-02T13:15:57Z</time>
      </trkpt>
      <trkpt lat="44.53308" lon="6.84375">
        <ele>2760.6</ele>
        <time>2013-09-02T13:15:58Z</time>
      </trkpt>
      <trkpt lat="44.53307" lon="6.84371">
        <ele>2759.6</ele>
        <time>2013-09-02T13:15:59Z</time>
      </trkpt>
      <trkpt lat="44.53306" lon="6.84367">
        <ele>2759.6</ele>
        <time>2013-09-02T13:16:00Z</time>
      </trkpt>
      <trkpt lat="44.53304" lon="6.84364">
        <ele>2758.6</ele>
        <time>2013-09-02T13:16:01Z</time>
      </trkpt>
      <trkpt lat="44.533" lon="6.8435">
        <ele>2754.8</ele>
        <time>2013-09-02T13:16:05Z</time>
      </trkpt>
      <trkpt lat="44.533" lon="6.84348">
        <ele>2754.8</ele>
        <time>2013-09-02T13:16:06Z</time>
      </trkpt>
      <trkpt lat="44.53301" lon="6.84344">
        <ele>2753.4</ele>
        <time>2013-09-02T13:16:20Z</time>
      </trkpt>
      <trkpt lat="44.53303" lon="6.84332">
        <ele>2750.5</ele>
        <time>2013-09-02T13:16:32Z</time>
      </trkpt>
      <trkpt lat="44.53299" lon="6.84323">
        <ele>2747.1</ele>
        <time>2013-09-02T13:16:42Z</time>
      </trkpt>
      <trkpt lat="44.53298" lon="6.84322">
        <ele>2747.1</ele>
        <time>2013-09-02T13:16:43Z</time>
      </trkpt>
      <trkpt lat="44.53298" lon="6.84321">
        <ele>2746.1</ele>
        <time>2013-09-02T13:16:44Z</time>
      </trkpt>
      <trkpt lat="44.53297" lon="6.8432">
        <ele>2746.1</ele>
        <time>2013-09-02T13:16:45Z</time>
      </trkpt>
      <trkpt lat="44.53289" lon="6.84315">
        <ele>2743.3</ele>
        <time>2013-09-02T13:16:54Z</time>
      </trkpt>
      <trkpt lat="44.53288" lon="6.84316">
        <ele>2742.3</ele>
        <time>2013-09-02T13:16:55Z</time>
      </trkpt>
      <trkpt lat="44.53287" lon="6.84316">
        <ele>2742.3</ele>
        <time>2013-09-02T13:16:56Z</time>
      </trkpt>
      <trkpt lat="44.53286" lon="6.84316">
        <ele>2741.8</ele>
        <time>2013-09-02T13:16:57Z</time>
      </trkpt>
      <trkpt lat="44.53285" lon="6.84315">
        <ele>2741.3</ele>
        <time>2013-09-02T13:16:58Z</time>
      </trkpt>
      <trkpt lat="44.53287" lon="6.84311">
        <ele>2740.4</ele>
        <time>2013-09-02T13:17:06Z</time>
      </trkpt>
      <trkpt lat="44.53289" lon="6.84303">
        <ele>2739.4</ele>
        <time>2013-09-02T13:17:17Z</time>
      </trkpt>
      <trkpt lat="44.53288" lon="6.843">
        <ele>2739.4</ele>
        <time>2013-09-02T13:17:18Z</time>
      </trkpt>
      <trkpt lat="44.53287" lon="6.84296">
        <ele>2738.9</ele>
        <time>2013-09-02T13:17:19Z</time>
      </trkpt>
      <trkpt lat="44.53286" lon="6.84293">
        <ele>2738</ele>
        <time>2013-09-02T13:17:20Z</time>
      </trkpt>
      <trkpt lat="44.53286" lon="6.84289">
        <ele>2737</ele>
        <time>2013-09-02T13:17:21Z</time>
      </trkpt>
      <trkpt lat="44.53286" lon="6.84285">
        <ele>2737</ele>
        <time>2013-09-02T13:17:22Z</time>
      </trkpt>
      <trkpt lat="44.53287" lon="6.84284">
        <ele>2736.1</ele>
        <time>2013-09-02T13:17:23Z</time>
      </trkpt>
      <trkpt lat="44.5329" lon="6.8428">
        <ele>2735.6</ele>
        <time>2013-09-02T13:17:35Z</time>
      </trkpt>
      <trkpt lat="44.53297" lon="6.84269">
        <ele>2735.6</ele>
        <time>2013-09-02T13:17:52Z</time>
      </trkpt>
      <trkpt lat="44.53303" lon="6.84258">
        <ele>2734.1</ele>
        <time>2013-09-02T13:17:58Z</time>
      </trkpt>
      <trkpt lat="44.53303" lon="6.84255">
        <ele>2733.2</ele>
        <time>2013-09-02T13:17:59Z</time>
      </trkpt>
      <trkpt lat="44.53302" lon="6.84252">
        <ele>2732.7</ele>
        <time>2013-09-02T13:18:00Z</time>
      </trkpt>
      <trkpt lat="44.53297" lon="6.84249">
        <ele>2731.7</ele>
        <time>2013-09-02T13:18:02Z</time>
      </trkpt>
      <trkpt lat="44.53296" lon="6.84245">
        <ele>2731.7</ele>
        <time>2013-09-02T13:18:03Z</time>
      </trkpt>
      <trkpt lat="44.53295" lon="6.84241">
        <ele>2731.7</ele>
        <time>2013-09-02T13:18:04Z</time>
      </trkpt>
      <trkpt lat="44.53293" lon="6.84238">
        <ele>2731.2</ele>
        <time>2013-09-02T13:18:05Z</time>
      </trkpt>
      <trkpt lat="44.53291" lon="6.84236">
        <ele>2731.7</ele>
        <time>2013-09-02T13:18:06Z</time>
      </trkpt>
      <trkpt lat="44.53292" lon="6.8421">
        <ele>2730.3</ele>
        <time>2013-09-02T13:18:13Z</time>
      </trkpt>
      <trkpt lat="44.53294" lon="6.84208">
        <ele>2729.3</ele>
        <time>2013-09-02T13:18:14Z</time>
      </trkpt>
      <trkpt lat="44.53297" lon="6.84206">
        <ele>2728.8</ele>
        <time>2013-09-02T13:18:15Z</time>
      </trkpt>
      <trkpt lat="44.53299" lon="6.84205">
        <ele>2728.4</ele>
        <time>2013-09-02T13:18:16Z</time>
      </trkpt>
      <trkpt lat="44.53302" lon="6.84204">
        <ele>2728.4</ele>
        <time>2013-09-02T13:18:17Z</time>
      </trkpt>
      <trkpt lat="44.53304" lon="6.84201">
        <ele>2726.9</ele>
        <time>2013-09-02T13:18:18Z</time>
      </trkpt>
      <trkpt lat="44.53307" lon="6.84197">
        <ele>2726.4</ele>
        <time>2013-09-02T13:18:19Z</time>
      </trkpt>
      <trkpt lat="44.53314" lon="6.84187">
        <ele>2723.1</ele>
        <time>2013-09-02T13:18:22Z</time>
      </trkpt>
      <trkpt lat="44.53316" lon="6.84184">
        <ele>2722.6</ele>
        <time>2013-09-02T13:18:23Z</time>
      </trkpt>
      <trkpt lat="44.53323" lon="6.84174">
        <ele>2721.2</ele>
        <time>2013-09-02T13:18:26Z</time>
      </trkpt>
      <trkpt lat="44.53336" lon="6.84163">
        <ele>2717.3</ele>
        <time>2013-09-02T13:18:31Z</time>
      </trkpt>
      <trkpt lat="44.53338" lon="6.8416">
        <ele>2716.8</ele>
        <time>2013-09-02T13:18:32Z</time>
      </trkpt>
      <trkpt lat="44.5334" lon="6.84157">
        <ele>2715.9</ele>
        <time>2013-09-02T13:18:33Z</time>
      </trkpt>
      <trkpt lat="44.53341" lon="6.84154">
        <ele>2715.4</ele>
        <time>2013-09-02T13:18:34Z</time>
      </trkpt>
      <trkpt lat="44.53342" lon="6.84151">
        <ele>2714.9</ele>
        <time>2013-09-02T13:18:35Z</time>
      </trkpt>
      <trkpt lat="44.53344" lon="6.84149">
        <ele>2714.4</ele>
        <time>2013-09-02T13:18:36Z</time>
      </trkpt>
      <trkpt lat="44.53346" lon="6.84148">
        <ele>2713.9</ele>
        <time>2013-09-02T13:18:37Z</time>
      </trkpt>
      <trkpt lat="44.53349" lon="6.84147">
        <ele>2713</ele>
        <time>2013-09-02T13:18:38Z</time>
      </trkpt>
      <trkpt lat="44.53352" lon="6.84144">
        <ele>2712</ele>
        <time>2013-09-02T13:18:39Z</time>
      </trkpt>
      <trkpt lat="44.53354" lon="6.8414">
        <ele>2711.5</ele>
        <time>2013-09-02T13:18:40Z</time>
      </trkpt>
      <trkpt lat="44.53356" lon="6.84134">
        <ele>2710.6</ele>
        <time>2013-09-02T13:18:41Z</time>
      </trkpt>
      <trkpt lat="44.53357" lon="6.84129">
        <ele>2710.6</ele>
        <time>2013-09-02T13:18:42Z</time>
      </trkpt>
      <trkpt lat="44.53358" lon="6.84122">
        <ele>2709.6</ele>
        <time>2013-09-02T13:18:43Z</time>
      </trkpt>
      <trkpt lat="44.53358" lon="6.84108">
        <ele>2708.2</ele>
        <time>2013-09-02T13:18:45Z</time>
      </trkpt>
      <trkpt lat="44.53356" lon="6.84102">
        <ele>2707.2</ele>
        <time>2013-09-02T13:18:46Z</time>
      </trkpt>
      <trkpt lat="44.53353" lon="6.84098">
        <ele>2706.3</ele>
        <time>2013-09-02T13:18:47Z</time>
      </trkpt>
      <trkpt lat="44.53351" lon="6.84095">
        <ele>2706.3</ele>
        <time>2013-09-02T13:18:48Z</time>
      </trkpt>
      <trkpt lat="44.53346" lon="6.84088">
        <ele>2703.9</ele>
        <time>2013-09-02T13:18:50Z</time>
      </trkpt>
      <trkpt lat="44.53342" lon="6.84084">
        <ele>2703.4</ele>
        <time>2013-09-02T13:18:51Z</time>
      </trkpt>
      <trkpt lat="44.53338" lon="6.84079">
        <ele>2701.9</ele>
        <time>2013-09-02T13:18:52Z</time>
      </trkpt>
      <trkpt lat="44.53335" lon="6.84074">
        <ele>2702.4</ele>
        <time>2013-09-02T13:18:53Z</time>
      </trkpt>
      <trkpt lat="44.53331" lon="6.84069">
        <ele>2702.4</ele>
        <time>2013-09-02T13:18:54Z</time>
      </trkpt>
      <trkpt lat="44.53328" lon="6.84064">
        <ele>2701.4</ele>
        <time>2013-09-02T13:18:55Z</time>
      </trkpt>
      <trkpt lat="44.53311" lon="6.84026">
        <ele>2701</ele>
        <time>2013-09-02T13:19:05Z</time>
      </trkpt>
      <trkpt lat="44.5331" lon="6.84014">
        <ele>2699.5</ele>
        <time>2013-09-02T13:19:09Z</time>
      </trkpt>
      <trkpt lat="44.53309" lon="6.84009">
        <ele>2697.1</ele>
        <time>2013-09-02T13:19:19Z</time>
      </trkpt>
      <trkpt lat="44.53303" lon="6.84011">
        <ele>2695.7</ele>
        <time>2013-09-02T13:19:31Z</time>
      </trkpt>
      <trkpt lat="44.53303" lon="6.84006">
        <ele>2694.2</ele>
        <time>2013-09-02T13:19:44Z</time>
      </trkpt>
      <trkpt lat="44.53299" lon="6.83997">
        <ele>2691.4</ele>
        <time>2013-09-02T13:19:56Z</time>
      </trkpt>
      <trkpt lat="44.53299" lon="6.83995">
        <ele>2690.4</ele>
        <time>2013-09-02T13:19:58Z</time>
      </trkpt>
      <trkpt lat="44.53297" lon="6.83995">
        <ele>2688.5</ele>
        <time>2013-09-02T13:20:02Z</time>
      </trkpt>
      <trkpt lat="44.53296" lon="6.83996">
        <ele>2688.9</ele>
        <time>2013-09-02T13:20:05Z</time>
      </trkpt>
      <trkpt lat="44.53294" lon="6.83998">
        <ele>2688.9</ele>
        <time>2013-09-02T13:20:06Z</time>
      </trkpt>
      <trkpt lat="44.53285" lon="6.84009">
        <ele>2685.6</ele>
        <time>2013-09-02T13:20:10Z</time>
      </trkpt>
      <trkpt lat="44.53283" lon="6.84008">
        <ele>2685.1</ele>
        <time>2013-09-02T13:20:11Z</time>
      </trkpt>
      <trkpt lat="44.53282" lon="6.84006">
        <ele>2684.6</ele>
        <time>2013-09-02T13:20:12Z</time>
      </trkpt>
      <trkpt lat="44.53282" lon="6.84003">
        <ele>2684.1</ele>
        <time>2013-09-02T13:20:13Z</time>
      </trkpt>
      <trkpt lat="44.53283" lon="6.83999">
        <ele>2684.1</ele>
        <time>2013-09-02T13:20:14Z</time>
      </trkpt>
      <trkpt lat="44.53284" lon="6.83996">
        <ele>2683.7</ele>
        <time>2013-09-02T13:20:15Z</time>
      </trkpt>
      <trkpt lat="44.53286" lon="6.83991">
        <ele>2683.2</ele>
        <time>2013-09-02T13:20:16Z</time>
      </trkpt>
      <trkpt lat="44.53288" lon="6.83987">
        <ele>2682.7</ele>
        <time>2013-09-02T13:20:17Z</time>
      </trkpt>
      <trkpt lat="44.53289" lon="6.83981">
        <ele>2682.7</ele>
        <time>2013-09-02T13:20:18Z</time>
      </trkpt>
      <trkpt lat="44.5329" lon="6.83977">
        <ele>2681.3</ele>
        <time>2013-09-02T13:20:19Z</time>
      </trkpt>
      <trkpt lat="44.53291" lon="6.83972">
        <ele>2681.3</ele>
        <time>2013-09-02T13:20:20Z</time>
      </trkpt>
      <trkpt lat="44.53291" lon="6.83968">
        <ele>2680.8</ele>
        <time>2013-09-02T13:20:21Z</time>
      </trkpt>
      <trkpt lat="44.5329" lon="6.83965">
        <ele>2680.3</ele>
        <time>2013-09-02T13:20:22Z</time>
      </trkpt>
      <trkpt lat="44.53289" lon="6.83963">
        <ele>2679.8</ele>
        <time>2013-09-02T13:20:23Z</time>
      </trkpt>
      <trkpt lat="44.53287" lon="6.83957">
        <ele>2678.9</ele>
        <time>2013-09-02T13:20:25Z</time>
      </trkpt>
      <trkpt lat="44.53286" lon="6.83954">
        <ele>2678.4</ele>
        <time>2013-09-02T13:20:26Z</time>
      </trkpt>
      <trkpt lat="44.53284" lon="6.8395">
        <ele>2678.4</ele>
        <time>2013-09-02T13:20:27Z</time>
      </trkpt>
      <trkpt lat="44.5328" lon="6.83937">
        <ele>2674.5</ele>
        <time>2013-09-02T13:20:30Z</time>
      </trkpt>
      <trkpt lat="44.53279" lon="6.83932">
        <ele>2674</ele>
        <time>2013-09-02T13:20:31Z</time>
      </trkpt>
      <trkpt lat="44.53279" lon="6.83928">
        <ele>2674</ele>
        <time>2013-09-02T13:20:32Z</time>
      </trkpt>
      <trkpt lat="44.53269" lon="6.83901">
        <ele>2670.2</ele>
        <time>2013-09-02T13:20:40Z</time>
      </trkpt>
      <trkpt lat="44.53268" lon="6.83898">
        <ele>2669.7</ele>
        <time>2013-09-02T13:20:41Z</time>
      </trkpt>
      <trkpt lat="44.53268" lon="6.83895">
        <ele>2669.7</ele>
        <time>2013-09-02T13:20:42Z</time>
      </trkpt>
      <trkpt lat="44.53268" lon="6.83892">
        <ele>2669.2</ele>
        <time>2013-09-02T13:20:43Z</time>
      </trkpt>
      <trkpt lat="44.53269" lon="6.83889">
        <ele>2669.2</ele>
        <time>2013-09-02T13:20:44Z</time>
      </trkpt>
      <trkpt lat="44.53269" lon="6.83887">
        <ele>2668.8</ele>
        <time>2013-09-02T13:20:45Z</time>
      </trkpt>
      <trkpt lat="44.53268" lon="6.83886">
        <ele>2668.3</ele>
        <time>2013-09-02T13:20:52Z</time>
      </trkpt>
      <trkpt lat="44.53267" lon="6.83884">
        <ele>2668.3</ele>
        <time>2013-09-02T13:20:53Z</time>
      </trkpt>
      <trkpt lat="44.53267" lon="6.83882">
        <ele>2667.8</ele>
        <time>2013-09-02T13:20:54Z</time>
      </trkpt>
      <trkpt lat="44.53266" lon="6.8388">
        <ele>2667.8</ele>
        <time>2013-09-02T13:20:55Z</time>
      </trkpt>
      <trkpt lat="44.53266" lon="6.83877">
        <ele>2667.8</ele>
        <time>2013-09-02T13:20:56Z</time>
      </trkpt>
      <trkpt lat="44.53267" lon="6.83875">
        <ele>2667.3</ele>
        <time>2013-09-02T13:20:57Z</time>
      </trkpt>
      <trkpt lat="44.53269" lon="6.83873">
        <ele>2666.8</ele>
        <time>2013-09-02T13:20:58Z</time>
      </trkpt>
      <trkpt lat="44.5327" lon="6.83871">
        <ele>2666.8</ele>
        <time>2013-09-02T13:20:59Z</time>
      </trkpt>
      <trkpt lat="44.53273" lon="6.83863">
        <ele>2665.9</ele>
        <time>2013-09-02T13:21:07Z</time>
      </trkpt>
      <trkpt lat="44.53273" lon="6.83861">
        <ele>2665.9</ele>
        <time>2013-09-02T13:21:08Z</time>
      </trkpt>
      <trkpt lat="44.53272" lon="6.83857">
        <ele>2665.4</ele>
        <time>2013-09-02T13:21:09Z</time>
      </trkpt>
      <trkpt lat="44.53272" lon="6.83854">
        <ele>2664.4</ele>
        <time>2013-09-02T13:21:10Z</time>
      </trkpt>
      <trkpt lat="44.53271" lon="6.8385">
        <ele>2663.5</ele>
        <time>2013-09-02T13:21:11Z</time>
      </trkpt>
      <trkpt lat="44.5327" lon="6.83846">
        <ele>2663.5</ele>
        <time>2013-09-02T13:21:12Z</time>
      </trkpt>
      <trkpt lat="44.5327" lon="6.83843">
        <ele>2662</ele>
        <time>2013-09-02T13:21:13Z</time>
      </trkpt>
      <trkpt lat="44.53269" lon="6.8384">
        <ele>2662</ele>
        <time>2013-09-02T13:21:14Z</time>
      </trkpt>
      <trkpt lat="44.53268" lon="6.83837">
        <ele>2661.1</ele>
        <time>2013-09-02T13:21:16Z</time>
      </trkpt>
      <trkpt lat="44.53266" lon="6.83837">
        <ele>2659.1</ele>
        <time>2013-09-02T13:21:17Z</time>
      </trkpt>
      <trkpt lat="44.53264" lon="6.83838">
        <ele>2659.1</ele>
        <time>2013-09-02T13:21:18Z</time>
      </trkpt>
      <trkpt lat="44.53262" lon="6.83839">
        <ele>2658.2</ele>
        <time>2013-09-02T13:21:19Z</time>
      </trkpt>
      <trkpt lat="44.53261" lon="6.83841">
        <ele>2657.2</ele>
        <time>2013-09-02T13:21:20Z</time>
      </trkpt>
      <trkpt lat="44.5326" lon="6.8384">
        <ele>2656.7</ele>
        <time>2013-09-02T13:21:21Z</time>
      </trkpt>
      <trkpt lat="44.53259" lon="6.83838">
        <ele>2656.3</ele>
        <time>2013-09-02T13:21:22Z</time>
      </trkpt>
      <trkpt lat="44.53259" lon="6.83835">
        <ele>2655.8</ele>
        <time>2013-09-02T13:21:23Z</time>
      </trkpt>
      <trkpt lat="44.53258" lon="6.83832">
        <ele>2655.3</ele>
        <time>2013-09-02T13:21:24Z</time>
      </trkpt>
      <trkpt lat="44.53258" lon="6.83829">
        <ele>2654.8</ele>
        <time>2013-09-02T13:21:25Z</time>
      </trkpt>
      <trkpt lat="44.53257" lon="6.83824">
        <ele>2652.9</ele>
        <time>2013-09-02T13:21:28Z</time>
      </trkpt>
      <trkpt lat="44.53256" lon="6.83823">
        <ele>2652.9</ele>
        <time>2013-09-02T13:21:29Z</time>
      </trkpt>
      <trkpt lat="44.53255" lon="6.83822">
        <ele>2652.9</ele>
        <time>2013-09-02T13:21:30Z</time>
      </trkpt>
      <trkpt lat="44.53253" lon="6.8382">
        <ele>2651.9</ele>
        <time>2013-09-02T13:21:31Z</time>
      </trkpt>
      <trkpt lat="44.5325" lon="6.83818">
        <ele>2652.4</ele>
        <time>2013-09-02T13:21:32Z</time>
      </trkpt>
      <trkpt lat="44.53247" lon="6.83817">
        <ele>2651.5</ele>
        <time>2013-09-02T13:21:33Z</time>
      </trkpt>
      <trkpt lat="44.53245" lon="6.83816">
        <ele>2651</ele>
        <time>2013-09-02T13:21:34Z</time>
      </trkpt>
      <trkpt lat="44.53244" lon="6.83813">
        <ele>2651</ele>
        <time>2013-09-02T13:21:35Z</time>
      </trkpt>
      <trkpt lat="44.53243" lon="6.83809">
        <ele>2650.5</ele>
        <time>2013-09-02T13:21:36Z</time>
      </trkpt>
      <trkpt lat="44.53242" lon="6.83806">
        <ele>2650</ele>
        <time>2013-09-02T13:21:37Z</time>
      </trkpt>
      <trkpt lat="44.53241" lon="6.83802">
        <ele>2649.5</ele>
        <time>2013-09-02T13:21:38Z</time>
      </trkpt>
      <trkpt lat="44.53239" lon="6.83797">
        <ele>2649.1</ele>
        <time>2013-09-02T13:21:39Z</time>
      </trkpt>
      <trkpt lat="44.53237" lon="6.83793">
        <ele>2648.6</ele>
        <time>2013-09-02T13:21:40Z</time>
      </trkpt>
      <trkpt lat="44.53235" lon="6.83788">
        <ele>2648.6</ele>
        <time>2013-09-02T13:21:41Z</time>
      </trkpt>
      <trkpt lat="44.53233" lon="6.83785">
        <ele>2647.6</ele>
        <time>2013-09-02T13:21:42Z</time>
      </trkpt>
      <trkpt lat="44.5323" lon="6.83782">
        <ele>2647.1</ele>
        <time>2013-09-02T13:21:43Z</time>
      </trkpt>
      <trkpt lat="44.53224" lon="6.8377">
        <ele>2643.3</ele>
        <time>2013-09-02T13:21:47Z</time>
      </trkpt>
      <trkpt lat="44.53222" lon="6.83761">
        <ele>2642.3</ele>
        <time>2013-09-02T13:21:50Z</time>
      </trkpt>
      <trkpt lat="44.53221" lon="6.83754">
        <ele>2640.9</ele>
        <time>2013-09-02T13:21:52Z</time>
      </trkpt>
      <trkpt lat="44.5322" lon="6.83744">
        <ele>2639.4</ele>
        <time>2013-09-02T13:21:55Z</time>
      </trkpt>
      <trkpt lat="44.53219" lon="6.83741">
        <ele>2639</ele>
        <time>2013-09-02T13:21:56Z</time>
      </trkpt>
      <trkpt lat="44.53217" lon="6.83739">
        <ele>2639.4</ele>
        <time>2013-09-02T13:21:57Z</time>
      </trkpt>
      <trkpt lat="44.53215" lon="6.83737">
        <ele>2639</ele>
        <time>2013-09-02T13:21:58Z</time>
      </trkpt>
      <trkpt lat="44.53213" lon="6.83736">
        <ele>2638.5</ele>
        <time>2013-09-02T13:21:59Z</time>
      </trkpt>
      <trkpt lat="44.53211" lon="6.83736">
        <ele>2639</ele>
        <time>2013-09-02T13:22:00Z</time>
      </trkpt>
      <trkpt lat="44.53209" lon="6.83736">
        <ele>2639.9</ele>
        <time>2013-09-02T13:22:01Z</time>
      </trkpt>
      <trkpt lat="44.53188" lon="6.83727">
        <ele>2639.4</ele>
        <time>2013-09-02T13:22:10Z</time>
      </trkpt>
      <trkpt lat="44.53184" lon="6.83725">
        <ele>2639</ele>
        <time>2013-09-02T13:22:11Z</time>
      </trkpt>
      <trkpt lat="44.53137" lon="6.83696">
        <ele>2635.1</ele>
        <time>2013-09-02T13:22:20Z</time>
      </trkpt>
      <trkpt lat="44.53133" lon="6.83694">
        <ele>2635.1</ele>
        <time>2013-09-02T13:22:21Z</time>
      </trkpt>
      <trkpt lat="44.53122" lon="6.83679">
        <ele>2632.7</ele>
        <time>2013-09-02T13:22:26Z</time>
      </trkpt>
      <trkpt lat="44.53112" lon="6.83664">
        <ele>2629.8</ele>
        <time>2013-09-02T13:22:31Z</time>
      </trkpt>
      <trkpt lat="44.53111" lon="6.8366">
        <ele>2629.3</ele>
        <time>2013-09-02T13:22:32Z</time>
      </trkpt>
      <trkpt lat="44.53111" lon="6.83658">
        <ele>2628.9</ele>
        <time>2013-09-02T13:22:33Z</time>
      </trkpt>
      <trkpt lat="44.53109" lon="6.83656">
        <ele>2629.3</ele>
        <time>2013-09-02T13:22:38Z</time>
      </trkpt>
      <trkpt lat="44.53108" lon="6.83655">
        <ele>2627.9</ele>
        <time>2013-09-02T13:22:39Z</time>
      </trkpt>
      <trkpt lat="44.53084" lon="6.83632">
        <ele>2627.4</ele>
        <time>2013-09-02T13:22:50Z</time>
      </trkpt>
      <trkpt lat="44.53053" lon="6.8362">
        <ele>2626.9</ele>
        <time>2013-09-02T13:23:03Z</time>
      </trkpt>
      <trkpt lat="44.53031" lon="6.83604">
        <ele>2628.9</ele>
        <time>2013-09-02T13:23:15Z</time>
      </trkpt>
      <trkpt lat="44.53015" lon="6.8359">
        <ele>2629.8</ele>
        <time>2013-09-02T13:23:28Z</time>
      </trkpt>
      <trkpt lat="44.53015" lon="6.83591">
        <ele>2625.5</ele>
        <time>2013-09-02T13:23:34Z</time>
      </trkpt>
      <trkpt lat="44.53014" lon="6.8359">
        <ele>2626.9</ele>
        <time>2013-09-02T13:23:35Z</time>
      </trkpt>
      <trkpt lat="44.53014" lon="6.8359">
        <ele>2626.9</ele>
        <time>2013-09-02T13:23:36Z</time>
      </trkpt>
      <trkpt lat="44.53005" lon="6.83569">
        <ele>2612</ele>
        <time>2013-09-02T13:42:07Z</time>
      </trkpt>
      <trkpt lat="44.53006" lon="6.83567">
        <ele>2613.5</ele>
        <time>2013-09-02T13:42:08Z</time>
      </trkpt>
      <trkpt lat="44.53003" lon="6.83562">
        <ele>2612.5</ele>
        <time>2013-09-02T13:42:09Z</time>
      </trkpt>
      <trkpt lat="44.53001" lon="6.83559">
        <ele>2612.5</ele>
        <time>2013-09-02T13:42:10Z</time>
      </trkpt>
      <trkpt lat="44.53" lon="6.83556">
        <ele>2613.5</ele>
        <time>2013-09-02T13:42:12Z</time>
      </trkpt>
      <trkpt lat="44.52989" lon="6.83539">
        <ele>2614</ele>
        <time>2013-09-02T13:42:19Z</time>
      </trkpt>
      <trkpt lat="44.52989" lon="6.83536">
        <ele>2614.9</ele>
        <time>2013-09-02T13:42:20Z</time>
      </trkpt>
      <trkpt lat="44.52988" lon="6.83534">
        <ele>2615.9</ele>
        <time>2013-09-02T13:42:21Z</time>
      </trkpt>
      <trkpt lat="44.52988" lon="6.83533">
        <ele>2615.4</ele>
        <time>2013-09-02T13:42:22Z</time>
      </trkpt>
      <trkpt lat="44.52989" lon="6.83531">
        <ele>2615.9</ele>
        <time>2013-09-02T13:42:23Z</time>
      </trkpt>
      <trkpt lat="44.52989" lon="6.83529">
        <ele>2615.9</ele>
        <time>2013-09-02T13:42:24Z</time>
      </trkpt>
      <trkpt lat="44.52988" lon="6.83526">
        <ele>2616.4</ele>
        <time>2013-09-02T13:42:25Z</time>
      </trkpt>
      <trkpt lat="44.52988" lon="6.83524">
        <ele>2616.9</ele>
        <time>2013-09-02T13:42:26Z</time>
      </trkpt>
      <trkpt lat="44.52988" lon="6.83522">
        <ele>2617.3</ele>
        <time>2013-09-02T13:42:27Z</time>
      </trkpt>
      <trkpt lat="44.52988" lon="6.83509">
        <ele>2620.7</ele>
        <time>2013-09-02T13:42:36Z</time>
      </trkpt>
      <trkpt lat="44.5299" lon="6.83506">
        <ele>2623.6</ele>
        <time>2013-09-02T13:42:43Z</time>
      </trkpt>
      <trkpt lat="44.52992" lon="6.83503">
        <ele>2624.1</ele>
        <time>2013-09-02T13:42:47Z</time>
      </trkpt>
      <trkpt lat="44.52992" lon="6.83495">
        <ele>2627.4</ele>
        <time>2013-09-02T13:42:56Z</time>
      </trkpt>
      <trkpt lat="44.52994" lon="6.8348">
        <ele>2630.8</ele>
        <time>2013-09-02T13:43:10Z</time>
      </trkpt>
      <trkpt lat="44.52989" lon="6.83475">
        <ele>2632.2</ele>
        <time>2013-09-02T13:43:24Z</time>
      </trkpt>
      <trkpt lat="44.52987" lon="6.83471">
        <ele>2633.2</ele>
        <time>2013-09-02T13:43:34Z</time>
      </trkpt>
      <trkpt lat="44.52977" lon="6.83456">
        <ele>2632.2</ele>
        <time>2013-09-02T13:43:44Z</time>
      </trkpt>
      <trkpt lat="44.52975" lon="6.83456">
        <ele>2631.8</ele>
        <time>2013-09-02T13:43:49Z</time>
      </trkpt>
      <trkpt lat="44.52973" lon="6.83454">
        <ele>2630.8</ele>
        <time>2013-09-02T13:43:50Z</time>
      </trkpt>
      <trkpt lat="44.52972" lon="6.83452">
        <ele>2631.3</ele>
        <time>2013-09-02T13:43:51Z</time>
      </trkpt>
      <trkpt lat="44.5297" lon="6.8345">
        <ele>2630.3</ele>
        <time>2013-09-02T13:43:52Z</time>
      </trkpt>
      <trkpt lat="44.52969" lon="6.83448">
        <ele>2629.8</ele>
        <time>2013-09-02T13:43:53Z</time>
      </trkpt>
      <trkpt lat="44.52967" lon="6.83446">
        <ele>2629.3</ele>
        <time>2013-09-02T13:43:54Z</time>
      </trkpt>
      <trkpt lat="44.52966" lon="6.83444">
        <ele>2628.9</ele>
        <time>2013-09-02T13:43:55Z</time>
      </trkpt>
      <trkpt lat="44.52964" lon="6.83442">
        <ele>2628.4</ele>
        <time>2013-09-02T13:43:56Z</time>
      </trkpt>
      <trkpt lat="44.52962" lon="6.83441">
        <ele>2627.9</ele>
        <time>2013-09-02T13:43:57Z</time>
      </trkpt>
      <trkpt lat="44.5296" lon="6.83441">
        <ele>2627.4</ele>
        <time>2013-09-02T13:43:58Z</time>
      </trkpt>
      <trkpt lat="44.52954" lon="6.83439">
        <ele>2625.5</ele>
        <time>2013-09-02T13:44:01Z</time>
      </trkpt>
      <trkpt lat="44.52953" lon="6.83439">
        <ele>2625.5</ele>
        <time>2013-09-02T13:44:02Z</time>
      </trkpt>
      <trkpt lat="44.52951" lon="6.83439">
        <ele>2626</ele>
        <time>2013-09-02T13:44:03Z</time>
      </trkpt>
      <trkpt lat="44.52947" lon="6.83438">
        <ele>2625</ele>
        <time>2013-09-02T13:44:13Z</time>
      </trkpt>
      <trkpt lat="44.52933" lon="6.8343">
        <ele>2622.1</ele>
        <time>2013-09-02T13:44:23Z</time>
      </trkpt>
      <trkpt lat="44.5293" lon="6.83428">
        <ele>2621.2</ele>
        <time>2013-09-02T13:44:25Z</time>
      </trkpt>
      <trkpt lat="44.52928" lon="6.83426">
        <ele>2620.2</ele>
        <time>2013-09-02T13:44:27Z</time>
      </trkpt>
      <trkpt lat="44.52927" lon="6.83424">
        <ele>2619.7</ele>
        <time>2013-09-02T13:44:28Z</time>
      </trkpt>
      <trkpt lat="44.52923" lon="6.8342">
        <ele>2617.8</ele>
        <time>2013-09-02T13:44:31Z</time>
      </trkpt>
      <trkpt lat="44.52921" lon="6.8342">
        <ele>2617.3</ele>
        <time>2013-09-02T13:44:32Z</time>
      </trkpt>
      <trkpt lat="44.52919" lon="6.83421">
        <ele>2616.9</ele>
        <time>2013-09-02T13:44:33Z</time>
      </trkpt>
      <trkpt lat="44.52911" lon="6.8342">
        <ele>2614.9</ele>
        <time>2013-09-02T13:44:37Z</time>
      </trkpt>
      <trkpt lat="44.52909" lon="6.83419">
        <ele>2614.9</ele>
        <time>2013-09-02T13:44:38Z</time>
      </trkpt>
      <trkpt lat="44.52907" lon="6.83417">
        <ele>2614.4</ele>
        <time>2013-09-02T13:44:39Z</time>
      </trkpt>
      <trkpt lat="44.52905" lon="6.83416">
        <ele>2613.5</ele>
        <time>2013-09-02T13:44:40Z</time>
      </trkpt>
      <trkpt lat="44.52902" lon="6.83415">
        <ele>2613</ele>
        <time>2013-09-02T13:44:41Z</time>
      </trkpt>
      <trkpt lat="44.529" lon="6.83414">
        <ele>2612.5</ele>
        <time>2013-09-02T13:44:42Z</time>
      </trkpt>
      <trkpt lat="44.52897" lon="6.83413">
        <ele>2612.5</ele>
        <time>2013-09-02T13:44:43Z</time>
      </trkpt>
      <trkpt lat="44.52895" lon="6.83411">
        <ele>2611.6</ele>
        <time>2013-09-02T13:44:44Z</time>
      </trkpt>
      <trkpt lat="44.52892" lon="6.83409">
        <ele>2611.1</ele>
        <time>2013-09-02T13:44:45Z</time>
      </trkpt>
      <trkpt lat="44.5289" lon="6.83407">
        <ele>2610.1</ele>
        <time>2013-09-02T13:44:46Z</time>
      </trkpt>
      <trkpt lat="44.52887" lon="6.83405">
        <ele>2610.6</ele>
        <time>2013-09-02T13:44:47Z</time>
      </trkpt>
      <trkpt lat="44.52877" lon="6.83387">
        <ele>2606.8</ele>
        <time>2013-09-02T13:44:55Z</time>
      </trkpt>
      <trkpt lat="44.52857" lon="6.83367">
        <ele>2603.9</ele>
        <time>2013-09-02T13:45:05Z</time>
      </trkpt>
      <trkpt lat="44.52855" lon="6.83362">
        <ele>2602.9</ele>
        <time>2013-09-02T13:45:07Z</time>
      </trkpt>
      <trkpt lat="44.52855" lon="6.83359">
        <ele>2602</ele>
        <time>2013-09-02T13:45:08Z</time>
      </trkpt>
      <trkpt lat="44.52856" lon="6.83356">
        <ele>2602.4</ele>
        <time>2013-09-02T13:45:09Z</time>
      </trkpt>
      <trkpt lat="44.52857" lon="6.83352">
        <ele>2602.4</ele>
        <time>2013-09-02T13:45:10Z</time>
      </trkpt>
      <trkpt lat="44.52857" lon="6.83349">
        <ele>2601.5</ele>
        <time>2013-09-02T13:45:11Z</time>
      </trkpt>
      <trkpt lat="44.52857" lon="6.83344">
        <ele>2601.5</ele>
        <time>2013-09-02T13:45:12Z</time>
      </trkpt>
      <trkpt lat="44.52857" lon="6.83339">
        <ele>2601</ele>
        <time>2013-09-02T13:45:13Z</time>
      </trkpt>
      <trkpt lat="44.52857" lon="6.83335">
        <ele>2601</ele>
        <time>2013-09-02T13:45:14Z</time>
      </trkpt>
      <trkpt lat="44.52851" lon="6.83321">
        <ele>2601</ele>
        <time>2013-09-02T13:45:21Z</time>
      </trkpt>
      <trkpt lat="44.52846" lon="6.83312">
        <ele>2600</ele>
        <time>2013-09-02T13:45:42Z</time>
      </trkpt>
      <trkpt lat="44.52822" lon="6.83277">
        <ele>2599.5</ele>
        <time>2013-09-02T13:45:55Z</time>
      </trkpt>
      <trkpt lat="44.52814" lon="6.83246">
        <ele>2599.5</ele>
        <time>2013-09-02T13:46:04Z</time>
      </trkpt>
      <trkpt lat="44.5281" lon="6.83206">
        <ele>2599.1</ele>
        <time>2013-09-02T13:46:13Z</time>
      </trkpt>
      <trkpt lat="44.52809" lon="6.83203">
        <ele>2598.6</ele>
        <time>2013-09-02T13:46:14Z</time>
      </trkpt>
      <trkpt lat="44.52808" lon="6.83201">
        <ele>2598.6</ele>
        <time>2013-09-02T13:46:15Z</time>
      </trkpt>
      <trkpt lat="44.52808" lon="6.83198">
        <ele>2598.6</ele>
        <time>2013-09-02T13:46:16Z</time>
      </trkpt>
      <trkpt lat="44.52808" lon="6.83194">
        <ele>2598.1</ele>
        <time>2013-09-02T13:46:17Z</time>
      </trkpt>
      <trkpt lat="44.52808" lon="6.83191">
        <ele>2598.1</ele>
        <time>2013-09-02T13:46:18Z</time>
      </trkpt>
      <trkpt lat="44.52809" lon="6.83189">
        <ele>2598.6</ele>
        <time>2013-09-02T13:46:19Z</time>
      </trkpt>
      <trkpt lat="44.5281" lon="6.83187">
        <ele>2598.6</ele>
        <time>2013-09-02T13:46:20Z</time>
      </trkpt>
      <trkpt lat="44.52809" lon="6.83185">
        <ele>2598.6</ele>
        <time>2013-09-02T13:46:21Z</time>
      </trkpt>
      <trkpt lat="44.52807" lon="6.83146">
        <ele>2596.2</ele>
        <time>2013-09-02T13:46:33Z</time>
      </trkpt>
      <trkpt lat="44.52804" lon="6.83133">
        <ele>2593.3</ele>
        <time>2013-09-02T13:46:37Z</time>
      </trkpt>
      <trkpt lat="44.52807" lon="6.83094">
        <ele>2590.9</ele>
        <time>2013-09-02T13:46:47Z</time>
      </trkpt>
      <trkpt lat="44.52812" lon="6.83094">
        <ele>2591.4</ele>
        <time>2013-09-02T13:46:59Z</time>
      </trkpt>
      <trkpt lat="44.52813" lon="6.83092">
        <ele>2590.9</ele>
        <time>2013-09-02T13:47:17Z</time>
      </trkpt>
      <trkpt lat="44.52813" lon="6.83084">
        <ele>2590.4</ele>
        <time>2013-09-02T13:47:25Z</time>
      </trkpt>
      <trkpt lat="44.52814" lon="6.83082">
        <ele>2589.9</ele>
        <time>2013-09-02T13:47:26Z</time>
      </trkpt>
      <trkpt lat="44.52814" lon="6.83079">
        <ele>2590.4</ele>
        <time>2013-09-02T13:47:27Z</time>
      </trkpt>
      <trkpt lat="44.52819" lon="6.8307">
        <ele>2589.9</ele>
        <time>2013-09-02T13:47:37Z</time>
      </trkpt>
      <trkpt lat="44.52821" lon="6.83061">
        <ele>2589.9</ele>
        <time>2013-09-02T13:47:58Z</time>
      </trkpt>
      <trkpt lat="44.52842" lon="6.83038">
        <ele>2589.9</ele>
        <time>2013-09-02T13:48:10Z</time>
      </trkpt>
      <trkpt lat="44.52863" lon="6.83018">
        <ele>2589.5</ele>
        <time>2013-09-02T13:48:19Z</time>
      </trkpt>
      <trkpt lat="44.52894" lon="6.83003">
        <ele>2589.9</ele>
        <time>2013-09-02T13:48:31Z</time>
      </trkpt>
      <trkpt lat="44.52922" lon="6.82988">
        <ele>2589.9</ele>
        <time>2013-09-02T13:48:44Z</time>
      </trkpt>
      <trkpt lat="44.52953" lon="6.82975">
        <ele>2589</ele>
        <time>2013-09-02T13:48:56Z</time>
      </trkpt>
      <trkpt lat="44.52972" lon="6.82956">
        <ele>2589.5</ele>
        <time>2013-09-02T13:49:06Z</time>
      </trkpt>
      <trkpt lat="44.5299" lon="6.82915">
        <ele>2589.5</ele>
        <time>2013-09-02T13:49:18Z</time>
      </trkpt>
      <trkpt lat="44.53004" lon="6.82876">
        <ele>2588</ele>
        <time>2013-09-02T13:49:28Z</time>
      </trkpt>
      <trkpt lat="44.53004" lon="6.82872">
        <ele>2588</ele>
        <time>2013-09-02T13:49:29Z</time>
      </trkpt>
      <trkpt lat="44.53" lon="6.82835">
        <ele>2587</ele>
        <time>2013-09-02T13:49:40Z</time>
      </trkpt>
      <trkpt lat="44.53005" lon="6.82828">
        <ele>2586.6</ele>
        <time>2013-09-02T13:49:49Z</time>
      </trkpt>
      <trkpt lat="44.53012" lon="6.82833">
        <ele>2586.6</ele>
        <time>2013-09-02T13:50:05Z</time>
      </trkpt>
      <trkpt lat="44.53012" lon="6.82831">
        <ele>2586.6</ele>
        <time>2013-09-02T13:50:19Z</time>
      </trkpt>
      <trkpt lat="44.53012" lon="6.82827">
        <ele>2587.5</ele>
        <time>2013-09-02T13:50:32Z</time>
      </trkpt>
      <trkpt lat="44.53023" lon="6.82825">
        <ele>2589.5</ele>
        <time>2013-09-02T13:50:46Z</time>
      </trkpt>
      <trkpt lat="44.53026" lon="6.82825">
        <ele>2588.5</ele>
        <time>2013-09-02T13:50:50Z</time>
      </trkpt>
      <trkpt lat="44.53027" lon="6.82824">
        <ele>2589</ele>
        <time>2013-09-02T13:50:51Z</time>
      </trkpt>
      <trkpt lat="44.53031" lon="6.82824">
        <ele>2589</ele>
        <time>2013-09-02T13:50:54Z</time>
      </trkpt>
      <trkpt lat="44.53037" lon="6.82824">
        <ele>2588</ele>
        <time>2013-09-02T13:51:08Z</time>
      </trkpt>
      <trkpt lat="44.53039" lon="6.82818">
        <ele>2587.5</ele>
        <time>2013-09-02T13:51:29Z</time>
      </trkpt>
      <trkpt lat="44.53035" lon="6.82814">
        <ele>2586.6</ele>
        <time>2013-09-02T13:51:45Z</time>
      </trkpt>
      <trkpt lat="44.53034" lon="6.8281">
        <ele>2586.6</ele>
        <time>2013-09-02T13:52:08Z</time>
      </trkpt>
      <trkpt lat="44.53033" lon="6.82808">
        <ele>2585.6</ele>
        <time>2013-09-02T13:52:09Z</time>
      </trkpt>
      <trkpt lat="44.53032" lon="6.82806">
        <ele>2585.6</ele>
        <time>2013-09-02T13:52:10Z</time>
      </trkpt>
      <trkpt lat="44.53031" lon="6.82804">
        <ele>2585.6</ele>
        <time>2013-09-02T13:52:11Z</time>
      </trkpt>
      <trkpt lat="44.5303" lon="6.82801">
        <ele>2584.6</ele>
        <time>2013-09-02T13:52:12Z</time>
      </trkpt>
      <trkpt lat="44.53029" lon="6.82799">
        <ele>2584.6</ele>
        <time>2013-09-02T13:52:13Z</time>
      </trkpt>
      <trkpt lat="44.53028" lon="6.82795">
        <ele>2583.7</ele>
        <time>2013-09-02T13:52:14Z</time>
      </trkpt>
      <trkpt lat="44.53023" lon="6.82779">
        <ele>2579.8</ele>
        <time>2013-09-02T13:52:19Z</time>
      </trkpt>
      <trkpt lat="44.53018" lon="6.82761">
        <ele>2576.5</ele>
        <time>2013-09-02T13:52:23Z</time>
      </trkpt>
      <trkpt lat="44.53021" lon="6.82719">
        <ele>2573.1</ele>
        <time>2013-09-02T13:52:32Z</time>
      </trkpt>
      <trkpt lat="44.53019" lon="6.82709">
        <ele>2572.6</ele>
        <time>2013-09-02T13:52:34Z</time>
      </trkpt>
      <trkpt lat="44.53018" lon="6.82704">
        <ele>2572.1</ele>
        <time>2013-09-02T13:52:35Z</time>
      </trkpt>
      <trkpt lat="44.53017" lon="6.82699">
        <ele>2571.7</ele>
        <time>2013-09-02T13:52:36Z</time>
      </trkpt>
      <trkpt lat="44.53016" lon="6.82695">
        <ele>2571.2</ele>
        <time>2013-09-02T13:52:37Z</time>
      </trkpt>
      <trkpt lat="44.53016" lon="6.82691">
        <ele>2570.7</ele>
        <time>2013-09-02T13:52:38Z</time>
      </trkpt>
      <trkpt lat="44.53017" lon="6.82687">
        <ele>2571.2</ele>
        <time>2013-09-02T13:52:39Z</time>
      </trkpt>
      <trkpt lat="44.53026" lon="6.82663">
        <ele>2568.3</ele>
        <time>2013-09-02T13:52:46Z</time>
      </trkpt>
      <trkpt lat="44.53033" lon="6.82649">
        <ele>2566.4</ele>
        <time>2013-09-02T13:52:51Z</time>
      </trkpt>
      <trkpt lat="44.53034" lon="6.82641">
        <ele>2564.9</ele>
        <time>2013-09-02T13:52:53Z</time>
      </trkpt>
      <trkpt lat="44.53035" lon="6.82628">
        <ele>2564</ele>
        <time>2013-09-02T13:52:56Z</time>
      </trkpt>
      <trkpt lat="44.53033" lon="6.82624">
        <ele>2563</ele>
        <time>2013-09-02T13:52:57Z</time>
      </trkpt>
      <trkpt lat="44.53032" lon="6.82619">
        <ele>2563</ele>
        <time>2013-09-02T13:52:58Z</time>
      </trkpt>
      <trkpt lat="44.5303" lon="6.82614">
        <ele>2562.5</ele>
        <time>2013-09-02T13:52:59Z</time>
      </trkpt>
      <trkpt lat="44.53029" lon="6.82608">
        <ele>2562.5</ele>
        <time>2013-09-02T13:53:00Z</time>
      </trkpt>
      <trkpt lat="44.53028" lon="6.82602">
        <ele>2562.1</ele>
        <time>2013-09-02T13:53:01Z</time>
      </trkpt>
      <trkpt lat="44.53027" lon="6.82596">
        <ele>2561.6</ele>
        <time>2013-09-02T13:53:02Z</time>
      </trkpt>
      <trkpt lat="44.53026" lon="6.8259">
        <ele>2562.1</ele>
        <time>2013-09-02T13:53:03Z</time>
      </trkpt>
      <trkpt lat="44.53025" lon="6.82584">
        <ele>2562.1</ele>
        <time>2013-09-02T13:53:04Z</time>
      </trkpt>
      <trkpt lat="44.53024" lon="6.82578">
        <ele>2561.6</ele>
        <time>2013-09-02T13:53:05Z</time>
      </trkpt>
      <trkpt lat="44.53024" lon="6.82572">
        <ele>2561.6</ele>
        <time>2013-09-02T13:53:06Z</time>
      </trkpt>
      <trkpt lat="44.53025" lon="6.82567">
        <ele>2562.1</ele>
        <time>2013-09-02T13:53:07Z</time>
      </trkpt>
      <trkpt lat="44.53026" lon="6.82563">
        <ele>2561.6</ele>
        <time>2013-09-02T13:53:08Z</time>
      </trkpt>
      <trkpt lat="44.53027" lon="6.82558">
        <ele>2561.6</ele>
        <time>2013-09-02T13:53:09Z</time>
      </trkpt>
      <trkpt lat="44.53028" lon="6.82552">
        <ele>2561.6</ele>
        <time>2013-09-02T13:53:10Z</time>
      </trkpt>
      <trkpt lat="44.53028" lon="6.82545">
        <ele>2560.6</ele>
        <time>2013-09-02T13:53:11Z</time>
      </trkpt>
      <trkpt lat="44.53027" lon="6.82539">
        <ele>2560.6</ele>
        <time>2013-09-02T13:53:12Z</time>
      </trkpt>
      <trkpt lat="44.53026" lon="6.82526">
        <ele>2560.1</ele>
        <time>2013-09-02T13:53:14Z</time>
      </trkpt>
      <trkpt lat="44.53025" lon="6.8252">
        <ele>2559.2</ele>
        <time>2013-09-02T13:53:15Z</time>
      </trkpt>
      <trkpt lat="44.53024" lon="6.82515">
        <ele>2559.2</ele>
        <time>2013-09-02T13:53:16Z</time>
      </trkpt>
      <trkpt lat="44.53022" lon="6.8251">
        <ele>2559.2</ele>
        <time>2013-09-02T13:53:17Z</time>
      </trkpt>
      <trkpt lat="44.5302" lon="6.82507">
        <ele>2559.2</ele>
        <time>2013-09-02T13:53:18Z</time>
      </trkpt>
      <trkpt lat="44.53015" lon="6.82499">
        <ele>2558.7</ele>
        <time>2013-09-02T13:53:21Z</time>
      </trkpt>
      <trkpt lat="44.53013" lon="6.82497">
        <ele>2558.7</ele>
        <time>2013-09-02T13:53:22Z</time>
      </trkpt>
      <trkpt lat="44.53011" lon="6.82494">
        <ele>2558.2</ele>
        <time>2013-09-02T13:53:23Z</time>
      </trkpt>
      <trkpt lat="44.5301" lon="6.82491">
        <ele>2557.7</ele>
        <time>2013-09-02T13:53:24Z</time>
      </trkpt>
      <trkpt lat="44.53008" lon="6.82489">
        <ele>2557.7</ele>
        <time>2013-09-02T13:53:25Z</time>
      </trkpt>
      <trkpt lat="44.53007" lon="6.82486">
        <ele>2557.7</ele>
        <time>2013-09-02T13:53:26Z</time>
      </trkpt>
      <trkpt lat="44.52989" lon="6.82446">
        <ele>2556.8</ele>
        <time>2013-09-02T13:53:37Z</time>
      </trkpt>
      <trkpt lat="44.52986" lon="6.82437">
        <ele>2556.8</ele>
        <time>2013-09-02T13:53:39Z</time>
      </trkpt>
      <trkpt lat="44.52983" lon="6.82426">
        <ele>2555.8</ele>
        <time>2013-09-02T13:53:41Z</time>
      </trkpt>
      <trkpt lat="44.52981" lon="6.82421">
        <ele>2554.4</ele>
        <time>2013-09-02T13:53:42Z</time>
      </trkpt>
      <trkpt lat="44.5296" lon="6.82385">
        <ele>2551</ele>
        <time>2013-09-02T13:53:51Z</time>
      </trkpt>
      <trkpt lat="44.5296" lon="6.8238">
        <ele>2551</ele>
        <time>2013-09-02T13:53:52Z</time>
      </trkpt>
      <trkpt lat="44.52961" lon="6.82376">
        <ele>2550.5</ele>
        <time>2013-09-02T13:53:53Z</time>
      </trkpt>
      <trkpt lat="44.52963" lon="6.82371">
        <ele>2551</ele>
        <time>2013-09-02T13:53:54Z</time>
      </trkpt>
      <trkpt lat="44.5297" lon="6.82355">
        <ele>2549.6</ele>
        <time>2013-09-02T13:53:58Z</time>
      </trkpt>
      <trkpt lat="44.5297" lon="6.82351">
        <ele>2550</ele>
        <time>2013-09-02T13:53:59Z</time>
      </trkpt>
      <trkpt lat="44.5297" lon="6.82348">
        <ele>2549.6</ele>
        <time>2013-09-02T13:54:00Z</time>
      </trkpt>
      <trkpt lat="44.52969" lon="6.82345">
        <ele>2549.6</ele>
        <time>2013-09-02T13:54:01Z</time>
      </trkpt>
      <trkpt lat="44.52969" lon="6.82342">
        <ele>2549.1</ele>
        <time>2013-09-02T13:54:02Z</time>
      </trkpt>
      <trkpt lat="44.52969" lon="6.8234">
        <ele>2548.6</ele>
        <time>2013-09-02T13:54:03Z</time>
      </trkpt>
      <trkpt lat="44.52969" lon="6.82336">
        <ele>2548.1</ele>
        <time>2013-09-02T13:54:04Z</time>
      </trkpt>
      <trkpt lat="44.52968" lon="6.82325">
        <ele>2547.2</ele>
        <time>2013-09-02T13:54:06Z</time>
      </trkpt>
      <trkpt lat="44.52972" lon="6.82298">
        <ele>2545.7</ele>
        <time>2013-09-02T13:54:11Z</time>
      </trkpt>
      <trkpt lat="44.52973" lon="6.82292">
        <ele>2545.7</ele>
        <time>2013-09-02T13:54:12Z</time>
      </trkpt>
      <trkpt lat="44.52972" lon="6.82287">
        <ele>2545.2</ele>
        <time>2013-09-02T13:54:13Z</time>
      </trkpt>
      <trkpt lat="44.52971" lon="6.82281">
        <ele>2544.8</ele>
        <time>2013-09-02T13:54:14Z</time>
      </trkpt>
      <trkpt lat="44.52971" lon="6.82276">
        <ele>2544.3</ele>
        <time>2013-09-02T13:54:15Z</time>
      </trkpt>
      <trkpt lat="44.5297" lon="6.82262">
        <ele>2542.8</ele>
        <time>2013-09-02T13:54:18Z</time>
      </trkpt>
      <trkpt lat="44.52975" lon="6.82243">
        <ele>2540.4</ele>
        <time>2013-09-02T13:54:26Z</time>
      </trkpt>
      <trkpt lat="44.52976" lon="6.82243">
        <ele>2539.5</ele>
        <time>2013-09-02T13:54:50Z</time>
      </trkpt>
      <trkpt lat="44.52976" lon="6.8224">
        <ele>2539.5</ele>
        <time>2013-09-02T13:54:51Z</time>
      </trkpt>
      <trkpt lat="44.52976" lon="6.82237">
        <ele>2539.5</ele>
        <time>2013-09-02T13:54:52Z</time>
      </trkpt>
      <trkpt lat="44.52976" lon="6.82234">
        <ele>2538.5</ele>
        <time>2013-09-02T13:54:53Z</time>
      </trkpt>
      <trkpt lat="44.52977" lon="6.82232">
        <ele>2538.5</ele>
        <time>2013-09-02T13:55:05Z</time>
      </trkpt>
      <trkpt lat="44.52976" lon="6.82222">
        <ele>2537.1</ele>
        <time>2013-09-02T13:55:39Z</time>
      </trkpt>
      <trkpt lat="44.52998" lon="6.82182">
        <ele>2535.1</ele>
        <time>2013-09-02T13:55:49Z</time>
      </trkpt>
      <trkpt lat="44.53001" lon="6.82177">
        <ele>2533.7</ele>
        <time>2013-09-02T13:56:02Z</time>
      </trkpt>
      <trkpt lat="44.53001" lon="6.82157">
        <ele>2533.2</ele>
        <time>2013-09-02T13:56:19Z</time>
      </trkpt>
      <trkpt lat="44.52997" lon="6.82141">
        <ele>2530.3</ele>
        <time>2013-09-02T13:56:29Z</time>
      </trkpt>
      <trkpt lat="44.52998" lon="6.82136">
        <ele>2529.9</ele>
        <time>2013-09-02T13:56:40Z</time>
      </trkpt>
      <trkpt lat="44.52996" lon="6.82135">
        <ele>2529.4</ele>
        <time>2013-09-02T13:56:59Z</time>
      </trkpt>
      <trkpt lat="44.52995" lon="6.82126">
        <ele>2528.4</ele>
        <time>2013-09-02T13:57:06Z</time>
      </trkpt>
      <trkpt lat="44.52996" lon="6.82111">
        <ele>2524.1</ele>
        <time>2013-09-02T13:57:11Z</time>
      </trkpt>
      <trkpt lat="44.53001" lon="6.82097">
        <ele>2523.1</ele>
        <time>2013-09-02T13:57:14Z</time>
      </trkpt>
      <trkpt lat="44.53003" lon="6.82093">
        <ele>2522.2</ele>
        <time>2013-09-02T13:57:15Z</time>
      </trkpt>
      <trkpt lat="44.53004" lon="6.82088">
        <ele>2523.1</ele>
        <time>2013-09-02T13:57:16Z</time>
      </trkpt>
      <trkpt lat="44.53005" lon="6.82084">
        <ele>2521.7</ele>
        <time>2013-09-02T13:57:17Z</time>
      </trkpt>
      <trkpt lat="44.53005" lon="6.82079">
        <ele>2521.7</ele>
        <time>2013-09-02T13:57:18Z</time>
      </trkpt>
      <trkpt lat="44.5301" lon="6.82057">
        <ele>2519.3</ele>
        <time>2013-09-02T13:57:25Z</time>
      </trkpt>
      <trkpt lat="44.53012" lon="6.82055">
        <ele>2519.3</ele>
        <time>2013-09-02T13:57:36Z</time>
      </trkpt>
      <trkpt lat="44.53014" lon="6.82049">
        <ele>2517.8</ele>
        <time>2013-09-02T13:57:43Z</time>
      </trkpt>
      <trkpt lat="44.53014" lon="6.82048">
        <ele>2517.8</ele>
        <time>2013-09-02T13:57:44Z</time>
      </trkpt>
      <trkpt lat="44.5302" lon="6.82035">
        <ele>2516.4</ele>
        <time>2013-09-02T13:57:57Z</time>
      </trkpt>
      <trkpt lat="44.53027" lon="6.82024">
        <ele>2516.4</ele>
        <time>2013-09-02T13:58:01Z</time>
      </trkpt>
      <trkpt lat="44.53049" lon="6.81988">
        <ele>2514.5</ele>
        <time>2013-09-02T13:58:13Z</time>
      </trkpt>
      <trkpt lat="44.53048" lon="6.8197">
        <ele>2513.5</ele>
        <time>2013-09-02T13:58:17Z</time>
      </trkpt>
      <trkpt lat="44.53047" lon="6.81962">
        <ele>2512.5</ele>
        <time>2013-09-02T13:58:20Z</time>
      </trkpt>
      <trkpt lat="44.53048" lon="6.81959">
        <ele>2513</ele>
        <time>2013-09-02T13:58:21Z</time>
      </trkpt>
      <trkpt lat="44.53049" lon="6.81956">
        <ele>2512.1</ele>
        <time>2013-09-02T13:58:22Z</time>
      </trkpt>
      <trkpt lat="44.53051" lon="6.81951">
        <ele>2512.1</ele>
        <time>2013-09-02T13:58:23Z</time>
      </trkpt>
      <trkpt lat="44.53052" lon="6.81945">
        <ele>2511.6</ele>
        <time>2013-09-02T13:58:24Z</time>
      </trkpt>
      <trkpt lat="44.53055" lon="6.81934">
        <ele>2511.1</ele>
        <time>2013-09-02T13:58:26Z</time>
      </trkpt>
      <trkpt lat="44.53056" lon="6.81928">
        <ele>2510.6</ele>
        <time>2013-09-02T13:58:27Z</time>
      </trkpt>
      <trkpt lat="44.53056" lon="6.81923">
        <ele>2510.1</ele>
        <time>2013-09-02T13:58:28Z</time>
      </trkpt>
      <trkpt lat="44.53056" lon="6.81918">
        <ele>2510.1</ele>
        <time>2013-09-02T13:58:29Z</time>
      </trkpt>
      <trkpt lat="44.53055" lon="6.81912">
        <ele>2509.7</ele>
        <time>2013-09-02T13:58:30Z</time>
      </trkpt>
      <trkpt lat="44.53054" lon="6.81908">
        <ele>2509.2</ele>
        <time>2013-09-02T13:58:31Z</time>
      </trkpt>
      <trkpt lat="44.53054" lon="6.81903">
        <ele>2509.2</ele>
        <time>2013-09-02T13:58:32Z</time>
      </trkpt>
      <trkpt lat="44.53054" lon="6.81899">
        <ele>2508.7</ele>
        <time>2013-09-02T13:58:33Z</time>
      </trkpt>
      <trkpt lat="44.53054" lon="6.81895">
        <ele>2508.2</ele>
        <time>2013-09-02T13:58:34Z</time>
      </trkpt>
      <trkpt lat="44.53061" lon="6.81851">
        <ele>2504.9</ele>
        <time>2013-09-02T13:58:43Z</time>
      </trkpt>
      <trkpt lat="44.53064" lon="6.81847">
        <ele>2504.9</ele>
        <time>2013-09-02T13:58:44Z</time>
      </trkpt>
      <trkpt lat="44.53067" lon="6.81842">
        <ele>2503.9</ele>
        <time>2013-09-02T13:58:45Z</time>
      </trkpt>
      <trkpt lat="44.53088" lon="6.81805">
        <ele>2501.5</ele>
        <time>2013-09-02T13:58:54Z</time>
      </trkpt>
      <trkpt lat="44.53094" lon="6.81799">
        <ele>2501.5</ele>
        <time>2013-09-02T13:58:56Z</time>
      </trkpt>
      <trkpt lat="44.53097" lon="6.81796">
        <ele>2501</ele>
        <time>2013-09-02T13:58:57Z</time>
      </trkpt>
      <trkpt lat="44.5312" lon="6.81775">
        <ele>2499.6</ele>
        <time>2013-09-02T13:59:04Z</time>
      </trkpt>
      <trkpt lat="44.53121" lon="6.81768">
        <ele>2499.1</ele>
        <time>2013-09-02T13:59:06Z</time>
      </trkpt>
      <trkpt lat="44.53122" lon="6.81765">
        <ele>2499.1</ele>
        <time>2013-09-02T13:59:07Z</time>
      </trkpt>
      <trkpt lat="44.53127" lon="6.81748">
        <ele>2498.1</ele>
        <time>2013-09-02T13:59:13Z</time>
      </trkpt>
      <trkpt lat="44.53128" lon="6.81738">
        <ele>2496.7</ele>
        <time>2013-09-02T13:59:22Z</time>
      </trkpt>
      <trkpt lat="44.53128" lon="6.81737">
        <ele>2496.7</ele>
        <time>2013-09-02T13:59:25Z</time>
      </trkpt>
      <trkpt lat="44.5313" lon="6.81734">
        <ele>2496.7</ele>
        <time>2013-09-02T13:59:26Z</time>
      </trkpt>
      <trkpt lat="44.53133" lon="6.81733">
        <ele>2496.7</ele>
        <time>2013-09-02T13:59:27Z</time>
      </trkpt>
      <trkpt lat="44.5314" lon="6.81726">
        <ele>2495.2</ele>
        <time>2013-09-02T13:59:30Z</time>
      </trkpt>
      <trkpt lat="44.53141" lon="6.81723">
        <ele>2494.8</ele>
        <time>2013-09-02T13:59:31Z</time>
      </trkpt>
      <trkpt lat="44.53142" lon="6.8172">
        <ele>2494.3</ele>
        <time>2013-09-02T13:59:32Z</time>
      </trkpt>
      <trkpt lat="44.53143" lon="6.81716">
        <ele>2493.8</ele>
        <time>2013-09-02T13:59:33Z</time>
      </trkpt>
      <trkpt lat="44.53143" lon="6.81714">
        <ele>2494.3</ele>
        <time>2013-09-02T13:59:34Z</time>
      </trkpt>
      <trkpt lat="44.53143" lon="6.81712">
        <ele>2493.8</ele>
        <time>2013-09-02T13:59:35Z</time>
      </trkpt>
      <trkpt lat="44.53144" lon="6.81709">
        <ele>2493.3</ele>
        <time>2013-09-02T13:59:36Z</time>
      </trkpt>
      <trkpt lat="44.53145" lon="6.81707">
        <ele>2493.3</ele>
        <time>2013-09-02T13:59:37Z</time>
      </trkpt>
      <trkpt lat="44.53146" lon="6.81705">
        <ele>2492.8</ele>
        <time>2013-09-02T13:59:38Z</time>
      </trkpt>
      <trkpt lat="44.53148" lon="6.81703">
        <ele>2492.4</ele>
        <time>2013-09-02T13:59:39Z</time>
      </trkpt>
      <trkpt lat="44.53149" lon="6.81701">
        <ele>2491.9</ele>
        <time>2013-09-02T13:59:40Z</time>
      </trkpt>
      <trkpt lat="44.53151" lon="6.81699">
        <ele>2491.9</ele>
        <time>2013-09-02T13:59:41Z</time>
      </trkpt>
      <trkpt lat="44.53153" lon="6.81696">
        <ele>2490.9</ele>
        <time>2013-09-02T13:59:42Z</time>
      </trkpt>
      <trkpt lat="44.53156" lon="6.81693">
        <ele>2490.4</ele>
        <time>2013-09-02T13:59:43Z</time>
      </trkpt>
      <trkpt lat="44.53171" lon="6.81676">
        <ele>2488</ele>
        <time>2013-09-02T13:59:48Z</time>
      </trkpt>
      <trkpt lat="44.53175" lon="6.81673">
        <ele>2487.6</ele>
        <time>2013-09-02T13:59:49Z</time>
      </trkpt>
      <trkpt lat="44.53179" lon="6.81669">
        <ele>2487.1</ele>
        <time>2013-09-02T13:59:50Z</time>
      </trkpt>
      <trkpt lat="44.53182" lon="6.81665">
        <ele>2486.6</ele>
        <time>2013-09-02T13:59:51Z</time>
      </trkpt>
      <trkpt lat="44.53186" lon="6.8166">
        <ele>2486.1</ele>
        <time>2013-09-02T13:59:52Z</time>
      </trkpt>
      <trkpt lat="44.532" lon="6.81645">
        <ele>2484.2</ele>
        <time>2013-09-02T13:59:56Z</time>
      </trkpt>
      <trkpt lat="44.53214" lon="6.81629">
        <ele>2483.7</ele>
        <time>2013-09-02T14:00:05Z</time>
      </trkpt>
      <trkpt lat="44.53218" lon="6.81627">
        <ele>2483.7</ele>
        <time>2013-09-02T14:00:21Z</time>
      </trkpt>
      <trkpt lat="44.53252" lon="6.81596">
        <ele>2483.7</ele>
        <time>2013-09-02T14:00:34Z</time>
      </trkpt>
      <trkpt lat="44.53303" lon="6.81553">
        <ele>2482.3</ele>
        <time>2013-09-02T14:00:49Z</time>
      </trkpt>
      <trkpt lat="44.53306" lon="6.81551">
        <ele>2482.3</ele>
        <time>2013-09-02T14:00:50Z</time>
      </trkpt>
      <trkpt lat="44.53325" lon="6.81545">
        <ele>2482.7</ele>
        <time>2013-09-02T14:00:56Z</time>
      </trkpt>
      <trkpt lat="44.53321" lon="6.81543">
        <ele>2482.3</ele>
        <time>2013-09-02T14:01:06Z</time>
      </trkpt>
      <trkpt lat="44.5332" lon="6.81539">
        <ele>2482.3</ele>
        <time>2013-09-02T14:01:19Z</time>
      </trkpt>
      <trkpt lat="44.53319" lon="6.81537">
        <ele>2482.3</ele>
        <time>2013-09-02T14:01:20Z</time>
      </trkpt>
      <trkpt lat="44.53318" lon="6.81526">
        <ele>2482.3</ele>
        <time>2013-09-02T14:01:23Z</time>
      </trkpt>
      <trkpt lat="44.5332" lon="6.81523">
        <ele>2481.8</ele>
        <time>2013-09-02T14:01:24Z</time>
      </trkpt>
      <trkpt lat="44.53322" lon="6.81519">
        <ele>2482.3</ele>
        <time>2013-09-02T14:01:25Z</time>
      </trkpt>
      <trkpt lat="44.53324" lon="6.81515">
        <ele>2482.3</ele>
        <time>2013-09-02T14:01:26Z</time>
      </trkpt>
      <trkpt lat="44.53326" lon="6.81512">
        <ele>2482.3</ele>
        <time>2013-09-02T14:01:27Z</time>
      </trkpt>
      <trkpt lat="44.53347" lon="6.81471">
        <ele>2481.8</ele>
        <time>2013-09-02T14:01:38Z</time>
      </trkpt>
      <trkpt lat="44.5335" lon="6.81471">
        <ele>2481.8</ele>
        <time>2013-09-02T14:01:39Z</time>
      </trkpt>
      <trkpt lat="44.53352" lon="6.81472">
        <ele>2481.8</ele>
        <time>2013-09-02T14:01:40Z</time>
      </trkpt>
      <trkpt lat="44.53359" lon="6.81475">
        <ele>2481.8</ele>
        <time>2013-09-02T14:01:43Z</time>
      </trkpt>
      <trkpt lat="44.53361" lon="6.81473">
        <ele>2481.8</ele>
        <time>2013-09-02T14:01:44Z</time>
      </trkpt>
      <trkpt lat="44.53363" lon="6.81471">
        <ele>2482.3</ele>
        <time>2013-09-02T14:01:45Z</time>
      </trkpt>
      <trkpt lat="44.53364" lon="6.81467">
        <ele>2481.8</ele>
        <time>2013-09-02T14:01:46Z</time>
      </trkpt>
      <trkpt lat="44.53364" lon="6.81463">
        <ele>2481.8</ele>
        <time>2013-09-02T14:01:47Z</time>
      </trkpt>
      <trkpt lat="44.53363" lon="6.81459">
        <ele>2481.3</ele>
        <time>2013-09-02T14:01:48Z</time>
      </trkpt>
      <trkpt lat="44.53362" lon="6.81455">
        <ele>2481.3</ele>
        <time>2013-09-02T14:01:49Z</time>
      </trkpt>
      <trkpt lat="44.5338" lon="6.81417">
        <ele>2481.8</ele>
        <time>2013-09-02T14:02:00Z</time>
      </trkpt>
      <trkpt lat="44.53408" lon="6.81372">
        <ele>2480.3</ele>
        <time>2013-09-02T14:02:12Z</time>
      </trkpt>
      <trkpt lat="44.53429" lon="6.81337">
        <ele>2479.4</ele>
        <time>2013-09-02T14:02:24Z</time>
      </trkpt>
      <trkpt lat="44.53431" lon="6.81332">
        <ele>2477.9</ele>
        <time>2013-09-02T14:02:27Z</time>
      </trkpt>
      <trkpt lat="44.53434" lon="6.81322">
        <ele>2476.5</ele>
        <time>2013-09-02T14:02:32Z</time>
      </trkpt>
      <trkpt lat="44.53433" lon="6.8132">
        <ele>2475.5</ele>
        <time>2013-09-02T14:02:33Z</time>
      </trkpt>
      <trkpt lat="44.53432" lon="6.81318">
        <ele>2475.1</ele>
        <time>2013-09-02T14:02:34Z</time>
      </trkpt>
      <trkpt lat="44.5343" lon="6.81317">
        <ele>2475.1</ele>
        <time>2013-09-02T14:02:35Z</time>
      </trkpt>
      <trkpt lat="44.53428" lon="6.81317">
        <ele>2474.1</ele>
        <time>2013-09-02T14:02:36Z</time>
      </trkpt>
      <trkpt lat="44.53425" lon="6.81316">
        <ele>2474.1</ele>
        <time>2013-09-02T14:02:37Z</time>
      </trkpt>
      <trkpt lat="44.53422" lon="6.81315">
        <ele>2474.1</ele>
        <time>2013-09-02T14:02:38Z</time>
      </trkpt>
      <trkpt lat="44.53405" lon="6.81313">
        <ele>2470.7</ele>
        <time>2013-09-02T14:02:43Z</time>
      </trkpt>
      <trkpt lat="44.53392" lon="6.81317">
        <ele>2468.8</ele>
        <time>2013-09-02T14:02:47Z</time>
      </trkpt>
      <trkpt lat="44.53383" lon="6.8132">
        <ele>2466.4</ele>
        <time>2013-09-02T14:02:50Z</time>
      </trkpt>
      <trkpt lat="44.5337" lon="6.81319">
        <ele>2462.6</ele>
        <time>2013-09-02T14:02:56Z</time>
      </trkpt>
      <trkpt lat="44.53369" lon="6.81316">
        <ele>2462.1</ele>
        <time>2013-09-02T14:02:57Z</time>
      </trkpt>
      <trkpt lat="44.53369" lon="6.81313">
        <ele>2462.1</ele>
        <time>2013-09-02T14:02:58Z</time>
      </trkpt>
      <trkpt lat="44.53373" lon="6.81284">
        <ele>2458.2</ele>
        <time>2013-09-02T14:03:04Z</time>
      </trkpt>
      <trkpt lat="44.53377" lon="6.81275">
        <ele>2456.8</ele>
        <time>2013-09-02T14:03:06Z</time>
      </trkpt>
      <trkpt lat="44.5338" lon="6.81271">
        <ele>2456.8</ele>
        <time>2013-09-02T14:03:07Z</time>
      </trkpt>
      <trkpt lat="44.53382" lon="6.81266">
        <ele>2457.3</ele>
        <time>2013-09-02T14:03:08Z</time>
      </trkpt>
      <trkpt lat="44.53387" lon="6.81249">
        <ele>2455.3</ele>
        <time>2013-09-02T14:03:11Z</time>
      </trkpt>
      <trkpt lat="44.53393" lon="6.81236">
        <ele>2453.4</ele>
        <time>2013-09-02T14:03:14Z</time>
      </trkpt>
      <trkpt lat="44.53398" lon="6.8122">
        <ele>2451</ele>
        <time>2013-09-02T14:03:18Z</time>
      </trkpt>
      <trkpt lat="44.53403" lon="6.81209">
        <ele>2448.6</ele>
        <time>2013-09-02T14:03:22Z</time>
      </trkpt>
      <trkpt lat="44.53401" lon="6.81207">
        <ele>2448.1</ele>
        <time>2013-09-02T14:03:23Z</time>
      </trkpt>
      <trkpt lat="44.53399" lon="6.81205">
        <ele>2447.2</ele>
        <time>2013-09-02T14:03:24Z</time>
      </trkpt>
      <trkpt lat="44.53395" lon="6.81204">
        <ele>2446.7</ele>
        <time>2013-09-02T14:03:25Z</time>
      </trkpt>
      <trkpt lat="44.53392" lon="6.81203">
        <ele>2447.2</ele>
        <time>2013-09-02T14:03:26Z</time>
      </trkpt>
      <trkpt lat="44.53384" lon="6.81203">
        <ele>2445.3</ele>
        <time>2013-09-02T14:03:28Z</time>
      </trkpt>
      <trkpt lat="44.53379" lon="6.81204">
        <ele>2444.3</ele>
        <time>2013-09-02T14:03:29Z</time>
      </trkpt>
      <trkpt lat="44.53365" lon="6.81209">
        <ele>2442.9</ele>
        <time>2013-09-02T14:03:32Z</time>
      </trkpt>
      <trkpt lat="44.53345" lon="6.81212">
        <ele>2440</ele>
        <time>2013-09-02T14:03:37Z</time>
      </trkpt>
      <trkpt lat="44.53341" lon="6.81214">
        <ele>2439</ele>
        <time>2013-09-02T14:03:38Z</time>
      </trkpt>
      <trkpt lat="44.53335" lon="6.81219">
        <ele>2438</ele>
        <time>2013-09-02T14:03:40Z</time>
      </trkpt>
      <trkpt lat="44.53324" lon="6.81221">
        <ele>2435.2</ele>
        <time>2013-09-02T14:03:43Z</time>
      </trkpt>
      <trkpt lat="44.53319" lon="6.8122">
        <ele>2433.7</ele>
        <time>2013-09-02T14:03:45Z</time>
      </trkpt>
      <trkpt lat="44.53317" lon="6.81218">
        <ele>2433.2</ele>
        <time>2013-09-02T14:03:46Z</time>
      </trkpt>
      <trkpt lat="44.53315" lon="6.81215">
        <ele>2432.3</ele>
        <time>2013-09-02T14:03:47Z</time>
      </trkpt>
      <trkpt lat="44.53315" lon="6.81211">
        <ele>2431.3</ele>
        <time>2013-09-02T14:03:48Z</time>
      </trkpt>
      <trkpt lat="44.53315" lon="6.81207">
        <ele>2431.3</ele>
        <time>2013-09-02T14:03:49Z</time>
      </trkpt>
      <trkpt lat="44.53316" lon="6.81202">
        <ele>2430.8</ele>
        <time>2013-09-02T14:03:50Z</time>
      </trkpt>
      <trkpt lat="44.53327" lon="6.81166">
        <ele>2426.5</ele>
        <time>2013-09-02T14:03:56Z</time>
      </trkpt>
      <trkpt lat="44.53329" lon="6.81159">
        <ele>2426</ele>
        <time>2013-09-02T14:03:57Z</time>
      </trkpt>
      <trkpt lat="44.5333" lon="6.81151">
        <ele>2424.6</ele>
        <time>2013-09-02T14:03:58Z</time>
      </trkpt>
      <trkpt lat="44.53342" lon="6.81109">
        <ele>2421.7</ele>
        <time>2013-09-02T14:04:04Z</time>
      </trkpt>
      <trkpt lat="44.53344" lon="6.81097">
        <ele>2420.3</ele>
        <time>2013-09-02T14:04:06Z</time>
      </trkpt>
      <trkpt lat="44.53345" lon="6.81091">
        <ele>2419.8</ele>
        <time>2013-09-02T14:04:07Z</time>
      </trkpt>
      <trkpt lat="44.53347" lon="6.81085">
        <ele>2418.3</ele>
        <time>2013-09-02T14:04:08Z</time>
      </trkpt>
      <trkpt lat="44.53348" lon="6.81079">
        <ele>2417.9</ele>
        <time>2013-09-02T14:04:09Z</time>
      </trkpt>
      <trkpt lat="44.53355" lon="6.81057">
        <ele>2413.5</ele>
        <time>2013-09-02T14:04:13Z</time>
      </trkpt>
      <trkpt lat="44.53358" lon="6.81048">
        <ele>2413.1</ele>
        <time>2013-09-02T14:04:15Z</time>
      </trkpt>
      <trkpt lat="44.53366" lon="6.81034">
        <ele>2409.7</ele>
        <time>2013-09-02T14:04:19Z</time>
      </trkpt>
      <trkpt lat="44.53375" lon="6.81021">
        <ele>2406.3</ele>
        <time>2013-09-02T14:04:23Z</time>
      </trkpt>
      <trkpt lat="44.5338" lon="6.81016">
        <ele>2404.9</ele>
        <time>2013-09-02T14:04:25Z</time>
      </trkpt>
      <trkpt lat="44.53387" lon="6.81012">
        <ele>2402.5</ele>
        <time>2013-09-02T14:04:27Z</time>
      </trkpt>
      <trkpt lat="44.53401" lon="6.81007">
        <ele>2399.1</ele>
        <time>2013-09-02T14:04:31Z</time>
      </trkpt>
      <trkpt lat="44.53414" lon="6.81008">
        <ele>2396.2</ele>
        <time>2013-09-02T14:04:35Z</time>
      </trkpt>
      <trkpt lat="44.53418" lon="6.8101">
        <ele>2395.3</ele>
        <time>2013-09-02T14:04:36Z</time>
      </trkpt>
      <trkpt lat="44.53422" lon="6.81012">
        <ele>2394.8</ele>
        <time>2013-09-02T14:04:37Z</time>
      </trkpt>
      <trkpt lat="44.53425" lon="6.81014">
        <ele>2393.3</ele>
        <time>2013-09-02T14:04:38Z</time>
      </trkpt>
      <trkpt lat="44.53428" lon="6.81015">
        <ele>2393.3</ele>
        <time>2013-09-02T14:04:39Z</time>
      </trkpt>
      <trkpt lat="44.5343" lon="6.81014">
        <ele>2392.4</ele>
        <time>2013-09-02T14:04:40Z</time>
      </trkpt>
      <trkpt lat="44.53431" lon="6.81011">
        <ele>2392.4</ele>
        <time>2013-09-02T14:04:41Z</time>
      </trkpt>
      <trkpt lat="44.5343" lon="6.81009">
        <ele>2391.9</ele>
        <time>2013-09-02T14:04:42Z</time>
      </trkpt>
      <trkpt lat="44.53428" lon="6.81006">
        <ele>2391.4</ele>
        <time>2013-09-02T14:04:43Z</time>
      </trkpt>
      <trkpt lat="44.53426" lon="6.81001">
        <ele>2390</ele>
        <time>2013-09-02T14:04:46Z</time>
      </trkpt>
      <trkpt lat="44.53425" lon="6.81003">
        <ele>2390</ele>
        <time>2013-09-02T14:05:09Z</time>
      </trkpt>
      <trkpt lat="44.5342" lon="6.80983">
        <ele>2387.6</ele>
        <time>2013-09-02T14:05:29Z</time>
      </trkpt>
      <trkpt lat="44.53419" lon="6.80976">
        <ele>2386.1</ele>
        <time>2013-09-02T14:05:31Z</time>
      </trkpt>
      <trkpt lat="44.53413" lon="6.8096">
        <ele>2381.8</ele>
        <time>2013-09-02T14:05:35Z</time>
      </trkpt>
      <trkpt lat="44.53411" lon="6.80952">
        <ele>2380.8</ele>
        <time>2013-09-02T14:05:37Z</time>
      </trkpt>
      <trkpt lat="44.53407" lon="6.80937">
        <ele>2377.5</ele>
        <time>2013-09-02T14:05:41Z</time>
      </trkpt>
      <trkpt lat="44.53405" lon="6.80934">
        <ele>2378</ele>
        <time>2013-09-02T14:05:42Z</time>
      </trkpt>
      <trkpt lat="44.53402" lon="6.80915">
        <ele>2374.6</ele>
        <time>2013-09-02T14:05:46Z</time>
      </trkpt>
      <trkpt lat="44.534" lon="6.80911">
        <ele>2374.6</ele>
        <time>2013-09-02T14:05:47Z</time>
      </trkpt>
      <trkpt lat="44.53399" lon="6.80906">
        <ele>2373.2</ele>
        <time>2013-09-02T14:05:48Z</time>
      </trkpt>
      <trkpt lat="44.53394" lon="6.80882">
        <ele>2370.3</ele>
        <time>2013-09-02T14:05:53Z</time>
      </trkpt>
      <trkpt lat="44.53393" lon="6.80877">
        <ele>2369.8</ele>
        <time>2013-09-02T14:05:54Z</time>
      </trkpt>
      <trkpt lat="44.5339" lon="6.80863">
        <ele>2367.9</ele>
        <time>2013-09-02T14:05:57Z</time>
      </trkpt>
      <trkpt lat="44.53387" lon="6.80844">
        <ele>2365</ele>
        <time>2013-09-02T14:06:01Z</time>
      </trkpt>
      <trkpt lat="44.53383" lon="6.80828">
        <ele>2362.1</ele>
        <time>2013-09-02T14:06:05Z</time>
      </trkpt>
      <trkpt lat="44.53382" lon="6.80824">
        <ele>2361.6</ele>
        <time>2013-09-02T14:06:06Z</time>
      </trkpt>
      <trkpt lat="44.53378" lon="6.80808">
        <ele>2358.7</ele>
        <time>2013-09-02T14:06:10Z</time>
      </trkpt>
      <trkpt lat="44.53374" lon="6.80792">
        <ele>2356.3</ele>
        <time>2013-09-02T14:06:14Z</time>
      </trkpt>
      <trkpt lat="44.53366" lon="6.80781">
        <ele>2353</ele>
        <time>2013-09-02T14:06:19Z</time>
      </trkpt>
      <trkpt lat="44.53366" lon="6.80782">
        <ele>2352.5</ele>
        <time>2013-09-02T14:06:20Z</time>
      </trkpt>
      <trkpt lat="44.53368" lon="6.80781">
        <ele>2352</ele>
        <time>2013-09-02T14:06:28Z</time>
      </trkpt>
      <trkpt lat="44.53369" lon="6.8078">
        <ele>2352.5</ele>
        <time>2013-09-02T14:06:29Z</time>
      </trkpt>
      <trkpt lat="44.53371" lon="6.80779">
        <ele>2352.5</ele>
        <time>2013-09-02T14:06:30Z</time>
      </trkpt>
      <trkpt lat="44.53374" lon="6.80778">
        <ele>2352.5</ele>
        <time>2013-09-02T14:06:31Z</time>
      </trkpt>
      <trkpt lat="44.53376" lon="6.80777">
        <ele>2351.5</ele>
        <time>2013-09-02T14:06:32Z</time>
      </trkpt>
      <trkpt lat="44.53379" lon="6.80775">
        <ele>2351.5</ele>
        <time>2013-09-02T14:06:33Z</time>
      </trkpt>
      <trkpt lat="44.53398" lon="6.80768">
        <ele>2349.1</ele>
        <time>2013-09-02T14:06:38Z</time>
      </trkpt>
      <trkpt lat="44.5341" lon="6.80767">
        <ele>2346.2</ele>
        <time>2013-09-02T14:06:42Z</time>
      </trkpt>
      <trkpt lat="44.5341" lon="6.80765">
        <ele>2345.8</ele>
        <time>2013-09-02T14:06:43Z</time>
      </trkpt>
      <trkpt lat="44.53409" lon="6.80762">
        <ele>2345.3</ele>
        <time>2013-09-02T14:06:44Z</time>
      </trkpt>
      <trkpt lat="44.53408" lon="6.80758">
        <ele>2344.8</ele>
        <time>2013-09-02T14:06:45Z</time>
      </trkpt>
      <trkpt lat="44.53406" lon="6.80752">
        <ele>2344.3</ele>
        <time>2013-09-02T14:06:46Z</time>
      </trkpt>
      <trkpt lat="44.53403" lon="6.8074">
        <ele>2342.9</ele>
        <time>2013-09-02T14:06:48Z</time>
      </trkpt>
      <trkpt lat="44.53402" lon="6.80735">
        <ele>2341.9</ele>
        <time>2013-09-02T14:06:49Z</time>
      </trkpt>
      <trkpt lat="44.53392" lon="6.80715">
        <ele>2339</ele>
        <time>2013-09-02T14:06:53Z</time>
      </trkpt>
      <trkpt lat="44.53387" lon="6.80703">
        <ele>2336.1</ele>
        <time>2013-09-02T14:06:56Z</time>
      </trkpt>
      <trkpt lat="44.53387" lon="6.80699">
        <ele>2335.7</ele>
        <time>2013-09-02T14:06:57Z</time>
      </trkpt>
      <trkpt lat="44.53389" lon="6.80696">
        <ele>2335.2</ele>
        <time>2013-09-02T14:06:58Z</time>
      </trkpt>
      <trkpt lat="44.53392" lon="6.80693">
        <ele>2334.2</ele>
        <time>2013-09-02T14:06:59Z</time>
      </trkpt>
      <trkpt lat="44.53396" lon="6.80691">
        <ele>2334.2</ele>
        <time>2013-09-02T14:07:00Z</time>
      </trkpt>
      <trkpt lat="44.53401" lon="6.8069">
        <ele>2334.2</ele>
        <time>2013-09-02T14:07:01Z</time>
      </trkpt>
      <trkpt lat="44.53406" lon="6.8069">
        <ele>2333.3</ele>
        <time>2013-09-02T14:07:02Z</time>
      </trkpt>
      <trkpt lat="44.53411" lon="6.80689">
        <ele>2332.8</ele>
        <time>2013-09-02T14:07:03Z</time>
      </trkpt>
      <trkpt lat="44.53424" lon="6.80687">
        <ele>2331.8</ele>
        <time>2013-09-02T14:07:07Z</time>
      </trkpt>
      <trkpt lat="44.53423" lon="6.80685">
        <ele>2330.4</ele>
        <time>2013-09-02T14:07:08Z</time>
      </trkpt>
      <trkpt lat="44.53415" lon="6.8067">
        <ele>2329.9</ele>
        <time>2013-09-02T14:07:12Z</time>
      </trkpt>
      <trkpt lat="44.53415" lon="6.80668">
        <ele>2328.9</ele>
        <time>2013-09-02T14:07:13Z</time>
      </trkpt>
      <trkpt lat="44.53417" lon="6.80666">
        <ele>2328</ele>
        <time>2013-09-02T14:07:14Z</time>
      </trkpt>
      <trkpt lat="44.53419" lon="6.80666">
        <ele>2327.5</ele>
        <time>2013-09-02T14:07:15Z</time>
      </trkpt>
      <trkpt lat="44.53421" lon="6.80664">
        <ele>2327.5</ele>
        <time>2013-09-02T14:07:16Z</time>
      </trkpt>
      <trkpt lat="44.53424" lon="6.80662">
        <ele>2327.5</ele>
        <time>2013-09-02T14:07:17Z</time>
      </trkpt>
      <trkpt lat="44.5343" lon="6.80655">
        <ele>2326.5</ele>
        <time>2013-09-02T14:07:20Z</time>
      </trkpt>
      <trkpt lat="44.5343" lon="6.80652">
        <ele>2325.1</ele>
        <time>2013-09-02T14:07:21Z</time>
      </trkpt>
      <trkpt lat="44.53429" lon="6.80649">
        <ele>2324.6</ele>
        <time>2013-09-02T14:07:22Z</time>
      </trkpt>
      <trkpt lat="44.53429" lon="6.80645">
        <ele>2324.6</ele>
        <time>2013-09-02T14:07:23Z</time>
      </trkpt>
      <trkpt lat="44.53429" lon="6.80642">
        <ele>2324.1</ele>
        <time>2013-09-02T14:07:24Z</time>
      </trkpt>
      <trkpt lat="44.5343" lon="6.80639">
        <ele>2323.6</ele>
        <time>2013-09-02T14:07:25Z</time>
      </trkpt>
      <trkpt lat="44.53431" lon="6.80636">
        <ele>2322.7</ele>
        <time>2013-09-02T14:07:26Z</time>
      </trkpt>
      <trkpt lat="44.53431" lon="6.80632">
        <ele>2321.7</ele>
        <time>2013-09-02T14:07:27Z</time>
      </trkpt>
      <trkpt lat="44.53431" lon="6.80628">
        <ele>2321.2</ele>
        <time>2013-09-02T14:07:28Z</time>
      </trkpt>
      <trkpt lat="44.53433" lon="6.80626">
        <ele>2321.2</ele>
        <time>2013-09-02T14:07:29Z</time>
      </trkpt>
      <trkpt lat="44.53435" lon="6.80624">
        <ele>2320.3</ele>
        <time>2013-09-02T14:07:30Z</time>
      </trkpt>
      <trkpt lat="44.53438" lon="6.80623">
        <ele>2320.3</ele>
        <time>2013-09-02T14:07:31Z</time>
      </trkpt>
      <trkpt lat="44.53441" lon="6.80623">
        <ele>2319.3</ele>
        <time>2013-09-02T14:07:32Z</time>
      </trkpt>
      <trkpt lat="44.53446" lon="6.80623">
        <ele>2318.8</ele>
        <time>2013-09-02T14:07:33Z</time>
      </trkpt>
      <trkpt lat="44.5345" lon="6.80623">
        <ele>2318.4</ele>
        <time>2013-09-02T14:07:34Z</time>
      </trkpt>
      <trkpt lat="44.53455" lon="6.80622">
        <ele>2317.4</ele>
        <time>2013-09-02T14:07:35Z</time>
      </trkpt>
      <trkpt lat="44.53459" lon="6.80621">
        <ele>2316.9</ele>
        <time>2013-09-02T14:07:36Z</time>
      </trkpt>
      <trkpt lat="44.53463" lon="6.80621">
        <ele>2316.4</ele>
        <time>2013-09-02T14:07:37Z</time>
      </trkpt>
      <trkpt lat="44.53466" lon="6.80621">
        <ele>2315.5</ele>
        <time>2013-09-02T14:07:38Z</time>
      </trkpt>
      <trkpt lat="44.5347" lon="6.80622">
        <ele>2314.5</ele>
        <time>2013-09-02T14:07:39Z</time>
      </trkpt>
      <trkpt lat="44.53473" lon="6.80623">
        <ele>2314</ele>
        <time>2013-09-02T14:07:40Z</time>
      </trkpt>
      <trkpt lat="44.53475" lon="6.80622">
        <ele>2313.6</ele>
        <time>2013-09-02T14:07:41Z</time>
      </trkpt>
      <trkpt lat="44.53477" lon="6.8062">
        <ele>2312.6</ele>
        <time>2013-09-02T14:07:42Z</time>
      </trkpt>
      <trkpt lat="44.53477" lon="6.80616">
        <ele>2312.1</ele>
        <time>2013-09-02T14:07:43Z</time>
      </trkpt>
      <trkpt lat="44.53477" lon="6.8061">
        <ele>2311.6</ele>
        <time>2013-09-02T14:07:44Z</time>
      </trkpt>
      <trkpt lat="44.53475" lon="6.80605">
        <ele>2310.7</ele>
        <time>2013-09-02T14:07:45Z</time>
      </trkpt>
      <trkpt lat="44.53475" lon="6.806">
        <ele>2309.7</ele>
        <time>2013-09-02T14:07:46Z</time>
      </trkpt>
      <trkpt lat="44.53474" lon="6.80596">
        <ele>2309.7</ele>
        <time>2013-09-02T14:07:47Z</time>
      </trkpt>
      <trkpt lat="44.53473" lon="6.80589">
        <ele>2307.8</ele>
        <time>2013-09-02T14:07:49Z</time>
      </trkpt>
      <trkpt lat="44.53472" lon="6.80586">
        <ele>2307.3</ele>
        <time>2013-09-02T14:07:50Z</time>
      </trkpt>
      <trkpt lat="44.53472" lon="6.80582">
        <ele>2305.9</ele>
        <time>2013-09-02T14:07:51Z</time>
      </trkpt>
      <trkpt lat="44.53474" lon="6.80579">
        <ele>2305.9</ele>
        <time>2013-09-02T14:07:52Z</time>
      </trkpt>
      <trkpt lat="44.53477" lon="6.80578">
        <ele>2304.9</ele>
        <time>2013-09-02T14:07:53Z</time>
      </trkpt>
      <trkpt lat="44.53481" lon="6.80575">
        <ele>2304.9</ele>
        <time>2013-09-02T14:07:54Z</time>
      </trkpt>
      <trkpt lat="44.53496" lon="6.80571">
        <ele>2301.5</ele>
        <time>2013-09-02T14:07:58Z</time>
      </trkpt>
      <trkpt lat="44.53497" lon="6.80569">
        <ele>2300.1</ele>
        <time>2013-09-02T14:07:59Z</time>
      </trkpt>
      <trkpt lat="44.53497" lon="6.80566">
        <ele>2300.1</ele>
        <time>2013-09-02T14:08:00Z</time>
      </trkpt>
      <trkpt lat="44.53495" lon="6.80563">
        <ele>2300.1</ele>
        <time>2013-09-02T14:08:01Z</time>
      </trkpt>
      <trkpt lat="44.53492" lon="6.80559">
        <ele>2299.1</ele>
        <time>2013-09-02T14:08:02Z</time>
      </trkpt>
      <trkpt lat="44.53487" lon="6.80555">
        <ele>2299.1</ele>
        <time>2013-09-02T14:08:03Z</time>
      </trkpt>
      <trkpt lat="44.53468" lon="6.8054">
        <ele>2294.8</ele>
        <time>2013-09-02T14:08:08Z</time>
      </trkpt>
      <trkpt lat="44.53465" lon="6.8054">
        <ele>2294.8</ele>
        <time>2013-09-02T14:08:09Z</time>
      </trkpt>
      <trkpt lat="44.53465" lon="6.80543">
        <ele>2295.3</ele>
        <time>2013-09-02T14:08:18Z</time>
      </trkpt>
      <trkpt lat="44.53454" lon="6.80549">
        <ele>2294.8</ele>
        <time>2013-09-02T14:08:26Z</time>
      </trkpt>
      <trkpt lat="44.53449" lon="6.80551">
        <ele>2293.8</ele>
        <time>2013-09-02T14:08:27Z</time>
      </trkpt>
      <trkpt lat="44.53439" lon="6.80554">
        <ele>2293.4</ele>
        <time>2013-09-02T14:08:29Z</time>
      </trkpt>
      <trkpt lat="44.53433" lon="6.80555">
        <ele>2292.9</ele>
        <time>2013-09-02T14:08:30Z</time>
      </trkpt>
      <trkpt lat="44.53428" lon="6.80554">
        <ele>2291</ele>
        <time>2013-09-02T14:08:31Z</time>
      </trkpt>
      <trkpt lat="44.53411" lon="6.8055">
        <ele>2288.1</ele>
        <time>2013-09-02T14:08:34Z</time>
      </trkpt>
      <trkpt lat="44.53395" lon="6.80545">
        <ele>2284.7</ele>
        <time>2013-09-02T14:08:37Z</time>
      </trkpt>
      <trkpt lat="44.53381" lon="6.80541">
        <ele>2282.8</ele>
        <time>2013-09-02T14:08:40Z</time>
      </trkpt>
      <trkpt lat="44.53373" lon="6.80538">
        <ele>2279.4</ele>
        <time>2013-09-02T14:08:43Z</time>
      </trkpt>
      <trkpt lat="44.53372" lon="6.80537">
        <ele>2279.4</ele>
        <time>2013-09-02T14:08:44Z</time>
      </trkpt>
      <trkpt lat="44.53371" lon="6.80535">
        <ele>2279.4</ele>
        <time>2013-09-02T14:08:46Z</time>
      </trkpt>
      <trkpt lat="44.53404" lon="6.80517">
        <ele>2275.6</ele>
        <time>2013-09-02T14:08:58Z</time>
      </trkpt>
      <trkpt lat="44.53426" lon="6.80499">
        <ele>2272.7</ele>
        <time>2013-09-02T14:09:07Z</time>
      </trkpt>
      <trkpt lat="44.53426" lon="6.80497">
        <ele>2272.2</ele>
        <time>2013-09-02T14:09:08Z</time>
      </trkpt>
      <trkpt lat="44.53424" lon="6.80497">
        <ele>2271.7</ele>
        <time>2013-09-02T14:09:09Z</time>
      </trkpt>
      <trkpt lat="44.53422" lon="6.80497">
        <ele>2271.7</ele>
        <time>2013-09-02T14:09:10Z</time>
      </trkpt>
      <trkpt lat="44.53419" lon="6.80497">
        <ele>2270.8</ele>
        <time>2013-09-02T14:09:11Z</time>
      </trkpt>
      <trkpt lat="44.53415" lon="6.80497">
        <ele>2271.3</ele>
        <time>2013-09-02T14:09:12Z</time>
      </trkpt>
      <trkpt lat="44.53411" lon="6.80496">
        <ele>2270.8</ele>
        <time>2013-09-02T14:09:13Z</time>
      </trkpt>
      <trkpt lat="44.53408" lon="6.80496">
        <ele>2270.3</ele>
        <time>2013-09-02T14:09:14Z</time>
      </trkpt>
      <trkpt lat="44.53404" lon="6.80495">
        <ele>2268.4</ele>
        <time>2013-09-02T14:09:15Z</time>
      </trkpt>
      <trkpt lat="44.53401" lon="6.80496">
        <ele>2268.4</ele>
        <time>2013-09-02T14:09:16Z</time>
      </trkpt>
      <trkpt lat="44.53397" lon="6.80496">
        <ele>2268.4</ele>
        <time>2013-09-02T14:09:17Z</time>
      </trkpt>
      <trkpt lat="44.53394" lon="6.80495">
        <ele>2268.4</ele>
        <time>2013-09-02T14:09:18Z</time>
      </trkpt>
      <trkpt lat="44.5339" lon="6.80494">
        <ele>2266.5</ele>
        <time>2013-09-02T14:09:19Z</time>
      </trkpt>
      <trkpt lat="44.53387" lon="6.80494">
        <ele>2266.5</ele>
        <time>2013-09-02T14:09:20Z</time>
      </trkpt>
      <trkpt lat="44.53368" lon="6.80491">
        <ele>2262.6</ele>
        <time>2013-09-02T14:09:25Z</time>
      </trkpt>
      <trkpt lat="44.53364" lon="6.80492">
        <ele>2263.6</ele>
        <time>2013-09-02T14:09:26Z</time>
      </trkpt>
      <trkpt lat="44.53344" lon="6.805">
        <ele>2260.2</ele>
        <time>2013-09-02T14:09:30Z</time>
      </trkpt>
      <trkpt lat="44.53328" lon="6.80503">
        <ele>2257.3</ele>
        <time>2013-09-02T14:09:33Z</time>
      </trkpt>
      <trkpt lat="44.53312" lon="6.80504">
        <ele>2252.5</ele>
        <time>2013-09-02T14:09:36Z</time>
      </trkpt>
      <trkpt lat="44.53308" lon="6.80504">
        <ele>2253</ele>
        <time>2013-09-02T14:09:37Z</time>
      </trkpt>
      <trkpt lat="44.53295" lon="6.80508">
        <ele>2251.5</ele>
        <time>2013-09-02T14:09:41Z</time>
      </trkpt>
      <trkpt lat="44.5329" lon="6.8051">
        <ele>2250.6</ele>
        <time>2013-09-02T14:09:42Z</time>
      </trkpt>
      <trkpt lat="44.53285" lon="6.8051">
        <ele>2250.6</ele>
        <time>2013-09-02T14:09:43Z</time>
      </trkpt>
      <trkpt lat="44.5328" lon="6.8051">
        <ele>2248.7</ele>
        <time>2013-09-02T14:09:44Z</time>
      </trkpt>
      <trkpt lat="44.53276" lon="6.80509">
        <ele>2248.2</ele>
        <time>2013-09-02T14:09:45Z</time>
      </trkpt>
      <trkpt lat="44.53272" lon="6.80509">
        <ele>2246.7</ele>
        <time>2013-09-02T14:09:46Z</time>
      </trkpt>
      <trkpt lat="44.53268" lon="6.80511">
        <ele>2246.3</ele>
        <time>2013-09-02T14:09:47Z</time>
      </trkpt>
      <trkpt lat="44.53264" lon="6.80513">
        <ele>2245.8</ele>
        <time>2013-09-02T14:09:48Z</time>
      </trkpt>
      <trkpt lat="44.53259" lon="6.80513">
        <ele>2244.8</ele>
        <time>2013-09-02T14:09:49Z</time>
      </trkpt>
      <trkpt lat="44.53255" lon="6.80512">
        <ele>2244.3</ele>
        <time>2013-09-02T14:09:50Z</time>
      </trkpt>
      <trkpt lat="44.53251" lon="6.8051">
        <ele>2243.9</ele>
        <time>2013-09-02T14:09:51Z</time>
      </trkpt>
      <trkpt lat="44.53244" lon="6.80509">
        <ele>2242.4</ele>
        <time>2013-09-02T14:09:53Z</time>
      </trkpt>
      <trkpt lat="44.5324" lon="6.8051">
        <ele>2242.4</ele>
        <time>2013-09-02T14:09:54Z</time>
      </trkpt>
      <trkpt lat="44.53237" lon="6.80512">
        <ele>2241</ele>
        <time>2013-09-02T14:09:55Z</time>
      </trkpt>
      <trkpt lat="44.53235" lon="6.80516">
        <ele>2240.5</ele>
        <time>2013-09-02T14:09:56Z</time>
      </trkpt>
      <trkpt lat="44.53233" lon="6.80519">
        <ele>2240</ele>
        <time>2013-09-02T14:09:57Z</time>
      </trkpt>
      <trkpt lat="44.53228" lon="6.80527">
        <ele>2239.1</ele>
        <time>2013-09-02T14:09:59Z</time>
      </trkpt>
      <trkpt lat="44.53225" lon="6.80534">
        <ele>2237.6</ele>
        <time>2013-09-02T14:10:00Z</time>
      </trkpt>
      <trkpt lat="44.53223" lon="6.8054">
        <ele>2237.6</ele>
        <time>2013-09-02T14:10:01Z</time>
      </trkpt>
      <trkpt lat="44.5322" lon="6.80548">
        <ele>2236.6</ele>
        <time>2013-09-02T14:10:03Z</time>
      </trkpt>
      <trkpt lat="44.53219" lon="6.8055">
        <ele>2235.7</ele>
        <time>2013-09-02T14:10:04Z</time>
      </trkpt>
      <trkpt lat="44.53219" lon="6.80546">
        <ele>2235.2</ele>
        <time>2013-09-02T14:10:11Z</time>
      </trkpt>
      <trkpt lat="44.5322" lon="6.80526">
        <ele>2233.8</ele>
        <time>2013-09-02T14:10:21Z</time>
      </trkpt>
      <trkpt lat="44.53218" lon="6.80516">
        <ele>2233.3</ele>
        <time>2013-09-02T14:10:23Z</time>
      </trkpt>
      <trkpt lat="44.53216" lon="6.80512">
        <ele>2231.8</ele>
        <time>2013-09-02T14:10:24Z</time>
      </trkpt>
      <trkpt lat="44.53214" lon="6.80506">
        <ele>2230.9</ele>
        <time>2013-09-02T14:10:25Z</time>
      </trkpt>
      <trkpt lat="44.53212" lon="6.805">
        <ele>2230.4</ele>
        <time>2013-09-02T14:10:26Z</time>
      </trkpt>
      <trkpt lat="44.53212" lon="6.80493">
        <ele>2229.4</ele>
        <time>2013-09-02T14:10:27Z</time>
      </trkpt>
      <trkpt lat="44.53211" lon="6.80487">
        <ele>2229</ele>
        <time>2013-09-02T14:10:28Z</time>
      </trkpt>
      <trkpt lat="44.53209" lon="6.80481">
        <ele>2228.5</ele>
        <time>2013-09-02T14:10:29Z</time>
      </trkpt>
      <trkpt lat="44.53205" lon="6.80466">
        <ele>2225.6</ele>
        <time>2013-09-02T14:10:32Z</time>
      </trkpt>
      <trkpt lat="44.53205" lon="6.80459">
        <ele>2225.6</ele>
        <time>2013-09-02T14:10:33Z</time>
      </trkpt>
      <trkpt lat="44.53204" lon="6.80453">
        <ele>2224.2</ele>
        <time>2013-09-02T14:10:34Z</time>
      </trkpt>
      <trkpt lat="44.53204" lon="6.80446">
        <ele>2223.7</ele>
        <time>2013-09-02T14:10:35Z</time>
      </trkpt>
      <trkpt lat="44.53204" lon="6.80439">
        <ele>2223.2</ele>
        <time>2013-09-02T14:10:36Z</time>
      </trkpt>
      <trkpt lat="44.53204" lon="6.80431">
        <ele>2222.2</ele>
        <time>2013-09-02T14:10:37Z</time>
      </trkpt>
      <trkpt lat="44.53205" lon="6.80423">
        <ele>2221.7</ele>
        <time>2013-09-02T14:10:38Z</time>
      </trkpt>
      <trkpt lat="44.53207" lon="6.80417">
        <ele>2221.3</ele>
        <time>2013-09-02T14:10:39Z</time>
      </trkpt>
      <trkpt lat="44.53212" lon="6.80395">
        <ele>2217.9</ele>
        <time>2013-09-02T14:10:43Z</time>
      </trkpt>
      <trkpt lat="44.53213" lon="6.8039">
        <ele>2217.4</ele>
        <time>2013-09-02T14:10:44Z</time>
      </trkpt>
      <trkpt lat="44.53216" lon="6.80385">
        <ele>2216.5</ele>
        <time>2013-09-02T14:10:45Z</time>
      </trkpt>
      <trkpt lat="44.5322" lon="6.8038">
        <ele>2216.5</ele>
        <time>2013-09-02T14:10:46Z</time>
      </trkpt>
      <trkpt lat="44.53224" lon="6.80376">
        <ele>2215</ele>
        <time>2013-09-02T14:10:47Z</time>
      </trkpt>
      <trkpt lat="44.53227" lon="6.80373">
        <ele>2214.5</ele>
        <time>2013-09-02T14:10:48Z</time>
      </trkpt>
      <trkpt lat="44.53229" lon="6.80367">
        <ele>2215</ele>
        <time>2013-09-02T14:10:49Z</time>
      </trkpt>
      <trkpt lat="44.53231" lon="6.80361">
        <ele>2213.6</ele>
        <time>2013-09-02T14:10:50Z</time>
      </trkpt>
      <trkpt lat="44.53233" lon="6.80356">
        <ele>2212.1</ele>
        <time>2013-09-02T14:10:51Z</time>
      </trkpt>
      <trkpt lat="44.53237" lon="6.80351">
        <ele>2212.1</ele>
        <time>2013-09-02T14:10:52Z</time>
      </trkpt>
      <trkpt lat="44.53241" lon="6.80347">
        <ele>2211.2</ele>
        <time>2013-09-02T14:10:53Z</time>
      </trkpt>
      <trkpt lat="44.53245" lon="6.80343">
        <ele>2211.2</ele>
        <time>2013-09-02T14:10:54Z</time>
      </trkpt>
      <trkpt lat="44.53247" lon="6.8034">
        <ele>2210.2</ele>
        <time>2013-09-02T14:10:55Z</time>
      </trkpt>
      <trkpt lat="44.5325" lon="6.80335">
        <ele>2209.3</ele>
        <time>2013-09-02T14:10:56Z</time>
      </trkpt>
      <trkpt lat="44.53253" lon="6.80329">
        <ele>2208.8</ele>
        <time>2013-09-02T14:10:57Z</time>
      </trkpt>
      <trkpt lat="44.53256" lon="6.80323">
        <ele>2207.8</ele>
        <time>2013-09-02T14:10:58Z</time>
      </trkpt>
      <trkpt lat="44.53257" lon="6.80317">
        <ele>2206.8</ele>
        <time>2013-09-02T14:10:59Z</time>
      </trkpt>
      <trkpt lat="44.53258" lon="6.80313">
        <ele>2206.4</ele>
        <time>2013-09-02T14:11:00Z</time>
      </trkpt>
      <trkpt lat="44.53259" lon="6.80309">
        <ele>2205.9</ele>
        <time>2013-09-02T14:11:01Z</time>
      </trkpt>
      <trkpt lat="44.53258" lon="6.80305">
        <ele>2205.4</ele>
        <time>2013-09-02T14:11:02Z</time>
      </trkpt>
      <trkpt lat="44.53256" lon="6.80302">
        <ele>2204.9</ele>
        <time>2013-09-02T14:11:03Z</time>
      </trkpt>
      <trkpt lat="44.53253" lon="6.803">
        <ele>2204</ele>
        <time>2013-09-02T14:11:04Z</time>
      </trkpt>
      <trkpt lat="44.5325" lon="6.80297">
        <ele>2203.5</ele>
        <time>2013-09-02T14:11:05Z</time>
      </trkpt>
      <trkpt lat="44.53247" lon="6.80295">
        <ele>2203</ele>
        <time>2013-09-02T14:11:06Z</time>
      </trkpt>
      <trkpt lat="44.53244" lon="6.80293">
        <ele>2202</ele>
        <time>2013-09-02T14:11:07Z</time>
      </trkpt>
      <trkpt lat="44.53241" lon="6.80292">
        <ele>2201.1</ele>
        <time>2013-09-02T14:11:08Z</time>
      </trkpt>
      <trkpt lat="44.53237" lon="6.80293">
        <ele>2201.1</ele>
        <time>2013-09-02T14:11:09Z</time>
      </trkpt>
      <trkpt lat="44.53233" lon="6.80296">
        <ele>2199.6</ele>
        <time>2013-09-02T14:11:10Z</time>
      </trkpt>
      <trkpt lat="44.5323" lon="6.80299">
        <ele>2199.2</ele>
        <time>2013-09-02T14:11:11Z</time>
      </trkpt>
      <trkpt lat="44.53227" lon="6.80302">
        <ele>2199.2</ele>
        <time>2013-09-02T14:11:12Z</time>
      </trkpt>
      <trkpt lat="44.53223" lon="6.80302">
        <ele>2198.7</ele>
        <time>2013-09-02T14:11:13Z</time>
      </trkpt>
      <trkpt lat="44.53219" lon="6.80303">
        <ele>2197.7</ele>
        <time>2013-09-02T14:11:14Z</time>
      </trkpt>
      <trkpt lat="44.53214" lon="6.80304">
        <ele>2196.8</ele>
        <time>2013-09-02T14:11:15Z</time>
      </trkpt>
      <trkpt lat="44.53199" lon="6.80306">
        <ele>2193.4</ele>
        <time>2013-09-02T14:11:18Z</time>
      </trkpt>
      <trkpt lat="44.53194" lon="6.80307">
        <ele>2193.4</ele>
        <time>2013-09-02T14:11:19Z</time>
      </trkpt>
      <trkpt lat="44.5319" lon="6.80307">
        <ele>2193.4</ele>
        <time>2013-09-02T14:11:20Z</time>
      </trkpt>
      <trkpt lat="44.53185" lon="6.80305">
        <ele>2191.5</ele>
        <time>2013-09-02T14:11:21Z</time>
      </trkpt>
      <trkpt lat="44.5318" lon="6.80303">
        <ele>2190.5</ele>
        <time>2013-09-02T14:11:22Z</time>
      </trkpt>
      <trkpt lat="44.53175" lon="6.80299">
        <ele>2189.5</ele>
        <time>2013-09-02T14:11:23Z</time>
      </trkpt>
      <trkpt lat="44.53171" lon="6.80296">
        <ele>2188.6</ele>
        <time>2013-09-02T14:11:24Z</time>
      </trkpt>
      <trkpt lat="44.53166" lon="6.80295">
        <ele>2188.6</ele>
        <time>2013-09-02T14:11:25Z</time>
      </trkpt>
      <trkpt lat="44.53162" lon="6.80294">
        <ele>2187.6</ele>
        <time>2013-09-02T14:11:26Z</time>
      </trkpt>
      <trkpt lat="44.5315" lon="6.80296">
        <ele>2185.7</ele>
        <time>2013-09-02T14:11:29Z</time>
      </trkpt>
      <trkpt lat="44.53146" lon="6.80298">
        <ele>2184.7</ele>
        <time>2013-09-02T14:11:30Z</time>
      </trkpt>
      <trkpt lat="44.53142" lon="6.80302">
        <ele>2184.7</ele>
        <time>2013-09-02T14:11:31Z</time>
      </trkpt>
      <trkpt lat="44.53139" lon="6.80303">
        <ele>2183.3</ele>
        <time>2013-09-02T14:11:32Z</time>
      </trkpt>
      <trkpt lat="44.53136" lon="6.80302">
        <ele>2182.3</ele>
        <time>2013-09-02T14:11:33Z</time>
      </trkpt>
      <trkpt lat="44.53133" lon="6.80302">
        <ele>2181.9</ele>
        <time>2013-09-02T14:11:34Z</time>
      </trkpt>
      <trkpt lat="44.53131" lon="6.80302">
        <ele>2181.9</ele>
        <time>2013-09-02T14:11:35Z</time>
      </trkpt>
      <trkpt lat="44.5313" lon="6.80302">
        <ele>2182.3</ele>
        <time>2013-09-02T14:11:51Z</time>
      </trkpt>
      <trkpt lat="44.53131" lon="6.80301">
        <ele>2181.4</ele>
        <time>2013-09-02T14:12:25Z</time>
      </trkpt>
      <trkpt lat="44.53123" lon="6.80324">
        <ele>2179.5</ele>
        <time>2013-09-02T14:12:36Z</time>
      </trkpt>
      <trkpt lat="44.53123" lon="6.8033">
        <ele>2178.5</ele>
        <time>2013-09-02T14:12:37Z</time>
      </trkpt>
      <trkpt lat="44.53123" lon="6.80336">
        <ele>2178</ele>
        <time>2013-09-02T14:12:38Z</time>
      </trkpt>
      <trkpt lat="44.53124" lon="6.80343">
        <ele>2177.5</ele>
        <time>2013-09-02T14:12:39Z</time>
      </trkpt>
      <trkpt lat="44.53124" lon="6.8035">
        <ele>2176.6</ele>
        <time>2013-09-02T14:12:40Z</time>
      </trkpt>
      <trkpt lat="44.53124" lon="6.80358">
        <ele>2176.6</ele>
        <time>2013-09-02T14:12:41Z</time>
      </trkpt>
      <trkpt lat="44.53123" lon="6.80365">
        <ele>2176.1</ele>
        <time>2013-09-02T14:12:42Z</time>
      </trkpt>
      <trkpt lat="44.53121" lon="6.8037">
        <ele>2175.6</ele>
        <time>2013-09-02T14:12:43Z</time>
      </trkpt>
      <trkpt lat="44.53118" lon="6.80376">
        <ele>2174.6</ele>
        <time>2013-09-02T14:12:44Z</time>
      </trkpt>
      <trkpt lat="44.53116" lon="6.80383">
        <ele>2173.7</ele>
        <time>2013-09-02T14:12:45Z</time>
      </trkpt>
      <trkpt lat="44.53111" lon="6.80404">
        <ele>2171.3</ele>
        <time>2013-09-02T14:12:48Z</time>
      </trkpt>
      <trkpt lat="44.53108" lon="6.80411">
        <ele>2170.3</ele>
        <time>2013-09-02T14:12:49Z</time>
      </trkpt>
      <trkpt lat="44.53106" lon="6.80418">
        <ele>2168.4</ele>
        <time>2013-09-02T14:12:50Z</time>
      </trkpt>
      <trkpt lat="44.531" lon="6.80437">
        <ele>2164.6</ele>
        <time>2013-09-02T14:12:54Z</time>
      </trkpt>
      <trkpt lat="44.53099" lon="6.80443">
        <ele>2164.1</ele>
        <time>2013-09-02T14:12:56Z</time>
      </trkpt>
      <trkpt lat="44.53098" lon="6.80446">
        <ele>2164.1</ele>
        <time>2013-09-02T14:12:57Z</time>
      </trkpt>
      <trkpt lat="44.53097" lon="6.80449">
        <ele>2164.1</ele>
        <time>2013-09-02T14:12:58Z</time>
      </trkpt>
      <trkpt lat="44.53096" lon="6.80452">
        <ele>2163.6</ele>
        <time>2013-09-02T14:12:59Z</time>
      </trkpt>
      <trkpt lat="44.53094" lon="6.80456">
        <ele>2163.1</ele>
        <time>2013-09-02T14:13:00Z</time>
      </trkpt>
      <trkpt lat="44.53093" lon="6.80461">
        <ele>2162.6</ele>
        <time>2013-09-02T14:13:01Z</time>
      </trkpt>
      <trkpt lat="44.53087" lon="6.80473">
        <ele>2160.7</ele>
        <time>2013-09-02T14:13:05Z</time>
      </trkpt>
      <trkpt lat="44.53085" lon="6.80471">
        <ele>2160.2</ele>
        <time>2013-09-02T14:13:08Z</time>
      </trkpt>
      <trkpt lat="44.53085" lon="6.80468">
        <ele>2160.2</ele>
        <time>2013-09-02T14:13:09Z</time>
      </trkpt>
      <trkpt lat="44.53082" lon="6.80453">
        <ele>2156.4</ele>
        <time>2013-09-02T14:13:13Z</time>
      </trkpt>
      <trkpt lat="44.53081" lon="6.80445">
        <ele>2155.9</ele>
        <time>2013-09-02T14:13:15Z</time>
      </trkpt>
      <trkpt lat="44.53072" lon="6.8041">
        <ele>2152.1</ele>
        <time>2013-09-02T14:13:21Z</time>
      </trkpt>
      <trkpt lat="44.53071" lon="6.80404">
        <ele>2152.1</ele>
        <time>2013-09-02T14:13:22Z</time>
      </trkpt>
      <trkpt lat="44.53069" lon="6.80396">
        <ele>2150.6</ele>
        <time>2013-09-02T14:13:23Z</time>
      </trkpt>
      <trkpt lat="44.53068" lon="6.80388">
        <ele>2150.1</ele>
        <time>2013-09-02T14:13:24Z</time>
      </trkpt>
      <trkpt lat="44.53067" lon="6.8038">
        <ele>2149.2</ele>
        <time>2013-09-02T14:13:25Z</time>
      </trkpt>
      <trkpt lat="44.53066" lon="6.80372">
        <ele>2148.2</ele>
        <time>2013-09-02T14:13:26Z</time>
      </trkpt>
      <trkpt lat="44.53063" lon="6.8035">
        <ele>2145.8</ele>
        <time>2013-09-02T14:13:29Z</time>
      </trkpt>
      <trkpt lat="44.53063" lon="6.80335">
        <ele>2144.4</ele>
        <time>2013-09-02T14:13:31Z</time>
      </trkpt>
      <trkpt lat="44.53063" lon="6.80328">
        <ele>2142.9</ele>
        <time>2013-09-02T14:13:32Z</time>
      </trkpt>
      <trkpt lat="44.53063" lon="6.80321">
        <ele>2142</ele>
        <time>2013-09-02T14:13:33Z</time>
      </trkpt>
      <trkpt lat="44.53061" lon="6.80313">
        <ele>2141.5</ele>
        <time>2013-09-02T14:13:34Z</time>
      </trkpt>
      <trkpt lat="44.53059" lon="6.80304">
        <ele>2139.6</ele>
        <time>2013-09-02T14:13:35Z</time>
      </trkpt>
      <trkpt lat="44.53057" lon="6.80296">
        <ele>2140</ele>
        <time>2013-09-02T14:13:36Z</time>
      </trkpt>
      <trkpt lat="44.53055" lon="6.80289">
        <ele>2138.6</ele>
        <time>2013-09-02T14:13:37Z</time>
      </trkpt>
      <trkpt lat="44.53053" lon="6.80282">
        <ele>2138.1</ele>
        <time>2013-09-02T14:13:38Z</time>
      </trkpt>
      <trkpt lat="44.53049" lon="6.80262">
        <ele>2137.2</ele>
        <time>2013-09-02T14:13:41Z</time>
      </trkpt>
      <trkpt lat="44.53046" lon="6.80256">
        <ele>2136.2</ele>
        <time>2013-09-02T14:13:42Z</time>
      </trkpt>
      <trkpt lat="44.53034" lon="6.8023">
        <ele>2132.3</ele>
        <time>2013-09-02T14:13:46Z</time>
      </trkpt>
      <trkpt lat="44.53031" lon="6.80224">
        <ele>2131.4</ele>
        <time>2013-09-02T14:13:47Z</time>
      </trkpt>
      <trkpt lat="44.53028" lon="6.80218">
        <ele>2130.9</ele>
        <time>2013-09-02T14:13:48Z</time>
      </trkpt>
      <trkpt lat="44.53026" lon="6.80212">
        <ele>2130.4</ele>
        <time>2013-09-02T14:13:49Z</time>
      </trkpt>
      <trkpt lat="44.53025" lon="6.80207">
        <ele>2130.9</ele>
        <time>2013-09-02T14:13:50Z</time>
      </trkpt>
      <trkpt lat="44.53024" lon="6.80201">
        <ele>2129</ele>
        <time>2013-09-02T14:13:51Z</time>
      </trkpt>
      <trkpt lat="44.53024" lon="6.80194">
        <ele>2128.5</ele>
        <time>2013-09-02T14:13:52Z</time>
      </trkpt>
      <trkpt lat="44.53023" lon="6.80187">
        <ele>2129</ele>
        <time>2013-09-02T14:13:53Z</time>
      </trkpt>
      <trkpt lat="44.5302" lon="6.80174">
        <ele>2126.6</ele>
        <time>2013-09-02T14:13:55Z</time>
      </trkpt>
      <trkpt lat="44.53011" lon="6.80153">
        <ele>2122.7</ele>
        <time>2013-09-02T14:13:59Z</time>
      </trkpt>
      <trkpt lat="44.53008" lon="6.80147">
        <ele>2121.8</ele>
        <time>2013-09-02T14:14:01Z</time>
      </trkpt>
      <trkpt lat="44.53003" lon="6.80138">
        <ele>2120.3</ele>
        <time>2013-09-02T14:14:04Z</time>
      </trkpt>
      <trkpt lat="44.52997" lon="6.80128">
        <ele>2118.4</ele>
        <time>2013-09-02T14:14:07Z</time>
      </trkpt>
      <trkpt lat="44.52989" lon="6.80107">
        <ele>2115.5</ele>
        <time>2013-09-02T14:14:14Z</time>
      </trkpt>
      <trkpt lat="44.52985" lon="6.801">
        <ele>2114.6</ele>
        <time>2013-09-02T14:14:16Z</time>
      </trkpt>
      <trkpt lat="44.52979" lon="6.80087">
        <ele>2111.7</ele>
        <time>2013-09-02T14:14:20Z</time>
      </trkpt>
      <trkpt lat="44.52978" lon="6.80083">
        <ele>2110.7</ele>
        <time>2013-09-02T14:14:21Z</time>
      </trkpt>
      <trkpt lat="44.52977" lon="6.80077">
        <ele>2110.7</ele>
        <time>2013-09-02T14:14:22Z</time>
      </trkpt>
      <trkpt lat="44.52975" lon="6.80065">
        <ele>2110.2</ele>
        <time>2013-09-02T14:14:24Z</time>
      </trkpt>
      <trkpt lat="44.5297" lon="6.8004">
        <ele>2107.8</ele>
        <time>2013-09-02T14:14:28Z</time>
      </trkpt>
      <trkpt lat="44.52966" lon="6.80024">
        <ele>2105.4</ele>
        <time>2013-09-02T14:14:31Z</time>
      </trkpt>
      <trkpt lat="44.5296" lon="6.80008">
        <ele>2102.1</ele>
        <time>2013-09-02T14:14:35Z</time>
      </trkpt>
      <trkpt lat="44.52959" lon="6.80008">
        <ele>2100.6</ele>
        <time>2013-09-02T14:14:48Z</time>
      </trkpt>
      <trkpt lat="44.52958" lon="6.80009">
        <ele>2100.1</ele>
        <time>2013-09-02T14:15:03Z</time>
      </trkpt>
      <trkpt lat="44.52957" lon="6.80012">
        <ele>2100.1</ele>
        <time>2013-09-02T14:15:12Z</time>
      </trkpt>
      <trkpt lat="44.52956" lon="6.80013">
        <ele>2099.7</ele>
        <time>2013-09-02T14:15:13Z</time>
      </trkpt>
      <trkpt lat="44.52954" lon="6.80016">
        <ele>2099.7</ele>
        <time>2013-09-02T14:15:14Z</time>
      </trkpt>
      <trkpt lat="44.52952" lon="6.80019">
        <ele>2097.7</ele>
        <time>2013-09-02T14:15:15Z</time>
      </trkpt>
      <trkpt lat="44.52951" lon="6.80024">
        <ele>2097.7</ele>
        <time>2013-09-02T14:15:16Z</time>
      </trkpt>
      <trkpt lat="44.52947" lon="6.80036">
        <ele>2095.8</ele>
        <time>2013-09-02T14:15:18Z</time>
      </trkpt>
      <trkpt lat="44.52946" lon="6.80041">
        <ele>2095.8</ele>
        <time>2013-09-02T14:15:19Z</time>
      </trkpt>
      <trkpt lat="44.52945" lon="6.80045">
        <ele>2095.3</ele>
        <time>2013-09-02T14:15:20Z</time>
      </trkpt>
      <trkpt lat="44.52941" lon="6.80054">
        <ele>2093.9</ele>
        <time>2013-09-02T14:15:22Z</time>
      </trkpt>
      <trkpt lat="44.5294" lon="6.80058">
        <ele>2093.9</ele>
        <time>2013-09-02T14:15:23Z</time>
      </trkpt>
      <trkpt lat="44.52938" lon="6.80072">
        <ele>2092</ele>
        <time>2013-09-02T14:15:26Z</time>
      </trkpt>
      <trkpt lat="44.52939" lon="6.80077">
        <ele>2091.5</ele>
        <time>2013-09-02T14:15:27Z</time>
      </trkpt>
      <trkpt lat="44.52939" lon="6.80083">
        <ele>2091</ele>
        <time>2013-09-02T14:15:28Z</time>
      </trkpt>
      <trkpt lat="44.52939" lon="6.801">
        <ele>2088.6</ele>
        <time>2013-09-02T14:15:31Z</time>
      </trkpt>
      <trkpt lat="44.5293" lon="6.80124">
        <ele>2085.2</ele>
        <time>2013-09-02T14:15:36Z</time>
      </trkpt>
      <trkpt lat="44.52927" lon="6.80129">
        <ele>2084.3</ele>
        <time>2013-09-02T14:15:37Z</time>
      </trkpt>
      <trkpt lat="44.52924" lon="6.80135">
        <ele>2083.3</ele>
        <time>2013-09-02T14:15:38Z</time>
      </trkpt>
      <trkpt lat="44.5292" lon="6.80141">
        <ele>2082.4</ele>
        <time>2013-09-02T14:15:39Z</time>
      </trkpt>
      <trkpt lat="44.52917" lon="6.80146">
        <ele>2081.9</ele>
        <time>2013-09-02T14:15:40Z</time>
      </trkpt>
      <trkpt lat="44.52915" lon="6.8015">
        <ele>2080.9</ele>
        <time>2013-09-02T14:15:41Z</time>
      </trkpt>
      <trkpt lat="44.52908" lon="6.80164">
        <ele>2079.5</ele>
        <time>2013-09-02T14:15:44Z</time>
      </trkpt>
      <trkpt lat="44.52906" lon="6.8017">
        <ele>2079</ele>
        <time>2013-09-02T14:15:45Z</time>
      </trkpt>
      <trkpt lat="44.52903" lon="6.80177">
        <ele>2078</ele>
        <time>2013-09-02T14:15:46Z</time>
      </trkpt>
      <trkpt lat="44.529" lon="6.80183">
        <ele>2077.6</ele>
        <time>2013-09-02T14:15:47Z</time>
      </trkpt>
      <trkpt lat="44.52896" lon="6.8019">
        <ele>2077.1</ele>
        <time>2013-09-02T14:15:48Z</time>
      </trkpt>
      <trkpt lat="44.52883" lon="6.80209">
        <ele>2074.7</ele>
        <time>2013-09-02T14:15:51Z</time>
      </trkpt>
      <trkpt lat="44.52879" lon="6.80214">
        <ele>2073.7</ele>
        <time>2013-09-02T14:15:52Z</time>
      </trkpt>
      <trkpt lat="44.52875" lon="6.80219">
        <ele>2072.7</ele>
        <time>2013-09-02T14:15:53Z</time>
      </trkpt>
      <trkpt lat="44.52872" lon="6.80223">
        <ele>2072.3</ele>
        <time>2013-09-02T14:15:54Z</time>
      </trkpt>
      <trkpt lat="44.52869" lon="6.80226">
        <ele>2071.3</ele>
        <time>2013-09-02T14:15:55Z</time>
      </trkpt>
      <trkpt lat="44.52866" lon="6.80228">
        <ele>2070.3</ele>
        <time>2013-09-02T14:15:56Z</time>
      </trkpt>
      <trkpt lat="44.52863" lon="6.8023">
        <ele>2069.9</ele>
        <time>2013-09-02T14:15:57Z</time>
      </trkpt>
      <trkpt lat="44.5286" lon="6.80231">
        <ele>2069.4</ele>
        <time>2013-09-02T14:15:58Z</time>
      </trkpt>
      <trkpt lat="44.52858" lon="6.8023">
        <ele>2068.4</ele>
        <time>2013-09-02T14:15:59Z</time>
      </trkpt>
      <trkpt lat="44.52857" lon="6.8023">
        <ele>2067.5</ele>
        <time>2013-09-02T14:16:00Z</time>
      </trkpt>
      <trkpt lat="44.52856" lon="6.80227">
        <ele>2066.5</ele>
        <time>2013-09-02T14:16:01Z</time>
      </trkpt>
      <trkpt lat="44.52855" lon="6.80225">
        <ele>2066.5</ele>
        <time>2013-09-02T14:16:02Z</time>
      </trkpt>
      <trkpt lat="44.52856" lon="6.80225">
        <ele>2065.5</ele>
        <time>2013-09-02T14:16:12Z</time>
      </trkpt>
      <trkpt lat="44.52856" lon="6.80226">
        <ele>2065.1</ele>
        <time>2013-09-02T14:16:21Z</time>
      </trkpt>
      <trkpt lat="44.52855" lon="6.80229">
        <ele>2065.1</ele>
        <time>2013-09-02T14:16:22Z</time>
      </trkpt>
      <trkpt lat="44.52855" lon="6.80231">
        <ele>2064.6</ele>
        <time>2013-09-02T14:16:23Z</time>
      </trkpt>
      <trkpt lat="44.52854" lon="6.80234">
        <ele>2064.1</ele>
        <time>2013-09-02T14:16:24Z</time>
      </trkpt>
      <trkpt lat="44.52853" lon="6.80236">
        <ele>2063.1</ele>
        <time>2013-09-02T14:16:25Z</time>
      </trkpt>
      <trkpt lat="44.52851" lon="6.80237">
        <ele>2062.7</ele>
        <time>2013-09-02T14:16:26Z</time>
      </trkpt>
      <trkpt lat="44.5285" lon="6.80237">
        <ele>2062.2</ele>
        <time>2013-09-02T14:16:27Z</time>
      </trkpt>
      <trkpt lat="44.52849" lon="6.80239">
        <ele>2061.7</ele>
        <time>2013-09-02T14:16:28Z</time>
      </trkpt>
      <trkpt lat="44.52847" lon="6.8024">
        <ele>2061.2</ele>
        <time>2013-09-02T14:16:29Z</time>
      </trkpt>
      <trkpt lat="44.52846" lon="6.80239">
        <ele>2060.2</ele>
        <time>2013-09-02T14:16:30Z</time>
      </trkpt>
      <trkpt lat="44.52844" lon="6.80237">
        <ele>2060.2</ele>
        <time>2013-09-02T14:16:31Z</time>
      </trkpt>
      <trkpt lat="44.52843" lon="6.80235">
        <ele>2059.3</ele>
        <time>2013-09-02T14:16:32Z</time>
      </trkpt>
      <trkpt lat="44.52841" lon="6.80233">
        <ele>2058.8</ele>
        <time>2013-09-02T14:16:33Z</time>
      </trkpt>
      <trkpt lat="44.5284" lon="6.8023">
        <ele>2058.3</ele>
        <time>2013-09-02T14:16:34Z</time>
      </trkpt>
      <trkpt lat="44.52839" lon="6.80228">
        <ele>2056.9</ele>
        <time>2013-09-02T14:16:35Z</time>
      </trkpt>
      <trkpt lat="44.52837" lon="6.80227">
        <ele>2056.9</ele>
        <time>2013-09-02T14:16:36Z</time>
      </trkpt>
      <trkpt lat="44.52836" lon="6.80227">
        <ele>2057.4</ele>
        <time>2013-09-02T14:16:37Z</time>
      </trkpt>
      <trkpt lat="44.52835" lon="6.80229">
        <ele>2056.4</ele>
        <time>2013-09-02T14:16:38Z</time>
      </trkpt>
      <trkpt lat="44.52832" lon="6.80227">
        <ele>2055.4</ele>
        <time>2013-09-02T14:16:50Z</time>
      </trkpt>
      <trkpt lat="44.52832" lon="6.80222">
        <ele>2055</ele>
        <time>2013-09-02T14:16:54Z</time>
      </trkpt>
      <trkpt lat="44.52831" lon="6.80222">
        <ele>2054.5</ele>
        <time>2013-09-02T14:16:55Z</time>
      </trkpt>
      <trkpt lat="44.5283" lon="6.80224">
        <ele>2053.5</ele>
        <time>2013-09-02T14:16:56Z</time>
      </trkpt>
      <trkpt lat="44.52829" lon="6.80227">
        <ele>2053.5</ele>
        <time>2013-09-02T14:16:57Z</time>
      </trkpt>
      <trkpt lat="44.52828" lon="6.8023">
        <ele>2053.5</ele>
        <time>2013-09-02T14:16:58Z</time>
      </trkpt>
      <trkpt lat="44.52826" lon="6.80233">
        <ele>2052.1</ele>
        <time>2013-09-02T14:16:59Z</time>
      </trkpt>
      <trkpt lat="44.52824" lon="6.80237">
        <ele>2051.6</ele>
        <time>2013-09-02T14:17:00Z</time>
      </trkpt>
      <trkpt lat="44.52822" lon="6.8024">
        <ele>2050.6</ele>
        <time>2013-09-02T14:17:01Z</time>
      </trkpt>
      <trkpt lat="44.5282" lon="6.80244">
        <ele>2049.2</ele>
        <time>2013-09-02T14:17:02Z</time>
      </trkpt>
      <trkpt lat="44.52813" lon="6.80259">
        <ele>2045.8</ele>
        <time>2013-09-02T14:17:06Z</time>
      </trkpt>
      <trkpt lat="44.52811" lon="6.80263">
        <ele>2045.8</ele>
        <time>2013-09-02T14:17:07Z</time>
      </trkpt>
      <trkpt lat="44.52804" lon="6.80276">
        <ele>2043.4</ele>
        <time>2013-09-02T14:17:10Z</time>
      </trkpt>
      <trkpt lat="44.52802" lon="6.80281">
        <ele>2042</ele>
        <time>2013-09-02T14:17:11Z</time>
      </trkpt>
      <trkpt lat="44.528" lon="6.80287">
        <ele>2041.5</ele>
        <time>2013-09-02T14:17:12Z</time>
      </trkpt>
      <trkpt lat="44.52799" lon="6.80294">
        <ele>2040.5</ele>
        <time>2013-09-02T14:17:13Z</time>
      </trkpt>
      <trkpt lat="44.52799" lon="6.80302">
        <ele>2040.1</ele>
        <time>2013-09-02T14:17:14Z</time>
      </trkpt>
      <trkpt lat="44.52794" lon="6.80359">
        <ele>2038.6</ele>
        <time>2013-09-02T14:17:22Z</time>
      </trkpt>
      <trkpt lat="44.52792" lon="6.80361">
        <ele>2038.6</ele>
        <time>2013-09-02T14:17:23Z</time>
      </trkpt>
      <trkpt lat="44.5279" lon="6.80361">
        <ele>2038.1</ele>
        <time>2013-09-02T14:17:24Z</time>
      </trkpt>
      <trkpt lat="44.52787" lon="6.80362">
        <ele>2037.7</ele>
        <time>2013-09-02T14:17:25Z</time>
      </trkpt>
      <trkpt lat="44.52785" lon="6.80363">
        <ele>2036.2</ele>
        <time>2013-09-02T14:17:26Z</time>
      </trkpt>
      <trkpt lat="44.52783" lon="6.80365">
        <ele>2035.7</ele>
        <time>2013-09-02T14:17:27Z</time>
      </trkpt>
      <trkpt lat="44.52782" lon="6.80367">
        <ele>2035.3</ele>
        <time>2013-09-02T14:17:28Z</time>
      </trkpt>
      <trkpt lat="44.52781" lon="6.8037">
        <ele>2034.3</ele>
        <time>2013-09-02T14:17:29Z</time>
      </trkpt>
      <trkpt lat="44.5278" lon="6.80374">
        <ele>2034.3</ele>
        <time>2013-09-02T14:17:30Z</time>
      </trkpt>
      <trkpt lat="44.52779" lon="6.80378">
        <ele>2033.3</ele>
        <time>2013-09-02T14:17:31Z</time>
      </trkpt>
      <trkpt lat="44.52779" lon="6.80382">
        <ele>2032.8</ele>
        <time>2013-09-02T14:17:32Z</time>
      </trkpt>
      <trkpt lat="44.52774" lon="6.80402">
        <ele>2030</ele>
        <time>2013-09-02T14:17:37Z</time>
      </trkpt>
      <trkpt lat="44.5277" lon="6.80416">
        <ele>2026.6</ele>
        <time>2013-09-02T14:17:41Z</time>
      </trkpt>
      <trkpt lat="44.52767" lon="6.80431">
        <ele>2024.7</ele>
        <time>2013-09-02T14:17:45Z</time>
      </trkpt>
      <trkpt lat="44.52766" lon="6.80436">
        <ele>2022.8</ele>
        <time>2013-09-02T14:17:46Z</time>
      </trkpt>
      <trkpt lat="44.52765" lon="6.80442">
        <ele>2022.8</ele>
        <time>2013-09-02T14:17:47Z</time>
      </trkpt>
      <trkpt lat="44.52763" lon="6.80454">
        <ele>2020.8</ele>
        <time>2013-09-02T14:17:49Z</time>
      </trkpt>
      <trkpt lat="44.52761" lon="6.80468">
        <ele>2018.4</ele>
        <time>2013-09-02T14:17:52Z</time>
      </trkpt>
      <trkpt lat="44.52757" lon="6.80482">
        <ele>2015.1</ele>
        <time>2013-09-02T14:17:56Z</time>
      </trkpt>
      <trkpt lat="44.52756" lon="6.80485">
        <ele>2015.1</ele>
        <time>2013-09-02T14:17:57Z</time>
      </trkpt>
      <trkpt lat="44.52754" lon="6.80495">
        <ele>2013.1</ele>
        <time>2013-09-02T14:18:00Z</time>
      </trkpt>
      <trkpt lat="44.52753" lon="6.805">
        <ele>2011.7</ele>
        <time>2013-09-02T14:18:02Z</time>
      </trkpt>
      <trkpt lat="44.52752" lon="6.805">
        <ele>2011.7</ele>
        <time>2013-09-02T14:18:03Z</time>
      </trkpt>
      <trkpt lat="44.52749" lon="6.805">
        <ele>2009.8</ele>
        <time>2013-09-02T14:18:05Z</time>
      </trkpt>
      <trkpt lat="44.52747" lon="6.80504">
        <ele>2008.3</ele>
        <time>2013-09-02T14:18:07Z</time>
      </trkpt>
      <trkpt lat="44.52747" lon="6.80509">
        <ele>2008.3</ele>
        <time>2013-09-02T14:18:08Z</time>
      </trkpt>
      <trkpt lat="44.52747" lon="6.80524">
        <ele>2006.4</ele>
        <time>2013-09-02T14:18:11Z</time>
      </trkpt>
      <trkpt lat="44.52746" lon="6.80538">
        <ele>2003</ele>
        <time>2013-09-02T14:18:15Z</time>
      </trkpt>
      <trkpt lat="44.52744" lon="6.80548">
        <ele>2001.1</ele>
        <time>2013-09-02T14:18:18Z</time>
      </trkpt>
      <trkpt lat="44.52739" lon="6.80562">
        <ele>1997.3</ele>
        <time>2013-09-02T14:18:22Z</time>
      </trkpt>
      <trkpt lat="44.52734" lon="6.80578">
        <ele>1994.4</ele>
        <time>2013-09-02T14:18:26Z</time>
      </trkpt>
      <trkpt lat="44.52731" lon="6.80592">
        <ele>1991</ele>
        <time>2013-09-02T14:18:29Z</time>
      </trkpt>
      <trkpt lat="44.52729" lon="6.80595">
        <ele>1990.6</ele>
        <time>2013-09-02T14:18:30Z</time>
      </trkpt>
      <trkpt lat="44.52727" lon="6.80598">
        <ele>1990.1</ele>
        <time>2013-09-02T14:18:31Z</time>
      </trkpt>
      <trkpt lat="44.52726" lon="6.80603">
        <ele>1989.1</ele>
        <time>2013-09-02T14:18:32Z</time>
      </trkpt>
      <trkpt lat="44.52724" lon="6.80606">
        <ele>1989.1</ele>
        <time>2013-09-02T14:18:33Z</time>
      </trkpt>
      <trkpt lat="44.52721" lon="6.80609">
        <ele>1987.7</ele>
        <time>2013-09-02T14:18:34Z</time>
      </trkpt>
      <trkpt lat="44.52719" lon="6.80612">
        <ele>1987.7</ele>
        <time>2013-09-02T14:18:35Z</time>
      </trkpt>
      <trkpt lat="44.52715" lon="6.80617">
        <ele>1986.7</ele>
        <time>2013-09-02T14:18:37Z</time>
      </trkpt>
      <trkpt lat="44.52713" lon="6.80618">
        <ele>1986.7</ele>
        <time>2013-09-02T14:18:38Z</time>
      </trkpt>
      <trkpt lat="44.52711" lon="6.80619">
        <ele>1985.7</ele>
        <time>2013-09-02T14:18:39Z</time>
      </trkpt>
      <trkpt lat="44.52708" lon="6.80621">
        <ele>1985.3</ele>
        <time>2013-09-02T14:18:40Z</time>
      </trkpt>
      <trkpt lat="44.52705" lon="6.80623">
        <ele>1984.3</ele>
        <time>2013-09-02T14:18:41Z</time>
      </trkpt>
      <trkpt lat="44.52701" lon="6.80625">
        <ele>1982.9</ele>
        <time>2013-09-02T14:18:42Z</time>
      </trkpt>
      <trkpt lat="44.52698" lon="6.80625">
        <ele>1981.9</ele>
        <time>2013-09-02T14:18:43Z</time>
      </trkpt>
      <trkpt lat="44.52695" lon="6.80626">
        <ele>1981.9</ele>
        <time>2013-09-02T14:18:44Z</time>
      </trkpt>
      <trkpt lat="44.52691" lon="6.80627">
        <ele>1980.9</ele>
        <time>2013-09-02T14:18:45Z</time>
      </trkpt>
      <trkpt lat="44.52687" lon="6.80628">
        <ele>1979.5</ele>
        <time>2013-09-02T14:18:46Z</time>
      </trkpt>
      <trkpt lat="44.52684" lon="6.8063">
        <ele>1979.5</ele>
        <time>2013-09-02T14:18:47Z</time>
      </trkpt>
      <trkpt lat="44.5268" lon="6.80632">
        <ele>1978.1</ele>
        <time>2013-09-02T14:18:48Z</time>
      </trkpt>
      <trkpt lat="44.52677" lon="6.80633">
        <ele>1976.6</ele>
        <time>2013-09-02T14:18:49Z</time>
      </trkpt>
      <trkpt lat="44.52672" lon="6.80637">
        <ele>1975.7</ele>
        <time>2013-09-02T14:18:51Z</time>
      </trkpt>
      <trkpt lat="44.52669" lon="6.80637">
        <ele>1975.2</ele>
        <time>2013-09-02T14:18:52Z</time>
      </trkpt>
      <trkpt lat="44.52666" lon="6.80636">
        <ele>1974.2</ele>
        <time>2013-09-02T14:18:53Z</time>
      </trkpt>
      <trkpt lat="44.52663" lon="6.80635">
        <ele>1973.7</ele>
        <time>2013-09-02T14:18:54Z</time>
      </trkpt>
      <trkpt lat="44.52661" lon="6.80634">
        <ele>1973.2</ele>
        <time>2013-09-02T14:18:55Z</time>
      </trkpt>
      <trkpt lat="44.52659" lon="6.80631">
        <ele>1972.3</ele>
        <time>2013-09-02T14:18:56Z</time>
      </trkpt>
      <trkpt lat="44.52656" lon="6.80631">
        <ele>1971.3</ele>
        <time>2013-09-02T14:18:57Z</time>
      </trkpt>
      <trkpt lat="44.52652" lon="6.80632">
        <ele>1969.9</ele>
        <time>2013-09-02T14:18:58Z</time>
      </trkpt>
      <trkpt lat="44.52649" lon="6.80635">
        <ele>1968.9</ele>
        <time>2013-09-02T14:18:59Z</time>
      </trkpt>
      <trkpt lat="44.52646" lon="6.80639">
        <ele>1968</ele>
        <time>2013-09-02T14:19:00Z</time>
      </trkpt>
      <trkpt lat="44.52642" lon="6.80641">
        <ele>1967.5</ele>
        <time>2013-09-02T14:19:01Z</time>
      </trkpt>
      <trkpt lat="44.52639" lon="6.80641">
        <ele>1965.6</ele>
        <time>2013-09-02T14:19:02Z</time>
      </trkpt>
      <trkpt lat="44.52636" lon="6.8064">
        <ele>1965.6</ele>
        <time>2013-09-02T14:19:03Z</time>
      </trkpt>
      <trkpt lat="44.5263" lon="6.80638">
        <ele>1963.6</ele>
        <time>2013-09-02T14:19:06Z</time>
      </trkpt>
      <trkpt lat="44.52627" lon="6.80638">
        <ele>1962.2</ele>
        <time>2013-09-02T14:19:07Z</time>
      </trkpt>
      <trkpt lat="44.52625" lon="6.80638">
        <ele>1962.7</ele>
        <time>2013-09-02T14:19:08Z</time>
      </trkpt>
      <trkpt lat="44.52622" lon="6.80639">
        <ele>1961.2</ele>
        <time>2013-09-02T14:19:09Z</time>
      </trkpt>
      <trkpt lat="44.52621" lon="6.80641">
        <ele>1960.3</ele>
        <time>2013-09-02T14:19:10Z</time>
      </trkpt>
      <trkpt lat="44.52618" lon="6.80641">
        <ele>1960.3</ele>
        <time>2013-09-02T14:19:11Z</time>
      </trkpt>
      <trkpt lat="44.52616" lon="6.8064">
        <ele>1960.3</ele>
        <time>2013-09-02T14:19:12Z</time>
      </trkpt>
      <trkpt lat="44.52615" lon="6.80639">
        <ele>1959.3</ele>
        <time>2013-09-02T14:19:13Z</time>
      </trkpt>
      <trkpt lat="44.52614" lon="6.80639">
        <ele>1958.3</ele>
        <time>2013-09-02T14:19:15Z</time>
      </trkpt>
      <trkpt lat="44.52614" lon="6.80639">
        <ele>1958.8</ele>
        <time>2013-09-02T14:19:34Z</time>
      </trkpt>
      <trkpt lat="44.52613" lon="6.80637">
        <ele>1958.8</ele>
        <time>2013-09-02T14:19:40Z</time>
      </trkpt>
      <trkpt lat="44.52612" lon="6.80634">
        <ele>1957.9</ele>
        <time>2013-09-02T14:19:41Z</time>
      </trkpt>
      <trkpt lat="44.5261" lon="6.80631">
        <ele>1957.9</ele>
        <time>2013-09-02T14:19:42Z</time>
      </trkpt>
      <trkpt lat="44.52607" lon="6.80629">
        <ele>1957.9</ele>
        <time>2013-09-02T14:19:43Z</time>
      </trkpt>
      <trkpt lat="44.52602" lon="6.80627">
        <ele>1957.4</ele>
        <time>2013-09-02T14:19:44Z</time>
      </trkpt>
      <trkpt lat="44.52597" lon="6.80625">
        <ele>1955</ele>
        <time>2013-09-02T14:19:45Z</time>
      </trkpt>
      <trkpt lat="44.52588" lon="6.80622">
        <ele>1954</ele>
        <time>2013-09-02T14:19:47Z</time>
      </trkpt>
      <trkpt lat="44.52581" lon="6.80617">
        <ele>1951.6</ele>
        <time>2013-09-02T14:19:50Z</time>
      </trkpt>
      <trkpt lat="44.52572" lon="6.8061">
        <ele>1948.3</ele>
        <time>2013-09-02T14:19:54Z</time>
      </trkpt>
      <trkpt lat="44.5257" lon="6.8061">
        <ele>1947.3</ele>
        <time>2013-09-02T14:19:55Z</time>
      </trkpt>
      <trkpt lat="44.52567" lon="6.8061">
        <ele>1947.3</ele>
        <time>2013-09-02T14:19:56Z</time>
      </trkpt>
      <trkpt lat="44.52564" lon="6.80609">
        <ele>1946.3</ele>
        <time>2013-09-02T14:19:57Z</time>
      </trkpt>
      <trkpt lat="44.52562" lon="6.80609">
        <ele>1945.4</ele>
        <time>2013-09-02T14:19:58Z</time>
      </trkpt>
      <trkpt lat="44.52561" lon="6.80607">
        <ele>1945.4</ele>
        <time>2013-09-02T14:19:59Z</time>
      </trkpt>
      <trkpt lat="44.52561" lon="6.80605">
        <ele>1944.9</ele>
        <time>2013-09-02T14:20:00Z</time>
      </trkpt>
      <trkpt lat="44.52561" lon="6.80601">
        <ele>1944.4</ele>
        <time>2013-09-02T14:20:01Z</time>
      </trkpt>
      <trkpt lat="44.52562" lon="6.80598">
        <ele>1944.4</ele>
        <time>2013-09-02T14:20:02Z</time>
      </trkpt>
      <trkpt lat="44.52562" lon="6.80593">
        <ele>1944.4</ele>
        <time>2013-09-02T14:20:03Z</time>
      </trkpt>
      <trkpt lat="44.52563" lon="6.80589">
        <ele>1943.9</ele>
        <time>2013-09-02T14:20:04Z</time>
      </trkpt>
      <trkpt lat="44.52563" lon="6.80584">
        <ele>1943.9</ele>
        <time>2013-09-02T14:20:05Z</time>
      </trkpt>
      <trkpt lat="44.52569" lon="6.80539">
        <ele>1943</ele>
        <time>2013-09-02T14:20:17Z</time>
      </trkpt>
      <trkpt lat="44.52572" lon="6.80526">
        <ele>1942.5</ele>
        <time>2013-09-02T14:20:19Z</time>
      </trkpt>
      <trkpt lat="44.52574" lon="6.8052">
        <ele>1941.5</ele>
        <time>2013-09-02T14:20:20Z</time>
      </trkpt>
      <trkpt lat="44.52586" lon="6.80482">
        <ele>1938.6</ele>
        <time>2013-09-02T14:20:27Z</time>
      </trkpt>
      <trkpt lat="44.52589" lon="6.80468">
        <ele>1936.2</ele>
        <time>2013-09-02T14:20:29Z</time>
      </trkpt>
      <trkpt lat="44.52592" lon="6.8046">
        <ele>1936.7</ele>
        <time>2013-09-02T14:20:30Z</time>
      </trkpt>
      <trkpt lat="44.52594" lon="6.80452">
        <ele>1935.3</ele>
        <time>2013-09-02T14:20:31Z</time>
      </trkpt>
      <trkpt lat="44.52597" lon="6.80444">
        <ele>1934.3</ele>
        <time>2013-09-02T14:20:32Z</time>
      </trkpt>
      <trkpt lat="44.52599" lon="6.80436">
        <ele>1933.8</ele>
        <time>2013-09-02T14:20:33Z</time>
      </trkpt>
      <trkpt lat="44.526" lon="6.80427">
        <ele>1932.9</ele>
        <time>2013-09-02T14:20:34Z</time>
      </trkpt>
      <trkpt lat="44.526" lon="6.80419">
        <ele>1932.9</ele>
        <time>2013-09-02T14:20:35Z</time>
      </trkpt>
      <trkpt lat="44.52599" lon="6.80411">
        <ele>1932.4</ele>
        <time>2013-09-02T14:20:36Z</time>
      </trkpt>
      <trkpt lat="44.52598" lon="6.80402">
        <ele>1932.9</ele>
        <time>2013-09-02T14:20:37Z</time>
      </trkpt>
      <trkpt lat="44.52598" lon="6.80371">
        <ele>1931.9</ele>
        <time>2013-09-02T14:20:41Z</time>
      </trkpt>
      <trkpt lat="44.52598" lon="6.80365">
        <ele>1931.4</ele>
        <time>2013-09-02T14:20:42Z</time>
      </trkpt>
      <trkpt lat="44.52598" lon="6.8036">
        <ele>1931.9</ele>
        <time>2013-09-02T14:20:43Z</time>
      </trkpt>
      <trkpt lat="44.52595" lon="6.80323">
        <ele>1930</ele>
        <time>2013-09-02T14:20:55Z</time>
      </trkpt>
      <trkpt lat="44.52594" lon="6.8029">
        <ele>1927.6</ele>
        <time>2013-09-02T14:21:07Z</time>
      </trkpt>
      <trkpt lat="44.52591" lon="6.80271">
        <ele>1927.1</ele>
        <time>2013-09-02T14:21:24Z</time>
      </trkpt>
      <trkpt lat="44.5258" lon="6.80234">
        <ele>1927.6</ele>
        <time>2013-09-02T14:21:39Z</time>
      </trkpt>
      <trkpt lat="44.52564" lon="6.80178">
        <ele>1926.6</ele>
        <time>2013-09-02T14:21:55Z</time>
      </trkpt>
      <trkpt lat="44.52556" lon="6.80163">
        <ele>1925.7</ele>
        <time>2013-09-02T14:22:00Z</time>
      </trkpt>
      <trkpt lat="44.52554" lon="6.80157">
        <ele>1925.2</ele>
        <time>2013-09-02T14:22:01Z</time>
      </trkpt>
      <trkpt lat="44.52553" lon="6.80151">
        <ele>1924.2</ele>
        <time>2013-09-02T14:22:02Z</time>
      </trkpt>
      <trkpt lat="44.52552" lon="6.80145">
        <ele>1924.2</ele>
        <time>2013-09-02T14:22:03Z</time>
      </trkpt>
      <trkpt lat="44.52547" lon="6.8011">
        <ele>1921.8</ele>
        <time>2013-09-02T14:22:10Z</time>
      </trkpt>
      <trkpt lat="44.52547" lon="6.80102">
        <ele>1921.8</ele>
        <time>2013-09-02T14:22:11Z</time>
      </trkpt>
      <trkpt lat="44.52547" lon="6.80079">
        <ele>1920.9</ele>
        <time>2013-09-02T14:22:14Z</time>
      </trkpt>
      <trkpt lat="44.52546" lon="6.80007">
        <ele>1919.9</ele>
        <time>2013-09-02T14:22:27Z</time>
      </trkpt>
      <trkpt lat="44.52532" lon="6.7995">
        <ele>1919.4</ele>
        <time>2013-09-02T14:22:39Z</time>
      </trkpt>
      <trkpt lat="44.5252" lon="6.79888">
        <ele>1919.9</ele>
        <time>2013-09-02T14:22:52Z</time>
      </trkpt>
      <trkpt lat="44.52519" lon="6.79879">
        <ele>1919.4</ele>
        <time>2013-09-02T14:23:03Z</time>
      </trkpt>
      <trkpt lat="44.52519" lon="6.79881">
        <ele>1918</ele>
        <time>2013-09-02T14:23:36Z</time>
      </trkpt>
      <trkpt lat="44.52517" lon="6.79879">
        <ele>1918.9</ele>
        <time>2013-09-02T14:24:09Z</time>
      </trkpt>
      <trkpt lat="44.52519" lon="6.79876">
        <ele>1918.5</ele>
        <time>2013-09-02T14:24:38Z</time>
      </trkpt>
      <trkpt lat="44.52508" lon="6.7984">
        <ele>1915.6</ele>
        <time>2013-09-02T14:24:49Z</time>
      </trkpt>
      <trkpt lat="44.52505" lon="6.79814">
        <ele>1914.1</ele>
        <time>2013-09-02T14:24:53Z</time>
      </trkpt>
      <trkpt lat="44.52504" lon="6.79808">
        <ele>1913.6</ele>
        <time>2013-09-02T14:24:54Z</time>
      </trkpt>
      <trkpt lat="44.5249" lon="6.79749">
        <ele>1910.3</ele>
        <time>2013-09-02T14:25:01Z</time>
      </trkpt>
      <trkpt lat="44.52486" lon="6.7974">
        <ele>1909.8</ele>
        <time>2013-09-02T14:25:02Z</time>
      </trkpt>
      <trkpt lat="44.52472" lon="6.79704">
        <ele>1906.4</ele>
        <time>2013-09-02T14:25:06Z</time>
      </trkpt>
      <trkpt lat="44.52461" lon="6.79667">
        <ele>1904</ele>
        <time>2013-09-02T14:25:10Z</time>
      </trkpt>
      <trkpt lat="44.52459" lon="6.79656">
        <ele>1903.6</ele>
        <time>2013-09-02T14:25:11Z</time>
      </trkpt>
      <trkpt lat="44.52457" lon="6.79627">
        <ele>1901.1</ele>
        <time>2013-09-02T14:25:14Z</time>
      </trkpt>
      <trkpt lat="44.52457" lon="6.79619">
        <ele>1901.1</ele>
        <time>2013-09-02T14:25:15Z</time>
      </trkpt>
      <trkpt lat="44.52459" lon="6.79614">
        <ele>1899.7</ele>
        <time>2013-09-02T14:25:16Z</time>
      </trkpt>
      <trkpt lat="44.52461" lon="6.79609">
        <ele>1899.7</ele>
        <time>2013-09-02T14:25:17Z</time>
      </trkpt>
      <trkpt lat="44.52463" lon="6.79604">
        <ele>1898.7</ele>
        <time>2013-09-02T14:25:18Z</time>
      </trkpt>
      <trkpt lat="44.52467" lon="6.79595">
        <ele>1898.3</ele>
        <time>2013-09-02T14:25:20Z</time>
      </trkpt>
      <trkpt lat="44.52476" lon="6.7958">
        <ele>1896.8</ele>
        <time>2013-09-02T14:25:23Z</time>
      </trkpt>
      <trkpt lat="44.52499" lon="6.79552">
        <ele>1893</ele>
        <time>2013-09-02T14:25:28Z</time>
      </trkpt>
      <trkpt lat="44.52518" lon="6.79531">
        <ele>1890.6</ele>
        <time>2013-09-02T14:25:31Z</time>
      </trkpt>
      <trkpt lat="44.52523" lon="6.79522">
        <ele>1889.6</ele>
        <time>2013-09-02T14:25:32Z</time>
      </trkpt>
      <trkpt lat="44.52544" lon="6.79485">
        <ele>1886.2</ele>
        <time>2013-09-02T14:25:36Z</time>
      </trkpt>
      <trkpt lat="44.52563" lon="6.7944">
        <ele>1882.4</ele>
        <time>2013-09-02T14:25:40Z</time>
      </trkpt>
      <trkpt lat="44.52573" lon="6.79416">
        <ele>1880.5</ele>
        <time>2013-09-02T14:25:42Z</time>
      </trkpt>
      <trkpt lat="44.52595" lon="6.79367">
        <ele>1875.7</ele>
        <time>2013-09-02T14:25:46Z</time>
      </trkpt>
      <trkpt lat="44.52604" lon="6.79345">
        <ele>1873.8</ele>
        <time>2013-09-02T14:25:48Z</time>
      </trkpt>
      <trkpt lat="44.52618" lon="6.793">
        <ele>1869.9</ele>
        <time>2013-09-02T14:25:52Z</time>
      </trkpt>
      <trkpt lat="44.52628" lon="6.79278">
        <ele>1868.5</ele>
        <time>2013-09-02T14:25:54Z</time>
      </trkpt>
      <trkpt lat="44.52635" lon="6.79268">
        <ele>1867</ele>
        <time>2013-09-02T14:25:55Z</time>
      </trkpt>
      <trkpt lat="44.52642" lon="6.79259">
        <ele>1865.6</ele>
        <time>2013-09-02T14:25:56Z</time>
      </trkpt>
      <trkpt lat="44.52649" lon="6.79251">
        <ele>1864.6</ele>
        <time>2013-09-02T14:25:57Z</time>
      </trkpt>
      <trkpt lat="44.52657" lon="6.79244">
        <ele>1863.2</ele>
        <time>2013-09-02T14:25:58Z</time>
      </trkpt>
      <trkpt lat="44.52666" lon="6.79239">
        <ele>1862.7</ele>
        <time>2013-09-02T14:25:59Z</time>
      </trkpt>
      <trkpt lat="44.52674" lon="6.79234">
        <ele>1861.7</ele>
        <time>2013-09-02T14:26:00Z</time>
      </trkpt>
      <trkpt lat="44.52682" lon="6.79231">
        <ele>1860.8</ele>
        <time>2013-09-02T14:26:01Z</time>
      </trkpt>
      <trkpt lat="44.52691" lon="6.7923">
        <ele>1858.9</ele>
        <time>2013-09-02T14:26:02Z</time>
      </trkpt>
      <trkpt lat="44.527" lon="6.7923">
        <ele>1857.4</ele>
        <time>2013-09-02T14:26:03Z</time>
      </trkpt>
      <trkpt lat="44.52709" lon="6.79228">
        <ele>1857.4</ele>
        <time>2013-09-02T14:26:04Z</time>
      </trkpt>
      <trkpt lat="44.52718" lon="6.79226">
        <ele>1856.4</ele>
        <time>2013-09-02T14:26:05Z</time>
      </trkpt>
      <trkpt lat="44.52726" lon="6.7922">
        <ele>1855</ele>
        <time>2013-09-02T14:26:06Z</time>
      </trkpt>
      <trkpt lat="44.52734" lon="6.79213">
        <ele>1853.6</ele>
        <time>2013-09-02T14:26:07Z</time>
      </trkpt>
      <trkpt lat="44.52742" lon="6.79205">
        <ele>1853.1</ele>
        <time>2013-09-02T14:26:08Z</time>
      </trkpt>
      <trkpt lat="44.52767" lon="6.79184">
        <ele>1849.2</ele>
        <time>2013-09-02T14:26:11Z</time>
      </trkpt>
      <trkpt lat="44.52774" lon="6.79182">
        <ele>1848.3</ele>
        <time>2013-09-02T14:26:12Z</time>
      </trkpt>
      <trkpt lat="44.52781" lon="6.79182">
        <ele>1847.3</ele>
        <time>2013-09-02T14:26:13Z</time>
      </trkpt>
      <trkpt lat="44.52787" lon="6.79184">
        <ele>1846.8</ele>
        <time>2013-09-02T14:26:14Z</time>
      </trkpt>
      <trkpt lat="44.52793" lon="6.79186">
        <ele>1846.4</ele>
        <time>2013-09-02T14:26:15Z</time>
      </trkpt>
      <trkpt lat="44.52817" lon="6.79197">
        <ele>1843.5</ele>
        <time>2013-09-02T14:26:18Z</time>
      </trkpt>
      <trkpt lat="44.52845" lon="6.79205">
        <ele>1839.6</ele>
        <time>2013-09-02T14:26:21Z</time>
      </trkpt>
      <trkpt lat="44.52853" lon="6.79205">
        <ele>1838.2</ele>
        <time>2013-09-02T14:26:22Z</time>
      </trkpt>
      <trkpt lat="44.52861" lon="6.79202">
        <ele>1836.3</ele>
        <time>2013-09-02T14:26:23Z</time>
      </trkpt>
      <trkpt lat="44.52868" lon="6.79196">
        <ele>1835.8</ele>
        <time>2013-09-02T14:26:24Z</time>
      </trkpt>
      <trkpt lat="44.52873" lon="6.79186">
        <ele>1834.3</ele>
        <time>2013-09-02T14:26:25Z</time>
      </trkpt>
      <trkpt lat="44.52878" lon="6.79175">
        <ele>1834.3</ele>
        <time>2013-09-02T14:26:26Z</time>
      </trkpt>
      <trkpt lat="44.52882" lon="6.79164">
        <ele>1832.9</ele>
        <time>2013-09-02T14:26:27Z</time>
      </trkpt>
      <trkpt lat="44.52887" lon="6.79153">
        <ele>1832.9</ele>
        <time>2013-09-02T14:26:28Z</time>
      </trkpt>
      <trkpt lat="44.52892" lon="6.79142">
        <ele>1831.9</ele>
        <time>2013-09-02T14:26:29Z</time>
      </trkpt>
      <trkpt lat="44.52918" lon="6.79096">
        <ele>1828.6</ele>
        <time>2013-09-02T14:26:33Z</time>
      </trkpt>
      <trkpt lat="44.52929" lon="6.7907">
        <ele>1826.6</ele>
        <time>2013-09-02T14:26:35Z</time>
      </trkpt>
      <trkpt lat="44.52939" lon="6.79028">
        <ele>1823.3</ele>
        <time>2013-09-02T14:26:38Z</time>
      </trkpt>
      <trkpt lat="44.52943" lon="6.79015">
        <ele>1822.3</ele>
        <time>2013-09-02T14:26:39Z</time>
      </trkpt>
      <trkpt lat="44.52959" lon="6.7898">
        <ele>1818.5</ele>
        <time>2013-09-02T14:26:42Z</time>
      </trkpt>
      <trkpt lat="44.52964" lon="6.7897">
        <ele>1817</ele>
        <time>2013-09-02T14:26:43Z</time>
      </trkpt>
      <trkpt lat="44.5297" lon="6.7896">
        <ele>1816.1</ele>
        <time>2013-09-02T14:26:44Z</time>
      </trkpt>
      <trkpt lat="44.52978" lon="6.78952">
        <ele>1815.1</ele>
        <time>2013-09-02T14:26:45Z</time>
      </trkpt>
      <trkpt lat="44.53004" lon="6.78932">
        <ele>1811.7</ele>
        <time>2013-09-02T14:26:48Z</time>
      </trkpt>
      <trkpt lat="44.53013" lon="6.78926">
        <ele>1811.3</ele>
        <time>2013-09-02T14:26:49Z</time>
      </trkpt>
      <trkpt lat="44.53023" lon="6.78923">
        <ele>1809.3</ele>
        <time>2013-09-02T14:26:50Z</time>
      </trkpt>
      <trkpt lat="44.53033" lon="6.78922">
        <ele>1808.9</ele>
        <time>2013-09-02T14:26:51Z</time>
      </trkpt>
      <trkpt lat="44.53042" lon="6.78924">
        <ele>1807.9</ele>
        <time>2013-09-02T14:26:52Z</time>
      </trkpt>
      <trkpt lat="44.53051" lon="6.78928">
        <ele>1806.5</ele>
        <time>2013-09-02T14:26:53Z</time>
      </trkpt>
      <trkpt lat="44.53072" lon="6.78934">
        <ele>1804.1</ele>
        <time>2013-09-02T14:26:55Z</time>
      </trkpt>
      <trkpt lat="44.53075" lon="6.78934">
        <ele>1803.6</ele>
        <time>2013-09-02T14:26:56Z</time>
      </trkpt>
      <trkpt lat="44.5308" lon="6.78932">
        <ele>1803.1</ele>
        <time>2013-09-02T14:26:57Z</time>
      </trkpt>
      <trkpt lat="44.53081" lon="6.78926">
        <ele>1802.1</ele>
        <time>2013-09-02T14:26:58Z</time>
      </trkpt>
      <trkpt lat="44.53077" lon="6.78921">
        <ele>1802.1</ele>
        <time>2013-09-02T14:26:59Z</time>
      </trkpt>
      <trkpt lat="44.53072" lon="6.78917">
        <ele>1801.7</ele>
        <time>2013-09-02T14:27:00Z</time>
      </trkpt>
      <trkpt lat="44.53067" lon="6.78914">
        <ele>1800.2</ele>
        <time>2013-09-02T14:27:01Z</time>
      </trkpt>
      <trkpt lat="44.53024" lon="6.78894">
        <ele>1797.8</ele>
        <time>2013-09-02T14:27:09Z</time>
      </trkpt>
      <trkpt lat="44.53016" lon="6.78893">
        <ele>1796.8</ele>
        <time>2013-09-02T14:27:10Z</time>
      </trkpt>
      <trkpt lat="44.53001" lon="6.78892">
        <ele>1795.4</ele>
        <time>2013-09-02T14:27:12Z</time>
      </trkpt>
      <trkpt lat="44.52993" lon="6.78894">
        <ele>1795.4</ele>
        <time>2013-09-02T14:27:13Z</time>
      </trkpt>
      <trkpt lat="44.52985" lon="6.78897">
        <ele>1794.4</ele>
        <time>2013-09-02T14:27:14Z</time>
      </trkpt>
      <trkpt lat="44.52978" lon="6.78904">
        <ele>1793</ele>
        <time>2013-09-02T14:27:15Z</time>
      </trkpt>
      <trkpt lat="44.52971" lon="6.78911">
        <ele>1792.5</ele>
        <time>2013-09-02T14:27:16Z</time>
      </trkpt>
      <trkpt lat="44.52963" lon="6.78919">
        <ele>1791.6</ele>
        <time>2013-09-02T14:27:17Z</time>
      </trkpt>
      <trkpt lat="44.52938" lon="6.7894">
        <ele>1788.7</ele>
        <time>2013-09-02T14:27:20Z</time>
      </trkpt>
      <trkpt lat="44.52931" lon="6.78949">
        <ele>1787.2</ele>
        <time>2013-09-02T14:27:21Z</time>
      </trkpt>
      <trkpt lat="44.52925" lon="6.78959">
        <ele>1786.8</ele>
        <time>2013-09-02T14:27:22Z</time>
      </trkpt>
      <trkpt lat="44.52921" lon="6.78967">
        <ele>1785.3</ele>
        <time>2013-09-02T14:27:23Z</time>
      </trkpt>
      <trkpt lat="44.52917" lon="6.78972">
        <ele>1784.8</ele>
        <time>2013-09-02T14:27:24Z</time>
      </trkpt>
      <trkpt lat="44.52913" lon="6.78974">
        <ele>1783.9</ele>
        <time>2013-09-02T14:27:25Z</time>
      </trkpt>
      <trkpt lat="44.5291" lon="6.78972">
        <ele>1782.9</ele>
        <time>2013-09-02T14:27:26Z</time>
      </trkpt>
      <trkpt lat="44.5291" lon="6.78965">
        <ele>1781.9</ele>
        <time>2013-09-02T14:27:27Z</time>
      </trkpt>
      <trkpt lat="44.52912" lon="6.78958">
        <ele>1781.9</ele>
        <time>2013-09-02T14:27:28Z</time>
      </trkpt>
      <trkpt lat="44.52916" lon="6.78952">
        <ele>1781</ele>
        <time>2013-09-02T14:27:29Z</time>
      </trkpt>
      <trkpt lat="44.5292" lon="6.78945">
        <ele>1781.5</ele>
        <time>2013-09-02T14:27:30Z</time>
      </trkpt>
      <trkpt lat="44.52939" lon="6.78915">
        <ele>1778.6</ele>
        <time>2013-09-02T14:27:34Z</time>
      </trkpt>
      <trkpt lat="44.5295" lon="6.78899">
        <ele>1777.6</ele>
        <time>2013-09-02T14:27:36Z</time>
      </trkpt>
      <trkpt lat="44.52956" lon="6.78889">
        <ele>1776.7</ele>
        <time>2013-09-02T14:27:37Z</time>
      </trkpt>
      <trkpt lat="44.5296" lon="6.78878">
        <ele>1775.7</ele>
        <time>2013-09-02T14:27:38Z</time>
      </trkpt>
      <trkpt lat="44.52964" lon="6.78866">
        <ele>1774.7</ele>
        <time>2013-09-02T14:27:39Z</time>
      </trkpt>
      <trkpt lat="44.52968" lon="6.78855">
        <ele>1773.8</ele>
        <time>2013-09-02T14:27:40Z</time>
      </trkpt>
      <trkpt lat="44.52973" lon="6.78846">
        <ele>1772.8</ele>
        <time>2013-09-02T14:27:41Z</time>
      </trkpt>
      <trkpt lat="44.52979" lon="6.78838">
        <ele>1772.3</ele>
        <time>2013-09-02T14:27:42Z</time>
      </trkpt>
      <trkpt lat="44.52986" lon="6.78833">
        <ele>1771.9</ele>
        <time>2013-09-02T14:27:43Z</time>
      </trkpt>
      <trkpt lat="44.52993" lon="6.78828">
        <ele>1770.4</ele>
        <time>2013-09-02T14:27:44Z</time>
      </trkpt>
      <trkpt lat="44.53001" lon="6.78825">
        <ele>1769.9</ele>
        <time>2013-09-02T14:27:45Z</time>
      </trkpt>
      <trkpt lat="44.53036" lon="6.78809">
        <ele>1766.1</ele>
        <time>2013-09-02T14:27:49Z</time>
      </trkpt>
      <trkpt lat="44.53044" lon="6.78809">
        <ele>1765.1</ele>
        <time>2013-09-02T14:27:50Z</time>
      </trkpt>
      <trkpt lat="44.53055" lon="6.78808">
        <ele>1763.7</ele>
        <time>2013-09-02T14:27:52Z</time>
      </trkpt>
      <trkpt lat="44.53059" lon="6.78806">
        <ele>1763.2</ele>
        <time>2013-09-02T14:27:53Z</time>
      </trkpt>
      <trkpt lat="44.53059" lon="6.78803">
        <ele>1763.2</ele>
        <time>2013-09-02T14:27:54Z</time>
      </trkpt>
      <trkpt lat="44.53057" lon="6.788">
        <ele>1763.2</ele>
        <time>2013-09-02T14:27:55Z</time>
      </trkpt>
      <trkpt lat="44.53053" lon="6.78798">
        <ele>1762.2</ele>
        <time>2013-09-02T14:27:56Z</time>
      </trkpt>
      <trkpt lat="44.53048" lon="6.78797">
        <ele>1761.8</ele>
        <time>2013-09-02T14:27:57Z</time>
      </trkpt>
      <trkpt lat="44.53042" lon="6.78797">
        <ele>1760.8</ele>
        <time>2013-09-02T14:27:58Z</time>
      </trkpt>
      <trkpt lat="44.53035" lon="6.78798">
        <ele>1760.8</ele>
        <time>2013-09-02T14:27:59Z</time>
      </trkpt>
      <trkpt lat="44.52989" lon="6.78806">
        <ele>1757.4</ele>
        <time>2013-09-02T14:28:05Z</time>
      </trkpt>
      <trkpt lat="44.52973" lon="6.78811">
        <ele>1755</ele>
        <time>2013-09-02T14:28:07Z</time>
      </trkpt>
      <trkpt lat="44.52965" lon="6.78817">
        <ele>1755</ele>
        <time>2013-09-02T14:28:08Z</time>
      </trkpt>
      <trkpt lat="44.52959" lon="6.78825">
        <ele>1754.1</ele>
        <time>2013-09-02T14:28:09Z</time>
      </trkpt>
      <trkpt lat="44.52948" lon="6.7884">
        <ele>1753.1</ele>
        <time>2013-09-02T14:28:11Z</time>
      </trkpt>
      <trkpt lat="44.52943" lon="6.78845">
        <ele>1751.7</ele>
        <time>2013-09-02T14:28:12Z</time>
      </trkpt>
      <trkpt lat="44.52939" lon="6.78847">
        <ele>1751.2</ele>
        <time>2013-09-02T14:28:13Z</time>
      </trkpt>
      <trkpt lat="44.52936" lon="6.78844">
        <ele>1750.7</ele>
        <time>2013-09-02T14:28:14Z</time>
      </trkpt>
      <trkpt lat="44.52935" lon="6.78839">
        <ele>1750.2</ele>
        <time>2013-09-02T14:28:15Z</time>
      </trkpt>
      <trkpt lat="44.52937" lon="6.78833">
        <ele>1750.2</ele>
        <time>2013-09-02T14:28:16Z</time>
      </trkpt>
      <trkpt lat="44.52941" lon="6.78828">
        <ele>1749.7</ele>
        <time>2013-09-02T14:28:17Z</time>
      </trkpt>
      <trkpt lat="44.52945" lon="6.78825">
        <ele>1749.7</ele>
        <time>2013-09-02T14:28:18Z</time>
      </trkpt>
      <trkpt lat="44.5295" lon="6.78821">
        <ele>1749.3</ele>
        <time>2013-09-02T14:28:19Z</time>
      </trkpt>
      <trkpt lat="44.52954" lon="6.78816">
        <ele>1749.3</ele>
        <time>2013-09-02T14:28:20Z</time>
      </trkpt>
      <trkpt lat="44.52958" lon="6.7881">
        <ele>1748.3</ele>
        <time>2013-09-02T14:28:21Z</time>
      </trkpt>
      <trkpt lat="44.52963" lon="6.78803">
        <ele>1748.3</ele>
        <time>2013-09-02T14:28:22Z</time>
      </trkpt>
      <trkpt lat="44.52974" lon="6.78788">
        <ele>1746.9</ele>
        <time>2013-09-02T14:28:24Z</time>
      </trkpt>
      <trkpt lat="44.52981" lon="6.78782">
        <ele>1746.4</ele>
        <time>2013-09-02T14:28:25Z</time>
      </trkpt>
      <trkpt lat="44.52989" lon="6.78776">
        <ele>1745.9</ele>
        <time>2013-09-02T14:28:26Z</time>
      </trkpt>
      <trkpt lat="44.53015" lon="6.78759">
        <ele>1742.1</ele>
        <time>2013-09-02T14:28:29Z</time>
      </trkpt>
      <trkpt lat="44.53034" lon="6.78749">
        <ele>1740.1</ele>
        <time>2013-09-02T14:28:31Z</time>
      </trkpt>
      <trkpt lat="44.53055" lon="6.78744">
        <ele>1737.2</ele>
        <time>2013-09-02T14:28:33Z</time>
      </trkpt>
      <trkpt lat="44.53064" lon="6.78744">
        <ele>1737.2</ele>
        <time>2013-09-02T14:28:34Z</time>
      </trkpt>
      <trkpt lat="44.53074" lon="6.78746">
        <ele>1736.3</ele>
        <time>2013-09-02T14:28:35Z</time>
      </trkpt>
      <trkpt lat="44.53082" lon="6.78749">
        <ele>1735.8</ele>
        <time>2013-09-02T14:28:36Z</time>
      </trkpt>
      <trkpt lat="44.53091" lon="6.78753">
        <ele>1734.8</ele>
        <time>2013-09-02T14:28:37Z</time>
      </trkpt>
      <trkpt lat="44.531" lon="6.78758">
        <ele>1733.4</ele>
        <time>2013-09-02T14:28:38Z</time>
      </trkpt>
      <trkpt lat="44.53118" lon="6.78767">
        <ele>1731.5</ele>
        <time>2013-09-02T14:28:40Z</time>
      </trkpt>
      <trkpt lat="44.53148" lon="6.78778">
        <ele>1728.1</ele>
        <time>2013-09-02T14:28:43Z</time>
      </trkpt>
      <trkpt lat="44.53158" lon="6.78781">
        <ele>1727.2</ele>
        <time>2013-09-02T14:28:44Z</time>
      </trkpt>
      <trkpt lat="44.53168" lon="6.78786">
        <ele>1726.2</ele>
        <time>2013-09-02T14:28:45Z</time>
      </trkpt>
      <trkpt lat="44.53198" lon="6.78801">
        <ele>1722.3</ele>
        <time>2013-09-02T14:28:48Z</time>
      </trkpt>
      <trkpt lat="44.53208" lon="6.78802">
        <ele>1721.9</ele>
        <time>2013-09-02T14:28:49Z</time>
      </trkpt>
      <trkpt lat="44.53217" lon="6.78799">
        <ele>1720.9</ele>
        <time>2013-09-02T14:28:50Z</time>
      </trkpt>
      <trkpt lat="44.53238" lon="6.78798">
        <ele>1718</ele>
        <time>2013-09-02T14:28:52Z</time>
      </trkpt>
      <trkpt lat="44.53247" lon="6.78798">
        <ele>1717.5</ele>
        <time>2013-09-02T14:28:53Z</time>
      </trkpt>
      <trkpt lat="44.53256" lon="6.78799">
        <ele>1716.6</ele>
        <time>2013-09-02T14:28:54Z</time>
      </trkpt>
      <trkpt lat="44.53265" lon="6.78802">
        <ele>1715.6</ele>
        <time>2013-09-02T14:28:55Z</time>
      </trkpt>
      <trkpt lat="44.53291" lon="6.78822">
        <ele>1712.3</ele>
        <time>2013-09-02T14:28:58Z</time>
      </trkpt>
      <trkpt lat="44.53297" lon="6.78825">
        <ele>1711.8</ele>
        <time>2013-09-02T14:28:59Z</time>
      </trkpt>
      <trkpt lat="44.53304" lon="6.78825">
        <ele>1711.3</ele>
        <time>2013-09-02T14:29:00Z</time>
      </trkpt>
      <trkpt lat="44.5331" lon="6.78823">
        <ele>1709.8</ele>
        <time>2013-09-02T14:29:01Z</time>
      </trkpt>
      <trkpt lat="44.53316" lon="6.78817">
        <ele>1708.9</ele>
        <time>2013-09-02T14:29:02Z</time>
      </trkpt>
      <trkpt lat="44.5332" lon="6.78805">
        <ele>1708.9</ele>
        <time>2013-09-02T14:29:03Z</time>
      </trkpt>
      <trkpt lat="44.53323" lon="6.78793">
        <ele>1708.4</ele>
        <time>2013-09-02T14:29:04Z</time>
      </trkpt>
      <trkpt lat="44.53327" lon="6.78781">
        <ele>1707</ele>
        <time>2013-09-02T14:29:05Z</time>
      </trkpt>
      <trkpt lat="44.53341" lon="6.78745">
        <ele>1704.1</ele>
        <time>2013-09-02T14:29:08Z</time>
      </trkpt>
      <trkpt lat="44.53346" lon="6.78735">
        <ele>1703.6</ele>
        <time>2013-09-02T14:29:09Z</time>
      </trkpt>
      <trkpt lat="44.53351" lon="6.78725">
        <ele>1702.6</ele>
        <time>2013-09-02T14:29:10Z</time>
      </trkpt>
      <trkpt lat="44.53358" lon="6.78715">
        <ele>1701.2</ele>
        <time>2013-09-02T14:29:11Z</time>
      </trkpt>
      <trkpt lat="44.5338" lon="6.78687">
        <ele>1697.3</ele>
        <time>2013-09-02T14:29:14Z</time>
      </trkpt>
      <trkpt lat="44.5341" lon="6.78638">
        <ele>1692.5</ele>
        <time>2013-09-02T14:29:18Z</time>
      </trkpt>
      <trkpt lat="44.53434" lon="6.78601">
        <ele>1688.7</ele>
        <time>2013-09-02T14:29:21Z</time>
      </trkpt>
      <trkpt lat="44.53456" lon="6.78572">
        <ele>1685.3</ele>
        <time>2013-09-02T14:29:24Z</time>
      </trkpt>
      <trkpt lat="44.53471" lon="6.78559">
        <ele>1682.9</ele>
        <time>2013-09-02T14:29:26Z</time>
      </trkpt>
      <trkpt lat="44.53481" lon="6.78555">
        <ele>1682</ele>
        <time>2013-09-02T14:29:27Z</time>
      </trkpt>
      <trkpt lat="44.5353" lon="6.78554">
        <ele>1677.6</ele>
        <time>2013-09-02T14:29:32Z</time>
      </trkpt>
      <trkpt lat="44.5355" lon="6.78555">
        <ele>1674.8</ele>
        <time>2013-09-02T14:29:35Z</time>
      </trkpt>
      <trkpt lat="44.53556" lon="6.78558">
        <ele>1674.3</ele>
        <time>2013-09-02T14:29:36Z</time>
      </trkpt>
      <trkpt lat="44.53563" lon="6.7856">
        <ele>1673.8</ele>
        <time>2013-09-02T14:29:37Z</time>
      </trkpt>
      <trkpt lat="44.53596" lon="6.78568">
        <ele>1670.9</ele>
        <time>2013-09-02T14:29:42Z</time>
      </trkpt>
      <trkpt lat="44.53603" lon="6.78566">
        <ele>1670</ele>
        <time>2013-09-02T14:29:43Z</time>
      </trkpt>
      <trkpt lat="44.5361" lon="6.78562">
        <ele>1670</ele>
        <time>2013-09-02T14:29:44Z</time>
      </trkpt>
      <trkpt lat="44.53619" lon="6.78555">
        <ele>1668.5</ele>
        <time>2013-09-02T14:29:46Z</time>
      </trkpt>
      <trkpt lat="44.53623" lon="6.78553">
        <ele>1668</ele>
        <time>2013-09-02T14:29:47Z</time>
      </trkpt>
      <trkpt lat="44.53626" lon="6.78551">
        <ele>1668.5</ele>
        <time>2013-09-02T14:29:48Z</time>
      </trkpt>
      <trkpt lat="44.53629" lon="6.78549">
        <ele>1668.5</ele>
        <time>2013-09-02T14:29:49Z</time>
      </trkpt>
      <trkpt lat="44.53638" lon="6.78565">
        <ele>1669</ele>
        <time>2013-09-02T14:29:57Z</time>
      </trkpt>
      <trkpt lat="44.53635" lon="6.78567">
        <ele>1668.5</ele>
        <time>2013-09-02T14:30:17Z</time>
      </trkpt>
      <trkpt lat="44.53631" lon="6.78567">
        <ele>1668</ele>
        <time>2013-09-02T14:30:38Z</time>
      </trkpt>
      <trkpt lat="44.53632" lon="6.78566">
        <ele>1668.5</ele>
        <time>2013-09-02T14:30:42Z</time>
      </trkpt>
      <trkpt lat="44.53633" lon="6.78565">
        <ele>1668.5</ele>
        <time>2013-09-02T14:30:43Z</time>
      </trkpt>
      <trkpt lat="44.53635" lon="6.78559">
        <ele>1668.5</ele>
        <time>2013-09-02T14:30:46Z</time>
      </trkpt>
      <trkpt lat="44.53638" lon="6.78557">
        <ele>1668</ele>
        <time>2013-09-02T14:30:48Z</time>
      </trkpt>
      <trkpt lat="44.53639" lon="6.78555">
        <ele>1668</ele>
        <time>2013-09-02T14:30:49Z</time>
      </trkpt>
      <trkpt lat="44.53639" lon="6.78552">
        <ele>1668</ele>
        <time>2013-09-02T14:30:50Z</time>
      </trkpt>
      <trkpt lat="44.5364" lon="6.7855">
        <ele>1668.5</ele>
        <time>2013-09-02T14:30:51Z</time>
      </trkpt>
      <trkpt lat="44.5364" lon="6.78546">
        <ele>1667.5</ele>
        <time>2013-09-02T14:30:52Z</time>
      </trkpt>
      <trkpt lat="44.5364" lon="6.78543">
        <ele>1668.5</ele>
        <time>2013-09-02T14:30:53Z</time>
      </trkpt>
      <trkpt lat="44.53641" lon="6.78539">
        <ele>1668</ele>
        <time>2013-09-02T14:30:54Z</time>
      </trkpt>
      <trkpt lat="44.53643" lon="6.78534">
        <ele>1667.1</ele>
        <time>2013-09-02T14:30:55Z</time>
      </trkpt>
      <trkpt lat="44.53645" lon="6.78529">
        <ele>1666.6</ele>
        <time>2013-09-02T14:30:56Z</time>
      </trkpt>
      <trkpt lat="44.53648" lon="6.78523">
        <ele>1666.1</ele>
        <time>2013-09-02T14:30:57Z</time>
      </trkpt>
      <trkpt lat="44.53655" lon="6.7851">
        <ele>1665.1</ele>
        <time>2013-09-02T14:30:59Z</time>
      </trkpt>
      <trkpt lat="44.53658" lon="6.78501">
        <ele>1664.7</ele>
        <time>2013-09-02T14:31:00Z</time>
      </trkpt>
      <trkpt lat="44.53659" lon="6.78492">
        <ele>1663.7</ele>
        <time>2013-09-02T14:31:01Z</time>
      </trkpt>
      <trkpt lat="44.53659" lon="6.78483">
        <ele>1662.7</ele>
        <time>2013-09-02T14:31:02Z</time>
      </trkpt>
      <trkpt lat="44.53657" lon="6.78475">
        <ele>1662.3</ele>
        <time>2013-09-02T14:31:03Z</time>
      </trkpt>
      <trkpt lat="44.53653" lon="6.78469">
        <ele>1662.3</ele>
        <time>2013-09-02T14:31:04Z</time>
      </trkpt>
      <trkpt lat="44.53647" lon="6.78466">
        <ele>1661.3</ele>
        <time>2013-09-02T14:31:05Z</time>
      </trkpt>
      <trkpt lat="44.53639" lon="6.78458">
        <ele>1660.8</ele>
        <time>2013-09-02T14:31:07Z</time>
      </trkpt>
      <trkpt lat="44.53637" lon="6.78457">
        <ele>1658.9</ele>
        <time>2013-09-02T14:31:13Z</time>
      </trkpt>
      <trkpt lat="44.53637" lon="6.78455">
        <ele>1658.4</ele>
        <time>2013-09-02T14:31:14Z</time>
      </trkpt>
      <trkpt lat="44.53637" lon="6.78452">
        <ele>1658.9</ele>
        <time>2013-09-02T14:31:15Z</time>
      </trkpt>
      <trkpt lat="44.53637" lon="6.78449">
        <ele>1658.9</ele>
        <time>2013-09-02T14:31:16Z</time>
      </trkpt>
      <trkpt lat="44.53637" lon="6.78444">
        <ele>1658.9</ele>
        <time>2013-09-02T14:31:17Z</time>
      </trkpt>
      <trkpt lat="44.53638" lon="6.78438">
        <ele>1658.4</ele>
        <time>2013-09-02T14:31:18Z</time>
      </trkpt>
      <trkpt lat="44.53641" lon="6.78432">
        <ele>1657.9</ele>
        <time>2013-09-02T14:31:19Z</time>
      </trkpt>
      <trkpt lat="44.53644" lon="6.78427">
        <ele>1657.9</ele>
        <time>2013-09-02T14:31:20Z</time>
      </trkpt>
      <trkpt lat="44.53659" lon="6.78401">
        <ele>1655.5</ele>
        <time>2013-09-02T14:31:24Z</time>
      </trkpt>
      <trkpt lat="44.53665" lon="6.78395">
        <ele>1654.6</ele>
        <time>2013-09-02T14:31:25Z</time>
      </trkpt>
      <trkpt lat="44.53672" lon="6.78391">
        <ele>1653.6</ele>
        <time>2013-09-02T14:31:26Z</time>
      </trkpt>
      <trkpt lat="44.53705" lon="6.78367">
        <ele>1650.2</ele>
        <time>2013-09-02T14:31:30Z</time>
      </trkpt>
      <trkpt lat="44.53728" lon="6.78345">
        <ele>1646.9</ele>
        <time>2013-09-02T14:31:33Z</time>
      </trkpt>
      <trkpt lat="44.53762" lon="6.78307">
        <ele>1642.1</ele>
        <time>2013-09-02T14:31:38Z</time>
      </trkpt>
      <trkpt lat="44.53766" lon="6.78302">
        <ele>1642.6</ele>
        <time>2013-09-02T14:31:39Z</time>
      </trkpt>
      <trkpt lat="44.53766" lon="6.78299">
        <ele>1642.1</ele>
        <time>2013-09-02T14:31:40Z</time>
      </trkpt>
      <trkpt lat="44.53757" lon="6.78303">
        <ele>1642.1</ele>
        <time>2013-09-02T14:31:43Z</time>
      </trkpt>
      <trkpt lat="44.53754" lon="6.78307">
        <ele>1641.6</ele>
        <time>2013-09-02T14:31:44Z</time>
      </trkpt>
      <trkpt lat="44.53751" lon="6.78311">
        <ele>1640.6</ele>
        <time>2013-09-02T14:31:45Z</time>
      </trkpt>
      <trkpt lat="44.53747" lon="6.78315">
        <ele>1640.2</ele>
        <time>2013-09-02T14:31:46Z</time>
      </trkpt>
      <trkpt lat="44.53744" lon="6.78318">
        <ele>1640.2</ele>
        <time>2013-09-02T14:31:47Z</time>
      </trkpt>
      <trkpt lat="44.53739" lon="6.78321">
        <ele>1640.2</ele>
        <time>2013-09-02T14:31:48Z</time>
      </trkpt>
      <trkpt lat="44.53701" lon="6.78338">
        <ele>1636.8</ele>
        <time>2013-09-02T14:31:54Z</time>
      </trkpt>
      <trkpt lat="44.53693" lon="6.78339">
        <ele>1635.3</ele>
        <time>2013-09-02T14:31:55Z</time>
      </trkpt>
      <trkpt lat="44.53684" lon="6.7834">
        <ele>1634.4</ele>
        <time>2013-09-02T14:31:56Z</time>
      </trkpt>
      <trkpt lat="44.53676" lon="6.78339">
        <ele>1633.9</ele>
        <time>2013-09-02T14:31:57Z</time>
      </trkpt>
      <trkpt lat="44.53639" lon="6.78325">
        <ele>1630.1</ele>
        <time>2013-09-02T14:32:01Z</time>
      </trkpt>
      <trkpt lat="44.53611" lon="6.78308">
        <ele>1627.7</ele>
        <time>2013-09-02T14:32:04Z</time>
      </trkpt>
      <trkpt lat="44.53592" lon="6.78294">
        <ele>1624.3</ele>
        <time>2013-09-02T14:32:06Z</time>
      </trkpt>
      <trkpt lat="44.53583" lon="6.78289">
        <ele>1624.3</ele>
        <time>2013-09-02T14:32:07Z</time>
      </trkpt>
      <trkpt lat="44.53574" lon="6.78285">
        <ele>1623.3</ele>
        <time>2013-09-02T14:32:08Z</time>
      </trkpt>
      <trkpt lat="44.53557" lon="6.78277">
        <ele>1621.9</ele>
        <time>2013-09-02T14:32:11Z</time>
      </trkpt>
      <trkpt lat="44.53553" lon="6.78272">
        <ele>1621.9</ele>
        <time>2013-09-02T14:32:12Z</time>
      </trkpt>
      <trkpt lat="44.53553" lon="6.78266">
        <ele>1621.9</ele>
        <time>2013-09-02T14:32:13Z</time>
      </trkpt>
      <trkpt lat="44.53554" lon="6.7826">
        <ele>1621.4</ele>
        <time>2013-09-02T14:32:14Z</time>
      </trkpt>
      <trkpt lat="44.53558" lon="6.78255">
        <ele>1621.4</ele>
        <time>2013-09-02T14:32:15Z</time>
      </trkpt>
      <trkpt lat="44.53563" lon="6.78254">
        <ele>1621.4</ele>
        <time>2013-09-02T14:32:16Z</time>
      </trkpt>
      <trkpt lat="44.53569" lon="6.78254">
        <ele>1620.9</ele>
        <time>2013-09-02T14:32:17Z</time>
      </trkpt>
      <trkpt lat="44.53574" lon="6.78254">
        <ele>1620.9</ele>
        <time>2013-09-02T14:32:18Z</time>
      </trkpt>
      <trkpt lat="44.53593" lon="6.78253">
        <ele>1619.5</ele>
        <time>2013-09-02T14:32:21Z</time>
      </trkpt>
      <trkpt lat="44.53625" lon="6.78244">
        <ele>1616.6</ele>
        <time>2013-09-02T14:32:25Z</time>
      </trkpt>
      <trkpt lat="44.5363" lon="6.78237">
        <ele>1615.2</ele>
        <time>2013-09-02T14:32:26Z</time>
      </trkpt>
      <trkpt lat="44.53632" lon="6.78228">
        <ele>1614.7</ele>
        <time>2013-09-02T14:32:27Z</time>
      </trkpt>
      <trkpt lat="44.5363" lon="6.78218">
        <ele>1614.2</ele>
        <time>2013-09-02T14:32:28Z</time>
      </trkpt>
      <trkpt lat="44.53625" lon="6.78209">
        <ele>1613.2</ele>
        <time>2013-09-02T14:32:29Z</time>
      </trkpt>
      <trkpt lat="44.53619" lon="6.78201">
        <ele>1613.2</ele>
        <time>2013-09-02T14:32:30Z</time>
      </trkpt>
      <trkpt lat="44.53611" lon="6.78194">
        <ele>1612.3</ele>
        <time>2013-09-02T14:32:31Z</time>
      </trkpt>
      <trkpt lat="44.53602" lon="6.78191">
        <ele>1611.3</ele>
        <time>2013-09-02T14:32:32Z</time>
      </trkpt>
      <trkpt lat="44.53593" lon="6.78187">
        <ele>1610.8</ele>
        <time>2013-09-02T14:32:33Z</time>
      </trkpt>
      <trkpt lat="44.53584" lon="6.78184">
        <ele>1610.8</ele>
        <time>2013-09-02T14:32:34Z</time>
      </trkpt>
      <trkpt lat="44.53566" lon="6.78176">
        <ele>1608.9</ele>
        <time>2013-09-02T14:32:36Z</time>
      </trkpt>
      <trkpt lat="44.5353" lon="6.78157">
        <ele>1607</ele>
        <time>2013-09-02T14:32:40Z</time>
      </trkpt>
      <trkpt lat="44.53468" lon="6.78112">
        <ele>1603.1</ele>
        <time>2013-09-02T14:32:47Z</time>
      </trkpt>
      <trkpt lat="44.53459" lon="6.78106">
        <ele>1603.1</ele>
        <time>2013-09-02T14:32:48Z</time>
      </trkpt>
      <trkpt lat="44.5341" lon="6.78075">
        <ele>1598.8</ele>
        <time>2013-09-02T14:32:53Z</time>
      </trkpt>
      <trkpt lat="44.53401" lon="6.78068">
        <ele>1598.3</ele>
        <time>2013-09-02T14:32:54Z</time>
      </trkpt>
      <trkpt lat="44.53353" lon="6.78031">
        <ele>1595</ele>
        <time>2013-09-02T14:32:59Z</time>
      </trkpt>
      <trkpt lat="44.53322" lon="6.78008">
        <ele>1591.6</ele>
        <time>2013-09-02T14:33:02Z</time>
      </trkpt>
      <trkpt lat="44.53282" lon="6.77978">
        <ele>1587.3</ele>
        <time>2013-09-02T14:33:06Z</time>
      </trkpt>
      <trkpt lat="44.53255" lon="6.77953">
        <ele>1584.4</ele>
        <time>2013-09-02T14:33:09Z</time>
      </trkpt>
      <trkpt lat="44.53221" lon="6.77923">
        <ele>1580.5</ele>
        <time>2013-09-02T14:33:13Z</time>
      </trkpt>
      <trkpt lat="44.53213" lon="6.77914">
        <ele>1579.6</ele>
        <time>2013-09-02T14:33:14Z</time>
      </trkpt>
      <trkpt lat="44.53206" lon="6.77905">
        <ele>1580.1</ele>
        <time>2013-09-02T14:33:15Z</time>
      </trkpt>
      <trkpt lat="44.53192" lon="6.77888">
        <ele>1578.6</ele>
        <time>2013-09-02T14:33:17Z</time>
      </trkpt>
      <trkpt lat="44.53186" lon="6.77879">
        <ele>1578.6</ele>
        <time>2013-09-02T14:33:18Z</time>
      </trkpt>
      <trkpt lat="44.53181" lon="6.7787">
        <ele>1578.6</ele>
        <time>2013-09-02T14:33:19Z</time>
      </trkpt>
      <trkpt lat="44.53172" lon="6.77849">
        <ele>1576.7</ele>
        <time>2013-09-02T14:33:21Z</time>
      </trkpt>
      <trkpt lat="44.53165" lon="6.77825">
        <ele>1574.8</ele>
        <time>2013-09-02T14:33:23Z</time>
      </trkpt>
      <trkpt lat="44.53161" lon="6.77814">
        <ele>1574.8</ele>
        <time>2013-09-02T14:33:24Z</time>
      </trkpt>
      <trkpt lat="44.53157" lon="6.77804">
        <ele>1575.3</ele>
        <time>2013-09-02T14:33:25Z</time>
      </trkpt>
      <trkpt lat="44.53151" lon="6.77795">
        <ele>1574.8</ele>
        <time>2013-09-02T14:33:26Z</time>
      </trkpt>
      <trkpt lat="44.53141" lon="6.77779">
        <ele>1574.8</ele>
        <time>2013-09-02T14:33:28Z</time>
      </trkpt>
      <trkpt lat="44.53124" lon="6.77755">
        <ele>1573.3</ele>
        <time>2013-09-02T14:33:31Z</time>
      </trkpt>
      <trkpt lat="44.53119" lon="6.77746">
        <ele>1573.3</ele>
        <time>2013-09-02T14:33:32Z</time>
      </trkpt>
      <trkpt lat="44.53106" lon="6.77718">
        <ele>1572.9</ele>
        <time>2013-09-02T14:33:35Z</time>
      </trkpt>
      <trkpt lat="44.53067" lon="6.77663">
        <ele>1572.9</ele>
        <time>2013-09-02T14:33:45Z</time>
      </trkpt>
      <trkpt lat="44.53053" lon="6.77642">
        <ele>1573.3</ele>
        <time>2013-09-02T14:33:49Z</time>
      </trkpt>
      <trkpt lat="44.5305" lon="6.77636">
        <ele>1573.3</ele>
        <time>2013-09-02T14:33:50Z</time>
      </trkpt>
      <trkpt lat="44.53048" lon="6.7763">
        <ele>1573.3</ele>
        <time>2013-09-02T14:33:51Z</time>
      </trkpt>
      <trkpt lat="44.53046" lon="6.77623">
        <ele>1573.3</ele>
        <time>2013-09-02T14:33:52Z</time>
      </trkpt>
      <trkpt lat="44.53045" lon="6.77616">
        <ele>1572.9</ele>
        <time>2013-09-02T14:33:53Z</time>
      </trkpt>
      <trkpt lat="44.53045" lon="6.77609">
        <ele>1572.9</ele>
        <time>2013-09-02T14:33:54Z</time>
      </trkpt>
      <trkpt lat="44.53046" lon="6.77601">
        <ele>1572.9</ele>
        <time>2013-09-02T14:33:55Z</time>
      </trkpt>
      <trkpt lat="44.53049" lon="6.77593">
        <ele>1571.9</ele>
        <time>2013-09-02T14:33:56Z</time>
      </trkpt>
      <trkpt lat="44.53054" lon="6.77585">
        <ele>1571.4</ele>
        <time>2013-09-02T14:33:57Z</time>
      </trkpt>
      <trkpt lat="44.53059" lon="6.77578">
        <ele>1570.5</ele>
        <time>2013-09-02T14:33:58Z</time>
      </trkpt>
      <trkpt lat="44.53063" lon="6.7757">
        <ele>1570.5</ele>
        <time>2013-09-02T14:33:59Z</time>
      </trkpt>
      <trkpt lat="44.53065" lon="6.77561">
        <ele>1570</ele>
        <time>2013-09-02T14:34:00Z</time>
      </trkpt>
      <trkpt lat="44.53064" lon="6.77552">
        <ele>1570</ele>
        <time>2013-09-02T14:34:01Z</time>
      </trkpt>
      <trkpt lat="44.5306" lon="6.77543">
        <ele>1569</ele>
        <time>2013-09-02T14:34:02Z</time>
      </trkpt>
      <trkpt lat="44.53055" lon="6.77535">
        <ele>1568.5</ele>
        <time>2013-09-02T14:34:03Z</time>
      </trkpt>
      <trkpt lat="44.53048" lon="6.7753">
        <ele>1569</ele>
        <time>2013-09-02T14:34:04Z</time>
      </trkpt>
      <trkpt lat="44.5304" lon="6.77528">
        <ele>1568.5</ele>
        <time>2013-09-02T14:34:05Z</time>
      </trkpt>
      <trkpt lat="44.53033" lon="6.7753">
        <ele>1568.1</ele>
        <time>2013-09-02T14:34:06Z</time>
      </trkpt>
      <trkpt lat="44.53025" lon="6.77534">
        <ele>1567.6</ele>
        <time>2013-09-02T14:34:07Z</time>
      </trkpt>
      <trkpt lat="44.53017" lon="6.77537">
        <ele>1566.6</ele>
        <time>2013-09-02T14:34:08Z</time>
      </trkpt>
      <trkpt lat="44.53009" lon="6.77537">
        <ele>1566.6</ele>
        <time>2013-09-02T14:34:09Z</time>
      </trkpt>
      <trkpt lat="44.52958" lon="6.77535">
        <ele>1563.7</ele>
        <time>2013-09-02T14:34:15Z</time>
      </trkpt>
      <trkpt lat="44.52949" lon="6.7753">
        <ele>1563.2</ele>
        <time>2013-09-02T14:34:16Z</time>
      </trkpt>
      <trkpt lat="44.52923" lon="6.77515">
        <ele>1560.8</ele>
        <time>2013-09-02T14:34:19Z</time>
      </trkpt>
      <trkpt lat="44.52915" lon="6.77508">
        <ele>1560.4</ele>
        <time>2013-09-02T14:34:20Z</time>
      </trkpt>
      <trkpt lat="44.52907" lon="6.77499">
        <ele>1559.9</ele>
        <time>2013-09-02T14:34:21Z</time>
      </trkpt>
      <trkpt lat="44.52902" lon="6.77487">
        <ele>1558.4</ele>
        <time>2013-09-02T14:34:22Z</time>
      </trkpt>
      <trkpt lat="44.52898" lon="6.77473">
        <ele>1557.5</ele>
        <time>2013-09-02T14:34:23Z</time>
      </trkpt>
      <trkpt lat="44.52893" lon="6.77459">
        <ele>1557</ele>
        <time>2013-09-02T14:34:24Z</time>
      </trkpt>
      <trkpt lat="44.5285" lon="6.77369">
        <ele>1555.1</ele>
        <time>2013-09-02T14:34:33Z</time>
      </trkpt>
      <trkpt lat="44.52799" lon="6.77293">
        <ele>1556</ele>
        <time>2013-09-02T14:34:46Z</time>
      </trkpt>
      <trkpt lat="44.52776" lon="6.77243">
        <ele>1556.5</ele>
        <time>2013-09-02T14:34:54Z</time>
      </trkpt>
      <trkpt lat="44.52774" lon="6.77236">
        <ele>1556</ele>
        <time>2013-09-02T14:34:55Z</time>
      </trkpt>
      <trkpt lat="44.52772" lon="6.77228">
        <ele>1555.6</ele>
        <time>2013-09-02T14:34:56Z</time>
      </trkpt>
      <trkpt lat="44.5277" lon="6.77218">
        <ele>1554.6</ele>
        <time>2013-09-02T14:34:57Z</time>
      </trkpt>
      <trkpt lat="44.52769" lon="6.77209">
        <ele>1554.1</ele>
        <time>2013-09-02T14:34:58Z</time>
      </trkpt>
      <trkpt lat="44.52767" lon="6.77199">
        <ele>1554.1</ele>
        <time>2013-09-02T14:34:59Z</time>
      </trkpt>
      <trkpt lat="44.52762" lon="6.7718">
        <ele>1553.2</ele>
        <time>2013-09-02T14:35:01Z</time>
      </trkpt>
      <trkpt lat="44.52757" lon="6.77171">
        <ele>1552.2</ele>
        <time>2013-09-02T14:35:02Z</time>
      </trkpt>
      <trkpt lat="44.52752" lon="6.77163">
        <ele>1552.2</ele>
        <time>2013-09-02T14:35:03Z</time>
      </trkpt>
      <trkpt lat="44.52746" lon="6.77156">
        <ele>1551.7</ele>
        <time>2013-09-02T14:35:04Z</time>
      </trkpt>
      <trkpt lat="44.52738" lon="6.77152">
        <ele>1551.2</ele>
        <time>2013-09-02T14:35:05Z</time>
      </trkpt>
      <trkpt lat="44.5273" lon="6.77149">
        <ele>1551.2</ele>
        <time>2013-09-02T14:35:06Z</time>
      </trkpt>
      <trkpt lat="44.52723" lon="6.77146">
        <ele>1550.7</ele>
        <time>2013-09-02T14:35:07Z</time>
      </trkpt>
      <trkpt lat="44.52707" lon="6.77144">
        <ele>1549.3</ele>
        <time>2013-09-02T14:35:09Z</time>
      </trkpt>
      <trkpt lat="44.5267" lon="6.77131">
        <ele>1547.9</ele>
        <time>2013-09-02T14:35:14Z</time>
      </trkpt>
      <trkpt lat="44.52663" lon="6.77124">
        <ele>1547.4</ele>
        <time>2013-09-02T14:35:15Z</time>
      </trkpt>
      <trkpt lat="44.52658" lon="6.77115">
        <ele>1547.9</ele>
        <time>2013-09-02T14:35:16Z</time>
      </trkpt>
      <trkpt lat="44.52653" lon="6.77105">
        <ele>1547.4</ele>
        <time>2013-09-02T14:35:17Z</time>
      </trkpt>
      <trkpt lat="44.5265" lon="6.77094">
        <ele>1547.4</ele>
        <time>2013-09-02T14:35:18Z</time>
      </trkpt>
      <trkpt lat="44.52647" lon="6.77083">
        <ele>1546.9</ele>
        <time>2013-09-02T14:35:19Z</time>
      </trkpt>
      <trkpt lat="44.52637" lon="6.7705">
        <ele>1545.5</ele>
        <time>2013-09-02T14:35:22Z</time>
      </trkpt>
      <trkpt lat="44.52576" lon="6.76953">
        <ele>1542.6</ele>
        <time>2013-09-02T14:35:33Z</time>
      </trkpt>
      <trkpt lat="44.5257" lon="6.76944">
        <ele>1542.1</ele>
        <time>2013-09-02T14:35:34Z</time>
      </trkpt>
      <trkpt lat="44.52565" lon="6.76935">
        <ele>1542.1</ele>
        <time>2013-09-02T14:35:35Z</time>
      </trkpt>
      <trkpt lat="44.52562" lon="6.76923">
        <ele>1541.6</ele>
        <time>2013-09-02T14:35:36Z</time>
      </trkpt>
      <trkpt lat="44.52562" lon="6.76911">
        <ele>1541.6</ele>
        <time>2013-09-02T14:35:37Z</time>
      </trkpt>
      <trkpt lat="44.52563" lon="6.76899">
        <ele>1541.6</ele>
        <time>2013-09-02T14:35:38Z</time>
      </trkpt>
      <trkpt lat="44.52563" lon="6.76887">
        <ele>1540.2</ele>
        <time>2013-09-02T14:35:39Z</time>
      </trkpt>
      <trkpt lat="44.52561" lon="6.76876">
        <ele>1540.7</ele>
        <time>2013-09-02T14:35:40Z</time>
      </trkpt>
      <trkpt lat="44.52557" lon="6.76866">
        <ele>1540.7</ele>
        <time>2013-09-02T14:35:41Z</time>
      </trkpt>
      <trkpt lat="44.52552" lon="6.76856">
        <ele>1540.2</ele>
        <time>2013-09-02T14:35:42Z</time>
      </trkpt>
      <trkpt lat="44.52505" lon="6.76776">
        <ele>1536.3</ele>
        <time>2013-09-02T14:35:51Z</time>
      </trkpt>
      <trkpt lat="44.52497" lon="6.76757">
        <ele>1536.8</ele>
        <time>2013-09-02T14:35:53Z</time>
      </trkpt>
      <trkpt lat="44.52492" lon="6.76748">
        <ele>1535.8</ele>
        <time>2013-09-02T14:35:54Z</time>
      </trkpt>
      <trkpt lat="44.52486" lon="6.7674">
        <ele>1535.4</ele>
        <time>2013-09-02T14:35:55Z</time>
      </trkpt>
      <trkpt lat="44.52404" lon="6.7664">
        <ele>1532.5</ele>
        <time>2013-09-02T14:36:08Z</time>
      </trkpt>
      <trkpt lat="44.52399" lon="6.76631">
        <ele>1532.5</ele>
        <time>2013-09-02T14:36:09Z</time>
      </trkpt>
      <trkpt lat="44.52395" lon="6.76621">
        <ele>1532</ele>
        <time>2013-09-02T14:36:10Z</time>
      </trkpt>
      <trkpt lat="44.52359" lon="6.76517">
        <ele>1529.6</ele>
        <time>2013-09-02T14:36:20Z</time>
      </trkpt>
      <trkpt lat="44.52353" lon="6.76509">
        <ele>1529.1</ele>
        <time>2013-09-02T14:36:21Z</time>
      </trkpt>
      <trkpt lat="44.52346" lon="6.76503">
        <ele>1530.1</ele>
        <time>2013-09-02T14:36:22Z</time>
      </trkpt>
      <trkpt lat="44.52339" lon="6.76498">
        <ele>1529.1</ele>
        <time>2013-09-02T14:36:23Z</time>
      </trkpt>
      <trkpt lat="44.52331" lon="6.76493">
        <ele>1528.6</ele>
        <time>2013-09-02T14:36:24Z</time>
      </trkpt>
      <trkpt lat="44.52324" lon="6.76488">
        <ele>1528.2</ele>
        <time>2013-09-02T14:36:25Z</time>
      </trkpt>
      <trkpt lat="44.52317" lon="6.76482">
        <ele>1528.2</ele>
        <time>2013-09-02T14:36:26Z</time>
      </trkpt>
      <trkpt lat="44.5231" lon="6.76474">
        <ele>1528.2</ele>
        <time>2013-09-02T14:36:27Z</time>
      </trkpt>
      <trkpt lat="44.52304" lon="6.76465">
        <ele>1526.7</ele>
        <time>2013-09-02T14:36:28Z</time>
      </trkpt>
      <trkpt lat="44.52298" lon="6.76456">
        <ele>1527.2</ele>
        <time>2013-09-02T14:36:29Z</time>
      </trkpt>
      <trkpt lat="44.52293" lon="6.76447">
        <ele>1526.7</ele>
        <time>2013-09-02T14:36:30Z</time>
      </trkpt>
      <trkpt lat="44.52289" lon="6.76437">
        <ele>1526.2</ele>
        <time>2013-09-02T14:36:31Z</time>
      </trkpt>
      <trkpt lat="44.52278" lon="6.76419">
        <ele>1525.8</ele>
        <time>2013-09-02T14:36:33Z</time>
      </trkpt>
      <trkpt lat="44.52271" lon="6.76412">
        <ele>1525.8</ele>
        <time>2013-09-02T14:36:34Z</time>
      </trkpt>
      <trkpt lat="44.52264" lon="6.76407">
        <ele>1526.2</ele>
        <time>2013-09-02T14:36:35Z</time>
      </trkpt>
      <trkpt lat="44.52257" lon="6.76402">
        <ele>1526.2</ele>
        <time>2013-09-02T14:36:36Z</time>
      </trkpt>
      <trkpt lat="44.5225" lon="6.76397">
        <ele>1525.3</ele>
        <time>2013-09-02T14:36:37Z</time>
      </trkpt>
      <trkpt lat="44.52244" lon="6.76389">
        <ele>1524.3</ele>
        <time>2013-09-02T14:36:38Z</time>
      </trkpt>
      <trkpt lat="44.52239" lon="6.76379">
        <ele>1525.3</ele>
        <time>2013-09-02T14:36:39Z</time>
      </trkpt>
      <trkpt lat="44.52235" lon="6.76369">
        <ele>1524.3</ele>
        <time>2013-09-02T14:36:40Z</time>
      </trkpt>
      <trkpt lat="44.52232" lon="6.76358">
        <ele>1524.3</ele>
        <time>2013-09-02T14:36:41Z</time>
      </trkpt>
      <trkpt lat="44.52228" lon="6.76348">
        <ele>1523.8</ele>
        <time>2013-09-02T14:36:42Z</time>
      </trkpt>
      <trkpt lat="44.52223" lon="6.76339">
        <ele>1523.8</ele>
        <time>2013-09-02T14:36:43Z</time>
      </trkpt>
      <trkpt lat="44.52217" lon="6.76332">
        <ele>1523.8</ele>
        <time>2013-09-02T14:36:44Z</time>
      </trkpt>
      <trkpt lat="44.5221" lon="6.76327">
        <ele>1522.9</ele>
        <time>2013-09-02T14:36:45Z</time>
      </trkpt>
      <trkpt lat="44.52203" lon="6.76324">
        <ele>1523.4</ele>
        <time>2013-09-02T14:36:46Z</time>
      </trkpt>
      <trkpt lat="44.52196" lon="6.7632">
        <ele>1523.4</ele>
        <time>2013-09-02T14:36:47Z</time>
      </trkpt>
      <trkpt lat="44.52189" lon="6.76315">
        <ele>1522.4</ele>
        <time>2013-09-02T14:36:48Z</time>
      </trkpt>
      <trkpt lat="44.52183" lon="6.76307">
        <ele>1521.9</ele>
        <time>2013-09-02T14:36:49Z</time>
      </trkpt>
      <trkpt lat="44.52178" lon="6.76298">
        <ele>1522.4</ele>
        <time>2013-09-02T14:36:50Z</time>
      </trkpt>
      <trkpt lat="44.52173" lon="6.76289">
        <ele>1522.4</ele>
        <time>2013-09-02T14:36:51Z</time>
      </trkpt>
      <trkpt lat="44.52169" lon="6.76279">
        <ele>1521.9</ele>
        <time>2013-09-02T14:36:52Z</time>
      </trkpt>
      <trkpt lat="44.52147" lon="6.76233">
        <ele>1521.9</ele>
        <time>2013-09-02T14:36:57Z</time>
      </trkpt>
      <trkpt lat="44.52144" lon="6.76222">
        <ele>1520.5</ele>
        <time>2013-09-02T14:36:58Z</time>
      </trkpt>
      <trkpt lat="44.52142" lon="6.76212">
        <ele>1520.9</ele>
        <time>2013-09-02T14:36:59Z</time>
      </trkpt>
      <trkpt lat="44.52133" lon="6.76181">
        <ele>1520</ele>
        <time>2013-09-02T14:37:02Z</time>
      </trkpt>
      <trkpt lat="44.52128" lon="6.76173">
        <ele>1520</ele>
        <time>2013-09-02T14:37:03Z</time>
      </trkpt>
      <trkpt lat="44.52122" lon="6.76166">
        <ele>1519.5</ele>
        <time>2013-09-02T14:37:04Z</time>
      </trkpt>
      <trkpt lat="44.52116" lon="6.7616">
        <ele>1519</ele>
        <time>2013-09-02T14:37:05Z</time>
      </trkpt>
      <trkpt lat="44.5211" lon="6.76155">
        <ele>1518.1</ele>
        <time>2013-09-02T14:37:06Z</time>
      </trkpt>
      <trkpt lat="44.52104" lon="6.76148">
        <ele>1518.5</ele>
        <time>2013-09-02T14:37:07Z</time>
      </trkpt>
      <trkpt lat="44.52099" lon="6.7614">
        <ele>1518.5</ele>
        <time>2013-09-02T14:37:08Z</time>
      </trkpt>
      <trkpt lat="44.52057" lon="6.76064">
        <ele>1515.2</ele>
        <time>2013-09-02T14:37:16Z</time>
      </trkpt>
      <trkpt lat="44.52033" lon="6.76017">
        <ele>1514.2</ele>
        <time>2013-09-02T14:37:21Z</time>
      </trkpt>
      <trkpt lat="44.52027" lon="6.7601">
        <ele>1515.2</ele>
        <time>2013-09-02T14:37:22Z</time>
      </trkpt>
      <trkpt lat="44.51979" lon="6.75941">
        <ele>1512.3</ele>
        <time>2013-09-02T14:37:31Z</time>
      </trkpt>
      <trkpt lat="44.51902" lon="6.75851">
        <ele>1511.3</ele>
        <time>2013-09-02T14:37:45Z</time>
      </trkpt>
      <trkpt lat="44.51825" lon="6.75812">
        <ele>1510.4</ele>
        <time>2013-09-02T14:37:57Z</time>
      </trkpt>
      <trkpt lat="44.51732" lon="6.75713">
        <ele>1508.9</ele>
        <time>2013-09-02T14:38:15Z</time>
      </trkpt>
      <trkpt lat="44.51715" lon="6.75677">
        <ele>1508</ele>
        <time>2013-09-02T14:38:19Z</time>
      </trkpt>
      <trkpt lat="44.51697" lon="6.7564">
        <ele>1506.5</ele>
        <time>2013-09-02T14:38:23Z</time>
      </trkpt>
      <trkpt lat="44.51675" lon="6.75593">
        <ele>1505.1</ele>
        <time>2013-09-02T14:38:28Z</time>
      </trkpt>
      <trkpt lat="44.51673" lon="6.75582">
        <ele>1504.6</ele>
        <time>2013-09-02T14:38:29Z</time>
      </trkpt>
      <trkpt lat="44.51672" lon="6.75572">
        <ele>1504.1</ele>
        <time>2013-09-02T14:38:30Z</time>
      </trkpt>
      <trkpt lat="44.51671" lon="6.75561">
        <ele>1504.1</ele>
        <time>2013-09-02T14:38:31Z</time>
      </trkpt>
      <trkpt lat="44.51672" lon="6.75551">
        <ele>1503.6</ele>
        <time>2013-09-02T14:38:32Z</time>
      </trkpt>
      <trkpt lat="44.51668" lon="6.7549">
        <ele>1501.7</ele>
        <time>2013-09-02T14:38:38Z</time>
      </trkpt>
      <trkpt lat="44.51665" lon="6.75482">
        <ele>1500.8</ele>
        <time>2013-09-02T14:38:39Z</time>
      </trkpt>
      <trkpt lat="44.51661" lon="6.75476">
        <ele>1501.7</ele>
        <time>2013-09-02T14:38:40Z</time>
      </trkpt>
      <trkpt lat="44.51657" lon="6.7547">
        <ele>1501.2</ele>
        <time>2013-09-02T14:38:41Z</time>
      </trkpt>
      <trkpt lat="44.51653" lon="6.75465">
        <ele>1501.2</ele>
        <time>2013-09-02T14:38:42Z</time>
      </trkpt>
      <trkpt lat="44.51648" lon="6.75461">
        <ele>1501.7</ele>
        <time>2013-09-02T14:38:43Z</time>
      </trkpt>
      <trkpt lat="44.51588" lon="6.7542">
        <ele>1504.6</ele>
        <time>2013-09-02T14:38:58Z</time>
      </trkpt>
      <trkpt lat="44.51584" lon="6.75416">
        <ele>1504.6</ele>
        <time>2013-09-02T14:38:59Z</time>
      </trkpt>
      <trkpt lat="44.51581" lon="6.75412">
        <ele>1504.6</ele>
        <time>2013-09-02T14:39:00Z</time>
      </trkpt>
      <trkpt lat="44.51578" lon="6.75407">
        <ele>1504.1</ele>
        <time>2013-09-02T14:39:01Z</time>
      </trkpt>
      <trkpt lat="44.51576" lon="6.75402">
        <ele>1505.1</ele>
        <time>2013-09-02T14:39:02Z</time>
      </trkpt>
      <trkpt lat="44.51573" lon="6.75396">
        <ele>1504.1</ele>
        <time>2013-09-02T14:39:03Z</time>
      </trkpt>
      <trkpt lat="44.5157" lon="6.7539">
        <ele>1504.1</ele>
        <time>2013-09-02T14:39:04Z</time>
      </trkpt>
      <trkpt lat="44.51568" lon="6.75384">
        <ele>1504.1</ele>
        <time>2013-09-02T14:39:05Z</time>
      </trkpt>
      <trkpt lat="44.51566" lon="6.75377">
        <ele>1503.2</ele>
        <time>2013-09-02T14:39:06Z</time>
      </trkpt>
      <trkpt lat="44.51565" lon="6.75369">
        <ele>1503.2</ele>
        <time>2013-09-02T14:39:07Z</time>
      </trkpt>
      <trkpt lat="44.51536" lon="6.75282">
        <ele>1502.2</ele>
        <time>2013-09-02T14:39:19Z</time>
      </trkpt>
      <trkpt lat="44.51523" lon="6.75229">
        <ele>1505.1</ele>
        <time>2013-09-02T14:39:30Z</time>
      </trkpt>
      <trkpt lat="44.51497" lon="6.75173">
        <ele>1505.6</ele>
        <time>2013-09-02T14:39:43Z</time>
      </trkpt>
      <trkpt lat="44.51482" lon="6.75143">
        <ele>1505.1</ele>
        <time>2013-09-02T14:39:49Z</time>
      </trkpt>
      <trkpt lat="44.51478" lon="6.75132">
        <ele>1506</ele>
        <time>2013-09-02T14:39:51Z</time>
      </trkpt>
      <trkpt lat="44.51477" lon="6.75125">
        <ele>1505.6</ele>
        <time>2013-09-02T14:39:52Z</time>
      </trkpt>
      <trkpt lat="44.51476" lon="6.75119">
        <ele>1505.1</ele>
        <time>2013-09-02T14:39:53Z</time>
      </trkpt>
      <trkpt lat="44.51474" lon="6.75108">
        <ele>1505.6</ele>
        <time>2013-09-02T14:39:55Z</time>
      </trkpt>
      <trkpt lat="44.5146" lon="6.75049">
        <ele>1507</ele>
        <time>2013-09-02T14:40:08Z</time>
      </trkpt>
      <trkpt lat="44.5146" lon="6.75033">
        <ele>1506.5</ele>
        <time>2013-09-02T14:40:11Z</time>
      </trkpt>
      <trkpt lat="44.51461" lon="6.75026">
        <ele>1507</ele>
        <time>2013-09-02T14:40:12Z</time>
      </trkpt>
      <trkpt lat="44.51463" lon="6.75018">
        <ele>1506</ele>
        <time>2013-09-02T14:40:13Z</time>
      </trkpt>
      <trkpt lat="44.51467" lon="6.75012">
        <ele>1506</ele>
        <time>2013-09-02T14:40:14Z</time>
      </trkpt>
      <trkpt lat="44.51471" lon="6.75006">
        <ele>1506</ele>
        <time>2013-09-02T14:40:15Z</time>
      </trkpt>
      <trkpt lat="44.51478" lon="6.74994">
        <ele>1505.6</ele>
        <time>2013-09-02T14:40:17Z</time>
      </trkpt>
      <trkpt lat="44.51481" lon="6.74987">
        <ele>1505.6</ele>
        <time>2013-09-02T14:40:18Z</time>
      </trkpt>
      <trkpt lat="44.51483" lon="6.7498">
        <ele>1505.6</ele>
        <time>2013-09-02T14:40:19Z</time>
      </trkpt>
      <trkpt lat="44.51483" lon="6.74973">
        <ele>1505.6</ele>
        <time>2013-09-02T14:40:20Z</time>
      </trkpt>
      <trkpt lat="44.51482" lon="6.74965">
        <ele>1505.1</ele>
        <time>2013-09-02T14:40:21Z</time>
      </trkpt>
      <trkpt lat="44.5148" lon="6.74958">
        <ele>1505.1</ele>
        <time>2013-09-02T14:40:22Z</time>
      </trkpt>
      <trkpt lat="44.51478" lon="6.7495">
        <ele>1504.6</ele>
        <time>2013-09-02T14:40:23Z</time>
      </trkpt>
      <trkpt lat="44.51458" lon="6.74887">
        <ele>1504.1</ele>
        <time>2013-09-02T14:40:32Z</time>
      </trkpt>
      <trkpt lat="44.51458" lon="6.7488">
        <ele>1504.6</ele>
        <time>2013-09-02T14:40:33Z</time>
      </trkpt>
      <trkpt lat="44.51457" lon="6.74873">
        <ele>1504.6</ele>
        <time>2013-09-02T14:40:34Z</time>
      </trkpt>
      <trkpt lat="44.51465" lon="6.74763">
        <ele>1502.7</ele>
        <time>2013-09-02T14:40:48Z</time>
      </trkpt>
      <trkpt lat="44.51475" lon="6.74678">
        <ele>1501.2</ele>
        <time>2013-09-02T14:40:59Z</time>
      </trkpt>
      <trkpt lat="44.51477" lon="6.74671">
        <ele>1500.8</ele>
        <time>2013-09-02T14:41:00Z</time>
      </trkpt>
      <trkpt lat="44.51482" lon="6.74657">
        <ele>1501.2</ele>
        <time>2013-09-02T14:41:02Z</time>
      </trkpt>
      <trkpt lat="44.51485" lon="6.74651">
        <ele>1501.2</ele>
        <time>2013-09-02T14:41:03Z</time>
      </trkpt>
      <trkpt lat="44.51535" lon="6.74554">
        <ele>1501.2</ele>
        <time>2013-09-02T14:41:17Z</time>
      </trkpt>
      <trkpt lat="44.51537" lon="6.74546">
        <ele>1500.3</ele>
        <time>2013-09-02T14:41:18Z</time>
      </trkpt>
      <trkpt lat="44.51561" lon="6.74463">
        <ele>1499.3</ele>
        <time>2013-09-02T14:41:28Z</time>
      </trkpt>
      <trkpt lat="44.51563" lon="6.74454">
        <ele>1499.3</ele>
        <time>2013-09-02T14:41:29Z</time>
      </trkpt>
      <trkpt lat="44.51564" lon="6.74444">
        <ele>1498.4</ele>
        <time>2013-09-02T14:41:30Z</time>
      </trkpt>
      <trkpt lat="44.51563" lon="6.74434">
        <ele>1497.9</ele>
        <time>2013-09-02T14:41:31Z</time>
      </trkpt>
      <trkpt lat="44.5156" lon="6.74425">
        <ele>1497.4</ele>
        <time>2013-09-02T14:41:32Z</time>
      </trkpt>
      <trkpt lat="44.51556" lon="6.74417">
        <ele>1498.4</ele>
        <time>2013-09-02T14:41:33Z</time>
      </trkpt>
      <trkpt lat="44.51551" lon="6.74411">
        <ele>1497.4</ele>
        <time>2013-09-02T14:41:34Z</time>
      </trkpt>
      <trkpt lat="44.51544" lon="6.74405">
        <ele>1498.4</ele>
        <time>2013-09-02T14:41:35Z</time>
      </trkpt>
      <trkpt lat="44.51537" lon="6.74402">
        <ele>1497.9</ele>
        <time>2013-09-02T14:41:36Z</time>
      </trkpt>
      <trkpt lat="44.5153" lon="6.74402">
        <ele>1497.9</ele>
        <time>2013-09-02T14:41:37Z</time>
      </trkpt>
      <trkpt lat="44.51522" lon="6.74402">
        <ele>1496.9</ele>
        <time>2013-09-02T14:41:38Z</time>
      </trkpt>
      <trkpt lat="44.51433" lon="6.74412">
        <ele>1494</ele>
        <time>2013-09-02T14:41:48Z</time>
      </trkpt>
      <trkpt lat="44.51357" lon="6.74418">
        <ele>1491.1</ele>
        <time>2013-09-02T14:41:56Z</time>
      </trkpt>
      <trkpt lat="44.51244" lon="6.74428">
        <ele>1487.8</ele>
        <time>2013-09-02T14:42:08Z</time>
      </trkpt>
      <trkpt lat="44.51235" lon="6.74429">
        <ele>1487.8</ele>
        <time>2013-09-02T14:42:09Z</time>
      </trkpt>
      <trkpt lat="44.51162" lon="6.7442">
        <ele>1484.4</ele>
        <time>2013-09-02T14:42:17Z</time>
      </trkpt>
      <trkpt lat="44.51152" lon="6.7442">
        <ele>1484.4</ele>
        <time>2013-09-02T14:42:18Z</time>
      </trkpt>
      <trkpt lat="44.51142" lon="6.74422">
        <ele>1483</ele>
        <time>2013-09-02T14:42:19Z</time>
      </trkpt>
      <trkpt lat="44.51132" lon="6.74426">
        <ele>1483</ele>
        <time>2013-09-02T14:42:20Z</time>
      </trkpt>
      <trkpt lat="44.51123" lon="6.7443">
        <ele>1483.5</ele>
        <time>2013-09-02T14:42:21Z</time>
      </trkpt>
      <trkpt lat="44.51113" lon="6.74436">
        <ele>1481.5</ele>
        <time>2013-09-02T14:42:22Z</time>
      </trkpt>
      <trkpt lat="44.51105" lon="6.74444">
        <ele>1481.1</ele>
        <time>2013-09-02T14:42:23Z</time>
      </trkpt>
      <trkpt lat="44.51096" lon="6.74452">
        <ele>1481.1</ele>
        <time>2013-09-02T14:42:24Z</time>
      </trkpt>
      <trkpt lat="44.51088" lon="6.74462">
        <ele>1479.6</ele>
        <time>2013-09-02T14:42:25Z</time>
      </trkpt>
      <trkpt lat="44.51081" lon="6.74472">
        <ele>1478.7</ele>
        <time>2013-09-02T14:42:26Z</time>
      </trkpt>
      <trkpt lat="44.51073" lon="6.74483">
        <ele>1478.2</ele>
        <time>2013-09-02T14:42:27Z</time>
      </trkpt>
      <trkpt lat="44.51051" lon="6.74517">
        <ele>1476.7</ele>
        <time>2013-09-02T14:42:30Z</time>
      </trkpt>
      <trkpt lat="44.51045" lon="6.7453">
        <ele>1475.8</ele>
        <time>2013-09-02T14:42:31Z</time>
      </trkpt>
      <trkpt lat="44.5104" lon="6.74545">
        <ele>1474.3</ele>
        <time>2013-09-02T14:42:32Z</time>
      </trkpt>
      <trkpt lat="44.51036" lon="6.7456">
        <ele>1473.4</ele>
        <time>2013-09-02T14:42:33Z</time>
      </trkpt>
      <trkpt lat="44.51033" lon="6.74576">
        <ele>1472.9</ele>
        <time>2013-09-02T14:42:34Z</time>
      </trkpt>
      <trkpt lat="44.51025" lon="6.74623">
        <ele>1470</ele>
        <time>2013-09-02T14:42:37Z</time>
      </trkpt>
      <trkpt lat="44.5102" lon="6.74637">
        <ele>1468.6</ele>
        <time>2013-09-02T14:42:38Z</time>
      </trkpt>
      <trkpt lat="44.51014" lon="6.74649">
        <ele>1468.1</ele>
        <time>2013-09-02T14:42:39Z</time>
      </trkpt>
      <trkpt lat="44.51005" lon="6.74659">
        <ele>1466.2</ele>
        <time>2013-09-02T14:42:40Z</time>
      </trkpt>
      <trkpt lat="44.50996" lon="6.74666">
        <ele>1465.7</ele>
        <time>2013-09-02T14:42:41Z</time>
      </trkpt>
      <trkpt lat="44.50985" lon="6.74669">
        <ele>1464.2</ele>
        <time>2013-09-02T14:42:42Z</time>
      </trkpt>
      <trkpt lat="44.50974" lon="6.74668">
        <ele>1462.8</ele>
        <time>2013-09-02T14:42:43Z</time>
      </trkpt>
      <trkpt lat="44.50963" lon="6.74665">
        <ele>1462.3</ele>
        <time>2013-09-02T14:42:44Z</time>
      </trkpt>
      <trkpt lat="44.50952" lon="6.74661">
        <ele>1461.8</ele>
        <time>2013-09-02T14:42:45Z</time>
      </trkpt>
      <trkpt lat="44.50942" lon="6.74657">
        <ele>1461.3</ele>
        <time>2013-09-02T14:42:46Z</time>
      </trkpt>
      <trkpt lat="44.50883" lon="6.74633">
        <ele>1459.9</ele>
        <time>2013-09-02T14:42:52Z</time>
      </trkpt>
      <trkpt lat="44.50788" lon="6.7457">
        <ele>1456.5</ele>
        <time>2013-09-02T14:43:03Z</time>
      </trkpt>
      <trkpt lat="44.50781" lon="6.74565">
        <ele>1456.1</ele>
        <time>2013-09-02T14:43:04Z</time>
      </trkpt>
      <trkpt lat="44.50673" lon="6.74493">
        <ele>1454.1</ele>
        <time>2013-09-02T14:43:17Z</time>
      </trkpt>
      <trkpt lat="44.50569" lon="6.74522">
        <ele>1450.8</ele>
        <time>2013-09-02T14:43:28Z</time>
      </trkpt>
      <trkpt lat="44.50478" lon="6.74481">
        <ele>1447.9</ele>
        <time>2013-09-02T14:43:39Z</time>
      </trkpt>
      <trkpt lat="44.5047" lon="6.74476">
        <ele>1447.4</ele>
        <time>2013-09-02T14:43:40Z</time>
      </trkpt>
      <trkpt lat="44.50411" lon="6.7444">
        <ele>1444.5</ele>
        <time>2013-09-02T14:43:47Z</time>
      </trkpt>
      <trkpt lat="44.50348" lon="6.74401">
        <ele>1440.2</ele>
        <time>2013-09-02T14:43:54Z</time>
      </trkpt>
      <trkpt lat="44.50341" lon="6.74397">
        <ele>1440.2</ele>
        <time>2013-09-02T14:43:55Z</time>
      </trkpt>
      <trkpt lat="44.50325" lon="6.74336">
        <ele>1436.8</ele>
        <time>2013-09-02T14:43:59Z</time>
      </trkpt>
      <trkpt lat="44.50322" lon="6.74328">
        <ele>1436.4</ele>
        <time>2013-09-02T14:44:00Z</time>
      </trkpt>
      <trkpt lat="44.50309" lon="6.74313">
        <ele>1435.4</ele>
        <time>2013-09-02T14:44:02Z</time>
      </trkpt>
      <trkpt lat="44.50302" lon="6.74305">
        <ele>1433.9</ele>
        <time>2013-09-02T14:44:03Z</time>
      </trkpt>
      <trkpt lat="44.50297" lon="6.74294">
        <ele>1433</ele>
        <time>2013-09-02T14:44:04Z</time>
      </trkpt>
      <trkpt lat="44.50293" lon="6.7428">
        <ele>1432.5</ele>
        <time>2013-09-02T14:44:05Z</time>
      </trkpt>
      <trkpt lat="44.50292" lon="6.74264">
        <ele>1431.1</ele>
        <time>2013-09-02T14:44:06Z</time>
      </trkpt>
      <trkpt lat="44.50292" lon="6.74248">
        <ele>1430.6</ele>
        <time>2013-09-02T14:44:07Z</time>
      </trkpt>
      <trkpt lat="44.50287" lon="6.74178">
        <ele>1427.2</ele>
        <time>2013-09-02T14:44:11Z</time>
      </trkpt>
      <trkpt lat="44.5028" lon="6.74148">
        <ele>1425.8</ele>
        <time>2013-09-02T14:44:13Z</time>
      </trkpt>
      <trkpt lat="44.50276" lon="6.74135">
        <ele>1425.3</ele>
        <time>2013-09-02T14:44:14Z</time>
      </trkpt>
      <trkpt lat="44.5027" lon="6.74122">
        <ele>1424.8</ele>
        <time>2013-09-02T14:44:15Z</time>
      </trkpt>
      <trkpt lat="44.50264" lon="6.7411">
        <ele>1423.9</ele>
        <time>2013-09-02T14:44:16Z</time>
      </trkpt>
      <trkpt lat="44.50257" lon="6.74099">
        <ele>1423.4</ele>
        <time>2013-09-02T14:44:17Z</time>
      </trkpt>
      <trkpt lat="44.50249" lon="6.74089">
        <ele>1422.9</ele>
        <time>2013-09-02T14:44:18Z</time>
      </trkpt>
      <trkpt lat="44.50241" lon="6.7408">
        <ele>1422.9</ele>
        <time>2013-09-02T14:44:19Z</time>
      </trkpt>
      <trkpt lat="44.50233" lon="6.74073">
        <ele>1422.9</ele>
        <time>2013-09-02T14:44:20Z</time>
      </trkpt>
      <trkpt lat="44.50224" lon="6.74068">
        <ele>1422.9</ele>
        <time>2013-09-02T14:44:21Z</time>
      </trkpt>
      <trkpt lat="44.50215" lon="6.74064">
        <ele>1422.4</ele>
        <time>2013-09-02T14:44:22Z</time>
      </trkpt>
      <trkpt lat="44.50178" lon="6.74055">
        <ele>1421.5</ele>
        <time>2013-09-02T14:44:26Z</time>
      </trkpt>
      <trkpt lat="44.50069" lon="6.74042">
        <ele>1419</ele>
        <time>2013-09-02T14:44:39Z</time>
      </trkpt>
      <trkpt lat="44.49981" lon="6.73975">
        <ele>1416.2</ele>
        <time>2013-09-02T14:44:53Z</time>
      </trkpt>
      <trkpt lat="44.49937" lon="6.7394">
        <ele>1415.2</ele>
        <time>2013-09-02T14:45:00Z</time>
      </trkpt>
      <trkpt lat="44.4993" lon="6.73937">
        <ele>1415.7</ele>
        <time>2013-09-02T14:45:01Z</time>
      </trkpt>
      <trkpt lat="44.49825" lon="6.7392">
        <ele>1416.6</ele>
        <time>2013-09-02T14:45:16Z</time>
      </trkpt>
      <trkpt lat="44.49743" lon="6.73965">
        <ele>1415.7</ele>
        <time>2013-09-02T14:45:29Z</time>
      </trkpt>
      <trkpt lat="44.49643" lon="6.74044">
        <ele>1413.3</ele>
        <time>2013-09-02T14:45:45Z</time>
      </trkpt>
      <trkpt lat="44.49545" lon="6.74092">
        <ele>1410.9</ele>
        <time>2013-09-02T14:46:00Z</time>
      </trkpt>
      <trkpt lat="44.49407" lon="6.74134">
        <ele>1409</ele>
        <time>2013-09-02T14:46:21Z</time>
      </trkpt>
      <trkpt lat="44.494" lon="6.74137">
        <ele>1408.5</ele>
        <time>2013-09-02T14:46:22Z</time>
      </trkpt>
      <trkpt lat="44.49294" lon="6.74197">
        <ele>1405.1</ele>
        <time>2013-09-02T14:46:37Z</time>
      </trkpt>
      <trkpt lat="44.49278" lon="6.74203">
        <ele>1405.6</ele>
        <time>2013-09-02T14:46:39Z</time>
      </trkpt>
      <trkpt lat="44.49221" lon="6.74209">
        <ele>1401.7</ele>
        <time>2013-09-02T14:46:46Z</time>
      </trkpt>
      <trkpt lat="44.49187" lon="6.74208">
        <ele>1399.8</ele>
        <time>2013-09-02T14:46:50Z</time>
      </trkpt>
      <trkpt lat="44.49152" lon="6.7421">
        <ele>1398.9</ele>
        <time>2013-09-02T14:46:54Z</time>
      </trkpt>
      <trkpt lat="44.49143" lon="6.74213">
        <ele>1398.4</ele>
        <time>2013-09-02T14:46:55Z</time>
      </trkpt>
      <trkpt lat="44.49134" lon="6.74217">
        <ele>1398.4</ele>
        <time>2013-09-02T14:46:56Z</time>
      </trkpt>
      <trkpt lat="44.49125" lon="6.74222">
        <ele>1396.9</ele>
        <time>2013-09-02T14:46:57Z</time>
      </trkpt>
      <trkpt lat="44.49117" lon="6.74228">
        <ele>1396.5</ele>
        <time>2013-09-02T14:46:58Z</time>
      </trkpt>
      <trkpt lat="44.49109" lon="6.74235">
        <ele>1396.5</ele>
        <time>2013-09-02T14:46:59Z</time>
      </trkpt>
      <trkpt lat="44.49101" lon="6.74243">
        <ele>1395.5</ele>
        <time>2013-09-02T14:47:00Z</time>
      </trkpt>
      <trkpt lat="44.49094" lon="6.74251">
        <ele>1396</ele>
        <time>2013-09-02T14:47:01Z</time>
      </trkpt>
      <trkpt lat="44.49087" lon="6.7426">
        <ele>1395.5</ele>
        <time>2013-09-02T14:47:02Z</time>
      </trkpt>
      <trkpt lat="44.49071" lon="6.74278">
        <ele>1394.5</ele>
        <time>2013-09-02T14:47:04Z</time>
      </trkpt>
      <trkpt lat="44.49045" lon="6.74302">
        <ele>1393.1</ele>
        <time>2013-09-02T14:47:07Z</time>
      </trkpt>
      <trkpt lat="44.49035" lon="6.74308">
        <ele>1392.6</ele>
        <time>2013-09-02T14:47:08Z</time>
      </trkpt>
      <trkpt lat="44.49005" lon="6.7432">
        <ele>1391.2</ele>
        <time>2013-09-02T14:47:11Z</time>
      </trkpt>
      <trkpt lat="44.48937" lon="6.7435">
        <ele>1389.7</ele>
        <time>2013-09-02T14:47:18Z</time>
      </trkpt>
      <trkpt lat="44.48929" lon="6.74358">
        <ele>1388.8</ele>
        <time>2013-09-02T14:47:19Z</time>
      </trkpt>
      <trkpt lat="44.48922" lon="6.74368">
        <ele>1388.8</ele>
        <time>2013-09-02T14:47:20Z</time>
      </trkpt>
      <trkpt lat="44.48915" lon="6.74378">
        <ele>1388.3</ele>
        <time>2013-09-02T14:47:21Z</time>
      </trkpt>
      <trkpt lat="44.48909" lon="6.74389">
        <ele>1387.3</ele>
        <time>2013-09-02T14:47:22Z</time>
      </trkpt>
      <trkpt lat="44.48904" lon="6.74401">
        <ele>1386.8</ele>
        <time>2013-09-02T14:47:23Z</time>
      </trkpt>
      <trkpt lat="44.48861" lon="6.74481">
        <ele>1383.5</ele>
        <time>2013-09-02T14:47:30Z</time>
      </trkpt>
      <trkpt lat="44.48815" lon="6.74535">
        <ele>1381.6</ele>
        <time>2013-09-02T14:47:36Z</time>
      </trkpt>
      <trkpt lat="44.48723" lon="6.74595">
        <ele>1378.7</ele>
        <time>2013-09-02T14:47:47Z</time>
      </trkpt>
      <trkpt lat="44.487" lon="6.74615">
        <ele>1377.7</ele>
        <time>2013-09-02T14:47:50Z</time>
      </trkpt>
      <trkpt lat="44.48694" lon="6.74623">
        <ele>1377.7</ele>
        <time>2013-09-02T14:47:51Z</time>
      </trkpt>
      <trkpt lat="44.48609" lon="6.74743">
        <ele>1375.3</ele>
        <time>2013-09-02T14:48:06Z</time>
      </trkpt>
      <trkpt lat="44.48603" lon="6.74748">
        <ele>1375.8</ele>
        <time>2013-09-02T14:48:07Z</time>
      </trkpt>
      <trkpt lat="44.48597" lon="6.74752">
        <ele>1375.3</ele>
        <time>2013-09-02T14:48:08Z</time>
      </trkpt>
      <trkpt lat="44.4859" lon="6.74755">
        <ele>1375.3</ele>
        <time>2013-09-02T14:48:09Z</time>
      </trkpt>
      <trkpt lat="44.48584" lon="6.74757">
        <ele>1375.8</ele>
        <time>2013-09-02T14:48:10Z</time>
      </trkpt>
      <trkpt lat="44.48577" lon="6.74759">
        <ele>1375.8</ele>
        <time>2013-09-02T14:48:11Z</time>
      </trkpt>
      <trkpt lat="44.48494" lon="6.74803">
        <ele>1372.9</ele>
        <time>2013-09-02T14:48:23Z</time>
      </trkpt>
      <trkpt lat="44.48432" lon="6.74853">
        <ele>1371</ele>
        <time>2013-09-02T14:48:33Z</time>
      </trkpt>
      <trkpt lat="44.48415" lon="6.74871">
        <ele>1370.5</ele>
        <time>2013-09-02T14:48:36Z</time>
      </trkpt>
      <trkpt lat="44.48352" lon="6.74963">
        <ele>1368.6</ele>
        <time>2013-09-02T14:48:48Z</time>
      </trkpt>
      <trkpt lat="44.48315" lon="6.75004">
        <ele>1367.6</ele>
        <time>2013-09-02T14:48:54Z</time>
      </trkpt>
      <trkpt lat="44.48218" lon="6.75106">
        <ele>1364.3</ele>
        <time>2013-09-02T14:49:09Z</time>
      </trkpt>
      <trkpt lat="44.48211" lon="6.75113">
        <ele>1364.3</ele>
        <time>2013-09-02T14:49:10Z</time>
      </trkpt>
      <trkpt lat="44.48115" lon="6.75238">
        <ele>1360.9</ele>
        <time>2013-09-02T14:49:26Z</time>
      </trkpt>
      <trkpt lat="44.48058" lon="6.75338">
        <ele>1360.4</ele>
        <time>2013-09-02T14:49:37Z</time>
      </trkpt>
      <trkpt lat="44.48055" lon="6.75348">
        <ele>1359.9</ele>
        <time>2013-09-02T14:49:38Z</time>
      </trkpt>
      <trkpt lat="44.48053" lon="6.75358">
        <ele>1360.4</ele>
        <time>2013-09-02T14:49:39Z</time>
      </trkpt>
      <trkpt lat="44.48008" lon="6.75535">
        <ele>1359.4</ele>
        <time>2013-09-02T14:49:57Z</time>
      </trkpt>
      <trkpt lat="44.47941" lon="6.75643">
        <ele>1359</ele>
        <time>2013-09-02T14:50:12Z</time>
      </trkpt>
      <trkpt lat="44.47892" lon="6.75692">
        <ele>1356.1</ele>
        <time>2013-09-02T14:50:20Z</time>
      </trkpt>
      <trkpt lat="44.47867" lon="6.75717">
        <ele>1355.1</ele>
        <time>2013-09-02T14:50:24Z</time>
      </trkpt>
      <trkpt lat="44.47822" lon="6.75772">
        <ele>1351.8</ele>
        <time>2013-09-02T14:50:31Z</time>
      </trkpt>
      <trkpt lat="44.47809" lon="6.7579">
        <ele>1351.3</ele>
        <time>2013-09-02T14:50:33Z</time>
      </trkpt>
      <trkpt lat="44.47748" lon="6.75907">
        <ele>1347.4</ele>
        <time>2013-09-02T14:50:45Z</time>
      </trkpt>
      <trkpt lat="44.47675" lon="6.76046">
        <ele>1346.9</ele>
        <time>2013-09-02T14:51:01Z</time>
      </trkpt>
      <trkpt lat="44.47598" lon="6.76097">
        <ele>1346.5</ele>
        <time>2013-09-02T14:51:13Z</time>
      </trkpt>
      <trkpt lat="44.47529" lon="6.76135">
        <ele>1346.9</ele>
        <time>2013-09-02T14:51:24Z</time>
      </trkpt>
      <trkpt lat="44.47426" lon="6.76193">
        <ele>1346.5</ele>
        <time>2013-09-02T14:51:41Z</time>
      </trkpt>
      <trkpt lat="44.47333" lon="6.76247">
        <ele>1345.5</ele>
        <time>2013-09-02T14:51:56Z</time>
      </trkpt>
      <trkpt lat="44.47255" lon="6.76296">
        <ele>1346</ele>
        <time>2013-09-02T14:52:11Z</time>
      </trkpt>
      <trkpt lat="44.47255" lon="6.76296">
        <ele>1345</ele>
        <time>2013-09-02T14:52:20Z</time>
      </trkpt>
      <trkpt lat="44.47256" lon="6.76295">
        <ele>1345.5</ele>
        <time>2013-09-02T14:52:45Z</time>
      </trkpt>
      <trkpt lat="44.47257" lon="6.76297">
        <ele>1345</ele>
        <time>2013-09-02T14:53:17Z</time>
      </trkpt>
      <trkpt lat="44.47256" lon="6.76296">
        <ele>1345</ele>
        <time>2013-09-02T14:53:44Z</time>
      </trkpt>
      <trkpt lat="44.47253" lon="6.763">
        <ele>1344.1</ele>
        <time>2013-09-02T14:53:57Z</time>
      </trkpt>
      <trkpt lat="44.47252" lon="6.76301">
        <ele>1344.1</ele>
        <time>2013-09-02T14:53:58Z</time>
      </trkpt>
      <trkpt lat="44.47251" lon="6.76303">
        <ele>1345</ele>
        <time>2013-09-02T14:53:59Z</time>
      </trkpt>
      <trkpt lat="44.47223" lon="6.76319">
        <ele>1344.5</ele>
        <time>2013-09-02T14:54:10Z</time>
      </trkpt>
      <trkpt lat="44.47215" lon="6.76322">
        <ele>1344.5</ele>
        <time>2013-09-02T14:54:12Z</time>
      </trkpt>
      <trkpt lat="44.47156" lon="6.76362">
        <ele>1345.5</ele>
        <time>2013-09-02T14:54:27Z</time>
      </trkpt>
      <trkpt lat="44.47133" lon="6.76373">
        <ele>1344.1</ele>
        <time>2013-09-02T14:54:32Z</time>
      </trkpt>
      <trkpt lat="44.47128" lon="6.76374">
        <ele>1344.5</ele>
        <time>2013-09-02T14:54:33Z</time>
      </trkpt>
      <trkpt lat="44.47065" lon="6.76351">
        <ele>1343.1</ele>
        <time>2013-09-02T14:54:46Z</time>
      </trkpt>
      <trkpt lat="44.46979" lon="6.763">
        <ele>1341.2</ele>
        <time>2013-09-02T14:55:02Z</time>
      </trkpt>
      <trkpt lat="44.46891" lon="6.76253">
        <ele>1338.8</ele>
        <time>2013-09-02T14:55:17Z</time>
      </trkpt>
      <trkpt lat="44.46773" lon="6.76195">
        <ele>1335.4</ele>
        <time>2013-09-02T14:55:35Z</time>
      </trkpt>
      <trkpt lat="44.46734" lon="6.76167">
        <ele>1334.9</ele>
        <time>2013-09-02T14:55:41Z</time>
      </trkpt>
      <trkpt lat="44.46729" lon="6.76159">
        <ele>1334.9</ele>
        <time>2013-09-02T14:55:42Z</time>
      </trkpt>
      <trkpt lat="44.46724" lon="6.76151">
        <ele>1334.9</ele>
        <time>2013-09-02T14:55:43Z</time>
      </trkpt>
      <trkpt lat="44.46656" lon="6.76011">
        <ele>1331.6</ele>
        <time>2013-09-02T14:55:58Z</time>
      </trkpt>
      <trkpt lat="44.46575" lon="6.75864">
        <ele>1329.2</ele>
        <time>2013-09-02T14:56:14Z</time>
      </trkpt>
      <trkpt lat="44.465" lon="6.75704">
        <ele>1326.3</ele>
        <time>2013-09-02T14:56:31Z</time>
      </trkpt>
      <trkpt lat="44.46498" lon="6.75694">
        <ele>1326.8</ele>
        <time>2013-09-02T14:56:32Z</time>
      </trkpt>
      <trkpt lat="44.46494" lon="6.75649">
        <ele>1327.7</ele>
        <time>2013-09-02T14:56:37Z</time>
      </trkpt>
      <trkpt lat="44.4651" lon="6.75522">
        <ele>1326.8</ele>
        <time>2013-09-02T14:56:52Z</time>
      </trkpt>
      <trkpt lat="44.46529" lon="6.75371">
        <ele>1325.8</ele>
        <time>2013-09-02T14:57:08Z</time>
      </trkpt>
      <trkpt lat="44.46528" lon="6.75336">
        <ele>1324.8</ele>
        <time>2013-09-02T14:57:12Z</time>
      </trkpt>
      <trkpt lat="44.46527" lon="6.75328">
        <ele>1325.3</ele>
        <time>2013-09-02T14:57:13Z</time>
      </trkpt>
      <trkpt lat="44.46487" lon="6.75237">
        <ele>1324.8</ele>
        <time>2013-09-02T14:57:26Z</time>
      </trkpt>
      <trkpt lat="44.46408" lon="6.75129">
        <ele>1325.3</ele>
        <time>2013-09-02T14:57:45Z</time>
      </trkpt>
      <trkpt lat="44.46332" lon="6.75039">
        <ele>1325.8</ele>
        <time>2013-09-02T14:58:03Z</time>
      </trkpt>
      <trkpt lat="44.46327" lon="6.75036">
        <ele>1324.4</ele>
        <time>2013-09-02T14:58:04Z</time>
      </trkpt>
      <trkpt lat="44.46321" lon="6.75033">
        <ele>1325.3</ele>
        <time>2013-09-02T14:58:05Z</time>
      </trkpt>
      <trkpt lat="44.46234" lon="6.74993">
        <ele>1324.4</ele>
        <time>2013-09-02T14:58:20Z</time>
      </trkpt>
      <trkpt lat="44.46162" lon="6.74899">
        <ele>1323.9</ele>
        <time>2013-09-02T14:58:36Z</time>
      </trkpt>
      <trkpt lat="44.46092" lon="6.74789">
        <ele>1322.4</ele>
        <time>2013-09-02T14:58:52Z</time>
      </trkpt>
      <trkpt lat="44.46011" lon="6.74708">
        <ele>1319.6</ele>
        <time>2013-09-02T14:59:06Z</time>
      </trkpt>
      <trkpt lat="44.45939" lon="6.74675">
        <ele>1317.6</ele>
        <time>2013-09-02T14:59:18Z</time>
      </trkpt>
      <trkpt lat="44.45925" lon="6.74674">
        <ele>1316.7</ele>
        <time>2013-09-02T14:59:28Z</time>
      </trkpt>
      <trkpt lat="44.45925" lon="6.74675">
        <ele>1317.1</ele>
        <time>2013-09-02T14:59:58Z</time>
      </trkpt>
      <trkpt lat="44.45925" lon="6.74674">
        <ele>1316.2</ele>
        <time>2013-09-02T15:00:21Z</time>
      </trkpt>
      <trkpt lat="44.45923" lon="6.74675">
        <ele>1315.7</ele>
        <time>2013-09-02T15:00:40Z</time>
      </trkpt>
      <trkpt lat="44.45921" lon="6.74675">
        <ele>1316.7</ele>
        <time>2013-09-02T15:00:41Z</time>
      </trkpt>
      <trkpt lat="44.4592" lon="6.74674">
        <ele>1316.2</ele>
        <time>2013-09-02T15:00:42Z</time>
      </trkpt>
      <trkpt lat="44.45879" lon="6.74671">
        <ele>1315.7</ele>
        <time>2013-09-02T15:00:53Z</time>
      </trkpt>
      <trkpt lat="44.45864" lon="6.74669">
        <ele>1315.2</ele>
        <time>2013-09-02T15:00:56Z</time>
      </trkpt>
      <trkpt lat="44.45858" lon="6.74667">
        <ele>1314.7</ele>
        <time>2013-09-02T15:00:57Z</time>
      </trkpt>
      <trkpt lat="44.45853" lon="6.74665">
        <ele>1314.3</ele>
        <time>2013-09-02T15:00:58Z</time>
      </trkpt>
      <trkpt lat="44.45848" lon="6.74661">
        <ele>1314.7</ele>
        <time>2013-09-02T15:00:59Z</time>
      </trkpt>
      <trkpt lat="44.45843" lon="6.74657">
        <ele>1315.2</ele>
        <time>2013-09-02T15:01:00Z</time>
      </trkpt>
      <trkpt lat="44.45839" lon="6.74653">
        <ele>1314.3</ele>
        <time>2013-09-02T15:01:01Z</time>
      </trkpt>
      <trkpt lat="44.45835" lon="6.74648">
        <ele>1314.7</ele>
        <time>2013-09-02T15:01:02Z</time>
      </trkpt>
      <trkpt lat="44.45831" lon="6.74643">
        <ele>1314.7</ele>
        <time>2013-09-02T15:01:03Z</time>
      </trkpt>
      <trkpt lat="44.45825" lon="6.74631">
        <ele>1314.7</ele>
        <time>2013-09-02T15:01:05Z</time>
      </trkpt>
      <trkpt lat="44.45823" lon="6.74625">
        <ele>1314.7</ele>
        <time>2013-09-02T15:01:06Z</time>
      </trkpt>
      <trkpt lat="44.45822" lon="6.74618">
        <ele>1315.2</ele>
        <time>2013-09-02T15:01:07Z</time>
      </trkpt>
      <trkpt lat="44.45802" lon="6.74512">
        <ele>1317.1</ele>
        <time>2013-09-02T15:01:25Z</time>
      </trkpt>
      <trkpt lat="44.45781" lon="6.74479">
        <ele>1316.2</ele>
        <time>2013-09-02T15:01:31Z</time>
      </trkpt>
      <trkpt lat="44.45776" lon="6.74474">
        <ele>1316.2</ele>
        <time>2013-09-02T15:01:32Z</time>
      </trkpt>
      <trkpt lat="44.4577" lon="6.7447">
        <ele>1315.7</ele>
        <time>2013-09-02T15:01:33Z</time>
      </trkpt>
      <trkpt lat="44.45734" lon="6.74444">
        <ele>1314.7</ele>
        <time>2013-09-02T15:01:39Z</time>
      </trkpt>
      <trkpt lat="44.45729" lon="6.7444">
        <ele>1313.8</ele>
        <time>2013-09-02T15:01:40Z</time>
      </trkpt>
      <trkpt lat="44.45676" lon="6.74411">
        <ele>1310.4</ele>
        <time>2013-09-02T15:01:50Z</time>
      </trkpt>
      <trkpt lat="44.45593" lon="6.74407">
        <ele>1308.5</ele>
        <time>2013-09-02T15:02:00Z</time>
      </trkpt>
      <trkpt lat="44.45576" lon="6.74402">
        <ele>1307.5</ele>
        <time>2013-09-02T15:02:02Z</time>
      </trkpt>
      <trkpt lat="44.45568" lon="6.74397">
        <ele>1307.1</ele>
        <time>2013-09-02T15:02:03Z</time>
      </trkpt>
      <trkpt lat="44.45529" lon="6.74372">
        <ele>1306.1</ele>
        <time>2013-09-02T15:02:08Z</time>
      </trkpt>
      <trkpt lat="44.4552" lon="6.74369">
        <ele>1306.6</ele>
        <time>2013-09-02T15:02:09Z</time>
      </trkpt>
      <trkpt lat="44.45511" lon="6.74368">
        <ele>1306.6</ele>
        <time>2013-09-02T15:02:10Z</time>
      </trkpt>
      <trkpt lat="44.45385" lon="6.74367">
        <ele>1304.2</ele>
        <time>2013-09-02T15:02:24Z</time>
      </trkpt>
      <trkpt lat="44.45377" lon="6.7437">
        <ele>1303.2</ele>
        <time>2013-09-02T15:02:25Z</time>
      </trkpt>
      <trkpt lat="44.45368" lon="6.74375">
        <ele>1303.2</ele>
        <time>2013-09-02T15:02:26Z</time>
      </trkpt>
      <trkpt lat="44.45352" lon="6.74383">
        <ele>1302.7</ele>
        <time>2013-09-02T15:02:28Z</time>
      </trkpt>
      <trkpt lat="44.45343" lon="6.74385">
        <ele>1302.2</ele>
        <time>2013-09-02T15:02:29Z</time>
      </trkpt>
      <trkpt lat="44.45335" lon="6.74385">
        <ele>1301.3</ele>
        <time>2013-09-02T15:02:30Z</time>
      </trkpt>
      <trkpt lat="44.45326" lon="6.74384">
        <ele>1301.8</ele>
        <time>2013-09-02T15:02:31Z</time>
      </trkpt>
      <trkpt lat="44.45318" lon="6.74381">
        <ele>1302.2</ele>
        <time>2013-09-02T15:02:32Z</time>
      </trkpt>
      <trkpt lat="44.4531" lon="6.74376">
        <ele>1301.3</ele>
        <time>2013-09-02T15:02:33Z</time>
      </trkpt>
      <trkpt lat="44.45302" lon="6.7437">
        <ele>1301.8</ele>
        <time>2013-09-02T15:02:34Z</time>
      </trkpt>
      <trkpt lat="44.45295" lon="6.74363">
        <ele>1301.3</ele>
        <time>2013-09-02T15:02:35Z</time>
      </trkpt>
      <trkpt lat="44.45289" lon="6.74354">
        <ele>1300.8</ele>
        <time>2013-09-02T15:02:36Z</time>
      </trkpt>
      <trkpt lat="44.45284" lon="6.74344">
        <ele>1300.8</ele>
        <time>2013-09-02T15:02:37Z</time>
      </trkpt>
      <trkpt lat="44.45261" lon="6.74312">
        <ele>1299.8</ele>
        <time>2013-09-02T15:02:41Z</time>
      </trkpt>
      <trkpt lat="44.45254" lon="6.74307">
        <ele>1299.8</ele>
        <time>2013-09-02T15:02:42Z</time>
      </trkpt>
      <trkpt lat="44.45247" lon="6.74302">
        <ele>1301.3</ele>
        <time>2013-09-02T15:02:43Z</time>
      </trkpt>
      <trkpt lat="44.45137" lon="6.74229">
        <ele>1299.4</ele>
        <time>2013-09-02T15:02:58Z</time>
      </trkpt>
      <trkpt lat="44.45054" lon="6.74141">
        <ele>1298.4</ele>
        <time>2013-09-02T15:03:12Z</time>
      </trkpt>
      <trkpt lat="44.44981" lon="6.74069">
        <ele>1297.4</ele>
        <time>2013-09-02T15:03:24Z</time>
      </trkpt>
      <trkpt lat="44.44974" lon="6.74066">
        <ele>1297</ele>
        <time>2013-09-02T15:03:25Z</time>
      </trkpt>
      <trkpt lat="44.44966" lon="6.74064">
        <ele>1296.5</ele>
        <time>2013-09-02T15:03:26Z</time>
      </trkpt>
      <trkpt lat="44.44936" lon="6.74058">
        <ele>1295.5</ele>
        <time>2013-09-02T15:03:30Z</time>
      </trkpt>
      <trkpt lat="44.4482" lon="6.74027">
        <ele>1296</ele>
        <time>2013-09-02T15:03:47Z</time>
      </trkpt>
      <trkpt lat="44.44736" lon="6.74028">
        <ele>1295</ele>
        <time>2013-09-02T15:04:00Z</time>
      </trkpt>
      <trkpt lat="44.4473" lon="6.74032">
        <ele>1294.6</ele>
        <time>2013-09-02T15:04:01Z</time>
      </trkpt>
      <trkpt lat="44.44649" lon="6.74108">
        <ele>1293.6</ele>
        <time>2013-09-02T15:04:16Z</time>
      </trkpt>
      <trkpt lat="44.44571" lon="6.74188">
        <ele>1292.6</ele>
        <time>2013-09-02T15:04:31Z</time>
      </trkpt>
      <trkpt lat="44.44478" lon="6.74252">
        <ele>1291.2</ele>
        <time>2013-09-02T15:04:46Z</time>
      </trkpt>
      <trkpt lat="44.44427" lon="6.74265">
        <ele>1290.2</ele>
        <time>2013-09-02T15:04:54Z</time>
      </trkpt>
      <trkpt lat="44.44396" lon="6.74259">
        <ele>1288.8</ele>
        <time>2013-09-02T15:04:59Z</time>
      </trkpt>
      <trkpt lat="44.44306" lon="6.74216">
        <ele>1288.3</ele>
        <time>2013-09-02T15:05:13Z</time>
      </trkpt>
      <trkpt lat="44.44201" lon="6.74202">
        <ele>1286.4</ele>
        <time>2013-09-02T15:05:28Z</time>
      </trkpt>
      <trkpt lat="44.44165" lon="6.74196">
        <ele>1285.4</ele>
        <time>2013-09-02T15:05:33Z</time>
      </trkpt>
      <trkpt lat="44.44158" lon="6.74197">
        <ele>1285.4</ele>
        <time>2013-09-02T15:05:34Z</time>
      </trkpt>
      <trkpt lat="44.44151" lon="6.74198">
        <ele>1285.9</ele>
        <time>2013-09-02T15:05:35Z</time>
      </trkpt>
      <trkpt lat="44.44144" lon="6.74201">
        <ele>1285.9</ele>
        <time>2013-09-02T15:05:36Z</time>
      </trkpt>
      <trkpt lat="44.44138" lon="6.74204">
        <ele>1285.9</ele>
        <time>2013-09-02T15:05:37Z</time>
      </trkpt>
      <trkpt lat="44.44131" lon="6.74209">
        <ele>1285.9</ele>
        <time>2013-09-02T15:05:38Z</time>
      </trkpt>
      <trkpt lat="44.44125" lon="6.74214">
        <ele>1285.9</ele>
        <time>2013-09-02T15:05:39Z</time>
      </trkpt>
      <trkpt lat="44.44119" lon="6.7422">
        <ele>1286.4</ele>
        <time>2013-09-02T15:05:40Z</time>
      </trkpt>
      <trkpt lat="44.44073" lon="6.74267">
        <ele>1284.9</ele>
        <time>2013-09-02T15:05:48Z</time>
      </trkpt>
      <trkpt lat="44.44066" lon="6.74271">
        <ele>1284.9</ele>
        <time>2013-09-02T15:05:49Z</time>
      </trkpt>
      <trkpt lat="44.4406" lon="6.74275">
        <ele>1285.4</ele>
        <time>2013-09-02T15:05:50Z</time>
      </trkpt>
      <trkpt lat="44.44053" lon="6.74277">
        <ele>1284</ele>
        <time>2013-09-02T15:05:51Z</time>
      </trkpt>
      <trkpt lat="44.44046" lon="6.74278">
        <ele>1284.9</ele>
        <time>2013-09-02T15:05:52Z</time>
      </trkpt>
      <trkpt lat="44.44039" lon="6.74279">
        <ele>1284.9</ele>
        <time>2013-09-02T15:05:53Z</time>
      </trkpt>
      <trkpt lat="44.44032" lon="6.74279">
        <ele>1284.5</ele>
        <time>2013-09-02T15:05:54Z</time>
      </trkpt>
      <trkpt lat="44.43992" lon="6.74277">
        <ele>1283.5</ele>
        <time>2013-09-02T15:06:00Z</time>
      </trkpt>
      <trkpt lat="44.43985" lon="6.74279">
        <ele>1284</ele>
        <time>2013-09-02T15:06:01Z</time>
      </trkpt>
      <trkpt lat="44.43979" lon="6.74283">
        <ele>1283.5</ele>
        <time>2013-09-02T15:06:02Z</time>
      </trkpt>
      <trkpt lat="44.43972" lon="6.74288">
        <ele>1283.5</ele>
        <time>2013-09-02T15:06:03Z</time>
      </trkpt>
      <trkpt lat="44.43967" lon="6.74294">
        <ele>1283.5</ele>
        <time>2013-09-02T15:06:04Z</time>
      </trkpt>
      <trkpt lat="44.43961" lon="6.743">
        <ele>1283.5</ele>
        <time>2013-09-02T15:06:05Z</time>
      </trkpt>
      <trkpt lat="44.43956" lon="6.74307">
        <ele>1284</ele>
        <time>2013-09-02T15:06:06Z</time>
      </trkpt>
      <trkpt lat="44.43952" lon="6.74315">
        <ele>1283.5</ele>
        <time>2013-09-02T15:06:07Z</time>
      </trkpt>
      <trkpt lat="44.43925" lon="6.7436">
        <ele>1282.5</ele>
        <time>2013-09-02T15:06:13Z</time>
      </trkpt>
      <trkpt lat="44.4392" lon="6.74367">
        <ele>1282.5</ele>
        <time>2013-09-02T15:06:14Z</time>
      </trkpt>
      <trkpt lat="44.43875" lon="6.74395">
        <ele>1282.1</ele>
        <time>2013-09-02T15:06:21Z</time>
      </trkpt>
      <trkpt lat="44.43867" lon="6.74396">
        <ele>1282.5</ele>
        <time>2013-09-02T15:06:22Z</time>
      </trkpt>
      <trkpt lat="44.4386" lon="6.74396">
        <ele>1283</ele>
        <time>2013-09-02T15:06:23Z</time>
      </trkpt>
      <trkpt lat="44.43853" lon="6.74394">
        <ele>1282.5</ele>
        <time>2013-09-02T15:06:24Z</time>
      </trkpt>
      <trkpt lat="44.43846" lon="6.74392">
        <ele>1282.1</ele>
        <time>2013-09-02T15:06:25Z</time>
      </trkpt>
      <trkpt lat="44.43811" lon="6.74386">
        <ele>1281.1</ele>
        <time>2013-09-02T15:06:30Z</time>
      </trkpt>
      <trkpt lat="44.43804" lon="6.74387">
        <ele>1281.1</ele>
        <time>2013-09-02T15:06:31Z</time>
      </trkpt>
      <trkpt lat="44.43798" lon="6.7439">
        <ele>1281.6</ele>
        <time>2013-09-02T15:06:32Z</time>
      </trkpt>
      <trkpt lat="44.43765" lon="6.74408">
        <ele>1280.6</ele>
        <time>2013-09-02T15:06:37Z</time>
      </trkpt>
      <trkpt lat="44.43757" lon="6.7441">
        <ele>1280.6</ele>
        <time>2013-09-02T15:06:38Z</time>
      </trkpt>
      <trkpt lat="44.4375" lon="6.74411">
        <ele>1280.1</ele>
        <time>2013-09-02T15:06:39Z</time>
      </trkpt>
      <trkpt lat="44.43743" lon="6.74411">
        <ele>1279.7</ele>
        <time>2013-09-02T15:06:40Z</time>
      </trkpt>
      <trkpt lat="44.43735" lon="6.7441">
        <ele>1279.7</ele>
        <time>2013-09-02T15:06:41Z</time>
      </trkpt>
      <trkpt lat="44.43728" lon="6.74407">
        <ele>1279.2</ele>
        <time>2013-09-02T15:06:42Z</time>
      </trkpt>
      <trkpt lat="44.43721" lon="6.74404">
        <ele>1279.7</ele>
        <time>2013-09-02T15:06:43Z</time>
      </trkpt>
      <trkpt lat="44.43627" lon="6.74369">
        <ele>1278.7</ele>
        <time>2013-09-02T15:06:57Z</time>
      </trkpt>
      <trkpt lat="44.4362" lon="6.74368">
        <ele>1278.7</ele>
        <time>2013-09-02T15:06:58Z</time>
      </trkpt>
      <trkpt lat="44.43613" lon="6.74369">
        <ele>1278.7</ele>
        <time>2013-09-02T15:06:59Z</time>
      </trkpt>
      <trkpt lat="44.43607" lon="6.74371">
        <ele>1279.2</ele>
        <time>2013-09-02T15:07:00Z</time>
      </trkpt>
      <trkpt lat="44.436" lon="6.74374">
        <ele>1278.7</ele>
        <time>2013-09-02T15:07:01Z</time>
      </trkpt>
      <trkpt lat="44.43594" lon="6.74378">
        <ele>1278.7</ele>
        <time>2013-09-02T15:07:02Z</time>
      </trkpt>
      <trkpt lat="44.43588" lon="6.74382">
        <ele>1279.2</ele>
        <time>2013-09-02T15:07:03Z</time>
      </trkpt>
      <trkpt lat="44.43565" lon="6.74401">
        <ele>1277.7</ele>
        <time>2013-09-02T15:07:07Z</time>
      </trkpt>
      <trkpt lat="44.43558" lon="6.74405">
        <ele>1277.7</ele>
        <time>2013-09-02T15:07:08Z</time>
      </trkpt>
      <trkpt lat="44.43543" lon="6.74409">
        <ele>1277.3</ele>
        <time>2013-09-02T15:07:10Z</time>
      </trkpt>
      <trkpt lat="44.43536" lon="6.74409">
        <ele>1277.3</ele>
        <time>2013-09-02T15:07:11Z</time>
      </trkpt>
      <trkpt lat="44.43459" lon="6.74398">
        <ele>1275.3</ele>
        <time>2013-09-02T15:07:21Z</time>
      </trkpt>
      <trkpt lat="44.43452" lon="6.74395">
        <ele>1275.3</ele>
        <time>2013-09-02T15:07:22Z</time>
      </trkpt>
      <trkpt lat="44.43444" lon="6.7439">
        <ele>1274.9</ele>
        <time>2013-09-02T15:07:23Z</time>
      </trkpt>
      <trkpt lat="44.43438" lon="6.74383">
        <ele>1274.9</ele>
        <time>2013-09-02T15:07:24Z</time>
      </trkpt>
      <trkpt lat="44.43433" lon="6.74374">
        <ele>1273.4</ele>
        <time>2013-09-02T15:07:25Z</time>
      </trkpt>
      <trkpt lat="44.43428" lon="6.74364">
        <ele>1272.9</ele>
        <time>2013-09-02T15:07:26Z</time>
      </trkpt>
      <trkpt lat="44.43425" lon="6.74352">
        <ele>1272.4</ele>
        <time>2013-09-02T15:07:27Z</time>
      </trkpt>
      <trkpt lat="44.43422" lon="6.74341">
        <ele>1271.5</ele>
        <time>2013-09-02T15:07:28Z</time>
      </trkpt>
      <trkpt lat="44.43402" lon="6.74269">
        <ele>1270</ele>
        <time>2013-09-02T15:07:34Z</time>
      </trkpt>
      <trkpt lat="44.43355" lon="6.74118">
        <ele>1269.1</ele>
        <time>2013-09-02T15:07:49Z</time>
      </trkpt>
      <trkpt lat="44.43344" lon="6.74104">
        <ele>1268.6</ele>
        <time>2013-09-02T15:07:51Z</time>
      </trkpt>
      <trkpt lat="44.43339" lon="6.74098">
        <ele>1268.6</ele>
        <time>2013-09-02T15:07:52Z</time>
      </trkpt>
      <trkpt lat="44.43275" lon="6.74045">
        <ele>1267.6</ele>
        <time>2013-09-02T15:08:03Z</time>
      </trkpt>
      <trkpt lat="44.43217" lon="6.73949">
        <ele>1264.8</ele>
        <time>2013-09-02T15:08:16Z</time>
      </trkpt>
      <trkpt lat="44.43201" lon="6.73919">
        <ele>1263.3</ele>
        <time>2013-09-02T15:08:20Z</time>
      </trkpt>
      <trkpt lat="44.4319" lon="6.73896">
        <ele>1262.8</ele>
        <time>2013-09-02T15:08:23Z</time>
      </trkpt>
      <trkpt lat="44.43185" lon="6.73889">
        <ele>1262.8</ele>
        <time>2013-09-02T15:08:24Z</time>
      </trkpt>
      <trkpt lat="44.4318" lon="6.73883">
        <ele>1262.4</ele>
        <time>2013-09-02T15:08:25Z</time>
      </trkpt>
      <trkpt lat="44.43174" lon="6.73877">
        <ele>1262.4</ele>
        <time>2013-09-02T15:08:26Z</time>
      </trkpt>
      <trkpt lat="44.43168" lon="6.73872">
        <ele>1262.8</ele>
        <time>2013-09-02T15:08:27Z</time>
      </trkpt>
      <trkpt lat="44.43162" lon="6.73868">
        <ele>1263.3</ele>
        <time>2013-09-02T15:08:28Z</time>
      </trkpt>
      <trkpt lat="44.43156" lon="6.73864">
        <ele>1262.4</ele>
        <time>2013-09-02T15:08:29Z</time>
      </trkpt>
      <trkpt lat="44.43149" lon="6.73862">
        <ele>1262.4</ele>
        <time>2013-09-02T15:08:30Z</time>
      </trkpt>
      <trkpt lat="44.43142" lon="6.7386">
        <ele>1261.9</ele>
        <time>2013-09-02T15:08:31Z</time>
      </trkpt>
      <trkpt lat="44.4311" lon="6.7385">
        <ele>1262.4</ele>
        <time>2013-09-02T15:08:36Z</time>
      </trkpt>
      <trkpt lat="44.43104" lon="6.73846">
        <ele>1262.4</ele>
        <time>2013-09-02T15:08:37Z</time>
      </trkpt>
      <trkpt lat="44.43098" lon="6.73841">
        <ele>1261.9</ele>
        <time>2013-09-02T15:08:38Z</time>
      </trkpt>
      <trkpt lat="44.43076" lon="6.73816">
        <ele>1261.4</ele>
        <time>2013-09-02T15:08:42Z</time>
      </trkpt>
      <trkpt lat="44.43071" lon="6.73808">
        <ele>1261.9</ele>
        <time>2013-09-02T15:08:43Z</time>
      </trkpt>
      <trkpt lat="44.43067" lon="6.738">
        <ele>1261.9</ele>
        <time>2013-09-02T15:08:44Z</time>
      </trkpt>
      <trkpt lat="44.42989" lon="6.73674">
        <ele>1260.4</ele>
        <time>2013-09-02T15:09:02Z</time>
      </trkpt>
      <trkpt lat="44.42915" lon="6.73632">
        <ele>1260.4</ele>
        <time>2013-09-02T15:09:15Z</time>
      </trkpt>
      <trkpt lat="44.42831" lon="6.73646">
        <ele>1259.9</ele>
        <time>2013-09-02T15:09:29Z</time>
      </trkpt>
      <trkpt lat="44.42758" lon="6.73681">
        <ele>1258.5</ele>
        <time>2013-09-02T15:09:43Z</time>
      </trkpt>
      <trkpt lat="44.42656" lon="6.73698">
        <ele>1256.6</ele>
        <time>2013-09-02T15:10:01Z</time>
      </trkpt>
      <trkpt lat="44.42553" lon="6.73704">
        <ele>1255.6</ele>
        <time>2013-09-02T15:10:18Z</time>
      </trkpt>
      <trkpt lat="44.42447" lon="6.7371">
        <ele>1254.2</ele>
        <time>2013-09-02T15:10:35Z</time>
      </trkpt>
      <trkpt lat="44.42364" lon="6.73717">
        <ele>1253.2</ele>
        <time>2013-09-02T15:10:48Z</time>
      </trkpt>
      <trkpt lat="44.42337" lon="6.73713">
        <ele>1252.3</ele>
        <time>2013-09-02T15:10:56Z</time>
      </trkpt>
      <trkpt lat="44.42338" lon="6.73713">
        <ele>1251.3</ele>
        <time>2013-09-02T15:11:13Z</time>
      </trkpt>
      <trkpt lat="44.42342" lon="6.73714">
        <ele>1250.3</ele>
        <time>2013-09-02T15:11:41Z</time>
      </trkpt>
      <trkpt lat="44.4234" lon="6.73714">
        <ele>1250.8</ele>
        <time>2013-09-02T15:12:11Z</time>
      </trkpt>
      <trkpt lat="44.42343" lon="6.73713">
        <ele>1250.8</ele>
        <time>2013-09-02T15:12:38Z</time>
      </trkpt>
      <trkpt lat="44.42343" lon="6.73716">
        <ele>1249.9</ele>
        <time>2013-09-02T15:13:03Z</time>
      </trkpt>
      <trkpt lat="44.42337" lon="6.73716">
        <ele>1251.3</ele>
        <time>2013-09-02T15:13:15Z</time>
      </trkpt>
      <trkpt lat="44.42336" lon="6.73716">
        <ele>1250.8</ele>
        <time>2013-09-02T15:13:16Z</time>
      </trkpt>
      <trkpt lat="44.42334" lon="6.73717">
        <ele>1250.8</ele>
        <time>2013-09-02T15:13:17Z</time>
      </trkpt>
      <trkpt lat="44.42332" lon="6.73717">
        <ele>1250.3</ele>
        <time>2013-09-02T15:13:18Z</time>
      </trkpt>
      <trkpt lat="44.42329" lon="6.73718">
        <ele>1250.3</ele>
        <time>2013-09-02T15:13:19Z</time>
      </trkpt>
      <trkpt lat="44.42326" lon="6.73718">
        <ele>1250.3</ele>
        <time>2013-09-02T15:13:20Z</time>
      </trkpt>
      <trkpt lat="44.42304" lon="6.73718">
        <ele>1248.9</ele>
        <time>2013-09-02T15:13:26Z</time>
      </trkpt>
      <trkpt lat="44.42231" lon="6.73721">
        <ele>1246.5</ele>
        <time>2013-09-02T15:13:39Z</time>
      </trkpt>
      <trkpt lat="44.42118" lon="6.7369">
        <ele>1245</ele>
        <time>2013-09-02T15:13:58Z</time>
      </trkpt>
      <trkpt lat="44.42047" lon="6.73654">
        <ele>1242.6</ele>
        <time>2013-09-02T15:14:13Z</time>
      </trkpt>
      <trkpt lat="44.42019" lon="6.73625">
        <ele>1242.2</ele>
        <time>2013-09-02T15:14:22Z</time>
      </trkpt>
      <trkpt lat="44.42017" lon="6.73625">
        <ele>1242.6</ele>
        <time>2013-09-02T15:14:23Z</time>
      </trkpt>
      <trkpt lat="44.42015" lon="6.73626">
        <ele>1241.7</ele>
        <time>2013-09-02T15:14:24Z</time>
      </trkpt>
      <trkpt lat="44.42015" lon="6.73629">
        <ele>1241.7</ele>
        <time>2013-09-02T15:14:25Z</time>
      </trkpt>
      <trkpt lat="44.42014" lon="6.73631">
        <ele>1241.7</ele>
        <time>2013-09-02T15:14:26Z</time>
      </trkpt>
      <trkpt lat="44.42014" lon="6.73633">
        <ele>1241.7</ele>
        <time>2013-09-02T15:14:27Z</time>
      </trkpt>
      <trkpt lat="44.42014" lon="6.73635">
        <ele>1241.7</ele>
        <time>2013-09-02T15:14:28Z</time>
      </trkpt>
      <trkpt lat="44.42014" lon="6.73637">
        <ele>1241.7</ele>
        <time>2013-09-02T15:14:29Z</time>
      </trkpt>
      <trkpt lat="44.42015" lon="6.73638">
        <ele>1241.7</ele>
        <time>2013-09-02T15:14:30Z</time>
      </trkpt>
      <trkpt lat="44.42017" lon="6.73639">
        <ele>1241.7</ele>
        <time>2013-09-02T15:14:31Z</time>
      </trkpt>
      <trkpt lat="44.42019" lon="6.7364">
        <ele>1241.7</ele>
        <time>2013-09-02T15:14:32Z</time>
      </trkpt>
      <trkpt lat="44.42021" lon="6.73641">
        <ele>1241.7</ele>
        <time>2013-09-02T15:14:33Z</time>
      </trkpt>
      <trkpt lat="44.42022" lon="6.73643">
        <ele>1241.7</ele>
        <time>2013-09-02T15:14:34Z</time>
      </trkpt>
      <trkpt lat="44.42022" lon="6.73646">
        <ele>1242.2</ele>
        <time>2013-09-02T15:14:35Z</time>
      </trkpt>
      <trkpt lat="44.42021" lon="6.73649">
        <ele>1242.2</ele>
        <time>2013-09-02T15:14:36Z</time>
      </trkpt>
      <trkpt lat="44.4202" lon="6.73652">
        <ele>1242.2</ele>
        <time>2013-09-02T15:14:37Z</time>
      </trkpt>
      <trkpt lat="44.42004" lon="6.73688">
        <ele>1242.6</ele>
        <time>2013-09-02T15:14:50Z</time>
      </trkpt>
      <trkpt lat="44.41994" lon="6.7369">
        <ele>1242.2</ele>
        <time>2013-09-02T15:14:56Z</time>
      </trkpt>
      <trkpt lat="44.41993" lon="6.73693">
        <ele>1237.4</ele>
        <time>2013-09-02T15:15:05Z</time>
      </trkpt>
      <trkpt lat="44.41993" lon="6.73694">
        <ele>1240.7</ele>
        <time>2013-09-02T15:15:06Z</time>
      </trkpt>
      <trkpt lat="44.41984" lon="6.73472">
        <ele>1191.2</ele>
        <time>2013-09-03T07:00:25Z</time>
      </trkpt>
      <trkpt lat="44.41941" lon="6.73369">
        <ele>1191.2</ele>
        <time>2013-09-03T07:00:40Z</time>
      </trkpt>
      <trkpt lat="44.41928" lon="6.7335">
        <ele>1190.7</ele>
        <time>2013-09-03T07:00:43Z</time>
      </trkpt>
      <trkpt lat="44.41924" lon="6.73346">
        <ele>1190.7</ele>
        <time>2013-09-03T07:00:44Z</time>
      </trkpt>
      <trkpt lat="44.41919" lon="6.73342">
        <ele>1190.7</ele>
        <time>2013-09-03T07:00:45Z</time>
      </trkpt>
      <trkpt lat="44.41886" lon="6.73319">
        <ele>1190.3</ele>
        <time>2013-09-03T07:00:52Z</time>
      </trkpt>
      <trkpt lat="44.41882" lon="6.73313">
        <ele>1190.3</ele>
        <time>2013-09-03T07:00:53Z</time>
      </trkpt>
      <trkpt lat="44.41877" lon="6.73307">
        <ele>1189.8</ele>
        <time>2013-09-03T07:00:54Z</time>
      </trkpt>
      <trkpt lat="44.41874" lon="6.733">
        <ele>1189.8</ele>
        <time>2013-09-03T07:00:55Z</time>
      </trkpt>
      <trkpt lat="44.41871" lon="6.73292">
        <ele>1190.3</ele>
        <time>2013-09-03T07:00:56Z</time>
      </trkpt>
      <trkpt lat="44.41847" lon="6.73187">
        <ele>1190.7</ele>
        <time>2013-09-03T07:01:09Z</time>
      </trkpt>
      <trkpt lat="44.41843" lon="6.73171">
        <ele>1192.2</ele>
        <time>2013-09-03T07:01:11Z</time>
      </trkpt>
      <trkpt lat="44.41838" lon="6.73147">
        <ele>1195.5</ele>
        <time>2013-09-03T07:01:14Z</time>
      </trkpt>
      <trkpt lat="44.41828" lon="6.73115">
        <ele>1197.9</ele>
        <time>2013-09-03T07:01:18Z</time>
      </trkpt>
      <trkpt lat="44.41812" lon="6.73081">
        <ele>1201.3</ele>
        <time>2013-09-03T07:01:23Z</time>
      </trkpt>
      <trkpt lat="44.41796" lon="6.73062">
        <ele>1203.2</ele>
        <time>2013-09-03T07:01:27Z</time>
      </trkpt>
      <trkpt lat="44.41766" lon="6.73017">
        <ele>1204.2</ele>
        <time>2013-09-03T07:01:34Z</time>
      </trkpt>
      <trkpt lat="44.41753" lon="6.72999">
        <ele>1205.6</ele>
        <time>2013-09-03T07:01:37Z</time>
      </trkpt>
      <trkpt lat="44.41726" lon="6.72958">
        <ele>1209</ele>
        <time>2013-09-03T07:01:44Z</time>
      </trkpt>
      <trkpt lat="44.41686" lon="6.72899">
        <ele>1212.4</ele>
        <time>2013-09-03T07:01:54Z</time>
      </trkpt>
      <trkpt lat="44.41632" lon="6.7285">
        <ele>1215.7</ele>
        <time>2013-09-03T07:02:05Z</time>
      </trkpt>
      <trkpt lat="44.41543" lon="6.72822">
        <ele>1218.1</ele>
        <time>2013-09-03T07:02:20Z</time>
      </trkpt>
      <trkpt lat="44.4148" lon="6.72828">
        <ele>1220.5</ele>
        <time>2013-09-03T07:02:31Z</time>
      </trkpt>
      <trkpt lat="44.41452" lon="6.72839">
        <ele>1220.5</ele>
        <time>2013-09-03T07:02:36Z</time>
      </trkpt>
      <trkpt lat="44.41377" lon="6.72874">
        <ele>1222.9</ele>
        <time>2013-09-03T07:02:50Z</time>
      </trkpt>
      <trkpt lat="44.4129" lon="6.72902">
        <ele>1225.8</ele>
        <time>2013-09-03T07:03:04Z</time>
      </trkpt>
      <trkpt lat="44.41204" lon="6.72886">
        <ele>1227.7</ele>
        <time>2013-09-03T07:03:18Z</time>
      </trkpt>
      <trkpt lat="44.41135" lon="6.72866">
        <ele>1229.7</ele>
        <time>2013-09-03T07:03:30Z</time>
      </trkpt>
      <trkpt lat="44.41048" lon="6.72818">
        <ele>1231.1</ele>
        <time>2013-09-03T07:03:47Z</time>
      </trkpt>
      <trkpt lat="44.40965" lon="6.72719">
        <ele>1232.1</ele>
        <time>2013-09-03T07:04:07Z</time>
      </trkpt>
      <trkpt lat="44.40895" lon="6.726">
        <ele>1231.1</ele>
        <time>2013-09-03T07:04:25Z</time>
      </trkpt>
      <trkpt lat="44.40815" lon="6.72429">
        <ele>1229.7</ele>
        <time>2013-09-03T07:04:48Z</time>
      </trkpt>
      <trkpt lat="44.4074" lon="6.72266">
        <ele>1228.7</ele>
        <time>2013-09-03T07:05:08Z</time>
      </trkpt>
      <trkpt lat="44.4068" lon="6.72096">
        <ele>1227.7</ele>
        <time>2013-09-03T07:05:28Z</time>
      </trkpt>
      <trkpt lat="44.40625" lon="6.71916">
        <ele>1224.4</ele>
        <time>2013-09-03T07:05:47Z</time>
      </trkpt>
      <trkpt lat="44.40582" lon="6.71751">
        <ele>1221</ele>
        <time>2013-09-03T07:06:03Z</time>
      </trkpt>
      <trkpt lat="44.40569" lon="6.71669">
        <ele>1215.7</ele>
        <time>2013-09-03T07:06:10Z</time>
      </trkpt>
      <trkpt lat="44.40567" lon="6.71657">
        <ele>1220.5</ele>
        <time>2013-09-03T07:06:11Z</time>
      </trkpt>
      <trkpt lat="44.40562" lon="6.71622">
        <ele>1213.8</ele>
        <time>2013-09-03T07:06:14Z</time>
      </trkpt>
      <trkpt lat="44.4056" lon="6.71611">
        <ele>1221.5</ele>
        <time>2013-09-03T07:06:15Z</time>
      </trkpt>
      <trkpt lat="44.40558" lon="6.71599">
        <ele>1217.7</ele>
        <time>2013-09-03T07:06:16Z</time>
      </trkpt>
      <trkpt lat="44.40554" lon="6.71575">
        <ele>1217.2</ele>
        <time>2013-09-03T07:06:18Z</time>
      </trkpt>
      <trkpt lat="44.40536" lon="6.71455">
        <ele>1213.3</ele>
        <time>2013-09-03T07:06:28Z</time>
      </trkpt>
      <trkpt lat="44.40528" lon="6.71407">
        <ele>1213.3</ele>
        <time>2013-09-03T07:06:32Z</time>
      </trkpt>
      <trkpt lat="44.40504" lon="6.71255">
        <ele>1210</ele>
        <time>2013-09-03T07:06:44Z</time>
      </trkpt>
      <trkpt lat="44.40486" lon="6.71099">
        <ele>1206.6</ele>
        <time>2013-09-03T07:06:56Z</time>
      </trkpt>
      <trkpt lat="44.40486" lon="6.70944">
        <ele>1203.2</ele>
        <time>2013-09-03T07:07:08Z</time>
      </trkpt>
      <trkpt lat="44.40485" lon="6.7078">
        <ele>1199.9</ele>
        <time>2013-09-03T07:07:21Z</time>
      </trkpt>
      <trkpt lat="44.40484" lon="6.70592">
        <ele>1198.9</ele>
        <time>2013-09-03T07:07:38Z</time>
      </trkpt>
      <trkpt lat="44.40459" lon="6.70468">
        <ele>1197.9</ele>
        <time>2013-09-03T07:07:51Z</time>
      </trkpt>
      <trkpt lat="44.40419" lon="6.70317">
        <ele>1198.9</ele>
        <time>2013-09-03T07:08:09Z</time>
      </trkpt>
      <trkpt lat="44.4038" lon="6.70214">
        <ele>1200.3</ele>
        <time>2013-09-03T07:08:24Z</time>
      </trkpt>
      <trkpt lat="44.40375" lon="6.70209">
        <ele>1200.3</ele>
        <time>2013-09-03T07:08:25Z</time>
      </trkpt>
      <trkpt lat="44.40365" lon="6.702">
        <ele>1200.3</ele>
        <time>2013-09-03T07:08:27Z</time>
      </trkpt>
      <trkpt lat="44.4036" lon="6.70196">
        <ele>1200.8</ele>
        <time>2013-09-03T07:08:28Z</time>
      </trkpt>
      <trkpt lat="44.40269" lon="6.70158">
        <ele>1201.3</ele>
        <time>2013-09-03T07:08:44Z</time>
      </trkpt>
      <trkpt lat="44.40236" lon="6.70145">
        <ele>1201.3</ele>
        <time>2013-09-03T07:08:50Z</time>
      </trkpt>
      <trkpt lat="44.40231" lon="6.70142">
        <ele>1201.8</ele>
        <time>2013-09-03T07:08:51Z</time>
      </trkpt>
      <trkpt lat="44.40226" lon="6.70139">
        <ele>1201.8</ele>
        <time>2013-09-03T07:08:52Z</time>
      </trkpt>
      <trkpt lat="44.40211" lon="6.70126">
        <ele>1201.8</ele>
        <time>2013-09-03T07:08:55Z</time>
      </trkpt>
      <trkpt lat="44.4019" lon="6.70097">
        <ele>1201.8</ele>
        <time>2013-09-03T07:09:00Z</time>
      </trkpt>
      <trkpt lat="44.40186" lon="6.70091">
        <ele>1201.3</ele>
        <time>2013-09-03T07:09:01Z</time>
      </trkpt>
      <trkpt lat="44.40129" lon="6.6993">
        <ele>1200.3</ele>
        <time>2013-09-03T07:09:20Z</time>
      </trkpt>
      <trkpt lat="44.40068" lon="6.69757">
        <ele>1197.9</ele>
        <time>2013-09-03T07:09:39Z</time>
      </trkpt>
      <trkpt lat="44.40005" lon="6.69574">
        <ele>1196</ele>
        <time>2013-09-03T07:10:00Z</time>
      </trkpt>
      <trkpt lat="44.39936" lon="6.69409">
        <ele>1195.5</ele>
        <time>2013-09-03T07:10:20Z</time>
      </trkpt>
      <trkpt lat="44.39846" lon="6.69332">
        <ele>1193.6</ele>
        <time>2013-09-03T07:10:35Z</time>
      </trkpt>
      <trkpt lat="44.39731" lon="6.69235">
        <ele>1193.1</ele>
        <time>2013-09-03T07:10:55Z</time>
      </trkpt>
      <trkpt lat="44.39645" lon="6.69161">
        <ele>1191.2</ele>
        <time>2013-09-03T07:11:10Z</time>
      </trkpt>
      <trkpt lat="44.39541" lon="6.69064">
        <ele>1188.8</ele>
        <time>2013-09-03T07:11:26Z</time>
      </trkpt>
      <trkpt lat="44.39436" lon="6.68932">
        <ele>1187.4</ele>
        <time>2013-09-03T07:11:46Z</time>
      </trkpt>
      <trkpt lat="44.39335" lon="6.68769">
        <ele>1187.4</ele>
        <time>2013-09-03T07:12:09Z</time>
      </trkpt>
      <trkpt lat="44.39242" lon="6.68594">
        <ele>1185.9</ele>
        <time>2013-09-03T07:12:32Z</time>
      </trkpt>
      <trkpt lat="44.39195" lon="6.68413">
        <ele>1184.5</ele>
        <time>2013-09-03T07:12:53Z</time>
      </trkpt>
      <trkpt lat="44.39163" lon="6.6825">
        <ele>1184</ele>
        <time>2013-09-03T07:13:12Z</time>
      </trkpt>
      <trkpt lat="44.39158" lon="6.68047">
        <ele>1183</ele>
        <time>2013-09-03T07:13:34Z</time>
      </trkpt>
      <trkpt lat="44.39153" lon="6.67815">
        <ele>1180.2</ele>
        <time>2013-09-03T07:13:57Z</time>
      </trkpt>
      <trkpt lat="44.39149" lon="6.67632">
        <ele>1177.8</ele>
        <time>2013-09-03T07:14:15Z</time>
      </trkpt>
      <trkpt lat="44.39145" lon="6.67459">
        <ele>1176.3</ele>
        <time>2013-09-03T07:14:32Z</time>
      </trkpt>
      <trkpt lat="44.39142" lon="6.67241">
        <ele>1173.4</ele>
        <time>2013-09-03T07:14:53Z</time>
      </trkpt>
      <trkpt lat="44.39137" lon="6.67104">
        <ele>1171.5</ele>
        <time>2013-09-03T07:15:06Z</time>
      </trkpt>
      <trkpt lat="44.39126" lon="6.67066">
        <ele>1171</ele>
        <time>2013-09-03T07:15:10Z</time>
      </trkpt>
      <trkpt lat="44.39122" lon="6.67057">
        <ele>1170.5</ele>
        <time>2013-09-03T07:15:11Z</time>
      </trkpt>
      <trkpt lat="44.39118" lon="6.67049">
        <ele>1170.5</ele>
        <time>2013-09-03T07:15:12Z</time>
      </trkpt>
      <trkpt lat="44.39113" lon="6.67041">
        <ele>1170.5</ele>
        <time>2013-09-03T07:15:13Z</time>
      </trkpt>
      <trkpt lat="44.39108" lon="6.67033">
        <ele>1170.1</ele>
        <time>2013-09-03T07:15:14Z</time>
      </trkpt>
      <trkpt lat="44.39103" lon="6.67026">
        <ele>1170.5</ele>
        <time>2013-09-03T07:15:15Z</time>
      </trkpt>
      <trkpt lat="44.39098" lon="6.67019">
        <ele>1170.5</ele>
        <time>2013-09-03T07:15:16Z</time>
      </trkpt>
      <trkpt lat="44.39056" lon="6.66982">
        <ele>1169.6</ele>
        <time>2013-09-03T07:15:23Z</time>
      </trkpt>
      <trkpt lat="44.3905" lon="6.66976">
        <ele>1170.1</ele>
        <time>2013-09-03T07:15:24Z</time>
      </trkpt>
      <trkpt lat="44.39045" lon="6.66969">
        <ele>1170.1</ele>
        <time>2013-09-03T07:15:25Z</time>
      </trkpt>
      <trkpt lat="44.39041" lon="6.66961">
        <ele>1169.6</ele>
        <time>2013-09-03T07:15:26Z</time>
      </trkpt>
      <trkpt lat="44.39038" lon="6.66953">
        <ele>1169.6</ele>
        <time>2013-09-03T07:15:27Z</time>
      </trkpt>
      <trkpt lat="44.39036" lon="6.66944">
        <ele>1169.1</ele>
        <time>2013-09-03T07:15:28Z</time>
      </trkpt>
      <trkpt lat="44.39033" lon="6.66935">
        <ele>1169.1</ele>
        <time>2013-09-03T07:15:29Z</time>
      </trkpt>
      <trkpt lat="44.39004" lon="6.66806">
        <ele>1166.7</ele>
        <time>2013-09-03T07:15:42Z</time>
      </trkpt>
      <trkpt lat="44.39003" lon="6.66795">
        <ele>1166.7</ele>
        <time>2013-09-03T07:15:43Z</time>
      </trkpt>
      <trkpt lat="44.39003" lon="6.66785">
        <ele>1166.7</ele>
        <time>2013-09-03T07:15:44Z</time>
      </trkpt>
      <trkpt lat="44.39003" lon="6.66775">
        <ele>1166.2</ele>
        <time>2013-09-03T07:15:45Z</time>
      </trkpt>
      <trkpt lat="44.39003" lon="6.66766">
        <ele>1166.7</ele>
        <time>2013-09-03T07:15:46Z</time>
      </trkpt>
      <trkpt lat="44.39004" lon="6.66756">
        <ele>1166.7</ele>
        <time>2013-09-03T07:15:47Z</time>
      </trkpt>
      <trkpt lat="44.39005" lon="6.66747">
        <ele>1166.2</ele>
        <time>2013-09-03T07:15:48Z</time>
      </trkpt>
      <trkpt lat="44.39016" lon="6.66657">
        <ele>1165.7</ele>
        <time>2013-09-03T07:15:57Z</time>
      </trkpt>
      <trkpt lat="44.39016" lon="6.66647">
        <ele>1165.3</ele>
        <time>2013-09-03T07:15:58Z</time>
      </trkpt>
      <trkpt lat="44.39015" lon="6.66638">
        <ele>1165.3</ele>
        <time>2013-09-03T07:15:59Z</time>
      </trkpt>
      <trkpt lat="44.39014" lon="6.66628">
        <ele>1165.7</ele>
        <time>2013-09-03T07:16:00Z</time>
      </trkpt>
      <trkpt lat="44.39011" lon="6.6662">
        <ele>1165.3</ele>
        <time>2013-09-03T07:16:01Z</time>
      </trkpt>
      <trkpt lat="44.39009" lon="6.66611">
        <ele>1165.3</ele>
        <time>2013-09-03T07:16:02Z</time>
      </trkpt>
      <trkpt lat="44.39004" lon="6.66602">
        <ele>1164.8</ele>
        <time>2013-09-03T07:16:03Z</time>
      </trkpt>
      <trkpt lat="44.39" lon="6.66594">
        <ele>1164.8</ele>
        <time>2013-09-03T07:16:04Z</time>
      </trkpt>
      <trkpt lat="44.38974" lon="6.66542">
        <ele>1164.3</ele>
        <time>2013-09-03T07:16:10Z</time>
      </trkpt>
      <trkpt lat="44.38972" lon="6.66532">
        <ele>1163.8</ele>
        <time>2013-09-03T07:16:11Z</time>
      </trkpt>
      <trkpt lat="44.38963" lon="6.66502">
        <ele>1162.9</ele>
        <time>2013-09-03T07:16:14Z</time>
      </trkpt>
      <trkpt lat="44.38955" lon="6.66485">
        <ele>1163.3</ele>
        <time>2013-09-03T07:16:16Z</time>
      </trkpt>
      <trkpt lat="44.3895" lon="6.66477">
        <ele>1162.9</ele>
        <time>2013-09-03T07:16:17Z</time>
      </trkpt>
      <trkpt lat="44.38908" lon="6.66401">
        <ele>1161.4</ele>
        <time>2013-09-03T07:16:27Z</time>
      </trkpt>
      <trkpt lat="44.38886" lon="6.66339">
        <ele>1160.9</ele>
        <time>2013-09-03T07:16:34Z</time>
      </trkpt>
      <trkpt lat="44.38883" lon="6.6633">
        <ele>1160.5</ele>
        <time>2013-09-03T07:16:35Z</time>
      </trkpt>
      <trkpt lat="44.38849" lon="6.6621">
        <ele>1159.5</ele>
        <time>2013-09-03T07:16:48Z</time>
      </trkpt>
      <trkpt lat="44.38834" lon="6.66071">
        <ele>1158.5</ele>
        <time>2013-09-03T07:17:04Z</time>
      </trkpt>
      <trkpt lat="44.38814" lon="6.65917">
        <ele>1157.1</ele>
        <time>2013-09-03T07:17:22Z</time>
      </trkpt>
      <trkpt lat="44.38796" lon="6.65754">
        <ele>1155.2</ele>
        <time>2013-09-03T07:17:41Z</time>
      </trkpt>
      <trkpt lat="44.38794" lon="6.65739">
        <ele>1155.2</ele>
        <time>2013-09-03T07:17:43Z</time>
      </trkpt>
      <trkpt lat="44.38791" lon="6.65725">
        <ele>1155.2</ele>
        <time>2013-09-03T07:17:45Z</time>
      </trkpt>
      <trkpt lat="44.3879" lon="6.65717">
        <ele>1155.2</ele>
        <time>2013-09-03T07:17:46Z</time>
      </trkpt>
      <trkpt lat="44.3879" lon="6.65709">
        <ele>1155.6</ele>
        <time>2013-09-03T07:17:47Z</time>
      </trkpt>
      <trkpt lat="44.3879" lon="6.65701">
        <ele>1155.2</ele>
        <time>2013-09-03T07:17:48Z</time>
      </trkpt>
      <trkpt lat="44.38789" lon="6.65693">
        <ele>1155.6</ele>
        <time>2013-09-03T07:17:49Z</time>
      </trkpt>
      <trkpt lat="44.38776" lon="6.65566">
        <ele>1154.2</ele>
        <time>2013-09-03T07:18:03Z</time>
      </trkpt>
      <trkpt lat="44.38759" lon="6.65431">
        <ele>1152.8</ele>
        <time>2013-09-03T07:18:18Z</time>
      </trkpt>
      <trkpt lat="44.38746" lon="6.6535">
        <ele>1151.8</ele>
        <time>2013-09-03T07:18:31Z</time>
      </trkpt>
      <trkpt lat="44.38738" lon="6.65294">
        <ele>1151.3</ele>
        <time>2013-09-03T07:18:45Z</time>
      </trkpt>
      <trkpt lat="44.38729" lon="6.65247">
        <ele>1150.4</ele>
        <time>2013-09-03T07:18:57Z</time>
      </trkpt>
      <trkpt lat="44.38722" lon="6.65195">
        <ele>1149.9</ele>
        <time>2013-09-03T07:19:11Z</time>
      </trkpt>
      <trkpt lat="44.38711" lon="6.65137">
        <ele>1148.9</ele>
        <time>2013-09-03T07:19:25Z</time>
      </trkpt>
      <trkpt lat="44.38697" lon="6.65074">
        <ele>1148.9</ele>
        <time>2013-09-03T07:19:41Z</time>
      </trkpt>
      <trkpt lat="44.38681" lon="6.65015">
        <ele>1148.9</ele>
        <time>2013-09-03T07:19:54Z</time>
      </trkpt>
      <trkpt lat="44.38662" lon="6.64929">
        <ele>1148.4</ele>
        <time>2013-09-03T07:20:08Z</time>
      </trkpt>
      <trkpt lat="44.38637" lon="6.64794">
        <ele>1147.5</ele>
        <time>2013-09-03T07:20:26Z</time>
      </trkpt>
      <trkpt lat="44.38629" lon="6.6465">
        <ele>1147</ele>
        <time>2013-09-03T07:20:43Z</time>
      </trkpt>
      <trkpt lat="44.38628" lon="6.64623">
        <ele>1147</ele>
        <time>2013-09-03T07:20:46Z</time>
      </trkpt>
      <trkpt lat="44.38627" lon="6.64514">
        <ele>1147</ele>
        <time>2013-09-03T07:21:00Z</time>
      </trkpt>
      <trkpt lat="44.38629" lon="6.64385">
        <ele>1147</ele>
        <time>2013-09-03T07:21:16Z</time>
      </trkpt>
      <trkpt lat="44.38629" lon="6.64347">
        <ele>1147.5</ele>
        <time>2013-09-03T07:21:25Z</time>
      </trkpt>
      <trkpt lat="44.38628" lon="6.6434">
        <ele>1147</ele>
        <time>2013-09-03T07:21:36Z</time>
      </trkpt>
      <trkpt lat="44.38626" lon="6.64339">
        <ele>1147</ele>
        <time>2013-09-03T07:21:48Z</time>
      </trkpt>
      <trkpt lat="44.38626" lon="6.6434">
        <ele>1146.5</ele>
        <time>2013-09-03T07:21:51Z</time>
      </trkpt>
      <trkpt lat="44.38592" lon="6.65021">
        <ele>1150.8</ele>
        <time>2013-09-03T08:16:28Z</time>
      </trkpt>
      <trkpt lat="44.38562" lon="6.64998">
        <ele>1149.9</ele>
        <time>2013-09-03T08:16:41Z</time>
      </trkpt>
      <trkpt lat="44.3856" lon="6.64994">
        <ele>1145.6</ele>
        <time>2013-09-03T08:16:42Z</time>
      </trkpt>
      <trkpt lat="44.38558" lon="6.6499">
        <ele>1148</ele>
        <time>2013-09-03T08:16:43Z</time>
      </trkpt>
      <trkpt lat="44.38555" lon="6.64986">
        <ele>1155.6</ele>
        <time>2013-09-03T08:16:44Z</time>
      </trkpt>
      <trkpt lat="44.38553" lon="6.64982">
        <ele>1149.9</ele>
        <time>2013-09-03T08:16:45Z</time>
      </trkpt>
      <trkpt lat="44.38542" lon="6.64955">
        <ele>1146.5</ele>
        <time>2013-09-03T08:16:51Z</time>
      </trkpt>
      <trkpt lat="44.3854" lon="6.64951">
        <ele>1147.5</ele>
        <time>2013-09-03T08:16:52Z</time>
      </trkpt>
      <trkpt lat="44.38538" lon="6.64946">
        <ele>1151.8</ele>
        <time>2013-09-03T08:16:53Z</time>
      </trkpt>
      <trkpt lat="44.38536" lon="6.64941">
        <ele>1148.4</ele>
        <time>2013-09-03T08:16:54Z</time>
      </trkpt>
      <trkpt lat="44.38531" lon="6.64933">
        <ele>1148</ele>
        <time>2013-09-03T08:16:56Z</time>
      </trkpt>
      <trkpt lat="44.38497" lon="6.64872">
        <ele>1148.9</ele>
        <time>2013-09-03T08:17:12Z</time>
      </trkpt>
      <trkpt lat="44.38454" lon="6.64841">
        <ele>1148</ele>
        <time>2013-09-03T08:17:26Z</time>
      </trkpt>
      <trkpt lat="44.38452" lon="6.64836">
        <ele>1147.5</ele>
        <time>2013-09-03T08:17:27Z</time>
      </trkpt>
      <trkpt lat="44.3845" lon="6.6483">
        <ele>1147.5</ele>
        <time>2013-09-03T08:17:28Z</time>
      </trkpt>
      <trkpt lat="44.38449" lon="6.64823">
        <ele>1147.5</ele>
        <time>2013-09-03T08:17:29Z</time>
      </trkpt>
      <trkpt lat="44.38448" lon="6.64816">
        <ele>1147</ele>
        <time>2013-09-03T08:17:30Z</time>
      </trkpt>
      <trkpt lat="44.38448" lon="6.64809">
        <ele>1147</ele>
        <time>2013-09-03T08:17:31Z</time>
      </trkpt>
      <trkpt lat="44.38448" lon="6.64801">
        <ele>1146.5</ele>
        <time>2013-09-03T08:17:32Z</time>
      </trkpt>
      <trkpt lat="44.3845" lon="6.64794">
        <ele>1146.5</ele>
        <time>2013-09-03T08:17:33Z</time>
      </trkpt>
      <trkpt lat="44.38453" lon="6.64778">
        <ele>1145.6</ele>
        <time>2013-09-03T08:17:35Z</time>
      </trkpt>
      <trkpt lat="44.38454" lon="6.64769">
        <ele>1145.6</ele>
        <time>2013-09-03T08:17:36Z</time>
      </trkpt>
      <trkpt lat="44.38449" lon="6.64668">
        <ele>1142.7</ele>
        <time>2013-09-03T08:17:47Z</time>
      </trkpt>
      <trkpt lat="44.38433" lon="6.64526">
        <ele>1140.7</ele>
        <time>2013-09-03T08:18:02Z</time>
      </trkpt>
      <trkpt lat="44.38405" lon="6.64368">
        <ele>1139.8</ele>
        <time>2013-09-03T08:18:19Z</time>
      </trkpt>
      <trkpt lat="44.38379" lon="6.64173">
        <ele>1138.3</ele>
        <time>2013-09-03T08:18:39Z</time>
      </trkpt>
      <trkpt lat="44.38354" lon="6.63996">
        <ele>1137.9</ele>
        <time>2013-09-03T08:18:58Z</time>
      </trkpt>
      <trkpt lat="44.38333" lon="6.63856">
        <ele>1132.6</ele>
        <time>2013-09-03T08:19:13Z</time>
      </trkpt>
      <trkpt lat="44.38331" lon="6.63847">
        <ele>1141.2</ele>
        <time>2013-09-03T08:19:14Z</time>
      </trkpt>
      <trkpt lat="44.38329" lon="6.63829">
        <ele>1136.9</ele>
        <time>2013-09-03T08:19:16Z</time>
      </trkpt>
      <trkpt lat="44.38328" lon="6.63819">
        <ele>1137.4</ele>
        <time>2013-09-03T08:19:17Z</time>
      </trkpt>
      <trkpt lat="44.38307" lon="6.63658">
        <ele>1136.4</ele>
        <time>2013-09-03T08:19:34Z</time>
      </trkpt>
      <trkpt lat="44.38298" lon="6.63481">
        <ele>1135.9</ele>
        <time>2013-09-03T08:19:53Z</time>
      </trkpt>
      <trkpt lat="44.38274" lon="6.63327">
        <ele>1135.5</ele>
        <time>2013-09-03T08:20:10Z</time>
      </trkpt>
      <trkpt lat="44.38234" lon="6.63188">
        <ele>1135.5</ele>
        <time>2013-09-03T08:20:26Z</time>
      </trkpt>
      <trkpt lat="44.38185" lon="6.63081">
        <ele>1135.9</ele>
        <time>2013-09-03T08:20:41Z</time>
      </trkpt>
      <trkpt lat="44.38114" lon="6.62995">
        <ele>1138.8</ele>
        <time>2013-09-03T08:20:59Z</time>
      </trkpt>
      <trkpt lat="44.38048" lon="6.62936">
        <ele>1141.2</ele>
        <time>2013-09-03T08:21:17Z</time>
      </trkpt>
      <trkpt lat="44.3797" lon="6.62894">
        <ele>1143.6</ele>
        <time>2013-09-03T08:21:36Z</time>
      </trkpt>
      <trkpt lat="44.37885" lon="6.62852">
        <ele>1145.1</ele>
        <time>2013-09-03T08:21:56Z</time>
      </trkpt>
      <trkpt lat="44.3781" lon="6.62831">
        <ele>1147</ele>
        <time>2013-09-03T08:22:12Z</time>
      </trkpt>
      <trkpt lat="44.37729" lon="6.62809">
        <ele>1148.4</ele>
        <time>2013-09-03T08:22:30Z</time>
      </trkpt>
      <trkpt lat="44.37646" lon="6.62786">
        <ele>1150.4</ele>
        <time>2013-09-03T08:22:49Z</time>
      </trkpt>
      <trkpt lat="44.37624" lon="6.62779">
        <ele>1150.8</ele>
        <time>2013-09-03T08:22:54Z</time>
      </trkpt>
      <trkpt lat="44.37552" lon="6.62746">
        <ele>1152.8</ele>
        <time>2013-09-03T08:23:12Z</time>
      </trkpt>
      <trkpt lat="44.37533" lon="6.62712">
        <ele>1153.7</ele>
        <time>2013-09-03T08:23:20Z</time>
      </trkpt>
      <trkpt lat="44.37531" lon="6.62706">
        <ele>1153.7</ele>
        <time>2013-09-03T08:23:21Z</time>
      </trkpt>
      <trkpt lat="44.3753" lon="6.62701">
        <ele>1154.2</ele>
        <time>2013-09-03T08:23:22Z</time>
      </trkpt>
      <trkpt lat="44.37511" lon="6.62569">
        <ele>1155.2</ele>
        <time>2013-09-03T08:23:42Z</time>
      </trkpt>
      <trkpt lat="44.37486" lon="6.62425">
        <ele>1152.8</ele>
        <time>2013-09-03T08:23:59Z</time>
      </trkpt>
      <trkpt lat="44.37442" lon="6.62346">
        <ele>1154.2</ele>
        <time>2013-09-03T08:24:12Z</time>
      </trkpt>
      <trkpt lat="44.37406" lon="6.62307">
        <ele>1157.1</ele>
        <time>2013-09-03T08:24:26Z</time>
      </trkpt>
      <trkpt lat="44.37376" lon="6.62281">
        <ele>1160.5</ele>
        <time>2013-09-03T08:24:41Z</time>
      </trkpt>
      <trkpt lat="44.37342" lon="6.62248">
        <ele>1163.3</ele>
        <time>2013-09-03T08:24:57Z</time>
      </trkpt>
      <trkpt lat="44.37312" lon="6.62221">
        <ele>1166.2</ele>
        <time>2013-09-03T08:25:12Z</time>
      </trkpt>
      <trkpt lat="44.37277" lon="6.62225">
        <ele>1167.7</ele>
        <time>2013-09-03T08:25:26Z</time>
      </trkpt>
      <trkpt lat="44.3725" lon="6.62274">
        <ele>1170.5</ele>
        <time>2013-09-03T08:25:42Z</time>
      </trkpt>
      <trkpt lat="44.37213" lon="6.62328">
        <ele>1172.5</ele>
        <time>2013-09-03T08:26:01Z</time>
      </trkpt>
      <trkpt lat="44.37187" lon="6.62359">
        <ele>1175.8</ele>
        <time>2013-09-03T08:26:13Z</time>
      </trkpt>
      <trkpt lat="44.3715" lon="6.62394">
        <ele>1179.2</ele>
        <time>2013-09-03T08:26:31Z</time>
      </trkpt>
      <trkpt lat="44.37116" lon="6.62416">
        <ele>1182.1</ele>
        <time>2013-09-03T08:26:47Z</time>
      </trkpt>
      <trkpt lat="44.37076" lon="6.62429">
        <ele>1185.4</ele>
        <time>2013-09-03T08:27:06Z</time>
      </trkpt>
      <trkpt lat="44.37042" lon="6.6243">
        <ele>1188.3</ele>
        <time>2013-09-03T08:27:22Z</time>
      </trkpt>
      <trkpt lat="44.37003" lon="6.6243">
        <ele>1191.7</ele>
        <time>2013-09-03T08:27:40Z</time>
      </trkpt>
      <trkpt lat="44.36964" lon="6.6243">
        <ele>1195.1</ele>
        <time>2013-09-03T08:27:58Z</time>
      </trkpt>
      <trkpt lat="44.3693" lon="6.6243">
        <ele>1197.9</ele>
        <time>2013-09-03T08:28:14Z</time>
      </trkpt>
      <trkpt lat="44.36895" lon="6.62428">
        <ele>1200.8</ele>
        <time>2013-09-03T08:28:29Z</time>
      </trkpt>
      <trkpt lat="44.36893" lon="6.62427">
        <ele>1200.3</ele>
        <time>2013-09-03T08:28:30Z</time>
      </trkpt>
      <trkpt lat="44.36891" lon="6.62427">
        <ele>1200.8</ele>
        <time>2013-09-03T08:28:31Z</time>
      </trkpt>
      <trkpt lat="44.36859" lon="6.62437">
        <ele>1203.7</ele>
        <time>2013-09-03T08:28:46Z</time>
      </trkpt>
      <trkpt lat="44.36825" lon="6.62453">
        <ele>1207.1</ele>
        <time>2013-09-03T08:29:02Z</time>
      </trkpt>
      <trkpt lat="44.36785" lon="6.62475">
        <ele>1210</ele>
        <time>2013-09-03T08:29:22Z</time>
      </trkpt>
      <trkpt lat="44.36752" lon="6.62496">
        <ele>1213.3</ele>
        <time>2013-09-03T08:29:38Z</time>
      </trkpt>
      <trkpt lat="44.36712" lon="6.62506">
        <ele>1216.7</ele>
        <time>2013-09-03T08:29:57Z</time>
      </trkpt>
      <trkpt lat="44.36673" lon="6.62503">
        <ele>1220.1</ele>
        <time>2013-09-03T08:30:15Z</time>
      </trkpt>
      <trkpt lat="44.36634" lon="6.62484">
        <ele>1222.9</ele>
        <time>2013-09-03T08:30:34Z</time>
      </trkpt>
      <trkpt lat="44.36605" lon="6.62469">
        <ele>1226.3</ele>
        <time>2013-09-03T08:30:48Z</time>
      </trkpt>
      <trkpt lat="44.36568" lon="6.62446">
        <ele>1229.2</ele>
        <time>2013-09-03T08:31:06Z</time>
      </trkpt>
      <trkpt lat="44.36535" lon="6.62425">
        <ele>1232.1</ele>
        <time>2013-09-03T08:31:24Z</time>
      </trkpt>
      <trkpt lat="44.36521" lon="6.62419">
        <ele>1233.5</ele>
        <time>2013-09-03T08:31:31Z</time>
      </trkpt>
      <trkpt lat="44.36492" lon="6.62408">
        <ele>1235.9</ele>
        <time>2013-09-03T08:31:47Z</time>
      </trkpt>
      <trkpt lat="44.36465" lon="6.62399">
        <ele>1237.8</ele>
        <time>2013-09-03T08:32:02Z</time>
      </trkpt>
      <trkpt lat="44.3643" lon="6.62389">
        <ele>1240.2</ele>
        <time>2013-09-03T08:32:21Z</time>
      </trkpt>
      <trkpt lat="44.36396" lon="6.62383">
        <ele>1243.1</ele>
        <time>2013-09-03T08:32:38Z</time>
      </trkpt>
      <trkpt lat="44.36369" lon="6.62377">
        <ele>1245.5</ele>
        <time>2013-09-03T08:32:52Z</time>
      </trkpt>
      <trkpt lat="44.36338" lon="6.62363">
        <ele>1248.4</ele>
        <time>2013-09-03T08:33:07Z</time>
      </trkpt>
      <trkpt lat="44.36313" lon="6.62326">
        <ele>1251.8</ele>
        <time>2013-09-03T08:33:24Z</time>
      </trkpt>
      <trkpt lat="44.36297" lon="6.62283">
        <ele>1254.7</ele>
        <time>2013-09-03T08:33:42Z</time>
      </trkpt>
      <trkpt lat="44.3628" lon="6.62258">
        <ele>1257.1</ele>
        <time>2013-09-03T08:33:56Z</time>
      </trkpt>
      <trkpt lat="44.36258" lon="6.6226">
        <ele>1259</ele>
        <time>2013-09-03T08:34:09Z</time>
      </trkpt>
      <trkpt lat="44.36232" lon="6.62255">
        <ele>1260.9</ele>
        <time>2013-09-03T08:34:23Z</time>
      </trkpt>
      <trkpt lat="44.36202" lon="6.62239">
        <ele>1263.3</ele>
        <time>2013-09-03T08:34:40Z</time>
      </trkpt>
      <trkpt lat="44.36178" lon="6.62244">
        <ele>1265.7</ele>
        <time>2013-09-03T08:34:54Z</time>
      </trkpt>
      <trkpt lat="44.36153" lon="6.62263">
        <ele>1268.1</ele>
        <time>2013-09-03T08:35:09Z</time>
      </trkpt>
      <trkpt lat="44.36124" lon="6.62267">
        <ele>1271</ele>
        <time>2013-09-03T08:35:26Z</time>
      </trkpt>
      <trkpt lat="44.36091" lon="6.62264">
        <ele>1274.4</ele>
        <time>2013-09-03T08:35:43Z</time>
      </trkpt>
      <trkpt lat="44.36059" lon="6.62259">
        <ele>1276.3</ele>
        <time>2013-09-03T08:35:58Z</time>
      </trkpt>
      <trkpt lat="44.36039" lon="6.62234">
        <ele>1279.7</ele>
        <time>2013-09-03T08:36:12Z</time>
      </trkpt>
      <trkpt lat="44.36022" lon="6.62198">
        <ele>1281.6</ele>
        <time>2013-09-03T08:36:27Z</time>
      </trkpt>
      <trkpt lat="44.36001" lon="6.6221">
        <ele>1283</ele>
        <time>2013-09-03T08:36:38Z</time>
      </trkpt>
      <trkpt lat="44.3597" lon="6.62238">
        <ele>1285.4</ele>
        <time>2013-09-03T08:36:54Z</time>
      </trkpt>
      <trkpt lat="44.35948" lon="6.62216">
        <ele>1287.3</ele>
        <time>2013-09-03T08:37:07Z</time>
      </trkpt>
      <trkpt lat="44.35922" lon="6.62184">
        <ele>1290.2</ele>
        <time>2013-09-03T08:37:24Z</time>
      </trkpt>
      <trkpt lat="44.35893" lon="6.62179">
        <ele>1291.7</ele>
        <time>2013-09-03T08:37:37Z</time>
      </trkpt>
      <trkpt lat="44.35865" lon="6.62171">
        <ele>1294.1</ele>
        <time>2013-09-03T08:37:51Z</time>
      </trkpt>
      <trkpt lat="44.35832" lon="6.62148">
        <ele>1297</ele>
        <time>2013-09-03T08:38:08Z</time>
      </trkpt>
      <trkpt lat="44.35809" lon="6.62108">
        <ele>1299.8</ele>
        <time>2013-09-03T08:38:25Z</time>
      </trkpt>
      <trkpt lat="44.35797" lon="6.62077">
        <ele>1303.2</ele>
        <time>2013-09-03T08:38:37Z</time>
      </trkpt>
      <trkpt lat="44.35777" lon="6.62041">
        <ele>1305.6</ele>
        <time>2013-09-03T08:38:53Z</time>
      </trkpt>
      <trkpt lat="44.35755" lon="6.62005">
        <ele>1308.5</ele>
        <time>2013-09-03T08:39:09Z</time>
      </trkpt>
      <trkpt lat="44.35728" lon="6.6197">
        <ele>1311.4</ele>
        <time>2013-09-03T08:39:26Z</time>
      </trkpt>
      <trkpt lat="44.35708" lon="6.61947">
        <ele>1313.3</ele>
        <time>2013-09-03T08:39:42Z</time>
      </trkpt>
      <trkpt lat="44.35706" lon="6.61949">
        <ele>1314.3</ele>
        <time>2013-09-03T08:39:51Z</time>
      </trkpt>
      <trkpt lat="44.35705" lon="6.61948">
        <ele>1313.8</ele>
        <time>2013-09-03T08:39:52Z</time>
      </trkpt>
      <trkpt lat="44.35703" lon="6.61948">
        <ele>1313.8</ele>
        <time>2013-09-03T08:39:53Z</time>
      </trkpt>
      <trkpt lat="44.35702" lon="6.61948">
        <ele>1313.3</ele>
        <time>2013-09-03T08:39:54Z</time>
      </trkpt>
      <trkpt lat="44.357" lon="6.61948">
        <ele>1313.8</ele>
        <time>2013-09-03T08:39:55Z</time>
      </trkpt>
      <trkpt lat="44.35698" lon="6.61949">
        <ele>1313.8</ele>
        <time>2013-09-03T08:39:56Z</time>
      </trkpt>
      <trkpt lat="44.35696" lon="6.6195">
        <ele>1314.3</ele>
        <time>2013-09-03T08:39:57Z</time>
      </trkpt>
      <trkpt lat="44.35695" lon="6.61951">
        <ele>1314.3</ele>
        <time>2013-09-03T08:39:58Z</time>
      </trkpt>
      <trkpt lat="44.35694" lon="6.61953">
        <ele>1314.3</ele>
        <time>2013-09-03T08:39:59Z</time>
      </trkpt>
      <trkpt lat="44.35694" lon="6.61955">
        <ele>1314.3</ele>
        <time>2013-09-03T08:40:00Z</time>
      </trkpt>
      <trkpt lat="44.35677" lon="6.6199">
        <ele>1315.7</ele>
        <time>2013-09-03T08:40:13Z</time>
      </trkpt>
      <trkpt lat="44.35643" lon="6.62026">
        <ele>1319.1</ele>
        <time>2013-09-03T08:40:30Z</time>
      </trkpt>
      <trkpt lat="44.35609" lon="6.6202">
        <ele>1322.4</ele>
        <time>2013-09-03T08:40:47Z</time>
      </trkpt>
      <trkpt lat="44.35591" lon="6.61982">
        <ele>1324.8</ele>
        <time>2013-09-03T08:41:02Z</time>
      </trkpt>
      <trkpt lat="44.35571" lon="6.61952">
        <ele>1328.2</ele>
        <time>2013-09-03T08:41:16Z</time>
      </trkpt>
      <trkpt lat="44.35543" lon="6.61919">
        <ele>1331.1</ele>
        <time>2013-09-03T08:41:33Z</time>
      </trkpt>
      <trkpt lat="44.3552" lon="6.61888">
        <ele>1334</ele>
        <time>2013-09-03T08:41:49Z</time>
      </trkpt>
      <trkpt lat="44.355" lon="6.61866">
        <ele>1335.9</ele>
        <time>2013-09-03T08:42:04Z</time>
      </trkpt>
      <trkpt lat="44.35481" lon="6.61836">
        <ele>1338.8</ele>
        <time>2013-09-03T08:42:19Z</time>
      </trkpt>
      <trkpt lat="44.35462" lon="6.61806">
        <ele>1341.2</ele>
        <time>2013-09-03T08:42:34Z</time>
      </trkpt>
      <trkpt lat="44.35434" lon="6.61779">
        <ele>1344.1</ele>
        <time>2013-09-03T08:42:50Z</time>
      </trkpt>
      <trkpt lat="44.35401" lon="6.6176">
        <ele>1346.5</ele>
        <time>2013-09-03T08:43:07Z</time>
      </trkpt>
      <trkpt lat="44.35375" lon="6.61746">
        <ele>1349.4</ele>
        <time>2013-09-03T08:43:21Z</time>
      </trkpt>
      <trkpt lat="44.3534" lon="6.61718">
        <ele>1353.2</ele>
        <time>2013-09-03T08:43:40Z</time>
      </trkpt>
      <trkpt lat="44.3531" lon="6.61672">
        <ele>1356.1</ele>
        <time>2013-09-03T08:44:02Z</time>
      </trkpt>
      <trkpt lat="44.35285" lon="6.61631">
        <ele>1359.4</ele>
        <time>2013-09-03T08:44:21Z</time>
      </trkpt>
      <trkpt lat="44.35265" lon="6.61586">
        <ele>1362.8</ele>
        <time>2013-09-03T08:44:40Z</time>
      </trkpt>
      <trkpt lat="44.35258" lon="6.61546">
        <ele>1363.8</ele>
        <time>2013-09-03T08:44:53Z</time>
      </trkpt>
      <trkpt lat="44.3526" lon="6.61512">
        <ele>1365.2</ele>
        <time>2013-09-03T08:45:05Z</time>
      </trkpt>
      <trkpt lat="44.35245" lon="6.61477">
        <ele>1367.6</ele>
        <time>2013-09-03T08:45:19Z</time>
      </trkpt>
      <trkpt lat="44.35228" lon="6.6143">
        <ele>1370</ele>
        <time>2013-09-03T08:45:35Z</time>
      </trkpt>
      <trkpt lat="44.35198" lon="6.61419">
        <ele>1371</ele>
        <time>2013-09-03T08:45:48Z</time>
      </trkpt>
      <trkpt lat="44.35169" lon="6.61427">
        <ele>1372.4</ele>
        <time>2013-09-03T08:46:01Z</time>
      </trkpt>
      <trkpt lat="44.35132" lon="6.6143">
        <ele>1374.8</ele>
        <time>2013-09-03T08:46:17Z</time>
      </trkpt>
      <trkpt lat="44.35105" lon="6.61439">
        <ele>1376.3</ele>
        <time>2013-09-03T08:46:31Z</time>
      </trkpt>
      <trkpt lat="44.35087" lon="6.61471">
        <ele>1378.7</ele>
        <time>2013-09-03T08:46:47Z</time>
      </trkpt>
      <trkpt lat="44.35084" lon="6.61501">
        <ele>1381.1</ele>
        <time>2013-09-03T08:47:01Z</time>
      </trkpt>
      <trkpt lat="44.35073" lon="6.61535">
        <ele>1383.5</ele>
        <time>2013-09-03T08:47:13Z</time>
      </trkpt>
      <trkpt lat="44.35073" lon="6.61538">
        <ele>1384</ele>
        <time>2013-09-03T08:47:14Z</time>
      </trkpt>
      <trkpt lat="44.35072" lon="6.61541">
        <ele>1383.5</ele>
        <time>2013-09-03T08:47:15Z</time>
      </trkpt>
      <trkpt lat="44.3507" lon="6.61544">
        <ele>1383.5</ele>
        <time>2013-09-03T08:47:16Z</time>
      </trkpt>
      <trkpt lat="44.35069" lon="6.61548">
        <ele>1384</ele>
        <time>2013-09-03T08:47:17Z</time>
      </trkpt>
      <trkpt lat="44.35069" lon="6.61551">
        <ele>1384.4</ele>
        <time>2013-09-03T08:47:18Z</time>
      </trkpt>
      <trkpt lat="44.35068" lon="6.61554">
        <ele>1384.4</ele>
        <time>2013-09-03T08:47:19Z</time>
      </trkpt>
      <trkpt lat="44.35054" lon="6.61596">
        <ele>1387.3</ele>
        <time>2013-09-03T08:47:35Z</time>
      </trkpt>
      <trkpt lat="44.35021" lon="6.61604">
        <ele>1389.2</ele>
        <time>2013-09-03T08:47:51Z</time>
      </trkpt>
      <trkpt lat="44.3499" lon="6.61611">
        <ele>1392.6</ele>
        <time>2013-09-03T08:48:07Z</time>
      </trkpt>
      <trkpt lat="44.34953" lon="6.61616">
        <ele>1395.5</ele>
        <time>2013-09-03T08:48:26Z</time>
      </trkpt>
      <trkpt lat="44.34908" lon="6.61622">
        <ele>1398.4</ele>
        <time>2013-09-03T08:48:48Z</time>
      </trkpt>
      <trkpt lat="44.34866" lon="6.6163">
        <ele>1401.7</ele>
        <time>2013-09-03T08:49:08Z</time>
      </trkpt>
      <trkpt lat="44.34836" lon="6.61636">
        <ele>1404.1</ele>
        <time>2013-09-03T08:49:23Z</time>
      </trkpt>
      <trkpt lat="44.34808" lon="6.61621">
        <ele>1407</ele>
        <time>2013-09-03T08:49:37Z</time>
      </trkpt>
      <trkpt lat="44.34771" lon="6.6162">
        <ele>1409.9</ele>
        <time>2013-09-03T08:49:56Z</time>
      </trkpt>
      <trkpt lat="44.34768" lon="6.61622">
        <ele>1409.9</ele>
        <time>2013-09-03T08:49:58Z</time>
      </trkpt>
      <trkpt lat="44.34766" lon="6.61624">
        <ele>1409.9</ele>
        <time>2013-09-03T08:49:59Z</time>
      </trkpt>
      <trkpt lat="44.34765" lon="6.61625">
        <ele>1410.4</ele>
        <time>2013-09-03T08:50:00Z</time>
      </trkpt>
      <trkpt lat="44.34763" lon="6.61627">
        <ele>1410.4</ele>
        <time>2013-09-03T08:50:01Z</time>
      </trkpt>
      <trkpt lat="44.34761" lon="6.61628">
        <ele>1410.4</ele>
        <time>2013-09-03T08:50:02Z</time>
      </trkpt>
      <trkpt lat="44.34759" lon="6.61629">
        <ele>1410.9</ele>
        <time>2013-09-03T08:50:03Z</time>
      </trkpt>
      <trkpt lat="44.34726" lon="6.61648">
        <ele>1412.8</ele>
        <time>2013-09-03T08:50:21Z</time>
      </trkpt>
      <trkpt lat="44.34696" lon="6.6166">
        <ele>1415.7</ele>
        <time>2013-09-03T08:50:37Z</time>
      </trkpt>
      <trkpt lat="44.34666" lon="6.61672">
        <ele>1417.6</ele>
        <time>2013-09-03T08:50:52Z</time>
      </trkpt>
      <trkpt lat="44.34634" lon="6.61683">
        <ele>1421</ele>
        <time>2013-09-03T08:51:07Z</time>
      </trkpt>
      <trkpt lat="44.346" lon="6.61677">
        <ele>1423.4</ele>
        <time>2013-09-03T08:51:23Z</time>
      </trkpt>
      <trkpt lat="44.34571" lon="6.61666">
        <ele>1425.3</ele>
        <time>2013-09-03T08:51:40Z</time>
      </trkpt>
      <trkpt lat="44.34535" lon="6.61662">
        <ele>1428.2</ele>
        <time>2013-09-03T08:51:59Z</time>
      </trkpt>
      <trkpt lat="44.34519" lon="6.61637">
        <ele>1430.1</ele>
        <time>2013-09-03T08:52:12Z</time>
      </trkpt>
      <trkpt lat="44.34496" lon="6.61621">
        <ele>1432.5</ele>
        <time>2013-09-03T08:52:26Z</time>
      </trkpt>
      <trkpt lat="44.34471" lon="6.61604">
        <ele>1433.9</ele>
        <time>2013-09-03T08:52:42Z</time>
      </trkpt>
      <trkpt lat="44.34464" lon="6.61603">
        <ele>1434.9</ele>
        <time>2013-09-03T08:52:54Z</time>
      </trkpt>
      <trkpt lat="44.34468" lon="6.61604">
        <ele>1434.9</ele>
        <time>2013-09-03T08:53:21Z</time>
      </trkpt>
      <trkpt lat="44.34465" lon="6.61602">
        <ele>1434.9</ele>
        <time>2013-09-03T08:53:48Z</time>
      </trkpt>
      <trkpt lat="44.34462" lon="6.61601">
        <ele>1435.4</ele>
        <time>2013-09-03T08:54:07Z</time>
      </trkpt>
      <trkpt lat="44.34463" lon="6.61599">
        <ele>1435.4</ele>
        <time>2013-09-03T08:54:27Z</time>
      </trkpt>
      <trkpt lat="44.34462" lon="6.616">
        <ele>1434.9</ele>
        <time>2013-09-03T08:54:28Z</time>
      </trkpt>
      <trkpt lat="44.3446" lon="6.61602">
        <ele>1434.9</ele>
        <time>2013-09-03T08:54:29Z</time>
      </trkpt>
      <trkpt lat="44.34458" lon="6.61602">
        <ele>1435.4</ele>
        <time>2013-09-03T08:54:30Z</time>
      </trkpt>
      <trkpt lat="44.34456" lon="6.61603">
        <ele>1436.4</ele>
        <time>2013-09-03T08:54:31Z</time>
      </trkpt>
      <trkpt lat="44.34445" lon="6.61611">
        <ele>1437.8</ele>
        <time>2013-09-03T08:54:38Z</time>
      </trkpt>
      <trkpt lat="44.34421" lon="6.61635">
        <ele>1439.7</ele>
        <time>2013-09-03T08:54:54Z</time>
      </trkpt>
      <trkpt lat="44.34382" lon="6.61639">
        <ele>1441.6</ele>
        <time>2013-09-03T08:55:13Z</time>
      </trkpt>
      <trkpt lat="44.34352" lon="6.61613">
        <ele>1444.5</ele>
        <time>2013-09-03T08:55:29Z</time>
      </trkpt>
      <trkpt lat="44.34323" lon="6.6159">
        <ele>1447.9</ele>
        <time>2013-09-03T08:55:45Z</time>
      </trkpt>
      <trkpt lat="44.34298" lon="6.61565">
        <ele>1449.3</ele>
        <time>2013-09-03T08:56:01Z</time>
      </trkpt>
      <trkpt lat="44.34264" lon="6.61559">
        <ele>1450.8</ele>
        <time>2013-09-03T08:56:18Z</time>
      </trkpt>
      <trkpt lat="44.34256" lon="6.61559">
        <ele>1453.2</ele>
        <time>2013-09-03T08:56:22Z</time>
      </trkpt>
      <trkpt lat="44.34249" lon="6.61558">
        <ele>1452.2</ele>
        <time>2013-09-03T08:56:26Z</time>
      </trkpt>
      <trkpt lat="44.3423" lon="6.61549">
        <ele>1455.6</ele>
        <time>2013-09-03T08:56:37Z</time>
      </trkpt>
      <trkpt lat="44.34228" lon="6.61548">
        <ele>1455.6</ele>
        <time>2013-09-03T08:56:38Z</time>
      </trkpt>
      <trkpt lat="44.34206" lon="6.6153">
        <ele>1457</ele>
        <time>2013-09-03T08:56:53Z</time>
      </trkpt>
      <trkpt lat="44.34178" lon="6.61536">
        <ele>1460.4</ele>
        <time>2013-09-03T08:57:08Z</time>
      </trkpt>
      <trkpt lat="44.34145" lon="6.61524">
        <ele>1462.3</ele>
        <time>2013-09-03T08:57:25Z</time>
      </trkpt>
      <trkpt lat="44.34123" lon="6.61507">
        <ele>1465.7</ele>
        <time>2013-09-03T08:57:38Z</time>
      </trkpt>
      <trkpt lat="44.34102" lon="6.61468">
        <ele>1469</ele>
        <time>2013-09-03T08:57:57Z</time>
      </trkpt>
      <trkpt lat="44.34089" lon="6.6144">
        <ele>1470.5</ele>
        <time>2013-09-03T08:58:10Z</time>
      </trkpt>
      <trkpt lat="44.34063" lon="6.61427">
        <ele>1473.4</ele>
        <time>2013-09-03T08:58:24Z</time>
      </trkpt>
      <trkpt lat="44.3403" lon="6.61416">
        <ele>1476.2</ele>
        <time>2013-09-03T08:58:41Z</time>
      </trkpt>
      <trkpt lat="44.33996" lon="6.61394">
        <ele>1478.7</ele>
        <time>2013-09-03T08:58:59Z</time>
      </trkpt>
      <trkpt lat="44.33977" lon="6.6136">
        <ele>1480.6</ele>
        <time>2013-09-03T08:59:14Z</time>
      </trkpt>
      <trkpt lat="44.33965" lon="6.61344">
        <ele>1481.5</ele>
        <time>2013-09-03T08:59:22Z</time>
      </trkpt>
      <trkpt lat="44.33964" lon="6.61343">
        <ele>1482</ele>
        <time>2013-09-03T08:59:23Z</time>
      </trkpt>
      <trkpt lat="44.33951" lon="6.61303">
        <ele>1484.4</ele>
        <time>2013-09-03T08:59:38Z</time>
      </trkpt>
      <trkpt lat="44.33926" lon="6.61264">
        <ele>1487.8</ele>
        <time>2013-09-03T08:59:56Z</time>
      </trkpt>
      <trkpt lat="44.33899" lon="6.61231">
        <ele>1489.7</ele>
        <time>2013-09-03T09:00:13Z</time>
      </trkpt>
      <trkpt lat="44.3387" lon="6.61227">
        <ele>1492.6</ele>
        <time>2013-09-03T09:00:29Z</time>
      </trkpt>
      <trkpt lat="44.33841" lon="6.61235">
        <ele>1494.5</ele>
        <time>2013-09-03T09:00:45Z</time>
      </trkpt>
      <trkpt lat="44.3382" lon="6.61222">
        <ele>1496.4</ele>
        <time>2013-09-03T09:00:57Z</time>
      </trkpt>
      <trkpt lat="44.33792" lon="6.61218">
        <ele>1498.8</ele>
        <time>2013-09-03T09:01:13Z</time>
      </trkpt>
      <trkpt lat="44.33775" lon="6.61218">
        <ele>1500.3</ele>
        <time>2013-09-03T09:01:25Z</time>
      </trkpt>
      <trkpt lat="44.33746" lon="6.61204">
        <ele>1502.7</ele>
        <time>2013-09-03T09:01:39Z</time>
      </trkpt>
      <trkpt lat="44.33711" lon="6.61197">
        <ele>1505.1</ele>
        <time>2013-09-03T09:01:55Z</time>
      </trkpt>
      <trkpt lat="44.3368" lon="6.61173">
        <ele>1508</ele>
        <time>2013-09-03T09:02:12Z</time>
      </trkpt>
      <trkpt lat="44.33649" lon="6.61159">
        <ele>1510.4</ele>
        <time>2013-09-03T09:02:28Z</time>
      </trkpt>
      <trkpt lat="44.33612" lon="6.61145">
        <ele>1513.3</ele>
        <time>2013-09-03T09:02:47Z</time>
      </trkpt>
      <trkpt lat="44.3358" lon="6.61139">
        <ele>1515.7</ele>
        <time>2013-09-03T09:03:04Z</time>
      </trkpt>
      <trkpt lat="44.33551" lon="6.61139">
        <ele>1519</ele>
        <time>2013-09-03T09:03:20Z</time>
      </trkpt>
      <trkpt lat="44.33524" lon="6.61139">
        <ele>1520.9</ele>
        <time>2013-09-03T09:03:35Z</time>
      </trkpt>
      <trkpt lat="44.33495" lon="6.61143">
        <ele>1523.8</ele>
        <time>2013-09-03T09:03:51Z</time>
      </trkpt>
      <trkpt lat="44.33461" lon="6.61146">
        <ele>1526.2</ele>
        <time>2013-09-03T09:04:09Z</time>
      </trkpt>
      <trkpt lat="44.33427" lon="6.61129">
        <ele>1529.1</ele>
        <time>2013-09-03T09:04:27Z</time>
      </trkpt>
      <trkpt lat="44.33405" lon="6.61102">
        <ele>1532.5</ele>
        <time>2013-09-03T09:04:43Z</time>
      </trkpt>
      <trkpt lat="44.33382" lon="6.61068">
        <ele>1534.9</ele>
        <time>2013-09-03T09:05:01Z</time>
      </trkpt>
      <trkpt lat="44.3336" lon="6.61041">
        <ele>1537.3</ele>
        <time>2013-09-03T09:05:17Z</time>
      </trkpt>
      <trkpt lat="44.33331" lon="6.61025">
        <ele>1540.2</ele>
        <time>2013-09-03T09:05:34Z</time>
      </trkpt>
      <trkpt lat="44.33302" lon="6.61001">
        <ele>1542.6</ele>
        <time>2013-09-03T09:05:50Z</time>
      </trkpt>
      <trkpt lat="44.33308" lon="6.60968">
        <ele>1545</ele>
        <time>2013-09-03T09:06:03Z</time>
      </trkpt>
      <trkpt lat="44.33328" lon="6.60934">
        <ele>1548.3</ele>
        <time>2013-09-03T09:06:18Z</time>
      </trkpt>
      <trkpt lat="44.3335" lon="6.60883">
        <ele>1551.2</ele>
        <time>2013-09-03T09:06:36Z</time>
      </trkpt>
      <trkpt lat="44.33379" lon="6.60867">
        <ele>1553.6</ele>
        <time>2013-09-03T09:06:52Z</time>
      </trkpt>
      <trkpt lat="44.33396" lon="6.60835">
        <ele>1555.6</ele>
        <time>2013-09-03T09:07:06Z</time>
      </trkpt>
      <trkpt lat="44.33403" lon="6.60797">
        <ele>1557.5</ele>
        <time>2013-09-03T09:07:20Z</time>
      </trkpt>
      <trkpt lat="44.33418" lon="6.60759">
        <ele>1559.9</ele>
        <time>2013-09-03T09:07:34Z</time>
      </trkpt>
      <trkpt lat="44.33443" lon="6.60756">
        <ele>1561.3</ele>
        <time>2013-09-03T09:07:47Z</time>
      </trkpt>
      <trkpt lat="44.33471" lon="6.60733">
        <ele>1563.7</ele>
        <time>2013-09-03T09:08:04Z</time>
      </trkpt>
      <trkpt lat="44.33486" lon="6.60689">
        <ele>1565.2</ele>
        <time>2013-09-03T09:08:20Z</time>
      </trkpt>
      <trkpt lat="44.33477" lon="6.60627">
        <ele>1568.1</ele>
        <time>2013-09-03T09:08:38Z</time>
      </trkpt>
      <trkpt lat="44.33477" lon="6.60623">
        <ele>1568.1</ele>
        <time>2013-09-03T09:08:39Z</time>
      </trkpt>
      <trkpt lat="44.33492" lon="6.60582">
        <ele>1570</ele>
        <time>2013-09-03T09:08:52Z</time>
      </trkpt>
      <trkpt lat="44.33517" lon="6.60548">
        <ele>1571.9</ele>
        <time>2013-09-03T09:09:05Z</time>
      </trkpt>
      <trkpt lat="44.33533" lon="6.60491">
        <ele>1574.3</ele>
        <time>2013-09-03T09:09:22Z</time>
      </trkpt>
      <trkpt lat="44.3355" lon="6.60426">
        <ele>1577.2</ele>
        <time>2013-09-03T09:09:40Z</time>
      </trkpt>
      <trkpt lat="44.3356" lon="6.60386">
        <ele>1578.6</ele>
        <time>2013-09-03T09:09:51Z</time>
      </trkpt>
      <trkpt lat="44.33573" lon="6.6034">
        <ele>1579.6</ele>
        <time>2013-09-03T09:10:04Z</time>
      </trkpt>
      <trkpt lat="44.33572" lon="6.60299">
        <ele>1582</ele>
        <time>2013-09-03T09:10:17Z</time>
      </trkpt>
      <trkpt lat="44.33579" lon="6.60244">
        <ele>1584.4</ele>
        <time>2013-09-03T09:10:34Z</time>
      </trkpt>
      <trkpt lat="44.33591" lon="6.6018">
        <ele>1586.8</ele>
        <time>2013-09-03T09:10:54Z</time>
      </trkpt>
      <trkpt lat="44.33616" lon="6.60151">
        <ele>1588.2</ele>
        <time>2013-09-03T09:11:07Z</time>
      </trkpt>
      <trkpt lat="44.33632" lon="6.60108">
        <ele>1588.2</ele>
        <time>2013-09-03T09:11:18Z</time>
      </trkpt>
      <trkpt lat="44.3365" lon="6.60056">
        <ele>1589.7</ele>
        <time>2013-09-03T09:11:31Z</time>
      </trkpt>
      <trkpt lat="44.3365" lon="6.60012">
        <ele>1590.2</ele>
        <time>2013-09-03T09:11:42Z</time>
      </trkpt>
      <trkpt lat="44.33621" lon="6.6001">
        <ele>1590.2</ele>
        <time>2013-09-03T09:11:51Z</time>
      </trkpt>
      <trkpt lat="44.33618" lon="6.60012">
        <ele>1590.2</ele>
        <time>2013-09-03T09:11:52Z</time>
      </trkpt>
      <trkpt lat="44.33614" lon="6.60015">
        <ele>1590.2</ele>
        <time>2013-09-03T09:11:53Z</time>
      </trkpt>
      <trkpt lat="44.33611" lon="6.60019">
        <ele>1590.6</ele>
        <time>2013-09-03T09:11:54Z</time>
      </trkpt>
      <trkpt lat="44.33604" lon="6.60027">
        <ele>1590.2</ele>
        <time>2013-09-03T09:11:56Z</time>
      </trkpt>
      <trkpt lat="44.33601" lon="6.60029">
        <ele>1590.2</ele>
        <time>2013-09-03T09:11:57Z</time>
      </trkpt>
      <trkpt lat="44.33597" lon="6.60031">
        <ele>1589.7</ele>
        <time>2013-09-03T09:11:58Z</time>
      </trkpt>
      <trkpt lat="44.33593" lon="6.6003">
        <ele>1590.2</ele>
        <time>2013-09-03T09:11:59Z</time>
      </trkpt>
      <trkpt lat="44.33589" lon="6.60029">
        <ele>1590.2</ele>
        <time>2013-09-03T09:12:00Z</time>
      </trkpt>
      <trkpt lat="44.33585" lon="6.60028">
        <ele>1590.2</ele>
        <time>2013-09-03T09:12:01Z</time>
      </trkpt>
      <trkpt lat="44.33581" lon="6.60026">
        <ele>1589.7</ele>
        <time>2013-09-03T09:12:02Z</time>
      </trkpt>
      <trkpt lat="44.33541" lon="6.60014">
        <ele>1590.2</ele>
        <time>2013-09-03T09:12:13Z</time>
      </trkpt>
      <trkpt lat="44.33506" lon="6.60014">
        <ele>1591.1</ele>
        <time>2013-09-03T09:12:24Z</time>
      </trkpt>
      <trkpt lat="44.33468" lon="6.60029">
        <ele>1593.5</ele>
        <time>2013-09-03T09:12:39Z</time>
      </trkpt>
      <trkpt lat="44.33429" lon="6.60013">
        <ele>1596.9</ele>
        <time>2013-09-03T09:12:56Z</time>
      </trkpt>
      <trkpt lat="44.33413" lon="6.59974">
        <ele>1597.9</ele>
        <time>2013-09-03T09:13:09Z</time>
      </trkpt>
      <trkpt lat="44.33412" lon="6.59914">
        <ele>1601.2</ele>
        <time>2013-09-03T09:13:25Z</time>
      </trkpt>
      <trkpt lat="44.33425" lon="6.59875">
        <ele>1603.1</ele>
        <time>2013-09-03T09:13:38Z</time>
      </trkpt>
      <trkpt lat="44.33463" lon="6.59837">
        <ele>1606</ele>
        <time>2013-09-03T09:13:57Z</time>
      </trkpt>
      <trkpt lat="44.3348" lon="6.59792">
        <ele>1607.9</ele>
        <time>2013-09-03T09:14:12Z</time>
      </trkpt>
      <trkpt lat="44.33496" lon="6.59749">
        <ele>1610.4</ele>
        <time>2013-09-03T09:14:26Z</time>
      </trkpt>
      <trkpt lat="44.33512" lon="6.5969">
        <ele>1611.8</ele>
        <time>2013-09-03T09:14:44Z</time>
      </trkpt>
      <trkpt lat="44.33506" lon="6.59638">
        <ele>1614.2</ele>
        <time>2013-09-03T09:14:59Z</time>
      </trkpt>
      <trkpt lat="44.33515" lon="6.59581">
        <ele>1616.6</ele>
        <time>2013-09-03T09:15:17Z</time>
      </trkpt>
      <trkpt lat="44.33533" lon="6.5953">
        <ele>1619</ele>
        <time>2013-09-03T09:15:34Z</time>
      </trkpt>
      <trkpt lat="44.33517" lon="6.59488">
        <ele>1620.9</ele>
        <time>2013-09-03T09:15:48Z</time>
      </trkpt>
      <trkpt lat="44.33506" lon="6.59422">
        <ele>1622.8</ele>
        <time>2013-09-03T09:16:06Z</time>
      </trkpt>
      <trkpt lat="44.33506" lon="6.59373">
        <ele>1624.8</ele>
        <time>2013-09-03T09:16:21Z</time>
      </trkpt>
      <trkpt lat="44.33507" lon="6.59368">
        <ele>1625.3</ele>
        <time>2013-09-03T09:16:23Z</time>
      </trkpt>
      <trkpt lat="44.33507" lon="6.59367">
        <ele>1625.3</ele>
        <time>2013-09-03T09:16:24Z</time>
      </trkpt>
      <trkpt lat="44.33508" lon="6.59365">
        <ele>1624.8</ele>
        <time>2013-09-03T09:16:25Z</time>
      </trkpt>
      <trkpt lat="44.33509" lon="6.59363">
        <ele>1625.3</ele>
        <time>2013-09-03T09:16:26Z</time>
      </trkpt>
      <trkpt lat="44.33509" lon="6.59361">
        <ele>1625.3</ele>
        <time>2013-09-03T09:16:27Z</time>
      </trkpt>
      <trkpt lat="44.33509" lon="6.59359">
        <ele>1625.3</ele>
        <time>2013-09-03T09:16:28Z</time>
      </trkpt>
      <trkpt lat="44.3351" lon="6.59356">
        <ele>1626.2</ele>
        <time>2013-09-03T09:16:29Z</time>
      </trkpt>
      <trkpt lat="44.3351" lon="6.59354">
        <ele>1625.7</ele>
        <time>2013-09-03T09:16:30Z</time>
      </trkpt>
      <trkpt lat="44.33511" lon="6.59351">
        <ele>1625.7</ele>
        <time>2013-09-03T09:16:31Z</time>
      </trkpt>
      <trkpt lat="44.33512" lon="6.59349">
        <ele>1625.7</ele>
        <time>2013-09-03T09:16:32Z</time>
      </trkpt>
      <trkpt lat="44.33512" lon="6.59346">
        <ele>1626.2</ele>
        <time>2013-09-03T09:16:33Z</time>
      </trkpt>
      <trkpt lat="44.33512" lon="6.59344">
        <ele>1625.7</ele>
        <time>2013-09-03T09:16:34Z</time>
      </trkpt>
      <trkpt lat="44.33513" lon="6.59342">
        <ele>1626.2</ele>
        <time>2013-09-03T09:16:35Z</time>
      </trkpt>
      <trkpt lat="44.33513" lon="6.5934">
        <ele>1626.7</ele>
        <time>2013-09-03T09:16:36Z</time>
      </trkpt>
      <trkpt lat="44.33515" lon="6.59294">
        <ele>1628.6</ele>
        <time>2013-09-03T09:16:53Z</time>
      </trkpt>
      <trkpt lat="44.33524" lon="6.59249">
        <ele>1630.5</ele>
        <time>2013-09-03T09:17:10Z</time>
      </trkpt>
      <trkpt lat="44.33548" lon="6.59226">
        <ele>1632.5</ele>
        <time>2013-09-03T09:17:25Z</time>
      </trkpt>
      <trkpt lat="44.33576" lon="6.59203">
        <ele>1634.4</ele>
        <time>2013-09-03T09:17:41Z</time>
      </trkpt>
      <trkpt lat="44.33596" lon="6.59172">
        <ele>1635.3</ele>
        <time>2013-09-03T09:17:56Z</time>
      </trkpt>
      <trkpt lat="44.33597" lon="6.5917">
        <ele>1635.3</ele>
        <time>2013-09-03T09:17:57Z</time>
      </trkpt>
      <trkpt lat="44.33598" lon="6.59168">
        <ele>1635.8</ele>
        <time>2013-09-03T09:17:58Z</time>
      </trkpt>
      <trkpt lat="44.336" lon="6.59166">
        <ele>1635.8</ele>
        <time>2013-09-03T09:17:59Z</time>
      </trkpt>
      <trkpt lat="44.336" lon="6.59164">
        <ele>1636.3</ele>
        <time>2013-09-03T09:18:00Z</time>
      </trkpt>
      <trkpt lat="44.33601" lon="6.59161">
        <ele>1635.8</ele>
        <time>2013-09-03T09:18:01Z</time>
      </trkpt>
      <trkpt lat="44.33584" lon="6.59133">
        <ele>1637.3</ele>
        <time>2013-09-03T09:18:13Z</time>
      </trkpt>
      <trkpt lat="44.33543" lon="6.59119">
        <ele>1638.7</ele>
        <time>2013-09-03T09:18:27Z</time>
      </trkpt>
      <trkpt lat="44.33518" lon="6.59082">
        <ele>1641.1</ele>
        <time>2013-09-03T09:18:41Z</time>
      </trkpt>
      <trkpt lat="44.33498" lon="6.59031">
        <ele>1643.5</ele>
        <time>2013-09-03T09:18:58Z</time>
      </trkpt>
      <trkpt lat="44.33485" lon="6.58971">
        <ele>1645.9</ele>
        <time>2013-09-03T09:19:16Z</time>
      </trkpt>
      <trkpt lat="44.33485" lon="6.58901">
        <ele>1648.8</ele>
        <time>2013-09-03T09:19:36Z</time>
      </trkpt>
      <trkpt lat="44.33489" lon="6.58845">
        <ele>1650.7</ele>
        <time>2013-09-03T09:19:53Z</time>
      </trkpt>
      <trkpt lat="44.33499" lon="6.58785">
        <ele>1652.6</ele>
        <time>2013-09-03T09:20:10Z</time>
      </trkpt>
      <trkpt lat="44.33509" lon="6.58735">
        <ele>1654.6</ele>
        <time>2013-09-03T09:20:24Z</time>
      </trkpt>
      <trkpt lat="44.33533" lon="6.58694">
        <ele>1657</ele>
        <time>2013-09-03T09:20:39Z</time>
      </trkpt>
      <trkpt lat="44.3355" lon="6.5865">
        <ele>1658.9</ele>
        <time>2013-09-03T09:20:54Z</time>
      </trkpt>
      <trkpt lat="44.33575" lon="6.58592">
        <ele>1661.3</ele>
        <time>2013-09-03T09:21:12Z</time>
      </trkpt>
      <trkpt lat="44.33589" lon="6.5856">
        <ele>1662.3</ele>
        <time>2013-09-03T09:21:25Z</time>
      </trkpt>
      <trkpt lat="44.33615" lon="6.58502">
        <ele>1665.1</ele>
        <time>2013-09-03T09:21:44Z</time>
      </trkpt>
      <trkpt lat="44.33616" lon="6.58435">
        <ele>1667.5</ele>
        <time>2013-09-03T09:22:02Z</time>
      </trkpt>
      <trkpt lat="44.33633" lon="6.58369">
        <ele>1670</ele>
        <time>2013-09-03T09:22:20Z</time>
      </trkpt>
      <trkpt lat="44.33649" lon="6.5833">
        <ele>1671.9</ele>
        <time>2013-09-03T09:22:36Z</time>
      </trkpt>
      <trkpt lat="44.33645" lon="6.58298">
        <ele>1672.8</ele>
        <time>2013-09-03T09:22:47Z</time>
      </trkpt>
      <trkpt lat="44.33627" lon="6.5829">
        <ele>1673.3</ele>
        <time>2013-09-03T09:22:55Z</time>
      </trkpt>
      <trkpt lat="44.33624" lon="6.58292">
        <ele>1672.8</ele>
        <time>2013-09-03T09:22:56Z</time>
      </trkpt>
      <trkpt lat="44.336" lon="6.58317">
        <ele>1674.8</ele>
        <time>2013-09-03T09:23:11Z</time>
      </trkpt>
      <trkpt lat="44.33597" lon="6.58316">
        <ele>1674.3</ele>
        <time>2013-09-03T09:23:25Z</time>
      </trkpt>
      <trkpt lat="44.33593" lon="6.5832">
        <ele>1674.3</ele>
        <time>2013-09-03T09:24:04Z</time>
      </trkpt>
      <trkpt lat="44.33596" lon="6.58317">
        <ele>1674.8</ele>
        <time>2013-09-03T09:24:43Z</time>
      </trkpt>
      <trkpt lat="44.33595" lon="6.58324">
        <ele>1674.8</ele>
        <time>2013-09-03T09:25:14Z</time>
      </trkpt>
      <trkpt lat="44.33596" lon="6.5832">
        <ele>1675.7</ele>
        <time>2013-09-03T09:25:48Z</time>
      </trkpt>
      <trkpt lat="44.33595" lon="6.58312">
        <ele>1674.8</ele>
        <time>2013-09-03T09:26:23Z</time>
      </trkpt>
      <trkpt lat="44.33598" lon="6.58314">
        <ele>1675.2</ele>
        <time>2013-09-03T09:26:58Z</time>
      </trkpt>
      <trkpt lat="44.33595" lon="6.58314">
        <ele>1675.2</ele>
        <time>2013-09-03T09:27:01Z</time>
      </trkpt>
      <trkpt lat="44.33594" lon="6.58314">
        <ele>1675.2</ele>
        <time>2013-09-03T09:27:02Z</time>
      </trkpt>
      <trkpt lat="44.33592" lon="6.58313">
        <ele>1675.7</ele>
        <time>2013-09-03T09:27:03Z</time>
      </trkpt>
      <trkpt lat="44.3359" lon="6.58313">
        <ele>1675.7</ele>
        <time>2013-09-03T09:27:04Z</time>
      </trkpt>
      <trkpt lat="44.33588" lon="6.58313">
        <ele>1675.7</ele>
        <time>2013-09-03T09:27:05Z</time>
      </trkpt>
      <trkpt lat="44.33586" lon="6.58314">
        <ele>1675.7</ele>
        <time>2013-09-03T09:27:06Z</time>
      </trkpt>
      <trkpt lat="44.33553" lon="6.58332">
        <ele>1677.6</ele>
        <time>2013-09-03T09:27:22Z</time>
      </trkpt>
      <trkpt lat="44.33537" lon="6.58358">
        <ele>1679.1</ele>
        <time>2013-09-03T09:27:34Z</time>
      </trkpt>
      <trkpt lat="44.33517" lon="6.5839">
        <ele>1680.5</ele>
        <time>2013-09-03T09:27:49Z</time>
      </trkpt>
      <trkpt lat="44.33497" lon="6.58429">
        <ele>1681</ele>
        <time>2013-09-03T09:28:03Z</time>
      </trkpt>
      <trkpt lat="44.33458" lon="6.58446">
        <ele>1682.4</ele>
        <time>2013-09-03T09:28:19Z</time>
      </trkpt>
      <trkpt lat="44.33419" lon="6.58454">
        <ele>1684.9</ele>
        <time>2013-09-03T09:28:34Z</time>
      </trkpt>
      <trkpt lat="44.3339" lon="6.58473">
        <ele>1687.3</ele>
        <time>2013-09-03T09:28:49Z</time>
      </trkpt>
      <trkpt lat="44.33366" lon="6.58495">
        <ele>1689.7</ele>
        <time>2013-09-03T09:29:04Z</time>
      </trkpt>
      <trkpt lat="44.3333" lon="6.58506">
        <ele>1691.6</ele>
        <time>2013-09-03T09:29:21Z</time>
      </trkpt>
      <trkpt lat="44.33293" lon="6.58513">
        <ele>1694.9</ele>
        <time>2013-09-03T09:29:38Z</time>
      </trkpt>
      <trkpt lat="44.33261" lon="6.58499">
        <ele>1697.8</ele>
        <time>2013-09-03T09:29:55Z</time>
      </trkpt>
      <trkpt lat="44.33238" lon="6.58457">
        <ele>1699.8</ele>
        <time>2013-09-03T09:30:13Z</time>
      </trkpt>
      <trkpt lat="44.33212" lon="6.5844">
        <ele>1702.2</ele>
        <time>2013-09-03T09:30:28Z</time>
      </trkpt>
      <trkpt lat="44.33188" lon="6.58452">
        <ele>1704.1</ele>
        <time>2013-09-03T09:30:41Z</time>
      </trkpt>
      <trkpt lat="44.33191" lon="6.58482">
        <ele>1706</ele>
        <time>2013-09-03T09:30:53Z</time>
      </trkpt>
      <trkpt lat="44.33193" lon="6.58525">
        <ele>1707.9</ele>
        <time>2013-09-03T09:31:07Z</time>
      </trkpt>
      <trkpt lat="44.33171" lon="6.58574">
        <ele>1709.8</ele>
        <time>2013-09-03T09:31:26Z</time>
      </trkpt>
      <trkpt lat="44.3315" lon="6.58606">
        <ele>1711.8</ele>
        <time>2013-09-03T09:31:40Z</time>
      </trkpt>
      <trkpt lat="44.3313" lon="6.5865">
        <ele>1713.2</ele>
        <time>2013-09-03T09:31:56Z</time>
      </trkpt>
      <trkpt lat="44.33113" lon="6.58703">
        <ele>1716.1</ele>
        <time>2013-09-03T09:32:15Z</time>
      </trkpt>
      <trkpt lat="44.3308" lon="6.58729">
        <ele>1719</ele>
        <time>2013-09-03T09:32:33Z</time>
      </trkpt>
      <trkpt lat="44.33053" lon="6.58741">
        <ele>1721.9</ele>
        <time>2013-09-03T09:32:47Z</time>
      </trkpt>
      <trkpt lat="44.33018" lon="6.58754">
        <ele>1724.7</ele>
        <time>2013-09-03T09:33:04Z</time>
      </trkpt>
      <trkpt lat="44.33013" lon="6.58759">
        <ele>1724.7</ele>
        <time>2013-09-03T09:33:07Z</time>
      </trkpt>
      <trkpt lat="44.33018" lon="6.58786">
        <ele>1726.2</ele>
        <time>2013-09-03T09:33:17Z</time>
      </trkpt>
      <trkpt lat="44.33054" lon="6.58812">
        <ele>1728.1</ele>
        <time>2013-09-03T09:33:36Z</time>
      </trkpt>
      <trkpt lat="44.33077" lon="6.58839">
        <ele>1730.5</ele>
        <time>2013-09-03T09:33:50Z</time>
      </trkpt>
      <trkpt lat="44.33105" lon="6.58878">
        <ele>1732.4</ele>
        <time>2013-09-03T09:34:07Z</time>
      </trkpt>
      <trkpt lat="44.33109" lon="6.58923">
        <ele>1734.4</ele>
        <time>2013-09-03T09:34:22Z</time>
      </trkpt>
      <trkpt lat="44.331" lon="6.58963">
        <ele>1735.3</ele>
        <time>2013-09-03T09:34:35Z</time>
      </trkpt>
      <trkpt lat="44.33071" lon="6.58987">
        <ele>1737.2</ele>
        <time>2013-09-03T09:34:50Z</time>
      </trkpt>
      <trkpt lat="44.33037" lon="6.58996">
        <ele>1739.6</ele>
        <time>2013-09-03T09:35:05Z</time>
      </trkpt>
      <trkpt lat="44.33008" lon="6.59012">
        <ele>1742.1</ele>
        <time>2013-09-03T09:35:18Z</time>
      </trkpt>
      <trkpt lat="44.32981" lon="6.5905">
        <ele>1744</ele>
        <time>2013-09-03T09:35:34Z</time>
      </trkpt>
      <trkpt lat="44.32958" lon="6.59103">
        <ele>1746.9</ele>
        <time>2013-09-03T09:35:53Z</time>
      </trkpt>
      <trkpt lat="44.32951" lon="6.59141">
        <ele>1748.8</ele>
        <time>2013-09-03T09:36:07Z</time>
      </trkpt>
      <trkpt lat="44.3295" lon="6.59165">
        <ele>1750.2</ele>
        <time>2013-09-03T09:36:15Z</time>
      </trkpt>
      <trkpt lat="44.3295" lon="6.59168">
        <ele>1750.2</ele>
        <time>2013-09-03T09:36:16Z</time>
      </trkpt>
      <trkpt lat="44.32949" lon="6.5917">
        <ele>1750.2</ele>
        <time>2013-09-03T09:36:17Z</time>
      </trkpt>
      <trkpt lat="44.32948" lon="6.59173">
        <ele>1749.7</ele>
        <time>2013-09-03T09:36:18Z</time>
      </trkpt>
      <trkpt lat="44.32947" lon="6.59175">
        <ele>1750.7</ele>
        <time>2013-09-03T09:36:19Z</time>
      </trkpt>
      <trkpt lat="44.32945" lon="6.59177">
        <ele>1750.7</ele>
        <time>2013-09-03T09:36:20Z</time>
      </trkpt>
      <trkpt lat="44.32944" lon="6.59178">
        <ele>1751.2</ele>
        <time>2013-09-03T09:36:21Z</time>
      </trkpt>
      <trkpt lat="44.32923" lon="6.5921">
        <ele>1752.6</ele>
        <time>2013-09-03T09:36:35Z</time>
      </trkpt>
      <trkpt lat="44.32927" lon="6.59244">
        <ele>1754.5</ele>
        <time>2013-09-03T09:36:48Z</time>
      </trkpt>
      <trkpt lat="44.32927" lon="6.59263">
        <ele>1756.5</ele>
        <time>2013-09-03T09:36:58Z</time>
      </trkpt>
      <trkpt lat="44.32906" lon="6.59295">
        <ele>1757.9</ele>
        <time>2013-09-03T09:37:11Z</time>
      </trkpt>
      <trkpt lat="44.32896" lon="6.5931">
        <ele>1760.3</ele>
        <time>2013-09-03T09:37:19Z</time>
      </trkpt>
      <trkpt lat="44.32883" lon="6.59321">
        <ele>1760.8</ele>
        <time>2013-09-03T09:37:26Z</time>
      </trkpt>
      <trkpt lat="44.3288" lon="6.59322">
        <ele>1761.3</ele>
        <time>2013-09-03T09:37:27Z</time>
      </trkpt>
      <trkpt lat="44.32879" lon="6.59321">
        <ele>1761.8</ele>
        <time>2013-09-03T09:37:28Z</time>
      </trkpt>
      <trkpt lat="44.32877" lon="6.59321">
        <ele>1762.2</ele>
        <time>2013-09-03T09:37:29Z</time>
      </trkpt>
      <trkpt lat="44.32875" lon="6.5932">
        <ele>1761.8</ele>
        <time>2013-09-03T09:37:30Z</time>
      </trkpt>
      <trkpt lat="44.32874" lon="6.59318">
        <ele>1761.8</ele>
        <time>2013-09-03T09:37:31Z</time>
      </trkpt>
      <trkpt lat="44.32872" lon="6.59316">
        <ele>1762.2</ele>
        <time>2013-09-03T09:37:32Z</time>
      </trkpt>
      <trkpt lat="44.32871" lon="6.59314">
        <ele>1762.2</ele>
        <time>2013-09-03T09:37:33Z</time>
      </trkpt>
      <trkpt lat="44.3287" lon="6.59312">
        <ele>1762.7</ele>
        <time>2013-09-03T09:37:34Z</time>
      </trkpt>
      <trkpt lat="44.32869" lon="6.59309">
        <ele>1762.7</ele>
        <time>2013-09-03T09:37:35Z</time>
      </trkpt>
      <trkpt lat="44.32868" lon="6.59307">
        <ele>1762.7</ele>
        <time>2013-09-03T09:37:36Z</time>
      </trkpt>
      <trkpt lat="44.32868" lon="6.59304">
        <ele>1763.7</ele>
        <time>2013-09-03T09:37:37Z</time>
      </trkpt>
      <trkpt lat="44.32868" lon="6.59302">
        <ele>1763.2</ele>
        <time>2013-09-03T09:37:38Z</time>
      </trkpt>
      <trkpt lat="44.32868" lon="6.59297">
        <ele>1763.7</ele>
        <time>2013-09-03T09:37:42Z</time>
      </trkpt>
      <trkpt lat="44.32869" lon="6.59295">
        <ele>1764.2</ele>
        <time>2013-09-03T09:37:43Z</time>
      </trkpt>
      <trkpt lat="44.3287" lon="6.59292">
        <ele>1764.2</ele>
        <time>2013-09-03T09:37:44Z</time>
      </trkpt>
      <trkpt lat="44.3287" lon="6.5929">
        <ele>1764.2</ele>
        <time>2013-09-03T09:37:45Z</time>
      </trkpt>
      <trkpt lat="44.32872" lon="6.59287">
        <ele>1764.6</ele>
        <time>2013-09-03T09:37:46Z</time>
      </trkpt>
      <trkpt lat="44.32874" lon="6.59284">
        <ele>1764.6</ele>
        <time>2013-09-03T09:37:47Z</time>
      </trkpt>
      <trkpt lat="44.32875" lon="6.59281">
        <ele>1764.6</ele>
        <time>2013-09-03T09:37:48Z</time>
      </trkpt>
      <trkpt lat="44.32875" lon="6.59279">
        <ele>1765.1</ele>
        <time>2013-09-03T09:37:49Z</time>
      </trkpt>
      <trkpt lat="44.32876" lon="6.59276">
        <ele>1764.6</ele>
        <time>2013-09-03T09:37:50Z</time>
      </trkpt>
      <trkpt lat="44.32878" lon="6.59273">
        <ele>1765.1</ele>
        <time>2013-09-03T09:37:51Z</time>
      </trkpt>
      <trkpt lat="44.32879" lon="6.59271">
        <ele>1765.6</ele>
        <time>2013-09-03T09:37:52Z</time>
      </trkpt>
      <trkpt lat="44.32881" lon="6.59268">
        <ele>1765.6</ele>
        <time>2013-09-03T09:37:53Z</time>
      </trkpt>
      <trkpt lat="44.32887" lon="6.59231">
        <ele>1768</ele>
        <time>2013-09-03T09:38:09Z</time>
      </trkpt>
      <trkpt lat="44.32888" lon="6.5919">
        <ele>1769.4</ele>
        <time>2013-09-03T09:38:23Z</time>
      </trkpt>
      <trkpt lat="44.32893" lon="6.59149">
        <ele>1771.9</ele>
        <time>2013-09-03T09:38:40Z</time>
      </trkpt>
      <trkpt lat="44.32891" lon="6.59116">
        <ele>1773.8</ele>
        <time>2013-09-03T09:38:53Z</time>
      </trkpt>
      <trkpt lat="44.32885" lon="6.59071">
        <ele>1775.7</ele>
        <time>2013-09-03T09:39:10Z</time>
      </trkpt>
      <trkpt lat="44.32884" lon="6.59069">
        <ele>1776.2</ele>
        <time>2013-09-03T09:39:11Z</time>
      </trkpt>
      <trkpt lat="44.32884" lon="6.59067">
        <ele>1776.7</ele>
        <time>2013-09-03T09:39:12Z</time>
      </trkpt>
      <trkpt lat="44.32882" lon="6.59058">
        <ele>1776.7</ele>
        <time>2013-09-03T09:39:16Z</time>
      </trkpt>
      <trkpt lat="44.32881" lon="6.59056">
        <ele>1777.1</ele>
        <time>2013-09-03T09:39:17Z</time>
      </trkpt>
      <trkpt lat="44.3288" lon="6.59053">
        <ele>1777.1</ele>
        <time>2013-09-03T09:39:18Z</time>
      </trkpt>
      <trkpt lat="44.3288" lon="6.59051">
        <ele>1777.1</ele>
        <time>2013-09-03T09:39:19Z</time>
      </trkpt>
      <trkpt lat="44.3288" lon="6.59051">
        <ele>1777.6</ele>
        <time>2013-09-03T09:39:29Z</time>
      </trkpt>
      <trkpt lat="44.32883" lon="6.59049">
        <ele>1777.6</ele>
        <time>2013-09-03T09:40:00Z</time>
      </trkpt>
      <trkpt lat="44.32877" lon="6.59048">
        <ele>1778.6</ele>
        <time>2013-09-03T09:40:32Z</time>
      </trkpt>
      <trkpt lat="44.32882" lon="6.59048">
        <ele>1778.6</ele>
        <time>2013-09-03T09:41:01Z</time>
      </trkpt>
      <trkpt lat="44.32887" lon="6.59043">
        <ele>1779.1</ele>
        <time>2013-09-03T09:41:29Z</time>
      </trkpt>
      <trkpt lat="44.32886" lon="6.59054">
        <ele>1779.5</ele>
        <time>2013-09-03T09:41:44Z</time>
      </trkpt>
      <trkpt lat="44.32884" lon="6.59055">
        <ele>1779.5</ele>
        <time>2013-09-03T09:41:45Z</time>
      </trkpt>
      <trkpt lat="44.32872" lon="6.59062">
        <ele>1780.5</ele>
        <time>2013-09-03T09:41:52Z</time>
      </trkpt>
      <trkpt lat="44.32869" lon="6.59068">
        <ele>1781.5</ele>
        <time>2013-09-03T09:41:55Z</time>
      </trkpt>
      <trkpt lat="44.32868" lon="6.59071">
        <ele>1781.5</ele>
        <time>2013-09-03T09:41:56Z</time>
      </trkpt>
      <trkpt lat="44.32867" lon="6.59073">
        <ele>1781.5</ele>
        <time>2013-09-03T09:41:57Z</time>
      </trkpt>
      <trkpt lat="44.32866" lon="6.59075">
        <ele>1781.9</ele>
        <time>2013-09-03T09:41:58Z</time>
      </trkpt>
      <trkpt lat="44.32866" lon="6.59077">
        <ele>1781.9</ele>
        <time>2013-09-03T09:41:59Z</time>
      </trkpt>
      <trkpt lat="44.32866" lon="6.5908">
        <ele>1782.4</ele>
        <time>2013-09-03T09:42:00Z</time>
      </trkpt>
      <trkpt lat="44.32866" lon="6.59083">
        <ele>1782.4</ele>
        <time>2013-09-03T09:42:01Z</time>
      </trkpt>
      <trkpt lat="44.32866" lon="6.59085">
        <ele>1782.9</ele>
        <time>2013-09-03T09:42:02Z</time>
      </trkpt>
      <trkpt lat="44.32866" lon="6.59088">
        <ele>1782.4</ele>
        <time>2013-09-03T09:42:03Z</time>
      </trkpt>
      <trkpt lat="44.32866" lon="6.59091">
        <ele>1782.4</ele>
        <time>2013-09-03T09:42:04Z</time>
      </trkpt>
      <trkpt lat="44.32864" lon="6.59122">
        <ele>1784.3</ele>
        <time>2013-09-03T09:42:15Z</time>
      </trkpt>
      <trkpt lat="44.32851" lon="6.59151">
        <ele>1786.3</ele>
        <time>2013-09-03T09:42:28Z</time>
      </trkpt>
      <trkpt lat="44.32837" lon="6.59183">
        <ele>1788.2</ele>
        <time>2013-09-03T09:42:40Z</time>
      </trkpt>
      <trkpt lat="44.32828" lon="6.59196">
        <ele>1789.2</ele>
        <time>2013-09-03T09:42:46Z</time>
      </trkpt>
      <trkpt lat="44.3281" lon="6.59209">
        <ele>1790.6</ele>
        <time>2013-09-03T09:42:56Z</time>
      </trkpt>
      <trkpt lat="44.32782" lon="6.59231">
        <ele>1793</ele>
        <time>2013-09-03T09:43:12Z</time>
      </trkpt>
      <trkpt lat="44.32784" lon="6.59265">
        <ele>1795.4</ele>
        <time>2013-09-03T09:43:26Z</time>
      </trkpt>
      <trkpt lat="44.32797" lon="6.59298">
        <ele>1797.8</ele>
        <time>2013-09-03T09:43:40Z</time>
      </trkpt>
      <trkpt lat="44.32806" lon="6.59317">
        <ele>1799.2</ele>
        <time>2013-09-03T09:43:48Z</time>
      </trkpt>
      <trkpt lat="44.32811" lon="6.59353">
        <ele>1800.7</ele>
        <time>2013-09-03T09:44:00Z</time>
      </trkpt>
      <trkpt lat="44.32815" lon="6.59401">
        <ele>1803.1</ele>
        <time>2013-09-03T09:44:17Z</time>
      </trkpt>
      <trkpt lat="44.32819" lon="6.59417">
        <ele>1804.1</ele>
        <time>2013-09-03T09:44:22Z</time>
      </trkpt>
      <trkpt lat="44.3282" lon="6.5942">
        <ele>1804.1</ele>
        <time>2013-09-03T09:44:23Z</time>
      </trkpt>
      <trkpt lat="44.3282" lon="6.59423">
        <ele>1804.1</ele>
        <time>2013-09-03T09:44:24Z</time>
      </trkpt>
      <trkpt lat="44.3282" lon="6.59426">
        <ele>1805</ele>
        <time>2013-09-03T09:44:25Z</time>
      </trkpt>
      <trkpt lat="44.32821" lon="6.5943">
        <ele>1804.5</ele>
        <time>2013-09-03T09:44:26Z</time>
      </trkpt>
      <trkpt lat="44.32821" lon="6.59432">
        <ele>1805</ele>
        <time>2013-09-03T09:44:27Z</time>
      </trkpt>
      <trkpt lat="44.32821" lon="6.59436">
        <ele>1805</ele>
        <time>2013-09-03T09:44:28Z</time>
      </trkpt>
      <trkpt lat="44.32821" lon="6.59438">
        <ele>1805.5</ele>
        <time>2013-09-03T09:44:29Z</time>
      </trkpt>
      <trkpt lat="44.32827" lon="6.59484">
        <ele>1807.4</ele>
        <time>2013-09-03T09:44:43Z</time>
      </trkpt>
      <trkpt lat="44.32824" lon="6.59529">
        <ele>1808.9</ele>
        <time>2013-09-03T09:44:57Z</time>
      </trkpt>
      <trkpt lat="44.32813" lon="6.59565">
        <ele>1811.7</ele>
        <time>2013-09-03T09:45:10Z</time>
      </trkpt>
      <trkpt lat="44.32809" lon="6.59616">
        <ele>1815.1</ele>
        <time>2013-09-03T09:45:27Z</time>
      </trkpt>
      <trkpt lat="44.32805" lon="6.59652">
        <ele>1816.6</ele>
        <time>2013-09-03T09:45:39Z</time>
      </trkpt>
      <trkpt lat="44.32807" lon="6.59666">
        <ele>1817.5</ele>
        <time>2013-09-03T09:45:45Z</time>
      </trkpt>
      <trkpt lat="44.32808" lon="6.59668">
        <ele>1818</ele>
        <time>2013-09-03T09:45:46Z</time>
      </trkpt>
      <trkpt lat="44.3281" lon="6.5967">
        <ele>1818.5</ele>
        <time>2013-09-03T09:45:47Z</time>
      </trkpt>
      <trkpt lat="44.32812" lon="6.59672">
        <ele>1818</ele>
        <time>2013-09-03T09:45:48Z</time>
      </trkpt>
      <trkpt lat="44.32814" lon="6.59673">
        <ele>1818.5</ele>
        <time>2013-09-03T09:45:49Z</time>
      </trkpt>
      <trkpt lat="44.32836" lon="6.59703">
        <ele>1821.4</ele>
        <time>2013-09-03T09:46:04Z</time>
      </trkpt>
      <trkpt lat="44.32838" lon="6.59758">
        <ele>1823.8</ele>
        <time>2013-09-03T09:46:22Z</time>
      </trkpt>
      <trkpt lat="44.32836" lon="6.59795">
        <ele>1825.7</ele>
        <time>2013-09-03T09:46:34Z</time>
      </trkpt>
      <trkpt lat="44.32828" lon="6.59834">
        <ele>1828.6</ele>
        <time>2013-09-03T09:46:47Z</time>
      </trkpt>
      <trkpt lat="44.32813" lon="6.59864">
        <ele>1830.5</ele>
        <time>2013-09-03T09:46:59Z</time>
      </trkpt>
      <trkpt lat="44.32796" lon="6.59898">
        <ele>1831.9</ele>
        <time>2013-09-03T09:47:12Z</time>
      </trkpt>
      <trkpt lat="44.32796" lon="6.59945">
        <ele>1834.8</ele>
        <time>2013-09-03T09:47:28Z</time>
      </trkpt>
      <trkpt lat="44.32793" lon="6.59988">
        <ele>1837.7</ele>
        <time>2013-09-03T09:47:43Z</time>
      </trkpt>
      <trkpt lat="44.32783" lon="6.60016">
        <ele>1839.6</ele>
        <time>2013-09-03T09:47:56Z</time>
      </trkpt>
      <trkpt lat="44.32758" lon="6.60016">
        <ele>1841.1</ele>
        <time>2013-09-03T09:48:09Z</time>
      </trkpt>
      <trkpt lat="44.32732" lon="6.60034">
        <ele>1843.5</ele>
        <time>2013-09-03T09:48:24Z</time>
      </trkpt>
      <trkpt lat="44.32719" lon="6.60082">
        <ele>1846.4</ele>
        <time>2013-09-03T09:48:41Z</time>
      </trkpt>
      <trkpt lat="44.32707" lon="6.60114">
        <ele>1847.8</ele>
        <time>2013-09-03T09:48:54Z</time>
      </trkpt>
      <trkpt lat="44.32691" lon="6.60133">
        <ele>1850.2</ele>
        <time>2013-09-03T09:49:08Z</time>
      </trkpt>
      <trkpt lat="44.32695" lon="6.60136">
        <ele>1850.2</ele>
        <time>2013-09-03T09:49:32Z</time>
      </trkpt>
      <trkpt lat="44.32687" lon="6.60147">
        <ele>1850.7</ele>
        <time>2013-09-03T09:49:53Z</time>
      </trkpt>
      <trkpt lat="44.32671" lon="6.60167">
        <ele>1852.6</ele>
        <time>2013-09-03T09:50:05Z</time>
      </trkpt>
      <trkpt lat="44.32654" lon="6.60199">
        <ele>1854.5</ele>
        <time>2013-09-03T09:50:20Z</time>
      </trkpt>
      <trkpt lat="44.32645" lon="6.60215">
        <ele>1856</ele>
        <time>2013-09-03T09:50:28Z</time>
      </trkpt>
      <trkpt lat="44.32645" lon="6.60218">
        <ele>1856.4</ele>
        <time>2013-09-03T09:50:29Z</time>
      </trkpt>
      <trkpt lat="44.32645" lon="6.6022">
        <ele>1856</ele>
        <time>2013-09-03T09:50:30Z</time>
      </trkpt>
      <trkpt lat="44.32645" lon="6.60222">
        <ele>1856.4</ele>
        <time>2013-09-03T09:50:31Z</time>
      </trkpt>
      <trkpt lat="44.32645" lon="6.60225">
        <ele>1856.4</ele>
        <time>2013-09-03T09:50:32Z</time>
      </trkpt>
      <trkpt lat="44.32645" lon="6.60228">
        <ele>1856.4</ele>
        <time>2013-09-03T09:50:33Z</time>
      </trkpt>
      <trkpt lat="44.32645" lon="6.60231">
        <ele>1856.4</ele>
        <time>2013-09-03T09:50:34Z</time>
      </trkpt>
      <trkpt lat="44.32631" lon="6.60276">
        <ele>1858.9</ele>
        <time>2013-09-03T09:50:49Z</time>
      </trkpt>
      <trkpt lat="44.32618" lon="6.60305">
        <ele>1861.7</ele>
        <time>2013-09-03T09:51:03Z</time>
      </trkpt>
      <trkpt lat="44.32605" lon="6.60329">
        <ele>1863.2</ele>
        <time>2013-09-03T09:51:16Z</time>
      </trkpt>
      <trkpt lat="44.32586" lon="6.6035">
        <ele>1866.1</ele>
        <time>2013-09-03T09:51:30Z</time>
      </trkpt>
      <trkpt lat="44.32558" lon="6.6037">
        <ele>1868.5</ele>
        <time>2013-09-03T09:51:46Z</time>
      </trkpt>
      <trkpt lat="44.32525" lon="6.60391">
        <ele>1871.3</ele>
        <time>2013-09-03T09:52:02Z</time>
      </trkpt>
      <trkpt lat="44.32522" lon="6.60392">
        <ele>1871.8</ele>
        <time>2013-09-03T09:52:04Z</time>
      </trkpt>
      <trkpt lat="44.3252" lon="6.60392">
        <ele>1871.8</ele>
        <time>2013-09-03T09:52:05Z</time>
      </trkpt>
      <trkpt lat="44.3249" lon="6.60393">
        <ele>1874.2</ele>
        <time>2013-09-03T09:52:20Z</time>
      </trkpt>
      <trkpt lat="44.32457" lon="6.60398">
        <ele>1877.1</ele>
        <time>2013-09-03T09:52:37Z</time>
      </trkpt>
      <trkpt lat="44.32444" lon="6.60399">
        <ele>1877.6</ele>
        <time>2013-09-03T09:52:47Z</time>
      </trkpt>
      <trkpt lat="44.32442" lon="6.60399">
        <ele>1878.1</ele>
        <time>2013-09-03T09:52:56Z</time>
      </trkpt>
      <trkpt lat="44.32441" lon="6.60399">
        <ele>1878.1</ele>
        <time>2013-09-03T09:52:57Z</time>
      </trkpt>
      <trkpt lat="44.32439" lon="6.60399">
        <ele>1878.1</ele>
        <time>2013-09-03T09:52:58Z</time>
      </trkpt>
      <trkpt lat="44.32404" lon="6.60392">
        <ele>1881.4</ele>
        <time>2013-09-03T09:53:17Z</time>
      </trkpt>
      <trkpt lat="44.32391" lon="6.60358">
        <ele>1882.9</ele>
        <time>2013-09-03T09:53:32Z</time>
      </trkpt>
      <trkpt lat="44.32377" lon="6.60308">
        <ele>1885.8</ele>
        <time>2013-09-03T09:53:50Z</time>
      </trkpt>
      <trkpt lat="44.32347" lon="6.60286">
        <ele>1887.7</ele>
        <time>2013-09-03T09:54:06Z</time>
      </trkpt>
      <trkpt lat="44.32317" lon="6.60273">
        <ele>1891.1</ele>
        <time>2013-09-03T09:54:23Z</time>
      </trkpt>
      <trkpt lat="44.32289" lon="6.60268">
        <ele>1893.5</ele>
        <time>2013-09-03T09:54:38Z</time>
      </trkpt>
      <trkpt lat="44.32264" lon="6.60257">
        <ele>1895.9</ele>
        <time>2013-09-03T09:54:51Z</time>
      </trkpt>
      <trkpt lat="44.32253" lon="6.60251">
        <ele>1896.8</ele>
        <time>2013-09-03T09:54:56Z</time>
      </trkpt>
      <trkpt lat="44.32251" lon="6.6025">
        <ele>1896.8</ele>
        <time>2013-09-03T09:54:57Z</time>
      </trkpt>
      <trkpt lat="44.32229" lon="6.6023">
        <ele>1898.7</ele>
        <time>2013-09-03T09:55:11Z</time>
      </trkpt>
      <trkpt lat="44.32202" lon="6.60208">
        <ele>1902.1</ele>
        <time>2013-09-03T09:55:27Z</time>
      </trkpt>
      <trkpt lat="44.32185" lon="6.60176">
        <ele>1905</ele>
        <time>2013-09-03T09:55:42Z</time>
      </trkpt>
      <trkpt lat="44.32187" lon="6.60135">
        <ele>1906.9</ele>
        <time>2013-09-03T09:55:59Z</time>
      </trkpt>
      <trkpt lat="44.32178" lon="6.60103">
        <ele>1909.3</ele>
        <time>2013-09-03T09:56:12Z</time>
      </trkpt>
      <trkpt lat="44.32149" lon="6.60103">
        <ele>1911.2</ele>
        <time>2013-09-03T09:56:26Z</time>
      </trkpt>
      <trkpt lat="44.32114" lon="6.60098">
        <ele>1913.6</ele>
        <time>2013-09-03T09:56:41Z</time>
      </trkpt>
      <trkpt lat="44.32077" lon="6.60089">
        <ele>1916.5</ele>
        <time>2013-09-03T09:57:00Z</time>
      </trkpt>
      <trkpt lat="44.32043" lon="6.60068">
        <ele>1919.4</ele>
        <time>2013-09-03T09:57:18Z</time>
      </trkpt>
      <trkpt lat="44.32031" lon="6.60024">
        <ele>1921.8</ele>
        <time>2013-09-03T09:57:34Z</time>
      </trkpt>
      <trkpt lat="44.32023" lon="6.59971">
        <ele>1924.7</ele>
        <time>2013-09-03T09:57:53Z</time>
      </trkpt>
      <trkpt lat="44.32025" lon="6.59921">
        <ele>1927.6</ele>
        <time>2013-09-03T09:58:10Z</time>
      </trkpt>
      <trkpt lat="44.32023" lon="6.59879">
        <ele>1930</ele>
        <time>2013-09-03T09:58:27Z</time>
      </trkpt>
      <trkpt lat="44.32013" lon="6.59832">
        <ele>1932.9</ele>
        <time>2013-09-03T09:58:45Z</time>
      </trkpt>
      <trkpt lat="44.32014" lon="6.59791">
        <ele>1935.8</ele>
        <time>2013-09-03T09:59:02Z</time>
      </trkpt>
      <trkpt lat="44.31997" lon="6.59778">
        <ele>1937.7</ele>
        <time>2013-09-03T09:59:14Z</time>
      </trkpt>
      <trkpt lat="44.31967" lon="6.59783">
        <ele>1940.1</ele>
        <time>2013-09-03T09:59:31Z</time>
      </trkpt>
      <trkpt lat="44.31933" lon="6.59791">
        <ele>1942.5</ele>
        <time>2013-09-03T09:59:49Z</time>
      </trkpt>
      <trkpt lat="44.31905" lon="6.5978">
        <ele>1945.9</ele>
        <time>2013-09-03T10:00:05Z</time>
      </trkpt>
      <trkpt lat="44.31877" lon="6.59771">
        <ele>1947.3</ele>
        <time>2013-09-03T10:00:22Z</time>
      </trkpt>
      <trkpt lat="44.31876" lon="6.59771">
        <ele>1947.3</ele>
        <time>2013-09-03T10:00:23Z</time>
      </trkpt>
      <trkpt lat="44.31874" lon="6.59772">
        <ele>1947.8</ele>
        <time>2013-09-03T10:00:24Z</time>
      </trkpt>
      <trkpt lat="44.31872" lon="6.59772">
        <ele>1947.3</ele>
        <time>2013-09-03T10:00:25Z</time>
      </trkpt>
      <trkpt lat="44.31871" lon="6.59772">
        <ele>1948.3</ele>
        <time>2013-09-03T10:00:26Z</time>
      </trkpt>
      <trkpt lat="44.31869" lon="6.59772">
        <ele>1948.3</ele>
        <time>2013-09-03T10:00:27Z</time>
      </trkpt>
      <trkpt lat="44.31837" lon="6.59756">
        <ele>1950.7</ele>
        <time>2013-09-03T10:00:44Z</time>
      </trkpt>
      <trkpt lat="44.31834" lon="6.59721">
        <ele>1953.1</ele>
        <time>2013-09-03T10:00:59Z</time>
      </trkpt>
      <trkpt lat="44.3183" lon="6.59685">
        <ele>1955</ele>
        <time>2013-09-03T10:01:11Z</time>
      </trkpt>
      <trkpt lat="44.31818" lon="6.5964">
        <ele>1957.9</ele>
        <time>2013-09-03T10:01:27Z</time>
      </trkpt>
      <trkpt lat="44.31799" lon="6.59592">
        <ele>1960.8</ele>
        <time>2013-09-03T10:01:46Z</time>
      </trkpt>
      <trkpt lat="44.31783" lon="6.59555">
        <ele>1963.2</ele>
        <time>2013-09-03T10:02:01Z</time>
      </trkpt>
      <trkpt lat="44.31748" lon="6.59518">
        <ele>1966</ele>
        <time>2013-09-03T10:02:22Z</time>
      </trkpt>
      <trkpt lat="44.31721" lon="6.59488">
        <ele>1969.4</ele>
        <time>2013-09-03T10:02:41Z</time>
      </trkpt>
      <trkpt lat="44.31694" lon="6.5946">
        <ele>1972.8</ele>
        <time>2013-09-03T10:03:00Z</time>
      </trkpt>
      <trkpt lat="44.31666" lon="6.59433">
        <ele>1975.7</ele>
        <time>2013-09-03T10:03:19Z</time>
      </trkpt>
      <trkpt lat="44.31643" lon="6.59405">
        <ele>1977.6</ele>
        <time>2013-09-03T10:03:36Z</time>
      </trkpt>
      <trkpt lat="44.31615" lon="6.59409">
        <ele>1980.9</ele>
        <time>2013-09-03T10:03:51Z</time>
      </trkpt>
      <trkpt lat="44.31583" lon="6.59408">
        <ele>1983.8</ele>
        <time>2013-09-03T10:04:08Z</time>
      </trkpt>
      <trkpt lat="44.31551" lon="6.59394">
        <ele>1986.2</ele>
        <time>2013-09-03T10:04:25Z</time>
      </trkpt>
      <trkpt lat="44.31541" lon="6.59425">
        <ele>1987.7</ele>
        <time>2013-09-03T10:04:37Z</time>
      </trkpt>
      <trkpt lat="44.31518" lon="6.59457">
        <ele>1989.1</ele>
        <time>2013-09-03T10:04:51Z</time>
      </trkpt>
      <trkpt lat="44.31485" lon="6.59482">
        <ele>1990.6</ele>
        <time>2013-09-03T10:05:05Z</time>
      </trkpt>
      <trkpt lat="44.3147" lon="6.59485">
        <ele>1992.5</ele>
        <time>2013-09-03T10:05:13Z</time>
      </trkpt>
      <trkpt lat="44.31468" lon="6.5948">
        <ele>1993.4</ele>
        <time>2013-09-03T10:05:15Z</time>
      </trkpt>
      <trkpt lat="44.31469" lon="6.59478">
        <ele>1993</ele>
        <time>2013-09-03T10:05:16Z</time>
      </trkpt>
      <trkpt lat="44.3147" lon="6.59476">
        <ele>1993.4</ele>
        <time>2013-09-03T10:05:17Z</time>
      </trkpt>
      <trkpt lat="44.31471" lon="6.59474">
        <ele>1993.4</ele>
        <time>2013-09-03T10:05:18Z</time>
      </trkpt>
      <trkpt lat="44.31473" lon="6.59472">
        <ele>1993.9</ele>
        <time>2013-09-03T10:05:19Z</time>
      </trkpt>
      <trkpt lat="44.31506" lon="6.59445">
        <ele>1995.4</ele>
        <time>2013-09-03T10:05:34Z</time>
      </trkpt>
      <trkpt lat="44.31523" lon="6.59406">
        <ele>1995.8</ele>
        <time>2013-09-03T10:05:46Z</time>
      </trkpt>
      <trkpt lat="44.31537" lon="6.59367">
        <ele>1998.2</ele>
        <time>2013-09-03T10:05:59Z</time>
      </trkpt>
      <trkpt lat="44.31569" lon="6.59364">
        <ele>1999.2</ele>
        <time>2013-09-03T10:06:10Z</time>
      </trkpt>
      <trkpt lat="44.31608" lon="6.59342">
        <ele>2002.1</ele>
        <time>2013-09-03T10:06:26Z</time>
      </trkpt>
      <trkpt lat="44.31643" lon="6.5934">
        <ele>2003.5</ele>
        <time>2013-09-03T10:06:42Z</time>
      </trkpt>
      <trkpt lat="44.31669" lon="6.59329">
        <ele>2005.9</ele>
        <time>2013-09-03T10:06:56Z</time>
      </trkpt>
      <trkpt lat="44.3169" lon="6.59348">
        <ele>2007.4</ele>
        <time>2013-09-03T10:07:10Z</time>
      </trkpt>
      <trkpt lat="44.3172" lon="6.59365">
        <ele>2010.7</ele>
        <time>2013-09-03T10:07:27Z</time>
      </trkpt>
      <trkpt lat="44.31744" lon="6.59354">
        <ele>2012.7</ele>
        <time>2013-09-03T10:07:43Z</time>
      </trkpt>
      <trkpt lat="44.31772" lon="6.59348">
        <ele>2015.1</ele>
        <time>2013-09-03T10:07:59Z</time>
      </trkpt>
      <trkpt lat="44.31797" lon="6.59371">
        <ele>2016.5</ele>
        <time>2013-09-03T10:08:15Z</time>
      </trkpt>
      <trkpt lat="44.31822" lon="6.59378">
        <ele>2018.9</ele>
        <time>2013-09-03T10:08:32Z</time>
      </trkpt>
      <trkpt lat="44.31824" lon="6.59369">
        <ele>2019.9</ele>
        <time>2013-09-03T10:08:37Z</time>
      </trkpt>
      <trkpt lat="44.31805" lon="6.59336">
        <ele>2022.3</ele>
        <time>2013-09-03T10:08:54Z</time>
      </trkpt>
      <trkpt lat="44.31781" lon="6.59316">
        <ele>2024.2</ele>
        <time>2013-09-03T10:09:10Z</time>
      </trkpt>
      <trkpt lat="44.31751" lon="6.59313">
        <ele>2026.1</ele>
        <time>2013-09-03T10:09:27Z</time>
      </trkpt>
      <trkpt lat="44.31718" lon="6.59293">
        <ele>2029.5</ele>
        <time>2013-09-03T10:09:47Z</time>
      </trkpt>
      <trkpt lat="44.31696" lon="6.59263">
        <ele>2031.9</ele>
        <time>2013-09-03T10:10:04Z</time>
      </trkpt>
      <trkpt lat="44.31674" lon="6.59263">
        <ele>2034.3</ele>
        <time>2013-09-03T10:10:18Z</time>
      </trkpt>
      <trkpt lat="44.31644" lon="6.59263">
        <ele>2036.7</ele>
        <time>2013-09-03T10:10:34Z</time>
      </trkpt>
      <trkpt lat="44.31617" lon="6.59257">
        <ele>2038.6</ele>
        <time>2013-09-03T10:10:49Z</time>
      </trkpt>
      <trkpt lat="44.31589" lon="6.59258">
        <ele>2041.5</ele>
        <time>2013-09-03T10:11:05Z</time>
      </trkpt>
      <trkpt lat="44.31559" lon="6.59253">
        <ele>2043.9</ele>
        <time>2013-09-03T10:11:21Z</time>
      </trkpt>
      <trkpt lat="44.31555" lon="6.59252">
        <ele>2044.4</ele>
        <time>2013-09-03T10:11:23Z</time>
      </trkpt>
      <trkpt lat="44.31521" lon="6.59249">
        <ele>2046.8</ele>
        <time>2013-09-03T10:11:41Z</time>
      </trkpt>
      <trkpt lat="44.31489" lon="6.59249">
        <ele>2048.7</ele>
        <time>2013-09-03T10:11:57Z</time>
      </trkpt>
      <trkpt lat="44.31458" lon="6.59262">
        <ele>2051.6</ele>
        <time>2013-09-03T10:12:13Z</time>
      </trkpt>
      <trkpt lat="44.31428" lon="6.59288">
        <ele>2053.5</ele>
        <time>2013-09-03T10:12:31Z</time>
      </trkpt>
      <trkpt lat="44.31397" lon="6.59311">
        <ele>2055.4</ele>
        <time>2013-09-03T10:12:48Z</time>
      </trkpt>
      <trkpt lat="44.31364" lon="6.59332">
        <ele>2058.3</ele>
        <time>2013-09-03T10:13:06Z</time>
      </trkpt>
      <trkpt lat="44.31332" lon="6.59327">
        <ele>2060.2</ele>
        <time>2013-09-03T10:13:23Z</time>
      </trkpt>
      <trkpt lat="44.3131" lon="6.59324">
        <ele>2062.2</ele>
        <time>2013-09-03T10:13:37Z</time>
      </trkpt>
      <trkpt lat="44.31275" lon="6.59314">
        <ele>2064.6</ele>
        <time>2013-09-03T10:13:56Z</time>
      </trkpt>
      <trkpt lat="44.31252" lon="6.59298">
        <ele>2067.5</ele>
        <time>2013-09-03T10:14:11Z</time>
      </trkpt>
      <trkpt lat="44.31224" lon="6.59286">
        <ele>2068.9</ele>
        <time>2013-09-03T10:14:27Z</time>
      </trkpt>
      <trkpt lat="44.31194" lon="6.59273">
        <ele>2070.8</ele>
        <time>2013-09-03T10:14:43Z</time>
      </trkpt>
      <trkpt lat="44.3118" lon="6.59263">
        <ele>2072.7</ele>
        <time>2013-09-03T10:14:56Z</time>
      </trkpt>
      <trkpt lat="44.31179" lon="6.59264">
        <ele>2072.7</ele>
        <time>2013-09-03T10:15:16Z</time>
      </trkpt>
      <trkpt lat="44.31181" lon="6.59266">
        <ele>2072.7</ele>
        <time>2013-09-03T10:15:38Z</time>
      </trkpt>
      <trkpt lat="44.31183" lon="6.59268">
        <ele>2072.7</ele>
        <time>2013-09-03T10:16:02Z</time>
      </trkpt>
      <trkpt lat="44.31178" lon="6.59263">
        <ele>2073.2</ele>
        <time>2013-09-03T10:16:19Z</time>
      </trkpt>
      <trkpt lat="44.31155" lon="6.59246">
        <ele>2075.6</ele>
        <time>2013-09-03T10:16:35Z</time>
      </trkpt>
      <trkpt lat="44.31131" lon="6.59239">
        <ele>2077.6</ele>
        <time>2013-09-03T10:16:51Z</time>
      </trkpt>
      <trkpt lat="44.31103" lon="6.59244">
        <ele>2080</ele>
        <time>2013-09-03T10:17:09Z</time>
      </trkpt>
      <trkpt lat="44.31072" lon="6.59248">
        <ele>2082.8</ele>
        <time>2013-09-03T10:17:27Z</time>
      </trkpt>
      <trkpt lat="44.31041" lon="6.59258">
        <ele>2084.8</ele>
        <time>2013-09-03T10:17:44Z</time>
      </trkpt>
      <trkpt lat="44.31025" lon="6.59296">
        <ele>2087.6</ele>
        <time>2013-09-03T10:18:02Z</time>
      </trkpt>
      <trkpt lat="44.31024" lon="6.59348">
        <ele>2090.5</ele>
        <time>2013-09-03T10:18:21Z</time>
      </trkpt>
      <trkpt lat="44.31021" lon="6.59394">
        <ele>2092.9</ele>
        <time>2013-09-03T10:18:38Z</time>
      </trkpt>
      <trkpt lat="44.31017" lon="6.59439">
        <ele>2095.3</ele>
        <time>2013-09-03T10:18:55Z</time>
      </trkpt>
      <trkpt lat="44.31017" lon="6.59484">
        <ele>2098.7</ele>
        <time>2013-09-03T10:19:13Z</time>
      </trkpt>
      <trkpt lat="44.31023" lon="6.59521">
        <ele>2100.1</ele>
        <time>2013-09-03T10:19:27Z</time>
      </trkpt>
      <trkpt lat="44.31032" lon="6.59551">
        <ele>2103</ele>
        <time>2013-09-03T10:19:41Z</time>
      </trkpt>
      <trkpt lat="44.31033" lon="6.59552">
        <ele>2102.1</ele>
        <time>2013-09-03T10:19:42Z</time>
      </trkpt>
      <trkpt lat="44.31034" lon="6.59554">
        <ele>2102.5</ele>
        <time>2013-09-03T10:19:43Z</time>
      </trkpt>
      <trkpt lat="44.31041" lon="6.59586">
        <ele>2104.5</ele>
        <time>2013-09-03T10:19:59Z</time>
      </trkpt>
      <trkpt lat="44.31052" lon="6.59623">
        <ele>2106.4</ele>
        <time>2013-09-03T10:20:16Z</time>
      </trkpt>
      <trkpt lat="44.31063" lon="6.59663">
        <ele>2109.3</ele>
        <time>2013-09-03T10:20:34Z</time>
      </trkpt>
      <trkpt lat="44.3107" lon="6.59702">
        <ele>2110.7</ele>
        <time>2013-09-03T10:20:51Z</time>
      </trkpt>
      <trkpt lat="44.31062" lon="6.59744">
        <ele>2112.6</ele>
        <time>2013-09-03T10:21:09Z</time>
      </trkpt>
      <trkpt lat="44.31038" lon="6.59754">
        <ele>2113.6</ele>
        <time>2013-09-03T10:21:21Z</time>
      </trkpt>
      <trkpt lat="44.31003" lon="6.59753">
        <ele>2116.5</ele>
        <time>2013-09-03T10:21:39Z</time>
      </trkpt>
      <trkpt lat="44.30975" lon="6.59742">
        <ele>2118.4</ele>
        <time>2013-09-03T10:21:55Z</time>
      </trkpt>
      <trkpt lat="44.30974" lon="6.59741">
        <ele>2118.4</ele>
        <time>2013-09-03T10:21:56Z</time>
      </trkpt>
      <trkpt lat="44.30972" lon="6.59739">
        <ele>2118.4</ele>
        <time>2013-09-03T10:21:57Z</time>
      </trkpt>
      <trkpt lat="44.30951" lon="6.59716">
        <ele>2120.8</ele>
        <time>2013-09-03T10:22:12Z</time>
      </trkpt>
      <trkpt lat="44.30927" lon="6.59705">
        <ele>2122.3</ele>
        <time>2013-09-03T10:22:25Z</time>
      </trkpt>
      <trkpt lat="44.30905" lon="6.59696">
        <ele>2123.7</ele>
        <time>2013-09-03T10:22:38Z</time>
      </trkpt>
      <trkpt lat="44.30883" lon="6.59676">
        <ele>2126.1</ele>
        <time>2013-09-03T10:22:54Z</time>
      </trkpt>
      <trkpt lat="44.30861" lon="6.59652">
        <ele>2128.5</ele>
        <time>2013-09-03T10:23:09Z</time>
      </trkpt>
      <trkpt lat="44.30837" lon="6.59634">
        <ele>2130.4</ele>
        <time>2013-09-03T10:23:25Z</time>
      </trkpt>
      <trkpt lat="44.30801" lon="6.59629">
        <ele>2132.3</ele>
        <time>2013-09-03T10:23:44Z</time>
      </trkpt>
      <trkpt lat="44.30773" lon="6.59616">
        <ele>2135.7</ele>
        <time>2013-09-03T10:24:01Z</time>
      </trkpt>
      <trkpt lat="44.30743" lon="6.59599">
        <ele>2138.1</ele>
        <time>2013-09-03T10:24:19Z</time>
      </trkpt>
      <trkpt lat="44.30715" lon="6.59577">
        <ele>2141</ele>
        <time>2013-09-03T10:24:37Z</time>
      </trkpt>
      <trkpt lat="44.30698" lon="6.59552">
        <ele>2142.9</ele>
        <time>2013-09-03T10:24:52Z</time>
      </trkpt>
      <trkpt lat="44.30688" lon="6.59525">
        <ele>2144.4</ele>
        <time>2013-09-03T10:25:05Z</time>
      </trkpt>
      <trkpt lat="44.30671" lon="6.59497">
        <ele>2147.2</ele>
        <time>2013-09-03T10:25:19Z</time>
      </trkpt>
      <trkpt lat="44.30647" lon="6.59468">
        <ele>2149.2</ele>
        <time>2013-09-03T10:25:36Z</time>
      </trkpt>
      <trkpt lat="44.30626" lon="6.59456">
        <ele>2151.1</ele>
        <time>2013-09-03T10:25:49Z</time>
      </trkpt>
      <trkpt lat="44.30603" lon="6.59438">
        <ele>2152.5</ele>
        <time>2013-09-03T10:26:03Z</time>
      </trkpt>
      <trkpt lat="44.30574" lon="6.59439">
        <ele>2155.9</ele>
        <time>2013-09-03T10:26:20Z</time>
      </trkpt>
      <trkpt lat="44.30544" lon="6.59456">
        <ele>2158.3</ele>
        <time>2013-09-03T10:26:36Z</time>
      </trkpt>
      <trkpt lat="44.30527" lon="6.59483">
        <ele>2160.2</ele>
        <time>2013-09-03T10:26:50Z</time>
      </trkpt>
      <trkpt lat="44.30505" lon="6.59508">
        <ele>2163.1</ele>
        <time>2013-09-03T10:27:04Z</time>
      </trkpt>
      <trkpt lat="44.30465" lon="6.59506">
        <ele>2166</ele>
        <time>2013-09-03T10:27:24Z</time>
      </trkpt>
      <trkpt lat="44.30436" lon="6.59508">
        <ele>2167.9</ele>
        <time>2013-09-03T10:27:40Z</time>
      </trkpt>
      <trkpt lat="44.30406" lon="6.59521">
        <ele>2170.8</ele>
        <time>2013-09-03T10:27:57Z</time>
      </trkpt>
      <trkpt lat="44.30391" lon="6.59524">
        <ele>2171.8</ele>
        <time>2013-09-03T10:28:06Z</time>
      </trkpt>
      <trkpt lat="44.3039" lon="6.59525">
        <ele>2172.2</ele>
        <time>2013-09-03T10:28:07Z</time>
      </trkpt>
      <trkpt lat="44.30388" lon="6.59527">
        <ele>2172.2</ele>
        <time>2013-09-03T10:28:08Z</time>
      </trkpt>
      <trkpt lat="44.30387" lon="6.59528">
        <ele>2172.2</ele>
        <time>2013-09-03T10:28:09Z</time>
      </trkpt>
      <trkpt lat="44.30385" lon="6.59529">
        <ele>2172.2</ele>
        <time>2013-09-03T10:28:10Z</time>
      </trkpt>
      <trkpt lat="44.30367" lon="6.59551">
        <ele>2174.6</ele>
        <time>2013-09-03T10:28:25Z</time>
      </trkpt>
      <trkpt lat="44.30338" lon="6.59582">
        <ele>2177</ele>
        <time>2013-09-03T10:28:44Z</time>
      </trkpt>
      <trkpt lat="44.30306" lon="6.59606">
        <ele>2179.5</ele>
        <time>2013-09-03T10:29:01Z</time>
      </trkpt>
      <trkpt lat="44.30261" lon="6.59634">
        <ele>2182.3</ele>
        <time>2013-09-03T10:29:24Z</time>
      </trkpt>
      <trkpt lat="44.30237" lon="6.59648">
        <ele>2185.2</ele>
        <time>2013-09-03T10:29:36Z</time>
      </trkpt>
      <trkpt lat="44.30203" lon="6.59657">
        <ele>2188.1</ele>
        <time>2013-09-03T10:29:54Z</time>
      </trkpt>
      <trkpt lat="44.30161" lon="6.59661">
        <ele>2190.5</ele>
        <time>2013-09-03T10:30:15Z</time>
      </trkpt>
      <trkpt lat="44.30128" lon="6.59641">
        <ele>2193.9</ele>
        <time>2013-09-03T10:30:32Z</time>
      </trkpt>
      <trkpt lat="44.30093" lon="6.59621">
        <ele>2196.3</ele>
        <time>2013-09-03T10:30:51Z</time>
      </trkpt>
      <trkpt lat="44.30061" lon="6.59598">
        <ele>2199.2</ele>
        <time>2013-09-03T10:31:09Z</time>
      </trkpt>
      <trkpt lat="44.30024" lon="6.59583">
        <ele>2202.5</ele>
        <time>2013-09-03T10:31:28Z</time>
      </trkpt>
      <trkpt lat="44.29992" lon="6.59576">
        <ele>2204.9</ele>
        <time>2013-09-03T10:31:46Z</time>
      </trkpt>
      <trkpt lat="44.29958" lon="6.59587">
        <ele>2207.8</ele>
        <time>2013-09-03T10:32:04Z</time>
      </trkpt>
      <trkpt lat="44.29921" lon="6.596">
        <ele>2210.7</ele>
        <time>2013-09-03T10:32:23Z</time>
      </trkpt>
      <trkpt lat="44.29883" lon="6.59623">
        <ele>2213.1</ele>
        <time>2013-09-03T10:32:44Z</time>
      </trkpt>
      <trkpt lat="44.29849" lon="6.59633">
        <ele>2216</ele>
        <time>2013-09-03T10:33:01Z</time>
      </trkpt>
      <trkpt lat="44.2981" lon="6.59626">
        <ele>2219.3</ele>
        <time>2013-09-03T10:33:22Z</time>
      </trkpt>
      <trkpt lat="44.29776" lon="6.59609">
        <ele>2221.7</ele>
        <time>2013-09-03T10:33:42Z</time>
      </trkpt>
      <trkpt lat="44.29746" lon="6.59581">
        <ele>2224.6</ele>
        <time>2013-09-03T10:34:02Z</time>
      </trkpt>
      <trkpt lat="44.29743" lon="6.59578">
        <ele>2222.7</ele>
        <time>2013-09-03T10:34:05Z</time>
      </trkpt>
      <trkpt lat="44.29742" lon="6.59576">
        <ele>2222.7</ele>
        <time>2013-09-03T10:34:06Z</time>
      </trkpt>
      <trkpt lat="44.29827" lon="6.59632">
        <ele>2191</ele>
        <time>2013-09-03T11:38:58Z</time>
      </trkpt>
      <trkpt lat="44.29766" lon="6.59588">
        <ele>2191</ele>
        <time>2013-09-03T11:39:00Z</time>
      </trkpt>
      <trkpt lat="44.29774" lon="6.59588">
        <ele>2194.4</ele>
        <time>2013-09-03T11:39:20Z</time>
      </trkpt>
      <trkpt lat="44.29774" lon="6.59588">
        <ele>2194.4</ele>
        <time>2013-09-03T11:39:21Z</time>
      </trkpt>
      <trkpt lat="44.29773" lon="6.59588">
        <ele>2197.7</ele>
        <time>2013-09-03T11:39:22Z</time>
      </trkpt>
      <trkpt lat="44.29773" lon="6.59589">
        <ele>2199.6</ele>
        <time>2013-09-03T11:39:24Z</time>
      </trkpt>
      <trkpt lat="44.29769" lon="6.59586">
        <ele>2204.9</ele>
        <time>2013-09-03T11:39:28Z</time>
      </trkpt>
      <trkpt lat="44.29765" lon="6.59581">
        <ele>2209.3</ele>
        <time>2013-09-03T11:39:32Z</time>
      </trkpt>
      <trkpt lat="44.29763" lon="6.5958">
        <ele>2209.7</ele>
        <time>2013-09-03T11:39:33Z</time>
      </trkpt>
      <trkpt lat="44.29752" lon="6.59573">
        <ele>2214.1</ele>
        <time>2013-09-03T11:39:38Z</time>
      </trkpt>
      <trkpt lat="44.29739" lon="6.5957">
        <ele>2217.4</ele>
        <time>2013-09-03T11:39:43Z</time>
      </trkpt>
      <trkpt lat="44.29736" lon="6.59567">
        <ele>2218.9</ele>
        <time>2013-09-03T11:39:45Z</time>
      </trkpt>
      <trkpt lat="44.29735" lon="6.59566">
        <ele>2220.3</ele>
        <time>2013-09-03T11:39:46Z</time>
      </trkpt>
      <trkpt lat="44.29733" lon="6.59565">
        <ele>2220.3</ele>
        <time>2013-09-03T11:39:47Z</time>
      </trkpt>
      <trkpt lat="44.29732" lon="6.59564">
        <ele>2221.3</ele>
        <time>2013-09-03T11:39:48Z</time>
      </trkpt>
      <trkpt lat="44.2973" lon="6.59563">
        <ele>2221.7</ele>
        <time>2013-09-03T11:39:49Z</time>
      </trkpt>
      <trkpt lat="44.29728" lon="6.59563">
        <ele>2221.7</ele>
        <time>2013-09-03T11:39:50Z</time>
      </trkpt>
      <trkpt lat="44.29722" lon="6.5956">
        <ele>2225.1</ele>
        <time>2013-09-03T11:39:55Z</time>
      </trkpt>
      <trkpt lat="44.29711" lon="6.59548">
        <ele>2228</ele>
        <time>2013-09-03T11:40:02Z</time>
      </trkpt>
      <trkpt lat="44.29708" lon="6.59543">
        <ele>2229.4</ele>
        <time>2013-09-03T11:40:05Z</time>
      </trkpt>
      <trkpt lat="44.29695" lon="6.59531">
        <ele>2232.8</ele>
        <time>2013-09-03T11:40:15Z</time>
      </trkpt>
      <trkpt lat="44.29681" lon="6.59518">
        <ele>2235.7</ele>
        <time>2013-09-03T11:40:26Z</time>
      </trkpt>
      <trkpt lat="44.29669" lon="6.59495">
        <ele>2239.1</ele>
        <time>2013-09-03T11:40:39Z</time>
      </trkpt>
      <trkpt lat="44.29672" lon="6.59468">
        <ele>2242.4</ele>
        <time>2013-09-03T11:40:52Z</time>
      </trkpt>
      <trkpt lat="44.29673" lon="6.59467">
        <ele>2242.9</ele>
        <time>2013-09-03T11:40:53Z</time>
      </trkpt>
      <trkpt lat="44.29675" lon="6.59457">
        <ele>2243.9</ele>
        <time>2013-09-03T11:41:00Z</time>
      </trkpt>
      <trkpt lat="44.29674" lon="6.59455">
        <ele>2242.9</ele>
        <time>2013-09-03T11:41:01Z</time>
      </trkpt>
      <trkpt lat="44.29673" lon="6.59455">
        <ele>2242.9</ele>
        <time>2013-09-03T11:41:02Z</time>
      </trkpt>
      <trkpt lat="44.29671" lon="6.59455">
        <ele>2242.9</ele>
        <time>2013-09-03T11:41:03Z</time>
      </trkpt>
      <trkpt lat="44.2967" lon="6.59456">
        <ele>2243.4</ele>
        <time>2013-09-03T11:41:04Z</time>
      </trkpt>
      <trkpt lat="44.29656" lon="6.59459">
        <ele>2242.4</ele>
        <time>2013-09-03T11:41:14Z</time>
      </trkpt>
      <trkpt lat="44.29655" lon="6.59459">
        <ele>2242.4</ele>
        <time>2013-09-03T11:41:21Z</time>
      </trkpt>
      <trkpt lat="44.29654" lon="6.59459">
        <ele>2242.4</ele>
        <time>2013-09-03T11:41:22Z</time>
      </trkpt>
      <trkpt lat="44.29653" lon="6.5946">
        <ele>2242.4</ele>
        <time>2013-09-03T11:41:23Z</time>
      </trkpt>
      <trkpt lat="44.29651" lon="6.5946">
        <ele>2241.9</ele>
        <time>2013-09-03T11:41:24Z</time>
      </trkpt>
      <trkpt lat="44.29649" lon="6.5946">
        <ele>2241.9</ele>
        <time>2013-09-03T11:41:25Z</time>
      </trkpt>
      <trkpt lat="44.29613" lon="6.59464">
        <ele>2244.8</ele>
        <time>2013-09-03T11:41:45Z</time>
      </trkpt>
      <trkpt lat="44.29591" lon="6.59464">
        <ele>2246.3</ele>
        <time>2013-09-03T11:42:00Z</time>
      </trkpt>
      <trkpt lat="44.29565" lon="6.59461">
        <ele>2247.7</ele>
        <time>2013-09-03T11:42:16Z</time>
      </trkpt>
      <trkpt lat="44.29541" lon="6.59466">
        <ele>2248.7</ele>
        <time>2013-09-03T11:42:31Z</time>
      </trkpt>
      <trkpt lat="44.29514" lon="6.5946">
        <ele>2250.6</ele>
        <time>2013-09-03T11:42:47Z</time>
      </trkpt>
      <trkpt lat="44.29494" lon="6.5947">
        <ele>2248.2</ele>
        <time>2013-09-03T11:42:57Z</time>
      </trkpt>
      <trkpt lat="44.29482" lon="6.59472">
        <ele>2249.6</ele>
        <time>2013-09-03T11:43:05Z</time>
      </trkpt>
      <trkpt lat="44.29481" lon="6.59473">
        <ele>2249.6</ele>
        <time>2013-09-03T11:43:06Z</time>
      </trkpt>
      <trkpt lat="44.29479" lon="6.59474">
        <ele>2250.6</ele>
        <time>2013-09-03T11:43:07Z</time>
      </trkpt>
      <trkpt lat="44.29477" lon="6.59474">
        <ele>2250.6</ele>
        <time>2013-09-03T11:43:08Z</time>
      </trkpt>
      <trkpt lat="44.29476" lon="6.59474">
        <ele>2250.6</ele>
        <time>2013-09-03T11:43:09Z</time>
      </trkpt>
      <trkpt lat="44.29474" lon="6.59474">
        <ele>2250.6</ele>
        <time>2013-09-03T11:43:10Z</time>
      </trkpt>
      <trkpt lat="44.29473" lon="6.59473">
        <ele>2251.1</ele>
        <time>2013-09-03T11:43:11Z</time>
      </trkpt>
      <trkpt lat="44.29472" lon="6.59473">
        <ele>2251.1</ele>
        <time>2013-09-03T11:43:12Z</time>
      </trkpt>
      <trkpt lat="44.29467" lon="6.59469">
        <ele>2252.5</ele>
        <time>2013-09-03T11:43:24Z</time>
      </trkpt>
      <trkpt lat="44.29457" lon="6.5946">
        <ele>2254</ele>
        <time>2013-09-03T11:43:41Z</time>
      </trkpt>
      <trkpt lat="44.29447" lon="6.59457">
        <ele>2254.9</ele>
        <time>2013-09-03T11:43:55Z</time>
      </trkpt>
      <trkpt lat="44.29443" lon="6.59457">
        <ele>2255.9</ele>
        <time>2013-09-03T11:44:04Z</time>
      </trkpt>
      <trkpt lat="44.29442" lon="6.59456">
        <ele>2255.9</ele>
        <time>2013-09-03T11:44:05Z</time>
      </trkpt>
      <trkpt lat="44.29441" lon="6.59455">
        <ele>2255.9</ele>
        <time>2013-09-03T11:44:06Z</time>
      </trkpt>
      <trkpt lat="44.29439" lon="6.59455">
        <ele>2255.4</ele>
        <time>2013-09-03T11:44:07Z</time>
      </trkpt>
      <trkpt lat="44.29438" lon="6.59454">
        <ele>2256.4</ele>
        <time>2013-09-03T11:44:08Z</time>
      </trkpt>
      <trkpt lat="44.29436" lon="6.59453">
        <ele>2255.9</ele>
        <time>2013-09-03T11:44:09Z</time>
      </trkpt>
      <trkpt lat="44.29412" lon="6.59464">
        <ele>2257.3</ele>
        <time>2013-09-03T11:44:22Z</time>
      </trkpt>
      <trkpt lat="44.29392" lon="6.59485">
        <ele>2258.3</ele>
        <time>2013-09-03T11:44:34Z</time>
      </trkpt>
      <trkpt lat="44.29391" lon="6.59485">
        <ele>2258.3</ele>
        <time>2013-09-03T11:44:35Z</time>
      </trkpt>
      <trkpt lat="44.29389" lon="6.59485">
        <ele>2258.3</ele>
        <time>2013-09-03T11:44:36Z</time>
      </trkpt>
      <trkpt lat="44.29388" lon="6.59484">
        <ele>2258.3</ele>
        <time>2013-09-03T11:44:37Z</time>
      </trkpt>
      <trkpt lat="44.29386" lon="6.59484">
        <ele>2258.8</ele>
        <time>2013-09-03T11:44:38Z</time>
      </trkpt>
      <trkpt lat="44.29385" lon="6.59484">
        <ele>2258.8</ele>
        <time>2013-09-03T11:44:39Z</time>
      </trkpt>
      <trkpt lat="44.29375" lon="6.59481">
        <ele>2259.7</ele>
        <time>2013-09-03T11:44:45Z</time>
      </trkpt>
      <trkpt lat="44.29373" lon="6.59482">
        <ele>2258.8</ele>
        <time>2013-09-03T11:44:46Z</time>
      </trkpt>
      <trkpt lat="44.29368" lon="6.59484">
        <ele>2259.7</ele>
        <time>2013-09-03T11:44:55Z</time>
      </trkpt>
      <trkpt lat="44.29358" lon="6.5949">
        <ele>2260.7</ele>
        <time>2013-09-03T11:45:10Z</time>
      </trkpt>
      <trkpt lat="44.29349" lon="6.59493">
        <ele>2261.2</ele>
        <time>2013-09-03T11:45:24Z</time>
      </trkpt>
      <trkpt lat="44.29339" lon="6.59494">
        <ele>2261.6</ele>
        <time>2013-09-03T11:45:31Z</time>
      </trkpt>
      <trkpt lat="44.29326" lon="6.59494">
        <ele>2261.6</ele>
        <time>2013-09-03T11:45:38Z</time>
      </trkpt>
      <trkpt lat="44.29324" lon="6.59494">
        <ele>2261.6</ele>
        <time>2013-09-03T11:45:39Z</time>
      </trkpt>
      <trkpt lat="44.29323" lon="6.59495">
        <ele>2262.1</ele>
        <time>2013-09-03T11:45:40Z</time>
      </trkpt>
      <trkpt lat="44.29322" lon="6.59497">
        <ele>2262.6</ele>
        <time>2013-09-03T11:45:41Z</time>
      </trkpt>
      <trkpt lat="44.29321" lon="6.59499">
        <ele>2262.6</ele>
        <time>2013-09-03T11:45:42Z</time>
      </trkpt>
      <trkpt lat="44.29303" lon="6.59526">
        <ele>2264</ele>
        <time>2013-09-03T11:45:56Z</time>
      </trkpt>
      <trkpt lat="44.29294" lon="6.59551">
        <ele>2266.9</ele>
        <time>2013-09-03T11:46:10Z</time>
      </trkpt>
      <trkpt lat="44.29277" lon="6.5956">
        <ele>2267.4</ele>
        <time>2013-09-03T11:46:21Z</time>
      </trkpt>
      <trkpt lat="44.29275" lon="6.59561">
        <ele>2267.9</ele>
        <time>2013-09-03T11:46:22Z</time>
      </trkpt>
      <trkpt lat="44.29273" lon="6.59562">
        <ele>2267.4</ele>
        <time>2013-09-03T11:46:23Z</time>
      </trkpt>
      <trkpt lat="44.29271" lon="6.59562">
        <ele>2267.9</ele>
        <time>2013-09-03T11:46:24Z</time>
      </trkpt>
      <trkpt lat="44.29269" lon="6.59564">
        <ele>2267.4</ele>
        <time>2013-09-03T11:46:25Z</time>
      </trkpt>
      <trkpt lat="44.2925" lon="6.5957">
        <ele>2267.4</ele>
        <time>2013-09-03T11:46:36Z</time>
      </trkpt>
      <trkpt lat="44.29249" lon="6.59571">
        <ele>2267.4</ele>
        <time>2013-09-03T11:46:37Z</time>
      </trkpt>
      <trkpt lat="44.29247" lon="6.59572">
        <ele>2266.9</ele>
        <time>2013-09-03T11:46:38Z</time>
      </trkpt>
      <trkpt lat="44.29246" lon="6.59573">
        <ele>2267.9</ele>
        <time>2013-09-03T11:46:39Z</time>
      </trkpt>
      <trkpt lat="44.29244" lon="6.59574">
        <ele>2267.4</ele>
        <time>2013-09-03T11:46:40Z</time>
      </trkpt>
      <trkpt lat="44.29243" lon="6.59575">
        <ele>2268.4</ele>
        <time>2013-09-03T11:46:41Z</time>
      </trkpt>
      <trkpt lat="44.29242" lon="6.59577">
        <ele>2268.4</ele>
        <time>2013-09-03T11:46:42Z</time>
      </trkpt>
      <trkpt lat="44.2924" lon="6.59578">
        <ele>2268.4</ele>
        <time>2013-09-03T11:46:43Z</time>
      </trkpt>
      <trkpt lat="44.29239" lon="6.59579">
        <ele>2268.4</ele>
        <time>2013-09-03T11:46:44Z</time>
      </trkpt>
      <trkpt lat="44.29237" lon="6.5958">
        <ele>2267.9</ele>
        <time>2013-09-03T11:46:45Z</time>
      </trkpt>
      <trkpt lat="44.29236" lon="6.5958">
        <ele>2268.9</ele>
        <time>2013-09-03T11:46:46Z</time>
      </trkpt>
      <trkpt lat="44.29235" lon="6.59581">
        <ele>2268.9</ele>
        <time>2013-09-03T11:46:47Z</time>
      </trkpt>
      <trkpt lat="44.29233" lon="6.59582">
        <ele>2268.9</ele>
        <time>2013-09-03T11:46:48Z</time>
      </trkpt>
      <trkpt lat="44.29231" lon="6.59582">
        <ele>2268.9</ele>
        <time>2013-09-03T11:46:49Z</time>
      </trkpt>
      <trkpt lat="44.2923" lon="6.59583">
        <ele>2269.3</ele>
        <time>2013-09-03T11:46:50Z</time>
      </trkpt>
      <trkpt lat="44.29229" lon="6.59585">
        <ele>2269.8</ele>
        <time>2013-09-03T11:46:51Z</time>
      </trkpt>
      <trkpt lat="44.29228" lon="6.59586">
        <ele>2270.3</ele>
        <time>2013-09-03T11:46:52Z</time>
      </trkpt>
      <trkpt lat="44.29227" lon="6.59587">
        <ele>2269.8</ele>
        <time>2013-09-03T11:46:53Z</time>
      </trkpt>
      <trkpt lat="44.29225" lon="6.59588">
        <ele>2269.8</ele>
        <time>2013-09-03T11:46:54Z</time>
      </trkpt>
      <trkpt lat="44.29223" lon="6.59589">
        <ele>2270.3</ele>
        <time>2013-09-03T11:46:55Z</time>
      </trkpt>
      <trkpt lat="44.29198" lon="6.59608">
        <ele>2272.2</ele>
        <time>2013-09-03T11:47:11Z</time>
      </trkpt>
      <trkpt lat="44.29194" lon="6.59616">
        <ele>2273.7</ele>
        <time>2013-09-03T11:47:15Z</time>
      </trkpt>
      <trkpt lat="44.29194" lon="6.59618">
        <ele>2273.7</ele>
        <time>2013-09-03T11:47:16Z</time>
      </trkpt>
      <trkpt lat="44.29192" lon="6.59626">
        <ele>2273.7</ele>
        <time>2013-09-03T11:47:19Z</time>
      </trkpt>
      <trkpt lat="44.29187" lon="6.59634">
        <ele>2273.7</ele>
        <time>2013-09-03T11:47:30Z</time>
      </trkpt>
      <trkpt lat="44.29186" lon="6.59654">
        <ele>2274.6</ele>
        <time>2013-09-03T11:47:47Z</time>
      </trkpt>
      <trkpt lat="44.29189" lon="6.59664">
        <ele>2275.6</ele>
        <time>2013-09-03T11:48:00Z</time>
      </trkpt>
      <trkpt lat="44.29193" lon="6.59687">
        <ele>2277.5</ele>
        <time>2013-09-03T11:48:13Z</time>
      </trkpt>
      <trkpt lat="44.29198" lon="6.59695">
        <ele>2277</ele>
        <time>2013-09-03T11:48:25Z</time>
      </trkpt>
      <trkpt lat="44.29197" lon="6.59702">
        <ele>2278.9</ele>
        <time>2013-09-03T11:48:40Z</time>
      </trkpt>
      <trkpt lat="44.29191" lon="6.59707">
        <ele>2280.9</ele>
        <time>2013-09-03T11:48:55Z</time>
      </trkpt>
      <trkpt lat="44.29189" lon="6.59709">
        <ele>2281.4</ele>
        <time>2013-09-03T11:49:10Z</time>
      </trkpt>
      <trkpt lat="44.29189" lon="6.59709">
        <ele>2280.4</ele>
        <time>2013-09-03T11:49:32Z</time>
      </trkpt>
      <trkpt lat="44.29183" lon="6.59724">
        <ele>2279.4</ele>
        <time>2013-09-03T11:49:48Z</time>
      </trkpt>
      <trkpt lat="44.29184" lon="6.5973">
        <ele>2278.5</ele>
        <time>2013-09-03T11:49:58Z</time>
      </trkpt>
      <trkpt lat="44.29183" lon="6.59735">
        <ele>2278.5</ele>
        <time>2013-09-03T11:50:06Z</time>
      </trkpt>
      <trkpt lat="44.29179" lon="6.5974">
        <ele>2278.9</ele>
        <time>2013-09-03T11:50:16Z</time>
      </trkpt>
      <trkpt lat="44.29177" lon="6.59741">
        <ele>2278.9</ele>
        <time>2013-09-03T11:50:17Z</time>
      </trkpt>
      <trkpt lat="44.29176" lon="6.59741">
        <ele>2278.5</ele>
        <time>2013-09-03T11:50:18Z</time>
      </trkpt>
      <trkpt lat="44.29173" lon="6.59742">
        <ele>2278.5</ele>
        <time>2013-09-03T11:50:19Z</time>
      </trkpt>
      <trkpt lat="44.29171" lon="6.59743">
        <ele>2278.5</ele>
        <time>2013-09-03T11:50:20Z</time>
      </trkpt>
      <trkpt lat="44.29169" lon="6.59745">
        <ele>2278.9</ele>
        <time>2013-09-03T11:50:21Z</time>
      </trkpt>
      <trkpt lat="44.29167" lon="6.59745">
        <ele>2278.9</ele>
        <time>2013-09-03T11:50:22Z</time>
      </trkpt>
      <trkpt lat="44.29166" lon="6.59746">
        <ele>2278.5</ele>
        <time>2013-09-03T11:50:23Z</time>
      </trkpt>
      <trkpt lat="44.29164" lon="6.59747">
        <ele>2278.9</ele>
        <time>2013-09-03T11:50:24Z</time>
      </trkpt>
      <trkpt lat="44.29159" lon="6.5975">
        <ele>2279.4</ele>
        <time>2013-09-03T11:50:27Z</time>
      </trkpt>
      <trkpt lat="44.2914" lon="6.59776">
        <ele>2281.4</ele>
        <time>2013-09-03T11:50:44Z</time>
      </trkpt>
      <trkpt lat="44.29136" lon="6.59779">
        <ele>2282.3</ele>
        <time>2013-09-03T11:50:57Z</time>
      </trkpt>
      <trkpt lat="44.29128" lon="6.59789">
        <ele>2284.2</ele>
        <time>2013-09-03T11:51:13Z</time>
      </trkpt>
      <trkpt lat="44.2912" lon="6.59799">
        <ele>2284.7</ele>
        <time>2013-09-03T11:51:28Z</time>
      </trkpt>
      <trkpt lat="44.29109" lon="6.59802">
        <ele>2285.2</ele>
        <time>2013-09-03T11:51:46Z</time>
      </trkpt>
      <trkpt lat="44.29098" lon="6.59812">
        <ele>2284.2</ele>
        <time>2013-09-03T11:51:57Z</time>
      </trkpt>
      <trkpt lat="44.29087" lon="6.59817">
        <ele>2283.8</ele>
        <time>2013-09-03T11:52:02Z</time>
      </trkpt>
      <trkpt lat="44.29084" lon="6.59817">
        <ele>2283.8</ele>
        <time>2013-09-03T11:52:03Z</time>
      </trkpt>
      <trkpt lat="44.29081" lon="6.59816">
        <ele>2283.3</ele>
        <time>2013-09-03T11:52:04Z</time>
      </trkpt>
      <trkpt lat="44.29078" lon="6.59815">
        <ele>2283.3</ele>
        <time>2013-09-03T11:52:05Z</time>
      </trkpt>
      <trkpt lat="44.29075" lon="6.59813">
        <ele>2282.8</ele>
        <time>2013-09-03T11:52:06Z</time>
      </trkpt>
      <trkpt lat="44.29065" lon="6.5981">
        <ele>2282.3</ele>
        <time>2013-09-03T11:52:09Z</time>
      </trkpt>
      <trkpt lat="44.29062" lon="6.59812">
        <ele>2281.8</ele>
        <time>2013-09-03T11:52:10Z</time>
      </trkpt>
      <trkpt lat="44.29059" lon="6.59813">
        <ele>2281.8</ele>
        <time>2013-09-03T11:52:11Z</time>
      </trkpt>
      <trkpt lat="44.29056" lon="6.59813">
        <ele>2281.8</ele>
        <time>2013-09-03T11:52:12Z</time>
      </trkpt>
      <trkpt lat="44.29054" lon="6.59811">
        <ele>2281.4</ele>
        <time>2013-09-03T11:52:13Z</time>
      </trkpt>
      <trkpt lat="44.29052" lon="6.59809">
        <ele>2281.8</ele>
        <time>2013-09-03T11:52:14Z</time>
      </trkpt>
      <trkpt lat="44.29051" lon="6.59807">
        <ele>2282.3</ele>
        <time>2013-09-03T11:52:15Z</time>
      </trkpt>
      <trkpt lat="44.2905" lon="6.59805">
        <ele>2282.8</ele>
        <time>2013-09-03T11:52:16Z</time>
      </trkpt>
      <trkpt lat="44.29048" lon="6.59801">
        <ele>2284.2</ele>
        <time>2013-09-03T11:52:27Z</time>
      </trkpt>
      <trkpt lat="44.2904" lon="6.59799">
        <ele>2285.7</ele>
        <time>2013-09-03T11:52:41Z</time>
      </trkpt>
      <trkpt lat="44.29036" lon="6.59796">
        <ele>2286.6</ele>
        <time>2013-09-03T11:52:52Z</time>
      </trkpt>
      <trkpt lat="44.29028" lon="6.59794">
        <ele>2286.6</ele>
        <time>2013-09-03T11:53:00Z</time>
      </trkpt>
      <trkpt lat="44.29027" lon="6.59794">
        <ele>2286.6</ele>
        <time>2013-09-03T11:53:01Z</time>
      </trkpt>
      <trkpt lat="44.29016" lon="6.59793">
        <ele>2290</ele>
        <time>2013-09-03T11:53:18Z</time>
      </trkpt>
      <trkpt lat="44.29007" lon="6.59798">
        <ele>2290.5</ele>
        <time>2013-09-03T11:53:33Z</time>
      </trkpt>
      <trkpt lat="44.28994" lon="6.59807">
        <ele>2291.9</ele>
        <time>2013-09-03T11:53:50Z</time>
      </trkpt>
      <trkpt lat="44.28983" lon="6.59811">
        <ele>2293.8</ele>
        <time>2013-09-03T11:54:08Z</time>
      </trkpt>
      <trkpt lat="44.28963" lon="6.59829">
        <ele>2296.7</ele>
        <time>2013-09-03T11:54:23Z</time>
      </trkpt>
      <trkpt lat="44.28946" lon="6.59852">
        <ele>2297.2</ele>
        <time>2013-09-03T11:54:35Z</time>
      </trkpt>
      <trkpt lat="44.28934" lon="6.59862">
        <ele>2298.7</ele>
        <time>2013-09-03T11:54:46Z</time>
      </trkpt>
      <trkpt lat="44.28929" lon="6.59867">
        <ele>2300.6</ele>
        <time>2013-09-03T11:55:00Z</time>
      </trkpt>
      <trkpt lat="44.28919" lon="6.59872">
        <ele>2302</ele>
        <time>2013-09-03T11:55:16Z</time>
      </trkpt>
      <trkpt lat="44.28917" lon="6.59878">
        <ele>2301.5</ele>
        <time>2013-09-03T11:55:32Z</time>
      </trkpt>
      <trkpt lat="44.28917" lon="6.59879">
        <ele>2302</ele>
        <time>2013-09-03T11:55:34Z</time>
      </trkpt>
      <trkpt lat="44.28916" lon="6.5988">
        <ele>2302.5</ele>
        <time>2013-09-03T11:55:35Z</time>
      </trkpt>
      <trkpt lat="44.28904" lon="6.59913">
        <ele>2303.5</ele>
        <time>2013-09-03T11:55:51Z</time>
      </trkpt>
      <trkpt lat="44.28904" lon="6.59954">
        <ele>2305.9</ele>
        <time>2013-09-03T11:56:10Z</time>
      </trkpt>
      <trkpt lat="44.28903" lon="6.59966">
        <ele>2307.3</ele>
        <time>2013-09-03T11:56:16Z</time>
      </trkpt>
      <trkpt lat="44.289" lon="6.59982">
        <ele>2309.2</ele>
        <time>2013-09-03T11:56:23Z</time>
      </trkpt>
      <trkpt lat="44.28902" lon="6.59979">
        <ele>2309.2</ele>
        <time>2013-09-03T11:56:38Z</time>
      </trkpt>
      <trkpt lat="44.28903" lon="6.59991">
        <ele>2308.7</ele>
        <time>2013-09-03T11:56:53Z</time>
      </trkpt>
      <trkpt lat="44.28904" lon="6.60006">
        <ele>2309.2</ele>
        <time>2013-09-03T11:57:10Z</time>
      </trkpt>
      <trkpt lat="44.28905" lon="6.60012">
        <ele>2312.1</ele>
        <time>2013-09-03T11:57:24Z</time>
      </trkpt>
      <trkpt lat="44.2891" lon="6.60021">
        <ele>2312.1</ele>
        <time>2013-09-03T11:57:39Z</time>
      </trkpt>
      <trkpt lat="44.28915" lon="6.60035">
        <ele>2312.6</ele>
        <time>2013-09-03T11:57:57Z</time>
      </trkpt>
      <trkpt lat="44.2892" lon="6.60047">
        <ele>2312.1</ele>
        <time>2013-09-03T11:58:14Z</time>
      </trkpt>
      <trkpt lat="44.2892" lon="6.6005">
        <ele>2311.2</ele>
        <time>2013-09-03T11:58:15Z</time>
      </trkpt>
      <trkpt lat="44.28918" lon="6.60052">
        <ele>2311.2</ele>
        <time>2013-09-03T11:58:16Z</time>
      </trkpt>
      <trkpt lat="44.28917" lon="6.60054">
        <ele>2311.6</ele>
        <time>2013-09-03T11:58:17Z</time>
      </trkpt>
      <trkpt lat="44.28916" lon="6.60055">
        <ele>2311.6</ele>
        <time>2013-09-03T11:58:18Z</time>
      </trkpt>
      <trkpt lat="44.28914" lon="6.60057">
        <ele>2311.6</ele>
        <time>2013-09-03T11:58:19Z</time>
      </trkpt>
      <trkpt lat="44.28913" lon="6.60058">
        <ele>2311.6</ele>
        <time>2013-09-03T11:58:20Z</time>
      </trkpt>
      <trkpt lat="44.28912" lon="6.6006">
        <ele>2312.1</ele>
        <time>2013-09-03T11:58:21Z</time>
      </trkpt>
      <trkpt lat="44.28911" lon="6.60062">
        <ele>2312.1</ele>
        <time>2013-09-03T11:58:22Z</time>
      </trkpt>
      <trkpt lat="44.28911" lon="6.60065">
        <ele>2311.6</ele>
        <time>2013-09-03T11:58:23Z</time>
      </trkpt>
      <trkpt lat="44.28906" lon="6.60091">
        <ele>2313.6</ele>
        <time>2013-09-03T11:58:37Z</time>
      </trkpt>
      <trkpt lat="44.28887" lon="6.60113">
        <ele>2315</ele>
        <time>2013-09-03T11:58:52Z</time>
      </trkpt>
      <trkpt lat="44.28884" lon="6.60119">
        <ele>2315</ele>
        <time>2013-09-03T11:58:55Z</time>
      </trkpt>
      <trkpt lat="44.28883" lon="6.60122">
        <ele>2315</ele>
        <time>2013-09-03T11:58:56Z</time>
      </trkpt>
      <trkpt lat="44.28888" lon="6.60149">
        <ele>2316</ele>
        <time>2013-09-03T11:59:09Z</time>
      </trkpt>
      <trkpt lat="44.28903" lon="6.60171">
        <ele>2317.4</ele>
        <time>2013-09-03T11:59:22Z</time>
      </trkpt>
      <trkpt lat="44.28904" lon="6.60179">
        <ele>2317.4</ele>
        <time>2013-09-03T11:59:34Z</time>
      </trkpt>
      <trkpt lat="44.28905" lon="6.60183">
        <ele>2317.9</ele>
        <time>2013-09-03T12:00:04Z</time>
      </trkpt>
      <trkpt lat="44.28907" lon="6.60202">
        <ele>2318.8</ele>
        <time>2013-09-03T12:00:12Z</time>
      </trkpt>
      <trkpt lat="44.28908" lon="6.60203">
        <ele>2319.3</ele>
        <time>2013-09-03T12:00:13Z</time>
      </trkpt>
      <trkpt lat="44.28908" lon="6.60205">
        <ele>2319.8</ele>
        <time>2013-09-03T12:00:14Z</time>
      </trkpt>
      <trkpt lat="44.28908" lon="6.60207">
        <ele>2320.3</ele>
        <time>2013-09-03T12:00:15Z</time>
      </trkpt>
      <trkpt lat="44.28908" lon="6.6021">
        <ele>2320.3</ele>
        <time>2013-09-03T12:00:16Z</time>
      </trkpt>
      <trkpt lat="44.28909" lon="6.60212">
        <ele>2320.8</ele>
        <time>2013-09-03T12:00:17Z</time>
      </trkpt>
      <trkpt lat="44.28911" lon="6.60226">
        <ele>2321.2</ele>
        <time>2013-09-03T12:00:33Z</time>
      </trkpt>
      <trkpt lat="44.28913" lon="6.60234">
        <ele>2321.7</ele>
        <time>2013-09-03T12:00:48Z</time>
      </trkpt>
      <trkpt lat="44.28917" lon="6.60245">
        <ele>2321.2</ele>
        <time>2013-09-03T12:01:02Z</time>
      </trkpt>
      <trkpt lat="44.28919" lon="6.60261">
        <ele>2322.2</ele>
        <time>2013-09-03T12:01:21Z</time>
      </trkpt>
      <trkpt lat="44.2892" lon="6.60271">
        <ele>2323.6</ele>
        <time>2013-09-03T12:01:39Z</time>
      </trkpt>
      <trkpt lat="44.28921" lon="6.60282">
        <ele>2323.6</ele>
        <time>2013-09-03T12:01:51Z</time>
      </trkpt>
      <trkpt lat="44.28922" lon="6.603">
        <ele>2326.1</ele>
        <time>2013-09-03T12:02:09Z</time>
      </trkpt>
      <trkpt lat="44.28923" lon="6.60314">
        <ele>2327</ele>
        <time>2013-09-03T12:02:22Z</time>
      </trkpt>
      <trkpt lat="44.28925" lon="6.60347">
        <ele>2328.9</ele>
        <time>2013-09-03T12:02:36Z</time>
      </trkpt>
      <trkpt lat="44.28928" lon="6.6038">
        <ele>2331.3</ele>
        <time>2013-09-03T12:02:53Z</time>
      </trkpt>
      <trkpt lat="44.28938" lon="6.60411">
        <ele>2332.8</ele>
        <time>2013-09-03T12:03:08Z</time>
      </trkpt>
      <trkpt lat="44.2894" lon="6.6042">
        <ele>2331.8</ele>
        <time>2013-09-03T12:03:18Z</time>
      </trkpt>
      <trkpt lat="44.28938" lon="6.60429">
        <ele>2333.3</ele>
        <time>2013-09-03T12:03:38Z</time>
      </trkpt>
      <trkpt lat="44.28939" lon="6.60448">
        <ele>2335.2</ele>
        <time>2013-09-03T12:03:57Z</time>
      </trkpt>
      <trkpt lat="44.28936" lon="6.60459">
        <ele>2336.6</ele>
        <time>2013-09-03T12:04:13Z</time>
      </trkpt>
      <trkpt lat="44.28934" lon="6.60464">
        <ele>2336.6</ele>
        <time>2013-09-03T12:04:25Z</time>
      </trkpt>
      <trkpt lat="44.28933" lon="6.60465">
        <ele>2337.1</ele>
        <time>2013-09-03T12:04:26Z</time>
      </trkpt>
      <trkpt lat="44.28932" lon="6.60467">
        <ele>2336.6</ele>
        <time>2013-09-03T12:04:27Z</time>
      </trkpt>
      <trkpt lat="44.2893" lon="6.60468">
        <ele>2336.6</ele>
        <time>2013-09-03T12:04:28Z</time>
      </trkpt>
      <trkpt lat="44.28929" lon="6.60469">
        <ele>2336.6</ele>
        <time>2013-09-03T12:04:29Z</time>
      </trkpt>
      <trkpt lat="44.28914" lon="6.60493">
        <ele>2338.1</ele>
        <time>2013-09-03T12:04:42Z</time>
      </trkpt>
      <trkpt lat="44.28908" lon="6.60504">
        <ele>2340</ele>
        <time>2013-09-03T12:04:49Z</time>
      </trkpt>
      <trkpt lat="44.28907" lon="6.60506">
        <ele>2340</ele>
        <time>2013-09-03T12:04:50Z</time>
      </trkpt>
      <trkpt lat="44.28895" lon="6.60534">
        <ele>2342.9</ele>
        <time>2013-09-03T12:05:06Z</time>
      </trkpt>
      <trkpt lat="44.28894" lon="6.60542">
        <ele>2343.4</ele>
        <time>2013-09-03T12:05:17Z</time>
      </trkpt>
      <trkpt lat="44.28892" lon="6.60555">
        <ele>2344.8</ele>
        <time>2013-09-03T12:05:35Z</time>
      </trkpt>
      <trkpt lat="44.28888" lon="6.60573">
        <ele>2345.3</ele>
        <time>2013-09-03T12:05:51Z</time>
      </trkpt>
      <trkpt lat="44.28888" lon="6.60576">
        <ele>2345.8</ele>
        <time>2013-09-03T12:05:58Z</time>
      </trkpt>
      <trkpt lat="44.28887" lon="6.60577">
        <ele>2345.3</ele>
        <time>2013-09-03T12:05:59Z</time>
      </trkpt>
      <trkpt lat="44.28867" lon="6.60605">
        <ele>2347.7</ele>
        <time>2013-09-03T12:06:16Z</time>
      </trkpt>
      <trkpt lat="44.28858" lon="6.60631">
        <ele>2351</ele>
        <time>2013-09-03T12:06:31Z</time>
      </trkpt>
      <trkpt lat="44.28855" lon="6.60659">
        <ele>2353.9</ele>
        <time>2013-09-03T12:06:46Z</time>
      </trkpt>
      <trkpt lat="44.28854" lon="6.60679">
        <ele>2355.9</ele>
        <time>2013-09-03T12:06:57Z</time>
      </trkpt>
      <trkpt lat="44.28854" lon="6.60703">
        <ele>2356.8</ele>
        <time>2013-09-03T12:07:14Z</time>
      </trkpt>
      <trkpt lat="44.28854" lon="6.60703">
        <ele>2357.8</ele>
        <time>2013-09-03T12:07:48Z</time>
      </trkpt>
      <trkpt lat="44.28853" lon="6.60707">
        <ele>2357.3</ele>
        <time>2013-09-03T12:08:20Z</time>
      </trkpt>
      <trkpt lat="44.28847" lon="6.60707">
        <ele>2356.8</ele>
        <time>2013-09-03T12:08:36Z</time>
      </trkpt>
      <trkpt lat="44.28846" lon="6.60706">
        <ele>2356.3</ele>
        <time>2013-09-03T12:09:00Z</time>
      </trkpt>
      <trkpt lat="44.28849" lon="6.60705">
        <ele>2356.3</ele>
        <time>2013-09-03T12:09:25Z</time>
      </trkpt>
      <trkpt lat="44.28848" lon="6.60704">
        <ele>2356.3</ele>
        <time>2013-09-03T12:09:59Z</time>
      </trkpt>
      <trkpt lat="44.28849" lon="6.60704">
        <ele>2355.9</ele>
        <time>2013-09-03T12:10:51Z</time>
      </trkpt>
      <trkpt lat="44.28847" lon="6.60706">
        <ele>2356.8</ele>
        <time>2013-09-03T12:11:43Z</time>
      </trkpt>
      <trkpt lat="44.28846" lon="6.60707">
        <ele>2356.8</ele>
        <time>2013-09-03T12:12:29Z</time>
      </trkpt>
      <trkpt lat="44.28848" lon="6.60706">
        <ele>2356.3</ele>
        <time>2013-09-03T12:13:05Z</time>
      </trkpt>
      <trkpt lat="44.28841" lon="6.60704">
        <ele>2354.9</ele>
        <time>2013-09-03T12:13:21Z</time>
      </trkpt>
      <trkpt lat="44.2884" lon="6.60703">
        <ele>2354.9</ele>
        <time>2013-09-03T12:13:26Z</time>
      </trkpt>
      <trkpt lat="44.28839" lon="6.60702">
        <ele>2354.4</ele>
        <time>2013-09-03T12:13:27Z</time>
      </trkpt>
      <trkpt lat="44.28818" lon="6.60673">
        <ele>2351</ele>
        <time>2013-09-03T12:13:38Z</time>
      </trkpt>
      <trkpt lat="44.28816" lon="6.60671">
        <ele>2350.1</ele>
        <time>2013-09-03T12:13:39Z</time>
      </trkpt>
      <trkpt lat="44.28814" lon="6.60672">
        <ele>2350.1</ele>
        <time>2013-09-03T12:13:40Z</time>
      </trkpt>
      <trkpt lat="44.28813" lon="6.60672">
        <ele>2349.6</ele>
        <time>2013-09-03T12:13:41Z</time>
      </trkpt>
      <trkpt lat="44.28811" lon="6.60674">
        <ele>2350.6</ele>
        <time>2013-09-03T12:13:55Z</time>
      </trkpt>
      <trkpt lat="44.28812" lon="6.60678">
        <ele>2349.6</ele>
        <time>2013-09-03T12:14:01Z</time>
      </trkpt>
      <trkpt lat="44.28814" lon="6.60679">
        <ele>2348.2</ele>
        <time>2013-09-03T12:14:04Z</time>
      </trkpt>
      <trkpt lat="44.28813" lon="6.60682">
        <ele>2347.7</ele>
        <time>2013-09-03T12:14:12Z</time>
      </trkpt>
      <trkpt lat="44.28811" lon="6.60682">
        <ele>2347.2</ele>
        <time>2013-09-03T12:14:13Z</time>
      </trkpt>
      <trkpt lat="44.28811" lon="6.60683">
        <ele>2347.2</ele>
        <time>2013-09-03T12:14:14Z</time>
      </trkpt>
      <trkpt lat="44.2881" lon="6.60683">
        <ele>2346.7</ele>
        <time>2013-09-03T12:14:15Z</time>
      </trkpt>
      <trkpt lat="44.28809" lon="6.60682">
        <ele>2346.7</ele>
        <time>2013-09-03T12:14:28Z</time>
      </trkpt>
      <trkpt lat="44.28807" lon="6.60682">
        <ele>2346.2</ele>
        <time>2013-09-03T12:14:29Z</time>
      </trkpt>
      <trkpt lat="44.28805" lon="6.6068">
        <ele>2346.2</ele>
        <time>2013-09-03T12:14:30Z</time>
      </trkpt>
      <trkpt lat="44.28803" lon="6.60679">
        <ele>2345.8</ele>
        <time>2013-09-03T12:14:31Z</time>
      </trkpt>
      <trkpt lat="44.288" lon="6.60677">
        <ele>2345.8</ele>
        <time>2013-09-03T12:14:32Z</time>
      </trkpt>
      <trkpt lat="44.28787" lon="6.60666">
        <ele>2343.8</ele>
        <time>2013-09-03T12:14:40Z</time>
      </trkpt>
      <trkpt lat="44.28779" lon="6.60668">
        <ele>2342.9</ele>
        <time>2013-09-03T12:14:52Z</time>
      </trkpt>
      <trkpt lat="44.2877" lon="6.60666">
        <ele>2341.9</ele>
        <time>2013-09-03T12:15:02Z</time>
      </trkpt>
      <trkpt lat="44.28766" lon="6.60664">
        <ele>2342.4</ele>
        <time>2013-09-03T12:15:14Z</time>
      </trkpt>
      <trkpt lat="44.28761" lon="6.6066">
        <ele>2341.4</ele>
        <time>2013-09-03T12:15:17Z</time>
      </trkpt>
      <trkpt lat="44.2876" lon="6.6066">
        <ele>2341</ele>
        <time>2013-09-03T12:15:18Z</time>
      </trkpt>
      <trkpt lat="44.28757" lon="6.60659">
        <ele>2340.5</ele>
        <time>2013-09-03T12:15:19Z</time>
      </trkpt>
      <trkpt lat="44.28755" lon="6.60659">
        <ele>2340</ele>
        <time>2013-09-03T12:15:20Z</time>
      </trkpt>
      <trkpt lat="44.28752" lon="6.60658">
        <ele>2339.5</ele>
        <time>2013-09-03T12:15:21Z</time>
      </trkpt>
      <trkpt lat="44.28738" lon="6.60653">
        <ele>2338.1</ele>
        <time>2013-09-03T12:15:27Z</time>
      </trkpt>
      <trkpt lat="44.28721" lon="6.60644">
        <ele>2336.1</ele>
        <time>2013-09-03T12:15:37Z</time>
      </trkpt>
      <trkpt lat="44.28713" lon="6.6064">
        <ele>2335.7</ele>
        <time>2013-09-03T12:15:42Z</time>
      </trkpt>
      <trkpt lat="44.28711" lon="6.6064">
        <ele>2334.7</ele>
        <time>2013-09-03T12:15:43Z</time>
      </trkpt>
      <trkpt lat="44.28709" lon="6.6064">
        <ele>2334.7</ele>
        <time>2013-09-03T12:15:44Z</time>
      </trkpt>
      <trkpt lat="44.28706" lon="6.60641">
        <ele>2334.7</ele>
        <time>2013-09-03T12:15:45Z</time>
      </trkpt>
      <trkpt lat="44.28703" lon="6.6064">
        <ele>2333.7</ele>
        <time>2013-09-03T12:15:46Z</time>
      </trkpt>
      <trkpt lat="44.28699" lon="6.6064">
        <ele>2334.2</ele>
        <time>2013-09-03T12:15:47Z</time>
      </trkpt>
      <trkpt lat="44.28696" lon="6.60639">
        <ele>2334.2</ele>
        <time>2013-09-03T12:15:48Z</time>
      </trkpt>
      <trkpt lat="44.28693" lon="6.60639">
        <ele>2333.3</ele>
        <time>2013-09-03T12:15:49Z</time>
      </trkpt>
      <trkpt lat="44.28672" lon="6.60627">
        <ele>2330.4</ele>
        <time>2013-09-03T12:15:57Z</time>
      </trkpt>
      <trkpt lat="44.28645" lon="6.6062">
        <ele>2327</ele>
        <time>2013-09-03T12:16:07Z</time>
      </trkpt>
      <trkpt lat="44.28626" lon="6.60617">
        <ele>2324.6</ele>
        <time>2013-09-03T12:16:18Z</time>
      </trkpt>
      <trkpt lat="44.28625" lon="6.60616">
        <ele>2325.1</ele>
        <time>2013-09-03T12:16:38Z</time>
      </trkpt>
      <trkpt lat="44.28624" lon="6.60617">
        <ele>2325.1</ele>
        <time>2013-09-03T12:16:39Z</time>
      </trkpt>
      <trkpt lat="44.28623" lon="6.60617">
        <ele>2325.1</ele>
        <time>2013-09-03T12:16:40Z</time>
      </trkpt>
      <trkpt lat="44.28621" lon="6.60618">
        <ele>2324.1</ele>
        <time>2013-09-03T12:16:41Z</time>
      </trkpt>
      <trkpt lat="44.28618" lon="6.60618">
        <ele>2324.1</ele>
        <time>2013-09-03T12:16:42Z</time>
      </trkpt>
      <trkpt lat="44.28607" lon="6.60616">
        <ele>2323.6</ele>
        <time>2013-09-03T12:16:49Z</time>
      </trkpt>
      <trkpt lat="44.28606" lon="6.60616">
        <ele>2323.2</ele>
        <time>2013-09-03T12:16:50Z</time>
      </trkpt>
      <trkpt lat="44.28605" lon="6.6062">
        <ele>2322.2</ele>
        <time>2013-09-03T12:16:54Z</time>
      </trkpt>
      <trkpt lat="44.28606" lon="6.60622">
        <ele>2322.2</ele>
        <time>2013-09-03T12:16:55Z</time>
      </trkpt>
      <trkpt lat="44.28608" lon="6.60624">
        <ele>2321.7</ele>
        <time>2013-09-03T12:16:56Z</time>
      </trkpt>
      <trkpt lat="44.2861" lon="6.60626">
        <ele>2321.7</ele>
        <time>2013-09-03T12:16:57Z</time>
      </trkpt>
      <trkpt lat="44.28612" lon="6.60628">
        <ele>2321.7</ele>
        <time>2013-09-03T12:16:58Z</time>
      </trkpt>
      <trkpt lat="44.28614" lon="6.60629">
        <ele>2321.2</ele>
        <time>2013-09-03T12:16:59Z</time>
      </trkpt>
      <trkpt lat="44.28616" lon="6.6063">
        <ele>2321.2</ele>
        <time>2013-09-03T12:17:00Z</time>
      </trkpt>
      <trkpt lat="44.2862" lon="6.60631">
        <ele>2319.8</ele>
        <time>2013-09-03T12:17:03Z</time>
      </trkpt>
      <trkpt lat="44.28619" lon="6.60627">
        <ele>2319.3</ele>
        <time>2013-09-03T12:17:17Z</time>
      </trkpt>
      <trkpt lat="44.28619" lon="6.60627">
        <ele>2319.8</ele>
        <time>2013-09-03T12:17:51Z</time>
      </trkpt>
      <trkpt lat="44.2862" lon="6.60634">
        <ele>2318.8</ele>
        <time>2013-09-03T12:18:00Z</time>
      </trkpt>
      <trkpt lat="44.28619" lon="6.60644">
        <ele>2315.5</ele>
        <time>2013-09-03T12:18:08Z</time>
      </trkpt>
      <trkpt lat="44.28615" lon="6.60652">
        <ele>2313.1</ele>
        <time>2013-09-03T12:18:17Z</time>
      </trkpt>
      <trkpt lat="44.28616" lon="6.60655">
        <ele>2312.1</ele>
        <time>2013-09-03T12:18:20Z</time>
      </trkpt>
      <trkpt lat="44.28615" lon="6.60658">
        <ele>2311.6</ele>
        <time>2013-09-03T12:18:22Z</time>
      </trkpt>
      <trkpt lat="44.28614" lon="6.6066">
        <ele>2311.2</ele>
        <time>2013-09-03T12:18:23Z</time>
      </trkpt>
      <trkpt lat="44.28613" lon="6.60675">
        <ele>2308.7</ele>
        <time>2013-09-03T12:18:34Z</time>
      </trkpt>
      <trkpt lat="44.2861" lon="6.607">
        <ele>2304.9</ele>
        <time>2013-09-03T12:18:51Z</time>
      </trkpt>
      <trkpt lat="44.2861" lon="6.60705">
        <ele>2303.9</ele>
        <time>2013-09-03T12:18:55Z</time>
      </trkpt>
      <trkpt lat="44.28607" lon="6.60721">
        <ele>2299.6</ele>
        <time>2013-09-03T12:19:07Z</time>
      </trkpt>
      <trkpt lat="44.28606" lon="6.60729">
        <ele>2298.7</ele>
        <time>2013-09-03T12:19:14Z</time>
      </trkpt>
      <trkpt lat="44.28601" lon="6.60755">
        <ele>2296.3</ele>
        <time>2013-09-03T12:19:31Z</time>
      </trkpt>
      <trkpt lat="44.28598" lon="6.60769">
        <ele>2294.3</ele>
        <time>2013-09-03T12:19:44Z</time>
      </trkpt>
      <trkpt lat="44.28596" lon="6.60791">
        <ele>2291.4</ele>
        <time>2013-09-03T12:20:00Z</time>
      </trkpt>
      <trkpt lat="44.28597" lon="6.60804">
        <ele>2288.6</ele>
        <time>2013-09-03T12:20:16Z</time>
      </trkpt>
      <trkpt lat="44.28597" lon="6.60818">
        <ele>2285.7</ele>
        <time>2013-09-03T12:20:29Z</time>
      </trkpt>
      <trkpt lat="44.28598" lon="6.60823">
        <ele>2284.2</ele>
        <time>2013-09-03T12:20:41Z</time>
      </trkpt>
      <trkpt lat="44.28599" lon="6.60836">
        <ele>2281.4</ele>
        <time>2013-09-03T12:20:54Z</time>
      </trkpt>
      <trkpt lat="44.28593" lon="6.60853">
        <ele>2279.9</ele>
        <time>2013-09-03T12:21:07Z</time>
      </trkpt>
      <trkpt lat="44.28594" lon="6.60878">
        <ele>2277.5</ele>
        <time>2013-09-03T12:21:25Z</time>
      </trkpt>
      <trkpt lat="44.28592" lon="6.60892">
        <ele>2276.1</ele>
        <time>2013-09-03T12:21:35Z</time>
      </trkpt>
      <trkpt lat="44.28592" lon="6.60915">
        <ele>2272.7</ele>
        <time>2013-09-03T12:21:52Z</time>
      </trkpt>
      <trkpt lat="44.2859" lon="6.60938">
        <ele>2270.3</ele>
        <time>2013-09-03T12:22:09Z</time>
      </trkpt>
      <trkpt lat="44.28591" lon="6.60949">
        <ele>2268.9</ele>
        <time>2013-09-03T12:22:20Z</time>
      </trkpt>
      <trkpt lat="44.28592" lon="6.60956">
        <ele>2268.4</ele>
        <time>2013-09-03T12:22:33Z</time>
      </trkpt>
      <trkpt lat="44.28595" lon="6.60963">
        <ele>2267.9</ele>
        <time>2013-09-03T12:22:39Z</time>
      </trkpt>
      <trkpt lat="44.28602" lon="6.60987">
        <ele>2264</ele>
        <time>2013-09-03T12:22:58Z</time>
      </trkpt>
      <trkpt lat="44.28606" lon="6.61009">
        <ele>2262.6</ele>
        <time>2013-09-03T12:23:15Z</time>
      </trkpt>
      <trkpt lat="44.28607" lon="6.61019">
        <ele>2260.2</ele>
        <time>2013-09-03T12:23:30Z</time>
      </trkpt>
      <trkpt lat="44.2861" lon="6.61017">
        <ele>2260.2</ele>
        <time>2013-09-03T12:23:41Z</time>
      </trkpt>
      <trkpt lat="44.28608" lon="6.61018">
        <ele>2260.2</ele>
        <time>2013-09-03T12:24:00Z</time>
      </trkpt>
      <trkpt lat="44.28604" lon="6.61018">
        <ele>2260.2</ele>
        <time>2013-09-03T12:24:37Z</time>
      </trkpt>
      <trkpt lat="44.28608" lon="6.61018">
        <ele>2260.2</ele>
        <time>2013-09-03T12:24:54Z</time>
      </trkpt>
      <trkpt lat="44.2862" lon="6.61018">
        <ele>2258.3</ele>
        <time>2013-09-03T12:25:02Z</time>
      </trkpt>
      <trkpt lat="44.2862" lon="6.61024">
        <ele>2258.3</ele>
        <time>2013-09-03T12:25:05Z</time>
      </trkpt>
      <trkpt lat="44.28613" lon="6.6105">
        <ele>2255.4</ele>
        <time>2013-09-03T12:25:14Z</time>
      </trkpt>
      <trkpt lat="44.28604" lon="6.61061">
        <ele>2254.4</ele>
        <time>2013-09-03T12:25:24Z</time>
      </trkpt>
      <trkpt lat="44.28598" lon="6.61065">
        <ele>2253.5</ele>
        <time>2013-09-03T12:25:31Z</time>
      </trkpt>
      <trkpt lat="44.28596" lon="6.61068">
        <ele>2252</ele>
        <time>2013-09-03T12:25:35Z</time>
      </trkpt>
      <trkpt lat="44.28596" lon="6.61069">
        <ele>2253</ele>
        <time>2013-09-03T12:25:40Z</time>
      </trkpt>
      <trkpt lat="44.28595" lon="6.6107">
        <ele>2253.5</ele>
        <time>2013-09-03T12:25:41Z</time>
      </trkpt>
      <trkpt lat="44.28593" lon="6.61071">
        <ele>2253</ele>
        <time>2013-09-03T12:25:42Z</time>
      </trkpt>
      <trkpt lat="44.28581" lon="6.61075">
        <ele>2251.5</ele>
        <time>2013-09-03T12:25:48Z</time>
      </trkpt>
      <trkpt lat="44.28579" lon="6.61074">
        <ele>2251.1</ele>
        <time>2013-09-03T12:25:49Z</time>
      </trkpt>
      <trkpt lat="44.28577" lon="6.61072">
        <ele>2250.6</ele>
        <time>2013-09-03T12:25:50Z</time>
      </trkpt>
      <trkpt lat="44.28574" lon="6.61071">
        <ele>2250.6</ele>
        <time>2013-09-03T12:25:51Z</time>
      </trkpt>
      <trkpt lat="44.28571" lon="6.61072">
        <ele>2250.1</ele>
        <time>2013-09-03T12:25:52Z</time>
      </trkpt>
      <trkpt lat="44.28568" lon="6.61072">
        <ele>2249.1</ele>
        <time>2013-09-03T12:25:53Z</time>
      </trkpt>
      <trkpt lat="44.28566" lon="6.61073">
        <ele>2249.1</ele>
        <time>2013-09-03T12:25:54Z</time>
      </trkpt>
      <trkpt lat="44.28543" lon="6.61071">
        <ele>2246.7</ele>
        <time>2013-09-03T12:26:01Z</time>
      </trkpt>
      <trkpt lat="44.28538" lon="6.61062">
        <ele>2245.3</ele>
        <time>2013-09-03T12:26:04Z</time>
      </trkpt>
      <trkpt lat="44.28537" lon="6.61058">
        <ele>2245.8</ele>
        <time>2013-09-03T12:26:05Z</time>
      </trkpt>
      <trkpt lat="44.28537" lon="6.61055">
        <ele>2245.3</ele>
        <time>2013-09-03T12:26:06Z</time>
      </trkpt>
      <trkpt lat="44.28536" lon="6.61048">
        <ele>2245.3</ele>
        <time>2013-09-03T12:26:15Z</time>
      </trkpt>
      <trkpt lat="44.28533" lon="6.61047">
        <ele>2244.3</ele>
        <time>2013-09-03T12:26:19Z</time>
      </trkpt>
      <trkpt lat="44.2853" lon="6.61056">
        <ele>2243.9</ele>
        <time>2013-09-03T12:26:31Z</time>
      </trkpt>
      <trkpt lat="44.28523" lon="6.61064">
        <ele>2243.4</ele>
        <time>2013-09-03T12:26:36Z</time>
      </trkpt>
      <trkpt lat="44.28521" lon="6.61065">
        <ele>2242.9</ele>
        <time>2013-09-03T12:26:37Z</time>
      </trkpt>
      <trkpt lat="44.28519" lon="6.61067">
        <ele>2242.4</ele>
        <time>2013-09-03T12:26:38Z</time>
      </trkpt>
      <trkpt lat="44.2851" lon="6.61079">
        <ele>2241.5</ele>
        <time>2013-09-03T12:26:42Z</time>
      </trkpt>
      <trkpt lat="44.285" lon="6.6109">
        <ele>2239.5</ele>
        <time>2013-09-03T12:26:47Z</time>
      </trkpt>
      <trkpt lat="44.28499" lon="6.61092">
        <ele>2240</ele>
        <time>2013-09-03T12:26:48Z</time>
      </trkpt>
      <trkpt lat="44.28499" lon="6.61095">
        <ele>2239.5</ele>
        <time>2013-09-03T12:26:49Z</time>
      </trkpt>
      <trkpt lat="44.28499" lon="6.61098">
        <ele>2239.5</ele>
        <time>2013-09-03T12:26:50Z</time>
      </trkpt>
      <trkpt lat="44.28499" lon="6.61101">
        <ele>2239.1</ele>
        <time>2013-09-03T12:26:51Z</time>
      </trkpt>
      <trkpt lat="44.28499" lon="6.61104">
        <ele>2239.1</ele>
        <time>2013-09-03T12:26:52Z</time>
      </trkpt>
      <trkpt lat="44.28499" lon="6.6113">
        <ele>2235.7</ele>
        <time>2013-09-03T12:26:58Z</time>
      </trkpt>
      <trkpt lat="44.28494" lon="6.61148">
        <ele>2235.2</ele>
        <time>2013-09-03T12:27:03Z</time>
      </trkpt>
      <trkpt lat="44.28495" lon="6.61154">
        <ele>2234.2</ele>
        <time>2013-09-03T12:27:05Z</time>
      </trkpt>
      <trkpt lat="44.28496" lon="6.61163">
        <ele>2233.8</ele>
        <time>2013-09-03T12:27:07Z</time>
      </trkpt>
      <trkpt lat="44.28502" lon="6.6119">
        <ele>2231.4</ele>
        <time>2013-09-03T12:27:12Z</time>
      </trkpt>
      <trkpt lat="44.28503" lon="6.61201">
        <ele>2230.4</ele>
        <time>2013-09-03T12:27:14Z</time>
      </trkpt>
      <trkpt lat="44.28504" lon="6.61212">
        <ele>2229.4</ele>
        <time>2013-09-03T12:27:16Z</time>
      </trkpt>
      <trkpt lat="44.2849" lon="6.61238">
        <ele>2227</ele>
        <time>2013-09-03T12:27:22Z</time>
      </trkpt>
      <trkpt lat="44.28476" lon="6.61274">
        <ele>2224.2</ele>
        <time>2013-09-03T12:27:28Z</time>
      </trkpt>
      <trkpt lat="44.28463" lon="6.61293">
        <ele>2221.3</ele>
        <time>2013-09-03T12:27:34Z</time>
      </trkpt>
      <trkpt lat="44.28462" lon="6.61299">
        <ele>2220.8</ele>
        <time>2013-09-03T12:27:43Z</time>
      </trkpt>
      <trkpt lat="44.28486" lon="6.61295">
        <ele>2217.4</ele>
        <time>2013-09-03T12:27:52Z</time>
      </trkpt>
      <trkpt lat="44.28489" lon="6.61295">
        <ele>2216.9</ele>
        <time>2013-09-03T12:27:53Z</time>
      </trkpt>
      <trkpt lat="44.28505" lon="6.61291">
        <ele>2214.5</ele>
        <time>2013-09-03T12:27:58Z</time>
      </trkpt>
      <trkpt lat="44.28515" lon="6.61287">
        <ele>2212.1</ele>
        <time>2013-09-03T12:28:06Z</time>
      </trkpt>
      <trkpt lat="44.28513" lon="6.61289">
        <ele>2212.1</ele>
        <time>2013-09-03T12:28:20Z</time>
      </trkpt>
      <trkpt lat="44.28503" lon="6.61309">
        <ele>2210.7</ele>
        <time>2013-09-03T12:28:26Z</time>
      </trkpt>
      <trkpt lat="44.28498" lon="6.6132">
        <ele>2210.2</ele>
        <time>2013-09-03T12:28:28Z</time>
      </trkpt>
      <trkpt lat="44.28485" lon="6.61336">
        <ele>2207.8</ele>
        <time>2013-09-03T12:28:32Z</time>
      </trkpt>
      <trkpt lat="44.28466" lon="6.61352">
        <ele>2205.4</ele>
        <time>2013-09-03T12:28:37Z</time>
      </trkpt>
      <trkpt lat="44.28449" lon="6.61376">
        <ele>2202</ele>
        <time>2013-09-03T12:28:44Z</time>
      </trkpt>
      <trkpt lat="44.28425" lon="6.61413">
        <ele>2198.7</ele>
        <time>2013-09-03T12:28:53Z</time>
      </trkpt>
      <trkpt lat="44.28419" lon="6.61426">
        <ele>2196.8</ele>
        <time>2013-09-03T12:28:56Z</time>
      </trkpt>
      <trkpt lat="44.28418" lon="6.61431">
        <ele>2196.8</ele>
        <time>2013-09-03T12:28:57Z</time>
      </trkpt>
      <trkpt lat="44.28402" lon="6.61458">
        <ele>2192.9</ele>
        <time>2013-09-03T12:29:03Z</time>
      </trkpt>
      <trkpt lat="44.28395" lon="6.61465">
        <ele>2192.4</ele>
        <time>2013-09-03T12:29:05Z</time>
      </trkpt>
      <trkpt lat="44.28387" lon="6.6147">
        <ele>2191.5</ele>
        <time>2013-09-03T12:29:07Z</time>
      </trkpt>
      <trkpt lat="44.28378" lon="6.61478">
        <ele>2190.5</ele>
        <time>2013-09-03T12:29:09Z</time>
      </trkpt>
      <trkpt lat="44.28367" lon="6.61491">
        <ele>2188.1</ele>
        <time>2013-09-03T12:29:13Z</time>
      </trkpt>
      <trkpt lat="44.2836" lon="6.61497">
        <ele>2187.1</ele>
        <time>2013-09-03T12:29:15Z</time>
      </trkpt>
      <trkpt lat="44.28347" lon="6.61511">
        <ele>2184.7</ele>
        <time>2013-09-03T12:29:23Z</time>
      </trkpt>
      <trkpt lat="44.2835" lon="6.61511">
        <ele>2184.7</ele>
        <time>2013-09-03T12:29:48Z</time>
      </trkpt>
      <trkpt lat="44.28351" lon="6.61511">
        <ele>2184.7</ele>
        <time>2013-09-03T12:30:10Z</time>
      </trkpt>
      <trkpt lat="44.28363" lon="6.61515">
        <ele>2182.8</ele>
        <time>2013-09-03T12:30:15Z</time>
      </trkpt>
      <trkpt lat="44.28373" lon="6.61516">
        <ele>2181.9</ele>
        <time>2013-09-03T12:30:17Z</time>
      </trkpt>
      <trkpt lat="44.28396" lon="6.61516">
        <ele>2178.5</ele>
        <time>2013-09-03T12:30:22Z</time>
      </trkpt>
      <trkpt lat="44.28426" lon="6.61502">
        <ele>2173.7</ele>
        <time>2013-09-03T12:30:30Z</time>
      </trkpt>
      <trkpt lat="44.28429" lon="6.61499">
        <ele>2173.7</ele>
        <time>2013-09-03T12:30:31Z</time>
      </trkpt>
      <trkpt lat="44.28433" lon="6.61494">
        <ele>2172.2</ele>
        <time>2013-09-03T12:30:33Z</time>
      </trkpt>
      <trkpt lat="44.28441" lon="6.61485">
        <ele>2171.3</ele>
        <time>2013-09-03T12:30:37Z</time>
      </trkpt>
      <trkpt lat="44.2845" lon="6.61476">
        <ele>2169.8</ele>
        <time>2013-09-03T12:30:40Z</time>
      </trkpt>
      <trkpt lat="44.28462" lon="6.61485">
        <ele>2167.4</ele>
        <time>2013-09-03T12:30:47Z</time>
      </trkpt>
      <trkpt lat="44.28459" lon="6.61492">
        <ele>2166</ele>
        <time>2013-09-03T12:30:49Z</time>
      </trkpt>
      <trkpt lat="44.28442" lon="6.61524">
        <ele>2163.6</ele>
        <time>2013-09-03T12:30:57Z</time>
      </trkpt>
      <trkpt lat="44.28438" lon="6.61532">
        <ele>2162.1</ele>
        <time>2013-09-03T12:31:00Z</time>
      </trkpt>
      <trkpt lat="44.28432" lon="6.61542">
        <ele>2159.7</ele>
        <time>2013-09-03T12:31:05Z</time>
      </trkpt>
      <trkpt lat="44.28426" lon="6.61552">
        <ele>2156.4</ele>
        <time>2013-09-03T12:31:11Z</time>
      </trkpt>
      <trkpt lat="44.28422" lon="6.61558">
        <ele>2155.9</ele>
        <time>2013-09-03T12:31:26Z</time>
      </trkpt>
      <trkpt lat="44.28411" lon="6.61571">
        <ele>2154.5</ele>
        <time>2013-09-03T12:31:42Z</time>
      </trkpt>
      <trkpt lat="44.28407" lon="6.61579">
        <ele>2152.1</ele>
        <time>2013-09-03T12:31:45Z</time>
      </trkpt>
      <trkpt lat="44.28404" lon="6.61589">
        <ele>2150.1</ele>
        <time>2013-09-03T12:31:48Z</time>
      </trkpt>
      <trkpt lat="44.28402" lon="6.61603">
        <ele>2146.3</ele>
        <time>2013-09-03T12:31:53Z</time>
      </trkpt>
      <trkpt lat="44.28397" lon="6.61613">
        <ele>2144.8</ele>
        <time>2013-09-03T12:31:57Z</time>
      </trkpt>
      <trkpt lat="44.28395" lon="6.61617">
        <ele>2143.9</ele>
        <time>2013-09-03T12:31:58Z</time>
      </trkpt>
      <trkpt lat="44.28391" lon="6.61626">
        <ele>2142</ele>
        <time>2013-09-03T12:32:00Z</time>
      </trkpt>
      <trkpt lat="44.28389" lon="6.61633">
        <ele>2141</ele>
        <time>2013-09-03T12:32:01Z</time>
      </trkpt>
      <trkpt lat="44.28384" lon="6.61656">
        <ele>2137.6</ele>
        <time>2013-09-03T12:32:04Z</time>
      </trkpt>
      <trkpt lat="44.28379" lon="6.61674">
        <ele>2133.3</ele>
        <time>2013-09-03T12:32:07Z</time>
      </trkpt>
      <trkpt lat="44.28377" lon="6.6168">
        <ele>2131.9</ele>
        <time>2013-09-03T12:32:08Z</time>
      </trkpt>
      <trkpt lat="44.28374" lon="6.61686">
        <ele>2130.9</ele>
        <time>2013-09-03T12:32:09Z</time>
      </trkpt>
      <trkpt lat="44.28371" lon="6.61691">
        <ele>2129.5</ele>
        <time>2013-09-03T12:32:10Z</time>
      </trkpt>
      <trkpt lat="44.28367" lon="6.61695">
        <ele>2129</ele>
        <time>2013-09-03T12:32:11Z</time>
      </trkpt>
      <trkpt lat="44.28364" lon="6.61698">
        <ele>2128</ele>
        <time>2013-09-03T12:32:12Z</time>
      </trkpt>
      <trkpt lat="44.2836" lon="6.617">
        <ele>2128</ele>
        <time>2013-09-03T12:32:13Z</time>
      </trkpt>
      <trkpt lat="44.28356" lon="6.61701">
        <ele>2127.5</ele>
        <time>2013-09-03T12:32:14Z</time>
      </trkpt>
      <trkpt lat="44.28352" lon="6.61701">
        <ele>2126.6</ele>
        <time>2013-09-03T12:32:15Z</time>
      </trkpt>
      <trkpt lat="44.28348" lon="6.61701">
        <ele>2126.6</ele>
        <time>2013-09-03T12:32:16Z</time>
      </trkpt>
      <trkpt lat="44.28345" lon="6.617">
        <ele>2126.1</ele>
        <time>2013-09-03T12:32:17Z</time>
      </trkpt>
      <trkpt lat="44.28344" lon="6.61695">
        <ele>2126.1</ele>
        <time>2013-09-03T12:32:24Z</time>
      </trkpt>
      <trkpt lat="44.28347" lon="6.61695">
        <ele>2127.1</ele>
        <time>2013-09-03T12:32:44Z</time>
      </trkpt>
      <trkpt lat="44.28345" lon="6.61696">
        <ele>2126.1</ele>
        <time>2013-09-03T12:33:00Z</time>
      </trkpt>
      <trkpt lat="44.28345" lon="6.61693">
        <ele>2126.1</ele>
        <time>2013-09-03T12:33:34Z</time>
      </trkpt>
      <trkpt lat="44.28342" lon="6.61697">
        <ele>2126.1</ele>
        <time>2013-09-03T12:33:52Z</time>
      </trkpt>
      <trkpt lat="44.28339" lon="6.61696">
        <ele>2126.1</ele>
        <time>2013-09-03T12:34:00Z</time>
      </trkpt>
      <trkpt lat="44.28338" lon="6.61697">
        <ele>2125.1</ele>
        <time>2013-09-03T12:34:01Z</time>
      </trkpt>
      <trkpt lat="44.28336" lon="6.61696">
        <ele>2125.6</ele>
        <time>2013-09-03T12:34:02Z</time>
      </trkpt>
      <trkpt lat="44.28334" lon="6.61696">
        <ele>2125.6</ele>
        <time>2013-09-03T12:34:03Z</time>
      </trkpt>
      <trkpt lat="44.28331" lon="6.61695">
        <ele>2126.1</ele>
        <time>2013-09-03T12:34:04Z</time>
      </trkpt>
      <trkpt lat="44.28309" lon="6.61691">
        <ele>2122.7</ele>
        <time>2013-09-03T12:34:10Z</time>
      </trkpt>
      <trkpt lat="44.28306" lon="6.6169">
        <ele>2122.7</ele>
        <time>2013-09-03T12:34:11Z</time>
      </trkpt>
      <trkpt lat="44.28302" lon="6.61689">
        <ele>2122.7</ele>
        <time>2013-09-03T12:34:12Z</time>
      </trkpt>
      <trkpt lat="44.28298" lon="6.61689">
        <ele>2121.8</ele>
        <time>2013-09-03T12:34:13Z</time>
      </trkpt>
      <trkpt lat="44.2829" lon="6.61691">
        <ele>2121.3</ele>
        <time>2013-09-03T12:34:15Z</time>
      </trkpt>
      <trkpt lat="44.28269" lon="6.61695">
        <ele>2117.9</ele>
        <time>2013-09-03T12:34:21Z</time>
      </trkpt>
      <trkpt lat="44.28252" lon="6.61695">
        <ele>2116</ele>
        <time>2013-09-03T12:34:25Z</time>
      </trkpt>
      <trkpt lat="44.28225" lon="6.61679">
        <ele>2113.6</ele>
        <time>2013-09-03T12:34:34Z</time>
      </trkpt>
      <trkpt lat="44.28219" lon="6.61673">
        <ele>2113.1</ele>
        <time>2013-09-03T12:34:36Z</time>
      </trkpt>
      <trkpt lat="44.28209" lon="6.61659">
        <ele>2112.2</ele>
        <time>2013-09-03T12:34:46Z</time>
      </trkpt>
      <trkpt lat="44.28207" lon="6.61658">
        <ele>2112.2</ele>
        <time>2013-09-03T12:34:50Z</time>
      </trkpt>
      <trkpt lat="44.28194" lon="6.61657">
        <ele>2110.7</ele>
        <time>2013-09-03T12:35:03Z</time>
      </trkpt>
      <trkpt lat="44.28191" lon="6.61658">
        <ele>2111.2</ele>
        <time>2013-09-03T12:35:11Z</time>
      </trkpt>
      <trkpt lat="44.28185" lon="6.61655">
        <ele>2111.2</ele>
        <time>2013-09-03T12:35:15Z</time>
      </trkpt>
      <trkpt lat="44.28147" lon="6.61639">
        <ele>2107.4</ele>
        <time>2013-09-03T12:35:28Z</time>
      </trkpt>
      <trkpt lat="44.28131" lon="6.61615">
        <ele>2106.4</ele>
        <time>2013-09-03T12:35:38Z</time>
      </trkpt>
      <trkpt lat="44.28126" lon="6.61598">
        <ele>2105.4</ele>
        <time>2013-09-03T12:35:52Z</time>
      </trkpt>
      <trkpt lat="44.2812" lon="6.61592">
        <ele>2104.9</ele>
        <time>2013-09-03T12:35:56Z</time>
      </trkpt>
      <trkpt lat="44.28099" lon="6.61581">
        <ele>2103</ele>
        <time>2013-09-03T12:36:04Z</time>
      </trkpt>
      <trkpt lat="44.28094" lon="6.61571">
        <ele>2102.5</ele>
        <time>2013-09-03T12:36:07Z</time>
      </trkpt>
      <trkpt lat="44.28082" lon="6.61544">
        <ele>2101.1</ele>
        <time>2013-09-03T12:36:17Z</time>
      </trkpt>
      <trkpt lat="44.28079" lon="6.6154">
        <ele>2100.6</ele>
        <time>2013-09-03T12:36:19Z</time>
      </trkpt>
      <trkpt lat="44.28054" lon="6.61534">
        <ele>2097.7</ele>
        <time>2013-09-03T12:36:29Z</time>
      </trkpt>
      <trkpt lat="44.28051" lon="6.61532">
        <ele>2097.7</ele>
        <time>2013-09-03T12:36:30Z</time>
      </trkpt>
      <trkpt lat="44.28014" lon="6.61504">
        <ele>2095.3</ele>
        <time>2013-09-03T12:36:40Z</time>
      </trkpt>
      <trkpt lat="44.27997" lon="6.61474">
        <ele>2093.9</ele>
        <time>2013-09-03T12:36:48Z</time>
      </trkpt>
      <trkpt lat="44.27994" lon="6.6147">
        <ele>2093.4</ele>
        <time>2013-09-03T12:37:02Z</time>
      </trkpt>
      <trkpt lat="44.2799" lon="6.61463">
        <ele>2093.4</ele>
        <time>2013-09-03T12:37:16Z</time>
      </trkpt>
      <trkpt lat="44.2798" lon="6.61435">
        <ele>2091</ele>
        <time>2013-09-03T12:37:25Z</time>
      </trkpt>
      <trkpt lat="44.27965" lon="6.61371">
        <ele>2088.6</ele>
        <time>2013-09-03T12:37:36Z</time>
      </trkpt>
      <trkpt lat="44.27966" lon="6.61359">
        <ele>2087.6</ele>
        <time>2013-09-03T12:37:40Z</time>
      </trkpt>
      <trkpt lat="44.27979" lon="6.6133">
        <ele>2087.6</ele>
        <time>2013-09-03T12:37:49Z</time>
      </trkpt>
      <trkpt lat="44.27974" lon="6.61325">
        <ele>2086.7</ele>
        <time>2013-09-03T12:38:06Z</time>
      </trkpt>
      <trkpt lat="44.2797" lon="6.61329">
        <ele>2086.7</ele>
        <time>2013-09-03T12:38:15Z</time>
      </trkpt>
      <trkpt lat="44.27953" lon="6.61337">
        <ele>2084.3</ele>
        <time>2013-09-03T12:38:23Z</time>
      </trkpt>
      <trkpt lat="44.27948" lon="6.61314">
        <ele>2083.8</ele>
        <time>2013-09-03T12:38:30Z</time>
      </trkpt>
      <trkpt lat="44.27958" lon="6.61293">
        <ele>2084.8</ele>
        <time>2013-09-03T12:38:41Z</time>
      </trkpt>
      <trkpt lat="44.27958" lon="6.61291">
        <ele>2084.8</ele>
        <time>2013-09-03T12:38:42Z</time>
      </trkpt>
      <trkpt lat="44.27967" lon="6.61268">
        <ele>2084.8</ele>
        <time>2013-09-03T12:39:00Z</time>
      </trkpt>
      <trkpt lat="44.27964" lon="6.61259">
        <ele>2084.8</ele>
        <time>2013-09-03T12:39:15Z</time>
      </trkpt>
      <trkpt lat="44.27959" lon="6.61262">
        <ele>2084.8</ele>
        <time>2013-09-03T12:39:21Z</time>
      </trkpt>
      <trkpt lat="44.27953" lon="6.61253">
        <ele>2083.8</ele>
        <time>2013-09-03T12:39:36Z</time>
      </trkpt>
      <trkpt lat="44.27953" lon="6.61232">
        <ele>2085.2</ele>
        <time>2013-09-03T12:39:53Z</time>
      </trkpt>
      <trkpt lat="44.2795" lon="6.61224">
        <ele>2085.7</ele>
        <time>2013-09-03T12:40:07Z</time>
      </trkpt>
      <trkpt lat="44.27943" lon="6.61231">
        <ele>2085.2</ele>
        <time>2013-09-03T12:40:17Z</time>
      </trkpt>
      <trkpt lat="44.27939" lon="6.61238">
        <ele>2084.8</ele>
        <time>2013-09-03T12:40:24Z</time>
      </trkpt>
      <trkpt lat="44.27932" lon="6.61255">
        <ele>2084.3</ele>
        <time>2013-09-03T12:40:39Z</time>
      </trkpt>
      <trkpt lat="44.27925" lon="6.61266">
        <ele>2082.8</ele>
        <time>2013-09-03T12:40:56Z</time>
      </trkpt>
      <trkpt lat="44.27922" lon="6.61269">
        <ele>2082.4</ele>
        <time>2013-09-03T12:41:05Z</time>
      </trkpt>
      <trkpt lat="44.27908" lon="6.61281">
        <ele>2080.4</ele>
        <time>2013-09-03T12:41:23Z</time>
      </trkpt>
      <trkpt lat="44.27903" lon="6.61292">
        <ele>2080</ele>
        <time>2013-09-03T12:41:39Z</time>
      </trkpt>
      <trkpt lat="44.27896" lon="6.6131">
        <ele>2077.1</ele>
        <time>2013-09-03T12:41:54Z</time>
      </trkpt>
      <trkpt lat="44.27882" lon="6.61327">
        <ele>2074.7</ele>
        <time>2013-09-03T12:42:10Z</time>
      </trkpt>
      <trkpt lat="44.27866" lon="6.61343">
        <ele>2072.7</ele>
        <time>2013-09-03T12:42:26Z</time>
      </trkpt>
      <trkpt lat="44.27858" lon="6.61353">
        <ele>2072.3</ele>
        <time>2013-09-03T12:42:42Z</time>
      </trkpt>
      <trkpt lat="44.27861" lon="6.61354">
        <ele>2070.8</ele>
        <time>2013-09-03T12:42:47Z</time>
      </trkpt>
      <trkpt lat="44.27861" lon="6.61359">
        <ele>2070.3</ele>
        <time>2013-09-03T12:42:58Z</time>
      </trkpt>
      <trkpt lat="44.27858" lon="6.61373">
        <ele>2070.3</ele>
        <time>2013-09-03T12:43:07Z</time>
      </trkpt>
      <trkpt lat="44.27855" lon="6.61375">
        <ele>2070.8</ele>
        <time>2013-09-03T12:43:15Z</time>
      </trkpt>
      <trkpt lat="44.27855" lon="6.61379">
        <ele>2069.9</ele>
        <time>2013-09-03T12:43:18Z</time>
      </trkpt>
      <trkpt lat="44.27856" lon="6.61386">
        <ele>2068.9</ele>
        <time>2013-09-03T12:43:22Z</time>
      </trkpt>
      <trkpt lat="44.27854" lon="6.61398">
        <ele>2067</ele>
        <time>2013-09-03T12:43:35Z</time>
      </trkpt>
      <trkpt lat="44.27854" lon="6.61402">
        <ele>2067</ele>
        <time>2013-09-03T12:43:41Z</time>
      </trkpt>
      <trkpt lat="44.27838" lon="6.61425">
        <ele>2063.6</ele>
        <time>2013-09-03T12:43:49Z</time>
      </trkpt>
      <trkpt lat="44.27825" lon="6.61445">
        <ele>2061.7</ele>
        <time>2013-09-03T12:43:54Z</time>
      </trkpt>
      <trkpt lat="44.27816" lon="6.61463">
        <ele>2059.3</ele>
        <time>2013-09-03T12:43:58Z</time>
      </trkpt>
      <trkpt lat="44.27815" lon="6.61474">
        <ele>2058.3</ele>
        <time>2013-09-03T12:44:00Z</time>
      </trkpt>
      <trkpt lat="44.27807" lon="6.61501">
        <ele>2055</ele>
        <time>2013-09-03T12:44:04Z</time>
      </trkpt>
      <trkpt lat="44.27795" lon="6.61537">
        <ele>2051.6</ele>
        <time>2013-09-03T12:44:10Z</time>
      </trkpt>
      <trkpt lat="44.27772" lon="6.61557">
        <ele>2049.2</ele>
        <time>2013-09-03T12:44:16Z</time>
      </trkpt>
      <trkpt lat="44.27751" lon="6.61551">
        <ele>2047.8</ele>
        <time>2013-09-03T12:44:22Z</time>
      </trkpt>
      <trkpt lat="44.27747" lon="6.61545">
        <ele>2046.8</ele>
        <time>2013-09-03T12:44:24Z</time>
      </trkpt>
      <trkpt lat="44.27736" lon="6.6153">
        <ele>2043.9</ele>
        <time>2013-09-03T12:44:28Z</time>
      </trkpt>
      <trkpt lat="44.27718" lon="6.61516">
        <ele>2040.5</ele>
        <time>2013-09-03T12:44:34Z</time>
      </trkpt>
      <trkpt lat="44.27713" lon="6.61516">
        <ele>2039.6</ele>
        <time>2013-09-03T12:44:37Z</time>
      </trkpt>
      <trkpt lat="44.27703" lon="6.61515">
        <ele>2038.1</ele>
        <time>2013-09-03T12:44:45Z</time>
      </trkpt>
      <trkpt lat="44.27697" lon="6.61511">
        <ele>2036.7</ele>
        <time>2013-09-03T12:44:59Z</time>
      </trkpt>
      <trkpt lat="44.27696" lon="6.61515">
        <ele>2038.1</ele>
        <time>2013-09-03T12:45:11Z</time>
      </trkpt>
      <trkpt lat="44.27694" lon="6.61524">
        <ele>2038.6</ele>
        <time>2013-09-03T12:45:25Z</time>
      </trkpt>
      <trkpt lat="44.27692" lon="6.61556">
        <ele>2036.2</ele>
        <time>2013-09-03T12:45:33Z</time>
      </trkpt>
      <trkpt lat="44.27698" lon="6.61585">
        <ele>2034.3</ele>
        <time>2013-09-03T12:45:38Z</time>
      </trkpt>
      <trkpt lat="44.277" lon="6.61618">
        <ele>2031.9</ele>
        <time>2013-09-03T12:45:45Z</time>
      </trkpt>
      <trkpt lat="44.27698" lon="6.61628">
        <ele>2030.4</ele>
        <time>2013-09-03T12:45:48Z</time>
      </trkpt>
      <trkpt lat="44.27698" lon="6.61654">
        <ele>2026.6</ele>
        <time>2013-09-03T12:45:56Z</time>
      </trkpt>
      <trkpt lat="44.27698" lon="6.61679">
        <ele>2024.2</ele>
        <time>2013-09-03T12:46:00Z</time>
      </trkpt>
      <trkpt lat="44.27694" lon="6.61701">
        <ele>2021.3</ele>
        <time>2013-09-03T12:46:04Z</time>
      </trkpt>
      <trkpt lat="44.2769" lon="6.6172">
        <ele>2019.9</ele>
        <time>2013-09-03T12:46:07Z</time>
      </trkpt>
      <trkpt lat="44.27689" lon="6.61727">
        <ele>2019.9</ele>
        <time>2013-09-03T12:46:08Z</time>
      </trkpt>
      <trkpt lat="44.27686" lon="6.61741">
        <ele>2018.4</ele>
        <time>2013-09-03T12:46:10Z</time>
      </trkpt>
      <trkpt lat="44.2768" lon="6.61769">
        <ele>2016.5</ele>
        <time>2013-09-03T12:46:14Z</time>
      </trkpt>
      <trkpt lat="44.27657" lon="6.61791">
        <ele>2013.6</ele>
        <time>2013-09-03T12:46:19Z</time>
      </trkpt>
      <trkpt lat="44.27654" lon="6.61794">
        <ele>2013.1</ele>
        <time>2013-09-03T12:46:20Z</time>
      </trkpt>
      <trkpt lat="44.27633" lon="6.61824">
        <ele>2010.3</ele>
        <time>2013-09-03T12:46:29Z</time>
      </trkpt>
      <trkpt lat="44.2763" lon="6.61827">
        <ele>2009.8</ele>
        <time>2013-09-03T12:46:41Z</time>
      </trkpt>
      <trkpt lat="44.27628" lon="6.61833">
        <ele>2008.3</ele>
        <time>2013-09-03T12:46:53Z</time>
      </trkpt>
      <trkpt lat="44.27622" lon="6.61836">
        <ele>2007.4</ele>
        <time>2013-09-03T12:46:59Z</time>
      </trkpt>
      <trkpt lat="44.27616" lon="6.61836">
        <ele>2007.4</ele>
        <time>2013-09-03T12:47:16Z</time>
      </trkpt>
      <trkpt lat="44.27615" lon="6.61837">
        <ele>2006.4</ele>
        <time>2013-09-03T12:47:33Z</time>
      </trkpt>
      <trkpt lat="44.27617" lon="6.61842">
        <ele>2006.9</ele>
        <time>2013-09-03T12:47:54Z</time>
      </trkpt>
      <trkpt lat="44.27618" lon="6.61846">
        <ele>2005.9</ele>
        <time>2013-09-03T12:48:27Z</time>
      </trkpt>
      <trkpt lat="44.27616" lon="6.61847">
        <ele>2006.4</ele>
        <time>2013-09-03T12:48:40Z</time>
      </trkpt>
      <trkpt lat="44.27609" lon="6.61866">
        <ele>2004</ele>
        <time>2013-09-03T12:48:47Z</time>
      </trkpt>
      <trkpt lat="44.27606" lon="6.61872">
        <ele>2003</ele>
        <time>2013-09-03T12:48:49Z</time>
      </trkpt>
      <trkpt lat="44.27602" lon="6.61883">
        <ele>2001.1</ele>
        <time>2013-09-03T12:48:53Z</time>
      </trkpt>
      <trkpt lat="44.2759" lon="6.61893">
        <ele>2000.2</ele>
        <time>2013-09-03T12:48:56Z</time>
      </trkpt>
      <trkpt lat="44.27575" lon="6.61915">
        <ele>1997.3</ele>
        <time>2013-09-03T12:49:00Z</time>
      </trkpt>
      <trkpt lat="44.27561" lon="6.6193">
        <ele>1995.8</ele>
        <time>2013-09-03T12:49:03Z</time>
      </trkpt>
      <trkpt lat="44.27552" lon="6.61942">
        <ele>1993.9</ele>
        <time>2013-09-03T12:49:06Z</time>
      </trkpt>
      <trkpt lat="44.27547" lon="6.61946">
        <ele>1993</ele>
        <time>2013-09-03T12:49:09Z</time>
      </trkpt>
      <trkpt lat="44.27548" lon="6.6195">
        <ele>1992.5</ele>
        <time>2013-09-03T12:49:11Z</time>
      </trkpt>
      <trkpt lat="44.27546" lon="6.6196">
        <ele>1992.5</ele>
        <time>2013-09-03T12:49:13Z</time>
      </trkpt>
      <trkpt lat="44.27542" lon="6.61974">
        <ele>1990.6</ele>
        <time>2013-09-03T12:49:15Z</time>
      </trkpt>
      <trkpt lat="44.27523" lon="6.62014">
        <ele>1987.2</ele>
        <time>2013-09-03T12:49:22Z</time>
      </trkpt>
      <trkpt lat="44.27516" lon="6.62021">
        <ele>1986.7</ele>
        <time>2013-09-03T12:49:26Z</time>
      </trkpt>
      <trkpt lat="44.27506" lon="6.62033">
        <ele>1984.3</ele>
        <time>2013-09-03T12:49:31Z</time>
      </trkpt>
      <trkpt lat="44.27505" lon="6.62042">
        <ele>1982.9</ele>
        <time>2013-09-03T12:49:39Z</time>
      </trkpt>
      <trkpt lat="44.27506" lon="6.62048">
        <ele>1982.4</ele>
        <time>2013-09-03T12:50:04Z</time>
      </trkpt>
      <trkpt lat="44.27502" lon="6.62048">
        <ele>1984.3</ele>
        <time>2013-09-03T12:50:18Z</time>
      </trkpt>
      <trkpt lat="44.27488" lon="6.62046">
        <ele>1983.8</ele>
        <time>2013-09-03T12:50:37Z</time>
      </trkpt>
      <trkpt lat="44.27492" lon="6.62052">
        <ele>1984.3</ele>
        <time>2013-09-03T12:51:08Z</time>
      </trkpt>
      <trkpt lat="44.27493" lon="6.62052">
        <ele>1983.8</ele>
        <time>2013-09-03T12:51:24Z</time>
      </trkpt>
      <trkpt lat="44.27485" lon="6.62039">
        <ele>1984.3</ele>
        <time>2013-09-03T12:52:01Z</time>
      </trkpt>
      <trkpt lat="44.27488" lon="6.62039">
        <ele>1984.8</ele>
        <time>2013-09-03T12:52:38Z</time>
      </trkpt>
      <trkpt lat="44.27492" lon="6.62045">
        <ele>1984.8</ele>
        <time>2013-09-03T12:53:07Z</time>
      </trkpt>
      <trkpt lat="44.27502" lon="6.62045">
        <ele>1984.8</ele>
        <time>2013-09-03T12:53:33Z</time>
      </trkpt>
      <trkpt lat="44.27505" lon="6.62047">
        <ele>1985.3</ele>
        <time>2013-09-03T12:53:58Z</time>
      </trkpt>
      <trkpt lat="44.2751" lon="6.62054">
        <ele>1985.7</ele>
        <time>2013-09-03T12:54:26Z</time>
      </trkpt>
      <trkpt lat="44.27502" lon="6.62042">
        <ele>1986.2</ele>
        <time>2013-09-03T12:54:57Z</time>
      </trkpt>
      <trkpt lat="44.27507" lon="6.62062">
        <ele>1986.7</ele>
        <time>2013-09-03T12:55:34Z</time>
      </trkpt>
      <trkpt lat="44.27507" lon="6.62057">
        <ele>1987.7</ele>
        <time>2013-09-03T12:56:11Z</time>
      </trkpt>
      <trkpt lat="44.27519" lon="6.62061">
        <ele>1988.1</ele>
        <time>2013-09-03T12:56:52Z</time>
      </trkpt>
      <trkpt lat="44.27509" lon="6.62049">
        <ele>1989.1</ele>
        <time>2013-09-03T12:57:31Z</time>
      </trkpt>
      <trkpt lat="44.27489" lon="6.62037">
        <ele>1989.1</ele>
        <time>2013-09-03T12:58:17Z</time>
      </trkpt>
      <trkpt lat="44.27501" lon="6.6206">
        <ele>1990.1</ele>
        <time>2013-09-03T12:58:56Z</time>
      </trkpt>
      <trkpt lat="44.27493" lon="6.62051">
        <ele>1989.6</ele>
        <time>2013-09-03T12:59:25Z</time>
      </trkpt>
      <trkpt lat="44.275" lon="6.62045">
        <ele>1990.1</ele>
        <time>2013-09-03T13:00:04Z</time>
      </trkpt>
      <trkpt lat="44.27497" lon="6.62044">
        <ele>1990.6</ele>
        <time>2013-09-03T13:00:43Z</time>
      </trkpt>
      <trkpt lat="44.27498" lon="6.62043">
        <ele>1991</ele>
        <time>2013-09-03T13:01:16Z</time>
      </trkpt>
      <trkpt lat="44.27495" lon="6.62048">
        <ele>1990.6</ele>
        <time>2013-09-03T13:01:28Z</time>
      </trkpt>
      <trkpt lat="44.27495" lon="6.62057">
        <ele>1989.1</ele>
        <time>2013-09-03T13:01:33Z</time>
      </trkpt>
      <trkpt lat="44.27494" lon="6.62066">
        <ele>1987.7</ele>
        <time>2013-09-03T13:01:35Z</time>
      </trkpt>
      <trkpt lat="44.27493" lon="6.62076">
        <ele>1986.7</ele>
        <time>2013-09-03T13:01:37Z</time>
      </trkpt>
      <trkpt lat="44.27494" lon="6.62091">
        <ele>1985.3</ele>
        <time>2013-09-03T13:01:40Z</time>
      </trkpt>
      <trkpt lat="44.27497" lon="6.62113">
        <ele>1982.4</ele>
        <time>2013-09-03T13:01:44Z</time>
      </trkpt>
      <trkpt lat="44.27499" lon="6.62128">
        <ele>1980.9</ele>
        <time>2013-09-03T13:01:47Z</time>
      </trkpt>
      <trkpt lat="44.27502" lon="6.62132">
        <ele>1980</ele>
        <time>2013-09-03T13:01:49Z</time>
      </trkpt>
      <trkpt lat="44.27509" lon="6.62147">
        <ele>1977.6</ele>
        <time>2013-09-03T13:01:54Z</time>
      </trkpt>
      <trkpt lat="44.27507" lon="6.6215">
        <ele>1977.1</ele>
        <time>2013-09-03T13:01:55Z</time>
      </trkpt>
      <trkpt lat="44.275" lon="6.62161">
        <ele>1975.2</ele>
        <time>2013-09-03T13:01:59Z</time>
      </trkpt>
      <trkpt lat="44.27499" lon="6.62163">
        <ele>1975.2</ele>
        <time>2013-09-03T13:02:00Z</time>
      </trkpt>
      <trkpt lat="44.27469" lon="6.62168">
        <ele>1972.3</ele>
        <time>2013-09-03T13:02:05Z</time>
      </trkpt>
      <trkpt lat="44.27434" lon="6.62188">
        <ele>1968.9</ele>
        <time>2013-09-03T13:02:14Z</time>
      </trkpt>
      <trkpt lat="44.27401" lon="6.62205">
        <ele>1966</ele>
        <time>2013-09-03T13:02:21Z</time>
      </trkpt>
      <trkpt lat="44.2738" lon="6.62209">
        <ele>1964.1</ele>
        <time>2013-09-03T13:02:27Z</time>
      </trkpt>
      <trkpt lat="44.27378" lon="6.62256">
        <ele>1961.2</ele>
        <time>2013-09-03T13:02:35Z</time>
      </trkpt>
      <trkpt lat="44.27377" lon="6.62261">
        <ele>1961.2</ele>
        <time>2013-09-03T13:02:38Z</time>
      </trkpt>
      <trkpt lat="44.27366" lon="6.62269">
        <ele>1959.8</ele>
        <time>2013-09-03T13:02:44Z</time>
      </trkpt>
      <trkpt lat="44.27359" lon="6.62274">
        <ele>1958.3</ele>
        <time>2013-09-03T13:02:46Z</time>
      </trkpt>
      <trkpt lat="44.27329" lon="6.62304">
        <ele>1955</ele>
        <time>2013-09-03T13:02:57Z</time>
      </trkpt>
      <trkpt lat="44.27311" lon="6.62342">
        <ele>1952.1</ele>
        <time>2013-09-03T13:03:07Z</time>
      </trkpt>
      <trkpt lat="44.27293" lon="6.62361">
        <ele>1950.2</ele>
        <time>2013-09-03T13:03:14Z</time>
      </trkpt>
      <trkpt lat="44.27298" lon="6.62387">
        <ele>1948.3</ele>
        <time>2013-09-03T13:03:20Z</time>
      </trkpt>
      <trkpt lat="44.27294" lon="6.62388">
        <ele>1948.7</ele>
        <time>2013-09-03T13:03:31Z</time>
      </trkpt>
      <trkpt lat="44.27313" lon="6.62424">
        <ele>1947.3</ele>
        <time>2013-09-03T13:03:47Z</time>
      </trkpt>
      <trkpt lat="44.27318" lon="6.62446">
        <ele>1943.9</ele>
        <time>2013-09-03T13:04:01Z</time>
      </trkpt>
      <trkpt lat="44.27317" lon="6.62451">
        <ele>1943</ele>
        <time>2013-09-03T13:04:13Z</time>
      </trkpt>
      <trkpt lat="44.27299" lon="6.62482">
        <ele>1941</ele>
        <time>2013-09-03T13:04:24Z</time>
      </trkpt>
      <trkpt lat="44.27292" lon="6.625">
        <ele>1938.6</ele>
        <time>2013-09-03T13:04:29Z</time>
      </trkpt>
      <trkpt lat="44.27286" lon="6.62514">
        <ele>1936.7</ele>
        <time>2013-09-03T13:04:33Z</time>
      </trkpt>
      <trkpt lat="44.27282" lon="6.62525">
        <ele>1934.8</ele>
        <time>2013-09-03T13:04:36Z</time>
      </trkpt>
      <trkpt lat="44.27266" lon="6.62553">
        <ele>1931.9</ele>
        <time>2013-09-03T13:04:44Z</time>
      </trkpt>
      <trkpt lat="44.27258" lon="6.62561">
        <ele>1930</ele>
        <time>2013-09-03T13:04:47Z</time>
      </trkpt>
      <trkpt lat="44.27241" lon="6.62564">
        <ele>1928.5</ele>
        <time>2013-09-03T13:04:52Z</time>
      </trkpt>
      <trkpt lat="44.27237" lon="6.62566">
        <ele>1927.6</ele>
        <time>2013-09-03T13:04:53Z</time>
      </trkpt>
      <trkpt lat="44.27231" lon="6.62572">
        <ele>1926.6</ele>
        <time>2013-09-03T13:04:55Z</time>
      </trkpt>
      <trkpt lat="44.2722" lon="6.62596">
        <ele>1924.2</ele>
        <time>2013-09-03T13:05:00Z</time>
      </trkpt>
      <trkpt lat="44.27213" lon="6.62603">
        <ele>1923.7</ele>
        <time>2013-09-03T13:05:02Z</time>
      </trkpt>
      <trkpt lat="44.27209" lon="6.62605">
        <ele>1922.8</ele>
        <time>2013-09-03T13:05:03Z</time>
      </trkpt>
      <trkpt lat="44.2719" lon="6.62622">
        <ele>1920.9</ele>
        <time>2013-09-03T13:05:08Z</time>
      </trkpt>
      <trkpt lat="44.27167" lon="6.6264">
        <ele>1917.5</ele>
        <time>2013-09-03T13:05:14Z</time>
      </trkpt>
      <trkpt lat="44.27158" lon="6.62646">
        <ele>1917</ele>
        <time>2013-09-03T13:05:16Z</time>
      </trkpt>
      <trkpt lat="44.27138" lon="6.62658">
        <ele>1913.6</ele>
        <time>2013-09-03T13:05:21Z</time>
      </trkpt>
      <trkpt lat="44.27135" lon="6.62661">
        <ele>1913.2</ele>
        <time>2013-09-03T13:05:22Z</time>
      </trkpt>
      <trkpt lat="44.2711" lon="6.62673">
        <ele>1909.8</ele>
        <time>2013-09-03T13:05:28Z</time>
      </trkpt>
      <trkpt lat="44.27106" lon="6.62676">
        <ele>1909.3</ele>
        <time>2013-09-03T13:05:29Z</time>
      </trkpt>
      <trkpt lat="44.27101" lon="6.62679">
        <ele>1908.8</ele>
        <time>2013-09-03T13:05:30Z</time>
      </trkpt>
      <trkpt lat="44.27076" lon="6.6268">
        <ele>1906</ele>
        <time>2013-09-03T13:05:38Z</time>
      </trkpt>
      <trkpt lat="44.27059" lon="6.62683">
        <ele>1904.5</ele>
        <time>2013-09-03T13:05:43Z</time>
      </trkpt>
      <trkpt lat="44.27049" lon="6.62697">
        <ele>1902.1</ele>
        <time>2013-09-03T13:05:50Z</time>
      </trkpt>
      <trkpt lat="44.2704" lon="6.62702">
        <ele>1899.7</ele>
        <time>2013-09-03T13:06:04Z</time>
      </trkpt>
      <trkpt lat="44.27036" lon="6.62705">
        <ele>1899.2</ele>
        <time>2013-09-03T13:06:16Z</time>
      </trkpt>
      <trkpt lat="44.27036" lon="6.62705">
        <ele>1898.7</ele>
        <time>2013-09-03T13:06:21Z</time>
      </trkpt>
      <trkpt lat="44.27025" lon="6.62716">
        <ele>1896.8</ele>
        <time>2013-09-03T13:06:28Z</time>
      </trkpt>
      <trkpt lat="44.27015" lon="6.6273">
        <ele>1894.9</ele>
        <time>2013-09-03T13:06:32Z</time>
      </trkpt>
      <trkpt lat="44.27006" lon="6.62738">
        <ele>1893.9</ele>
        <time>2013-09-03T13:06:34Z</time>
      </trkpt>
      <trkpt lat="44.26992" lon="6.62754">
        <ele>1892.5</ele>
        <time>2013-09-03T13:06:38Z</time>
      </trkpt>
      <trkpt lat="44.26964" lon="6.62763">
        <ele>1889.1</ele>
        <time>2013-09-03T13:06:46Z</time>
      </trkpt>
      <trkpt lat="44.2696" lon="6.62764">
        <ele>1888.7</ele>
        <time>2013-09-03T13:06:47Z</time>
      </trkpt>
      <trkpt lat="44.26946" lon="6.62767">
        <ele>1886.7</ele>
        <time>2013-09-03T13:06:50Z</time>
      </trkpt>
      <trkpt lat="44.26923" lon="6.62774">
        <ele>1883.4</ele>
        <time>2013-09-03T13:06:55Z</time>
      </trkpt>
      <trkpt lat="44.26894" lon="6.62776">
        <ele>1880</ele>
        <time>2013-09-03T13:07:01Z</time>
      </trkpt>
      <trkpt lat="44.26869" lon="6.62771">
        <ele>1876.6</ele>
        <time>2013-09-03T13:07:07Z</time>
      </trkpt>
      <trkpt lat="44.26864" lon="6.62771">
        <ele>1876.2</ele>
        <time>2013-09-03T13:07:08Z</time>
      </trkpt>
      <trkpt lat="44.26844" lon="6.62761">
        <ele>1873.8</ele>
        <time>2013-09-03T13:07:12Z</time>
      </trkpt>
      <trkpt lat="44.26838" lon="6.62751">
        <ele>1873.3</ele>
        <time>2013-09-03T13:07:14Z</time>
      </trkpt>
      <trkpt lat="44.26819" lon="6.62725">
        <ele>1869.4</ele>
        <time>2013-09-03T13:07:22Z</time>
      </trkpt>
      <trkpt lat="44.268" lon="6.62709">
        <ele>1868</ele>
        <time>2013-09-03T13:07:28Z</time>
      </trkpt>
      <trkpt lat="44.26793" lon="6.62706">
        <ele>1866.5</ele>
        <time>2013-09-03T13:07:30Z</time>
      </trkpt>
      <trkpt lat="44.26775" lon="6.62707">
        <ele>1865.1</ele>
        <time>2013-09-03T13:07:34Z</time>
      </trkpt>
      <trkpt lat="44.26755" lon="6.62696">
        <ele>1861.7</ele>
        <time>2013-09-03T13:07:42Z</time>
      </trkpt>
      <trkpt lat="44.26748" lon="6.62696">
        <ele>1860.8</ele>
        <time>2013-09-03T13:07:46Z</time>
      </trkpt>
      <trkpt lat="44.26747" lon="6.62706">
        <ele>1859.8</ele>
        <time>2013-09-03T13:07:57Z</time>
      </trkpt>
      <trkpt lat="44.2675" lon="6.62712">
        <ele>1858.4</ele>
        <time>2013-09-03T13:08:15Z</time>
      </trkpt>
      <trkpt lat="44.26749" lon="6.62715">
        <ele>1857.9</ele>
        <time>2013-09-03T13:08:20Z</time>
      </trkpt>
      <trkpt lat="44.26747" lon="6.62719">
        <ele>1857.4</ele>
        <time>2013-09-03T13:08:35Z</time>
      </trkpt>
      <trkpt lat="44.26739" lon="6.62723">
        <ele>1856.4</ele>
        <time>2013-09-03T13:08:50Z</time>
      </trkpt>
      <trkpt lat="44.2672" lon="6.6273">
        <ele>1853.1</ele>
        <time>2013-09-03T13:08:56Z</time>
      </trkpt>
      <trkpt lat="44.26705" lon="6.62763">
        <ele>1850.2</ele>
        <time>2013-09-03T13:09:03Z</time>
      </trkpt>
      <trkpt lat="44.26703" lon="6.62776">
        <ele>1849.2</ele>
        <time>2013-09-03T13:09:05Z</time>
      </trkpt>
      <trkpt lat="44.26684" lon="6.62802">
        <ele>1845.4</ele>
        <time>2013-09-03T13:09:11Z</time>
      </trkpt>
      <trkpt lat="44.26664" lon="6.62816">
        <ele>1842.5</ele>
        <time>2013-09-03T13:09:15Z</time>
      </trkpt>
      <trkpt lat="44.26647" lon="6.62835">
        <ele>1839.1</ele>
        <time>2013-09-03T13:09:19Z</time>
      </trkpt>
      <trkpt lat="44.26631" lon="6.62848">
        <ele>1837.7</ele>
        <time>2013-09-03T13:09:22Z</time>
      </trkpt>
      <trkpt lat="44.26604" lon="6.62855">
        <ele>1835.3</ele>
        <time>2013-09-03T13:09:26Z</time>
      </trkpt>
      <trkpt lat="44.26597" lon="6.62855">
        <ele>1834.8</ele>
        <time>2013-09-03T13:09:27Z</time>
      </trkpt>
      <trkpt lat="44.26575" lon="6.62864">
        <ele>1832.4</ele>
        <time>2013-09-03T13:09:30Z</time>
      </trkpt>
      <trkpt lat="44.26567" lon="6.62868">
        <ele>1831.5</ele>
        <time>2013-09-03T13:09:31Z</time>
      </trkpt>
      <trkpt lat="44.26561" lon="6.62883">
        <ele>1830</ele>
        <time>2013-09-03T13:09:33Z</time>
      </trkpt>
      <trkpt lat="44.26542" lon="6.62898">
        <ele>1827.1</ele>
        <time>2013-09-03T13:09:40Z</time>
      </trkpt>
      <trkpt lat="44.2654" lon="6.62898">
        <ele>1826.6</ele>
        <time>2013-09-03T13:09:41Z</time>
      </trkpt>
      <trkpt lat="44.26538" lon="6.62898">
        <ele>1826.2</ele>
        <time>2013-09-03T13:09:42Z</time>
      </trkpt>
      <trkpt lat="44.26536" lon="6.62897">
        <ele>1825.7</ele>
        <time>2013-09-03T13:09:43Z</time>
      </trkpt>
      <trkpt lat="44.26533" lon="6.62897">
        <ele>1824.7</ele>
        <time>2013-09-03T13:09:44Z</time>
      </trkpt>
      <trkpt lat="44.26529" lon="6.629">
        <ele>1823.8</ele>
        <time>2013-09-03T13:09:46Z</time>
      </trkpt>
      <trkpt lat="44.26528" lon="6.629">
        <ele>1823.3</ele>
        <time>2013-09-03T13:09:47Z</time>
      </trkpt>
      <trkpt lat="44.26527" lon="6.62898">
        <ele>1823.3</ele>
        <time>2013-09-03T13:09:48Z</time>
      </trkpt>
      <trkpt lat="44.26516" lon="6.62891">
        <ele>1819.4</ele>
        <time>2013-09-03T13:09:53Z</time>
      </trkpt>
      <trkpt lat="44.26507" lon="6.62886">
        <ele>1818</ele>
        <time>2013-09-03T13:09:56Z</time>
      </trkpt>
      <trkpt lat="44.26501" lon="6.62886">
        <ele>1816.6</ele>
        <time>2013-09-03T13:09:58Z</time>
      </trkpt>
      <trkpt lat="44.26501" lon="6.6289">
        <ele>1815.1</ele>
        <time>2013-09-03T13:09:59Z</time>
      </trkpt>
      <trkpt lat="44.26502" lon="6.62903">
        <ele>1814.2</ele>
        <time>2013-09-03T13:10:02Z</time>
      </trkpt>
      <trkpt lat="44.265" lon="6.62905">
        <ele>1813.7</ele>
        <time>2013-09-03T13:10:03Z</time>
      </trkpt>
      <trkpt lat="44.26497" lon="6.62905">
        <ele>1813.7</ele>
        <time>2013-09-03T13:10:04Z</time>
      </trkpt>
      <trkpt lat="44.26495" lon="6.62904">
        <ele>1813.2</ele>
        <time>2013-09-03T13:10:05Z</time>
      </trkpt>
      <trkpt lat="44.26493" lon="6.62902">
        <ele>1812.2</ele>
        <time>2013-09-03T13:10:06Z</time>
      </trkpt>
      <trkpt lat="44.26484" lon="6.6289">
        <ele>1810.8</ele>
        <time>2013-09-03T13:10:10Z</time>
      </trkpt>
      <trkpt lat="44.2648" lon="6.62886">
        <ele>1810.3</ele>
        <time>2013-09-03T13:10:11Z</time>
      </trkpt>
      <trkpt lat="44.26475" lon="6.62883">
        <ele>1809.8</ele>
        <time>2013-09-03T13:10:12Z</time>
      </trkpt>
      <trkpt lat="44.26471" lon="6.62881">
        <ele>1809.8</ele>
        <time>2013-09-03T13:10:13Z</time>
      </trkpt>
      <trkpt lat="44.26459" lon="6.62876">
        <ele>1807.4</ele>
        <time>2013-09-03T13:10:16Z</time>
      </trkpt>
      <trkpt lat="44.26456" lon="6.62873">
        <ele>1806.9</ele>
        <time>2013-09-03T13:10:17Z</time>
      </trkpt>
      <trkpt lat="44.2645" lon="6.62866">
        <ele>1806</ele>
        <time>2013-09-03T13:10:19Z</time>
      </trkpt>
      <trkpt lat="44.26444" lon="6.62861">
        <ele>1806</ele>
        <time>2013-09-03T13:10:21Z</time>
      </trkpt>
      <trkpt lat="44.26445" lon="6.62866">
        <ele>1805.5</ele>
        <time>2013-09-03T13:10:29Z</time>
      </trkpt>
      <trkpt lat="44.26447" lon="6.62869">
        <ele>1805.5</ele>
        <time>2013-09-03T13:10:32Z</time>
      </trkpt>
      <trkpt lat="44.26448" lon="6.6287">
        <ele>1805.5</ele>
        <time>2013-09-03T13:10:33Z</time>
      </trkpt>
      <trkpt lat="44.26449" lon="6.62872">
        <ele>1806</ele>
        <time>2013-09-03T13:10:34Z</time>
      </trkpt>
      <trkpt lat="44.26456" lon="6.62883">
        <ele>1804.1</ele>
        <time>2013-09-03T13:10:37Z</time>
      </trkpt>
      <trkpt lat="44.26466" lon="6.629">
        <ele>1802.6</ele>
        <time>2013-09-03T13:10:45Z</time>
      </trkpt>
      <trkpt lat="44.26465" lon="6.629">
        <ele>1802.6</ele>
        <time>2013-09-03T13:10:47Z</time>
      </trkpt>
      <trkpt lat="44.26463" lon="6.62901">
        <ele>1802.6</ele>
        <time>2013-09-03T13:10:48Z</time>
      </trkpt>
      <trkpt lat="44.26461" lon="6.62901">
        <ele>1801.7</ele>
        <time>2013-09-03T13:10:49Z</time>
      </trkpt>
      <trkpt lat="44.26457" lon="6.62901">
        <ele>1801.2</ele>
        <time>2013-09-03T13:10:50Z</time>
      </trkpt>
      <trkpt lat="44.26454" lon="6.62901">
        <ele>1800.2</ele>
        <time>2013-09-03T13:10:51Z</time>
      </trkpt>
      <trkpt lat="44.26449" lon="6.62901">
        <ele>1799.2</ele>
        <time>2013-09-03T13:10:52Z</time>
      </trkpt>
      <trkpt lat="44.26444" lon="6.62902">
        <ele>1798.3</ele>
        <time>2013-09-03T13:10:53Z</time>
      </trkpt>
      <trkpt lat="44.2644" lon="6.62905">
        <ele>1797.8</ele>
        <time>2013-09-03T13:10:54Z</time>
      </trkpt>
      <trkpt lat="44.26437" lon="6.62909">
        <ele>1796.8</ele>
        <time>2013-09-03T13:10:55Z</time>
      </trkpt>
      <trkpt lat="44.26434" lon="6.62914">
        <ele>1796.8</ele>
        <time>2013-09-03T13:10:56Z</time>
      </trkpt>
      <trkpt lat="44.2643" lon="6.62919">
        <ele>1795.4</ele>
        <time>2013-09-03T13:10:57Z</time>
      </trkpt>
      <trkpt lat="44.26425" lon="6.62924">
        <ele>1794.4</ele>
        <time>2013-09-03T13:10:58Z</time>
      </trkpt>
      <trkpt lat="44.26391" lon="6.62951">
        <ele>1791.1</ele>
        <time>2013-09-03T13:11:04Z</time>
      </trkpt>
      <trkpt lat="44.26379" lon="6.6296">
        <ele>1789.6</ele>
        <time>2013-09-03T13:11:06Z</time>
      </trkpt>
      <trkpt lat="44.26373" lon="6.62963">
        <ele>1789.2</ele>
        <time>2013-09-03T13:11:07Z</time>
      </trkpt>
      <trkpt lat="44.26366" lon="6.62966">
        <ele>1789.2</ele>
        <time>2013-09-03T13:11:08Z</time>
      </trkpt>
      <trkpt lat="44.26352" lon="6.62976">
        <ele>1786.3</ele>
        <time>2013-09-03T13:11:11Z</time>
      </trkpt>
      <trkpt lat="44.26347" lon="6.6298">
        <ele>1786.8</ele>
        <time>2013-09-03T13:11:12Z</time>
      </trkpt>
      <trkpt lat="44.26344" lon="6.62985">
        <ele>1786.3</ele>
        <time>2013-09-03T13:11:13Z</time>
      </trkpt>
      <trkpt lat="44.2634" lon="6.62991">
        <ele>1785.8</ele>
        <time>2013-09-03T13:11:14Z</time>
      </trkpt>
      <trkpt lat="44.26336" lon="6.62996">
        <ele>1785.8</ele>
        <time>2013-09-03T13:11:15Z</time>
      </trkpt>
      <trkpt lat="44.26333" lon="6.63003">
        <ele>1785.8</ele>
        <time>2013-09-03T13:11:16Z</time>
      </trkpt>
      <trkpt lat="44.26329" lon="6.63009">
        <ele>1785.3</ele>
        <time>2013-09-03T13:11:17Z</time>
      </trkpt>
      <trkpt lat="44.26325" lon="6.63015">
        <ele>1784.8</ele>
        <time>2013-09-03T13:11:18Z</time>
      </trkpt>
      <trkpt lat="44.26322" lon="6.6302">
        <ele>1784.8</ele>
        <time>2013-09-03T13:11:19Z</time>
      </trkpt>
      <trkpt lat="44.26319" lon="6.63025">
        <ele>1784.3</ele>
        <time>2013-09-03T13:11:20Z</time>
      </trkpt>
      <trkpt lat="44.26305" lon="6.63038">
        <ele>1781.5</ele>
        <time>2013-09-03T13:11:23Z</time>
      </trkpt>
      <trkpt lat="44.26299" lon="6.63041">
        <ele>1781</ele>
        <time>2013-09-03T13:11:24Z</time>
      </trkpt>
      <trkpt lat="44.26275" lon="6.63052">
        <ele>1782.9</ele>
        <time>2013-09-03T13:11:30Z</time>
      </trkpt>
      <trkpt lat="44.26247" lon="6.63064">
        <ele>1781.9</ele>
        <time>2013-09-03T13:11:42Z</time>
      </trkpt>
      <trkpt lat="44.26235" lon="6.63067">
        <ele>1780</ele>
        <time>2013-09-03T13:11:45Z</time>
      </trkpt>
      <trkpt lat="44.26218" lon="6.63066">
        <ele>1778.1</ele>
        <time>2013-09-03T13:11:49Z</time>
      </trkpt>
      <trkpt lat="44.26213" lon="6.63064">
        <ele>1777.1</ele>
        <time>2013-09-03T13:11:50Z</time>
      </trkpt>
      <trkpt lat="44.26203" lon="6.63062">
        <ele>1775.2</ele>
        <time>2013-09-03T13:11:52Z</time>
      </trkpt>
      <trkpt lat="44.26181" lon="6.63062">
        <ele>1772.3</ele>
        <time>2013-09-03T13:11:56Z</time>
      </trkpt>
      <trkpt lat="44.26172" lon="6.63061">
        <ele>1770.9</ele>
        <time>2013-09-03T13:11:58Z</time>
      </trkpt>
      <trkpt lat="44.26167" lon="6.63062">
        <ele>1771.4</ele>
        <time>2013-09-03T13:11:59Z</time>
      </trkpt>
      <trkpt lat="44.26164" lon="6.63064">
        <ele>1770.4</ele>
        <time>2013-09-03T13:12:00Z</time>
      </trkpt>
      <trkpt lat="44.26162" lon="6.63064">
        <ele>1769</ele>
        <time>2013-09-03T13:12:01Z</time>
      </trkpt>
      <trkpt lat="44.26159" lon="6.63061">
        <ele>1768.5</ele>
        <time>2013-09-03T13:12:02Z</time>
      </trkpt>
      <trkpt lat="44.26157" lon="6.63058">
        <ele>1768.5</ele>
        <time>2013-09-03T13:12:03Z</time>
      </trkpt>
      <trkpt lat="44.26153" lon="6.63057">
        <ele>1768</ele>
        <time>2013-09-03T13:12:04Z</time>
      </trkpt>
      <trkpt lat="44.2615" lon="6.63057">
        <ele>1767</ele>
        <time>2013-09-03T13:12:05Z</time>
      </trkpt>
      <trkpt lat="44.26139" lon="6.63062">
        <ele>1763.7</ele>
        <time>2013-09-03T13:12:09Z</time>
      </trkpt>
      <trkpt lat="44.26129" lon="6.63068">
        <ele>1761.3</ele>
        <time>2013-09-03T13:12:15Z</time>
      </trkpt>
      <trkpt lat="44.26127" lon="6.63071">
        <ele>1761.3</ele>
        <time>2013-09-03T13:12:16Z</time>
      </trkpt>
      <trkpt lat="44.26127" lon="6.63089">
        <ele>1758.9</ele>
        <time>2013-09-03T13:12:20Z</time>
      </trkpt>
      <trkpt lat="44.26127" lon="6.63093">
        <ele>1758.9</ele>
        <time>2013-09-03T13:12:21Z</time>
      </trkpt>
      <trkpt lat="44.26126" lon="6.63096">
        <ele>1757.9</ele>
        <time>2013-09-03T13:12:22Z</time>
      </trkpt>
      <trkpt lat="44.26124" lon="6.63098">
        <ele>1757</ele>
        <time>2013-09-03T13:12:24Z</time>
      </trkpt>
      <trkpt lat="44.26121" lon="6.63088">
        <ele>1755.5</ele>
        <time>2013-09-03T13:12:27Z</time>
      </trkpt>
      <trkpt lat="44.26116" lon="6.63073">
        <ele>1754.1</ele>
        <time>2013-09-03T13:12:30Z</time>
      </trkpt>
      <trkpt lat="44.26115" lon="6.63067">
        <ele>1753.1</ele>
        <time>2013-09-03T13:12:31Z</time>
      </trkpt>
      <trkpt lat="44.26113" lon="6.6306">
        <ele>1752.6</ele>
        <time>2013-09-03T13:12:32Z</time>
      </trkpt>
      <trkpt lat="44.26111" lon="6.63055">
        <ele>1752.1</ele>
        <time>2013-09-03T13:12:33Z</time>
      </trkpt>
      <trkpt lat="44.26109" lon="6.6305">
        <ele>1751.7</ele>
        <time>2013-09-03T13:12:34Z</time>
      </trkpt>
      <trkpt lat="44.26106" lon="6.63046">
        <ele>1750.7</ele>
        <time>2013-09-03T13:12:35Z</time>
      </trkpt>
      <trkpt lat="44.26103" lon="6.63043">
        <ele>1750.2</ele>
        <time>2013-09-03T13:12:36Z</time>
      </trkpt>
      <trkpt lat="44.261" lon="6.6304">
        <ele>1749.3</ele>
        <time>2013-09-03T13:12:37Z</time>
      </trkpt>
      <trkpt lat="44.26096" lon="6.63036">
        <ele>1748.8</ele>
        <time>2013-09-03T13:12:38Z</time>
      </trkpt>
      <trkpt lat="44.26092" lon="6.63032">
        <ele>1748.3</ele>
        <time>2013-09-03T13:12:39Z</time>
      </trkpt>
      <trkpt lat="44.26089" lon="6.63028">
        <ele>1748.3</ele>
        <time>2013-09-03T13:12:40Z</time>
      </trkpt>
      <trkpt lat="44.26084" lon="6.63019">
        <ele>1747.3</ele>
        <time>2013-09-03T13:12:42Z</time>
      </trkpt>
      <trkpt lat="44.2608" lon="6.63016">
        <ele>1747.8</ele>
        <time>2013-09-03T13:12:43Z</time>
      </trkpt>
      <trkpt lat="44.26076" lon="6.63014">
        <ele>1746.9</ele>
        <time>2013-09-03T13:12:44Z</time>
      </trkpt>
      <trkpt lat="44.26073" lon="6.63013">
        <ele>1747.3</ele>
        <time>2013-09-03T13:12:45Z</time>
      </trkpt>
      <trkpt lat="44.26069" lon="6.63012">
        <ele>1747.3</ele>
        <time>2013-09-03T13:12:46Z</time>
      </trkpt>
      <trkpt lat="44.26065" lon="6.63009">
        <ele>1745.9</ele>
        <time>2013-09-03T13:12:47Z</time>
      </trkpt>
      <trkpt lat="44.26023" lon="6.62975">
        <ele>1744</ele>
        <time>2013-09-03T13:13:00Z</time>
      </trkpt>
      <trkpt lat="44.26004" lon="6.62961">
        <ele>1740.6</ele>
        <time>2013-09-03T13:13:07Z</time>
      </trkpt>
      <trkpt lat="44.25995" lon="6.62951">
        <ele>1737.7</ele>
        <time>2013-09-03T13:13:12Z</time>
      </trkpt>
      <trkpt lat="44.25993" lon="6.62951">
        <ele>1736.8</ele>
        <time>2013-09-03T13:13:13Z</time>
      </trkpt>
      <trkpt lat="44.25991" lon="6.62951">
        <ele>1735.8</ele>
        <time>2013-09-03T13:13:14Z</time>
      </trkpt>
      <trkpt lat="44.25987" lon="6.62954">
        <ele>1734.8</ele>
        <time>2013-09-03T13:13:16Z</time>
      </trkpt>
      <trkpt lat="44.25986" lon="6.62953">
        <ele>1734.4</ele>
        <time>2013-09-03T13:13:17Z</time>
      </trkpt>
      <trkpt lat="44.25985" lon="6.6295">
        <ele>1733.9</ele>
        <time>2013-09-03T13:13:18Z</time>
      </trkpt>
      <trkpt lat="44.25984" lon="6.62946">
        <ele>1733.4</ele>
        <time>2013-09-03T13:13:19Z</time>
      </trkpt>
      <trkpt lat="44.25982" lon="6.62943">
        <ele>1732.9</ele>
        <time>2013-09-03T13:13:20Z</time>
      </trkpt>
      <trkpt lat="44.25981" lon="6.6294">
        <ele>1732</ele>
        <time>2013-09-03T13:13:21Z</time>
      </trkpt>
      <trkpt lat="44.25979" lon="6.62937">
        <ele>1732</ele>
        <time>2013-09-03T13:13:22Z</time>
      </trkpt>
      <trkpt lat="44.25977" lon="6.62934">
        <ele>1731</ele>
        <time>2013-09-03T13:13:23Z</time>
      </trkpt>
      <trkpt lat="44.25974" lon="6.62931">
        <ele>1730.5</ele>
        <time>2013-09-03T13:13:24Z</time>
      </trkpt>
      <trkpt lat="44.2597" lon="6.62928">
        <ele>1729.6</ele>
        <time>2013-09-03T13:13:25Z</time>
      </trkpt>
      <trkpt lat="44.25965" lon="6.62924">
        <ele>1728.6</ele>
        <time>2013-09-03T13:13:26Z</time>
      </trkpt>
      <trkpt lat="44.25951" lon="6.62912">
        <ele>1726.2</ele>
        <time>2013-09-03T13:13:29Z</time>
      </trkpt>
      <trkpt lat="44.25939" lon="6.62905">
        <ele>1724.3</ele>
        <time>2013-09-03T13:13:32Z</time>
      </trkpt>
      <trkpt lat="44.25926" lon="6.629">
        <ele>1722.8</ele>
        <time>2013-09-03T13:13:39Z</time>
      </trkpt>
      <trkpt lat="44.25924" lon="6.62898">
        <ele>1721.9</ele>
        <time>2013-09-03T13:13:40Z</time>
      </trkpt>
      <trkpt lat="44.25923" lon="6.62897">
        <ele>1721.9</ele>
        <time>2013-09-03T13:13:41Z</time>
      </trkpt>
      <trkpt lat="44.2592" lon="6.62895">
        <ele>1720.9</ele>
        <time>2013-09-03T13:13:42Z</time>
      </trkpt>
      <trkpt lat="44.25916" lon="6.62893">
        <ele>1720.4</ele>
        <time>2013-09-03T13:13:43Z</time>
      </trkpt>
      <trkpt lat="44.25911" lon="6.62891">
        <ele>1720.4</ele>
        <time>2013-09-03T13:13:44Z</time>
      </trkpt>
      <trkpt lat="44.25898" lon="6.62882">
        <ele>1718.5</ele>
        <time>2013-09-03T13:13:47Z</time>
      </trkpt>
      <trkpt lat="44.25893" lon="6.62878">
        <ele>1718</ele>
        <time>2013-09-03T13:13:48Z</time>
      </trkpt>
      <trkpt lat="44.25888" lon="6.62876">
        <ele>1716.6</ele>
        <time>2013-09-03T13:13:49Z</time>
      </trkpt>
      <trkpt lat="44.25879" lon="6.62877">
        <ele>1716.1</ele>
        <time>2013-09-03T13:13:56Z</time>
      </trkpt>
      <trkpt lat="44.25876" lon="6.62881">
        <ele>1715.6</ele>
        <time>2013-09-03T13:14:26Z</time>
      </trkpt>
      <trkpt lat="44.25875" lon="6.62886">
        <ele>1715.1</ele>
        <time>2013-09-03T13:14:55Z</time>
      </trkpt>
      <trkpt lat="44.2587" lon="6.62878">
        <ele>1714.7</ele>
        <time>2013-09-03T13:15:13Z</time>
      </trkpt>
      <trkpt lat="44.25856" lon="6.62865">
        <ele>1711.3</ele>
        <time>2013-09-03T13:15:24Z</time>
      </trkpt>
      <trkpt lat="44.25852" lon="6.62864">
        <ele>1711.3</ele>
        <time>2013-09-03T13:15:25Z</time>
      </trkpt>
      <trkpt lat="44.25848" lon="6.62862">
        <ele>1710.3</ele>
        <time>2013-09-03T13:15:26Z</time>
      </trkpt>
      <trkpt lat="44.25831" lon="6.6286">
        <ele>1707.4</ele>
        <time>2013-09-03T13:15:29Z</time>
      </trkpt>
      <trkpt lat="44.25825" lon="6.62861">
        <ele>1706.5</ele>
        <time>2013-09-03T13:15:30Z</time>
      </trkpt>
      <trkpt lat="44.25819" lon="6.62863">
        <ele>1706.5</ele>
        <time>2013-09-03T13:15:31Z</time>
      </trkpt>
      <trkpt lat="44.25808" lon="6.62865">
        <ele>1703.6</ele>
        <time>2013-09-03T13:15:33Z</time>
      </trkpt>
      <trkpt lat="44.2579" lon="6.62862">
        <ele>1702.2</ele>
        <time>2013-09-03T13:15:36Z</time>
      </trkpt>
      <trkpt lat="44.25785" lon="6.6286">
        <ele>1701.2</ele>
        <time>2013-09-03T13:15:37Z</time>
      </trkpt>
      <trkpt lat="44.2578" lon="6.62858">
        <ele>1700.7</ele>
        <time>2013-09-03T13:15:38Z</time>
      </trkpt>
      <trkpt lat="44.25769" lon="6.6285">
        <ele>1699.3</ele>
        <time>2013-09-03T13:15:40Z</time>
      </trkpt>
      <trkpt lat="44.25747" lon="6.62835">
        <ele>1695.9</ele>
        <time>2013-09-03T13:15:44Z</time>
      </trkpt>
      <trkpt lat="44.25737" lon="6.62829">
        <ele>1694</ele>
        <time>2013-09-03T13:15:46Z</time>
      </trkpt>
      <trkpt lat="44.25733" lon="6.62826">
        <ele>1694.9</ele>
        <time>2013-09-03T13:15:47Z</time>
      </trkpt>
      <trkpt lat="44.2573" lon="6.62822">
        <ele>1693.5</ele>
        <time>2013-09-03T13:15:48Z</time>
      </trkpt>
      <trkpt lat="44.25726" lon="6.62817">
        <ele>1693.5</ele>
        <time>2013-09-03T13:15:49Z</time>
      </trkpt>
      <trkpt lat="44.25723" lon="6.62813">
        <ele>1693</ele>
        <time>2013-09-03T13:15:50Z</time>
      </trkpt>
      <trkpt lat="44.25713" lon="6.62799">
        <ele>1691.6</ele>
        <time>2013-09-03T13:15:53Z</time>
      </trkpt>
      <trkpt lat="44.25705" lon="6.62786">
        <ele>1689.7</ele>
        <time>2013-09-03T13:15:56Z</time>
      </trkpt>
      <trkpt lat="44.2569" lon="6.62759">
        <ele>1686.3</ele>
        <time>2013-09-03T13:16:01Z</time>
      </trkpt>
      <trkpt lat="44.25687" lon="6.62753">
        <ele>1685.8</ele>
        <time>2013-09-03T13:16:02Z</time>
      </trkpt>
      <trkpt lat="44.25677" lon="6.62736">
        <ele>1682.9</ele>
        <time>2013-09-03T13:16:05Z</time>
      </trkpt>
      <trkpt lat="44.25673" lon="6.62731">
        <ele>1682.9</ele>
        <time>2013-09-03T13:16:06Z</time>
      </trkpt>
      <trkpt lat="44.25669" lon="6.62727">
        <ele>1682</ele>
        <time>2013-09-03T13:16:07Z</time>
      </trkpt>
      <trkpt lat="44.25653" lon="6.62714">
        <ele>1679.1</ele>
        <time>2013-09-03T13:16:11Z</time>
      </trkpt>
      <trkpt lat="44.25649" lon="6.62712">
        <ele>1679.1</ele>
        <time>2013-09-03T13:16:12Z</time>
      </trkpt>
      <trkpt lat="44.25631" lon="6.62706">
        <ele>1676.7</ele>
        <time>2013-09-03T13:16:22Z</time>
      </trkpt>
      <trkpt lat="44.25611" lon="6.62695">
        <ele>1674.8</ele>
        <time>2013-09-03T13:16:36Z</time>
      </trkpt>
      <trkpt lat="44.25589" lon="6.6268">
        <ele>1671.4</ele>
        <time>2013-09-03T13:16:41Z</time>
      </trkpt>
      <trkpt lat="44.25564" lon="6.62663">
        <ele>1668</ele>
        <time>2013-09-03T13:16:48Z</time>
      </trkpt>
      <trkpt lat="44.25555" lon="6.62657">
        <ele>1666.1</ele>
        <time>2013-09-03T13:16:51Z</time>
      </trkpt>
      <trkpt lat="44.25538" lon="6.62644">
        <ele>1662.7</ele>
        <time>2013-09-03T13:16:57Z</time>
      </trkpt>
      <trkpt lat="44.25523" lon="6.62637">
        <ele>1661.3</ele>
        <time>2013-09-03T13:17:02Z</time>
      </trkpt>
      <trkpt lat="44.25509" lon="6.62631">
        <ele>1657.9</ele>
        <time>2013-09-03T13:17:07Z</time>
      </trkpt>
      <trkpt lat="44.25504" lon="6.6263">
        <ele>1657</ele>
        <time>2013-09-03T13:17:09Z</time>
      </trkpt>
      <trkpt lat="44.25496" lon="6.62626">
        <ele>1655.1</ele>
        <time>2013-09-03T13:17:12Z</time>
      </trkpt>
      <trkpt lat="44.25491" lon="6.62624">
        <ele>1653.6</ele>
        <time>2013-09-03T13:17:14Z</time>
      </trkpt>
      <trkpt lat="44.25488" lon="6.62624">
        <ele>1653.6</ele>
        <time>2013-09-03T13:17:15Z</time>
      </trkpt>
      <trkpt lat="44.2548" lon="6.62625">
        <ele>1651.7</ele>
        <time>2013-09-03T13:17:18Z</time>
      </trkpt>
      <trkpt lat="44.25466" lon="6.62602">
        <ele>1649.3</ele>
        <time>2013-09-03T13:17:29Z</time>
      </trkpt>
      <trkpt lat="44.25441" lon="6.62527">
        <ele>1646.9</ele>
        <time>2013-09-03T13:17:44Z</time>
      </trkpt>
      <trkpt lat="44.25439" lon="6.62509">
        <ele>1645.9</ele>
        <time>2013-09-03T13:17:47Z</time>
      </trkpt>
      <trkpt lat="44.25439" lon="6.62503">
        <ele>1645.9</ele>
        <time>2013-09-03T13:17:48Z</time>
      </trkpt>
      <trkpt lat="44.25435" lon="6.62482">
        <ele>1643</ele>
        <time>2013-09-03T13:17:52Z</time>
      </trkpt>
      <trkpt lat="44.25433" lon="6.6248">
        <ele>1643</ele>
        <time>2013-09-03T13:17:53Z</time>
      </trkpt>
      <trkpt lat="44.2543" lon="6.62479">
        <ele>1642.6</ele>
        <time>2013-09-03T13:17:54Z</time>
      </trkpt>
      <trkpt lat="44.25427" lon="6.6248">
        <ele>1642.6</ele>
        <time>2013-09-03T13:17:55Z</time>
      </trkpt>
      <trkpt lat="44.25424" lon="6.62482">
        <ele>1641.1</ele>
        <time>2013-09-03T13:17:56Z</time>
      </trkpt>
      <trkpt lat="44.25421" lon="6.62486">
        <ele>1641.6</ele>
        <time>2013-09-03T13:17:57Z</time>
      </trkpt>
      <trkpt lat="44.25417" lon="6.6249">
        <ele>1640.6</ele>
        <time>2013-09-03T13:17:58Z</time>
      </trkpt>
      <trkpt lat="44.25413" lon="6.62496">
        <ele>1640.2</ele>
        <time>2013-09-03T13:17:59Z</time>
      </trkpt>
      <trkpt lat="44.25402" lon="6.62514">
        <ele>1638.2</ele>
        <time>2013-09-03T13:18:02Z</time>
      </trkpt>
      <trkpt lat="44.25399" lon="6.6252">
        <ele>1636.8</ele>
        <time>2013-09-03T13:18:03Z</time>
      </trkpt>
      <trkpt lat="44.25397" lon="6.62526">
        <ele>1636.3</ele>
        <time>2013-09-03T13:18:04Z</time>
      </trkpt>
      <trkpt lat="44.25395" lon="6.62532">
        <ele>1636.3</ele>
        <time>2013-09-03T13:18:05Z</time>
      </trkpt>
      <trkpt lat="44.25394" lon="6.62539">
        <ele>1635.8</ele>
        <time>2013-09-03T13:18:06Z</time>
      </trkpt>
      <trkpt lat="44.25394" lon="6.62546">
        <ele>1634.9</ele>
        <time>2013-09-03T13:18:07Z</time>
      </trkpt>
      <trkpt lat="44.25394" lon="6.62553">
        <ele>1634.4</ele>
        <time>2013-09-03T13:18:08Z</time>
      </trkpt>
      <trkpt lat="44.25394" lon="6.62561">
        <ele>1633.9</ele>
        <time>2013-09-03T13:18:09Z</time>
      </trkpt>
      <trkpt lat="44.25395" lon="6.62569">
        <ele>1633.9</ele>
        <time>2013-09-03T13:18:10Z</time>
      </trkpt>
      <trkpt lat="44.25397" lon="6.62576">
        <ele>1633.4</ele>
        <time>2013-09-03T13:18:11Z</time>
      </trkpt>
      <trkpt lat="44.25399" lon="6.62583">
        <ele>1632.5</ele>
        <time>2013-09-03T13:18:12Z</time>
      </trkpt>
      <trkpt lat="44.25402" lon="6.62589">
        <ele>1632.9</ele>
        <time>2013-09-03T13:18:13Z</time>
      </trkpt>
      <trkpt lat="44.25405" lon="6.62596">
        <ele>1632.5</ele>
        <time>2013-09-03T13:18:14Z</time>
      </trkpt>
      <trkpt lat="44.25418" lon="6.62617">
        <ele>1630.5</ele>
        <time>2013-09-03T13:18:18Z</time>
      </trkpt>
      <trkpt lat="44.25426" lon="6.62632">
        <ele>1628.6</ele>
        <time>2013-09-03T13:18:22Z</time>
      </trkpt>
      <trkpt lat="44.25426" lon="6.62635">
        <ele>1629.1</ele>
        <time>2013-09-03T13:18:23Z</time>
      </trkpt>
      <trkpt lat="44.25425" lon="6.62638">
        <ele>1628.6</ele>
        <time>2013-09-03T13:18:24Z</time>
      </trkpt>
      <trkpt lat="44.25423" lon="6.6264">
        <ele>1627.7</ele>
        <time>2013-09-03T13:18:25Z</time>
      </trkpt>
      <trkpt lat="44.25419" lon="6.62641">
        <ele>1627.2</ele>
        <time>2013-09-03T13:18:26Z</time>
      </trkpt>
      <trkpt lat="44.25416" lon="6.6264">
        <ele>1628.1</ele>
        <time>2013-09-03T13:18:27Z</time>
      </trkpt>
      <trkpt lat="44.25413" lon="6.62637">
        <ele>1627.2</ele>
        <time>2013-09-03T13:18:28Z</time>
      </trkpt>
      <trkpt lat="44.2541" lon="6.62633">
        <ele>1626.7</ele>
        <time>2013-09-03T13:18:29Z</time>
      </trkpt>
      <trkpt lat="44.25407" lon="6.62629">
        <ele>1626.2</ele>
        <time>2013-09-03T13:18:30Z</time>
      </trkpt>
      <trkpt lat="44.25403" lon="6.62624">
        <ele>1625.7</ele>
        <time>2013-09-03T13:18:31Z</time>
      </trkpt>
      <trkpt lat="44.25399" lon="6.62619">
        <ele>1624.8</ele>
        <time>2013-09-03T13:18:32Z</time>
      </trkpt>
      <trkpt lat="44.25394" lon="6.62615">
        <ele>1624.3</ele>
        <time>2013-09-03T13:18:33Z</time>
      </trkpt>
      <trkpt lat="44.2538" lon="6.62601">
        <ele>1623.3</ele>
        <time>2013-09-03T13:18:36Z</time>
      </trkpt>
      <trkpt lat="44.25376" lon="6.62595">
        <ele>1622.4</ele>
        <time>2013-09-03T13:18:37Z</time>
      </trkpt>
      <trkpt lat="44.25351" lon="6.62552">
        <ele>1619</ele>
        <time>2013-09-03T13:18:44Z</time>
      </trkpt>
      <trkpt lat="44.25347" lon="6.62546">
        <ele>1618.5</ele>
        <time>2013-09-03T13:18:45Z</time>
      </trkpt>
      <trkpt lat="44.25345" lon="6.62539">
        <ele>1618.5</ele>
        <time>2013-09-03T13:18:46Z</time>
      </trkpt>
      <trkpt lat="44.25344" lon="6.62533">
        <ele>1617.6</ele>
        <time>2013-09-03T13:18:47Z</time>
      </trkpt>
      <trkpt lat="44.25343" lon="6.62526">
        <ele>1617.1</ele>
        <time>2013-09-03T13:18:48Z</time>
      </trkpt>
      <trkpt lat="44.25344" lon="6.62519">
        <ele>1616.6</ele>
        <time>2013-09-03T13:18:49Z</time>
      </trkpt>
      <trkpt lat="44.25345" lon="6.62512">
        <ele>1616.6</ele>
        <time>2013-09-03T13:18:50Z</time>
      </trkpt>
      <trkpt lat="44.25346" lon="6.62506">
        <ele>1616.1</ele>
        <time>2013-09-03T13:18:51Z</time>
      </trkpt>
      <trkpt lat="44.25344" lon="6.62494">
        <ele>1614.7</ele>
        <time>2013-09-03T13:18:54Z</time>
      </trkpt>
      <trkpt lat="44.25342" lon="6.62493">
        <ele>1614.2</ele>
        <time>2013-09-03T13:18:55Z</time>
      </trkpt>
      <trkpt lat="44.2534" lon="6.62494">
        <ele>1613.7</ele>
        <time>2013-09-03T13:18:56Z</time>
      </trkpt>
      <trkpt lat="44.25339" lon="6.62496">
        <ele>1614.7</ele>
        <time>2013-09-03T13:18:57Z</time>
      </trkpt>
      <trkpt lat="44.25338" lon="6.625">
        <ele>1613.7</ele>
        <time>2013-09-03T13:18:58Z</time>
      </trkpt>
      <trkpt lat="44.25337" lon="6.62503">
        <ele>1613.2</ele>
        <time>2013-09-03T13:18:59Z</time>
      </trkpt>
      <trkpt lat="44.25335" lon="6.62507">
        <ele>1612.8</ele>
        <time>2013-09-03T13:19:00Z</time>
      </trkpt>
      <trkpt lat="44.25333" lon="6.62512">
        <ele>1612.8</ele>
        <time>2013-09-03T13:19:01Z</time>
      </trkpt>
      <trkpt lat="44.25328" lon="6.62524">
        <ele>1611.8</ele>
        <time>2013-09-03T13:19:03Z</time>
      </trkpt>
      <trkpt lat="44.25326" lon="6.62529">
        <ele>1611.8</ele>
        <time>2013-09-03T13:19:04Z</time>
      </trkpt>
      <trkpt lat="44.25323" lon="6.62541">
        <ele>1610.8</ele>
        <time>2013-09-03T13:19:06Z</time>
      </trkpt>
      <trkpt lat="44.25323" lon="6.62547">
        <ele>1610.4</ele>
        <time>2013-09-03T13:19:07Z</time>
      </trkpt>
      <trkpt lat="44.25324" lon="6.62552">
        <ele>1609.4</ele>
        <time>2013-09-03T13:19:08Z</time>
      </trkpt>
      <trkpt lat="44.25325" lon="6.62558">
        <ele>1608.9</ele>
        <time>2013-09-03T13:19:09Z</time>
      </trkpt>
      <trkpt lat="44.25328" lon="6.62563">
        <ele>1609.4</ele>
        <time>2013-09-03T13:19:10Z</time>
      </trkpt>
      <trkpt lat="44.25331" lon="6.62568">
        <ele>1607.9</ele>
        <time>2013-09-03T13:19:11Z</time>
      </trkpt>
      <trkpt lat="44.25333" lon="6.62573">
        <ele>1608.4</ele>
        <time>2013-09-03T13:19:12Z</time>
      </trkpt>
      <trkpt lat="44.25335" lon="6.62577">
        <ele>1607.5</ele>
        <time>2013-09-03T13:19:13Z</time>
      </trkpt>
      <trkpt lat="44.25335" lon="6.62582">
        <ele>1607.5</ele>
        <time>2013-09-03T13:19:14Z</time>
      </trkpt>
      <trkpt lat="44.25333" lon="6.62585">
        <ele>1607.5</ele>
        <time>2013-09-03T13:19:15Z</time>
      </trkpt>
      <trkpt lat="44.25331" lon="6.62585">
        <ele>1607</ele>
        <time>2013-09-03T13:19:16Z</time>
      </trkpt>
      <trkpt lat="44.25327" lon="6.62584">
        <ele>1607.5</ele>
        <time>2013-09-03T13:19:17Z</time>
      </trkpt>
      <trkpt lat="44.25324" lon="6.62581">
        <ele>1607</ele>
        <time>2013-09-03T13:19:18Z</time>
      </trkpt>
      <trkpt lat="44.2532" lon="6.62577">
        <ele>1606</ele>
        <time>2013-09-03T13:19:19Z</time>
      </trkpt>
      <trkpt lat="44.253" lon="6.62557">
        <ele>1603.1</ele>
        <time>2013-09-03T13:19:25Z</time>
      </trkpt>
      <trkpt lat="44.25298" lon="6.62553">
        <ele>1603.1</ele>
        <time>2013-09-03T13:19:26Z</time>
      </trkpt>
      <trkpt lat="44.25288" lon="6.6255">
        <ele>1600.7</ele>
        <time>2013-09-03T13:19:29Z</time>
      </trkpt>
      <trkpt lat="44.25283" lon="6.62556">
        <ele>1599.3</ele>
        <time>2013-09-03T13:19:31Z</time>
      </trkpt>
      <trkpt lat="44.2528" lon="6.62561">
        <ele>1597.9</ele>
        <time>2013-09-03T13:19:32Z</time>
      </trkpt>
      <trkpt lat="44.25265" lon="6.62578">
        <ele>1594</ele>
        <time>2013-09-03T13:19:38Z</time>
      </trkpt>
      <trkpt lat="44.25248" lon="6.62578">
        <ele>1590.6</ele>
        <time>2013-09-03T13:19:43Z</time>
      </trkpt>
      <trkpt lat="44.25245" lon="6.62581">
        <ele>1590.2</ele>
        <time>2013-09-03T13:19:44Z</time>
      </trkpt>
      <trkpt lat="44.25235" lon="6.62598">
        <ele>1586.8</ele>
        <time>2013-09-03T13:19:49Z</time>
      </trkpt>
      <trkpt lat="44.2522" lon="6.62609">
        <ele>1582.5</ele>
        <time>2013-09-03T13:19:54Z</time>
      </trkpt>
      <trkpt lat="44.25217" lon="6.62609">
        <ele>1583</ele>
        <time>2013-09-03T13:19:55Z</time>
      </trkpt>
      <trkpt lat="44.2521" lon="6.62602">
        <ele>1581</ele>
        <time>2013-09-03T13:20:01Z</time>
      </trkpt>
      <trkpt lat="44.2521" lon="6.626">
        <ele>1580.1</ele>
        <time>2013-09-03T13:20:02Z</time>
      </trkpt>
      <trkpt lat="44.25211" lon="6.62598">
        <ele>1581</ele>
        <time>2013-09-03T13:20:03Z</time>
      </trkpt>
      <trkpt lat="44.25212" lon="6.62596">
        <ele>1580.5</ele>
        <time>2013-09-03T13:20:04Z</time>
      </trkpt>
      <trkpt lat="44.25213" lon="6.62593">
        <ele>1580.5</ele>
        <time>2013-09-03T13:20:05Z</time>
      </trkpt>
      <trkpt lat="44.25215" lon="6.6259">
        <ele>1580.5</ele>
        <time>2013-09-03T13:20:06Z</time>
      </trkpt>
      <trkpt lat="44.25234" lon="6.62547">
        <ele>1578.1</ele>
        <time>2013-09-03T13:20:14Z</time>
      </trkpt>
      <trkpt lat="44.25258" lon="6.62508">
        <ele>1574.8</ele>
        <time>2013-09-03T13:20:19Z</time>
      </trkpt>
      <trkpt lat="44.25262" lon="6.62499">
        <ele>1573.8</ele>
        <time>2013-09-03T13:20:20Z</time>
      </trkpt>
      <trkpt lat="44.25265" lon="6.62489">
        <ele>1572.9</ele>
        <time>2013-09-03T13:20:21Z</time>
      </trkpt>
      <trkpt lat="44.25274" lon="6.62453">
        <ele>1570.9</ele>
        <time>2013-09-03T13:20:25Z</time>
      </trkpt>
      <trkpt lat="44.25278" lon="6.62436">
        <ele>1569.5</ele>
        <time>2013-09-03T13:20:28Z</time>
      </trkpt>
      <trkpt lat="44.25277" lon="6.6243">
        <ele>1568.5</ele>
        <time>2013-09-03T13:20:30Z</time>
      </trkpt>
      <trkpt lat="44.25276" lon="6.6243">
        <ele>1568.5</ele>
        <time>2013-09-03T13:20:31Z</time>
      </trkpt>
      <trkpt lat="44.25275" lon="6.62433">
        <ele>1568.5</ele>
        <time>2013-09-03T13:20:46Z</time>
      </trkpt>
      <trkpt lat="44.25275" lon="6.62434">
        <ele>1568.1</ele>
        <time>2013-09-03T13:21:14Z</time>
      </trkpt>
      <trkpt lat="44.25275" lon="6.62433">
        <ele>1567.6</ele>
        <time>2013-09-03T13:21:35Z</time>
      </trkpt>
      <trkpt lat="44.25276" lon="6.62434">
        <ele>1567.6</ele>
        <time>2013-09-03T13:22:04Z</time>
      </trkpt>
      <trkpt lat="44.25275" lon="6.62435">
        <ele>1566.6</ele>
        <time>2013-09-03T13:22:16Z</time>
      </trkpt>
      <trkpt lat="44.25274" lon="6.62437">
        <ele>1566.1</ele>
        <time>2013-09-03T13:22:17Z</time>
      </trkpt>
      <trkpt lat="44.25273" lon="6.6244">
        <ele>1566.1</ele>
        <time>2013-09-03T13:22:18Z</time>
      </trkpt>
      <trkpt lat="44.25271" lon="6.62444">
        <ele>1566.1</ele>
        <time>2013-09-03T13:22:19Z</time>
      </trkpt>
      <trkpt lat="44.2527" lon="6.62449">
        <ele>1565.6</ele>
        <time>2013-09-03T13:22:20Z</time>
      </trkpt>
      <trkpt lat="44.25268" lon="6.62454">
        <ele>1565.6</ele>
        <time>2013-09-03T13:22:21Z</time>
      </trkpt>
      <trkpt lat="44.25267" lon="6.62459">
        <ele>1564.7</ele>
        <time>2013-09-03T13:22:22Z</time>
      </trkpt>
      <trkpt lat="44.25265" lon="6.62464">
        <ele>1564.7</ele>
        <time>2013-09-03T13:22:23Z</time>
      </trkpt>
      <trkpt lat="44.25263" lon="6.62468">
        <ele>1564.7</ele>
        <time>2013-09-03T13:22:24Z</time>
      </trkpt>
      <trkpt lat="44.25248" lon="6.62498">
        <ele>1561.8</ele>
        <time>2013-09-03T13:22:29Z</time>
      </trkpt>
      <trkpt lat="44.25244" lon="6.62503">
        <ele>1561.3</ele>
        <time>2013-09-03T13:22:30Z</time>
      </trkpt>
      <trkpt lat="44.25239" lon="6.62508">
        <ele>1560.4</ele>
        <time>2013-09-03T13:22:31Z</time>
      </trkpt>
      <trkpt lat="44.25229" lon="6.62514">
        <ele>1559.4</ele>
        <time>2013-09-03T13:22:33Z</time>
      </trkpt>
      <trkpt lat="44.2522" lon="6.62518">
        <ele>1558.9</ele>
        <time>2013-09-03T13:22:35Z</time>
      </trkpt>
      <trkpt lat="44.25214" lon="6.62519">
        <ele>1558.4</ele>
        <time>2013-09-03T13:22:36Z</time>
      </trkpt>
      <trkpt lat="44.25209" lon="6.62521">
        <ele>1557.5</ele>
        <time>2013-09-03T13:22:37Z</time>
      </trkpt>
      <trkpt lat="44.25203" lon="6.62525">
        <ele>1557.5</ele>
        <time>2013-09-03T13:22:38Z</time>
      </trkpt>
      <trkpt lat="44.25197" lon="6.62528">
        <ele>1556.5</ele>
        <time>2013-09-03T13:22:39Z</time>
      </trkpt>
      <trkpt lat="44.25191" lon="6.62531">
        <ele>1555.6</ele>
        <time>2013-09-03T13:22:40Z</time>
      </trkpt>
      <trkpt lat="44.25187" lon="6.62537">
        <ele>1555.1</ele>
        <time>2013-09-03T13:22:41Z</time>
      </trkpt>
      <trkpt lat="44.25183" lon="6.62542">
        <ele>1553.6</ele>
        <time>2013-09-03T13:22:42Z</time>
      </trkpt>
      <trkpt lat="44.25179" lon="6.62547">
        <ele>1554.1</ele>
        <time>2013-09-03T13:22:43Z</time>
      </trkpt>
      <trkpt lat="44.2517" lon="6.62557">
        <ele>1552.2</ele>
        <time>2013-09-03T13:22:45Z</time>
      </trkpt>
      <trkpt lat="44.25165" lon="6.62561">
        <ele>1552.2</ele>
        <time>2013-09-03T13:22:46Z</time>
      </trkpt>
      <trkpt lat="44.25149" lon="6.62575">
        <ele>1551.2</ele>
        <time>2013-09-03T13:22:49Z</time>
      </trkpt>
      <trkpt lat="44.2514" lon="6.62586">
        <ele>1549.8</ele>
        <time>2013-09-03T13:22:51Z</time>
      </trkpt>
      <trkpt lat="44.25127" lon="6.62604">
        <ele>1547.9</ele>
        <time>2013-09-03T13:22:59Z</time>
      </trkpt>
      <trkpt lat="44.25126" lon="6.62609">
        <ele>1548.3</ele>
        <time>2013-09-03T13:23:11Z</time>
      </trkpt>
      <trkpt lat="44.25116" lon="6.6263">
        <ele>1545.9</ele>
        <time>2013-09-03T13:23:18Z</time>
      </trkpt>
      <trkpt lat="44.25114" lon="6.62629">
        <ele>1545.9</ele>
        <time>2013-09-03T13:23:19Z</time>
      </trkpt>
      <trkpt lat="44.25112" lon="6.62626">
        <ele>1546.4</ele>
        <time>2013-09-03T13:23:20Z</time>
      </trkpt>
      <trkpt lat="44.25112" lon="6.62622">
        <ele>1545.9</ele>
        <time>2013-09-03T13:23:21Z</time>
      </trkpt>
      <trkpt lat="44.25114" lon="6.62617">
        <ele>1545</ele>
        <time>2013-09-03T13:23:22Z</time>
      </trkpt>
      <trkpt lat="44.25116" lon="6.62613">
        <ele>1544.5</ele>
        <time>2013-09-03T13:23:23Z</time>
      </trkpt>
      <trkpt lat="44.25118" lon="6.62608">
        <ele>1544</ele>
        <time>2013-09-03T13:23:24Z</time>
      </trkpt>
      <trkpt lat="44.25121" lon="6.62603">
        <ele>1543.5</ele>
        <time>2013-09-03T13:23:25Z</time>
      </trkpt>
      <trkpt lat="44.25125" lon="6.62597">
        <ele>1543.5</ele>
        <time>2013-09-03T13:23:26Z</time>
      </trkpt>
      <trkpt lat="44.25128" lon="6.62591">
        <ele>1543.1</ele>
        <time>2013-09-03T13:23:27Z</time>
      </trkpt>
      <trkpt lat="44.25148" lon="6.62554">
        <ele>1540.2</ele>
        <time>2013-09-03T13:23:32Z</time>
      </trkpt>
      <trkpt lat="44.2517" lon="6.62506">
        <ele>1536.3</ele>
        <time>2013-09-03T13:23:39Z</time>
      </trkpt>
      <trkpt lat="44.25173" lon="6.625">
        <ele>1535.8</ele>
        <time>2013-09-03T13:23:40Z</time>
      </trkpt>
      <trkpt lat="44.25179" lon="6.62485">
        <ele>1534.4</ele>
        <time>2013-09-03T13:23:44Z</time>
      </trkpt>
      <trkpt lat="44.25177" lon="6.62484">
        <ele>1533.9</ele>
        <time>2013-09-03T13:23:45Z</time>
      </trkpt>
      <trkpt lat="44.25171" lon="6.62485">
        <ele>1533.9</ele>
        <time>2013-09-03T13:23:46Z</time>
      </trkpt>
      <trkpt lat="44.25166" lon="6.62488">
        <ele>1533</ele>
        <time>2013-09-03T13:23:47Z</time>
      </trkpt>
      <trkpt lat="44.25161" lon="6.62493">
        <ele>1533.4</ele>
        <time>2013-09-03T13:23:48Z</time>
      </trkpt>
      <trkpt lat="44.25156" lon="6.62498">
        <ele>1532</ele>
        <time>2013-09-03T13:23:49Z</time>
      </trkpt>
      <trkpt lat="44.25147" lon="6.62507">
        <ele>1531</ele>
        <time>2013-09-03T13:23:51Z</time>
      </trkpt>
      <trkpt lat="44.25126" lon="6.62526">
        <ele>1528.6</ele>
        <time>2013-09-03T13:23:55Z</time>
      </trkpt>
      <trkpt lat="44.25122" lon="6.62532">
        <ele>1527.7</ele>
        <time>2013-09-03T13:23:56Z</time>
      </trkpt>
      <trkpt lat="44.25108" lon="6.62549">
        <ele>1525.8</ele>
        <time>2013-09-03T13:23:59Z</time>
      </trkpt>
      <trkpt lat="44.25103" lon="6.62554">
        <ele>1525.3</ele>
        <time>2013-09-03T13:24:00Z</time>
      </trkpt>
      <trkpt lat="44.25098" lon="6.62558">
        <ele>1525.3</ele>
        <time>2013-09-03T13:24:01Z</time>
      </trkpt>
      <trkpt lat="44.25093" lon="6.62561">
        <ele>1523.8</ele>
        <time>2013-09-03T13:24:02Z</time>
      </trkpt>
      <trkpt lat="44.25088" lon="6.62563">
        <ele>1523.8</ele>
        <time>2013-09-03T13:24:03Z</time>
      </trkpt>
      <trkpt lat="44.25082" lon="6.62563">
        <ele>1522.9</ele>
        <time>2013-09-03T13:24:04Z</time>
      </trkpt>
      <trkpt lat="44.25077" lon="6.6256">
        <ele>1521.9</ele>
        <time>2013-09-03T13:24:05Z</time>
      </trkpt>
      <trkpt lat="44.25072" lon="6.62554">
        <ele>1522.4</ele>
        <time>2013-09-03T13:24:06Z</time>
      </trkpt>
      <trkpt lat="44.25068" lon="6.62547">
        <ele>1521.9</ele>
        <time>2013-09-03T13:24:07Z</time>
      </trkpt>
      <trkpt lat="44.25064" lon="6.6254">
        <ele>1520.9</ele>
        <time>2013-09-03T13:24:08Z</time>
      </trkpt>
      <trkpt lat="44.25055" lon="6.62524">
        <ele>1520.5</ele>
        <time>2013-09-03T13:24:10Z</time>
      </trkpt>
      <trkpt lat="44.25028" lon="6.62485">
        <ele>1516.6</ele>
        <time>2013-09-03T13:24:15Z</time>
      </trkpt>
      <trkpt lat="44.24997" lon="6.62458">
        <ele>1513.3</ele>
        <time>2013-09-03T13:24:20Z</time>
      </trkpt>
      <trkpt lat="44.24975" lon="6.62444">
        <ele>1510.9</ele>
        <time>2013-09-03T13:24:23Z</time>
      </trkpt>
      <trkpt lat="44.24967" lon="6.62442">
        <ele>1509.4</ele>
        <time>2013-09-03T13:24:24Z</time>
      </trkpt>
      <trkpt lat="44.24959" lon="6.62442">
        <ele>1509.4</ele>
        <time>2013-09-03T13:24:25Z</time>
      </trkpt>
      <trkpt lat="44.24951" lon="6.62444">
        <ele>1508.5</ele>
        <time>2013-09-03T13:24:26Z</time>
      </trkpt>
      <trkpt lat="44.24942" lon="6.62447">
        <ele>1507.5</ele>
        <time>2013-09-03T13:24:27Z</time>
      </trkpt>
      <trkpt lat="44.24909" lon="6.62453">
        <ele>1504.1</ele>
        <time>2013-09-03T13:24:31Z</time>
      </trkpt>
      <trkpt lat="44.249" lon="6.62452">
        <ele>1504.6</ele>
        <time>2013-09-03T13:24:32Z</time>
      </trkpt>
      <trkpt lat="44.24892" lon="6.62449">
        <ele>1503.6</ele>
        <time>2013-09-03T13:24:33Z</time>
      </trkpt>
      <trkpt lat="44.24885" lon="6.62444">
        <ele>1503.2</ele>
        <time>2013-09-03T13:24:34Z</time>
      </trkpt>
      <trkpt lat="44.24879" lon="6.62436">
        <ele>1503.2</ele>
        <time>2013-09-03T13:24:35Z</time>
      </trkpt>
      <trkpt lat="44.24874" lon="6.62428">
        <ele>1502.2</ele>
        <time>2013-09-03T13:24:36Z</time>
      </trkpt>
      <trkpt lat="44.24856" lon="6.62406">
        <ele>1501.2</ele>
        <time>2013-09-03T13:24:39Z</time>
      </trkpt>
      <trkpt lat="44.24839" lon="6.62385">
        <ele>1498.8</ele>
        <time>2013-09-03T13:24:42Z</time>
      </trkpt>
      <trkpt lat="44.24831" lon="6.62379">
        <ele>1498.4</ele>
        <time>2013-09-03T13:24:43Z</time>
      </trkpt>
      <trkpt lat="44.24824" lon="6.62374">
        <ele>1497.9</ele>
        <time>2013-09-03T13:24:44Z</time>
      </trkpt>
      <trkpt lat="44.24774" lon="6.62346">
        <ele>1494.5</ele>
        <time>2013-09-03T13:24:50Z</time>
      </trkpt>
      <trkpt lat="44.24729" lon="6.62323">
        <ele>1491.1</ele>
        <time>2013-09-03T13:24:55Z</time>
      </trkpt>
      <trkpt lat="44.24671" lon="6.62304">
        <ele>1487.3</ele>
        <time>2013-09-03T13:25:01Z</time>
      </trkpt>
      <trkpt lat="44.24633" lon="6.62291">
        <ele>1483.5</ele>
        <time>2013-09-03T13:25:05Z</time>
      </trkpt>
      <trkpt lat="44.24623" lon="6.6229">
        <ele>1483</ele>
        <time>2013-09-03T13:25:06Z</time>
      </trkpt>
      <trkpt lat="44.24615" lon="6.62289">
        <ele>1482.5</ele>
        <time>2013-09-03T13:25:07Z</time>
      </trkpt>
      <trkpt lat="44.24593" lon="6.6229">
        <ele>1480.6</ele>
        <time>2013-09-03T13:25:10Z</time>
      </trkpt>
      <trkpt lat="44.24564" lon="6.62298">
        <ele>1479.6</ele>
        <time>2013-09-03T13:25:19Z</time>
      </trkpt>
      <trkpt lat="44.24546" lon="6.62359">
        <ele>1478.7</ele>
        <time>2013-09-03T13:25:34Z</time>
      </trkpt>
      <trkpt lat="44.24524" lon="6.62424">
        <ele>1479.1</ele>
        <time>2013-09-03T13:25:50Z</time>
      </trkpt>
      <trkpt lat="44.24493" lon="6.62461">
        <ele>1479.6</ele>
        <time>2013-09-03T13:26:03Z</time>
      </trkpt>
      <trkpt lat="44.24442" lon="6.62467">
        <ele>1480.1</ele>
        <time>2013-09-03T13:26:18Z</time>
      </trkpt>
      <trkpt lat="44.24405" lon="6.62494">
        <ele>1479.6</ele>
        <time>2013-09-03T13:26:30Z</time>
      </trkpt>
      <trkpt lat="44.24356" lon="6.6253">
        <ele>1479.6</ele>
        <time>2013-09-03T13:26:47Z</time>
      </trkpt>
      <trkpt lat="44.24298" lon="6.62574">
        <ele>1477.7</ele>
        <time>2013-09-03T13:27:04Z</time>
      </trkpt>
      <trkpt lat="44.24239" lon="6.62625">
        <ele>1477.2</ele>
        <time>2013-09-03T13:27:21Z</time>
      </trkpt>
      <trkpt lat="44.24198" lon="6.62693">
        <ele>1476.7</ele>
        <time>2013-09-03T13:27:37Z</time>
      </trkpt>
      <trkpt lat="44.24197" lon="6.62705">
        <ele>1476.7</ele>
        <time>2013-09-03T13:27:44Z</time>
      </trkpt>
      <trkpt lat="44.24198" lon="6.62706">
        <ele>1476.2</ele>
        <time>2013-09-03T13:27:45Z</time>
      </trkpt>
      <trkpt lat="44.242" lon="6.62704">
        <ele>1476.2</ele>
        <time>2013-09-03T13:27:46Z</time>
      </trkpt>
      <trkpt lat="44.24201" lon="6.62702">
        <ele>1476.2</ele>
        <time>2013-09-03T13:27:47Z</time>
      </trkpt>
      <trkpt lat="44.24201" lon="6.62699">
        <ele>1476.2</ele>
        <time>2013-09-03T13:27:48Z</time>
      </trkpt>
      <trkpt lat="44.24201" lon="6.62696">
        <ele>1476.2</ele>
        <time>2013-09-03T13:27:49Z</time>
      </trkpt>
      <trkpt lat="44.242" lon="6.62694">
        <ele>1476.2</ele>
        <time>2013-09-03T13:27:50Z</time>
      </trkpt>
      <trkpt lat="44.24199" lon="6.62691">
        <ele>1476.2</ele>
        <time>2013-09-03T13:27:51Z</time>
      </trkpt>
      <trkpt lat="44.24198" lon="6.62689">
        <ele>1476.7</ele>
        <time>2013-09-03T13:27:52Z</time>
      </trkpt>
      <trkpt lat="44.24195" lon="6.62688">
        <ele>1476.2</ele>
        <time>2013-09-03T13:27:53Z</time>
      </trkpt>
      <trkpt lat="44.24191" lon="6.62688">
        <ele>1476.2</ele>
        <time>2013-09-03T13:27:54Z</time>
      </trkpt>
      <trkpt lat="44.24188" lon="6.62689">
        <ele>1475.8</ele>
        <time>2013-09-03T13:27:55Z</time>
      </trkpt>
      <trkpt lat="44.2415" lon="6.62701">
        <ele>1475.3</ele>
        <time>2013-09-03T13:28:08Z</time>
      </trkpt>
      <trkpt lat="44.24148" lon="6.62705">
        <ele>1475.3</ele>
        <time>2013-09-03T13:28:10Z</time>
      </trkpt>
      <trkpt lat="44.24149" lon="6.62707">
        <ele>1474.8</ele>
        <time>2013-09-03T13:28:11Z</time>
      </trkpt>
      <trkpt lat="44.24149" lon="6.62709">
        <ele>1474.8</ele>
        <time>2013-09-03T13:28:12Z</time>
      </trkpt>
      <trkpt lat="44.24149" lon="6.62711">
        <ele>1475.3</ele>
        <time>2013-09-03T13:28:13Z</time>
      </trkpt>
      <trkpt lat="44.24148" lon="6.62713">
        <ele>1474.8</ele>
        <time>2013-09-03T13:28:14Z</time>
      </trkpt>
      <trkpt lat="44.24147" lon="6.62716">
        <ele>1474.8</ele>
        <time>2013-09-03T13:28:15Z</time>
      </trkpt>
      <trkpt lat="44.24147" lon="6.62718">
        <ele>1475.3</ele>
        <time>2013-09-03T13:28:16Z</time>
      </trkpt>
      <trkpt lat="44.24148" lon="6.62719">
        <ele>1474.8</ele>
        <time>2013-09-03T13:28:17Z</time>
      </trkpt>
      <trkpt lat="44.24149" lon="6.62718">
        <ele>1475.3</ele>
        <time>2013-09-03T13:28:18Z</time>
      </trkpt>
      <trkpt lat="44.2415" lon="6.62715">
        <ele>1475.3</ele>
        <time>2013-09-03T13:28:19Z</time>
      </trkpt>
      <trkpt lat="44.2415" lon="6.62713">
        <ele>1475.3</ele>
        <time>2013-09-03T13:28:20Z</time>
      </trkpt>
      <trkpt lat="44.2415" lon="6.62711">
        <ele>1475.3</ele>
        <time>2013-09-03T13:28:21Z</time>
      </trkpt>
      <trkpt lat="44.2415" lon="6.62708">
        <ele>1474.8</ele>
        <time>2013-09-03T13:28:22Z</time>
      </trkpt>
      <trkpt lat="44.24151" lon="6.62704">
        <ele>1475.3</ele>
        <time>2013-09-03T13:28:23Z</time>
      </trkpt>
      <trkpt lat="44.24151" lon="6.62701">
        <ele>1475.3</ele>
        <time>2013-09-03T13:28:24Z</time>
      </trkpt>
      <trkpt lat="44.24144" lon="6.62676">
        <ele>1474.8</ele>
        <time>2013-09-03T13:28:35Z</time>
      </trkpt>
      <trkpt lat="44.2414" lon="6.62676">
        <ele>1475.3</ele>
        <time>2013-09-03T13:28:36Z</time>
      </trkpt>
      <trkpt lat="44.24137" lon="6.62676">
        <ele>1475.3</ele>
        <time>2013-09-03T13:28:37Z</time>
      </trkpt>
      <trkpt lat="44.24134" lon="6.62677">
        <ele>1475.3</ele>
        <time>2013-09-03T13:28:38Z</time>
      </trkpt>
      <trkpt lat="44.24131" lon="6.62679">
        <ele>1475.3</ele>
        <time>2013-09-03T13:28:39Z</time>
      </trkpt>
      <trkpt lat="44.24128" lon="6.62681">
        <ele>1475.8</ele>
        <time>2013-09-03T13:28:40Z</time>
      </trkpt>
      <trkpt lat="44.24117" lon="6.62691">
        <ele>1475.3</ele>
        <time>2013-09-03T13:28:52Z</time>
      </trkpt>
      <trkpt lat="44.24119" lon="6.62695">
        <ele>1471</ele>
        <time>2013-09-03T13:29:02Z</time>
      </trkpt>
      <trkpt lat="44.24119" lon="6.62695">
        <ele>1476.7</ele>
        <time>2013-09-03T13:29:03Z</time>
      </trkpt>
      <trkpt lat="44.24119" lon="6.62695">
        <ele>1476.2</ele>
        <time>2013-09-03T13:29:04Z</time>
      </trkpt>
      <trkpt lat="44.24118" lon="6.62694">
        <ele>1471</ele>
        <time>2013-09-03T13:29:05Z</time>
      </trkpt>
      <trkpt lat="44.24118" lon="6.62694">
        <ele>1471</ele>
        <time>2013-09-03T13:29:06Z</time>
      </trkpt>
      <trkpt lat="44.24119" lon="6.62695">
        <ele>1488.3</ele>
        <time>2013-09-03T13:54:36Z</time>
      </trkpt>
      <trkpt lat="44.24108" lon="6.62702">
        <ele>1488.7</ele>
        <time>2013-09-03T13:54:39Z</time>
      </trkpt>
      <trkpt lat="44.24108" lon="6.62703">
        <ele>1486.8</ele>
        <time>2013-09-03T13:54:40Z</time>
      </trkpt>
      <trkpt lat="44.24101" lon="6.62749">
        <ele>1485.4</ele>
        <time>2013-09-03T13:54:52Z</time>
      </trkpt>
      <trkpt lat="44.24093" lon="6.62766">
        <ele>1483</ele>
        <time>2013-09-03T13:54:56Z</time>
      </trkpt>
      <trkpt lat="44.2409" lon="6.6277">
        <ele>1482.5</ele>
        <time>2013-09-03T13:54:57Z</time>
      </trkpt>
      <trkpt lat="44.24087" lon="6.62775">
        <ele>1483</ele>
        <time>2013-09-03T13:54:58Z</time>
      </trkpt>
      <trkpt lat="44.24084" lon="6.6278">
        <ele>1482</ele>
        <time>2013-09-03T13:54:59Z</time>
      </trkpt>
      <trkpt lat="44.24078" lon="6.62789">
        <ele>1481.1</ele>
        <time>2013-09-03T13:55:01Z</time>
      </trkpt>
      <trkpt lat="44.24067" lon="6.62801">
        <ele>1481.1</ele>
        <time>2013-09-03T13:55:04Z</time>
      </trkpt>
      <trkpt lat="44.2406" lon="6.62808">
        <ele>1480.1</ele>
        <time>2013-09-03T13:55:06Z</time>
      </trkpt>
      <trkpt lat="44.24031" lon="6.62834">
        <ele>1476.2</ele>
        <time>2013-09-03T13:55:14Z</time>
      </trkpt>
      <trkpt lat="44.24028" lon="6.62838">
        <ele>1473.8</ele>
        <time>2013-09-03T13:55:15Z</time>
      </trkpt>
      <trkpt lat="44.24025" lon="6.62841">
        <ele>1472.9</ele>
        <time>2013-09-03T13:55:16Z</time>
      </trkpt>
      <trkpt lat="44.24021" lon="6.62844">
        <ele>1471</ele>
        <time>2013-09-03T13:55:17Z</time>
      </trkpt>
      <trkpt lat="44.24017" lon="6.62847">
        <ele>1470.5</ele>
        <time>2013-09-03T13:55:18Z</time>
      </trkpt>
      <trkpt lat="44.24012" lon="6.6285">
        <ele>1467.1</ele>
        <time>2013-09-03T13:55:19Z</time>
      </trkpt>
      <trkpt lat="44.24" lon="6.62855">
        <ele>1464.2</ele>
        <time>2013-09-03T13:55:21Z</time>
      </trkpt>
      <trkpt lat="44.23996" lon="6.62857">
        <ele>1463.7</ele>
        <time>2013-09-03T13:55:22Z</time>
      </trkpt>
      <trkpt lat="44.23985" lon="6.62852">
        <ele>1459.9</ele>
        <time>2013-09-03T13:55:26Z</time>
      </trkpt>
      <trkpt lat="44.23978" lon="6.62838">
        <ele>1456.5</ele>
        <time>2013-09-03T13:55:30Z</time>
      </trkpt>
      <trkpt lat="44.23969" lon="6.62828">
        <ele>1453.7</ele>
        <time>2013-09-03T13:55:33Z</time>
      </trkpt>
      <trkpt lat="44.23966" lon="6.62826">
        <ele>1452.7</ele>
        <time>2013-09-03T13:55:34Z</time>
      </trkpt>
      <trkpt lat="44.23962" lon="6.62825">
        <ele>1451.7</ele>
        <time>2013-09-03T13:55:35Z</time>
      </trkpt>
      <trkpt lat="44.23958" lon="6.62825">
        <ele>1451.3</ele>
        <time>2013-09-03T13:55:36Z</time>
      </trkpt>
      <trkpt lat="44.23954" lon="6.62828">
        <ele>1450.3</ele>
        <time>2013-09-03T13:55:37Z</time>
      </trkpt>
      <trkpt lat="44.23951" lon="6.62833">
        <ele>1449.3</ele>
        <time>2013-09-03T13:55:38Z</time>
      </trkpt>
      <trkpt lat="44.23948" lon="6.62838">
        <ele>1449.3</ele>
        <time>2013-09-03T13:55:39Z</time>
      </trkpt>
      <trkpt lat="44.23945" lon="6.62853">
        <ele>1448.4</ele>
        <time>2013-09-03T13:55:41Z</time>
      </trkpt>
      <trkpt lat="44.23941" lon="6.62873">
        <ele>1446.4</ele>
        <time>2013-09-03T13:55:44Z</time>
      </trkpt>
      <trkpt lat="44.2394" lon="6.62879">
        <ele>1446</ele>
        <time>2013-09-03T13:55:45Z</time>
      </trkpt>
      <trkpt lat="44.23935" lon="6.6289">
        <ele>1445</ele>
        <time>2013-09-03T13:55:47Z</time>
      </trkpt>
      <trkpt lat="44.2393" lon="6.62893">
        <ele>1444.5</ele>
        <time>2013-09-03T13:55:48Z</time>
      </trkpt>
      <trkpt lat="44.23923" lon="6.62896">
        <ele>1444</ele>
        <time>2013-09-03T13:55:49Z</time>
      </trkpt>
      <trkpt lat="44.23896" lon="6.62903">
        <ele>1440.7</ele>
        <time>2013-09-03T13:55:53Z</time>
      </trkpt>
      <trkpt lat="44.23883" lon="6.62906">
        <ele>1439.7</ele>
        <time>2013-09-03T13:55:55Z</time>
      </trkpt>
      <trkpt lat="44.23857" lon="6.62908">
        <ele>1436.8</ele>
        <time>2013-09-03T13:56:03Z</time>
      </trkpt>
      <trkpt lat="44.23816" lon="6.62888">
        <ele>1433.9</ele>
        <time>2013-09-03T13:56:16Z</time>
      </trkpt>
      <trkpt lat="44.23796" lon="6.62883">
        <ele>1432.5</ele>
        <time>2013-09-03T13:56:21Z</time>
      </trkpt>
      <trkpt lat="44.23788" lon="6.62883">
        <ele>1432</ele>
        <time>2013-09-03T13:56:23Z</time>
      </trkpt>
      <trkpt lat="44.23783" lon="6.62884">
        <ele>1431.5</ele>
        <time>2013-09-03T13:56:24Z</time>
      </trkpt>
      <trkpt lat="44.23779" lon="6.62885">
        <ele>1432</ele>
        <time>2013-09-03T13:56:25Z</time>
      </trkpt>
      <trkpt lat="44.2376" lon="6.62889">
        <ele>1431.5</ele>
        <time>2013-09-03T13:56:29Z</time>
      </trkpt>
      <trkpt lat="44.23755" lon="6.6289">
        <ele>1430.6</ele>
        <time>2013-09-03T13:56:30Z</time>
      </trkpt>
      <trkpt lat="44.23689" lon="6.62872">
        <ele>1427.2</ele>
        <time>2013-09-03T13:56:43Z</time>
      </trkpt>
      <trkpt lat="44.23684" lon="6.62872">
        <ele>1427.2</ele>
        <time>2013-09-03T13:56:44Z</time>
      </trkpt>
      <trkpt lat="44.23613" lon="6.62901">
        <ele>1424.8</ele>
        <time>2013-09-03T13:56:58Z</time>
      </trkpt>
      <trkpt lat="44.23598" lon="6.62911">
        <ele>1423.4</ele>
        <time>2013-09-03T13:57:01Z</time>
      </trkpt>
      <trkpt lat="44.23573" lon="6.62921">
        <ele>1423.4</ele>
        <time>2013-09-03T13:57:06Z</time>
      </trkpt>
      <trkpt lat="44.23481" lon="6.62923">
        <ele>1421.9</ele>
        <time>2013-09-03T13:57:24Z</time>
      </trkpt>
      <trkpt lat="44.23374" lon="6.62913">
        <ele>1421.5</ele>
        <time>2013-09-03T13:57:44Z</time>
      </trkpt>
      <trkpt lat="44.23276" lon="6.62887">
        <ele>1421.5</ele>
        <time>2013-09-03T13:58:02Z</time>
      </trkpt>
      <trkpt lat="44.23195" lon="6.62905">
        <ele>1420.5</ele>
        <time>2013-09-03T13:58:17Z</time>
      </trkpt>
      <trkpt lat="44.23129" lon="6.62938">
        <ele>1418.6</ele>
        <time>2013-09-03T13:58:29Z</time>
      </trkpt>
      <trkpt lat="44.23108" lon="6.62943">
        <ele>1417.1</ele>
        <time>2013-09-03T13:58:32Z</time>
      </trkpt>
      <trkpt lat="44.23069" lon="6.62947">
        <ele>1415.2</ele>
        <time>2013-09-03T13:58:37Z</time>
      </trkpt>
      <trkpt lat="44.23016" lon="6.62963">
        <ele>1411.4</ele>
        <time>2013-09-03T13:58:43Z</time>
      </trkpt>
      <trkpt lat="44.23007" lon="6.62969">
        <ele>1411.4</ele>
        <time>2013-09-03T13:58:44Z</time>
      </trkpt>
      <trkpt lat="44.22948" lon="6.63014">
        <ele>1407.5</ele>
        <time>2013-09-03T13:58:51Z</time>
      </trkpt>
      <trkpt lat="44.22912" lon="6.63041">
        <ele>1405.6</ele>
        <time>2013-09-03T13:58:55Z</time>
      </trkpt>
      <trkpt lat="44.22877" lon="6.63067">
        <ele>1404.1</ele>
        <time>2013-09-03T13:58:59Z</time>
      </trkpt>
      <trkpt lat="44.22813" lon="6.63103">
        <ele>1400.8</ele>
        <time>2013-09-03T13:59:06Z</time>
      </trkpt>
      <trkpt lat="44.22752" lon="6.63162">
        <ele>1397.9</ele>
        <time>2013-09-03T13:59:14Z</time>
      </trkpt>
      <trkpt lat="44.22701" lon="6.63232">
        <ele>1394.5</ele>
        <time>2013-09-03T13:59:22Z</time>
      </trkpt>
      <trkpt lat="44.22694" lon="6.6324">
        <ele>1394.5</ele>
        <time>2013-09-03T13:59:23Z</time>
      </trkpt>
      <trkpt lat="44.22656" lon="6.6328">
        <ele>1392.6</ele>
        <time>2013-09-03T13:59:28Z</time>
      </trkpt>
      <trkpt lat="44.22647" lon="6.63286">
        <ele>1392.1</ele>
        <time>2013-09-03T13:59:29Z</time>
      </trkpt>
      <trkpt lat="44.22596" lon="6.63316">
        <ele>1388.3</ele>
        <time>2013-09-03T13:59:35Z</time>
      </trkpt>
      <trkpt lat="44.22491" lon="6.63354">
        <ele>1385.4</ele>
        <time>2013-09-03T13:59:47Z</time>
      </trkpt>
      <trkpt lat="44.22388" lon="6.6337">
        <ele>1382</ele>
        <time>2013-09-03T14:00:01Z</time>
      </trkpt>
      <trkpt lat="44.2228" lon="6.63384">
        <ele>1379.6</ele>
        <time>2013-09-03T14:00:17Z</time>
      </trkpt>
      <trkpt lat="44.22276" lon="6.63385">
        <ele>1379.6</ele>
        <time>2013-09-03T14:00:18Z</time>
      </trkpt>
      <trkpt lat="44.22262" lon="6.63388">
        <ele>1379.2</ele>
        <time>2013-09-03T14:00:20Z</time>
      </trkpt>
      <trkpt lat="44.22107" lon="6.63411">
        <ele>1375.8</ele>
        <time>2013-09-03T14:00:41Z</time>
      </trkpt>
      <trkpt lat="44.22063" lon="6.63418">
        <ele>1374.8</ele>
        <time>2013-09-03T14:00:47Z</time>
      </trkpt>
      <trkpt lat="44.21922" lon="6.63439">
        <ele>1371.9</ele>
        <time>2013-09-03T14:01:07Z</time>
      </trkpt>
      <trkpt lat="44.21796" lon="6.63456">
        <ele>1369.5</ele>
        <time>2013-09-03T14:01:25Z</time>
      </trkpt>
      <trkpt lat="44.2169" lon="6.63477">
        <ele>1368.1</ele>
        <time>2013-09-03T14:01:42Z</time>
      </trkpt>
      <trkpt lat="44.21613" lon="6.63544">
        <ele>1366.2</ele>
        <time>2013-09-03T14:01:57Z</time>
      </trkpt>
      <trkpt lat="44.21555" lon="6.636">
        <ele>1365.7</ele>
        <time>2013-09-03T14:02:08Z</time>
      </trkpt>
      <trkpt lat="44.21548" lon="6.63602">
        <ele>1365.2</ele>
        <time>2013-09-03T14:02:09Z</time>
      </trkpt>
      <trkpt lat="44.21542" lon="6.63603">
        <ele>1365.2</ele>
        <time>2013-09-03T14:02:10Z</time>
      </trkpt>
      <trkpt lat="44.21535" lon="6.63603">
        <ele>1365.2</ele>
        <time>2013-09-03T14:02:11Z</time>
      </trkpt>
      <trkpt lat="44.21528" lon="6.63603">
        <ele>1364.7</ele>
        <time>2013-09-03T14:02:12Z</time>
      </trkpt>
      <trkpt lat="44.2148" lon="6.63596">
        <ele>1363.8</ele>
        <time>2013-09-03T14:02:19Z</time>
      </trkpt>
      <trkpt lat="44.21473" lon="6.63598">
        <ele>1363.8</ele>
        <time>2013-09-03T14:02:20Z</time>
      </trkpt>
      <trkpt lat="44.21466" lon="6.636">
        <ele>1363.8</ele>
        <time>2013-09-03T14:02:21Z</time>
      </trkpt>
      <trkpt lat="44.2146" lon="6.63603">
        <ele>1363.3</ele>
        <time>2013-09-03T14:02:22Z</time>
      </trkpt>
      <trkpt lat="44.21454" lon="6.63606">
        <ele>1364.3</ele>
        <time>2013-09-03T14:02:23Z</time>
      </trkpt>
      <trkpt lat="44.21448" lon="6.6361">
        <ele>1363.8</ele>
        <time>2013-09-03T14:02:24Z</time>
      </trkpt>
      <trkpt lat="44.21376" lon="6.63657">
        <ele>1361.8</ele>
        <time>2013-09-03T14:02:36Z</time>
      </trkpt>
      <trkpt lat="44.21369" lon="6.6366">
        <ele>1360.4</ele>
        <time>2013-09-03T14:02:37Z</time>
      </trkpt>
      <trkpt lat="44.21335" lon="6.63668">
        <ele>1360.9</ele>
        <time>2013-09-03T14:02:42Z</time>
      </trkpt>
      <trkpt lat="44.21321" lon="6.63672">
        <ele>1361.8</ele>
        <time>2013-09-03T14:02:44Z</time>
      </trkpt>
      <trkpt lat="44.21307" lon="6.63679">
        <ele>1360.9</ele>
        <time>2013-09-03T14:02:46Z</time>
      </trkpt>
      <trkpt lat="44.21281" lon="6.63695">
        <ele>1359.4</ele>
        <time>2013-09-03T14:02:50Z</time>
      </trkpt>
      <trkpt lat="44.21187" lon="6.63717">
        <ele>1358</ele>
        <time>2013-09-03T14:03:03Z</time>
      </trkpt>
      <trkpt lat="44.21102" lon="6.63738">
        <ele>1356.6</ele>
        <time>2013-09-03T14:03:17Z</time>
      </trkpt>
      <trkpt lat="44.20991" lon="6.63765">
        <ele>1353.7</ele>
        <time>2013-09-03T14:03:35Z</time>
      </trkpt>
      <trkpt lat="44.20896" lon="6.63779">
        <ele>1352.7</ele>
        <time>2013-09-03T14:03:50Z</time>
      </trkpt>
      <trkpt lat="44.20855" lon="6.63781">
        <ele>1351.8</ele>
        <time>2013-09-03T14:03:56Z</time>
      </trkpt>
      <trkpt lat="44.20764" lon="6.63733">
        <ele>1352.7</ele>
        <time>2013-09-03T14:04:10Z</time>
      </trkpt>
      <trkpt lat="44.20705" lon="6.63686">
        <ele>1348.9</ele>
        <time>2013-09-03T14:04:20Z</time>
      </trkpt>
      <trkpt lat="44.20699" lon="6.63681">
        <ele>1348.9</ele>
        <time>2013-09-03T14:04:21Z</time>
      </trkpt>
      <trkpt lat="44.20694" lon="6.63676">
        <ele>1349.4</ele>
        <time>2013-09-03T14:04:22Z</time>
      </trkpt>
      <trkpt lat="44.20683" lon="6.6367">
        <ele>1350.3</ele>
        <time>2013-09-03T14:04:24Z</time>
      </trkpt>
      <trkpt lat="44.20672" lon="6.63664">
        <ele>1350.8</ele>
        <time>2013-09-03T14:04:26Z</time>
      </trkpt>
      <trkpt lat="44.20666" lon="6.63662">
        <ele>1350.8</ele>
        <time>2013-09-03T14:04:27Z</time>
      </trkpt>
      <trkpt lat="44.2066" lon="6.63661">
        <ele>1349.8</ele>
        <time>2013-09-03T14:04:28Z</time>
      </trkpt>
      <trkpt lat="44.20654" lon="6.63661">
        <ele>1350.3</ele>
        <time>2013-09-03T14:04:29Z</time>
      </trkpt>
      <trkpt lat="44.20648" lon="6.63661">
        <ele>1350.3</ele>
        <time>2013-09-03T14:04:30Z</time>
      </trkpt>
      <trkpt lat="44.20642" lon="6.63662">
        <ele>1351.3</ele>
        <time>2013-09-03T14:04:31Z</time>
      </trkpt>
      <trkpt lat="44.20575" lon="6.63679">
        <ele>1347.4</ele>
        <time>2013-09-03T14:04:43Z</time>
      </trkpt>
      <trkpt lat="44.20558" lon="6.6368">
        <ele>1349.4</ele>
        <time>2013-09-03T14:04:46Z</time>
      </trkpt>
      <trkpt lat="44.20501" lon="6.63667">
        <ele>1348.9</ele>
        <time>2013-09-03T14:04:56Z</time>
      </trkpt>
      <trkpt lat="44.20475" lon="6.63655">
        <ele>1347.9</ele>
        <time>2013-09-03T14:05:01Z</time>
      </trkpt>
      <trkpt lat="44.20464" lon="6.63652">
        <ele>1347.9</ele>
        <time>2013-09-03T14:05:03Z</time>
      </trkpt>
      <trkpt lat="44.20377" lon="6.63634">
        <ele>1347.4</ele>
        <time>2013-09-03T14:05:20Z</time>
      </trkpt>
      <trkpt lat="44.20346" lon="6.63632">
        <ele>1347.4</ele>
        <time>2013-09-03T14:05:26Z</time>
      </trkpt>
      <trkpt lat="44.20341" lon="6.63634">
        <ele>1348.4</ele>
        <time>2013-09-03T14:05:27Z</time>
      </trkpt>
      <trkpt lat="44.20336" lon="6.63636">
        <ele>1347.4</ele>
        <time>2013-09-03T14:05:28Z</time>
      </trkpt>
      <trkpt lat="44.20331" lon="6.63639">
        <ele>1349.4</ele>
        <time>2013-09-03T14:05:29Z</time>
      </trkpt>
      <trkpt lat="44.20327" lon="6.63642">
        <ele>1347.9</ele>
        <time>2013-09-03T14:05:30Z</time>
      </trkpt>
      <trkpt lat="44.20322" lon="6.63646">
        <ele>1348.4</ele>
        <time>2013-09-03T14:05:31Z</time>
      </trkpt>
      <trkpt lat="44.20294" lon="6.63664">
        <ele>1347.4</ele>
        <time>2013-09-03T14:05:37Z</time>
      </trkpt>
      <trkpt lat="44.20289" lon="6.63666">
        <ele>1347.4</ele>
        <time>2013-09-03T14:05:38Z</time>
      </trkpt>
      <trkpt lat="44.20283" lon="6.63666">
        <ele>1350.3</ele>
        <time>2013-09-03T14:05:39Z</time>
      </trkpt>
      <trkpt lat="44.20278" lon="6.63666">
        <ele>1348.4</ele>
        <time>2013-09-03T14:05:40Z</time>
      </trkpt>
      <trkpt lat="44.20272" lon="6.63664">
        <ele>1349.4</ele>
        <time>2013-09-03T14:05:41Z</time>
      </trkpt>
      <trkpt lat="44.20267" lon="6.63662">
        <ele>1347.9</ele>
        <time>2013-09-03T14:05:42Z</time>
      </trkpt>
      <trkpt lat="44.20262" lon="6.63659">
        <ele>1349.8</ele>
        <time>2013-09-03T14:05:43Z</time>
      </trkpt>
      <trkpt lat="44.20187" lon="6.63617">
        <ele>1347.4</ele>
        <time>2013-09-03T14:05:58Z</time>
      </trkpt>
      <trkpt lat="44.20182" lon="6.63615">
        <ele>1347.9</ele>
        <time>2013-09-03T14:05:59Z</time>
      </trkpt>
      <trkpt lat="44.20148" lon="6.63606">
        <ele>1346.9</ele>
        <time>2013-09-03T14:06:06Z</time>
      </trkpt>
      <trkpt lat="44.20131" lon="6.636">
        <ele>1347.9</ele>
        <time>2013-09-03T14:06:10Z</time>
      </trkpt>
      <trkpt lat="44.20127" lon="6.63597">
        <ele>1348.4</ele>
        <time>2013-09-03T14:06:11Z</time>
      </trkpt>
      <trkpt lat="44.20123" lon="6.63594">
        <ele>1349.4</ele>
        <time>2013-09-03T14:06:12Z</time>
      </trkpt>
      <trkpt lat="44.2012" lon="6.63592">
        <ele>1347.9</ele>
        <time>2013-09-03T14:06:13Z</time>
      </trkpt>
      <trkpt lat="44.20117" lon="6.63588">
        <ele>1347.9</ele>
        <time>2013-09-03T14:06:14Z</time>
      </trkpt>
      <trkpt lat="44.20088" lon="6.63565">
        <ele>1347.9</ele>
        <time>2013-09-03T14:06:21Z</time>
      </trkpt>
      <trkpt lat="44.20017" lon="6.63564">
        <ele>1346.9</ele>
        <time>2013-09-03T14:06:34Z</time>
      </trkpt>
      <trkpt lat="44.19977" lon="6.63575">
        <ele>1343.1</ele>
        <time>2013-09-03T14:06:40Z</time>
      </trkpt>
      <trkpt lat="44.1997" lon="6.63575">
        <ele>1344.1</ele>
        <time>2013-09-03T14:06:41Z</time>
      </trkpt>
      <trkpt lat="44.19957" lon="6.63577">
        <ele>1342.6</ele>
        <time>2013-09-03T14:06:43Z</time>
      </trkpt>
      <trkpt lat="44.1995" lon="6.63579">
        <ele>1342.1</ele>
        <time>2013-09-03T14:06:44Z</time>
      </trkpt>
      <trkpt lat="44.19944" lon="6.63583">
        <ele>1341.7</ele>
        <time>2013-09-03T14:06:45Z</time>
      </trkpt>
      <trkpt lat="44.19938" lon="6.63588">
        <ele>1341.7</ele>
        <time>2013-09-03T14:06:46Z</time>
      </trkpt>
      <trkpt lat="44.19932" lon="6.63594">
        <ele>1341.2</ele>
        <time>2013-09-03T14:06:47Z</time>
      </trkpt>
      <trkpt lat="44.19928" lon="6.63601">
        <ele>1342.1</ele>
        <time>2013-09-03T14:06:48Z</time>
      </trkpt>
      <trkpt lat="44.19923" lon="6.63609">
        <ele>1341.2</ele>
        <time>2013-09-03T14:06:49Z</time>
      </trkpt>
      <trkpt lat="44.1992" lon="6.63617">
        <ele>1340.2</ele>
        <time>2013-09-03T14:06:50Z</time>
      </trkpt>
      <trkpt lat="44.19916" lon="6.63625">
        <ele>1339.7</ele>
        <time>2013-09-03T14:06:51Z</time>
      </trkpt>
      <trkpt lat="44.19907" lon="6.63641">
        <ele>1338.3</ele>
        <time>2013-09-03T14:06:53Z</time>
      </trkpt>
      <trkpt lat="44.19902" lon="6.63648">
        <ele>1338.3</ele>
        <time>2013-09-03T14:06:54Z</time>
      </trkpt>
      <trkpt lat="44.19897" lon="6.63654">
        <ele>1337.8</ele>
        <time>2013-09-03T14:06:55Z</time>
      </trkpt>
      <trkpt lat="44.19872" lon="6.63678">
        <ele>1336.9</ele>
        <time>2013-09-03T14:06:59Z</time>
      </trkpt>
      <trkpt lat="44.19852" lon="6.63691">
        <ele>1335.4</ele>
        <time>2013-09-03T14:07:02Z</time>
      </trkpt>
      <trkpt lat="44.19845" lon="6.63692">
        <ele>1335.4</ele>
        <time>2013-09-03T14:07:03Z</time>
      </trkpt>
      <trkpt lat="44.19832" lon="6.63693">
        <ele>1335.4</ele>
        <time>2013-09-03T14:07:05Z</time>
      </trkpt>
      <trkpt lat="44.19823" lon="6.6369">
        <ele>1334.9</ele>
        <time>2013-09-03T14:07:07Z</time>
      </trkpt>
      <trkpt lat="44.19818" lon="6.63686">
        <ele>1335.4</ele>
        <time>2013-09-03T14:07:08Z</time>
      </trkpt>
      <trkpt lat="44.19758" lon="6.63634">
        <ele>1334</ele>
        <time>2013-09-03T14:07:17Z</time>
      </trkpt>
      <trkpt lat="44.1967" lon="6.6358">
        <ele>1334</ele>
        <time>2013-09-03T14:07:32Z</time>
      </trkpt>
      <trkpt lat="44.19641" lon="6.63576">
        <ele>1333</ele>
        <time>2013-09-03T14:07:37Z</time>
      </trkpt>
      <trkpt lat="44.19583" lon="6.63592">
        <ele>1331.6</ele>
        <time>2013-09-03T14:07:47Z</time>
      </trkpt>
      <trkpt lat="44.19549" lon="6.63605">
        <ele>1329.2</ele>
        <time>2013-09-03T14:07:52Z</time>
      </trkpt>
      <trkpt lat="44.19542" lon="6.63606">
        <ele>1329.2</ele>
        <time>2013-09-03T14:07:53Z</time>
      </trkpt>
      <trkpt lat="44.19502" lon="6.63608">
        <ele>1326.8</ele>
        <time>2013-09-03T14:07:58Z</time>
      </trkpt>
      <trkpt lat="44.1947" lon="6.63602">
        <ele>1324.8</ele>
        <time>2013-09-03T14:08:02Z</time>
      </trkpt>
      <trkpt lat="44.19448" lon="6.63597">
        <ele>1324.4</ele>
        <time>2013-09-03T14:08:05Z</time>
      </trkpt>
      <trkpt lat="44.19442" lon="6.63594">
        <ele>1323.9</ele>
        <time>2013-09-03T14:08:06Z</time>
      </trkpt>
      <trkpt lat="44.19437" lon="6.63591">
        <ele>1322.9</ele>
        <time>2013-09-03T14:08:07Z</time>
      </trkpt>
      <trkpt lat="44.19434" lon="6.63588">
        <ele>1322.9</ele>
        <time>2013-09-03T14:08:08Z</time>
      </trkpt>
      <trkpt lat="44.19421" lon="6.63579">
        <ele>1321</ele>
        <time>2013-09-03T14:08:13Z</time>
      </trkpt>
      <trkpt lat="44.19417" lon="6.63573">
        <ele>1322.4</ele>
        <time>2013-09-03T14:08:28Z</time>
      </trkpt>
      <trkpt lat="44.19417" lon="6.6357">
        <ele>1321.5</ele>
        <time>2013-09-03T14:08:58Z</time>
      </trkpt>
      <trkpt lat="44.19397" lon="6.63556">
        <ele>1320.5</ele>
        <time>2013-09-03T14:09:07Z</time>
      </trkpt>
      <trkpt lat="44.19354" lon="6.63514">
        <ele>1317.1</ele>
        <time>2013-09-03T14:09:16Z</time>
      </trkpt>
      <trkpt lat="44.19348" lon="6.63509">
        <ele>1317.1</ele>
        <time>2013-09-03T14:09:17Z</time>
      </trkpt>
      <trkpt lat="44.19305" lon="6.63483">
        <ele>1313.8</ele>
        <time>2013-09-03T14:09:23Z</time>
      </trkpt>
      <trkpt lat="44.19289" lon="6.63478">
        <ele>1313.3</ele>
        <time>2013-09-03T14:09:25Z</time>
      </trkpt>
      <trkpt lat="44.19236" lon="6.63474">
        <ele>1309.9</ele>
        <time>2013-09-03T14:09:31Z</time>
      </trkpt>
      <trkpt lat="44.192" lon="6.63482">
        <ele>1308</ele>
        <time>2013-09-03T14:09:35Z</time>
      </trkpt>
      <trkpt lat="44.19148" lon="6.63499">
        <ele>1304.7</ele>
        <time>2013-09-03T14:09:41Z</time>
      </trkpt>
      <trkpt lat="44.19076" lon="6.63516">
        <ele>1303.7</ele>
        <time>2013-09-03T14:09:50Z</time>
      </trkpt>
      <trkpt lat="44.19069" lon="6.63514">
        <ele>1303.2</ele>
        <time>2013-09-03T14:09:51Z</time>
      </trkpt>
      <trkpt lat="44.18962" lon="6.63485">
        <ele>1301.3</ele>
        <time>2013-09-03T14:10:06Z</time>
      </trkpt>
      <trkpt lat="44.18912" lon="6.63478">
        <ele>1302.2</ele>
        <time>2013-09-03T14:10:14Z</time>
      </trkpt>
      <trkpt lat="44.18907" lon="6.63474">
        <ele>1302.7</ele>
        <time>2013-09-03T14:10:15Z</time>
      </trkpt>
      <trkpt lat="44.18902" lon="6.63468">
        <ele>1302.2</ele>
        <time>2013-09-03T14:10:16Z</time>
      </trkpt>
      <trkpt lat="44.18823" lon="6.63369">
        <ele>1300.3</ele>
        <time>2013-09-03T14:10:31Z</time>
      </trkpt>
      <trkpt lat="44.18742" lon="6.63259">
        <ele>1300.8</ele>
        <time>2013-09-03T14:10:48Z</time>
      </trkpt>
      <trkpt lat="44.18733" lon="6.63246">
        <ele>1300.8</ele>
        <time>2013-09-03T14:10:50Z</time>
      </trkpt>
      <trkpt lat="44.18728" lon="6.6324">
        <ele>1300.3</ele>
        <time>2013-09-03T14:10:51Z</time>
      </trkpt>
      <trkpt lat="44.18723" lon="6.63236">
        <ele>1300.8</ele>
        <time>2013-09-03T14:10:52Z</time>
      </trkpt>
      <trkpt lat="44.18674" lon="6.632">
        <ele>1300.8</ele>
        <time>2013-09-03T14:11:01Z</time>
      </trkpt>
      <trkpt lat="44.18644" lon="6.63174">
        <ele>1301.3</ele>
        <time>2013-09-03T14:11:08Z</time>
      </trkpt>
      <trkpt lat="44.18639" lon="6.63172">
        <ele>1300.8</ele>
        <time>2013-09-03T14:11:09Z</time>
      </trkpt>
      <trkpt lat="44.18612" lon="6.63165">
        <ele>1300.3</ele>
        <time>2013-09-03T14:11:14Z</time>
      </trkpt>
      <trkpt lat="44.18607" lon="6.63165">
        <ele>1300.3</ele>
        <time>2013-09-03T14:11:15Z</time>
      </trkpt>
      <trkpt lat="44.18536" lon="6.63178">
        <ele>1299.4</ele>
        <time>2013-09-03T14:11:28Z</time>
      </trkpt>
      <trkpt lat="44.1848" lon="6.63175">
        <ele>1298.9</ele>
        <time>2013-09-03T14:11:38Z</time>
      </trkpt>
      <trkpt lat="44.18446" lon="6.63177">
        <ele>1299.4</ele>
        <time>2013-09-03T14:11:44Z</time>
      </trkpt>
      <trkpt lat="44.18441" lon="6.63176">
        <ele>1298.9</ele>
        <time>2013-09-03T14:11:45Z</time>
      </trkpt>
      <trkpt lat="44.18436" lon="6.63173">
        <ele>1298.9</ele>
        <time>2013-09-03T14:11:46Z</time>
      </trkpt>
      <trkpt lat="44.18431" lon="6.63169">
        <ele>1299.8</ele>
        <time>2013-09-03T14:11:47Z</time>
      </trkpt>
      <trkpt lat="44.18426" lon="6.63165">
        <ele>1298.9</ele>
        <time>2013-09-03T14:11:48Z</time>
      </trkpt>
      <trkpt lat="44.18421" lon="6.63159">
        <ele>1299.4</ele>
        <time>2013-09-03T14:11:49Z</time>
      </trkpt>
      <trkpt lat="44.18417" lon="6.63152">
        <ele>1297.9</ele>
        <time>2013-09-03T14:11:50Z</time>
      </trkpt>
      <trkpt lat="44.18412" lon="6.63144">
        <ele>1297.9</ele>
        <time>2013-09-03T14:11:51Z</time>
      </trkpt>
      <trkpt lat="44.18409" lon="6.63135">
        <ele>1297.4</ele>
        <time>2013-09-03T14:11:52Z</time>
      </trkpt>
      <trkpt lat="44.18405" lon="6.63126">
        <ele>1297.4</ele>
        <time>2013-09-03T14:11:53Z</time>
      </trkpt>
      <trkpt lat="44.18402" lon="6.63116">
        <ele>1296.5</ele>
        <time>2013-09-03T14:11:54Z</time>
      </trkpt>
      <trkpt lat="44.18392" lon="6.63087">
        <ele>1295</ele>
        <time>2013-09-03T14:11:57Z</time>
      </trkpt>
      <trkpt lat="44.18382" lon="6.63056">
        <ele>1293.1</ele>
        <time>2013-09-03T14:12:00Z</time>
      </trkpt>
      <trkpt lat="44.18367" lon="6.63019">
        <ele>1291.2</ele>
        <time>2013-09-03T14:12:04Z</time>
      </trkpt>
      <trkpt lat="44.18363" lon="6.63012">
        <ele>1291.2</ele>
        <time>2013-09-03T14:12:05Z</time>
      </trkpt>
      <trkpt lat="44.18359" lon="6.63005">
        <ele>1290.7</ele>
        <time>2013-09-03T14:12:06Z</time>
      </trkpt>
      <trkpt lat="44.18354" lon="6.63">
        <ele>1289.8</ele>
        <time>2013-09-03T14:12:07Z</time>
      </trkpt>
      <trkpt lat="44.1835" lon="6.62997">
        <ele>1289.3</ele>
        <time>2013-09-03T14:12:08Z</time>
      </trkpt>
      <trkpt lat="44.18345" lon="6.62995">
        <ele>1288.3</ele>
        <time>2013-09-03T14:12:09Z</time>
      </trkpt>
      <trkpt lat="44.1834" lon="6.62994">
        <ele>1289.3</ele>
        <time>2013-09-03T14:12:10Z</time>
      </trkpt>
      <trkpt lat="44.18335" lon="6.62992">
        <ele>1288.3</ele>
        <time>2013-09-03T14:12:11Z</time>
      </trkpt>
      <trkpt lat="44.18332" lon="6.62989">
        <ele>1287.8</ele>
        <time>2013-09-03T14:12:12Z</time>
      </trkpt>
      <trkpt lat="44.1833" lon="6.62987">
        <ele>1287.8</ele>
        <time>2013-09-03T14:12:13Z</time>
      </trkpt>
      <trkpt lat="44.18326" lon="6.62979">
        <ele>1287.3</ele>
        <time>2013-09-03T14:12:22Z</time>
      </trkpt>
      <trkpt lat="44.18313" lon="6.62961">
        <ele>1284.9</ele>
        <time>2013-09-03T14:12:27Z</time>
      </trkpt>
      <trkpt lat="44.1831" lon="6.62957">
        <ele>1284.9</ele>
        <time>2013-09-03T14:12:28Z</time>
      </trkpt>
      <trkpt lat="44.18306" lon="6.62952">
        <ele>1285.4</ele>
        <time>2013-09-03T14:12:29Z</time>
      </trkpt>
      <trkpt lat="44.18295" lon="6.62932">
        <ele>1283</ele>
        <time>2013-09-03T14:12:34Z</time>
      </trkpt>
      <trkpt lat="44.18285" lon="6.6289">
        <ele>1279.7</ele>
        <time>2013-09-03T14:12:40Z</time>
      </trkpt>
      <trkpt lat="44.18278" lon="6.62862">
        <ele>1277.7</ele>
        <time>2013-09-03T14:12:45Z</time>
      </trkpt>
      <trkpt lat="44.18278" lon="6.62856">
        <ele>1277.3</ele>
        <time>2013-09-03T14:12:46Z</time>
      </trkpt>
      <trkpt lat="44.18278" lon="6.62844">
        <ele>1276.3</ele>
        <time>2013-09-03T14:12:48Z</time>
      </trkpt>
      <trkpt lat="44.18277" lon="6.62837">
        <ele>1275.3</ele>
        <time>2013-09-03T14:12:49Z</time>
      </trkpt>
      <trkpt lat="44.18276" lon="6.62831">
        <ele>1275.3</ele>
        <time>2013-09-03T14:12:50Z</time>
      </trkpt>
      <trkpt lat="44.18276" lon="6.62819">
        <ele>1274.9</ele>
        <time>2013-09-03T14:12:52Z</time>
      </trkpt>
      <trkpt lat="44.18277" lon="6.62808">
        <ele>1273.9</ele>
        <time>2013-09-03T14:12:54Z</time>
      </trkpt>
      <trkpt lat="44.18271" lon="6.62791">
        <ele>1271</ele>
        <time>2013-09-03T14:12:58Z</time>
      </trkpt>
      <trkpt lat="44.18266" lon="6.62788">
        <ele>1271</ele>
        <time>2013-09-03T14:12:59Z</time>
      </trkpt>
      <trkpt lat="44.18261" lon="6.62785">
        <ele>1269.6</ele>
        <time>2013-09-03T14:13:00Z</time>
      </trkpt>
      <trkpt lat="44.18256" lon="6.62781">
        <ele>1270</ele>
        <time>2013-09-03T14:13:01Z</time>
      </trkpt>
      <trkpt lat="44.18251" lon="6.62777">
        <ele>1268.6</ele>
        <time>2013-09-03T14:13:02Z</time>
      </trkpt>
      <trkpt lat="44.18247" lon="6.62774">
        <ele>1268.1</ele>
        <time>2013-09-03T14:13:03Z</time>
      </trkpt>
      <trkpt lat="44.1824" lon="6.62769">
        <ele>1268.1</ele>
        <time>2013-09-03T14:13:05Z</time>
      </trkpt>
      <trkpt lat="44.18236" lon="6.62768">
        <ele>1267.6</ele>
        <time>2013-09-03T14:13:06Z</time>
      </trkpt>
      <trkpt lat="44.18234" lon="6.62766">
        <ele>1267.6</ele>
        <time>2013-09-03T14:13:07Z</time>
      </trkpt>
      <trkpt lat="44.18231" lon="6.62764">
        <ele>1267.6</ele>
        <time>2013-09-03T14:13:08Z</time>
      </trkpt>
      <trkpt lat="44.18228" lon="6.62761">
        <ele>1267.2</ele>
        <time>2013-09-03T14:13:09Z</time>
      </trkpt>
      <trkpt lat="44.1822" lon="6.6275">
        <ele>1266.2</ele>
        <time>2013-09-03T14:13:13Z</time>
      </trkpt>
      <trkpt lat="44.1822" lon="6.62747">
        <ele>1266.7</ele>
        <time>2013-09-03T14:13:14Z</time>
      </trkpt>
      <trkpt lat="44.18219" lon="6.62743">
        <ele>1266.7</ele>
        <time>2013-09-03T14:13:23Z</time>
      </trkpt>
      <trkpt lat="44.1822" lon="6.62743">
        <ele>1264.8</ele>
        <time>2013-09-03T14:13:27Z</time>
      </trkpt>
      <trkpt lat="44.18219" lon="6.62744">
        <ele>1267.6</ele>
        <time>2013-09-03T14:19:53Z</time>
      </trkpt>
      <trkpt lat="44.18221" lon="6.6275">
        <ele>1265.2</ele>
        <time>2013-09-03T14:20:06Z</time>
      </trkpt>
      <trkpt lat="44.18223" lon="6.62756">
        <ele>1263.8</ele>
        <time>2013-09-03T14:20:11Z</time>
      </trkpt>
      <trkpt lat="44.18224" lon="6.62758">
        <ele>1262.8</ele>
        <time>2013-09-03T14:20:13Z</time>
      </trkpt>
      <trkpt lat="44.18232" lon="6.62773">
        <ele>1260.4</ele>
        <time>2013-09-03T14:20:23Z</time>
      </trkpt>
      <trkpt lat="44.18234" lon="6.62779">
        <ele>1258.5</ele>
        <time>2013-09-03T14:20:38Z</time>
      </trkpt>
      <trkpt lat="44.18233" lon="6.62777">
        <ele>1258</ele>
        <time>2013-09-03T14:21:02Z</time>
      </trkpt>
      <trkpt lat="44.18234" lon="6.62778">
        <ele>1258</ele>
        <time>2013-09-03T14:21:30Z</time>
      </trkpt>
      <trkpt lat="44.18235" lon="6.6278">
        <ele>1257.5</ele>
        <time>2013-09-03T14:22:03Z</time>
      </trkpt>
      <trkpt lat="44.18236" lon="6.6278">
        <ele>1257.5</ele>
        <time>2013-09-03T14:22:25Z</time>
      </trkpt>
      <trkpt lat="44.18231" lon="6.62793">
        <ele>1258</ele>
        <time>2013-09-03T14:22:31Z</time>
      </trkpt>
      <trkpt lat="44.18202" lon="6.62831">
        <ele>1258</ele>
        <time>2013-09-03T14:22:44Z</time>
      </trkpt>
      <trkpt lat="44.18166" lon="6.62881">
        <ele>1259.5</ele>
        <time>2013-09-03T14:23:00Z</time>
      </trkpt>
      <trkpt lat="44.18159" lon="6.62935">
        <ele>1260.9</ele>
        <time>2013-09-03T14:23:16Z</time>
      </trkpt>
      <trkpt lat="44.18158" lon="6.62986">
        <ele>1262.4</ele>
        <time>2013-09-03T14:23:32Z</time>
      </trkpt>
      <trkpt lat="44.18165" lon="6.63023">
        <ele>1264.3</ele>
        <time>2013-09-03T14:23:48Z</time>
      </trkpt>
      <trkpt lat="44.18167" lon="6.63043">
        <ele>1264.8</ele>
        <time>2013-09-03T14:23:56Z</time>
      </trkpt>
      <trkpt lat="44.18189" lon="6.63057">
        <ele>1267.6</ele>
        <time>2013-09-03T14:24:11Z</time>
      </trkpt>
      <trkpt lat="44.18224" lon="6.6306">
        <ele>1270</ele>
        <time>2013-09-03T14:24:30Z</time>
      </trkpt>
      <trkpt lat="44.18226" lon="6.6306">
        <ele>1270</ele>
        <time>2013-09-03T14:24:31Z</time>
      </trkpt>
      <trkpt lat="44.18257" lon="6.63052">
        <ele>1272</ele>
        <time>2013-09-03T14:24:48Z</time>
      </trkpt>
      <trkpt lat="44.18285" lon="6.63036">
        <ele>1273.4</ele>
        <time>2013-09-03T14:25:03Z</time>
      </trkpt>
      <trkpt lat="44.18316" lon="6.63016">
        <ele>1276.3</ele>
        <time>2013-09-03T14:25:21Z</time>
      </trkpt>
      <trkpt lat="44.18348" lon="6.63004">
        <ele>1278.7</ele>
        <time>2013-09-03T14:25:39Z</time>
      </trkpt>
      <trkpt lat="44.18349" lon="6.63027">
        <ele>1282.1</ele>
        <time>2013-09-03T14:25:51Z</time>
      </trkpt>
      <trkpt lat="44.18347" lon="6.63062">
        <ele>1284</ele>
        <time>2013-09-03T14:26:06Z</time>
      </trkpt>
      <trkpt lat="44.1834" lon="6.63097">
        <ele>1285.9</ele>
        <time>2013-09-03T14:26:21Z</time>
      </trkpt>
      <trkpt lat="44.18321" lon="6.63125">
        <ele>1287.8</ele>
        <time>2013-09-03T14:26:37Z</time>
      </trkpt>
      <trkpt lat="44.18295" lon="6.63147">
        <ele>1290.2</ele>
        <time>2013-09-03T14:26:52Z</time>
      </trkpt>
      <trkpt lat="44.18267" lon="6.63159">
        <ele>1291.2</ele>
        <time>2013-09-03T14:27:07Z</time>
      </trkpt>
      <trkpt lat="44.18245" lon="6.6317">
        <ele>1293.1</ele>
        <time>2013-09-03T14:27:19Z</time>
      </trkpt>
      <trkpt lat="44.18216" lon="6.63176">
        <ele>1296</ele>
        <time>2013-09-03T14:27:36Z</time>
      </trkpt>
      <trkpt lat="44.18187" lon="6.63179">
        <ele>1297.9</ele>
        <time>2013-09-03T14:27:53Z</time>
      </trkpt>
      <trkpt lat="44.18157" lon="6.63181">
        <ele>1301.3</ele>
        <time>2013-09-03T14:28:10Z</time>
      </trkpt>
      <trkpt lat="44.18134" lon="6.63182">
        <ele>1304.2</ele>
        <time>2013-09-03T14:28:25Z</time>
      </trkpt>
      <trkpt lat="44.18106" lon="6.63186">
        <ele>1306.6</ele>
        <time>2013-09-03T14:28:41Z</time>
      </trkpt>
      <trkpt lat="44.18082" lon="6.63203">
        <ele>1309</ele>
        <time>2013-09-03T14:28:58Z</time>
      </trkpt>
      <trkpt lat="44.18059" lon="6.63218">
        <ele>1310.4</ele>
        <time>2013-09-03T14:29:13Z</time>
      </trkpt>
      <trkpt lat="44.18034" lon="6.63232">
        <ele>1312.8</ele>
        <time>2013-09-03T14:29:29Z</time>
      </trkpt>
      <trkpt lat="44.18011" lon="6.63237">
        <ele>1314.3</ele>
        <time>2013-09-03T14:29:44Z</time>
      </trkpt>
      <trkpt lat="44.18005" lon="6.63237">
        <ele>1315.7</ele>
        <time>2013-09-03T14:29:47Z</time>
      </trkpt>
      <trkpt lat="44.17987" lon="6.6324">
        <ele>1316.7</ele>
        <time>2013-09-03T14:29:58Z</time>
      </trkpt>
      <trkpt lat="44.17986" lon="6.63242">
        <ele>1316.7</ele>
        <time>2013-09-03T14:29:59Z</time>
      </trkpt>
      <trkpt lat="44.17985" lon="6.63244">
        <ele>1317.6</ele>
        <time>2013-09-03T14:30:00Z</time>
      </trkpt>
      <trkpt lat="44.17985" lon="6.63246">
        <ele>1317.1</ele>
        <time>2013-09-03T14:30:01Z</time>
      </trkpt>
      <trkpt lat="44.17986" lon="6.63248">
        <ele>1317.6</ele>
        <time>2013-09-03T14:30:02Z</time>
      </trkpt>
      <trkpt lat="44.17987" lon="6.6325">
        <ele>1317.1</ele>
        <time>2013-09-03T14:30:03Z</time>
      </trkpt>
      <trkpt lat="44.17989" lon="6.6325">
        <ele>1318.1</ele>
        <time>2013-09-03T14:30:04Z</time>
      </trkpt>
      <trkpt lat="44.17991" lon="6.63251">
        <ele>1317.6</ele>
        <time>2013-09-03T14:30:05Z</time>
      </trkpt>
      <trkpt lat="44.18019" lon="6.63259">
        <ele>1319.6</ele>
        <time>2013-09-03T14:30:23Z</time>
      </trkpt>
      <trkpt lat="44.18049" lon="6.63263">
        <ele>1322.4</ele>
        <time>2013-09-03T14:30:41Z</time>
      </trkpt>
      <trkpt lat="44.1808" lon="6.63253">
        <ele>1323.9</ele>
        <time>2013-09-03T14:30:57Z</time>
      </trkpt>
      <trkpt lat="44.18109" lon="6.63243">
        <ele>1325.8</ele>
        <time>2013-09-03T14:31:12Z</time>
      </trkpt>
      <trkpt lat="44.18136" lon="6.63244">
        <ele>1328.2</ele>
        <time>2013-09-03T14:31:28Z</time>
      </trkpt>
      <trkpt lat="44.18157" lon="6.63248">
        <ele>1328.7</ele>
        <time>2013-09-03T14:31:42Z</time>
      </trkpt>
      <trkpt lat="44.18157" lon="6.63251">
        <ele>1328.7</ele>
        <time>2013-09-03T14:31:44Z</time>
      </trkpt>
      <trkpt lat="44.18155" lon="6.63252">
        <ele>1330.1</ele>
        <time>2013-09-03T14:31:45Z</time>
      </trkpt>
      <trkpt lat="44.18153" lon="6.63252">
        <ele>1330.1</ele>
        <time>2013-09-03T14:31:46Z</time>
      </trkpt>
      <trkpt lat="44.18152" lon="6.63252">
        <ele>1330.1</ele>
        <time>2013-09-03T14:31:47Z</time>
      </trkpt>
      <trkpt lat="44.1815" lon="6.63252">
        <ele>1330.6</ele>
        <time>2013-09-03T14:31:48Z</time>
      </trkpt>
      <trkpt lat="44.18149" lon="6.63252">
        <ele>1330.1</ele>
        <time>2013-09-03T14:31:49Z</time>
      </trkpt>
      <trkpt lat="44.18147" lon="6.63252">
        <ele>1330.1</ele>
        <time>2013-09-03T14:31:50Z</time>
      </trkpt>
      <trkpt lat="44.18128" lon="6.63254">
        <ele>1331.6</ele>
        <time>2013-09-03T14:32:04Z</time>
      </trkpt>
      <trkpt lat="44.18114" lon="6.63258">
        <ele>1332.5</ele>
        <time>2013-09-03T14:32:12Z</time>
      </trkpt>
      <trkpt lat="44.18113" lon="6.6326">
        <ele>1333</ele>
        <time>2013-09-03T14:32:13Z</time>
      </trkpt>
      <trkpt lat="44.18114" lon="6.63262">
        <ele>1333</ele>
        <time>2013-09-03T14:32:14Z</time>
      </trkpt>
      <trkpt lat="44.18115" lon="6.63264">
        <ele>1333</ele>
        <time>2013-09-03T14:32:15Z</time>
      </trkpt>
      <trkpt lat="44.18117" lon="6.63265">
        <ele>1333.5</ele>
        <time>2013-09-03T14:32:16Z</time>
      </trkpt>
      <trkpt lat="44.18119" lon="6.63265">
        <ele>1332.5</ele>
        <time>2013-09-03T14:32:17Z</time>
      </trkpt>
      <trkpt lat="44.18148" lon="6.63266">
        <ele>1335.4</ele>
        <time>2013-09-03T14:32:34Z</time>
      </trkpt>
      <trkpt lat="44.18172" lon="6.63269">
        <ele>1337.3</ele>
        <time>2013-09-03T14:32:49Z</time>
      </trkpt>
      <trkpt lat="44.18196" lon="6.63276">
        <ele>1340.2</ele>
        <time>2013-09-03T14:33:03Z</time>
      </trkpt>
      <trkpt lat="44.18215" lon="6.63276">
        <ele>1342.6</ele>
        <time>2013-09-03T14:33:16Z</time>
      </trkpt>
      <trkpt lat="44.18216" lon="6.63277">
        <ele>1342.6</ele>
        <time>2013-09-03T14:33:17Z</time>
      </trkpt>
      <trkpt lat="44.18238" lon="6.63288">
        <ele>1345</ele>
        <time>2013-09-03T14:33:30Z</time>
      </trkpt>
      <trkpt lat="44.18264" lon="6.63298">
        <ele>1347.4</ele>
        <time>2013-09-03T14:33:45Z</time>
      </trkpt>
      <trkpt lat="44.18288" lon="6.633">
        <ele>1350.3</ele>
        <time>2013-09-03T14:34:00Z</time>
      </trkpt>
      <trkpt lat="44.18289" lon="6.63299">
        <ele>1349.8</ele>
        <time>2013-09-03T14:34:01Z</time>
      </trkpt>
      <trkpt lat="44.1829" lon="6.63299">
        <ele>1349.4</ele>
        <time>2013-09-03T14:34:02Z</time>
      </trkpt>
      <trkpt lat="44.18292" lon="6.63299">
        <ele>1350.3</ele>
        <time>2013-09-03T14:34:03Z</time>
      </trkpt>
      <trkpt lat="44.18326" lon="6.63302">
        <ele>1353.2</ele>
        <time>2013-09-03T14:34:21Z</time>
      </trkpt>
      <trkpt lat="44.18361" lon="6.63309">
        <ele>1356.1</ele>
        <time>2013-09-03T14:34:40Z</time>
      </trkpt>
      <trkpt lat="44.18366" lon="6.63311">
        <ele>1356.6</ele>
        <time>2013-09-03T14:34:43Z</time>
      </trkpt>
      <trkpt lat="44.18368" lon="6.63312">
        <ele>1357</ele>
        <time>2013-09-03T14:34:44Z</time>
      </trkpt>
      <trkpt lat="44.18395" lon="6.63335">
        <ele>1359</ele>
        <time>2013-09-03T14:35:01Z</time>
      </trkpt>
      <trkpt lat="44.18421" lon="6.63352">
        <ele>1360.9</ele>
        <time>2013-09-03T14:35:15Z</time>
      </trkpt>
      <trkpt lat="44.18455" lon="6.6335">
        <ele>1362.3</ele>
        <time>2013-09-03T14:35:33Z</time>
      </trkpt>
      <trkpt lat="44.18483" lon="6.63348">
        <ele>1362.8</ele>
        <time>2013-09-03T14:35:47Z</time>
      </trkpt>
      <trkpt lat="44.18511" lon="6.63349">
        <ele>1365.7</ele>
        <time>2013-09-03T14:36:01Z</time>
      </trkpt>
      <trkpt lat="44.18532" lon="6.63358">
        <ele>1368.1</ele>
        <time>2013-09-03T14:36:15Z</time>
      </trkpt>
      <trkpt lat="44.18546" lon="6.63365">
        <ele>1370</ele>
        <time>2013-09-03T14:36:25Z</time>
      </trkpt>
      <trkpt lat="44.18573" lon="6.6338">
        <ele>1372.4</ele>
        <time>2013-09-03T14:36:42Z</time>
      </trkpt>
      <trkpt lat="44.18584" lon="6.63386">
        <ele>1374.3</ele>
        <time>2013-09-03T14:36:49Z</time>
      </trkpt>
      <trkpt lat="44.18585" lon="6.63386">
        <ele>1374.3</ele>
        <time>2013-09-03T14:36:50Z</time>
      </trkpt>
      <trkpt lat="44.18587" lon="6.63387">
        <ele>1373.9</ele>
        <time>2013-09-03T14:36:51Z</time>
      </trkpt>
      <trkpt lat="44.18588" lon="6.63389">
        <ele>1374.3</ele>
        <time>2013-09-03T14:36:52Z</time>
      </trkpt>
      <trkpt lat="44.18588" lon="6.63391">
        <ele>1374.3</ele>
        <time>2013-09-03T14:36:53Z</time>
      </trkpt>
      <trkpt lat="44.18587" lon="6.63392">
        <ele>1374.8</ele>
        <time>2013-09-03T14:36:54Z</time>
      </trkpt>
      <trkpt lat="44.18585" lon="6.63394">
        <ele>1375.3</ele>
        <time>2013-09-03T14:36:55Z</time>
      </trkpt>
      <trkpt lat="44.18584" lon="6.63394">
        <ele>1374.8</ele>
        <time>2013-09-03T14:36:56Z</time>
      </trkpt>
      <trkpt lat="44.18582" lon="6.63394">
        <ele>1375.8</ele>
        <time>2013-09-03T14:36:57Z</time>
      </trkpt>
      <trkpt lat="44.18581" lon="6.63394">
        <ele>1375.8</ele>
        <time>2013-09-03T14:36:58Z</time>
      </trkpt>
      <trkpt lat="44.18579" lon="6.63393">
        <ele>1375.8</ele>
        <time>2013-09-03T14:36:59Z</time>
      </trkpt>
      <trkpt lat="44.18577" lon="6.63393">
        <ele>1375.3</ele>
        <time>2013-09-03T14:37:00Z</time>
      </trkpt>
      <trkpt lat="44.18554" lon="6.63388">
        <ele>1377.7</ele>
        <time>2013-09-03T14:37:15Z</time>
      </trkpt>
      <trkpt lat="44.1853" lon="6.63384">
        <ele>1380.1</ele>
        <time>2013-09-03T14:37:29Z</time>
      </trkpt>
      <trkpt lat="44.18513" lon="6.63388">
        <ele>1381.1</ele>
        <time>2013-09-03T14:37:39Z</time>
      </trkpt>
      <trkpt lat="44.18511" lon="6.63387">
        <ele>1381.1</ele>
        <time>2013-09-03T14:37:40Z</time>
      </trkpt>
      <trkpt lat="44.1851" lon="6.63387">
        <ele>1381.6</ele>
        <time>2013-09-03T14:37:41Z</time>
      </trkpt>
      <trkpt lat="44.18508" lon="6.63387">
        <ele>1381.6</ele>
        <time>2013-09-03T14:37:42Z</time>
      </trkpt>
      <trkpt lat="44.18506" lon="6.63386">
        <ele>1381.6</ele>
        <time>2013-09-03T14:37:43Z</time>
      </trkpt>
      <trkpt lat="44.18504" lon="6.63386">
        <ele>1382</ele>
        <time>2013-09-03T14:37:44Z</time>
      </trkpt>
      <trkpt lat="44.18503" lon="6.63386">
        <ele>1382</ele>
        <time>2013-09-03T14:37:45Z</time>
      </trkpt>
      <trkpt lat="44.18501" lon="6.63387">
        <ele>1382</ele>
        <time>2013-09-03T14:37:46Z</time>
      </trkpt>
      <trkpt lat="44.185" lon="6.63388">
        <ele>1382.5</ele>
        <time>2013-09-03T14:37:47Z</time>
      </trkpt>
      <trkpt lat="44.18498" lon="6.63389">
        <ele>1382.5</ele>
        <time>2013-09-03T14:37:48Z</time>
      </trkpt>
      <trkpt lat="44.18496" lon="6.6339">
        <ele>1383</ele>
        <time>2013-09-03T14:37:49Z</time>
      </trkpt>
      <trkpt lat="44.18495" lon="6.63391">
        <ele>1383</ele>
        <time>2013-09-03T14:37:50Z</time>
      </trkpt>
      <trkpt lat="44.18493" lon="6.63391">
        <ele>1383.5</ele>
        <time>2013-09-03T14:37:51Z</time>
      </trkpt>
      <trkpt lat="44.18471" lon="6.63403">
        <ele>1384.9</ele>
        <time>2013-09-03T14:38:05Z</time>
      </trkpt>
      <trkpt lat="44.1845" lon="6.63416">
        <ele>1386.4</ele>
        <time>2013-09-03T14:38:19Z</time>
      </trkpt>
      <trkpt lat="44.18448" lon="6.63417">
        <ele>1385.9</ele>
        <time>2013-09-03T14:38:20Z</time>
      </trkpt>
      <trkpt lat="44.18447" lon="6.63418">
        <ele>1386.8</ele>
        <time>2013-09-03T14:38:21Z</time>
      </trkpt>
      <trkpt lat="44.18445" lon="6.63419">
        <ele>1386.8</ele>
        <time>2013-09-03T14:38:22Z</time>
      </trkpt>
      <trkpt lat="44.18444" lon="6.6342">
        <ele>1387.3</ele>
        <time>2013-09-03T14:38:23Z</time>
      </trkpt>
      <trkpt lat="44.18442" lon="6.63421">
        <ele>1386.8</ele>
        <time>2013-09-03T14:38:24Z</time>
      </trkpt>
      <trkpt lat="44.1842" lon="6.63435">
        <ele>1387.8</ele>
        <time>2013-09-03T14:38:37Z</time>
      </trkpt>
      <trkpt lat="44.18393" lon="6.63449">
        <ele>1390.7</ele>
        <time>2013-09-03T14:38:53Z</time>
      </trkpt>
      <trkpt lat="44.18388" lon="6.6345">
        <ele>1391.2</ele>
        <time>2013-09-03T14:38:56Z</time>
      </trkpt>
      <trkpt lat="44.18387" lon="6.63451">
        <ele>1391.2</ele>
        <time>2013-09-03T14:38:57Z</time>
      </trkpt>
      <trkpt lat="44.18385" lon="6.63451">
        <ele>1391.2</ele>
        <time>2013-09-03T14:38:58Z</time>
      </trkpt>
      <trkpt lat="44.18384" lon="6.63452">
        <ele>1391.2</ele>
        <time>2013-09-03T14:38:59Z</time>
      </trkpt>
      <trkpt lat="44.18383" lon="6.63452">
        <ele>1392.1</ele>
        <time>2013-09-03T14:39:00Z</time>
      </trkpt>
      <trkpt lat="44.18381" lon="6.63452">
        <ele>1391.2</ele>
        <time>2013-09-03T14:39:01Z</time>
      </trkpt>
      <trkpt lat="44.18357" lon="6.63451">
        <ele>1394.1</ele>
        <time>2013-09-03T14:39:15Z</time>
      </trkpt>
      <trkpt lat="44.18351" lon="6.6345">
        <ele>1394.5</ele>
        <time>2013-09-03T14:39:19Z</time>
      </trkpt>
      <trkpt lat="44.18349" lon="6.6345">
        <ele>1394.5</ele>
        <time>2013-09-03T14:39:20Z</time>
      </trkpt>
      <trkpt lat="44.18324" lon="6.63441">
        <ele>1396.9</ele>
        <time>2013-09-03T14:39:36Z</time>
      </trkpt>
      <trkpt lat="44.18297" lon="6.63435">
        <ele>1398.9</ele>
        <time>2013-09-03T14:39:52Z</time>
      </trkpt>
      <trkpt lat="44.18271" lon="6.63422">
        <ele>1401.3</ele>
        <time>2013-09-03T14:40:09Z</time>
      </trkpt>
      <trkpt lat="44.18245" lon="6.63416">
        <ele>1404.1</ele>
        <time>2013-09-03T14:40:23Z</time>
      </trkpt>
      <trkpt lat="44.18218" lon="6.63409">
        <ele>1405.6</ele>
        <time>2013-09-03T14:40:38Z</time>
      </trkpt>
      <trkpt lat="44.18215" lon="6.63409">
        <ele>1405.6</ele>
        <time>2013-09-03T14:40:40Z</time>
      </trkpt>
      <trkpt lat="44.18213" lon="6.6341">
        <ele>1406.1</ele>
        <time>2013-09-03T14:40:41Z</time>
      </trkpt>
      <trkpt lat="44.18189" lon="6.63415">
        <ele>1408</ele>
        <time>2013-09-03T14:40:54Z</time>
      </trkpt>
      <trkpt lat="44.18165" lon="6.63427">
        <ele>1410.4</ele>
        <time>2013-09-03T14:41:10Z</time>
      </trkpt>
      <trkpt lat="44.18144" lon="6.63443">
        <ele>1412.3</ele>
        <time>2013-09-03T14:41:25Z</time>
      </trkpt>
      <trkpt lat="44.18139" lon="6.63452">
        <ele>1413.3</ele>
        <time>2013-09-03T14:41:31Z</time>
      </trkpt>
      <trkpt lat="44.1814" lon="6.63455">
        <ele>1413.3</ele>
        <time>2013-09-03T14:41:33Z</time>
      </trkpt>
      <trkpt lat="44.18141" lon="6.63456">
        <ele>1414.7</ele>
        <time>2013-09-03T14:41:34Z</time>
      </trkpt>
      <trkpt lat="44.18142" lon="6.63457">
        <ele>1413.3</ele>
        <time>2013-09-03T14:41:35Z</time>
      </trkpt>
      <trkpt lat="44.18144" lon="6.63457">
        <ele>1414.7</ele>
        <time>2013-09-03T14:41:36Z</time>
      </trkpt>
      <trkpt lat="44.18145" lon="6.63456">
        <ele>1414.2</ele>
        <time>2013-09-03T14:41:37Z</time>
      </trkpt>
      <trkpt lat="44.18147" lon="6.63454">
        <ele>1414.2</ele>
        <time>2013-09-03T14:41:38Z</time>
      </trkpt>
      <trkpt lat="44.18167" lon="6.63446">
        <ele>1417.1</ele>
        <time>2013-09-03T14:41:50Z</time>
      </trkpt>
      <trkpt lat="44.18169" lon="6.63446">
        <ele>1416.6</ele>
        <time>2013-09-03T14:41:51Z</time>
      </trkpt>
      <trkpt lat="44.18182" lon="6.63448">
        <ele>1418.1</ele>
        <time>2013-09-03T14:42:01Z</time>
      </trkpt>
      <trkpt lat="44.18197" lon="6.63455">
        <ele>1419</ele>
        <time>2013-09-03T14:42:10Z</time>
      </trkpt>
      <trkpt lat="44.18213" lon="6.63474">
        <ele>1421</ele>
        <time>2013-09-03T14:42:23Z</time>
      </trkpt>
      <trkpt lat="44.18218" lon="6.63479">
        <ele>1420.5</ele>
        <time>2013-09-03T14:42:27Z</time>
      </trkpt>
      <trkpt lat="44.18232" lon="6.63488">
        <ele>1423.9</ele>
        <time>2013-09-03T14:42:36Z</time>
      </trkpt>
      <trkpt lat="44.18234" lon="6.63488">
        <ele>1423.9</ele>
        <time>2013-09-03T14:42:37Z</time>
      </trkpt>
      <trkpt lat="44.18235" lon="6.63488">
        <ele>1424.3</ele>
        <time>2013-09-03T14:42:38Z</time>
      </trkpt>
      <trkpt lat="44.18256" lon="6.63489">
        <ele>1426.3</ele>
        <time>2013-09-03T14:42:50Z</time>
      </trkpt>
      <trkpt lat="44.18262" lon="6.63489">
        <ele>1426.7</ele>
        <time>2013-09-03T14:42:54Z</time>
      </trkpt>
      <trkpt lat="44.18288" lon="6.63498">
        <ele>1429.1</ele>
        <time>2013-09-03T14:43:10Z</time>
      </trkpt>
      <trkpt lat="44.18304" lon="6.63508">
        <ele>1430.6</ele>
        <time>2013-09-03T14:43:20Z</time>
      </trkpt>
      <trkpt lat="44.18318" lon="6.63525">
        <ele>1432.5</ele>
        <time>2013-09-03T14:43:33Z</time>
      </trkpt>
      <trkpt lat="44.1833" lon="6.63543">
        <ele>1433.9</ele>
        <time>2013-09-03T14:43:44Z</time>
      </trkpt>
      <trkpt lat="44.18352" lon="6.63558">
        <ele>1435.9</ele>
        <time>2013-09-03T14:43:59Z</time>
      </trkpt>
      <trkpt lat="44.18378" lon="6.63568">
        <ele>1437.8</ele>
        <time>2013-09-03T14:44:15Z</time>
      </trkpt>
      <trkpt lat="44.18397" lon="6.63579">
        <ele>1440.2</ele>
        <time>2013-09-03T14:44:28Z</time>
      </trkpt>
      <trkpt lat="44.18412" lon="6.63586">
        <ele>1441.6</ele>
        <time>2013-09-03T14:44:40Z</time>
      </trkpt>
      <trkpt lat="44.18436" lon="6.63596">
        <ele>1444.5</ele>
        <time>2013-09-03T14:44:56Z</time>
      </trkpt>
      <trkpt lat="44.18463" lon="6.63602">
        <ele>1446.9</ele>
        <time>2013-09-03T14:45:13Z</time>
      </trkpt>
      <trkpt lat="44.18484" lon="6.63614">
        <ele>1448.4</ele>
        <time>2013-09-03T14:45:28Z</time>
      </trkpt>
      <trkpt lat="44.18509" lon="6.63624">
        <ele>1451.7</ele>
        <time>2013-09-03T14:45:44Z</time>
      </trkpt>
      <trkpt lat="44.18522" lon="6.63637">
        <ele>1454.1</ele>
        <time>2013-09-03T14:45:56Z</time>
      </trkpt>
      <trkpt lat="44.18533" lon="6.63663">
        <ele>1455.1</ele>
        <time>2013-09-03T14:46:09Z</time>
      </trkpt>
      <trkpt lat="44.18533" lon="6.63665">
        <ele>1455.1</ele>
        <time>2013-09-03T14:46:10Z</time>
      </trkpt>
      <trkpt lat="44.18532" lon="6.63666">
        <ele>1455.6</ele>
        <time>2013-09-03T14:46:11Z</time>
      </trkpt>
      <trkpt lat="44.1853" lon="6.63666">
        <ele>1455.1</ele>
        <time>2013-09-03T14:46:12Z</time>
      </trkpt>
      <trkpt lat="44.18529" lon="6.63666">
        <ele>1455.6</ele>
        <time>2013-09-03T14:46:13Z</time>
      </trkpt>
      <trkpt lat="44.18527" lon="6.63665">
        <ele>1456.1</ele>
        <time>2013-09-03T14:46:14Z</time>
      </trkpt>
      <trkpt lat="44.18526" lon="6.63664">
        <ele>1456.5</ele>
        <time>2013-09-03T14:46:15Z</time>
      </trkpt>
      <trkpt lat="44.185" lon="6.63655">
        <ele>1458.5</ele>
        <time>2013-09-03T14:46:32Z</time>
      </trkpt>
      <trkpt lat="44.18475" lon="6.63652">
        <ele>1460.9</ele>
        <time>2013-09-03T14:46:48Z</time>
      </trkpt>
      <trkpt lat="44.18453" lon="6.63655">
        <ele>1463.3</ele>
        <time>2013-09-03T14:47:03Z</time>
      </trkpt>
      <trkpt lat="44.18429" lon="6.63663">
        <ele>1466.2</ele>
        <time>2013-09-03T14:47:19Z</time>
      </trkpt>
      <trkpt lat="44.18402" lon="6.63656">
        <ele>1467.6</ele>
        <time>2013-09-03T14:47:36Z</time>
      </trkpt>
      <trkpt lat="44.18381" lon="6.63649">
        <ele>1469.5</ele>
        <time>2013-09-03T14:47:50Z</time>
      </trkpt>
      <trkpt lat="44.18364" lon="6.63646">
        <ele>1471.4</ele>
        <time>2013-09-03T14:48:01Z</time>
      </trkpt>
      <trkpt lat="44.18362" lon="6.63646">
        <ele>1471</ele>
        <time>2013-09-03T14:48:02Z</time>
      </trkpt>
      <trkpt lat="44.18361" lon="6.63647">
        <ele>1471.4</ele>
        <time>2013-09-03T14:48:03Z</time>
      </trkpt>
      <trkpt lat="44.18359" lon="6.63647">
        <ele>1471.4</ele>
        <time>2013-09-03T14:48:04Z</time>
      </trkpt>
      <trkpt lat="44.18358" lon="6.63648">
        <ele>1471.9</ele>
        <time>2013-09-03T14:48:05Z</time>
      </trkpt>
      <trkpt lat="44.18357" lon="6.63648">
        <ele>1471.4</ele>
        <time>2013-09-03T14:48:06Z</time>
      </trkpt>
      <trkpt lat="44.18355" lon="6.63649">
        <ele>1471.4</ele>
        <time>2013-09-03T14:48:07Z</time>
      </trkpt>
      <trkpt lat="44.18353" lon="6.63649">
        <ele>1472.9</ele>
        <time>2013-09-03T14:48:08Z</time>
      </trkpt>
      <trkpt lat="44.18352" lon="6.63649">
        <ele>1472.4</ele>
        <time>2013-09-03T14:48:09Z</time>
      </trkpt>
      <trkpt lat="44.1835" lon="6.63649">
        <ele>1472.4</ele>
        <time>2013-09-03T14:48:10Z</time>
      </trkpt>
      <trkpt lat="44.18335" lon="6.63648">
        <ele>1474.3</ele>
        <time>2013-09-03T14:48:18Z</time>
      </trkpt>
      <trkpt lat="44.18314" lon="6.63648">
        <ele>1475.8</ele>
        <time>2013-09-03T14:48:31Z</time>
      </trkpt>
      <trkpt lat="44.18303" lon="6.63653">
        <ele>1476.7</ele>
        <time>2013-09-03T14:48:38Z</time>
      </trkpt>
      <trkpt lat="44.18276" lon="6.63662">
        <ele>1478.7</ele>
        <time>2013-09-03T14:48:54Z</time>
      </trkpt>
      <trkpt lat="44.18262" lon="6.63668">
        <ele>1480.6</ele>
        <time>2013-09-03T14:49:04Z</time>
      </trkpt>
      <trkpt lat="44.1826" lon="6.63668">
        <ele>1481.1</ele>
        <time>2013-09-03T14:49:05Z</time>
      </trkpt>
      <trkpt lat="44.18258" lon="6.63668">
        <ele>1480.6</ele>
        <time>2013-09-03T14:49:06Z</time>
      </trkpt>
      <trkpt lat="44.18257" lon="6.63668">
        <ele>1481.1</ele>
        <time>2013-09-03T14:49:07Z</time>
      </trkpt>
      <trkpt lat="44.18255" lon="6.63668">
        <ele>1481.5</ele>
        <time>2013-09-03T14:49:08Z</time>
      </trkpt>
      <trkpt lat="44.18254" lon="6.63669">
        <ele>1481.1</ele>
        <time>2013-09-03T14:49:09Z</time>
      </trkpt>
      <trkpt lat="44.18232" lon="6.6368">
        <ele>1482.5</ele>
        <time>2013-09-03T14:49:21Z</time>
      </trkpt>
      <trkpt lat="44.18212" lon="6.63679">
        <ele>1483.9</ele>
        <time>2013-09-03T14:49:32Z</time>
      </trkpt>
      <trkpt lat="44.18212" lon="6.6368">
        <ele>1484.4</ele>
        <time>2013-09-03T14:49:33Z</time>
      </trkpt>
      <trkpt lat="44.18213" lon="6.63682">
        <ele>1485.4</ele>
        <time>2013-09-03T14:49:34Z</time>
      </trkpt>
      <trkpt lat="44.18214" lon="6.63683">
        <ele>1484.9</ele>
        <time>2013-09-03T14:49:35Z</time>
      </trkpt>
      <trkpt lat="44.18216" lon="6.63684">
        <ele>1485.4</ele>
        <time>2013-09-03T14:49:36Z</time>
      </trkpt>
      <trkpt lat="44.18239" lon="6.63694">
        <ele>1487.3</ele>
        <time>2013-09-03T14:49:50Z</time>
      </trkpt>
      <trkpt lat="44.18255" lon="6.63696">
        <ele>1489.7</ele>
        <time>2013-09-03T14:50:04Z</time>
      </trkpt>
      <trkpt lat="44.18269" lon="6.63706">
        <ele>1490.7</ele>
        <time>2013-09-03T14:50:19Z</time>
      </trkpt>
      <trkpt lat="44.18273" lon="6.63705">
        <ele>1491.6</ele>
        <time>2013-09-03T14:50:23Z</time>
      </trkpt>
      <trkpt lat="44.18291" lon="6.63708">
        <ele>1493.1</ele>
        <time>2013-09-03T14:50:40Z</time>
      </trkpt>
      <trkpt lat="44.18312" lon="6.63715">
        <ele>1494.5</ele>
        <time>2013-09-03T14:50:57Z</time>
      </trkpt>
      <trkpt lat="44.18325" lon="6.63717">
        <ele>1496.4</ele>
        <time>2013-09-03T14:51:11Z</time>
      </trkpt>
      <trkpt lat="44.18333" lon="6.63715">
        <ele>1497.4</ele>
        <time>2013-09-03T14:51:25Z</time>
      </trkpt>
      <trkpt lat="44.18346" lon="6.63718">
        <ele>1498.4</ele>
        <time>2013-09-03T14:51:39Z</time>
      </trkpt>
      <trkpt lat="44.18355" lon="6.63724">
        <ele>1499.3</ele>
        <time>2013-09-03T14:51:53Z</time>
      </trkpt>
      <trkpt lat="44.18362" lon="6.63727">
        <ele>1499.8</ele>
        <time>2013-09-03T14:52:01Z</time>
      </trkpt>
      <trkpt lat="44.18367" lon="6.63733">
        <ele>1500.3</ele>
        <time>2013-09-03T14:52:15Z</time>
      </trkpt>
      <trkpt lat="44.18376" lon="6.63742">
        <ele>1501.7</ele>
        <time>2013-09-03T14:52:29Z</time>
      </trkpt>
      <trkpt lat="44.18386" lon="6.63754">
        <ele>1503.2</ele>
        <time>2013-09-03T14:52:44Z</time>
      </trkpt>
      <trkpt lat="44.18377" lon="6.63754">
        <ele>1504.1</ele>
        <time>2013-09-03T14:52:58Z</time>
      </trkpt>
      <trkpt lat="44.18365" lon="6.63748">
        <ele>1505.6</ele>
        <time>2013-09-03T14:53:14Z</time>
      </trkpt>
      <trkpt lat="44.18354" lon="6.6375">
        <ele>1507.5</ele>
        <time>2013-09-03T14:53:30Z</time>
      </trkpt>
      <trkpt lat="44.18352" lon="6.63751">
        <ele>1506.5</ele>
        <time>2013-09-03T14:53:43Z</time>
      </trkpt>
      <trkpt lat="44.18337" lon="6.63756">
        <ele>1508.5</ele>
        <time>2013-09-03T14:53:56Z</time>
      </trkpt>
      <trkpt lat="44.18335" lon="6.63758">
        <ele>1508.5</ele>
        <time>2013-09-03T14:53:58Z</time>
      </trkpt>
      <trkpt lat="44.18334" lon="6.6376">
        <ele>1508</ele>
        <time>2013-09-03T14:54:07Z</time>
      </trkpt>
      <trkpt lat="44.18331" lon="6.63756">
        <ele>1508.5</ele>
        <time>2013-09-03T14:54:29Z</time>
      </trkpt>
      <trkpt lat="44.1833" lon="6.63755">
        <ele>1508.9</ele>
        <time>2013-09-03T14:54:56Z</time>
      </trkpt>
      <trkpt lat="44.18324" lon="6.6376">
        <ele>1509.9</ele>
        <time>2013-09-03T14:55:14Z</time>
      </trkpt>
      <trkpt lat="44.18322" lon="6.63761">
        <ele>1510.4</ele>
        <time>2013-09-03T14:55:15Z</time>
      </trkpt>
      <trkpt lat="44.18321" lon="6.63762">
        <ele>1510.9</ele>
        <time>2013-09-03T14:55:16Z</time>
      </trkpt>
      <trkpt lat="44.18316" lon="6.63765">
        <ele>1511.3</ele>
        <time>2013-09-03T14:55:21Z</time>
      </trkpt>
      <trkpt lat="44.18296" lon="6.63771">
        <ele>1513.3</ele>
        <time>2013-09-03T14:55:37Z</time>
      </trkpt>
      <trkpt lat="44.18275" lon="6.63775">
        <ele>1515.2</ele>
        <time>2013-09-03T14:55:51Z</time>
      </trkpt>
      <trkpt lat="44.18252" lon="6.63776">
        <ele>1517.1</ele>
        <time>2013-09-03T14:56:06Z</time>
      </trkpt>
      <trkpt lat="44.18234" lon="6.6378">
        <ele>1518.5</ele>
        <time>2013-09-03T14:56:18Z</time>
      </trkpt>
      <trkpt lat="44.18215" lon="6.63771">
        <ele>1520.9</ele>
        <time>2013-09-03T14:56:33Z</time>
      </trkpt>
      <trkpt lat="44.18202" lon="6.6375">
        <ele>1522.4</ele>
        <time>2013-09-03T14:56:46Z</time>
      </trkpt>
      <trkpt lat="44.18174" lon="6.63732">
        <ele>1525.8</ele>
        <time>2013-09-03T14:57:03Z</time>
      </trkpt>
      <trkpt lat="44.18143" lon="6.63725">
        <ele>1528.2</ele>
        <time>2013-09-03T14:57:22Z</time>
      </trkpt>
      <trkpt lat="44.18129" lon="6.63718">
        <ele>1530.1</ele>
        <time>2013-09-03T14:57:31Z</time>
      </trkpt>
      <trkpt lat="44.18128" lon="6.63717">
        <ele>1529.6</ele>
        <time>2013-09-03T14:57:32Z</time>
      </trkpt>
      <trkpt lat="44.18127" lon="6.63715">
        <ele>1530.1</ele>
        <time>2013-09-03T14:57:33Z</time>
      </trkpt>
      <trkpt lat="44.18118" lon="6.63702">
        <ele>1529.1</ele>
        <time>2013-09-03T14:57:46Z</time>
      </trkpt>
      <trkpt lat="44.18118" lon="6.63698">
        <ele>1529.6</ele>
        <time>2013-09-03T14:58:12Z</time>
      </trkpt>
      <trkpt lat="44.18115" lon="6.63692">
        <ele>1530.1</ele>
        <time>2013-09-03T14:58:45Z</time>
      </trkpt>
      <trkpt lat="44.18117" lon="6.6369">
        <ele>1531</ele>
        <time>2013-09-03T14:58:52Z</time>
      </trkpt>
      <trkpt lat="44.18118" lon="6.63691">
        <ele>1528.2</ele>
        <time>2013-09-03T14:58:54Z</time>
      </trkpt>
      <trkpt lat="44.18119" lon="6.63692">
        <ele>1530.1</ele>
        <time>2013-09-03T14:58:56Z</time>
      </trkpt>
      <trkpt lat="44.18114" lon="6.63698">
        <ele>1528.6</ele>
        <time>2013-09-03T14:59:34Z</time>
      </trkpt>
      <trkpt lat="44.18113" lon="6.637">
        <ele>1529.6</ele>
        <time>2013-09-03T15:00:07Z</time>
      </trkpt>
      <trkpt lat="44.18114" lon="6.637">
        <ele>1529.6</ele>
        <time>2013-09-03T15:00:32Z</time>
      </trkpt>
      <trkpt lat="44.18114" lon="6.63706">
        <ele>1529.6</ele>
        <time>2013-09-03T15:00:41Z</time>
      </trkpt>
      <trkpt lat="44.18113" lon="6.63707">
        <ele>1529.6</ele>
        <time>2013-09-03T15:00:42Z</time>
      </trkpt>
      <trkpt lat="44.18112" lon="6.63709">
        <ele>1529.1</ele>
        <time>2013-09-03T15:00:43Z</time>
      </trkpt>
      <trkpt lat="44.18111" lon="6.6371">
        <ele>1529.6</ele>
        <time>2013-09-03T15:00:44Z</time>
      </trkpt>
      <trkpt lat="44.1811" lon="6.63711">
        <ele>1529.6</ele>
        <time>2013-09-03T15:00:45Z</time>
      </trkpt>
      <trkpt lat="44.18108" lon="6.63711">
        <ele>1530.1</ele>
        <time>2013-09-03T15:00:46Z</time>
      </trkpt>
      <trkpt lat="44.18106" lon="6.63711">
        <ele>1530.1</ele>
        <time>2013-09-03T15:00:47Z</time>
      </trkpt>
      <trkpt lat="44.18105" lon="6.6371">
        <ele>1530.1</ele>
        <time>2013-09-03T15:00:48Z</time>
      </trkpt>
      <trkpt lat="44.18102" lon="6.6371">
        <ele>1530.1</ele>
        <time>2013-09-03T15:00:49Z</time>
      </trkpt>
      <trkpt lat="44.18077" lon="6.63702">
        <ele>1532</ele>
        <time>2013-09-03T15:01:05Z</time>
      </trkpt>
      <trkpt lat="44.18052" lon="6.63692">
        <ele>1533.9</ele>
        <time>2013-09-03T15:01:22Z</time>
      </trkpt>
      <trkpt lat="44.18035" lon="6.63697">
        <ele>1536.8</ele>
        <time>2013-09-03T15:01:35Z</time>
      </trkpt>
      <trkpt lat="44.18034" lon="6.63699">
        <ele>1537.3</ele>
        <time>2013-09-03T15:01:36Z</time>
      </trkpt>
      <trkpt lat="44.18034" lon="6.63722">
        <ele>1539.2</ele>
        <time>2013-09-03T15:01:49Z</time>
      </trkpt>
      <trkpt lat="44.18034" lon="6.63724">
        <ele>1539.2</ele>
        <time>2013-09-03T15:01:50Z</time>
      </trkpt>
      <trkpt lat="44.18034" lon="6.63725">
        <ele>1539.2</ele>
        <time>2013-09-03T15:01:51Z</time>
      </trkpt>
      <trkpt lat="44.18034" lon="6.63727">
        <ele>1539.7</ele>
        <time>2013-09-03T15:01:52Z</time>
      </trkpt>
      <trkpt lat="44.18034" lon="6.63729">
        <ele>1539.7</ele>
        <time>2013-09-03T15:01:53Z</time>
      </trkpt>
      <trkpt lat="44.18039" lon="6.63757">
        <ele>1541.1</ele>
        <time>2013-09-03T15:02:08Z</time>
      </trkpt>
      <trkpt lat="44.18048" lon="6.63791">
        <ele>1543.5</ele>
        <time>2013-09-03T15:02:22Z</time>
      </trkpt>
      <trkpt lat="44.18056" lon="6.63822">
        <ele>1545.5</ele>
        <time>2013-09-03T15:02:37Z</time>
      </trkpt>
      <trkpt lat="44.18063" lon="6.63842">
        <ele>1546.4</ele>
        <time>2013-09-03T15:02:49Z</time>
      </trkpt>
      <trkpt lat="44.18064" lon="6.63843">
        <ele>1546.9</ele>
        <time>2013-09-03T15:02:50Z</time>
      </trkpt>
      <trkpt lat="44.18065" lon="6.63844">
        <ele>1546.9</ele>
        <time>2013-09-03T15:02:51Z</time>
      </trkpt>
      <trkpt lat="44.18066" lon="6.63846">
        <ele>1546.9</ele>
        <time>2013-09-03T15:02:52Z</time>
      </trkpt>
      <trkpt lat="44.18071" lon="6.63852">
        <ele>1547.4</ele>
        <time>2013-09-03T15:02:56Z</time>
      </trkpt>
      <trkpt lat="44.18072" lon="6.63852">
        <ele>1547.9</ele>
        <time>2013-09-03T15:02:57Z</time>
      </trkpt>
      <trkpt lat="44.18087" lon="6.63863">
        <ele>1549.8</ele>
        <time>2013-09-03T15:03:11Z</time>
      </trkpt>
      <trkpt lat="44.18093" lon="6.63866">
        <ele>1550.7</ele>
        <time>2013-09-03T15:03:17Z</time>
      </trkpt>
      <trkpt lat="44.18095" lon="6.63866">
        <ele>1551.2</ele>
        <time>2013-09-03T15:03:18Z</time>
      </trkpt>
      <trkpt lat="44.18096" lon="6.63866">
        <ele>1551.2</ele>
        <time>2013-09-03T15:03:19Z</time>
      </trkpt>
      <trkpt lat="44.18119" lon="6.63877">
        <ele>1553.2</ele>
        <time>2013-09-03T15:03:33Z</time>
      </trkpt>
      <trkpt lat="44.1814" lon="6.63889">
        <ele>1556</ele>
        <time>2013-09-03T15:03:48Z</time>
      </trkpt>
      <trkpt lat="44.18155" lon="6.63905">
        <ele>1557.5</ele>
        <time>2013-09-03T15:04:00Z</time>
      </trkpt>
      <trkpt lat="44.18161" lon="6.63913">
        <ele>1558</ele>
        <time>2013-09-03T15:04:05Z</time>
      </trkpt>
      <trkpt lat="44.18164" lon="6.63919">
        <ele>1558.9</ele>
        <time>2013-09-03T15:04:08Z</time>
      </trkpt>
      <trkpt lat="44.18174" lon="6.63937">
        <ele>1559.9</ele>
        <time>2013-09-03T15:04:18Z</time>
      </trkpt>
      <trkpt lat="44.1818" lon="6.63949">
        <ele>1561.3</ele>
        <time>2013-09-03T15:04:25Z</time>
      </trkpt>
      <trkpt lat="44.18182" lon="6.63972">
        <ele>1561.8</ele>
        <time>2013-09-03T15:04:35Z</time>
      </trkpt>
      <trkpt lat="44.18179" lon="6.64003">
        <ele>1563.7</ele>
        <time>2013-09-03T15:04:50Z</time>
      </trkpt>
      <trkpt lat="44.1818" lon="6.64013">
        <ele>1564.7</ele>
        <time>2013-09-03T15:04:55Z</time>
      </trkpt>
      <trkpt lat="44.18178" lon="6.64023">
        <ele>1565.6</ele>
        <time>2013-09-03T15:05:00Z</time>
      </trkpt>
      <trkpt lat="44.18173" lon="6.64027">
        <ele>1565.6</ele>
        <time>2013-09-03T15:05:05Z</time>
      </trkpt>
      <trkpt lat="44.18172" lon="6.64027">
        <ele>1566.1</ele>
        <time>2013-09-03T15:05:06Z</time>
      </trkpt>
      <trkpt lat="44.18172" lon="6.64026">
        <ele>1566.6</ele>
        <time>2013-09-03T15:05:07Z</time>
      </trkpt>
      <trkpt lat="44.18173" lon="6.64024">
        <ele>1566.1</ele>
        <time>2013-09-03T15:05:08Z</time>
      </trkpt>
      <trkpt lat="44.18173" lon="6.64022">
        <ele>1566.6</ele>
        <time>2013-09-03T15:05:09Z</time>
      </trkpt>
      <trkpt lat="44.18174" lon="6.6402">
        <ele>1566.6</ele>
        <time>2013-09-03T15:05:10Z</time>
      </trkpt>
      <trkpt lat="44.18174" lon="6.64018">
        <ele>1567.1</ele>
        <time>2013-09-03T15:05:11Z</time>
      </trkpt>
      <trkpt lat="44.18167" lon="6.63989">
        <ele>1568.5</ele>
        <time>2013-09-03T15:05:24Z</time>
      </trkpt>
      <trkpt lat="44.18158" lon="6.63963">
        <ele>1571.4</ele>
        <time>2013-09-03T15:05:40Z</time>
      </trkpt>
      <trkpt lat="44.18155" lon="6.63959">
        <ele>1571.9</ele>
        <time>2013-09-03T15:05:43Z</time>
      </trkpt>
      <trkpt lat="44.18141" lon="6.63945">
        <ele>1573.3</ele>
        <time>2013-09-03T15:05:56Z</time>
      </trkpt>
      <trkpt lat="44.18117" lon="6.6393">
        <ele>1574.3</ele>
        <time>2013-09-03T15:06:11Z</time>
      </trkpt>
      <trkpt lat="44.181" lon="6.63922">
        <ele>1576.7</ele>
        <time>2013-09-03T15:06:23Z</time>
      </trkpt>
      <trkpt lat="44.18099" lon="6.63923">
        <ele>1577.2</ele>
        <time>2013-09-03T15:06:24Z</time>
      </trkpt>
      <trkpt lat="44.18097" lon="6.63926">
        <ele>1576.7</ele>
        <time>2013-09-03T15:06:27Z</time>
      </trkpt>
      <trkpt lat="44.18097" lon="6.63927">
        <ele>1577.2</ele>
        <time>2013-09-03T15:06:28Z</time>
      </trkpt>
      <trkpt lat="44.18098" lon="6.63928">
        <ele>1577.7</ele>
        <time>2013-09-03T15:06:29Z</time>
      </trkpt>
      <trkpt lat="44.18108" lon="6.63943">
        <ele>1578.6</ele>
        <time>2013-09-03T15:06:41Z</time>
      </trkpt>
      <trkpt lat="44.18109" lon="6.63947">
        <ele>1579.1</ele>
        <time>2013-09-03T15:06:43Z</time>
      </trkpt>
      <trkpt lat="44.18109" lon="6.63949">
        <ele>1579.6</ele>
        <time>2013-09-03T15:06:44Z</time>
      </trkpt>
      <trkpt lat="44.1811" lon="6.6395">
        <ele>1579.1</ele>
        <time>2013-09-03T15:06:45Z</time>
      </trkpt>
      <trkpt lat="44.1811" lon="6.63952">
        <ele>1579.1</ele>
        <time>2013-09-03T15:06:46Z</time>
      </trkpt>
      <trkpt lat="44.18111" lon="6.63954">
        <ele>1580.1</ele>
        <time>2013-09-03T15:06:47Z</time>
      </trkpt>
      <trkpt lat="44.18111" lon="6.63955">
        <ele>1580.1</ele>
        <time>2013-09-03T15:06:48Z</time>
      </trkpt>
      <trkpt lat="44.18112" lon="6.63957">
        <ele>1580.1</ele>
        <time>2013-09-03T15:06:49Z</time>
      </trkpt>
      <trkpt lat="44.18113" lon="6.63959">
        <ele>1580.5</ele>
        <time>2013-09-03T15:06:50Z</time>
      </trkpt>
      <trkpt lat="44.18114" lon="6.63961">
        <ele>1581</ele>
        <time>2013-09-03T15:06:51Z</time>
      </trkpt>
      <trkpt lat="44.18115" lon="6.63963">
        <ele>1580.5</ele>
        <time>2013-09-03T15:06:52Z</time>
      </trkpt>
      <trkpt lat="44.18117" lon="6.64005">
        <ele>1583.4</ele>
        <time>2013-09-03T15:07:11Z</time>
      </trkpt>
      <trkpt lat="44.18118" lon="6.64034">
        <ele>1585.4</ele>
        <time>2013-09-03T15:07:24Z</time>
      </trkpt>
      <trkpt lat="44.18125" lon="6.64056">
        <ele>1587.8</ele>
        <time>2013-09-03T15:07:36Z</time>
      </trkpt>
      <trkpt lat="44.18136" lon="6.64069">
        <ele>1588.2</ele>
        <time>2013-09-03T15:07:45Z</time>
      </trkpt>
      <trkpt lat="44.1815" lon="6.64093">
        <ele>1590.6</ele>
        <time>2013-09-03T15:07:58Z</time>
      </trkpt>
      <trkpt lat="44.18163" lon="6.64129">
        <ele>1592.1</ele>
        <time>2013-09-03T15:08:13Z</time>
      </trkpt>
      <trkpt lat="44.1817" lon="6.64147">
        <ele>1593</ele>
        <time>2013-09-03T15:08:22Z</time>
      </trkpt>
      <trkpt lat="44.18171" lon="6.6415">
        <ele>1594</ele>
        <time>2013-09-03T15:08:23Z</time>
      </trkpt>
      <trkpt lat="44.18172" lon="6.64152">
        <ele>1594</ele>
        <time>2013-09-03T15:08:24Z</time>
      </trkpt>
      <trkpt lat="44.18173" lon="6.64158">
        <ele>1594.5</ele>
        <time>2013-09-03T15:08:28Z</time>
      </trkpt>
      <trkpt lat="44.18174" lon="6.64163">
        <ele>1595</ele>
        <time>2013-09-03T15:08:31Z</time>
      </trkpt>
      <trkpt lat="44.1818" lon="6.64175">
        <ele>1595.9</ele>
        <time>2013-09-03T15:08:39Z</time>
      </trkpt>
      <trkpt lat="44.18181" lon="6.64176">
        <ele>1595.5</ele>
        <time>2013-09-03T15:08:40Z</time>
      </trkpt>
      <trkpt lat="44.18202" lon="6.64199">
        <ele>1598.8</ele>
        <time>2013-09-03T15:08:57Z</time>
      </trkpt>
      <trkpt lat="44.18221" lon="6.64212">
        <ele>1599.8</ele>
        <time>2013-09-03T15:09:10Z</time>
      </trkpt>
      <trkpt lat="44.18233" lon="6.64221">
        <ele>1601.2</ele>
        <time>2013-09-03T15:09:19Z</time>
      </trkpt>
      <trkpt lat="44.18235" lon="6.64222">
        <ele>1601.7</ele>
        <time>2013-09-03T15:09:20Z</time>
      </trkpt>
      <trkpt lat="44.18251" lon="6.64235">
        <ele>1604.1</ele>
        <time>2013-09-03T15:09:35Z</time>
      </trkpt>
      <trkpt lat="44.18261" lon="6.64251">
        <ele>1605.5</ele>
        <time>2013-09-03T15:09:47Z</time>
      </trkpt>
      <trkpt lat="44.18263" lon="6.64254">
        <ele>1605.5</ele>
        <time>2013-09-03T15:09:49Z</time>
      </trkpt>
      <trkpt lat="44.18264" lon="6.64255">
        <ele>1606</ele>
        <time>2013-09-03T15:09:50Z</time>
      </trkpt>
      <trkpt lat="44.18286" lon="6.64286">
        <ele>1607.9</ele>
        <time>2013-09-03T15:10:06Z</time>
      </trkpt>
      <trkpt lat="44.183" lon="6.643">
        <ele>1609.9</ele>
        <time>2013-09-03T15:10:19Z</time>
      </trkpt>
      <trkpt lat="44.18305" lon="6.64303">
        <ele>1610.4</ele>
        <time>2013-09-03T15:10:24Z</time>
      </trkpt>
      <trkpt lat="44.18307" lon="6.64303">
        <ele>1610.8</ele>
        <time>2013-09-03T15:10:25Z</time>
      </trkpt>
      <trkpt lat="44.18308" lon="6.64302">
        <ele>1611.3</ele>
        <time>2013-09-03T15:10:26Z</time>
      </trkpt>
      <trkpt lat="44.18333" lon="6.6429">
        <ele>1612.8</ele>
        <time>2013-09-03T15:10:42Z</time>
      </trkpt>
      <trkpt lat="44.18349" lon="6.6428">
        <ele>1614.7</ele>
        <time>2013-09-03T15:10:53Z</time>
      </trkpt>
      <trkpt lat="44.1835" lon="6.6428">
        <ele>1614.7</ele>
        <time>2013-09-03T15:10:54Z</time>
      </trkpt>
      <trkpt lat="44.18352" lon="6.6428">
        <ele>1614.7</ele>
        <time>2013-09-03T15:10:56Z</time>
      </trkpt>
      <trkpt lat="44.18354" lon="6.64279">
        <ele>1615.2</ele>
        <time>2013-09-03T15:10:57Z</time>
      </trkpt>
      <trkpt lat="44.18355" lon="6.64279">
        <ele>1614.7</ele>
        <time>2013-09-03T15:10:58Z</time>
      </trkpt>
      <trkpt lat="44.18357" lon="6.64278">
        <ele>1615.2</ele>
        <time>2013-09-03T15:10:59Z</time>
      </trkpt>
      <trkpt lat="44.18358" lon="6.64277">
        <ele>1615.2</ele>
        <time>2013-09-03T15:11:00Z</time>
      </trkpt>
      <trkpt lat="44.18373" lon="6.64272">
        <ele>1616.6</ele>
        <time>2013-09-03T15:11:11Z</time>
      </trkpt>
      <trkpt lat="44.18377" lon="6.64269">
        <ele>1617.1</ele>
        <time>2013-09-03T15:11:25Z</time>
      </trkpt>
      <trkpt lat="44.18391" lon="6.64267">
        <ele>1618.5</ele>
        <time>2013-09-03T15:11:43Z</time>
      </trkpt>
      <trkpt lat="44.18406" lon="6.64268">
        <ele>1620.4</ele>
        <time>2013-09-03T15:12:01Z</time>
      </trkpt>
      <trkpt lat="44.18415" lon="6.64269">
        <ele>1620.9</ele>
        <time>2013-09-03T15:12:16Z</time>
      </trkpt>
      <trkpt lat="44.1842" lon="6.6427">
        <ele>1621.9</ele>
        <time>2013-09-03T15:12:43Z</time>
      </trkpt>
      <trkpt lat="44.18423" lon="6.64275">
        <ele>1622.4</ele>
        <time>2013-09-03T15:13:01Z</time>
      </trkpt>
      <trkpt lat="44.18432" lon="6.64282">
        <ele>1623.3</ele>
        <time>2013-09-03T15:13:12Z</time>
      </trkpt>
      <trkpt lat="44.18433" lon="6.64284">
        <ele>1623.8</ele>
        <time>2013-09-03T15:13:13Z</time>
      </trkpt>
      <trkpt lat="44.18434" lon="6.64286">
        <ele>1623.8</ele>
        <time>2013-09-03T15:13:14Z</time>
      </trkpt>
      <trkpt lat="44.18435" lon="6.64288">
        <ele>1623.3</ele>
        <time>2013-09-03T15:13:15Z</time>
      </trkpt>
      <trkpt lat="44.18436" lon="6.6429">
        <ele>1624.3</ele>
        <time>2013-09-03T15:13:16Z</time>
      </trkpt>
      <trkpt lat="44.18437" lon="6.64292">
        <ele>1624.3</ele>
        <time>2013-09-03T15:13:17Z</time>
      </trkpt>
      <trkpt lat="44.18438" lon="6.64293">
        <ele>1624.3</ele>
        <time>2013-09-03T15:13:18Z</time>
      </trkpt>
      <trkpt lat="44.18439" lon="6.64295">
        <ele>1624.3</ele>
        <time>2013-09-03T15:13:19Z</time>
      </trkpt>
      <trkpt lat="44.18444" lon="6.64321">
        <ele>1627.2</ele>
        <time>2013-09-03T15:13:35Z</time>
      </trkpt>
      <trkpt lat="44.18442" lon="6.64344">
        <ele>1628.1</ele>
        <time>2013-09-03T15:13:48Z</time>
      </trkpt>
      <trkpt lat="44.18444" lon="6.64383">
        <ele>1630.5</ele>
        <time>2013-09-03T15:14:06Z</time>
      </trkpt>
      <trkpt lat="44.1845" lon="6.64396">
        <ele>1631.5</ele>
        <time>2013-09-03T15:14:14Z</time>
      </trkpt>
      <trkpt lat="44.18461" lon="6.64412">
        <ele>1632.9</ele>
        <time>2013-09-03T15:14:24Z</time>
      </trkpt>
      <trkpt lat="44.18462" lon="6.64414">
        <ele>1632.9</ele>
        <time>2013-09-03T15:14:25Z</time>
      </trkpt>
      <trkpt lat="44.18463" lon="6.64415">
        <ele>1633.4</ele>
        <time>2013-09-03T15:14:26Z</time>
      </trkpt>
      <trkpt lat="44.18464" lon="6.64417">
        <ele>1633.4</ele>
        <time>2013-09-03T15:14:27Z</time>
      </trkpt>
      <trkpt lat="44.18465" lon="6.64418">
        <ele>1633.9</ele>
        <time>2013-09-03T15:14:28Z</time>
      </trkpt>
      <trkpt lat="44.18466" lon="6.6442">
        <ele>1633.9</ele>
        <time>2013-09-03T15:14:29Z</time>
      </trkpt>
      <trkpt lat="44.18467" lon="6.64421">
        <ele>1633.9</ele>
        <time>2013-09-03T15:14:30Z</time>
      </trkpt>
      <trkpt lat="44.18484" lon="6.64446">
        <ele>1636.8</ele>
        <time>2013-09-03T15:14:47Z</time>
      </trkpt>
      <trkpt lat="44.18485" lon="6.64446">
        <ele>1636.8</ele>
        <time>2013-09-03T15:14:48Z</time>
      </trkpt>
      <trkpt lat="44.18487" lon="6.64446">
        <ele>1636.8</ele>
        <time>2013-09-03T15:14:49Z</time>
      </trkpt>
      <trkpt lat="44.18509" lon="6.64441">
        <ele>1638.7</ele>
        <time>2013-09-03T15:15:03Z</time>
      </trkpt>
      <trkpt lat="44.18534" lon="6.64441">
        <ele>1641.1</ele>
        <time>2013-09-03T15:15:18Z</time>
      </trkpt>
      <trkpt lat="44.18555" lon="6.64446">
        <ele>1643</ele>
        <time>2013-09-03T15:15:32Z</time>
      </trkpt>
      <trkpt lat="44.18563" lon="6.64473">
        <ele>1646.4</ele>
        <time>2013-09-03T15:15:47Z</time>
      </trkpt>
      <trkpt lat="44.1856" lon="6.6449">
        <ele>1647.8</ele>
        <time>2013-09-03T15:15:56Z</time>
      </trkpt>
      <trkpt lat="44.18559" lon="6.64525">
        <ele>1649.3</ele>
        <time>2013-09-03T15:16:11Z</time>
      </trkpt>
      <trkpt lat="44.1856" lon="6.64538">
        <ele>1649.8</ele>
        <time>2013-09-03T15:16:17Z</time>
      </trkpt>
      <trkpt lat="44.18561" lon="6.64573">
        <ele>1652.2</ele>
        <time>2013-09-03T15:16:33Z</time>
      </trkpt>
      <trkpt lat="44.18561" lon="6.64608">
        <ele>1654.6</ele>
        <time>2013-09-03T15:16:48Z</time>
      </trkpt>
      <trkpt lat="44.18561" lon="6.64634">
        <ele>1655.5</ele>
        <time>2013-09-03T15:16:59Z</time>
      </trkpt>
      <trkpt lat="44.1856" lon="6.6465">
        <ele>1657</ele>
        <time>2013-09-03T15:17:07Z</time>
      </trkpt>
      <trkpt lat="44.18559" lon="6.64651">
        <ele>1657</ele>
        <time>2013-09-03T15:17:08Z</time>
      </trkpt>
      <trkpt lat="44.18559" lon="6.64654">
        <ele>1657.5</ele>
        <time>2013-09-03T15:17:09Z</time>
      </trkpt>
      <trkpt lat="44.18559" lon="6.64656">
        <ele>1657.5</ele>
        <time>2013-09-03T15:17:10Z</time>
      </trkpt>
      <trkpt lat="44.18559" lon="6.64658">
        <ele>1657.5</ele>
        <time>2013-09-03T15:17:11Z</time>
      </trkpt>
      <trkpt lat="44.18559" lon="6.64661">
        <ele>1657.5</ele>
        <time>2013-09-03T15:17:12Z</time>
      </trkpt>
      <trkpt lat="44.18559" lon="6.64663">
        <ele>1657.9</ele>
        <time>2013-09-03T15:17:13Z</time>
      </trkpt>
      <trkpt lat="44.18559" lon="6.64665">
        <ele>1657.9</ele>
        <time>2013-09-03T15:17:14Z</time>
      </trkpt>
      <trkpt lat="44.18559" lon="6.64668">
        <ele>1657.9</ele>
        <time>2013-09-03T15:17:15Z</time>
      </trkpt>
      <trkpt lat="44.18558" lon="6.6467">
        <ele>1658.4</ele>
        <time>2013-09-03T15:17:16Z</time>
      </trkpt>
      <trkpt lat="44.18556" lon="6.64699">
        <ele>1659.9</ele>
        <time>2013-09-03T15:17:28Z</time>
      </trkpt>
      <trkpt lat="44.18553" lon="6.64722">
        <ele>1661.8</ele>
        <time>2013-09-03T15:17:40Z</time>
      </trkpt>
      <trkpt lat="44.18554" lon="6.64753">
        <ele>1663.7</ele>
        <time>2013-09-03T15:17:55Z</time>
      </trkpt>
      <trkpt lat="44.18555" lon="6.64785">
        <ele>1665.6</ele>
        <time>2013-09-03T15:18:09Z</time>
      </trkpt>
      <trkpt lat="44.18557" lon="6.64822">
        <ele>1667.1</ele>
        <time>2013-09-03T15:18:24Z</time>
      </trkpt>
      <trkpt lat="44.18558" lon="6.64824">
        <ele>1668</ele>
        <time>2013-09-03T15:18:25Z</time>
      </trkpt>
      <trkpt lat="44.1856" lon="6.64826">
        <ele>1667.5</ele>
        <time>2013-09-03T15:18:26Z</time>
      </trkpt>
      <trkpt lat="44.18562" lon="6.64828">
        <ele>1667.5</ele>
        <time>2013-09-03T15:18:27Z</time>
      </trkpt>
      <trkpt lat="44.18564" lon="6.64829">
        <ele>1667.5</ele>
        <time>2013-09-03T15:18:28Z</time>
      </trkpt>
      <trkpt lat="44.18565" lon="6.6483">
        <ele>1667.5</ele>
        <time>2013-09-03T15:18:29Z</time>
      </trkpt>
      <trkpt lat="44.18567" lon="6.64832">
        <ele>1668.5</ele>
        <time>2013-09-03T15:18:30Z</time>
      </trkpt>
      <trkpt lat="44.18568" lon="6.64833">
        <ele>1668.5</ele>
        <time>2013-09-03T15:18:31Z</time>
      </trkpt>
      <trkpt lat="44.18584" lon="6.64848">
        <ele>1670</ele>
        <time>2013-09-03T15:18:44Z</time>
      </trkpt>
      <trkpt lat="44.18585" lon="6.64876">
        <ele>1670.9</ele>
        <time>2013-09-03T15:18:57Z</time>
      </trkpt>
      <trkpt lat="44.1858" lon="6.64913">
        <ele>1670.9</ele>
        <time>2013-09-03T15:19:09Z</time>
      </trkpt>
      <trkpt lat="44.18589" lon="6.64958">
        <ele>1670.9</ele>
        <time>2013-09-03T15:19:22Z</time>
      </trkpt>
      <trkpt lat="44.18607" lon="6.6497">
        <ele>1671.4</ele>
        <time>2013-09-03T15:19:33Z</time>
      </trkpt>
      <trkpt lat="44.18624" lon="6.64983">
        <ele>1673.3</ele>
        <time>2013-09-03T15:19:46Z</time>
      </trkpt>
      <trkpt lat="44.18636" lon="6.64991">
        <ele>1674.3</ele>
        <time>2013-09-03T15:19:54Z</time>
      </trkpt>
      <trkpt lat="44.18638" lon="6.64992">
        <ele>1674.3</ele>
        <time>2013-09-03T15:19:55Z</time>
      </trkpt>
      <trkpt lat="44.18652" lon="6.65011">
        <ele>1675.7</ele>
        <time>2013-09-03T15:20:08Z</time>
      </trkpt>
      <trkpt lat="44.18663" lon="6.65039">
        <ele>1677.6</ele>
        <time>2013-09-03T15:20:21Z</time>
      </trkpt>
      <trkpt lat="44.1868" lon="6.65067">
        <ele>1679.6</ele>
        <time>2013-09-03T15:20:35Z</time>
      </trkpt>
      <trkpt lat="44.18694" lon="6.65107">
        <ele>1680.5</ele>
        <time>2013-09-03T15:20:49Z</time>
      </trkpt>
      <trkpt lat="44.18694" lon="6.65148">
        <ele>1682.9</ele>
        <time>2013-09-03T15:21:02Z</time>
      </trkpt>
      <trkpt lat="44.187" lon="6.65197">
        <ele>1684.4</ele>
        <time>2013-09-03T15:21:19Z</time>
      </trkpt>
      <trkpt lat="44.1871" lon="6.6524">
        <ele>1685.8</ele>
        <time>2013-09-03T15:21:37Z</time>
      </trkpt>
      <trkpt lat="44.18714" lon="6.65262">
        <ele>1686.8</ele>
        <time>2013-09-03T15:21:52Z</time>
      </trkpt>
      <trkpt lat="44.18716" lon="6.65261">
        <ele>1686.3</ele>
        <time>2013-09-03T15:22:08Z</time>
      </trkpt>
      <trkpt lat="44.18717" lon="6.65263">
        <ele>1684.9</ele>
        <time>2013-09-03T15:22:19Z</time>
      </trkpt>
      <trkpt lat="44.18717" lon="6.65262">
        <ele>1671.4</ele>
        <time>2013-09-03T16:08:27Z</time>
      </trkpt>
      <trkpt lat="44.18709" lon="6.65281">
        <ele>1671.4</ele>
        <time>2013-09-03T16:08:28Z</time>
      </trkpt>
      <trkpt lat="44.18713" lon="6.65269">
        <ele>1674.8</ele>
        <time>2013-09-03T16:08:39Z</time>
      </trkpt>
      <trkpt lat="44.1871" lon="6.65272">
        <ele>1677.2</ele>
        <time>2013-09-03T16:08:47Z</time>
      </trkpt>
      <trkpt lat="44.18711" lon="6.65279">
        <ele>1679.1</ele>
        <time>2013-09-03T16:08:51Z</time>
      </trkpt>
      <trkpt lat="44.18709" lon="6.65316">
        <ele>1681</ele>
        <time>2013-09-03T16:09:03Z</time>
      </trkpt>
      <trkpt lat="44.18716" lon="6.65357">
        <ele>1683.4</ele>
        <time>2013-09-03T16:09:14Z</time>
      </trkpt>
      <trkpt lat="44.18729" lon="6.65368">
        <ele>1686.8</ele>
        <time>2013-09-03T16:09:24Z</time>
      </trkpt>
      <trkpt lat="44.18736" lon="6.65377">
        <ele>1688.2</ele>
        <time>2013-09-03T16:09:30Z</time>
      </trkpt>
      <trkpt lat="44.18737" lon="6.65379">
        <ele>1689.2</ele>
        <time>2013-09-03T16:09:31Z</time>
      </trkpt>
      <trkpt lat="44.18743" lon="6.65394">
        <ele>1691.1</ele>
        <time>2013-09-03T16:09:42Z</time>
      </trkpt>
      <trkpt lat="44.18745" lon="6.65408">
        <ele>1694.9</ele>
        <time>2013-09-03T16:09:55Z</time>
      </trkpt>
      <trkpt lat="44.1875" lon="6.65422">
        <ele>1695.9</ele>
        <time>2013-09-03T16:10:10Z</time>
      </trkpt>
      <trkpt lat="44.18755" lon="6.65435">
        <ele>1697.3</ele>
        <time>2013-09-03T16:10:27Z</time>
      </trkpt>
      <trkpt lat="44.18756" lon="6.65449">
        <ele>1700.2</ele>
        <time>2013-09-03T16:10:42Z</time>
      </trkpt>
      <trkpt lat="44.18757" lon="6.65463">
        <ele>1700.7</ele>
        <time>2013-09-03T16:10:55Z</time>
      </trkpt>
      <trkpt lat="44.18764" lon="6.65477">
        <ele>1701.7</ele>
        <time>2013-09-03T16:11:08Z</time>
      </trkpt>
      <trkpt lat="44.18778" lon="6.65497">
        <ele>1703.6</ele>
        <time>2013-09-03T16:11:23Z</time>
      </trkpt>
      <trkpt lat="44.18783" lon="6.65514">
        <ele>1704.6</ele>
        <time>2013-09-03T16:11:39Z</time>
      </trkpt>
      <trkpt lat="44.18783" lon="6.6553">
        <ele>1706</ele>
        <time>2013-09-03T16:11:53Z</time>
      </trkpt>
      <trkpt lat="44.18781" lon="6.65546">
        <ele>1707</ele>
        <time>2013-09-03T16:12:08Z</time>
      </trkpt>
      <trkpt lat="44.18779" lon="6.6556">
        <ele>1707.9</ele>
        <time>2013-09-03T16:12:23Z</time>
      </trkpt>
      <trkpt lat="44.18777" lon="6.6557">
        <ele>1708.4</ele>
        <time>2013-09-03T16:12:38Z</time>
      </trkpt>
      <trkpt lat="44.18776" lon="6.65574">
        <ele>1709.4</ele>
        <time>2013-09-03T16:12:41Z</time>
      </trkpt>
      <trkpt lat="44.18775" lon="6.65576">
        <ele>1708.9</ele>
        <time>2013-09-03T16:12:42Z</time>
      </trkpt>
      <trkpt lat="44.18774" lon="6.65577">
        <ele>1709.4</ele>
        <time>2013-09-03T16:12:43Z</time>
      </trkpt>
      <trkpt lat="44.18773" lon="6.65579">
        <ele>1709.4</ele>
        <time>2013-09-03T16:12:44Z</time>
      </trkpt>
      <trkpt lat="44.18772" lon="6.65581">
        <ele>1708.9</ele>
        <time>2013-09-03T16:12:45Z</time>
      </trkpt>
      <trkpt lat="44.18771" lon="6.65583">
        <ele>1709.8</ele>
        <time>2013-09-03T16:12:46Z</time>
      </trkpt>
      <trkpt lat="44.18766" lon="6.65604">
        <ele>1711.3</ele>
        <time>2013-09-03T16:12:58Z</time>
      </trkpt>
      <trkpt lat="44.18766" lon="6.65606">
        <ele>1711.3</ele>
        <time>2013-09-03T16:12:59Z</time>
      </trkpt>
      <trkpt lat="44.18769" lon="6.65613">
        <ele>1711.8</ele>
        <time>2013-09-03T16:13:03Z</time>
      </trkpt>
      <trkpt lat="44.18769" lon="6.65635">
        <ele>1713.2</ele>
        <time>2013-09-03T16:13:14Z</time>
      </trkpt>
      <trkpt lat="44.18771" lon="6.65661">
        <ele>1714.7</ele>
        <time>2013-09-03T16:13:28Z</time>
      </trkpt>
      <trkpt lat="44.1877" lon="6.65668">
        <ele>1715.1</ele>
        <time>2013-09-03T16:13:32Z</time>
      </trkpt>
      <trkpt lat="44.1877" lon="6.65673">
        <ele>1715.1</ele>
        <time>2013-09-03T16:13:36Z</time>
      </trkpt>
      <trkpt lat="44.18769" lon="6.65701">
        <ele>1718</ele>
        <time>2013-09-03T16:13:51Z</time>
      </trkpt>
      <trkpt lat="44.18766" lon="6.65723">
        <ele>1719</ele>
        <time>2013-09-03T16:14:04Z</time>
      </trkpt>
      <trkpt lat="44.18763" lon="6.65732">
        <ele>1719.9</ele>
        <time>2013-09-03T16:14:10Z</time>
      </trkpt>
      <trkpt lat="44.18763" lon="6.65734">
        <ele>1719.9</ele>
        <time>2013-09-03T16:14:11Z</time>
      </trkpt>
      <trkpt lat="44.18763" lon="6.65741">
        <ele>1719.9</ele>
        <time>2013-09-03T16:14:15Z</time>
      </trkpt>
      <trkpt lat="44.18761" lon="6.65768">
        <ele>1721.9</ele>
        <time>2013-09-03T16:14:31Z</time>
      </trkpt>
      <trkpt lat="44.1876" lon="6.65782">
        <ele>1722.3</ele>
        <time>2013-09-03T16:14:40Z</time>
      </trkpt>
      <trkpt lat="44.1876" lon="6.65783">
        <ele>1722.8</ele>
        <time>2013-09-03T16:14:41Z</time>
      </trkpt>
      <trkpt lat="44.18758" lon="6.65798">
        <ele>1723.3</ele>
        <time>2013-09-03T16:14:49Z</time>
      </trkpt>
      <trkpt lat="44.18758" lon="6.658">
        <ele>1723.8</ele>
        <time>2013-09-03T16:14:50Z</time>
      </trkpt>
      <trkpt lat="44.18756" lon="6.65812">
        <ele>1724.7</ele>
        <time>2013-09-03T16:14:57Z</time>
      </trkpt>
      <trkpt lat="44.18756" lon="6.65816">
        <ele>1725.2</ele>
        <time>2013-09-03T16:14:59Z</time>
      </trkpt>
      <trkpt lat="44.18756" lon="6.65841">
        <ele>1726.2</ele>
        <time>2013-09-03T16:15:12Z</time>
      </trkpt>
      <trkpt lat="44.18756" lon="6.65842">
        <ele>1726.2</ele>
        <time>2013-09-03T16:15:13Z</time>
      </trkpt>
      <trkpt lat="44.18759" lon="6.65873">
        <ele>1728.6</ele>
        <time>2013-09-03T16:15:28Z</time>
      </trkpt>
      <trkpt lat="44.18759" lon="6.65883">
        <ele>1729.1</ele>
        <time>2013-09-03T16:15:33Z</time>
      </trkpt>
      <trkpt lat="44.18759" lon="6.65886">
        <ele>1728.6</ele>
        <time>2013-09-03T16:15:34Z</time>
      </trkpt>
      <trkpt lat="44.18764" lon="6.65915">
        <ele>1730.5</ele>
        <time>2013-09-03T16:15:47Z</time>
      </trkpt>
      <trkpt lat="44.1877" lon="6.65932">
        <ele>1732</ele>
        <time>2013-09-03T16:15:56Z</time>
      </trkpt>
      <trkpt lat="44.18771" lon="6.65934">
        <ele>1732.4</ele>
        <time>2013-09-03T16:15:57Z</time>
      </trkpt>
      <trkpt lat="44.18772" lon="6.65936">
        <ele>1732.4</ele>
        <time>2013-09-03T16:15:58Z</time>
      </trkpt>
      <trkpt lat="44.18773" lon="6.65939">
        <ele>1732.4</ele>
        <time>2013-09-03T16:16:00Z</time>
      </trkpt>
      <trkpt lat="44.18777" lon="6.65966">
        <ele>1734.4</ele>
        <time>2013-09-03T16:16:14Z</time>
      </trkpt>
      <trkpt lat="44.18781" lon="6.65997">
        <ele>1736.3</ele>
        <time>2013-09-03T16:16:27Z</time>
      </trkpt>
      <trkpt lat="44.18781" lon="6.65999">
        <ele>1736.3</ele>
        <time>2013-09-03T16:16:28Z</time>
      </trkpt>
      <trkpt lat="44.18787" lon="6.66019">
        <ele>1737.7</ele>
        <time>2013-09-03T16:16:40Z</time>
      </trkpt>
      <trkpt lat="44.18806" lon="6.66044">
        <ele>1740.1</ele>
        <time>2013-09-03T16:16:55Z</time>
      </trkpt>
      <trkpt lat="44.18812" lon="6.66072">
        <ele>1742.1</ele>
        <time>2013-09-03T16:17:09Z</time>
      </trkpt>
      <trkpt lat="44.18812" lon="6.66097">
        <ele>1743.5</ele>
        <time>2013-09-03T16:17:23Z</time>
      </trkpt>
      <trkpt lat="44.18813" lon="6.66101">
        <ele>1743.5</ele>
        <time>2013-09-03T16:17:24Z</time>
      </trkpt>
      <trkpt lat="44.18816" lon="6.66109">
        <ele>1744.5</ele>
        <time>2013-09-03T16:17:27Z</time>
      </trkpt>
      <trkpt lat="44.18816" lon="6.66111">
        <ele>1744.5</ele>
        <time>2013-09-03T16:17:28Z</time>
      </trkpt>
      <trkpt lat="44.18816" lon="6.66114">
        <ele>1744.9</ele>
        <time>2013-09-03T16:17:29Z</time>
      </trkpt>
      <trkpt lat="44.18816" lon="6.66116">
        <ele>1744.9</ele>
        <time>2013-09-03T16:17:30Z</time>
      </trkpt>
      <trkpt lat="44.18816" lon="6.66118">
        <ele>1744.5</ele>
        <time>2013-09-03T16:17:31Z</time>
      </trkpt>
      <trkpt lat="44.18816" lon="6.6612">
        <ele>1744.9</ele>
        <time>2013-09-03T16:17:32Z</time>
      </trkpt>
      <trkpt lat="44.18816" lon="6.66123">
        <ele>1744.9</ele>
        <time>2013-09-03T16:17:33Z</time>
      </trkpt>
      <trkpt lat="44.18816" lon="6.66125">
        <ele>1745.4</ele>
        <time>2013-09-03T16:17:34Z</time>
      </trkpt>
      <trkpt lat="44.18817" lon="6.66127">
        <ele>1745.4</ele>
        <time>2013-09-03T16:17:35Z</time>
      </trkpt>
      <trkpt lat="44.18817" lon="6.6613">
        <ele>1745.4</ele>
        <time>2013-09-03T16:17:36Z</time>
      </trkpt>
      <trkpt lat="44.18817" lon="6.66132">
        <ele>1745.4</ele>
        <time>2013-09-03T16:17:37Z</time>
      </trkpt>
      <trkpt lat="44.18814" lon="6.66164">
        <ele>1747.8</ele>
        <time>2013-09-03T16:17:52Z</time>
      </trkpt>
      <trkpt lat="44.18816" lon="6.66199">
        <ele>1749.3</ele>
        <time>2013-09-03T16:18:08Z</time>
      </trkpt>
      <trkpt lat="44.18824" lon="6.66227">
        <ele>1752.1</ele>
        <time>2013-09-03T16:18:23Z</time>
      </trkpt>
      <trkpt lat="44.18827" lon="6.66253">
        <ele>1753.1</ele>
        <time>2013-09-03T16:18:36Z</time>
      </trkpt>
      <trkpt lat="44.18826" lon="6.66254">
        <ele>1753.6</ele>
        <time>2013-09-03T16:18:37Z</time>
      </trkpt>
      <trkpt lat="44.18826" lon="6.66256">
        <ele>1754.5</ele>
        <time>2013-09-03T16:18:38Z</time>
      </trkpt>
      <trkpt lat="44.18825" lon="6.66259">
        <ele>1754.1</ele>
        <time>2013-09-03T16:18:39Z</time>
      </trkpt>
      <trkpt lat="44.18825" lon="6.6626">
        <ele>1754.1</ele>
        <time>2013-09-03T16:18:40Z</time>
      </trkpt>
      <trkpt lat="44.18825" lon="6.66262">
        <ele>1754.5</ele>
        <time>2013-09-03T16:18:41Z</time>
      </trkpt>
      <trkpt lat="44.18825" lon="6.66265">
        <ele>1754.5</ele>
        <time>2013-09-03T16:18:42Z</time>
      </trkpt>
      <trkpt lat="44.18825" lon="6.66271">
        <ele>1754.5</ele>
        <time>2013-09-03T16:18:45Z</time>
      </trkpt>
      <trkpt lat="44.18827" lon="6.66288">
        <ele>1755.5</ele>
        <time>2013-09-03T16:18:53Z</time>
      </trkpt>
      <trkpt lat="44.18827" lon="6.66291">
        <ele>1755.5</ele>
        <time>2013-09-03T16:18:54Z</time>
      </trkpt>
      <trkpt lat="44.18833" lon="6.66319">
        <ele>1757.4</ele>
        <time>2013-09-03T16:19:08Z</time>
      </trkpt>
      <trkpt lat="44.18836" lon="6.66346">
        <ele>1759.8</ele>
        <time>2013-09-03T16:19:22Z</time>
      </trkpt>
      <trkpt lat="44.18838" lon="6.66373">
        <ele>1761.3</ele>
        <time>2013-09-03T16:19:36Z</time>
      </trkpt>
      <trkpt lat="44.1884" lon="6.66392">
        <ele>1762.2</ele>
        <time>2013-09-03T16:19:46Z</time>
      </trkpt>
      <trkpt lat="44.18841" lon="6.66393">
        <ele>1762.2</ele>
        <time>2013-09-03T16:19:47Z</time>
      </trkpt>
      <trkpt lat="44.18842" lon="6.66395">
        <ele>1762.7</ele>
        <time>2013-09-03T16:19:48Z</time>
      </trkpt>
      <trkpt lat="44.18842" lon="6.66397">
        <ele>1762.2</ele>
        <time>2013-09-03T16:19:49Z</time>
      </trkpt>
      <trkpt lat="44.18843" lon="6.66398">
        <ele>1763.2</ele>
        <time>2013-09-03T16:19:50Z</time>
      </trkpt>
      <trkpt lat="44.18853" lon="6.66412">
        <ele>1764.6</ele>
        <time>2013-09-03T16:20:00Z</time>
      </trkpt>
      <trkpt lat="44.18854" lon="6.66414">
        <ele>1764.2</ele>
        <time>2013-09-03T16:20:01Z</time>
      </trkpt>
      <trkpt lat="44.1886" lon="6.6642">
        <ele>1764.6</ele>
        <time>2013-09-03T16:20:06Z</time>
      </trkpt>
      <trkpt lat="44.18862" lon="6.66434">
        <ele>1765.6</ele>
        <time>2013-09-03T16:20:14Z</time>
      </trkpt>
      <trkpt lat="44.18862" lon="6.66436">
        <ele>1766.1</ele>
        <time>2013-09-03T16:20:16Z</time>
      </trkpt>
      <trkpt lat="44.18863" lon="6.66437">
        <ele>1766.6</ele>
        <time>2013-09-03T16:20:17Z</time>
      </trkpt>
      <trkpt lat="44.18864" lon="6.66446">
        <ele>1766.6</ele>
        <time>2013-09-03T16:20:21Z</time>
      </trkpt>
      <trkpt lat="44.18864" lon="6.66449">
        <ele>1767</ele>
        <time>2013-09-03T16:20:23Z</time>
      </trkpt>
      <trkpt lat="44.18864" lon="6.66451">
        <ele>1767</ele>
        <time>2013-09-03T16:20:24Z</time>
      </trkpt>
      <trkpt lat="44.18865" lon="6.66462">
        <ele>1768</ele>
        <time>2013-09-03T16:20:29Z</time>
      </trkpt>
      <trkpt lat="44.18865" lon="6.66464">
        <ele>1768</ele>
        <time>2013-09-03T16:20:30Z</time>
      </trkpt>
      <trkpt lat="44.18853" lon="6.6649">
        <ele>1769.9</ele>
        <time>2013-09-03T16:20:45Z</time>
      </trkpt>
      <trkpt lat="44.18845" lon="6.66511">
        <ele>1771.4</ele>
        <time>2013-09-03T16:20:58Z</time>
      </trkpt>
      <trkpt lat="44.18834" lon="6.66536">
        <ele>1773.8</ele>
        <time>2013-09-03T16:21:11Z</time>
      </trkpt>
      <trkpt lat="44.18833" lon="6.66538">
        <ele>1772.8</ele>
        <time>2013-09-03T16:21:12Z</time>
      </trkpt>
      <trkpt lat="44.18821" lon="6.66554">
        <ele>1775.7</ele>
        <time>2013-09-03T16:21:26Z</time>
      </trkpt>
      <trkpt lat="44.18808" lon="6.6654">
        <ele>1777.6</ele>
        <time>2013-09-03T16:21:39Z</time>
      </trkpt>
      <trkpt lat="44.18795" lon="6.66516">
        <ele>1779.5</ele>
        <time>2013-09-03T16:21:54Z</time>
      </trkpt>
      <trkpt lat="44.18787" lon="6.66491">
        <ele>1781.5</ele>
        <time>2013-09-03T16:22:08Z</time>
      </trkpt>
      <trkpt lat="44.18783" lon="6.6647">
        <ele>1782.9</ele>
        <time>2013-09-03T16:22:19Z</time>
      </trkpt>
      <trkpt lat="44.18775" lon="6.66437">
        <ele>1785.3</ele>
        <time>2013-09-03T16:22:34Z</time>
      </trkpt>
      <trkpt lat="44.18772" lon="6.66424">
        <ele>1786.3</ele>
        <time>2013-09-03T16:22:39Z</time>
      </trkpt>
      <trkpt lat="44.18761" lon="6.66394">
        <ele>1788.2</ele>
        <time>2013-09-03T16:22:54Z</time>
      </trkpt>
      <trkpt lat="44.18749" lon="6.6636">
        <ele>1790.6</ele>
        <time>2013-09-03T16:23:10Z</time>
      </trkpt>
      <trkpt lat="44.1874" lon="6.66328">
        <ele>1792.5</ele>
        <time>2013-09-03T16:23:24Z</time>
      </trkpt>
      <trkpt lat="44.18725" lon="6.66308">
        <ele>1794</ele>
        <time>2013-09-03T16:23:37Z</time>
      </trkpt>
      <trkpt lat="44.187" lon="6.66298">
        <ele>1796.4</ele>
        <time>2013-09-03T16:23:54Z</time>
      </trkpt>
      <trkpt lat="44.18675" lon="6.66296">
        <ele>1798.8</ele>
        <time>2013-09-03T16:24:09Z</time>
      </trkpt>
      <trkpt lat="44.1867" lon="6.66298">
        <ele>1799.2</ele>
        <time>2013-09-03T16:24:13Z</time>
      </trkpt>
      <trkpt lat="44.18647" lon="6.66302">
        <ele>1801.2</ele>
        <time>2013-09-03T16:24:28Z</time>
      </trkpt>
      <trkpt lat="44.18617" lon="6.66303">
        <ele>1803.6</ele>
        <time>2013-09-03T16:24:44Z</time>
      </trkpt>
      <trkpt lat="44.1861" lon="6.663">
        <ele>1804.5</ele>
        <time>2013-09-03T16:24:48Z</time>
      </trkpt>
      <trkpt lat="44.18597" lon="6.6628">
        <ele>1806</ele>
        <time>2013-09-03T16:25:00Z</time>
      </trkpt>
      <trkpt lat="44.18593" lon="6.66267">
        <ele>1807.4</ele>
        <time>2013-09-03T16:25:07Z</time>
      </trkpt>
      <trkpt lat="44.18585" lon="6.66252">
        <ele>1808.4</ele>
        <time>2013-09-03T16:25:16Z</time>
      </trkpt>
      <trkpt lat="44.18569" lon="6.66214">
        <ele>1810.3</ele>
        <time>2013-09-03T16:25:34Z</time>
      </trkpt>
      <trkpt lat="44.1856" lon="6.66184">
        <ele>1813.2</ele>
        <time>2013-09-03T16:25:48Z</time>
      </trkpt>
      <trkpt lat="44.18559" lon="6.66181">
        <ele>1813.7</ele>
        <time>2013-09-03T16:25:49Z</time>
      </trkpt>
      <trkpt lat="44.18559" lon="6.66179">
        <ele>1813.2</ele>
        <time>2013-09-03T16:25:50Z</time>
      </trkpt>
      <trkpt lat="44.18553" lon="6.66154">
        <ele>1815.1</ele>
        <time>2013-09-03T16:26:02Z</time>
      </trkpt>
      <trkpt lat="44.18553" lon="6.66152">
        <ele>1815.1</ele>
        <time>2013-09-03T16:26:03Z</time>
      </trkpt>
      <trkpt lat="44.18549" lon="6.66126">
        <ele>1817</ele>
        <time>2013-09-03T16:26:16Z</time>
      </trkpt>
      <trkpt lat="44.18543" lon="6.6611">
        <ele>1818</ele>
        <time>2013-09-03T16:26:25Z</time>
      </trkpt>
      <trkpt lat="44.18543" lon="6.66107">
        <ele>1818.5</ele>
        <time>2013-09-03T16:26:26Z</time>
      </trkpt>
      <trkpt lat="44.18543" lon="6.66105">
        <ele>1818.5</ele>
        <time>2013-09-03T16:26:27Z</time>
      </trkpt>
      <trkpt lat="44.18542" lon="6.66103">
        <ele>1818.5</ele>
        <time>2013-09-03T16:26:28Z</time>
      </trkpt>
      <trkpt lat="44.18541" lon="6.66101">
        <ele>1818.5</ele>
        <time>2013-09-03T16:26:29Z</time>
      </trkpt>
      <trkpt lat="44.18524" lon="6.66064">
        <ele>1821.4</ele>
        <time>2013-09-03T16:26:47Z</time>
      </trkpt>
      <trkpt lat="44.18511" lon="6.66029">
        <ele>1823.3</ele>
        <time>2013-09-03T16:27:04Z</time>
      </trkpt>
      <trkpt lat="44.18502" lon="6.66003">
        <ele>1825.7</ele>
        <time>2013-09-03T16:27:18Z</time>
      </trkpt>
      <trkpt lat="44.18495" lon="6.65985">
        <ele>1826.6</ele>
        <time>2013-09-03T16:27:30Z</time>
      </trkpt>
      <trkpt lat="44.18488" lon="6.65965">
        <ele>1828.6</ele>
        <time>2013-09-03T16:27:41Z</time>
      </trkpt>
      <trkpt lat="44.18486" lon="6.65963">
        <ele>1829.1</ele>
        <time>2013-09-03T16:27:43Z</time>
      </trkpt>
      <trkpt lat="44.18481" lon="6.65953">
        <ele>1829.1</ele>
        <time>2013-09-03T16:27:56Z</time>
      </trkpt>
      <trkpt lat="44.18475" lon="6.6595">
        <ele>1828.6</ele>
        <time>2013-09-03T16:28:16Z</time>
      </trkpt>
      <trkpt lat="44.18473" lon="6.65942">
        <ele>1829.1</ele>
        <time>2013-09-03T16:28:54Z</time>
      </trkpt>
      <trkpt lat="44.18474" lon="6.65947">
        <ele>1830</ele>
        <time>2013-09-03T16:29:38Z</time>
      </trkpt>
      <trkpt lat="44.18482" lon="6.65955">
        <ele>1830.5</ele>
        <time>2013-09-03T16:30:05Z</time>
      </trkpt>
      <trkpt lat="44.18481" lon="6.65962">
        <ele>1830.5</ele>
        <time>2013-09-03T16:30:14Z</time>
      </trkpt>
      <trkpt lat="44.18481" lon="6.65964">
        <ele>1830</ele>
        <time>2013-09-03T16:30:15Z</time>
      </trkpt>
      <trkpt lat="44.18483" lon="6.65982">
        <ele>1831.5</ele>
        <time>2013-09-03T16:30:30Z</time>
      </trkpt>
      <trkpt lat="44.18484" lon="6.65985">
        <ele>1832.4</ele>
        <time>2013-09-03T16:30:33Z</time>
      </trkpt>
      <trkpt lat="44.18485" lon="6.65986">
        <ele>1832.4</ele>
        <time>2013-09-03T16:30:34Z</time>
      </trkpt>
      <trkpt lat="44.18489" lon="6.66006">
        <ele>1833.4</ele>
        <time>2013-09-03T16:30:47Z</time>
      </trkpt>
      <trkpt lat="44.18489" lon="6.66034">
        <ele>1835.3</ele>
        <time>2013-09-03T16:31:02Z</time>
      </trkpt>
      <trkpt lat="44.18491" lon="6.66064">
        <ele>1837.7</ele>
        <time>2013-09-03T16:31:19Z</time>
      </trkpt>
      <trkpt lat="44.1849" lon="6.66086">
        <ele>1838.2</ele>
        <time>2013-09-03T16:31:31Z</time>
      </trkpt>
      <trkpt lat="44.18491" lon="6.66088">
        <ele>1839.1</ele>
        <time>2013-09-03T16:31:32Z</time>
      </trkpt>
      <trkpt lat="44.18491" lon="6.6609">
        <ele>1839.1</ele>
        <time>2013-09-03T16:31:33Z</time>
      </trkpt>
      <trkpt lat="44.18494" lon="6.66106">
        <ele>1840.6</ele>
        <time>2013-09-03T16:31:43Z</time>
      </trkpt>
      <trkpt lat="44.18494" lon="6.66107">
        <ele>1840.6</ele>
        <time>2013-09-03T16:31:44Z</time>
      </trkpt>
      <trkpt lat="44.18494" lon="6.66109">
        <ele>1841.1</ele>
        <time>2013-09-03T16:31:45Z</time>
      </trkpt>
      <trkpt lat="44.18494" lon="6.66111">
        <ele>1840.6</ele>
        <time>2013-09-03T16:31:46Z</time>
      </trkpt>
      <trkpt lat="44.18494" lon="6.66113">
        <ele>1840.6</ele>
        <time>2013-09-03T16:31:47Z</time>
      </trkpt>
      <trkpt lat="44.18493" lon="6.66114">
        <ele>1841.5</ele>
        <time>2013-09-03T16:31:48Z</time>
      </trkpt>
      <trkpt lat="44.18494" lon="6.66117">
        <ele>1841.1</ele>
        <time>2013-09-03T16:31:50Z</time>
      </trkpt>
      <trkpt lat="44.18493" lon="6.66135">
        <ele>1842.5</ele>
        <time>2013-09-03T16:32:00Z</time>
      </trkpt>
      <trkpt lat="44.18493" lon="6.66137">
        <ele>1842.5</ele>
        <time>2013-09-03T16:32:01Z</time>
      </trkpt>
      <trkpt lat="44.18492" lon="6.66138">
        <ele>1842.5</ele>
        <time>2013-09-03T16:32:02Z</time>
      </trkpt>
      <trkpt lat="44.1849" lon="6.66167">
        <ele>1844.4</ele>
        <time>2013-09-03T16:32:16Z</time>
      </trkpt>
      <trkpt lat="44.18485" lon="6.66202">
        <ele>1846.4</ele>
        <time>2013-09-03T16:32:33Z</time>
      </trkpt>
      <trkpt lat="44.18483" lon="6.66234">
        <ele>1848.3</ele>
        <time>2013-09-03T16:32:50Z</time>
      </trkpt>
      <trkpt lat="44.18488" lon="6.66265">
        <ele>1850.7</ele>
        <time>2013-09-03T16:33:08Z</time>
      </trkpt>
      <trkpt lat="44.18489" lon="6.66271">
        <ele>1850.7</ele>
        <time>2013-09-03T16:33:11Z</time>
      </trkpt>
      <trkpt lat="44.18489" lon="6.66272">
        <ele>1851.2</ele>
        <time>2013-09-03T16:33:12Z</time>
      </trkpt>
      <trkpt lat="44.18489" lon="6.66274">
        <ele>1851.2</ele>
        <time>2013-09-03T16:33:13Z</time>
      </trkpt>
      <trkpt lat="44.18488" lon="6.66276">
        <ele>1851.2</ele>
        <time>2013-09-03T16:33:14Z</time>
      </trkpt>
      <trkpt lat="44.18489" lon="6.66277">
        <ele>1850.7</ele>
        <time>2013-09-03T16:33:15Z</time>
      </trkpt>
      <trkpt lat="44.18489" lon="6.66279">
        <ele>1851.2</ele>
        <time>2013-09-03T16:33:16Z</time>
      </trkpt>
      <trkpt lat="44.1849" lon="6.66281">
        <ele>1851.2</ele>
        <time>2013-09-03T16:33:17Z</time>
      </trkpt>
      <trkpt lat="44.1849" lon="6.66282">
        <ele>1850.7</ele>
        <time>2013-09-03T16:33:18Z</time>
      </trkpt>
      <trkpt lat="44.18491" lon="6.66284">
        <ele>1851.6</ele>
        <time>2013-09-03T16:33:19Z</time>
      </trkpt>
      <trkpt lat="44.18491" lon="6.66286">
        <ele>1851.6</ele>
        <time>2013-09-03T16:33:20Z</time>
      </trkpt>
      <trkpt lat="44.18492" lon="6.66288">
        <ele>1851.6</ele>
        <time>2013-09-03T16:33:21Z</time>
      </trkpt>
      <trkpt lat="44.18492" lon="6.66294">
        <ele>1852.1</ele>
        <time>2013-09-03T16:33:24Z</time>
      </trkpt>
      <trkpt lat="44.18492" lon="6.66297">
        <ele>1852.6</ele>
        <time>2013-09-03T16:33:26Z</time>
      </trkpt>
      <trkpt lat="44.18492" lon="6.663">
        <ele>1852.6</ele>
        <time>2013-09-03T16:33:28Z</time>
      </trkpt>
      <trkpt lat="44.18492" lon="6.66302">
        <ele>1852.1</ele>
        <time>2013-09-03T16:33:29Z</time>
      </trkpt>
      <trkpt lat="44.18493" lon="6.66304">
        <ele>1852.6</ele>
        <time>2013-09-03T16:33:30Z</time>
      </trkpt>
      <trkpt lat="44.18493" lon="6.66307">
        <ele>1853.1</ele>
        <time>2013-09-03T16:33:31Z</time>
      </trkpt>
      <trkpt lat="44.18493" lon="6.66309">
        <ele>1853.1</ele>
        <time>2013-09-03T16:33:32Z</time>
      </trkpt>
      <trkpt lat="44.18502" lon="6.66344">
        <ele>1855.5</ele>
        <time>2013-09-03T16:33:50Z</time>
      </trkpt>
      <trkpt lat="44.18514" lon="6.66369">
        <ele>1857.4</ele>
        <time>2013-09-03T16:34:07Z</time>
      </trkpt>
      <trkpt lat="44.18524" lon="6.66398">
        <ele>1860.3</ele>
        <time>2013-09-03T16:34:24Z</time>
      </trkpt>
      <trkpt lat="44.18515" lon="6.66417">
        <ele>1860.8</ele>
        <time>2013-09-03T16:34:35Z</time>
      </trkpt>
      <trkpt lat="44.18514" lon="6.66418">
        <ele>1861.7</ele>
        <time>2013-09-03T16:34:36Z</time>
      </trkpt>
      <trkpt lat="44.18513" lon="6.6642">
        <ele>1861.3</ele>
        <time>2013-09-03T16:34:37Z</time>
      </trkpt>
      <trkpt lat="44.18512" lon="6.66421">
        <ele>1862.2</ele>
        <time>2013-09-03T16:34:38Z</time>
      </trkpt>
      <trkpt lat="44.18511" lon="6.66423">
        <ele>1861.7</ele>
        <time>2013-09-03T16:34:39Z</time>
      </trkpt>
      <trkpt lat="44.18511" lon="6.66425">
        <ele>1862.2</ele>
        <time>2013-09-03T16:34:40Z</time>
      </trkpt>
      <trkpt lat="44.18509" lon="6.66426">
        <ele>1862.2</ele>
        <time>2013-09-03T16:34:41Z</time>
      </trkpt>
      <trkpt lat="44.18508" lon="6.66427">
        <ele>1862.2</ele>
        <time>2013-09-03T16:34:42Z</time>
      </trkpt>
      <trkpt lat="44.18507" lon="6.66428">
        <ele>1862.7</ele>
        <time>2013-09-03T16:34:43Z</time>
      </trkpt>
      <trkpt lat="44.18496" lon="6.66459">
        <ele>1864.6</ele>
        <time>2013-09-03T16:35:01Z</time>
      </trkpt>
      <trkpt lat="44.18496" lon="6.66493">
        <ele>1866.1</ele>
        <time>2013-09-03T16:35:17Z</time>
      </trkpt>
      <trkpt lat="44.18494" lon="6.6653">
        <ele>1868.5</ele>
        <time>2013-09-03T16:35:34Z</time>
      </trkpt>
      <trkpt lat="44.18493" lon="6.6656">
        <ele>1870.4</ele>
        <time>2013-09-03T16:35:48Z</time>
      </trkpt>
      <trkpt lat="44.18492" lon="6.66567">
        <ele>1870.9</ele>
        <time>2013-09-03T16:35:52Z</time>
      </trkpt>
      <trkpt lat="44.18492" lon="6.66569">
        <ele>1870.4</ele>
        <time>2013-09-03T16:35:53Z</time>
      </trkpt>
      <trkpt lat="44.18492" lon="6.66571">
        <ele>1870.9</ele>
        <time>2013-09-03T16:35:54Z</time>
      </trkpt>
      <trkpt lat="44.18492" lon="6.66573">
        <ele>1871.3</ele>
        <time>2013-09-03T16:35:55Z</time>
      </trkpt>
      <trkpt lat="44.18492" lon="6.66575">
        <ele>1871.3</ele>
        <time>2013-09-03T16:35:56Z</time>
      </trkpt>
      <trkpt lat="44.18492" lon="6.66577">
        <ele>1871.3</ele>
        <time>2013-09-03T16:35:57Z</time>
      </trkpt>
      <trkpt lat="44.18492" lon="6.66579">
        <ele>1871.3</ele>
        <time>2013-09-03T16:35:58Z</time>
      </trkpt>
      <trkpt lat="44.18491" lon="6.6658">
        <ele>1871.8</ele>
        <time>2013-09-03T16:35:59Z</time>
      </trkpt>
      <trkpt lat="44.1849" lon="6.66581">
        <ele>1871.8</ele>
        <time>2013-09-03T16:36:00Z</time>
      </trkpt>
      <trkpt lat="44.18477" lon="6.66608">
        <ele>1873.8</ele>
        <time>2013-09-03T16:36:18Z</time>
      </trkpt>
      <trkpt lat="44.18477" lon="6.6661">
        <ele>1873.8</ele>
        <time>2013-09-03T16:36:19Z</time>
      </trkpt>
      <trkpt lat="44.18477" lon="6.66612">
        <ele>1873.8</ele>
        <time>2013-09-03T16:36:20Z</time>
      </trkpt>
      <trkpt lat="44.18476" lon="6.66614">
        <ele>1874.2</ele>
        <time>2013-09-03T16:36:21Z</time>
      </trkpt>
      <trkpt lat="44.18476" lon="6.66615">
        <ele>1874.2</ele>
        <time>2013-09-03T16:36:22Z</time>
      </trkpt>
      <trkpt lat="44.18468" lon="6.66651">
        <ele>1876.2</ele>
        <time>2013-09-03T16:36:41Z</time>
      </trkpt>
      <trkpt lat="44.1847" lon="6.66683">
        <ele>1878.1</ele>
        <time>2013-09-03T16:36:57Z</time>
      </trkpt>
      <trkpt lat="44.18477" lon="6.66712">
        <ele>1880</ele>
        <time>2013-09-03T16:37:11Z</time>
      </trkpt>
      <trkpt lat="44.18477" lon="6.66714">
        <ele>1880.5</ele>
        <time>2013-09-03T16:37:12Z</time>
      </trkpt>
      <trkpt lat="44.18481" lon="6.66746">
        <ele>1881.9</ele>
        <time>2013-09-03T16:37:28Z</time>
      </trkpt>
      <trkpt lat="44.18492" lon="6.66769">
        <ele>1884.3</ele>
        <time>2013-09-03T16:37:42Z</time>
      </trkpt>
      <trkpt lat="44.18505" lon="6.66808">
        <ele>1886.7</ele>
        <time>2013-09-03T16:38:01Z</time>
      </trkpt>
      <trkpt lat="44.18508" lon="6.66837">
        <ele>1888.2</ele>
        <time>2013-09-03T16:38:15Z</time>
      </trkpt>
      <trkpt lat="44.18511" lon="6.66859">
        <ele>1890.1</ele>
        <time>2013-09-03T16:38:26Z</time>
      </trkpt>
      <trkpt lat="44.1852" lon="6.66892">
        <ele>1891.5</ele>
        <time>2013-09-03T16:38:42Z</time>
      </trkpt>
      <trkpt lat="44.18522" lon="6.66899">
        <ele>1892.5</ele>
        <time>2013-09-03T16:38:46Z</time>
      </trkpt>
      <trkpt lat="44.18523" lon="6.669">
        <ele>1892.5</ele>
        <time>2013-09-03T16:38:47Z</time>
      </trkpt>
      <trkpt lat="44.18523" lon="6.66902">
        <ele>1893</ele>
        <time>2013-09-03T16:38:48Z</time>
      </trkpt>
      <trkpt lat="44.18523" lon="6.66904">
        <ele>1893</ele>
        <time>2013-09-03T16:38:49Z</time>
      </trkpt>
      <trkpt lat="44.18524" lon="6.66906">
        <ele>1893.5</ele>
        <time>2013-09-03T16:38:50Z</time>
      </trkpt>
      <trkpt lat="44.18529" lon="6.66937">
        <ele>1895.9</ele>
        <time>2013-09-03T16:39:06Z</time>
      </trkpt>
      <trkpt lat="44.18532" lon="6.66973">
        <ele>1897.3</ele>
        <time>2013-09-03T16:39:23Z</time>
      </trkpt>
      <trkpt lat="44.18529" lon="6.67005">
        <ele>1900.2</ele>
        <time>2013-09-03T16:39:40Z</time>
      </trkpt>
      <trkpt lat="44.1852" lon="6.67041">
        <ele>1902.1</ele>
        <time>2013-09-03T16:39:58Z</time>
      </trkpt>
      <trkpt lat="44.18511" lon="6.6706">
        <ele>1903.1</ele>
        <time>2013-09-03T16:40:12Z</time>
      </trkpt>
      <trkpt lat="44.18495" lon="6.6708">
        <ele>1905</ele>
        <time>2013-09-03T16:40:32Z</time>
      </trkpt>
      <trkpt lat="44.18481" lon="6.67091">
        <ele>1906.4</ele>
        <time>2013-09-03T16:40:48Z</time>
      </trkpt>
      <trkpt lat="44.18468" lon="6.67107">
        <ele>1908.4</ele>
        <time>2013-09-03T16:41:06Z</time>
      </trkpt>
      <trkpt lat="44.18454" lon="6.67124">
        <ele>1910.8</ele>
        <time>2013-09-03T16:41:25Z</time>
      </trkpt>
      <trkpt lat="44.18439" lon="6.67137">
        <ele>1912.2</ele>
        <time>2013-09-03T16:41:44Z</time>
      </trkpt>
      <trkpt lat="44.18424" lon="6.67145">
        <ele>1912.7</ele>
        <time>2013-09-03T16:42:00Z</time>
      </trkpt>
      <trkpt lat="44.18415" lon="6.6715">
        <ele>1913.6</ele>
        <time>2013-09-03T16:42:08Z</time>
      </trkpt>
      <trkpt lat="44.18399" lon="6.67156">
        <ele>1915.1</ele>
        <time>2013-09-03T16:42:25Z</time>
      </trkpt>
      <trkpt lat="44.18397" lon="6.6716">
        <ele>1915.1</ele>
        <time>2013-09-03T16:42:33Z</time>
      </trkpt>
      <trkpt lat="44.1838" lon="6.67167">
        <ele>1917</ele>
        <time>2013-09-03T16:42:45Z</time>
      </trkpt>
      <trkpt lat="44.18357" lon="6.67195">
        <ele>1918.9</ele>
        <time>2013-09-03T16:43:02Z</time>
      </trkpt>
      <trkpt lat="44.18336" lon="6.6722">
        <ele>1920.4</ele>
        <time>2013-09-03T16:43:18Z</time>
      </trkpt>
      <trkpt lat="44.18292" lon="6.67239">
        <ele>1923.3</ele>
        <time>2013-09-03T16:43:41Z</time>
      </trkpt>
      <trkpt lat="44.1826" lon="6.67255">
        <ele>1925.2</ele>
        <time>2013-09-03T16:43:59Z</time>
      </trkpt>
      <trkpt lat="44.18226" lon="6.67269">
        <ele>1927.6</ele>
        <time>2013-09-03T16:44:16Z</time>
      </trkpt>
      <trkpt lat="44.18187" lon="6.6727">
        <ele>1929.5</ele>
        <time>2013-09-03T16:44:36Z</time>
      </trkpt>
      <trkpt lat="44.18179" lon="6.673">
        <ele>1931.4</ele>
        <time>2013-09-03T16:44:47Z</time>
      </trkpt>
      <trkpt lat="44.18163" lon="6.67355">
        <ele>1931.4</ele>
        <time>2013-09-03T16:45:00Z</time>
      </trkpt>
      <trkpt lat="44.18138" lon="6.67418">
        <ele>1933.4</ele>
        <time>2013-09-03T16:45:15Z</time>
      </trkpt>
      <trkpt lat="44.18123" lon="6.67465">
        <ele>1935.8</ele>
        <time>2013-09-03T16:45:32Z</time>
      </trkpt>
      <trkpt lat="44.18116" lon="6.67504">
        <ele>1938.2</ele>
        <time>2013-09-03T16:45:47Z</time>
      </trkpt>
      <trkpt lat="44.18105" lon="6.67542">
        <ele>1940.6</ele>
        <time>2013-09-03T16:46:04Z</time>
      </trkpt>
      <trkpt lat="44.18099" lon="6.67591">
        <ele>1943.4</ele>
        <time>2013-09-03T16:46:24Z</time>
      </trkpt>
      <trkpt lat="44.18098" lon="6.67601">
        <ele>1944.4</ele>
        <time>2013-09-03T16:46:28Z</time>
      </trkpt>
      <trkpt lat="44.181" lon="6.6764">
        <ele>1946.8</ele>
        <time>2013-09-03T16:46:43Z</time>
      </trkpt>
      <trkpt lat="44.18094" lon="6.6768">
        <ele>1948.7</ele>
        <time>2013-09-03T16:46:59Z</time>
      </trkpt>
      <trkpt lat="44.1808" lon="6.67715">
        <ele>1951.1</ele>
        <time>2013-09-03T16:47:16Z</time>
      </trkpt>
      <trkpt lat="44.18074" lon="6.67733">
        <ele>1953.1</ele>
        <time>2013-09-03T16:47:26Z</time>
      </trkpt>
      <trkpt lat="44.18062" lon="6.67765">
        <ele>1955.5</ele>
        <time>2013-09-03T16:47:41Z</time>
      </trkpt>
      <trkpt lat="44.18055" lon="6.67805">
        <ele>1957.4</ele>
        <time>2013-09-03T16:47:58Z</time>
      </trkpt>
      <trkpt lat="44.18064" lon="6.67831">
        <ele>1958.8</ele>
        <time>2013-09-03T16:48:11Z</time>
      </trkpt>
      <trkpt lat="44.18065" lon="6.67832">
        <ele>1959.3</ele>
        <time>2013-09-03T16:48:12Z</time>
      </trkpt>
      <trkpt lat="44.18066" lon="6.67833">
        <ele>1959.3</ele>
        <time>2013-09-03T16:48:13Z</time>
      </trkpt>
      <trkpt lat="44.18066" lon="6.67835">
        <ele>1959.8</ele>
        <time>2013-09-03T16:48:14Z</time>
      </trkpt>
      <trkpt lat="44.18067" lon="6.67837">
        <ele>1959.3</ele>
        <time>2013-09-03T16:48:15Z</time>
      </trkpt>
      <trkpt lat="44.18067" lon="6.67839">
        <ele>1959.3</ele>
        <time>2013-09-03T16:48:16Z</time>
      </trkpt>
      <trkpt lat="44.18067" lon="6.67842">
        <ele>1959.8</ele>
        <time>2013-09-03T16:48:17Z</time>
      </trkpt>
      <trkpt lat="44.18067" lon="6.67844">
        <ele>1959.8</ele>
        <time>2013-09-03T16:48:18Z</time>
      </trkpt>
      <trkpt lat="44.18067" lon="6.67846">
        <ele>1960.3</ele>
        <time>2013-09-03T16:48:19Z</time>
      </trkpt>
      <trkpt lat="44.18068" lon="6.67848">
        <ele>1960.8</ele>
        <time>2013-09-03T16:48:20Z</time>
      </trkpt>
      <trkpt lat="44.1807" lon="6.67889">
        <ele>1962.7</ele>
        <time>2013-09-03T16:48:39Z</time>
      </trkpt>
      <trkpt lat="44.18058" lon="6.67921">
        <ele>1966</ele>
        <time>2013-09-03T16:48:55Z</time>
      </trkpt>
      <trkpt lat="44.18045" lon="6.67949">
        <ele>1968.4</ele>
        <time>2013-09-03T16:49:11Z</time>
      </trkpt>
      <trkpt lat="44.18025" lon="6.6797">
        <ele>1969.4</ele>
        <time>2013-09-03T16:49:27Z</time>
      </trkpt>
      <trkpt lat="44.17999" lon="6.67979">
        <ele>1972.8</ele>
        <time>2013-09-03T16:49:43Z</time>
      </trkpt>
      <trkpt lat="44.17969" lon="6.67976">
        <ele>1974.7</ele>
        <time>2013-09-03T16:50:02Z</time>
      </trkpt>
      <trkpt lat="44.17932" lon="6.67978">
        <ele>1977.6</ele>
        <time>2013-09-03T16:50:23Z</time>
      </trkpt>
      <trkpt lat="44.17906" lon="6.68">
        <ele>1980</ele>
        <time>2013-09-03T16:50:41Z</time>
      </trkpt>
      <trkpt lat="44.17898" lon="6.68016">
        <ele>1981.4</ele>
        <time>2013-09-03T16:50:50Z</time>
      </trkpt>
      <trkpt lat="44.17887" lon="6.68051">
        <ele>1983.3</ele>
        <time>2013-09-03T16:51:08Z</time>
      </trkpt>
      <trkpt lat="44.17876" lon="6.68084">
        <ele>1986.2</ele>
        <time>2013-09-03T16:51:26Z</time>
      </trkpt>
      <trkpt lat="44.17881" lon="6.68117">
        <ele>1988.6</ele>
        <time>2013-09-03T16:51:42Z</time>
      </trkpt>
      <trkpt lat="44.1788" lon="6.68152">
        <ele>1991</ele>
        <time>2013-09-03T16:51:58Z</time>
      </trkpt>
      <trkpt lat="44.17872" lon="6.68181">
        <ele>1993.4</ele>
        <time>2013-09-03T16:52:13Z</time>
      </trkpt>
      <trkpt lat="44.17869" lon="6.68212">
        <ele>1995.4</ele>
        <time>2013-09-03T16:52:27Z</time>
      </trkpt>
      <trkpt lat="44.17862" lon="6.68244">
        <ele>1998.2</ele>
        <time>2013-09-03T16:52:42Z</time>
      </trkpt>
      <trkpt lat="44.17861" lon="6.68276">
        <ele>2000.6</ele>
        <time>2013-09-03T16:52:58Z</time>
      </trkpt>
      <trkpt lat="44.17849" lon="6.68306">
        <ele>2003.5</ele>
        <time>2013-09-03T16:53:15Z</time>
      </trkpt>
      <trkpt lat="44.17834" lon="6.68318">
        <ele>2005.9</ele>
        <time>2013-09-03T16:53:26Z</time>
      </trkpt>
      <trkpt lat="44.17833" lon="6.68319">
        <ele>2005.5</ele>
        <time>2013-09-03T16:53:27Z</time>
      </trkpt>
      <trkpt lat="44.17826" lon="6.68339">
        <ele>2006.4</ele>
        <time>2013-09-03T16:53:38Z</time>
      </trkpt>
      <trkpt lat="44.17826" lon="6.68375">
        <ele>2008.3</ele>
        <time>2013-09-03T16:53:52Z</time>
      </trkpt>
      <trkpt lat="44.17821" lon="6.68419">
        <ele>2011.2</ele>
        <time>2013-09-03T16:54:08Z</time>
      </trkpt>
      <trkpt lat="44.17805" lon="6.68457">
        <ele>2012.7</ele>
        <time>2013-09-03T16:54:26Z</time>
      </trkpt>
      <trkpt lat="44.17777" lon="6.68477">
        <ele>2016</ele>
        <time>2013-09-03T16:54:44Z</time>
      </trkpt>
      <trkpt lat="44.17762" lon="6.6851">
        <ele>2017.5</ele>
        <time>2013-09-03T16:55:00Z</time>
      </trkpt>
      <trkpt lat="44.17759" lon="6.68553">
        <ele>2019.4</ele>
        <time>2013-09-03T16:55:20Z</time>
      </trkpt>
      <trkpt lat="44.17769" lon="6.68587">
        <ele>2022.8</ele>
        <time>2013-09-03T16:55:39Z</time>
      </trkpt>
      <trkpt lat="44.17774" lon="6.68595">
        <ele>2022.3</ele>
        <time>2013-09-03T16:55:44Z</time>
      </trkpt>
      <trkpt lat="44.17775" lon="6.68597">
        <ele>2022.3</ele>
        <time>2013-09-03T16:55:45Z</time>
      </trkpt>
      <trkpt lat="44.17778" lon="6.68625">
        <ele>2024.7</ele>
        <time>2013-09-03T16:56:01Z</time>
      </trkpt>
      <trkpt lat="44.17776" lon="6.68644">
        <ele>2025.6</ele>
        <time>2013-09-03T16:56:18Z</time>
      </trkpt>
      <trkpt lat="44.17775" lon="6.68659">
        <ele>2026.6</ele>
        <time>2013-09-03T16:56:43Z</time>
      </trkpt>
      <trkpt lat="44.17771" lon="6.6867">
        <ele>2027.6</ele>
        <time>2013-09-03T16:56:59Z</time>
      </trkpt>
      <trkpt lat="44.17764" lon="6.68698">
        <ele>2029.5</ele>
        <time>2013-09-03T16:57:14Z</time>
      </trkpt>
      <trkpt lat="44.17746" lon="6.68723">
        <ele>2031.4</ele>
        <time>2013-09-03T16:57:31Z</time>
      </trkpt>
      <trkpt lat="44.17744" lon="6.68723">
        <ele>2031.9</ele>
        <time>2013-09-03T16:57:32Z</time>
      </trkpt>
      <trkpt lat="44.17742" lon="6.68722">
        <ele>2031.9</ele>
        <time>2013-09-03T16:57:33Z</time>
      </trkpt>
      <trkpt lat="44.17741" lon="6.68721">
        <ele>2031.4</ele>
        <time>2013-09-03T16:57:34Z</time>
      </trkpt>
      <trkpt lat="44.1774" lon="6.68718">
        <ele>2031.9</ele>
        <time>2013-09-03T16:57:35Z</time>
      </trkpt>
      <trkpt lat="44.1774" lon="6.68716">
        <ele>2031.9</ele>
        <time>2013-09-03T16:57:36Z</time>
      </trkpt>
      <trkpt lat="44.1774" lon="6.68713">
        <ele>2032.4</ele>
        <time>2013-09-03T16:57:37Z</time>
      </trkpt>
      <trkpt lat="44.1774" lon="6.68711">
        <ele>2032.4</ele>
        <time>2013-09-03T16:57:38Z</time>
      </trkpt>
      <trkpt lat="44.17747" lon="6.68688">
        <ele>2033.8</ele>
        <time>2013-09-03T16:57:48Z</time>
      </trkpt>
      <trkpt lat="44.17748" lon="6.68686">
        <ele>2034.3</ele>
        <time>2013-09-03T16:57:49Z</time>
      </trkpt>
      <trkpt lat="44.17748" lon="6.68684">
        <ele>2034.3</ele>
        <time>2013-09-03T16:57:50Z</time>
      </trkpt>
      <trkpt lat="44.17748" lon="6.68682">
        <ele>2034.3</ele>
        <time>2013-09-03T16:57:51Z</time>
      </trkpt>
      <trkpt lat="44.17748" lon="6.6868">
        <ele>2034.8</ele>
        <time>2013-09-03T16:57:52Z</time>
      </trkpt>
      <trkpt lat="44.17748" lon="6.68679">
        <ele>2034.8</ele>
        <time>2013-09-03T16:57:53Z</time>
      </trkpt>
      <trkpt lat="44.17748" lon="6.68677">
        <ele>2034.3</ele>
        <time>2013-09-03T16:57:54Z</time>
      </trkpt>
      <trkpt lat="44.17748" lon="6.68672">
        <ele>2035.3</ele>
        <time>2013-09-03T16:57:57Z</time>
      </trkpt>
      <trkpt lat="44.17748" lon="6.68667">
        <ele>2035.3</ele>
        <time>2013-09-03T16:58:00Z</time>
      </trkpt>
      <trkpt lat="44.17747" lon="6.68665">
        <ele>2035.7</ele>
        <time>2013-09-03T16:58:01Z</time>
      </trkpt>
      <trkpt lat="44.17741" lon="6.68631">
        <ele>2037.7</ele>
        <time>2013-09-03T16:58:18Z</time>
      </trkpt>
      <trkpt lat="44.17737" lon="6.68601">
        <ele>2039.6</ele>
        <time>2013-09-03T16:58:33Z</time>
      </trkpt>
      <trkpt lat="44.17731" lon="6.68569">
        <ele>2042.9</ele>
        <time>2013-09-03T16:58:50Z</time>
      </trkpt>
      <trkpt lat="44.17727" lon="6.68561">
        <ele>2042.9</ele>
        <time>2013-09-03T16:58:55Z</time>
      </trkpt>
      <trkpt lat="44.17726" lon="6.6856">
        <ele>2042.5</ele>
        <time>2013-09-03T16:58:56Z</time>
      </trkpt>
      <trkpt lat="44.17724" lon="6.6856">
        <ele>2042.9</ele>
        <time>2013-09-03T16:58:57Z</time>
      </trkpt>
      <trkpt lat="44.17723" lon="6.68561">
        <ele>2042.9</ele>
        <time>2013-09-03T16:58:58Z</time>
      </trkpt>
      <trkpt lat="44.17722" lon="6.68562">
        <ele>2043.4</ele>
        <time>2013-09-03T16:58:59Z</time>
      </trkpt>
      <trkpt lat="44.17721" lon="6.68564">
        <ele>2043.9</ele>
        <time>2013-09-03T16:59:00Z</time>
      </trkpt>
      <trkpt lat="44.1772" lon="6.68566">
        <ele>2042.9</ele>
        <time>2013-09-03T16:59:01Z</time>
      </trkpt>
      <trkpt lat="44.1772" lon="6.68568">
        <ele>2044.4</ele>
        <time>2013-09-03T16:59:02Z</time>
      </trkpt>
      <trkpt lat="44.1772" lon="6.68571">
        <ele>2043.9</ele>
        <time>2013-09-03T16:59:03Z</time>
      </trkpt>
      <trkpt lat="44.1772" lon="6.68573">
        <ele>2043.9</ele>
        <time>2013-09-03T16:59:04Z</time>
      </trkpt>
      <trkpt lat="44.17721" lon="6.68607">
        <ele>2045.8</ele>
        <time>2013-09-03T16:59:21Z</time>
      </trkpt>
      <trkpt lat="44.177" lon="6.68623">
        <ele>2048.2</ele>
        <time>2013-09-03T16:59:39Z</time>
      </trkpt>
      <trkpt lat="44.17678" lon="6.68619">
        <ele>2050.6</ele>
        <time>2013-09-03T16:59:56Z</time>
      </trkpt>
      <trkpt lat="44.17655" lon="6.68611">
        <ele>2052.6</ele>
        <time>2013-09-03T17:00:13Z</time>
      </trkpt>
      <trkpt lat="44.17636" lon="6.68584">
        <ele>2054.5</ele>
        <time>2013-09-03T17:00:31Z</time>
      </trkpt>
      <trkpt lat="44.17616" lon="6.68596">
        <ele>2057.4</ele>
        <time>2013-09-03T17:00:45Z</time>
      </trkpt>
      <trkpt lat="44.17597" lon="6.68628">
        <ele>2058.8</ele>
        <time>2013-09-03T17:01:04Z</time>
      </trkpt>
      <trkpt lat="44.17584" lon="6.68654">
        <ele>2061.2</ele>
        <time>2013-09-03T17:01:20Z</time>
      </trkpt>
      <trkpt lat="44.17578" lon="6.68693">
        <ele>2063.6</ele>
        <time>2013-09-03T17:01:40Z</time>
      </trkpt>
      <trkpt lat="44.17571" lon="6.68732">
        <ele>2066</ele>
        <time>2013-09-03T17:01:59Z</time>
      </trkpt>
      <trkpt lat="44.17576" lon="6.68769">
        <ele>2067.9</ele>
        <time>2013-09-03T17:02:18Z</time>
      </trkpt>
      <trkpt lat="44.17582" lon="6.68796">
        <ele>2070.3</ele>
        <time>2013-09-03T17:02:33Z</time>
      </trkpt>
      <trkpt lat="44.17582" lon="6.68798">
        <ele>2069.9</ele>
        <time>2013-09-03T17:02:34Z</time>
      </trkpt>
      <trkpt lat="44.17583" lon="6.688">
        <ele>2070.3</ele>
        <time>2013-09-03T17:02:35Z</time>
      </trkpt>
      <trkpt lat="44.17584" lon="6.68801">
        <ele>2070.3</ele>
        <time>2013-09-03T17:02:36Z</time>
      </trkpt>
      <trkpt lat="44.17585" lon="6.68802">
        <ele>2070.8</ele>
        <time>2013-09-03T17:02:37Z</time>
      </trkpt>
      <trkpt lat="44.17591" lon="6.68834">
        <ele>2073.7</ele>
        <time>2013-09-03T17:02:54Z</time>
      </trkpt>
      <trkpt lat="44.17583" lon="6.68867">
        <ele>2075.6</ele>
        <time>2013-09-03T17:03:12Z</time>
      </trkpt>
      <trkpt lat="44.17584" lon="6.68873">
        <ele>2075.6</ele>
        <time>2013-09-03T17:03:16Z</time>
      </trkpt>
      <trkpt lat="44.17585" lon="6.68882">
        <ele>2077.1</ele>
        <time>2013-09-03T17:03:21Z</time>
      </trkpt>
      <trkpt lat="44.17573" lon="6.68919">
        <ele>2079.5</ele>
        <time>2013-09-03T17:03:40Z</time>
      </trkpt>
      <trkpt lat="44.17549" lon="6.68946">
        <ele>2081.4</ele>
        <time>2013-09-03T17:03:58Z</time>
      </trkpt>
      <trkpt lat="44.17521" lon="6.68973">
        <ele>2082.8</ele>
        <time>2013-09-03T17:04:20Z</time>
      </trkpt>
      <trkpt lat="44.17506" lon="6.68996">
        <ele>2083.3</ele>
        <time>2013-09-03T17:04:36Z</time>
      </trkpt>
      <trkpt lat="44.17503" lon="6.69021">
        <ele>2084.3</ele>
        <time>2013-09-03T17:04:49Z</time>
      </trkpt>
      <trkpt lat="44.1751" lon="6.69053">
        <ele>2084.8</ele>
        <time>2013-09-03T17:05:02Z</time>
      </trkpt>
      <trkpt lat="44.17534" lon="6.69076">
        <ele>2086.2</ele>
        <time>2013-09-03T17:05:16Z</time>
      </trkpt>
      <trkpt lat="44.17553" lon="6.69095">
        <ele>2087.6</ele>
        <time>2013-09-03T17:05:28Z</time>
      </trkpt>
      <trkpt lat="44.17568" lon="6.69117">
        <ele>2089.1</ele>
        <time>2013-09-03T17:05:41Z</time>
      </trkpt>
      <trkpt lat="44.17599" lon="6.69114">
        <ele>2092</ele>
        <time>2013-09-03T17:06:00Z</time>
      </trkpt>
      <trkpt lat="44.17606" lon="6.69112">
        <ele>2092</ele>
        <time>2013-09-03T17:06:04Z</time>
      </trkpt>
      <trkpt lat="44.17608" lon="6.69113">
        <ele>2092</ele>
        <time>2013-09-03T17:06:05Z</time>
      </trkpt>
      <trkpt lat="44.17627" lon="6.69133">
        <ele>2094.9</ele>
        <time>2013-09-03T17:06:20Z</time>
      </trkpt>
      <trkpt lat="44.17621" lon="6.69167">
        <ele>2093.9</ele>
        <time>2013-09-03T17:06:31Z</time>
      </trkpt>
      <trkpt lat="44.17622" lon="6.69173">
        <ele>2094.4</ele>
        <time>2013-09-03T17:06:32Z</time>
      </trkpt>
      <trkpt lat="44.17624" lon="6.69178">
        <ele>2092.9</ele>
        <time>2013-09-03T17:06:33Z</time>
      </trkpt>
      <trkpt lat="44.17626" lon="6.69184">
        <ele>2093.4</ele>
        <time>2013-09-03T17:06:34Z</time>
      </trkpt>
      <trkpt lat="44.17628" lon="6.69191">
        <ele>2092.5</ele>
        <time>2013-09-03T17:06:35Z</time>
      </trkpt>
      <trkpt lat="44.1763" lon="6.69198">
        <ele>2092.5</ele>
        <time>2013-09-03T17:06:36Z</time>
      </trkpt>
      <trkpt lat="44.17637" lon="6.69221">
        <ele>2090</ele>
        <time>2013-09-03T17:06:39Z</time>
      </trkpt>
      <trkpt lat="44.17638" lon="6.6923">
        <ele>2089.6</ele>
        <time>2013-09-03T17:06:40Z</time>
      </trkpt>
      <trkpt lat="44.17637" lon="6.69241">
        <ele>2088.6</ele>
        <time>2013-09-03T17:06:41Z</time>
      </trkpt>
      <trkpt lat="44.17634" lon="6.69252">
        <ele>2087.6</ele>
        <time>2013-09-03T17:06:42Z</time>
      </trkpt>
      <trkpt lat="44.17629" lon="6.69263">
        <ele>2086.2</ele>
        <time>2013-09-03T17:06:43Z</time>
      </trkpt>
      <trkpt lat="44.17625" lon="6.69274">
        <ele>2085.7</ele>
        <time>2013-09-03T17:06:44Z</time>
      </trkpt>
      <trkpt lat="44.17615" lon="6.69296">
        <ele>2084.8</ele>
        <time>2013-09-03T17:06:46Z</time>
      </trkpt>
      <trkpt lat="44.17611" lon="6.69307">
        <ele>2084.8</ele>
        <time>2013-09-03T17:06:47Z</time>
      </trkpt>
      <trkpt lat="44.17609" lon="6.69319">
        <ele>2084.3</ele>
        <time>2013-09-03T17:06:48Z</time>
      </trkpt>
      <trkpt lat="44.17607" lon="6.6933">
        <ele>2084.8</ele>
        <time>2013-09-03T17:06:49Z</time>
      </trkpt>
      <trkpt lat="44.17607" lon="6.6934">
        <ele>2085.7</ele>
        <time>2013-09-03T17:06:50Z</time>
      </trkpt>
      <trkpt lat="44.17603" lon="6.69367">
        <ele>2086.2</ele>
        <time>2013-09-03T17:06:53Z</time>
      </trkpt>
      <trkpt lat="44.176" lon="6.69374">
        <ele>2085.7</ele>
        <time>2013-09-03T17:06:54Z</time>
      </trkpt>
      <trkpt lat="44.17557" lon="6.69446">
        <ele>2087.2</ele>
        <time>2013-09-03T17:07:08Z</time>
      </trkpt>
      <trkpt lat="44.17533" lon="6.6945">
        <ele>2088.1</ele>
        <time>2013-09-03T17:07:18Z</time>
      </trkpt>
      <trkpt lat="44.17532" lon="6.69452">
        <ele>2088.1</ele>
        <time>2013-09-03T17:07:19Z</time>
      </trkpt>
      <trkpt lat="44.1753" lon="6.69455">
        <ele>2088.1</ele>
        <time>2013-09-03T17:07:20Z</time>
      </trkpt>
      <trkpt lat="44.17529" lon="6.69458">
        <ele>2088.1</ele>
        <time>2013-09-03T17:07:21Z</time>
      </trkpt>
      <trkpt lat="44.17529" lon="6.69462">
        <ele>2088.1</ele>
        <time>2013-09-03T17:07:22Z</time>
      </trkpt>
      <trkpt lat="44.17529" lon="6.69465">
        <ele>2088.1</ele>
        <time>2013-09-03T17:07:23Z</time>
      </trkpt>
      <trkpt lat="44.17522" lon="6.69512">
        <ele>2088.6</ele>
        <time>2013-09-03T17:07:36Z</time>
      </trkpt>
      <trkpt lat="44.17519" lon="6.69568">
        <ele>2089.6</ele>
        <time>2013-09-03T17:07:51Z</time>
      </trkpt>
      <trkpt lat="44.17528" lon="6.69627">
        <ele>2090.5</ele>
        <time>2013-09-03T17:08:06Z</time>
      </trkpt>
      <trkpt lat="44.17533" lon="6.69662">
        <ele>2089.6</ele>
        <time>2013-09-03T17:08:16Z</time>
      </trkpt>
      <trkpt lat="44.17519" lon="6.69722">
        <ele>2088.6</ele>
        <time>2013-09-03T17:08:27Z</time>
      </trkpt>
      <trkpt lat="44.17519" lon="6.69728">
        <ele>2088.1</ele>
        <time>2013-09-03T17:08:28Z</time>
      </trkpt>
      <trkpt lat="44.1752" lon="6.69734">
        <ele>2088.6</ele>
        <time>2013-09-03T17:08:29Z</time>
      </trkpt>
      <trkpt lat="44.17521" lon="6.6974">
        <ele>2088.1</ele>
        <time>2013-09-03T17:08:30Z</time>
      </trkpt>
      <trkpt lat="44.17522" lon="6.69746">
        <ele>2088.6</ele>
        <time>2013-09-03T17:08:31Z</time>
      </trkpt>
      <trkpt lat="44.17527" lon="6.69772">
        <ele>2086.7</ele>
        <time>2013-09-03T17:08:37Z</time>
      </trkpt>
      <trkpt lat="44.17529" lon="6.69772">
        <ele>2087.2</ele>
        <time>2013-09-03T17:08:38Z</time>
      </trkpt>
      <trkpt lat="44.1753" lon="6.6977">
        <ele>2087.2</ele>
        <time>2013-09-03T17:08:52Z</time>
      </trkpt>
      <trkpt lat="44.17529" lon="6.69775">
        <ele>2087.6</ele>
        <time>2013-09-03T17:09:18Z</time>
      </trkpt>
      <trkpt lat="44.17528" lon="6.69776">
        <ele>2087.6</ele>
        <time>2013-09-03T17:09:19Z</time>
      </trkpt>
      <trkpt lat="44.17527" lon="6.69778">
        <ele>2087.2</ele>
        <time>2013-09-03T17:09:20Z</time>
      </trkpt>
      <trkpt lat="44.17525" lon="6.69779">
        <ele>2086.2</ele>
        <time>2013-09-03T17:09:21Z</time>
      </trkpt>
      <trkpt lat="44.17523" lon="6.6978">
        <ele>2087.2</ele>
        <time>2013-09-03T17:09:22Z</time>
      </trkpt>
      <trkpt lat="44.17521" lon="6.69782">
        <ele>2086.7</ele>
        <time>2013-09-03T17:09:23Z</time>
      </trkpt>
      <trkpt lat="44.17497" lon="6.69803">
        <ele>2086.2</ele>
        <time>2013-09-03T17:09:36Z</time>
      </trkpt>
      <trkpt lat="44.17495" lon="6.69804">
        <ele>2086.7</ele>
        <time>2013-09-03T17:09:37Z</time>
      </trkpt>
      <trkpt lat="44.17494" lon="6.69805">
        <ele>2086.7</ele>
        <time>2013-09-03T17:09:38Z</time>
      </trkpt>
      <trkpt lat="44.17492" lon="6.69805">
        <ele>2086.2</ele>
        <time>2013-09-03T17:09:39Z</time>
      </trkpt>
      <trkpt lat="44.17491" lon="6.69805">
        <ele>2085.7</ele>
        <time>2013-09-03T17:09:40Z</time>
      </trkpt>
      <trkpt lat="44.1749" lon="6.69806">
        <ele>2086.7</ele>
        <time>2013-09-03T17:09:41Z</time>
      </trkpt>
      <trkpt lat="44.17452" lon="6.698">
        <ele>2086.7</ele>
        <time>2013-09-03T17:09:58Z</time>
      </trkpt>
      <trkpt lat="44.17434" lon="6.69824">
        <ele>2087.2</ele>
        <time>2013-09-03T17:10:07Z</time>
      </trkpt>
      <trkpt lat="44.17417" lon="6.69862">
        <ele>2088.6</ele>
        <time>2013-09-03T17:10:22Z</time>
      </trkpt>
      <trkpt lat="44.17397" lon="6.69875">
        <ele>2088.6</ele>
        <time>2013-09-03T17:10:37Z</time>
      </trkpt>
      <trkpt lat="44.1736" lon="6.69895">
        <ele>2089.1</ele>
        <time>2013-09-03T17:10:54Z</time>
      </trkpt>
      <trkpt lat="44.17345" lon="6.69908">
        <ele>2085.7</ele>
        <time>2013-09-03T17:11:00Z</time>
      </trkpt>
      <trkpt lat="44.17343" lon="6.69912">
        <ele>2090</ele>
        <time>2013-09-03T17:11:01Z</time>
      </trkpt>
      <trkpt lat="44.17324" lon="6.69963">
        <ele>2089.1</ele>
        <time>2013-09-03T17:11:16Z</time>
      </trkpt>
      <trkpt lat="44.17295" lon="6.6999">
        <ele>2087.6</ele>
        <time>2013-09-03T17:11:31Z</time>
      </trkpt>
      <trkpt lat="44.17294" lon="6.69991">
        <ele>2088.6</ele>
        <time>2013-09-03T17:11:33Z</time>
      </trkpt>
      <trkpt lat="44.17292" lon="6.69991">
        <ele>2088.1</ele>
        <time>2013-09-03T17:11:34Z</time>
      </trkpt>
      <trkpt lat="44.1729" lon="6.69991">
        <ele>2088.1</ele>
        <time>2013-09-03T17:11:47Z</time>
      </trkpt>
      <trkpt lat="44.17289" lon="6.69991">
        <ele>2088.6</ele>
        <time>2013-09-03T17:12:22Z</time>
      </trkpt>
      <trkpt lat="44.17288" lon="6.6999">
        <ele>2088.1</ele>
        <time>2013-09-03T17:12:46Z</time>
      </trkpt>
      <trkpt lat="44.17291" lon="6.69993">
        <ele>2089.1</ele>
        <time>2013-09-03T17:13:03Z</time>
      </trkpt>
      <trkpt lat="44.17291" lon="6.69994">
        <ele>2088.1</ele>
        <time>2013-09-03T17:13:26Z</time>
      </trkpt>
      <trkpt lat="44.17291" lon="6.69997">
        <ele>2088.6</ele>
        <time>2013-09-03T17:13:35Z</time>
      </trkpt>
      <trkpt lat="44.17291" lon="6.69998">
        <ele>2089.1</ele>
        <time>2013-09-03T17:13:36Z</time>
      </trkpt>
      <trkpt lat="44.17292" lon="6.7">
        <ele>2088.6</ele>
        <time>2013-09-03T17:13:37Z</time>
      </trkpt>
      <trkpt lat="44.17293" lon="6.70002">
        <ele>2089.1</ele>
        <time>2013-09-03T17:13:38Z</time>
      </trkpt>
      <trkpt lat="44.17295" lon="6.70003">
        <ele>2088.6</ele>
        <time>2013-09-03T17:13:39Z</time>
      </trkpt>
      <trkpt lat="44.17296" lon="6.70003">
        <ele>2088.6</ele>
        <time>2013-09-03T17:13:40Z</time>
      </trkpt>
      <trkpt lat="44.17297" lon="6.70002">
        <ele>2088.6</ele>
        <time>2013-09-03T17:13:41Z</time>
      </trkpt>
      <trkpt lat="44.17299" lon="6.70002">
        <ele>2088.6</ele>
        <time>2013-09-03T17:13:42Z</time>
      </trkpt>
      <trkpt lat="44.17302" lon="6.7">
        <ele>2087.6</ele>
        <time>2013-09-03T17:13:57Z</time>
      </trkpt>
      <trkpt lat="44.17324" lon="6.69996">
        <ele>2086.2</ele>
        <time>2013-09-03T17:14:04Z</time>
      </trkpt>
      <trkpt lat="44.17328" lon="6.69994">
        <ele>2086.7</ele>
        <time>2013-09-03T17:14:05Z</time>
      </trkpt>
      <trkpt lat="44.1737" lon="6.6996">
        <ele>2083.3</ele>
        <time>2013-09-03T17:14:14Z</time>
      </trkpt>
      <trkpt lat="44.17413" lon="6.69928">
        <ele>2080</ele>
        <time>2013-09-03T17:14:21Z</time>
      </trkpt>
      <trkpt lat="44.17468" lon="6.69892">
        <ele>2078</ele>
        <time>2013-09-03T17:14:31Z</time>
      </trkpt>
      <trkpt lat="44.17502" lon="6.69869">
        <ele>2075.1</ele>
        <time>2013-09-03T17:14:37Z</time>
      </trkpt>
      <trkpt lat="44.17509" lon="6.69867">
        <ele>2075.1</ele>
        <time>2013-09-03T17:14:38Z</time>
      </trkpt>
      <trkpt lat="44.17516" lon="6.69866">
        <ele>2074.7</ele>
        <time>2013-09-03T17:14:39Z</time>
      </trkpt>
      <trkpt lat="44.17529" lon="6.69866">
        <ele>2073.2</ele>
        <time>2013-09-03T17:14:41Z</time>
      </trkpt>
      <trkpt lat="44.17534" lon="6.69869">
        <ele>2072.7</ele>
        <time>2013-09-03T17:14:42Z</time>
      </trkpt>
      <trkpt lat="44.17538" lon="6.69874">
        <ele>2071.8</ele>
        <time>2013-09-03T17:14:43Z</time>
      </trkpt>
      <trkpt lat="44.17541" lon="6.69882">
        <ele>2071.3</ele>
        <time>2013-09-03T17:14:44Z</time>
      </trkpt>
      <trkpt lat="44.17543" lon="6.69891">
        <ele>2070.8</ele>
        <time>2013-09-03T17:14:45Z</time>
      </trkpt>
      <trkpt lat="44.17547" lon="6.69908">
        <ele>2070.3</ele>
        <time>2013-09-03T17:14:47Z</time>
      </trkpt>
      <trkpt lat="44.17557" lon="6.69932">
        <ele>2068.9</ele>
        <time>2013-09-03T17:14:50Z</time>
      </trkpt>
      <trkpt lat="44.17564" lon="6.69942">
        <ele>2068.4</ele>
        <time>2013-09-03T17:14:52Z</time>
      </trkpt>
      <trkpt lat="44.17569" lon="6.69945">
        <ele>2067.9</ele>
        <time>2013-09-03T17:14:53Z</time>
      </trkpt>
      <trkpt lat="44.1758" lon="6.69951">
        <ele>2066.5</ele>
        <time>2013-09-03T17:14:55Z</time>
      </trkpt>
      <trkpt lat="44.1761" lon="6.69975">
        <ele>2062.7</ele>
        <time>2013-09-03T17:15:00Z</time>
      </trkpt>
      <trkpt lat="44.1763" lon="6.69993">
        <ele>2060.2</ele>
        <time>2013-09-03T17:15:03Z</time>
      </trkpt>
      <trkpt lat="44.17644" lon="6.70003">
        <ele>2058.8</ele>
        <time>2013-09-03T17:15:05Z</time>
      </trkpt>
      <trkpt lat="44.17657" lon="6.70013">
        <ele>2057.4</ele>
        <time>2013-09-03T17:15:07Z</time>
      </trkpt>
      <trkpt lat="44.17663" lon="6.70018">
        <ele>2056.9</ele>
        <time>2013-09-03T17:15:08Z</time>
      </trkpt>
      <trkpt lat="44.17668" lon="6.70024">
        <ele>2056.4</ele>
        <time>2013-09-03T17:15:09Z</time>
      </trkpt>
      <trkpt lat="44.17678" lon="6.70036">
        <ele>2055.4</ele>
        <time>2013-09-03T17:15:11Z</time>
      </trkpt>
      <trkpt lat="44.17688" lon="6.70047">
        <ele>2055</ele>
        <time>2013-09-03T17:15:13Z</time>
      </trkpt>
      <trkpt lat="44.17724" lon="6.70072">
        <ele>2051.1</ele>
        <time>2013-09-03T17:15:23Z</time>
      </trkpt>
      <trkpt lat="44.17728" lon="6.70074">
        <ele>2050.6</ele>
        <time>2013-09-03T17:15:31Z</time>
      </trkpt>
      <trkpt lat="44.17728" lon="6.70075">
        <ele>2051.1</ele>
        <time>2013-09-03T17:15:54Z</time>
      </trkpt>
      <trkpt lat="44.17726" lon="6.70071">
        <ele>2050.6</ele>
        <time>2013-09-03T17:15:59Z</time>
      </trkpt>
      <trkpt lat="44.17716" lon="6.70059">
        <ele>2052.1</ele>
        <time>2013-09-03T17:16:13Z</time>
      </trkpt>
      <trkpt lat="44.17705" lon="6.70045">
        <ele>2053.5</ele>
        <time>2013-09-03T17:16:32Z</time>
      </trkpt>
      <trkpt lat="44.17703" lon="6.70043">
        <ele>2053</ele>
        <time>2013-09-03T17:16:51Z</time>
      </trkpt>
      <trkpt lat="44.17703" lon="6.70041">
        <ele>2053.5</ele>
        <time>2013-09-03T17:17:24Z</time>
      </trkpt>
      <trkpt lat="44.17703" lon="6.70043">
        <ele>2054.5</ele>
        <time>2013-09-03T17:17:59Z</time>
      </trkpt>
      <trkpt lat="44.17705" lon="6.70048">
        <ele>2054</ele>
        <time>2013-09-03T17:18:04Z</time>
      </trkpt>
      <trkpt lat="44.17709" lon="6.70058">
        <ele>2053.5</ele>
        <time>2013-09-03T17:18:12Z</time>
      </trkpt>
      <trkpt lat="44.1771" lon="6.70059">
        <ele>2053.5</ele>
        <time>2013-09-03T17:18:13Z</time>
      </trkpt>
      <trkpt lat="44.17727" lon="6.70073">
        <ele>2051.6</ele>
        <time>2013-09-03T17:18:33Z</time>
      </trkpt>
      <trkpt lat="44.17728" lon="6.70075">
        <ele>2051.1</ele>
        <time>2013-09-03T17:18:42Z</time>
      </trkpt>
      <trkpt lat="44.17737" lon="6.70082">
        <ele>2051.6</ele>
        <time>2013-09-03T17:18:58Z</time>
      </trkpt>
      <trkpt lat="44.17752" lon="6.70101">
        <ele>2050.6</ele>
        <time>2013-09-03T17:19:16Z</time>
      </trkpt>
      <trkpt lat="44.17759" lon="6.70109">
        <ele>2049.2</ele>
        <time>2013-09-03T17:19:32Z</time>
      </trkpt>
      <trkpt lat="44.17762" lon="6.7011">
        <ele>2050.2</ele>
        <time>2013-09-03T17:19:43Z</time>
      </trkpt>
      <trkpt lat="44.17781" lon="6.70123">
        <ele>2050.6</ele>
        <time>2013-09-03T17:20:04Z</time>
      </trkpt>
      <trkpt lat="44.17789" lon="6.70132">
        <ele>2050.6</ele>
        <time>2013-09-03T17:20:20Z</time>
      </trkpt>
      <trkpt lat="44.17787" lon="6.70133">
        <ele>2050.2</ele>
        <time>2013-09-03T17:20:40Z</time>
      </trkpt>
      <trkpt lat="44.17787" lon="6.70135">
        <ele>2050.6</ele>
        <time>2013-09-03T17:20:42Z</time>
      </trkpt>
      <trkpt lat="44.17787" lon="6.70134">
        <ele>2050.6</ele>
        <time>2013-09-03T17:20:51Z</time>
      </trkpt>
      <trkpt lat="44.17786" lon="6.70135">
        <ele>2047.3</ele>
        <time>2013-09-03T17:21:03Z</time>
      </trkpt>
      <trkpt lat="44.17786" lon="6.70134">
        <ele>1990.6</ele>
        <time>2013-09-04T06:54:44Z</time>
      </trkpt>
      <trkpt lat="44.17777" lon="6.70115">
        <ele>1990.6</ele>
        <time>2013-09-04T06:54:45Z</time>
      </trkpt>
      <trkpt lat="44.17785" lon="6.70127">
        <ele>1993</ele>
        <time>2013-09-04T06:55:06Z</time>
      </trkpt>
      <trkpt lat="44.17784" lon="6.70127">
        <ele>1997.3</ele>
        <time>2013-09-04T06:55:08Z</time>
      </trkpt>
      <trkpt lat="44.17783" lon="6.70127">
        <ele>2001.1</ele>
        <time>2013-09-04T06:55:10Z</time>
      </trkpt>
      <trkpt lat="44.17783" lon="6.70126">
        <ele>2004</ele>
        <time>2013-09-04T06:55:12Z</time>
      </trkpt>
      <trkpt lat="44.17784" lon="6.70126">
        <ele>2007.9</ele>
        <time>2013-09-04T06:55:14Z</time>
      </trkpt>
      <trkpt lat="44.17783" lon="6.70126">
        <ele>2011.7</ele>
        <time>2013-09-04T06:55:17Z</time>
      </trkpt>
      <trkpt lat="44.17785" lon="6.70126">
        <ele>2015.5</ele>
        <time>2013-09-04T06:55:20Z</time>
      </trkpt>
      <trkpt lat="44.17783" lon="6.70126">
        <ele>2019.4</ele>
        <time>2013-09-04T06:55:23Z</time>
      </trkpt>
      <trkpt lat="44.17783" lon="6.70126">
        <ele>2023.2</ele>
        <time>2013-09-04T06:55:26Z</time>
      </trkpt>
      <trkpt lat="44.17783" lon="6.70126">
        <ele>2023.7</ele>
        <time>2013-09-04T06:55:28Z</time>
      </trkpt>
      <trkpt lat="44.17783" lon="6.70125">
        <ele>2026.1</ele>
        <time>2013-09-04T06:55:30Z</time>
      </trkpt>
      <trkpt lat="44.17784" lon="6.70126">
        <ele>2030.9</ele>
        <time>2013-09-04T06:55:32Z</time>
      </trkpt>
      <trkpt lat="44.17783" lon="6.70126">
        <ele>2030</ele>
        <time>2013-09-04T06:55:33Z</time>
      </trkpt>
      <trkpt lat="44.17784" lon="6.70127">
        <ele>2032.8</ele>
        <time>2013-09-04T06:55:38Z</time>
      </trkpt>
      <trkpt lat="44.17784" lon="6.70127">
        <ele>2034.3</ele>
        <time>2013-09-04T06:55:40Z</time>
      </trkpt>
      <trkpt lat="44.17783" lon="6.70127">
        <ele>2037.7</ele>
        <time>2013-09-04T06:55:46Z</time>
      </trkpt>
      <trkpt lat="44.17784" lon="6.70126">
        <ele>2041.5</ele>
        <time>2013-09-04T06:55:53Z</time>
      </trkpt>
      <trkpt lat="44.17785" lon="6.70127">
        <ele>2041.5</ele>
        <time>2013-09-04T06:55:54Z</time>
      </trkpt>
      <trkpt lat="44.17785" lon="6.70126">
        <ele>2045.8</ele>
        <time>2013-09-04T06:56:01Z</time>
      </trkpt>
      <trkpt lat="44.17786" lon="6.70123">
        <ele>2049.2</ele>
        <time>2013-09-04T06:56:17Z</time>
      </trkpt>
      <trkpt lat="44.17786" lon="6.70123">
        <ele>2052.6</ele>
        <time>2013-09-04T06:56:32Z</time>
      </trkpt>
      <trkpt lat="44.17781" lon="6.70125">
        <ele>2053.5</ele>
        <time>2013-09-04T06:57:06Z</time>
      </trkpt>
      <trkpt lat="44.17783" lon="6.70125">
        <ele>2054</ele>
        <time>2013-09-04T06:57:23Z</time>
      </trkpt>
      <trkpt lat="44.17781" lon="6.70122">
        <ele>2054</ele>
        <time>2013-09-04T06:57:47Z</time>
      </trkpt>
      <trkpt lat="44.17781" lon="6.70123">
        <ele>2054</ele>
        <time>2013-09-04T06:57:49Z</time>
      </trkpt>
      <trkpt lat="44.17754" lon="6.70102">
        <ele>2053.5</ele>
        <time>2013-09-04T06:58:07Z</time>
      </trkpt>
      <trkpt lat="44.1774" lon="6.70085">
        <ele>2055</ele>
        <time>2013-09-04T06:58:16Z</time>
      </trkpt>
      <trkpt lat="44.17739" lon="6.70084">
        <ele>2055</ele>
        <time>2013-09-04T06:58:17Z</time>
      </trkpt>
      <trkpt lat="44.17737" lon="6.70085">
        <ele>2055</ele>
        <time>2013-09-04T06:58:18Z</time>
      </trkpt>
      <trkpt lat="44.17736" lon="6.70088">
        <ele>2054</ele>
        <time>2013-09-04T06:58:28Z</time>
      </trkpt>
      <trkpt lat="44.17735" lon="6.7009">
        <ele>2054.5</ele>
        <time>2013-09-04T06:58:38Z</time>
      </trkpt>
      <trkpt lat="44.17736" lon="6.70091">
        <ele>2054</ele>
        <time>2013-09-04T06:59:01Z</time>
      </trkpt>
      <trkpt lat="44.17734" lon="6.70092">
        <ele>2054.5</ele>
        <time>2013-09-04T06:59:07Z</time>
      </trkpt>
      <trkpt lat="44.17733" lon="6.70092">
        <ele>2054</ele>
        <time>2013-09-04T06:59:08Z</time>
      </trkpt>
      <trkpt lat="44.17732" lon="6.70094">
        <ele>2054</ele>
        <time>2013-09-04T06:59:09Z</time>
      </trkpt>
      <trkpt lat="44.17731" lon="6.70095">
        <ele>2055</ele>
        <time>2013-09-04T06:59:10Z</time>
      </trkpt>
      <trkpt lat="44.1773" lon="6.70097">
        <ele>2054.5</ele>
        <time>2013-09-04T06:59:11Z</time>
      </trkpt>
      <trkpt lat="44.17729" lon="6.701">
        <ele>2054.5</ele>
        <time>2013-09-04T06:59:12Z</time>
      </trkpt>
      <trkpt lat="44.17728" lon="6.70103">
        <ele>2054.5</ele>
        <time>2013-09-04T06:59:13Z</time>
      </trkpt>
      <trkpt lat="44.17702" lon="6.70145">
        <ele>2051.6</ele>
        <time>2013-09-04T06:59:28Z</time>
      </trkpt>
      <trkpt lat="44.17677" lon="6.7016">
        <ele>2050.2</ele>
        <time>2013-09-04T06:59:38Z</time>
      </trkpt>
      <trkpt lat="44.17646" lon="6.70173">
        <ele>2049.7</ele>
        <time>2013-09-04T06:59:51Z</time>
      </trkpt>
      <trkpt lat="44.17632" lon="6.70175">
        <ele>2049.2</ele>
        <time>2013-09-04T07:00:01Z</time>
      </trkpt>
      <trkpt lat="44.17625" lon="6.70176">
        <ele>2048.7</ele>
        <time>2013-09-04T07:00:23Z</time>
      </trkpt>
      <trkpt lat="44.17591" lon="6.70178">
        <ele>2047.3</ele>
        <time>2013-09-04T07:00:37Z</time>
      </trkpt>
      <trkpt lat="44.17563" lon="6.70169">
        <ele>2044.9</ele>
        <time>2013-09-04T07:00:47Z</time>
      </trkpt>
      <trkpt lat="44.1756" lon="6.70171">
        <ele>2045.3</ele>
        <time>2013-09-04T07:00:48Z</time>
      </trkpt>
      <trkpt lat="44.17558" lon="6.70172">
        <ele>2045.3</ele>
        <time>2013-09-04T07:00:49Z</time>
      </trkpt>
      <trkpt lat="44.17556" lon="6.70173">
        <ele>2045.8</ele>
        <time>2013-09-04T07:00:50Z</time>
      </trkpt>
      <trkpt lat="44.17555" lon="6.70175">
        <ele>2045.8</ele>
        <time>2013-09-04T07:00:51Z</time>
      </trkpt>
      <trkpt lat="44.17553" lon="6.70177">
        <ele>2046.3</ele>
        <time>2013-09-04T07:00:52Z</time>
      </trkpt>
      <trkpt lat="44.17551" lon="6.70179">
        <ele>2044.9</ele>
        <time>2013-09-04T07:00:53Z</time>
      </trkpt>
      <trkpt lat="44.17549" lon="6.70182">
        <ele>2044.9</ele>
        <time>2013-09-04T07:00:54Z</time>
      </trkpt>
      <trkpt lat="44.17546" lon="6.70184">
        <ele>2045.3</ele>
        <time>2013-09-04T07:00:55Z</time>
      </trkpt>
      <trkpt lat="44.17529" lon="6.7019">
        <ele>2044.9</ele>
        <time>2013-09-04T07:01:04Z</time>
      </trkpt>
      <trkpt lat="44.17527" lon="6.70192">
        <ele>2044.4</ele>
        <time>2013-09-04T07:01:15Z</time>
      </trkpt>
      <trkpt lat="44.17526" lon="6.70193">
        <ele>2044.4</ele>
        <time>2013-09-04T07:01:16Z</time>
      </trkpt>
      <trkpt lat="44.17526" lon="6.70194">
        <ele>2044.4</ele>
        <time>2013-09-04T07:01:17Z</time>
      </trkpt>
      <trkpt lat="44.17521" lon="6.70201">
        <ele>2045.3</ele>
        <time>2013-09-04T07:01:26Z</time>
      </trkpt>
      <trkpt lat="44.17521" lon="6.70203">
        <ele>2045.8</ele>
        <time>2013-09-04T07:01:27Z</time>
      </trkpt>
      <trkpt lat="44.17516" lon="6.7022">
        <ele>2045.3</ele>
        <time>2013-09-04T07:01:43Z</time>
      </trkpt>
      <trkpt lat="44.17514" lon="6.70222">
        <ele>2045.3</ele>
        <time>2013-09-04T07:02:11Z</time>
      </trkpt>
      <trkpt lat="44.17514" lon="6.70225">
        <ele>2044.9</ele>
        <time>2013-09-04T07:02:28Z</time>
      </trkpt>
      <trkpt lat="44.17515" lon="6.70227">
        <ele>2045.3</ele>
        <time>2013-09-04T07:02:49Z</time>
      </trkpt>
      <trkpt lat="44.17516" lon="6.70229">
        <ele>2044.4</ele>
        <time>2013-09-04T07:02:51Z</time>
      </trkpt>
      <trkpt lat="44.17519" lon="6.70234">
        <ele>2043.9</ele>
        <time>2013-09-04T07:02:59Z</time>
      </trkpt>
      <trkpt lat="44.17521" lon="6.7025">
        <ele>2040.5</ele>
        <time>2013-09-04T07:03:08Z</time>
      </trkpt>
      <trkpt lat="44.17515" lon="6.70284">
        <ele>2038.1</ele>
        <time>2013-09-04T07:03:28Z</time>
      </trkpt>
      <trkpt lat="44.17513" lon="6.703">
        <ele>2035.7</ele>
        <time>2013-09-04T07:03:41Z</time>
      </trkpt>
      <trkpt lat="44.17503" lon="6.70311">
        <ele>2034.3</ele>
        <time>2013-09-04T07:03:56Z</time>
      </trkpt>
      <trkpt lat="44.17502" lon="6.70313">
        <ele>2034.3</ele>
        <time>2013-09-04T07:04:12Z</time>
      </trkpt>
      <trkpt lat="44.175" lon="6.70317">
        <ele>2033.3</ele>
        <time>2013-09-04T07:04:20Z</time>
      </trkpt>
      <trkpt lat="44.17498" lon="6.7032">
        <ele>2033.8</ele>
        <time>2013-09-04T07:04:26Z</time>
      </trkpt>
      <trkpt lat="44.1749" lon="6.70324">
        <ele>2033.8</ele>
        <time>2013-09-04T07:04:32Z</time>
      </trkpt>
      <trkpt lat="44.17488" lon="6.70326">
        <ele>2033.3</ele>
        <time>2013-09-04T07:04:33Z</time>
      </trkpt>
      <trkpt lat="44.17487" lon="6.70329">
        <ele>2032.8</ele>
        <time>2013-09-04T07:04:34Z</time>
      </trkpt>
      <trkpt lat="44.17487" lon="6.70333">
        <ele>2033.3</ele>
        <time>2013-09-04T07:04:35Z</time>
      </trkpt>
      <trkpt lat="44.17487" lon="6.70336">
        <ele>2032.8</ele>
        <time>2013-09-04T07:04:36Z</time>
      </trkpt>
      <trkpt lat="44.17487" lon="6.70339">
        <ele>2033.3</ele>
        <time>2013-09-04T07:04:37Z</time>
      </trkpt>
      <trkpt lat="44.17487" lon="6.70342">
        <ele>2033.3</ele>
        <time>2013-09-04T07:04:38Z</time>
      </trkpt>
      <trkpt lat="44.17488" lon="6.70344">
        <ele>2033.8</ele>
        <time>2013-09-04T07:04:39Z</time>
      </trkpt>
      <trkpt lat="44.17488" lon="6.70347">
        <ele>2033.3</ele>
        <time>2013-09-04T07:04:40Z</time>
      </trkpt>
      <trkpt lat="44.17488" lon="6.70349">
        <ele>2033.3</ele>
        <time>2013-09-04T07:04:41Z</time>
      </trkpt>
      <trkpt lat="44.1749" lon="6.70383">
        <ele>2031.4</ele>
        <time>2013-09-04T07:04:49Z</time>
      </trkpt>
      <trkpt lat="44.17488" lon="6.70387">
        <ele>2030.9</ele>
        <time>2013-09-04T07:04:50Z</time>
      </trkpt>
      <trkpt lat="44.17485" lon="6.70391">
        <ele>2030.4</ele>
        <time>2013-09-04T07:04:51Z</time>
      </trkpt>
      <trkpt lat="44.1748" lon="6.70394">
        <ele>2029.5</ele>
        <time>2013-09-04T07:04:52Z</time>
      </trkpt>
      <trkpt lat="44.17475" lon="6.70397">
        <ele>2029</ele>
        <time>2013-09-04T07:04:53Z</time>
      </trkpt>
      <trkpt lat="44.17469" lon="6.704">
        <ele>2027.6</ele>
        <time>2013-09-04T07:04:54Z</time>
      </trkpt>
      <trkpt lat="44.17458" lon="6.70405">
        <ele>2026.1</ele>
        <time>2013-09-04T07:04:56Z</time>
      </trkpt>
      <trkpt lat="44.17454" lon="6.7041">
        <ele>2025.2</ele>
        <time>2013-09-04T07:04:57Z</time>
      </trkpt>
      <trkpt lat="44.17452" lon="6.70418">
        <ele>2024.2</ele>
        <time>2013-09-04T07:04:58Z</time>
      </trkpt>
      <trkpt lat="44.17452" lon="6.70426">
        <ele>2024.7</ele>
        <time>2013-09-04T07:04:59Z</time>
      </trkpt>
      <trkpt lat="44.17452" lon="6.70434">
        <ele>2024.2</ele>
        <time>2013-09-04T07:05:00Z</time>
      </trkpt>
      <trkpt lat="44.17452" lon="6.70442">
        <ele>2023.7</ele>
        <time>2013-09-04T07:05:01Z</time>
      </trkpt>
      <trkpt lat="44.17453" lon="6.70449">
        <ele>2023.2</ele>
        <time>2013-09-04T07:05:02Z</time>
      </trkpt>
      <trkpt lat="44.17454" lon="6.70455">
        <ele>2023.2</ele>
        <time>2013-09-04T07:05:03Z</time>
      </trkpt>
      <trkpt lat="44.17456" lon="6.70462">
        <ele>2022.3</ele>
        <time>2013-09-04T07:05:04Z</time>
      </trkpt>
      <trkpt lat="44.17459" lon="6.70474">
        <ele>2021.8</ele>
        <time>2013-09-04T07:05:06Z</time>
      </trkpt>
      <trkpt lat="44.17464" lon="6.70513">
        <ele>2019.4</ele>
        <time>2013-09-04T07:05:13Z</time>
      </trkpt>
      <trkpt lat="44.17468" lon="6.70524">
        <ele>2018.9</ele>
        <time>2013-09-04T07:05:15Z</time>
      </trkpt>
      <trkpt lat="44.17473" lon="6.70542">
        <ele>2018.4</ele>
        <time>2013-09-04T07:05:18Z</time>
      </trkpt>
      <trkpt lat="44.17474" lon="6.70549">
        <ele>2017.5</ele>
        <time>2013-09-04T07:05:19Z</time>
      </trkpt>
      <trkpt lat="44.17474" lon="6.7058">
        <ele>2015.1</ele>
        <time>2013-09-04T07:05:23Z</time>
      </trkpt>
      <trkpt lat="44.17473" lon="6.70601">
        <ele>2014.6</ele>
        <time>2013-09-04T07:05:30Z</time>
      </trkpt>
      <trkpt lat="44.17473" lon="6.70599">
        <ele>2013.6</ele>
        <time>2013-09-04T07:05:58Z</time>
      </trkpt>
      <trkpt lat="44.17472" lon="6.706">
        <ele>2014.6</ele>
        <time>2013-09-04T07:06:37Z</time>
      </trkpt>
      <trkpt lat="44.17473" lon="6.70599">
        <ele>2014.1</ele>
        <time>2013-09-04T07:07:19Z</time>
      </trkpt>
      <trkpt lat="44.17471" lon="6.70611">
        <ele>2013.1</ele>
        <time>2013-09-04T07:07:37Z</time>
      </trkpt>
      <trkpt lat="44.17469" lon="6.70614">
        <ele>2013.1</ele>
        <time>2013-09-04T07:07:38Z</time>
      </trkpt>
      <trkpt lat="44.17467" lon="6.70616">
        <ele>2013.1</ele>
        <time>2013-09-04T07:07:39Z</time>
      </trkpt>
      <trkpt lat="44.17464" lon="6.70619">
        <ele>2012.2</ele>
        <time>2013-09-04T07:07:40Z</time>
      </trkpt>
      <trkpt lat="44.17437" lon="6.70634">
        <ele>2009.8</ele>
        <time>2013-09-04T07:07:52Z</time>
      </trkpt>
      <trkpt lat="44.17435" lon="6.70638">
        <ele>2008.8</ele>
        <time>2013-09-04T07:07:53Z</time>
      </trkpt>
      <trkpt lat="44.17435" lon="6.70642">
        <ele>2008.3</ele>
        <time>2013-09-04T07:07:54Z</time>
      </trkpt>
      <trkpt lat="44.17435" lon="6.70646">
        <ele>2007.9</ele>
        <time>2013-09-04T07:07:55Z</time>
      </trkpt>
      <trkpt lat="44.17436" lon="6.70649">
        <ele>2007.9</ele>
        <time>2013-09-04T07:07:56Z</time>
      </trkpt>
      <trkpt lat="44.17437" lon="6.70653">
        <ele>2007.4</ele>
        <time>2013-09-04T07:07:57Z</time>
      </trkpt>
      <trkpt lat="44.17439" lon="6.70656">
        <ele>2006.9</ele>
        <time>2013-09-04T07:07:58Z</time>
      </trkpt>
      <trkpt lat="44.1744" lon="6.70659">
        <ele>2006.9</ele>
        <time>2013-09-04T07:07:59Z</time>
      </trkpt>
      <trkpt lat="44.17442" lon="6.70661">
        <ele>2006.9</ele>
        <time>2013-09-04T07:08:00Z</time>
      </trkpt>
      <trkpt lat="44.17444" lon="6.70663">
        <ele>2006.9</ele>
        <time>2013-09-04T07:08:01Z</time>
      </trkpt>
      <trkpt lat="44.17446" lon="6.70664">
        <ele>2006.4</ele>
        <time>2013-09-04T07:08:02Z</time>
      </trkpt>
      <trkpt lat="44.17447" lon="6.70665">
        <ele>2006.4</ele>
        <time>2013-09-04T07:08:03Z</time>
      </trkpt>
      <trkpt lat="44.17449" lon="6.70667">
        <ele>2006.4</ele>
        <time>2013-09-04T07:08:04Z</time>
      </trkpt>
      <trkpt lat="44.17451" lon="6.70668">
        <ele>2005.5</ele>
        <time>2013-09-04T07:08:05Z</time>
      </trkpt>
      <trkpt lat="44.17471" lon="6.70688">
        <ele>2002.6</ele>
        <time>2013-09-04T07:08:14Z</time>
      </trkpt>
      <trkpt lat="44.17473" lon="6.7069">
        <ele>2003</ele>
        <time>2013-09-04T07:08:15Z</time>
      </trkpt>
      <trkpt lat="44.17475" lon="6.70692">
        <ele>2002.6</ele>
        <time>2013-09-04T07:08:16Z</time>
      </trkpt>
      <trkpt lat="44.17482" lon="6.707">
        <ele>2001.6</ele>
        <time>2013-09-04T07:08:23Z</time>
      </trkpt>
      <trkpt lat="44.17483" lon="6.70712">
        <ele>2000.2</ele>
        <time>2013-09-04T07:08:36Z</time>
      </trkpt>
      <trkpt lat="44.17487" lon="6.70725">
        <ele>1998.7</ele>
        <time>2013-09-04T07:08:49Z</time>
      </trkpt>
      <trkpt lat="44.17499" lon="6.70745">
        <ele>1995.8</ele>
        <time>2013-09-04T07:09:05Z</time>
      </trkpt>
      <trkpt lat="44.17506" lon="6.70762">
        <ele>1994.4</ele>
        <time>2013-09-04T07:09:22Z</time>
      </trkpt>
      <trkpt lat="44.17508" lon="6.70763">
        <ele>1994.9</ele>
        <time>2013-09-04T07:09:23Z</time>
      </trkpt>
      <trkpt lat="44.1751" lon="6.70765">
        <ele>1994.9</ele>
        <time>2013-09-04T07:09:26Z</time>
      </trkpt>
      <trkpt lat="44.17512" lon="6.7077">
        <ele>1994.4</ele>
        <time>2013-09-04T07:09:30Z</time>
      </trkpt>
      <trkpt lat="44.17512" lon="6.70772">
        <ele>1993</ele>
        <time>2013-09-04T07:09:31Z</time>
      </trkpt>
      <trkpt lat="44.17511" lon="6.70773">
        <ele>1993</ele>
        <time>2013-09-04T07:09:32Z</time>
      </trkpt>
      <trkpt lat="44.17511" lon="6.70775">
        <ele>1993</ele>
        <time>2013-09-04T07:09:33Z</time>
      </trkpt>
      <trkpt lat="44.1751" lon="6.70776">
        <ele>1992.5</ele>
        <time>2013-09-04T07:09:34Z</time>
      </trkpt>
      <trkpt lat="44.17512" lon="6.7078">
        <ele>1992</ele>
        <time>2013-09-04T07:09:38Z</time>
      </trkpt>
      <trkpt lat="44.17513" lon="6.70781">
        <ele>1991.5</ele>
        <time>2013-09-04T07:09:39Z</time>
      </trkpt>
      <trkpt lat="44.17515" lon="6.70782">
        <ele>1991</ele>
        <time>2013-09-04T07:09:41Z</time>
      </trkpt>
      <trkpt lat="44.17519" lon="6.70797">
        <ele>1993</ele>
        <time>2013-09-04T07:09:56Z</time>
      </trkpt>
      <trkpt lat="44.17519" lon="6.70798">
        <ele>1993</ele>
        <time>2013-09-04T07:09:57Z</time>
      </trkpt>
      <trkpt lat="44.17521" lon="6.70805">
        <ele>1993.9</ele>
        <time>2013-09-04T07:10:03Z</time>
      </trkpt>
      <trkpt lat="44.17525" lon="6.7081">
        <ele>1994.4</ele>
        <time>2013-09-04T07:10:19Z</time>
      </trkpt>
      <trkpt lat="44.17524" lon="6.7081">
        <ele>1994.4</ele>
        <time>2013-09-04T07:10:40Z</time>
      </trkpt>
      <trkpt lat="44.17524" lon="6.7081">
        <ele>1994.4</ele>
        <time>2013-09-04T07:10:41Z</time>
      </trkpt>
      <trkpt lat="44.17533" lon="6.70819">
        <ele>1993.4</ele>
        <time>2013-09-04T07:10:51Z</time>
      </trkpt>
      <trkpt lat="44.17533" lon="6.70821">
        <ele>1989.6</ele>
        <time>2013-09-04T07:11:16Z</time>
      </trkpt>
      <trkpt lat="44.17533" lon="6.70821">
        <ele>1994.9</ele>
        <time>2013-09-04T07:11:17Z</time>
      </trkpt>
      <trkpt lat="44.17533" lon="6.70821">
        <ele>1993.4</ele>
        <time>2013-09-04T07:11:20Z</time>
      </trkpt>
      <trkpt lat="44.17551" lon="6.70836">
        <ele>1993.4</ele>
        <time>2013-09-04T07:11:35Z</time>
      </trkpt>
      <trkpt lat="44.17584" lon="6.70859">
        <ele>1993.4</ele>
        <time>2013-09-04T07:11:49Z</time>
      </trkpt>
      <trkpt lat="44.17601" lon="6.70886">
        <ele>1990.1</ele>
        <time>2013-09-04T07:12:00Z</time>
      </trkpt>
      <trkpt lat="44.17604" lon="6.70899">
        <ele>1987.7</ele>
        <time>2013-09-04T07:12:03Z</time>
      </trkpt>
      <trkpt lat="44.17613" lon="6.70921">
        <ele>1983.8</ele>
        <time>2013-09-04T07:12:08Z</time>
      </trkpt>
      <trkpt lat="44.17615" lon="6.70926">
        <ele>1983.8</ele>
        <time>2013-09-04T07:12:09Z</time>
      </trkpt>
      <trkpt lat="44.17619" lon="6.70958">
        <ele>1980.5</ele>
        <time>2013-09-04T07:12:15Z</time>
      </trkpt>
      <trkpt lat="44.17621" lon="6.70987">
        <ele>1978.5</ele>
        <time>2013-09-04T07:12:20Z</time>
      </trkpt>
      <trkpt lat="44.17623" lon="6.70999">
        <ele>1977.1</ele>
        <time>2013-09-04T07:12:22Z</time>
      </trkpt>
      <trkpt lat="44.17625" lon="6.71022">
        <ele>1975.7</ele>
        <time>2013-09-04T07:12:26Z</time>
      </trkpt>
      <trkpt lat="44.17626" lon="6.71028">
        <ele>1975.7</ele>
        <time>2013-09-04T07:12:27Z</time>
      </trkpt>
      <trkpt lat="44.17634" lon="6.71049">
        <ele>1972.8</ele>
        <time>2013-09-04T07:12:31Z</time>
      </trkpt>
      <trkpt lat="44.17637" lon="6.71053">
        <ele>1972.3</ele>
        <time>2013-09-04T07:12:32Z</time>
      </trkpt>
      <trkpt lat="44.17642" lon="6.71061">
        <ele>1971.3</ele>
        <time>2013-09-04T07:12:34Z</time>
      </trkpt>
      <trkpt lat="44.17651" lon="6.7108">
        <ele>1968</ele>
        <time>2013-09-04T07:12:38Z</time>
      </trkpt>
      <trkpt lat="44.17659" lon="6.71091">
        <ele>1965.6</ele>
        <time>2013-09-04T07:12:46Z</time>
      </trkpt>
      <trkpt lat="44.17661" lon="6.71091">
        <ele>1965.1</ele>
        <time>2013-09-04T07:13:03Z</time>
      </trkpt>
      <trkpt lat="44.17663" lon="6.71093">
        <ele>1966</ele>
        <time>2013-09-04T07:13:04Z</time>
      </trkpt>
      <trkpt lat="44.17665" lon="6.71095">
        <ele>1965.6</ele>
        <time>2013-09-04T07:13:05Z</time>
      </trkpt>
      <trkpt lat="44.17667" lon="6.71097">
        <ele>1964.6</ele>
        <time>2013-09-04T07:13:06Z</time>
      </trkpt>
      <trkpt lat="44.17669" lon="6.711">
        <ele>1964.1</ele>
        <time>2013-09-04T07:13:07Z</time>
      </trkpt>
      <trkpt lat="44.17672" lon="6.71105">
        <ele>1963.2</ele>
        <time>2013-09-04T07:13:08Z</time>
      </trkpt>
      <trkpt lat="44.17674" lon="6.7111">
        <ele>1963.6</ele>
        <time>2013-09-04T07:13:09Z</time>
      </trkpt>
      <trkpt lat="44.17683" lon="6.71125">
        <ele>1960.3</ele>
        <time>2013-09-04T07:13:13Z</time>
      </trkpt>
      <trkpt lat="44.17689" lon="6.71156">
        <ele>1957.4</ele>
        <time>2013-09-04T07:13:22Z</time>
      </trkpt>
      <trkpt lat="44.17692" lon="6.71165">
        <ele>1956.4</ele>
        <time>2013-09-04T07:13:25Z</time>
      </trkpt>
      <trkpt lat="44.17692" lon="6.71168">
        <ele>1955.9</ele>
        <time>2013-09-04T07:13:26Z</time>
      </trkpt>
      <trkpt lat="44.17692" lon="6.71171">
        <ele>1955.9</ele>
        <time>2013-09-04T07:13:27Z</time>
      </trkpt>
      <trkpt lat="44.17692" lon="6.71173">
        <ele>1955.5</ele>
        <time>2013-09-04T07:13:28Z</time>
      </trkpt>
      <trkpt lat="44.17695" lon="6.71179">
        <ele>1955.5</ele>
        <time>2013-09-04T07:13:36Z</time>
      </trkpt>
      <trkpt lat="44.17696" lon="6.71183">
        <ele>1955.9</ele>
        <time>2013-09-04T07:13:42Z</time>
      </trkpt>
      <trkpt lat="44.17697" lon="6.71202">
        <ele>1955</ele>
        <time>2013-09-04T07:13:48Z</time>
      </trkpt>
      <trkpt lat="44.17698" lon="6.71204">
        <ele>1955</ele>
        <time>2013-09-04T07:13:49Z</time>
      </trkpt>
      <trkpt lat="44.177" lon="6.71206">
        <ele>1955.5</ele>
        <time>2013-09-04T07:13:50Z</time>
      </trkpt>
      <trkpt lat="44.17701" lon="6.71208">
        <ele>1955.5</ele>
        <time>2013-09-04T07:13:51Z</time>
      </trkpt>
      <trkpt lat="44.17706" lon="6.71214">
        <ele>1956.4</ele>
        <time>2013-09-04T07:14:01Z</time>
      </trkpt>
      <trkpt lat="44.17707" lon="6.71218">
        <ele>1956.4</ele>
        <time>2013-09-04T07:14:05Z</time>
      </trkpt>
      <trkpt lat="44.17707" lon="6.71219">
        <ele>1956.9</ele>
        <time>2013-09-04T07:14:06Z</time>
      </trkpt>
      <trkpt lat="44.17708" lon="6.7122">
        <ele>1956.9</ele>
        <time>2013-09-04T07:14:07Z</time>
      </trkpt>
      <trkpt lat="44.17718" lon="6.71231">
        <ele>1955.9</ele>
        <time>2013-09-04T07:14:20Z</time>
      </trkpt>
      <trkpt lat="44.17721" lon="6.71231">
        <ele>1955.5</ele>
        <time>2013-09-04T07:14:25Z</time>
      </trkpt>
      <trkpt lat="44.17728" lon="6.7123">
        <ele>1954</ele>
        <time>2013-09-04T07:14:38Z</time>
      </trkpt>
      <trkpt lat="44.17729" lon="6.7123">
        <ele>1954.5</ele>
        <time>2013-09-04T07:14:39Z</time>
      </trkpt>
      <trkpt lat="44.17745" lon="6.71235">
        <ele>1951.6</ele>
        <time>2013-09-04T07:14:47Z</time>
      </trkpt>
      <trkpt lat="44.17746" lon="6.71233">
        <ele>1951.1</ele>
        <time>2013-09-04T07:14:48Z</time>
      </trkpt>
      <trkpt lat="44.17747" lon="6.71233">
        <ele>1951.1</ele>
        <time>2013-09-04T07:14:49Z</time>
      </trkpt>
      <trkpt lat="44.17749" lon="6.71233">
        <ele>1951.1</ele>
        <time>2013-09-04T07:14:50Z</time>
      </trkpt>
      <trkpt lat="44.1775" lon="6.71234">
        <ele>1950.7</ele>
        <time>2013-09-04T07:14:51Z</time>
      </trkpt>
      <trkpt lat="44.17751" lon="6.71237">
        <ele>1950.7</ele>
        <time>2013-09-04T07:14:52Z</time>
      </trkpt>
      <trkpt lat="44.1775" lon="6.7124">
        <ele>1950.7</ele>
        <time>2013-09-04T07:14:53Z</time>
      </trkpt>
      <trkpt lat="44.1775" lon="6.71244">
        <ele>1949.7</ele>
        <time>2013-09-04T07:14:54Z</time>
      </trkpt>
      <trkpt lat="44.17749" lon="6.71248">
        <ele>1949.7</ele>
        <time>2013-09-04T07:14:55Z</time>
      </trkpt>
      <trkpt lat="44.17748" lon="6.71252">
        <ele>1949.2</ele>
        <time>2013-09-04T07:14:56Z</time>
      </trkpt>
      <trkpt lat="44.17749" lon="6.71255">
        <ele>1948.7</ele>
        <time>2013-09-04T07:14:57Z</time>
      </trkpt>
      <trkpt lat="44.1775" lon="6.71259">
        <ele>1948.7</ele>
        <time>2013-09-04T07:15:07Z</time>
      </trkpt>
      <trkpt lat="44.17755" lon="6.71269">
        <ele>1948.3</ele>
        <time>2013-09-04T07:15:12Z</time>
      </trkpt>
      <trkpt lat="44.17754" lon="6.71272">
        <ele>1947.3</ele>
        <time>2013-09-04T07:15:13Z</time>
      </trkpt>
      <trkpt lat="44.17753" lon="6.71275">
        <ele>1946.8</ele>
        <time>2013-09-04T07:15:14Z</time>
      </trkpt>
      <trkpt lat="44.17753" lon="6.71278">
        <ele>1946.8</ele>
        <time>2013-09-04T07:15:15Z</time>
      </trkpt>
      <trkpt lat="44.17755" lon="6.7128">
        <ele>1946.8</ele>
        <time>2013-09-04T07:15:16Z</time>
      </trkpt>
      <trkpt lat="44.17756" lon="6.71281">
        <ele>1946.3</ele>
        <time>2013-09-04T07:15:17Z</time>
      </trkpt>
      <trkpt lat="44.17758" lon="6.71281">
        <ele>1946.3</ele>
        <time>2013-09-04T07:15:18Z</time>
      </trkpt>
      <trkpt lat="44.1776" lon="6.71279">
        <ele>1945.9</ele>
        <time>2013-09-04T07:15:21Z</time>
      </trkpt>
      <trkpt lat="44.17761" lon="6.71278">
        <ele>1945.4</ele>
        <time>2013-09-04T07:15:22Z</time>
      </trkpt>
      <trkpt lat="44.17763" lon="6.71276">
        <ele>1944.9</ele>
        <time>2013-09-04T07:15:23Z</time>
      </trkpt>
      <trkpt lat="44.17764" lon="6.71273">
        <ele>1944.4</ele>
        <time>2013-09-04T07:15:24Z</time>
      </trkpt>
      <trkpt lat="44.17765" lon="6.71269">
        <ele>1943.9</ele>
        <time>2013-09-04T07:15:25Z</time>
      </trkpt>
      <trkpt lat="44.17766" lon="6.71266">
        <ele>1943.4</ele>
        <time>2013-09-04T07:15:26Z</time>
      </trkpt>
      <trkpt lat="44.17768" lon="6.71262">
        <ele>1943</ele>
        <time>2013-09-04T07:15:27Z</time>
      </trkpt>
      <trkpt lat="44.17769" lon="6.7126">
        <ele>1942.5</ele>
        <time>2013-09-04T07:15:28Z</time>
      </trkpt>
      <trkpt lat="44.1777" lon="6.71258">
        <ele>1942</ele>
        <time>2013-09-04T07:15:29Z</time>
      </trkpt>
      <trkpt lat="44.17773" lon="6.71243">
        <ele>1939.1</ele>
        <time>2013-09-04T07:15:36Z</time>
      </trkpt>
      <trkpt lat="44.17774" lon="6.71241">
        <ele>1938.6</ele>
        <time>2013-09-04T07:15:37Z</time>
      </trkpt>
      <trkpt lat="44.17775" lon="6.71239">
        <ele>1938.6</ele>
        <time>2013-09-04T07:15:38Z</time>
      </trkpt>
      <trkpt lat="44.17776" lon="6.71237">
        <ele>1938.2</ele>
        <time>2013-09-04T07:15:39Z</time>
      </trkpt>
      <trkpt lat="44.17778" lon="6.71236">
        <ele>1937.2</ele>
        <time>2013-09-04T07:15:40Z</time>
      </trkpt>
      <trkpt lat="44.1778" lon="6.71234">
        <ele>1937.2</ele>
        <time>2013-09-04T07:15:41Z</time>
      </trkpt>
      <trkpt lat="44.17786" lon="6.71231">
        <ele>1934.3</ele>
        <time>2013-09-04T07:15:44Z</time>
      </trkpt>
      <trkpt lat="44.17788" lon="6.71231">
        <ele>1933.8</ele>
        <time>2013-09-04T07:15:45Z</time>
      </trkpt>
      <trkpt lat="44.17793" lon="6.71234">
        <ele>1934.3</ele>
        <time>2013-09-04T07:15:53Z</time>
      </trkpt>
      <trkpt lat="44.17794" lon="6.71235">
        <ele>1935.3</ele>
        <time>2013-09-04T07:15:54Z</time>
      </trkpt>
      <trkpt lat="44.17791" lon="6.71242">
        <ele>1934.8</ele>
        <time>2013-09-04T07:16:06Z</time>
      </trkpt>
      <trkpt lat="44.17791" lon="6.71244">
        <ele>1934.8</ele>
        <time>2013-09-04T07:16:08Z</time>
      </trkpt>
      <trkpt lat="44.17791" lon="6.71261">
        <ele>1936.2</ele>
        <time>2013-09-04T07:16:25Z</time>
      </trkpt>
      <trkpt lat="44.17793" lon="6.71267">
        <ele>1938.2</ele>
        <time>2013-09-04T07:16:40Z</time>
      </trkpt>
      <trkpt lat="44.17797" lon="6.71271">
        <ele>1940.1</ele>
        <time>2013-09-04T07:16:55Z</time>
      </trkpt>
      <trkpt lat="44.17798" lon="6.71283">
        <ele>1941.5</ele>
        <time>2013-09-04T07:17:11Z</time>
      </trkpt>
      <trkpt lat="44.17801" lon="6.71294">
        <ele>1943.4</ele>
        <time>2013-09-04T07:17:25Z</time>
      </trkpt>
      <trkpt lat="44.17804" lon="6.71302">
        <ele>1945.4</ele>
        <time>2013-09-04T07:17:42Z</time>
      </trkpt>
      <trkpt lat="44.17807" lon="6.71297">
        <ele>1946.8</ele>
        <time>2013-09-04T07:17:58Z</time>
      </trkpt>
      <trkpt lat="44.17813" lon="6.71289">
        <ele>1949.2</ele>
        <time>2013-09-04T07:18:16Z</time>
      </trkpt>
      <trkpt lat="44.17818" lon="6.71284">
        <ele>1950.7</ele>
        <time>2013-09-04T07:18:28Z</time>
      </trkpt>
      <trkpt lat="44.17825" lon="6.71284">
        <ele>1952.1</ele>
        <time>2013-09-04T07:18:43Z</time>
      </trkpt>
      <trkpt lat="44.17831" lon="6.71289">
        <ele>1954.5</ele>
        <time>2013-09-04T07:18:58Z</time>
      </trkpt>
      <trkpt lat="44.17837" lon="6.71289">
        <ele>1955.9</ele>
        <time>2013-09-04T07:19:14Z</time>
      </trkpt>
      <trkpt lat="44.1784" lon="6.7129">
        <ele>1956.4</ele>
        <time>2013-09-04T07:19:32Z</time>
      </trkpt>
      <trkpt lat="44.17841" lon="6.7129">
        <ele>1956.9</ele>
        <time>2013-09-04T07:19:45Z</time>
      </trkpt>
      <trkpt lat="44.17843" lon="6.71291">
        <ele>1956.4</ele>
        <time>2013-09-04T07:19:50Z</time>
      </trkpt>
      <trkpt lat="44.17844" lon="6.71291">
        <ele>1956.4</ele>
        <time>2013-09-04T07:19:51Z</time>
      </trkpt>
      <trkpt lat="44.17846" lon="6.71291">
        <ele>1956.4</ele>
        <time>2013-09-04T07:19:52Z</time>
      </trkpt>
      <trkpt lat="44.17873" lon="6.71302">
        <ele>1957.4</ele>
        <time>2013-09-04T07:20:07Z</time>
      </trkpt>
      <trkpt lat="44.17873" lon="6.71306">
        <ele>1957.4</ele>
        <time>2013-09-04T07:20:08Z</time>
      </trkpt>
      <trkpt lat="44.17872" lon="6.71309">
        <ele>1956.9</ele>
        <time>2013-09-04T07:20:09Z</time>
      </trkpt>
      <trkpt lat="44.17874" lon="6.71318">
        <ele>1956.9</ele>
        <time>2013-09-04T07:20:12Z</time>
      </trkpt>
      <trkpt lat="44.17875" lon="6.7132">
        <ele>1956.4</ele>
        <time>2013-09-04T07:20:13Z</time>
      </trkpt>
      <trkpt lat="44.17878" lon="6.71321">
        <ele>1955.5</ele>
        <time>2013-09-04T07:20:14Z</time>
      </trkpt>
      <trkpt lat="44.1788" lon="6.71322">
        <ele>1955</ele>
        <time>2013-09-04T07:20:15Z</time>
      </trkpt>
      <trkpt lat="44.17882" lon="6.71322">
        <ele>1955</ele>
        <time>2013-09-04T07:20:16Z</time>
      </trkpt>
      <trkpt lat="44.17885" lon="6.71321">
        <ele>1954.5</ele>
        <time>2013-09-04T07:20:17Z</time>
      </trkpt>
      <trkpt lat="44.17886" lon="6.71321">
        <ele>1954</ele>
        <time>2013-09-04T07:20:18Z</time>
      </trkpt>
      <trkpt lat="44.17903" lon="6.71313">
        <ele>1951.1</ele>
        <time>2013-09-04T07:20:27Z</time>
      </trkpt>
      <trkpt lat="44.17906" lon="6.71313">
        <ele>1950.7</ele>
        <time>2013-09-04T07:20:28Z</time>
      </trkpt>
      <trkpt lat="44.17908" lon="6.71314">
        <ele>1950.2</ele>
        <time>2013-09-04T07:20:29Z</time>
      </trkpt>
      <trkpt lat="44.1791" lon="6.71316">
        <ele>1950.2</ele>
        <time>2013-09-04T07:20:30Z</time>
      </trkpt>
      <trkpt lat="44.1791" lon="6.71319">
        <ele>1950.7</ele>
        <time>2013-09-04T07:20:31Z</time>
      </trkpt>
      <trkpt lat="44.1791" lon="6.71322">
        <ele>1950.7</ele>
        <time>2013-09-04T07:20:32Z</time>
      </trkpt>
      <trkpt lat="44.17909" lon="6.71325">
        <ele>1950.7</ele>
        <time>2013-09-04T07:20:33Z</time>
      </trkpt>
      <trkpt lat="44.17908" lon="6.71328">
        <ele>1950.7</ele>
        <time>2013-09-04T07:20:34Z</time>
      </trkpt>
      <trkpt lat="44.17907" lon="6.71331">
        <ele>1950.7</ele>
        <time>2013-09-04T07:20:35Z</time>
      </trkpt>
      <trkpt lat="44.17907" lon="6.71335">
        <ele>1950.7</ele>
        <time>2013-09-04T07:20:36Z</time>
      </trkpt>
      <trkpt lat="44.17907" lon="6.71338">
        <ele>1950.7</ele>
        <time>2013-09-04T07:20:37Z</time>
      </trkpt>
      <trkpt lat="44.17906" lon="6.71353">
        <ele>1952.6</ele>
        <time>2013-09-04T07:20:48Z</time>
      </trkpt>
      <trkpt lat="44.17911" lon="6.71363">
        <ele>1954</ele>
        <time>2013-09-04T07:21:00Z</time>
      </trkpt>
      <trkpt lat="44.17912" lon="6.71364">
        <ele>1954</ele>
        <time>2013-09-04T07:21:01Z</time>
      </trkpt>
      <trkpt lat="44.17912" lon="6.71365">
        <ele>1954</ele>
        <time>2013-09-04T07:21:02Z</time>
      </trkpt>
      <trkpt lat="44.17913" lon="6.71368">
        <ele>1954</ele>
        <time>2013-09-04T07:21:03Z</time>
      </trkpt>
      <trkpt lat="44.17913" lon="6.71371">
        <ele>1954</ele>
        <time>2013-09-04T07:21:04Z</time>
      </trkpt>
      <trkpt lat="44.17914" lon="6.71374">
        <ele>1954</ele>
        <time>2013-09-04T07:21:05Z</time>
      </trkpt>
      <trkpt lat="44.17915" lon="6.71377">
        <ele>1953.5</ele>
        <time>2013-09-04T07:21:06Z</time>
      </trkpt>
      <trkpt lat="44.17923" lon="6.71424">
        <ele>1953.5</ele>
        <time>2013-09-04T07:21:18Z</time>
      </trkpt>
      <trkpt lat="44.17945" lon="6.71466">
        <ele>1952.1</ele>
        <time>2013-09-04T07:21:29Z</time>
      </trkpt>
      <trkpt lat="44.17958" lon="6.7148">
        <ele>1950.7</ele>
        <time>2013-09-04T07:21:33Z</time>
      </trkpt>
      <trkpt lat="44.17964" lon="6.71488">
        <ele>1949.2</ele>
        <time>2013-09-04T07:21:35Z</time>
      </trkpt>
      <trkpt lat="44.17968" lon="6.71493">
        <ele>1950.2</ele>
        <time>2013-09-04T07:21:36Z</time>
      </trkpt>
      <trkpt lat="44.1797" lon="6.71496">
        <ele>1949.7</ele>
        <time>2013-09-04T07:21:37Z</time>
      </trkpt>
      <trkpt lat="44.17988" lon="6.71516">
        <ele>1947.3</ele>
        <time>2013-09-04T07:21:46Z</time>
      </trkpt>
      <trkpt lat="44.17989" lon="6.71518">
        <ele>1948.3</ele>
        <time>2013-09-04T07:21:47Z</time>
      </trkpt>
      <trkpt lat="44.1799" lon="6.71521">
        <ele>1948.3</ele>
        <time>2013-09-04T07:21:48Z</time>
      </trkpt>
      <trkpt lat="44.17989" lon="6.71523">
        <ele>1948.3</ele>
        <time>2013-09-04T07:21:49Z</time>
      </trkpt>
      <trkpt lat="44.17988" lon="6.71526">
        <ele>1948.3</ele>
        <time>2013-09-04T07:21:50Z</time>
      </trkpt>
      <trkpt lat="44.17987" lon="6.71529">
        <ele>1948.3</ele>
        <time>2013-09-04T07:21:51Z</time>
      </trkpt>
      <trkpt lat="44.17986" lon="6.71531">
        <ele>1948.3</ele>
        <time>2013-09-04T07:21:52Z</time>
      </trkpt>
      <trkpt lat="44.17986" lon="6.71534">
        <ele>1949.2</ele>
        <time>2013-09-04T07:21:53Z</time>
      </trkpt>
      <trkpt lat="44.17986" lon="6.71537">
        <ele>1949.7</ele>
        <time>2013-09-04T07:21:54Z</time>
      </trkpt>
      <trkpt lat="44.17984" lon="6.71578">
        <ele>1950.2</ele>
        <time>2013-09-04T07:22:06Z</time>
      </trkpt>
      <trkpt lat="44.17983" lon="6.71624">
        <ele>1950.7</ele>
        <time>2013-09-04T07:22:21Z</time>
      </trkpt>
      <trkpt lat="44.17983" lon="6.71664">
        <ele>1952.6</ele>
        <time>2013-09-04T07:22:34Z</time>
      </trkpt>
      <trkpt lat="44.17983" lon="6.71704">
        <ele>1954</ele>
        <time>2013-09-04T07:22:49Z</time>
      </trkpt>
      <trkpt lat="44.1799" lon="6.71742">
        <ele>1955.9</ele>
        <time>2013-09-04T07:23:04Z</time>
      </trkpt>
      <trkpt lat="44.18011" lon="6.71765">
        <ele>1956.9</ele>
        <time>2013-09-04T07:23:19Z</time>
      </trkpt>
      <trkpt lat="44.18013" lon="6.71765">
        <ele>1957.4</ele>
        <time>2013-09-04T07:23:31Z</time>
      </trkpt>
      <trkpt lat="44.18021" lon="6.71766">
        <ele>1956.4</ele>
        <time>2013-09-04T07:23:52Z</time>
      </trkpt>
      <trkpt lat="44.18022" lon="6.71765">
        <ele>1955.9</ele>
        <time>2013-09-04T07:24:03Z</time>
      </trkpt>
      <trkpt lat="44.18022" lon="6.71765">
        <ele>1955.5</ele>
        <time>2013-09-04T07:24:39Z</time>
      </trkpt>
      <trkpt lat="44.18025" lon="6.71766">
        <ele>1955.5</ele>
        <time>2013-09-04T07:25:07Z</time>
      </trkpt>
      <trkpt lat="44.18025" lon="6.71768">
        <ele>1955.5</ele>
        <time>2013-09-04T07:25:43Z</time>
      </trkpt>
      <trkpt lat="44.18038" lon="6.71768">
        <ele>1952.6</ele>
        <time>2013-09-04T07:26:04Z</time>
      </trkpt>
      <trkpt lat="44.18047" lon="6.71762">
        <ele>1949.7</ele>
        <time>2013-09-04T07:26:08Z</time>
      </trkpt>
      <trkpt lat="44.18048" lon="6.71763">
        <ele>1949.2</ele>
        <time>2013-09-04T07:26:09Z</time>
      </trkpt>
      <trkpt lat="44.18048" lon="6.71765">
        <ele>1948.7</ele>
        <time>2013-09-04T07:26:10Z</time>
      </trkpt>
      <trkpt lat="44.18047" lon="6.71767">
        <ele>1948.3</ele>
        <time>2013-09-04T07:26:11Z</time>
      </trkpt>
      <trkpt lat="44.18046" lon="6.71771">
        <ele>1947.8</ele>
        <time>2013-09-04T07:26:12Z</time>
      </trkpt>
      <trkpt lat="44.18039" lon="6.7179">
        <ele>1943.9</ele>
        <time>2013-09-04T07:26:18Z</time>
      </trkpt>
      <trkpt lat="44.18034" lon="6.71798">
        <ele>1942</ele>
        <time>2013-09-04T07:26:21Z</time>
      </trkpt>
      <trkpt lat="44.18026" lon="6.71807">
        <ele>1939.6</ele>
        <time>2013-09-04T07:26:31Z</time>
      </trkpt>
      <trkpt lat="44.18027" lon="6.7181">
        <ele>1938.2</ele>
        <time>2013-09-04T07:26:44Z</time>
      </trkpt>
      <trkpt lat="44.18029" lon="6.71811">
        <ele>1938.2</ele>
        <time>2013-09-04T07:26:45Z</time>
      </trkpt>
      <trkpt lat="44.18031" lon="6.71813">
        <ele>1937.7</ele>
        <time>2013-09-04T07:26:46Z</time>
      </trkpt>
      <trkpt lat="44.18033" lon="6.71813">
        <ele>1936.7</ele>
        <time>2013-09-04T07:26:47Z</time>
      </trkpt>
      <trkpt lat="44.18036" lon="6.71813">
        <ele>1936.2</ele>
        <time>2013-09-04T07:26:48Z</time>
      </trkpt>
      <trkpt lat="44.18038" lon="6.71813">
        <ele>1935.3</ele>
        <time>2013-09-04T07:26:49Z</time>
      </trkpt>
      <trkpt lat="44.1804" lon="6.71813">
        <ele>1934.8</ele>
        <time>2013-09-04T07:26:50Z</time>
      </trkpt>
      <trkpt lat="44.18042" lon="6.71812">
        <ele>1934.3</ele>
        <time>2013-09-04T07:26:51Z</time>
      </trkpt>
      <trkpt lat="44.18044" lon="6.71812">
        <ele>1933.8</ele>
        <time>2013-09-04T07:26:52Z</time>
      </trkpt>
      <trkpt lat="44.18044" lon="6.71814">
        <ele>1933.8</ele>
        <time>2013-09-04T07:26:53Z</time>
      </trkpt>
      <trkpt lat="44.18044" lon="6.71817">
        <ele>1933.4</ele>
        <time>2013-09-04T07:26:54Z</time>
      </trkpt>
      <trkpt lat="44.18043" lon="6.7182">
        <ele>1931.9</ele>
        <time>2013-09-04T07:26:55Z</time>
      </trkpt>
      <trkpt lat="44.18041" lon="6.71822">
        <ele>1931.9</ele>
        <time>2013-09-04T07:26:56Z</time>
      </trkpt>
      <trkpt lat="44.1804" lon="6.71824">
        <ele>1930.5</ele>
        <time>2013-09-04T07:26:57Z</time>
      </trkpt>
      <trkpt lat="44.1804" lon="6.71827">
        <ele>1930</ele>
        <time>2013-09-04T07:26:59Z</time>
      </trkpt>
      <trkpt lat="44.18041" lon="6.71827">
        <ele>1929.5</ele>
        <time>2013-09-04T07:27:00Z</time>
      </trkpt>
      <trkpt lat="44.18043" lon="6.71827">
        <ele>1929.5</ele>
        <time>2013-09-04T07:27:01Z</time>
      </trkpt>
      <trkpt lat="44.18045" lon="6.71826">
        <ele>1929</ele>
        <time>2013-09-04T07:27:02Z</time>
      </trkpt>
      <trkpt lat="44.18047" lon="6.71825">
        <ele>1928.5</ele>
        <time>2013-09-04T07:27:03Z</time>
      </trkpt>
      <trkpt lat="44.1805" lon="6.71828">
        <ele>1927.1</ele>
        <time>2013-09-04T07:27:14Z</time>
      </trkpt>
      <trkpt lat="44.1805" lon="6.71831">
        <ele>1927.1</ele>
        <time>2013-09-04T07:27:15Z</time>
      </trkpt>
      <trkpt lat="44.18048" lon="6.71834">
        <ele>1926.1</ele>
        <time>2013-09-04T07:27:16Z</time>
      </trkpt>
      <trkpt lat="44.18046" lon="6.71837">
        <ele>1926.1</ele>
        <time>2013-09-04T07:27:17Z</time>
      </trkpt>
      <trkpt lat="44.18043" lon="6.71844">
        <ele>1924.7</ele>
        <time>2013-09-04T07:27:19Z</time>
      </trkpt>
      <trkpt lat="44.1804" lon="6.71846">
        <ele>1923.7</ele>
        <time>2013-09-04T07:27:20Z</time>
      </trkpt>
      <trkpt lat="44.18037" lon="6.71848">
        <ele>1923.3</ele>
        <time>2013-09-04T07:27:21Z</time>
      </trkpt>
      <trkpt lat="44.18019" lon="6.7186">
        <ele>1920.9</ele>
        <time>2013-09-04T07:27:30Z</time>
      </trkpt>
      <trkpt lat="44.1802" lon="6.71861">
        <ele>1920.4</ele>
        <time>2013-09-04T07:27:42Z</time>
      </trkpt>
      <trkpt lat="44.1802" lon="6.71863">
        <ele>1920.4</ele>
        <time>2013-09-04T07:27:43Z</time>
      </trkpt>
      <trkpt lat="44.18021" lon="6.71871">
        <ele>1918.5</ele>
        <time>2013-09-04T07:27:45Z</time>
      </trkpt>
      <trkpt lat="44.18022" lon="6.71876">
        <ele>1917.5</ele>
        <time>2013-09-04T07:27:46Z</time>
      </trkpt>
      <trkpt lat="44.18023" lon="6.71883">
        <ele>1916</ele>
        <time>2013-09-04T07:27:48Z</time>
      </trkpt>
      <trkpt lat="44.18021" lon="6.71887">
        <ele>1915.6</ele>
        <time>2013-09-04T07:27:49Z</time>
      </trkpt>
      <trkpt lat="44.1802" lon="6.71891">
        <ele>1915.1</ele>
        <time>2013-09-04T07:27:50Z</time>
      </trkpt>
      <trkpt lat="44.1802" lon="6.71895">
        <ele>1914.1</ele>
        <time>2013-09-04T07:27:51Z</time>
      </trkpt>
      <trkpt lat="44.18019" lon="6.71899">
        <ele>1913.6</ele>
        <time>2013-09-04T07:27:52Z</time>
      </trkpt>
      <trkpt lat="44.18019" lon="6.71903">
        <ele>1913.2</ele>
        <time>2013-09-04T07:27:53Z</time>
      </trkpt>
      <trkpt lat="44.18018" lon="6.71907">
        <ele>1912.7</ele>
        <time>2013-09-04T07:27:54Z</time>
      </trkpt>
      <trkpt lat="44.18017" lon="6.71913">
        <ele>1911.7</ele>
        <time>2013-09-04T07:27:55Z</time>
      </trkpt>
      <trkpt lat="44.18016" lon="6.71919">
        <ele>1910.8</ele>
        <time>2013-09-04T07:27:56Z</time>
      </trkpt>
      <trkpt lat="44.18015" lon="6.71926">
        <ele>1910.3</ele>
        <time>2013-09-04T07:27:57Z</time>
      </trkpt>
      <trkpt lat="44.1801" lon="6.71942">
        <ele>1907.9</ele>
        <time>2013-09-04T07:28:00Z</time>
      </trkpt>
      <trkpt lat="44.17996" lon="6.7196">
        <ele>1906</ele>
        <time>2013-09-04T07:28:05Z</time>
      </trkpt>
      <trkpt lat="44.17996" lon="6.71964">
        <ele>1905.5</ele>
        <time>2013-09-04T07:28:06Z</time>
      </trkpt>
      <trkpt lat="44.17998" lon="6.71968">
        <ele>1905</ele>
        <time>2013-09-04T07:28:07Z</time>
      </trkpt>
      <trkpt lat="44.18006" lon="6.71986">
        <ele>1902.1</ele>
        <time>2013-09-04T07:28:12Z</time>
      </trkpt>
      <trkpt lat="44.18009" lon="6.71987">
        <ele>1900.7</ele>
        <time>2013-09-04T07:28:13Z</time>
      </trkpt>
      <trkpt lat="44.18012" lon="6.71987">
        <ele>1900.2</ele>
        <time>2013-09-04T07:28:14Z</time>
      </trkpt>
      <trkpt lat="44.18029" lon="6.71987">
        <ele>1896.8</ele>
        <time>2013-09-04T07:28:19Z</time>
      </trkpt>
      <trkpt lat="44.18035" lon="6.71986">
        <ele>1896.3</ele>
        <time>2013-09-04T07:28:21Z</time>
      </trkpt>
      <trkpt lat="44.18036" lon="6.71984">
        <ele>1894.9</ele>
        <time>2013-09-04T07:28:22Z</time>
      </trkpt>
      <trkpt lat="44.18038" lon="6.71982">
        <ele>1894.9</ele>
        <time>2013-09-04T07:28:23Z</time>
      </trkpt>
      <trkpt lat="44.18039" lon="6.71984">
        <ele>1893.9</ele>
        <time>2013-09-04T07:28:25Z</time>
      </trkpt>
      <trkpt lat="44.18042" lon="6.71997">
        <ele>1892.5</ele>
        <time>2013-09-04T07:28:29Z</time>
      </trkpt>
      <trkpt lat="44.18044" lon="6.72">
        <ele>1891.5</ele>
        <time>2013-09-04T07:28:30Z</time>
      </trkpt>
      <trkpt lat="44.18046" lon="6.72004">
        <ele>1890.1</ele>
        <time>2013-09-04T07:28:31Z</time>
      </trkpt>
      <trkpt lat="44.18047" lon="6.72008">
        <ele>1890.6</ele>
        <time>2013-09-04T07:28:32Z</time>
      </trkpt>
      <trkpt lat="44.18046" lon="6.72013">
        <ele>1889.1</ele>
        <time>2013-09-04T07:28:33Z</time>
      </trkpt>
      <trkpt lat="44.18045" lon="6.72017">
        <ele>1888.7</ele>
        <time>2013-09-04T07:28:34Z</time>
      </trkpt>
      <trkpt lat="44.18043" lon="6.72022">
        <ele>1888.2</ele>
        <time>2013-09-04T07:28:35Z</time>
      </trkpt>
      <trkpt lat="44.18041" lon="6.72026">
        <ele>1887.7</ele>
        <time>2013-09-04T07:28:36Z</time>
      </trkpt>
      <trkpt lat="44.18039" lon="6.7203">
        <ele>1887.2</ele>
        <time>2013-09-04T07:28:37Z</time>
      </trkpt>
      <trkpt lat="44.18036" lon="6.72037">
        <ele>1886.2</ele>
        <time>2013-09-04T07:28:39Z</time>
      </trkpt>
      <trkpt lat="44.18032" lon="6.7205">
        <ele>1884.8</ele>
        <time>2013-09-04T07:28:46Z</time>
      </trkpt>
      <trkpt lat="44.18031" lon="6.7206">
        <ele>1883.8</ele>
        <time>2013-09-04T07:28:48Z</time>
      </trkpt>
      <trkpt lat="44.18033" lon="6.72066">
        <ele>1883.4</ele>
        <time>2013-09-04T07:28:49Z</time>
      </trkpt>
      <trkpt lat="44.18035" lon="6.72078">
        <ele>1883.4</ele>
        <time>2013-09-04T07:28:51Z</time>
      </trkpt>
      <trkpt lat="44.18036" lon="6.72085">
        <ele>1883.4</ele>
        <time>2013-09-04T07:28:52Z</time>
      </trkpt>
      <trkpt lat="44.18036" lon="6.72092">
        <ele>1882.9</ele>
        <time>2013-09-04T07:28:53Z</time>
      </trkpt>
      <trkpt lat="44.18037" lon="6.72108">
        <ele>1881.9</ele>
        <time>2013-09-04T07:28:55Z</time>
      </trkpt>
      <trkpt lat="44.18038" lon="6.72114">
        <ele>1881.4</ele>
        <time>2013-09-04T07:28:56Z</time>
      </trkpt>
      <trkpt lat="44.1804" lon="6.7212">
        <ele>1880.5</ele>
        <time>2013-09-04T07:28:57Z</time>
      </trkpt>
      <trkpt lat="44.18042" lon="6.72124">
        <ele>1880.5</ele>
        <time>2013-09-04T07:28:58Z</time>
      </trkpt>
      <trkpt lat="44.18044" lon="6.72129">
        <ele>1879.5</ele>
        <time>2013-09-04T07:28:59Z</time>
      </trkpt>
      <trkpt lat="44.18046" lon="6.72133">
        <ele>1878.6</ele>
        <time>2013-09-04T07:29:00Z</time>
      </trkpt>
      <trkpt lat="44.18047" lon="6.72138">
        <ele>1878.6</ele>
        <time>2013-09-04T07:29:01Z</time>
      </trkpt>
      <trkpt lat="44.18052" lon="6.72171">
        <ele>1874.7</ele>
        <time>2013-09-04T07:29:09Z</time>
      </trkpt>
      <trkpt lat="44.18052" lon="6.72177">
        <ele>1872.8</ele>
        <time>2013-09-04T07:29:11Z</time>
      </trkpt>
      <trkpt lat="44.18056" lon="6.72176">
        <ele>1871.8</ele>
        <time>2013-09-04T07:29:13Z</time>
      </trkpt>
      <trkpt lat="44.18059" lon="6.72174">
        <ele>1870.9</ele>
        <time>2013-09-04T07:29:14Z</time>
      </trkpt>
      <trkpt lat="44.18062" lon="6.72171">
        <ele>1870.4</ele>
        <time>2013-09-04T07:29:15Z</time>
      </trkpt>
      <trkpt lat="44.18064" lon="6.72167">
        <ele>1869.9</ele>
        <time>2013-09-04T07:29:16Z</time>
      </trkpt>
      <trkpt lat="44.18074" lon="6.7215">
        <ele>1866.5</ele>
        <time>2013-09-04T07:29:21Z</time>
      </trkpt>
      <trkpt lat="44.18081" lon="6.72138">
        <ele>1863.7</ele>
        <time>2013-09-04T07:29:26Z</time>
      </trkpt>
      <trkpt lat="44.18082" lon="6.72138">
        <ele>1863.2</ele>
        <time>2013-09-04T07:29:27Z</time>
      </trkpt>
      <trkpt lat="44.18085" lon="6.72153">
        <ele>1860.8</ele>
        <time>2013-09-04T07:29:32Z</time>
      </trkpt>
      <trkpt lat="44.18085" lon="6.72164">
        <ele>1859.3</ele>
        <time>2013-09-04T07:29:35Z</time>
      </trkpt>
      <trkpt lat="44.18084" lon="6.72171">
        <ele>1858.9</ele>
        <time>2013-09-04T07:29:45Z</time>
      </trkpt>
      <trkpt lat="44.18091" lon="6.72175">
        <ele>1857.4</ele>
        <time>2013-09-04T07:30:04Z</time>
      </trkpt>
      <trkpt lat="44.18091" lon="6.72177">
        <ele>1856.9</ele>
        <time>2013-09-04T07:30:05Z</time>
      </trkpt>
      <trkpt lat="44.18091" lon="6.72179">
        <ele>1856.9</ele>
        <time>2013-09-04T07:30:06Z</time>
      </trkpt>
      <trkpt lat="44.18095" lon="6.72191">
        <ele>1854.5</ele>
        <time>2013-09-04T07:30:13Z</time>
      </trkpt>
      <trkpt lat="44.18096" lon="6.72189">
        <ele>1854.5</ele>
        <time>2013-09-04T07:30:14Z</time>
      </trkpt>
      <trkpt lat="44.18098" lon="6.72187">
        <ele>1854</ele>
        <time>2013-09-04T07:30:15Z</time>
      </trkpt>
      <trkpt lat="44.18109" lon="6.72172">
        <ele>1850.7</ele>
        <time>2013-09-04T07:30:20Z</time>
      </trkpt>
      <trkpt lat="44.1812" lon="6.72161">
        <ele>1847.3</ele>
        <time>2013-09-04T07:30:25Z</time>
      </trkpt>
      <trkpt lat="44.18121" lon="6.72159">
        <ele>1847.3</ele>
        <time>2013-09-04T07:30:26Z</time>
      </trkpt>
      <trkpt lat="44.18128" lon="6.72149">
        <ele>1844.4</ele>
        <time>2013-09-04T07:30:31Z</time>
      </trkpt>
      <trkpt lat="44.18131" lon="6.72149">
        <ele>1844</ele>
        <time>2013-09-04T07:30:32Z</time>
      </trkpt>
      <trkpt lat="44.18133" lon="6.72148">
        <ele>1843</ele>
        <time>2013-09-04T07:30:33Z</time>
      </trkpt>
      <trkpt lat="44.18135" lon="6.72146">
        <ele>1842.5</ele>
        <time>2013-09-04T07:30:34Z</time>
      </trkpt>
      <trkpt lat="44.18137" lon="6.72143">
        <ele>1842</ele>
        <time>2013-09-04T07:30:35Z</time>
      </trkpt>
      <trkpt lat="44.1814" lon="6.7214">
        <ele>1841.1</ele>
        <time>2013-09-04T07:30:37Z</time>
      </trkpt>
      <trkpt lat="44.18142" lon="6.7214">
        <ele>1841.1</ele>
        <time>2013-09-04T07:30:38Z</time>
      </trkpt>
      <trkpt lat="44.18141" lon="6.72142">
        <ele>1840.6</ele>
        <time>2013-09-04T07:30:50Z</time>
      </trkpt>
      <trkpt lat="44.18141" lon="6.72144">
        <ele>1840.6</ele>
        <time>2013-09-04T07:30:51Z</time>
      </trkpt>
      <trkpt lat="44.1814" lon="6.72147">
        <ele>1840.1</ele>
        <time>2013-09-04T07:30:52Z</time>
      </trkpt>
      <trkpt lat="44.1814" lon="6.72151">
        <ele>1840.1</ele>
        <time>2013-09-04T07:30:53Z</time>
      </trkpt>
      <trkpt lat="44.18139" lon="6.72153">
        <ele>1839.1</ele>
        <time>2013-09-04T07:30:54Z</time>
      </trkpt>
      <trkpt lat="44.18136" lon="6.72157">
        <ele>1838.7</ele>
        <time>2013-09-04T07:30:56Z</time>
      </trkpt>
      <trkpt lat="44.18132" lon="6.72164">
        <ele>1836.7</ele>
        <time>2013-09-04T07:31:07Z</time>
      </trkpt>
      <trkpt lat="44.18131" lon="6.72168">
        <ele>1836.7</ele>
        <time>2013-09-04T07:31:10Z</time>
      </trkpt>
      <trkpt lat="44.18132" lon="6.72177">
        <ele>1834.3</ele>
        <time>2013-09-04T07:31:25Z</time>
      </trkpt>
      <trkpt lat="44.18134" lon="6.72173">
        <ele>1834.3</ele>
        <time>2013-09-04T07:31:32Z</time>
      </trkpt>
      <trkpt lat="44.18135" lon="6.72171">
        <ele>1834.3</ele>
        <time>2013-09-04T07:31:33Z</time>
      </trkpt>
      <trkpt lat="44.18138" lon="6.72167">
        <ele>1831.9</ele>
        <time>2013-09-04T07:31:36Z</time>
      </trkpt>
      <trkpt lat="44.18139" lon="6.72167">
        <ele>1831.5</ele>
        <time>2013-09-04T07:31:38Z</time>
      </trkpt>
      <trkpt lat="44.18146" lon="6.72168">
        <ele>1830</ele>
        <time>2013-09-04T07:31:50Z</time>
      </trkpt>
      <trkpt lat="44.18149" lon="6.72167">
        <ele>1828.1</ele>
        <time>2013-09-04T07:31:54Z</time>
      </trkpt>
      <trkpt lat="44.18153" lon="6.7216">
        <ele>1827.6</ele>
        <time>2013-09-04T07:32:09Z</time>
      </trkpt>
      <trkpt lat="44.18153" lon="6.72168">
        <ele>1826.2</ele>
        <time>2013-09-04T07:32:24Z</time>
      </trkpt>
      <trkpt lat="44.18157" lon="6.72171">
        <ele>1823.8</ele>
        <time>2013-09-04T07:32:35Z</time>
      </trkpt>
      <trkpt lat="44.18155" lon="6.72176">
        <ele>1822.8</ele>
        <time>2013-09-04T07:32:47Z</time>
      </trkpt>
      <trkpt lat="44.18155" lon="6.72178">
        <ele>1822.3</ele>
        <time>2013-09-04T07:32:48Z</time>
      </trkpt>
      <trkpt lat="44.18151" lon="6.72193">
        <ele>1819</ele>
        <time>2013-09-04T07:32:55Z</time>
      </trkpt>
      <trkpt lat="44.18152" lon="6.72198">
        <ele>1817.5</ele>
        <time>2013-09-04T07:33:09Z</time>
      </trkpt>
      <trkpt lat="44.18151" lon="6.72198">
        <ele>1817</ele>
        <time>2013-09-04T07:33:10Z</time>
      </trkpt>
      <trkpt lat="44.18151" lon="6.72201">
        <ele>1817</ele>
        <time>2013-09-04T07:33:11Z</time>
      </trkpt>
      <trkpt lat="44.18151" lon="6.72204">
        <ele>1816.6</ele>
        <time>2013-09-04T07:33:12Z</time>
      </trkpt>
      <trkpt lat="44.18143" lon="6.72219">
        <ele>1812.7</ele>
        <time>2013-09-04T07:33:18Z</time>
      </trkpt>
      <trkpt lat="44.18142" lon="6.72224">
        <ele>1812.7</ele>
        <time>2013-09-04T07:33:19Z</time>
      </trkpt>
      <trkpt lat="44.18142" lon="6.72244">
        <ele>1809.8</ele>
        <time>2013-09-04T07:33:25Z</time>
      </trkpt>
      <trkpt lat="44.18143" lon="6.72243">
        <ele>1809.8</ele>
        <time>2013-09-04T07:33:26Z</time>
      </trkpt>
      <trkpt lat="44.1815" lon="6.72236">
        <ele>1807.4</ele>
        <time>2013-09-04T07:33:30Z</time>
      </trkpt>
      <trkpt lat="44.1815" lon="6.72237">
        <ele>1806.9</ele>
        <time>2013-09-04T07:33:31Z</time>
      </trkpt>
      <trkpt lat="44.18151" lon="6.7224">
        <ele>1806.9</ele>
        <time>2013-09-04T07:33:32Z</time>
      </trkpt>
      <trkpt lat="44.1815" lon="6.72243">
        <ele>1806.5</ele>
        <time>2013-09-04T07:33:33Z</time>
      </trkpt>
      <trkpt lat="44.18149" lon="6.72246">
        <ele>1805.5</ele>
        <time>2013-09-04T07:33:34Z</time>
      </trkpt>
      <trkpt lat="44.18147" lon="6.72249">
        <ele>1805.5</ele>
        <time>2013-09-04T07:33:35Z</time>
      </trkpt>
      <trkpt lat="44.18146" lon="6.72252">
        <ele>1805</ele>
        <time>2013-09-04T07:33:36Z</time>
      </trkpt>
      <trkpt lat="44.18146" lon="6.72254">
        <ele>1805</ele>
        <time>2013-09-04T07:33:37Z</time>
      </trkpt>
      <trkpt lat="44.1815" lon="6.72255">
        <ele>1802.6</ele>
        <time>2013-09-04T07:33:41Z</time>
      </trkpt>
      <trkpt lat="44.1815" lon="6.72257">
        <ele>1801.2</ele>
        <time>2013-09-04T07:33:43Z</time>
      </trkpt>
      <trkpt lat="44.18149" lon="6.72259">
        <ele>1800.2</ele>
        <time>2013-09-04T07:33:44Z</time>
      </trkpt>
      <trkpt lat="44.18148" lon="6.72262">
        <ele>1799.2</ele>
        <time>2013-09-04T07:33:45Z</time>
      </trkpt>
      <trkpt lat="44.18147" lon="6.72265">
        <ele>1798.8</ele>
        <time>2013-09-04T07:33:46Z</time>
      </trkpt>
      <trkpt lat="44.18145" lon="6.72269">
        <ele>1797.3</ele>
        <time>2013-09-04T07:33:47Z</time>
      </trkpt>
      <trkpt lat="44.18144" lon="6.72273">
        <ele>1796.4</ele>
        <time>2013-09-04T07:33:48Z</time>
      </trkpt>
      <trkpt lat="44.18142" lon="6.72296">
        <ele>1793</ele>
        <time>2013-09-04T07:33:52Z</time>
      </trkpt>
      <trkpt lat="44.18147" lon="6.72325">
        <ele>1789.2</ele>
        <time>2013-09-04T07:33:57Z</time>
      </trkpt>
      <trkpt lat="44.18151" lon="6.7234">
        <ele>1785.8</ele>
        <time>2013-09-04T07:34:01Z</time>
      </trkpt>
      <trkpt lat="44.18151" lon="6.72342">
        <ele>1785.3</ele>
        <time>2013-09-04T07:34:02Z</time>
      </trkpt>
      <trkpt lat="44.18152" lon="6.72344">
        <ele>1784.8</ele>
        <time>2013-09-04T07:34:04Z</time>
      </trkpt>
      <trkpt lat="44.18157" lon="6.72355">
        <ele>1782.9</ele>
        <time>2013-09-04T07:34:17Z</time>
      </trkpt>
      <trkpt lat="44.18155" lon="6.72374">
        <ele>1779.1</ele>
        <time>2013-09-04T07:34:38Z</time>
      </trkpt>
      <trkpt lat="44.18153" lon="6.72382">
        <ele>1776.2</ele>
        <time>2013-09-04T07:34:42Z</time>
      </trkpt>
      <trkpt lat="44.18152" lon="6.72385">
        <ele>1775.2</ele>
        <time>2013-09-04T07:34:43Z</time>
      </trkpt>
      <trkpt lat="44.18151" lon="6.72394">
        <ele>1774.3</ele>
        <time>2013-09-04T07:34:45Z</time>
      </trkpt>
      <trkpt lat="44.18151" lon="6.72399">
        <ele>1773.3</ele>
        <time>2013-09-04T07:34:46Z</time>
      </trkpt>
      <trkpt lat="44.18153" lon="6.72411">
        <ele>1771.4</ele>
        <time>2013-09-04T07:34:48Z</time>
      </trkpt>
      <trkpt lat="44.18152" lon="6.72418">
        <ele>1770.4</ele>
        <time>2013-09-04T07:34:49Z</time>
      </trkpt>
      <trkpt lat="44.18151" lon="6.72425">
        <ele>1770.4</ele>
        <time>2013-09-04T07:34:50Z</time>
      </trkpt>
      <trkpt lat="44.18147" lon="6.7245">
        <ele>1769</ele>
        <time>2013-09-04T07:34:59Z</time>
      </trkpt>
      <trkpt lat="44.18144" lon="6.72468">
        <ele>1767.5</ele>
        <time>2013-09-04T07:35:08Z</time>
      </trkpt>
      <trkpt lat="44.1814" lon="6.72478">
        <ele>1766.6</ele>
        <time>2013-09-04T07:35:13Z</time>
      </trkpt>
      <trkpt lat="44.18139" lon="6.72479">
        <ele>1766.6</ele>
        <time>2013-09-04T07:35:14Z</time>
      </trkpt>
      <trkpt lat="44.18138" lon="6.72481">
        <ele>1765.6</ele>
        <time>2013-09-04T07:35:15Z</time>
      </trkpt>
      <trkpt lat="44.1813" lon="6.72502">
        <ele>1763.2</ele>
        <time>2013-09-04T07:35:21Z</time>
      </trkpt>
      <trkpt lat="44.18126" lon="6.72525">
        <ele>1761.3</ele>
        <time>2013-09-04T07:35:29Z</time>
      </trkpt>
      <trkpt lat="44.18126" lon="6.72528">
        <ele>1761.3</ele>
        <time>2013-09-04T07:35:30Z</time>
      </trkpt>
      <trkpt lat="44.18125" lon="6.72531">
        <ele>1760.8</ele>
        <time>2013-09-04T07:35:31Z</time>
      </trkpt>
      <trkpt lat="44.18124" lon="6.72535">
        <ele>1759.4</ele>
        <time>2013-09-04T07:35:32Z</time>
      </trkpt>
      <trkpt lat="44.1812" lon="6.72569">
        <ele>1759.4</ele>
        <time>2013-09-04T07:35:41Z</time>
      </trkpt>
      <trkpt lat="44.18119" lon="6.72575">
        <ele>1758.9</ele>
        <time>2013-09-04T07:35:43Z</time>
      </trkpt>
      <trkpt lat="44.18119" lon="6.72579">
        <ele>1758.9</ele>
        <time>2013-09-04T07:35:44Z</time>
      </trkpt>
      <trkpt lat="44.18119" lon="6.72583">
        <ele>1758.9</ele>
        <time>2013-09-04T07:35:45Z</time>
      </trkpt>
      <trkpt lat="44.18118" lon="6.72588">
        <ele>1758.9</ele>
        <time>2013-09-04T07:35:46Z</time>
      </trkpt>
      <trkpt lat="44.18116" lon="6.72592">
        <ele>1757.9</ele>
        <time>2013-09-04T07:35:47Z</time>
      </trkpt>
      <trkpt lat="44.18115" lon="6.72597">
        <ele>1757.9</ele>
        <time>2013-09-04T07:35:48Z</time>
      </trkpt>
      <trkpt lat="44.18105" lon="6.72644">
        <ele>1755</ele>
        <time>2013-09-04T07:35:58Z</time>
      </trkpt>
      <trkpt lat="44.18107" lon="6.72664">
        <ele>1754.1</ele>
        <time>2013-09-04T07:36:07Z</time>
      </trkpt>
      <trkpt lat="44.18108" lon="6.72685">
        <ele>1751.7</ele>
        <time>2013-09-04T07:36:11Z</time>
      </trkpt>
      <trkpt lat="44.18108" lon="6.72691">
        <ele>1751.7</ele>
        <time>2013-09-04T07:36:12Z</time>
      </trkpt>
      <trkpt lat="44.18105" lon="6.72698">
        <ele>1750.7</ele>
        <time>2013-09-04T07:36:14Z</time>
      </trkpt>
      <trkpt lat="44.18099" lon="6.72719">
        <ele>1747.8</ele>
        <time>2013-09-04T07:36:19Z</time>
      </trkpt>
      <trkpt lat="44.18098" lon="6.72724">
        <ele>1747.3</ele>
        <time>2013-09-04T07:36:20Z</time>
      </trkpt>
      <trkpt lat="44.18096" lon="6.72728">
        <ele>1746.9</ele>
        <time>2013-09-04T07:36:21Z</time>
      </trkpt>
      <trkpt lat="44.18093" lon="6.72736">
        <ele>1745.9</ele>
        <time>2013-09-04T07:36:23Z</time>
      </trkpt>
      <trkpt lat="44.18081" lon="6.72754">
        <ele>1742.1</ele>
        <time>2013-09-04T07:36:28Z</time>
      </trkpt>
      <trkpt lat="44.18078" lon="6.72755">
        <ele>1742.1</ele>
        <time>2013-09-04T07:36:29Z</time>
      </trkpt>
      <trkpt lat="44.18072" lon="6.72762">
        <ele>1740.6</ele>
        <time>2013-09-04T07:36:32Z</time>
      </trkpt>
      <trkpt lat="44.18072" lon="6.72765">
        <ele>1740.6</ele>
        <time>2013-09-04T07:36:33Z</time>
      </trkpt>
      <trkpt lat="44.18073" lon="6.72769">
        <ele>1740.1</ele>
        <time>2013-09-04T07:36:34Z</time>
      </trkpt>
      <trkpt lat="44.18074" lon="6.72773">
        <ele>1740.1</ele>
        <time>2013-09-04T07:36:35Z</time>
      </trkpt>
      <trkpt lat="44.18076" lon="6.72777">
        <ele>1739.2</ele>
        <time>2013-09-04T07:36:36Z</time>
      </trkpt>
      <trkpt lat="44.18078" lon="6.72781">
        <ele>1738.7</ele>
        <time>2013-09-04T07:36:37Z</time>
      </trkpt>
      <trkpt lat="44.18079" lon="6.72785">
        <ele>1738.7</ele>
        <time>2013-09-04T07:36:38Z</time>
      </trkpt>
      <trkpt lat="44.18087" lon="6.72806">
        <ele>1734.8</ele>
        <time>2013-09-04T07:36:43Z</time>
      </trkpt>
      <trkpt lat="44.18087" lon="6.7281">
        <ele>1734.4</ele>
        <time>2013-09-04T07:36:44Z</time>
      </trkpt>
      <trkpt lat="44.18087" lon="6.72816">
        <ele>1732.9</ele>
        <time>2013-09-04T07:36:46Z</time>
      </trkpt>
      <trkpt lat="44.18086" lon="6.72818">
        <ele>1733.4</ele>
        <time>2013-09-04T07:36:47Z</time>
      </trkpt>
      <trkpt lat="44.18082" lon="6.72822">
        <ele>1732.9</ele>
        <time>2013-09-04T07:36:49Z</time>
      </trkpt>
      <trkpt lat="44.1808" lon="6.72825">
        <ele>1732.9</ele>
        <time>2013-09-04T07:36:50Z</time>
      </trkpt>
      <trkpt lat="44.1808" lon="6.72827">
        <ele>1732</ele>
        <time>2013-09-04T07:36:51Z</time>
      </trkpt>
      <trkpt lat="44.18082" lon="6.72827">
        <ele>1731.5</ele>
        <time>2013-09-04T07:37:02Z</time>
      </trkpt>
      <trkpt lat="44.18081" lon="6.7283">
        <ele>1731.5</ele>
        <time>2013-09-04T07:37:40Z</time>
      </trkpt>
      <trkpt lat="44.18081" lon="6.72832">
        <ele>1730.5</ele>
        <time>2013-09-04T07:37:42Z</time>
      </trkpt>
      <trkpt lat="44.18083" lon="6.72834">
        <ele>1730.5</ele>
        <time>2013-09-04T07:37:43Z</time>
      </trkpt>
      <trkpt lat="44.18085" lon="6.72836">
        <ele>1730.5</ele>
        <time>2013-09-04T07:37:44Z</time>
      </trkpt>
      <trkpt lat="44.18088" lon="6.72838">
        <ele>1730.5</ele>
        <time>2013-09-04T07:37:45Z</time>
      </trkpt>
      <trkpt lat="44.18091" lon="6.7284">
        <ele>1730.5</ele>
        <time>2013-09-04T07:37:46Z</time>
      </trkpt>
      <trkpt lat="44.18093" lon="6.72844">
        <ele>1730</ele>
        <time>2013-09-04T07:37:47Z</time>
      </trkpt>
      <trkpt lat="44.18094" lon="6.72849">
        <ele>1730</ele>
        <time>2013-09-04T07:37:48Z</time>
      </trkpt>
      <trkpt lat="44.18095" lon="6.72853">
        <ele>1729.1</ele>
        <time>2013-09-04T07:37:49Z</time>
      </trkpt>
      <trkpt lat="44.18101" lon="6.72872">
        <ele>1726.7</ele>
        <time>2013-09-04T07:37:53Z</time>
      </trkpt>
      <trkpt lat="44.18104" lon="6.72876">
        <ele>1726.2</ele>
        <time>2013-09-04T07:37:54Z</time>
      </trkpt>
      <trkpt lat="44.18106" lon="6.7288">
        <ele>1725.7</ele>
        <time>2013-09-04T07:37:55Z</time>
      </trkpt>
      <trkpt lat="44.18113" lon="6.72895">
        <ele>1723.3</ele>
        <time>2013-09-04T07:37:58Z</time>
      </trkpt>
      <trkpt lat="44.18115" lon="6.72899">
        <ele>1722.3</ele>
        <time>2013-09-04T07:37:59Z</time>
      </trkpt>
      <trkpt lat="44.18117" lon="6.72903">
        <ele>1721.4</ele>
        <time>2013-09-04T07:38:00Z</time>
      </trkpt>
      <trkpt lat="44.18119" lon="6.72906">
        <ele>1720.9</ele>
        <time>2013-09-04T07:38:01Z</time>
      </trkpt>
      <trkpt lat="44.18121" lon="6.7291">
        <ele>1720.4</ele>
        <time>2013-09-04T07:38:02Z</time>
      </trkpt>
      <trkpt lat="44.18123" lon="6.72915">
        <ele>1719.9</ele>
        <time>2013-09-04T07:38:03Z</time>
      </trkpt>
      <trkpt lat="44.18123" lon="6.72919">
        <ele>1719.9</ele>
        <time>2013-09-04T07:38:04Z</time>
      </trkpt>
      <trkpt lat="44.18123" lon="6.72924">
        <ele>1719</ele>
        <time>2013-09-04T07:38:05Z</time>
      </trkpt>
      <trkpt lat="44.18126" lon="6.72937">
        <ele>1717.5</ele>
        <time>2013-09-04T07:38:08Z</time>
      </trkpt>
      <trkpt lat="44.18129" lon="6.7294">
        <ele>1716.6</ele>
        <time>2013-09-04T07:38:09Z</time>
      </trkpt>
      <trkpt lat="44.18133" lon="6.72946">
        <ele>1715.1</ele>
        <time>2013-09-04T07:38:11Z</time>
      </trkpt>
      <trkpt lat="44.18133" lon="6.72949">
        <ele>1714.7</ele>
        <time>2013-09-04T07:38:12Z</time>
      </trkpt>
      <trkpt lat="44.18133" lon="6.72952">
        <ele>1715.1</ele>
        <time>2013-09-04T07:38:13Z</time>
      </trkpt>
      <trkpt lat="44.18132" lon="6.72959">
        <ele>1712.7</ele>
        <time>2013-09-04T07:38:15Z</time>
      </trkpt>
      <trkpt lat="44.18131" lon="6.72962">
        <ele>1713.7</ele>
        <time>2013-09-04T07:38:16Z</time>
      </trkpt>
      <trkpt lat="44.1813" lon="6.72966">
        <ele>1713.2</ele>
        <time>2013-09-04T07:38:17Z</time>
      </trkpt>
      <trkpt lat="44.18129" lon="6.7297">
        <ele>1712.7</ele>
        <time>2013-09-04T07:38:18Z</time>
      </trkpt>
      <trkpt lat="44.18129" lon="6.72974">
        <ele>1712.7</ele>
        <time>2013-09-04T07:38:19Z</time>
      </trkpt>
      <trkpt lat="44.18129" lon="6.72978">
        <ele>1712.3</ele>
        <time>2013-09-04T07:38:20Z</time>
      </trkpt>
      <trkpt lat="44.18129" lon="6.72982">
        <ele>1710.8</ele>
        <time>2013-09-04T07:38:21Z</time>
      </trkpt>
      <trkpt lat="44.18127" lon="6.72986">
        <ele>1710.8</ele>
        <time>2013-09-04T07:38:22Z</time>
      </trkpt>
      <trkpt lat="44.18126" lon="6.72991">
        <ele>1710.3</ele>
        <time>2013-09-04T07:38:23Z</time>
      </trkpt>
      <trkpt lat="44.18125" lon="6.72995">
        <ele>1709.8</ele>
        <time>2013-09-04T07:38:24Z</time>
      </trkpt>
      <trkpt lat="44.18121" lon="6.73006">
        <ele>1707.9</ele>
        <time>2013-09-04T07:38:27Z</time>
      </trkpt>
      <trkpt lat="44.18118" lon="6.7301">
        <ele>1706.5</ele>
        <time>2013-09-04T07:38:29Z</time>
      </trkpt>
      <trkpt lat="44.18117" lon="6.73006">
        <ele>1706</ele>
        <time>2013-09-04T07:38:34Z</time>
      </trkpt>
      <trkpt lat="44.18117" lon="6.73003">
        <ele>1706</ele>
        <time>2013-09-04T07:38:35Z</time>
      </trkpt>
      <trkpt lat="44.18117" lon="6.72982">
        <ele>1704.6</ele>
        <time>2013-09-04T07:38:40Z</time>
      </trkpt>
      <trkpt lat="44.18116" lon="6.7298">
        <ele>1704.1</ele>
        <time>2013-09-04T07:38:41Z</time>
      </trkpt>
      <trkpt lat="44.18114" lon="6.72977">
        <ele>1703.6</ele>
        <time>2013-09-04T07:38:42Z</time>
      </trkpt>
      <trkpt lat="44.18113" lon="6.72974">
        <ele>1703.6</ele>
        <time>2013-09-04T07:38:43Z</time>
      </trkpt>
      <trkpt lat="44.18112" lon="6.72971">
        <ele>1702.6</ele>
        <time>2013-09-04T07:38:44Z</time>
      </trkpt>
      <trkpt lat="44.1811" lon="6.72969">
        <ele>1702.6</ele>
        <time>2013-09-04T07:38:45Z</time>
      </trkpt>
      <trkpt lat="44.18108" lon="6.72967">
        <ele>1702.2</ele>
        <time>2013-09-04T07:38:46Z</time>
      </trkpt>
      <trkpt lat="44.18106" lon="6.72965">
        <ele>1701.7</ele>
        <time>2013-09-04T07:38:47Z</time>
      </trkpt>
      <trkpt lat="44.18104" lon="6.72965">
        <ele>1701.7</ele>
        <time>2013-09-04T07:38:48Z</time>
      </trkpt>
      <trkpt lat="44.18098" lon="6.72963">
        <ele>1701.2</ele>
        <time>2013-09-04T07:38:57Z</time>
      </trkpt>
      <trkpt lat="44.181" lon="6.72964">
        <ele>1701.2</ele>
        <time>2013-09-04T07:39:15Z</time>
      </trkpt>
      <trkpt lat="44.18091" lon="6.72957">
        <ele>1699.3</ele>
        <time>2013-09-04T07:39:28Z</time>
      </trkpt>
      <trkpt lat="44.18084" lon="6.72951">
        <ele>1698.3</ele>
        <time>2013-09-04T07:39:38Z</time>
      </trkpt>
      <trkpt lat="44.18083" lon="6.72949">
        <ele>1698.3</ele>
        <time>2013-09-04T07:39:39Z</time>
      </trkpt>
      <trkpt lat="44.18079" lon="6.72931">
        <ele>1695.4</ele>
        <time>2013-09-04T07:39:54Z</time>
      </trkpt>
      <trkpt lat="44.18071" lon="6.72928">
        <ele>1694</ele>
        <time>2013-09-04T07:40:06Z</time>
      </trkpt>
      <trkpt lat="44.18073" lon="6.72935">
        <ele>1692.1</ele>
        <time>2013-09-04T07:40:16Z</time>
      </trkpt>
      <trkpt lat="44.18074" lon="6.72945">
        <ele>1690.1</ele>
        <time>2013-09-04T07:40:30Z</time>
      </trkpt>
      <trkpt lat="44.18075" lon="6.72955">
        <ele>1688.7</ele>
        <time>2013-09-04T07:40:43Z</time>
      </trkpt>
      <trkpt lat="44.18076" lon="6.72965">
        <ele>1687.7</ele>
        <time>2013-09-04T07:40:54Z</time>
      </trkpt>
      <trkpt lat="44.18076" lon="6.72966">
        <ele>1688.2</ele>
        <time>2013-09-04T07:40:55Z</time>
      </trkpt>
      <trkpt lat="44.18078" lon="6.72978">
        <ele>1686.3</ele>
        <time>2013-09-04T07:41:07Z</time>
      </trkpt>
      <trkpt lat="44.18083" lon="6.72991">
        <ele>1684.4</ele>
        <time>2013-09-04T07:41:21Z</time>
      </trkpt>
      <trkpt lat="44.18086" lon="6.72996">
        <ele>1683.9</ele>
        <time>2013-09-04T07:41:26Z</time>
      </trkpt>
      <trkpt lat="44.18084" lon="6.72998">
        <ele>1682.9</ele>
        <time>2013-09-04T07:41:36Z</time>
      </trkpt>
      <trkpt lat="44.18083" lon="6.72999">
        <ele>1682.9</ele>
        <time>2013-09-04T07:41:37Z</time>
      </trkpt>
      <trkpt lat="44.18083" lon="6.73001">
        <ele>1682</ele>
        <time>2013-09-04T07:41:38Z</time>
      </trkpt>
      <trkpt lat="44.18082" lon="6.73003">
        <ele>1682</ele>
        <time>2013-09-04T07:41:39Z</time>
      </trkpt>
      <trkpt lat="44.18081" lon="6.73006">
        <ele>1681.5</ele>
        <time>2013-09-04T07:41:40Z</time>
      </trkpt>
      <trkpt lat="44.1808" lon="6.73008">
        <ele>1681.5</ele>
        <time>2013-09-04T07:41:41Z</time>
      </trkpt>
      <trkpt lat="44.18079" lon="6.7301">
        <ele>1681.5</ele>
        <time>2013-09-04T07:41:42Z</time>
      </trkpt>
      <trkpt lat="44.18073" lon="6.73041">
        <ele>1677.6</ele>
        <time>2013-09-04T07:41:53Z</time>
      </trkpt>
      <trkpt lat="44.18074" lon="6.73043">
        <ele>1677.6</ele>
        <time>2013-09-04T07:41:54Z</time>
      </trkpt>
      <trkpt lat="44.18075" lon="6.73046">
        <ele>1677.2</ele>
        <time>2013-09-04T07:42:02Z</time>
      </trkpt>
      <trkpt lat="44.18075" lon="6.73062">
        <ele>1675.7</ele>
        <time>2013-09-04T07:42:08Z</time>
      </trkpt>
      <trkpt lat="44.18071" lon="6.7309">
        <ele>1672.4</ele>
        <time>2013-09-04T07:42:17Z</time>
      </trkpt>
      <trkpt lat="44.1807" lon="6.73094">
        <ele>1672.4</ele>
        <time>2013-09-04T07:42:18Z</time>
      </trkpt>
      <trkpt lat="44.18067" lon="6.73101">
        <ele>1670.9</ele>
        <time>2013-09-04T07:42:20Z</time>
      </trkpt>
      <trkpt lat="44.18063" lon="6.73112">
        <ele>1669.5</ele>
        <time>2013-09-04T07:42:23Z</time>
      </trkpt>
      <trkpt lat="44.1806" lon="6.7312">
        <ele>1668.5</ele>
        <time>2013-09-04T07:42:26Z</time>
      </trkpt>
      <trkpt lat="44.18049" lon="6.73137">
        <ele>1665.1</ele>
        <time>2013-09-04T07:42:37Z</time>
      </trkpt>
      <trkpt lat="44.1804" lon="6.73152">
        <ele>1662.3</ele>
        <time>2013-09-04T07:42:48Z</time>
      </trkpt>
      <trkpt lat="44.18039" lon="6.73156">
        <ele>1662.3</ele>
        <time>2013-09-04T07:42:49Z</time>
      </trkpt>
      <trkpt lat="44.18034" lon="6.73167">
        <ele>1660.8</ele>
        <time>2013-09-04T07:42:53Z</time>
      </trkpt>
      <trkpt lat="44.18022" lon="6.73185">
        <ele>1657.9</ele>
        <time>2013-09-04T07:43:00Z</time>
      </trkpt>
      <trkpt lat="44.18007" lon="6.73209">
        <ele>1654.6</ele>
        <time>2013-09-04T07:43:09Z</time>
      </trkpt>
      <trkpt lat="44.18006" lon="6.73216">
        <ele>1654.6</ele>
        <time>2013-09-04T07:43:11Z</time>
      </trkpt>
      <trkpt lat="44.18007" lon="6.73219">
        <ele>1653.6</ele>
        <time>2013-09-04T07:43:12Z</time>
      </trkpt>
      <trkpt lat="44.18008" lon="6.73223">
        <ele>1653.1</ele>
        <time>2013-09-04T07:43:13Z</time>
      </trkpt>
      <trkpt lat="44.18009" lon="6.73227">
        <ele>1652.6</ele>
        <time>2013-09-04T07:43:14Z</time>
      </trkpt>
      <trkpt lat="44.1801" lon="6.73231">
        <ele>1651.7</ele>
        <time>2013-09-04T07:43:15Z</time>
      </trkpt>
      <trkpt lat="44.18011" lon="6.73234">
        <ele>1652.6</ele>
        <time>2013-09-04T07:43:16Z</time>
      </trkpt>
      <trkpt lat="44.18012" lon="6.73236">
        <ele>1651.7</ele>
        <time>2013-09-04T07:43:17Z</time>
      </trkpt>
      <trkpt lat="44.18013" lon="6.73239">
        <ele>1650.7</ele>
        <time>2013-09-04T07:43:19Z</time>
      </trkpt>
      <trkpt lat="44.18015" lon="6.73257">
        <ele>1647.8</ele>
        <time>2013-09-04T07:43:31Z</time>
      </trkpt>
      <trkpt lat="44.18015" lon="6.73265">
        <ele>1646.4</ele>
        <time>2013-09-04T07:43:37Z</time>
      </trkpt>
      <trkpt lat="44.18018" lon="6.7328">
        <ele>1645</ele>
        <time>2013-09-04T07:43:44Z</time>
      </trkpt>
      <trkpt lat="44.18018" lon="6.73282">
        <ele>1644.5</ele>
        <time>2013-09-04T07:43:45Z</time>
      </trkpt>
      <trkpt lat="44.18018" lon="6.73285">
        <ele>1644.5</ele>
        <time>2013-09-04T07:43:46Z</time>
      </trkpt>
      <trkpt lat="44.18018" lon="6.73313">
        <ele>1641.1</ele>
        <time>2013-09-04T07:43:59Z</time>
      </trkpt>
      <trkpt lat="44.18015" lon="6.73339">
        <ele>1639.2</ele>
        <time>2013-09-04T07:44:13Z</time>
      </trkpt>
      <trkpt lat="44.1801" lon="6.73357">
        <ele>1636.3</ele>
        <time>2013-09-04T07:44:23Z</time>
      </trkpt>
      <trkpt lat="44.1801" lon="6.73366">
        <ele>1634.9</ele>
        <time>2013-09-04T07:44:35Z</time>
      </trkpt>
      <trkpt lat="44.18008" lon="6.73369">
        <ele>1635.3</ele>
        <time>2013-09-04T07:44:40Z</time>
      </trkpt>
      <trkpt lat="44.18007" lon="6.73371">
        <ele>1634.9</ele>
        <time>2013-09-04T07:44:41Z</time>
      </trkpt>
      <trkpt lat="44.18006" lon="6.73374">
        <ele>1634.4</ele>
        <time>2013-09-04T07:44:42Z</time>
      </trkpt>
      <trkpt lat="44.18005" lon="6.73378">
        <ele>1634.4</ele>
        <time>2013-09-04T07:44:43Z</time>
      </trkpt>
      <trkpt lat="44.18005" lon="6.73381">
        <ele>1633.4</ele>
        <time>2013-09-04T07:44:44Z</time>
      </trkpt>
      <trkpt lat="44.18004" lon="6.73384">
        <ele>1632.9</ele>
        <time>2013-09-04T07:44:45Z</time>
      </trkpt>
      <trkpt lat="44.18004" lon="6.73387">
        <ele>1632.5</ele>
        <time>2013-09-04T07:44:46Z</time>
      </trkpt>
      <trkpt lat="44.17999" lon="6.73406">
        <ele>1629.6</ele>
        <time>2013-09-04T07:44:53Z</time>
      </trkpt>
      <trkpt lat="44.17993" lon="6.73422">
        <ele>1626.2</ele>
        <time>2013-09-04T07:44:59Z</time>
      </trkpt>
      <trkpt lat="44.17992" lon="6.73425">
        <ele>1626.7</ele>
        <time>2013-09-04T07:45:00Z</time>
      </trkpt>
      <trkpt lat="44.17989" lon="6.7344">
        <ele>1624.3</ele>
        <time>2013-09-04T07:45:05Z</time>
      </trkpt>
      <trkpt lat="44.17977" lon="6.73465">
        <ele>1620.9</ele>
        <time>2013-09-04T07:45:14Z</time>
      </trkpt>
      <trkpt lat="44.17977" lon="6.7348">
        <ele>1619</ele>
        <time>2013-09-04T07:45:21Z</time>
      </trkpt>
      <trkpt lat="44.17977" lon="6.73482">
        <ele>1619</ele>
        <time>2013-09-04T07:45:22Z</time>
      </trkpt>
      <trkpt lat="44.17978" lon="6.73484">
        <ele>1618.5</ele>
        <time>2013-09-04T07:45:23Z</time>
      </trkpt>
      <trkpt lat="44.17978" lon="6.7349">
        <ele>1617.6</ele>
        <time>2013-09-04T07:45:32Z</time>
      </trkpt>
      <trkpt lat="44.17978" lon="6.73504">
        <ele>1615.2</ele>
        <time>2013-09-04T07:45:44Z</time>
      </trkpt>
      <trkpt lat="44.17978" lon="6.73505">
        <ele>1615.6</ele>
        <time>2013-09-04T07:45:48Z</time>
      </trkpt>
      <trkpt lat="44.17977" lon="6.73507">
        <ele>1615.6</ele>
        <time>2013-09-04T07:45:49Z</time>
      </trkpt>
      <trkpt lat="44.17977" lon="6.7351">
        <ele>1615.6</ele>
        <time>2013-09-04T07:45:50Z</time>
      </trkpt>
      <trkpt lat="44.17977" lon="6.73513">
        <ele>1615.2</ele>
        <time>2013-09-04T07:45:51Z</time>
      </trkpt>
      <trkpt lat="44.17976" lon="6.73516">
        <ele>1614.7</ele>
        <time>2013-09-04T07:45:52Z</time>
      </trkpt>
      <trkpt lat="44.17976" lon="6.73518">
        <ele>1614.7</ele>
        <time>2013-09-04T07:45:53Z</time>
      </trkpt>
      <trkpt lat="44.17976" lon="6.73521">
        <ele>1614.2</ele>
        <time>2013-09-04T07:45:54Z</time>
      </trkpt>
      <trkpt lat="44.17975" lon="6.73524">
        <ele>1613.7</ele>
        <time>2013-09-04T07:45:55Z</time>
      </trkpt>
      <trkpt lat="44.17974" lon="6.73526">
        <ele>1613.7</ele>
        <time>2013-09-04T07:45:56Z</time>
      </trkpt>
      <trkpt lat="44.1797" lon="6.73544">
        <ele>1609.9</ele>
        <time>2013-09-04T07:46:02Z</time>
      </trkpt>
      <trkpt lat="44.17969" lon="6.73547">
        <ele>1610.4</ele>
        <time>2013-09-04T07:46:03Z</time>
      </trkpt>
      <trkpt lat="44.17966" lon="6.7357">
        <ele>1607</ele>
        <time>2013-09-04T07:46:10Z</time>
      </trkpt>
      <trkpt lat="44.17964" lon="6.7358">
        <ele>1605.1</ele>
        <time>2013-09-04T07:46:19Z</time>
      </trkpt>
      <trkpt lat="44.17964" lon="6.73587">
        <ele>1603.1</ele>
        <time>2013-09-04T07:46:25Z</time>
      </trkpt>
      <trkpt lat="44.17967" lon="6.73607">
        <ele>1600.3</ele>
        <time>2013-09-04T07:46:34Z</time>
      </trkpt>
      <trkpt lat="44.17968" lon="6.73609">
        <ele>1600.3</ele>
        <time>2013-09-04T07:46:35Z</time>
      </trkpt>
      <trkpt lat="44.17969" lon="6.73611">
        <ele>1599.3</ele>
        <time>2013-09-04T07:46:36Z</time>
      </trkpt>
      <trkpt lat="44.17971" lon="6.73614">
        <ele>1599.3</ele>
        <time>2013-09-04T07:46:37Z</time>
      </trkpt>
      <trkpt lat="44.17973" lon="6.73616">
        <ele>1599.3</ele>
        <time>2013-09-04T07:46:38Z</time>
      </trkpt>
      <trkpt lat="44.17975" lon="6.73619">
        <ele>1598.3</ele>
        <time>2013-09-04T07:46:39Z</time>
      </trkpt>
      <trkpt lat="44.17977" lon="6.73622">
        <ele>1597.9</ele>
        <time>2013-09-04T07:46:40Z</time>
      </trkpt>
      <trkpt lat="44.17985" lon="6.7363">
        <ele>1596.4</ele>
        <time>2013-09-04T07:46:44Z</time>
      </trkpt>
      <trkpt lat="44.17991" lon="6.73638">
        <ele>1594</ele>
        <time>2013-09-04T07:46:49Z</time>
      </trkpt>
      <trkpt lat="44.17992" lon="6.73639">
        <ele>1594</ele>
        <time>2013-09-04T07:46:50Z</time>
      </trkpt>
      <trkpt lat="44.17999" lon="6.73645">
        <ele>1592.6</ele>
        <time>2013-09-04T07:47:00Z</time>
      </trkpt>
      <trkpt lat="44.18006" lon="6.73649">
        <ele>1591.1</ele>
        <time>2013-09-04T07:47:05Z</time>
      </trkpt>
      <trkpt lat="44.18006" lon="6.73649">
        <ele>1591.1</ele>
        <time>2013-09-04T07:47:18Z</time>
      </trkpt>
      <trkpt lat="44.18008" lon="6.7365">
        <ele>1590.6</ele>
        <time>2013-09-04T07:47:27Z</time>
      </trkpt>
      <trkpt lat="44.1801" lon="6.73651">
        <ele>1590.2</ele>
        <time>2013-09-04T07:47:28Z</time>
      </trkpt>
      <trkpt lat="44.18012" lon="6.73652">
        <ele>1590.6</ele>
        <time>2013-09-04T07:47:29Z</time>
      </trkpt>
      <trkpt lat="44.18027" lon="6.73652">
        <ele>1587.8</ele>
        <time>2013-09-04T07:47:40Z</time>
      </trkpt>
      <trkpt lat="44.1803" lon="6.73656">
        <ele>1587.8</ele>
        <time>2013-09-04T07:47:55Z</time>
      </trkpt>
      <trkpt lat="44.18025" lon="6.73661">
        <ele>1585.8</ele>
        <time>2013-09-04T07:48:07Z</time>
      </trkpt>
      <trkpt lat="44.18015" lon="6.73664">
        <ele>1584.4</ele>
        <time>2013-09-04T07:48:16Z</time>
      </trkpt>
      <trkpt lat="44.18013" lon="6.73664">
        <ele>1583.4</ele>
        <time>2013-09-04T07:48:18Z</time>
      </trkpt>
      <trkpt lat="44.18002" lon="6.73665">
        <ele>1582</ele>
        <time>2013-09-04T07:48:30Z</time>
      </trkpt>
      <trkpt lat="44.17994" lon="6.73664">
        <ele>1580.1</ele>
        <time>2013-09-04T07:48:37Z</time>
      </trkpt>
      <trkpt lat="44.17985" lon="6.73662">
        <ele>1578.6</ele>
        <time>2013-09-04T07:48:41Z</time>
      </trkpt>
      <trkpt lat="44.17983" lon="6.73661">
        <ele>1577.7</ele>
        <time>2013-09-04T07:48:43Z</time>
      </trkpt>
      <trkpt lat="44.17964" lon="6.73655">
        <ele>1574.8</ele>
        <time>2013-09-04T07:48:53Z</time>
      </trkpt>
      <trkpt lat="44.17956" lon="6.73652">
        <ele>1572.9</ele>
        <time>2013-09-04T07:48:56Z</time>
      </trkpt>
      <trkpt lat="44.17943" lon="6.73643">
        <ele>1569.5</ele>
        <time>2013-09-04T07:49:02Z</time>
      </trkpt>
      <trkpt lat="44.1794" lon="6.73645">
        <ele>1568.5</ele>
        <time>2013-09-04T07:49:11Z</time>
      </trkpt>
      <trkpt lat="44.17945" lon="6.73652">
        <ele>1566.6</ele>
        <time>2013-09-04T07:49:22Z</time>
      </trkpt>
      <trkpt lat="44.17947" lon="6.73654">
        <ele>1567.6</ele>
        <time>2013-09-04T07:49:23Z</time>
      </trkpt>
      <trkpt lat="44.17953" lon="6.73663">
        <ele>1565.2</ele>
        <time>2013-09-04T07:49:27Z</time>
      </trkpt>
      <trkpt lat="44.17969" lon="6.73681">
        <ele>1562.3</ele>
        <time>2013-09-04T07:49:36Z</time>
      </trkpt>
      <trkpt lat="44.17982" lon="6.73694">
        <ele>1559.4</ele>
        <time>2013-09-04T07:49:43Z</time>
      </trkpt>
      <trkpt lat="44.17997" lon="6.73712">
        <ele>1556</ele>
        <time>2013-09-04T07:49:50Z</time>
      </trkpt>
      <trkpt lat="44.18016" lon="6.73722">
        <ele>1552.7</ele>
        <time>2013-09-04T07:49:58Z</time>
      </trkpt>
      <trkpt lat="44.18042" lon="6.73719">
        <ele>1549.8</ele>
        <time>2013-09-04T07:50:07Z</time>
      </trkpt>
      <trkpt lat="44.18048" lon="6.73717">
        <ele>1548.8</ele>
        <time>2013-09-04T07:50:10Z</time>
      </trkpt>
      <trkpt lat="44.1805" lon="6.73716">
        <ele>1547.4</ele>
        <time>2013-09-04T07:50:11Z</time>
      </trkpt>
      <trkpt lat="44.18052" lon="6.73714">
        <ele>1547.9</ele>
        <time>2013-09-04T07:50:12Z</time>
      </trkpt>
      <trkpt lat="44.18056" lon="6.73712">
        <ele>1545.9</ele>
        <time>2013-09-04T07:50:15Z</time>
      </trkpt>
      <trkpt lat="44.18059" lon="6.73716">
        <ele>1546.4</ele>
        <time>2013-09-04T07:50:32Z</time>
      </trkpt>
      <trkpt lat="44.18057" lon="6.7372">
        <ele>1545.9</ele>
        <time>2013-09-04T07:50:51Z</time>
      </trkpt>
      <trkpt lat="44.18045" lon="6.73734">
        <ele>1543.5</ele>
        <time>2013-09-04T07:50:58Z</time>
      </trkpt>
      <trkpt lat="44.18029" lon="6.73743">
        <ele>1540.7</ele>
        <time>2013-09-04T07:51:05Z</time>
      </trkpt>
      <trkpt lat="44.18027" lon="6.73745">
        <ele>1540.7</ele>
        <time>2013-09-04T07:51:06Z</time>
      </trkpt>
      <trkpt lat="44.18012" lon="6.73749">
        <ele>1537.8</ele>
        <time>2013-09-04T07:51:12Z</time>
      </trkpt>
      <trkpt lat="44.18012" lon="6.73749">
        <ele>1537.3</ele>
        <time>2013-09-04T07:51:13Z</time>
      </trkpt>
      <trkpt lat="44.18015" lon="6.7375">
        <ele>1537.8</ele>
        <time>2013-09-04T07:51:14Z</time>
      </trkpt>
      <trkpt lat="44.18017" lon="6.73751">
        <ele>1536.8</ele>
        <time>2013-09-04T07:51:15Z</time>
      </trkpt>
      <trkpt lat="44.1802" lon="6.73751">
        <ele>1536.3</ele>
        <time>2013-09-04T07:51:16Z</time>
      </trkpt>
      <trkpt lat="44.18027" lon="6.73751">
        <ele>1535.4</ele>
        <time>2013-09-04T07:51:18Z</time>
      </trkpt>
      <trkpt lat="44.18034" lon="6.73749">
        <ele>1534.9</ele>
        <time>2013-09-04T07:51:21Z</time>
      </trkpt>
      <trkpt lat="44.18036" lon="6.73749">
        <ele>1534.4</ele>
        <time>2013-09-04T07:51:22Z</time>
      </trkpt>
      <trkpt lat="44.18038" lon="6.73749">
        <ele>1533.4</ele>
        <time>2013-09-04T07:51:23Z</time>
      </trkpt>
      <trkpt lat="44.18041" lon="6.73749">
        <ele>1533</ele>
        <time>2013-09-04T07:51:24Z</time>
      </trkpt>
      <trkpt lat="44.18043" lon="6.73748">
        <ele>1533</ele>
        <time>2013-09-04T07:51:25Z</time>
      </trkpt>
      <trkpt lat="44.18045" lon="6.73747">
        <ele>1532.5</ele>
        <time>2013-09-04T07:51:26Z</time>
      </trkpt>
      <trkpt lat="44.18047" lon="6.73746">
        <ele>1531.5</ele>
        <time>2013-09-04T07:51:27Z</time>
      </trkpt>
      <trkpt lat="44.1805" lon="6.73745">
        <ele>1531.5</ele>
        <time>2013-09-04T07:51:28Z</time>
      </trkpt>
      <trkpt lat="44.18053" lon="6.73744">
        <ele>1532</ele>
        <time>2013-09-04T07:51:29Z</time>
      </trkpt>
      <trkpt lat="44.18055" lon="6.73743">
        <ele>1531.5</ele>
        <time>2013-09-04T07:51:30Z</time>
      </trkpt>
      <trkpt lat="44.18058" lon="6.73741">
        <ele>1530.6</ele>
        <time>2013-09-04T07:51:31Z</time>
      </trkpt>
      <trkpt lat="44.18061" lon="6.73738">
        <ele>1530.1</ele>
        <time>2013-09-04T07:51:32Z</time>
      </trkpt>
      <trkpt lat="44.18075" lon="6.73726">
        <ele>1528.6</ele>
        <time>2013-09-04T07:51:43Z</time>
      </trkpt>
      <trkpt lat="44.18074" lon="6.7373">
        <ele>1528.2</ele>
        <time>2013-09-04T07:51:49Z</time>
      </trkpt>
      <trkpt lat="44.18073" lon="6.73733">
        <ele>1527.7</ele>
        <time>2013-09-04T07:51:50Z</time>
      </trkpt>
      <trkpt lat="44.18067" lon="6.73753">
        <ele>1524.3</ele>
        <time>2013-09-04T07:51:56Z</time>
      </trkpt>
      <trkpt lat="44.18066" lon="6.73755">
        <ele>1524.8</ele>
        <time>2013-09-04T07:51:57Z</time>
      </trkpt>
      <trkpt lat="44.18067" lon="6.73756">
        <ele>1523.4</ele>
        <time>2013-09-04T07:51:58Z</time>
      </trkpt>
      <trkpt lat="44.18068" lon="6.73756">
        <ele>1523.4</ele>
        <time>2013-09-04T07:51:59Z</time>
      </trkpt>
      <trkpt lat="44.18069" lon="6.73754">
        <ele>1522.9</ele>
        <time>2013-09-04T07:52:00Z</time>
      </trkpt>
      <trkpt lat="44.18071" lon="6.73751">
        <ele>1522.9</ele>
        <time>2013-09-04T07:52:01Z</time>
      </trkpt>
      <trkpt lat="44.18072" lon="6.73748">
        <ele>1522.9</ele>
        <time>2013-09-04T07:52:02Z</time>
      </trkpt>
      <trkpt lat="44.18074" lon="6.73744">
        <ele>1522.9</ele>
        <time>2013-09-04T07:52:03Z</time>
      </trkpt>
      <trkpt lat="44.18075" lon="6.73741">
        <ele>1521.9</ele>
        <time>2013-09-04T07:52:04Z</time>
      </trkpt>
      <trkpt lat="44.18077" lon="6.73739">
        <ele>1521.4</ele>
        <time>2013-09-04T07:52:05Z</time>
      </trkpt>
      <trkpt lat="44.18082" lon="6.73741">
        <ele>1520.5</ele>
        <time>2013-09-04T07:52:13Z</time>
      </trkpt>
      <trkpt lat="44.18081" lon="6.73743">
        <ele>1519.5</ele>
        <time>2013-09-04T07:52:14Z</time>
      </trkpt>
      <trkpt lat="44.18081" lon="6.73747">
        <ele>1519</ele>
        <time>2013-09-04T07:52:15Z</time>
      </trkpt>
      <trkpt lat="44.18081" lon="6.73751">
        <ele>1518.5</ele>
        <time>2013-09-04T07:52:16Z</time>
      </trkpt>
      <trkpt lat="44.1808" lon="6.73754">
        <ele>1518.1</ele>
        <time>2013-09-04T07:52:17Z</time>
      </trkpt>
      <trkpt lat="44.1808" lon="6.73757">
        <ele>1517.6</ele>
        <time>2013-09-04T07:52:18Z</time>
      </trkpt>
      <trkpt lat="44.18079" lon="6.7376">
        <ele>1517.1</ele>
        <time>2013-09-04T07:52:19Z</time>
      </trkpt>
      <trkpt lat="44.18079" lon="6.73763">
        <ele>1516.6</ele>
        <time>2013-09-04T07:52:20Z</time>
      </trkpt>
      <trkpt lat="44.18078" lon="6.73766">
        <ele>1516.1</ele>
        <time>2013-09-04T07:52:21Z</time>
      </trkpt>
      <trkpt lat="44.18077" lon="6.73768">
        <ele>1515.7</ele>
        <time>2013-09-04T07:52:22Z</time>
      </trkpt>
      <trkpt lat="44.18076" lon="6.7377">
        <ele>1515.7</ele>
        <time>2013-09-04T07:52:23Z</time>
      </trkpt>
      <trkpt lat="44.18076" lon="6.73772">
        <ele>1514.7</ele>
        <time>2013-09-04T07:52:24Z</time>
      </trkpt>
      <trkpt lat="44.18079" lon="6.73772">
        <ele>1513.7</ele>
        <time>2013-09-04T07:52:28Z</time>
      </trkpt>
      <trkpt lat="44.1808" lon="6.7377">
        <ele>1513.3</ele>
        <time>2013-09-04T07:52:29Z</time>
      </trkpt>
      <trkpt lat="44.18086" lon="6.73757">
        <ele>1510.9</ele>
        <time>2013-09-04T07:52:33Z</time>
      </trkpt>
      <trkpt lat="44.18096" lon="6.73735">
        <ele>1508</ele>
        <time>2013-09-04T07:52:40Z</time>
      </trkpt>
      <trkpt lat="44.18099" lon="6.73733">
        <ele>1507</ele>
        <time>2013-09-04T07:52:42Z</time>
      </trkpt>
      <trkpt lat="44.181" lon="6.73736">
        <ele>1506.5</ele>
        <time>2013-09-04T07:52:54Z</time>
      </trkpt>
      <trkpt lat="44.181" lon="6.73738">
        <ele>1507</ele>
        <time>2013-09-04T07:52:58Z</time>
      </trkpt>
      <trkpt lat="44.18098" lon="6.73742">
        <ele>1506</ele>
        <time>2013-09-04T07:53:01Z</time>
      </trkpt>
      <trkpt lat="44.18098" lon="6.73744">
        <ele>1505.6</ele>
        <time>2013-09-04T07:53:02Z</time>
      </trkpt>
      <trkpt lat="44.18098" lon="6.73747">
        <ele>1505.1</ele>
        <time>2013-09-04T07:53:03Z</time>
      </trkpt>
      <trkpt lat="44.18097" lon="6.7375">
        <ele>1504.6</ele>
        <time>2013-09-04T07:53:04Z</time>
      </trkpt>
      <trkpt lat="44.18096" lon="6.73754">
        <ele>1504.1</ele>
        <time>2013-09-04T07:53:05Z</time>
      </trkpt>
      <trkpt lat="44.18095" lon="6.73756">
        <ele>1503.6</ele>
        <time>2013-09-04T07:53:06Z</time>
      </trkpt>
      <trkpt lat="44.18095" lon="6.73758">
        <ele>1503.2</ele>
        <time>2013-09-04T07:53:07Z</time>
      </trkpt>
      <trkpt lat="44.18096" lon="6.73759">
        <ele>1502.7</ele>
        <time>2013-09-04T07:53:08Z</time>
      </trkpt>
      <trkpt lat="44.18097" lon="6.73758">
        <ele>1502.2</ele>
        <time>2013-09-04T07:53:09Z</time>
      </trkpt>
      <trkpt lat="44.18098" lon="6.73756">
        <ele>1501.7</ele>
        <time>2013-09-04T07:53:10Z</time>
      </trkpt>
      <trkpt lat="44.18108" lon="6.73735">
        <ele>1498.8</ele>
        <time>2013-09-04T07:53:20Z</time>
      </trkpt>
      <trkpt lat="44.18108" lon="6.73739">
        <ele>1498.4</ele>
        <time>2013-09-04T07:53:23Z</time>
      </trkpt>
      <trkpt lat="44.18107" lon="6.73742">
        <ele>1497.9</ele>
        <time>2013-09-04T07:53:24Z</time>
      </trkpt>
      <trkpt lat="44.18107" lon="6.73745">
        <ele>1496.9</ele>
        <time>2013-09-04T07:53:25Z</time>
      </trkpt>
      <trkpt lat="44.18108" lon="6.73748">
        <ele>1496</ele>
        <time>2013-09-04T07:53:26Z</time>
      </trkpt>
      <trkpt lat="44.1811" lon="6.7375">
        <ele>1496</ele>
        <time>2013-09-04T07:53:27Z</time>
      </trkpt>
      <trkpt lat="44.18112" lon="6.73752">
        <ele>1496.9</ele>
        <time>2013-09-04T07:53:28Z</time>
      </trkpt>
      <trkpt lat="44.18114" lon="6.73752">
        <ele>1496</ele>
        <time>2013-09-04T07:53:29Z</time>
      </trkpt>
      <trkpt lat="44.18118" lon="6.73753">
        <ele>1496</ele>
        <time>2013-09-04T07:53:39Z</time>
      </trkpt>
      <trkpt lat="44.18119" lon="6.73754">
        <ele>1495.5</ele>
        <time>2013-09-04T07:53:58Z</time>
      </trkpt>
      <trkpt lat="44.1812" lon="6.73755">
        <ele>1495.5</ele>
        <time>2013-09-04T07:54:01Z</time>
      </trkpt>
      <trkpt lat="44.18121" lon="6.73756">
        <ele>1495.5</ele>
        <time>2013-09-04T07:54:02Z</time>
      </trkpt>
      <trkpt lat="44.1812" lon="6.73765">
        <ele>1497.4</ele>
        <time>2013-09-04T07:54:14Z</time>
      </trkpt>
      <trkpt lat="44.18119" lon="6.73773">
        <ele>1497.4</ele>
        <time>2013-09-04T07:54:20Z</time>
      </trkpt>
      <trkpt lat="44.18118" lon="6.73777">
        <ele>1497.4</ele>
        <time>2013-09-04T07:54:35Z</time>
      </trkpt>
      <trkpt lat="44.18121" lon="6.73777">
        <ele>1496.9</ele>
        <time>2013-09-04T07:55:07Z</time>
      </trkpt>
      <trkpt lat="44.18118" lon="6.73779">
        <ele>1497.4</ele>
        <time>2013-09-04T07:55:15Z</time>
      </trkpt>
      <trkpt lat="44.18117" lon="6.73781">
        <ele>1496.9</ele>
        <time>2013-09-04T07:55:16Z</time>
      </trkpt>
      <trkpt lat="44.18099" lon="6.73799">
        <ele>1496.9</ele>
        <time>2013-09-04T07:55:26Z</time>
      </trkpt>
      <trkpt lat="44.18067" lon="6.7383">
        <ele>1496.9</ele>
        <time>2013-09-04T07:55:39Z</time>
      </trkpt>
      <trkpt lat="44.18051" lon="6.73873">
        <ele>1496.4</ele>
        <time>2013-09-04T07:55:49Z</time>
      </trkpt>
      <trkpt lat="44.18026" lon="6.739">
        <ele>1497.4</ele>
        <time>2013-09-04T07:56:00Z</time>
      </trkpt>
      <trkpt lat="44.17997" lon="6.73922">
        <ele>1496.4</ele>
        <time>2013-09-04T07:56:10Z</time>
      </trkpt>
      <trkpt lat="44.17986" lon="6.73936">
        <ele>1496</ele>
        <time>2013-09-04T07:56:20Z</time>
      </trkpt>
      <trkpt lat="44.17986" lon="6.73939">
        <ele>1495.5</ele>
        <time>2013-09-04T07:56:38Z</time>
      </trkpt>
      <trkpt lat="44.17993" lon="6.73972">
        <ele>1496.4</ele>
        <time>2013-09-04T07:56:49Z</time>
      </trkpt>
      <trkpt lat="44.18002" lon="6.74027">
        <ele>1495.5</ele>
        <time>2013-09-04T07:57:03Z</time>
      </trkpt>
      <trkpt lat="44.17994" lon="6.74087">
        <ele>1495.5</ele>
        <time>2013-09-04T07:57:16Z</time>
      </trkpt>
      <trkpt lat="44.17998" lon="6.74135">
        <ele>1493.6</ele>
        <time>2013-09-04T07:57:26Z</time>
      </trkpt>
      <trkpt lat="44.1798" lon="6.74187">
        <ele>1491.6</ele>
        <time>2013-09-04T07:57:37Z</time>
      </trkpt>
      <trkpt lat="44.17975" lon="6.74195">
        <ele>1491.6</ele>
        <time>2013-09-04T07:57:39Z</time>
      </trkpt>
      <trkpt lat="44.17959" lon="6.74214">
        <ele>1490.7</ele>
        <time>2013-09-04T07:57:49Z</time>
      </trkpt>
      <trkpt lat="44.17939" lon="6.74237">
        <ele>1489.2</ele>
        <time>2013-09-04T07:57:59Z</time>
      </trkpt>
      <trkpt lat="44.17933" lon="6.74256">
        <ele>1487.8</ele>
        <time>2013-09-04T07:58:09Z</time>
      </trkpt>
      <trkpt lat="44.17931" lon="6.74256">
        <ele>1486.8</ele>
        <time>2013-09-04T07:58:25Z</time>
      </trkpt>
      <trkpt lat="44.17931" lon="6.74259">
        <ele>1486.8</ele>
        <time>2013-09-04T07:58:38Z</time>
      </trkpt>
      <trkpt lat="44.1793" lon="6.7426">
        <ele>1487.3</ele>
        <time>2013-09-04T07:58:57Z</time>
      </trkpt>
      <trkpt lat="44.17926" lon="6.74259">
        <ele>1486.8</ele>
        <time>2013-09-04T07:59:29Z</time>
      </trkpt>
      <trkpt lat="44.17931" lon="6.74258">
        <ele>1486.3</ele>
        <time>2013-09-04T08:00:05Z</time>
      </trkpt>
      <trkpt lat="44.1793" lon="6.74256">
        <ele>1485.9</ele>
        <time>2013-09-04T08:00:23Z</time>
      </trkpt>
      <trkpt lat="44.17931" lon="6.74253">
        <ele>1485.9</ele>
        <time>2013-09-04T08:00:31Z</time>
      </trkpt>
      <trkpt lat="44.17933" lon="6.74252">
        <ele>1484.9</ele>
        <time>2013-09-04T08:00:32Z</time>
      </trkpt>
      <trkpt lat="44.17934" lon="6.74252">
        <ele>1484.9</ele>
        <time>2013-09-04T08:00:33Z</time>
      </trkpt>
      <trkpt lat="44.17936" lon="6.74252">
        <ele>1484.9</ele>
        <time>2013-09-04T08:00:34Z</time>
      </trkpt>
      <trkpt lat="44.17938" lon="6.74252">
        <ele>1483.9</ele>
        <time>2013-09-04T08:00:35Z</time>
      </trkpt>
      <trkpt lat="44.1794" lon="6.74253">
        <ele>1483</ele>
        <time>2013-09-04T08:00:36Z</time>
      </trkpt>
      <trkpt lat="44.17944" lon="6.74253">
        <ele>1482</ele>
        <time>2013-09-04T08:00:38Z</time>
      </trkpt>
      <trkpt lat="44.17949" lon="6.74253">
        <ele>1481.1</ele>
        <time>2013-09-04T08:00:41Z</time>
      </trkpt>
      <trkpt lat="44.1795" lon="6.74253">
        <ele>1479.6</ele>
        <time>2013-09-04T08:00:43Z</time>
      </trkpt>
      <trkpt lat="44.17954" lon="6.74257">
        <ele>1479.1</ele>
        <time>2013-09-04T08:00:48Z</time>
      </trkpt>
      <trkpt lat="44.17957" lon="6.74264">
        <ele>1478.7</ele>
        <time>2013-09-04T08:01:00Z</time>
      </trkpt>
      <trkpt lat="44.1796" lon="6.74272">
        <ele>1477.7</ele>
        <time>2013-09-04T08:01:14Z</time>
      </trkpt>
      <trkpt lat="44.17961" lon="6.74273">
        <ele>1478.2</ele>
        <time>2013-09-04T08:01:15Z</time>
      </trkpt>
      <trkpt lat="44.17962" lon="6.74275">
        <ele>1477.7</ele>
        <time>2013-09-04T08:01:16Z</time>
      </trkpt>
      <trkpt lat="44.17967" lon="6.74281">
        <ele>1476.2</ele>
        <time>2013-09-04T08:01:19Z</time>
      </trkpt>
      <trkpt lat="44.17972" lon="6.74286">
        <ele>1474.3</ele>
        <time>2013-09-04T08:01:24Z</time>
      </trkpt>
      <trkpt lat="44.17981" lon="6.74288">
        <ele>1472.9</ele>
        <time>2013-09-04T08:01:29Z</time>
      </trkpt>
      <trkpt lat="44.17983" lon="6.74286">
        <ele>1472.4</ele>
        <time>2013-09-04T08:01:30Z</time>
      </trkpt>
      <trkpt lat="44.17988" lon="6.7428">
        <ele>1470.5</ele>
        <time>2013-09-04T08:01:34Z</time>
      </trkpt>
      <trkpt lat="44.17998" lon="6.74269">
        <ele>1466.6</ele>
        <time>2013-09-04T08:01:41Z</time>
      </trkpt>
      <trkpt lat="44.18008" lon="6.74264">
        <ele>1463.3</ele>
        <time>2013-09-04T08:01:46Z</time>
      </trkpt>
      <trkpt lat="44.18028" lon="6.74259">
        <ele>1459.9</ele>
        <time>2013-09-04T08:01:54Z</time>
      </trkpt>
      <trkpt lat="44.18052" lon="6.74261">
        <ele>1456.5</ele>
        <time>2013-09-04T08:01:58Z</time>
      </trkpt>
      <trkpt lat="44.18064" lon="6.74265">
        <ele>1455.6</ele>
        <time>2013-09-04T08:02:00Z</time>
      </trkpt>
      <trkpt lat="44.1808" lon="6.74289">
        <ele>1452.2</ele>
        <time>2013-09-04T08:02:08Z</time>
      </trkpt>
      <trkpt lat="44.18108" lon="6.74315">
        <ele>1448.8</ele>
        <time>2013-09-04T08:02:15Z</time>
      </trkpt>
      <trkpt lat="44.18119" lon="6.74336">
        <ele>1445.5</ele>
        <time>2013-09-04T08:02:19Z</time>
      </trkpt>
      <trkpt lat="44.18124" lon="6.74349">
        <ele>1444.5</ele>
        <time>2013-09-04T08:02:23Z</time>
      </trkpt>
      <trkpt lat="44.18123" lon="6.74351">
        <ele>1443.6</ele>
        <time>2013-09-04T08:02:26Z</time>
      </trkpt>
      <trkpt lat="44.18121" lon="6.74347">
        <ele>1444</ele>
        <time>2013-09-04T08:02:39Z</time>
      </trkpt>
      <trkpt lat="44.18117" lon="6.74339">
        <ele>1443.6</ele>
        <time>2013-09-04T08:02:57Z</time>
      </trkpt>
      <trkpt lat="44.18116" lon="6.74337">
        <ele>1443.1</ele>
        <time>2013-09-04T08:02:58Z</time>
      </trkpt>
      <trkpt lat="44.18114" lon="6.74335">
        <ele>1442.1</ele>
        <time>2013-09-04T08:02:59Z</time>
      </trkpt>
      <trkpt lat="44.18112" lon="6.74333">
        <ele>1442.1</ele>
        <time>2013-09-04T08:03:00Z</time>
      </trkpt>
      <trkpt lat="44.18111" lon="6.74331">
        <ele>1441.6</ele>
        <time>2013-09-04T08:03:01Z</time>
      </trkpt>
      <trkpt lat="44.18095" lon="6.74326">
        <ele>1438.8</ele>
        <time>2013-09-04T08:03:08Z</time>
      </trkpt>
      <trkpt lat="44.18089" lon="6.74331">
        <ele>1437.3</ele>
        <time>2013-09-04T08:03:11Z</time>
      </trkpt>
      <trkpt lat="44.18082" lon="6.74348">
        <ele>1434.4</ele>
        <time>2013-09-04T08:03:17Z</time>
      </trkpt>
      <trkpt lat="44.18082" lon="6.74351">
        <ele>1434.9</ele>
        <time>2013-09-04T08:03:18Z</time>
      </trkpt>
      <trkpt lat="44.18086" lon="6.74354">
        <ele>1434.4</ele>
        <time>2013-09-04T08:03:27Z</time>
      </trkpt>
      <trkpt lat="44.18088" lon="6.74354">
        <ele>1433.9</ele>
        <time>2013-09-04T08:03:28Z</time>
      </trkpt>
      <trkpt lat="44.18099" lon="6.74353">
        <ele>1431.1</ele>
        <time>2013-09-04T08:03:33Z</time>
      </trkpt>
      <trkpt lat="44.18107" lon="6.74359">
        <ele>1428.7</ele>
        <time>2013-09-04T08:03:44Z</time>
      </trkpt>
      <trkpt lat="44.18123" lon="6.74366">
        <ele>1426.3</ele>
        <time>2013-09-04T08:03:55Z</time>
      </trkpt>
      <trkpt lat="44.18129" lon="6.7437">
        <ele>1424.8</ele>
        <time>2013-09-04T08:03:57Z</time>
      </trkpt>
      <trkpt lat="44.18136" lon="6.74377">
        <ele>1422.9</ele>
        <time>2013-09-04T08:04:05Z</time>
      </trkpt>
      <trkpt lat="44.18137" lon="6.7438">
        <ele>1423.4</ele>
        <time>2013-09-04T08:04:34Z</time>
      </trkpt>
      <trkpt lat="44.18145" lon="6.74397">
        <ele>1422.4</ele>
        <time>2013-09-04T08:04:59Z</time>
      </trkpt>
      <trkpt lat="44.18148" lon="6.744">
        <ele>1421</ele>
        <time>2013-09-04T08:05:08Z</time>
      </trkpt>
      <trkpt lat="44.18144" lon="6.744">
        <ele>1421</ele>
        <time>2013-09-04T08:05:33Z</time>
      </trkpt>
      <trkpt lat="44.18142" lon="6.74402">
        <ele>1420</ele>
        <time>2013-09-04T08:05:45Z</time>
      </trkpt>
      <trkpt lat="44.1814" lon="6.74402">
        <ele>1419.5</ele>
        <time>2013-09-04T08:05:55Z</time>
      </trkpt>
      <trkpt lat="44.18138" lon="6.74402">
        <ele>1418.6</ele>
        <time>2013-09-04T08:05:56Z</time>
      </trkpt>
      <trkpt lat="44.18136" lon="6.74403">
        <ele>1418.1</ele>
        <time>2013-09-04T08:05:57Z</time>
      </trkpt>
      <trkpt lat="44.18133" lon="6.74404">
        <ele>1417.1</ele>
        <time>2013-09-04T08:05:58Z</time>
      </trkpt>
      <trkpt lat="44.18131" lon="6.74403">
        <ele>1416.6</ele>
        <time>2013-09-04T08:05:59Z</time>
      </trkpt>
      <trkpt lat="44.18117" lon="6.74397">
        <ele>1413.8</ele>
        <time>2013-09-04T08:06:03Z</time>
      </trkpt>
      <trkpt lat="44.18101" lon="6.74401">
        <ele>1410.4</ele>
        <time>2013-09-04T08:06:10Z</time>
      </trkpt>
      <trkpt lat="44.18099" lon="6.74402">
        <ele>1409.9</ele>
        <time>2013-09-04T08:06:11Z</time>
      </trkpt>
      <trkpt lat="44.18099" lon="6.74403">
        <ele>1408.5</ele>
        <time>2013-09-04T08:06:13Z</time>
      </trkpt>
      <trkpt lat="44.18094" lon="6.7441">
        <ele>1406.1</ele>
        <time>2013-09-04T08:06:19Z</time>
      </trkpt>
      <trkpt lat="44.18084" lon="6.74419">
        <ele>1402.2</ele>
        <time>2013-09-04T08:06:24Z</time>
      </trkpt>
      <trkpt lat="44.18082" lon="6.74422">
        <ele>1402.7</ele>
        <time>2013-09-04T08:06:25Z</time>
      </trkpt>
      <trkpt lat="44.18073" lon="6.74432">
        <ele>1398.9</ele>
        <time>2013-09-04T08:06:29Z</time>
      </trkpt>
      <trkpt lat="44.18066" lon="6.74444">
        <ele>1395.5</ele>
        <time>2013-09-04T08:06:33Z</time>
      </trkpt>
      <trkpt lat="44.18059" lon="6.74463">
        <ele>1392.1</ele>
        <time>2013-09-04T08:06:38Z</time>
      </trkpt>
      <trkpt lat="44.18057" lon="6.74482">
        <ele>1387.8</ele>
        <time>2013-09-04T08:06:42Z</time>
      </trkpt>
      <trkpt lat="44.18056" lon="6.74486">
        <ele>1387.8</ele>
        <time>2013-09-04T08:06:43Z</time>
      </trkpt>
      <trkpt lat="44.18059" lon="6.74489">
        <ele>1385.9</ele>
        <time>2013-09-04T08:06:47Z</time>
      </trkpt>
      <trkpt lat="44.1806" lon="6.7449">
        <ele>1385.4</ele>
        <time>2013-09-04T08:06:48Z</time>
      </trkpt>
      <trkpt lat="44.18061" lon="6.74492">
        <ele>1384.9</ele>
        <time>2013-09-04T08:06:49Z</time>
      </trkpt>
      <trkpt lat="44.18061" lon="6.74494">
        <ele>1384.9</ele>
        <time>2013-09-04T08:06:50Z</time>
      </trkpt>
      <trkpt lat="44.18059" lon="6.74498">
        <ele>1384.4</ele>
        <time>2013-09-04T08:06:51Z</time>
      </trkpt>
      <trkpt lat="44.18058" lon="6.74503">
        <ele>1384</ele>
        <time>2013-09-04T08:06:52Z</time>
      </trkpt>
      <trkpt lat="44.18057" lon="6.74508">
        <ele>1382.5</ele>
        <time>2013-09-04T08:06:53Z</time>
      </trkpt>
      <trkpt lat="44.18054" lon="6.74512">
        <ele>1381.6</ele>
        <time>2013-09-04T08:06:54Z</time>
      </trkpt>
      <trkpt lat="44.18052" lon="6.74516">
        <ele>1381.1</ele>
        <time>2013-09-04T08:06:55Z</time>
      </trkpt>
      <trkpt lat="44.18036" lon="6.74535">
        <ele>1377.2</ele>
        <time>2013-09-04T08:07:01Z</time>
      </trkpt>
      <trkpt lat="44.1803" lon="6.7454">
        <ele>1376.8</ele>
        <time>2013-09-04T08:07:03Z</time>
      </trkpt>
      <trkpt lat="44.18022" lon="6.74548">
        <ele>1374.3</ele>
        <time>2013-09-04T08:07:07Z</time>
      </trkpt>
      <trkpt lat="44.18019" lon="6.74548">
        <ele>1373.9</ele>
        <time>2013-09-04T08:07:14Z</time>
      </trkpt>
      <trkpt lat="44.18018" lon="6.74549">
        <ele>1373.4</ele>
        <time>2013-09-04T08:07:15Z</time>
      </trkpt>
      <trkpt lat="44.18017" lon="6.7455">
        <ele>1373.4</ele>
        <time>2013-09-04T08:07:16Z</time>
      </trkpt>
      <trkpt lat="44.18015" lon="6.74552">
        <ele>1373.4</ele>
        <time>2013-09-04T08:07:17Z</time>
      </trkpt>
      <trkpt lat="44.18013" lon="6.74553">
        <ele>1372.9</ele>
        <time>2013-09-04T08:07:18Z</time>
      </trkpt>
      <trkpt lat="44.18011" lon="6.74554">
        <ele>1371.9</ele>
        <time>2013-09-04T08:07:19Z</time>
      </trkpt>
      <trkpt lat="44.18009" lon="6.74556">
        <ele>1371.5</ele>
        <time>2013-09-04T08:07:20Z</time>
      </trkpt>
      <trkpt lat="44.18007" lon="6.74557">
        <ele>1371</ele>
        <time>2013-09-04T08:07:21Z</time>
      </trkpt>
      <trkpt lat="44.18006" lon="6.74561">
        <ele>1369.5</ele>
        <time>2013-09-04T08:07:24Z</time>
      </trkpt>
      <trkpt lat="44.18006" lon="6.74562">
        <ele>1369.5</ele>
        <time>2013-09-04T08:07:25Z</time>
      </trkpt>
      <trkpt lat="44.18007" lon="6.74564">
        <ele>1369.1</ele>
        <time>2013-09-04T08:07:26Z</time>
      </trkpt>
      <trkpt lat="44.18007" lon="6.74566">
        <ele>1368.6</ele>
        <time>2013-09-04T08:07:27Z</time>
      </trkpt>
      <trkpt lat="44.18006" lon="6.74567">
        <ele>1368.6</ele>
        <time>2013-09-04T08:07:28Z</time>
      </trkpt>
      <trkpt lat="44.18005" lon="6.74568">
        <ele>1368.1</ele>
        <time>2013-09-04T08:07:29Z</time>
      </trkpt>
      <trkpt lat="44.1799" lon="6.7457">
        <ele>1364.7</ele>
        <time>2013-09-04T08:07:35Z</time>
      </trkpt>
      <trkpt lat="44.17983" lon="6.74572">
        <ele>1363.3</ele>
        <time>2013-09-04T08:07:38Z</time>
      </trkpt>
      <trkpt lat="44.1798" lon="6.74572">
        <ele>1362.3</ele>
        <time>2013-09-04T08:07:39Z</time>
      </trkpt>
      <trkpt lat="44.17977" lon="6.74573">
        <ele>1361.4</ele>
        <time>2013-09-04T08:07:40Z</time>
      </trkpt>
      <trkpt lat="44.17974" lon="6.74574">
        <ele>1360.4</ele>
        <time>2013-09-04T08:07:41Z</time>
      </trkpt>
      <trkpt lat="44.17971" lon="6.74575">
        <ele>1359.9</ele>
        <time>2013-09-04T08:07:42Z</time>
      </trkpt>
      <trkpt lat="44.17968" lon="6.74576">
        <ele>1359.4</ele>
        <time>2013-09-04T08:07:43Z</time>
      </trkpt>
      <trkpt lat="44.17966" lon="6.74577">
        <ele>1359</ele>
        <time>2013-09-04T08:07:44Z</time>
      </trkpt>
      <trkpt lat="44.17964" lon="6.74578">
        <ele>1358</ele>
        <time>2013-09-04T08:07:45Z</time>
      </trkpt>
      <trkpt lat="44.17963" lon="6.7458">
        <ele>1357.5</ele>
        <time>2013-09-04T08:07:46Z</time>
      </trkpt>
      <trkpt lat="44.17963" lon="6.74581">
        <ele>1357</ele>
        <time>2013-09-04T08:07:47Z</time>
      </trkpt>
      <trkpt lat="44.17963" lon="6.74587">
        <ele>1357.5</ele>
        <time>2013-09-04T08:08:12Z</time>
      </trkpt>
      <trkpt lat="44.17958" lon="6.74585">
        <ele>1357</ele>
        <time>2013-09-04T08:08:28Z</time>
      </trkpt>
      <trkpt lat="44.17955" lon="6.74584">
        <ele>1356.1</ele>
        <time>2013-09-04T08:08:41Z</time>
      </trkpt>
      <trkpt lat="44.17954" lon="6.74583">
        <ele>1355.6</ele>
        <time>2013-09-04T08:08:42Z</time>
      </trkpt>
      <trkpt lat="44.17951" lon="6.74581">
        <ele>1354.6</ele>
        <time>2013-09-04T08:08:44Z</time>
      </trkpt>
      <trkpt lat="44.1795" lon="6.74584">
        <ele>1353.2</ele>
        <time>2013-09-04T08:08:48Z</time>
      </trkpt>
      <trkpt lat="44.17951" lon="6.74586">
        <ele>1352.2</ele>
        <time>2013-09-04T08:08:49Z</time>
      </trkpt>
      <trkpt lat="44.17953" lon="6.74589">
        <ele>1351.8</ele>
        <time>2013-09-04T08:08:50Z</time>
      </trkpt>
      <trkpt lat="44.17954" lon="6.74591">
        <ele>1351.3</ele>
        <time>2013-09-04T08:08:51Z</time>
      </trkpt>
      <trkpt lat="44.17956" lon="6.74594">
        <ele>1350.8</ele>
        <time>2013-09-04T08:08:52Z</time>
      </trkpt>
      <trkpt lat="44.17958" lon="6.74595">
        <ele>1350.3</ele>
        <time>2013-09-04T08:08:53Z</time>
      </trkpt>
      <trkpt lat="44.1796" lon="6.74598">
        <ele>1349.8</ele>
        <time>2013-09-04T08:08:55Z</time>
      </trkpt>
      <trkpt lat="44.17952" lon="6.74601">
        <ele>1347.9</ele>
        <time>2013-09-04T08:08:59Z</time>
      </trkpt>
      <trkpt lat="44.1794" lon="6.74601">
        <ele>1346.5</ele>
        <time>2013-09-04T08:09:02Z</time>
      </trkpt>
      <trkpt lat="44.17926" lon="6.74598">
        <ele>1343.6</ele>
        <time>2013-09-04T08:09:08Z</time>
      </trkpt>
      <trkpt lat="44.17926" lon="6.74602">
        <ele>1342.6</ele>
        <time>2013-09-04T08:09:10Z</time>
      </trkpt>
      <trkpt lat="44.17928" lon="6.74606">
        <ele>1341.7</ele>
        <time>2013-09-04T08:09:12Z</time>
      </trkpt>
      <trkpt lat="44.17923" lon="6.74606">
        <ele>1339.7</ele>
        <time>2013-09-04T08:09:16Z</time>
      </trkpt>
      <trkpt lat="44.1792" lon="6.74607">
        <ele>1340.2</ele>
        <time>2013-09-04T08:09:17Z</time>
      </trkpt>
      <trkpt lat="44.17918" lon="6.74607">
        <ele>1339.3</ele>
        <time>2013-09-04T08:09:18Z</time>
      </trkpt>
      <trkpt lat="44.17916" lon="6.74607">
        <ele>1338.3</ele>
        <time>2013-09-04T08:09:19Z</time>
      </trkpt>
      <trkpt lat="44.17915" lon="6.74607">
        <ele>1337.8</ele>
        <time>2013-09-04T08:09:20Z</time>
      </trkpt>
      <trkpt lat="44.17914" lon="6.74615">
        <ele>1335.9</ele>
        <time>2013-09-04T08:09:29Z</time>
      </trkpt>
      <trkpt lat="44.17913" lon="6.74616">
        <ele>1335.4</ele>
        <time>2013-09-04T08:09:30Z</time>
      </trkpt>
      <trkpt lat="44.17912" lon="6.74616">
        <ele>1334.5</ele>
        <time>2013-09-04T08:09:31Z</time>
      </trkpt>
      <trkpt lat="44.1791" lon="6.74616">
        <ele>1334</ele>
        <time>2013-09-04T08:09:32Z</time>
      </trkpt>
      <trkpt lat="44.17907" lon="6.74617">
        <ele>1333.5</ele>
        <time>2013-09-04T08:09:33Z</time>
      </trkpt>
      <trkpt lat="44.17905" lon="6.74617">
        <ele>1332</ele>
        <time>2013-09-04T08:09:35Z</time>
      </trkpt>
      <trkpt lat="44.17903" lon="6.74616">
        <ele>1332</ele>
        <time>2013-09-04T08:09:36Z</time>
      </trkpt>
      <trkpt lat="44.17899" lon="6.74618">
        <ele>1330.1</ele>
        <time>2013-09-04T08:09:39Z</time>
      </trkpt>
      <trkpt lat="44.17898" lon="6.74619">
        <ele>1329.6</ele>
        <time>2013-09-04T08:09:40Z</time>
      </trkpt>
      <trkpt lat="44.17898" lon="6.74632">
        <ele>1325.8</ele>
        <time>2013-09-04T08:09:48Z</time>
      </trkpt>
      <trkpt lat="44.17897" lon="6.74634">
        <ele>1325.3</ele>
        <time>2013-09-04T08:09:49Z</time>
      </trkpt>
      <trkpt lat="44.17899" lon="6.74639">
        <ele>1323.9</ele>
        <time>2013-09-04T08:10:04Z</time>
      </trkpt>
      <trkpt lat="44.17897" lon="6.74642">
        <ele>1322.9</ele>
        <time>2013-09-04T08:10:10Z</time>
      </trkpt>
      <trkpt lat="44.17895" lon="6.74645">
        <ele>1321.5</ele>
        <time>2013-09-04T08:10:18Z</time>
      </trkpt>
      <trkpt lat="44.17892" lon="6.74647">
        <ele>1319.1</ele>
        <time>2013-09-04T08:10:30Z</time>
      </trkpt>
      <trkpt lat="44.17892" lon="6.74647">
        <ele>1319.1</ele>
        <time>2013-09-04T08:10:31Z</time>
      </trkpt>
      <trkpt lat="44.17885" lon="6.74648">
        <ele>1317.6</ele>
        <time>2013-09-04T08:10:35Z</time>
      </trkpt>
      <trkpt lat="44.17882" lon="6.74648">
        <ele>1316.2</ele>
        <time>2013-09-04T08:10:37Z</time>
      </trkpt>
      <trkpt lat="44.1788" lon="6.74649">
        <ele>1315.7</ele>
        <time>2013-09-04T08:10:38Z</time>
      </trkpt>
      <trkpt lat="44.17883" lon="6.74659">
        <ele>1312.3</ele>
        <time>2013-09-04T08:10:44Z</time>
      </trkpt>
      <trkpt lat="44.17881" lon="6.74662">
        <ele>1310.9</ele>
        <time>2013-09-04T08:10:47Z</time>
      </trkpt>
      <trkpt lat="44.1788" lon="6.74663">
        <ele>1310.4</ele>
        <time>2013-09-04T08:10:48Z</time>
      </trkpt>
      <trkpt lat="44.17884" lon="6.74667">
        <ele>1309</ele>
        <time>2013-09-04T08:11:04Z</time>
      </trkpt>
      <trkpt lat="44.17876" lon="6.74665">
        <ele>1308</ele>
        <time>2013-09-04T08:11:21Z</time>
      </trkpt>
      <trkpt lat="44.17877" lon="6.74672">
        <ele>1306.1</ele>
        <time>2013-09-04T08:11:34Z</time>
      </trkpt>
      <trkpt lat="44.17877" lon="6.74672">
        <ele>1306.1</ele>
        <time>2013-09-04T08:11:35Z</time>
      </trkpt>
      <trkpt lat="44.17874" lon="6.74679">
        <ele>1304.2</ele>
        <time>2013-09-04T08:11:39Z</time>
      </trkpt>
      <trkpt lat="44.17873" lon="6.7468">
        <ele>1303.7</ele>
        <time>2013-09-04T08:11:40Z</time>
      </trkpt>
      <trkpt lat="44.1787" lon="6.74685">
        <ele>1301.3</ele>
        <time>2013-09-04T08:11:48Z</time>
      </trkpt>
      <trkpt lat="44.17866" lon="6.74686">
        <ele>1299.4</ele>
        <time>2013-09-04T08:11:52Z</time>
      </trkpt>
      <trkpt lat="44.17867" lon="6.74702">
        <ele>1296.5</ele>
        <time>2013-09-04T08:11:59Z</time>
      </trkpt>
      <trkpt lat="44.17865" lon="6.74711">
        <ele>1292.6</ele>
        <time>2013-09-04T08:12:07Z</time>
      </trkpt>
      <trkpt lat="44.17862" lon="6.74711">
        <ele>1291.2</ele>
        <time>2013-09-04T08:12:10Z</time>
      </trkpt>
      <trkpt lat="44.17869" lon="6.74724">
        <ele>1286.9</ele>
        <time>2013-09-04T08:12:16Z</time>
      </trkpt>
      <trkpt lat="44.1787" lon="6.74727">
        <ele>1286.9</ele>
        <time>2013-09-04T08:12:17Z</time>
      </trkpt>
      <trkpt lat="44.17874" lon="6.74737">
        <ele>1283.5</ele>
        <time>2013-09-04T08:12:21Z</time>
      </trkpt>
      <trkpt lat="44.17875" lon="6.74739">
        <ele>1283.5</ele>
        <time>2013-09-04T08:12:22Z</time>
      </trkpt>
      <trkpt lat="44.17875" lon="6.74742">
        <ele>1282.1</ele>
        <time>2013-09-04T08:12:23Z</time>
      </trkpt>
      <trkpt lat="44.17876" lon="6.74744">
        <ele>1282.1</ele>
        <time>2013-09-04T08:12:24Z</time>
      </trkpt>
      <trkpt lat="44.17877" lon="6.74757">
        <ele>1278.2</ele>
        <time>2013-09-04T08:12:28Z</time>
      </trkpt>
      <trkpt lat="44.17877" lon="6.74761">
        <ele>1277.7</ele>
        <time>2013-09-04T08:12:29Z</time>
      </trkpt>
      <trkpt lat="44.17878" lon="6.74768">
        <ele>1276.8</ele>
        <time>2013-09-04T08:12:31Z</time>
      </trkpt>
      <trkpt lat="44.17878" lon="6.74771">
        <ele>1275.8</ele>
        <time>2013-09-04T08:12:32Z</time>
      </trkpt>
      <trkpt lat="44.1788" lon="6.74775">
        <ele>1274.9</ele>
        <time>2013-09-04T08:12:33Z</time>
      </trkpt>
      <trkpt lat="44.17881" lon="6.74778">
        <ele>1274.4</ele>
        <time>2013-09-04T08:12:34Z</time>
      </trkpt>
      <trkpt lat="44.17882" lon="6.74781">
        <ele>1273.4</ele>
        <time>2013-09-04T08:12:35Z</time>
      </trkpt>
      <trkpt lat="44.17882" lon="6.74783">
        <ele>1272.9</ele>
        <time>2013-09-04T08:12:36Z</time>
      </trkpt>
      <trkpt lat="44.17881" lon="6.74785">
        <ele>1272.4</ele>
        <time>2013-09-04T08:12:37Z</time>
      </trkpt>
      <trkpt lat="44.1788" lon="6.74787">
        <ele>1272</ele>
        <time>2013-09-04T08:12:38Z</time>
      </trkpt>
      <trkpt lat="44.17879" lon="6.74789">
        <ele>1272</ele>
        <time>2013-09-04T08:12:39Z</time>
      </trkpt>
      <trkpt lat="44.17874" lon="6.74796">
        <ele>1269.6</ele>
        <time>2013-09-04T08:12:42Z</time>
      </trkpt>
      <trkpt lat="44.17869" lon="6.74808">
        <ele>1267.2</ele>
        <time>2013-09-04T08:12:46Z</time>
      </trkpt>
      <trkpt lat="44.17868" lon="6.74811">
        <ele>1266.2</ele>
        <time>2013-09-04T08:12:47Z</time>
      </trkpt>
      <trkpt lat="44.17867" lon="6.74814">
        <ele>1265.7</ele>
        <time>2013-09-04T08:12:48Z</time>
      </trkpt>
      <trkpt lat="44.17868" lon="6.74819">
        <ele>1265.7</ele>
        <time>2013-09-04T08:12:49Z</time>
      </trkpt>
      <trkpt lat="44.17875" lon="6.74833">
        <ele>1263.8</ele>
        <time>2013-09-04T08:12:52Z</time>
      </trkpt>
      <trkpt lat="44.17884" lon="6.74853">
        <ele>1260.4</ele>
        <time>2013-09-04T08:12:58Z</time>
      </trkpt>
      <trkpt lat="44.17887" lon="6.74858">
        <ele>1260.4</ele>
        <time>2013-09-04T08:13:07Z</time>
      </trkpt>
      <trkpt lat="44.17896" lon="6.74865">
        <ele>1259</ele>
        <time>2013-09-04T08:13:30Z</time>
      </trkpt>
      <trkpt lat="44.17913" lon="6.7488">
        <ele>1256.1</ele>
        <time>2013-09-04T08:13:44Z</time>
      </trkpt>
      <trkpt lat="44.17928" lon="6.74882">
        <ele>1252.7</ele>
        <time>2013-09-04T08:13:47Z</time>
      </trkpt>
      <trkpt lat="44.17947" lon="6.74883">
        <ele>1249.9</ele>
        <time>2013-09-04T08:13:51Z</time>
      </trkpt>
      <trkpt lat="44.17952" lon="6.74884">
        <ele>1249.4</ele>
        <time>2013-09-04T08:13:52Z</time>
      </trkpt>
      <trkpt lat="44.17956" lon="6.74886">
        <ele>1248.4</ele>
        <time>2013-09-04T08:13:53Z</time>
      </trkpt>
      <trkpt lat="44.1797" lon="6.74893">
        <ele>1245.5</ele>
        <time>2013-09-04T08:13:56Z</time>
      </trkpt>
      <trkpt lat="44.17975" lon="6.74896">
        <ele>1245.5</ele>
        <time>2013-09-04T08:13:57Z</time>
      </trkpt>
      <trkpt lat="44.17979" lon="6.74899">
        <ele>1246</ele>
        <time>2013-09-04T08:13:58Z</time>
      </trkpt>
      <trkpt lat="44.18021" lon="6.749">
        <ele>1247</ele>
        <time>2013-09-04T08:14:10Z</time>
      </trkpt>
      <trkpt lat="44.18069" lon="6.74885">
        <ele>1248.4</ele>
        <time>2013-09-04T08:14:26Z</time>
      </trkpt>
      <trkpt lat="44.18125" lon="6.74859">
        <ele>1249.4</ele>
        <time>2013-09-04T08:14:42Z</time>
      </trkpt>
      <trkpt lat="44.18167" lon="6.74822">
        <ele>1250.8</ele>
        <time>2013-09-04T08:14:56Z</time>
      </trkpt>
      <trkpt lat="44.18205" lon="6.7482">
        <ele>1252.3</ele>
        <time>2013-09-04T08:15:08Z</time>
      </trkpt>
      <trkpt lat="44.18244" lon="6.74848">
        <ele>1253.2</ele>
        <time>2013-09-04T08:15:24Z</time>
      </trkpt>
      <trkpt lat="44.18283" lon="6.74875">
        <ele>1254.2</ele>
        <time>2013-09-04T08:15:38Z</time>
      </trkpt>
      <trkpt lat="44.18343" lon="6.74905">
        <ele>1256.6</ele>
        <time>2013-09-04T08:15:57Z</time>
      </trkpt>
      <trkpt lat="44.18403" lon="6.74908">
        <ele>1259.5</ele>
        <time>2013-09-04T08:16:16Z</time>
      </trkpt>
      <trkpt lat="44.18465" lon="6.74886">
        <ele>1261.9</ele>
        <time>2013-09-04T08:16:36Z</time>
      </trkpt>
      <trkpt lat="44.18524" lon="6.74863">
        <ele>1264.3</ele>
        <time>2013-09-04T08:16:55Z</time>
      </trkpt>
      <trkpt lat="44.18584" lon="6.7484">
        <ele>1267.2</ele>
        <time>2013-09-04T08:17:14Z</time>
      </trkpt>
      <trkpt lat="44.18632" lon="6.74817">
        <ele>1269.1</ele>
        <time>2013-09-04T08:17:30Z</time>
      </trkpt>
      <trkpt lat="44.18676" lon="6.7479">
        <ele>1271</ele>
        <time>2013-09-04T08:17:45Z</time>
      </trkpt>
      <trkpt lat="44.1872" lon="6.74781">
        <ele>1272</ele>
        <time>2013-09-04T08:17:59Z</time>
      </trkpt>
      <trkpt lat="44.18767" lon="6.74816">
        <ele>1273.4</ele>
        <time>2013-09-04T08:18:15Z</time>
      </trkpt>
      <trkpt lat="44.18789" lon="6.74836">
        <ele>1274.9</ele>
        <time>2013-09-04T08:18:27Z</time>
      </trkpt>
      <trkpt lat="44.1881" lon="6.74848">
        <ele>1276.3</ele>
        <time>2013-09-04T08:18:40Z</time>
      </trkpt>
      <trkpt lat="44.18837" lon="6.74858">
        <ele>1278.2</ele>
        <time>2013-09-04T08:18:55Z</time>
      </trkpt>
      <trkpt lat="44.18862" lon="6.74872">
        <ele>1279.7</ele>
        <time>2013-09-04T08:19:09Z</time>
      </trkpt>
      <trkpt lat="44.18896" lon="6.74886">
        <ele>1280.6</ele>
        <time>2013-09-04T08:19:23Z</time>
      </trkpt>
      <trkpt lat="44.18897" lon="6.74888">
        <ele>1281.1</ele>
        <time>2013-09-04T08:19:24Z</time>
      </trkpt>
      <trkpt lat="44.18896" lon="6.7489">
        <ele>1281.1</ele>
        <time>2013-09-04T08:19:25Z</time>
      </trkpt>
      <trkpt lat="44.18894" lon="6.74891">
        <ele>1281.1</ele>
        <time>2013-09-04T08:19:26Z</time>
      </trkpt>
      <trkpt lat="44.18892" lon="6.74891">
        <ele>1281.1</ele>
        <time>2013-09-04T08:19:27Z</time>
      </trkpt>
      <trkpt lat="44.18891" lon="6.74891">
        <ele>1281.1</ele>
        <time>2013-09-04T08:19:28Z</time>
      </trkpt>
      <trkpt lat="44.18892" lon="6.74891">
        <ele>1281.1</ele>
        <time>2013-09-04T08:19:40Z</time>
      </trkpt>
      <trkpt lat="44.18891" lon="6.74892">
        <ele>1280.6</ele>
        <time>2013-09-04T08:19:54Z</time>
      </trkpt>
      <trkpt lat="44.18852" lon="6.7489">
        <ele>1282.5</ele>
        <time>2013-09-04T08:20:07Z</time>
      </trkpt>
      <trkpt lat="44.18834" lon="6.74908">
        <ele>1283</ele>
        <time>2013-09-04T08:20:19Z</time>
      </trkpt>
      <trkpt lat="44.18807" lon="6.74908">
        <ele>1281.1</ele>
        <time>2013-09-04T08:20:29Z</time>
      </trkpt>
      <trkpt lat="44.18803" lon="6.74907">
        <ele>1281.1</ele>
        <time>2013-09-04T08:20:31Z</time>
      </trkpt>
      <trkpt lat="44.18798" lon="6.74905">
        <ele>1280.6</ele>
        <time>2013-09-04T08:20:32Z</time>
      </trkpt>
      <trkpt lat="44.18794" lon="6.74904">
        <ele>1280.6</ele>
        <time>2013-09-04T08:20:33Z</time>
      </trkpt>
      <trkpt lat="44.18791" lon="6.74904">
        <ele>1280.1</ele>
        <time>2013-09-04T08:20:34Z</time>
      </trkpt>
      <trkpt lat="44.18789" lon="6.74903">
        <ele>1279.7</ele>
        <time>2013-09-04T08:20:35Z</time>
      </trkpt>
      <trkpt lat="44.18787" lon="6.74902">
        <ele>1279.7</ele>
        <time>2013-09-04T08:20:36Z</time>
      </trkpt>
      <trkpt lat="44.18785" lon="6.74902">
        <ele>1279.2</ele>
        <time>2013-09-04T08:20:37Z</time>
      </trkpt>
      <trkpt lat="44.18783" lon="6.74902">
        <ele>1279.2</ele>
        <time>2013-09-04T08:20:38Z</time>
      </trkpt>
      <trkpt lat="44.18784" lon="6.74904">
        <ele>1278.7</ele>
        <time>2013-09-04T08:20:54Z</time>
      </trkpt>
      <trkpt lat="44.18779" lon="6.74903">
        <ele>1278.7</ele>
        <time>2013-09-04T08:21:06Z</time>
      </trkpt>
      <trkpt lat="44.18774" lon="6.74902">
        <ele>1277.7</ele>
        <time>2013-09-04T08:21:07Z</time>
      </trkpt>
      <trkpt lat="44.1877" lon="6.74901">
        <ele>1277.7</ele>
        <time>2013-09-04T08:21:08Z</time>
      </trkpt>
      <trkpt lat="44.18766" lon="6.74901">
        <ele>1277.3</ele>
        <time>2013-09-04T08:21:09Z</time>
      </trkpt>
      <trkpt lat="44.18762" lon="6.74901">
        <ele>1277.3</ele>
        <time>2013-09-04T08:21:10Z</time>
      </trkpt>
      <trkpt lat="44.18742" lon="6.74898">
        <ele>1274.4</ele>
        <time>2013-09-04T08:21:16Z</time>
      </trkpt>
      <trkpt lat="44.18739" lon="6.74897">
        <ele>1273.9</ele>
        <time>2013-09-04T08:21:17Z</time>
      </trkpt>
      <trkpt lat="44.18736" lon="6.74895">
        <ele>1274.4</ele>
        <time>2013-09-04T08:21:18Z</time>
      </trkpt>
      <trkpt lat="44.18728" lon="6.74879">
        <ele>1273.4</ele>
        <time>2013-09-04T08:21:25Z</time>
      </trkpt>
      <trkpt lat="44.18729" lon="6.74876">
        <ele>1272.9</ele>
        <time>2013-09-04T08:21:26Z</time>
      </trkpt>
      <trkpt lat="44.1874" lon="6.74861">
        <ele>1272</ele>
        <time>2013-09-04T08:21:30Z</time>
      </trkpt>
      <trkpt lat="44.18746" lon="6.74853">
        <ele>1271.5</ele>
        <time>2013-09-04T08:21:32Z</time>
      </trkpt>
      <trkpt lat="44.1875" lon="6.7485">
        <ele>1271</ele>
        <time>2013-09-04T08:21:33Z</time>
      </trkpt>
      <trkpt lat="44.18753" lon="6.74848">
        <ele>1271</ele>
        <time>2013-09-04T08:21:34Z</time>
      </trkpt>
      <trkpt lat="44.18757" lon="6.74846">
        <ele>1271</ele>
        <time>2013-09-04T08:21:35Z</time>
      </trkpt>
      <trkpt lat="44.1876" lon="6.74845">
        <ele>1271.5</ele>
        <time>2013-09-04T08:21:36Z</time>
      </trkpt>
      <trkpt lat="44.18767" lon="6.74845">
        <ele>1272</ele>
        <time>2013-09-04T08:21:45Z</time>
      </trkpt>
      <trkpt lat="44.1877" lon="6.74844">
        <ele>1272.4</ele>
        <time>2013-09-04T08:21:56Z</time>
      </trkpt>
      <trkpt lat="44.18774" lon="6.7483">
        <ele>1272.4</ele>
        <time>2013-09-04T08:22:11Z</time>
      </trkpt>
      <trkpt lat="44.18773" lon="6.74831">
        <ele>1269.6</ele>
        <time>2013-09-04T08:22:19Z</time>
      </trkpt>
      <trkpt lat="44.18774" lon="6.74831">
        <ele>1271.5</ele>
        <time>2013-09-04T08:22:21Z</time>
      </trkpt>
      <trkpt lat="44.18787" lon="6.74836">
        <ele>1287.8</ele>
        <time>2013-09-04T08:53:31Z</time>
      </trkpt>
      <trkpt lat="44.18789" lon="6.74834">
        <ele>1288.3</ele>
        <time>2013-09-04T08:53:32Z</time>
      </trkpt>
      <trkpt lat="44.18795" lon="6.74838">
        <ele>1287.8</ele>
        <time>2013-09-04T08:53:36Z</time>
      </trkpt>
      <trkpt lat="44.188" lon="6.74842">
        <ele>1286.4</ele>
        <time>2013-09-04T08:53:40Z</time>
      </trkpt>
      <trkpt lat="44.18811" lon="6.74847">
        <ele>1284.9</ele>
        <time>2013-09-04T08:53:47Z</time>
      </trkpt>
      <trkpt lat="44.18816" lon="6.7485">
        <ele>1281.6</ele>
        <time>2013-09-04T08:53:51Z</time>
      </trkpt>
      <trkpt lat="44.18839" lon="6.74858">
        <ele>1280.1</ele>
        <time>2013-09-04T08:54:04Z</time>
      </trkpt>
      <trkpt lat="44.18866" lon="6.74867">
        <ele>1277.7</ele>
        <time>2013-09-04T08:54:18Z</time>
      </trkpt>
      <trkpt lat="44.18899" lon="6.74885">
        <ele>1275.3</ele>
        <time>2013-09-04T08:54:34Z</time>
      </trkpt>
      <trkpt lat="44.18924" lon="6.74906">
        <ele>1275.3</ele>
        <time>2013-09-04T08:54:49Z</time>
      </trkpt>
      <trkpt lat="44.18925" lon="6.74909">
        <ele>1274.9</ele>
        <time>2013-09-04T08:54:50Z</time>
      </trkpt>
      <trkpt lat="44.18925" lon="6.74911">
        <ele>1275.3</ele>
        <time>2013-09-04T08:54:51Z</time>
      </trkpt>
      <trkpt lat="44.18918" lon="6.74958">
        <ele>1272.9</ele>
        <time>2013-09-04T08:55:04Z</time>
      </trkpt>
      <trkpt lat="44.18919" lon="6.74969">
        <ele>1272</ele>
        <time>2013-09-04T08:55:06Z</time>
      </trkpt>
      <trkpt lat="44.1892" lon="6.74974">
        <ele>1272.4</ele>
        <time>2013-09-04T08:55:07Z</time>
      </trkpt>
      <trkpt lat="44.18922" lon="6.7498">
        <ele>1271.5</ele>
        <time>2013-09-04T08:55:08Z</time>
      </trkpt>
      <trkpt lat="44.18925" lon="6.74992">
        <ele>1271</ele>
        <time>2013-09-04T08:55:10Z</time>
      </trkpt>
      <trkpt lat="44.18925" lon="6.74997">
        <ele>1271.5</ele>
        <time>2013-09-04T08:55:11Z</time>
      </trkpt>
      <trkpt lat="44.18924" lon="6.75003">
        <ele>1271.5</ele>
        <time>2013-09-04T08:55:12Z</time>
      </trkpt>
      <trkpt lat="44.18923" lon="6.75008">
        <ele>1271</ele>
        <time>2013-09-04T08:55:13Z</time>
      </trkpt>
      <trkpt lat="44.1892" lon="6.75012">
        <ele>1271</ele>
        <time>2013-09-04T08:55:14Z</time>
      </trkpt>
      <trkpt lat="44.18918" lon="6.75016">
        <ele>1271</ele>
        <time>2013-09-04T08:55:15Z</time>
      </trkpt>
      <trkpt lat="44.18906" lon="6.75028">
        <ele>1270.5</ele>
        <time>2013-09-04T08:55:20Z</time>
      </trkpt>
      <trkpt lat="44.18894" lon="6.75028">
        <ele>1269.6</ele>
        <time>2013-09-04T08:55:27Z</time>
      </trkpt>
      <trkpt lat="44.18892" lon="6.75025">
        <ele>1269.6</ele>
        <time>2013-09-04T08:55:28Z</time>
      </trkpt>
      <trkpt lat="44.18887" lon="6.75017">
        <ele>1269.6</ele>
        <time>2013-09-04T08:55:30Z</time>
      </trkpt>
      <trkpt lat="44.1887" lon="6.75007">
        <ele>1267.6</ele>
        <time>2013-09-04T08:55:39Z</time>
      </trkpt>
      <trkpt lat="44.18874" lon="6.75009">
        <ele>1267.2</ele>
        <time>2013-09-04T08:55:49Z</time>
      </trkpt>
      <trkpt lat="44.18858" lon="6.75006">
        <ele>1269.1</ele>
        <time>2013-09-04T08:56:13Z</time>
      </trkpt>
      <trkpt lat="44.18833" lon="6.75012">
        <ele>1272</ele>
        <time>2013-09-04T08:56:30Z</time>
      </trkpt>
      <trkpt lat="44.18813" lon="6.75019">
        <ele>1273.9</ele>
        <time>2013-09-04T08:56:47Z</time>
      </trkpt>
      <trkpt lat="44.18792" lon="6.75026">
        <ele>1276.3</ele>
        <time>2013-09-04T08:57:02Z</time>
      </trkpt>
      <trkpt lat="44.18761" lon="6.75039">
        <ele>1277.3</ele>
        <time>2013-09-04T08:57:17Z</time>
      </trkpt>
      <trkpt lat="44.18718" lon="6.75071">
        <ele>1278.7</ele>
        <time>2013-09-04T08:57:35Z</time>
      </trkpt>
      <trkpt lat="44.1868" lon="6.75076">
        <ele>1280.1</ele>
        <time>2013-09-04T08:57:49Z</time>
      </trkpt>
      <trkpt lat="44.18644" lon="6.75082">
        <ele>1280.6</ele>
        <time>2013-09-04T08:58:01Z</time>
      </trkpt>
      <trkpt lat="44.18597" lon="6.75104">
        <ele>1281.6</ele>
        <time>2013-09-04T08:58:16Z</time>
      </trkpt>
      <trkpt lat="44.18554" lon="6.7513">
        <ele>1282.1</ele>
        <time>2013-09-04T08:58:31Z</time>
      </trkpt>
      <trkpt lat="44.18515" lon="6.75148">
        <ele>1283.5</ele>
        <time>2013-09-04T08:58:46Z</time>
      </trkpt>
      <trkpt lat="44.1848" lon="6.75165">
        <ele>1284.9</ele>
        <time>2013-09-04T08:59:01Z</time>
      </trkpt>
      <trkpt lat="44.18457" lon="6.75179">
        <ele>1287.8</ele>
        <time>2013-09-04T08:59:16Z</time>
      </trkpt>
      <trkpt lat="44.18454" lon="6.75181">
        <ele>1287.8</ele>
        <time>2013-09-04T08:59:18Z</time>
      </trkpt>
      <trkpt lat="44.18452" lon="6.75182">
        <ele>1288.3</ele>
        <time>2013-09-04T08:59:19Z</time>
      </trkpt>
      <trkpt lat="44.1845" lon="6.75184">
        <ele>1288.3</ele>
        <time>2013-09-04T08:59:20Z</time>
      </trkpt>
      <trkpt lat="44.18449" lon="6.75186">
        <ele>1288.3</ele>
        <time>2013-09-04T08:59:21Z</time>
      </trkpt>
      <trkpt lat="44.18448" lon="6.75189">
        <ele>1288.3</ele>
        <time>2013-09-04T08:59:22Z</time>
      </trkpt>
      <trkpt lat="44.18447" lon="6.75192">
        <ele>1288.3</ele>
        <time>2013-09-04T08:59:23Z</time>
      </trkpt>
      <trkpt lat="44.18447" lon="6.75195">
        <ele>1288.3</ele>
        <time>2013-09-04T08:59:24Z</time>
      </trkpt>
      <trkpt lat="44.18448" lon="6.75197">
        <ele>1288.8</ele>
        <time>2013-09-04T08:59:25Z</time>
      </trkpt>
      <trkpt lat="44.18449" lon="6.752">
        <ele>1289.8</ele>
        <time>2013-09-04T08:59:26Z</time>
      </trkpt>
      <trkpt lat="44.1845" lon="6.75201">
        <ele>1288.8</ele>
        <time>2013-09-04T08:59:27Z</time>
      </trkpt>
      <trkpt lat="44.18452" lon="6.75202">
        <ele>1289.3</ele>
        <time>2013-09-04T08:59:28Z</time>
      </trkpt>
      <trkpt lat="44.18453" lon="6.75203">
        <ele>1289.3</ele>
        <time>2013-09-04T08:59:29Z</time>
      </trkpt>
      <trkpt lat="44.18455" lon="6.75203">
        <ele>1289.3</ele>
        <time>2013-09-04T08:59:30Z</time>
      </trkpt>
      <trkpt lat="44.18457" lon="6.75202">
        <ele>1289.8</ele>
        <time>2013-09-04T08:59:31Z</time>
      </trkpt>
      <trkpt lat="44.18459" lon="6.75201">
        <ele>1289.8</ele>
        <time>2013-09-04T08:59:32Z</time>
      </trkpt>
      <trkpt lat="44.18484" lon="6.75193">
        <ele>1292.2</ele>
        <time>2013-09-04T08:59:48Z</time>
      </trkpt>
      <trkpt lat="44.18487" lon="6.75193">
        <ele>1292.2</ele>
        <time>2013-09-04T08:59:50Z</time>
      </trkpt>
      <trkpt lat="44.18489" lon="6.75193">
        <ele>1292.2</ele>
        <time>2013-09-04T08:59:51Z</time>
      </trkpt>
      <trkpt lat="44.18492" lon="6.75194">
        <ele>1293.1</ele>
        <time>2013-09-04T08:59:54Z</time>
      </trkpt>
      <trkpt lat="44.18497" lon="6.75195">
        <ele>1293.6</ele>
        <time>2013-09-04T08:59:57Z</time>
      </trkpt>
      <trkpt lat="44.18498" lon="6.75195">
        <ele>1293.6</ele>
        <time>2013-09-04T08:59:58Z</time>
      </trkpt>
      <trkpt lat="44.185" lon="6.75196">
        <ele>1293.6</ele>
        <time>2013-09-04T08:59:59Z</time>
      </trkpt>
      <trkpt lat="44.1852" lon="6.75191">
        <ele>1295</ele>
        <time>2013-09-04T09:00:12Z</time>
      </trkpt>
      <trkpt lat="44.18524" lon="6.7519">
        <ele>1296</ele>
        <time>2013-09-04T09:00:15Z</time>
      </trkpt>
      <trkpt lat="44.18525" lon="6.75191">
        <ele>1296</ele>
        <time>2013-09-04T09:00:16Z</time>
      </trkpt>
      <trkpt lat="44.18533" lon="6.75191">
        <ele>1297</ele>
        <time>2013-09-04T09:00:22Z</time>
      </trkpt>
      <trkpt lat="44.18535" lon="6.75191">
        <ele>1297.4</ele>
        <time>2013-09-04T09:00:23Z</time>
      </trkpt>
      <trkpt lat="44.18553" lon="6.75192">
        <ele>1299.4</ele>
        <time>2013-09-04T09:00:33Z</time>
      </trkpt>
      <trkpt lat="44.18554" lon="6.75192">
        <ele>1299.4</ele>
        <time>2013-09-04T09:00:34Z</time>
      </trkpt>
      <trkpt lat="44.18556" lon="6.75192">
        <ele>1299.4</ele>
        <time>2013-09-04T09:00:35Z</time>
      </trkpt>
      <trkpt lat="44.18557" lon="6.75191">
        <ele>1299.8</ele>
        <time>2013-09-04T09:00:36Z</time>
      </trkpt>
      <trkpt lat="44.18568" lon="6.7519">
        <ele>1301.3</ele>
        <time>2013-09-04T09:00:48Z</time>
      </trkpt>
      <trkpt lat="44.18573" lon="6.75187">
        <ele>1300.8</ele>
        <time>2013-09-04T09:01:13Z</time>
      </trkpt>
      <trkpt lat="44.18582" lon="6.75188">
        <ele>1301.3</ele>
        <time>2013-09-04T09:01:57Z</time>
      </trkpt>
      <trkpt lat="44.18579" lon="6.75193">
        <ele>1302.2</ele>
        <time>2013-09-04T09:02:32Z</time>
      </trkpt>
      <trkpt lat="44.18577" lon="6.7519">
        <ele>1302.7</ele>
        <time>2013-09-04T09:02:52Z</time>
      </trkpt>
      <trkpt lat="44.1858" lon="6.75187">
        <ele>1303.2</ele>
        <time>2013-09-04T09:03:01Z</time>
      </trkpt>
      <trkpt lat="44.18581" lon="6.75186">
        <ele>1303.7</ele>
        <time>2013-09-04T09:03:02Z</time>
      </trkpt>
      <trkpt lat="44.18582" lon="6.75186">
        <ele>1304.2</ele>
        <time>2013-09-04T09:03:03Z</time>
      </trkpt>
      <trkpt lat="44.18598" lon="6.75186">
        <ele>1306.1</ele>
        <time>2013-09-04T09:03:16Z</time>
      </trkpt>
      <trkpt lat="44.18618" lon="6.75181">
        <ele>1308</ele>
        <time>2013-09-04T09:03:32Z</time>
      </trkpt>
      <trkpt lat="44.18619" lon="6.7518">
        <ele>1308.5</ele>
        <time>2013-09-04T09:03:33Z</time>
      </trkpt>
      <trkpt lat="44.1862" lon="6.7518">
        <ele>1309</ele>
        <time>2013-09-04T09:03:34Z</time>
      </trkpt>
      <trkpt lat="44.18621" lon="6.75179">
        <ele>1308.5</ele>
        <time>2013-09-04T09:03:35Z</time>
      </trkpt>
      <trkpt lat="44.18624" lon="6.75179">
        <ele>1309.5</ele>
        <time>2013-09-04T09:03:37Z</time>
      </trkpt>
      <trkpt lat="44.18639" lon="6.75179">
        <ele>1311.4</ele>
        <time>2013-09-04T09:03:50Z</time>
      </trkpt>
      <trkpt lat="44.1866" lon="6.75185">
        <ele>1313.8</ele>
        <time>2013-09-04T09:04:05Z</time>
      </trkpt>
      <trkpt lat="44.18665" lon="6.75184">
        <ele>1314.7</ele>
        <time>2013-09-04T09:04:08Z</time>
      </trkpt>
      <trkpt lat="44.18666" lon="6.75182">
        <ele>1314.3</ele>
        <time>2013-09-04T09:04:09Z</time>
      </trkpt>
      <trkpt lat="44.18672" lon="6.75178">
        <ele>1315.2</ele>
        <time>2013-09-04T09:04:13Z</time>
      </trkpt>
      <trkpt lat="44.18696" lon="6.75184">
        <ele>1317.6</ele>
        <time>2013-09-04T09:04:29Z</time>
      </trkpt>
      <trkpt lat="44.18699" lon="6.75184">
        <ele>1318.6</ele>
        <time>2013-09-04T09:04:31Z</time>
      </trkpt>
      <trkpt lat="44.18724" lon="6.75177">
        <ele>1321</ele>
        <time>2013-09-04T09:04:48Z</time>
      </trkpt>
      <trkpt lat="44.18741" lon="6.75174">
        <ele>1322.9</ele>
        <time>2013-09-04T09:05:00Z</time>
      </trkpt>
      <trkpt lat="44.18765" lon="6.75168">
        <ele>1326.3</ele>
        <time>2013-09-04T09:05:15Z</time>
      </trkpt>
      <trkpt lat="44.18786" lon="6.75166">
        <ele>1328.7</ele>
        <time>2013-09-04T09:05:29Z</time>
      </trkpt>
      <trkpt lat="44.18788" lon="6.75165">
        <ele>1328.2</ele>
        <time>2013-09-04T09:05:30Z</time>
      </trkpt>
      <trkpt lat="44.1881" lon="6.75161">
        <ele>1331.6</ele>
        <time>2013-09-04T09:05:45Z</time>
      </trkpt>
      <trkpt lat="44.1883" lon="6.75165">
        <ele>1334</ele>
        <time>2013-09-04T09:06:00Z</time>
      </trkpt>
      <trkpt lat="44.18838" lon="6.75174">
        <ele>1334.9</ele>
        <time>2013-09-04T09:06:07Z</time>
      </trkpt>
      <trkpt lat="44.18839" lon="6.75176">
        <ele>1335.9</ele>
        <time>2013-09-04T09:06:08Z</time>
      </trkpt>
      <trkpt lat="44.18837" lon="6.75208">
        <ele>1337.3</ele>
        <time>2013-09-04T09:06:24Z</time>
      </trkpt>
      <trkpt lat="44.1883" lon="6.75244">
        <ele>1338.8</ele>
        <time>2013-09-04T09:06:37Z</time>
      </trkpt>
      <trkpt lat="44.1883" lon="6.75251">
        <ele>1338.8</ele>
        <time>2013-09-04T09:06:39Z</time>
      </trkpt>
      <trkpt lat="44.18831" lon="6.75253">
        <ele>1339.3</ele>
        <time>2013-09-04T09:06:40Z</time>
      </trkpt>
      <trkpt lat="44.18832" lon="6.75256">
        <ele>1339.3</ele>
        <time>2013-09-04T09:06:41Z</time>
      </trkpt>
      <trkpt lat="44.18832" lon="6.75259">
        <ele>1338.8</ele>
        <time>2013-09-04T09:06:42Z</time>
      </trkpt>
      <trkpt lat="44.18832" lon="6.75261">
        <ele>1338.8</ele>
        <time>2013-09-04T09:06:43Z</time>
      </trkpt>
      <trkpt lat="44.18833" lon="6.75263">
        <ele>1339.7</ele>
        <time>2013-09-04T09:06:44Z</time>
      </trkpt>
      <trkpt lat="44.18835" lon="6.75266">
        <ele>1338.8</ele>
        <time>2013-09-04T09:06:45Z</time>
      </trkpt>
      <trkpt lat="44.18855" lon="6.75298">
        <ele>1340.7</ele>
        <time>2013-09-04T09:07:00Z</time>
      </trkpt>
      <trkpt lat="44.18864" lon="6.75305">
        <ele>1341.2</ele>
        <time>2013-09-04T09:07:05Z</time>
      </trkpt>
      <trkpt lat="44.18866" lon="6.75305">
        <ele>1341.2</ele>
        <time>2013-09-04T09:07:06Z</time>
      </trkpt>
      <trkpt lat="44.18869" lon="6.75306">
        <ele>1341.2</ele>
        <time>2013-09-04T09:07:07Z</time>
      </trkpt>
      <trkpt lat="44.18895" lon="6.75323">
        <ele>1343.6</ele>
        <time>2013-09-04T09:07:20Z</time>
      </trkpt>
      <trkpt lat="44.18921" lon="6.75347">
        <ele>1345.5</ele>
        <time>2013-09-04T09:07:35Z</time>
      </trkpt>
      <trkpt lat="44.18949" lon="6.75361">
        <ele>1346.9</ele>
        <time>2013-09-04T09:07:49Z</time>
      </trkpt>
      <trkpt lat="44.18974" lon="6.75366">
        <ele>1347.9</ele>
        <time>2013-09-04T09:08:01Z</time>
      </trkpt>
      <trkpt lat="44.18975" lon="6.75368">
        <ele>1347.9</ele>
        <time>2013-09-04T09:08:02Z</time>
      </trkpt>
      <trkpt lat="44.18976" lon="6.7537">
        <ele>1348.4</ele>
        <time>2013-09-04T09:08:03Z</time>
      </trkpt>
      <trkpt lat="44.18976" lon="6.75373">
        <ele>1348.9</ele>
        <time>2013-09-04T09:08:04Z</time>
      </trkpt>
      <trkpt lat="44.18976" lon="6.75376">
        <ele>1348.9</ele>
        <time>2013-09-04T09:08:05Z</time>
      </trkpt>
      <trkpt lat="44.18975" lon="6.75378">
        <ele>1348.4</ele>
        <time>2013-09-04T09:08:06Z</time>
      </trkpt>
      <trkpt lat="44.18974" lon="6.7538">
        <ele>1349.4</ele>
        <time>2013-09-04T09:08:07Z</time>
      </trkpt>
      <trkpt lat="44.18972" lon="6.75381">
        <ele>1349.4</ele>
        <time>2013-09-04T09:08:08Z</time>
      </trkpt>
      <trkpt lat="44.1897" lon="6.75382">
        <ele>1349.4</ele>
        <time>2013-09-04T09:08:09Z</time>
      </trkpt>
      <trkpt lat="44.18968" lon="6.75382">
        <ele>1350.3</ele>
        <time>2013-09-04T09:08:10Z</time>
      </trkpt>
      <trkpt lat="44.18966" lon="6.75382">
        <ele>1349.8</ele>
        <time>2013-09-04T09:08:11Z</time>
      </trkpt>
      <trkpt lat="44.18964" lon="6.75382">
        <ele>1350.3</ele>
        <time>2013-09-04T09:08:12Z</time>
      </trkpt>
      <trkpt lat="44.18962" lon="6.75381">
        <ele>1350.3</ele>
        <time>2013-09-04T09:08:13Z</time>
      </trkpt>
      <trkpt lat="44.1896" lon="6.7538">
        <ele>1350.3</ele>
        <time>2013-09-04T09:08:14Z</time>
      </trkpt>
      <trkpt lat="44.18958" lon="6.75379">
        <ele>1350.8</ele>
        <time>2013-09-04T09:08:15Z</time>
      </trkpt>
      <trkpt lat="44.18956" lon="6.75379">
        <ele>1350.8</ele>
        <time>2013-09-04T09:08:16Z</time>
      </trkpt>
      <trkpt lat="44.18954" lon="6.75379">
        <ele>1350.8</ele>
        <time>2013-09-04T09:08:17Z</time>
      </trkpt>
      <trkpt lat="44.18928" lon="6.75374">
        <ele>1353.2</ele>
        <time>2013-09-04T09:08:32Z</time>
      </trkpt>
      <trkpt lat="44.18903" lon="6.75359">
        <ele>1355.1</ele>
        <time>2013-09-04T09:08:47Z</time>
      </trkpt>
      <trkpt lat="44.18877" lon="6.75358">
        <ele>1356.6</ele>
        <time>2013-09-04T09:09:01Z</time>
      </trkpt>
      <trkpt lat="44.18855" lon="6.75359">
        <ele>1358</ele>
        <time>2013-09-04T09:09:13Z</time>
      </trkpt>
      <trkpt lat="44.18839" lon="6.75356">
        <ele>1359.9</ele>
        <time>2013-09-04T09:09:23Z</time>
      </trkpt>
      <trkpt lat="44.18837" lon="6.75356">
        <ele>1360.9</ele>
        <time>2013-09-04T09:09:24Z</time>
      </trkpt>
      <trkpt lat="44.18836" lon="6.75355">
        <ele>1360.9</ele>
        <time>2013-09-04T09:09:25Z</time>
      </trkpt>
      <trkpt lat="44.18818" lon="6.75341">
        <ele>1361.8</ele>
        <time>2013-09-04T09:09:37Z</time>
      </trkpt>
      <trkpt lat="44.18798" lon="6.75323">
        <ele>1363.3</ele>
        <time>2013-09-04T09:09:49Z</time>
      </trkpt>
      <trkpt lat="44.18787" lon="6.75313">
        <ele>1364.7</ele>
        <time>2013-09-04T09:09:57Z</time>
      </trkpt>
      <trkpt lat="44.18786" lon="6.75311">
        <ele>1364.3</ele>
        <time>2013-09-04T09:09:58Z</time>
      </trkpt>
      <trkpt lat="44.18785" lon="6.7531">
        <ele>1364.7</ele>
        <time>2013-09-04T09:09:59Z</time>
      </trkpt>
      <trkpt lat="44.18784" lon="6.75308">
        <ele>1365.2</ele>
        <time>2013-09-04T09:10:00Z</time>
      </trkpt>
      <trkpt lat="44.18782" lon="6.75307">
        <ele>1365.2</ele>
        <time>2013-09-04T09:10:01Z</time>
      </trkpt>
      <trkpt lat="44.1878" lon="6.75306">
        <ele>1365.7</ele>
        <time>2013-09-04T09:10:02Z</time>
      </trkpt>
      <trkpt lat="44.18779" lon="6.75305">
        <ele>1365.2</ele>
        <time>2013-09-04T09:10:03Z</time>
      </trkpt>
      <trkpt lat="44.18777" lon="6.75305">
        <ele>1365.2</ele>
        <time>2013-09-04T09:10:04Z</time>
      </trkpt>
      <trkpt lat="44.18774" lon="6.75305">
        <ele>1366.2</ele>
        <time>2013-09-04T09:10:05Z</time>
      </trkpt>
      <trkpt lat="44.18772" lon="6.75304">
        <ele>1365.7</ele>
        <time>2013-09-04T09:10:06Z</time>
      </trkpt>
      <trkpt lat="44.1877" lon="6.75304">
        <ele>1366.2</ele>
        <time>2013-09-04T09:10:07Z</time>
      </trkpt>
      <trkpt lat="44.18768" lon="6.75304">
        <ele>1365.7</ele>
        <time>2013-09-04T09:10:08Z</time>
      </trkpt>
      <trkpt lat="44.18742" lon="6.7531">
        <ele>1368.1</ele>
        <time>2013-09-04T09:10:23Z</time>
      </trkpt>
      <trkpt lat="44.18717" lon="6.75322">
        <ele>1369.1</ele>
        <time>2013-09-04T09:10:37Z</time>
      </trkpt>
      <trkpt lat="44.18687" lon="6.75338">
        <ele>1371</ele>
        <time>2013-09-04T09:10:51Z</time>
      </trkpt>
      <trkpt lat="44.18655" lon="6.75354">
        <ele>1374.3</ele>
        <time>2013-09-04T09:11:08Z</time>
      </trkpt>
      <trkpt lat="44.18628" lon="6.75367">
        <ele>1376.3</ele>
        <time>2013-09-04T09:11:23Z</time>
      </trkpt>
      <trkpt lat="44.18603" lon="6.75379">
        <ele>1378.7</ele>
        <time>2013-09-04T09:11:38Z</time>
      </trkpt>
      <trkpt lat="44.18575" lon="6.75386">
        <ele>1381.1</ele>
        <time>2013-09-04T09:11:54Z</time>
      </trkpt>
      <trkpt lat="44.18564" lon="6.75397">
        <ele>1381.6</ele>
        <time>2013-09-04T09:12:02Z</time>
      </trkpt>
      <trkpt lat="44.18564" lon="6.754">
        <ele>1382</ele>
        <time>2013-09-04T09:12:03Z</time>
      </trkpt>
      <trkpt lat="44.18566" lon="6.75402">
        <ele>1382</ele>
        <time>2013-09-04T09:12:04Z</time>
      </trkpt>
      <trkpt lat="44.18567" lon="6.75404">
        <ele>1382.5</ele>
        <time>2013-09-04T09:12:05Z</time>
      </trkpt>
      <trkpt lat="44.18568" lon="6.75405">
        <ele>1383</ele>
        <time>2013-09-04T09:12:06Z</time>
      </trkpt>
      <trkpt lat="44.1857" lon="6.75406">
        <ele>1382.5</ele>
        <time>2013-09-04T09:12:07Z</time>
      </trkpt>
      <trkpt lat="44.18572" lon="6.75407">
        <ele>1382</ele>
        <time>2013-09-04T09:12:08Z</time>
      </trkpt>
      <trkpt lat="44.18588" lon="6.75405">
        <ele>1384</ele>
        <time>2013-09-04T09:12:18Z</time>
      </trkpt>
      <trkpt lat="44.18617" lon="6.75408">
        <ele>1385.9</ele>
        <time>2013-09-04T09:12:32Z</time>
      </trkpt>
      <trkpt lat="44.18645" lon="6.75406">
        <ele>1387.8</ele>
        <time>2013-09-04T09:12:46Z</time>
      </trkpt>
      <trkpt lat="44.18679" lon="6.75409">
        <ele>1389.2</ele>
        <time>2013-09-04T09:13:03Z</time>
      </trkpt>
      <trkpt lat="44.18711" lon="6.75408">
        <ele>1391.7</ele>
        <time>2013-09-04T09:13:17Z</time>
      </trkpt>
      <trkpt lat="44.18732" lon="6.75409">
        <ele>1393.6</ele>
        <time>2013-09-04T09:13:28Z</time>
      </trkpt>
      <trkpt lat="44.18754" lon="6.75399">
        <ele>1396</ele>
        <time>2013-09-04T09:13:41Z</time>
      </trkpt>
      <trkpt lat="44.18757" lon="6.75398">
        <ele>1396</ele>
        <time>2013-09-04T09:13:42Z</time>
      </trkpt>
      <trkpt lat="44.18759" lon="6.75405">
        <ele>1396.5</ele>
        <time>2013-09-04T09:13:43Z</time>
      </trkpt>
      <trkpt lat="44.18761" lon="6.75409">
        <ele>1396.9</ele>
        <time>2013-09-04T09:13:44Z</time>
      </trkpt>
      <trkpt lat="44.18763" lon="6.75413">
        <ele>1396</ele>
        <time>2013-09-04T09:13:45Z</time>
      </trkpt>
      <trkpt lat="44.18764" lon="6.75415">
        <ele>1396</ele>
        <time>2013-09-04T09:13:46Z</time>
      </trkpt>
      <trkpt lat="44.18769" lon="6.75447">
        <ele>1398.4</ele>
        <time>2013-09-04T09:13:57Z</time>
      </trkpt>
      <trkpt lat="44.1878" lon="6.75473">
        <ele>1400.3</ele>
        <time>2013-09-04T09:14:11Z</time>
      </trkpt>
      <trkpt lat="44.18804" lon="6.75485">
        <ele>1402.7</ele>
        <time>2013-09-04T09:14:26Z</time>
      </trkpt>
      <trkpt lat="44.18823" lon="6.75502">
        <ele>1405.1</ele>
        <time>2013-09-04T09:14:42Z</time>
      </trkpt>
      <trkpt lat="44.18847" lon="6.75515">
        <ele>1408</ele>
        <time>2013-09-04T09:14:57Z</time>
      </trkpt>
      <trkpt lat="44.18866" lon="6.75535">
        <ele>1410.4</ele>
        <time>2013-09-04T09:15:11Z</time>
      </trkpt>
      <trkpt lat="44.18884" lon="6.75549">
        <ele>1411.8</ele>
        <time>2013-09-04T09:15:24Z</time>
      </trkpt>
      <trkpt lat="44.18915" lon="6.75558">
        <ele>1414.7</ele>
        <time>2013-09-04T09:15:42Z</time>
      </trkpt>
      <trkpt lat="44.18941" lon="6.75578">
        <ele>1415.7</ele>
        <time>2013-09-04T09:15:56Z</time>
      </trkpt>
      <trkpt lat="44.18942" lon="6.75583">
        <ele>1416.6</ele>
        <time>2013-09-04T09:15:58Z</time>
      </trkpt>
      <trkpt lat="44.18942" lon="6.75585">
        <ele>1416.2</ele>
        <time>2013-09-04T09:15:59Z</time>
      </trkpt>
      <trkpt lat="44.18941" lon="6.75588">
        <ele>1417.1</ele>
        <time>2013-09-04T09:16:00Z</time>
      </trkpt>
      <trkpt lat="44.18941" lon="6.7559">
        <ele>1417.6</ele>
        <time>2013-09-04T09:16:01Z</time>
      </trkpt>
      <trkpt lat="44.1894" lon="6.75592">
        <ele>1417.1</ele>
        <time>2013-09-04T09:16:02Z</time>
      </trkpt>
      <trkpt lat="44.18939" lon="6.75594">
        <ele>1418.1</ele>
        <time>2013-09-04T09:16:03Z</time>
      </trkpt>
      <trkpt lat="44.18938" lon="6.75595">
        <ele>1418.1</ele>
        <time>2013-09-04T09:16:04Z</time>
      </trkpt>
      <trkpt lat="44.18937" lon="6.75597">
        <ele>1417.6</ele>
        <time>2013-09-04T09:16:05Z</time>
      </trkpt>
      <trkpt lat="44.18913" lon="6.756">
        <ele>1421</ele>
        <time>2013-09-04T09:16:18Z</time>
      </trkpt>
      <trkpt lat="44.18909" lon="6.75598">
        <ele>1421</ele>
        <time>2013-09-04T09:16:20Z</time>
      </trkpt>
      <trkpt lat="44.18907" lon="6.75597">
        <ele>1421</ele>
        <time>2013-09-04T09:16:21Z</time>
      </trkpt>
      <trkpt lat="44.18883" lon="6.75579">
        <ele>1423.4</ele>
        <time>2013-09-04T09:16:36Z</time>
      </trkpt>
      <trkpt lat="44.18859" lon="6.75578">
        <ele>1426.3</ele>
        <time>2013-09-04T09:16:50Z</time>
      </trkpt>
      <trkpt lat="44.18842" lon="6.75588">
        <ele>1428.2</ele>
        <time>2013-09-04T09:17:02Z</time>
      </trkpt>
      <trkpt lat="44.18841" lon="6.75588">
        <ele>1428.2</ele>
        <time>2013-09-04T09:17:03Z</time>
      </trkpt>
      <trkpt lat="44.18839" lon="6.75589">
        <ele>1428.2</ele>
        <time>2013-09-04T09:17:04Z</time>
      </trkpt>
      <trkpt lat="44.18818" lon="6.75598">
        <ele>1429.6</ele>
        <time>2013-09-04T09:17:17Z</time>
      </trkpt>
      <trkpt lat="44.18789" lon="6.75584">
        <ele>1432</ele>
        <time>2013-09-04T09:17:33Z</time>
      </trkpt>
      <trkpt lat="44.18766" lon="6.75566">
        <ele>1434.4</ele>
        <time>2013-09-04T09:17:48Z</time>
      </trkpt>
      <trkpt lat="44.18749" lon="6.7554">
        <ele>1436.8</ele>
        <time>2013-09-04T09:18:03Z</time>
      </trkpt>
      <trkpt lat="44.18748" lon="6.75538">
        <ele>1436.4</ele>
        <time>2013-09-04T09:18:04Z</time>
      </trkpt>
      <trkpt lat="44.18746" lon="6.75534">
        <ele>1436.8</ele>
        <time>2013-09-04T09:18:06Z</time>
      </trkpt>
      <trkpt lat="44.18745" lon="6.75532">
        <ele>1437.3</ele>
        <time>2013-09-04T09:18:07Z</time>
      </trkpt>
      <trkpt lat="44.18743" lon="6.75531">
        <ele>1437.8</ele>
        <time>2013-09-04T09:18:08Z</time>
      </trkpt>
      <trkpt lat="44.18732" lon="6.7552">
        <ele>1439.2</ele>
        <time>2013-09-04T09:18:16Z</time>
      </trkpt>
      <trkpt lat="44.18705" lon="6.75528">
        <ele>1440.7</ele>
        <time>2013-09-04T09:18:32Z</time>
      </trkpt>
      <trkpt lat="44.187" lon="6.75532">
        <ele>1441.2</ele>
        <time>2013-09-04T09:18:36Z</time>
      </trkpt>
      <trkpt lat="44.18699" lon="6.75532">
        <ele>1441.2</ele>
        <time>2013-09-04T09:18:37Z</time>
      </trkpt>
      <trkpt lat="44.18697" lon="6.75533">
        <ele>1441.6</ele>
        <time>2013-09-04T09:18:38Z</time>
      </trkpt>
      <trkpt lat="44.18669" lon="6.75556">
        <ele>1444</ele>
        <time>2013-09-04T09:18:57Z</time>
      </trkpt>
      <trkpt lat="44.18643" lon="6.75576">
        <ele>1446.9</ele>
        <time>2013-09-04T09:19:14Z</time>
      </trkpt>
      <trkpt lat="44.18614" lon="6.75579">
        <ele>1449.3</ele>
        <time>2013-09-04T09:19:31Z</time>
      </trkpt>
      <trkpt lat="44.18593" lon="6.75581">
        <ele>1452.2</ele>
        <time>2013-09-04T09:19:44Z</time>
      </trkpt>
      <trkpt lat="44.18593" lon="6.756">
        <ele>1452.7</ele>
        <time>2013-09-04T09:19:55Z</time>
      </trkpt>
      <trkpt lat="44.18621" lon="6.75611">
        <ele>1454.6</ele>
        <time>2013-09-04T09:20:11Z</time>
      </trkpt>
      <trkpt lat="44.18651" lon="6.75622">
        <ele>1457.5</ele>
        <time>2013-09-04T09:20:28Z</time>
      </trkpt>
      <trkpt lat="44.18673" lon="6.75627">
        <ele>1459.4</ele>
        <time>2013-09-04T09:20:40Z</time>
      </trkpt>
      <trkpt lat="44.18695" lon="6.75631">
        <ele>1461.8</ele>
        <time>2013-09-04T09:20:53Z</time>
      </trkpt>
      <trkpt lat="44.18715" lon="6.75625">
        <ele>1464.2</ele>
        <time>2013-09-04T09:21:06Z</time>
      </trkpt>
      <trkpt lat="44.18733" lon="6.7563">
        <ele>1466.6</ele>
        <time>2013-09-04T09:21:17Z</time>
      </trkpt>
      <trkpt lat="44.18745" lon="6.75653">
        <ele>1469.5</ele>
        <time>2013-09-04T09:21:31Z</time>
      </trkpt>
      <trkpt lat="44.18738" lon="6.7566">
        <ele>1470.5</ele>
        <time>2013-09-04T09:21:35Z</time>
      </trkpt>
      <trkpt lat="44.18736" lon="6.75661">
        <ele>1470</ele>
        <time>2013-09-04T09:21:36Z</time>
      </trkpt>
      <trkpt lat="44.18706" lon="6.75686">
        <ele>1471.9</ele>
        <time>2013-09-04T09:21:54Z</time>
      </trkpt>
      <trkpt lat="44.18682" lon="6.7571">
        <ele>1474.3</ele>
        <time>2013-09-04T09:22:09Z</time>
      </trkpt>
      <trkpt lat="44.18661" lon="6.75729">
        <ele>1475.8</ele>
        <time>2013-09-04T09:22:22Z</time>
      </trkpt>
      <trkpt lat="44.18637" lon="6.75747">
        <ele>1478.2</ele>
        <time>2013-09-04T09:22:36Z</time>
      </trkpt>
      <trkpt lat="44.18605" lon="6.75764">
        <ele>1478.7</ele>
        <time>2013-09-04T09:22:49Z</time>
      </trkpt>
      <trkpt lat="44.18583" lon="6.75772">
        <ele>1480.1</ele>
        <time>2013-09-04T09:22:58Z</time>
      </trkpt>
      <trkpt lat="44.18583" lon="6.75775">
        <ele>1479.6</ele>
        <time>2013-09-04T09:22:59Z</time>
      </trkpt>
      <trkpt lat="44.18583" lon="6.75778">
        <ele>1480.6</ele>
        <time>2013-09-04T09:23:00Z</time>
      </trkpt>
      <trkpt lat="44.18584" lon="6.75781">
        <ele>1480.6</ele>
        <time>2013-09-04T09:23:01Z</time>
      </trkpt>
      <trkpt lat="44.18586" lon="6.75783">
        <ele>1480.6</ele>
        <time>2013-09-04T09:23:02Z</time>
      </trkpt>
      <trkpt lat="44.18588" lon="6.75784">
        <ele>1481.1</ele>
        <time>2013-09-04T09:23:03Z</time>
      </trkpt>
      <trkpt lat="44.1859" lon="6.75785">
        <ele>1480.6</ele>
        <time>2013-09-04T09:23:04Z</time>
      </trkpt>
      <trkpt lat="44.18592" lon="6.75784">
        <ele>1481.1</ele>
        <time>2013-09-04T09:23:05Z</time>
      </trkpt>
      <trkpt lat="44.18594" lon="6.75784">
        <ele>1481.5</ele>
        <time>2013-09-04T09:23:06Z</time>
      </trkpt>
      <trkpt lat="44.18629" lon="6.75773">
        <ele>1483.9</ele>
        <time>2013-09-04T09:23:23Z</time>
      </trkpt>
      <trkpt lat="44.18659" lon="6.75761">
        <ele>1486.3</ele>
        <time>2013-09-04T09:23:38Z</time>
      </trkpt>
      <trkpt lat="44.18687" lon="6.75751">
        <ele>1487.8</ele>
        <time>2013-09-04T09:23:50Z</time>
      </trkpt>
      <trkpt lat="44.18717" lon="6.7574">
        <ele>1489.2</ele>
        <time>2013-09-04T09:24:03Z</time>
      </trkpt>
      <trkpt lat="44.18743" lon="6.75725">
        <ele>1492.1</ele>
        <time>2013-09-04T09:24:17Z</time>
      </trkpt>
      <trkpt lat="44.18754" lon="6.75728">
        <ele>1491.6</ele>
        <time>2013-09-04T09:24:23Z</time>
      </trkpt>
      <trkpt lat="44.18754" lon="6.75731">
        <ele>1492.6</ele>
        <time>2013-09-04T09:24:24Z</time>
      </trkpt>
      <trkpt lat="44.18755" lon="6.75734">
        <ele>1493.6</ele>
        <time>2013-09-04T09:24:25Z</time>
      </trkpt>
      <trkpt lat="44.18755" lon="6.75736">
        <ele>1492.6</ele>
        <time>2013-09-04T09:24:26Z</time>
      </trkpt>
      <trkpt lat="44.18754" lon="6.75737">
        <ele>1492.6</ele>
        <time>2013-09-04T09:24:27Z</time>
      </trkpt>
      <trkpt lat="44.18752" lon="6.75739">
        <ele>1493.1</ele>
        <time>2013-09-04T09:24:28Z</time>
      </trkpt>
      <trkpt lat="44.1875" lon="6.7574">
        <ele>1493.1</ele>
        <time>2013-09-04T09:24:29Z</time>
      </trkpt>
      <trkpt lat="44.18749" lon="6.75741">
        <ele>1494</ele>
        <time>2013-09-04T09:24:30Z</time>
      </trkpt>
      <trkpt lat="44.18723" lon="6.75757">
        <ele>1495.5</ele>
        <time>2013-09-04T09:24:44Z</time>
      </trkpt>
      <trkpt lat="44.18718" lon="6.7576">
        <ele>1496.9</ele>
        <time>2013-09-04T09:24:48Z</time>
      </trkpt>
      <trkpt lat="44.18717" lon="6.7576">
        <ele>1496.9</ele>
        <time>2013-09-04T09:24:49Z</time>
      </trkpt>
      <trkpt lat="44.18715" lon="6.75761">
        <ele>1497.4</ele>
        <time>2013-09-04T09:24:50Z</time>
      </trkpt>
      <trkpt lat="44.18713" lon="6.75762">
        <ele>1496.9</ele>
        <time>2013-09-04T09:24:51Z</time>
      </trkpt>
      <trkpt lat="44.18711" lon="6.75763">
        <ele>1496.9</ele>
        <time>2013-09-04T09:24:52Z</time>
      </trkpt>
      <trkpt lat="44.18709" lon="6.75764">
        <ele>1496.9</ele>
        <time>2013-09-04T09:24:53Z</time>
      </trkpt>
      <trkpt lat="44.18704" lon="6.75768">
        <ele>1498.8</ele>
        <time>2013-09-04T09:24:56Z</time>
      </trkpt>
      <trkpt lat="44.18678" lon="6.75783">
        <ele>1499.3</ele>
        <time>2013-09-04T09:25:10Z</time>
      </trkpt>
      <trkpt lat="44.18666" lon="6.75792">
        <ele>1501.7</ele>
        <time>2013-09-04T09:25:17Z</time>
      </trkpt>
      <trkpt lat="44.18642" lon="6.75817">
        <ele>1503.2</ele>
        <time>2013-09-04T09:25:32Z</time>
      </trkpt>
      <trkpt lat="44.18628" lon="6.75832">
        <ele>1504.1</ele>
        <time>2013-09-04T09:25:40Z</time>
      </trkpt>
      <trkpt lat="44.18626" lon="6.75834">
        <ele>1504.6</ele>
        <time>2013-09-04T09:25:41Z</time>
      </trkpt>
      <trkpt lat="44.18625" lon="6.75836">
        <ele>1505.6</ele>
        <time>2013-09-04T09:25:42Z</time>
      </trkpt>
      <trkpt lat="44.18623" lon="6.75838">
        <ele>1505.1</ele>
        <time>2013-09-04T09:25:43Z</time>
      </trkpt>
      <trkpt lat="44.18622" lon="6.75839">
        <ele>1505.1</ele>
        <time>2013-09-04T09:25:44Z</time>
      </trkpt>
      <trkpt lat="44.1862" lon="6.75841">
        <ele>1505.6</ele>
        <time>2013-09-04T09:25:45Z</time>
      </trkpt>
      <trkpt lat="44.18619" lon="6.75842">
        <ele>1505.6</ele>
        <time>2013-09-04T09:25:46Z</time>
      </trkpt>
      <trkpt lat="44.18617" lon="6.75843">
        <ele>1505.1</ele>
        <time>2013-09-04T09:25:47Z</time>
      </trkpt>
      <trkpt lat="44.18616" lon="6.75844">
        <ele>1505.6</ele>
        <time>2013-09-04T09:25:48Z</time>
      </trkpt>
      <trkpt lat="44.18594" lon="6.75859">
        <ele>1508.5</ele>
        <time>2013-09-04T09:26:01Z</time>
      </trkpt>
      <trkpt lat="44.1857" lon="6.75865">
        <ele>1510.9</ele>
        <time>2013-09-04T09:26:17Z</time>
      </trkpt>
      <trkpt lat="44.18558" lon="6.75866">
        <ele>1511.8</ele>
        <time>2013-09-04T09:26:24Z</time>
      </trkpt>
      <trkpt lat="44.18557" lon="6.75869">
        <ele>1511.8</ele>
        <time>2013-09-04T09:26:25Z</time>
      </trkpt>
      <trkpt lat="44.18556" lon="6.75871">
        <ele>1512.3</ele>
        <time>2013-09-04T09:26:26Z</time>
      </trkpt>
      <trkpt lat="44.18556" lon="6.75873">
        <ele>1512.3</ele>
        <time>2013-09-04T09:26:27Z</time>
      </trkpt>
      <trkpt lat="44.18557" lon="6.75876">
        <ele>1512.3</ele>
        <time>2013-09-04T09:26:28Z</time>
      </trkpt>
      <trkpt lat="44.18558" lon="6.75878">
        <ele>1512.8</ele>
        <time>2013-09-04T09:26:29Z</time>
      </trkpt>
      <trkpt lat="44.18559" lon="6.7588">
        <ele>1512.8</ele>
        <time>2013-09-04T09:26:30Z</time>
      </trkpt>
      <trkpt lat="44.1856" lon="6.75881">
        <ele>1512.3</ele>
        <time>2013-09-04T09:26:31Z</time>
      </trkpt>
      <trkpt lat="44.18562" lon="6.75882">
        <ele>1512.3</ele>
        <time>2013-09-04T09:26:32Z</time>
      </trkpt>
      <trkpt lat="44.18563" lon="6.75882">
        <ele>1512.8</ele>
        <time>2013-09-04T09:26:33Z</time>
      </trkpt>
      <trkpt lat="44.18565" lon="6.75882">
        <ele>1512.8</ele>
        <time>2013-09-04T09:26:34Z</time>
      </trkpt>
      <trkpt lat="44.18567" lon="6.75881">
        <ele>1512.8</ele>
        <time>2013-09-04T09:26:35Z</time>
      </trkpt>
      <trkpt lat="44.18568" lon="6.75881">
        <ele>1513.3</ele>
        <time>2013-09-04T09:26:36Z</time>
      </trkpt>
      <trkpt lat="44.1857" lon="6.7588">
        <ele>1513.7</ele>
        <time>2013-09-04T09:26:37Z</time>
      </trkpt>
      <trkpt lat="44.18594" lon="6.75875">
        <ele>1513.7</ele>
        <time>2013-09-04T09:26:51Z</time>
      </trkpt>
      <trkpt lat="44.18616" lon="6.75877">
        <ele>1517.1</ele>
        <time>2013-09-04T09:27:03Z</time>
      </trkpt>
      <trkpt lat="44.18627" lon="6.75875">
        <ele>1517.6</ele>
        <time>2013-09-04T09:27:10Z</time>
      </trkpt>
      <trkpt lat="44.18649" lon="6.75871">
        <ele>1519.5</ele>
        <time>2013-09-04T09:27:23Z</time>
      </trkpt>
      <trkpt lat="44.1865" lon="6.75872">
        <ele>1519.5</ele>
        <time>2013-09-04T09:27:24Z</time>
      </trkpt>
      <trkpt lat="44.18651" lon="6.75874">
        <ele>1519.5</ele>
        <time>2013-09-04T09:27:25Z</time>
      </trkpt>
      <trkpt lat="44.18651" lon="6.75876">
        <ele>1520.5</ele>
        <time>2013-09-04T09:27:26Z</time>
      </trkpt>
      <trkpt lat="44.18651" lon="6.75879">
        <ele>1520</ele>
        <time>2013-09-04T09:27:27Z</time>
      </trkpt>
      <trkpt lat="44.1865" lon="6.75881">
        <ele>1520.5</ele>
        <time>2013-09-04T09:27:28Z</time>
      </trkpt>
      <trkpt lat="44.18648" lon="6.75883">
        <ele>1520.5</ele>
        <time>2013-09-04T09:27:29Z</time>
      </trkpt>
      <trkpt lat="44.18646" lon="6.75885">
        <ele>1520.9</ele>
        <time>2013-09-04T09:27:30Z</time>
      </trkpt>
      <trkpt lat="44.18645" lon="6.75886">
        <ele>1520.5</ele>
        <time>2013-09-04T09:27:31Z</time>
      </trkpt>
      <trkpt lat="44.18613" lon="6.75918">
        <ele>1523.4</ele>
        <time>2013-09-04T09:27:49Z</time>
      </trkpt>
      <trkpt lat="44.18591" lon="6.75943">
        <ele>1523.8</ele>
        <time>2013-09-04T09:28:01Z</time>
      </trkpt>
      <trkpt lat="44.18563" lon="6.7597">
        <ele>1526.7</ele>
        <time>2013-09-04T09:28:18Z</time>
      </trkpt>
      <trkpt lat="44.18547" lon="6.75984">
        <ele>1529.6</ele>
        <time>2013-09-04T09:28:31Z</time>
      </trkpt>
      <trkpt lat="44.18533" lon="6.76011">
        <ele>1530.6</ele>
        <time>2013-09-04T09:28:45Z</time>
      </trkpt>
      <trkpt lat="44.18532" lon="6.76019">
        <ele>1530.6</ele>
        <time>2013-09-04T09:28:48Z</time>
      </trkpt>
      <trkpt lat="44.18533" lon="6.76021">
        <ele>1531</ele>
        <time>2013-09-04T09:28:49Z</time>
      </trkpt>
      <trkpt lat="44.18534" lon="6.76022">
        <ele>1531</ele>
        <time>2013-09-04T09:28:50Z</time>
      </trkpt>
      <trkpt lat="44.18535" lon="6.76024">
        <ele>1530.1</ele>
        <time>2013-09-04T09:28:51Z</time>
      </trkpt>
      <trkpt lat="44.18536" lon="6.76026">
        <ele>1531</ele>
        <time>2013-09-04T09:28:52Z</time>
      </trkpt>
      <trkpt lat="44.18559" lon="6.76054">
        <ele>1532</ele>
        <time>2013-09-04T09:29:07Z</time>
      </trkpt>
      <trkpt lat="44.1858" lon="6.76067">
        <ele>1534.9</ele>
        <time>2013-09-04T09:29:19Z</time>
      </trkpt>
      <trkpt lat="44.18609" lon="6.76084">
        <ele>1536.8</ele>
        <time>2013-09-04T09:29:34Z</time>
      </trkpt>
      <trkpt lat="44.1864" lon="6.76109">
        <ele>1536.3</ele>
        <time>2013-09-04T09:29:46Z</time>
      </trkpt>
      <trkpt lat="44.1866" lon="6.76153">
        <ele>1537.8</ele>
        <time>2013-09-04T09:29:59Z</time>
      </trkpt>
      <trkpt lat="44.18679" lon="6.76182">
        <ele>1540.2</ele>
        <time>2013-09-04T09:30:11Z</time>
      </trkpt>
      <trkpt lat="44.18683" lon="6.76215">
        <ele>1543.5</ele>
        <time>2013-09-04T09:30:23Z</time>
      </trkpt>
      <trkpt lat="44.18683" lon="6.76231">
        <ele>1543.5</ele>
        <time>2013-09-04T09:30:30Z</time>
      </trkpt>
      <trkpt lat="44.18683" lon="6.76229">
        <ele>1544.5</ele>
        <time>2013-09-04T09:30:44Z</time>
      </trkpt>
      <trkpt lat="44.18684" lon="6.76234">
        <ele>1543.5</ele>
        <time>2013-09-04T09:31:02Z</time>
      </trkpt>
      <trkpt lat="44.18682" lon="6.76234">
        <ele>1544.5</ele>
        <time>2013-09-04T09:31:33Z</time>
      </trkpt>
      <trkpt lat="44.1868" lon="6.76234">
        <ele>1546.4</ele>
        <time>2013-09-04T09:32:02Z</time>
      </trkpt>
      <trkpt lat="44.1868" lon="6.76233">
        <ele>1545.5</ele>
        <time>2013-09-04T09:32:09Z</time>
      </trkpt>
      <trkpt lat="44.18681" lon="6.76236">
        <ele>1545.5</ele>
        <time>2013-09-04T09:32:38Z</time>
      </trkpt>
      <trkpt lat="44.1868" lon="6.76239">
        <ele>1545.5</ele>
        <time>2013-09-04T09:32:40Z</time>
      </trkpt>
      <trkpt lat="44.18678" lon="6.76242">
        <ele>1545.9</ele>
        <time>2013-09-04T09:32:42Z</time>
      </trkpt>
      <trkpt lat="44.18678" lon="6.76244">
        <ele>1545.9</ele>
        <time>2013-09-04T09:32:43Z</time>
      </trkpt>
      <trkpt lat="44.18677" lon="6.76247">
        <ele>1546.9</ele>
        <time>2013-09-04T09:32:45Z</time>
      </trkpt>
      <trkpt lat="44.18669" lon="6.76278">
        <ele>1548.8</ele>
        <time>2013-09-04T09:33:00Z</time>
      </trkpt>
      <trkpt lat="44.18667" lon="6.76284">
        <ele>1548.8</ele>
        <time>2013-09-04T09:33:03Z</time>
      </trkpt>
      <trkpt lat="44.18666" lon="6.76286">
        <ele>1549.8</ele>
        <time>2013-09-04T09:33:04Z</time>
      </trkpt>
      <trkpt lat="44.18658" lon="6.76307">
        <ele>1551.2</ele>
        <time>2013-09-04T09:33:15Z</time>
      </trkpt>
      <trkpt lat="44.18657" lon="6.76309">
        <ele>1551.2</ele>
        <time>2013-09-04T09:33:16Z</time>
      </trkpt>
      <trkpt lat="44.18656" lon="6.76311">
        <ele>1551.2</ele>
        <time>2013-09-04T09:33:17Z</time>
      </trkpt>
      <trkpt lat="44.18648" lon="6.76345">
        <ele>1553.6</ele>
        <time>2013-09-04T09:33:30Z</time>
      </trkpt>
      <trkpt lat="44.18652" lon="6.76367">
        <ele>1554.6</ele>
        <time>2013-09-04T09:33:44Z</time>
      </trkpt>
      <trkpt lat="44.18652" lon="6.76367">
        <ele>1554.6</ele>
        <time>2013-09-04T09:33:45Z</time>
      </trkpt>
      <trkpt lat="44.18655" lon="6.7637">
        <ele>1555.6</ele>
        <time>2013-09-04T09:33:56Z</time>
      </trkpt>
      <trkpt lat="44.18655" lon="6.76371">
        <ele>1555.6</ele>
        <time>2013-09-04T09:33:57Z</time>
      </trkpt>
      <trkpt lat="44.18656" lon="6.76372">
        <ele>1556.5</ele>
        <time>2013-09-04T09:33:58Z</time>
      </trkpt>
      <trkpt lat="44.18657" lon="6.76373">
        <ele>1556.5</ele>
        <time>2013-09-04T09:33:59Z</time>
      </trkpt>
      <trkpt lat="44.18658" lon="6.76374">
        <ele>1555.6</ele>
        <time>2013-09-04T09:34:00Z</time>
      </trkpt>
      <trkpt lat="44.18672" lon="6.764">
        <ele>1558.4</ele>
        <time>2013-09-04T09:34:13Z</time>
      </trkpt>
      <trkpt lat="44.18689" lon="6.76443">
        <ele>1561.8</ele>
        <time>2013-09-04T09:34:31Z</time>
      </trkpt>
      <trkpt lat="44.18692" lon="6.76471">
        <ele>1563.7</ele>
        <time>2013-09-04T09:34:42Z</time>
      </trkpt>
      <trkpt lat="44.18694" lon="6.76512">
        <ele>1566.1</ele>
        <time>2013-09-04T09:34:58Z</time>
      </trkpt>
      <trkpt lat="44.18698" lon="6.76521">
        <ele>1567.6</ele>
        <time>2013-09-04T09:35:03Z</time>
      </trkpt>
      <trkpt lat="44.18699" lon="6.76522">
        <ele>1567.1</ele>
        <time>2013-09-04T09:35:04Z</time>
      </trkpt>
      <trkpt lat="44.18707" lon="6.76536">
        <ele>1569</ele>
        <time>2013-09-04T09:35:13Z</time>
      </trkpt>
      <trkpt lat="44.18709" lon="6.76537">
        <ele>1569.5</ele>
        <time>2013-09-04T09:35:14Z</time>
      </trkpt>
      <trkpt lat="44.1871" lon="6.76538">
        <ele>1570</ele>
        <time>2013-09-04T09:35:15Z</time>
      </trkpt>
      <trkpt lat="44.18711" lon="6.76539">
        <ele>1570</ele>
        <time>2013-09-04T09:35:16Z</time>
      </trkpt>
      <trkpt lat="44.18712" lon="6.7654">
        <ele>1570.9</ele>
        <time>2013-09-04T09:35:17Z</time>
      </trkpt>
      <trkpt lat="44.18713" lon="6.76542">
        <ele>1570.5</ele>
        <time>2013-09-04T09:35:18Z</time>
      </trkpt>
      <trkpt lat="44.18714" lon="6.76544">
        <ele>1570.9</ele>
        <time>2013-09-04T09:35:19Z</time>
      </trkpt>
      <trkpt lat="44.18715" lon="6.76545">
        <ele>1570.9</ele>
        <time>2013-09-04T09:35:20Z</time>
      </trkpt>
      <trkpt lat="44.18716" lon="6.76547">
        <ele>1571.4</ele>
        <time>2013-09-04T09:35:21Z</time>
      </trkpt>
      <trkpt lat="44.18725" lon="6.76575">
        <ele>1574.3</ele>
        <time>2013-09-04T09:35:35Z</time>
      </trkpt>
      <trkpt lat="44.18723" lon="6.76581">
        <ele>1574.3</ele>
        <time>2013-09-04T09:35:38Z</time>
      </trkpt>
      <trkpt lat="44.18723" lon="6.76583">
        <ele>1574.3</ele>
        <time>2013-09-04T09:35:39Z</time>
      </trkpt>
      <trkpt lat="44.18723" lon="6.76585">
        <ele>1574.8</ele>
        <time>2013-09-04T09:35:40Z</time>
      </trkpt>
      <trkpt lat="44.18723" lon="6.76588">
        <ele>1575.3</ele>
        <time>2013-09-04T09:35:43Z</time>
      </trkpt>
      <trkpt lat="44.18721" lon="6.7659">
        <ele>1575.7</ele>
        <time>2013-09-04T09:35:45Z</time>
      </trkpt>
      <trkpt lat="44.18714" lon="6.76627">
        <ele>1578.1</ele>
        <time>2013-09-04T09:36:01Z</time>
      </trkpt>
      <trkpt lat="44.18717" lon="6.76647">
        <ele>1580.1</ele>
        <time>2013-09-04T09:36:11Z</time>
      </trkpt>
      <trkpt lat="44.18718" lon="6.76649">
        <ele>1580.5</ele>
        <time>2013-09-04T09:36:12Z</time>
      </trkpt>
      <trkpt lat="44.1872" lon="6.76661">
        <ele>1581.5</ele>
        <time>2013-09-04T09:36:19Z</time>
      </trkpt>
      <trkpt lat="44.18721" lon="6.76663">
        <ele>1581.5</ele>
        <time>2013-09-04T09:36:20Z</time>
      </trkpt>
      <trkpt lat="44.18721" lon="6.76665">
        <ele>1582</ele>
        <time>2013-09-04T09:36:21Z</time>
      </trkpt>
      <trkpt lat="44.1872" lon="6.76667">
        <ele>1581.5</ele>
        <time>2013-09-04T09:36:22Z</time>
      </trkpt>
      <trkpt lat="44.1872" lon="6.76669">
        <ele>1582.5</ele>
        <time>2013-09-04T09:36:23Z</time>
      </trkpt>
      <trkpt lat="44.18719" lon="6.76672">
        <ele>1582</ele>
        <time>2013-09-04T09:36:24Z</time>
      </trkpt>
      <trkpt lat="44.18719" lon="6.76673">
        <ele>1582.5</ele>
        <time>2013-09-04T09:36:25Z</time>
      </trkpt>
      <trkpt lat="44.18718" lon="6.76676">
        <ele>1582.5</ele>
        <time>2013-09-04T09:36:26Z</time>
      </trkpt>
      <trkpt lat="44.18717" lon="6.76678">
        <ele>1582.5</ele>
        <time>2013-09-04T09:36:27Z</time>
      </trkpt>
      <trkpt lat="44.18716" lon="6.76681">
        <ele>1583</ele>
        <time>2013-09-04T09:36:28Z</time>
      </trkpt>
      <trkpt lat="44.18716" lon="6.76683">
        <ele>1583</ele>
        <time>2013-09-04T09:36:29Z</time>
      </trkpt>
      <trkpt lat="44.18715" lon="6.76685">
        <ele>1583</ele>
        <time>2013-09-04T09:36:30Z</time>
      </trkpt>
      <trkpt lat="44.18714" lon="6.7672">
        <ele>1584.4</ele>
        <time>2013-09-04T09:36:44Z</time>
      </trkpt>
      <trkpt lat="44.18724" lon="6.76742">
        <ele>1587.8</ele>
        <time>2013-09-04T09:36:55Z</time>
      </trkpt>
      <trkpt lat="44.1874" lon="6.76774">
        <ele>1590.6</ele>
        <time>2013-09-04T09:37:11Z</time>
      </trkpt>
      <trkpt lat="44.1876" lon="6.76803">
        <ele>1593.5</ele>
        <time>2013-09-04T09:37:29Z</time>
      </trkpt>
      <trkpt lat="44.18772" lon="6.76827">
        <ele>1596.9</ele>
        <time>2013-09-04T09:37:42Z</time>
      </trkpt>
      <trkpt lat="44.18781" lon="6.76853">
        <ele>1598.8</ele>
        <time>2013-09-04T09:37:55Z</time>
      </trkpt>
      <trkpt lat="44.18777" lon="6.76882">
        <ele>1601.2</ele>
        <time>2013-09-04T09:38:09Z</time>
      </trkpt>
      <trkpt lat="44.18777" lon="6.76894">
        <ele>1601.7</ele>
        <time>2013-09-04T09:38:14Z</time>
      </trkpt>
      <trkpt lat="44.18776" lon="6.76897">
        <ele>1602.7</ele>
        <time>2013-09-04T09:38:15Z</time>
      </trkpt>
      <trkpt lat="44.18776" lon="6.769">
        <ele>1602.7</ele>
        <time>2013-09-04T09:38:16Z</time>
      </trkpt>
      <trkpt lat="44.18776" lon="6.76903">
        <ele>1602.7</ele>
        <time>2013-09-04T09:38:17Z</time>
      </trkpt>
      <trkpt lat="44.18775" lon="6.76906">
        <ele>1603.1</ele>
        <time>2013-09-04T09:38:18Z</time>
      </trkpt>
      <trkpt lat="44.18775" lon="6.76908">
        <ele>1603.1</ele>
        <time>2013-09-04T09:38:19Z</time>
      </trkpt>
      <trkpt lat="44.18775" lon="6.76911">
        <ele>1603.1</ele>
        <time>2013-09-04T09:38:20Z</time>
      </trkpt>
      <trkpt lat="44.18774" lon="6.76922">
        <ele>1603.6</ele>
        <time>2013-09-04T09:38:25Z</time>
      </trkpt>
      <trkpt lat="44.18774" lon="6.76925">
        <ele>1603.6</ele>
        <time>2013-09-04T09:38:26Z</time>
      </trkpt>
      <trkpt lat="44.18784" lon="6.76951">
        <ele>1606</ele>
        <time>2013-09-04T09:38:39Z</time>
      </trkpt>
      <trkpt lat="44.18786" lon="6.76956">
        <ele>1607</ele>
        <time>2013-09-04T09:38:42Z</time>
      </trkpt>
      <trkpt lat="44.18786" lon="6.76957">
        <ele>1607</ele>
        <time>2013-09-04T09:38:43Z</time>
      </trkpt>
      <trkpt lat="44.18787" lon="6.76959">
        <ele>1607</ele>
        <time>2013-09-04T09:38:44Z</time>
      </trkpt>
      <trkpt lat="44.18788" lon="6.7696">
        <ele>1607.9</ele>
        <time>2013-09-04T09:38:45Z</time>
      </trkpt>
      <trkpt lat="44.18789" lon="6.76962">
        <ele>1607.9</ele>
        <time>2013-09-04T09:38:46Z</time>
      </trkpt>
      <trkpt lat="44.18789" lon="6.76965">
        <ele>1607</ele>
        <time>2013-09-04T09:38:47Z</time>
      </trkpt>
      <trkpt lat="44.18797" lon="6.76987">
        <ele>1609.4</ele>
        <time>2013-09-04T09:39:03Z</time>
      </trkpt>
      <trkpt lat="44.18802" lon="6.76985">
        <ele>1609.4</ele>
        <time>2013-09-04T09:39:30Z</time>
      </trkpt>
      <trkpt lat="44.188" lon="6.7699">
        <ele>1609.9</ele>
        <time>2013-09-04T09:39:47Z</time>
      </trkpt>
      <trkpt lat="44.18811" lon="6.77018">
        <ele>1611.3</ele>
        <time>2013-09-04T09:40:00Z</time>
      </trkpt>
      <trkpt lat="44.18815" lon="6.77051">
        <ele>1613.7</ele>
        <time>2013-09-04T09:40:12Z</time>
      </trkpt>
      <trkpt lat="44.18816" lon="6.77082">
        <ele>1614.2</ele>
        <time>2013-09-04T09:40:24Z</time>
      </trkpt>
      <trkpt lat="44.18821" lon="6.77108">
        <ele>1616.6</ele>
        <time>2013-09-04T09:40:36Z</time>
      </trkpt>
      <trkpt lat="44.18821" lon="6.77112">
        <ele>1617.1</ele>
        <time>2013-09-04T09:40:38Z</time>
      </trkpt>
      <trkpt lat="44.1882" lon="6.77116">
        <ele>1617.1</ele>
        <time>2013-09-04T09:40:40Z</time>
      </trkpt>
      <trkpt lat="44.1882" lon="6.77118">
        <ele>1617.6</ele>
        <time>2013-09-04T09:40:41Z</time>
      </trkpt>
      <trkpt lat="44.18819" lon="6.77122">
        <ele>1617.6</ele>
        <time>2013-09-04T09:40:43Z</time>
      </trkpt>
      <trkpt lat="44.18818" lon="6.77125">
        <ele>1618</ele>
        <time>2013-09-04T09:40:44Z</time>
      </trkpt>
      <trkpt lat="44.18812" lon="6.77168">
        <ele>1618.5</ele>
        <time>2013-09-04T09:40:57Z</time>
      </trkpt>
      <trkpt lat="44.18814" lon="6.77224">
        <ele>1618.5</ele>
        <time>2013-09-04T09:41:08Z</time>
      </trkpt>
      <trkpt lat="44.18815" lon="6.77283">
        <ele>1618.5</ele>
        <time>2013-09-04T09:41:20Z</time>
      </trkpt>
      <trkpt lat="44.18814" lon="6.7732">
        <ele>1619</ele>
        <time>2013-09-04T09:41:31Z</time>
      </trkpt>
      <trkpt lat="44.1882" lon="6.77362">
        <ele>1619</ele>
        <time>2013-09-04T09:41:41Z</time>
      </trkpt>
      <trkpt lat="44.18825" lon="6.77418">
        <ele>1619</ele>
        <time>2013-09-04T09:41:52Z</time>
      </trkpt>
      <trkpt lat="44.18826" lon="6.77469">
        <ele>1619.5</ele>
        <time>2013-09-04T09:42:02Z</time>
      </trkpt>
      <trkpt lat="44.18833" lon="6.77518">
        <ele>1620</ele>
        <time>2013-09-04T09:42:12Z</time>
      </trkpt>
      <trkpt lat="44.18832" lon="6.77548">
        <ele>1618.5</ele>
        <time>2013-09-04T09:42:17Z</time>
      </trkpt>
      <trkpt lat="44.18811" lon="6.77602">
        <ele>1619.5</ele>
        <time>2013-09-04T09:42:26Z</time>
      </trkpt>
      <trkpt lat="44.18785" lon="6.77627">
        <ele>1621.9</ele>
        <time>2013-09-04T09:42:37Z</time>
      </trkpt>
      <trkpt lat="44.1878" lon="6.77631">
        <ele>1622.8</ele>
        <time>2013-09-04T09:42:40Z</time>
      </trkpt>
      <trkpt lat="44.18766" lon="6.77646">
        <ele>1626.2</ele>
        <time>2013-09-04T09:42:52Z</time>
      </trkpt>
      <trkpt lat="44.18758" lon="6.77666">
        <ele>1628.6</ele>
        <time>2013-09-04T09:43:06Z</time>
      </trkpt>
      <trkpt lat="44.18744" lon="6.77692">
        <ele>1632.5</ele>
        <time>2013-09-04T09:43:22Z</time>
      </trkpt>
      <trkpt lat="44.18743" lon="6.77698">
        <ele>1632</ele>
        <time>2013-09-04T09:43:27Z</time>
      </trkpt>
      <trkpt lat="44.18743" lon="6.77699">
        <ele>1632.5</ele>
        <time>2013-09-04T09:43:28Z</time>
      </trkpt>
      <trkpt lat="44.18745" lon="6.77701">
        <ele>1632.5</ele>
        <time>2013-09-04T09:43:42Z</time>
      </trkpt>
      <trkpt lat="44.18745" lon="6.77697">
        <ele>1632.5</ele>
        <time>2013-09-04T09:43:57Z</time>
      </trkpt>
      <trkpt lat="44.18745" lon="6.77695">
        <ele>1632</ele>
        <time>2013-09-04T09:43:58Z</time>
      </trkpt>
      <trkpt lat="44.18736" lon="6.77696">
        <ele>1632.9</ele>
        <time>2013-09-04T09:44:05Z</time>
      </trkpt>
      <trkpt lat="44.18719" lon="6.77696">
        <ele>1634.4</ele>
        <time>2013-09-04T09:44:16Z</time>
      </trkpt>
      <trkpt lat="44.18698" lon="6.77698">
        <ele>1635.8</ele>
        <time>2013-09-04T09:44:29Z</time>
      </trkpt>
      <trkpt lat="44.18682" lon="6.77702">
        <ele>1637.3</ele>
        <time>2013-09-04T09:44:38Z</time>
      </trkpt>
      <trkpt lat="44.18681" lon="6.77704">
        <ele>1637.3</ele>
        <time>2013-09-04T09:44:39Z</time>
      </trkpt>
      <trkpt lat="44.18671" lon="6.77733">
        <ele>1637.3</ele>
        <time>2013-09-04T09:44:53Z</time>
      </trkpt>
      <trkpt lat="44.18658" lon="6.77756">
        <ele>1636.3</ele>
        <time>2013-09-04T09:45:03Z</time>
      </trkpt>
      <trkpt lat="44.18657" lon="6.77759">
        <ele>1636.8</ele>
        <time>2013-09-04T09:45:04Z</time>
      </trkpt>
      <trkpt lat="44.18656" lon="6.77763">
        <ele>1636.3</ele>
        <time>2013-09-04T09:45:05Z</time>
      </trkpt>
      <trkpt lat="44.18656" lon="6.77767">
        <ele>1636.3</ele>
        <time>2013-09-04T09:45:06Z</time>
      </trkpt>
      <trkpt lat="44.18655" lon="6.7777">
        <ele>1635.3</ele>
        <time>2013-09-04T09:45:07Z</time>
      </trkpt>
      <trkpt lat="44.18651" lon="6.77789">
        <ele>1634.9</ele>
        <time>2013-09-04T09:45:17Z</time>
      </trkpt>
      <trkpt lat="44.18644" lon="6.77801">
        <ele>1633.9</ele>
        <time>2013-09-04T09:45:31Z</time>
      </trkpt>
      <trkpt lat="44.18639" lon="6.77817">
        <ele>1632.9</ele>
        <time>2013-09-04T09:45:45Z</time>
      </trkpt>
      <trkpt lat="44.18633" lon="6.77831">
        <ele>1633.4</ele>
        <time>2013-09-04T09:45:56Z</time>
      </trkpt>
      <trkpt lat="44.18633" lon="6.77833">
        <ele>1633.4</ele>
        <time>2013-09-04T09:45:57Z</time>
      </trkpt>
      <trkpt lat="44.1863" lon="6.77838">
        <ele>1633.9</ele>
        <time>2013-09-04T09:46:10Z</time>
      </trkpt>
      <trkpt lat="44.18632" lon="6.77836">
        <ele>1633.9</ele>
        <time>2013-09-04T09:46:24Z</time>
      </trkpt>
      <trkpt lat="44.18638" lon="6.77838">
        <ele>1634.4</ele>
        <time>2013-09-04T09:46:36Z</time>
      </trkpt>
      <trkpt lat="44.18644" lon="6.77845">
        <ele>1635.8</ele>
        <time>2013-09-04T09:46:49Z</time>
      </trkpt>
      <trkpt lat="44.18657" lon="6.77857">
        <ele>1636.3</ele>
        <time>2013-09-04T09:47:05Z</time>
      </trkpt>
      <trkpt lat="44.18662" lon="6.77864">
        <ele>1636.3</ele>
        <time>2013-09-04T09:47:17Z</time>
      </trkpt>
      <trkpt lat="44.18682" lon="6.77888">
        <ele>1638.7</ele>
        <time>2013-09-04T09:47:30Z</time>
      </trkpt>
      <trkpt lat="44.18685" lon="6.77889">
        <ele>1637.7</ele>
        <time>2013-09-04T09:47:32Z</time>
      </trkpt>
      <trkpt lat="44.18687" lon="6.77892">
        <ele>1638.2</ele>
        <time>2013-09-04T09:47:34Z</time>
      </trkpt>
      <trkpt lat="44.18688" lon="6.77899">
        <ele>1639.2</ele>
        <time>2013-09-04T09:47:37Z</time>
      </trkpt>
      <trkpt lat="44.18686" lon="6.77903">
        <ele>1638.2</ele>
        <time>2013-09-04T09:47:38Z</time>
      </trkpt>
      <trkpt lat="44.18685" lon="6.77906">
        <ele>1638.7</ele>
        <time>2013-09-04T09:47:39Z</time>
      </trkpt>
      <trkpt lat="44.18684" lon="6.7791">
        <ele>1639.2</ele>
        <time>2013-09-04T09:47:40Z</time>
      </trkpt>
      <trkpt lat="44.18684" lon="6.77913">
        <ele>1639.2</ele>
        <time>2013-09-04T09:47:41Z</time>
      </trkpt>
      <trkpt lat="44.18684" lon="6.77917">
        <ele>1638.7</ele>
        <time>2013-09-04T09:47:42Z</time>
      </trkpt>
      <trkpt lat="44.18684" lon="6.77921">
        <ele>1639.2</ele>
        <time>2013-09-04T09:47:43Z</time>
      </trkpt>
      <trkpt lat="44.18684" lon="6.77924">
        <ele>1639.2</ele>
        <time>2013-09-04T09:47:44Z</time>
      </trkpt>
      <trkpt lat="44.18684" lon="6.77928">
        <ele>1639.7</ele>
        <time>2013-09-04T09:47:45Z</time>
      </trkpt>
      <trkpt lat="44.18687" lon="6.77944">
        <ele>1639.7</ele>
        <time>2013-09-04T09:47:51Z</time>
      </trkpt>
      <trkpt lat="44.18692" lon="6.77951">
        <ele>1640.2</ele>
        <time>2013-09-04T09:47:54Z</time>
      </trkpt>
      <trkpt lat="44.18692" lon="6.77955">
        <ele>1640.2</ele>
        <time>2013-09-04T09:47:55Z</time>
      </trkpt>
      <trkpt lat="44.18693" lon="6.77958">
        <ele>1640.6</ele>
        <time>2013-09-04T09:47:56Z</time>
      </trkpt>
      <trkpt lat="44.18694" lon="6.77961">
        <ele>1640.6</ele>
        <time>2013-09-04T09:47:57Z</time>
      </trkpt>
      <trkpt lat="44.18694" lon="6.77964">
        <ele>1640.6</ele>
        <time>2013-09-04T09:47:58Z</time>
      </trkpt>
      <trkpt lat="44.1871" lon="6.77995">
        <ele>1641.6</ele>
        <time>2013-09-04T09:48:09Z</time>
      </trkpt>
      <trkpt lat="44.18728" lon="6.78027">
        <ele>1643.5</ele>
        <time>2013-09-04T09:48:23Z</time>
      </trkpt>
      <trkpt lat="44.18742" lon="6.78052">
        <ele>1644.5</ele>
        <time>2013-09-04T09:48:34Z</time>
      </trkpt>
      <trkpt lat="44.18744" lon="6.78053">
        <ele>1645.4</ele>
        <time>2013-09-04T09:48:35Z</time>
      </trkpt>
      <trkpt lat="44.18746" lon="6.78053">
        <ele>1645</ele>
        <time>2013-09-04T09:48:36Z</time>
      </trkpt>
      <trkpt lat="44.18769" lon="6.78055">
        <ele>1646.9</ele>
        <time>2013-09-04T09:48:50Z</time>
      </trkpt>
      <trkpt lat="44.1877" lon="6.78056">
        <ele>1647.4</ele>
        <time>2013-09-04T09:48:51Z</time>
      </trkpt>
      <trkpt lat="44.18772" lon="6.78057">
        <ele>1647.8</ele>
        <time>2013-09-04T09:48:52Z</time>
      </trkpt>
      <trkpt lat="44.18785" lon="6.78059">
        <ele>1647.8</ele>
        <time>2013-09-04T09:48:58Z</time>
      </trkpt>
      <trkpt lat="44.18787" lon="6.78059">
        <ele>1647.8</ele>
        <time>2013-09-04T09:48:59Z</time>
      </trkpt>
      <trkpt lat="44.18789" lon="6.78059">
        <ele>1648.3</ele>
        <time>2013-09-04T09:49:00Z</time>
      </trkpt>
      <trkpt lat="44.18791" lon="6.78059">
        <ele>1648.3</ele>
        <time>2013-09-04T09:49:01Z</time>
      </trkpt>
      <trkpt lat="44.18793" lon="6.78058">
        <ele>1648.8</ele>
        <time>2013-09-04T09:49:02Z</time>
      </trkpt>
      <trkpt lat="44.18809" lon="6.78044">
        <ele>1649.3</ele>
        <time>2013-09-04T09:49:10Z</time>
      </trkpt>
      <trkpt lat="44.18838" lon="6.78053">
        <ele>1650.2</ele>
        <time>2013-09-04T09:49:23Z</time>
      </trkpt>
      <trkpt lat="44.18864" lon="6.78087">
        <ele>1651.2</ele>
        <time>2013-09-04T09:49:37Z</time>
      </trkpt>
      <trkpt lat="44.18876" lon="6.78138">
        <ele>1650.7</ele>
        <time>2013-09-04T09:49:48Z</time>
      </trkpt>
      <trkpt lat="44.18878" lon="6.78144">
        <ele>1650.2</ele>
        <time>2013-09-04T09:49:49Z</time>
      </trkpt>
      <trkpt lat="44.18882" lon="6.78156">
        <ele>1649.8</ele>
        <time>2013-09-04T09:49:51Z</time>
      </trkpt>
      <trkpt lat="44.18895" lon="6.78192">
        <ele>1651.2</ele>
        <time>2013-09-04T09:50:01Z</time>
      </trkpt>
      <trkpt lat="44.18911" lon="6.78229">
        <ele>1653.6</ele>
        <time>2013-09-04T09:50:15Z</time>
      </trkpt>
      <trkpt lat="44.18921" lon="6.78246">
        <ele>1654.1</ele>
        <time>2013-09-04T09:50:22Z</time>
      </trkpt>
      <trkpt lat="44.18922" lon="6.78248">
        <ele>1654.6</ele>
        <time>2013-09-04T09:50:23Z</time>
      </trkpt>
      <trkpt lat="44.18923" lon="6.7825">
        <ele>1654.6</ele>
        <time>2013-09-04T09:50:24Z</time>
      </trkpt>
      <trkpt lat="44.18924" lon="6.78253">
        <ele>1653.6</ele>
        <time>2013-09-04T09:50:25Z</time>
      </trkpt>
      <trkpt lat="44.18925" lon="6.78255">
        <ele>1654.6</ele>
        <time>2013-09-04T09:50:26Z</time>
      </trkpt>
      <trkpt lat="44.18925" lon="6.78257">
        <ele>1654.6</ele>
        <time>2013-09-04T09:50:27Z</time>
      </trkpt>
      <trkpt lat="44.18926" lon="6.7826">
        <ele>1655.1</ele>
        <time>2013-09-04T09:50:28Z</time>
      </trkpt>
      <trkpt lat="44.18927" lon="6.78262">
        <ele>1655.5</ele>
        <time>2013-09-04T09:50:29Z</time>
      </trkpt>
      <trkpt lat="44.18931" lon="6.78271">
        <ele>1655.5</ele>
        <time>2013-09-04T09:50:43Z</time>
      </trkpt>
      <trkpt lat="44.18936" lon="6.78278">
        <ele>1656.5</ele>
        <time>2013-09-04T09:51:02Z</time>
      </trkpt>
      <trkpt lat="44.18957" lon="6.78311">
        <ele>1657.5</ele>
        <time>2013-09-04T09:51:16Z</time>
      </trkpt>
      <trkpt lat="44.18972" lon="6.78363">
        <ele>1656</ele>
        <time>2013-09-04T09:51:29Z</time>
      </trkpt>
      <trkpt lat="44.18976" lon="6.78373">
        <ele>1656</ele>
        <time>2013-09-04T09:51:31Z</time>
      </trkpt>
      <trkpt lat="44.18977" lon="6.78379">
        <ele>1656</ele>
        <time>2013-09-04T09:51:32Z</time>
      </trkpt>
      <trkpt lat="44.18978" lon="6.78424">
        <ele>1653.1</ele>
        <time>2013-09-04T09:51:42Z</time>
      </trkpt>
      <trkpt lat="44.18978" lon="6.7844">
        <ele>1651.2</ele>
        <time>2013-09-04T09:51:45Z</time>
      </trkpt>
      <trkpt lat="44.18977" lon="6.78456">
        <ele>1648.8</ele>
        <time>2013-09-04T09:51:49Z</time>
      </trkpt>
      <trkpt lat="44.18977" lon="6.78459">
        <ele>1648.8</ele>
        <time>2013-09-04T09:51:50Z</time>
      </trkpt>
      <trkpt lat="44.18972" lon="6.7849">
        <ele>1648.8</ele>
        <time>2013-09-04T09:51:58Z</time>
      </trkpt>
      <trkpt lat="44.18972" lon="6.78492">
        <ele>1648.8</ele>
        <time>2013-09-04T09:51:59Z</time>
      </trkpt>
      <trkpt lat="44.18973" lon="6.78496">
        <ele>1648.3</ele>
        <time>2013-09-04T09:52:01Z</time>
      </trkpt>
      <trkpt lat="44.18972" lon="6.785">
        <ele>1648.3</ele>
        <time>2013-09-04T09:52:02Z</time>
      </trkpt>
      <trkpt lat="44.18964" lon="6.78534">
        <ele>1645</ele>
        <time>2013-09-04T09:52:09Z</time>
      </trkpt>
      <trkpt lat="44.18963" lon="6.78547">
        <ele>1644.5</ele>
        <time>2013-09-04T09:52:11Z</time>
      </trkpt>
      <trkpt lat="44.18963" lon="6.78562">
        <ele>1643.5</ele>
        <time>2013-09-04T09:52:14Z</time>
      </trkpt>
      <trkpt lat="44.18965" lon="6.78568">
        <ele>1643.5</ele>
        <time>2013-09-04T09:52:15Z</time>
      </trkpt>
      <trkpt lat="44.18968" lon="6.78573">
        <ele>1643</ele>
        <time>2013-09-04T09:52:16Z</time>
      </trkpt>
      <trkpt lat="44.18971" lon="6.78578">
        <ele>1643</ele>
        <time>2013-09-04T09:52:17Z</time>
      </trkpt>
      <trkpt lat="44.18974" lon="6.78582">
        <ele>1642.6</ele>
        <time>2013-09-04T09:52:18Z</time>
      </trkpt>
      <trkpt lat="44.18975" lon="6.78586">
        <ele>1642.1</ele>
        <time>2013-09-04T09:52:19Z</time>
      </trkpt>
      <trkpt lat="44.18971" lon="6.78596">
        <ele>1641.6</ele>
        <time>2013-09-04T09:52:29Z</time>
      </trkpt>
      <trkpt lat="44.18963" lon="6.78599">
        <ele>1642.1</ele>
        <time>2013-09-04T09:52:53Z</time>
      </trkpt>
      <trkpt lat="44.1897" lon="6.7862">
        <ele>1640.6</ele>
        <time>2013-09-04T09:53:07Z</time>
      </trkpt>
      <trkpt lat="44.18971" lon="6.78638">
        <ele>1641.6</ele>
        <time>2013-09-04T09:53:16Z</time>
      </trkpt>
      <trkpt lat="44.18967" lon="6.78653">
        <ele>1642.1</ele>
        <time>2013-09-04T09:53:30Z</time>
      </trkpt>
      <trkpt lat="44.18968" lon="6.78656">
        <ele>1643.5</ele>
        <time>2013-09-04T09:53:36Z</time>
      </trkpt>
      <trkpt lat="44.18969" lon="6.78668">
        <ele>1644.5</ele>
        <time>2013-09-04T09:53:47Z</time>
      </trkpt>
      <trkpt lat="44.18969" lon="6.7868">
        <ele>1645</ele>
        <time>2013-09-04T09:53:58Z</time>
      </trkpt>
      <trkpt lat="44.18969" lon="6.78692">
        <ele>1646.4</ele>
        <time>2013-09-04T09:54:09Z</time>
      </trkpt>
      <trkpt lat="44.18968" lon="6.78703">
        <ele>1646.9</ele>
        <time>2013-09-04T09:54:21Z</time>
      </trkpt>
      <trkpt lat="44.18968" lon="6.78719">
        <ele>1648.8</ele>
        <time>2013-09-04T09:54:35Z</time>
      </trkpt>
      <trkpt lat="44.18969" lon="6.78724">
        <ele>1648.3</ele>
        <time>2013-09-04T09:54:40Z</time>
      </trkpt>
      <trkpt lat="44.18968" lon="6.7873">
        <ele>1649.3</ele>
        <time>2013-09-04T09:54:44Z</time>
      </trkpt>
      <trkpt lat="44.18963" lon="6.78741">
        <ele>1649.8</ele>
        <time>2013-09-04T09:54:56Z</time>
      </trkpt>
      <trkpt lat="44.18961" lon="6.78746">
        <ele>1649.3</ele>
        <time>2013-09-04T09:55:01Z</time>
      </trkpt>
      <trkpt lat="44.18962" lon="6.78748">
        <ele>1649.3</ele>
        <time>2013-09-04T09:55:02Z</time>
      </trkpt>
      <trkpt lat="44.18964" lon="6.78755">
        <ele>1649.8</ele>
        <time>2013-09-04T09:55:11Z</time>
      </trkpt>
      <trkpt lat="44.18964" lon="6.78756">
        <ele>1649.8</ele>
        <time>2013-09-04T09:55:16Z</time>
      </trkpt>
      <trkpt lat="44.1897" lon="6.78783">
        <ele>1649.3</ele>
        <time>2013-09-04T09:55:29Z</time>
      </trkpt>
      <trkpt lat="44.18981" lon="6.78798">
        <ele>1647.4</ele>
        <time>2013-09-04T09:55:38Z</time>
      </trkpt>
      <trkpt lat="44.1898" lon="6.78804">
        <ele>1647.4</ele>
        <time>2013-09-04T09:55:39Z</time>
      </trkpt>
      <trkpt lat="44.18977" lon="6.78808">
        <ele>1646.9</ele>
        <time>2013-09-04T09:55:40Z</time>
      </trkpt>
      <trkpt lat="44.18975" lon="6.78813">
        <ele>1646.4</ele>
        <time>2013-09-04T09:55:41Z</time>
      </trkpt>
      <trkpt lat="44.18972" lon="6.78817">
        <ele>1646.9</ele>
        <time>2013-09-04T09:55:42Z</time>
      </trkpt>
      <trkpt lat="44.18971" lon="6.7882">
        <ele>1647.4</ele>
        <time>2013-09-04T09:55:43Z</time>
      </trkpt>
      <trkpt lat="44.1897" lon="6.78823">
        <ele>1647.8</ele>
        <time>2013-09-04T09:55:44Z</time>
      </trkpt>
      <trkpt lat="44.18968" lon="6.78828">
        <ele>1647.4</ele>
        <time>2013-09-04T09:55:45Z</time>
      </trkpt>
      <trkpt lat="44.18977" lon="6.78854">
        <ele>1645.9</ele>
        <time>2013-09-04T09:55:54Z</time>
      </trkpt>
      <trkpt lat="44.18985" lon="6.78866">
        <ele>1643</ele>
        <time>2013-09-04T09:55:58Z</time>
      </trkpt>
      <trkpt lat="44.18986" lon="6.78869">
        <ele>1643</ele>
        <time>2013-09-04T09:55:59Z</time>
      </trkpt>
      <trkpt lat="44.18986" lon="6.78872">
        <ele>1643</ele>
        <time>2013-09-04T09:56:00Z</time>
      </trkpt>
      <trkpt lat="44.18986" lon="6.78883">
        <ele>1644.5</ele>
        <time>2013-09-04T09:56:10Z</time>
      </trkpt>
      <trkpt lat="44.18982" lon="6.78896">
        <ele>1647.8</ele>
        <time>2013-09-04T09:56:25Z</time>
      </trkpt>
      <trkpt lat="44.18975" lon="6.78899">
        <ele>1650.7</ele>
        <time>2013-09-04T09:56:37Z</time>
      </trkpt>
      <trkpt lat="44.18969" lon="6.78909">
        <ele>1652.6</ele>
        <time>2013-09-04T09:56:53Z</time>
      </trkpt>
      <trkpt lat="44.18964" lon="6.78918">
        <ele>1655.1</ele>
        <time>2013-09-04T09:57:06Z</time>
      </trkpt>
      <trkpt lat="44.1896" lon="6.78926">
        <ele>1657</ele>
        <time>2013-09-04T09:57:20Z</time>
      </trkpt>
      <trkpt lat="44.18962" lon="6.78938">
        <ele>1658.9</ele>
        <time>2013-09-04T09:57:34Z</time>
      </trkpt>
      <trkpt lat="44.18961" lon="6.78941">
        <ele>1660.3</ele>
        <time>2013-09-04T09:57:38Z</time>
      </trkpt>
      <trkpt lat="44.18964" lon="6.78952">
        <ele>1662.3</ele>
        <time>2013-09-04T09:57:53Z</time>
      </trkpt>
      <trkpt lat="44.18965" lon="6.78965">
        <ele>1664.7</ele>
        <time>2013-09-04T09:58:08Z</time>
      </trkpt>
      <trkpt lat="44.18967" lon="6.7898">
        <ele>1666.6</ele>
        <time>2013-09-04T09:58:22Z</time>
      </trkpt>
      <trkpt lat="44.18965" lon="6.78992">
        <ele>1667.1</ele>
        <time>2013-09-04T09:58:32Z</time>
      </trkpt>
      <trkpt lat="44.18965" lon="6.79009">
        <ele>1669</ele>
        <time>2013-09-04T09:58:46Z</time>
      </trkpt>
      <trkpt lat="44.18967" lon="6.7902">
        <ele>1670</ele>
        <time>2013-09-04T09:59:04Z</time>
      </trkpt>
      <trkpt lat="44.18967" lon="6.79022">
        <ele>1670</ele>
        <time>2013-09-04T09:59:05Z</time>
      </trkpt>
      <trkpt lat="44.18966" lon="6.79024">
        <ele>1670</ele>
        <time>2013-09-04T09:59:06Z</time>
      </trkpt>
      <trkpt lat="44.18967" lon="6.79026">
        <ele>1670</ele>
        <time>2013-09-04T09:59:07Z</time>
      </trkpt>
      <trkpt lat="44.18967" lon="6.79029">
        <ele>1669</ele>
        <time>2013-09-04T09:59:08Z</time>
      </trkpt>
      <trkpt lat="44.18967" lon="6.79033">
        <ele>1669</ele>
        <time>2013-09-04T09:59:09Z</time>
      </trkpt>
      <trkpt lat="44.18969" lon="6.79037">
        <ele>1669</ele>
        <time>2013-09-04T09:59:10Z</time>
      </trkpt>
      <trkpt lat="44.18969" lon="6.79041">
        <ele>1669</ele>
        <time>2013-09-04T09:59:11Z</time>
      </trkpt>
      <trkpt lat="44.1897" lon="6.79045">
        <ele>1668.5</ele>
        <time>2013-09-04T09:59:12Z</time>
      </trkpt>
      <trkpt lat="44.1897" lon="6.79049">
        <ele>1669</ele>
        <time>2013-09-04T09:59:13Z</time>
      </trkpt>
      <trkpt lat="44.1897" lon="6.7905">
        <ele>1669</ele>
        <time>2013-09-04T09:59:14Z</time>
      </trkpt>
      <trkpt lat="44.18969" lon="6.79057">
        <ele>1669.5</ele>
        <time>2013-09-04T09:59:18Z</time>
      </trkpt>
      <trkpt lat="44.1897" lon="6.79068">
        <ele>1671.4</ele>
        <time>2013-09-04T09:59:24Z</time>
      </trkpt>
      <trkpt lat="44.1897" lon="6.7907">
        <ele>1670.9</ele>
        <time>2013-09-04T09:59:25Z</time>
      </trkpt>
      <trkpt lat="44.18968" lon="6.79085">
        <ele>1672.4</ele>
        <time>2013-09-04T09:59:36Z</time>
      </trkpt>
      <trkpt lat="44.18957" lon="6.79121">
        <ele>1671.9</ele>
        <time>2013-09-04T09:59:46Z</time>
      </trkpt>
      <trkpt lat="44.18924" lon="6.79172">
        <ele>1673.3</ele>
        <time>2013-09-04T09:59:57Z</time>
      </trkpt>
      <trkpt lat="44.18908" lon="6.79192">
        <ele>1673.8</ele>
        <time>2013-09-04T10:00:01Z</time>
      </trkpt>
      <trkpt lat="44.18903" lon="6.79197">
        <ele>1674.3</ele>
        <time>2013-09-04T10:00:02Z</time>
      </trkpt>
      <trkpt lat="44.1891" lon="6.79199">
        <ele>1674.8</ele>
        <time>2013-09-04T10:00:10Z</time>
      </trkpt>
      <trkpt lat="44.18939" lon="6.79181">
        <ele>1677.2</ele>
        <time>2013-09-04T10:00:23Z</time>
      </trkpt>
      <trkpt lat="44.18936" lon="6.79192">
        <ele>1678.1</ele>
        <time>2013-09-04T10:00:35Z</time>
      </trkpt>
      <trkpt lat="44.18935" lon="6.79193">
        <ele>1678.1</ele>
        <time>2013-09-04T10:00:55Z</time>
      </trkpt>
      <trkpt lat="44.18931" lon="6.79199">
        <ele>1678.6</ele>
        <time>2013-09-04T10:01:16Z</time>
      </trkpt>
      <trkpt lat="44.18933" lon="6.79207">
        <ele>1679.6</ele>
        <time>2013-09-04T10:01:31Z</time>
      </trkpt>
      <trkpt lat="44.18932" lon="6.79214">
        <ele>1681.5</ele>
        <time>2013-09-04T10:01:42Z</time>
      </trkpt>
      <trkpt lat="44.18935" lon="6.79221">
        <ele>1682.4</ele>
        <time>2013-09-04T10:01:55Z</time>
      </trkpt>
      <trkpt lat="44.18938" lon="6.79231">
        <ele>1683.4</ele>
        <time>2013-09-04T10:02:08Z</time>
      </trkpt>
      <trkpt lat="44.18939" lon="6.7924">
        <ele>1683.9</ele>
        <time>2013-09-04T10:02:18Z</time>
      </trkpt>
      <trkpt lat="44.18938" lon="6.79256">
        <ele>1684.9</ele>
        <time>2013-09-04T10:02:31Z</time>
      </trkpt>
      <trkpt lat="44.18938" lon="6.79263">
        <ele>1682.9</ele>
        <time>2013-09-04T10:02:43Z</time>
      </trkpt>
      <trkpt lat="44.18941" lon="6.79265">
        <ele>1680.5</ele>
        <time>2013-09-04T10:02:54Z</time>
      </trkpt>
      <trkpt lat="44.18941" lon="6.79269">
        <ele>1680</ele>
        <time>2013-09-04T10:02:59Z</time>
      </trkpt>
      <trkpt lat="44.18937" lon="6.79275">
        <ele>1681.5</ele>
        <time>2013-09-04T10:03:09Z</time>
      </trkpt>
      <trkpt lat="44.18938" lon="6.79279">
        <ele>1682.4</ele>
        <time>2013-09-04T10:03:20Z</time>
      </trkpt>
      <trkpt lat="44.18939" lon="6.79279">
        <ele>1682</ele>
        <time>2013-09-04T10:03:30Z</time>
      </trkpt>
      <trkpt lat="44.18944" lon="6.79275">
        <ele>1684.4</ele>
        <time>2013-09-04T10:03:47Z</time>
      </trkpt>
      <trkpt lat="44.1895" lon="6.79283">
        <ele>1683.9</ele>
        <time>2013-09-04T10:04:00Z</time>
      </trkpt>
      <trkpt lat="44.18952" lon="6.79283">
        <ele>1683.9</ele>
        <time>2013-09-04T10:04:15Z</time>
      </trkpt>
      <trkpt lat="44.18955" lon="6.79289">
        <ele>1685.3</ele>
        <time>2013-09-04T10:04:29Z</time>
      </trkpt>
      <trkpt lat="44.18959" lon="6.79293">
        <ele>1687.3</ele>
        <time>2013-09-04T10:04:38Z</time>
      </trkpt>
      <trkpt lat="44.18965" lon="6.79296">
        <ele>1690.1</ele>
        <time>2013-09-04T10:04:50Z</time>
      </trkpt>
      <trkpt lat="44.18972" lon="6.793">
        <ele>1691.1</ele>
        <time>2013-09-04T10:05:02Z</time>
      </trkpt>
      <trkpt lat="44.1898" lon="6.79303">
        <ele>1692.1</ele>
        <time>2013-09-04T10:05:13Z</time>
      </trkpt>
      <trkpt lat="44.18989" lon="6.79306">
        <ele>1693.5</ele>
        <time>2013-09-04T10:05:29Z</time>
      </trkpt>
      <trkpt lat="44.18999" lon="6.7931">
        <ele>1695.4</ele>
        <time>2013-09-04T10:05:45Z</time>
      </trkpt>
      <trkpt lat="44.19006" lon="6.79311">
        <ele>1696.4</ele>
        <time>2013-09-04T10:05:57Z</time>
      </trkpt>
      <trkpt lat="44.19016" lon="6.7931">
        <ele>1698.3</ele>
        <time>2013-09-04T10:06:11Z</time>
      </trkpt>
      <trkpt lat="44.19022" lon="6.79327">
        <ele>1700.2</ele>
        <time>2013-09-04T10:06:26Z</time>
      </trkpt>
      <trkpt lat="44.19027" lon="6.79339">
        <ele>1702.2</ele>
        <time>2013-09-04T10:06:39Z</time>
      </trkpt>
      <trkpt lat="44.19034" lon="6.79348">
        <ele>1703.6</ele>
        <time>2013-09-04T10:06:53Z</time>
      </trkpt>
      <trkpt lat="44.1904" lon="6.79356">
        <ele>1704.6</ele>
        <time>2013-09-04T10:07:07Z</time>
      </trkpt>
      <trkpt lat="44.19052" lon="6.7936">
        <ele>1702.6</ele>
        <time>2013-09-04T10:07:24Z</time>
      </trkpt>
      <trkpt lat="44.19053" lon="6.7936">
        <ele>1701.7</ele>
        <time>2013-09-04T10:07:25Z</time>
      </trkpt>
      <trkpt lat="44.19066" lon="6.79364">
        <ele>1702.6</ele>
        <time>2013-09-04T10:07:41Z</time>
      </trkpt>
      <trkpt lat="44.19075" lon="6.7937">
        <ele>1705</ele>
        <time>2013-09-04T10:08:01Z</time>
      </trkpt>
      <trkpt lat="44.19076" lon="6.79375">
        <ele>1706.5</ele>
        <time>2013-09-04T10:08:14Z</time>
      </trkpt>
      <trkpt lat="44.19079" lon="6.7938">
        <ele>1707</ele>
        <time>2013-09-04T10:08:25Z</time>
      </trkpt>
      <trkpt lat="44.1908" lon="6.79387">
        <ele>1708.4</ele>
        <time>2013-09-04T10:08:42Z</time>
      </trkpt>
      <trkpt lat="44.19082" lon="6.7939">
        <ele>1708.9</ele>
        <time>2013-09-04T10:08:59Z</time>
      </trkpt>
      <trkpt lat="44.19084" lon="6.794">
        <ele>1709.4</ele>
        <time>2013-09-04T10:09:13Z</time>
      </trkpt>
      <trkpt lat="44.19085" lon="6.79412">
        <ele>1709.4</ele>
        <time>2013-09-04T10:09:28Z</time>
      </trkpt>
      <trkpt lat="44.19095" lon="6.79416">
        <ele>1710.3</ele>
        <time>2013-09-04T10:09:41Z</time>
      </trkpt>
      <trkpt lat="44.19102" lon="6.79422">
        <ele>1712.3</ele>
        <time>2013-09-04T10:09:56Z</time>
      </trkpt>
      <trkpt lat="44.19108" lon="6.79426">
        <ele>1713.7</ele>
        <time>2013-09-04T10:10:08Z</time>
      </trkpt>
      <trkpt lat="44.19113" lon="6.7943">
        <ele>1715.1</ele>
        <time>2013-09-04T10:10:21Z</time>
      </trkpt>
      <trkpt lat="44.19116" lon="6.7944">
        <ele>1715.6</ele>
        <time>2013-09-04T10:10:35Z</time>
      </trkpt>
      <trkpt lat="44.19121" lon="6.79445">
        <ele>1717.1</ele>
        <time>2013-09-04T10:10:48Z</time>
      </trkpt>
      <trkpt lat="44.19126" lon="6.7945">
        <ele>1718.5</ele>
        <time>2013-09-04T10:11:01Z</time>
      </trkpt>
      <trkpt lat="44.19129" lon="6.79455">
        <ele>1719</ele>
        <time>2013-09-04T10:11:15Z</time>
      </trkpt>
      <trkpt lat="44.19133" lon="6.79457">
        <ele>1719.5</ele>
        <time>2013-09-04T10:11:29Z</time>
      </trkpt>
      <trkpt lat="44.19138" lon="6.79464">
        <ele>1720.9</ele>
        <time>2013-09-04T10:11:41Z</time>
      </trkpt>
      <trkpt lat="44.1914" lon="6.79475">
        <ele>1720.9</ele>
        <time>2013-09-04T10:11:52Z</time>
      </trkpt>
      <trkpt lat="44.1914" lon="6.7948">
        <ele>1722.8</ele>
        <time>2013-09-04T10:12:05Z</time>
      </trkpt>
      <trkpt lat="44.19139" lon="6.79482">
        <ele>1724.3</ele>
        <time>2013-09-04T10:12:24Z</time>
      </trkpt>
      <trkpt lat="44.19133" lon="6.79482">
        <ele>1726.7</ele>
        <time>2013-09-04T10:12:40Z</time>
      </trkpt>
      <trkpt lat="44.19133" lon="6.79483">
        <ele>1728.1</ele>
        <time>2013-09-04T10:12:51Z</time>
      </trkpt>
      <trkpt lat="44.19129" lon="6.79482">
        <ele>1729.6</ele>
        <time>2013-09-04T10:13:03Z</time>
      </trkpt>
      <trkpt lat="44.19132" lon="6.7948">
        <ele>1730</ele>
        <time>2013-09-04T10:13:14Z</time>
      </trkpt>
      <trkpt lat="44.19132" lon="6.79477">
        <ele>1730</ele>
        <time>2013-09-04T10:13:34Z</time>
      </trkpt>
      <trkpt lat="44.19132" lon="6.79478">
        <ele>1730</ele>
        <time>2013-09-04T10:13:44Z</time>
      </trkpt>
      <trkpt lat="44.19134" lon="6.79479">
        <ele>1731.5</ele>
        <time>2013-09-04T10:13:58Z</time>
      </trkpt>
      <trkpt lat="44.19134" lon="6.79475">
        <ele>1732</ele>
        <time>2013-09-04T10:14:22Z</time>
      </trkpt>
      <trkpt lat="44.19133" lon="6.79472">
        <ele>1732.4</ele>
        <time>2013-09-04T10:14:47Z</time>
      </trkpt>
      <trkpt lat="44.1914" lon="6.79474">
        <ele>1733.4</ele>
        <time>2013-09-04T10:15:02Z</time>
      </trkpt>
      <trkpt lat="44.19152" lon="6.79469">
        <ele>1735.8</ele>
        <time>2013-09-04T10:15:20Z</time>
      </trkpt>
      <trkpt lat="44.19169" lon="6.79453">
        <ele>1738.7</ele>
        <time>2013-09-04T10:15:37Z</time>
      </trkpt>
      <trkpt lat="44.19177" lon="6.79483">
        <ele>1740.6</ele>
        <time>2013-09-04T10:15:57Z</time>
      </trkpt>
      <trkpt lat="44.19191" lon="6.79522">
        <ele>1742.1</ele>
        <time>2013-09-04T10:16:12Z</time>
      </trkpt>
      <trkpt lat="44.19196" lon="6.79525">
        <ele>1742.5</ele>
        <time>2013-09-04T10:16:30Z</time>
      </trkpt>
      <trkpt lat="44.19207" lon="6.7953">
        <ele>1744.9</ele>
        <time>2013-09-04T10:16:45Z</time>
      </trkpt>
      <trkpt lat="44.19204" lon="6.7953">
        <ele>1744.9</ele>
        <time>2013-09-04T10:17:03Z</time>
      </trkpt>
      <trkpt lat="44.19209" lon="6.79533">
        <ele>1745.9</ele>
        <time>2013-09-04T10:17:22Z</time>
      </trkpt>
      <trkpt lat="44.1922" lon="6.79533">
        <ele>1748.3</ele>
        <time>2013-09-04T10:17:37Z</time>
      </trkpt>
      <trkpt lat="44.1923" lon="6.79537">
        <ele>1749.7</ele>
        <time>2013-09-04T10:17:52Z</time>
      </trkpt>
      <trkpt lat="44.19238" lon="6.79536">
        <ele>1752.6</ele>
        <time>2013-09-04T10:18:07Z</time>
      </trkpt>
      <trkpt lat="44.19243" lon="6.79532">
        <ele>1754.1</ele>
        <time>2013-09-04T10:18:20Z</time>
      </trkpt>
      <trkpt lat="44.19249" lon="6.79535">
        <ele>1756</ele>
        <time>2013-09-04T10:18:35Z</time>
      </trkpt>
      <trkpt lat="44.19258" lon="6.79541">
        <ele>1757.9</ele>
        <time>2013-09-04T10:18:47Z</time>
      </trkpt>
      <trkpt lat="44.19268" lon="6.79553">
        <ele>1759.4</ele>
        <time>2013-09-04T10:19:03Z</time>
      </trkpt>
      <trkpt lat="44.19275" lon="6.79559">
        <ele>1761.3</ele>
        <time>2013-09-04T10:19:16Z</time>
      </trkpt>
      <trkpt lat="44.19283" lon="6.79566">
        <ele>1762.7</ele>
        <time>2013-09-04T10:19:31Z</time>
      </trkpt>
      <trkpt lat="44.19293" lon="6.79574">
        <ele>1765.1</ele>
        <time>2013-09-04T10:19:43Z</time>
      </trkpt>
      <trkpt lat="44.193" lon="6.79584">
        <ele>1766.6</ele>
        <time>2013-09-04T10:19:57Z</time>
      </trkpt>
      <trkpt lat="44.19305" lon="6.79592">
        <ele>1768</ele>
        <time>2013-09-04T10:20:10Z</time>
      </trkpt>
      <trkpt lat="44.19309" lon="6.79605">
        <ele>1769.9</ele>
        <time>2013-09-04T10:20:26Z</time>
      </trkpt>
      <trkpt lat="44.19313" lon="6.79614">
        <ele>1772.3</ele>
        <time>2013-09-04T10:20:38Z</time>
      </trkpt>
      <trkpt lat="44.19316" lon="6.79625">
        <ele>1773.3</ele>
        <time>2013-09-04T10:20:50Z</time>
      </trkpt>
      <trkpt lat="44.19321" lon="6.79632">
        <ele>1775.7</ele>
        <time>2013-09-04T10:21:04Z</time>
      </trkpt>
      <trkpt lat="44.19333" lon="6.79648">
        <ele>1778.6</ele>
        <time>2013-09-04T10:21:21Z</time>
      </trkpt>
      <trkpt lat="44.19339" lon="6.79661">
        <ele>1780.5</ele>
        <time>2013-09-04T10:21:37Z</time>
      </trkpt>
      <trkpt lat="44.19337" lon="6.7967">
        <ele>1782.4</ele>
        <time>2013-09-04T10:21:49Z</time>
      </trkpt>
      <trkpt lat="44.19337" lon="6.79684">
        <ele>1784.8</ele>
        <time>2013-09-04T10:22:04Z</time>
      </trkpt>
      <trkpt lat="44.19332" lon="6.79695">
        <ele>1786.3</ele>
        <time>2013-09-04T10:22:18Z</time>
      </trkpt>
      <trkpt lat="44.1933" lon="6.79707">
        <ele>1789.2</ele>
        <time>2013-09-04T10:22:35Z</time>
      </trkpt>
      <trkpt lat="44.19333" lon="6.79718">
        <ele>1791.1</ele>
        <time>2013-09-04T10:22:49Z</time>
      </trkpt>
      <trkpt lat="44.19329" lon="6.7973">
        <ele>1792.5</ele>
        <time>2013-09-04T10:22:59Z</time>
      </trkpt>
      <trkpt lat="44.19327" lon="6.79733">
        <ele>1792.5</ele>
        <time>2013-09-04T10:23:01Z</time>
      </trkpt>
      <trkpt lat="44.19324" lon="6.79742">
        <ele>1793.5</ele>
        <time>2013-09-04T10:23:14Z</time>
      </trkpt>
      <trkpt lat="44.1932" lon="6.79741">
        <ele>1793.5</ele>
        <time>2013-09-04T10:23:28Z</time>
      </trkpt>
      <trkpt lat="44.19326" lon="6.79745">
        <ele>1794</ele>
        <time>2013-09-04T10:23:52Z</time>
      </trkpt>
      <trkpt lat="44.19321" lon="6.79749">
        <ele>1795.4</ele>
        <time>2013-09-04T10:24:08Z</time>
      </trkpt>
      <trkpt lat="44.19321" lon="6.7977">
        <ele>1798.3</ele>
        <time>2013-09-04T10:24:20Z</time>
      </trkpt>
      <trkpt lat="44.1932" lon="6.79774">
        <ele>1799.2</ele>
        <time>2013-09-04T10:24:23Z</time>
      </trkpt>
      <trkpt lat="44.19314" lon="6.79784">
        <ele>1798.8</ele>
        <time>2013-09-04T10:24:30Z</time>
      </trkpt>
      <trkpt lat="44.19313" lon="6.79784">
        <ele>1801.2</ele>
        <time>2013-09-04T10:24:34Z</time>
      </trkpt>
      <trkpt lat="44.19312" lon="6.79786">
        <ele>1800.2</ele>
        <time>2013-09-04T10:24:45Z</time>
      </trkpt>
      <trkpt lat="44.19304" lon="6.79791">
        <ele>1801.2</ele>
        <time>2013-09-04T10:24:57Z</time>
      </trkpt>
      <trkpt lat="44.19304" lon="6.798">
        <ele>1803.1</ele>
        <time>2013-09-04T10:25:07Z</time>
      </trkpt>
      <trkpt lat="44.19306" lon="6.79804">
        <ele>1802.1</ele>
        <time>2013-09-04T10:25:12Z</time>
      </trkpt>
      <trkpt lat="44.19329" lon="6.79817">
        <ele>1801.7</ele>
        <time>2013-09-04T10:25:25Z</time>
      </trkpt>
      <trkpt lat="44.19346" lon="6.79827">
        <ele>1802.1</ele>
        <time>2013-09-04T10:25:35Z</time>
      </trkpt>
      <trkpt lat="44.19353" lon="6.79833">
        <ele>1803.1</ele>
        <time>2013-09-04T10:25:40Z</time>
      </trkpt>
      <trkpt lat="44.19361" lon="6.79845">
        <ele>1805</ele>
        <time>2013-09-04T10:25:51Z</time>
      </trkpt>
      <trkpt lat="44.19364" lon="6.79846">
        <ele>1804.5</ele>
        <time>2013-09-04T10:25:52Z</time>
      </trkpt>
      <trkpt lat="44.1939" lon="6.79864">
        <ele>1805.5</ele>
        <time>2013-09-04T10:26:04Z</time>
      </trkpt>
      <trkpt lat="44.19387" lon="6.79866">
        <ele>1805.5</ele>
        <time>2013-09-04T10:26:07Z</time>
      </trkpt>
      <trkpt lat="44.19382" lon="6.79868">
        <ele>1806</ele>
        <time>2013-09-04T10:26:10Z</time>
      </trkpt>
      <trkpt lat="44.19372" lon="6.79875">
        <ele>1807.9</ele>
        <time>2013-09-04T10:26:21Z</time>
      </trkpt>
      <trkpt lat="44.19369" lon="6.79886">
        <ele>1808.4</ele>
        <time>2013-09-04T10:26:33Z</time>
      </trkpt>
      <trkpt lat="44.1936" lon="6.79886">
        <ele>1810.3</ele>
        <time>2013-09-04T10:26:47Z</time>
      </trkpt>
      <trkpt lat="44.19357" lon="6.79885">
        <ele>1809.8</ele>
        <time>2013-09-04T10:26:50Z</time>
      </trkpt>
      <trkpt lat="44.19356" lon="6.79884">
        <ele>1810.8</ele>
        <time>2013-09-04T10:26:58Z</time>
      </trkpt>
      <trkpt lat="44.19357" lon="6.79883">
        <ele>1810.8</ele>
        <time>2013-09-04T10:26:59Z</time>
      </trkpt>
      <trkpt lat="44.19363" lon="6.79881">
        <ele>1810.3</ele>
        <time>2013-09-04T10:27:01Z</time>
      </trkpt>
      <trkpt lat="44.19376" lon="6.79877">
        <ele>1810.8</ele>
        <time>2013-09-04T10:27:04Z</time>
      </trkpt>
      <trkpt lat="44.19391" lon="6.79871">
        <ele>1809.8</ele>
        <time>2013-09-04T10:27:07Z</time>
      </trkpt>
      <trkpt lat="44.19401" lon="6.7987">
        <ele>1811.3</ele>
        <time>2013-09-04T10:27:10Z</time>
      </trkpt>
      <trkpt lat="44.19436" lon="6.79869">
        <ele>1813.2</ele>
        <time>2013-09-04T10:27:17Z</time>
      </trkpt>
      <trkpt lat="44.19486" lon="6.79871">
        <ele>1814.2</ele>
        <time>2013-09-04T10:27:30Z</time>
      </trkpt>
      <trkpt lat="44.19534" lon="6.79875">
        <ele>1814.6</ele>
        <time>2013-09-04T10:27:47Z</time>
      </trkpt>
      <trkpt lat="44.1956" lon="6.7988">
        <ele>1814.6</ele>
        <time>2013-09-04T10:28:00Z</time>
      </trkpt>
      <trkpt lat="44.19591" lon="6.79888">
        <ele>1815.6</ele>
        <time>2013-09-04T10:28:11Z</time>
      </trkpt>
      <trkpt lat="44.19596" lon="6.79889">
        <ele>1816.1</ele>
        <time>2013-09-04T10:28:12Z</time>
      </trkpt>
      <trkpt lat="44.19599" lon="6.7989">
        <ele>1815.6</ele>
        <time>2013-09-04T10:28:13Z</time>
      </trkpt>
      <trkpt lat="44.19604" lon="6.79892">
        <ele>1815.6</ele>
        <time>2013-09-04T10:28:14Z</time>
      </trkpt>
      <trkpt lat="44.19648" lon="6.7991">
        <ele>1817.5</ele>
        <time>2013-09-04T10:28:26Z</time>
      </trkpt>
      <trkpt lat="44.19692" lon="6.79927">
        <ele>1819.4</ele>
        <time>2013-09-04T10:28:39Z</time>
      </trkpt>
      <trkpt lat="44.19714" lon="6.79936">
        <ele>1820.9</ele>
        <time>2013-09-04T10:28:49Z</time>
      </trkpt>
      <trkpt lat="44.19712" lon="6.79936">
        <ele>1821.4</ele>
        <time>2013-09-04T10:28:50Z</time>
      </trkpt>
      <trkpt lat="44.19711" lon="6.79937">
        <ele>1821.4</ele>
        <time>2013-09-04T10:28:51Z</time>
      </trkpt>
      <trkpt lat="44.19667" lon="6.79935">
        <ele>1822.8</ele>
        <time>2013-09-04T10:29:02Z</time>
      </trkpt>
      <trkpt lat="44.1961" lon="6.79931">
        <ele>1823.8</ele>
        <time>2013-09-04T10:29:10Z</time>
      </trkpt>
      <trkpt lat="44.19511" lon="6.79919">
        <ele>1825.2</ele>
        <time>2013-09-04T10:29:20Z</time>
      </trkpt>
      <trkpt lat="44.19445" lon="6.79912">
        <ele>1826.6</ele>
        <time>2013-09-04T10:29:28Z</time>
      </trkpt>
      <trkpt lat="44.19388" lon="6.79908">
        <ele>1828.1</ele>
        <time>2013-09-04T10:29:41Z</time>
      </trkpt>
      <trkpt lat="44.19372" lon="6.79912">
        <ele>1829.5</ele>
        <time>2013-09-04T10:29:51Z</time>
      </trkpt>
      <trkpt lat="44.19372" lon="6.79914">
        <ele>1831</ele>
        <time>2013-09-04T10:29:57Z</time>
      </trkpt>
      <trkpt lat="44.19399" lon="6.79924">
        <ele>1833.4</ele>
        <time>2013-09-04T10:30:09Z</time>
      </trkpt>
      <trkpt lat="44.19395" lon="6.79925">
        <ele>1833.4</ele>
        <time>2013-09-04T10:30:13Z</time>
      </trkpt>
      <trkpt lat="44.19363" lon="6.79929">
        <ele>1834.3</ele>
        <time>2013-09-04T10:30:23Z</time>
      </trkpt>
      <trkpt lat="44.19353" lon="6.7993">
        <ele>1834.8</ele>
        <time>2013-09-04T10:30:25Z</time>
      </trkpt>
      <trkpt lat="44.19343" lon="6.79933">
        <ele>1835.3</ele>
        <time>2013-09-04T10:30:29Z</time>
      </trkpt>
      <trkpt lat="44.19352" lon="6.79935">
        <ele>1835.3</ele>
        <time>2013-09-04T10:30:31Z</time>
      </trkpt>
      <trkpt lat="44.19354" lon="6.79938">
        <ele>1835.3</ele>
        <time>2013-09-04T10:30:33Z</time>
      </trkpt>
      <trkpt lat="44.19356" lon="6.7995">
        <ele>1835.8</ele>
        <time>2013-09-04T10:30:45Z</time>
      </trkpt>
      <trkpt lat="44.19356" lon="6.79961">
        <ele>1837.2</ele>
        <time>2013-09-04T10:30:57Z</time>
      </trkpt>
      <trkpt lat="44.19355" lon="6.79963">
        <ele>1837.2</ele>
        <time>2013-09-04T10:30:58Z</time>
      </trkpt>
      <trkpt lat="44.1931" lon="6.79967">
        <ele>1838.7</ele>
        <time>2013-09-04T10:31:09Z</time>
      </trkpt>
      <trkpt lat="44.19314" lon="6.79977">
        <ele>1840.1</ele>
        <time>2013-09-04T10:31:21Z</time>
      </trkpt>
      <trkpt lat="44.19314" lon="6.7999">
        <ele>1842</ele>
        <time>2013-09-04T10:31:35Z</time>
      </trkpt>
      <trkpt lat="44.19328" lon="6.79998">
        <ele>1843.5</ele>
        <time>2013-09-04T10:31:43Z</time>
      </trkpt>
      <trkpt lat="44.19326" lon="6.80007">
        <ele>1845.4</ele>
        <time>2013-09-04T10:31:56Z</time>
      </trkpt>
      <trkpt lat="44.19319" lon="6.80011">
        <ele>1845.9</ele>
        <time>2013-09-04T10:32:03Z</time>
      </trkpt>
      <trkpt lat="44.19262" lon="6.80019">
        <ele>1846.4</ele>
        <time>2013-09-04T10:32:18Z</time>
      </trkpt>
      <trkpt lat="44.19276" lon="6.8002">
        <ele>1847.3</ele>
        <time>2013-09-04T10:32:30Z</time>
      </trkpt>
      <trkpt lat="44.19279" lon="6.80018">
        <ele>1849.2</ele>
        <time>2013-09-04T10:32:43Z</time>
      </trkpt>
      <trkpt lat="44.19275" lon="6.80016">
        <ele>1850.2</ele>
        <time>2013-09-04T10:32:51Z</time>
      </trkpt>
      <trkpt lat="44.19278" lon="6.80026">
        <ele>1852.6</ele>
        <time>2013-09-04T10:33:05Z</time>
      </trkpt>
      <trkpt lat="44.19281" lon="6.8003">
        <ele>1852.1</ele>
        <time>2013-09-04T10:33:09Z</time>
      </trkpt>
      <trkpt lat="44.19281" lon="6.80043">
        <ele>1853.1</ele>
        <time>2013-09-04T10:33:22Z</time>
      </trkpt>
      <trkpt lat="44.19282" lon="6.80045">
        <ele>1854</ele>
        <time>2013-09-04T10:33:24Z</time>
      </trkpt>
      <trkpt lat="44.1928" lon="6.80046">
        <ele>1854.5</ele>
        <time>2013-09-04T10:33:26Z</time>
      </trkpt>
      <trkpt lat="44.19277" lon="6.80049">
        <ele>1855</ele>
        <time>2013-09-04T10:33:30Z</time>
      </trkpt>
      <trkpt lat="44.19273" lon="6.80058">
        <ele>1855</ele>
        <time>2013-09-04T10:33:40Z</time>
      </trkpt>
      <trkpt lat="44.1926" lon="6.80063">
        <ele>1856.4</ele>
        <time>2013-09-04T10:33:49Z</time>
      </trkpt>
      <trkpt lat="44.19259" lon="6.80064">
        <ele>1856.9</ele>
        <time>2013-09-04T10:33:50Z</time>
      </trkpt>
      <trkpt lat="44.19256" lon="6.80066">
        <ele>1857.4</ele>
        <time>2013-09-04T10:33:54Z</time>
      </trkpt>
      <trkpt lat="44.1926" lon="6.80067">
        <ele>1858.4</ele>
        <time>2013-09-04T10:34:04Z</time>
      </trkpt>
      <trkpt lat="44.19265" lon="6.80068">
        <ele>1857.9</ele>
        <time>2013-09-04T10:34:15Z</time>
      </trkpt>
      <trkpt lat="44.19268" lon="6.80067">
        <ele>1858.4</ele>
        <time>2013-09-04T10:34:24Z</time>
      </trkpt>
      <trkpt lat="44.19267" lon="6.80065">
        <ele>1857.9</ele>
        <time>2013-09-04T10:34:25Z</time>
      </trkpt>
      <trkpt lat="44.19254" lon="6.80045">
        <ele>1858.4</ele>
        <time>2013-09-04T10:34:34Z</time>
      </trkpt>
      <trkpt lat="44.19251" lon="6.80037">
        <ele>1859.3</ele>
        <time>2013-09-04T10:34:38Z</time>
      </trkpt>
      <trkpt lat="44.19233" lon="6.80013">
        <ele>1859.8</ele>
        <time>2013-09-04T10:34:48Z</time>
      </trkpt>
      <trkpt lat="44.19224" lon="6.80005">
        <ele>1860.3</ele>
        <time>2013-09-04T10:34:51Z</time>
      </trkpt>
      <trkpt lat="44.19204" lon="6.79979">
        <ele>1861.7</ele>
        <time>2013-09-04T10:35:01Z</time>
      </trkpt>
      <trkpt lat="44.19202" lon="6.79977">
        <ele>1861.3</ele>
        <time>2013-09-04T10:35:02Z</time>
      </trkpt>
      <trkpt lat="44.19173" lon="6.79957">
        <ele>1863.2</ele>
        <time>2013-09-04T10:35:11Z</time>
      </trkpt>
      <trkpt lat="44.19167" lon="6.79952">
        <ele>1863.7</ele>
        <time>2013-09-04T10:35:14Z</time>
      </trkpt>
      <trkpt lat="44.19164" lon="6.79941">
        <ele>1864.6</ele>
        <time>2013-09-04T10:35:20Z</time>
      </trkpt>
      <trkpt lat="44.19168" lon="6.7993">
        <ele>1866.1</ele>
        <time>2013-09-04T10:35:28Z</time>
      </trkpt>
      <trkpt lat="44.19168" lon="6.79921">
        <ele>1867.5</ele>
        <time>2013-09-04T10:35:34Z</time>
      </trkpt>
      <trkpt lat="44.1917" lon="6.79905">
        <ele>1868.9</ele>
        <time>2013-09-04T10:35:43Z</time>
      </trkpt>
      <trkpt lat="44.19172" lon="6.79891">
        <ele>1871.3</ele>
        <time>2013-09-04T10:35:53Z</time>
      </trkpt>
      <trkpt lat="44.19172" lon="6.79886">
        <ele>1872.3</ele>
        <time>2013-09-04T10:35:56Z</time>
      </trkpt>
      <trkpt lat="44.1917" lon="6.79873">
        <ele>1874.7</ele>
        <time>2013-09-04T10:36:05Z</time>
      </trkpt>
      <trkpt lat="44.19169" lon="6.79857">
        <ele>1875.7</ele>
        <time>2013-09-04T10:36:15Z</time>
      </trkpt>
      <trkpt lat="44.19169" lon="6.79855">
        <ele>1876.2</ele>
        <time>2013-09-04T10:36:17Z</time>
      </trkpt>
      <trkpt lat="44.19167" lon="6.79847">
        <ele>1876.6</ele>
        <time>2013-09-04T10:36:20Z</time>
      </trkpt>
      <trkpt lat="44.19167" lon="6.79844">
        <ele>1877.1</ele>
        <time>2013-09-04T10:36:22Z</time>
      </trkpt>
      <trkpt lat="44.19156" lon="6.7982">
        <ele>1879.5</ele>
        <time>2013-09-04T10:36:34Z</time>
      </trkpt>
      <trkpt lat="44.19153" lon="6.79808">
        <ele>1880.5</ele>
        <time>2013-09-04T10:36:48Z</time>
      </trkpt>
      <trkpt lat="44.19151" lon="6.79805">
        <ele>1882.4</ele>
        <time>2013-09-04T10:37:08Z</time>
      </trkpt>
      <trkpt lat="44.19144" lon="6.79796">
        <ele>1884.3</ele>
        <time>2013-09-04T10:37:23Z</time>
      </trkpt>
      <trkpt lat="44.19142" lon="6.79788">
        <ele>1884.8</ele>
        <time>2013-09-04T10:37:37Z</time>
      </trkpt>
      <trkpt lat="44.1914" lon="6.79783">
        <ele>1886.2</ele>
        <time>2013-09-04T10:37:44Z</time>
      </trkpt>
      <trkpt lat="44.19139" lon="6.79785">
        <ele>1887.2</ele>
        <time>2013-09-04T10:37:46Z</time>
      </trkpt>
      <trkpt lat="44.19138" lon="6.79792">
        <ele>1888.2</ele>
        <time>2013-09-04T10:37:51Z</time>
      </trkpt>
      <trkpt lat="44.19132" lon="6.79814">
        <ele>1889.6</ele>
        <time>2013-09-04T10:38:04Z</time>
      </trkpt>
      <trkpt lat="44.19136" lon="6.79819">
        <ele>1892.5</ele>
        <time>2013-09-04T10:38:11Z</time>
      </trkpt>
      <trkpt lat="44.19134" lon="6.79822">
        <ele>1891.1</ele>
        <time>2013-09-04T10:38:28Z</time>
      </trkpt>
      <trkpt lat="44.1913" lon="6.79827">
        <ele>1892.5</ele>
        <time>2013-09-04T10:38:42Z</time>
      </trkpt>
      <trkpt lat="44.19127" lon="6.79842">
        <ele>1893.9</ele>
        <time>2013-09-04T10:38:57Z</time>
      </trkpt>
      <trkpt lat="44.19129" lon="6.79853">
        <ele>1895.9</ele>
        <time>2013-09-04T10:39:09Z</time>
      </trkpt>
      <trkpt lat="44.1913" lon="6.79862">
        <ele>1896.8</ele>
        <time>2013-09-04T10:39:26Z</time>
      </trkpt>
      <trkpt lat="44.19128" lon="6.79876">
        <ele>1898.7</ele>
        <time>2013-09-04T10:39:42Z</time>
      </trkpt>
      <trkpt lat="44.19125" lon="6.79887">
        <ele>1900.7</ele>
        <time>2013-09-04T10:39:59Z</time>
      </trkpt>
      <trkpt lat="44.1912" lon="6.79896">
        <ele>1901.6</ele>
        <time>2013-09-04T10:40:13Z</time>
      </trkpt>
      <trkpt lat="44.19112" lon="6.79914">
        <ele>1903.6</ele>
        <time>2013-09-04T10:40:29Z</time>
      </trkpt>
      <trkpt lat="44.19106" lon="6.79927">
        <ele>1905.5</ele>
        <time>2013-09-04T10:40:41Z</time>
      </trkpt>
      <trkpt lat="44.19101" lon="6.79938">
        <ele>1906.9</ele>
        <time>2013-09-04T10:40:53Z</time>
      </trkpt>
      <trkpt lat="44.191" lon="6.79943">
        <ele>1908.4</ele>
        <time>2013-09-04T10:41:05Z</time>
      </trkpt>
      <trkpt lat="44.19099" lon="6.79945">
        <ele>1908.4</ele>
        <time>2013-09-04T10:41:07Z</time>
      </trkpt>
      <trkpt lat="44.19095" lon="6.79954">
        <ele>1910.3</ele>
        <time>2013-09-04T10:41:20Z</time>
      </trkpt>
      <trkpt lat="44.19092" lon="6.79962">
        <ele>1912.2</ele>
        <time>2013-09-04T10:41:33Z</time>
      </trkpt>
      <trkpt lat="44.19092" lon="6.79966">
        <ele>1913.6</ele>
        <time>2013-09-04T10:41:47Z</time>
      </trkpt>
      <trkpt lat="44.19093" lon="6.79965">
        <ele>1913.2</ele>
        <time>2013-09-04T10:42:00Z</time>
      </trkpt>
      <trkpt lat="44.19093" lon="6.79965">
        <ele>1913.2</ele>
        <time>2013-09-04T10:42:02Z</time>
      </trkpt>
      <trkpt lat="44.19073" lon="6.79949">
        <ele>1916</ele>
        <time>2013-09-04T10:42:16Z</time>
      </trkpt>
      <trkpt lat="44.19074" lon="6.79947">
        <ele>1916.5</ele>
        <time>2013-09-04T10:42:17Z</time>
      </trkpt>
      <trkpt lat="44.19075" lon="6.79937">
        <ele>1918</ele>
        <time>2013-09-04T10:42:26Z</time>
      </trkpt>
      <trkpt lat="44.19076" lon="6.79934">
        <ele>1918.5</ele>
        <time>2013-09-04T10:42:28Z</time>
      </trkpt>
      <trkpt lat="44.19076" lon="6.79927">
        <ele>1919.4</ele>
        <time>2013-09-04T10:42:32Z</time>
      </trkpt>
      <trkpt lat="44.19073" lon="6.79913">
        <ele>1920.9</ele>
        <time>2013-09-04T10:42:41Z</time>
      </trkpt>
      <trkpt lat="44.1907" lon="6.79905">
        <ele>1921.8</ele>
        <time>2013-09-04T10:42:45Z</time>
      </trkpt>
      <trkpt lat="44.19063" lon="6.79896">
        <ele>1923.3</ele>
        <time>2013-09-04T10:43:01Z</time>
      </trkpt>
      <trkpt lat="44.19059" lon="6.79891">
        <ele>1923.7</ele>
        <time>2013-09-04T10:43:20Z</time>
      </trkpt>
      <trkpt lat="44.19054" lon="6.79881">
        <ele>1925.2</ele>
        <time>2013-09-04T10:43:34Z</time>
      </trkpt>
      <trkpt lat="44.19049" lon="6.79873">
        <ele>1926.1</ele>
        <time>2013-09-04T10:43:45Z</time>
      </trkpt>
      <trkpt lat="44.19045" lon="6.79863">
        <ele>1927.1</ele>
        <time>2013-09-04T10:43:57Z</time>
      </trkpt>
      <trkpt lat="44.19044" lon="6.79864">
        <ele>1928.1</ele>
        <time>2013-09-04T10:44:10Z</time>
      </trkpt>
      <trkpt lat="44.19041" lon="6.79857">
        <ele>1928.5</ele>
        <time>2013-09-04T10:44:22Z</time>
      </trkpt>
      <trkpt lat="44.19038" lon="6.79844">
        <ele>1931</ele>
        <time>2013-09-04T10:44:38Z</time>
      </trkpt>
      <trkpt lat="44.19036" lon="6.79842">
        <ele>1931.4</ele>
        <time>2013-09-04T10:44:42Z</time>
      </trkpt>
      <trkpt lat="44.19032" lon="6.79827">
        <ele>1932.4</ele>
        <time>2013-09-04T10:44:55Z</time>
      </trkpt>
      <trkpt lat="44.19028" lon="6.79818">
        <ele>1934.3</ele>
        <time>2013-09-04T10:45:06Z</time>
      </trkpt>
      <trkpt lat="44.19022" lon="6.79809">
        <ele>1935.8</ele>
        <time>2013-09-04T10:45:20Z</time>
      </trkpt>
      <trkpt lat="44.19017" lon="6.79799">
        <ele>1936.2</ele>
        <time>2013-09-04T10:45:30Z</time>
      </trkpt>
      <trkpt lat="44.1901" lon="6.79785">
        <ele>1936.2</ele>
        <time>2013-09-04T10:45:42Z</time>
      </trkpt>
      <trkpt lat="44.19003" lon="6.79778">
        <ele>1937.2</ele>
        <time>2013-09-04T10:45:50Z</time>
      </trkpt>
      <trkpt lat="44.18998" lon="6.79768">
        <ele>1939.1</ele>
        <time>2013-09-04T10:46:04Z</time>
      </trkpt>
      <trkpt lat="44.18991" lon="6.79764">
        <ele>1941</ele>
        <time>2013-09-04T10:46:16Z</time>
      </trkpt>
      <trkpt lat="44.18983" lon="6.79757">
        <ele>1943</ele>
        <time>2013-09-04T10:46:30Z</time>
      </trkpt>
      <trkpt lat="44.18975" lon="6.7975">
        <ele>1944.4</ele>
        <time>2013-09-04T10:46:43Z</time>
      </trkpt>
      <trkpt lat="44.18973" lon="6.79747">
        <ele>1945.4</ele>
        <time>2013-09-04T10:46:51Z</time>
      </trkpt>
      <trkpt lat="44.18965" lon="6.79739">
        <ele>1947.3</ele>
        <time>2013-09-04T10:47:05Z</time>
      </trkpt>
      <trkpt lat="44.18959" lon="6.79732">
        <ele>1949.2</ele>
        <time>2013-09-04T10:47:21Z</time>
      </trkpt>
      <trkpt lat="44.18955" lon="6.79726">
        <ele>1951.1</ele>
        <time>2013-09-04T10:47:37Z</time>
      </trkpt>
      <trkpt lat="44.18947" lon="6.79716">
        <ele>1953.5</ele>
        <time>2013-09-04T10:47:53Z</time>
      </trkpt>
      <trkpt lat="44.18945" lon="6.79712">
        <ele>1955.5</ele>
        <time>2013-09-04T10:48:07Z</time>
      </trkpt>
      <trkpt lat="44.18947" lon="6.79718">
        <ele>1956.4</ele>
        <time>2013-09-04T10:48:15Z</time>
      </trkpt>
      <trkpt lat="44.1895" lon="6.79722">
        <ele>1956.9</ele>
        <time>2013-09-04T10:48:20Z</time>
      </trkpt>
      <trkpt lat="44.18956" lon="6.79735">
        <ele>1958.3</ele>
        <time>2013-09-04T10:48:36Z</time>
      </trkpt>
      <trkpt lat="44.18957" lon="6.79749">
        <ele>1959.8</ele>
        <time>2013-09-04T10:48:48Z</time>
      </trkpt>
      <trkpt lat="44.18958" lon="6.79767">
        <ele>1960.8</ele>
        <time>2013-09-04T10:49:01Z</time>
      </trkpt>
      <trkpt lat="44.18959" lon="6.79783">
        <ele>1961.7</ele>
        <time>2013-09-04T10:49:16Z</time>
      </trkpt>
      <trkpt lat="44.18964" lon="6.79792">
        <ele>1963.2</ele>
        <time>2013-09-04T10:49:27Z</time>
      </trkpt>
      <trkpt lat="44.18959" lon="6.79803">
        <ele>1964.1</ele>
        <time>2013-09-04T10:49:37Z</time>
      </trkpt>
      <trkpt lat="44.18956" lon="6.79816">
        <ele>1965.1</ele>
        <time>2013-09-04T10:49:49Z</time>
      </trkpt>
      <trkpt lat="44.18954" lon="6.79829">
        <ele>1966</ele>
        <time>2013-09-04T10:50:03Z</time>
      </trkpt>
      <trkpt lat="44.18953" lon="6.79844">
        <ele>1967.5</ele>
        <time>2013-09-04T10:50:17Z</time>
      </trkpt>
      <trkpt lat="44.18952" lon="6.7985">
        <ele>1967</ele>
        <time>2013-09-04T10:50:29Z</time>
      </trkpt>
      <trkpt lat="44.18948" lon="6.79855">
        <ele>1968.4</ele>
        <time>2013-09-04T10:50:49Z</time>
      </trkpt>
      <trkpt lat="44.1895" lon="6.79865">
        <ele>1968.9</ele>
        <time>2013-09-04T10:51:05Z</time>
      </trkpt>
      <trkpt lat="44.1895" lon="6.79873">
        <ele>1968.9</ele>
        <time>2013-09-04T10:51:21Z</time>
      </trkpt>
      <trkpt lat="44.1895" lon="6.79874">
        <ele>1968.9</ele>
        <time>2013-09-04T10:51:23Z</time>
      </trkpt>
      <trkpt lat="44.18955" lon="6.7989">
        <ele>1970.4</ele>
        <time>2013-09-04T10:51:34Z</time>
      </trkpt>
      <trkpt lat="44.18956" lon="6.79896">
        <ele>1971.8</ele>
        <time>2013-09-04T10:51:37Z</time>
      </trkpt>
      <trkpt lat="44.18955" lon="6.79911">
        <ele>1973.2</ele>
        <time>2013-09-04T10:51:45Z</time>
      </trkpt>
      <trkpt lat="44.18949" lon="6.79915">
        <ele>1973.2</ele>
        <time>2013-09-04T10:51:57Z</time>
      </trkpt>
      <trkpt lat="44.18951" lon="6.79917">
        <ele>1973.2</ele>
        <time>2013-09-04T10:52:17Z</time>
      </trkpt>
      <trkpt lat="44.18947" lon="6.79923">
        <ele>1973.7</ele>
        <time>2013-09-04T10:52:34Z</time>
      </trkpt>
      <trkpt lat="44.18944" lon="6.79936">
        <ele>1975.2</ele>
        <time>2013-09-04T10:52:49Z</time>
      </trkpt>
      <trkpt lat="44.18941" lon="6.79944">
        <ele>1976.6</ele>
        <time>2013-09-04T10:53:07Z</time>
      </trkpt>
      <trkpt lat="44.18938" lon="6.79957">
        <ele>1978.1</ele>
        <time>2013-09-04T10:53:20Z</time>
      </trkpt>
      <trkpt lat="44.18929" lon="6.79959">
        <ele>1978.5</ele>
        <time>2013-09-04T10:53:37Z</time>
      </trkpt>
      <trkpt lat="44.18929" lon="6.79972">
        <ele>1979.5</ele>
        <time>2013-09-04T10:53:51Z</time>
      </trkpt>
      <trkpt lat="44.18933" lon="6.7998">
        <ele>1981.4</ele>
        <time>2013-09-04T10:54:03Z</time>
      </trkpt>
      <trkpt lat="44.18937" lon="6.7999">
        <ele>1982.9</ele>
        <time>2013-09-04T10:54:15Z</time>
      </trkpt>
      <trkpt lat="44.18937" lon="6.80002">
        <ele>1984.3</ele>
        <time>2013-09-04T10:54:26Z</time>
      </trkpt>
      <trkpt lat="44.18938" lon="6.80006">
        <ele>1984.3</ele>
        <time>2013-09-04T10:54:30Z</time>
      </trkpt>
      <trkpt lat="44.18939" lon="6.80009">
        <ele>1984.8</ele>
        <time>2013-09-04T10:54:35Z</time>
      </trkpt>
      <trkpt lat="44.18937" lon="6.8002">
        <ele>1985.7</ele>
        <time>2013-09-04T10:54:44Z</time>
      </trkpt>
      <trkpt lat="44.18936" lon="6.80038">
        <ele>1986.7</ele>
        <time>2013-09-04T10:54:58Z</time>
      </trkpt>
      <trkpt lat="44.18937" lon="6.80039">
        <ele>1986.7</ele>
        <time>2013-09-04T10:54:59Z</time>
      </trkpt>
      <trkpt lat="44.18942" lon="6.80054">
        <ele>1988.1</ele>
        <time>2013-09-04T10:55:13Z</time>
      </trkpt>
      <trkpt lat="44.1894" lon="6.80057">
        <ele>1988.6</ele>
        <time>2013-09-04T10:55:15Z</time>
      </trkpt>
      <trkpt lat="44.18937" lon="6.80068">
        <ele>1989.6</ele>
        <time>2013-09-04T10:55:28Z</time>
      </trkpt>
      <trkpt lat="44.18935" lon="6.80074">
        <ele>1990.6</ele>
        <time>2013-09-04T10:55:39Z</time>
      </trkpt>
      <trkpt lat="44.18933" lon="6.80082">
        <ele>1991.5</ele>
        <time>2013-09-04T10:55:54Z</time>
      </trkpt>
      <trkpt lat="44.18934" lon="6.80085">
        <ele>1991</ele>
        <time>2013-09-04T10:56:08Z</time>
      </trkpt>
      <trkpt lat="44.18937" lon="6.80094">
        <ele>1991</ele>
        <time>2013-09-04T10:56:35Z</time>
      </trkpt>
      <trkpt lat="44.18944" lon="6.80096">
        <ele>1992</ele>
        <time>2013-09-04T10:56:53Z</time>
      </trkpt>
      <trkpt lat="44.18945" lon="6.80097">
        <ele>1991</ele>
        <time>2013-09-04T10:56:55Z</time>
      </trkpt>
      <trkpt lat="44.18954" lon="6.80104">
        <ele>1991.5</ele>
        <time>2013-09-04T10:57:08Z</time>
      </trkpt>
      <trkpt lat="44.18958" lon="6.8012">
        <ele>1993.4</ele>
        <time>2013-09-04T10:57:22Z</time>
      </trkpt>
      <trkpt lat="44.1896" lon="6.80124">
        <ele>1993.9</ele>
        <time>2013-09-04T10:57:24Z</time>
      </trkpt>
      <trkpt lat="44.18971" lon="6.8014">
        <ele>1994.9</ele>
        <time>2013-09-04T10:57:37Z</time>
      </trkpt>
      <trkpt lat="44.18979" lon="6.80148">
        <ele>1995.4</ele>
        <time>2013-09-04T10:57:51Z</time>
      </trkpt>
      <trkpt lat="44.18983" lon="6.80154">
        <ele>1994.9</ele>
        <time>2013-09-04T10:57:56Z</time>
      </trkpt>
      <trkpt lat="44.18983" lon="6.8016">
        <ele>1995.4</ele>
        <time>2013-09-04T10:57:59Z</time>
      </trkpt>
      <trkpt lat="44.18985" lon="6.80167">
        <ele>1996.3</ele>
        <time>2013-09-04T10:58:03Z</time>
      </trkpt>
      <trkpt lat="44.18986" lon="6.80175">
        <ele>1996.3</ele>
        <time>2013-09-04T10:58:07Z</time>
      </trkpt>
      <trkpt lat="44.18992" lon="6.80184">
        <ele>1996.3</ele>
        <time>2013-09-04T10:58:12Z</time>
      </trkpt>
      <trkpt lat="44.18991" lon="6.8019">
        <ele>1997.3</ele>
        <time>2013-09-04T10:58:14Z</time>
      </trkpt>
      <trkpt lat="44.18995" lon="6.80217">
        <ele>1998.7</ele>
        <time>2013-09-04T10:58:26Z</time>
      </trkpt>
      <trkpt lat="44.18996" lon="6.80229">
        <ele>1998.7</ele>
        <time>2013-09-04T10:58:31Z</time>
      </trkpt>
      <trkpt lat="44.18997" lon="6.80236">
        <ele>1999.2</ele>
        <time>2013-09-04T10:58:35Z</time>
      </trkpt>
      <trkpt lat="44.19002" lon="6.80271">
        <ele>2001.1</ele>
        <time>2013-09-04T10:58:51Z</time>
      </trkpt>
      <trkpt lat="44.19007" lon="6.803">
        <ele>2002.1</ele>
        <time>2013-09-04T10:59:05Z</time>
      </trkpt>
      <trkpt lat="44.1901" lon="6.80318">
        <ele>2002.1</ele>
        <time>2013-09-04T10:59:12Z</time>
      </trkpt>
      <trkpt lat="44.19011" lon="6.80321">
        <ele>2001.6</ele>
        <time>2013-09-04T10:59:13Z</time>
      </trkpt>
      <trkpt lat="44.19011" lon="6.80324">
        <ele>2001.1</ele>
        <time>2013-09-04T10:59:14Z</time>
      </trkpt>
      <trkpt lat="44.19011" lon="6.80327">
        <ele>2001.1</ele>
        <time>2013-09-04T10:59:15Z</time>
      </trkpt>
      <trkpt lat="44.19011" lon="6.8033">
        <ele>2001.1</ele>
        <time>2013-09-04T10:59:16Z</time>
      </trkpt>
      <trkpt lat="44.19011" lon="6.80333">
        <ele>2000.6</ele>
        <time>2013-09-04T10:59:17Z</time>
      </trkpt>
      <trkpt lat="44.19011" lon="6.80336">
        <ele>2001.6</ele>
        <time>2013-09-04T10:59:18Z</time>
      </trkpt>
      <trkpt lat="44.19011" lon="6.80339">
        <ele>2000.6</ele>
        <time>2013-09-04T10:59:19Z</time>
      </trkpt>
      <trkpt lat="44.19012" lon="6.80341">
        <ele>2000.6</ele>
        <time>2013-09-04T10:59:20Z</time>
      </trkpt>
      <trkpt lat="44.19012" lon="6.80344">
        <ele>2001.1</ele>
        <time>2013-09-04T10:59:21Z</time>
      </trkpt>
      <trkpt lat="44.19015" lon="6.80362">
        <ele>2000.6</ele>
        <time>2013-09-04T10:59:28Z</time>
      </trkpt>
      <trkpt lat="44.1902" lon="6.80395">
        <ele>1999.7</ele>
        <time>2013-09-04T10:59:39Z</time>
      </trkpt>
      <trkpt lat="44.19019" lon="6.80427">
        <ele>2000.2</ele>
        <time>2013-09-04T10:59:51Z</time>
      </trkpt>
      <trkpt lat="44.19018" lon="6.80429">
        <ele>2000.2</ele>
        <time>2013-09-04T11:00:07Z</time>
      </trkpt>
      <trkpt lat="44.19003" lon="6.80452">
        <ele>2000.2</ele>
        <time>2013-09-04T11:00:19Z</time>
      </trkpt>
      <trkpt lat="44.18991" lon="6.80472">
        <ele>2001.1</ele>
        <time>2013-09-04T11:00:28Z</time>
      </trkpt>
      <trkpt lat="44.18987" lon="6.80481">
        <ele>2001.6</ele>
        <time>2013-09-04T11:00:33Z</time>
      </trkpt>
      <trkpt lat="44.18982" lon="6.80488">
        <ele>2002.1</ele>
        <time>2013-09-04T11:00:38Z</time>
      </trkpt>
      <trkpt lat="44.1897" lon="6.805">
        <ele>2002.6</ele>
        <time>2013-09-04T11:00:46Z</time>
      </trkpt>
      <trkpt lat="44.18969" lon="6.80503">
        <ele>2002.6</ele>
        <time>2013-09-04T11:00:47Z</time>
      </trkpt>
      <trkpt lat="44.18972" lon="6.8051">
        <ele>2003.5</ele>
        <time>2013-09-04T11:00:51Z</time>
      </trkpt>
      <trkpt lat="44.18971" lon="6.80519">
        <ele>2003.5</ele>
        <time>2013-09-04T11:00:55Z</time>
      </trkpt>
      <trkpt lat="44.18949" lon="6.80542">
        <ele>2003</ele>
        <time>2013-09-04T11:01:07Z</time>
      </trkpt>
      <trkpt lat="44.1894" lon="6.80554">
        <ele>2002.6</ele>
        <time>2013-09-04T11:01:15Z</time>
      </trkpt>
      <trkpt lat="44.18936" lon="6.80565">
        <ele>2003</ele>
        <time>2013-09-04T11:01:29Z</time>
      </trkpt>
      <trkpt lat="44.18943" lon="6.80571">
        <ele>2001.1</ele>
        <time>2013-09-04T11:01:45Z</time>
      </trkpt>
      <trkpt lat="44.18941" lon="6.80575">
        <ele>2000.2</ele>
        <time>2013-09-04T11:01:57Z</time>
      </trkpt>
      <trkpt lat="44.18942" lon="6.80575">
        <ele>2000.6</ele>
        <time>2013-09-04T11:02:10Z</time>
      </trkpt>
      <trkpt lat="44.18947" lon="6.80584">
        <ele>2001.6</ele>
        <time>2013-09-04T11:02:25Z</time>
      </trkpt>
      <trkpt lat="44.18953" lon="6.80592">
        <ele>2002.6</ele>
        <time>2013-09-04T11:02:41Z</time>
      </trkpt>
      <trkpt lat="44.18952" lon="6.80604">
        <ele>2005</ele>
        <time>2013-09-04T11:02:57Z</time>
      </trkpt>
      <trkpt lat="44.18949" lon="6.80611">
        <ele>2004.5</ele>
        <time>2013-09-04T11:03:11Z</time>
      </trkpt>
      <trkpt lat="44.1895" lon="6.80614">
        <ele>2005</ele>
        <time>2013-09-04T11:03:15Z</time>
      </trkpt>
      <trkpt lat="44.18949" lon="6.80624">
        <ele>2004.5</ele>
        <time>2013-09-04T11:03:28Z</time>
      </trkpt>
      <trkpt lat="44.18949" lon="6.80629">
        <ele>2005.9</ele>
        <time>2013-09-04T11:03:41Z</time>
      </trkpt>
      <trkpt lat="44.18952" lon="6.80644">
        <ele>2007.9</ele>
        <time>2013-09-04T11:03:57Z</time>
      </trkpt>
      <trkpt lat="44.18954" lon="6.80651">
        <ele>2007.9</ele>
        <time>2013-09-04T11:04:09Z</time>
      </trkpt>
      <trkpt lat="44.18958" lon="6.80665">
        <ele>2008.8</ele>
        <time>2013-09-04T11:04:18Z</time>
      </trkpt>
      <trkpt lat="44.18961" lon="6.80679">
        <ele>2007.9</ele>
        <time>2013-09-04T11:04:29Z</time>
      </trkpt>
      <trkpt lat="44.18964" lon="6.80683">
        <ele>2007.9</ele>
        <time>2013-09-04T11:04:32Z</time>
      </trkpt>
      <trkpt lat="44.18971" lon="6.80698">
        <ele>2008.8</ele>
        <time>2013-09-04T11:04:43Z</time>
      </trkpt>
      <trkpt lat="44.18982" lon="6.80716">
        <ele>2008.3</ele>
        <time>2013-09-04T11:04:58Z</time>
      </trkpt>
      <trkpt lat="44.18988" lon="6.80737">
        <ele>2009.3</ele>
        <time>2013-09-04T11:05:12Z</time>
      </trkpt>
      <trkpt lat="44.18995" lon="6.80754">
        <ele>2009.3</ele>
        <time>2013-09-04T11:05:27Z</time>
      </trkpt>
      <trkpt lat="44.18995" lon="6.80765">
        <ele>2008.8</ele>
        <time>2013-09-04T11:05:35Z</time>
      </trkpt>
      <trkpt lat="44.18996" lon="6.80778">
        <ele>2007.9</ele>
        <time>2013-09-04T11:05:49Z</time>
      </trkpt>
      <trkpt lat="44.18999" lon="6.80785">
        <ele>2006.9</ele>
        <time>2013-09-04T11:06:04Z</time>
      </trkpt>
      <trkpt lat="44.19008" lon="6.80807">
        <ele>2005.5</ele>
        <time>2013-09-04T11:06:12Z</time>
      </trkpt>
      <trkpt lat="44.19008" lon="6.8081">
        <ele>2004</ele>
        <time>2013-09-04T11:06:13Z</time>
      </trkpt>
      <trkpt lat="44.19007" lon="6.80826">
        <ele>2003.5</ele>
        <time>2013-09-04T11:06:24Z</time>
      </trkpt>
      <trkpt lat="44.19003" lon="6.80825">
        <ele>2005.5</ele>
        <time>2013-09-04T11:06:42Z</time>
      </trkpt>
      <trkpt lat="44.19001" lon="6.80824">
        <ele>2003.5</ele>
        <time>2013-09-04T11:06:43Z</time>
      </trkpt>
      <trkpt lat="44.1901" lon="6.8085">
        <ele>2001.6</ele>
        <time>2013-09-04T11:06:55Z</time>
      </trkpt>
      <trkpt lat="44.19012" lon="6.80855">
        <ele>2001.1</ele>
        <time>2013-09-04T11:06:56Z</time>
      </trkpt>
      <trkpt lat="44.19015" lon="6.8086">
        <ele>2000.6</ele>
        <time>2013-09-04T11:06:57Z</time>
      </trkpt>
      <trkpt lat="44.19019" lon="6.80865">
        <ele>2000.6</ele>
        <time>2013-09-04T11:06:58Z</time>
      </trkpt>
      <trkpt lat="44.19021" lon="6.80868">
        <ele>2001.1</ele>
        <time>2013-09-04T11:06:59Z</time>
      </trkpt>
      <trkpt lat="44.19023" lon="6.80872">
        <ele>2000.6</ele>
        <time>2013-09-04T11:07:00Z</time>
      </trkpt>
      <trkpt lat="44.19023" lon="6.80881">
        <ele>2000.2</ele>
        <time>2013-09-04T11:07:03Z</time>
      </trkpt>
      <trkpt lat="44.19024" lon="6.80883">
        <ele>1999.7</ele>
        <time>2013-09-04T11:07:04Z</time>
      </trkpt>
      <trkpt lat="44.19033" lon="6.80887">
        <ele>1999.2</ele>
        <time>2013-09-04T11:07:15Z</time>
      </trkpt>
      <trkpt lat="44.19034" lon="6.80892">
        <ele>1998.7</ele>
        <time>2013-09-04T11:07:30Z</time>
      </trkpt>
      <trkpt lat="44.19034" lon="6.80891">
        <ele>1999.7</ele>
        <time>2013-09-04T11:07:43Z</time>
      </trkpt>
      <trkpt lat="44.19039" lon="6.80885">
        <ele>2001.6</ele>
        <time>2013-09-04T11:07:58Z</time>
      </trkpt>
      <trkpt lat="44.19037" lon="6.80892">
        <ele>2003</ele>
        <time>2013-09-04T11:08:14Z</time>
      </trkpt>
      <trkpt lat="44.19035" lon="6.80903">
        <ele>2005.5</ele>
        <time>2013-09-04T11:08:30Z</time>
      </trkpt>
      <trkpt lat="44.19035" lon="6.80909">
        <ele>2005.9</ele>
        <time>2013-09-04T11:08:44Z</time>
      </trkpt>
      <trkpt lat="44.19033" lon="6.80917">
        <ele>2007.4</ele>
        <time>2013-09-04T11:08:57Z</time>
      </trkpt>
      <trkpt lat="44.19034" lon="6.8093">
        <ele>2008.8</ele>
        <time>2013-09-04T11:09:11Z</time>
      </trkpt>
      <trkpt lat="44.19033" lon="6.80936">
        <ele>2009.3</ele>
        <time>2013-09-04T11:09:16Z</time>
      </trkpt>
      <trkpt lat="44.1903" lon="6.8096">
        <ele>2010.7</ele>
        <time>2013-09-04T11:09:34Z</time>
      </trkpt>
      <trkpt lat="44.19044" lon="6.80976">
        <ele>2012.7</ele>
        <time>2013-09-04T11:09:50Z</time>
      </trkpt>
      <trkpt lat="44.19051" lon="6.80984">
        <ele>2013.6</ele>
        <time>2013-09-04T11:10:00Z</time>
      </trkpt>
      <trkpt lat="44.19061" lon="6.80991">
        <ele>2015.1</ele>
        <time>2013-09-04T11:10:14Z</time>
      </trkpt>
      <trkpt lat="44.19062" lon="6.80992">
        <ele>2014.6</ele>
        <time>2013-09-04T11:10:15Z</time>
      </trkpt>
      <trkpt lat="44.19077" lon="6.80994">
        <ele>2017</ele>
        <time>2013-09-04T11:10:33Z</time>
      </trkpt>
      <trkpt lat="44.19088" lon="6.81004">
        <ele>2017.9</ele>
        <time>2013-09-04T11:10:50Z</time>
      </trkpt>
      <trkpt lat="44.19088" lon="6.81018">
        <ele>2018.4</ele>
        <time>2013-09-04T11:11:04Z</time>
      </trkpt>
      <trkpt lat="44.19089" lon="6.8102">
        <ele>2018.4</ele>
        <time>2013-09-04T11:11:05Z</time>
      </trkpt>
      <trkpt lat="44.19089" lon="6.81022">
        <ele>2018.4</ele>
        <time>2013-09-04T11:11:06Z</time>
      </trkpt>
      <trkpt lat="44.19094" lon="6.81035">
        <ele>2020.8</ele>
        <time>2013-09-04T11:11:22Z</time>
      </trkpt>
      <trkpt lat="44.19096" lon="6.81043">
        <ele>2021.3</ele>
        <time>2013-09-04T11:11:29Z</time>
      </trkpt>
      <trkpt lat="44.19097" lon="6.81046">
        <ele>2021.3</ele>
        <time>2013-09-04T11:11:31Z</time>
      </trkpt>
      <trkpt lat="44.19097" lon="6.81048">
        <ele>2020.8</ele>
        <time>2013-09-04T11:11:32Z</time>
      </trkpt>
      <trkpt lat="44.19098" lon="6.81053">
        <ele>2021.8</ele>
        <time>2013-09-04T11:11:46Z</time>
      </trkpt>
      <trkpt lat="44.19096" lon="6.81052">
        <ele>2021.8</ele>
        <time>2013-09-04T11:12:08Z</time>
      </trkpt>
      <trkpt lat="44.19099" lon="6.81066">
        <ele>2022.8</ele>
        <time>2013-09-04T11:12:21Z</time>
      </trkpt>
      <trkpt lat="44.191" lon="6.81073">
        <ele>2023.7</ele>
        <time>2013-09-04T11:12:27Z</time>
      </trkpt>
      <trkpt lat="44.19094" lon="6.81092">
        <ele>2024.7</ele>
        <time>2013-09-04T11:12:42Z</time>
      </trkpt>
      <trkpt lat="44.19091" lon="6.81117">
        <ele>2025.6</ele>
        <time>2013-09-04T11:13:00Z</time>
      </trkpt>
      <trkpt lat="44.19096" lon="6.81124">
        <ele>2027.6</ele>
        <time>2013-09-04T11:13:09Z</time>
      </trkpt>
      <trkpt lat="44.19098" lon="6.81125">
        <ele>2028</ele>
        <time>2013-09-04T11:13:10Z</time>
      </trkpt>
      <trkpt lat="44.19101" lon="6.81126">
        <ele>2027.6</ele>
        <time>2013-09-04T11:13:13Z</time>
      </trkpt>
      <trkpt lat="44.19101" lon="6.81128">
        <ele>2027.6</ele>
        <time>2013-09-04T11:13:14Z</time>
      </trkpt>
      <trkpt lat="44.19102" lon="6.81129">
        <ele>2027.6</ele>
        <time>2013-09-04T11:13:15Z</time>
      </trkpt>
      <trkpt lat="44.19102" lon="6.81132">
        <ele>2027.6</ele>
        <time>2013-09-04T11:13:17Z</time>
      </trkpt>
      <trkpt lat="44.19105" lon="6.8115">
        <ele>2029</ele>
        <time>2013-09-04T11:13:32Z</time>
      </trkpt>
      <trkpt lat="44.19111" lon="6.8117">
        <ele>2029.5</ele>
        <time>2013-09-04T11:13:49Z</time>
      </trkpt>
      <trkpt lat="44.19119" lon="6.81188">
        <ele>2030.9</ele>
        <time>2013-09-04T11:14:05Z</time>
      </trkpt>
      <trkpt lat="44.19124" lon="6.81202">
        <ele>2031.4</ele>
        <time>2013-09-04T11:14:21Z</time>
      </trkpt>
      <trkpt lat="44.19121" lon="6.81205">
        <ele>2031.9</ele>
        <time>2013-09-04T11:14:25Z</time>
      </trkpt>
      <trkpt lat="44.1912" lon="6.81206">
        <ele>2031.9</ele>
        <time>2013-09-04T11:14:26Z</time>
      </trkpt>
      <trkpt lat="44.19102" lon="6.81225">
        <ele>2032.4</ele>
        <time>2013-09-04T11:14:43Z</time>
      </trkpt>
      <trkpt lat="44.19085" lon="6.81233">
        <ele>2033.8</ele>
        <time>2013-09-04T11:14:59Z</time>
      </trkpt>
      <trkpt lat="44.19071" lon="6.81245">
        <ele>2032.8</ele>
        <time>2013-09-04T11:15:15Z</time>
      </trkpt>
      <trkpt lat="44.19068" lon="6.81251">
        <ele>2031.9</ele>
        <time>2013-09-04T11:15:24Z</time>
      </trkpt>
      <trkpt lat="44.19057" lon="6.81271">
        <ele>2030.9</ele>
        <time>2013-09-04T11:15:40Z</time>
      </trkpt>
      <trkpt lat="44.19047" lon="6.81292">
        <ele>2030</ele>
        <time>2013-09-04T11:15:55Z</time>
      </trkpt>
      <trkpt lat="44.1903" lon="6.81308">
        <ele>2029</ele>
        <time>2013-09-04T11:16:14Z</time>
      </trkpt>
      <trkpt lat="44.19008" lon="6.81311">
        <ele>2027.1</ele>
        <time>2013-09-04T11:16:31Z</time>
      </trkpt>
      <trkpt lat="44.18992" lon="6.81312">
        <ele>2026.6</ele>
        <time>2013-09-04T11:16:49Z</time>
      </trkpt>
      <trkpt lat="44.18985" lon="6.81317">
        <ele>2026.6</ele>
        <time>2013-09-04T11:17:07Z</time>
      </trkpt>
      <trkpt lat="44.18975" lon="6.81324">
        <ele>2028</ele>
        <time>2013-09-04T11:17:21Z</time>
      </trkpt>
      <trkpt lat="44.1896" lon="6.81328">
        <ele>2030</ele>
        <time>2013-09-04T11:17:38Z</time>
      </trkpt>
      <trkpt lat="44.18946" lon="6.81336">
        <ele>2031.4</ele>
        <time>2013-09-04T11:17:55Z</time>
      </trkpt>
      <trkpt lat="44.18927" lon="6.81341">
        <ele>2030.9</ele>
        <time>2013-09-04T11:18:13Z</time>
      </trkpt>
      <trkpt lat="44.18913" lon="6.81341">
        <ele>2031.9</ele>
        <time>2013-09-04T11:18:28Z</time>
      </trkpt>
      <trkpt lat="44.18898" lon="6.81349">
        <ele>2033.8</ele>
        <time>2013-09-04T11:18:46Z</time>
      </trkpt>
      <trkpt lat="44.18888" lon="6.8135">
        <ele>2034.8</ele>
        <time>2013-09-04T11:19:02Z</time>
      </trkpt>
      <trkpt lat="44.18888" lon="6.8135">
        <ele>2030.9</ele>
        <time>2013-09-04T11:19:11Z</time>
      </trkpt>
      <trkpt lat="44.18887" lon="6.8135">
        <ele>2009.3</ele>
        <time>2013-09-04T12:28:30Z</time>
      </trkpt>
      <trkpt lat="44.18883" lon="6.81349">
        <ele>2009.3</ele>
        <time>2013-09-04T12:28:31Z</time>
      </trkpt>
      <trkpt lat="44.18886" lon="6.81353">
        <ele>2013.1</ele>
        <time>2013-09-04T12:28:40Z</time>
      </trkpt>
      <trkpt lat="44.18885" lon="6.81352">
        <ele>2017</ele>
        <time>2013-09-04T12:28:45Z</time>
      </trkpt>
      <trkpt lat="44.18884" lon="6.8135">
        <ele>2017.9</ele>
        <time>2013-09-04T12:28:47Z</time>
      </trkpt>
      <trkpt lat="44.18881" lon="6.81349">
        <ele>2019.4</ele>
        <time>2013-09-04T12:28:50Z</time>
      </trkpt>
      <trkpt lat="44.18879" lon="6.81347">
        <ele>2022.8</ele>
        <time>2013-09-04T12:28:56Z</time>
      </trkpt>
      <trkpt lat="44.18879" lon="6.81347">
        <ele>2026.1</ele>
        <time>2013-09-04T12:29:04Z</time>
      </trkpt>
      <trkpt lat="44.18876" lon="6.81344">
        <ele>2029.5</ele>
        <time>2013-09-04T12:29:14Z</time>
      </trkpt>
      <trkpt lat="44.18875" lon="6.81344">
        <ele>2032.8</ele>
        <time>2013-09-04T12:29:27Z</time>
      </trkpt>
      <trkpt lat="44.18874" lon="6.81343">
        <ele>2032.4</ele>
        <time>2013-09-04T12:29:31Z</time>
      </trkpt>
      <trkpt lat="44.18864" lon="6.81337">
        <ele>2033.3</ele>
        <time>2013-09-04T12:29:48Z</time>
      </trkpt>
      <trkpt lat="44.18859" lon="6.81338">
        <ele>2033.3</ele>
        <time>2013-09-04T12:30:02Z</time>
      </trkpt>
      <trkpt lat="44.18854" lon="6.81336">
        <ele>2034.3</ele>
        <time>2013-09-04T12:30:21Z</time>
      </trkpt>
      <trkpt lat="44.18851" lon="6.81334">
        <ele>2034.8</ele>
        <time>2013-09-04T12:30:54Z</time>
      </trkpt>
      <trkpt lat="44.18851" lon="6.81336">
        <ele>2034.3</ele>
        <time>2013-09-04T12:31:09Z</time>
      </trkpt>
      <trkpt lat="44.18836" lon="6.81326">
        <ele>2032.8</ele>
        <time>2013-09-04T12:31:27Z</time>
      </trkpt>
      <trkpt lat="44.18832" lon="6.8132">
        <ele>2030.9</ele>
        <time>2013-09-04T12:31:35Z</time>
      </trkpt>
      <trkpt lat="44.18823" lon="6.81319">
        <ele>2031.9</ele>
        <time>2013-09-04T12:31:48Z</time>
      </trkpt>
      <trkpt lat="44.18819" lon="6.81318">
        <ele>2031.9</ele>
        <time>2013-09-04T12:31:53Z</time>
      </trkpt>
      <trkpt lat="44.18816" lon="6.81323">
        <ele>2032.4</ele>
        <time>2013-09-04T12:31:58Z</time>
      </trkpt>
      <trkpt lat="44.18815" lon="6.81325">
        <ele>2031.9</ele>
        <time>2013-09-04T12:32:04Z</time>
      </trkpt>
      <trkpt lat="44.18813" lon="6.81326">
        <ele>2032.4</ele>
        <time>2013-09-04T12:32:05Z</time>
      </trkpt>
      <trkpt lat="44.18812" lon="6.81327">
        <ele>2031.9</ele>
        <time>2013-09-04T12:32:06Z</time>
      </trkpt>
      <trkpt lat="44.18791" lon="6.81334">
        <ele>2030.9</ele>
        <time>2013-09-04T12:32:15Z</time>
      </trkpt>
      <trkpt lat="44.18787" lon="6.81336">
        <ele>2030.4</ele>
        <time>2013-09-04T12:32:16Z</time>
      </trkpt>
      <trkpt lat="44.18784" lon="6.81338">
        <ele>2031.4</ele>
        <time>2013-09-04T12:32:17Z</time>
      </trkpt>
      <trkpt lat="44.1878" lon="6.81339">
        <ele>2030.9</ele>
        <time>2013-09-04T12:32:18Z</time>
      </trkpt>
      <trkpt lat="44.18778" lon="6.81341">
        <ele>2030.9</ele>
        <time>2013-09-04T12:32:19Z</time>
      </trkpt>
      <trkpt lat="44.18774" lon="6.81342">
        <ele>2030.9</ele>
        <time>2013-09-04T12:32:20Z</time>
      </trkpt>
      <trkpt lat="44.18771" lon="6.81344">
        <ele>2030.9</ele>
        <time>2013-09-04T12:32:21Z</time>
      </trkpt>
      <trkpt lat="44.18768" lon="6.81346">
        <ele>2030.4</ele>
        <time>2013-09-04T12:32:22Z</time>
      </trkpt>
      <trkpt lat="44.18753" lon="6.81354">
        <ele>2030.9</ele>
        <time>2013-09-04T12:32:30Z</time>
      </trkpt>
      <trkpt lat="44.18752" lon="6.81356">
        <ele>2031.4</ele>
        <time>2013-09-04T12:32:31Z</time>
      </trkpt>
      <trkpt lat="44.18751" lon="6.81358">
        <ele>2030.9</ele>
        <time>2013-09-04T12:32:32Z</time>
      </trkpt>
      <trkpt lat="44.1875" lon="6.8136">
        <ele>2031.4</ele>
        <time>2013-09-04T12:32:33Z</time>
      </trkpt>
      <trkpt lat="44.18748" lon="6.81361">
        <ele>2031.9</ele>
        <time>2013-09-04T12:32:34Z</time>
      </trkpt>
      <trkpt lat="44.18747" lon="6.81362">
        <ele>2031.4</ele>
        <time>2013-09-04T12:32:35Z</time>
      </trkpt>
      <trkpt lat="44.18746" lon="6.81363">
        <ele>2031.4</ele>
        <time>2013-09-04T12:32:36Z</time>
      </trkpt>
      <trkpt lat="44.18744" lon="6.81364">
        <ele>2031.4</ele>
        <time>2013-09-04T12:32:37Z</time>
      </trkpt>
      <trkpt lat="44.18742" lon="6.81365">
        <ele>2031.9</ele>
        <time>2013-09-04T12:32:38Z</time>
      </trkpt>
      <trkpt lat="44.1874" lon="6.81365">
        <ele>2032.4</ele>
        <time>2013-09-04T12:32:39Z</time>
      </trkpt>
      <trkpt lat="44.18738" lon="6.81364">
        <ele>2031.9</ele>
        <time>2013-09-04T12:32:40Z</time>
      </trkpt>
      <trkpt lat="44.18727" lon="6.81366">
        <ele>2031.9</ele>
        <time>2013-09-04T12:32:45Z</time>
      </trkpt>
      <trkpt lat="44.18724" lon="6.81368">
        <ele>2032.8</ele>
        <time>2013-09-04T12:32:56Z</time>
      </trkpt>
      <trkpt lat="44.18719" lon="6.81373">
        <ele>2034.8</ele>
        <time>2013-09-04T12:33:08Z</time>
      </trkpt>
      <trkpt lat="44.1871" lon="6.81379">
        <ele>2034.8</ele>
        <time>2013-09-04T12:33:20Z</time>
      </trkpt>
      <trkpt lat="44.18682" lon="6.81388">
        <ele>2036.2</ele>
        <time>2013-09-04T12:33:36Z</time>
      </trkpt>
      <trkpt lat="44.18654" lon="6.81402">
        <ele>2038.6</ele>
        <time>2013-09-04T12:33:52Z</time>
      </trkpt>
      <trkpt lat="44.18631" lon="6.81416">
        <ele>2037.2</ele>
        <time>2013-09-04T12:34:03Z</time>
      </trkpt>
      <trkpt lat="44.18621" lon="6.81424">
        <ele>2037.7</ele>
        <time>2013-09-04T12:34:08Z</time>
      </trkpt>
      <trkpt lat="44.18621" lon="6.81427">
        <ele>2038.1</ele>
        <time>2013-09-04T12:34:09Z</time>
      </trkpt>
      <trkpt lat="44.18621" lon="6.81431">
        <ele>2038.1</ele>
        <time>2013-09-04T12:34:10Z</time>
      </trkpt>
      <trkpt lat="44.18621" lon="6.81434">
        <ele>2039.1</ele>
        <time>2013-09-04T12:34:11Z</time>
      </trkpt>
      <trkpt lat="44.18622" lon="6.81436">
        <ele>2038.6</ele>
        <time>2013-09-04T12:34:12Z</time>
      </trkpt>
      <trkpt lat="44.18623" lon="6.81439">
        <ele>2039.1</ele>
        <time>2013-09-04T12:34:13Z</time>
      </trkpt>
      <trkpt lat="44.18615" lon="6.81473">
        <ele>2038.1</ele>
        <time>2013-09-04T12:34:24Z</time>
      </trkpt>
      <trkpt lat="44.18588" lon="6.81531">
        <ele>2037.2</ele>
        <time>2013-09-04T12:34:41Z</time>
      </trkpt>
      <trkpt lat="44.18559" lon="6.81575">
        <ele>2036.7</ele>
        <time>2013-09-04T12:34:55Z</time>
      </trkpt>
      <trkpt lat="44.18535" lon="6.81622">
        <ele>2035.3</ele>
        <time>2013-09-04T12:35:07Z</time>
      </trkpt>
      <trkpt lat="44.18505" lon="6.81662">
        <ele>2033.3</ele>
        <time>2013-09-04T12:35:21Z</time>
      </trkpt>
      <trkpt lat="44.18501" lon="6.81664">
        <ele>2033.3</ele>
        <time>2013-09-04T12:35:22Z</time>
      </trkpt>
      <trkpt lat="44.18471" lon="6.81671">
        <ele>2029.5</ele>
        <time>2013-09-04T12:35:31Z</time>
      </trkpt>
      <trkpt lat="44.18469" lon="6.81674">
        <ele>2028.5</ele>
        <time>2013-09-04T12:35:32Z</time>
      </trkpt>
      <trkpt lat="44.1846" lon="6.81681">
        <ele>2027.1</ele>
        <time>2013-09-04T12:35:42Z</time>
      </trkpt>
      <trkpt lat="44.18459" lon="6.8168">
        <ele>2027.1</ele>
        <time>2013-09-04T12:35:57Z</time>
      </trkpt>
      <trkpt lat="44.18455" lon="6.81678">
        <ele>2026.6</ele>
        <time>2013-09-04T12:36:14Z</time>
      </trkpt>
      <trkpt lat="44.18451" lon="6.81674">
        <ele>2025.6</ele>
        <time>2013-09-04T12:36:21Z</time>
      </trkpt>
      <trkpt lat="44.18438" lon="6.81659">
        <ele>2023.7</ele>
        <time>2013-09-04T12:36:39Z</time>
      </trkpt>
      <trkpt lat="44.18432" lon="6.81664">
        <ele>2023.7</ele>
        <time>2013-09-04T12:36:53Z</time>
      </trkpt>
      <trkpt lat="44.18426" lon="6.81678">
        <ele>2025.2</ele>
        <time>2013-09-04T12:37:11Z</time>
      </trkpt>
      <trkpt lat="44.18425" lon="6.81679">
        <ele>2025.6</ele>
        <time>2013-09-04T12:37:31Z</time>
      </trkpt>
      <trkpt lat="44.18419" lon="6.81686">
        <ele>2026.6</ele>
        <time>2013-09-04T12:37:49Z</time>
      </trkpt>
      <trkpt lat="44.1842" lon="6.81694">
        <ele>2027.1</ele>
        <time>2013-09-04T12:38:03Z</time>
      </trkpt>
      <trkpt lat="44.18423" lon="6.81709">
        <ele>2029</ele>
        <time>2013-09-04T12:38:20Z</time>
      </trkpt>
      <trkpt lat="44.18422" lon="6.81714">
        <ele>2029</ele>
        <time>2013-09-04T12:38:29Z</time>
      </trkpt>
      <trkpt lat="44.18422" lon="6.81716">
        <ele>2028.5</ele>
        <time>2013-09-04T12:38:30Z</time>
      </trkpt>
      <trkpt lat="44.18422" lon="6.81718">
        <ele>2028</ele>
        <time>2013-09-04T12:38:31Z</time>
      </trkpt>
      <trkpt lat="44.18421" lon="6.81721">
        <ele>2028.5</ele>
        <time>2013-09-04T12:38:32Z</time>
      </trkpt>
      <trkpt lat="44.18421" lon="6.81724">
        <ele>2028.5</ele>
        <time>2013-09-04T12:38:33Z</time>
      </trkpt>
      <trkpt lat="44.18422" lon="6.81728">
        <ele>2028.5</ele>
        <time>2013-09-04T12:38:34Z</time>
      </trkpt>
      <trkpt lat="44.18418" lon="6.8179">
        <ele>2028.5</ele>
        <time>2013-09-04T12:38:50Z</time>
      </trkpt>
      <trkpt lat="44.18411" lon="6.81818">
        <ele>2029.5</ele>
        <time>2013-09-04T12:39:01Z</time>
      </trkpt>
      <trkpt lat="44.18401" lon="6.8185">
        <ele>2030.4</ele>
        <time>2013-09-04T12:39:12Z</time>
      </trkpt>
      <trkpt lat="44.18398" lon="6.81876">
        <ele>2031.9</ele>
        <time>2013-09-04T12:39:21Z</time>
      </trkpt>
      <trkpt lat="44.18379" lon="6.81912">
        <ele>2030.9</ele>
        <time>2013-09-04T12:39:36Z</time>
      </trkpt>
      <trkpt lat="44.18376" lon="6.81921">
        <ele>2030.4</ele>
        <time>2013-09-04T12:39:48Z</time>
      </trkpt>
      <trkpt lat="44.18368" lon="6.81931">
        <ele>2030.4</ele>
        <time>2013-09-04T12:40:04Z</time>
      </trkpt>
      <trkpt lat="44.18361" lon="6.81944">
        <ele>2030.9</ele>
        <time>2013-09-04T12:40:22Z</time>
      </trkpt>
      <trkpt lat="44.18352" lon="6.81972">
        <ele>2030.9</ele>
        <time>2013-09-04T12:40:31Z</time>
      </trkpt>
      <trkpt lat="44.18338" lon="6.81986">
        <ele>2033.8</ele>
        <time>2013-09-04T12:40:42Z</time>
      </trkpt>
      <trkpt lat="44.18325" lon="6.82008">
        <ele>2031.4</ele>
        <time>2013-09-04T12:40:56Z</time>
      </trkpt>
      <trkpt lat="44.18325" lon="6.8201">
        <ele>2031.9</ele>
        <time>2013-09-04T12:40:57Z</time>
      </trkpt>
      <trkpt lat="44.18325" lon="6.82012">
        <ele>2030.9</ele>
        <time>2013-09-04T12:40:58Z</time>
      </trkpt>
      <trkpt lat="44.18325" lon="6.82015">
        <ele>2030.9</ele>
        <time>2013-09-04T12:40:59Z</time>
      </trkpt>
      <trkpt lat="44.18325" lon="6.82018">
        <ele>2030</ele>
        <time>2013-09-04T12:41:00Z</time>
      </trkpt>
      <trkpt lat="44.18325" lon="6.82021">
        <ele>2030</ele>
        <time>2013-09-04T12:41:01Z</time>
      </trkpt>
      <trkpt lat="44.18324" lon="6.82023">
        <ele>2030</ele>
        <time>2013-09-04T12:41:02Z</time>
      </trkpt>
      <trkpt lat="44.18324" lon="6.82026">
        <ele>2029.5</ele>
        <time>2013-09-04T12:41:03Z</time>
      </trkpt>
      <trkpt lat="44.18324" lon="6.82029">
        <ele>2029</ele>
        <time>2013-09-04T12:41:04Z</time>
      </trkpt>
      <trkpt lat="44.18323" lon="6.82031">
        <ele>2029</ele>
        <time>2013-09-04T12:41:05Z</time>
      </trkpt>
      <trkpt lat="44.18323" lon="6.82034">
        <ele>2028.5</ele>
        <time>2013-09-04T12:41:06Z</time>
      </trkpt>
      <trkpt lat="44.18323" lon="6.82037">
        <ele>2028</ele>
        <time>2013-09-04T12:41:07Z</time>
      </trkpt>
      <trkpt lat="44.18323" lon="6.82041">
        <ele>2027.6</ele>
        <time>2013-09-04T12:41:08Z</time>
      </trkpt>
      <trkpt lat="44.18319" lon="6.82091">
        <ele>2025.2</ele>
        <time>2013-09-04T12:41:21Z</time>
      </trkpt>
      <trkpt lat="44.18314" lon="6.82125">
        <ele>2021.8</ele>
        <time>2013-09-04T12:41:33Z</time>
      </trkpt>
      <trkpt lat="44.18315" lon="6.82132">
        <ele>2020.4</ele>
        <time>2013-09-04T12:41:36Z</time>
      </trkpt>
      <trkpt lat="44.18315" lon="6.82132">
        <ele>2019.9</ele>
        <time>2013-09-04T12:41:54Z</time>
      </trkpt>
      <trkpt lat="44.18315" lon="6.82133">
        <ele>2020.4</ele>
        <time>2013-09-04T12:42:18Z</time>
      </trkpt>
      <trkpt lat="44.18314" lon="6.82134">
        <ele>2020.4</ele>
        <time>2013-09-04T12:42:38Z</time>
      </trkpt>
      <trkpt lat="44.18315" lon="6.82135">
        <ele>2020.4</ele>
        <time>2013-09-04T12:42:53Z</time>
      </trkpt>
      <trkpt lat="44.18315" lon="6.82139">
        <ele>2020.8</ele>
        <time>2013-09-04T12:42:56Z</time>
      </trkpt>
      <trkpt lat="44.18315" lon="6.82149">
        <ele>2018.9</ele>
        <time>2013-09-04T12:42:59Z</time>
      </trkpt>
      <trkpt lat="44.18315" lon="6.82168">
        <ele>2017</ele>
        <time>2013-09-04T12:43:03Z</time>
      </trkpt>
      <trkpt lat="44.18306" lon="6.8219">
        <ele>2015.1</ele>
        <time>2013-09-04T12:43:09Z</time>
      </trkpt>
      <trkpt lat="44.18293" lon="6.82216">
        <ele>2013.6</ele>
        <time>2013-09-04T12:43:15Z</time>
      </trkpt>
      <trkpt lat="44.1829" lon="6.8222">
        <ele>2012.2</ele>
        <time>2013-09-04T12:43:16Z</time>
      </trkpt>
      <trkpt lat="44.18287" lon="6.82224">
        <ele>2013.1</ele>
        <time>2013-09-04T12:43:17Z</time>
      </trkpt>
      <trkpt lat="44.18281" lon="6.82233">
        <ele>2011.7</ele>
        <time>2013-09-04T12:43:19Z</time>
      </trkpt>
      <trkpt lat="44.18279" lon="6.82239">
        <ele>2012.2</ele>
        <time>2013-09-04T12:43:20Z</time>
      </trkpt>
      <trkpt lat="44.18259" lon="6.8228">
        <ele>2010.3</ele>
        <time>2013-09-04T12:43:30Z</time>
      </trkpt>
      <trkpt lat="44.18253" lon="6.82288">
        <ele>2009.3</ele>
        <time>2013-09-04T12:43:32Z</time>
      </trkpt>
      <trkpt lat="44.18251" lon="6.82292">
        <ele>2008.8</ele>
        <time>2013-09-04T12:43:33Z</time>
      </trkpt>
      <trkpt lat="44.18246" lon="6.82301">
        <ele>2008.8</ele>
        <time>2013-09-04T12:43:35Z</time>
      </trkpt>
      <trkpt lat="44.18245" lon="6.82307">
        <ele>2008.8</ele>
        <time>2013-09-04T12:43:36Z</time>
      </trkpt>
      <trkpt lat="44.18245" lon="6.82314">
        <ele>2008.3</ele>
        <time>2013-09-04T12:43:37Z</time>
      </trkpt>
      <trkpt lat="44.18246" lon="6.82321">
        <ele>2008.3</ele>
        <time>2013-09-04T12:43:38Z</time>
      </trkpt>
      <trkpt lat="44.18248" lon="6.82327">
        <ele>2008.3</ele>
        <time>2013-09-04T12:43:39Z</time>
      </trkpt>
      <trkpt lat="44.18249" lon="6.82331">
        <ele>2007.4</ele>
        <time>2013-09-04T12:43:40Z</time>
      </trkpt>
      <trkpt lat="44.18248" lon="6.82334">
        <ele>2007.9</ele>
        <time>2013-09-04T12:43:41Z</time>
      </trkpt>
      <trkpt lat="44.18247" lon="6.82338">
        <ele>2007.4</ele>
        <time>2013-09-04T12:43:42Z</time>
      </trkpt>
      <trkpt lat="44.18246" lon="6.82342">
        <ele>2006.4</ele>
        <time>2013-09-04T12:43:43Z</time>
      </trkpt>
      <trkpt lat="44.18244" lon="6.82346">
        <ele>2006.9</ele>
        <time>2013-09-04T12:43:44Z</time>
      </trkpt>
      <trkpt lat="44.18243" lon="6.8235">
        <ele>2006.9</ele>
        <time>2013-09-04T12:43:45Z</time>
      </trkpt>
      <trkpt lat="44.18242" lon="6.82355">
        <ele>2006.9</ele>
        <time>2013-09-04T12:43:46Z</time>
      </trkpt>
      <trkpt lat="44.18241" lon="6.82359">
        <ele>2005.9</ele>
        <time>2013-09-04T12:43:47Z</time>
      </trkpt>
      <trkpt lat="44.18238" lon="6.82367">
        <ele>2005.9</ele>
        <time>2013-09-04T12:43:55Z</time>
      </trkpt>
      <trkpt lat="44.18241" lon="6.82365">
        <ele>2006.4</ele>
        <time>2013-09-04T12:44:09Z</time>
      </trkpt>
      <trkpt lat="44.18248" lon="6.82366">
        <ele>2004.5</ele>
        <time>2013-09-04T12:44:22Z</time>
      </trkpt>
      <trkpt lat="44.18249" lon="6.82368">
        <ele>2003</ele>
        <time>2013-09-04T12:44:30Z</time>
      </trkpt>
      <trkpt lat="44.18256" lon="6.82385">
        <ele>2001.6</ele>
        <time>2013-09-04T12:44:38Z</time>
      </trkpt>
      <trkpt lat="44.18256" lon="6.82391">
        <ele>2001.6</ele>
        <time>2013-09-04T12:45:11Z</time>
      </trkpt>
      <trkpt lat="44.18253" lon="6.8241">
        <ele>1998.2</ele>
        <time>2013-09-04T12:45:16Z</time>
      </trkpt>
      <trkpt lat="44.18248" lon="6.8246">
        <ele>1995.4</ele>
        <time>2013-09-04T12:45:27Z</time>
      </trkpt>
      <trkpt lat="44.18246" lon="6.82465">
        <ele>1995.4</ele>
        <time>2013-09-04T12:45:28Z</time>
      </trkpt>
      <trkpt lat="44.18242" lon="6.82475">
        <ele>1993.9</ele>
        <time>2013-09-04T12:45:30Z</time>
      </trkpt>
      <trkpt lat="44.18241" lon="6.82481">
        <ele>1993.9</ele>
        <time>2013-09-04T12:45:31Z</time>
      </trkpt>
      <trkpt lat="44.18241" lon="6.82486">
        <ele>1994.4</ele>
        <time>2013-09-04T12:45:32Z</time>
      </trkpt>
      <trkpt lat="44.18235" lon="6.82516">
        <ele>1992</ele>
        <time>2013-09-04T12:45:40Z</time>
      </trkpt>
      <trkpt lat="44.18233" lon="6.82531">
        <ele>1991</ele>
        <time>2013-09-04T12:45:47Z</time>
      </trkpt>
      <trkpt lat="44.18233" lon="6.82535">
        <ele>1990.1</ele>
        <time>2013-09-04T12:45:59Z</time>
      </trkpt>
      <trkpt lat="44.18233" lon="6.82537">
        <ele>1989.6</ele>
        <time>2013-09-04T12:46:02Z</time>
      </trkpt>
      <trkpt lat="44.18233" lon="6.82539">
        <ele>1990.6</ele>
        <time>2013-09-04T12:46:03Z</time>
      </trkpt>
      <trkpt lat="44.1823" lon="6.82552">
        <ele>1988.1</ele>
        <time>2013-09-04T12:46:07Z</time>
      </trkpt>
      <trkpt lat="44.18222" lon="6.82572">
        <ele>1985.3</ele>
        <time>2013-09-04T12:46:12Z</time>
      </trkpt>
      <trkpt lat="44.18221" lon="6.82576">
        <ele>1985.3</ele>
        <time>2013-09-04T12:46:13Z</time>
      </trkpt>
      <trkpt lat="44.18221" lon="6.82579">
        <ele>1984.8</ele>
        <time>2013-09-04T12:46:14Z</time>
      </trkpt>
      <trkpt lat="44.18221" lon="6.82582">
        <ele>1984.3</ele>
        <time>2013-09-04T12:46:15Z</time>
      </trkpt>
      <trkpt lat="44.18217" lon="6.82595">
        <ele>1981.9</ele>
        <time>2013-09-04T12:46:19Z</time>
      </trkpt>
      <trkpt lat="44.18214" lon="6.8261">
        <ele>1979</ele>
        <time>2013-09-04T12:46:23Z</time>
      </trkpt>
      <trkpt lat="44.18212" lon="6.82617">
        <ele>1978.5</ele>
        <time>2013-09-04T12:46:25Z</time>
      </trkpt>
      <trkpt lat="44.18207" lon="6.82632">
        <ele>1974.7</ele>
        <time>2013-09-04T12:46:29Z</time>
      </trkpt>
      <trkpt lat="44.18204" lon="6.82646">
        <ele>1971.8</ele>
        <time>2013-09-04T12:46:33Z</time>
      </trkpt>
      <trkpt lat="44.18203" lon="6.8265">
        <ele>1971.8</ele>
        <time>2013-09-04T12:46:34Z</time>
      </trkpt>
      <trkpt lat="44.18201" lon="6.82666">
        <ele>1968.4</ele>
        <time>2013-09-04T12:46:39Z</time>
      </trkpt>
      <trkpt lat="44.182" lon="6.82671">
        <ele>1967.5</ele>
        <time>2013-09-04T12:46:41Z</time>
      </trkpt>
      <trkpt lat="44.18191" lon="6.82695">
        <ele>1963.6</ele>
        <time>2013-09-04T12:46:47Z</time>
      </trkpt>
      <trkpt lat="44.18186" lon="6.82703">
        <ele>1962.7</ele>
        <time>2013-09-04T12:46:49Z</time>
      </trkpt>
      <trkpt lat="44.18178" lon="6.8272">
        <ele>1962.2</ele>
        <time>2013-09-04T12:47:00Z</time>
      </trkpt>
      <trkpt lat="44.18174" lon="6.82728">
        <ele>1961.2</ele>
        <time>2013-09-04T12:47:12Z</time>
      </trkpt>
      <trkpt lat="44.18173" lon="6.8273">
        <ele>1960.8</ele>
        <time>2013-09-04T12:47:13Z</time>
      </trkpt>
      <trkpt lat="44.18172" lon="6.82733">
        <ele>1960.3</ele>
        <time>2013-09-04T12:47:14Z</time>
      </trkpt>
      <trkpt lat="44.1817" lon="6.82737">
        <ele>1959.8</ele>
        <time>2013-09-04T12:47:15Z</time>
      </trkpt>
      <trkpt lat="44.18168" lon="6.8274">
        <ele>1959.3</ele>
        <time>2013-09-04T12:47:16Z</time>
      </trkpt>
      <trkpt lat="44.18156" lon="6.82766">
        <ele>1957.9</ele>
        <time>2013-09-04T12:47:28Z</time>
      </trkpt>
      <trkpt lat="44.18153" lon="6.82777">
        <ele>1955.9</ele>
        <time>2013-09-04T12:47:43Z</time>
      </trkpt>
      <trkpt lat="44.18147" lon="6.82786">
        <ele>1955</ele>
        <time>2013-09-04T12:47:55Z</time>
      </trkpt>
      <trkpt lat="44.18134" lon="6.828">
        <ele>1954.5</ele>
        <time>2013-09-04T12:48:11Z</time>
      </trkpt>
      <trkpt lat="44.18123" lon="6.82813">
        <ele>1955</ele>
        <time>2013-09-04T12:48:21Z</time>
      </trkpt>
      <trkpt lat="44.18117" lon="6.82816">
        <ele>1953.5</ele>
        <time>2013-09-04T12:48:24Z</time>
      </trkpt>
      <trkpt lat="44.18111" lon="6.82823">
        <ele>1954.5</ele>
        <time>2013-09-04T12:48:27Z</time>
      </trkpt>
      <trkpt lat="44.18109" lon="6.82826">
        <ele>1953.5</ele>
        <time>2013-09-04T12:48:28Z</time>
      </trkpt>
      <trkpt lat="44.18102" lon="6.82843">
        <ele>1953.1</ele>
        <time>2013-09-04T12:48:32Z</time>
      </trkpt>
      <trkpt lat="44.18093" lon="6.8286">
        <ele>1952.1</ele>
        <time>2013-09-04T12:48:35Z</time>
      </trkpt>
      <trkpt lat="44.18074" lon="6.82885">
        <ele>1952.1</ele>
        <time>2013-09-04T12:48:45Z</time>
      </trkpt>
      <trkpt lat="44.18063" lon="6.82889">
        <ele>1951.6</ele>
        <time>2013-09-04T12:48:56Z</time>
      </trkpt>
      <trkpt lat="44.18054" lon="6.82897">
        <ele>1950.7</ele>
        <time>2013-09-04T12:49:12Z</time>
      </trkpt>
      <trkpt lat="44.18052" lon="6.82904">
        <ele>1950.7</ele>
        <time>2013-09-04T12:49:17Z</time>
      </trkpt>
      <trkpt lat="44.18045" lon="6.82923">
        <ele>1949.7</ele>
        <time>2013-09-04T12:49:33Z</time>
      </trkpt>
      <trkpt lat="44.18043" lon="6.82933">
        <ele>1948.7</ele>
        <time>2013-09-04T12:49:46Z</time>
      </trkpt>
      <trkpt lat="44.18042" lon="6.82935">
        <ele>1948.7</ele>
        <time>2013-09-04T12:49:47Z</time>
      </trkpt>
      <trkpt lat="44.18042" lon="6.82937">
        <ele>1948.3</ele>
        <time>2013-09-04T12:49:48Z</time>
      </trkpt>
      <trkpt lat="44.18043" lon="6.82946">
        <ele>1947.8</ele>
        <time>2013-09-04T12:49:51Z</time>
      </trkpt>
      <trkpt lat="44.18056" lon="6.82962">
        <ele>1943.9</ele>
        <time>2013-09-04T12:49:58Z</time>
      </trkpt>
      <trkpt lat="44.18062" lon="6.82983">
        <ele>1941</ele>
        <time>2013-09-04T12:50:03Z</time>
      </trkpt>
      <trkpt lat="44.18063" lon="6.82988">
        <ele>1940.1</ele>
        <time>2013-09-04T12:50:05Z</time>
      </trkpt>
      <trkpt lat="44.18062" lon="6.82989">
        <ele>1940.1</ele>
        <time>2013-09-04T12:50:23Z</time>
      </trkpt>
      <trkpt lat="44.18067" lon="6.83009">
        <ele>1937.7</ele>
        <time>2013-09-04T12:50:32Z</time>
      </trkpt>
      <trkpt lat="44.18067" lon="6.83014">
        <ele>1936.2</ele>
        <time>2013-09-04T12:50:45Z</time>
      </trkpt>
      <trkpt lat="44.18067" lon="6.83023">
        <ele>1934.3</ele>
        <time>2013-09-04T12:51:02Z</time>
      </trkpt>
      <trkpt lat="44.18069" lon="6.83027">
        <ele>1933.4</ele>
        <time>2013-09-04T12:51:07Z</time>
      </trkpt>
      <trkpt lat="44.18069" lon="6.83041">
        <ele>1930.5</ele>
        <time>2013-09-04T12:51:21Z</time>
      </trkpt>
      <trkpt lat="44.18072" lon="6.83054">
        <ele>1927.1</ele>
        <time>2013-09-04T12:51:37Z</time>
      </trkpt>
      <trkpt lat="44.18071" lon="6.8306">
        <ele>1925.7</ele>
        <time>2013-09-04T12:51:43Z</time>
      </trkpt>
      <trkpt lat="44.1807" lon="6.83074">
        <ele>1922.8</ele>
        <time>2013-09-04T12:51:54Z</time>
      </trkpt>
      <trkpt lat="44.18071" lon="6.83079">
        <ele>1921.3</ele>
        <time>2013-09-04T12:51:58Z</time>
      </trkpt>
      <trkpt lat="44.18068" lon="6.83093">
        <ele>1918.9</ele>
        <time>2013-09-04T12:52:13Z</time>
      </trkpt>
      <trkpt lat="44.18067" lon="6.8311">
        <ele>1916</ele>
        <time>2013-09-04T12:52:27Z</time>
      </trkpt>
      <trkpt lat="44.18065" lon="6.83125">
        <ele>1913.2</ele>
        <time>2013-09-04T12:52:45Z</time>
      </trkpt>
      <trkpt lat="44.18065" lon="6.83138">
        <ele>1911.2</ele>
        <time>2013-09-04T12:52:49Z</time>
      </trkpt>
      <trkpt lat="44.18064" lon="6.83146">
        <ele>1908.8</ele>
        <time>2013-09-04T12:52:52Z</time>
      </trkpt>
      <trkpt lat="44.18063" lon="6.83148">
        <ele>1908.4</ele>
        <time>2013-09-04T12:52:53Z</time>
      </trkpt>
      <trkpt lat="44.18063" lon="6.83151">
        <ele>1907.9</ele>
        <time>2013-09-04T12:52:54Z</time>
      </trkpt>
      <trkpt lat="44.18062" lon="6.83153">
        <ele>1907.4</ele>
        <time>2013-09-04T12:52:55Z</time>
      </trkpt>
      <trkpt lat="44.18062" lon="6.83156">
        <ele>1906.9</ele>
        <time>2013-09-04T12:52:56Z</time>
      </trkpt>
      <trkpt lat="44.18061" lon="6.83158">
        <ele>1905.5</ele>
        <time>2013-09-04T12:52:57Z</time>
      </trkpt>
      <trkpt lat="44.18059" lon="6.83161">
        <ele>1905.5</ele>
        <time>2013-09-04T12:52:58Z</time>
      </trkpt>
      <trkpt lat="44.18057" lon="6.83163">
        <ele>1905.5</ele>
        <time>2013-09-04T12:52:59Z</time>
      </trkpt>
      <trkpt lat="44.18055" lon="6.83167">
        <ele>1904</ele>
        <time>2013-09-04T12:53:00Z</time>
      </trkpt>
      <trkpt lat="44.18055" lon="6.83171">
        <ele>1903.6</ele>
        <time>2013-09-04T12:53:01Z</time>
      </trkpt>
      <trkpt lat="44.18054" lon="6.83178">
        <ele>1902.1</ele>
        <time>2013-09-04T12:53:03Z</time>
      </trkpt>
      <trkpt lat="44.18052" lon="6.83193">
        <ele>1898.7</ele>
        <time>2013-09-04T12:53:07Z</time>
      </trkpt>
      <trkpt lat="44.18048" lon="6.83207">
        <ele>1896.3</ele>
        <time>2013-09-04T12:53:11Z</time>
      </trkpt>
      <trkpt lat="44.18046" lon="6.83213">
        <ele>1894.4</ele>
        <time>2013-09-04T12:53:13Z</time>
      </trkpt>
      <trkpt lat="44.18042" lon="6.83231">
        <ele>1891.5</ele>
        <time>2013-09-04T12:53:20Z</time>
      </trkpt>
      <trkpt lat="44.18041" lon="6.83234">
        <ele>1891.1</ele>
        <time>2013-09-04T12:53:21Z</time>
      </trkpt>
      <trkpt lat="44.1804" lon="6.83236">
        <ele>1890.1</ele>
        <time>2013-09-04T12:53:22Z</time>
      </trkpt>
      <trkpt lat="44.1804" lon="6.83241">
        <ele>1889.6</ele>
        <time>2013-09-04T12:53:23Z</time>
      </trkpt>
      <trkpt lat="44.18039" lon="6.83245">
        <ele>1889.1</ele>
        <time>2013-09-04T12:53:24Z</time>
      </trkpt>
      <trkpt lat="44.18036" lon="6.83248">
        <ele>1888.7</ele>
        <time>2013-09-04T12:53:25Z</time>
      </trkpt>
      <trkpt lat="44.18033" lon="6.83251">
        <ele>1888.2</ele>
        <time>2013-09-04T12:53:26Z</time>
      </trkpt>
      <trkpt lat="44.18032" lon="6.83255">
        <ele>1887.2</ele>
        <time>2013-09-04T12:53:27Z</time>
      </trkpt>
      <trkpt lat="44.18028" lon="6.83257">
        <ele>1886.7</ele>
        <time>2013-09-04T12:53:28Z</time>
      </trkpt>
      <trkpt lat="44.18028" lon="6.83261">
        <ele>1885.8</ele>
        <time>2013-09-04T12:53:29Z</time>
      </trkpt>
      <trkpt lat="44.18022" lon="6.83274">
        <ele>1884.3</ele>
        <time>2013-09-04T12:53:40Z</time>
      </trkpt>
      <trkpt lat="44.18017" lon="6.83285">
        <ele>1881</ele>
        <time>2013-09-04T12:53:50Z</time>
      </trkpt>
      <trkpt lat="44.18012" lon="6.83303">
        <ele>1879</ele>
        <time>2013-09-04T12:54:06Z</time>
      </trkpt>
      <trkpt lat="44.18011" lon="6.83306">
        <ele>1879</ele>
        <time>2013-09-04T12:54:15Z</time>
      </trkpt>
      <trkpt lat="44.18011" lon="6.83308">
        <ele>1878.1</ele>
        <time>2013-09-04T12:54:16Z</time>
      </trkpt>
      <trkpt lat="44.1801" lon="6.83311">
        <ele>1878.1</ele>
        <time>2013-09-04T12:54:17Z</time>
      </trkpt>
      <trkpt lat="44.18008" lon="6.83314">
        <ele>1877.6</ele>
        <time>2013-09-04T12:54:18Z</time>
      </trkpt>
      <trkpt lat="44.18007" lon="6.83317">
        <ele>1877.6</ele>
        <time>2013-09-04T12:54:19Z</time>
      </trkpt>
      <trkpt lat="44.18005" lon="6.83322">
        <ele>1876.2</ele>
        <time>2013-09-04T12:54:21Z</time>
      </trkpt>
      <trkpt lat="44.18001" lon="6.83327">
        <ele>1874.7</ele>
        <time>2013-09-04T12:54:24Z</time>
      </trkpt>
      <trkpt lat="44.1799" lon="6.83341">
        <ele>1871.3</ele>
        <time>2013-09-04T12:54:31Z</time>
      </trkpt>
      <trkpt lat="44.17986" lon="6.83343">
        <ele>1870.4</ele>
        <time>2013-09-04T12:54:40Z</time>
      </trkpt>
      <trkpt lat="44.17975" lon="6.83357">
        <ele>1867</ele>
        <time>2013-09-04T12:54:56Z</time>
      </trkpt>
      <trkpt lat="44.17968" lon="6.83361">
        <ele>1866.1</ele>
        <time>2013-09-04T12:55:13Z</time>
      </trkpt>
      <trkpt lat="44.17949" lon="6.83378">
        <ele>1862.7</ele>
        <time>2013-09-04T12:55:20Z</time>
      </trkpt>
      <trkpt lat="44.17948" lon="6.83381">
        <ele>1862.7</ele>
        <time>2013-09-04T12:55:21Z</time>
      </trkpt>
      <trkpt lat="44.17945" lon="6.83395">
        <ele>1860.8</ele>
        <time>2013-09-04T12:55:25Z</time>
      </trkpt>
      <trkpt lat="44.17943" lon="6.83414">
        <ele>1857.4</ele>
        <time>2013-09-04T12:55:30Z</time>
      </trkpt>
      <trkpt lat="44.17941" lon="6.83439">
        <ele>1854.5</ele>
        <time>2013-09-04T12:55:37Z</time>
      </trkpt>
      <trkpt lat="44.17935" lon="6.8345">
        <ele>1851.2</ele>
        <time>2013-09-04T12:55:41Z</time>
      </trkpt>
      <trkpt lat="44.1791" lon="6.83463">
        <ele>1849.2</ele>
        <time>2013-09-04T12:55:51Z</time>
      </trkpt>
      <trkpt lat="44.17905" lon="6.83465">
        <ele>1847.8</ele>
        <time>2013-09-04T12:55:53Z</time>
      </trkpt>
      <trkpt lat="44.179" lon="6.83469">
        <ele>1846.4</ele>
        <time>2013-09-04T12:56:02Z</time>
      </trkpt>
      <trkpt lat="44.17896" lon="6.83473">
        <ele>1845.4</ele>
        <time>2013-09-04T12:56:19Z</time>
      </trkpt>
      <trkpt lat="44.17898" lon="6.83475">
        <ele>1844.4</ele>
        <time>2013-09-04T12:56:38Z</time>
      </trkpt>
      <trkpt lat="44.17897" lon="6.83478">
        <ele>1843</ele>
        <time>2013-09-04T12:56:44Z</time>
      </trkpt>
      <trkpt lat="44.17891" lon="6.83482">
        <ele>1842</ele>
        <time>2013-09-04T12:56:56Z</time>
      </trkpt>
      <trkpt lat="44.17884" lon="6.83487">
        <ele>1841.5</ele>
        <time>2013-09-04T12:57:10Z</time>
      </trkpt>
      <trkpt lat="44.17875" lon="6.83494">
        <ele>1843</ele>
        <time>2013-09-04T12:57:25Z</time>
      </trkpt>
      <trkpt lat="44.17873" lon="6.83499">
        <ele>1842.5</ele>
        <time>2013-09-04T12:57:35Z</time>
      </trkpt>
      <trkpt lat="44.17872" lon="6.83502">
        <ele>1842.5</ele>
        <time>2013-09-04T12:57:36Z</time>
      </trkpt>
      <trkpt lat="44.17868" lon="6.83517">
        <ele>1840.1</ele>
        <time>2013-09-04T12:57:40Z</time>
      </trkpt>
      <trkpt lat="44.17865" lon="6.83524">
        <ele>1838.7</ele>
        <time>2013-09-04T12:57:42Z</time>
      </trkpt>
      <trkpt lat="44.17853" lon="6.83541">
        <ele>1835.3</ele>
        <time>2013-09-04T12:57:47Z</time>
      </trkpt>
      <trkpt lat="44.17844" lon="6.83555">
        <ele>1831.9</ele>
        <time>2013-09-04T12:57:52Z</time>
      </trkpt>
      <trkpt lat="44.17837" lon="6.83568">
        <ele>1828.1</ele>
        <time>2013-09-04T12:57:58Z</time>
      </trkpt>
      <trkpt lat="44.17836" lon="6.83571">
        <ele>1828.1</ele>
        <time>2013-09-04T12:57:59Z</time>
      </trkpt>
      <trkpt lat="44.17831" lon="6.83592">
        <ele>1824.7</ele>
        <time>2013-09-04T12:58:04Z</time>
      </trkpt>
      <trkpt lat="44.17831" lon="6.83597">
        <ele>1824.7</ele>
        <time>2013-09-04T12:58:05Z</time>
      </trkpt>
      <trkpt lat="44.17826" lon="6.83609">
        <ele>1822.3</ele>
        <time>2013-09-04T12:58:08Z</time>
      </trkpt>
      <trkpt lat="44.17824" lon="6.83615">
        <ele>1820.9</ele>
        <time>2013-09-04T12:58:11Z</time>
      </trkpt>
      <trkpt lat="44.17823" lon="6.83615">
        <ele>1820.9</ele>
        <time>2013-09-04T12:58:30Z</time>
      </trkpt>
      <trkpt lat="44.17822" lon="6.83616">
        <ele>1820.9</ele>
        <time>2013-09-04T12:58:36Z</time>
      </trkpt>
      <trkpt lat="44.17821" lon="6.83617">
        <ele>1820.4</ele>
        <time>2013-09-04T12:58:37Z</time>
      </trkpt>
      <trkpt lat="44.17808" lon="6.83633">
        <ele>1817</ele>
        <time>2013-09-04T12:58:43Z</time>
      </trkpt>
      <trkpt lat="44.17806" lon="6.83636">
        <ele>1816.6</ele>
        <time>2013-09-04T12:58:44Z</time>
      </trkpt>
      <trkpt lat="44.17803" lon="6.83641">
        <ele>1815.6</ele>
        <time>2013-09-04T12:58:46Z</time>
      </trkpt>
      <trkpt lat="44.17797" lon="6.83642">
        <ele>1813.7</ele>
        <time>2013-09-04T12:58:54Z</time>
      </trkpt>
      <trkpt lat="44.1779" lon="6.83645">
        <ele>1811.7</ele>
        <time>2013-09-04T12:59:05Z</time>
      </trkpt>
      <trkpt lat="44.17787" lon="6.83649">
        <ele>1811.3</ele>
        <time>2013-09-04T12:59:21Z</time>
      </trkpt>
      <trkpt lat="44.17778" lon="6.83652">
        <ele>1809.3</ele>
        <time>2013-09-04T12:59:29Z</time>
      </trkpt>
      <trkpt lat="44.17772" lon="6.83655">
        <ele>1807.9</ele>
        <time>2013-09-04T12:59:32Z</time>
      </trkpt>
      <trkpt lat="44.17762" lon="6.83657">
        <ele>1804.5</ele>
        <time>2013-09-04T12:59:41Z</time>
      </trkpt>
      <trkpt lat="44.17757" lon="6.83658">
        <ele>1804.1</ele>
        <time>2013-09-04T12:59:43Z</time>
      </trkpt>
      <trkpt lat="44.17748" lon="6.83672">
        <ele>1800.7</ele>
        <time>2013-09-04T12:59:49Z</time>
      </trkpt>
      <trkpt lat="44.1774" lon="6.83681">
        <ele>1799.2</ele>
        <time>2013-09-04T12:59:57Z</time>
      </trkpt>
      <trkpt lat="44.17732" lon="6.83684">
        <ele>1799.7</ele>
        <time>2013-09-04T13:00:08Z</time>
      </trkpt>
      <trkpt lat="44.17726" lon="6.83695">
        <ele>1797.8</ele>
        <time>2013-09-04T13:00:22Z</time>
      </trkpt>
      <trkpt lat="44.17719" lon="6.83709">
        <ele>1795.4</ele>
        <time>2013-09-04T13:00:34Z</time>
      </trkpt>
      <trkpt lat="44.17714" lon="6.83715">
        <ele>1794.9</ele>
        <time>2013-09-04T13:00:45Z</time>
      </trkpt>
      <trkpt lat="44.17706" lon="6.8373">
        <ele>1791.6</ele>
        <time>2013-09-04T13:01:01Z</time>
      </trkpt>
      <trkpt lat="44.17701" lon="6.83738">
        <ele>1790.1</ele>
        <time>2013-09-04T13:01:17Z</time>
      </trkpt>
      <trkpt lat="44.17701" lon="6.83737">
        <ele>1786.8</ele>
        <time>2013-09-04T13:01:30Z</time>
      </trkpt>
      <trkpt lat="44.17701" lon="6.83737">
        <ele>1790.6</ele>
        <time>2013-09-04T13:01:31Z</time>
      </trkpt>
      <trkpt lat="44.177" lon="6.83742">
        <ele>1788.7</ele>
        <time>2013-09-04T13:01:54Z</time>
      </trkpt>
      <trkpt lat="44.17697" lon="6.83747">
        <ele>1787.7</ele>
        <time>2013-09-04T13:02:02Z</time>
      </trkpt>
      <trkpt lat="44.17694" lon="6.8376">
        <ele>1784.8</ele>
        <time>2013-09-04T13:02:15Z</time>
      </trkpt>
      <trkpt lat="44.17689" lon="6.83769">
        <ele>1783.9</ele>
        <time>2013-09-04T13:02:34Z</time>
      </trkpt>
      <trkpt lat="44.17689" lon="6.83773">
        <ele>1782.9</ele>
        <time>2013-09-04T13:02:48Z</time>
      </trkpt>
      <trkpt lat="44.17683" lon="6.8379">
        <ele>1779.5</ele>
        <time>2013-09-04T13:03:01Z</time>
      </trkpt>
      <trkpt lat="44.17682" lon="6.83794">
        <ele>1779.1</ele>
        <time>2013-09-04T13:03:03Z</time>
      </trkpt>
      <trkpt lat="44.1768" lon="6.838">
        <ele>1777.1</ele>
        <time>2013-09-04T13:03:06Z</time>
      </trkpt>
      <trkpt lat="44.17679" lon="6.83806">
        <ele>1775.7</ele>
        <time>2013-09-04T13:03:08Z</time>
      </trkpt>
      <trkpt lat="44.17679" lon="6.83822">
        <ele>1772.8</ele>
        <time>2013-09-04T13:03:13Z</time>
      </trkpt>
      <trkpt lat="44.17679" lon="6.83824">
        <ele>1772.3</ele>
        <time>2013-09-04T13:03:14Z</time>
      </trkpt>
      <trkpt lat="44.17676" lon="6.83838">
        <ele>1769.9</ele>
        <time>2013-09-04T13:03:19Z</time>
      </trkpt>
      <trkpt lat="44.17675" lon="6.83845">
        <ele>1768.5</ele>
        <time>2013-09-04T13:03:26Z</time>
      </trkpt>
      <trkpt lat="44.17674" lon="6.83848">
        <ele>1767.5</ele>
        <time>2013-09-04T13:03:27Z</time>
      </trkpt>
      <trkpt lat="44.17673" lon="6.83851">
        <ele>1767.5</ele>
        <time>2013-09-04T13:03:28Z</time>
      </trkpt>
      <trkpt lat="44.17666" lon="6.83863">
        <ele>1764.2</ele>
        <time>2013-09-04T13:03:32Z</time>
      </trkpt>
      <trkpt lat="44.17654" lon="6.83879">
        <ele>1760.3</ele>
        <time>2013-09-04T13:03:39Z</time>
      </trkpt>
      <trkpt lat="44.17652" lon="6.83882">
        <ele>1760.8</ele>
        <time>2013-09-04T13:03:40Z</time>
      </trkpt>
      <trkpt lat="44.1765" lon="6.83884">
        <ele>1760.3</ele>
        <time>2013-09-04T13:03:41Z</time>
      </trkpt>
      <trkpt lat="44.17648" lon="6.83885">
        <ele>1759.4</ele>
        <time>2013-09-04T13:03:42Z</time>
      </trkpt>
      <trkpt lat="44.17645" lon="6.83886">
        <ele>1759.4</ele>
        <time>2013-09-04T13:03:43Z</time>
      </trkpt>
      <trkpt lat="44.17642" lon="6.83885">
        <ele>1758.4</ele>
        <time>2013-09-04T13:03:44Z</time>
      </trkpt>
      <trkpt lat="44.17639" lon="6.83884">
        <ele>1758.4</ele>
        <time>2013-09-04T13:03:45Z</time>
      </trkpt>
      <trkpt lat="44.17636" lon="6.8388">
        <ele>1758.4</ele>
        <time>2013-09-04T13:03:46Z</time>
      </trkpt>
      <trkpt lat="44.17634" lon="6.83877">
        <ele>1757.9</ele>
        <time>2013-09-04T13:03:47Z</time>
      </trkpt>
      <trkpt lat="44.17614" lon="6.8385">
        <ele>1759.4</ele>
        <time>2013-09-04T13:04:00Z</time>
      </trkpt>
      <trkpt lat="44.17581" lon="6.83835">
        <ele>1756</ele>
        <time>2013-09-04T13:04:12Z</time>
      </trkpt>
      <trkpt lat="44.17572" lon="6.83834">
        <ele>1755.5</ele>
        <time>2013-09-04T13:04:14Z</time>
      </trkpt>
      <trkpt lat="44.17536" lon="6.83818">
        <ele>1753.1</ele>
        <time>2013-09-04T13:04:22Z</time>
      </trkpt>
      <trkpt lat="44.17532" lon="6.83815">
        <ele>1752.6</ele>
        <time>2013-09-04T13:04:23Z</time>
      </trkpt>
      <trkpt lat="44.17529" lon="6.83811">
        <ele>1754.1</ele>
        <time>2013-09-04T13:04:24Z</time>
      </trkpt>
      <trkpt lat="44.17527" lon="6.83808">
        <ele>1753.6</ele>
        <time>2013-09-04T13:04:25Z</time>
      </trkpt>
      <trkpt lat="44.17525" lon="6.83804">
        <ele>1753.1</ele>
        <time>2013-09-04T13:04:26Z</time>
      </trkpt>
      <trkpt lat="44.17517" lon="6.83794">
        <ele>1751.2</ele>
        <time>2013-09-04T13:04:29Z</time>
      </trkpt>
      <trkpt lat="44.17513" lon="6.83791">
        <ele>1750.7</ele>
        <time>2013-09-04T13:04:30Z</time>
      </trkpt>
      <trkpt lat="44.17493" lon="6.83788">
        <ele>1747.3</ele>
        <time>2013-09-04T13:04:36Z</time>
      </trkpt>
      <trkpt lat="44.17492" lon="6.83792">
        <ele>1748.8</ele>
        <time>2013-09-04T13:04:46Z</time>
      </trkpt>
      <trkpt lat="44.17492" lon="6.83791">
        <ele>1745.4</ele>
        <time>2013-09-04T13:05:03Z</time>
      </trkpt>
      <trkpt lat="44.17493" lon="6.83795">
        <ele>1745.9</ele>
        <time>2013-09-04T13:05:33Z</time>
      </trkpt>
      <trkpt lat="44.175" lon="6.83816">
        <ele>1743.5</ele>
        <time>2013-09-04T13:05:38Z</time>
      </trkpt>
      <trkpt lat="44.17503" lon="6.83828">
        <ele>1742.5</ele>
        <time>2013-09-04T13:05:40Z</time>
      </trkpt>
      <trkpt lat="44.17508" lon="6.83848">
        <ele>1738.7</ele>
        <time>2013-09-04T13:05:43Z</time>
      </trkpt>
      <trkpt lat="44.17513" lon="6.83869">
        <ele>1735.3</ele>
        <time>2013-09-04T13:05:46Z</time>
      </trkpt>
      <trkpt lat="44.17515" lon="6.83876">
        <ele>1735.8</ele>
        <time>2013-09-04T13:05:47Z</time>
      </trkpt>
      <trkpt lat="44.17519" lon="6.83892">
        <ele>1734.4</ele>
        <time>2013-09-04T13:05:50Z</time>
      </trkpt>
      <trkpt lat="44.1752" lon="6.83899">
        <ele>1733.4</ele>
        <time>2013-09-04T13:05:52Z</time>
      </trkpt>
      <trkpt lat="44.17518" lon="6.83902">
        <ele>1733.4</ele>
        <time>2013-09-04T13:05:53Z</time>
      </trkpt>
      <trkpt lat="44.17516" lon="6.83905">
        <ele>1732.4</ele>
        <time>2013-09-04T13:05:54Z</time>
      </trkpt>
      <trkpt lat="44.17513" lon="6.83905">
        <ele>1732.4</ele>
        <time>2013-09-04T13:05:55Z</time>
      </trkpt>
      <trkpt lat="44.17509" lon="6.83904">
        <ele>1731.5</ele>
        <time>2013-09-04T13:05:56Z</time>
      </trkpt>
      <trkpt lat="44.17505" lon="6.83902">
        <ele>1729.6</ele>
        <time>2013-09-04T13:05:57Z</time>
      </trkpt>
      <trkpt lat="44.175" lon="6.83899">
        <ele>1729.1</ele>
        <time>2013-09-04T13:05:58Z</time>
      </trkpt>
      <trkpt lat="44.17495" lon="6.83898">
        <ele>1728.6</ele>
        <time>2013-09-04T13:05:59Z</time>
      </trkpt>
      <trkpt lat="44.1749" lon="6.83896">
        <ele>1727.2</ele>
        <time>2013-09-04T13:06:00Z</time>
      </trkpt>
      <trkpt lat="44.17485" lon="6.83896">
        <ele>1726.7</ele>
        <time>2013-09-04T13:06:01Z</time>
      </trkpt>
      <trkpt lat="44.1748" lon="6.83896">
        <ele>1726.2</ele>
        <time>2013-09-04T13:06:02Z</time>
      </trkpt>
      <trkpt lat="44.17476" lon="6.83895">
        <ele>1725.7</ele>
        <time>2013-09-04T13:06:03Z</time>
      </trkpt>
      <trkpt lat="44.17463" lon="6.83894">
        <ele>1723.3</ele>
        <time>2013-09-04T13:06:06Z</time>
      </trkpt>
      <trkpt lat="44.17439" lon="6.8389">
        <ele>1719.5</ele>
        <time>2013-09-04T13:06:12Z</time>
      </trkpt>
      <trkpt lat="44.17436" lon="6.83891">
        <ele>1719.5</ele>
        <time>2013-09-04T13:06:13Z</time>
      </trkpt>
      <trkpt lat="44.17435" lon="6.83893">
        <ele>1719.5</ele>
        <time>2013-09-04T13:06:14Z</time>
      </trkpt>
      <trkpt lat="44.17433" lon="6.83896">
        <ele>1719</ele>
        <time>2013-09-04T13:06:15Z</time>
      </trkpt>
      <trkpt lat="44.17433" lon="6.83899">
        <ele>1718</ele>
        <time>2013-09-04T13:06:16Z</time>
      </trkpt>
      <trkpt lat="44.17434" lon="6.83902">
        <ele>1718.5</ele>
        <time>2013-09-04T13:06:17Z</time>
      </trkpt>
      <trkpt lat="44.17435" lon="6.83905">
        <ele>1718</ele>
        <time>2013-09-04T13:06:18Z</time>
      </trkpt>
      <trkpt lat="44.17437" lon="6.83907">
        <ele>1717.5</ele>
        <time>2013-09-04T13:06:19Z</time>
      </trkpt>
      <trkpt lat="44.1744" lon="6.83909">
        <ele>1717.5</ele>
        <time>2013-09-04T13:06:20Z</time>
      </trkpt>
      <trkpt lat="44.17443" lon="6.83912">
        <ele>1717.5</ele>
        <time>2013-09-04T13:06:21Z</time>
      </trkpt>
      <trkpt lat="44.17457" lon="6.83927">
        <ele>1717.1</ele>
        <time>2013-09-04T13:06:27Z</time>
      </trkpt>
      <trkpt lat="44.17457" lon="6.83931">
        <ele>1716.6</ele>
        <time>2013-09-04T13:06:28Z</time>
      </trkpt>
      <trkpt lat="44.17456" lon="6.83934">
        <ele>1716.1</ele>
        <time>2013-09-04T13:06:29Z</time>
      </trkpt>
      <trkpt lat="44.17454" lon="6.83936">
        <ele>1715.1</ele>
        <time>2013-09-04T13:06:30Z</time>
      </trkpt>
      <trkpt lat="44.17451" lon="6.83937">
        <ele>1714.7</ele>
        <time>2013-09-04T13:06:31Z</time>
      </trkpt>
      <trkpt lat="44.17447" lon="6.83936">
        <ele>1713.7</ele>
        <time>2013-09-04T13:06:32Z</time>
      </trkpt>
      <trkpt lat="44.17442" lon="6.83936">
        <ele>1713.7</ele>
        <time>2013-09-04T13:06:33Z</time>
      </trkpt>
      <trkpt lat="44.17437" lon="6.83935">
        <ele>1713.7</ele>
        <time>2013-09-04T13:06:34Z</time>
      </trkpt>
      <trkpt lat="44.17428" lon="6.83934">
        <ele>1710.8</ele>
        <time>2013-09-04T13:06:36Z</time>
      </trkpt>
      <trkpt lat="44.17423" lon="6.83934">
        <ele>1710.3</ele>
        <time>2013-09-04T13:06:37Z</time>
      </trkpt>
      <trkpt lat="44.17415" lon="6.83934">
        <ele>1709.4</ele>
        <time>2013-09-04T13:06:39Z</time>
      </trkpt>
      <trkpt lat="44.17403" lon="6.83935">
        <ele>1707.4</ele>
        <time>2013-09-04T13:06:42Z</time>
      </trkpt>
      <trkpt lat="44.17396" lon="6.83939">
        <ele>1705.5</ele>
        <time>2013-09-04T13:06:44Z</time>
      </trkpt>
      <trkpt lat="44.17392" lon="6.83943">
        <ele>1704.1</ele>
        <time>2013-09-04T13:06:45Z</time>
      </trkpt>
      <trkpt lat="44.17389" lon="6.83947">
        <ele>1703.6</ele>
        <time>2013-09-04T13:06:46Z</time>
      </trkpt>
      <trkpt lat="44.17386" lon="6.83951">
        <ele>1703.6</ele>
        <time>2013-09-04T13:06:47Z</time>
      </trkpt>
      <trkpt lat="44.17383" lon="6.83956">
        <ele>1702.6</ele>
        <time>2013-09-04T13:06:48Z</time>
      </trkpt>
      <trkpt lat="44.1738" lon="6.8396">
        <ele>1701.7</ele>
        <time>2013-09-04T13:06:49Z</time>
      </trkpt>
      <trkpt lat="44.1737" lon="6.83976">
        <ele>1698.8</ele>
        <time>2013-09-04T13:06:54Z</time>
      </trkpt>
      <trkpt lat="44.17367" lon="6.83998">
        <ele>1695.9</ele>
        <time>2013-09-04T13:07:00Z</time>
      </trkpt>
      <trkpt lat="44.17367" lon="6.8401">
        <ele>1694</ele>
        <time>2013-09-04T13:07:03Z</time>
      </trkpt>
      <trkpt lat="44.17367" lon="6.84026">
        <ele>1690.1</ele>
        <time>2013-09-04T13:07:06Z</time>
      </trkpt>
      <trkpt lat="44.17366" lon="6.84038">
        <ele>1688.7</ele>
        <time>2013-09-04T13:07:08Z</time>
      </trkpt>
      <trkpt lat="44.17363" lon="6.84057">
        <ele>1685.3</ele>
        <time>2013-09-04T13:07:11Z</time>
      </trkpt>
      <trkpt lat="44.17358" lon="6.84073">
        <ele>1683.4</ele>
        <time>2013-09-04T13:07:14Z</time>
      </trkpt>
      <trkpt lat="44.17354" lon="6.84089">
        <ele>1679.6</ele>
        <time>2013-09-04T13:07:17Z</time>
      </trkpt>
      <trkpt lat="44.17353" lon="6.84095">
        <ele>1679.1</ele>
        <time>2013-09-04T13:07:18Z</time>
      </trkpt>
      <trkpt lat="44.17353" lon="6.84101">
        <ele>1677.6</ele>
        <time>2013-09-04T13:07:19Z</time>
      </trkpt>
      <trkpt lat="44.17354" lon="6.84106">
        <ele>1677.2</ele>
        <time>2013-09-04T13:07:20Z</time>
      </trkpt>
      <trkpt lat="44.17356" lon="6.8411">
        <ele>1676.2</ele>
        <time>2013-09-04T13:07:21Z</time>
      </trkpt>
      <trkpt lat="44.17359" lon="6.84114">
        <ele>1675.7</ele>
        <time>2013-09-04T13:07:22Z</time>
      </trkpt>
      <trkpt lat="44.17363" lon="6.84117">
        <ele>1675.7</ele>
        <time>2013-09-04T13:07:23Z</time>
      </trkpt>
      <trkpt lat="44.17367" lon="6.84119">
        <ele>1674.3</ele>
        <time>2013-09-04T13:07:24Z</time>
      </trkpt>
      <trkpt lat="44.1737" lon="6.84121">
        <ele>1675.2</ele>
        <time>2013-09-04T13:07:25Z</time>
      </trkpt>
      <trkpt lat="44.1738" lon="6.84129">
        <ele>1674.8</ele>
        <time>2013-09-04T13:07:28Z</time>
      </trkpt>
      <trkpt lat="44.17389" lon="6.84142">
        <ele>1673.8</ele>
        <time>2013-09-04T13:07:31Z</time>
      </trkpt>
      <trkpt lat="44.17393" lon="6.84147">
        <ele>1672.8</ele>
        <time>2013-09-04T13:07:32Z</time>
      </trkpt>
      <trkpt lat="44.17396" lon="6.84153">
        <ele>1672.8</ele>
        <time>2013-09-04T13:07:33Z</time>
      </trkpt>
      <trkpt lat="44.17399" lon="6.84158">
        <ele>1672.4</ele>
        <time>2013-09-04T13:07:34Z</time>
      </trkpt>
      <trkpt lat="44.17401" lon="6.84162">
        <ele>1672.4</ele>
        <time>2013-09-04T13:07:35Z</time>
      </trkpt>
      <trkpt lat="44.17402" lon="6.84166">
        <ele>1671.4</ele>
        <time>2013-09-04T13:07:36Z</time>
      </trkpt>
      <trkpt lat="44.17401" lon="6.84169">
        <ele>1670.9</ele>
        <time>2013-09-04T13:07:37Z</time>
      </trkpt>
      <trkpt lat="44.17388" lon="6.84174">
        <ele>1669</ele>
        <time>2013-09-04T13:07:40Z</time>
      </trkpt>
      <trkpt lat="44.17384" lon="6.84175">
        <ele>1669</ele>
        <time>2013-09-04T13:07:41Z</time>
      </trkpt>
      <trkpt lat="44.17381" lon="6.84175">
        <ele>1668.5</ele>
        <time>2013-09-04T13:07:42Z</time>
      </trkpt>
      <trkpt lat="44.17375" lon="6.84174">
        <ele>1667.5</ele>
        <time>2013-09-04T13:07:44Z</time>
      </trkpt>
      <trkpt lat="44.17372" lon="6.84171">
        <ele>1667.5</ele>
        <time>2013-09-04T13:07:45Z</time>
      </trkpt>
      <trkpt lat="44.17356" lon="6.84165">
        <ele>1668</ele>
        <time>2013-09-04T13:07:54Z</time>
      </trkpt>
      <trkpt lat="44.17354" lon="6.84169">
        <ele>1666.1</ele>
        <time>2013-09-04T13:08:17Z</time>
      </trkpt>
      <trkpt lat="44.17354" lon="6.8417">
        <ele>1666.6</ele>
        <time>2013-09-04T13:08:18Z</time>
      </trkpt>
      <trkpt lat="44.1733" lon="6.84202">
        <ele>1667.5</ele>
        <time>2013-09-04T13:08:34Z</time>
      </trkpt>
      <trkpt lat="44.17291" lon="6.84239">
        <ele>1666.6</ele>
        <time>2013-09-04T13:08:50Z</time>
      </trkpt>
      <trkpt lat="44.17269" lon="6.84218">
        <ele>1666.6</ele>
        <time>2013-09-04T13:09:01Z</time>
      </trkpt>
      <trkpt lat="44.1726" lon="6.84191">
        <ele>1667.1</ele>
        <time>2013-09-04T13:09:09Z</time>
      </trkpt>
      <trkpt lat="44.17257" lon="6.84191">
        <ele>1666.6</ele>
        <time>2013-09-04T13:09:10Z</time>
      </trkpt>
      <trkpt lat="44.17255" lon="6.84192">
        <ele>1666.6</ele>
        <time>2013-09-04T13:09:11Z</time>
      </trkpt>
      <trkpt lat="44.17253" lon="6.84194">
        <ele>1666.6</ele>
        <time>2013-09-04T13:09:12Z</time>
      </trkpt>
      <trkpt lat="44.17252" lon="6.84196">
        <ele>1666.6</ele>
        <time>2013-09-04T13:09:13Z</time>
      </trkpt>
      <trkpt lat="44.1725" lon="6.84198">
        <ele>1667.1</ele>
        <time>2013-09-04T13:09:14Z</time>
      </trkpt>
      <trkpt lat="44.17248" lon="6.84201">
        <ele>1667.1</ele>
        <time>2013-09-04T13:09:15Z</time>
      </trkpt>
      <trkpt lat="44.17247" lon="6.84205">
        <ele>1667.1</ele>
        <time>2013-09-04T13:09:16Z</time>
      </trkpt>
      <trkpt lat="44.17246" lon="6.8421">
        <ele>1667.1</ele>
        <time>2013-09-04T13:09:17Z</time>
      </trkpt>
      <trkpt lat="44.17244" lon="6.84215">
        <ele>1666.6</ele>
        <time>2013-09-04T13:09:18Z</time>
      </trkpt>
      <trkpt lat="44.17232" lon="6.84241">
        <ele>1665.6</ele>
        <time>2013-09-04T13:09:23Z</time>
      </trkpt>
      <trkpt lat="44.17229" lon="6.84245">
        <ele>1665.6</ele>
        <time>2013-09-04T13:09:24Z</time>
      </trkpt>
      <trkpt lat="44.17226" lon="6.84249">
        <ele>1666.1</ele>
        <time>2013-09-04T13:09:25Z</time>
      </trkpt>
      <trkpt lat="44.17222" lon="6.84251">
        <ele>1666.6</ele>
        <time>2013-09-04T13:09:26Z</time>
      </trkpt>
      <trkpt lat="44.17219" lon="6.84253">
        <ele>1665.6</ele>
        <time>2013-09-04T13:09:27Z</time>
      </trkpt>
      <trkpt lat="44.17215" lon="6.84254">
        <ele>1665.6</ele>
        <time>2013-09-04T13:09:28Z</time>
      </trkpt>
      <trkpt lat="44.17212" lon="6.84255">
        <ele>1665.6</ele>
        <time>2013-09-04T13:09:29Z</time>
      </trkpt>
      <trkpt lat="44.17209" lon="6.84256">
        <ele>1666.1</ele>
        <time>2013-09-04T13:09:30Z</time>
      </trkpt>
      <trkpt lat="44.17205" lon="6.84257">
        <ele>1666.1</ele>
        <time>2013-09-04T13:09:31Z</time>
      </trkpt>
      <trkpt lat="44.17202" lon="6.84257">
        <ele>1665.6</ele>
        <time>2013-09-04T13:09:32Z</time>
      </trkpt>
      <trkpt lat="44.17142" lon="6.84269">
        <ele>1662.7</ele>
        <time>2013-09-04T13:09:47Z</time>
      </trkpt>
      <trkpt lat="44.17138" lon="6.84271">
        <ele>1662.3</ele>
        <time>2013-09-04T13:09:48Z</time>
      </trkpt>
      <trkpt lat="44.17134" lon="6.84274">
        <ele>1661.8</ele>
        <time>2013-09-04T13:09:49Z</time>
      </trkpt>
      <trkpt lat="44.17131" lon="6.84278">
        <ele>1661.3</ele>
        <time>2013-09-04T13:09:50Z</time>
      </trkpt>
      <trkpt lat="44.17128" lon="6.84282">
        <ele>1660.3</ele>
        <time>2013-09-04T13:09:51Z</time>
      </trkpt>
      <trkpt lat="44.17126" lon="6.84285">
        <ele>1660.8</ele>
        <time>2013-09-04T13:09:52Z</time>
      </trkpt>
      <trkpt lat="44.17125" lon="6.84289">
        <ele>1660.3</ele>
        <time>2013-09-04T13:09:53Z</time>
      </trkpt>
      <trkpt lat="44.17123" lon="6.84294">
        <ele>1659.9</ele>
        <time>2013-09-04T13:09:54Z</time>
      </trkpt>
      <trkpt lat="44.17121" lon="6.84314">
        <ele>1657.9</ele>
        <time>2013-09-04T13:10:04Z</time>
      </trkpt>
      <trkpt lat="44.17117" lon="6.84341">
        <ele>1656</ele>
        <time>2013-09-04T13:10:14Z</time>
      </trkpt>
      <trkpt lat="44.17116" lon="6.84347">
        <ele>1656</ele>
        <time>2013-09-04T13:10:15Z</time>
      </trkpt>
      <trkpt lat="44.1711" lon="6.8438">
        <ele>1654.1</ele>
        <time>2013-09-04T13:10:21Z</time>
      </trkpt>
      <trkpt lat="44.17108" lon="6.84385">
        <ele>1653.6</ele>
        <time>2013-09-04T13:10:22Z</time>
      </trkpt>
      <trkpt lat="44.17105" lon="6.84389">
        <ele>1653.6</ele>
        <time>2013-09-04T13:10:23Z</time>
      </trkpt>
      <trkpt lat="44.17102" lon="6.84393">
        <ele>1653.1</ele>
        <time>2013-09-04T13:10:24Z</time>
      </trkpt>
      <trkpt lat="44.17098" lon="6.84396">
        <ele>1653.6</ele>
        <time>2013-09-04T13:10:25Z</time>
      </trkpt>
      <trkpt lat="44.17093" lon="6.84399">
        <ele>1652.6</ele>
        <time>2013-09-04T13:10:26Z</time>
      </trkpt>
      <trkpt lat="44.17088" lon="6.844">
        <ele>1651.7</ele>
        <time>2013-09-04T13:10:27Z</time>
      </trkpt>
      <trkpt lat="44.17084" lon="6.84403">
        <ele>1652.6</ele>
        <time>2013-09-04T13:10:28Z</time>
      </trkpt>
      <trkpt lat="44.1708" lon="6.84406">
        <ele>1652.2</ele>
        <time>2013-09-04T13:10:29Z</time>
      </trkpt>
      <trkpt lat="44.17076" lon="6.84408">
        <ele>1651.7</ele>
        <time>2013-09-04T13:10:30Z</time>
      </trkpt>
      <trkpt lat="44.17071" lon="6.8441">
        <ele>1651.2</ele>
        <time>2013-09-04T13:10:31Z</time>
      </trkpt>
      <trkpt lat="44.17067" lon="6.84408">
        <ele>1651.2</ele>
        <time>2013-09-04T13:10:32Z</time>
      </trkpt>
      <trkpt lat="44.17063" lon="6.84404">
        <ele>1650.7</ele>
        <time>2013-09-04T13:10:33Z</time>
      </trkpt>
      <trkpt lat="44.17061" lon="6.844">
        <ele>1650.2</ele>
        <time>2013-09-04T13:10:34Z</time>
      </trkpt>
      <trkpt lat="44.17058" lon="6.84396">
        <ele>1650.2</ele>
        <time>2013-09-04T13:10:35Z</time>
      </trkpt>
      <trkpt lat="44.17056" lon="6.84393">
        <ele>1649.3</ele>
        <time>2013-09-04T13:10:36Z</time>
      </trkpt>
      <trkpt lat="44.17053" lon="6.8439">
        <ele>1649.3</ele>
        <time>2013-09-04T13:10:37Z</time>
      </trkpt>
      <trkpt lat="44.1704" lon="6.8437">
        <ele>1647.4</ele>
        <time>2013-09-04T13:10:42Z</time>
      </trkpt>
      <trkpt lat="44.17036" lon="6.84366">
        <ele>1647.4</ele>
        <time>2013-09-04T13:10:43Z</time>
      </trkpt>
      <trkpt lat="44.17031" lon="6.84363">
        <ele>1646.9</ele>
        <time>2013-09-04T13:10:44Z</time>
      </trkpt>
      <trkpt lat="44.17026" lon="6.84361">
        <ele>1645</ele>
        <time>2013-09-04T13:10:45Z</time>
      </trkpt>
      <trkpt lat="44.1702" lon="6.84359">
        <ele>1645.9</ele>
        <time>2013-09-04T13:10:46Z</time>
      </trkpt>
      <trkpt lat="44.17014" lon="6.84359">
        <ele>1645</ele>
        <time>2013-09-04T13:10:47Z</time>
      </trkpt>
      <trkpt lat="44.17009" lon="6.84358">
        <ele>1644.5</ele>
        <time>2013-09-04T13:10:48Z</time>
      </trkpt>
      <trkpt lat="44.17003" lon="6.84359">
        <ele>1644</ele>
        <time>2013-09-04T13:10:49Z</time>
      </trkpt>
      <trkpt lat="44.16987" lon="6.84359">
        <ele>1643</ele>
        <time>2013-09-04T13:10:52Z</time>
      </trkpt>
      <trkpt lat="44.16983" lon="6.84358">
        <ele>1642.6</ele>
        <time>2013-09-04T13:10:53Z</time>
      </trkpt>
      <trkpt lat="44.16978" lon="6.84356">
        <ele>1641.6</ele>
        <time>2013-09-04T13:10:54Z</time>
      </trkpt>
      <trkpt lat="44.16974" lon="6.84353">
        <ele>1641.6</ele>
        <time>2013-09-04T13:10:55Z</time>
      </trkpt>
      <trkpt lat="44.1697" lon="6.84351">
        <ele>1641.1</ele>
        <time>2013-09-04T13:10:56Z</time>
      </trkpt>
      <trkpt lat="44.16966" lon="6.8435">
        <ele>1640.6</ele>
        <time>2013-09-04T13:10:57Z</time>
      </trkpt>
      <trkpt lat="44.16961" lon="6.84349">
        <ele>1640.6</ele>
        <time>2013-09-04T13:10:58Z</time>
      </trkpt>
      <trkpt lat="44.16952" lon="6.84347">
        <ele>1638.7</ele>
        <time>2013-09-04T13:11:00Z</time>
      </trkpt>
      <trkpt lat="44.16947" lon="6.84344">
        <ele>1638.2</ele>
        <time>2013-09-04T13:11:01Z</time>
      </trkpt>
      <trkpt lat="44.16943" lon="6.84342">
        <ele>1638.2</ele>
        <time>2013-09-04T13:11:02Z</time>
      </trkpt>
      <trkpt lat="44.16938" lon="6.84341">
        <ele>1637.7</ele>
        <time>2013-09-04T13:11:03Z</time>
      </trkpt>
      <trkpt lat="44.16934" lon="6.84341">
        <ele>1637.3</ele>
        <time>2013-09-04T13:11:04Z</time>
      </trkpt>
      <trkpt lat="44.1693" lon="6.84343">
        <ele>1636.3</ele>
        <time>2013-09-04T13:11:05Z</time>
      </trkpt>
      <trkpt lat="44.16927" lon="6.84346">
        <ele>1638.2</ele>
        <time>2013-09-04T13:11:06Z</time>
      </trkpt>
      <trkpt lat="44.16922" lon="6.84349">
        <ele>1636.8</ele>
        <time>2013-09-04T13:11:07Z</time>
      </trkpt>
      <trkpt lat="44.16918" lon="6.84352">
        <ele>1635.8</ele>
        <time>2013-09-04T13:11:08Z</time>
      </trkpt>
      <trkpt lat="44.16897" lon="6.84371">
        <ele>1634.9</ele>
        <time>2013-09-04T13:11:13Z</time>
      </trkpt>
      <trkpt lat="44.16893" lon="6.84372">
        <ele>1633.4</ele>
        <time>2013-09-04T13:11:14Z</time>
      </trkpt>
      <trkpt lat="44.16889" lon="6.84373">
        <ele>1633.4</ele>
        <time>2013-09-04T13:11:15Z</time>
      </trkpt>
      <trkpt lat="44.16876" lon="6.84377">
        <ele>1632.9</ele>
        <time>2013-09-04T13:11:18Z</time>
      </trkpt>
      <trkpt lat="44.16868" lon="6.84378">
        <ele>1632</ele>
        <time>2013-09-04T13:11:20Z</time>
      </trkpt>
      <trkpt lat="44.16852" lon="6.84371">
        <ele>1630.5</ele>
        <time>2013-09-04T13:11:24Z</time>
      </trkpt>
      <trkpt lat="44.16843" lon="6.84333">
        <ele>1627.2</ele>
        <time>2013-09-04T13:11:33Z</time>
      </trkpt>
      <trkpt lat="44.16834" lon="6.84303">
        <ele>1624.3</ele>
        <time>2013-09-04T13:11:39Z</time>
      </trkpt>
      <trkpt lat="44.16824" lon="6.84274">
        <ele>1622.4</ele>
        <time>2013-09-04T13:11:44Z</time>
      </trkpt>
      <trkpt lat="44.1682" lon="6.84265">
        <ele>1621.4</ele>
        <time>2013-09-04T13:11:46Z</time>
      </trkpt>
      <trkpt lat="44.16818" lon="6.8426">
        <ele>1620.9</ele>
        <time>2013-09-04T13:11:47Z</time>
      </trkpt>
      <trkpt lat="44.16815" lon="6.84256">
        <ele>1620.9</ele>
        <time>2013-09-04T13:11:48Z</time>
      </trkpt>
      <trkpt lat="44.16811" lon="6.84252">
        <ele>1619.5</ele>
        <time>2013-09-04T13:11:49Z</time>
      </trkpt>
      <trkpt lat="44.16807" lon="6.84248">
        <ele>1620</ele>
        <time>2013-09-04T13:11:50Z</time>
      </trkpt>
      <trkpt lat="44.16801" lon="6.84244">
        <ele>1618.5</ele>
        <time>2013-09-04T13:11:51Z</time>
      </trkpt>
      <trkpt lat="44.16785" lon="6.84232">
        <ele>1617.1</ele>
        <time>2013-09-04T13:11:54Z</time>
      </trkpt>
      <trkpt lat="44.16769" lon="6.84221">
        <ele>1616.1</ele>
        <time>2013-09-04T13:11:57Z</time>
      </trkpt>
      <trkpt lat="44.16754" lon="6.84207">
        <ele>1614.2</ele>
        <time>2013-09-04T13:12:00Z</time>
      </trkpt>
      <trkpt lat="44.16749" lon="6.84205">
        <ele>1613.7</ele>
        <time>2013-09-04T13:12:01Z</time>
      </trkpt>
      <trkpt lat="44.16744" lon="6.84204">
        <ele>1613.2</ele>
        <time>2013-09-04T13:12:02Z</time>
      </trkpt>
      <trkpt lat="44.16739" lon="6.84203">
        <ele>1612.8</ele>
        <time>2013-09-04T13:12:03Z</time>
      </trkpt>
      <trkpt lat="44.16734" lon="6.84202">
        <ele>1612.3</ele>
        <time>2013-09-04T13:12:04Z</time>
      </trkpt>
      <trkpt lat="44.16728" lon="6.84201">
        <ele>1612.8</ele>
        <time>2013-09-04T13:12:05Z</time>
      </trkpt>
      <trkpt lat="44.16724" lon="6.842">
        <ele>1612.3</ele>
        <time>2013-09-04T13:12:06Z</time>
      </trkpt>
      <trkpt lat="44.16709" lon="6.84191">
        <ele>1610.8</ele>
        <time>2013-09-04T13:12:09Z</time>
      </trkpt>
      <trkpt lat="44.16693" lon="6.84176">
        <ele>1609.9</ele>
        <time>2013-09-04T13:12:13Z</time>
      </trkpt>
      <trkpt lat="44.16689" lon="6.84174">
        <ele>1609.9</ele>
        <time>2013-09-04T13:12:14Z</time>
      </trkpt>
      <trkpt lat="44.16686" lon="6.84173">
        <ele>1609.4</ele>
        <time>2013-09-04T13:12:15Z</time>
      </trkpt>
      <trkpt lat="44.16682" lon="6.84175">
        <ele>1608.4</ele>
        <time>2013-09-04T13:12:16Z</time>
      </trkpt>
      <trkpt lat="44.16679" lon="6.84177">
        <ele>1608.4</ele>
        <time>2013-09-04T13:12:17Z</time>
      </trkpt>
      <trkpt lat="44.16675" lon="6.84179">
        <ele>1608.4</ele>
        <time>2013-09-04T13:12:18Z</time>
      </trkpt>
      <trkpt lat="44.16671" lon="6.84181">
        <ele>1608.4</ele>
        <time>2013-09-04T13:12:19Z</time>
      </trkpt>
      <trkpt lat="44.16667" lon="6.84184">
        <ele>1608.4</ele>
        <time>2013-09-04T13:12:20Z</time>
      </trkpt>
      <trkpt lat="44.16648" lon="6.84196">
        <ele>1607</ele>
        <time>2013-09-04T13:12:24Z</time>
      </trkpt>
      <trkpt lat="44.16643" lon="6.84198">
        <ele>1607</ele>
        <time>2013-09-04T13:12:25Z</time>
      </trkpt>
      <trkpt lat="44.16637" lon="6.84199">
        <ele>1605.5</ele>
        <time>2013-09-04T13:12:26Z</time>
      </trkpt>
      <trkpt lat="44.16627" lon="6.84202">
        <ele>1604.6</ele>
        <time>2013-09-04T13:12:28Z</time>
      </trkpt>
      <trkpt lat="44.16602" lon="6.84215">
        <ele>1601.7</ele>
        <time>2013-09-04T13:12:36Z</time>
      </trkpt>
      <trkpt lat="44.16579" lon="6.8423">
        <ele>1600.3</ele>
        <time>2013-09-04T13:12:41Z</time>
      </trkpt>
      <trkpt lat="44.16574" lon="6.84232">
        <ele>1599.8</ele>
        <time>2013-09-04T13:12:42Z</time>
      </trkpt>
      <trkpt lat="44.16565" lon="6.84235">
        <ele>1597.9</ele>
        <time>2013-09-04T13:12:44Z</time>
      </trkpt>
      <trkpt lat="44.1656" lon="6.84237">
        <ele>1598.3</ele>
        <time>2013-09-04T13:12:45Z</time>
      </trkpt>
      <trkpt lat="44.16555" lon="6.84239">
        <ele>1598.3</ele>
        <time>2013-09-04T13:12:46Z</time>
      </trkpt>
      <trkpt lat="44.16536" lon="6.84247">
        <ele>1595</ele>
        <time>2013-09-04T13:12:52Z</time>
      </trkpt>
      <trkpt lat="44.16535" lon="6.84251">
        <ele>1595.5</ele>
        <time>2013-09-04T13:13:04Z</time>
      </trkpt>
      <trkpt lat="44.16516" lon="6.84252">
        <ele>1594</ele>
        <time>2013-09-04T13:13:16Z</time>
      </trkpt>
      <trkpt lat="44.16508" lon="6.84251">
        <ele>1593</ele>
        <time>2013-09-04T13:13:18Z</time>
      </trkpt>
      <trkpt lat="44.16503" lon="6.84249">
        <ele>1592.1</ele>
        <time>2013-09-04T13:13:19Z</time>
      </trkpt>
      <trkpt lat="44.16498" lon="6.84247">
        <ele>1592.1</ele>
        <time>2013-09-04T13:13:20Z</time>
      </trkpt>
      <trkpt lat="44.16484" lon="6.84238">
        <ele>1590.6</ele>
        <time>2013-09-04T13:13:23Z</time>
      </trkpt>
      <trkpt lat="44.1648" lon="6.84236">
        <ele>1590.2</ele>
        <time>2013-09-04T13:13:24Z</time>
      </trkpt>
      <trkpt lat="44.16475" lon="6.84235">
        <ele>1589.7</ele>
        <time>2013-09-04T13:13:25Z</time>
      </trkpt>
      <trkpt lat="44.1647" lon="6.84234">
        <ele>1589.2</ele>
        <time>2013-09-04T13:13:26Z</time>
      </trkpt>
      <trkpt lat="44.16465" lon="6.84234">
        <ele>1588.2</ele>
        <time>2013-09-04T13:13:27Z</time>
      </trkpt>
      <trkpt lat="44.1646" lon="6.84233">
        <ele>1588.2</ele>
        <time>2013-09-04T13:13:28Z</time>
      </trkpt>
      <trkpt lat="44.16454" lon="6.84231">
        <ele>1587.8</ele>
        <time>2013-09-04T13:13:29Z</time>
      </trkpt>
      <trkpt lat="44.16449" lon="6.84229">
        <ele>1586.8</ele>
        <time>2013-09-04T13:13:30Z</time>
      </trkpt>
      <trkpt lat="44.16444" lon="6.84225">
        <ele>1586.3</ele>
        <time>2013-09-04T13:13:31Z</time>
      </trkpt>
      <trkpt lat="44.16434" lon="6.84219">
        <ele>1585.8</ele>
        <time>2013-09-04T13:13:33Z</time>
      </trkpt>
      <trkpt lat="44.16429" lon="6.84217">
        <ele>1585.4</ele>
        <time>2013-09-04T13:13:34Z</time>
      </trkpt>
      <trkpt lat="44.16423" lon="6.84215">
        <ele>1584.9</ele>
        <time>2013-09-04T13:13:35Z</time>
      </trkpt>
      <trkpt lat="44.16417" lon="6.84214">
        <ele>1584.4</ele>
        <time>2013-09-04T13:13:36Z</time>
      </trkpt>
      <trkpt lat="44.16399" lon="6.84211">
        <ele>1582.5</ele>
        <time>2013-09-04T13:13:39Z</time>
      </trkpt>
      <trkpt lat="44.16394" lon="6.84209">
        <ele>1582</ele>
        <time>2013-09-04T13:13:40Z</time>
      </trkpt>
      <trkpt lat="44.1639" lon="6.84206">
        <ele>1581.5</ele>
        <time>2013-09-04T13:13:41Z</time>
      </trkpt>
      <trkpt lat="44.16385" lon="6.84202">
        <ele>1580.5</ele>
        <time>2013-09-04T13:13:42Z</time>
      </trkpt>
      <trkpt lat="44.16381" lon="6.84197">
        <ele>1580.5</ele>
        <time>2013-09-04T13:13:43Z</time>
      </trkpt>
      <trkpt lat="44.16362" lon="6.84176">
        <ele>1578.6</ele>
        <time>2013-09-04T13:13:47Z</time>
      </trkpt>
      <trkpt lat="44.16357" lon="6.8417">
        <ele>1576.7</ele>
        <time>2013-09-04T13:13:48Z</time>
      </trkpt>
      <trkpt lat="44.16353" lon="6.84162">
        <ele>1577.2</ele>
        <time>2013-09-04T13:13:49Z</time>
      </trkpt>
      <trkpt lat="44.1635" lon="6.84154">
        <ele>1576.7</ele>
        <time>2013-09-04T13:13:50Z</time>
      </trkpt>
      <trkpt lat="44.16347" lon="6.84147">
        <ele>1576.7</ele>
        <time>2013-09-04T13:13:51Z</time>
      </trkpt>
      <trkpt lat="44.16344" lon="6.84141">
        <ele>1577.2</ele>
        <time>2013-09-04T13:13:52Z</time>
      </trkpt>
      <trkpt lat="44.16341" lon="6.84137">
        <ele>1576.2</ele>
        <time>2013-09-04T13:13:53Z</time>
      </trkpt>
      <trkpt lat="44.16337" lon="6.84134">
        <ele>1576.2</ele>
        <time>2013-09-04T13:13:54Z</time>
      </trkpt>
      <trkpt lat="44.16332" lon="6.84132">
        <ele>1576.7</ele>
        <time>2013-09-04T13:13:55Z</time>
      </trkpt>
      <trkpt lat="44.16327" lon="6.84132">
        <ele>1575.3</ele>
        <time>2013-09-04T13:13:56Z</time>
      </trkpt>
      <trkpt lat="44.16321" lon="6.84132">
        <ele>1574.8</ele>
        <time>2013-09-04T13:13:57Z</time>
      </trkpt>
      <trkpt lat="44.16314" lon="6.84132">
        <ele>1574.8</ele>
        <time>2013-09-04T13:13:58Z</time>
      </trkpt>
      <trkpt lat="44.16303" lon="6.84134">
        <ele>1573.8</ele>
        <time>2013-09-04T13:14:00Z</time>
      </trkpt>
      <trkpt lat="44.16292" lon="6.8414">
        <ele>1571.9</ele>
        <time>2013-09-04T13:14:02Z</time>
      </trkpt>
      <trkpt lat="44.16287" lon="6.84144">
        <ele>1571.9</ele>
        <time>2013-09-04T13:14:03Z</time>
      </trkpt>
      <trkpt lat="44.16272" lon="6.84156">
        <ele>1570</ele>
        <time>2013-09-04T13:14:06Z</time>
      </trkpt>
      <trkpt lat="44.16267" lon="6.84161">
        <ele>1569</ele>
        <time>2013-09-04T13:14:07Z</time>
      </trkpt>
      <trkpt lat="44.16262" lon="6.84165">
        <ele>1569</ele>
        <time>2013-09-04T13:14:08Z</time>
      </trkpt>
      <trkpt lat="44.16246" lon="6.84175">
        <ele>1567.6</ele>
        <time>2013-09-04T13:14:11Z</time>
      </trkpt>
      <trkpt lat="44.16228" lon="6.84178">
        <ele>1567.6</ele>
        <time>2013-09-04T13:14:14Z</time>
      </trkpt>
      <trkpt lat="44.16222" lon="6.84177">
        <ele>1566.6</ele>
        <time>2013-09-04T13:14:15Z</time>
      </trkpt>
      <trkpt lat="44.16217" lon="6.84176">
        <ele>1566.6</ele>
        <time>2013-09-04T13:14:16Z</time>
      </trkpt>
      <trkpt lat="44.16212" lon="6.84173">
        <ele>1565.6</ele>
        <time>2013-09-04T13:14:17Z</time>
      </trkpt>
      <trkpt lat="44.16208" lon="6.84171">
        <ele>1564.7</ele>
        <time>2013-09-04T13:14:18Z</time>
      </trkpt>
      <trkpt lat="44.16203" lon="6.84168">
        <ele>1564.2</ele>
        <time>2013-09-04T13:14:19Z</time>
      </trkpt>
      <trkpt lat="44.16199" lon="6.84165">
        <ele>1564.2</ele>
        <time>2013-09-04T13:14:20Z</time>
      </trkpt>
      <trkpt lat="44.16193" lon="6.84163">
        <ele>1563.7</ele>
        <time>2013-09-04T13:14:21Z</time>
      </trkpt>
      <trkpt lat="44.16187" lon="6.84162">
        <ele>1563.7</ele>
        <time>2013-09-04T13:14:22Z</time>
      </trkpt>
      <trkpt lat="44.1617" lon="6.84161">
        <ele>1562.3</ele>
        <time>2013-09-04T13:14:25Z</time>
      </trkpt>
      <trkpt lat="44.16165" lon="6.8416">
        <ele>1561.8</ele>
        <time>2013-09-04T13:14:26Z</time>
      </trkpt>
      <trkpt lat="44.16156" lon="6.84157">
        <ele>1561.3</ele>
        <time>2013-09-04T13:14:28Z</time>
      </trkpt>
      <trkpt lat="44.16144" lon="6.84136">
        <ele>1558</ele>
        <time>2013-09-04T13:14:37Z</time>
      </trkpt>
      <trkpt lat="44.16143" lon="6.84131">
        <ele>1558.4</ele>
        <time>2013-09-04T13:14:57Z</time>
      </trkpt>
      <trkpt lat="44.16141" lon="6.84102">
        <ele>1556.5</ele>
        <time>2013-09-04T13:15:04Z</time>
      </trkpt>
      <trkpt lat="44.16138" lon="6.84075">
        <ele>1554.6</ele>
        <time>2013-09-04T13:15:08Z</time>
      </trkpt>
      <trkpt lat="44.16136" lon="6.84068">
        <ele>1554.1</ele>
        <time>2013-09-04T13:15:09Z</time>
      </trkpt>
      <trkpt lat="44.16134" lon="6.84061">
        <ele>1554.1</ele>
        <time>2013-09-04T13:15:10Z</time>
      </trkpt>
      <trkpt lat="44.16125" lon="6.84035">
        <ele>1552.2</ele>
        <time>2013-09-04T13:15:14Z</time>
      </trkpt>
      <trkpt lat="44.16124" lon="6.84029">
        <ele>1552.2</ele>
        <time>2013-09-04T13:15:15Z</time>
      </trkpt>
      <trkpt lat="44.16123" lon="6.84023">
        <ele>1551.7</ele>
        <time>2013-09-04T13:15:16Z</time>
      </trkpt>
      <trkpt lat="44.16123" lon="6.84016">
        <ele>1550.3</ele>
        <time>2013-09-04T13:15:17Z</time>
      </trkpt>
      <trkpt lat="44.16124" lon="6.84009">
        <ele>1550.3</ele>
        <time>2013-09-04T13:15:18Z</time>
      </trkpt>
      <trkpt lat="44.16125" lon="6.84002">
        <ele>1550.3</ele>
        <time>2013-09-04T13:15:19Z</time>
      </trkpt>
      <trkpt lat="44.16129" lon="6.83966">
        <ele>1548.8</ele>
        <time>2013-09-04T13:15:24Z</time>
      </trkpt>
      <trkpt lat="44.16128" lon="6.83959">
        <ele>1547.4</ele>
        <time>2013-09-04T13:15:25Z</time>
      </trkpt>
      <trkpt lat="44.16126" lon="6.83952">
        <ele>1547.9</ele>
        <time>2013-09-04T13:15:26Z</time>
      </trkpt>
      <trkpt lat="44.16125" lon="6.83945">
        <ele>1547.9</ele>
        <time>2013-09-04T13:15:27Z</time>
      </trkpt>
      <trkpt lat="44.16124" lon="6.83938">
        <ele>1545.9</ele>
        <time>2013-09-04T13:15:28Z</time>
      </trkpt>
      <trkpt lat="44.16122" lon="6.83922">
        <ele>1545</ele>
        <time>2013-09-04T13:15:30Z</time>
      </trkpt>
      <trkpt lat="44.1612" lon="6.83915">
        <ele>1545.9</ele>
        <time>2013-09-04T13:15:31Z</time>
      </trkpt>
      <trkpt lat="44.16117" lon="6.83908">
        <ele>1545</ele>
        <time>2013-09-04T13:15:32Z</time>
      </trkpt>
      <trkpt lat="44.16115" lon="6.83901">
        <ele>1545</ele>
        <time>2013-09-04T13:15:33Z</time>
      </trkpt>
      <trkpt lat="44.161" lon="6.83883">
        <ele>1544.5</ele>
        <time>2013-09-04T13:15:40Z</time>
      </trkpt>
      <trkpt lat="44.161" lon="6.83883">
        <ele>1545</ele>
        <time>2013-09-04T13:15:47Z</time>
      </trkpt>
      <trkpt lat="44.16097" lon="6.83884">
        <ele>1544</ele>
        <time>2013-09-04T13:15:59Z</time>
      </trkpt>
      <trkpt lat="44.16095" lon="6.83884">
        <ele>1544</ele>
        <time>2013-09-04T13:16:00Z</time>
      </trkpt>
      <trkpt lat="44.16083" lon="6.83891">
        <ele>1542.6</ele>
        <time>2013-09-04T13:16:04Z</time>
      </trkpt>
      <trkpt lat="44.1608" lon="6.83894">
        <ele>1542.6</ele>
        <time>2013-09-04T13:16:05Z</time>
      </trkpt>
      <trkpt lat="44.16077" lon="6.83896">
        <ele>1542.6</ele>
        <time>2013-09-04T13:16:06Z</time>
      </trkpt>
      <trkpt lat="44.16074" lon="6.83897">
        <ele>1543.1</ele>
        <time>2013-09-04T13:16:07Z</time>
      </trkpt>
      <trkpt lat="44.16072" lon="6.83898">
        <ele>1542.1</ele>
        <time>2013-09-04T13:16:08Z</time>
      </trkpt>
      <trkpt lat="44.1607" lon="6.83897">
        <ele>1541.6</ele>
        <time>2013-09-04T13:16:10Z</time>
      </trkpt>
      <trkpt lat="44.16068" lon="6.83897">
        <ele>1542.6</ele>
        <time>2013-09-04T13:16:13Z</time>
      </trkpt>
      <trkpt lat="44.16067" lon="6.83898">
        <ele>1541.6</ele>
        <time>2013-09-04T13:16:14Z</time>
      </trkpt>
      <trkpt lat="44.16065" lon="6.83899">
        <ele>1541.1</ele>
        <time>2013-09-04T13:16:15Z</time>
      </trkpt>
      <trkpt lat="44.16058" lon="6.839">
        <ele>1540.7</ele>
        <time>2013-09-04T13:16:17Z</time>
      </trkpt>
      <trkpt lat="44.16054" lon="6.83902">
        <ele>1540.7</ele>
        <time>2013-09-04T13:16:18Z</time>
      </trkpt>
      <trkpt lat="44.16051" lon="6.83905">
        <ele>1540.2</ele>
        <time>2013-09-04T13:16:19Z</time>
      </trkpt>
      <trkpt lat="44.16047" lon="6.83908">
        <ele>1538.7</ele>
        <time>2013-09-04T13:16:20Z</time>
      </trkpt>
      <trkpt lat="44.16044" lon="6.83912">
        <ele>1539.2</ele>
        <time>2013-09-04T13:16:21Z</time>
      </trkpt>
      <trkpt lat="44.16039" lon="6.83915">
        <ele>1538.3</ele>
        <time>2013-09-04T13:16:22Z</time>
      </trkpt>
      <trkpt lat="44.16035" lon="6.83918">
        <ele>1538.3</ele>
        <time>2013-09-04T13:16:23Z</time>
      </trkpt>
      <trkpt lat="44.16031" lon="6.83921">
        <ele>1537.8</ele>
        <time>2013-09-04T13:16:24Z</time>
      </trkpt>
      <trkpt lat="44.16011" lon="6.83931">
        <ele>1536.8</ele>
        <time>2013-09-04T13:16:28Z</time>
      </trkpt>
      <trkpt lat="44.1599" lon="6.83942">
        <ele>1534.9</ele>
        <time>2013-09-04T13:16:32Z</time>
      </trkpt>
      <trkpt lat="44.15954" lon="6.83973">
        <ele>1531.5</ele>
        <time>2013-09-04T13:16:40Z</time>
      </trkpt>
      <trkpt lat="44.15949" lon="6.83975">
        <ele>1530.6</ele>
        <time>2013-09-04T13:16:41Z</time>
      </trkpt>
      <trkpt lat="44.15946" lon="6.83976">
        <ele>1530.6</ele>
        <time>2013-09-04T13:16:42Z</time>
      </trkpt>
      <trkpt lat="44.15906" lon="6.83992">
        <ele>1527.2</ele>
        <time>2013-09-04T13:16:50Z</time>
      </trkpt>
      <trkpt lat="44.15902" lon="6.83992">
        <ele>1527.2</ele>
        <time>2013-09-04T13:16:51Z</time>
      </trkpt>
      <trkpt lat="44.15894" lon="6.83989">
        <ele>1526.2</ele>
        <time>2013-09-04T13:16:53Z</time>
      </trkpt>
      <trkpt lat="44.1589" lon="6.83986">
        <ele>1526.2</ele>
        <time>2013-09-04T13:16:54Z</time>
      </trkpt>
      <trkpt lat="44.15857" lon="6.83961">
        <ele>1522.9</ele>
        <time>2013-09-04T13:17:01Z</time>
      </trkpt>
      <trkpt lat="44.15852" lon="6.83957">
        <ele>1522.4</ele>
        <time>2013-09-04T13:17:02Z</time>
      </trkpt>
      <trkpt lat="44.15848" lon="6.83953">
        <ele>1522.4</ele>
        <time>2013-09-04T13:17:03Z</time>
      </trkpt>
      <trkpt lat="44.15844" lon="6.83948">
        <ele>1520.9</ele>
        <time>2013-09-04T13:17:04Z</time>
      </trkpt>
      <trkpt lat="44.1584" lon="6.83942">
        <ele>1521.4</ele>
        <time>2013-09-04T13:17:05Z</time>
      </trkpt>
      <trkpt lat="44.15837" lon="6.83936">
        <ele>1520.5</ele>
        <time>2013-09-04T13:17:06Z</time>
      </trkpt>
      <trkpt lat="44.15835" lon="6.83928">
        <ele>1520</ele>
        <time>2013-09-04T13:17:07Z</time>
      </trkpt>
      <trkpt lat="44.15822" lon="6.83881">
        <ele>1516.1</ele>
        <time>2013-09-04T13:17:13Z</time>
      </trkpt>
      <trkpt lat="44.15816" lon="6.83843">
        <ele>1514.2</ele>
        <time>2013-09-04T13:17:18Z</time>
      </trkpt>
      <trkpt lat="44.15814" lon="6.83836">
        <ele>1514.2</ele>
        <time>2013-09-04T13:17:19Z</time>
      </trkpt>
      <trkpt lat="44.15812" lon="6.83829">
        <ele>1512.8</ele>
        <time>2013-09-04T13:17:20Z</time>
      </trkpt>
      <trkpt lat="44.158" lon="6.83803">
        <ele>1511.8</ele>
        <time>2013-09-04T13:17:24Z</time>
      </trkpt>
      <trkpt lat="44.15788" lon="6.83778">
        <ele>1510.4</ele>
        <time>2013-09-04T13:17:28Z</time>
      </trkpt>
      <trkpt lat="44.15763" lon="6.83738">
        <ele>1507</ele>
        <time>2013-09-04T13:17:35Z</time>
      </trkpt>
      <trkpt lat="44.15755" lon="6.83719">
        <ele>1505.6</ele>
        <time>2013-09-04T13:17:38Z</time>
      </trkpt>
      <trkpt lat="44.15739" lon="6.83665">
        <ele>1502.7</ele>
        <time>2013-09-04T13:17:46Z</time>
      </trkpt>
      <trkpt lat="44.15743" lon="6.83638">
        <ele>1501.7</ele>
        <time>2013-09-04T13:17:50Z</time>
      </trkpt>
      <trkpt lat="44.15749" lon="6.83606">
        <ele>1499.3</ele>
        <time>2013-09-04T13:18:00Z</time>
      </trkpt>
      <trkpt lat="44.15747" lon="6.83601">
        <ele>1498.8</ele>
        <time>2013-09-04T13:18:22Z</time>
      </trkpt>
      <trkpt lat="44.15748" lon="6.83599">
        <ele>1500.3</ele>
        <time>2013-09-04T13:18:23Z</time>
      </trkpt>
      <trkpt lat="44.1575" lon="6.83595">
        <ele>1498.8</ele>
        <time>2013-09-04T13:18:25Z</time>
      </trkpt>
      <trkpt lat="44.1575" lon="6.83593">
        <ele>1499.8</ele>
        <time>2013-09-04T13:18:26Z</time>
      </trkpt>
      <trkpt lat="44.1575" lon="6.83589">
        <ele>1498.4</ele>
        <time>2013-09-04T13:18:27Z</time>
      </trkpt>
      <trkpt lat="44.15746" lon="6.83573">
        <ele>1497.9</ele>
        <time>2013-09-04T13:18:31Z</time>
      </trkpt>
      <trkpt lat="44.15745" lon="6.83571">
        <ele>1496.4</ele>
        <time>2013-09-04T13:18:32Z</time>
      </trkpt>
      <trkpt lat="44.15743" lon="6.8357">
        <ele>1497.9</ele>
        <time>2013-09-04T13:18:33Z</time>
      </trkpt>
      <trkpt lat="44.1574" lon="6.83571">
        <ele>1496.9</ele>
        <time>2013-09-04T13:18:34Z</time>
      </trkpt>
      <trkpt lat="44.15738" lon="6.83575">
        <ele>1495.5</ele>
        <time>2013-09-04T13:18:35Z</time>
      </trkpt>
      <trkpt lat="44.15736" lon="6.83579">
        <ele>1495</ele>
        <time>2013-09-04T13:18:36Z</time>
      </trkpt>
      <trkpt lat="44.15733" lon="6.83584">
        <ele>1495</ele>
        <time>2013-09-04T13:18:37Z</time>
      </trkpt>
      <trkpt lat="44.15712" lon="6.83613">
        <ele>1492.1</ele>
        <time>2013-09-04T13:18:44Z</time>
      </trkpt>
      <trkpt lat="44.15706" lon="6.83621">
        <ele>1490.7</ele>
        <time>2013-09-04T13:18:46Z</time>
      </trkpt>
      <trkpt lat="44.15696" lon="6.83637">
        <ele>1487.8</ele>
        <time>2013-09-04T13:18:49Z</time>
      </trkpt>
      <trkpt lat="44.15694" lon="6.83643">
        <ele>1488.7</ele>
        <time>2013-09-04T13:18:50Z</time>
      </trkpt>
      <trkpt lat="44.15692" lon="6.83649">
        <ele>1489.2</ele>
        <time>2013-09-04T13:18:51Z</time>
      </trkpt>
      <trkpt lat="44.15691" lon="6.83656">
        <ele>1486.3</ele>
        <time>2013-09-04T13:18:52Z</time>
      </trkpt>
      <trkpt lat="44.15689" lon="6.83663">
        <ele>1485.4</ele>
        <time>2013-09-04T13:18:53Z</time>
      </trkpt>
      <trkpt lat="44.15686" lon="6.83669">
        <ele>1487.8</ele>
        <time>2013-09-04T13:18:54Z</time>
      </trkpt>
      <trkpt lat="44.15682" lon="6.83674">
        <ele>1485.9</ele>
        <time>2013-09-04T13:18:55Z</time>
      </trkpt>
      <trkpt lat="44.15678" lon="6.83679">
        <ele>1483.9</ele>
        <time>2013-09-04T13:18:56Z</time>
      </trkpt>
      <trkpt lat="44.15673" lon="6.83683">
        <ele>1483.5</ele>
        <time>2013-09-04T13:18:57Z</time>
      </trkpt>
      <trkpt lat="44.15669" lon="6.83689">
        <ele>1485.9</ele>
        <time>2013-09-04T13:18:58Z</time>
      </trkpt>
      <trkpt lat="44.15665" lon="6.83695">
        <ele>1483.5</ele>
        <time>2013-09-04T13:18:59Z</time>
      </trkpt>
      <trkpt lat="44.1565" lon="6.83722">
        <ele>1483.5</ele>
        <time>2013-09-04T13:19:03Z</time>
      </trkpt>
      <trkpt lat="44.15648" lon="6.83729">
        <ele>1481.5</ele>
        <time>2013-09-04T13:19:04Z</time>
      </trkpt>
      <trkpt lat="44.15646" lon="6.83736">
        <ele>1481.5</ele>
        <time>2013-09-04T13:19:05Z</time>
      </trkpt>
      <trkpt lat="44.15645" lon="6.83743">
        <ele>1480.6</ele>
        <time>2013-09-04T13:19:06Z</time>
      </trkpt>
      <trkpt lat="44.15645" lon="6.8375">
        <ele>1480.6</ele>
        <time>2013-09-04T13:19:07Z</time>
      </trkpt>
      <trkpt lat="44.15643" lon="6.83772">
        <ele>1479.1</ele>
        <time>2013-09-04T13:19:10Z</time>
      </trkpt>
      <trkpt lat="44.1564" lon="6.83787">
        <ele>1478.7</ele>
        <time>2013-09-04T13:19:12Z</time>
      </trkpt>
      <trkpt lat="44.15637" lon="6.83794">
        <ele>1478.7</ele>
        <time>2013-09-04T13:19:13Z</time>
      </trkpt>
      <trkpt lat="44.15633" lon="6.838">
        <ele>1477.7</ele>
        <time>2013-09-04T13:19:14Z</time>
      </trkpt>
      <trkpt lat="44.15618" lon="6.83821">
        <ele>1474.8</ele>
        <time>2013-09-04T13:19:17Z</time>
      </trkpt>
      <trkpt lat="44.15604" lon="6.83838">
        <ele>1474.3</ele>
        <time>2013-09-04T13:19:20Z</time>
      </trkpt>
      <trkpt lat="44.15596" lon="6.83852">
        <ele>1471.9</ele>
        <time>2013-09-04T13:19:25Z</time>
      </trkpt>
      <trkpt lat="44.1558" lon="6.83868">
        <ele>1470.5</ele>
        <time>2013-09-04T13:19:35Z</time>
      </trkpt>
      <trkpt lat="44.15538" lon="6.83877">
        <ele>1469</ele>
        <time>2013-09-04T13:19:45Z</time>
      </trkpt>
      <trkpt lat="44.15533" lon="6.83877">
        <ele>1467.6</ele>
        <time>2013-09-04T13:19:46Z</time>
      </trkpt>
      <trkpt lat="44.15523" lon="6.83875">
        <ele>1467.1</ele>
        <time>2013-09-04T13:19:48Z</time>
      </trkpt>
      <trkpt lat="44.15518" lon="6.83875">
        <ele>1467.6</ele>
        <time>2013-09-04T13:19:49Z</time>
      </trkpt>
      <trkpt lat="44.15492" lon="6.83879">
        <ele>1466.2</ele>
        <time>2013-09-04T13:19:54Z</time>
      </trkpt>
      <trkpt lat="44.15449" lon="6.8388">
        <ele>1463.7</ele>
        <time>2013-09-04T13:20:06Z</time>
      </trkpt>
      <trkpt lat="44.15419" lon="6.83886">
        <ele>1460.9</ele>
        <time>2013-09-04T13:20:13Z</time>
      </trkpt>
      <trkpt lat="44.15409" lon="6.83886">
        <ele>1460.9</ele>
        <time>2013-09-04T13:20:15Z</time>
      </trkpt>
      <trkpt lat="44.15404" lon="6.83885">
        <ele>1460.9</ele>
        <time>2013-09-04T13:20:16Z</time>
      </trkpt>
      <trkpt lat="44.154" lon="6.83883">
        <ele>1459.9</ele>
        <time>2013-09-04T13:20:17Z</time>
      </trkpt>
      <trkpt lat="44.15396" lon="6.83881">
        <ele>1459.9</ele>
        <time>2013-09-04T13:20:18Z</time>
      </trkpt>
      <trkpt lat="44.15392" lon="6.83878">
        <ele>1459.4</ele>
        <time>2013-09-04T13:20:19Z</time>
      </trkpt>
      <trkpt lat="44.15389" lon="6.83875">
        <ele>1459.9</ele>
        <time>2013-09-04T13:20:20Z</time>
      </trkpt>
      <trkpt lat="44.15366" lon="6.83861">
        <ele>1459.4</ele>
        <time>2013-09-04T13:20:27Z</time>
      </trkpt>
      <trkpt lat="44.15361" lon="6.83859">
        <ele>1458.9</ele>
        <time>2013-09-04T13:20:28Z</time>
      </trkpt>
      <trkpt lat="44.15356" lon="6.83859">
        <ele>1458</ele>
        <time>2013-09-04T13:20:29Z</time>
      </trkpt>
      <trkpt lat="44.15351" lon="6.83859">
        <ele>1458.5</ele>
        <time>2013-09-04T13:20:30Z</time>
      </trkpt>
      <trkpt lat="44.15345" lon="6.83861">
        <ele>1457</ele>
        <time>2013-09-04T13:20:31Z</time>
      </trkpt>
      <trkpt lat="44.15334" lon="6.83864">
        <ele>1456.1</ele>
        <time>2013-09-04T13:20:33Z</time>
      </trkpt>
      <trkpt lat="44.15328" lon="6.83864">
        <ele>1455.6</ele>
        <time>2013-09-04T13:20:34Z</time>
      </trkpt>
      <trkpt lat="44.15317" lon="6.83865">
        <ele>1455.1</ele>
        <time>2013-09-04T13:20:36Z</time>
      </trkpt>
      <trkpt lat="44.15307" lon="6.83867">
        <ele>1454.1</ele>
        <time>2013-09-04T13:20:38Z</time>
      </trkpt>
      <trkpt lat="44.15303" lon="6.83871">
        <ele>1453.7</ele>
        <time>2013-09-04T13:20:39Z</time>
      </trkpt>
      <trkpt lat="44.153" lon="6.83876">
        <ele>1452.7</ele>
        <time>2013-09-04T13:20:40Z</time>
      </trkpt>
      <trkpt lat="44.15296" lon="6.83882">
        <ele>1452.2</ele>
        <time>2013-09-04T13:20:41Z</time>
      </trkpt>
      <trkpt lat="44.15292" lon="6.83886">
        <ele>1452.2</ele>
        <time>2013-09-04T13:20:42Z</time>
      </trkpt>
      <trkpt lat="44.15288" lon="6.83888">
        <ele>1452.7</ele>
        <time>2013-09-04T13:20:43Z</time>
      </trkpt>
      <trkpt lat="44.15283" lon="6.83888">
        <ele>1452.2</ele>
        <time>2013-09-04T13:20:44Z</time>
      </trkpt>
      <trkpt lat="44.15277" lon="6.83889">
        <ele>1451.3</ele>
        <time>2013-09-04T13:20:45Z</time>
      </trkpt>
      <trkpt lat="44.15258" lon="6.8389">
        <ele>1450.8</ele>
        <time>2013-09-04T13:20:48Z</time>
      </trkpt>
      <trkpt lat="44.15241" lon="6.83898">
        <ele>1449.8</ele>
        <time>2013-09-04T13:20:51Z</time>
      </trkpt>
      <trkpt lat="44.15236" lon="6.83903">
        <ele>1449.8</ele>
        <time>2013-09-04T13:20:52Z</time>
      </trkpt>
      <trkpt lat="44.1522" lon="6.83923">
        <ele>1448.4</ele>
        <time>2013-09-04T13:20:56Z</time>
      </trkpt>
      <trkpt lat="44.15211" lon="6.83929">
        <ele>1447.9</ele>
        <time>2013-09-04T13:20:58Z</time>
      </trkpt>
      <trkpt lat="44.15181" lon="6.83935">
        <ele>1445.5</ele>
        <time>2013-09-04T13:21:04Z</time>
      </trkpt>
      <trkpt lat="44.15137" lon="6.8393">
        <ele>1442.1</ele>
        <time>2013-09-04T13:21:14Z</time>
      </trkpt>
      <trkpt lat="44.15115" lon="6.83924">
        <ele>1440.7</ele>
        <time>2013-09-04T13:21:21Z</time>
      </trkpt>
      <trkpt lat="44.1511" lon="6.83924">
        <ele>1440.7</ele>
        <time>2013-09-04T13:21:22Z</time>
      </trkpt>
      <trkpt lat="44.15105" lon="6.83924">
        <ele>1440.2</ele>
        <time>2013-09-04T13:21:23Z</time>
      </trkpt>
      <trkpt lat="44.15087" lon="6.83925">
        <ele>1438.3</ele>
        <time>2013-09-04T13:21:31Z</time>
      </trkpt>
      <trkpt lat="44.15077" lon="6.83926">
        <ele>1437.8</ele>
        <time>2013-09-04T13:21:50Z</time>
      </trkpt>
      <trkpt lat="44.15055" lon="6.83926">
        <ele>1437.8</ele>
        <time>2013-09-04T13:21:55Z</time>
      </trkpt>
      <trkpt lat="44.1505" lon="6.83924">
        <ele>1436.8</ele>
        <time>2013-09-04T13:21:56Z</time>
      </trkpt>
      <trkpt lat="44.1504" lon="6.8392">
        <ele>1436.4</ele>
        <time>2013-09-04T13:21:58Z</time>
      </trkpt>
      <trkpt lat="44.15036" lon="6.83917">
        <ele>1435.9</ele>
        <time>2013-09-04T13:21:59Z</time>
      </trkpt>
      <trkpt lat="44.15034" lon="6.83913">
        <ele>1436.8</ele>
        <time>2013-09-04T13:22:00Z</time>
      </trkpt>
      <trkpt lat="44.15034" lon="6.83908">
        <ele>1437.3</ele>
        <time>2013-09-04T13:22:01Z</time>
      </trkpt>
      <trkpt lat="44.15035" lon="6.83902">
        <ele>1435.9</ele>
        <time>2013-09-04T13:22:02Z</time>
      </trkpt>
      <trkpt lat="44.15038" lon="6.83895">
        <ele>1435.4</ele>
        <time>2013-09-04T13:22:03Z</time>
      </trkpt>
      <trkpt lat="44.15039" lon="6.83888">
        <ele>1434.4</ele>
        <time>2013-09-04T13:22:04Z</time>
      </trkpt>
      <trkpt lat="44.1504" lon="6.83881">
        <ele>1434.9</ele>
        <time>2013-09-04T13:22:05Z</time>
      </trkpt>
      <trkpt lat="44.15039" lon="6.83874">
        <ele>1433</ele>
        <time>2013-09-04T13:22:06Z</time>
      </trkpt>
      <trkpt lat="44.15038" lon="6.83866">
        <ele>1432</ele>
        <time>2013-09-04T13:22:07Z</time>
      </trkpt>
      <trkpt lat="44.15035" lon="6.83843">
        <ele>1430.1</ele>
        <time>2013-09-04T13:22:10Z</time>
      </trkpt>
      <trkpt lat="44.15033" lon="6.83838">
        <ele>1430.1</ele>
        <time>2013-09-04T13:22:11Z</time>
      </trkpt>
      <trkpt lat="44.15031" lon="6.83834">
        <ele>1430.1</ele>
        <time>2013-09-04T13:22:12Z</time>
      </trkpt>
      <trkpt lat="44.15027" lon="6.83832">
        <ele>1429.1</ele>
        <time>2013-09-04T13:22:13Z</time>
      </trkpt>
      <trkpt lat="44.15023" lon="6.83831">
        <ele>1428.7</ele>
        <time>2013-09-04T13:22:14Z</time>
      </trkpt>
      <trkpt lat="44.1502" lon="6.83832">
        <ele>1428.7</ele>
        <time>2013-09-04T13:22:15Z</time>
      </trkpt>
      <trkpt lat="44.15017" lon="6.83833">
        <ele>1429.6</ele>
        <time>2013-09-04T13:22:16Z</time>
      </trkpt>
      <trkpt lat="44.15016" lon="6.83836">
        <ele>1429.1</ele>
        <time>2013-09-04T13:22:17Z</time>
      </trkpt>
      <trkpt lat="44.15015" lon="6.83841">
        <ele>1428.7</ele>
        <time>2013-09-04T13:22:18Z</time>
      </trkpt>
      <trkpt lat="44.15014" lon="6.83846">
        <ele>1428.2</ele>
        <time>2013-09-04T13:22:19Z</time>
      </trkpt>
      <trkpt lat="44.15013" lon="6.83867">
        <ele>1426.3</ele>
        <time>2013-09-04T13:22:24Z</time>
      </trkpt>
      <trkpt lat="44.15012" lon="6.83879">
        <ele>1424.8</ele>
        <time>2013-09-04T13:22:28Z</time>
      </trkpt>
      <trkpt lat="44.1501" lon="6.83894">
        <ele>1421.5</ele>
        <time>2013-09-04T13:22:32Z</time>
      </trkpt>
      <trkpt lat="44.15009" lon="6.83896">
        <ele>1421</ele>
        <time>2013-09-04T13:22:33Z</time>
      </trkpt>
      <trkpt lat="44.15005" lon="6.83916">
        <ele>1418.1</ele>
        <time>2013-09-04T13:22:39Z</time>
      </trkpt>
      <trkpt lat="44.14948" lon="6.83929">
        <ele>1417.6</ele>
        <time>2013-09-04T13:22:45Z</time>
      </trkpt>
      <trkpt lat="44.14897" lon="6.83934">
        <ele>1415.2</ele>
        <time>2013-09-04T13:22:59Z</time>
      </trkpt>
      <trkpt lat="44.14866" lon="6.83929">
        <ele>1414.2</ele>
        <time>2013-09-04T13:23:08Z</time>
      </trkpt>
      <trkpt lat="44.1486" lon="6.83931">
        <ele>1413.8</ele>
        <time>2013-09-04T13:23:09Z</time>
      </trkpt>
      <trkpt lat="44.14846" lon="6.83931">
        <ele>1412.3</ele>
        <time>2013-09-04T13:23:12Z</time>
      </trkpt>
      <trkpt lat="44.14812" lon="6.83932">
        <ele>1411.4</ele>
        <time>2013-09-04T13:23:19Z</time>
      </trkpt>
      <trkpt lat="44.14797" lon="6.83927">
        <ele>1410.9</ele>
        <time>2013-09-04T13:23:22Z</time>
      </trkpt>
      <trkpt lat="44.14744" lon="6.83897">
        <ele>1409</ele>
        <time>2013-09-04T13:23:35Z</time>
      </trkpt>
      <trkpt lat="44.14739" lon="6.83897">
        <ele>1409</ele>
        <time>2013-09-04T13:23:36Z</time>
      </trkpt>
      <trkpt lat="44.14724" lon="6.83893">
        <ele>1409</ele>
        <time>2013-09-04T13:23:39Z</time>
      </trkpt>
      <trkpt lat="44.14719" lon="6.83892">
        <ele>1408</ele>
        <time>2013-09-04T13:23:40Z</time>
      </trkpt>
      <trkpt lat="44.14706" lon="6.83887">
        <ele>1407.5</ele>
        <time>2013-09-04T13:23:43Z</time>
      </trkpt>
      <trkpt lat="44.14692" lon="6.83878">
        <ele>1407.5</ele>
        <time>2013-09-04T13:23:46Z</time>
      </trkpt>
      <trkpt lat="44.14688" lon="6.83876">
        <ele>1406.6</ele>
        <time>2013-09-04T13:23:47Z</time>
      </trkpt>
      <trkpt lat="44.14684" lon="6.83873">
        <ele>1406.1</ele>
        <time>2013-09-04T13:23:48Z</time>
      </trkpt>
      <trkpt lat="44.14651" lon="6.83855">
        <ele>1404.1</ele>
        <time>2013-09-04T13:23:54Z</time>
      </trkpt>
      <trkpt lat="44.14645" lon="6.83852">
        <ele>1403.7</ele>
        <time>2013-09-04T13:23:55Z</time>
      </trkpt>
      <trkpt lat="44.14605" lon="6.83835">
        <ele>1401.7</ele>
        <time>2013-09-04T13:24:01Z</time>
      </trkpt>
      <trkpt lat="44.14523" lon="6.83782">
        <ele>1399.3</ele>
        <time>2013-09-04T13:24:16Z</time>
      </trkpt>
      <trkpt lat="44.14491" lon="6.83759">
        <ele>1398.9</ele>
        <time>2013-09-04T13:24:24Z</time>
      </trkpt>
      <trkpt lat="44.14484" lon="6.83747">
        <ele>1398.9</ele>
        <time>2013-09-04T13:24:27Z</time>
      </trkpt>
      <trkpt lat="44.1446" lon="6.83706">
        <ele>1397.4</ele>
        <time>2013-09-04T13:24:34Z</time>
      </trkpt>
      <trkpt lat="44.14464" lon="6.83703">
        <ele>1397.4</ele>
        <time>2013-09-04T13:24:35Z</time>
      </trkpt>
      <trkpt lat="44.14457" lon="6.83684">
        <ele>1396.9</ele>
        <time>2013-09-04T13:24:39Z</time>
      </trkpt>
      <trkpt lat="44.14429" lon="6.83652">
        <ele>1396.5</ele>
        <time>2013-09-04T13:24:46Z</time>
      </trkpt>
      <trkpt lat="44.14425" lon="6.83647">
        <ele>1396.5</ele>
        <time>2013-09-04T13:24:47Z</time>
      </trkpt>
      <trkpt lat="44.14422" lon="6.83642">
        <ele>1396.9</ele>
        <time>2013-09-04T13:24:48Z</time>
      </trkpt>
      <trkpt lat="44.14419" lon="6.83635">
        <ele>1396.9</ele>
        <time>2013-09-04T13:24:49Z</time>
      </trkpt>
      <trkpt lat="44.14417" lon="6.83629">
        <ele>1396</ele>
        <time>2013-09-04T13:24:50Z</time>
      </trkpt>
      <trkpt lat="44.14409" lon="6.8361">
        <ele>1396</ele>
        <time>2013-09-04T13:24:53Z</time>
      </trkpt>
      <trkpt lat="44.14406" lon="6.83604">
        <ele>1396</ele>
        <time>2013-09-04T13:24:54Z</time>
      </trkpt>
      <trkpt lat="44.14402" lon="6.83599">
        <ele>1396</ele>
        <time>2013-09-04T13:24:55Z</time>
      </trkpt>
      <trkpt lat="44.14395" lon="6.83591">
        <ele>1395.5</ele>
        <time>2013-09-04T13:24:57Z</time>
      </trkpt>
      <trkpt lat="44.14375" lon="6.83555">
        <ele>1395</ele>
        <time>2013-09-04T13:25:04Z</time>
      </trkpt>
      <trkpt lat="44.14371" lon="6.83551">
        <ele>1395</ele>
        <time>2013-09-04T13:25:05Z</time>
      </trkpt>
      <trkpt lat="44.14366" lon="6.83549">
        <ele>1394.5</ele>
        <time>2013-09-04T13:25:06Z</time>
      </trkpt>
      <trkpt lat="44.14361" lon="6.83545">
        <ele>1395</ele>
        <time>2013-09-04T13:25:07Z</time>
      </trkpt>
      <trkpt lat="44.14356" lon="6.83542">
        <ele>1395</ele>
        <time>2013-09-04T13:25:08Z</time>
      </trkpt>
      <trkpt lat="44.14352" lon="6.83537">
        <ele>1394.5</ele>
        <time>2013-09-04T13:25:09Z</time>
      </trkpt>
      <trkpt lat="44.14348" lon="6.83532">
        <ele>1395</ele>
        <time>2013-09-04T13:25:10Z</time>
      </trkpt>
      <trkpt lat="44.14346" lon="6.83527">
        <ele>1394.5</ele>
        <time>2013-09-04T13:25:11Z</time>
      </trkpt>
      <trkpt lat="44.14344" lon="6.83523">
        <ele>1395</ele>
        <time>2013-09-04T13:25:12Z</time>
      </trkpt>
      <trkpt lat="44.14338" lon="6.83514">
        <ele>1394.1</ele>
        <time>2013-09-04T13:25:14Z</time>
      </trkpt>
      <trkpt lat="44.14334" lon="6.83511">
        <ele>1394.1</ele>
        <time>2013-09-04T13:25:15Z</time>
      </trkpt>
      <trkpt lat="44.1433" lon="6.83509">
        <ele>1394.5</ele>
        <time>2013-09-04T13:25:16Z</time>
      </trkpt>
      <trkpt lat="44.14325" lon="6.83509">
        <ele>1394.5</ele>
        <time>2013-09-04T13:25:17Z</time>
      </trkpt>
      <trkpt lat="44.1432" lon="6.8351">
        <ele>1394.1</ele>
        <time>2013-09-04T13:25:18Z</time>
      </trkpt>
      <trkpt lat="44.14317" lon="6.83513">
        <ele>1393.6</ele>
        <time>2013-09-04T13:25:19Z</time>
      </trkpt>
      <trkpt lat="44.14313" lon="6.83517">
        <ele>1394.1</ele>
        <time>2013-09-04T13:25:20Z</time>
      </trkpt>
      <trkpt lat="44.1431" lon="6.83522">
        <ele>1393.6</ele>
        <time>2013-09-04T13:25:21Z</time>
      </trkpt>
      <trkpt lat="44.14307" lon="6.83529">
        <ele>1393.1</ele>
        <time>2013-09-04T13:25:22Z</time>
      </trkpt>
      <trkpt lat="44.14304" lon="6.83536">
        <ele>1392.6</ele>
        <time>2013-09-04T13:25:23Z</time>
      </trkpt>
      <trkpt lat="44.14297" lon="6.8355">
        <ele>1392.1</ele>
        <time>2013-09-04T13:25:25Z</time>
      </trkpt>
      <trkpt lat="44.14293" lon="6.83556">
        <ele>1393.1</ele>
        <time>2013-09-04T13:25:26Z</time>
      </trkpt>
      <trkpt lat="44.14274" lon="6.83578">
        <ele>1391.7</ele>
        <time>2013-09-04T13:25:30Z</time>
      </trkpt>
      <trkpt lat="44.14268" lon="6.83579">
        <ele>1391.2</ele>
        <time>2013-09-04T13:25:31Z</time>
      </trkpt>
      <trkpt lat="44.14263" lon="6.83579">
        <ele>1391.7</ele>
        <time>2013-09-04T13:25:32Z</time>
      </trkpt>
      <trkpt lat="44.14231" lon="6.83576">
        <ele>1390.7</ele>
        <time>2013-09-04T13:25:38Z</time>
      </trkpt>
      <trkpt lat="44.14226" lon="6.83576">
        <ele>1390.2</ele>
        <time>2013-09-04T13:25:39Z</time>
      </trkpt>
      <trkpt lat="44.14205" lon="6.83584">
        <ele>1389.7</ele>
        <time>2013-09-04T13:25:43Z</time>
      </trkpt>
      <trkpt lat="44.142" lon="6.83587">
        <ele>1390.2</ele>
        <time>2013-09-04T13:25:44Z</time>
      </trkpt>
      <trkpt lat="44.14195" lon="6.83591">
        <ele>1389.7</ele>
        <time>2013-09-04T13:25:45Z</time>
      </trkpt>
      <trkpt lat="44.14148" lon="6.8362">
        <ele>1389.2</ele>
        <time>2013-09-04T13:25:55Z</time>
      </trkpt>
      <trkpt lat="44.14143" lon="6.83621">
        <ele>1389.2</ele>
        <time>2013-09-04T13:25:56Z</time>
      </trkpt>
      <trkpt lat="44.14139" lon="6.83622">
        <ele>1389.2</ele>
        <time>2013-09-04T13:25:57Z</time>
      </trkpt>
      <trkpt lat="44.14134" lon="6.83622">
        <ele>1389.2</ele>
        <time>2013-09-04T13:25:58Z</time>
      </trkpt>
      <trkpt lat="44.14129" lon="6.83622">
        <ele>1388.8</ele>
        <time>2013-09-04T13:25:59Z</time>
      </trkpt>
      <trkpt lat="44.14097" lon="6.83624">
        <ele>1388.3</ele>
        <time>2013-09-04T13:26:05Z</time>
      </trkpt>
      <trkpt lat="44.14072" lon="6.83631">
        <ele>1388.3</ele>
        <time>2013-09-04T13:26:10Z</time>
      </trkpt>
      <trkpt lat="44.14068" lon="6.83632">
        <ele>1388.8</ele>
        <time>2013-09-04T13:26:11Z</time>
      </trkpt>
      <trkpt lat="44.14059" lon="6.83632">
        <ele>1388.8</ele>
        <time>2013-09-04T13:26:13Z</time>
      </trkpt>
      <trkpt lat="44.14055" lon="6.83631">
        <ele>1387.8</ele>
        <time>2013-09-04T13:26:14Z</time>
      </trkpt>
      <trkpt lat="44.14032" lon="6.83627">
        <ele>1387.3</ele>
        <time>2013-09-04T13:26:24Z</time>
      </trkpt>
      <trkpt lat="44.14022" lon="6.83633">
        <ele>1387.3</ele>
        <time>2013-09-04T13:26:34Z</time>
      </trkpt>
      <trkpt lat="44.14021" lon="6.83638">
        <ele>1387.3</ele>
        <time>2013-09-04T13:26:56Z</time>
      </trkpt>
      <trkpt lat="44.13993" lon="6.83654">
        <ele>1385.9</ele>
        <time>2013-09-04T13:27:08Z</time>
      </trkpt>
      <trkpt lat="44.1396" lon="6.83679">
        <ele>1384.4</ele>
        <time>2013-09-04T13:27:17Z</time>
      </trkpt>
      <trkpt lat="44.13955" lon="6.8368">
        <ele>1384.9</ele>
        <time>2013-09-04T13:27:18Z</time>
      </trkpt>
      <trkpt lat="44.13951" lon="6.8368">
        <ele>1384.4</ele>
        <time>2013-09-04T13:27:19Z</time>
      </trkpt>
      <trkpt lat="44.13947" lon="6.8368">
        <ele>1384.4</ele>
        <time>2013-09-04T13:27:20Z</time>
      </trkpt>
      <trkpt lat="44.13943" lon="6.83678">
        <ele>1384.4</ele>
        <time>2013-09-04T13:27:21Z</time>
      </trkpt>
      <trkpt lat="44.13939" lon="6.83675">
        <ele>1384</ele>
        <time>2013-09-04T13:27:22Z</time>
      </trkpt>
      <trkpt lat="44.13936" lon="6.83671">
        <ele>1384.4</ele>
        <time>2013-09-04T13:27:23Z</time>
      </trkpt>
      <trkpt lat="44.13933" lon="6.83668">
        <ele>1384.4</ele>
        <time>2013-09-04T13:27:24Z</time>
      </trkpt>
      <trkpt lat="44.13931" lon="6.83665">
        <ele>1384.9</ele>
        <time>2013-09-04T13:27:25Z</time>
      </trkpt>
      <trkpt lat="44.13929" lon="6.83662">
        <ele>1384.4</ele>
        <time>2013-09-04T13:27:26Z</time>
      </trkpt>
      <trkpt lat="44.13894" lon="6.83634">
        <ele>1383</ele>
        <time>2013-09-04T13:27:38Z</time>
      </trkpt>
      <trkpt lat="44.13869" lon="6.83604">
        <ele>1382</ele>
        <time>2013-09-04T13:27:46Z</time>
      </trkpt>
      <trkpt lat="44.13834" lon="6.83522">
        <ele>1379.2</ele>
        <time>2013-09-04T13:28:02Z</time>
      </trkpt>
      <trkpt lat="44.13831" lon="6.83509">
        <ele>1378.2</ele>
        <time>2013-09-04T13:28:04Z</time>
      </trkpt>
      <trkpt lat="44.13826" lon="6.83494">
        <ele>1377.2</ele>
        <time>2013-09-04T13:28:06Z</time>
      </trkpt>
      <trkpt lat="44.13824" lon="6.83487">
        <ele>1378.2</ele>
        <time>2013-09-04T13:28:07Z</time>
      </trkpt>
      <trkpt lat="44.13819" lon="6.83465">
        <ele>1376.8</ele>
        <time>2013-09-04T13:28:10Z</time>
      </trkpt>
      <trkpt lat="44.13811" lon="6.83441">
        <ele>1374.8</ele>
        <time>2013-09-04T13:28:13Z</time>
      </trkpt>
      <trkpt lat="44.1381" lon="6.83432">
        <ele>1374.3</ele>
        <time>2013-09-04T13:28:14Z</time>
      </trkpt>
      <trkpt lat="44.13809" lon="6.83423">
        <ele>1374.3</ele>
        <time>2013-09-04T13:28:15Z</time>
      </trkpt>
      <trkpt lat="44.13809" lon="6.83415">
        <ele>1374.3</ele>
        <time>2013-09-04T13:28:16Z</time>
      </trkpt>
      <trkpt lat="44.1381" lon="6.83406">
        <ele>1374.8</ele>
        <time>2013-09-04T13:28:17Z</time>
      </trkpt>
      <trkpt lat="44.13811" lon="6.83383">
        <ele>1373.4</ele>
        <time>2013-09-04T13:28:20Z</time>
      </trkpt>
      <trkpt lat="44.13811" lon="6.83376">
        <ele>1372.9</ele>
        <time>2013-09-04T13:28:21Z</time>
      </trkpt>
      <trkpt lat="44.1381" lon="6.83369">
        <ele>1372.4</ele>
        <time>2013-09-04T13:28:22Z</time>
      </trkpt>
      <trkpt lat="44.13808" lon="6.83362">
        <ele>1371.5</ele>
        <time>2013-09-04T13:28:23Z</time>
      </trkpt>
      <trkpt lat="44.13805" lon="6.83357">
        <ele>1371</ele>
        <time>2013-09-04T13:28:24Z</time>
      </trkpt>
      <trkpt lat="44.13801" lon="6.83353">
        <ele>1371</ele>
        <time>2013-09-04T13:28:25Z</time>
      </trkpt>
      <trkpt lat="44.13796" lon="6.83349">
        <ele>1371.5</ele>
        <time>2013-09-04T13:28:26Z</time>
      </trkpt>
      <trkpt lat="44.13792" lon="6.83345">
        <ele>1370.5</ele>
        <time>2013-09-04T13:28:27Z</time>
      </trkpt>
      <trkpt lat="44.13789" lon="6.83341">
        <ele>1370</ele>
        <time>2013-09-04T13:28:28Z</time>
      </trkpt>
      <trkpt lat="44.13786" lon="6.83336">
        <ele>1370</ele>
        <time>2013-09-04T13:28:29Z</time>
      </trkpt>
      <trkpt lat="44.13785" lon="6.83331">
        <ele>1369.5</ele>
        <time>2013-09-04T13:28:30Z</time>
      </trkpt>
      <trkpt lat="44.13785" lon="6.83326">
        <ele>1369.1</ele>
        <time>2013-09-04T13:28:31Z</time>
      </trkpt>
      <trkpt lat="44.13786" lon="6.8332">
        <ele>1369.1</ele>
        <time>2013-09-04T13:28:32Z</time>
      </trkpt>
      <trkpt lat="44.13784" lon="6.83298">
        <ele>1368.6</ele>
        <time>2013-09-04T13:28:36Z</time>
      </trkpt>
      <trkpt lat="44.13783" lon="6.83291">
        <ele>1368.1</ele>
        <time>2013-09-04T13:28:37Z</time>
      </trkpt>
      <trkpt lat="44.13783" lon="6.83285">
        <ele>1367.6</ele>
        <time>2013-09-04T13:28:38Z</time>
      </trkpt>
      <trkpt lat="44.13786" lon="6.83279">
        <ele>1367.6</ele>
        <time>2013-09-04T13:28:39Z</time>
      </trkpt>
      <trkpt lat="44.13788" lon="6.83273">
        <ele>1367.1</ele>
        <time>2013-09-04T13:28:40Z</time>
      </trkpt>
      <trkpt lat="44.13791" lon="6.83266">
        <ele>1367.1</ele>
        <time>2013-09-04T13:28:41Z</time>
      </trkpt>
      <trkpt lat="44.13793" lon="6.83258">
        <ele>1366.2</ele>
        <time>2013-09-04T13:28:42Z</time>
      </trkpt>
      <trkpt lat="44.13797" lon="6.83233">
        <ele>1364.7</ele>
        <time>2013-09-04T13:28:45Z</time>
      </trkpt>
      <trkpt lat="44.13798" lon="6.83224">
        <ele>1365.2</ele>
        <time>2013-09-04T13:28:46Z</time>
      </trkpt>
      <trkpt lat="44.13797" lon="6.83215">
        <ele>1364.3</ele>
        <time>2013-09-04T13:28:47Z</time>
      </trkpt>
      <trkpt lat="44.13794" lon="6.83198">
        <ele>1364.7</ele>
        <time>2013-09-04T13:28:49Z</time>
      </trkpt>
      <trkpt lat="44.13794" lon="6.83189">
        <ele>1363.3</ele>
        <time>2013-09-04T13:28:50Z</time>
      </trkpt>
      <trkpt lat="44.13794" lon="6.83181">
        <ele>1363.3</ele>
        <time>2013-09-04T13:28:51Z</time>
      </trkpt>
      <trkpt lat="44.13793" lon="6.83174">
        <ele>1362.3</ele>
        <time>2013-09-04T13:28:52Z</time>
      </trkpt>
      <trkpt lat="44.13792" lon="6.83168">
        <ele>1362.8</ele>
        <time>2013-09-04T13:28:53Z</time>
      </trkpt>
      <trkpt lat="44.1379" lon="6.83162">
        <ele>1362.3</ele>
        <time>2013-09-04T13:28:54Z</time>
      </trkpt>
      <trkpt lat="44.13787" lon="6.83159">
        <ele>1362.3</ele>
        <time>2013-09-04T13:28:55Z</time>
      </trkpt>
      <trkpt lat="44.13782" lon="6.83158">
        <ele>1361.8</ele>
        <time>2013-09-04T13:28:56Z</time>
      </trkpt>
      <trkpt lat="44.13777" lon="6.83157">
        <ele>1361.8</ele>
        <time>2013-09-04T13:28:57Z</time>
      </trkpt>
      <trkpt lat="44.13753" lon="6.83155">
        <ele>1360.4</ele>
        <time>2013-09-04T13:29:01Z</time>
      </trkpt>
      <trkpt lat="44.13747" lon="6.83156">
        <ele>1359.4</ele>
        <time>2013-09-04T13:29:02Z</time>
      </trkpt>
      <trkpt lat="44.13727" lon="6.83161">
        <ele>1358</ele>
        <time>2013-09-04T13:29:05Z</time>
      </trkpt>
      <trkpt lat="44.13709" lon="6.83166">
        <ele>1356.1</ele>
        <time>2013-09-04T13:29:08Z</time>
      </trkpt>
      <trkpt lat="44.13703" lon="6.83166">
        <ele>1355.6</ele>
        <time>2013-09-04T13:29:09Z</time>
      </trkpt>
      <trkpt lat="44.13698" lon="6.83165">
        <ele>1355.1</ele>
        <time>2013-09-04T13:29:10Z</time>
      </trkpt>
      <trkpt lat="44.13693" lon="6.83161">
        <ele>1355.1</ele>
        <time>2013-09-04T13:29:11Z</time>
      </trkpt>
      <trkpt lat="44.13688" lon="6.83158">
        <ele>1355.1</ele>
        <time>2013-09-04T13:29:12Z</time>
      </trkpt>
      <trkpt lat="44.13684" lon="6.83153">
        <ele>1354.6</ele>
        <time>2013-09-04T13:29:13Z</time>
      </trkpt>
      <trkpt lat="44.13681" lon="6.83147">
        <ele>1354.2</ele>
        <time>2013-09-04T13:29:14Z</time>
      </trkpt>
      <trkpt lat="44.13679" lon="6.83141">
        <ele>1354.2</ele>
        <time>2013-09-04T13:29:15Z</time>
      </trkpt>
      <trkpt lat="44.13677" lon="6.83135">
        <ele>1354.6</ele>
        <time>2013-09-04T13:29:16Z</time>
      </trkpt>
      <trkpt lat="44.13675" lon="6.8313">
        <ele>1353.7</ele>
        <time>2013-09-04T13:29:17Z</time>
      </trkpt>
      <trkpt lat="44.13671" lon="6.83126">
        <ele>1353.7</ele>
        <time>2013-09-04T13:29:18Z</time>
      </trkpt>
      <trkpt lat="44.13667" lon="6.83122">
        <ele>1352.7</ele>
        <time>2013-09-04T13:29:19Z</time>
      </trkpt>
      <trkpt lat="44.13662" lon="6.83118">
        <ele>1352.7</ele>
        <time>2013-09-04T13:29:20Z</time>
      </trkpt>
      <trkpt lat="44.13657" lon="6.83115">
        <ele>1352.7</ele>
        <time>2013-09-04T13:29:21Z</time>
      </trkpt>
      <trkpt lat="44.13651" lon="6.83112">
        <ele>1352.7</ele>
        <time>2013-09-04T13:29:22Z</time>
      </trkpt>
      <trkpt lat="44.13646" lon="6.83107">
        <ele>1352.7</ele>
        <time>2013-09-04T13:29:23Z</time>
      </trkpt>
      <trkpt lat="44.13641" lon="6.83102">
        <ele>1351.3</ele>
        <time>2013-09-04T13:29:24Z</time>
      </trkpt>
      <trkpt lat="44.13636" lon="6.83097">
        <ele>1351.3</ele>
        <time>2013-09-04T13:29:25Z</time>
      </trkpt>
      <trkpt lat="44.1363" lon="6.83094">
        <ele>1352.2</ele>
        <time>2013-09-04T13:29:26Z</time>
      </trkpt>
      <trkpt lat="44.13623" lon="6.83094">
        <ele>1352.2</ele>
        <time>2013-09-04T13:29:27Z</time>
      </trkpt>
      <trkpt lat="44.13616" lon="6.83095">
        <ele>1350.8</ele>
        <time>2013-09-04T13:29:28Z</time>
      </trkpt>
      <trkpt lat="44.1361" lon="6.83095">
        <ele>1350.3</ele>
        <time>2013-09-04T13:29:29Z</time>
      </trkpt>
      <trkpt lat="44.13603" lon="6.83096">
        <ele>1349.4</ele>
        <time>2013-09-04T13:29:30Z</time>
      </trkpt>
      <trkpt lat="44.13597" lon="6.83096">
        <ele>1348.4</ele>
        <time>2013-09-04T13:29:31Z</time>
      </trkpt>
      <trkpt lat="44.13575" lon="6.831">
        <ele>1344.5</ele>
        <time>2013-09-04T13:29:34Z</time>
      </trkpt>
      <trkpt lat="44.13554" lon="6.83107">
        <ele>1341.7</ele>
        <time>2013-09-04T13:29:37Z</time>
      </trkpt>
      <trkpt lat="44.13549" lon="6.83106">
        <ele>1340.7</ele>
        <time>2013-09-04T13:29:38Z</time>
      </trkpt>
      <trkpt lat="44.13544" lon="6.83102">
        <ele>1341.2</ele>
        <time>2013-09-04T13:29:39Z</time>
      </trkpt>
      <trkpt lat="44.13542" lon="6.83097">
        <ele>1340.7</ele>
        <time>2013-09-04T13:29:40Z</time>
      </trkpt>
      <trkpt lat="44.1354" lon="6.83092">
        <ele>1341.7</ele>
        <time>2013-09-04T13:29:41Z</time>
      </trkpt>
      <trkpt lat="44.1354" lon="6.83087">
        <ele>1341.7</ele>
        <time>2013-09-04T13:29:42Z</time>
      </trkpt>
      <trkpt lat="44.1354" lon="6.83084">
        <ele>1342.6</ele>
        <time>2013-09-04T13:29:43Z</time>
      </trkpt>
      <trkpt lat="44.1354" lon="6.8308">
        <ele>1341.7</ele>
        <time>2013-09-04T13:29:44Z</time>
      </trkpt>
      <trkpt lat="44.13541" lon="6.83076">
        <ele>1342.1</ele>
        <time>2013-09-04T13:29:45Z</time>
      </trkpt>
      <trkpt lat="44.13538" lon="6.83061">
        <ele>1341.7</ele>
        <time>2013-09-04T13:29:49Z</time>
      </trkpt>
      <trkpt lat="44.13536" lon="6.83058">
        <ele>1342.1</ele>
        <time>2013-09-04T13:29:50Z</time>
      </trkpt>
      <trkpt lat="44.13533" lon="6.83056">
        <ele>1341.7</ele>
        <time>2013-09-04T13:29:51Z</time>
      </trkpt>
      <trkpt lat="44.13529" lon="6.83055">
        <ele>1341.7</ele>
        <time>2013-09-04T13:29:52Z</time>
      </trkpt>
      <trkpt lat="44.13525" lon="6.83054">
        <ele>1341.7</ele>
        <time>2013-09-04T13:29:53Z</time>
      </trkpt>
      <trkpt lat="44.13521" lon="6.83054">
        <ele>1341.2</ele>
        <time>2013-09-04T13:29:54Z</time>
      </trkpt>
      <trkpt lat="44.13516" lon="6.83054">
        <ele>1340.7</ele>
        <time>2013-09-04T13:29:55Z</time>
      </trkpt>
      <trkpt lat="44.13486" lon="6.83055">
        <ele>1340.7</ele>
        <time>2013-09-04T13:30:01Z</time>
      </trkpt>
      <trkpt lat="44.13481" lon="6.83054">
        <ele>1339.7</ele>
        <time>2013-09-04T13:30:02Z</time>
      </trkpt>
      <trkpt lat="44.13476" lon="6.83053">
        <ele>1339.7</ele>
        <time>2013-09-04T13:30:03Z</time>
      </trkpt>
      <trkpt lat="44.13472" lon="6.83051">
        <ele>1339.7</ele>
        <time>2013-09-04T13:30:04Z</time>
      </trkpt>
      <trkpt lat="44.13469" lon="6.83046">
        <ele>1338.8</ele>
        <time>2013-09-04T13:30:05Z</time>
      </trkpt>
      <trkpt lat="44.13468" lon="6.83041">
        <ele>1338.8</ele>
        <time>2013-09-04T13:30:06Z</time>
      </trkpt>
      <trkpt lat="44.13467" lon="6.83035">
        <ele>1339.3</ele>
        <time>2013-09-04T13:30:07Z</time>
      </trkpt>
      <trkpt lat="44.13467" lon="6.83029">
        <ele>1338.8</ele>
        <time>2013-09-04T13:30:08Z</time>
      </trkpt>
      <trkpt lat="44.13469" lon="6.83022">
        <ele>1338.8</ele>
        <time>2013-09-04T13:30:09Z</time>
      </trkpt>
      <trkpt lat="44.13471" lon="6.83016">
        <ele>1338.3</ele>
        <time>2013-09-04T13:30:10Z</time>
      </trkpt>
      <trkpt lat="44.13473" lon="6.8301">
        <ele>1338.3</ele>
        <time>2013-09-04T13:30:11Z</time>
      </trkpt>
      <trkpt lat="44.13476" lon="6.83003">
        <ele>1338.3</ele>
        <time>2013-09-04T13:30:12Z</time>
      </trkpt>
      <trkpt lat="44.13477" lon="6.82996">
        <ele>1338.3</ele>
        <time>2013-09-04T13:30:13Z</time>
      </trkpt>
      <trkpt lat="44.13477" lon="6.8299">
        <ele>1337.8</ele>
        <time>2013-09-04T13:30:14Z</time>
      </trkpt>
      <trkpt lat="44.13474" lon="6.82985">
        <ele>1338.3</ele>
        <time>2013-09-04T13:30:15Z</time>
      </trkpt>
      <trkpt lat="44.13471" lon="6.82982">
        <ele>1338.3</ele>
        <time>2013-09-04T13:30:16Z</time>
      </trkpt>
      <trkpt lat="44.13466" lon="6.82979">
        <ele>1337.3</ele>
        <time>2013-09-04T13:30:17Z</time>
      </trkpt>
      <trkpt lat="44.13462" lon="6.82976">
        <ele>1337.8</ele>
        <time>2013-09-04T13:30:18Z</time>
      </trkpt>
      <trkpt lat="44.13452" lon="6.82969">
        <ele>1336.9</ele>
        <time>2013-09-04T13:30:20Z</time>
      </trkpt>
      <trkpt lat="44.13446" lon="6.82967">
        <ele>1336.4</ele>
        <time>2013-09-04T13:30:21Z</time>
      </trkpt>
      <trkpt lat="44.13439" lon="6.82967">
        <ele>1335.9</ele>
        <time>2013-09-04T13:30:22Z</time>
      </trkpt>
      <trkpt lat="44.13432" lon="6.82967">
        <ele>1335.4</ele>
        <time>2013-09-04T13:30:23Z</time>
      </trkpt>
      <trkpt lat="44.13425" lon="6.82968">
        <ele>1334.5</ele>
        <time>2013-09-04T13:30:24Z</time>
      </trkpt>
      <trkpt lat="44.13417" lon="6.82968">
        <ele>1334.5</ele>
        <time>2013-09-04T13:30:25Z</time>
      </trkpt>
      <trkpt lat="44.13401" lon="6.8297">
        <ele>1332</ele>
        <time>2013-09-04T13:30:27Z</time>
      </trkpt>
      <trkpt lat="44.13394" lon="6.82973">
        <ele>1332</ele>
        <time>2013-09-04T13:30:28Z</time>
      </trkpt>
      <trkpt lat="44.13388" lon="6.82978">
        <ele>1331.1</ele>
        <time>2013-09-04T13:30:29Z</time>
      </trkpt>
      <trkpt lat="44.13376" lon="6.82987">
        <ele>1329.6</ele>
        <time>2013-09-04T13:30:31Z</time>
      </trkpt>
      <trkpt lat="44.1337" lon="6.8299">
        <ele>1328.7</ele>
        <time>2013-09-04T13:30:32Z</time>
      </trkpt>
      <trkpt lat="44.13364" lon="6.8299">
        <ele>1328.2</ele>
        <time>2013-09-04T13:30:33Z</time>
      </trkpt>
      <trkpt lat="44.13358" lon="6.82988">
        <ele>1327.7</ele>
        <time>2013-09-04T13:30:34Z</time>
      </trkpt>
      <trkpt lat="44.13352" lon="6.82986">
        <ele>1327.2</ele>
        <time>2013-09-04T13:30:35Z</time>
      </trkpt>
      <trkpt lat="44.13342" lon="6.82981">
        <ele>1325.8</ele>
        <time>2013-09-04T13:30:37Z</time>
      </trkpt>
      <trkpt lat="44.13336" lon="6.82979">
        <ele>1326.3</ele>
        <time>2013-09-04T13:30:38Z</time>
      </trkpt>
      <trkpt lat="44.13332" lon="6.82979">
        <ele>1326.3</ele>
        <time>2013-09-04T13:30:39Z</time>
      </trkpt>
      <trkpt lat="44.13328" lon="6.8298">
        <ele>1326.3</ele>
        <time>2013-09-04T13:30:40Z</time>
      </trkpt>
      <trkpt lat="44.13326" lon="6.82981">
        <ele>1326.8</ele>
        <time>2013-09-04T13:30:41Z</time>
      </trkpt>
      <trkpt lat="44.13323" lon="6.82983">
        <ele>1326.3</ele>
        <time>2013-09-04T13:30:42Z</time>
      </trkpt>
      <trkpt lat="44.13321" lon="6.82985">
        <ele>1326.8</ele>
        <time>2013-09-04T13:30:43Z</time>
      </trkpt>
      <trkpt lat="44.13301" lon="6.82992">
        <ele>1325.8</ele>
        <time>2013-09-04T13:30:50Z</time>
      </trkpt>
      <trkpt lat="44.13278" lon="6.83018">
        <ele>1324.4</ele>
        <time>2013-09-04T13:30:58Z</time>
      </trkpt>
      <trkpt lat="44.13274" lon="6.83021">
        <ele>1323.4</ele>
        <time>2013-09-04T13:30:59Z</time>
      </trkpt>
      <trkpt lat="44.13263" lon="6.83029">
        <ele>1322.9</ele>
        <time>2013-09-04T13:31:02Z</time>
      </trkpt>
      <trkpt lat="44.13252" lon="6.83034">
        <ele>1322.4</ele>
        <time>2013-09-04T13:31:05Z</time>
      </trkpt>
      <trkpt lat="44.13248" lon="6.83033">
        <ele>1322</ele>
        <time>2013-09-04T13:31:06Z</time>
      </trkpt>
      <trkpt lat="44.13244" lon="6.83031">
        <ele>1322.4</ele>
        <time>2013-09-04T13:31:07Z</time>
      </trkpt>
      <trkpt lat="44.13241" lon="6.83027">
        <ele>1321.5</ele>
        <time>2013-09-04T13:31:08Z</time>
      </trkpt>
      <trkpt lat="44.13237" lon="6.83024">
        <ele>1322</ele>
        <time>2013-09-04T13:31:09Z</time>
      </trkpt>
      <trkpt lat="44.13224" lon="6.83018">
        <ele>1321</ele>
        <time>2013-09-04T13:31:14Z</time>
      </trkpt>
      <trkpt lat="44.13221" lon="6.8302">
        <ele>1320</ele>
        <time>2013-09-04T13:31:15Z</time>
      </trkpt>
      <trkpt lat="44.13218" lon="6.83024">
        <ele>1319.6</ele>
        <time>2013-09-04T13:31:16Z</time>
      </trkpt>
      <trkpt lat="44.13204" lon="6.83046">
        <ele>1316.7</ele>
        <time>2013-09-04T13:31:21Z</time>
      </trkpt>
      <trkpt lat="44.13201" lon="6.8305">
        <ele>1316.2</ele>
        <time>2013-09-04T13:31:22Z</time>
      </trkpt>
      <trkpt lat="44.13186" lon="6.83067">
        <ele>1312.8</ele>
        <time>2013-09-04T13:31:26Z</time>
      </trkpt>
      <trkpt lat="44.13182" lon="6.8307">
        <ele>1311.9</ele>
        <time>2013-09-04T13:31:27Z</time>
      </trkpt>
      <trkpt lat="44.13178" lon="6.83072">
        <ele>1311.4</ele>
        <time>2013-09-04T13:31:28Z</time>
      </trkpt>
      <trkpt lat="44.13174" lon="6.83075">
        <ele>1310.4</ele>
        <time>2013-09-04T13:31:29Z</time>
      </trkpt>
      <trkpt lat="44.13169" lon="6.83078">
        <ele>1309.9</ele>
        <time>2013-09-04T13:31:30Z</time>
      </trkpt>
      <trkpt lat="44.13165" lon="6.83081">
        <ele>1309.5</ele>
        <time>2013-09-04T13:31:31Z</time>
      </trkpt>
      <trkpt lat="44.13153" lon="6.83094">
        <ele>1305.6</ele>
        <time>2013-09-04T13:31:35Z</time>
      </trkpt>
      <trkpt lat="44.1315" lon="6.83097">
        <ele>1305.6</ele>
        <time>2013-09-04T13:31:36Z</time>
      </trkpt>
      <trkpt lat="44.13147" lon="6.83099">
        <ele>1304.7</ele>
        <time>2013-09-04T13:31:37Z</time>
      </trkpt>
      <trkpt lat="44.13143" lon="6.831">
        <ele>1304.7</ele>
        <time>2013-09-04T13:31:38Z</time>
      </trkpt>
      <trkpt lat="44.13139" lon="6.831">
        <ele>1304.7</ele>
        <time>2013-09-04T13:31:39Z</time>
      </trkpt>
      <trkpt lat="44.13135" lon="6.83099">
        <ele>1304.2</ele>
        <time>2013-09-04T13:31:40Z</time>
      </trkpt>
      <trkpt lat="44.13124" lon="6.83099">
        <ele>1303.2</ele>
        <time>2013-09-04T13:31:42Z</time>
      </trkpt>
      <trkpt lat="44.13119" lon="6.83097">
        <ele>1302.2</ele>
        <time>2013-09-04T13:31:43Z</time>
      </trkpt>
      <trkpt lat="44.13105" lon="6.83094">
        <ele>1302.2</ele>
        <time>2013-09-04T13:31:46Z</time>
      </trkpt>
      <trkpt lat="44.13101" lon="6.83094">
        <ele>1303.2</ele>
        <time>2013-09-04T13:31:47Z</time>
      </trkpt>
      <trkpt lat="44.1308" lon="6.83101">
        <ele>1303.2</ele>
        <time>2013-09-04T13:31:58Z</time>
      </trkpt>
      <trkpt lat="44.1308" lon="6.83101">
        <ele>1302.7</ele>
        <time>2013-09-04T13:32:19Z</time>
      </trkpt>
      <trkpt lat="44.13078" lon="6.83104">
        <ele>1302.2</ele>
        <time>2013-09-04T13:32:36Z</time>
      </trkpt>
      <trkpt lat="44.13077" lon="6.83103">
        <ele>1303.2</ele>
        <time>2013-09-04T13:32:57Z</time>
      </trkpt>
      <trkpt lat="44.13069" lon="6.83109">
        <ele>1301.8</ele>
        <time>2013-09-04T13:33:11Z</time>
      </trkpt>
      <trkpt lat="44.13058" lon="6.83119">
        <ele>1304.7</ele>
        <time>2013-09-04T13:33:28Z</time>
      </trkpt>
      <trkpt lat="44.13049" lon="6.83124">
        <ele>1305.1</ele>
        <time>2013-09-04T13:33:49Z</time>
      </trkpt>
      <trkpt lat="44.13047" lon="6.83123">
        <ele>1305.1</ele>
        <time>2013-09-04T13:34:18Z</time>
      </trkpt>
      <trkpt lat="44.13044" lon="6.83128">
        <ele>1305.6</ele>
        <time>2013-09-04T13:34:39Z</time>
      </trkpt>
      <trkpt lat="44.13032" lon="6.83138">
        <ele>1307.5</ele>
        <time>2013-09-04T13:34:56Z</time>
      </trkpt>
      <trkpt lat="44.13016" lon="6.83147">
        <ele>1308</ele>
        <time>2013-09-04T13:35:14Z</time>
      </trkpt>
      <trkpt lat="44.13002" lon="6.83162">
        <ele>1308</ele>
        <time>2013-09-04T13:35:30Z</time>
      </trkpt>
      <trkpt lat="44.12995" lon="6.83172">
        <ele>1308.5</ele>
        <time>2013-09-04T13:35:39Z</time>
      </trkpt>
      <trkpt lat="44.12995" lon="6.83173">
        <ele>1309</ele>
        <time>2013-09-04T13:35:40Z</time>
      </trkpt>
      <trkpt lat="44.12981" lon="6.83192">
        <ele>1309.9</ele>
        <time>2013-09-04T13:36:00Z</time>
      </trkpt>
      <trkpt lat="44.12966" lon="6.83209">
        <ele>1310.9</ele>
        <time>2013-09-04T13:36:19Z</time>
      </trkpt>
      <trkpt lat="44.12955" lon="6.83216">
        <ele>1312.3</ele>
        <time>2013-09-04T13:36:31Z</time>
      </trkpt>
      <trkpt lat="44.1293" lon="6.83226">
        <ele>1311.9</ele>
        <time>2013-09-04T13:36:54Z</time>
      </trkpt>
      <trkpt lat="44.12912" lon="6.83232">
        <ele>1314.3</ele>
        <time>2013-09-04T13:37:12Z</time>
      </trkpt>
      <trkpt lat="44.12898" lon="6.8324">
        <ele>1315.2</ele>
        <time>2013-09-04T13:37:27Z</time>
      </trkpt>
      <trkpt lat="44.12885" lon="6.83252">
        <ele>1315.7</ele>
        <time>2013-09-04T13:37:45Z</time>
      </trkpt>
      <trkpt lat="44.12881" lon="6.83252">
        <ele>1316.2</ele>
        <time>2013-09-04T13:37:49Z</time>
      </trkpt>
      <trkpt lat="44.12875" lon="6.83247">
        <ele>1317.6</ele>
        <time>2013-09-04T13:38:05Z</time>
      </trkpt>
      <trkpt lat="44.12866" lon="6.83237">
        <ele>1319.1</ele>
        <time>2013-09-04T13:38:21Z</time>
      </trkpt>
      <trkpt lat="44.12862" lon="6.83219">
        <ele>1319.6</ele>
        <time>2013-09-04T13:38:36Z</time>
      </trkpt>
      <trkpt lat="44.12863" lon="6.83216">
        <ele>1320</ele>
        <time>2013-09-04T13:38:51Z</time>
      </trkpt>
      <trkpt lat="44.12864" lon="6.83213">
        <ele>1318.6</ele>
        <time>2013-09-04T13:39:08Z</time>
      </trkpt>
      <trkpt lat="44.12863" lon="6.83216">
        <ele>1343.1</ele>
        <time>2013-09-04T13:57:48Z</time>
      </trkpt>
      <trkpt lat="44.12864" lon="6.8322">
        <ele>1343.1</ele>
        <time>2013-09-04T13:57:49Z</time>
      </trkpt>
      <trkpt lat="44.12858" lon="6.83217">
        <ele>1339.7</ele>
        <time>2013-09-04T13:57:57Z</time>
      </trkpt>
      <trkpt lat="44.12859" lon="6.83217">
        <ele>1335.4</ele>
        <time>2013-09-04T13:58:00Z</time>
      </trkpt>
      <trkpt lat="44.12859" lon="6.83217">
        <ele>1335.9</ele>
        <time>2013-09-04T13:58:01Z</time>
      </trkpt>
      <trkpt lat="44.1286" lon="6.83218">
        <ele>1332</ele>
        <time>2013-09-04T13:58:04Z</time>
      </trkpt>
      <trkpt lat="44.12861" lon="6.83218">
        <ele>1331.1</ele>
        <time>2013-09-04T13:58:06Z</time>
      </trkpt>
      <trkpt lat="44.12861" lon="6.83218">
        <ele>1328.7</ele>
        <time>2013-09-04T13:58:08Z</time>
      </trkpt>
      <trkpt lat="44.12861" lon="6.83218">
        <ele>1326.3</ele>
        <time>2013-09-04T13:58:11Z</time>
      </trkpt>
      <trkpt lat="44.12862" lon="6.83221">
        <ele>1323.4</ele>
        <time>2013-09-04T13:58:15Z</time>
      </trkpt>
      <trkpt lat="44.12863" lon="6.83222">
        <ele>1318.1</ele>
        <time>2013-09-04T13:58:18Z</time>
      </trkpt>
      <trkpt lat="44.12863" lon="6.83222">
        <ele>1323.4</ele>
        <time>2013-09-04T13:58:19Z</time>
      </trkpt>
      <trkpt lat="44.12863" lon="6.83222">
        <ele>1320.5</ele>
        <time>2013-09-04T13:58:20Z</time>
      </trkpt>
      <trkpt lat="44.12863" lon="6.83222">
        <ele>1319.1</ele>
        <time>2013-09-04T13:58:22Z</time>
      </trkpt>
      <trkpt lat="44.12862" lon="6.83224">
        <ele>1317.1</ele>
        <time>2013-09-04T13:58:27Z</time>
      </trkpt>
      <trkpt lat="44.12861" lon="6.83226">
        <ele>1315.7</ele>
        <time>2013-09-04T13:58:32Z</time>
      </trkpt>
      <trkpt lat="44.12864" lon="6.83235">
        <ele>1313.3</ele>
        <time>2013-09-04T13:58:37Z</time>
      </trkpt>
      <trkpt lat="44.12866" lon="6.83237">
        <ele>1313.3</ele>
        <time>2013-09-04T13:58:38Z</time>
      </trkpt>
      <trkpt lat="44.12868" lon="6.83238">
        <ele>1313.3</ele>
        <time>2013-09-04T13:58:39Z</time>
      </trkpt>
      <trkpt lat="44.12878" lon="6.83245">
        <ele>1309.5</ele>
        <time>2013-09-04T13:58:43Z</time>
      </trkpt>
      <trkpt lat="44.12883" lon="6.83246">
        <ele>1309</ele>
        <time>2013-09-04T13:58:44Z</time>
      </trkpt>
      <trkpt lat="44.12887" lon="6.83246">
        <ele>1308.5</ele>
        <time>2013-09-04T13:58:45Z</time>
      </trkpt>
      <trkpt lat="44.12892" lon="6.83244">
        <ele>1307.1</ele>
        <time>2013-09-04T13:58:46Z</time>
      </trkpt>
      <trkpt lat="44.12897" lon="6.8324">
        <ele>1307.1</ele>
        <time>2013-09-04T13:58:47Z</time>
      </trkpt>
      <trkpt lat="44.12901" lon="6.83237">
        <ele>1306.6</ele>
        <time>2013-09-04T13:58:48Z</time>
      </trkpt>
      <trkpt lat="44.12911" lon="6.8323">
        <ele>1306.1</ele>
        <time>2013-09-04T13:58:50Z</time>
      </trkpt>
      <trkpt lat="44.12917" lon="6.83227">
        <ele>1305.1</ele>
        <time>2013-09-04T13:58:51Z</time>
      </trkpt>
      <trkpt lat="44.12935" lon="6.83223">
        <ele>1303.7</ele>
        <time>2013-09-04T13:58:54Z</time>
      </trkpt>
      <trkpt lat="44.12967" lon="6.83208">
        <ele>1301.3</ele>
        <time>2013-09-04T13:59:00Z</time>
      </trkpt>
      <trkpt lat="44.12972" lon="6.83203">
        <ele>1300.8</ele>
        <time>2013-09-04T13:59:01Z</time>
      </trkpt>
      <trkpt lat="44.12999" lon="6.83171">
        <ele>1297.9</ele>
        <time>2013-09-04T13:59:06Z</time>
      </trkpt>
      <trkpt lat="44.1302" lon="6.83143">
        <ele>1295</ele>
        <time>2013-09-04T13:59:11Z</time>
      </trkpt>
      <trkpt lat="44.13024" lon="6.8314">
        <ele>1294.6</ele>
        <time>2013-09-04T13:59:12Z</time>
      </trkpt>
      <trkpt lat="44.13028" lon="6.83139">
        <ele>1293.6</ele>
        <time>2013-09-04T13:59:13Z</time>
      </trkpt>
      <trkpt lat="44.13031" lon="6.83138">
        <ele>1293.6</ele>
        <time>2013-09-04T13:59:14Z</time>
      </trkpt>
      <trkpt lat="44.13033" lon="6.83136">
        <ele>1293.6</ele>
        <time>2013-09-04T13:59:15Z</time>
      </trkpt>
      <trkpt lat="44.13035" lon="6.83134">
        <ele>1293.1</ele>
        <time>2013-09-04T13:59:16Z</time>
      </trkpt>
      <trkpt lat="44.13036" lon="6.83133">
        <ele>1293.1</ele>
        <time>2013-09-04T13:59:17Z</time>
      </trkpt>
      <trkpt lat="44.13037" lon="6.83131">
        <ele>1293.1</ele>
        <time>2013-09-04T13:59:18Z</time>
      </trkpt>
      <trkpt lat="44.13039" lon="6.83129">
        <ele>1292.6</ele>
        <time>2013-09-04T13:59:19Z</time>
      </trkpt>
      <trkpt lat="44.13041" lon="6.83128">
        <ele>1292.6</ele>
        <time>2013-09-04T13:59:20Z</time>
      </trkpt>
      <trkpt lat="44.13044" lon="6.83126">
        <ele>1291.7</ele>
        <time>2013-09-04T13:59:21Z</time>
      </trkpt>
      <trkpt lat="44.13051" lon="6.83121">
        <ele>1291.2</ele>
        <time>2013-09-04T13:59:23Z</time>
      </trkpt>
      <trkpt lat="44.13068" lon="6.83106">
        <ele>1288.3</ele>
        <time>2013-09-04T13:59:27Z</time>
      </trkpt>
      <trkpt lat="44.13077" lon="6.83101">
        <ele>1286.9</ele>
        <time>2013-09-04T13:59:29Z</time>
      </trkpt>
      <trkpt lat="44.13085" lon="6.83097">
        <ele>1286.4</ele>
        <time>2013-09-04T13:59:31Z</time>
      </trkpt>
      <trkpt lat="44.13104" lon="6.83094">
        <ele>1283.5</ele>
        <time>2013-09-04T13:59:39Z</time>
      </trkpt>
      <trkpt lat="44.13103" lon="6.83094">
        <ele>1284</ele>
        <time>2013-09-04T13:59:40Z</time>
      </trkpt>
      <trkpt lat="44.13103" lon="6.83093">
        <ele>1286.4</ele>
        <time>2013-09-04T13:59:42Z</time>
      </trkpt>
      <trkpt lat="44.13103" lon="6.83093">
        <ele>1284</ele>
        <time>2013-09-04T13:59:44Z</time>
      </trkpt>
      <trkpt lat="44.13105" lon="6.83094">
        <ele>1280.6</ele>
        <time>2013-09-04T13:59:52Z</time>
      </trkpt>
      <trkpt lat="44.13105" lon="6.83094">
        <ele>1280.6</ele>
        <time>2013-09-04T13:59:53Z</time>
      </trkpt>
      <trkpt lat="44.13105" lon="6.83094">
        <ele>1284.5</ele>
        <time>2013-09-04T13:59:54Z</time>
      </trkpt>
      <trkpt lat="44.13105" lon="6.83095">
        <ele>1283</ele>
        <time>2013-09-04T13:59:55Z</time>
      </trkpt>
      <trkpt lat="44.13107" lon="6.83097">
        <ele>1282.5</ele>
        <time>2013-09-04T14:00:02Z</time>
      </trkpt>
      <trkpt lat="44.13117" lon="6.831">
        <ele>1280.6</ele>
        <time>2013-09-04T14:00:17Z</time>
      </trkpt>
      <trkpt lat="44.13121" lon="6.8311">
        <ele>1278.2</ele>
        <time>2013-09-04T14:00:31Z</time>
      </trkpt>
      <trkpt lat="44.13123" lon="6.83117">
        <ele>1277.7</ele>
        <time>2013-09-04T14:00:45Z</time>
      </trkpt>
      <trkpt lat="44.13131" lon="6.83127">
        <ele>1276.3</ele>
        <time>2013-09-04T14:00:57Z</time>
      </trkpt>
      <trkpt lat="44.13141" lon="6.83137">
        <ele>1274.4</ele>
        <time>2013-09-04T14:01:08Z</time>
      </trkpt>
      <trkpt lat="44.13145" lon="6.83143">
        <ele>1273.4</ele>
        <time>2013-09-04T14:01:14Z</time>
      </trkpt>
      <trkpt lat="44.13157" lon="6.83151">
        <ele>1271.5</ele>
        <time>2013-09-04T14:01:27Z</time>
      </trkpt>
      <trkpt lat="44.13167" lon="6.83157">
        <ele>1269.6</ele>
        <time>2013-09-04T14:01:42Z</time>
      </trkpt>
      <trkpt lat="44.13176" lon="6.83163">
        <ele>1266.2</ele>
        <time>2013-09-04T14:01:54Z</time>
      </trkpt>
      <trkpt lat="44.13178" lon="6.83164">
        <ele>1272.4</ele>
        <time>2013-09-04T14:01:55Z</time>
      </trkpt>
      <trkpt lat="44.13181" lon="6.83166">
        <ele>1268.6</ele>
        <time>2013-09-04T14:01:56Z</time>
      </trkpt>
      <trkpt lat="44.13198" lon="6.83175">
        <ele>1267.2</ele>
        <time>2013-09-04T14:02:06Z</time>
      </trkpt>
      <trkpt lat="44.132" lon="6.83177">
        <ele>1268.6</ele>
        <time>2013-09-04T14:02:08Z</time>
      </trkpt>
      <trkpt lat="44.13201" lon="6.83179">
        <ele>1267.2</ele>
        <time>2013-09-04T14:02:09Z</time>
      </trkpt>
      <trkpt lat="44.13203" lon="6.83181">
        <ele>1266.7</ele>
        <time>2013-09-04T14:02:10Z</time>
      </trkpt>
      <trkpt lat="44.13204" lon="6.83183">
        <ele>1266.2</ele>
        <time>2013-09-04T14:02:11Z</time>
      </trkpt>
      <trkpt lat="44.13205" lon="6.83184">
        <ele>1266.7</ele>
        <time>2013-09-04T14:02:12Z</time>
      </trkpt>
      <trkpt lat="44.13207" lon="6.83189">
        <ele>1266.7</ele>
        <time>2013-09-04T14:02:24Z</time>
      </trkpt>
      <trkpt lat="44.13206" lon="6.83186">
        <ele>1266.2</ele>
        <time>2013-09-04T14:02:37Z</time>
      </trkpt>
      <trkpt lat="44.13206" lon="6.83189">
        <ele>1266.2</ele>
        <time>2013-09-04T14:03:01Z</time>
      </trkpt>
      <trkpt lat="44.13204" lon="6.83189">
        <ele>1265.7</ele>
        <time>2013-09-04T14:03:32Z</time>
      </trkpt>
      <trkpt lat="44.13206" lon="6.83186">
        <ele>1265.7</ele>
        <time>2013-09-04T14:03:53Z</time>
      </trkpt>
      <trkpt lat="44.13206" lon="6.83185">
        <ele>1265.2</ele>
        <time>2013-09-04T14:04:34Z</time>
      </trkpt>
      <trkpt lat="44.13203" lon="6.83184">
        <ele>1265.7</ele>
        <time>2013-09-04T14:05:10Z</time>
      </trkpt>
      <trkpt lat="44.13205" lon="6.83183">
        <ele>1265.7</ele>
        <time>2013-09-04T14:06:00Z</time>
      </trkpt>
      <trkpt lat="44.13206" lon="6.83185">
        <ele>1266.7</ele>
        <time>2013-09-04T14:06:35Z</time>
      </trkpt>
      <trkpt lat="44.13207" lon="6.83186">
        <ele>1267.2</ele>
        <time>2013-09-04T14:07:02Z</time>
      </trkpt>
      <trkpt lat="44.13207" lon="6.83185">
        <ele>1266.7</ele>
        <time>2013-09-04T14:07:04Z</time>
      </trkpt>
      <trkpt lat="44.13206" lon="6.83186">
        <ele>1265.2</ele>
        <time>2013-09-04T14:07:34Z</time>
      </trkpt>
      <trkpt lat="44.13206" lon="6.83186">
        <ele>1274.4</ele>
        <time>2013-09-04T14:07:37Z</time>
      </trkpt>
      <trkpt lat="44.13206" lon="6.83185">
        <ele>1264.3</ele>
        <time>2013-09-04T14:07:38Z</time>
      </trkpt>
      <trkpt lat="44.13206" lon="6.83185">
        <ele>1264.8</ele>
        <time>2013-09-04T14:07:39Z</time>
      </trkpt>
      <trkpt lat="44.13206" lon="6.83185">
        <ele>1271.5</ele>
        <time>2013-09-04T14:07:40Z</time>
      </trkpt>
      <trkpt lat="44.13207" lon="6.83185">
        <ele>1266.7</ele>
        <time>2013-09-04T14:07:41Z</time>
      </trkpt>
      <trkpt lat="44.13207" lon="6.83186">
        <ele>1261.4</ele>
        <time>2013-09-04T14:07:42Z</time>
      </trkpt>
      <trkpt lat="44.13207" lon="6.83186">
        <ele>1270.5</ele>
        <time>2013-09-04T14:07:43Z</time>
      </trkpt>
      <trkpt lat="44.13206" lon="6.83185">
        <ele>1266.7</ele>
        <time>2013-09-04T14:07:44Z</time>
      </trkpt>
      <trkpt lat="44.13207" lon="6.83185">
        <ele>1270.5</ele>
        <time>2013-09-04T14:07:46Z</time>
      </trkpt>
      <trkpt lat="44.13207" lon="6.83185">
        <ele>1270.5</ele>
        <time>2013-09-04T14:07:47Z</time>
      </trkpt>
      <trkpt lat="44.13206" lon="6.83185">
        <ele>1267.2</ele>
        <time>2013-09-04T14:07:48Z</time>
      </trkpt>
      <trkpt lat="44.13207" lon="6.83185">
        <ele>1267.6</ele>
        <time>2013-09-04T14:07:49Z</time>
      </trkpt>
      <trkpt lat="44.13208" lon="6.83185">
        <ele>1268.6</ele>
        <time>2013-09-04T14:08:03Z</time>
      </trkpt>
      <trkpt lat="44.13207" lon="6.83185">
        <ele>1267.2</ele>
        <time>2013-09-04T14:08:05Z</time>
      </trkpt>
      <trkpt lat="44.13207" lon="6.83184">
        <ele>1267.2</ele>
        <time>2013-09-04T14:08:35Z</time>
      </trkpt>
      <trkpt lat="44.13208" lon="6.83186">
        <ele>1267.2</ele>
        <time>2013-09-04T14:09:02Z</time>
      </trkpt>
      <trkpt lat="44.13208" lon="6.83187">
        <ele>1266.7</ele>
        <time>2013-09-04T14:09:13Z</time>
      </trkpt>
      <trkpt lat="44.13209" lon="6.83189">
        <ele>1266.2</ele>
        <time>2013-09-04T14:09:14Z</time>
      </trkpt>
      <trkpt lat="44.1321" lon="6.83193">
        <ele>1266.2</ele>
        <time>2013-09-04T14:09:15Z</time>
      </trkpt>
      <trkpt lat="44.13212" lon="6.83197">
        <ele>1264.8</ele>
        <time>2013-09-04T14:09:16Z</time>
      </trkpt>
      <trkpt lat="44.13214" lon="6.83202">
        <ele>1263.8</ele>
        <time>2013-09-04T14:09:17Z</time>
      </trkpt>
      <trkpt lat="44.13215" lon="6.83206">
        <ele>1262.8</ele>
        <time>2013-09-04T14:09:18Z</time>
      </trkpt>
      <trkpt lat="44.13216" lon="6.8321">
        <ele>1262.8</ele>
        <time>2013-09-04T14:09:19Z</time>
      </trkpt>
      <trkpt lat="44.13216" lon="6.83213">
        <ele>1262.4</ele>
        <time>2013-09-04T14:09:20Z</time>
      </trkpt>
      <trkpt lat="44.13216" lon="6.83215">
        <ele>1261.9</ele>
        <time>2013-09-04T14:09:21Z</time>
      </trkpt>
      <trkpt lat="44.13217" lon="6.83218">
        <ele>1262.4</ele>
        <time>2013-09-04T14:09:22Z</time>
      </trkpt>
      <trkpt lat="44.13218" lon="6.8322">
        <ele>1261.9</ele>
        <time>2013-09-04T14:09:23Z</time>
      </trkpt>
      <trkpt lat="44.13219" lon="6.83222">
        <ele>1260.9</ele>
        <time>2013-09-04T14:09:24Z</time>
      </trkpt>
      <trkpt lat="44.1322" lon="6.83223">
        <ele>1260.4</ele>
        <time>2013-09-04T14:09:25Z</time>
      </trkpt>
      <trkpt lat="44.13222" lon="6.83225">
        <ele>1259.9</ele>
        <time>2013-09-04T14:09:26Z</time>
      </trkpt>
      <trkpt lat="44.13223" lon="6.83228">
        <ele>1259.5</ele>
        <time>2013-09-04T14:09:27Z</time>
      </trkpt>
      <trkpt lat="44.13226" lon="6.83232">
        <ele>1259</ele>
        <time>2013-09-04T14:09:28Z</time>
      </trkpt>
      <trkpt lat="44.13233" lon="6.83246">
        <ele>1257.5</ele>
        <time>2013-09-04T14:09:31Z</time>
      </trkpt>
      <trkpt lat="44.13247" lon="6.83271">
        <ele>1255.1</ele>
        <time>2013-09-04T14:09:37Z</time>
      </trkpt>
      <trkpt lat="44.13252" lon="6.83278">
        <ele>1254.7</ele>
        <time>2013-09-04T14:09:39Z</time>
      </trkpt>
      <trkpt lat="44.13256" lon="6.83315">
        <ele>1251.8</ele>
        <time>2013-09-04T14:09:48Z</time>
      </trkpt>
      <trkpt lat="44.13254" lon="6.83335">
        <ele>1247.9</ele>
        <time>2013-09-04T14:09:56Z</time>
      </trkpt>
      <trkpt lat="44.13255" lon="6.83336">
        <ele>1247.9</ele>
        <time>2013-09-04T14:09:57Z</time>
      </trkpt>
      <trkpt lat="44.13257" lon="6.83338">
        <ele>1248.9</ele>
        <time>2013-09-04T14:09:58Z</time>
      </trkpt>
      <trkpt lat="44.13257" lon="6.83339">
        <ele>1247</ele>
        <time>2013-09-04T14:09:59Z</time>
      </trkpt>
      <trkpt lat="44.13258" lon="6.83342">
        <ele>1246.5</ele>
        <time>2013-09-04T14:10:00Z</time>
      </trkpt>
      <trkpt lat="44.13258" lon="6.83345">
        <ele>1246.5</ele>
        <time>2013-09-04T14:10:01Z</time>
      </trkpt>
      <trkpt lat="44.13258" lon="6.83348">
        <ele>1246</ele>
        <time>2013-09-04T14:10:02Z</time>
      </trkpt>
      <trkpt lat="44.13257" lon="6.8335">
        <ele>1245.5</ele>
        <time>2013-09-04T14:10:03Z</time>
      </trkpt>
      <trkpt lat="44.13253" lon="6.83358">
        <ele>1243.6</ele>
        <time>2013-09-04T14:10:08Z</time>
      </trkpt>
      <trkpt lat="44.13251" lon="6.83361">
        <ele>1242.6</ele>
        <time>2013-09-04T14:10:12Z</time>
      </trkpt>
      <trkpt lat="44.13251" lon="6.83365">
        <ele>1241.7</ele>
        <time>2013-09-04T14:10:15Z</time>
      </trkpt>
      <trkpt lat="44.13255" lon="6.83369">
        <ele>1241.7</ele>
        <time>2013-09-04T14:10:19Z</time>
      </trkpt>
      <trkpt lat="44.13254" lon="6.83378">
        <ele>1238.8</ele>
        <time>2013-09-04T14:10:25Z</time>
      </trkpt>
      <trkpt lat="44.13251" lon="6.83381">
        <ele>1238.3</ele>
        <time>2013-09-04T14:10:27Z</time>
      </trkpt>
      <trkpt lat="44.13248" lon="6.83384">
        <ele>1237.4</ele>
        <time>2013-09-04T14:10:29Z</time>
      </trkpt>
      <trkpt lat="44.13245" lon="6.83394">
        <ele>1234</ele>
        <time>2013-09-04T14:10:37Z</time>
      </trkpt>
      <trkpt lat="44.13245" lon="6.83395">
        <ele>1234</ele>
        <time>2013-09-04T14:10:38Z</time>
      </trkpt>
      <trkpt lat="44.13246" lon="6.83396">
        <ele>1234.5</ele>
        <time>2013-09-04T14:10:40Z</time>
      </trkpt>
      <trkpt lat="44.13249" lon="6.83399">
        <ele>1233</ele>
        <time>2013-09-04T14:10:43Z</time>
      </trkpt>
      <trkpt lat="44.13257" lon="6.8341">
        <ele>1230.1</ele>
        <time>2013-09-04T14:10:48Z</time>
      </trkpt>
      <trkpt lat="44.13259" lon="6.83413">
        <ele>1229.2</ele>
        <time>2013-09-04T14:10:49Z</time>
      </trkpt>
      <trkpt lat="44.13269" lon="6.83428">
        <ele>1224.9</ele>
        <time>2013-09-04T14:10:55Z</time>
      </trkpt>
      <trkpt lat="44.13273" lon="6.83438">
        <ele>1223.4</ele>
        <time>2013-09-04T14:10:58Z</time>
      </trkpt>
      <trkpt lat="44.13273" lon="6.83441">
        <ele>1222.9</ele>
        <time>2013-09-04T14:10:59Z</time>
      </trkpt>
      <trkpt lat="44.13273" lon="6.83443">
        <ele>1222</ele>
        <time>2013-09-04T14:11:00Z</time>
      </trkpt>
      <trkpt lat="44.13272" lon="6.83446">
        <ele>1221</ele>
        <time>2013-09-04T14:11:01Z</time>
      </trkpt>
      <trkpt lat="44.13272" lon="6.83449">
        <ele>1220.5</ele>
        <time>2013-09-04T14:11:02Z</time>
      </trkpt>
      <trkpt lat="44.13273" lon="6.83451">
        <ele>1220.1</ele>
        <time>2013-09-04T14:11:03Z</time>
      </trkpt>
      <trkpt lat="44.13272" lon="6.83455">
        <ele>1219.1</ele>
        <time>2013-09-04T14:11:05Z</time>
      </trkpt>
      <trkpt lat="44.1327" lon="6.83455">
        <ele>1218.6</ele>
        <time>2013-09-04T14:11:06Z</time>
      </trkpt>
      <trkpt lat="44.13263" lon="6.83455">
        <ele>1217.2</ele>
        <time>2013-09-04T14:11:10Z</time>
      </trkpt>
      <trkpt lat="44.13259" lon="6.8346">
        <ele>1215.2</ele>
        <time>2013-09-04T14:11:13Z</time>
      </trkpt>
      <trkpt lat="44.13258" lon="6.8347">
        <ele>1212.4</ele>
        <time>2013-09-04T14:11:17Z</time>
      </trkpt>
      <trkpt lat="44.13259" lon="6.83474">
        <ele>1211.4</ele>
        <time>2013-09-04T14:11:19Z</time>
      </trkpt>
      <trkpt lat="44.1326" lon="6.83477">
        <ele>1210.4</ele>
        <time>2013-09-04T14:11:20Z</time>
      </trkpt>
      <trkpt lat="44.1326" lon="6.83486">
        <ele>1209</ele>
        <time>2013-09-04T14:11:23Z</time>
      </trkpt>
      <trkpt lat="44.13263" lon="6.83492">
        <ele>1207.1</ele>
        <time>2013-09-04T14:11:26Z</time>
      </trkpt>
      <trkpt lat="44.13268" lon="6.83495">
        <ele>1205.6</ele>
        <time>2013-09-04T14:11:28Z</time>
      </trkpt>
      <trkpt lat="44.13276" lon="6.83506">
        <ele>1201.8</ele>
        <time>2013-09-04T14:11:33Z</time>
      </trkpt>
      <trkpt lat="44.13278" lon="6.83508">
        <ele>1200.8</ele>
        <time>2013-09-04T14:11:35Z</time>
      </trkpt>
      <trkpt lat="44.1328" lon="6.8351">
        <ele>1200.3</ele>
        <time>2013-09-04T14:11:36Z</time>
      </trkpt>
      <trkpt lat="44.1328" lon="6.8351">
        <ele>1199.9</ele>
        <time>2013-09-04T14:11:49Z</time>
      </trkpt>
      <trkpt lat="44.133" lon="6.83523">
        <ele>1197.5</ele>
        <time>2013-09-04T14:11:57Z</time>
      </trkpt>
      <trkpt lat="44.1332" lon="6.83517">
        <ele>1194.1</ele>
        <time>2013-09-04T14:12:03Z</time>
      </trkpt>
      <trkpt lat="44.13324" lon="6.83513">
        <ele>1194.1</ele>
        <time>2013-09-04T14:12:04Z</time>
      </trkpt>
      <trkpt lat="44.13328" lon="6.83507">
        <ele>1193.6</ele>
        <time>2013-09-04T14:12:05Z</time>
      </trkpt>
      <trkpt lat="44.13338" lon="6.83488">
        <ele>1191.7</ele>
        <time>2013-09-04T14:12:09Z</time>
      </trkpt>
      <trkpt lat="44.13341" lon="6.83486">
        <ele>1190.3</ele>
        <time>2013-09-04T14:12:10Z</time>
      </trkpt>
      <trkpt lat="44.13342" lon="6.83486">
        <ele>1190.3</ele>
        <time>2013-09-04T14:12:11Z</time>
      </trkpt>
      <trkpt lat="44.13343" lon="6.83488">
        <ele>1190.3</ele>
        <time>2013-09-04T14:12:12Z</time>
      </trkpt>
      <trkpt lat="44.13343" lon="6.83492">
        <ele>1190.3</ele>
        <time>2013-09-04T14:12:13Z</time>
      </trkpt>
      <trkpt lat="44.13343" lon="6.83496">
        <ele>1189.3</ele>
        <time>2013-09-04T14:12:14Z</time>
      </trkpt>
      <trkpt lat="44.13342" lon="6.83502">
        <ele>1187.9</ele>
        <time>2013-09-04T14:12:15Z</time>
      </trkpt>
      <trkpt lat="44.13341" lon="6.8351">
        <ele>1186.9</ele>
        <time>2013-09-04T14:12:16Z</time>
      </trkpt>
      <trkpt lat="44.13341" lon="6.83517">
        <ele>1186.4</ele>
        <time>2013-09-04T14:12:17Z</time>
      </trkpt>
      <trkpt lat="44.13341" lon="6.83522">
        <ele>1185.9</ele>
        <time>2013-09-04T14:12:18Z</time>
      </trkpt>
      <trkpt lat="44.13341" lon="6.83527">
        <ele>1185</ele>
        <time>2013-09-04T14:12:19Z</time>
      </trkpt>
      <trkpt lat="44.13341" lon="6.83531">
        <ele>1185.4</ele>
        <time>2013-09-04T14:12:20Z</time>
      </trkpt>
      <trkpt lat="44.13341" lon="6.83536">
        <ele>1184.5</ele>
        <time>2013-09-04T14:12:21Z</time>
      </trkpt>
      <trkpt lat="44.13345" lon="6.83561">
        <ele>1181.6</ele>
        <time>2013-09-04T14:12:26Z</time>
      </trkpt>
      <trkpt lat="44.13344" lon="6.83566">
        <ele>1180.6</ele>
        <time>2013-09-04T14:12:27Z</time>
      </trkpt>
      <trkpt lat="44.13342" lon="6.83574">
        <ele>1178.7</ele>
        <time>2013-09-04T14:12:29Z</time>
      </trkpt>
      <trkpt lat="44.13342" lon="6.83578">
        <ele>1178.2</ele>
        <time>2013-09-04T14:12:30Z</time>
      </trkpt>
      <trkpt lat="44.13343" lon="6.83582">
        <ele>1177.8</ele>
        <time>2013-09-04T14:12:31Z</time>
      </trkpt>
      <trkpt lat="44.13346" lon="6.83601">
        <ele>1173.9</ele>
        <time>2013-09-04T14:12:35Z</time>
      </trkpt>
      <trkpt lat="44.13349" lon="6.83609">
        <ele>1172</ele>
        <time>2013-09-04T14:12:38Z</time>
      </trkpt>
      <trkpt lat="44.13349" lon="6.8361">
        <ele>1171.5</ele>
        <time>2013-09-04T14:12:39Z</time>
      </trkpt>
      <trkpt lat="44.13347" lon="6.83609">
        <ele>1171.5</ele>
        <time>2013-09-04T14:12:40Z</time>
      </trkpt>
      <trkpt lat="44.13341" lon="6.83605">
        <ele>1170.5</ele>
        <time>2013-09-04T14:12:43Z</time>
      </trkpt>
      <trkpt lat="44.13339" lon="6.83607">
        <ele>1169.6</ele>
        <time>2013-09-04T14:12:45Z</time>
      </trkpt>
      <trkpt lat="44.1334" lon="6.83611">
        <ele>1168.6</ele>
        <time>2013-09-04T14:12:47Z</time>
      </trkpt>
      <trkpt lat="44.13342" lon="6.83615">
        <ele>1167.7</ele>
        <time>2013-09-04T14:12:48Z</time>
      </trkpt>
      <trkpt lat="44.13344" lon="6.83619">
        <ele>1167.2</ele>
        <time>2013-09-04T14:12:49Z</time>
      </trkpt>
      <trkpt lat="44.13346" lon="6.83624">
        <ele>1166.7</ele>
        <time>2013-09-04T14:12:50Z</time>
      </trkpt>
      <trkpt lat="44.13347" lon="6.83629">
        <ele>1165.7</ele>
        <time>2013-09-04T14:12:51Z</time>
      </trkpt>
      <trkpt lat="44.13349" lon="6.83634">
        <ele>1164.3</ele>
        <time>2013-09-04T14:12:53Z</time>
      </trkpt>
      <trkpt lat="44.13348" lon="6.83636">
        <ele>1164.3</ele>
        <time>2013-09-04T14:12:54Z</time>
      </trkpt>
      <trkpt lat="44.13348" lon="6.83636">
        <ele>1164.3</ele>
        <time>2013-09-04T14:12:55Z</time>
      </trkpt>
      <trkpt lat="44.13343" lon="6.83626">
        <ele>1163.3</ele>
        <time>2013-09-04T14:12:59Z</time>
      </trkpt>
      <trkpt lat="44.13341" lon="6.83624">
        <ele>1162.9</ele>
        <time>2013-09-04T14:13:00Z</time>
      </trkpt>
      <trkpt lat="44.1334" lon="6.83622">
        <ele>1162.4</ele>
        <time>2013-09-04T14:13:01Z</time>
      </trkpt>
      <trkpt lat="44.13338" lon="6.83622">
        <ele>1161.4</ele>
        <time>2013-09-04T14:13:03Z</time>
      </trkpt>
      <trkpt lat="44.13339" lon="6.83631">
        <ele>1160</ele>
        <time>2013-09-04T14:13:06Z</time>
      </trkpt>
      <trkpt lat="44.1334" lon="6.83636">
        <ele>1159</ele>
        <time>2013-09-04T14:13:07Z</time>
      </trkpt>
      <trkpt lat="44.13341" lon="6.83641">
        <ele>1158.5</ele>
        <time>2013-09-04T14:13:08Z</time>
      </trkpt>
      <trkpt lat="44.13343" lon="6.83645">
        <ele>1157.6</ele>
        <time>2013-09-04T14:13:09Z</time>
      </trkpt>
      <trkpt lat="44.13344" lon="6.83649">
        <ele>1156.6</ele>
        <time>2013-09-04T14:13:10Z</time>
      </trkpt>
      <trkpt lat="44.13347" lon="6.83651">
        <ele>1155.6</ele>
        <time>2013-09-04T14:13:11Z</time>
      </trkpt>
      <trkpt lat="44.13348" lon="6.83654">
        <ele>1155.6</ele>
        <time>2013-09-04T14:13:12Z</time>
      </trkpt>
      <trkpt lat="44.13348" lon="6.83655">
        <ele>1154.7</ele>
        <time>2013-09-04T14:13:13Z</time>
      </trkpt>
      <trkpt lat="44.13347" lon="6.83656">
        <ele>1155.2</ele>
        <time>2013-09-04T14:13:14Z</time>
      </trkpt>
      <trkpt lat="44.13346" lon="6.83655">
        <ele>1154.7</ele>
        <time>2013-09-04T14:13:15Z</time>
      </trkpt>
      <trkpt lat="44.13338" lon="6.83655">
        <ele>1151.8</ele>
        <time>2013-09-04T14:13:21Z</time>
      </trkpt>
      <trkpt lat="44.1334" lon="6.83657">
        <ele>1151.3</ele>
        <time>2013-09-04T14:13:22Z</time>
      </trkpt>
      <trkpt lat="44.13343" lon="6.83659">
        <ele>1150.4</ele>
        <time>2013-09-04T14:13:23Z</time>
      </trkpt>
      <trkpt lat="44.1335" lon="6.83666">
        <ele>1149.4</ele>
        <time>2013-09-04T14:13:25Z</time>
      </trkpt>
      <trkpt lat="44.13358" lon="6.83683">
        <ele>1146.5</ele>
        <time>2013-09-04T14:13:28Z</time>
      </trkpt>
      <trkpt lat="44.1336" lon="6.83689">
        <ele>1146.5</ele>
        <time>2013-09-04T14:13:29Z</time>
      </trkpt>
      <trkpt lat="44.13361" lon="6.83701">
        <ele>1144.1</ele>
        <time>2013-09-04T14:13:33Z</time>
      </trkpt>
      <trkpt lat="44.1336" lon="6.83701">
        <ele>1143.6</ele>
        <time>2013-09-04T14:13:34Z</time>
      </trkpt>
      <trkpt lat="44.13357" lon="6.83701">
        <ele>1141.7</ele>
        <time>2013-09-04T14:13:39Z</time>
      </trkpt>
      <trkpt lat="44.13356" lon="6.83721">
        <ele>1138.3</ele>
        <time>2013-09-04T14:13:44Z</time>
      </trkpt>
      <trkpt lat="44.13357" lon="6.83723">
        <ele>1137.4</ele>
        <time>2013-09-04T14:13:45Z</time>
      </trkpt>
      <trkpt lat="44.13358" lon="6.83726">
        <ele>1137.9</ele>
        <time>2013-09-04T14:13:46Z</time>
      </trkpt>
      <trkpt lat="44.13359" lon="6.83728">
        <ele>1137.4</ele>
        <time>2013-09-04T14:13:47Z</time>
      </trkpt>
      <trkpt lat="44.13362" lon="6.83742">
        <ele>1135</ele>
        <time>2013-09-04T14:13:51Z</time>
      </trkpt>
      <trkpt lat="44.13365" lon="6.83752">
        <ele>1132.1</ele>
        <time>2013-09-04T14:13:53Z</time>
      </trkpt>
      <trkpt lat="44.13367" lon="6.83769">
        <ele>1129.7</ele>
        <time>2013-09-04T14:13:57Z</time>
      </trkpt>
      <trkpt lat="44.1337" lon="6.83774">
        <ele>1129.2</ele>
        <time>2013-09-04T14:13:58Z</time>
      </trkpt>
      <trkpt lat="44.13372" lon="6.83778">
        <ele>1127.8</ele>
        <time>2013-09-04T14:13:59Z</time>
      </trkpt>
      <trkpt lat="44.13374" lon="6.83783">
        <ele>1127.3</ele>
        <time>2013-09-04T14:14:00Z</time>
      </trkpt>
      <trkpt lat="44.13376" lon="6.83787">
        <ele>1127.3</ele>
        <time>2013-09-04T14:14:01Z</time>
      </trkpt>
      <trkpt lat="44.13382" lon="6.83803">
        <ele>1125.8</ele>
        <time>2013-09-04T14:14:05Z</time>
      </trkpt>
      <trkpt lat="44.13387" lon="6.83822">
        <ele>1122.5</ele>
        <time>2013-09-04T14:14:09Z</time>
      </trkpt>
      <trkpt lat="44.13392" lon="6.8383">
        <ele>1123</ele>
        <time>2013-09-04T14:14:18Z</time>
      </trkpt>
      <trkpt lat="44.1339" lon="6.83836">
        <ele>1122</ele>
        <time>2013-09-04T14:14:32Z</time>
      </trkpt>
      <trkpt lat="44.13385" lon="6.83841">
        <ele>1122.5</ele>
        <time>2013-09-04T14:14:45Z</time>
      </trkpt>
      <trkpt lat="44.13385" lon="6.83852">
        <ele>1123.4</ele>
        <time>2013-09-04T14:15:01Z</time>
      </trkpt>
      <trkpt lat="44.13386" lon="6.83849">
        <ele>1123.4</ele>
        <time>2013-09-04T14:15:16Z</time>
      </trkpt>
      <trkpt lat="44.13385" lon="6.83872">
        <ele>1123.4</ele>
        <time>2013-09-04T14:15:29Z</time>
      </trkpt>
      <trkpt lat="44.13386" lon="6.83889">
        <ele>1123.9</ele>
        <time>2013-09-04T14:15:36Z</time>
      </trkpt>
      <trkpt lat="44.13388" lon="6.83903">
        <ele>1124.9</ele>
        <time>2013-09-04T14:15:43Z</time>
      </trkpt>
      <trkpt lat="44.13385" lon="6.83925">
        <ele>1126.8</ele>
        <time>2013-09-04T14:15:55Z</time>
      </trkpt>
      <trkpt lat="44.13382" lon="6.83933">
        <ele>1126.8</ele>
        <time>2013-09-04T14:16:00Z</time>
      </trkpt>
      <trkpt lat="44.13372" lon="6.8397">
        <ele>1124.9</ele>
        <time>2013-09-04T14:16:14Z</time>
      </trkpt>
      <trkpt lat="44.13371" lon="6.83976">
        <ele>1123.9</ele>
        <time>2013-09-04T14:16:15Z</time>
      </trkpt>
      <trkpt lat="44.13369" lon="6.83983">
        <ele>1123.9</ele>
        <time>2013-09-04T14:16:16Z</time>
      </trkpt>
      <trkpt lat="44.13368" lon="6.84012">
        <ele>1121.5</ele>
        <time>2013-09-04T14:16:23Z</time>
      </trkpt>
      <trkpt lat="44.13369" lon="6.84015">
        <ele>1120.6</ele>
        <time>2013-09-04T14:16:24Z</time>
      </trkpt>
      <trkpt lat="44.13371" lon="6.84018">
        <ele>1120.1</ele>
        <time>2013-09-04T14:16:25Z</time>
      </trkpt>
      <trkpt lat="44.13373" lon="6.84021">
        <ele>1119.6</ele>
        <time>2013-09-04T14:16:26Z</time>
      </trkpt>
      <trkpt lat="44.13375" lon="6.84024">
        <ele>1119.1</ele>
        <time>2013-09-04T14:16:27Z</time>
      </trkpt>
      <trkpt lat="44.13384" lon="6.84037">
        <ele>1117.2</ele>
        <time>2013-09-04T14:16:31Z</time>
      </trkpt>
      <trkpt lat="44.13385" lon="6.8404">
        <ele>1116.7</ele>
        <time>2013-09-04T14:16:32Z</time>
      </trkpt>
      <trkpt lat="44.13386" lon="6.84041">
        <ele>1117.2</ele>
        <time>2013-09-04T14:16:33Z</time>
      </trkpt>
      <trkpt lat="44.13387" lon="6.84047">
        <ele>1115.8</ele>
        <time>2013-09-04T14:16:44Z</time>
      </trkpt>
      <trkpt lat="44.13383" lon="6.84054">
        <ele>1118.6</ele>
        <time>2013-09-04T14:17:01Z</time>
      </trkpt>
      <trkpt lat="44.13374" lon="6.84055">
        <ele>1118.6</ele>
        <time>2013-09-04T14:17:16Z</time>
      </trkpt>
      <trkpt lat="44.13369" lon="6.8406">
        <ele>1119.6</ele>
        <time>2013-09-04T14:17:31Z</time>
      </trkpt>
      <trkpt lat="44.13358" lon="6.8406">
        <ele>1120.6</ele>
        <time>2013-09-04T14:17:46Z</time>
      </trkpt>
      <trkpt lat="44.13348" lon="6.84068">
        <ele>1122</ele>
        <time>2013-09-04T14:18:02Z</time>
      </trkpt>
      <trkpt lat="44.13345" lon="6.84071">
        <ele>1121.5</ele>
        <time>2013-09-04T14:18:13Z</time>
      </trkpt>
      <trkpt lat="44.13343" lon="6.84072">
        <ele>1122</ele>
        <time>2013-09-04T14:18:15Z</time>
      </trkpt>
      <trkpt lat="44.13319" lon="6.84079">
        <ele>1123</ele>
        <time>2013-09-04T14:18:31Z</time>
      </trkpt>
      <trkpt lat="44.1329" lon="6.84086">
        <ele>1123</ele>
        <time>2013-09-04T14:18:45Z</time>
      </trkpt>
      <trkpt lat="44.1326" lon="6.84094">
        <ele>1123.9</ele>
        <time>2013-09-04T14:18:59Z</time>
      </trkpt>
      <trkpt lat="44.13247" lon="6.84116">
        <ele>1124.9</ele>
        <time>2013-09-04T14:19:10Z</time>
      </trkpt>
      <trkpt lat="44.13254" lon="6.84152">
        <ele>1123.9</ele>
        <time>2013-09-04T14:19:19Z</time>
      </trkpt>
      <trkpt lat="44.13269" lon="6.84168">
        <ele>1121</ele>
        <time>2013-09-04T14:19:24Z</time>
      </trkpt>
      <trkpt lat="44.13273" lon="6.84172">
        <ele>1121</ele>
        <time>2013-09-04T14:19:25Z</time>
      </trkpt>
      <trkpt lat="44.13292" lon="6.84189">
        <ele>1117.7</ele>
        <time>2013-09-04T14:19:31Z</time>
      </trkpt>
      <trkpt lat="44.13296" lon="6.84194">
        <ele>1115.8</ele>
        <time>2013-09-04T14:19:33Z</time>
      </trkpt>
      <trkpt lat="44.13297" lon="6.84197">
        <ele>1116.2</ele>
        <time>2013-09-04T14:19:34Z</time>
      </trkpt>
      <trkpt lat="44.13298" lon="6.84201">
        <ele>1115.8</ele>
        <time>2013-09-04T14:19:35Z</time>
      </trkpt>
      <trkpt lat="44.13298" lon="6.84205">
        <ele>1115.8</ele>
        <time>2013-09-04T14:19:36Z</time>
      </trkpt>
      <trkpt lat="44.13299" lon="6.84209">
        <ele>1115.3</ele>
        <time>2013-09-04T14:19:37Z</time>
      </trkpt>
      <trkpt lat="44.133" lon="6.84213">
        <ele>1115.3</ele>
        <time>2013-09-04T14:19:38Z</time>
      </trkpt>
      <trkpt lat="44.13304" lon="6.8422">
        <ele>1113.8</ele>
        <time>2013-09-04T14:19:40Z</time>
      </trkpt>
      <trkpt lat="44.13328" lon="6.84234">
        <ele>1110.9</ele>
        <time>2013-09-04T14:19:48Z</time>
      </trkpt>
      <trkpt lat="44.13332" lon="6.84235">
        <ele>1110.5</ele>
        <time>2013-09-04T14:19:49Z</time>
      </trkpt>
      <trkpt lat="44.1334" lon="6.84241">
        <ele>1107.1</ele>
        <time>2013-09-04T14:19:52Z</time>
      </trkpt>
      <trkpt lat="44.13341" lon="6.84244">
        <ele>1107.1</ele>
        <time>2013-09-04T14:19:53Z</time>
      </trkpt>
      <trkpt lat="44.13341" lon="6.84248">
        <ele>1107.1</ele>
        <time>2013-09-04T14:19:54Z</time>
      </trkpt>
      <trkpt lat="44.13341" lon="6.84251">
        <ele>1105.7</ele>
        <time>2013-09-04T14:19:55Z</time>
      </trkpt>
      <trkpt lat="44.1334" lon="6.84254">
        <ele>1106.1</ele>
        <time>2013-09-04T14:19:56Z</time>
      </trkpt>
      <trkpt lat="44.1334" lon="6.84256">
        <ele>1106.1</ele>
        <time>2013-09-04T14:19:57Z</time>
      </trkpt>
      <trkpt lat="44.13339" lon="6.84258">
        <ele>1106.1</ele>
        <time>2013-09-04T14:19:58Z</time>
      </trkpt>
      <trkpt lat="44.13319" lon="6.84301">
        <ele>1103.3</ele>
        <time>2013-09-04T14:20:08Z</time>
      </trkpt>
      <trkpt lat="44.13317" lon="6.8431">
        <ele>1103.7</ele>
        <time>2013-09-04T14:20:10Z</time>
      </trkpt>
      <trkpt lat="44.13318" lon="6.84315">
        <ele>1103.3</ele>
        <time>2013-09-04T14:20:11Z</time>
      </trkpt>
      <trkpt lat="44.13319" lon="6.84318">
        <ele>1102.3</ele>
        <time>2013-09-04T14:20:12Z</time>
      </trkpt>
      <trkpt lat="44.1332" lon="6.84321">
        <ele>1102.3</ele>
        <time>2013-09-04T14:20:13Z</time>
      </trkpt>
      <trkpt lat="44.13323" lon="6.84324">
        <ele>1102.8</ele>
        <time>2013-09-04T14:20:14Z</time>
      </trkpt>
      <trkpt lat="44.13326" lon="6.84326">
        <ele>1102.3</ele>
        <time>2013-09-04T14:20:15Z</time>
      </trkpt>
      <trkpt lat="44.13328" lon="6.84328">
        <ele>1100.9</ele>
        <time>2013-09-04T14:20:16Z</time>
      </trkpt>
      <trkpt lat="44.13331" lon="6.84331">
        <ele>1100.4</ele>
        <time>2013-09-04T14:20:17Z</time>
      </trkpt>
      <trkpt lat="44.13346" lon="6.84344">
        <ele>1096.5</ele>
        <time>2013-09-04T14:20:23Z</time>
      </trkpt>
      <trkpt lat="44.13351" lon="6.84346">
        <ele>1095.1</ele>
        <time>2013-09-04T14:20:25Z</time>
      </trkpt>
      <trkpt lat="44.1336" lon="6.84355">
        <ele>1093.2</ele>
        <time>2013-09-04T14:20:29Z</time>
      </trkpt>
      <trkpt lat="44.13361" lon="6.84359">
        <ele>1093.2</ele>
        <time>2013-09-04T14:20:30Z</time>
      </trkpt>
      <trkpt lat="44.13361" lon="6.84362">
        <ele>1092.7</ele>
        <time>2013-09-04T14:20:31Z</time>
      </trkpt>
      <trkpt lat="44.13362" lon="6.84366">
        <ele>1092.7</ele>
        <time>2013-09-04T14:20:32Z</time>
      </trkpt>
      <trkpt lat="44.13364" lon="6.84369">
        <ele>1093.2</ele>
        <time>2013-09-04T14:20:33Z</time>
      </trkpt>
      <trkpt lat="44.13366" lon="6.84373">
        <ele>1091.7</ele>
        <time>2013-09-04T14:20:34Z</time>
      </trkpt>
      <trkpt lat="44.13369" lon="6.84376">
        <ele>1091.7</ele>
        <time>2013-09-04T14:20:35Z</time>
      </trkpt>
      <trkpt lat="44.13378" lon="6.84395">
        <ele>1087.9</ele>
        <time>2013-09-04T14:20:40Z</time>
      </trkpt>
      <trkpt lat="44.13384" lon="6.84405">
        <ele>1086</ele>
        <time>2013-09-04T14:20:43Z</time>
      </trkpt>
      <trkpt lat="44.13388" lon="6.8441">
        <ele>1085</ele>
        <time>2013-09-04T14:20:45Z</time>
      </trkpt>
      <trkpt lat="44.1339" lon="6.84414">
        <ele>1084.5</ele>
        <time>2013-09-04T14:20:46Z</time>
      </trkpt>
      <trkpt lat="44.13392" lon="6.84417">
        <ele>1083.5</ele>
        <time>2013-09-04T14:20:47Z</time>
      </trkpt>
      <trkpt lat="44.13399" lon="6.84423">
        <ele>1081.1</ele>
        <time>2013-09-04T14:20:50Z</time>
      </trkpt>
      <trkpt lat="44.13401" lon="6.84423">
        <ele>1080.7</ele>
        <time>2013-09-04T14:20:51Z</time>
      </trkpt>
      <trkpt lat="44.13402" lon="6.84421">
        <ele>1080.2</ele>
        <time>2013-09-04T14:20:52Z</time>
      </trkpt>
      <trkpt lat="44.13404" lon="6.84421">
        <ele>1079.7</ele>
        <time>2013-09-04T14:20:53Z</time>
      </trkpt>
      <trkpt lat="44.13406" lon="6.84421">
        <ele>1079.2</ele>
        <time>2013-09-04T14:20:54Z</time>
      </trkpt>
      <trkpt lat="44.13408" lon="6.84423">
        <ele>1078.7</ele>
        <time>2013-09-04T14:20:55Z</time>
      </trkpt>
      <trkpt lat="44.13409" lon="6.84426">
        <ele>1078.3</ele>
        <time>2013-09-04T14:20:56Z</time>
      </trkpt>
      <trkpt lat="44.1341" lon="6.84429">
        <ele>1077.3</ele>
        <time>2013-09-04T14:20:57Z</time>
      </trkpt>
      <trkpt lat="44.1341" lon="6.84432">
        <ele>1077.3</ele>
        <time>2013-09-04T14:20:58Z</time>
      </trkpt>
      <trkpt lat="44.13411" lon="6.84436">
        <ele>1076.8</ele>
        <time>2013-09-04T14:20:59Z</time>
      </trkpt>
      <trkpt lat="44.13412" lon="6.84439">
        <ele>1077.3</ele>
        <time>2013-09-04T14:21:00Z</time>
      </trkpt>
      <trkpt lat="44.13415" lon="6.8444">
        <ele>1076.8</ele>
        <time>2013-09-04T14:21:01Z</time>
      </trkpt>
      <trkpt lat="44.13416" lon="6.8444">
        <ele>1075.4</ele>
        <time>2013-09-04T14:21:02Z</time>
      </trkpt>
      <trkpt lat="44.13418" lon="6.84438">
        <ele>1074.4</ele>
        <time>2013-09-04T14:21:03Z</time>
      </trkpt>
      <trkpt lat="44.1342" lon="6.84436">
        <ele>1074.4</ele>
        <time>2013-09-04T14:21:04Z</time>
      </trkpt>
      <trkpt lat="44.13422" lon="6.84434">
        <ele>1073.5</ele>
        <time>2013-09-04T14:21:05Z</time>
      </trkpt>
      <trkpt lat="44.13425" lon="6.84434">
        <ele>1073.9</ele>
        <time>2013-09-04T14:21:06Z</time>
      </trkpt>
      <trkpt lat="44.13439" lon="6.84445">
        <ele>1071.5</ele>
        <time>2013-09-04T14:21:13Z</time>
      </trkpt>
      <trkpt lat="44.13438" lon="6.84448">
        <ele>1071.1</ele>
        <time>2013-09-04T14:21:14Z</time>
      </trkpt>
      <trkpt lat="44.13435" lon="6.84477">
        <ele>1072.5</ele>
        <time>2013-09-04T14:21:25Z</time>
      </trkpt>
      <trkpt lat="44.13433" lon="6.84491">
        <ele>1075.4</ele>
        <time>2013-09-04T14:21:32Z</time>
      </trkpt>
      <trkpt lat="44.13443" lon="6.84524">
        <ele>1077.8</ele>
        <time>2013-09-04T14:21:50Z</time>
      </trkpt>
      <trkpt lat="44.13454" lon="6.84544">
        <ele>1076.8</ele>
        <time>2013-09-04T14:22:02Z</time>
      </trkpt>
      <trkpt lat="44.13456" lon="6.84546">
        <ele>1075.9</ele>
        <time>2013-09-04T14:22:03Z</time>
      </trkpt>
      <trkpt lat="44.13456" lon="6.84549">
        <ele>1075.4</ele>
        <time>2013-09-04T14:22:04Z</time>
      </trkpt>
      <trkpt lat="44.13457" lon="6.84553">
        <ele>1075.4</ele>
        <time>2013-09-04T14:22:05Z</time>
      </trkpt>
      <trkpt lat="44.13457" lon="6.84556">
        <ele>1074.4</ele>
        <time>2013-09-04T14:22:06Z</time>
      </trkpt>
      <trkpt lat="44.13457" lon="6.84559">
        <ele>1073.5</ele>
        <time>2013-09-04T14:22:07Z</time>
      </trkpt>
      <trkpt lat="44.13458" lon="6.84562">
        <ele>1073</ele>
        <time>2013-09-04T14:22:08Z</time>
      </trkpt>
      <trkpt lat="44.1346" lon="6.84563">
        <ele>1073</ele>
        <time>2013-09-04T14:22:09Z</time>
      </trkpt>
      <trkpt lat="44.13462" lon="6.84563">
        <ele>1071.5</ele>
        <time>2013-09-04T14:22:10Z</time>
      </trkpt>
      <trkpt lat="44.13469" lon="6.8456">
        <ele>1070.6</ele>
        <time>2013-09-04T14:22:16Z</time>
      </trkpt>
      <trkpt lat="44.13471" lon="6.84562">
        <ele>1070.1</ele>
        <time>2013-09-04T14:22:17Z</time>
      </trkpt>
      <trkpt lat="44.13479" lon="6.84594">
        <ele>1071.1</ele>
        <time>2013-09-04T14:22:29Z</time>
      </trkpt>
      <trkpt lat="44.13481" lon="6.84603">
        <ele>1071.1</ele>
        <time>2013-09-04T14:22:33Z</time>
      </trkpt>
      <trkpt lat="44.13481" lon="6.84606">
        <ele>1071.1</ele>
        <time>2013-09-04T14:22:34Z</time>
      </trkpt>
      <trkpt lat="44.13481" lon="6.8461">
        <ele>1071.1</ele>
        <time>2013-09-04T14:22:35Z</time>
      </trkpt>
      <trkpt lat="44.1348" lon="6.84614">
        <ele>1070.1</ele>
        <time>2013-09-04T14:22:36Z</time>
      </trkpt>
      <trkpt lat="44.1348" lon="6.84617">
        <ele>1069.1</ele>
        <time>2013-09-04T14:22:37Z</time>
      </trkpt>
      <trkpt lat="44.1348" lon="6.84622">
        <ele>1068.2</ele>
        <time>2013-09-04T14:22:38Z</time>
      </trkpt>
      <trkpt lat="44.13477" lon="6.84642">
        <ele>1065.3</ele>
        <time>2013-09-04T14:22:42Z</time>
      </trkpt>
      <trkpt lat="44.13471" lon="6.84657">
        <ele>1060.5</ele>
        <time>2013-09-04T14:22:46Z</time>
      </trkpt>
      <trkpt lat="44.1347" lon="6.8466">
        <ele>1060.5</ele>
        <time>2013-09-04T14:22:47Z</time>
      </trkpt>
      <trkpt lat="44.1347" lon="6.84663">
        <ele>1059.5</ele>
        <time>2013-09-04T14:22:48Z</time>
      </trkpt>
      <trkpt lat="44.13471" lon="6.84666">
        <ele>1059</ele>
        <time>2013-09-04T14:22:49Z</time>
      </trkpt>
      <trkpt lat="44.13473" lon="6.84669">
        <ele>1058.6</ele>
        <time>2013-09-04T14:22:50Z</time>
      </trkpt>
      <trkpt lat="44.13475" lon="6.84672">
        <ele>1057.1</ele>
        <time>2013-09-04T14:22:51Z</time>
      </trkpt>
      <trkpt lat="44.13477" lon="6.84675">
        <ele>1057.1</ele>
        <time>2013-09-04T14:22:52Z</time>
      </trkpt>
      <trkpt lat="44.13483" lon="6.84684">
        <ele>1054.2</ele>
        <time>2013-09-04T14:22:56Z</time>
      </trkpt>
      <trkpt lat="44.13485" lon="6.8469">
        <ele>1053.7</ele>
        <time>2013-09-04T14:23:08Z</time>
      </trkpt>
      <trkpt lat="44.13482" lon="6.84702">
        <ele>1054.7</ele>
        <time>2013-09-04T14:23:22Z</time>
      </trkpt>
      <trkpt lat="44.13484" lon="6.84711">
        <ele>1055.2</ele>
        <time>2013-09-04T14:23:37Z</time>
      </trkpt>
      <trkpt lat="44.13483" lon="6.84713">
        <ele>1051.8</ele>
        <time>2013-09-04T14:23:46Z</time>
      </trkpt>
      <trkpt lat="44.13483" lon="6.84713">
        <ele>1054.7</ele>
        <time>2013-09-04T14:23:48Z</time>
      </trkpt>
      <trkpt lat="44.13483" lon="6.84712">
        <ele>1063.4</ele>
        <time>2013-09-04T14:42:57Z</time>
      </trkpt>
      <trkpt lat="44.13512" lon="6.84715">
        <ele>1063.8</ele>
        <time>2013-09-04T14:42:58Z</time>
      </trkpt>
      <trkpt lat="44.13529" lon="6.84725">
        <ele>1065.3</ele>
        <time>2013-09-04T14:43:13Z</time>
      </trkpt>
      <trkpt lat="44.13536" lon="6.8473">
        <ele>1065.8</ele>
        <time>2013-09-04T14:43:17Z</time>
      </trkpt>
      <trkpt lat="44.1355" lon="6.84737">
        <ele>1066.7</ele>
        <time>2013-09-04T14:43:26Z</time>
      </trkpt>
      <trkpt lat="44.13567" lon="6.8475">
        <ele>1066.7</ele>
        <time>2013-09-04T14:43:41Z</time>
      </trkpt>
      <trkpt lat="44.13569" lon="6.84758">
        <ele>1068.6</ele>
        <time>2013-09-04T14:43:55Z</time>
      </trkpt>
      <trkpt lat="44.1357" lon="6.84771">
        <ele>1070.6</ele>
        <time>2013-09-04T14:44:10Z</time>
      </trkpt>
      <trkpt lat="44.13566" lon="6.84775">
        <ele>1072.5</ele>
        <time>2013-09-04T14:44:24Z</time>
      </trkpt>
      <trkpt lat="44.13573" lon="6.84787">
        <ele>1074.4</ele>
        <time>2013-09-04T14:44:42Z</time>
      </trkpt>
      <trkpt lat="44.13576" lon="6.84795">
        <ele>1075.9</ele>
        <time>2013-09-04T14:44:55Z</time>
      </trkpt>
      <trkpt lat="44.13579" lon="6.84802">
        <ele>1078.3</ele>
        <time>2013-09-04T14:45:09Z</time>
      </trkpt>
      <trkpt lat="44.13583" lon="6.8481">
        <ele>1080.7</ele>
        <time>2013-09-04T14:45:23Z</time>
      </trkpt>
      <trkpt lat="44.1358" lon="6.84814">
        <ele>1082.6</ele>
        <time>2013-09-04T14:45:34Z</time>
      </trkpt>
      <trkpt lat="44.13576" lon="6.84827">
        <ele>1085.5</ele>
        <time>2013-09-04T14:45:50Z</time>
      </trkpt>
      <trkpt lat="44.1358" lon="6.84835">
        <ele>1087.4</ele>
        <time>2013-09-04T14:46:05Z</time>
      </trkpt>
      <trkpt lat="44.13577" lon="6.84838">
        <ele>1089.3</ele>
        <time>2013-09-04T14:46:16Z</time>
      </trkpt>
      <trkpt lat="44.13569" lon="6.84834">
        <ele>1091.7</ele>
        <time>2013-09-04T14:46:32Z</time>
      </trkpt>
      <trkpt lat="44.13568" lon="6.84836">
        <ele>1093.6</ele>
        <time>2013-09-04T14:46:45Z</time>
      </trkpt>
      <trkpt lat="44.13567" lon="6.84841">
        <ele>1095.1</ele>
        <time>2013-09-04T14:47:00Z</time>
      </trkpt>
      <trkpt lat="44.13568" lon="6.84847">
        <ele>1096.5</ele>
        <time>2013-09-04T14:47:06Z</time>
      </trkpt>
      <trkpt lat="44.13569" lon="6.84854">
        <ele>1097</ele>
        <time>2013-09-04T14:47:13Z</time>
      </trkpt>
      <trkpt lat="44.13565" lon="6.84856">
        <ele>1099.4</ele>
        <time>2013-09-04T14:47:26Z</time>
      </trkpt>
      <trkpt lat="44.13561" lon="6.8485">
        <ele>1100.4</ele>
        <time>2013-09-04T14:47:41Z</time>
      </trkpt>
      <trkpt lat="44.13555" lon="6.84842">
        <ele>1102.3</ele>
        <time>2013-09-04T14:47:59Z</time>
      </trkpt>
      <trkpt lat="44.13546" lon="6.84836">
        <ele>1104.2</ele>
        <time>2013-09-04T14:48:15Z</time>
      </trkpt>
      <trkpt lat="44.13534" lon="6.84832">
        <ele>1105.2</ele>
        <time>2013-09-04T14:48:28Z</time>
      </trkpt>
      <trkpt lat="44.13525" lon="6.84823">
        <ele>1107.6</ele>
        <time>2013-09-04T14:48:46Z</time>
      </trkpt>
      <trkpt lat="44.13517" lon="6.8482">
        <ele>1110</ele>
        <time>2013-09-04T14:49:00Z</time>
      </trkpt>
      <trkpt lat="44.1351" lon="6.84822">
        <ele>1113.3</ele>
        <time>2013-09-04T14:49:12Z</time>
      </trkpt>
      <trkpt lat="44.13502" lon="6.84824">
        <ele>1115.3</ele>
        <time>2013-09-04T14:49:25Z</time>
      </trkpt>
      <trkpt lat="44.13493" lon="6.84825">
        <ele>1116.7</ele>
        <time>2013-09-04T14:49:40Z</time>
      </trkpt>
      <trkpt lat="44.13484" lon="6.84826">
        <ele>1119.6</ele>
        <time>2013-09-04T14:49:54Z</time>
      </trkpt>
      <trkpt lat="44.13477" lon="6.84828">
        <ele>1122</ele>
        <time>2013-09-04T14:50:06Z</time>
      </trkpt>
      <trkpt lat="44.13467" lon="6.84826">
        <ele>1124.4</ele>
        <time>2013-09-04T14:50:21Z</time>
      </trkpt>
      <trkpt lat="44.13456" lon="6.84823">
        <ele>1125.8</ele>
        <time>2013-09-04T14:50:34Z</time>
      </trkpt>
      <trkpt lat="44.13448" lon="6.84825">
        <ele>1128.2</ele>
        <time>2013-09-04T14:50:47Z</time>
      </trkpt>
      <trkpt lat="44.13441" lon="6.84827">
        <ele>1130.2</ele>
        <time>2013-09-04T14:51:00Z</time>
      </trkpt>
      <trkpt lat="44.13432" lon="6.84827">
        <ele>1133.1</ele>
        <time>2013-09-04T14:51:13Z</time>
      </trkpt>
      <trkpt lat="44.13422" lon="6.84821">
        <ele>1134.5</ele>
        <time>2013-09-04T14:51:27Z</time>
      </trkpt>
      <trkpt lat="44.13414" lon="6.84818">
        <ele>1135.9</ele>
        <time>2013-09-04T14:51:42Z</time>
      </trkpt>
      <trkpt lat="44.13405" lon="6.84817">
        <ele>1136.9</ele>
        <time>2013-09-04T14:51:56Z</time>
      </trkpt>
      <trkpt lat="44.13402" lon="6.84814">
        <ele>1137.4</ele>
        <time>2013-09-04T14:52:26Z</time>
      </trkpt>
      <trkpt lat="44.13399" lon="6.8482">
        <ele>1137.9</ele>
        <time>2013-09-04T14:52:46Z</time>
      </trkpt>
      <trkpt lat="44.13399" lon="6.84826">
        <ele>1137.9</ele>
        <time>2013-09-04T14:53:11Z</time>
      </trkpt>
      <trkpt lat="44.13397" lon="6.84844">
        <ele>1139.3</ele>
        <time>2013-09-04T14:53:26Z</time>
      </trkpt>
      <trkpt lat="44.13395" lon="6.84857">
        <ele>1140.3</ele>
        <time>2013-09-04T14:53:42Z</time>
      </trkpt>
      <trkpt lat="44.13398" lon="6.84869">
        <ele>1142.7</ele>
        <time>2013-09-04T14:54:00Z</time>
      </trkpt>
      <trkpt lat="44.13403" lon="6.84884">
        <ele>1145.6</ele>
        <time>2013-09-04T14:54:18Z</time>
      </trkpt>
      <trkpt lat="44.13407" lon="6.84898">
        <ele>1148.4</ele>
        <time>2013-09-04T14:54:36Z</time>
      </trkpt>
      <trkpt lat="44.13412" lon="6.84913">
        <ele>1149.9</ele>
        <time>2013-09-04T14:54:52Z</time>
      </trkpt>
      <trkpt lat="44.13414" lon="6.84927">
        <ele>1151.8</ele>
        <time>2013-09-04T14:55:08Z</time>
      </trkpt>
      <trkpt lat="44.13422" lon="6.84942">
        <ele>1153.2</ele>
        <time>2013-09-04T14:55:25Z</time>
      </trkpt>
      <trkpt lat="44.1343" lon="6.84956">
        <ele>1156.6</ele>
        <time>2013-09-04T14:55:42Z</time>
      </trkpt>
      <trkpt lat="44.13433" lon="6.8497">
        <ele>1159.5</ele>
        <time>2013-09-04T14:55:58Z</time>
      </trkpt>
      <trkpt lat="44.13429" lon="6.84976">
        <ele>1160.5</ele>
        <time>2013-09-04T14:56:10Z</time>
      </trkpt>
      <trkpt lat="44.13421" lon="6.8498">
        <ele>1161.4</ele>
        <time>2013-09-04T14:56:22Z</time>
      </trkpt>
      <trkpt lat="44.13418" lon="6.84976">
        <ele>1161.4</ele>
        <time>2013-09-04T14:56:38Z</time>
      </trkpt>
      <trkpt lat="44.13416" lon="6.84975">
        <ele>1161.9</ele>
        <time>2013-09-04T14:56:56Z</time>
      </trkpt>
      <trkpt lat="44.13412" lon="6.84975">
        <ele>1161.4</ele>
        <time>2013-09-04T14:57:10Z</time>
      </trkpt>
      <trkpt lat="44.1341" lon="6.84974">
        <ele>1160.9</ele>
        <time>2013-09-04T14:57:21Z</time>
      </trkpt>
      <trkpt lat="44.13398" lon="6.84968">
        <ele>1162.9</ele>
        <time>2013-09-04T14:57:34Z</time>
      </trkpt>
      <trkpt lat="44.13378" lon="6.8496">
        <ele>1163.8</ele>
        <time>2013-09-04T14:57:47Z</time>
      </trkpt>
      <trkpt lat="44.13358" lon="6.84955">
        <ele>1165.7</ele>
        <time>2013-09-04T14:58:00Z</time>
      </trkpt>
      <trkpt lat="44.13342" lon="6.84951">
        <ele>1167.2</ele>
        <time>2013-09-04T14:58:12Z</time>
      </trkpt>
      <trkpt lat="44.13335" lon="6.84955">
        <ele>1169.1</ele>
        <time>2013-09-04T14:58:20Z</time>
      </trkpt>
      <trkpt lat="44.13329" lon="6.84958">
        <ele>1170.1</ele>
        <time>2013-09-04T14:58:32Z</time>
      </trkpt>
      <trkpt lat="44.13318" lon="6.84956">
        <ele>1172.5</ele>
        <time>2013-09-04T14:58:45Z</time>
      </trkpt>
      <trkpt lat="44.13308" lon="6.84958">
        <ele>1174.9</ele>
        <time>2013-09-04T14:58:59Z</time>
      </trkpt>
      <trkpt lat="44.13299" lon="6.84958">
        <ele>1178.2</ele>
        <time>2013-09-04T14:59:14Z</time>
      </trkpt>
      <trkpt lat="44.13288" lon="6.84959">
        <ele>1181.1</ele>
        <time>2013-09-04T14:59:32Z</time>
      </trkpt>
      <trkpt lat="44.1328" lon="6.84964">
        <ele>1184</ele>
        <time>2013-09-04T14:59:47Z</time>
      </trkpt>
      <trkpt lat="44.13267" lon="6.84965">
        <ele>1186.9</ele>
        <time>2013-09-04T15:00:03Z</time>
      </trkpt>
      <trkpt lat="44.13257" lon="6.84964">
        <ele>1188.3</ele>
        <time>2013-09-04T15:00:17Z</time>
      </trkpt>
      <trkpt lat="44.13247" lon="6.8496">
        <ele>1191.2</ele>
        <time>2013-09-04T15:00:31Z</time>
      </trkpt>
      <trkpt lat="44.13238" lon="6.84957">
        <ele>1193.6</ele>
        <time>2013-09-04T15:00:46Z</time>
      </trkpt>
      <trkpt lat="44.13233" lon="6.84955">
        <ele>1194.1</ele>
        <time>2013-09-04T15:01:05Z</time>
      </trkpt>
      <trkpt lat="44.13228" lon="6.84953">
        <ele>1195.1</ele>
        <time>2013-09-04T15:01:25Z</time>
      </trkpt>
      <trkpt lat="44.13222" lon="6.84959">
        <ele>1195.5</ele>
        <time>2013-09-04T15:01:39Z</time>
      </trkpt>
      <trkpt lat="44.13216" lon="6.84966">
        <ele>1196.5</ele>
        <time>2013-09-04T15:01:51Z</time>
      </trkpt>
      <trkpt lat="44.13209" lon="6.84972">
        <ele>1197.5</ele>
        <time>2013-09-04T15:02:03Z</time>
      </trkpt>
      <trkpt lat="44.13197" lon="6.84975">
        <ele>1197.9</ele>
        <time>2013-09-04T15:02:16Z</time>
      </trkpt>
      <trkpt lat="44.13196" lon="6.84971">
        <ele>1198.4</ele>
        <time>2013-09-04T15:02:34Z</time>
      </trkpt>
      <trkpt lat="44.1319" lon="6.84975">
        <ele>1197.9</ele>
        <time>2013-09-04T15:02:59Z</time>
      </trkpt>
      <trkpt lat="44.13189" lon="6.84973">
        <ele>1198.9</ele>
        <time>2013-09-04T15:03:23Z</time>
      </trkpt>
      <trkpt lat="44.13183" lon="6.84974">
        <ele>1200.3</ele>
        <time>2013-09-04T15:03:36Z</time>
      </trkpt>
      <trkpt lat="44.13174" lon="6.84972">
        <ele>1203.7</ele>
        <time>2013-09-04T15:03:51Z</time>
      </trkpt>
      <trkpt lat="44.13165" lon="6.84969">
        <ele>1205.6</ele>
        <time>2013-09-04T15:04:07Z</time>
      </trkpt>
      <trkpt lat="44.13164" lon="6.84973">
        <ele>1207.6</ele>
        <time>2013-09-04T15:04:19Z</time>
      </trkpt>
      <trkpt lat="44.13162" lon="6.84981">
        <ele>1209</ele>
        <time>2013-09-04T15:04:34Z</time>
      </trkpt>
      <trkpt lat="44.13157" lon="6.84985">
        <ele>1210.4</ele>
        <time>2013-09-04T15:04:58Z</time>
      </trkpt>
      <trkpt lat="44.13161" lon="6.84989">
        <ele>1210.9</ele>
        <time>2013-09-04T15:05:17Z</time>
      </trkpt>
      <trkpt lat="44.13158" lon="6.84987">
        <ele>1211.4</ele>
        <time>2013-09-04T15:05:31Z</time>
      </trkpt>
      <trkpt lat="44.13158" lon="6.84988">
        <ele>1210.4</ele>
        <time>2013-09-04T15:05:46Z</time>
      </trkpt>
      <trkpt lat="44.13156" lon="6.84987">
        <ele>1211.9</ele>
        <time>2013-09-04T15:06:02Z</time>
      </trkpt>
      <trkpt lat="44.13147" lon="6.84982">
        <ele>1212.8</ele>
        <time>2013-09-04T15:06:19Z</time>
      </trkpt>
      <trkpt lat="44.13142" lon="6.84974">
        <ele>1214.3</ele>
        <time>2013-09-04T15:06:32Z</time>
      </trkpt>
      <trkpt lat="44.13131" lon="6.84972">
        <ele>1217.7</ele>
        <time>2013-09-04T15:06:49Z</time>
      </trkpt>
      <trkpt lat="44.13126" lon="6.84981">
        <ele>1219.1</ele>
        <time>2013-09-04T15:07:04Z</time>
      </trkpt>
      <trkpt lat="44.13126" lon="6.84987">
        <ele>1221.5</ele>
        <time>2013-09-04T15:07:19Z</time>
      </trkpt>
      <trkpt lat="44.13123" lon="6.84989">
        <ele>1221.5</ele>
        <time>2013-09-04T15:07:37Z</time>
      </trkpt>
      <trkpt lat="44.13114" lon="6.84996">
        <ele>1224.4</ele>
        <time>2013-09-04T15:07:56Z</time>
      </trkpt>
      <trkpt lat="44.13108" lon="6.85005">
        <ele>1225.3</ele>
        <time>2013-09-04T15:08:11Z</time>
      </trkpt>
      <trkpt lat="44.13101" lon="6.85007">
        <ele>1229.2</ele>
        <time>2013-09-04T15:08:20Z</time>
      </trkpt>
      <trkpt lat="44.13089" lon="6.85006">
        <ele>1231.6</ele>
        <time>2013-09-04T15:08:38Z</time>
      </trkpt>
      <trkpt lat="44.13083" lon="6.85011">
        <ele>1232.6</ele>
        <time>2013-09-04T15:08:53Z</time>
      </trkpt>
      <trkpt lat="44.13079" lon="6.85015">
        <ele>1235</ele>
        <time>2013-09-04T15:09:04Z</time>
      </trkpt>
      <trkpt lat="44.13068" lon="6.85016">
        <ele>1237.8</ele>
        <time>2013-09-04T15:09:19Z</time>
      </trkpt>
      <trkpt lat="44.13061" lon="6.8502">
        <ele>1239.3</ele>
        <time>2013-09-04T15:09:31Z</time>
      </trkpt>
      <trkpt lat="44.13053" lon="6.85023">
        <ele>1239.8</ele>
        <time>2013-09-04T15:09:44Z</time>
      </trkpt>
      <trkpt lat="44.13046" lon="6.85028">
        <ele>1242.6</ele>
        <time>2013-09-04T15:09:55Z</time>
      </trkpt>
      <trkpt lat="44.13036" lon="6.85031">
        <ele>1243.1</ele>
        <time>2013-09-04T15:10:13Z</time>
      </trkpt>
      <trkpt lat="44.13025" lon="6.85032">
        <ele>1245</ele>
        <time>2013-09-04T15:10:29Z</time>
      </trkpt>
      <trkpt lat="44.13024" lon="6.85032">
        <ele>1245.5</ele>
        <time>2013-09-04T15:10:30Z</time>
      </trkpt>
      <trkpt lat="44.13015" lon="6.85036">
        <ele>1247</ele>
        <time>2013-09-04T15:10:47Z</time>
      </trkpt>
      <trkpt lat="44.13011" lon="6.85035">
        <ele>1247.5</ele>
        <time>2013-09-04T15:10:59Z</time>
      </trkpt>
      <trkpt lat="44.13009" lon="6.85037">
        <ele>1247.5</ele>
        <time>2013-09-04T15:11:02Z</time>
      </trkpt>
      <trkpt lat="44.12985" lon="6.85053">
        <ele>1249.9</ele>
        <time>2013-09-04T15:11:21Z</time>
      </trkpt>
      <trkpt lat="44.1298" lon="6.85058">
        <ele>1251.8</ele>
        <time>2013-09-04T15:11:27Z</time>
      </trkpt>
      <trkpt lat="44.12968" lon="6.85073">
        <ele>1253.2</ele>
        <time>2013-09-04T15:11:41Z</time>
      </trkpt>
      <trkpt lat="44.12956" lon="6.85095">
        <ele>1255.1</ele>
        <time>2013-09-04T15:11:57Z</time>
      </trkpt>
      <trkpt lat="44.12956" lon="6.85096">
        <ele>1256.1</ele>
        <time>2013-09-04T15:11:58Z</time>
      </trkpt>
      <trkpt lat="44.12952" lon="6.85102">
        <ele>1256.1</ele>
        <time>2013-09-04T15:12:02Z</time>
      </trkpt>
      <trkpt lat="44.12934" lon="6.85115">
        <ele>1259.5</ele>
        <time>2013-09-04T15:12:18Z</time>
      </trkpt>
      <trkpt lat="44.12932" lon="6.85115">
        <ele>1259</ele>
        <time>2013-09-04T15:12:19Z</time>
      </trkpt>
      <trkpt lat="44.12917" lon="6.85126">
        <ele>1262.4</ele>
        <time>2013-09-04T15:12:34Z</time>
      </trkpt>
      <trkpt lat="44.1291" lon="6.85128">
        <ele>1262.8</ele>
        <time>2013-09-04T15:12:46Z</time>
      </trkpt>
      <trkpt lat="44.12903" lon="6.85125">
        <ele>1264.3</ele>
        <time>2013-09-04T15:13:01Z</time>
      </trkpt>
      <trkpt lat="44.12898" lon="6.85124">
        <ele>1265.7</ele>
        <time>2013-09-04T15:13:08Z</time>
      </trkpt>
      <trkpt lat="44.12888" lon="6.85128">
        <ele>1268.1</ele>
        <time>2013-09-04T15:13:23Z</time>
      </trkpt>
      <trkpt lat="44.12877" lon="6.85127">
        <ele>1270</ele>
        <time>2013-09-04T15:13:35Z</time>
      </trkpt>
      <trkpt lat="44.12868" lon="6.85122">
        <ele>1271.5</ele>
        <time>2013-09-04T15:13:49Z</time>
      </trkpt>
      <trkpt lat="44.12866" lon="6.85121">
        <ele>1272.4</ele>
        <time>2013-09-04T15:13:51Z</time>
      </trkpt>
      <trkpt lat="44.12855" lon="6.85124">
        <ele>1274.4</ele>
        <time>2013-09-04T15:14:07Z</time>
      </trkpt>
      <trkpt lat="44.12847" lon="6.85125">
        <ele>1275.8</ele>
        <time>2013-09-04T15:14:16Z</time>
      </trkpt>
      <trkpt lat="44.12838" lon="6.85121">
        <ele>1277.7</ele>
        <time>2013-09-04T15:14:29Z</time>
      </trkpt>
      <trkpt lat="44.12832" lon="6.85122">
        <ele>1280.6</ele>
        <time>2013-09-04T15:14:41Z</time>
      </trkpt>
      <trkpt lat="44.12821" lon="6.85125">
        <ele>1280.6</ele>
        <time>2013-09-04T15:14:56Z</time>
      </trkpt>
      <trkpt lat="44.12814" lon="6.85125">
        <ele>1284</ele>
        <time>2013-09-04T15:15:04Z</time>
      </trkpt>
      <trkpt lat="44.12802" lon="6.85127">
        <ele>1284.5</ele>
        <time>2013-09-04T15:15:21Z</time>
      </trkpt>
      <trkpt lat="44.12795" lon="6.85133">
        <ele>1288.3</ele>
        <time>2013-09-04T15:15:33Z</time>
      </trkpt>
      <trkpt lat="44.12797" lon="6.85134">
        <ele>1284.9</ele>
        <time>2013-09-04T15:15:40Z</time>
      </trkpt>
      <trkpt lat="44.12798" lon="6.85135">
        <ele>1284.9</ele>
        <time>2013-09-04T15:15:48Z</time>
      </trkpt>
      <trkpt lat="44.12799" lon="6.85134">
        <ele>1287.8</ele>
        <time>2013-09-04T15:15:58Z</time>
      </trkpt>
      <trkpt lat="44.12798" lon="6.85134">
        <ele>1286.4</ele>
        <time>2013-09-04T15:15:59Z</time>
      </trkpt>
      <trkpt lat="44.12798" lon="6.85133">
        <ele>1284.5</ele>
        <time>2013-09-04T15:16:04Z</time>
      </trkpt>
      <trkpt lat="44.12798" lon="6.85133">
        <ele>1285.9</ele>
        <time>2013-09-04T15:16:06Z</time>
      </trkpt>
      <trkpt lat="44.12798" lon="6.85134">
        <ele>1287.3</ele>
        <time>2013-09-04T15:16:24Z</time>
      </trkpt>
      <trkpt lat="44.12798" lon="6.85134">
        <ele>1284.9</ele>
        <time>2013-09-04T15:16:27Z</time>
      </trkpt>
      <trkpt lat="44.12798" lon="6.85135">
        <ele>1287.3</ele>
        <time>2013-09-04T15:16:29Z</time>
      </trkpt>
      <trkpt lat="44.12798" lon="6.85135">
        <ele>1284.5</ele>
        <time>2013-09-04T15:16:31Z</time>
      </trkpt>
      <trkpt lat="44.12798" lon="6.85135">
        <ele>1287.3</ele>
        <time>2013-09-04T15:16:33Z</time>
      </trkpt>
      <trkpt lat="44.12798" lon="6.85135">
        <ele>1284.9</ele>
        <time>2013-09-04T15:16:35Z</time>
      </trkpt>
      <trkpt lat="44.12798" lon="6.85136">
        <ele>1287.8</ele>
        <time>2013-09-04T15:16:37Z</time>
      </trkpt>
      <trkpt lat="44.12798" lon="6.85136">
        <ele>1286.4</ele>
        <time>2013-09-04T15:16:38Z</time>
      </trkpt>
      <trkpt lat="44.12799" lon="6.85136">
        <ele>1284.9</ele>
        <time>2013-09-04T15:16:40Z</time>
      </trkpt>
      <trkpt lat="44.12799" lon="6.85136">
        <ele>1288.3</ele>
        <time>2013-09-04T15:16:42Z</time>
      </trkpt>
      <trkpt lat="44.12799" lon="6.85134">
        <ele>1284.5</ele>
        <time>2013-09-04T15:16:46Z</time>
      </trkpt>
      <trkpt lat="44.12799" lon="6.85136">
        <ele>1288.3</ele>
        <time>2013-09-04T15:16:49Z</time>
      </trkpt>
      <trkpt lat="44.12798" lon="6.85136">
        <ele>1284.5</ele>
        <time>2013-09-04T15:16:53Z</time>
      </trkpt>
      <trkpt lat="44.12798" lon="6.85136">
        <ele>1284.9</ele>
        <time>2013-09-04T15:16:54Z</time>
      </trkpt>
      <trkpt lat="44.12798" lon="6.85136">
        <ele>1288.3</ele>
        <time>2013-09-04T15:16:56Z</time>
      </trkpt>
      <trkpt lat="44.12798" lon="6.85136">
        <ele>1288.3</ele>
        <time>2013-09-04T15:16:57Z</time>
      </trkpt>
      <trkpt lat="44.12797" lon="6.85136">
        <ele>1284.5</ele>
        <time>2013-09-04T15:17:00Z</time>
      </trkpt>
      <trkpt lat="44.12797" lon="6.85137">
        <ele>1285.4</ele>
        <time>2013-09-04T15:17:01Z</time>
      </trkpt>
      <trkpt lat="44.12795" lon="6.85138">
        <ele>1284.9</ele>
        <time>2013-09-04T15:17:08Z</time>
      </trkpt>
      <trkpt lat="44.12795" lon="6.85138">
        <ele>1288.3</ele>
        <time>2013-09-04T15:17:11Z</time>
      </trkpt>
      <trkpt lat="44.12795" lon="6.85138">
        <ele>1284.9</ele>
        <time>2013-09-04T15:17:22Z</time>
      </trkpt>
      <trkpt lat="44.12795" lon="6.85138">
        <ele>1285.4</ele>
        <time>2013-09-04T15:17:23Z</time>
      </trkpt>
      <trkpt lat="44.12795" lon="6.85139">
        <ele>1285.4</ele>
        <time>2013-09-04T15:17:28Z</time>
      </trkpt>
      <trkpt lat="44.12793" lon="6.85143">
        <ele>1288.8</ele>
        <time>2013-09-04T15:17:41Z</time>
      </trkpt>
      <trkpt lat="44.12787" lon="6.85155">
        <ele>1289.3</ele>
        <time>2013-09-04T15:17:49Z</time>
      </trkpt>
      <trkpt lat="44.12786" lon="6.8516">
        <ele>1286.4</ele>
        <time>2013-09-04T15:17:52Z</time>
      </trkpt>
      <trkpt lat="44.12785" lon="6.85164">
        <ele>1289.8</ele>
        <time>2013-09-04T15:17:54Z</time>
      </trkpt>
      <trkpt lat="44.12785" lon="6.85166">
        <ele>1290.2</ele>
        <time>2013-09-04T15:17:55Z</time>
      </trkpt>
      <trkpt lat="44.12783" lon="6.85165">
        <ele>1287.8</ele>
        <time>2013-09-04T15:17:58Z</time>
      </trkpt>
      <trkpt lat="44.1278" lon="6.85165">
        <ele>1291.2</ele>
        <time>2013-09-04T15:18:03Z</time>
      </trkpt>
      <trkpt lat="44.1278" lon="6.85165">
        <ele>1289.8</ele>
        <time>2013-09-04T15:18:04Z</time>
      </trkpt>
      <trkpt lat="44.12772" lon="6.85164">
        <ele>1289.8</ele>
        <time>2013-09-04T15:18:16Z</time>
      </trkpt>
      <trkpt lat="44.12769" lon="6.85165">
        <ele>1293.1</ele>
        <time>2013-09-04T15:18:19Z</time>
      </trkpt>
      <trkpt lat="44.12768" lon="6.85164">
        <ele>1292.6</ele>
        <time>2013-09-04T15:18:20Z</time>
      </trkpt>
      <trkpt lat="44.12766" lon="6.85164">
        <ele>1289.8</ele>
        <time>2013-09-04T15:18:22Z</time>
      </trkpt>
      <trkpt lat="44.12765" lon="6.85164">
        <ele>1293.1</ele>
        <time>2013-09-04T15:18:24Z</time>
      </trkpt>
      <trkpt lat="44.12764" lon="6.85163">
        <ele>1292.6</ele>
        <time>2013-09-04T15:18:25Z</time>
      </trkpt>
      <trkpt lat="44.12762" lon="6.85163">
        <ele>1291.2</ele>
        <time>2013-09-04T15:18:27Z</time>
      </trkpt>
      <trkpt lat="44.12761" lon="6.85164">
        <ele>1294.6</ele>
        <time>2013-09-04T15:18:29Z</time>
      </trkpt>
      <trkpt lat="44.12759" lon="6.85164">
        <ele>1292.2</ele>
        <time>2013-09-04T15:18:31Z</time>
      </trkpt>
      <trkpt lat="44.12758" lon="6.85165">
        <ele>1295.5</ele>
        <time>2013-09-04T15:18:33Z</time>
      </trkpt>
      <trkpt lat="44.12757" lon="6.85165">
        <ele>1291.7</ele>
        <time>2013-09-04T15:18:35Z</time>
      </trkpt>
      <trkpt lat="44.12755" lon="6.85166">
        <ele>1295.5</ele>
        <time>2013-09-04T15:18:37Z</time>
      </trkpt>
      <trkpt lat="44.12754" lon="6.85166">
        <ele>1295.5</ele>
        <time>2013-09-04T15:18:38Z</time>
      </trkpt>
      <trkpt lat="44.12753" lon="6.85166">
        <ele>1292.2</ele>
        <time>2013-09-04T15:18:40Z</time>
      </trkpt>
      <trkpt lat="44.12751" lon="6.85166">
        <ele>1296</ele>
        <time>2013-09-04T15:18:42Z</time>
      </trkpt>
      <trkpt lat="44.12748" lon="6.85167">
        <ele>1293.6</ele>
        <time>2013-09-04T15:18:46Z</time>
      </trkpt>
      <trkpt lat="44.12747" lon="6.85167">
        <ele>1296.5</ele>
        <time>2013-09-04T15:18:48Z</time>
      </trkpt>
      <trkpt lat="44.12746" lon="6.85167">
        <ele>1296.5</ele>
        <time>2013-09-04T15:18:49Z</time>
      </trkpt>
      <trkpt lat="44.12745" lon="6.85166">
        <ele>1294.6</ele>
        <time>2013-09-04T15:18:51Z</time>
      </trkpt>
      <trkpt lat="44.12744" lon="6.85166">
        <ele>1297.9</ele>
        <time>2013-09-04T15:18:52Z</time>
      </trkpt>
      <trkpt lat="44.12743" lon="6.85166">
        <ele>1296.5</ele>
        <time>2013-09-04T15:18:53Z</time>
      </trkpt>
      <trkpt lat="44.12736" lon="6.85165">
        <ele>1298.4</ele>
        <time>2013-09-04T15:19:00Z</time>
      </trkpt>
      <trkpt lat="44.1273" lon="6.85166">
        <ele>1299.8</ele>
        <time>2013-09-04T15:19:09Z</time>
      </trkpt>
      <trkpt lat="44.12728" lon="6.85166">
        <ele>1297.4</ele>
        <time>2013-09-04T15:19:11Z</time>
      </trkpt>
      <trkpt lat="44.12725" lon="6.85165">
        <ele>1300.3</ele>
        <time>2013-09-04T15:19:14Z</time>
      </trkpt>
      <trkpt lat="44.12723" lon="6.85165">
        <ele>1299.8</ele>
        <time>2013-09-04T15:19:21Z</time>
      </trkpt>
      <trkpt lat="44.12723" lon="6.85165">
        <ele>1297.4</ele>
        <time>2013-09-04T15:19:23Z</time>
      </trkpt>
      <trkpt lat="44.12722" lon="6.85166">
        <ele>1301.3</ele>
        <time>2013-09-04T15:19:25Z</time>
      </trkpt>
      <trkpt lat="44.12722" lon="6.85165">
        <ele>1297.9</ele>
        <time>2013-09-04T15:19:27Z</time>
      </trkpt>
      <trkpt lat="44.12721" lon="6.85165">
        <ele>1300.8</ele>
        <time>2013-09-04T15:19:29Z</time>
      </trkpt>
      <trkpt lat="44.1272" lon="6.85164">
        <ele>1299.4</ele>
        <time>2013-09-04T15:19:31Z</time>
      </trkpt>
      <trkpt lat="44.1272" lon="6.85162">
        <ele>1301.3</ele>
        <time>2013-09-04T15:19:34Z</time>
      </trkpt>
      <trkpt lat="44.1272" lon="6.85162">
        <ele>1298.4</ele>
        <time>2013-09-04T15:19:43Z</time>
      </trkpt>
      <trkpt lat="44.1272" lon="6.85162">
        <ele>1302.7</ele>
        <time>2013-09-04T15:19:45Z</time>
      </trkpt>
      <trkpt lat="44.1272" lon="6.85162">
        <ele>1301.3</ele>
        <time>2013-09-04T15:19:46Z</time>
      </trkpt>
      <trkpt lat="44.12721" lon="6.85162">
        <ele>1298.9</ele>
        <time>2013-09-04T15:19:54Z</time>
      </trkpt>
      <trkpt lat="44.1272" lon="6.85162">
        <ele>1302.2</ele>
        <time>2013-09-04T15:19:56Z</time>
      </trkpt>
      <trkpt lat="44.1272" lon="6.85163">
        <ele>1302.2</ele>
        <time>2013-09-04T15:19:57Z</time>
      </trkpt>
      <trkpt lat="44.1272" lon="6.85163">
        <ele>1298.4</ele>
        <time>2013-09-04T15:20:02Z</time>
      </trkpt>
      <trkpt lat="44.12718" lon="6.85159">
        <ele>1298.9</ele>
        <time>2013-09-04T15:20:08Z</time>
      </trkpt>
      <trkpt lat="44.12715" lon="6.85159">
        <ele>1298.4</ele>
        <time>2013-09-04T15:20:11Z</time>
      </trkpt>
      <trkpt lat="44.12709" lon="6.85152">
        <ele>1302.7</ele>
        <time>2013-09-04T15:20:18Z</time>
      </trkpt>
      <trkpt lat="44.12707" lon="6.8515">
        <ele>1303.7</ele>
        <time>2013-09-04T15:20:20Z</time>
      </trkpt>
      <trkpt lat="44.12693" lon="6.85149">
        <ele>1304.7</ele>
        <time>2013-09-04T15:20:32Z</time>
      </trkpt>
      <trkpt lat="44.12692" lon="6.85149">
        <ele>1306.1</ele>
        <time>2013-09-04T15:20:34Z</time>
      </trkpt>
      <trkpt lat="44.12692" lon="6.85148">
        <ele>1303.2</ele>
        <time>2013-09-04T15:20:36Z</time>
      </trkpt>
      <trkpt lat="44.1269" lon="6.85148">
        <ele>1306.1</ele>
        <time>2013-09-04T15:20:41Z</time>
      </trkpt>
      <trkpt lat="44.12689" lon="6.85148">
        <ele>1302.7</ele>
        <time>2013-09-04T15:20:45Z</time>
      </trkpt>
      <trkpt lat="44.12688" lon="6.85148">
        <ele>1303.2</ele>
        <time>2013-09-04T15:20:46Z</time>
      </trkpt>
      <trkpt lat="44.12687" lon="6.85148">
        <ele>1307.1</ele>
        <time>2013-09-04T15:20:48Z</time>
      </trkpt>
      <trkpt lat="44.12684" lon="6.85148">
        <ele>1303.7</ele>
        <time>2013-09-04T15:20:52Z</time>
      </trkpt>
      <trkpt lat="44.12682" lon="6.85149">
        <ele>1308</ele>
        <time>2013-09-04T15:20:55Z</time>
      </trkpt>
      <trkpt lat="44.12681" lon="6.85149">
        <ele>1305.1</ele>
        <time>2013-09-04T15:20:57Z</time>
      </trkpt>
      <trkpt lat="44.12679" lon="6.8515">
        <ele>1308.5</ele>
        <time>2013-09-04T15:20:59Z</time>
      </trkpt>
      <trkpt lat="44.12672" lon="6.85154">
        <ele>1306.6</ele>
        <time>2013-09-04T15:21:09Z</time>
      </trkpt>
      <trkpt lat="44.1267" lon="6.85155">
        <ele>1308</ele>
        <time>2013-09-04T15:21:11Z</time>
      </trkpt>
      <trkpt lat="44.12668" lon="6.85156">
        <ele>1310.9</ele>
        <time>2013-09-04T15:21:15Z</time>
      </trkpt>
      <trkpt lat="44.12664" lon="6.85158">
        <ele>1311.4</ele>
        <time>2013-09-04T15:21:21Z</time>
      </trkpt>
      <trkpt lat="44.12659" lon="6.85159">
        <ele>1312.3</ele>
        <time>2013-09-04T15:21:26Z</time>
      </trkpt>
      <trkpt lat="44.12654" lon="6.85165">
        <ele>1314.7</ele>
        <time>2013-09-04T15:21:37Z</time>
      </trkpt>
      <trkpt lat="44.12652" lon="6.85165">
        <ele>1310.9</ele>
        <time>2013-09-04T15:21:39Z</time>
      </trkpt>
      <trkpt lat="44.12648" lon="6.85167">
        <ele>1315.2</ele>
        <time>2013-09-04T15:21:43Z</time>
      </trkpt>
      <trkpt lat="44.12647" lon="6.85167">
        <ele>1315.2</ele>
        <time>2013-09-04T15:21:44Z</time>
      </trkpt>
      <trkpt lat="44.12646" lon="6.85168">
        <ele>1311.9</ele>
        <time>2013-09-04T15:21:45Z</time>
      </trkpt>
      <trkpt lat="44.12645" lon="6.85168">
        <ele>1313.3</ele>
        <time>2013-09-04T15:21:46Z</time>
      </trkpt>
      <trkpt lat="44.12644" lon="6.85168">
        <ele>1316.2</ele>
        <time>2013-09-04T15:21:48Z</time>
      </trkpt>
      <trkpt lat="44.12643" lon="6.85168">
        <ele>1312.8</ele>
        <time>2013-09-04T15:21:49Z</time>
      </trkpt>
      <trkpt lat="44.12641" lon="6.8517">
        <ele>1317.6</ele>
        <time>2013-09-04T15:21:53Z</time>
      </trkpt>
      <trkpt lat="44.1264" lon="6.85171">
        <ele>1315.7</ele>
        <time>2013-09-04T15:21:54Z</time>
      </trkpt>
      <trkpt lat="44.12639" lon="6.85173">
        <ele>1314.3</ele>
        <time>2013-09-04T15:21:56Z</time>
      </trkpt>
      <trkpt lat="44.12638" lon="6.85174">
        <ele>1316.2</ele>
        <time>2013-09-04T15:21:58Z</time>
      </trkpt>
      <trkpt lat="44.12636" lon="6.85174">
        <ele>1313.8</ele>
        <time>2013-09-04T15:22:00Z</time>
      </trkpt>
      <trkpt lat="44.12634" lon="6.85175">
        <ele>1317.1</ele>
        <time>2013-09-04T15:22:03Z</time>
      </trkpt>
      <trkpt lat="44.12631" lon="6.85176">
        <ele>1314.3</ele>
        <time>2013-09-04T15:22:06Z</time>
      </trkpt>
      <trkpt lat="44.12629" lon="6.85179">
        <ele>1318.6</ele>
        <time>2013-09-04T15:22:10Z</time>
      </trkpt>
      <trkpt lat="44.12626" lon="6.8518">
        <ele>1315.7</ele>
        <time>2013-09-04T15:22:15Z</time>
      </trkpt>
      <trkpt lat="44.12623" lon="6.85183">
        <ele>1317.1</ele>
        <time>2013-09-04T15:22:20Z</time>
      </trkpt>
      <trkpt lat="44.12619" lon="6.85187">
        <ele>1316.2</ele>
        <time>2013-09-04T15:22:26Z</time>
      </trkpt>
      <trkpt lat="44.12618" lon="6.85188">
        <ele>1318.1</ele>
        <time>2013-09-04T15:22:28Z</time>
      </trkpt>
      <trkpt lat="44.12612" lon="6.85195">
        <ele>1320.5</ele>
        <time>2013-09-04T15:22:37Z</time>
      </trkpt>
      <trkpt lat="44.12612" lon="6.85196">
        <ele>1319.1</ele>
        <time>2013-09-04T15:22:39Z</time>
      </trkpt>
      <trkpt lat="44.12612" lon="6.85197">
        <ele>1320</ele>
        <time>2013-09-04T15:22:41Z</time>
      </trkpt>
      <trkpt lat="44.1261" lon="6.852">
        <ele>1320</ele>
        <time>2013-09-04T15:22:49Z</time>
      </trkpt>
      <trkpt lat="44.12608" lon="6.85209">
        <ele>1318.6</ele>
        <time>2013-09-04T15:22:58Z</time>
      </trkpt>
      <trkpt lat="44.12607" lon="6.85211">
        <ele>1322.9</ele>
        <time>2013-09-04T15:23:00Z</time>
      </trkpt>
      <trkpt lat="44.12605" lon="6.85212">
        <ele>1319.1</ele>
        <time>2013-09-04T15:23:02Z</time>
      </trkpt>
      <trkpt lat="44.12604" lon="6.85214">
        <ele>1323.9</ele>
        <time>2013-09-04T15:23:04Z</time>
      </trkpt>
      <trkpt lat="44.12603" lon="6.85214">
        <ele>1321</ele>
        <time>2013-09-04T15:23:05Z</time>
      </trkpt>
      <trkpt lat="44.12601" lon="6.85218">
        <ele>1322</ele>
        <time>2013-09-04T15:23:10Z</time>
      </trkpt>
      <trkpt lat="44.12601" lon="6.85219">
        <ele>1325.3</ele>
        <time>2013-09-04T15:23:12Z</time>
      </trkpt>
      <trkpt lat="44.12601" lon="6.85221">
        <ele>1322.4</ele>
        <time>2013-09-04T15:23:14Z</time>
      </trkpt>
      <trkpt lat="44.12601" lon="6.85226">
        <ele>1325.8</ele>
        <time>2013-09-04T15:23:19Z</time>
      </trkpt>
      <trkpt lat="44.12601" lon="6.85227">
        <ele>1322.9</ele>
        <time>2013-09-04T15:23:20Z</time>
      </trkpt>
      <trkpt lat="44.126" lon="6.85233">
        <ele>1323.4</ele>
        <time>2013-09-04T15:23:26Z</time>
      </trkpt>
      <trkpt lat="44.12599" lon="6.85235">
        <ele>1325.8</ele>
        <time>2013-09-04T15:23:28Z</time>
      </trkpt>
      <trkpt lat="44.12598" lon="6.85236">
        <ele>1325.8</ele>
        <time>2013-09-04T15:23:29Z</time>
      </trkpt>
      <trkpt lat="44.12598" lon="6.85238">
        <ele>1322</ele>
        <time>2013-09-04T15:23:30Z</time>
      </trkpt>
      <trkpt lat="44.12598" lon="6.85239">
        <ele>1324.4</ele>
        <time>2013-09-04T15:23:31Z</time>
      </trkpt>
      <trkpt lat="44.12589" lon="6.85256">
        <ele>1323.9</ele>
        <time>2013-09-04T15:23:47Z</time>
      </trkpt>
      <trkpt lat="44.12587" lon="6.85261">
        <ele>1327.7</ele>
        <time>2013-09-04T15:23:52Z</time>
      </trkpt>
      <trkpt lat="44.12583" lon="6.85265">
        <ele>1324.8</ele>
        <time>2013-09-04T15:23:57Z</time>
      </trkpt>
      <trkpt lat="44.12582" lon="6.85266">
        <ele>1327.7</ele>
        <time>2013-09-04T15:23:58Z</time>
      </trkpt>
      <trkpt lat="44.12573" lon="6.85276">
        <ele>1326.3</ele>
        <time>2013-09-04T15:24:11Z</time>
      </trkpt>
      <trkpt lat="44.12572" lon="6.85276">
        <ele>1329.2</ele>
        <time>2013-09-04T15:24:13Z</time>
      </trkpt>
      <trkpt lat="44.12572" lon="6.85276">
        <ele>1325.3</ele>
        <time>2013-09-04T15:24:14Z</time>
      </trkpt>
      <trkpt lat="44.12572" lon="6.85276">
        <ele>1329.2</ele>
        <time>2013-09-04T15:24:15Z</time>
      </trkpt>
      <trkpt lat="44.12572" lon="6.85276">
        <ele>1325.3</ele>
        <time>2013-09-04T15:24:19Z</time>
      </trkpt>
      <trkpt lat="44.12572" lon="6.85276">
        <ele>1329.2</ele>
        <time>2013-09-04T15:24:20Z</time>
      </trkpt>
      <trkpt lat="44.12569" lon="6.85279">
        <ele>1325.8</ele>
        <time>2013-09-04T15:24:26Z</time>
      </trkpt>
      <trkpt lat="44.12569" lon="6.8528">
        <ele>1329.2</ele>
        <time>2013-09-04T15:24:27Z</time>
      </trkpt>
      <trkpt lat="44.12561" lon="6.85289">
        <ele>1327.7</ele>
        <time>2013-09-04T15:24:36Z</time>
      </trkpt>
      <trkpt lat="44.12556" lon="6.85297">
        <ele>1330.6</ele>
        <time>2013-09-04T15:24:50Z</time>
      </trkpt>
      <trkpt lat="44.12552" lon="6.85301">
        <ele>1333</ele>
        <time>2013-09-04T15:24:59Z</time>
      </trkpt>
      <trkpt lat="44.12546" lon="6.85312">
        <ele>1332.5</ele>
        <time>2013-09-04T15:25:12Z</time>
      </trkpt>
      <trkpt lat="44.12539" lon="6.85329">
        <ele>1332</ele>
        <time>2013-09-04T15:25:25Z</time>
      </trkpt>
      <trkpt lat="44.12538" lon="6.85331">
        <ele>1331.6</ele>
        <time>2013-09-04T15:25:26Z</time>
      </trkpt>
      <trkpt lat="44.12536" lon="6.85337">
        <ele>1333.5</ele>
        <time>2013-09-04T15:25:29Z</time>
      </trkpt>
      <trkpt lat="44.12533" lon="6.85344">
        <ele>1334</ele>
        <time>2013-09-04T15:25:34Z</time>
      </trkpt>
      <trkpt lat="44.12518" lon="6.85351">
        <ele>1336.4</ele>
        <time>2013-09-04T15:25:49Z</time>
      </trkpt>
      <trkpt lat="44.12512" lon="6.85354">
        <ele>1336.9</ele>
        <time>2013-09-04T15:26:03Z</time>
      </trkpt>
      <trkpt lat="44.12508" lon="6.8536">
        <ele>1338.8</ele>
        <time>2013-09-04T15:26:12Z</time>
      </trkpt>
      <trkpt lat="44.12496" lon="6.85365">
        <ele>1340.7</ele>
        <time>2013-09-04T15:26:26Z</time>
      </trkpt>
      <trkpt lat="44.12487" lon="6.85373">
        <ele>1341.7</ele>
        <time>2013-09-04T15:26:41Z</time>
      </trkpt>
      <trkpt lat="44.12474" lon="6.85379">
        <ele>1344.5</ele>
        <time>2013-09-04T15:26:56Z</time>
      </trkpt>
      <trkpt lat="44.12472" lon="6.8538">
        <ele>1345</ele>
        <time>2013-09-04T15:27:05Z</time>
      </trkpt>
      <trkpt lat="44.12472" lon="6.8538">
        <ele>1343.6</ele>
        <time>2013-09-04T15:27:07Z</time>
      </trkpt>
      <trkpt lat="44.12464" lon="6.85385">
        <ele>1345.5</ele>
        <time>2013-09-04T15:27:15Z</time>
      </trkpt>
      <trkpt lat="44.12443" lon="6.85392">
        <ele>1345</ele>
        <time>2013-09-04T15:27:29Z</time>
      </trkpt>
      <trkpt lat="44.1242" lon="6.85402">
        <ele>1342.6</ele>
        <time>2013-09-04T15:27:38Z</time>
      </trkpt>
      <trkpt lat="44.12417" lon="6.85404">
        <ele>1343.1</ele>
        <time>2013-09-04T15:27:39Z</time>
      </trkpt>
      <trkpt lat="44.12413" lon="6.85403">
        <ele>1342.6</ele>
        <time>2013-09-04T15:27:40Z</time>
      </trkpt>
      <trkpt lat="44.1241" lon="6.85401">
        <ele>1341.7</ele>
        <time>2013-09-04T15:27:41Z</time>
      </trkpt>
      <trkpt lat="44.12409" lon="6.854">
        <ele>1342.1</ele>
        <time>2013-09-04T15:27:42Z</time>
      </trkpt>
      <trkpt lat="44.12407" lon="6.85395">
        <ele>1342.6</ele>
        <time>2013-09-04T15:27:43Z</time>
      </trkpt>
      <trkpt lat="44.12406" lon="6.85392">
        <ele>1342.6</ele>
        <time>2013-09-04T15:27:44Z</time>
      </trkpt>
      <trkpt lat="44.12405" lon="6.85389">
        <ele>1342.6</ele>
        <time>2013-09-04T15:27:45Z</time>
      </trkpt>
      <trkpt lat="44.12404" lon="6.85387">
        <ele>1341.7</ele>
        <time>2013-09-04T15:27:46Z</time>
      </trkpt>
      <trkpt lat="44.12403" lon="6.85386">
        <ele>1342.1</ele>
        <time>2013-09-04T15:27:47Z</time>
      </trkpt>
      <trkpt lat="44.12379" lon="6.85387">
        <ele>1344.5</ele>
        <time>2013-09-04T15:27:59Z</time>
      </trkpt>
      <trkpt lat="44.12369" lon="6.85416">
        <ele>1344.5</ele>
        <time>2013-09-04T15:28:11Z</time>
      </trkpt>
      <trkpt lat="44.12368" lon="6.85417">
        <ele>1345.5</ele>
        <time>2013-09-04T15:28:12Z</time>
      </trkpt>
      <trkpt lat="44.12368" lon="6.85419">
        <ele>1344.1</ele>
        <time>2013-09-04T15:28:13Z</time>
      </trkpt>
      <trkpt lat="44.12367" lon="6.85422">
        <ele>1344.5</ele>
        <time>2013-09-04T15:28:14Z</time>
      </trkpt>
      <trkpt lat="44.12366" lon="6.85424">
        <ele>1344.5</ele>
        <time>2013-09-04T15:28:15Z</time>
      </trkpt>
      <trkpt lat="44.12364" lon="6.85427">
        <ele>1344.1</ele>
        <time>2013-09-04T15:28:16Z</time>
      </trkpt>
      <trkpt lat="44.12355" lon="6.8545">
        <ele>1344.1</ele>
        <time>2013-09-04T15:28:22Z</time>
      </trkpt>
      <trkpt lat="44.12352" lon="6.8545">
        <ele>1343.1</ele>
        <time>2013-09-04T15:28:23Z</time>
      </trkpt>
      <trkpt lat="44.12349" lon="6.85448">
        <ele>1342.1</ele>
        <time>2013-09-04T15:28:24Z</time>
      </trkpt>
      <trkpt lat="44.12348" lon="6.85445">
        <ele>1343.6</ele>
        <time>2013-09-04T15:28:25Z</time>
      </trkpt>
      <trkpt lat="44.12347" lon="6.85443">
        <ele>1343.6</ele>
        <time>2013-09-04T15:28:26Z</time>
      </trkpt>
      <trkpt lat="44.12346" lon="6.85441">
        <ele>1343.6</ele>
        <time>2013-09-04T15:28:27Z</time>
      </trkpt>
      <trkpt lat="44.12344" lon="6.85439">
        <ele>1343.6</ele>
        <time>2013-09-04T15:28:28Z</time>
      </trkpt>
      <trkpt lat="44.12343" lon="6.85437">
        <ele>1344.5</ele>
        <time>2013-09-04T15:28:29Z</time>
      </trkpt>
      <trkpt lat="44.12342" lon="6.85436">
        <ele>1344.5</ele>
        <time>2013-09-04T15:28:30Z</time>
      </trkpt>
      <trkpt lat="44.1234" lon="6.85434">
        <ele>1343.6</ele>
        <time>2013-09-04T15:28:31Z</time>
      </trkpt>
      <trkpt lat="44.12336" lon="6.85429">
        <ele>1345</ele>
        <time>2013-09-04T15:28:34Z</time>
      </trkpt>
      <trkpt lat="44.12334" lon="6.85428">
        <ele>1344.1</ele>
        <time>2013-09-04T15:28:35Z</time>
      </trkpt>
      <trkpt lat="44.12317" lon="6.85431">
        <ele>1346.9</ele>
        <time>2013-09-04T15:28:45Z</time>
      </trkpt>
      <trkpt lat="44.12298" lon="6.85451">
        <ele>1348.9</ele>
        <time>2013-09-04T15:29:00Z</time>
      </trkpt>
      <trkpt lat="44.12287" lon="6.85466">
        <ele>1351.8</ele>
        <time>2013-09-04T15:29:12Z</time>
      </trkpt>
      <trkpt lat="44.12278" lon="6.85488">
        <ele>1355.1</ele>
        <time>2013-09-04T15:29:26Z</time>
      </trkpt>
      <trkpt lat="44.12265" lon="6.85513">
        <ele>1357</ele>
        <time>2013-09-04T15:29:42Z</time>
      </trkpt>
      <trkpt lat="44.12247" lon="6.85539">
        <ele>1358</ele>
        <time>2013-09-04T15:29:58Z</time>
      </trkpt>
      <trkpt lat="44.12228" lon="6.8557">
        <ele>1360.4</ele>
        <time>2013-09-04T15:30:13Z</time>
      </trkpt>
      <trkpt lat="44.12218" lon="6.85586">
        <ele>1362.3</ele>
        <time>2013-09-04T15:30:23Z</time>
      </trkpt>
      <trkpt lat="44.12217" lon="6.85586">
        <ele>1362.8</ele>
        <time>2013-09-04T15:30:24Z</time>
      </trkpt>
      <trkpt lat="44.12215" lon="6.85586">
        <ele>1362.3</ele>
        <time>2013-09-04T15:30:25Z</time>
      </trkpt>
      <trkpt lat="44.12214" lon="6.85586">
        <ele>1362.8</ele>
        <time>2013-09-04T15:30:26Z</time>
      </trkpt>
      <trkpt lat="44.12212" lon="6.85586">
        <ele>1363.8</ele>
        <time>2013-09-04T15:30:27Z</time>
      </trkpt>
      <trkpt lat="44.12211" lon="6.85586">
        <ele>1363.8</ele>
        <time>2013-09-04T15:30:28Z</time>
      </trkpt>
      <trkpt lat="44.1221" lon="6.85586">
        <ele>1363.8</ele>
        <time>2013-09-04T15:30:29Z</time>
      </trkpt>
      <trkpt lat="44.12212" lon="6.85593">
        <ele>1364.3</ele>
        <time>2013-09-04T15:30:39Z</time>
      </trkpt>
      <trkpt lat="44.1221" lon="6.85617">
        <ele>1361.4</ele>
        <time>2013-09-04T15:30:44Z</time>
      </trkpt>
      <trkpt lat="44.1221" lon="6.85623">
        <ele>1362.3</ele>
        <time>2013-09-04T15:30:45Z</time>
      </trkpt>
      <trkpt lat="44.1221" lon="6.85626">
        <ele>1361.8</ele>
        <time>2013-09-04T15:30:46Z</time>
      </trkpt>
      <trkpt lat="44.1221" lon="6.85628">
        <ele>1360.9</ele>
        <time>2013-09-04T15:30:48Z</time>
      </trkpt>
      <trkpt lat="44.12211" lon="6.85629">
        <ele>1362.3</ele>
        <time>2013-09-04T15:31:00Z</time>
      </trkpt>
      <trkpt lat="44.12211" lon="6.85633">
        <ele>1362.3</ele>
        <time>2013-09-04T15:31:20Z</time>
      </trkpt>
      <trkpt lat="44.1221" lon="6.85635">
        <ele>1361.4</ele>
        <time>2013-09-04T15:31:21Z</time>
      </trkpt>
      <trkpt lat="44.12209" lon="6.85637">
        <ele>1360.4</ele>
        <time>2013-09-04T15:31:22Z</time>
      </trkpt>
      <trkpt lat="44.12208" lon="6.85639">
        <ele>1361.8</ele>
        <time>2013-09-04T15:31:23Z</time>
      </trkpt>
      <trkpt lat="44.12208" lon="6.85641">
        <ele>1360.9</ele>
        <time>2013-09-04T15:31:24Z</time>
      </trkpt>
      <trkpt lat="44.12209" lon="6.85643">
        <ele>1359.9</ele>
        <time>2013-09-04T15:31:25Z</time>
      </trkpt>
      <trkpt lat="44.12212" lon="6.85644">
        <ele>1359.4</ele>
        <time>2013-09-04T15:31:26Z</time>
      </trkpt>
      <trkpt lat="44.12222" lon="6.85649">
        <ele>1359</ele>
        <time>2013-09-04T15:31:29Z</time>
      </trkpt>
      <trkpt lat="44.12227" lon="6.85655">
        <ele>1357.5</ele>
        <time>2013-09-04T15:31:31Z</time>
      </trkpt>
      <trkpt lat="44.12229" lon="6.8566">
        <ele>1356.6</ele>
        <time>2013-09-04T15:31:34Z</time>
      </trkpt>
      <trkpt lat="44.12228" lon="6.85663">
        <ele>1357</ele>
        <time>2013-09-04T15:31:35Z</time>
      </trkpt>
      <trkpt lat="44.12227" lon="6.85665">
        <ele>1357.5</ele>
        <time>2013-09-04T15:31:36Z</time>
      </trkpt>
      <trkpt lat="44.12226" lon="6.85667">
        <ele>1357.5</ele>
        <time>2013-09-04T15:31:37Z</time>
      </trkpt>
      <trkpt lat="44.12222" lon="6.85682">
        <ele>1357.5</ele>
        <time>2013-09-04T15:31:44Z</time>
      </trkpt>
      <trkpt lat="44.12219" lon="6.85684">
        <ele>1358.5</ele>
        <time>2013-09-04T15:31:46Z</time>
      </trkpt>
      <trkpt lat="44.12209" lon="6.85695">
        <ele>1360.9</ele>
        <time>2013-09-04T15:31:58Z</time>
      </trkpt>
      <trkpt lat="44.12208" lon="6.85697">
        <ele>1361.4</ele>
        <time>2013-09-04T15:32:01Z</time>
      </trkpt>
      <trkpt lat="44.12205" lon="6.85699">
        <ele>1362.3</ele>
        <time>2013-09-04T15:32:04Z</time>
      </trkpt>
      <trkpt lat="44.122" lon="6.85711">
        <ele>1362.3</ele>
        <time>2013-09-04T15:32:12Z</time>
      </trkpt>
      <trkpt lat="44.12203" lon="6.85726">
        <ele>1365.7</ele>
        <time>2013-09-04T15:32:26Z</time>
      </trkpt>
      <trkpt lat="44.12201" lon="6.85722">
        <ele>1364.7</ele>
        <time>2013-09-04T15:32:40Z</time>
      </trkpt>
      <trkpt lat="44.12198" lon="6.85714">
        <ele>1363.3</ele>
        <time>2013-09-04T15:32:54Z</time>
      </trkpt>
      <trkpt lat="44.12196" lon="6.85718">
        <ele>1362.8</ele>
        <time>2013-09-04T15:33:19Z</time>
      </trkpt>
      <trkpt lat="44.12197" lon="6.85723">
        <ele>1363.3</ele>
        <time>2013-09-04T15:33:29Z</time>
      </trkpt>
      <trkpt lat="44.12195" lon="6.85732">
        <ele>1363.8</ele>
        <time>2013-09-04T15:33:35Z</time>
      </trkpt>
      <trkpt lat="44.12194" lon="6.85735">
        <ele>1364.7</ele>
        <time>2013-09-04T15:33:37Z</time>
      </trkpt>
      <trkpt lat="44.12191" lon="6.85752">
        <ele>1368.1</ele>
        <time>2013-09-04T15:33:48Z</time>
      </trkpt>
      <trkpt lat="44.12188" lon="6.85758">
        <ele>1368.1</ele>
        <time>2013-09-04T15:33:53Z</time>
      </trkpt>
      <trkpt lat="44.12187" lon="6.85767">
        <ele>1370.5</ele>
        <time>2013-09-04T15:33:59Z</time>
      </trkpt>
      <trkpt lat="44.12194" lon="6.85773">
        <ele>1370</ele>
        <time>2013-09-04T15:34:04Z</time>
      </trkpt>
      <trkpt lat="44.12212" lon="6.85785">
        <ele>1373.9</ele>
        <time>2013-09-04T15:34:19Z</time>
      </trkpt>
      <trkpt lat="44.12225" lon="6.85806">
        <ele>1373.9</ele>
        <time>2013-09-04T15:34:31Z</time>
      </trkpt>
      <trkpt lat="44.12226" lon="6.85808">
        <ele>1374.3</ele>
        <time>2013-09-04T15:34:32Z</time>
      </trkpt>
      <trkpt lat="44.12226" lon="6.85811">
        <ele>1373.4</ele>
        <time>2013-09-04T15:34:33Z</time>
      </trkpt>
      <trkpt lat="44.12226" lon="6.85818">
        <ele>1372.4</ele>
        <time>2013-09-04T15:34:35Z</time>
      </trkpt>
      <trkpt lat="44.12231" lon="6.8584">
        <ele>1371.9</ele>
        <time>2013-09-04T15:34:44Z</time>
      </trkpt>
      <trkpt lat="44.12234" lon="6.8585">
        <ele>1371</ele>
        <time>2013-09-04T15:34:47Z</time>
      </trkpt>
      <trkpt lat="44.12236" lon="6.85851">
        <ele>1371.9</ele>
        <time>2013-09-04T15:34:48Z</time>
      </trkpt>
      <trkpt lat="44.1224" lon="6.85856">
        <ele>1371</ele>
        <time>2013-09-04T15:34:53Z</time>
      </trkpt>
      <trkpt lat="44.1224" lon="6.85858">
        <ele>1371</ele>
        <time>2013-09-04T15:34:54Z</time>
      </trkpt>
      <trkpt lat="44.12238" lon="6.85865">
        <ele>1370.5</ele>
        <time>2013-09-04T15:34:57Z</time>
      </trkpt>
      <trkpt lat="44.12238" lon="6.85868">
        <ele>1371.9</ele>
        <time>2013-09-04T15:34:58Z</time>
      </trkpt>
      <trkpt lat="44.12238" lon="6.85871">
        <ele>1371.5</ele>
        <time>2013-09-04T15:34:59Z</time>
      </trkpt>
      <trkpt lat="44.12239" lon="6.85874">
        <ele>1371.5</ele>
        <time>2013-09-04T15:35:00Z</time>
      </trkpt>
      <trkpt lat="44.12239" lon="6.85879">
        <ele>1371.5</ele>
        <time>2013-09-04T15:35:05Z</time>
      </trkpt>
      <trkpt lat="44.12239" lon="6.85881">
        <ele>1370.5</ele>
        <time>2013-09-04T15:35:06Z</time>
      </trkpt>
      <trkpt lat="44.12239" lon="6.85888">
        <ele>1370.5</ele>
        <time>2013-09-04T15:35:15Z</time>
      </trkpt>
      <trkpt lat="44.12237" lon="6.85889">
        <ele>1371</ele>
        <time>2013-09-04T15:35:22Z</time>
      </trkpt>
      <trkpt lat="44.12237" lon="6.85892">
        <ele>1371</ele>
        <time>2013-09-04T15:35:23Z</time>
      </trkpt>
      <trkpt lat="44.12236" lon="6.85895">
        <ele>1370</ele>
        <time>2013-09-04T15:35:24Z</time>
      </trkpt>
      <trkpt lat="44.12236" lon="6.85899">
        <ele>1369.5</ele>
        <time>2013-09-04T15:35:25Z</time>
      </trkpt>
      <trkpt lat="44.12236" lon="6.85902">
        <ele>1369.5</ele>
        <time>2013-09-04T15:35:26Z</time>
      </trkpt>
      <trkpt lat="44.12237" lon="6.85904">
        <ele>1369.1</ele>
        <time>2013-09-04T15:35:27Z</time>
      </trkpt>
      <trkpt lat="44.12237" lon="6.85906">
        <ele>1370</ele>
        <time>2013-09-04T15:35:28Z</time>
      </trkpt>
      <trkpt lat="44.12236" lon="6.85908">
        <ele>1369.1</ele>
        <time>2013-09-04T15:35:29Z</time>
      </trkpt>
      <trkpt lat="44.12234" lon="6.85909">
        <ele>1369.1</ele>
        <time>2013-09-04T15:35:30Z</time>
      </trkpt>
      <trkpt lat="44.12232" lon="6.8591">
        <ele>1369.1</ele>
        <time>2013-09-04T15:35:31Z</time>
      </trkpt>
      <trkpt lat="44.1223" lon="6.85911">
        <ele>1370.5</ele>
        <time>2013-09-04T15:35:32Z</time>
      </trkpt>
      <trkpt lat="44.12228" lon="6.85911">
        <ele>1369.1</ele>
        <time>2013-09-04T15:35:33Z</time>
      </trkpt>
      <trkpt lat="44.12227" lon="6.8591">
        <ele>1371</ele>
        <time>2013-09-04T15:35:34Z</time>
      </trkpt>
      <trkpt lat="44.12216" lon="6.85904">
        <ele>1371.9</ele>
        <time>2013-09-04T15:35:47Z</time>
      </trkpt>
      <trkpt lat="44.1221" lon="6.859">
        <ele>1372.4</ele>
        <time>2013-09-04T15:36:13Z</time>
      </trkpt>
      <trkpt lat="44.12199" lon="6.85902">
        <ele>1372.4</ele>
        <time>2013-09-04T15:36:20Z</time>
      </trkpt>
      <trkpt lat="44.12201" lon="6.85905">
        <ele>1372.9</ele>
        <time>2013-09-04T15:36:23Z</time>
      </trkpt>
      <trkpt lat="44.12203" lon="6.85906">
        <ele>1374.3</ele>
        <time>2013-09-04T15:36:24Z</time>
      </trkpt>
      <trkpt lat="44.12204" lon="6.85907">
        <ele>1372.9</ele>
        <time>2013-09-04T15:36:25Z</time>
      </trkpt>
      <trkpt lat="44.12206" lon="6.85908">
        <ele>1374.3</ele>
        <time>2013-09-04T15:36:26Z</time>
      </trkpt>
      <trkpt lat="44.12207" lon="6.85909">
        <ele>1374.3</ele>
        <time>2013-09-04T15:36:27Z</time>
      </trkpt>
      <trkpt lat="44.12214" lon="6.85917">
        <ele>1374.8</ele>
        <time>2013-09-04T15:36:33Z</time>
      </trkpt>
      <trkpt lat="44.12216" lon="6.85918">
        <ele>1376.3</ele>
        <time>2013-09-04T15:36:34Z</time>
      </trkpt>
      <trkpt lat="44.12217" lon="6.85919">
        <ele>1376.3</ele>
        <time>2013-09-04T15:36:35Z</time>
      </trkpt>
      <trkpt lat="44.1221" lon="6.85922">
        <ele>1377.7</ele>
        <time>2013-09-04T15:36:48Z</time>
      </trkpt>
      <trkpt lat="44.12201" lon="6.85925">
        <ele>1379.2</ele>
        <time>2013-09-04T15:37:03Z</time>
      </trkpt>
      <trkpt lat="44.12195" lon="6.85927">
        <ele>1381.6</ele>
        <time>2013-09-04T15:37:12Z</time>
      </trkpt>
      <trkpt lat="44.12193" lon="6.85928">
        <ele>1382.5</ele>
        <time>2013-09-04T15:37:16Z</time>
      </trkpt>
      <trkpt lat="44.12185" lon="6.8593">
        <ele>1384.4</ele>
        <time>2013-09-04T15:37:34Z</time>
      </trkpt>
      <trkpt lat="44.12176" lon="6.85934">
        <ele>1387.3</ele>
        <time>2013-09-04T15:37:51Z</time>
      </trkpt>
      <trkpt lat="44.12171" lon="6.8595">
        <ele>1389.2</ele>
        <time>2013-09-04T15:38:08Z</time>
      </trkpt>
      <trkpt lat="44.12164" lon="6.8596">
        <ele>1392.6</ele>
        <time>2013-09-04T15:38:23Z</time>
      </trkpt>
      <trkpt lat="44.12156" lon="6.85967">
        <ele>1396</ele>
        <time>2013-09-04T15:38:38Z</time>
      </trkpt>
      <trkpt lat="44.12144" lon="6.85976">
        <ele>1397.4</ele>
        <time>2013-09-04T15:38:59Z</time>
      </trkpt>
      <trkpt lat="44.12134" lon="6.8599">
        <ele>1399.8</ele>
        <time>2013-09-04T15:39:17Z</time>
      </trkpt>
      <trkpt lat="44.12133" lon="6.85992">
        <ele>1400.8</ele>
        <time>2013-09-04T15:39:39Z</time>
      </trkpt>
      <trkpt lat="44.12125" lon="6.86003">
        <ele>1401.3</ele>
        <time>2013-09-04T15:39:52Z</time>
      </trkpt>
      <trkpt lat="44.12118" lon="6.86016">
        <ele>1402.2</ele>
        <time>2013-09-04T15:40:06Z</time>
      </trkpt>
      <trkpt lat="44.12117" lon="6.86017">
        <ele>1401.7</ele>
        <time>2013-09-04T15:40:10Z</time>
      </trkpt>
      <trkpt lat="44.12116" lon="6.86019">
        <ele>1402.7</ele>
        <time>2013-09-04T15:40:11Z</time>
      </trkpt>
      <trkpt lat="44.12115" lon="6.86021">
        <ele>1402.7</ele>
        <time>2013-09-04T15:40:12Z</time>
      </trkpt>
      <trkpt lat="44.12114" lon="6.86023">
        <ele>1402.2</ele>
        <time>2013-09-04T15:40:13Z</time>
      </trkpt>
      <trkpt lat="44.12113" lon="6.86026">
        <ele>1402.2</ele>
        <time>2013-09-04T15:40:14Z</time>
      </trkpt>
      <trkpt lat="44.121" lon="6.86063">
        <ele>1405.1</ele>
        <time>2013-09-04T15:40:29Z</time>
      </trkpt>
      <trkpt lat="44.12088" lon="6.861">
        <ele>1406.1</ele>
        <time>2013-09-04T15:40:45Z</time>
      </trkpt>
      <trkpt lat="44.12082" lon="6.86125">
        <ele>1407</ele>
        <time>2013-09-04T15:40:54Z</time>
      </trkpt>
      <trkpt lat="44.12079" lon="6.86148">
        <ele>1405.1</ele>
        <time>2013-09-04T15:41:02Z</time>
      </trkpt>
      <trkpt lat="44.12078" lon="6.86155">
        <ele>1407</ele>
        <time>2013-09-04T15:41:05Z</time>
      </trkpt>
      <trkpt lat="44.12068" lon="6.86176">
        <ele>1410.9</ele>
        <time>2013-09-04T15:41:15Z</time>
      </trkpt>
      <trkpt lat="44.12065" lon="6.86179">
        <ele>1407.5</ele>
        <time>2013-09-04T15:41:17Z</time>
      </trkpt>
      <trkpt lat="44.12061" lon="6.86182">
        <ele>1411.8</ele>
        <time>2013-09-04T15:41:20Z</time>
      </trkpt>
      <trkpt lat="44.12055" lon="6.86185">
        <ele>1409.9</ele>
        <time>2013-09-04T15:41:24Z</time>
      </trkpt>
      <trkpt lat="44.12048" lon="6.86188">
        <ele>1413.3</ele>
        <time>2013-09-04T15:41:28Z</time>
      </trkpt>
      <trkpt lat="44.12042" lon="6.86188">
        <ele>1409.9</ele>
        <time>2013-09-04T15:41:31Z</time>
      </trkpt>
      <trkpt lat="44.12039" lon="6.86187">
        <ele>1414.2</ele>
        <time>2013-09-04T15:41:33Z</time>
      </trkpt>
      <trkpt lat="44.12022" lon="6.86193">
        <ele>1415.7</ele>
        <time>2013-09-04T15:41:46Z</time>
      </trkpt>
      <trkpt lat="44.1202" lon="6.86196">
        <ele>1414.7</ele>
        <time>2013-09-04T15:41:48Z</time>
      </trkpt>
      <trkpt lat="44.12018" lon="6.86205">
        <ele>1416.2</ele>
        <time>2013-09-04T15:41:53Z</time>
      </trkpt>
      <trkpt lat="44.12019" lon="6.86212">
        <ele>1416.2</ele>
        <time>2013-09-04T15:42:06Z</time>
      </trkpt>
      <trkpt lat="44.12022" lon="6.8622">
        <ele>1417.6</ele>
        <time>2013-09-04T15:42:25Z</time>
      </trkpt>
      <trkpt lat="44.12023" lon="6.86224">
        <ele>1419</ele>
        <time>2013-09-04T15:42:31Z</time>
      </trkpt>
      <trkpt lat="44.12023" lon="6.86234">
        <ele>1420.5</ele>
        <time>2013-09-04T15:42:45Z</time>
      </trkpt>
      <trkpt lat="44.1202" lon="6.86242">
        <ele>1420.5</ele>
        <time>2013-09-04T15:43:00Z</time>
      </trkpt>
      <trkpt lat="44.12017" lon="6.86246">
        <ele>1420</ele>
        <time>2013-09-04T15:43:04Z</time>
      </trkpt>
      <trkpt lat="44.11997" lon="6.86286">
        <ele>1418.6</ele>
        <time>2013-09-04T15:43:17Z</time>
      </trkpt>
      <trkpt lat="44.11988" lon="6.86329">
        <ele>1419.5</ele>
        <time>2013-09-04T15:43:29Z</time>
      </trkpt>
      <trkpt lat="44.11982" lon="6.86369">
        <ele>1421</ele>
        <time>2013-09-04T15:43:44Z</time>
      </trkpt>
      <trkpt lat="44.11976" lon="6.86408">
        <ele>1422.4</ele>
        <time>2013-09-04T15:43:59Z</time>
      </trkpt>
      <trkpt lat="44.11978" lon="6.86436">
        <ele>1424.3</ele>
        <time>2013-09-04T15:44:12Z</time>
      </trkpt>
      <trkpt lat="44.11981" lon="6.8645">
        <ele>1425.3</ele>
        <time>2013-09-04T15:44:27Z</time>
      </trkpt>
      <trkpt lat="44.1198" lon="6.86455">
        <ele>1425.3</ele>
        <time>2013-09-04T15:44:33Z</time>
      </trkpt>
      <trkpt lat="44.11979" lon="6.86457">
        <ele>1424.8</ele>
        <time>2013-09-04T15:44:34Z</time>
      </trkpt>
      <trkpt lat="44.11977" lon="6.86461">
        <ele>1424.3</ele>
        <time>2013-09-04T15:44:35Z</time>
      </trkpt>
      <trkpt lat="44.11976" lon="6.86465">
        <ele>1423.9</ele>
        <time>2013-09-04T15:44:36Z</time>
      </trkpt>
      <trkpt lat="44.11976" lon="6.86469">
        <ele>1423.4</ele>
        <time>2013-09-04T15:44:37Z</time>
      </trkpt>
      <trkpt lat="44.11977" lon="6.86473">
        <ele>1423.9</ele>
        <time>2013-09-04T15:44:38Z</time>
      </trkpt>
      <trkpt lat="44.11979" lon="6.86475">
        <ele>1423.4</ele>
        <time>2013-09-04T15:44:39Z</time>
      </trkpt>
      <trkpt lat="44.1198" lon="6.86477">
        <ele>1424.3</ele>
        <time>2013-09-04T15:44:40Z</time>
      </trkpt>
      <trkpt lat="44.11999" lon="6.86502">
        <ele>1427.2</ele>
        <time>2013-09-04T15:44:55Z</time>
      </trkpt>
      <trkpt lat="44.12031" lon="6.86526">
        <ele>1427.7</ele>
        <time>2013-09-04T15:45:10Z</time>
      </trkpt>
      <trkpt lat="44.12051" lon="6.86543">
        <ele>1426.7</ele>
        <time>2013-09-04T15:45:16Z</time>
      </trkpt>
      <trkpt lat="44.12071" lon="6.86569">
        <ele>1425.8</ele>
        <time>2013-09-04T15:45:22Z</time>
      </trkpt>
      <trkpt lat="44.12074" lon="6.86573">
        <ele>1425.8</ele>
        <time>2013-09-04T15:45:23Z</time>
      </trkpt>
      <trkpt lat="44.12075" lon="6.86578">
        <ele>1426.3</ele>
        <time>2013-09-04T15:45:24Z</time>
      </trkpt>
      <trkpt lat="44.12081" lon="6.86602">
        <ele>1424.8</ele>
        <time>2013-09-04T15:45:34Z</time>
      </trkpt>
      <trkpt lat="44.12082" lon="6.86602">
        <ele>1424.8</ele>
        <time>2013-09-04T15:45:53Z</time>
      </trkpt>
      <trkpt lat="44.12084" lon="6.866">
        <ele>1424.8</ele>
        <time>2013-09-04T15:46:17Z</time>
      </trkpt>
      <trkpt lat="44.12082" lon="6.86601">
        <ele>1425.3</ele>
        <time>2013-09-04T15:46:41Z</time>
      </trkpt>
      <trkpt lat="44.12082" lon="6.86605">
        <ele>1424.8</ele>
        <time>2013-09-04T15:47:07Z</time>
      </trkpt>
      <trkpt lat="44.12089" lon="6.86635">
        <ele>1422.9</ele>
        <time>2013-09-04T15:47:14Z</time>
      </trkpt>
      <trkpt lat="44.12099" lon="6.8666">
        <ele>1419.5</ele>
        <time>2013-09-04T15:47:20Z</time>
      </trkpt>
      <trkpt lat="44.121" lon="6.86662">
        <ele>1419</ele>
        <time>2013-09-04T15:47:21Z</time>
      </trkpt>
      <trkpt lat="44.12108" lon="6.86678">
        <ele>1416.6</ele>
        <time>2013-09-04T15:47:28Z</time>
      </trkpt>
      <trkpt lat="44.121" lon="6.86702">
        <ele>1412.8</ele>
        <time>2013-09-04T15:47:35Z</time>
      </trkpt>
      <trkpt lat="44.12091" lon="6.86716">
        <ele>1413.3</ele>
        <time>2013-09-04T15:47:39Z</time>
      </trkpt>
      <trkpt lat="44.12091" lon="6.8672">
        <ele>1412.8</ele>
        <time>2013-09-04T15:47:40Z</time>
      </trkpt>
      <trkpt lat="44.12094" lon="6.86721">
        <ele>1414.7</ele>
        <time>2013-09-04T15:47:42Z</time>
      </trkpt>
      <trkpt lat="44.12098" lon="6.86722">
        <ele>1416.2</ele>
        <time>2013-09-04T15:47:45Z</time>
      </trkpt>
      <trkpt lat="44.12098" lon="6.86723">
        <ele>1412.3</ele>
        <time>2013-09-04T15:47:47Z</time>
      </trkpt>
      <trkpt lat="44.12098" lon="6.86723">
        <ele>1411.8</ele>
        <time>2013-09-04T15:47:48Z</time>
      </trkpt>
      <trkpt lat="44.12098" lon="6.86722">
        <ele>1415.2</ele>
        <time>2013-09-04T15:47:51Z</time>
      </trkpt>
      <trkpt lat="44.12098" lon="6.86723">
        <ele>1414.7</ele>
        <time>2013-09-04T15:47:52Z</time>
      </trkpt>
      <trkpt lat="44.12098" lon="6.86724">
        <ele>1411.4</ele>
        <time>2013-09-04T15:47:55Z</time>
      </trkpt>
      <trkpt lat="44.12099" lon="6.86724">
        <ele>1415.2</ele>
        <time>2013-09-04T15:47:57Z</time>
      </trkpt>
      <trkpt lat="44.12099" lon="6.86724">
        <ele>1413.8</ele>
        <time>2013-09-04T15:47:58Z</time>
      </trkpt>
      <trkpt lat="44.1209" lon="6.86725">
        <ele>1414.7</ele>
        <time>2013-09-04T15:48:14Z</time>
      </trkpt>
      <trkpt lat="44.12089" lon="6.86724">
        <ele>1413.8</ele>
        <time>2013-09-04T15:48:26Z</time>
      </trkpt>
      <trkpt lat="44.12086" lon="6.86724">
        <ele>1412.8</ele>
        <time>2013-09-04T15:48:28Z</time>
      </trkpt>
      <trkpt lat="44.12084" lon="6.86725">
        <ele>1415.2</ele>
        <time>2013-09-04T15:48:29Z</time>
      </trkpt>
      <trkpt lat="44.12082" lon="6.86727">
        <ele>1414.2</ele>
        <time>2013-09-04T15:48:30Z</time>
      </trkpt>
      <trkpt lat="44.1208" lon="6.8673">
        <ele>1414.2</ele>
        <time>2013-09-04T15:48:31Z</time>
      </trkpt>
      <trkpt lat="44.12078" lon="6.86733">
        <ele>1414.2</ele>
        <time>2013-09-04T15:48:32Z</time>
      </trkpt>
      <trkpt lat="44.12077" lon="6.86736">
        <ele>1413.3</ele>
        <time>2013-09-04T15:48:33Z</time>
      </trkpt>
      <trkpt lat="44.12075" lon="6.86739">
        <ele>1412.3</ele>
        <time>2013-09-04T15:48:34Z</time>
      </trkpt>
      <trkpt lat="44.12066" lon="6.86776">
        <ele>1410.9</ele>
        <time>2013-09-04T15:48:43Z</time>
      </trkpt>
      <trkpt lat="44.12098" lon="6.86836">
        <ele>1411.8</ele>
        <time>2013-09-04T15:48:57Z</time>
      </trkpt>
      <trkpt lat="44.12113" lon="6.86849">
        <ele>1412.3</ele>
        <time>2013-09-04T15:49:01Z</time>
      </trkpt>
      <trkpt lat="44.12117" lon="6.86854">
        <ele>1409</ele>
        <time>2013-09-04T15:49:02Z</time>
      </trkpt>
      <trkpt lat="44.1212" lon="6.86859">
        <ele>1409.4</ele>
        <time>2013-09-04T15:49:03Z</time>
      </trkpt>
      <trkpt lat="44.12122" lon="6.86863">
        <ele>1412.3</ele>
        <time>2013-09-04T15:49:04Z</time>
      </trkpt>
      <trkpt lat="44.12123" lon="6.86866">
        <ele>1410.9</ele>
        <time>2013-09-04T15:49:05Z</time>
      </trkpt>
      <trkpt lat="44.12123" lon="6.86872">
        <ele>1408.5</ele>
        <time>2013-09-04T15:49:15Z</time>
      </trkpt>
      <trkpt lat="44.12124" lon="6.86872">
        <ele>1409.4</ele>
        <time>2013-09-04T15:49:26Z</time>
      </trkpt>
      <trkpt lat="44.12124" lon="6.86877">
        <ele>1410.9</ele>
        <time>2013-09-04T15:50:01Z</time>
      </trkpt>
      <trkpt lat="44.12121" lon="6.86876">
        <ele>1411.8</ele>
        <time>2013-09-04T15:50:21Z</time>
      </trkpt>
      <trkpt lat="44.12119" lon="6.86877">
        <ele>1409.9</ele>
        <time>2013-09-04T15:50:22Z</time>
      </trkpt>
      <trkpt lat="44.12117" lon="6.86879">
        <ele>1409.9</ele>
        <time>2013-09-04T15:50:23Z</time>
      </trkpt>
      <trkpt lat="44.12116" lon="6.86882">
        <ele>1408.5</ele>
        <time>2013-09-04T15:50:24Z</time>
      </trkpt>
      <trkpt lat="44.12115" lon="6.86885">
        <ele>1408</ele>
        <time>2013-09-04T15:50:25Z</time>
      </trkpt>
      <trkpt lat="44.12115" lon="6.86888">
        <ele>1407.5</ele>
        <time>2013-09-04T15:50:26Z</time>
      </trkpt>
      <trkpt lat="44.12114" lon="6.8689">
        <ele>1407.5</ele>
        <time>2013-09-04T15:50:27Z</time>
      </trkpt>
      <trkpt lat="44.12113" lon="6.86891">
        <ele>1408</ele>
        <time>2013-09-04T15:50:28Z</time>
      </trkpt>
      <trkpt lat="44.12112" lon="6.86892">
        <ele>1407.5</ele>
        <time>2013-09-04T15:50:29Z</time>
      </trkpt>
      <trkpt lat="44.1211" lon="6.86893">
        <ele>1407.5</ele>
        <time>2013-09-04T15:50:30Z</time>
      </trkpt>
      <trkpt lat="44.12078" lon="6.86917">
        <ele>1408</ele>
        <time>2013-09-04T15:50:45Z</time>
      </trkpt>
      <trkpt lat="44.12075" lon="6.86925">
        <ele>1406.6</ele>
        <time>2013-09-04T15:50:48Z</time>
      </trkpt>
      <trkpt lat="44.12072" lon="6.86946">
        <ele>1405.1</ele>
        <time>2013-09-04T15:50:53Z</time>
      </trkpt>
      <trkpt lat="44.12073" lon="6.86989">
        <ele>1405.6</ele>
        <time>2013-09-04T15:51:03Z</time>
      </trkpt>
      <trkpt lat="44.12075" lon="6.86999">
        <ele>1405.1</ele>
        <time>2013-09-04T15:51:06Z</time>
      </trkpt>
      <trkpt lat="44.12077" lon="6.87004">
        <ele>1404.1</ele>
        <time>2013-09-04T15:51:07Z</time>
      </trkpt>
      <trkpt lat="44.12082" lon="6.87022">
        <ele>1401.7</ele>
        <time>2013-09-04T15:51:10Z</time>
      </trkpt>
      <trkpt lat="44.12083" lon="6.87028">
        <ele>1400.8</ele>
        <time>2013-09-04T15:51:11Z</time>
      </trkpt>
      <trkpt lat="44.12083" lon="6.87034">
        <ele>1401.3</ele>
        <time>2013-09-04T15:51:12Z</time>
      </trkpt>
      <trkpt lat="44.1208" lon="6.87062">
        <ele>1399.3</ele>
        <time>2013-09-04T15:51:17Z</time>
      </trkpt>
      <trkpt lat="44.1208" lon="6.87068">
        <ele>1398.9</ele>
        <time>2013-09-04T15:51:18Z</time>
      </trkpt>
      <trkpt lat="44.1208" lon="6.87074">
        <ele>1398.4</ele>
        <time>2013-09-04T15:51:19Z</time>
      </trkpt>
      <trkpt lat="44.12081" lon="6.87079">
        <ele>1399.3</ele>
        <time>2013-09-04T15:51:20Z</time>
      </trkpt>
      <trkpt lat="44.12082" lon="6.87084">
        <ele>1399.3</ele>
        <time>2013-09-04T15:51:21Z</time>
      </trkpt>
      <trkpt lat="44.12082" lon="6.87088">
        <ele>1399.3</ele>
        <time>2013-09-04T15:51:22Z</time>
      </trkpt>
      <trkpt lat="44.12081" lon="6.87091">
        <ele>1399.8</ele>
        <time>2013-09-04T15:51:23Z</time>
      </trkpt>
      <trkpt lat="44.12079" lon="6.87093">
        <ele>1398.9</ele>
        <time>2013-09-04T15:51:24Z</time>
      </trkpt>
      <trkpt lat="44.12072" lon="6.871">
        <ele>1397.4</ele>
        <time>2013-09-04T15:51:34Z</time>
      </trkpt>
      <trkpt lat="44.12068" lon="6.87101">
        <ele>1397.9</ele>
        <time>2013-09-04T15:51:40Z</time>
      </trkpt>
      <trkpt lat="44.12064" lon="6.87099">
        <ele>1399.3</ele>
        <time>2013-09-04T15:51:45Z</time>
      </trkpt>
      <trkpt lat="44.1206" lon="6.87093">
        <ele>1399.8</ele>
        <time>2013-09-04T15:51:53Z</time>
      </trkpt>
      <trkpt lat="44.12052" lon="6.8708">
        <ele>1402.7</ele>
        <time>2013-09-04T15:52:08Z</time>
      </trkpt>
      <trkpt lat="44.12048" lon="6.87077">
        <ele>1402.2</ele>
        <time>2013-09-04T15:52:18Z</time>
      </trkpt>
      <trkpt lat="44.12034" lon="6.87074">
        <ele>1404.1</ele>
        <time>2013-09-04T15:52:27Z</time>
      </trkpt>
      <trkpt lat="44.12014" lon="6.87075">
        <ele>1407.5</ele>
        <time>2013-09-04T15:52:41Z</time>
      </trkpt>
      <trkpt lat="44.12003" lon="6.87073">
        <ele>1410.4</ele>
        <time>2013-09-04T15:52:58Z</time>
      </trkpt>
      <trkpt lat="44.11996" lon="6.87068">
        <ele>1411.8</ele>
        <time>2013-09-04T15:53:09Z</time>
      </trkpt>
      <trkpt lat="44.11987" lon="6.87058">
        <ele>1413.3</ele>
        <time>2013-09-04T15:53:25Z</time>
      </trkpt>
      <trkpt lat="44.11977" lon="6.87048">
        <ele>1414.2</ele>
        <time>2013-09-04T15:53:39Z</time>
      </trkpt>
      <trkpt lat="44.11962" lon="6.87033">
        <ele>1414.2</ele>
        <time>2013-09-04T15:53:55Z</time>
      </trkpt>
      <trkpt lat="44.11953" lon="6.87031">
        <ele>1417.6</ele>
        <time>2013-09-04T15:54:05Z</time>
      </trkpt>
      <trkpt lat="44.11949" lon="6.87032">
        <ele>1418.1</ele>
        <time>2013-09-04T15:54:10Z</time>
      </trkpt>
      <trkpt lat="44.11933" lon="6.87033">
        <ele>1419.5</ele>
        <time>2013-09-04T15:54:27Z</time>
      </trkpt>
      <trkpt lat="44.11924" lon="6.87034">
        <ele>1420</ele>
        <time>2013-09-04T15:54:45Z</time>
      </trkpt>
      <trkpt lat="44.1191" lon="6.87033">
        <ele>1419.5</ele>
        <time>2013-09-04T15:55:03Z</time>
      </trkpt>
      <trkpt lat="44.11907" lon="6.87032">
        <ele>1421</ele>
        <time>2013-09-04T15:55:29Z</time>
      </trkpt>
      <trkpt lat="44.11906" lon="6.87033">
        <ele>1421</ele>
        <time>2013-09-04T15:55:36Z</time>
      </trkpt>
      <trkpt lat="44.11903" lon="6.87031">
        <ele>1421.5</ele>
        <time>2013-09-04T15:55:38Z</time>
      </trkpt>
      <trkpt lat="44.119" lon="6.87029">
        <ele>1419.5</ele>
        <time>2013-09-04T15:55:39Z</time>
      </trkpt>
      <trkpt lat="44.11897" lon="6.87028">
        <ele>1419.5</ele>
        <time>2013-09-04T15:55:40Z</time>
      </trkpt>
      <trkpt lat="44.11893" lon="6.87029">
        <ele>1419</ele>
        <time>2013-09-04T15:55:41Z</time>
      </trkpt>
      <trkpt lat="44.1189" lon="6.87031">
        <ele>1419.5</ele>
        <time>2013-09-04T15:55:42Z</time>
      </trkpt>
      <trkpt lat="44.11858" lon="6.87046">
        <ele>1417.6</ele>
        <time>2013-09-04T15:55:48Z</time>
      </trkpt>
      <trkpt lat="44.11826" lon="6.8706">
        <ele>1414.2</ele>
        <time>2013-09-04T15:55:53Z</time>
      </trkpt>
      <trkpt lat="44.118" lon="6.87073">
        <ele>1412.8</ele>
        <time>2013-09-04T15:55:57Z</time>
      </trkpt>
      <trkpt lat="44.11795" lon="6.87076">
        <ele>1411.8</ele>
        <time>2013-09-04T15:55:58Z</time>
      </trkpt>
      <trkpt lat="44.1179" lon="6.87081">
        <ele>1411.8</ele>
        <time>2013-09-04T15:55:59Z</time>
      </trkpt>
      <trkpt lat="44.11786" lon="6.87087">
        <ele>1410.4</ele>
        <time>2013-09-04T15:56:00Z</time>
      </trkpt>
      <trkpt lat="44.11782" lon="6.87093">
        <ele>1410.4</ele>
        <time>2013-09-04T15:56:01Z</time>
      </trkpt>
      <trkpt lat="44.11761" lon="6.87136">
        <ele>1408</ele>
        <time>2013-09-04T15:56:07Z</time>
      </trkpt>
      <trkpt lat="44.11756" lon="6.87142">
        <ele>1407</ele>
        <time>2013-09-04T15:56:08Z</time>
      </trkpt>
      <trkpt lat="44.11749" lon="6.87151">
        <ele>1407</ele>
        <time>2013-09-04T15:56:14Z</time>
      </trkpt>
      <trkpt lat="44.11751" lon="6.87152">
        <ele>1406.1</ele>
        <time>2013-09-04T15:56:31Z</time>
      </trkpt>
      <trkpt lat="44.11757" lon="6.87149">
        <ele>1407</ele>
        <time>2013-09-04T15:56:42Z</time>
      </trkpt>
      <trkpt lat="44.11753" lon="6.87161">
        <ele>1409</ele>
        <time>2013-09-04T15:56:57Z</time>
      </trkpt>
      <trkpt lat="44.11753" lon="6.87162">
        <ele>1409</ele>
        <time>2013-09-04T15:56:58Z</time>
      </trkpt>
      <trkpt lat="44.11748" lon="6.8718">
        <ele>1410.9</ele>
        <time>2013-09-04T15:57:08Z</time>
      </trkpt>
      <trkpt lat="44.11741" lon="6.87205">
        <ele>1411.4</ele>
        <time>2013-09-04T15:57:21Z</time>
      </trkpt>
      <trkpt lat="44.11739" lon="6.87212">
        <ele>1409.4</ele>
        <time>2013-09-04T15:57:24Z</time>
      </trkpt>
      <trkpt lat="44.11738" lon="6.87214">
        <ele>1410.9</ele>
        <time>2013-09-04T15:57:25Z</time>
      </trkpt>
      <trkpt lat="44.11736" lon="6.8722">
        <ele>1411.8</ele>
        <time>2013-09-04T15:57:27Z</time>
      </trkpt>
      <trkpt lat="44.11736" lon="6.87263">
        <ele>1409.9</ele>
        <time>2013-09-04T15:57:39Z</time>
      </trkpt>
      <trkpt lat="44.11757" lon="6.87286">
        <ele>1411.8</ele>
        <time>2013-09-04T15:57:49Z</time>
      </trkpt>
      <trkpt lat="44.1176" lon="6.87294">
        <ele>1411.8</ele>
        <time>2013-09-04T15:57:56Z</time>
      </trkpt>
      <trkpt lat="44.1176" lon="6.87296">
        <ele>1411.4</ele>
        <time>2013-09-04T15:57:57Z</time>
      </trkpt>
      <trkpt lat="44.11755" lon="6.87303">
        <ele>1412.3</ele>
        <time>2013-09-04T15:58:01Z</time>
      </trkpt>
      <trkpt lat="44.11755" lon="6.87305">
        <ele>1411.4</ele>
        <time>2013-09-04T15:58:02Z</time>
      </trkpt>
      <trkpt lat="44.11755" lon="6.87307">
        <ele>1411.4</ele>
        <time>2013-09-04T15:58:03Z</time>
      </trkpt>
      <trkpt lat="44.11755" lon="6.87309">
        <ele>1410.9</ele>
        <time>2013-09-04T15:58:04Z</time>
      </trkpt>
      <trkpt lat="44.11755" lon="6.87312">
        <ele>1411.4</ele>
        <time>2013-09-04T15:58:05Z</time>
      </trkpt>
      <trkpt lat="44.11755" lon="6.87314">
        <ele>1411.4</ele>
        <time>2013-09-04T15:58:06Z</time>
      </trkpt>
      <trkpt lat="44.11756" lon="6.87316">
        <ele>1410.9</ele>
        <time>2013-09-04T15:58:07Z</time>
      </trkpt>
      <trkpt lat="44.11758" lon="6.87317">
        <ele>1409.4</ele>
        <time>2013-09-04T15:58:20Z</time>
      </trkpt>
      <trkpt lat="44.11755" lon="6.87318">
        <ele>1410.9</ele>
        <time>2013-09-04T15:58:52Z</time>
      </trkpt>
      <trkpt lat="44.11756" lon="6.8732">
        <ele>1411.4</ele>
        <time>2013-09-04T15:59:02Z</time>
      </trkpt>
      <trkpt lat="44.11756" lon="6.87322">
        <ele>1409.9</ele>
        <time>2013-09-04T15:59:03Z</time>
      </trkpt>
      <trkpt lat="44.11757" lon="6.87325">
        <ele>1409.9</ele>
        <time>2013-09-04T15:59:04Z</time>
      </trkpt>
      <trkpt lat="44.11765" lon="6.87346">
        <ele>1409</ele>
        <time>2013-09-04T15:59:10Z</time>
      </trkpt>
      <trkpt lat="44.11778" lon="6.8737">
        <ele>1408.5</ele>
        <time>2013-09-04T15:59:15Z</time>
      </trkpt>
      <trkpt lat="44.11784" lon="6.8738">
        <ele>1408.5</ele>
        <time>2013-09-04T15:59:17Z</time>
      </trkpt>
      <trkpt lat="44.11789" lon="6.8739">
        <ele>1407.5</ele>
        <time>2013-09-04T15:59:19Z</time>
      </trkpt>
      <trkpt lat="44.11791" lon="6.87396">
        <ele>1407.5</ele>
        <time>2013-09-04T15:59:20Z</time>
      </trkpt>
      <trkpt lat="44.11793" lon="6.87401">
        <ele>1407.5</ele>
        <time>2013-09-04T15:59:21Z</time>
      </trkpt>
      <trkpt lat="44.11794" lon="6.87407">
        <ele>1407</ele>
        <time>2013-09-04T15:59:22Z</time>
      </trkpt>
      <trkpt lat="44.11795" lon="6.87414">
        <ele>1406.6</ele>
        <time>2013-09-04T15:59:23Z</time>
      </trkpt>
      <trkpt lat="44.11795" lon="6.8742">
        <ele>1407</ele>
        <time>2013-09-04T15:59:24Z</time>
      </trkpt>
      <trkpt lat="44.11795" lon="6.87438">
        <ele>1406.1</ele>
        <time>2013-09-04T15:59:27Z</time>
      </trkpt>
      <trkpt lat="44.11795" lon="6.87444">
        <ele>1406.1</ele>
        <time>2013-09-04T15:59:28Z</time>
      </trkpt>
      <trkpt lat="44.11794" lon="6.8745">
        <ele>1406.1</ele>
        <time>2013-09-04T15:59:29Z</time>
      </trkpt>
      <trkpt lat="44.11794" lon="6.87456">
        <ele>1405.1</ele>
        <time>2013-09-04T15:59:30Z</time>
      </trkpt>
      <trkpt lat="44.11794" lon="6.87462">
        <ele>1405.1</ele>
        <time>2013-09-04T15:59:31Z</time>
      </trkpt>
      <trkpt lat="44.11795" lon="6.87489">
        <ele>1404.1</ele>
        <time>2013-09-04T15:59:36Z</time>
      </trkpt>
      <trkpt lat="44.11791" lon="6.87506">
        <ele>1402.2</ele>
        <time>2013-09-04T15:59:43Z</time>
      </trkpt>
      <trkpt lat="44.11785" lon="6.8752">
        <ele>1399.3</ele>
        <time>2013-09-04T15:59:49Z</time>
      </trkpt>
      <trkpt lat="44.11785" lon="6.87536">
        <ele>1397.4</ele>
        <time>2013-09-04T15:59:55Z</time>
      </trkpt>
      <trkpt lat="44.11785" lon="6.87543">
        <ele>1396</ele>
        <time>2013-09-04T15:59:57Z</time>
      </trkpt>
      <trkpt lat="44.11784" lon="6.87554">
        <ele>1393.6</ele>
        <time>2013-09-04T16:00:07Z</time>
      </trkpt>
      <trkpt lat="44.11777" lon="6.87553">
        <ele>1392.1</ele>
        <time>2013-09-04T16:00:15Z</time>
      </trkpt>
      <trkpt lat="44.11774" lon="6.87546">
        <ele>1391.2</ele>
        <time>2013-09-04T16:00:20Z</time>
      </trkpt>
      <trkpt lat="44.11763" lon="6.87536">
        <ele>1388.8</ele>
        <time>2013-09-04T16:00:34Z</time>
      </trkpt>
      <trkpt lat="44.11761" lon="6.87539">
        <ele>1387.8</ele>
        <time>2013-09-04T16:00:39Z</time>
      </trkpt>
      <trkpt lat="44.11769" lon="6.87552">
        <ele>1388.3</ele>
        <time>2013-09-04T16:00:54Z</time>
      </trkpt>
      <trkpt lat="44.11769" lon="6.87553">
        <ele>1388.3</ele>
        <time>2013-09-04T16:00:56Z</time>
      </trkpt>
      <trkpt lat="44.11772" lon="6.87556">
        <ele>1388.3</ele>
        <time>2013-09-04T16:01:01Z</time>
      </trkpt>
      <trkpt lat="44.11783" lon="6.87567">
        <ele>1388.3</ele>
        <time>2013-09-04T16:01:14Z</time>
      </trkpt>
      <trkpt lat="44.11787" lon="6.87572">
        <ele>1388.3</ele>
        <time>2013-09-04T16:01:17Z</time>
      </trkpt>
      <trkpt lat="44.11793" lon="6.87578">
        <ele>1386.8</ele>
        <time>2013-09-04T16:01:25Z</time>
      </trkpt>
      <trkpt lat="44.11793" lon="6.8758">
        <ele>1387.3</ele>
        <time>2013-09-04T16:01:26Z</time>
      </trkpt>
      <trkpt lat="44.11786" lon="6.87589">
        <ele>1388.8</ele>
        <time>2013-09-04T16:01:39Z</time>
      </trkpt>
      <trkpt lat="44.11785" lon="6.87591">
        <ele>1388.3</ele>
        <time>2013-09-04T16:01:43Z</time>
      </trkpt>
      <trkpt lat="44.11784" lon="6.87594">
        <ele>1388.3</ele>
        <time>2013-09-04T16:01:44Z</time>
      </trkpt>
      <trkpt lat="44.11785" lon="6.87628">
        <ele>1385.4</ele>
        <time>2013-09-04T16:01:53Z</time>
      </trkpt>
      <trkpt lat="44.11785" lon="6.87656">
        <ele>1382</ele>
        <time>2013-09-04T16:02:02Z</time>
      </trkpt>
      <trkpt lat="44.11787" lon="6.87662">
        <ele>1381.1</ele>
        <time>2013-09-04T16:02:04Z</time>
      </trkpt>
      <trkpt lat="44.11798" lon="6.87677">
        <ele>1379.2</ele>
        <time>2013-09-04T16:02:12Z</time>
      </trkpt>
      <trkpt lat="44.11803" lon="6.87688">
        <ele>1377.7</ele>
        <time>2013-09-04T16:02:17Z</time>
      </trkpt>
      <trkpt lat="44.11804" lon="6.87699">
        <ele>1375.8</ele>
        <time>2013-09-04T16:02:23Z</time>
      </trkpt>
      <trkpt lat="44.11804" lon="6.87701">
        <ele>1375.8</ele>
        <time>2013-09-04T16:02:24Z</time>
      </trkpt>
      <trkpt lat="44.11803" lon="6.87704">
        <ele>1375.3</ele>
        <time>2013-09-04T16:02:25Z</time>
      </trkpt>
      <trkpt lat="44.118" lon="6.87709">
        <ele>1373.9</ele>
        <time>2013-09-04T16:02:27Z</time>
      </trkpt>
      <trkpt lat="44.11799" lon="6.87712">
        <ele>1373.4</ele>
        <time>2013-09-04T16:02:28Z</time>
      </trkpt>
      <trkpt lat="44.11799" lon="6.87716">
        <ele>1372.4</ele>
        <time>2013-09-04T16:02:29Z</time>
      </trkpt>
      <trkpt lat="44.118" lon="6.87753">
        <ele>1370.5</ele>
        <time>2013-09-04T16:02:37Z</time>
      </trkpt>
      <trkpt lat="44.11811" lon="6.87801">
        <ele>1368.1</ele>
        <time>2013-09-04T16:02:48Z</time>
      </trkpt>
      <trkpt lat="44.1182" lon="6.87816">
        <ele>1367.1</ele>
        <time>2013-09-04T16:02:52Z</time>
      </trkpt>
      <trkpt lat="44.11831" lon="6.87843">
        <ele>1364.3</ele>
        <time>2013-09-04T16:02:57Z</time>
      </trkpt>
      <trkpt lat="44.11833" lon="6.87848">
        <ele>1364.3</ele>
        <time>2013-09-04T16:02:58Z</time>
      </trkpt>
      <trkpt lat="44.11834" lon="6.87853">
        <ele>1363.3</ele>
        <time>2013-09-04T16:02:59Z</time>
      </trkpt>
      <trkpt lat="44.11836" lon="6.87865">
        <ele>1362.8</ele>
        <time>2013-09-04T16:03:01Z</time>
      </trkpt>
      <trkpt lat="44.11839" lon="6.87875">
        <ele>1362.3</ele>
        <time>2013-09-04T16:03:03Z</time>
      </trkpt>
      <trkpt lat="44.11836" lon="6.87892">
        <ele>1360.4</ele>
        <time>2013-09-04T16:03:08Z</time>
      </trkpt>
      <trkpt lat="44.11831" lon="6.87893">
        <ele>1358.5</ele>
        <time>2013-09-04T16:03:20Z</time>
      </trkpt>
      <trkpt lat="44.11823" lon="6.87891">
        <ele>1357</ele>
        <time>2013-09-04T16:03:33Z</time>
      </trkpt>
      <trkpt lat="44.11823" lon="6.87892">
        <ele>1354.6</ele>
        <time>2013-09-04T16:03:35Z</time>
      </trkpt>
      <trkpt lat="44.11821" lon="6.87892">
        <ele>1354.6</ele>
        <time>2013-09-04T16:03:38Z</time>
      </trkpt>
      <trkpt lat="44.11815" lon="6.87881">
        <ele>1353.7</ele>
        <time>2013-09-04T16:03:49Z</time>
      </trkpt>
      <trkpt lat="44.11812" lon="6.87877">
        <ele>1353.2</ele>
        <time>2013-09-04T16:03:56Z</time>
      </trkpt>
      <trkpt lat="44.11809" lon="6.87877">
        <ele>1352.2</ele>
        <time>2013-09-04T16:03:59Z</time>
      </trkpt>
      <trkpt lat="44.1181" lon="6.87895">
        <ele>1348.4</ele>
        <time>2013-09-04T16:04:05Z</time>
      </trkpt>
      <trkpt lat="44.1181" lon="6.87903">
        <ele>1346.9</ele>
        <time>2013-09-04T16:04:08Z</time>
      </trkpt>
      <trkpt lat="44.11805" lon="6.87905">
        <ele>1345</ele>
        <time>2013-09-04T16:04:19Z</time>
      </trkpt>
      <trkpt lat="44.118" lon="6.87905">
        <ele>1343.1</ele>
        <time>2013-09-04T16:04:31Z</time>
      </trkpt>
      <trkpt lat="44.11793" lon="6.87901">
        <ele>1339.7</ele>
        <time>2013-09-04T16:04:42Z</time>
      </trkpt>
      <trkpt lat="44.11789" lon="6.87904">
        <ele>1337.8</ele>
        <time>2013-09-04T16:04:54Z</time>
      </trkpt>
      <trkpt lat="44.11786" lon="6.87901">
        <ele>1337.3</ele>
        <time>2013-09-04T16:04:59Z</time>
      </trkpt>
      <trkpt lat="44.11783" lon="6.87901">
        <ele>1336.4</ele>
        <time>2013-09-04T16:05:04Z</time>
      </trkpt>
      <trkpt lat="44.11783" lon="6.87903">
        <ele>1335.9</ele>
        <time>2013-09-04T16:05:06Z</time>
      </trkpt>
      <trkpt lat="44.11785" lon="6.87913">
        <ele>1333.5</ele>
        <time>2013-09-04T16:05:20Z</time>
      </trkpt>
      <trkpt lat="44.11785" lon="6.87915">
        <ele>1333</ele>
        <time>2013-09-04T16:05:36Z</time>
      </trkpt>
      <trkpt lat="44.11784" lon="6.87919">
        <ele>1333</ele>
        <time>2013-09-04T16:05:54Z</time>
      </trkpt>
      <trkpt lat="44.11775" lon="6.87914">
        <ele>1332.5</ele>
        <time>2013-09-04T16:06:08Z</time>
      </trkpt>
      <trkpt lat="44.11773" lon="6.87913">
        <ele>1332.5</ele>
        <time>2013-09-04T16:06:10Z</time>
      </trkpt>
      <trkpt lat="44.11766" lon="6.87918">
        <ele>1332.5</ele>
        <time>2013-09-04T16:06:26Z</time>
      </trkpt>
      <trkpt lat="44.11764" lon="6.87918">
        <ele>1332.5</ele>
        <time>2013-09-04T16:06:42Z</time>
      </trkpt>
      <trkpt lat="44.11762" lon="6.87915">
        <ele>1333.5</ele>
        <time>2013-09-04T16:06:59Z</time>
      </trkpt>
      <trkpt lat="44.11757" lon="6.87905">
        <ele>1333.5</ele>
        <time>2013-09-04T16:07:14Z</time>
      </trkpt>
      <trkpt lat="44.11749" lon="6.87907">
        <ele>1336.4</ele>
        <time>2013-09-04T16:07:32Z</time>
      </trkpt>
      <trkpt lat="44.11743" lon="6.87904">
        <ele>1338.3</ele>
        <time>2013-09-04T16:07:47Z</time>
      </trkpt>
      <trkpt lat="44.11734" lon="6.87901">
        <ele>1340.2</ele>
        <time>2013-09-04T16:08:03Z</time>
      </trkpt>
      <trkpt lat="44.11727" lon="6.87899">
        <ele>1342.1</ele>
        <time>2013-09-04T16:08:18Z</time>
      </trkpt>
      <trkpt lat="44.1172" lon="6.87894">
        <ele>1344.5</ele>
        <time>2013-09-04T16:08:34Z</time>
      </trkpt>
      <trkpt lat="44.11715" lon="6.87896">
        <ele>1346.5</ele>
        <time>2013-09-04T16:08:51Z</time>
      </trkpt>
      <trkpt lat="44.11711" lon="6.87898">
        <ele>1348.4</ele>
        <time>2013-09-04T16:09:08Z</time>
      </trkpt>
      <trkpt lat="44.11708" lon="6.87901">
        <ele>1350.3</ele>
        <time>2013-09-04T16:09:23Z</time>
      </trkpt>
      <trkpt lat="44.11703" lon="6.87899">
        <ele>1352.2</ele>
        <time>2013-09-04T16:09:38Z</time>
      </trkpt>
      <trkpt lat="44.11695" lon="6.87897">
        <ele>1354.2</ele>
        <time>2013-09-04T16:09:55Z</time>
      </trkpt>
      <trkpt lat="44.11696" lon="6.87903">
        <ele>1356.1</ele>
        <time>2013-09-04T16:10:10Z</time>
      </trkpt>
      <trkpt lat="44.1169" lon="6.87907">
        <ele>1358</ele>
        <time>2013-09-04T16:10:25Z</time>
      </trkpt>
      <trkpt lat="44.11688" lon="6.87911">
        <ele>1359</ele>
        <time>2013-09-04T16:10:38Z</time>
      </trkpt>
      <trkpt lat="44.11688" lon="6.87915">
        <ele>1360.9</ele>
        <time>2013-09-04T16:10:48Z</time>
      </trkpt>
      <trkpt lat="44.11693" lon="6.8792">
        <ele>1364.3</ele>
        <time>2013-09-04T16:11:01Z</time>
      </trkpt>
      <trkpt lat="44.11701" lon="6.87928">
        <ele>1366.7</ele>
        <time>2013-09-04T16:11:15Z</time>
      </trkpt>
      <trkpt lat="44.11697" lon="6.87928">
        <ele>1368.6</ele>
        <time>2013-09-04T16:11:29Z</time>
      </trkpt>
      <trkpt lat="44.11692" lon="6.87931">
        <ele>1369.1</ele>
        <time>2013-09-04T16:11:45Z</time>
      </trkpt>
      <trkpt lat="44.1168" lon="6.87932">
        <ele>1371.5</ele>
        <time>2013-09-04T16:11:59Z</time>
      </trkpt>
      <trkpt lat="44.11677" lon="6.87935">
        <ele>1373.9</ele>
        <time>2013-09-04T16:12:13Z</time>
      </trkpt>
      <trkpt lat="44.11684" lon="6.87939">
        <ele>1374.8</ele>
        <time>2013-09-04T16:12:22Z</time>
      </trkpt>
      <trkpt lat="44.11694" lon="6.87953">
        <ele>1376.8</ele>
        <time>2013-09-04T16:12:39Z</time>
      </trkpt>
      <trkpt lat="44.11703" lon="6.8796">
        <ele>1379.6</ele>
        <time>2013-09-04T16:12:55Z</time>
      </trkpt>
      <trkpt lat="44.11713" lon="6.87973">
        <ele>1380.6</ele>
        <time>2013-09-04T16:13:09Z</time>
      </trkpt>
      <trkpt lat="44.1172" lon="6.87983">
        <ele>1384</ele>
        <time>2013-09-04T16:13:22Z</time>
      </trkpt>
      <trkpt lat="44.11721" lon="6.87984">
        <ele>1383.5</ele>
        <time>2013-09-04T16:13:23Z</time>
      </trkpt>
      <trkpt lat="44.11725" lon="6.87993">
        <ele>1386.4</ele>
        <time>2013-09-04T16:13:36Z</time>
      </trkpt>
      <trkpt lat="44.11728" lon="6.88">
        <ele>1389.7</ele>
        <time>2013-09-04T16:13:49Z</time>
      </trkpt>
      <trkpt lat="44.11725" lon="6.88005">
        <ele>1391.2</ele>
        <time>2013-09-04T16:14:02Z</time>
      </trkpt>
      <trkpt lat="44.11724" lon="6.88012">
        <ele>1393.1</ele>
        <time>2013-09-04T16:14:17Z</time>
      </trkpt>
      <trkpt lat="44.11712" lon="6.88009">
        <ele>1395</ele>
        <time>2013-09-04T16:14:32Z</time>
      </trkpt>
      <trkpt lat="44.11705" lon="6.88009">
        <ele>1396.9</ele>
        <time>2013-09-04T16:14:49Z</time>
      </trkpt>
      <trkpt lat="44.11694" lon="6.88009">
        <ele>1398.4</ele>
        <time>2013-09-04T16:15:04Z</time>
      </trkpt>
      <trkpt lat="44.11687" lon="6.88013">
        <ele>1400.8</ele>
        <time>2013-09-04T16:15:18Z</time>
      </trkpt>
      <trkpt lat="44.1168" lon="6.88014">
        <ele>1402.7</ele>
        <time>2013-09-04T16:15:29Z</time>
      </trkpt>
      <trkpt lat="44.11679" lon="6.88019">
        <ele>1405.6</ele>
        <time>2013-09-04T16:15:45Z</time>
      </trkpt>
      <trkpt lat="44.11683" lon="6.88025">
        <ele>1407</ele>
        <time>2013-09-04T16:15:54Z</time>
      </trkpt>
      <trkpt lat="44.11686" lon="6.88029">
        <ele>1408.5</ele>
        <time>2013-09-04T16:16:04Z</time>
      </trkpt>
      <trkpt lat="44.11695" lon="6.88036">
        <ele>1409.9</ele>
        <time>2013-09-04T16:16:19Z</time>
      </trkpt>
      <trkpt lat="44.11697" lon="6.88041">
        <ele>1409.4</ele>
        <time>2013-09-04T16:16:23Z</time>
      </trkpt>
      <trkpt lat="44.11704" lon="6.88051">
        <ele>1411.8</ele>
        <time>2013-09-04T16:16:34Z</time>
      </trkpt>
      <trkpt lat="44.11704" lon="6.88061">
        <ele>1413.8</ele>
        <time>2013-09-04T16:16:50Z</time>
      </trkpt>
      <trkpt lat="44.11694" lon="6.88063">
        <ele>1415.2</ele>
        <time>2013-09-04T16:17:04Z</time>
      </trkpt>
      <trkpt lat="44.11694" lon="6.88059">
        <ele>1416.2</ele>
        <time>2013-09-04T16:17:17Z</time>
      </trkpt>
      <trkpt lat="44.11686" lon="6.88059">
        <ele>1416.6</ele>
        <time>2013-09-04T16:17:30Z</time>
      </trkpt>
      <trkpt lat="44.11672" lon="6.8806">
        <ele>1419.5</ele>
        <time>2013-09-04T16:17:48Z</time>
      </trkpt>
      <trkpt lat="44.1167" lon="6.88063">
        <ele>1419</ele>
        <time>2013-09-04T16:18:03Z</time>
      </trkpt>
      <trkpt lat="44.11672" lon="6.88066">
        <ele>1420</ele>
        <time>2013-09-04T16:18:19Z</time>
      </trkpt>
      <trkpt lat="44.11674" lon="6.88063">
        <ele>1419.5</ele>
        <time>2013-09-04T16:18:36Z</time>
      </trkpt>
      <trkpt lat="44.11665" lon="6.88061">
        <ele>1421.5</ele>
        <time>2013-09-04T16:18:54Z</time>
      </trkpt>
      <trkpt lat="44.11656" lon="6.88065">
        <ele>1424.8</ele>
        <time>2013-09-04T16:19:09Z</time>
      </trkpt>
      <trkpt lat="44.1165" lon="6.88065">
        <ele>1426.3</ele>
        <time>2013-09-04T16:19:24Z</time>
      </trkpt>
      <trkpt lat="44.11647" lon="6.88064">
        <ele>1427.7</ele>
        <time>2013-09-04T16:19:40Z</time>
      </trkpt>
      <trkpt lat="44.11637" lon="6.88058">
        <ele>1429.6</ele>
        <time>2013-09-04T16:19:54Z</time>
      </trkpt>
      <trkpt lat="44.1163" lon="6.8805">
        <ele>1430.6</ele>
        <time>2013-09-04T16:20:08Z</time>
      </trkpt>
      <trkpt lat="44.11622" lon="6.88039">
        <ele>1432.5</ele>
        <time>2013-09-04T16:20:22Z</time>
      </trkpt>
      <trkpt lat="44.11615" lon="6.88039">
        <ele>1435.4</ele>
        <time>2013-09-04T16:20:31Z</time>
      </trkpt>
      <trkpt lat="44.11609" lon="6.88036">
        <ele>1434.9</ele>
        <time>2013-09-04T16:20:45Z</time>
      </trkpt>
      <trkpt lat="44.11608" lon="6.88036">
        <ele>1435.4</ele>
        <time>2013-09-04T16:21:02Z</time>
      </trkpt>
      <trkpt lat="44.11611" lon="6.88035">
        <ele>1436.4</ele>
        <time>2013-09-04T16:21:23Z</time>
      </trkpt>
      <trkpt lat="44.11607" lon="6.88033">
        <ele>1436.4</ele>
        <time>2013-09-04T16:21:35Z</time>
      </trkpt>
      <trkpt lat="44.11601" lon="6.88031">
        <ele>1437.3</ele>
        <time>2013-09-04T16:21:39Z</time>
      </trkpt>
      <trkpt lat="44.11595" lon="6.8803">
        <ele>1437.3</ele>
        <time>2013-09-04T16:21:44Z</time>
      </trkpt>
      <trkpt lat="44.11592" lon="6.88027">
        <ele>1438.8</ele>
        <time>2013-09-04T16:21:46Z</time>
      </trkpt>
      <trkpt lat="44.11581" lon="6.88012">
        <ele>1439.2</ele>
        <time>2013-09-04T16:21:58Z</time>
      </trkpt>
      <trkpt lat="44.1156" lon="6.88002">
        <ele>1440.7</ele>
        <time>2013-09-04T16:22:11Z</time>
      </trkpt>
      <trkpt lat="44.11552" lon="6.87999">
        <ele>1441.2</ele>
        <time>2013-09-04T16:22:23Z</time>
      </trkpt>
      <trkpt lat="44.1154" lon="6.87995">
        <ele>1441.6</ele>
        <time>2013-09-04T16:22:40Z</time>
      </trkpt>
      <trkpt lat="44.11539" lon="6.87996">
        <ele>1443.1</ele>
        <time>2013-09-04T16:22:42Z</time>
      </trkpt>
      <trkpt lat="44.11531" lon="6.87993">
        <ele>1446</ele>
        <time>2013-09-04T16:22:53Z</time>
      </trkpt>
      <trkpt lat="44.11522" lon="6.87992">
        <ele>1448.8</ele>
        <time>2013-09-04T16:23:08Z</time>
      </trkpt>
      <trkpt lat="44.11509" lon="6.87991">
        <ele>1451.3</ele>
        <time>2013-09-04T16:23:22Z</time>
      </trkpt>
      <trkpt lat="44.11497" lon="6.87989">
        <ele>1454.1</ele>
        <time>2013-09-04T16:23:40Z</time>
      </trkpt>
      <trkpt lat="44.11484" lon="6.87989">
        <ele>1457</ele>
        <time>2013-09-04T16:23:55Z</time>
      </trkpt>
      <trkpt lat="44.11476" lon="6.87986">
        <ele>1458.5</ele>
        <time>2013-09-04T16:24:11Z</time>
      </trkpt>
      <trkpt lat="44.11466" lon="6.87986">
        <ele>1460.9</ele>
        <time>2013-09-04T16:24:26Z</time>
      </trkpt>
      <trkpt lat="44.11457" lon="6.87987">
        <ele>1463.3</ele>
        <time>2013-09-04T16:24:39Z</time>
      </trkpt>
      <trkpt lat="44.11453" lon="6.87988">
        <ele>1464.7</ele>
        <time>2013-09-04T16:24:52Z</time>
      </trkpt>
      <trkpt lat="44.1145" lon="6.87989">
        <ele>1464.7</ele>
        <time>2013-09-04T16:25:13Z</time>
      </trkpt>
      <trkpt lat="44.11449" lon="6.87989">
        <ele>1465.2</ele>
        <time>2013-09-04T16:25:15Z</time>
      </trkpt>
      <trkpt lat="44.1143" lon="6.87982">
        <ele>1466.2</ele>
        <time>2013-09-04T16:25:31Z</time>
      </trkpt>
      <trkpt lat="44.11422" lon="6.87975">
        <ele>1467.6</ele>
        <time>2013-09-04T16:25:38Z</time>
      </trkpt>
      <trkpt lat="44.11416" lon="6.87969">
        <ele>1467.1</ele>
        <time>2013-09-04T16:25:43Z</time>
      </trkpt>
      <trkpt lat="44.1139" lon="6.87954">
        <ele>1470</ele>
        <time>2013-09-04T16:26:01Z</time>
      </trkpt>
      <trkpt lat="44.11365" lon="6.87955">
        <ele>1471.9</ele>
        <time>2013-09-04T16:26:17Z</time>
      </trkpt>
      <trkpt lat="44.11363" lon="6.87955">
        <ele>1471.4</ele>
        <time>2013-09-04T16:26:18Z</time>
      </trkpt>
      <trkpt lat="44.11344" lon="6.87955">
        <ele>1472.9</ele>
        <time>2013-09-04T16:26:30Z</time>
      </trkpt>
      <trkpt lat="44.11337" lon="6.87956">
        <ele>1473.4</ele>
        <time>2013-09-04T16:26:35Z</time>
      </trkpt>
      <trkpt lat="44.11325" lon="6.87965">
        <ele>1475.3</ele>
        <time>2013-09-04T16:26:45Z</time>
      </trkpt>
      <trkpt lat="44.11315" lon="6.87973">
        <ele>1475.8</ele>
        <time>2013-09-04T16:26:54Z</time>
      </trkpt>
      <trkpt lat="44.11304" lon="6.87989">
        <ele>1475.8</ele>
        <time>2013-09-04T16:27:03Z</time>
      </trkpt>
      <trkpt lat="44.11293" lon="6.88003">
        <ele>1478.2</ele>
        <time>2013-09-04T16:27:11Z</time>
      </trkpt>
      <trkpt lat="44.11285" lon="6.88013">
        <ele>1478.7</ele>
        <time>2013-09-04T16:27:17Z</time>
      </trkpt>
      <trkpt lat="44.11278" lon="6.88022">
        <ele>1479.1</ele>
        <time>2013-09-04T16:27:22Z</time>
      </trkpt>
      <trkpt lat="44.11276" lon="6.88029">
        <ele>1480.1</ele>
        <time>2013-09-04T16:27:25Z</time>
      </trkpt>
      <trkpt lat="44.11271" lon="6.88035">
        <ele>1480.1</ele>
        <time>2013-09-04T16:27:28Z</time>
      </trkpt>
      <trkpt lat="44.11263" lon="6.88043">
        <ele>1482</ele>
        <time>2013-09-04T16:27:34Z</time>
      </trkpt>
      <trkpt lat="44.11252" lon="6.88054">
        <ele>1483</ele>
        <time>2013-09-04T16:27:41Z</time>
      </trkpt>
      <trkpt lat="44.11237" lon="6.88072">
        <ele>1486.3</ele>
        <time>2013-09-04T16:27:54Z</time>
      </trkpt>
      <trkpt lat="44.11231" lon="6.88083">
        <ele>1486.8</ele>
        <time>2013-09-04T16:28:01Z</time>
      </trkpt>
      <trkpt lat="44.11217" lon="6.88111">
        <ele>1490.2</ele>
        <time>2013-09-04T16:28:18Z</time>
      </trkpt>
      <trkpt lat="44.11215" lon="6.88113">
        <ele>1489.7</ele>
        <time>2013-09-04T16:28:32Z</time>
      </trkpt>
      <trkpt lat="44.11216" lon="6.88114">
        <ele>1489.2</ele>
        <time>2013-09-04T16:29:03Z</time>
      </trkpt>
      <trkpt lat="44.11205" lon="6.88143">
        <ele>1488.3</ele>
        <time>2013-09-04T16:29:16Z</time>
      </trkpt>
      <trkpt lat="44.11199" lon="6.8819">
        <ele>1486.8</ele>
        <time>2013-09-04T16:29:28Z</time>
      </trkpt>
      <trkpt lat="44.11197" lon="6.88201">
        <ele>1485.4</ele>
        <time>2013-09-04T16:29:30Z</time>
      </trkpt>
      <trkpt lat="44.11196" lon="6.88207">
        <ele>1484.9</ele>
        <time>2013-09-04T16:29:31Z</time>
      </trkpt>
      <trkpt lat="44.11195" lon="6.88214">
        <ele>1483.5</ele>
        <time>2013-09-04T16:29:32Z</time>
      </trkpt>
      <trkpt lat="44.11195" lon="6.88222">
        <ele>1483</ele>
        <time>2013-09-04T16:29:33Z</time>
      </trkpt>
      <trkpt lat="44.11195" lon="6.8823">
        <ele>1482</ele>
        <time>2013-09-04T16:29:34Z</time>
      </trkpt>
      <trkpt lat="44.11195" lon="6.88238">
        <ele>1480.6</ele>
        <time>2013-09-04T16:29:35Z</time>
      </trkpt>
      <trkpt lat="44.11196" lon="6.88244">
        <ele>1480.6</ele>
        <time>2013-09-04T16:29:36Z</time>
      </trkpt>
      <trkpt lat="44.11196" lon="6.8825">
        <ele>1479.1</ele>
        <time>2013-09-04T16:29:37Z</time>
      </trkpt>
      <trkpt lat="44.11196" lon="6.88254">
        <ele>1478.7</ele>
        <time>2013-09-04T16:29:38Z</time>
      </trkpt>
      <trkpt lat="44.11196" lon="6.88258">
        <ele>1478.2</ele>
        <time>2013-09-04T16:29:39Z</time>
      </trkpt>
      <trkpt lat="44.11196" lon="6.88262">
        <ele>1479.1</ele>
        <time>2013-09-04T16:29:40Z</time>
      </trkpt>
      <trkpt lat="44.11196" lon="6.88266">
        <ele>1477.2</ele>
        <time>2013-09-04T16:29:41Z</time>
      </trkpt>
      <trkpt lat="44.11196" lon="6.88271">
        <ele>1476.7</ele>
        <time>2013-09-04T16:29:42Z</time>
      </trkpt>
      <trkpt lat="44.11197" lon="6.88297">
        <ele>1473.4</ele>
        <time>2013-09-04T16:29:46Z</time>
      </trkpt>
      <trkpt lat="44.11196" lon="6.88312">
        <ele>1471.9</ele>
        <time>2013-09-04T16:29:48Z</time>
      </trkpt>
      <trkpt lat="44.11195" lon="6.88319">
        <ele>1470.5</ele>
        <time>2013-09-04T16:29:49Z</time>
      </trkpt>
      <trkpt lat="44.11195" lon="6.88325">
        <ele>1471.4</ele>
        <time>2013-09-04T16:29:50Z</time>
      </trkpt>
      <trkpt lat="44.11196" lon="6.8833">
        <ele>1471</ele>
        <time>2013-09-04T16:29:51Z</time>
      </trkpt>
      <trkpt lat="44.11196" lon="6.88335">
        <ele>1470.5</ele>
        <time>2013-09-04T16:29:52Z</time>
      </trkpt>
      <trkpt lat="44.11196" lon="6.8834">
        <ele>1471</ele>
        <time>2013-09-04T16:29:53Z</time>
      </trkpt>
      <trkpt lat="44.11196" lon="6.88346">
        <ele>1471</ele>
        <time>2013-09-04T16:29:54Z</time>
      </trkpt>
      <trkpt lat="44.11196" lon="6.88351">
        <ele>1470</ele>
        <time>2013-09-04T16:29:55Z</time>
      </trkpt>
      <trkpt lat="44.11195" lon="6.88357">
        <ele>1470.5</ele>
        <time>2013-09-04T16:29:56Z</time>
      </trkpt>
      <trkpt lat="44.11194" lon="6.88364">
        <ele>1469.5</ele>
        <time>2013-09-04T16:29:57Z</time>
      </trkpt>
      <trkpt lat="44.11194" lon="6.8837">
        <ele>1469</ele>
        <time>2013-09-04T16:29:58Z</time>
      </trkpt>
      <trkpt lat="44.11197" lon="6.88383">
        <ele>1467.1</ele>
        <time>2013-09-04T16:30:05Z</time>
      </trkpt>
      <trkpt lat="44.11201" lon="6.88404">
        <ele>1467.6</ele>
        <time>2013-09-04T16:30:23Z</time>
      </trkpt>
      <trkpt lat="44.11218" lon="6.88442">
        <ele>1464.7</ele>
        <time>2013-09-04T16:30:34Z</time>
      </trkpt>
      <trkpt lat="44.11218" lon="6.88448">
        <ele>1463.7</ele>
        <time>2013-09-04T16:30:35Z</time>
      </trkpt>
      <trkpt lat="44.11218" lon="6.88453">
        <ele>1464.2</ele>
        <time>2013-09-04T16:30:36Z</time>
      </trkpt>
      <trkpt lat="44.11217" lon="6.88475">
        <ele>1464.2</ele>
        <time>2013-09-04T16:30:44Z</time>
      </trkpt>
      <trkpt lat="44.11225" lon="6.88511">
        <ele>1465.7</ele>
        <time>2013-09-04T16:30:55Z</time>
      </trkpt>
      <trkpt lat="44.11227" lon="6.88513">
        <ele>1466.6</ele>
        <time>2013-09-04T16:30:56Z</time>
      </trkpt>
      <trkpt lat="44.11228" lon="6.88516">
        <ele>1466.2</ele>
        <time>2013-09-04T16:30:57Z</time>
      </trkpt>
      <trkpt lat="44.1123" lon="6.88518">
        <ele>1467.1</ele>
        <time>2013-09-04T16:30:58Z</time>
      </trkpt>
      <trkpt lat="44.11232" lon="6.8852">
        <ele>1467.1</ele>
        <time>2013-09-04T16:30:59Z</time>
      </trkpt>
      <trkpt lat="44.11233" lon="6.88522">
        <ele>1466.6</ele>
        <time>2013-09-04T16:31:00Z</time>
      </trkpt>
      <trkpt lat="44.11252" lon="6.88547">
        <ele>1467.6</ele>
        <time>2013-09-04T16:31:12Z</time>
      </trkpt>
      <trkpt lat="44.1128" lon="6.88576">
        <ele>1468.1</ele>
        <time>2013-09-04T16:31:25Z</time>
      </trkpt>
      <trkpt lat="44.11282" lon="6.88578">
        <ele>1468.1</ele>
        <time>2013-09-04T16:31:26Z</time>
      </trkpt>
      <trkpt lat="44.11284" lon="6.8858">
        <ele>1467.6</ele>
        <time>2013-09-04T16:31:27Z</time>
      </trkpt>
      <trkpt lat="44.11286" lon="6.88582">
        <ele>1467.6</ele>
        <time>2013-09-04T16:31:28Z</time>
      </trkpt>
      <trkpt lat="44.11287" lon="6.88583">
        <ele>1467.6</ele>
        <time>2013-09-04T16:31:29Z</time>
      </trkpt>
      <trkpt lat="44.11288" lon="6.88585">
        <ele>1467.6</ele>
        <time>2013-09-04T16:31:30Z</time>
      </trkpt>
      <trkpt lat="44.11289" lon="6.88587">
        <ele>1467.1</ele>
        <time>2013-09-04T16:31:31Z</time>
      </trkpt>
      <trkpt lat="44.11291" lon="6.8859">
        <ele>1467.1</ele>
        <time>2013-09-04T16:31:32Z</time>
      </trkpt>
      <trkpt lat="44.11304" lon="6.88601">
        <ele>1466.2</ele>
        <time>2013-09-04T16:31:36Z</time>
      </trkpt>
      <trkpt lat="44.11308" lon="6.88603">
        <ele>1466.2</ele>
        <time>2013-09-04T16:31:37Z</time>
      </trkpt>
      <trkpt lat="44.11312" lon="6.88604">
        <ele>1465.2</ele>
        <time>2013-09-04T16:31:38Z</time>
      </trkpt>
      <trkpt lat="44.11322" lon="6.88603">
        <ele>1464.7</ele>
        <time>2013-09-04T16:31:50Z</time>
      </trkpt>
      <trkpt lat="44.11339" lon="6.88607">
        <ele>1463.7</ele>
        <time>2013-09-04T16:31:59Z</time>
      </trkpt>
      <trkpt lat="44.11344" lon="6.88606">
        <ele>1463.3</ele>
        <time>2013-09-04T16:32:19Z</time>
      </trkpt>
      <trkpt lat="44.1135" lon="6.88604">
        <ele>1462.8</ele>
        <time>2013-09-04T16:32:35Z</time>
      </trkpt>
      <trkpt lat="44.11354" lon="6.88605">
        <ele>1464.2</ele>
        <time>2013-09-04T16:32:37Z</time>
      </trkpt>
      <trkpt lat="44.11356" lon="6.88605">
        <ele>1464.2</ele>
        <time>2013-09-04T16:32:38Z</time>
      </trkpt>
      <trkpt lat="44.11358" lon="6.88605">
        <ele>1464.2</ele>
        <time>2013-09-04T16:32:39Z</time>
      </trkpt>
      <trkpt lat="44.11377" lon="6.88608">
        <ele>1462.8</ele>
        <time>2013-09-04T16:32:45Z</time>
      </trkpt>
      <trkpt lat="44.1138" lon="6.88611">
        <ele>1462.8</ele>
        <time>2013-09-04T16:32:46Z</time>
      </trkpt>
      <trkpt lat="44.11384" lon="6.88613">
        <ele>1461.3</ele>
        <time>2013-09-04T16:32:47Z</time>
      </trkpt>
      <trkpt lat="44.11389" lon="6.88615">
        <ele>1460.9</ele>
        <time>2013-09-04T16:32:48Z</time>
      </trkpt>
      <trkpt lat="44.11392" lon="6.88618">
        <ele>1460.9</ele>
        <time>2013-09-04T16:32:49Z</time>
      </trkpt>
      <trkpt lat="44.11396" lon="6.8862">
        <ele>1461.3</ele>
        <time>2013-09-04T16:32:50Z</time>
      </trkpt>
      <trkpt lat="44.114" lon="6.88622">
        <ele>1460.4</ele>
        <time>2013-09-04T16:32:51Z</time>
      </trkpt>
      <trkpt lat="44.11404" lon="6.88624">
        <ele>1460.4</ele>
        <time>2013-09-04T16:32:52Z</time>
      </trkpt>
      <trkpt lat="44.11409" lon="6.88628">
        <ele>1459.9</ele>
        <time>2013-09-04T16:32:53Z</time>
      </trkpt>
      <trkpt lat="44.11413" lon="6.88632">
        <ele>1458.9</ele>
        <time>2013-09-04T16:32:54Z</time>
      </trkpt>
      <trkpt lat="44.11418" lon="6.88634">
        <ele>1457.5</ele>
        <time>2013-09-04T16:32:55Z</time>
      </trkpt>
      <trkpt lat="44.11423" lon="6.88636">
        <ele>1456.5</ele>
        <time>2013-09-04T16:32:56Z</time>
      </trkpt>
      <trkpt lat="44.11427" lon="6.88637">
        <ele>1457</ele>
        <time>2013-09-04T16:32:57Z</time>
      </trkpt>
      <trkpt lat="44.11431" lon="6.88638">
        <ele>1456.1</ele>
        <time>2013-09-04T16:32:58Z</time>
      </trkpt>
      <trkpt lat="44.11435" lon="6.88638">
        <ele>1455.6</ele>
        <time>2013-09-04T16:32:59Z</time>
      </trkpt>
      <trkpt lat="44.11439" lon="6.88639">
        <ele>1455.6</ele>
        <time>2013-09-04T16:33:00Z</time>
      </trkpt>
      <trkpt lat="44.11453" lon="6.88642">
        <ele>1453.7</ele>
        <time>2013-09-04T16:33:03Z</time>
      </trkpt>
      <trkpt lat="44.11463" lon="6.88646">
        <ele>1452.7</ele>
        <time>2013-09-04T16:33:05Z</time>
      </trkpt>
      <trkpt lat="44.11469" lon="6.88647">
        <ele>1451.3</ele>
        <time>2013-09-04T16:33:06Z</time>
      </trkpt>
      <trkpt lat="44.11475" lon="6.88647">
        <ele>1450.3</ele>
        <time>2013-09-04T16:33:07Z</time>
      </trkpt>
      <trkpt lat="44.11481" lon="6.88646">
        <ele>1450.3</ele>
        <time>2013-09-04T16:33:08Z</time>
      </trkpt>
      <trkpt lat="44.11491" lon="6.88645">
        <ele>1449.3</ele>
        <time>2013-09-04T16:33:10Z</time>
      </trkpt>
      <trkpt lat="44.11502" lon="6.88644">
        <ele>1447.4</ele>
        <time>2013-09-04T16:33:12Z</time>
      </trkpt>
      <trkpt lat="44.11506" lon="6.88641">
        <ele>1446.9</ele>
        <time>2013-09-04T16:33:13Z</time>
      </trkpt>
      <trkpt lat="44.11511" lon="6.8864">
        <ele>1446.9</ele>
        <time>2013-09-04T16:33:14Z</time>
      </trkpt>
      <trkpt lat="44.11515" lon="6.88639">
        <ele>1446</ele>
        <time>2013-09-04T16:33:15Z</time>
      </trkpt>
      <trkpt lat="44.11518" lon="6.88641">
        <ele>1445.5</ele>
        <time>2013-09-04T16:33:16Z</time>
      </trkpt>
      <trkpt lat="44.11521" lon="6.88644">
        <ele>1445</ele>
        <time>2013-09-04T16:33:17Z</time>
      </trkpt>
      <trkpt lat="44.11541" lon="6.88668">
        <ele>1442.1</ele>
        <time>2013-09-04T16:33:23Z</time>
      </trkpt>
      <trkpt lat="44.11544" lon="6.88672">
        <ele>1441.6</ele>
        <time>2013-09-04T16:33:24Z</time>
      </trkpt>
      <trkpt lat="44.11556" lon="6.88684">
        <ele>1438.3</ele>
        <time>2013-09-04T16:33:28Z</time>
      </trkpt>
      <trkpt lat="44.1156" lon="6.88692">
        <ele>1437.8</ele>
        <time>2013-09-04T16:33:30Z</time>
      </trkpt>
      <trkpt lat="44.11562" lon="6.88697">
        <ele>1436.4</ele>
        <time>2013-09-04T16:33:31Z</time>
      </trkpt>
      <trkpt lat="44.11562" lon="6.88701">
        <ele>1435.9</ele>
        <time>2013-09-04T16:33:32Z</time>
      </trkpt>
      <trkpt lat="44.11561" lon="6.88704">
        <ele>1435.9</ele>
        <time>2013-09-04T16:33:33Z</time>
      </trkpt>
      <trkpt lat="44.11559" lon="6.88705">
        <ele>1436.8</ele>
        <time>2013-09-04T16:33:34Z</time>
      </trkpt>
      <trkpt lat="44.11558" lon="6.88706">
        <ele>1437.3</ele>
        <time>2013-09-04T16:33:35Z</time>
      </trkpt>
      <trkpt lat="44.11556" lon="6.88707">
        <ele>1436.8</ele>
        <time>2013-09-04T16:33:36Z</time>
      </trkpt>
      <trkpt lat="44.11552" lon="6.88713">
        <ele>1438.3</ele>
        <time>2013-09-04T16:33:46Z</time>
      </trkpt>
      <trkpt lat="44.11549" lon="6.88719">
        <ele>1440.2</ele>
        <time>2013-09-04T16:34:00Z</time>
      </trkpt>
      <trkpt lat="44.11551" lon="6.88728">
        <ele>1442.1</ele>
        <time>2013-09-04T16:34:15Z</time>
      </trkpt>
      <trkpt lat="44.11552" lon="6.88741">
        <ele>1444.5</ele>
        <time>2013-09-04T16:34:31Z</time>
      </trkpt>
      <trkpt lat="44.11551" lon="6.88755">
        <ele>1444.5</ele>
        <time>2013-09-04T16:34:47Z</time>
      </trkpt>
      <trkpt lat="44.11535" lon="6.88766">
        <ele>1446</ele>
        <time>2013-09-04T16:34:56Z</time>
      </trkpt>
      <trkpt lat="44.11534" lon="6.88768">
        <ele>1446.4</ele>
        <time>2013-09-04T16:34:57Z</time>
      </trkpt>
      <trkpt lat="44.11517" lon="6.88802">
        <ele>1447.9</ele>
        <time>2013-09-04T16:35:12Z</time>
      </trkpt>
      <trkpt lat="44.11505" lon="6.88836">
        <ele>1450.3</ele>
        <time>2013-09-04T16:35:26Z</time>
      </trkpt>
      <trkpt lat="44.11503" lon="6.88863">
        <ele>1452.7</ele>
        <time>2013-09-04T16:35:38Z</time>
      </trkpt>
      <trkpt lat="44.11504" lon="6.88888">
        <ele>1454.1</ele>
        <time>2013-09-04T16:35:50Z</time>
      </trkpt>
      <trkpt lat="44.11506" lon="6.8892">
        <ele>1454.6</ele>
        <time>2013-09-04T16:36:02Z</time>
      </trkpt>
      <trkpt lat="44.11511" lon="6.88935">
        <ele>1455.6</ele>
        <time>2013-09-04T16:36:08Z</time>
      </trkpt>
      <trkpt lat="44.11511" lon="6.88938">
        <ele>1455.6</ele>
        <time>2013-09-04T16:36:09Z</time>
      </trkpt>
      <trkpt lat="44.11526" lon="6.88979">
        <ele>1454.6</ele>
        <time>2013-09-04T16:36:20Z</time>
      </trkpt>
      <trkpt lat="44.11535" lon="6.89009">
        <ele>1456.5</ele>
        <time>2013-09-04T16:36:31Z</time>
      </trkpt>
      <trkpt lat="44.11557" lon="6.89033">
        <ele>1457</ele>
        <time>2013-09-04T16:36:42Z</time>
      </trkpt>
      <trkpt lat="44.11564" lon="6.8904">
        <ele>1456.1</ele>
        <time>2013-09-04T16:36:45Z</time>
      </trkpt>
      <trkpt lat="44.11592" lon="6.89068">
        <ele>1457.5</ele>
        <time>2013-09-04T16:36:56Z</time>
      </trkpt>
      <trkpt lat="44.11612" lon="6.89094">
        <ele>1459.9</ele>
        <time>2013-09-04T16:37:10Z</time>
      </trkpt>
      <trkpt lat="44.11631" lon="6.89126">
        <ele>1459.9</ele>
        <time>2013-09-04T16:37:21Z</time>
      </trkpt>
      <trkpt lat="44.11634" lon="6.89129">
        <ele>1459.9</ele>
        <time>2013-09-04T16:37:22Z</time>
      </trkpt>
      <trkpt lat="44.11636" lon="6.8913">
        <ele>1459.4</ele>
        <time>2013-09-04T16:37:23Z</time>
      </trkpt>
      <trkpt lat="44.11638" lon="6.89132">
        <ele>1458.9</ele>
        <time>2013-09-04T16:37:24Z</time>
      </trkpt>
      <trkpt lat="44.11641" lon="6.89134">
        <ele>1458.5</ele>
        <time>2013-09-04T16:37:25Z</time>
      </trkpt>
      <trkpt lat="44.11644" lon="6.89136">
        <ele>1458</ele>
        <time>2013-09-04T16:37:26Z</time>
      </trkpt>
      <trkpt lat="44.11666" lon="6.89162">
        <ele>1459.4</ele>
        <time>2013-09-04T16:37:36Z</time>
      </trkpt>
      <trkpt lat="44.11668" lon="6.89165">
        <ele>1459.4</ele>
        <time>2013-09-04T16:37:37Z</time>
      </trkpt>
      <trkpt lat="44.11669" lon="6.89168">
        <ele>1459.4</ele>
        <time>2013-09-04T16:37:38Z</time>
      </trkpt>
      <trkpt lat="44.11671" lon="6.89171">
        <ele>1458.9</ele>
        <time>2013-09-04T16:37:39Z</time>
      </trkpt>
      <trkpt lat="44.11673" lon="6.89175">
        <ele>1458.5</ele>
        <time>2013-09-04T16:37:40Z</time>
      </trkpt>
      <trkpt lat="44.11675" lon="6.89178">
        <ele>1458.5</ele>
        <time>2013-09-04T16:37:41Z</time>
      </trkpt>
      <trkpt lat="44.11677" lon="6.89181">
        <ele>1458.5</ele>
        <time>2013-09-04T16:37:42Z</time>
      </trkpt>
      <trkpt lat="44.11679" lon="6.89183">
        <ele>1458.5</ele>
        <time>2013-09-04T16:37:43Z</time>
      </trkpt>
      <trkpt lat="44.11687" lon="6.89204">
        <ele>1456.1</ele>
        <time>2013-09-04T16:37:51Z</time>
      </trkpt>
      <trkpt lat="44.11687" lon="6.89206">
        <ele>1456.5</ele>
        <time>2013-09-04T16:37:52Z</time>
      </trkpt>
      <trkpt lat="44.11686" lon="6.89207">
        <ele>1455.6</ele>
        <time>2013-09-04T16:37:53Z</time>
      </trkpt>
      <trkpt lat="44.11685" lon="6.8921">
        <ele>1454.6</ele>
        <time>2013-09-04T16:37:55Z</time>
      </trkpt>
      <trkpt lat="44.11684" lon="6.89214">
        <ele>1453.2</ele>
        <time>2013-09-04T16:37:57Z</time>
      </trkpt>
      <trkpt lat="44.11685" lon="6.89216">
        <ele>1453.7</ele>
        <time>2013-09-04T16:37:58Z</time>
      </trkpt>
      <trkpt lat="44.11684" lon="6.89218">
        <ele>1452.7</ele>
        <time>2013-09-04T16:37:59Z</time>
      </trkpt>
      <trkpt lat="44.11683" lon="6.89221">
        <ele>1451.7</ele>
        <time>2013-09-04T16:38:01Z</time>
      </trkpt>
      <trkpt lat="44.11677" lon="6.89223">
        <ele>1449.3</ele>
        <time>2013-09-04T16:38:11Z</time>
      </trkpt>
      <trkpt lat="44.11672" lon="6.89223">
        <ele>1447.4</ele>
        <time>2013-09-04T16:38:15Z</time>
      </trkpt>
      <trkpt lat="44.11671" lon="6.89222">
        <ele>1446.4</ele>
        <time>2013-09-04T16:38:16Z</time>
      </trkpt>
      <trkpt lat="44.11661" lon="6.89217">
        <ele>1445.5</ele>
        <time>2013-09-04T16:38:28Z</time>
      </trkpt>
      <trkpt lat="44.11657" lon="6.89214">
        <ele>1444</ele>
        <time>2013-09-04T16:38:42Z</time>
      </trkpt>
      <trkpt lat="44.11656" lon="6.89216">
        <ele>1444</ele>
        <time>2013-09-04T16:38:49Z</time>
      </trkpt>
      <trkpt lat="44.11654" lon="6.89227">
        <ele>1441.6</ele>
        <time>2013-09-04T16:39:01Z</time>
      </trkpt>
      <trkpt lat="44.1165" lon="6.89234">
        <ele>1439.7</ele>
        <time>2013-09-04T16:39:13Z</time>
      </trkpt>
      <trkpt lat="44.11648" lon="6.89236">
        <ele>1439.2</ele>
        <time>2013-09-04T16:39:21Z</time>
      </trkpt>
      <trkpt lat="44.11642" lon="6.89244">
        <ele>1439.7</ele>
        <time>2013-09-04T16:39:27Z</time>
      </trkpt>
      <trkpt lat="44.11637" lon="6.89248">
        <ele>1439.2</ele>
        <time>2013-09-04T16:39:30Z</time>
      </trkpt>
      <trkpt lat="44.11635" lon="6.8925">
        <ele>1438.8</ele>
        <time>2013-09-04T16:39:31Z</time>
      </trkpt>
      <trkpt lat="44.11632" lon="6.89254">
        <ele>1438.3</ele>
        <time>2013-09-04T16:39:32Z</time>
      </trkpt>
      <trkpt lat="44.1163" lon="6.89259">
        <ele>1438.3</ele>
        <time>2013-09-04T16:39:33Z</time>
      </trkpt>
      <trkpt lat="44.11628" lon="6.89264">
        <ele>1438.3</ele>
        <time>2013-09-04T16:39:34Z</time>
      </trkpt>
      <trkpt lat="44.11626" lon="6.89269">
        <ele>1436.8</ele>
        <time>2013-09-04T16:39:35Z</time>
      </trkpt>
      <trkpt lat="44.11622" lon="6.89279">
        <ele>1439.2</ele>
        <time>2013-09-04T16:39:39Z</time>
      </trkpt>
      <trkpt lat="44.11621" lon="6.89283">
        <ele>1439.2</ele>
        <time>2013-09-04T16:39:41Z</time>
      </trkpt>
      <trkpt lat="44.1162" lon="6.89285">
        <ele>1439.2</ele>
        <time>2013-09-04T16:39:42Z</time>
      </trkpt>
      <trkpt lat="44.11617" lon="6.89317">
        <ele>1436.8</ele>
        <time>2013-09-04T16:39:49Z</time>
      </trkpt>
      <trkpt lat="44.11615" lon="6.89323">
        <ele>1436.4</ele>
        <time>2013-09-04T16:39:50Z</time>
      </trkpt>
      <trkpt lat="44.11611" lon="6.89333">
        <ele>1435.9</ele>
        <time>2013-09-04T16:39:52Z</time>
      </trkpt>
      <trkpt lat="44.11608" lon="6.89337">
        <ele>1435.4</ele>
        <time>2013-09-04T16:39:53Z</time>
      </trkpt>
      <trkpt lat="44.11606" lon="6.89342">
        <ele>1435.4</ele>
        <time>2013-09-04T16:39:54Z</time>
      </trkpt>
      <trkpt lat="44.11605" lon="6.89346">
        <ele>1434.9</ele>
        <time>2013-09-04T16:39:55Z</time>
      </trkpt>
      <trkpt lat="44.11604" lon="6.8935">
        <ele>1434.9</ele>
        <time>2013-09-04T16:39:56Z</time>
      </trkpt>
      <trkpt lat="44.11603" lon="6.89353">
        <ele>1434.4</ele>
        <time>2013-09-04T16:39:57Z</time>
      </trkpt>
      <trkpt lat="44.11602" lon="6.89357">
        <ele>1434.9</ele>
        <time>2013-09-04T16:39:58Z</time>
      </trkpt>
      <trkpt lat="44.11601" lon="6.8936">
        <ele>1434.9</ele>
        <time>2013-09-04T16:39:59Z</time>
      </trkpt>
      <trkpt lat="44.116" lon="6.89364">
        <ele>1434.9</ele>
        <time>2013-09-04T16:40:00Z</time>
      </trkpt>
      <trkpt lat="44.11598" lon="6.89368">
        <ele>1434.4</ele>
        <time>2013-09-04T16:40:01Z</time>
      </trkpt>
      <trkpt lat="44.11584" lon="6.89412">
        <ele>1433.9</ele>
        <time>2013-09-04T16:40:10Z</time>
      </trkpt>
      <trkpt lat="44.11568" lon="6.89448">
        <ele>1434.9</ele>
        <time>2013-09-04T16:40:21Z</time>
      </trkpt>
      <trkpt lat="44.11566" lon="6.89458">
        <ele>1437.8</ele>
        <time>2013-09-04T16:40:32Z</time>
      </trkpt>
      <trkpt lat="44.11561" lon="6.89468">
        <ele>1439.7</ele>
        <time>2013-09-04T16:40:48Z</time>
      </trkpt>
      <trkpt lat="44.11563" lon="6.89475">
        <ele>1440.2</ele>
        <time>2013-09-04T16:41:02Z</time>
      </trkpt>
      <trkpt lat="44.11566" lon="6.89487">
        <ele>1443.1</ele>
        <time>2013-09-04T16:41:16Z</time>
      </trkpt>
      <trkpt lat="44.11572" lon="6.89497">
        <ele>1445</ele>
        <time>2013-09-04T16:41:32Z</time>
      </trkpt>
      <trkpt lat="44.11574" lon="6.895">
        <ele>1445</ele>
        <time>2013-09-04T16:41:36Z</time>
      </trkpt>
      <trkpt lat="44.11582" lon="6.89516">
        <ele>1447.9</ele>
        <time>2013-09-04T16:41:55Z</time>
      </trkpt>
      <trkpt lat="44.11593" lon="6.89525">
        <ele>1450.3</ele>
        <time>2013-09-04T16:42:11Z</time>
      </trkpt>
      <trkpt lat="44.11596" lon="6.89529">
        <ele>1449.8</ele>
        <time>2013-09-04T16:42:18Z</time>
      </trkpt>
      <trkpt lat="44.11597" lon="6.89531">
        <ele>1449.3</ele>
        <time>2013-09-04T16:42:19Z</time>
      </trkpt>
      <trkpt lat="44.11599" lon="6.89539">
        <ele>1448.4</ele>
        <time>2013-09-04T16:42:21Z</time>
      </trkpt>
      <trkpt lat="44.11599" lon="6.89545">
        <ele>1448.4</ele>
        <time>2013-09-04T16:42:22Z</time>
      </trkpt>
      <trkpt lat="44.116" lon="6.89558">
        <ele>1447.4</ele>
        <time>2013-09-04T16:42:24Z</time>
      </trkpt>
      <trkpt lat="44.11607" lon="6.89595">
        <ele>1446</ele>
        <time>2013-09-04T16:42:32Z</time>
      </trkpt>
      <trkpt lat="44.11609" lon="6.896">
        <ele>1445</ele>
        <time>2013-09-04T16:42:33Z</time>
      </trkpt>
      <trkpt lat="44.11612" lon="6.89605">
        <ele>1445</ele>
        <time>2013-09-04T16:42:34Z</time>
      </trkpt>
      <trkpt lat="44.11616" lon="6.89611">
        <ele>1444.5</ele>
        <time>2013-09-04T16:42:35Z</time>
      </trkpt>
      <trkpt lat="44.1162" lon="6.89615">
        <ele>1444.5</ele>
        <time>2013-09-04T16:42:36Z</time>
      </trkpt>
      <trkpt lat="44.11631" lon="6.8963">
        <ele>1442.6</ele>
        <time>2013-09-04T16:42:40Z</time>
      </trkpt>
      <trkpt lat="44.11638" lon="6.89642">
        <ele>1440.2</ele>
        <time>2013-09-04T16:42:44Z</time>
      </trkpt>
      <trkpt lat="44.11651" lon="6.89656">
        <ele>1439.2</ele>
        <time>2013-09-04T16:42:48Z</time>
      </trkpt>
      <trkpt lat="44.11656" lon="6.89659">
        <ele>1438.8</ele>
        <time>2013-09-04T16:42:49Z</time>
      </trkpt>
      <trkpt lat="44.11661" lon="6.89662">
        <ele>1438.3</ele>
        <time>2013-09-04T16:42:50Z</time>
      </trkpt>
      <trkpt lat="44.11677" lon="6.89671">
        <ele>1436.4</ele>
        <time>2013-09-04T16:42:54Z</time>
      </trkpt>
      <trkpt lat="44.1168" lon="6.89675">
        <ele>1436.4</ele>
        <time>2013-09-04T16:42:55Z</time>
      </trkpt>
      <trkpt lat="44.11682" lon="6.89679">
        <ele>1434.9</ele>
        <time>2013-09-04T16:42:56Z</time>
      </trkpt>
      <trkpt lat="44.11685" lon="6.89683">
        <ele>1434.9</ele>
        <time>2013-09-04T16:42:57Z</time>
      </trkpt>
      <trkpt lat="44.11687" lon="6.89689">
        <ele>1434.9</ele>
        <time>2013-09-04T16:42:58Z</time>
      </trkpt>
      <trkpt lat="44.11693" lon="6.89705">
        <ele>1432.5</ele>
        <time>2013-09-04T16:43:01Z</time>
      </trkpt>
      <trkpt lat="44.11695" lon="6.89713">
        <ele>1431.5</ele>
        <time>2013-09-04T16:43:03Z</time>
      </trkpt>
      <trkpt lat="44.117" lon="6.89725">
        <ele>1429.6</ele>
        <time>2013-09-04T16:43:06Z</time>
      </trkpt>
      <trkpt lat="44.11704" lon="6.89734">
        <ele>1427.2</ele>
        <time>2013-09-04T16:43:08Z</time>
      </trkpt>
      <trkpt lat="44.11715" lon="6.89754">
        <ele>1424.8</ele>
        <time>2013-09-04T16:43:12Z</time>
      </trkpt>
      <trkpt lat="44.11719" lon="6.89768">
        <ele>1422.9</ele>
        <time>2013-09-04T16:43:15Z</time>
      </trkpt>
      <trkpt lat="44.11718" lon="6.89782">
        <ele>1420.5</ele>
        <time>2013-09-04T16:43:18Z</time>
      </trkpt>
      <trkpt lat="44.11717" lon="6.89791">
        <ele>1419</ele>
        <time>2013-09-04T16:43:20Z</time>
      </trkpt>
      <trkpt lat="44.11717" lon="6.89794">
        <ele>1417.6</ele>
        <time>2013-09-04T16:43:21Z</time>
      </trkpt>
      <trkpt lat="44.11718" lon="6.89796">
        <ele>1417.6</ele>
        <time>2013-09-04T16:43:22Z</time>
      </trkpt>
      <trkpt lat="44.1172" lon="6.89797">
        <ele>1416.2</ele>
        <time>2013-09-04T16:43:25Z</time>
      </trkpt>
      <trkpt lat="44.11724" lon="6.89796">
        <ele>1417.1</ele>
        <time>2013-09-04T16:43:29Z</time>
      </trkpt>
      <trkpt lat="44.11725" lon="6.89796">
        <ele>1417.1</ele>
        <time>2013-09-04T16:43:30Z</time>
      </trkpt>
      <trkpt lat="44.11749" lon="6.8979">
        <ele>1413.8</ele>
        <time>2013-09-04T16:43:41Z</time>
      </trkpt>
      <trkpt lat="44.11752" lon="6.89788">
        <ele>1413.8</ele>
        <time>2013-09-04T16:43:42Z</time>
      </trkpt>
      <trkpt lat="44.11768" lon="6.89782">
        <ele>1411.8</ele>
        <time>2013-09-04T16:43:47Z</time>
      </trkpt>
      <trkpt lat="44.11779" lon="6.89777">
        <ele>1409.4</ele>
        <time>2013-09-04T16:43:50Z</time>
      </trkpt>
      <trkpt lat="44.1179" lon="6.89771">
        <ele>1408</ele>
        <time>2013-09-04T16:43:53Z</time>
      </trkpt>
      <trkpt lat="44.11798" lon="6.89764">
        <ele>1405.1</ele>
        <time>2013-09-04T16:43:56Z</time>
      </trkpt>
      <trkpt lat="44.11807" lon="6.89756">
        <ele>1402.2</ele>
        <time>2013-09-04T16:44:00Z</time>
      </trkpt>
      <trkpt lat="44.11809" lon="6.89753">
        <ele>1401.7</ele>
        <time>2013-09-04T16:44:01Z</time>
      </trkpt>
      <trkpt lat="44.11811" lon="6.89752">
        <ele>1400.3</ele>
        <time>2013-09-04T16:44:02Z</time>
      </trkpt>
      <trkpt lat="44.11813" lon="6.89751">
        <ele>1400.3</ele>
        <time>2013-09-04T16:44:03Z</time>
      </trkpt>
      <trkpt lat="44.11822" lon="6.89753">
        <ele>1397.4</ele>
        <time>2013-09-04T16:44:16Z</time>
      </trkpt>
      <trkpt lat="44.11829" lon="6.89749">
        <ele>1395.5</ele>
        <time>2013-09-04T16:44:23Z</time>
      </trkpt>
      <trkpt lat="44.1184" lon="6.8975">
        <ele>1392.6</ele>
        <time>2013-09-04T16:44:29Z</time>
      </trkpt>
      <trkpt lat="44.1185" lon="6.89761">
        <ele>1389.7</ele>
        <time>2013-09-04T16:44:34Z</time>
      </trkpt>
      <trkpt lat="44.11856" lon="6.89768">
        <ele>1387.8</ele>
        <time>2013-09-04T16:44:37Z</time>
      </trkpt>
      <trkpt lat="44.11859" lon="6.89769">
        <ele>1385.9</ele>
        <time>2013-09-04T16:44:38Z</time>
      </trkpt>
      <trkpt lat="44.11861" lon="6.8977">
        <ele>1385.9</ele>
        <time>2013-09-04T16:44:39Z</time>
      </trkpt>
      <trkpt lat="44.11871" lon="6.89772">
        <ele>1384.4</ele>
        <time>2013-09-04T16:44:42Z</time>
      </trkpt>
      <trkpt lat="44.11885" lon="6.89779">
        <ele>1382.5</ele>
        <time>2013-09-04T16:44:51Z</time>
      </trkpt>
      <trkpt lat="44.11899" lon="6.89782">
        <ele>1380.6</ele>
        <time>2013-09-04T16:45:02Z</time>
      </trkpt>
      <trkpt lat="44.11902" lon="6.89786">
        <ele>1380.1</ele>
        <time>2013-09-04T16:45:13Z</time>
      </trkpt>
      <trkpt lat="44.11903" lon="6.89788">
        <ele>1379.6</ele>
        <time>2013-09-04T16:45:14Z</time>
      </trkpt>
      <trkpt lat="44.11905" lon="6.8979">
        <ele>1379.6</ele>
        <time>2013-09-04T16:45:15Z</time>
      </trkpt>
      <trkpt lat="44.11908" lon="6.89792">
        <ele>1378.7</ele>
        <time>2013-09-04T16:45:16Z</time>
      </trkpt>
      <trkpt lat="44.11909" lon="6.89794">
        <ele>1378.7</ele>
        <time>2013-09-04T16:45:17Z</time>
      </trkpt>
      <trkpt lat="44.11919" lon="6.89801">
        <ele>1374.8</ele>
        <time>2013-09-04T16:45:25Z</time>
      </trkpt>
      <trkpt lat="44.11929" lon="6.89803">
        <ele>1372.9</ele>
        <time>2013-09-04T16:45:30Z</time>
      </trkpt>
      <trkpt lat="44.11935" lon="6.89805">
        <ele>1369.5</ele>
        <time>2013-09-04T16:45:34Z</time>
      </trkpt>
      <trkpt lat="44.11938" lon="6.89805">
        <ele>1368.6</ele>
        <time>2013-09-04T16:45:36Z</time>
      </trkpt>
      <trkpt lat="44.11947" lon="6.89808">
        <ele>1365.7</ele>
        <time>2013-09-04T16:45:42Z</time>
      </trkpt>
      <trkpt lat="44.1195" lon="6.89809">
        <ele>1364.3</ele>
        <time>2013-09-04T16:45:44Z</time>
      </trkpt>
      <trkpt lat="44.11961" lon="6.89812">
        <ele>1361.8</ele>
        <time>2013-09-04T16:45:56Z</time>
      </trkpt>
      <trkpt lat="44.11969" lon="6.89815">
        <ele>1358.5</ele>
        <time>2013-09-04T16:46:07Z</time>
      </trkpt>
      <trkpt lat="44.11973" lon="6.8982">
        <ele>1356.6</ele>
        <time>2013-09-04T16:46:15Z</time>
      </trkpt>
      <trkpt lat="44.11974" lon="6.89827">
        <ele>1354.6</ele>
        <time>2013-09-04T16:46:21Z</time>
      </trkpt>
      <trkpt lat="44.11983" lon="6.8983">
        <ele>1351.8</ele>
        <time>2013-09-04T16:46:35Z</time>
      </trkpt>
      <trkpt lat="44.11991" lon="6.8984">
        <ele>1348.4</ele>
        <time>2013-09-04T16:46:49Z</time>
      </trkpt>
      <trkpt lat="44.11995" lon="6.89849">
        <ele>1345.5</ele>
        <time>2013-09-04T16:47:01Z</time>
      </trkpt>
      <trkpt lat="44.11993" lon="6.89857">
        <ele>1345</ele>
        <time>2013-09-04T16:47:11Z</time>
      </trkpt>
      <trkpt lat="44.11992" lon="6.89858">
        <ele>1345</ele>
        <time>2013-09-04T16:47:12Z</time>
      </trkpt>
      <trkpt lat="44.11991" lon="6.89859">
        <ele>1344.5</ele>
        <time>2013-09-04T16:47:13Z</time>
      </trkpt>
      <trkpt lat="44.11989" lon="6.89861">
        <ele>1345</ele>
        <time>2013-09-04T16:47:14Z</time>
      </trkpt>
      <trkpt lat="44.11988" lon="6.89862">
        <ele>1345</ele>
        <time>2013-09-04T16:47:15Z</time>
      </trkpt>
      <trkpt lat="44.11986" lon="6.89865">
        <ele>1344.5</ele>
        <time>2013-09-04T16:47:16Z</time>
      </trkpt>
      <trkpt lat="44.11985" lon="6.89867">
        <ele>1345</ele>
        <time>2013-09-04T16:47:17Z</time>
      </trkpt>
      <trkpt lat="44.11952" lon="6.89913">
        <ele>1344.1</ele>
        <time>2013-09-04T16:47:32Z</time>
      </trkpt>
      <trkpt lat="44.11939" lon="6.89926">
        <ele>1343.6</ele>
        <time>2013-09-04T16:47:36Z</time>
      </trkpt>
      <trkpt lat="44.1194" lon="6.8993">
        <ele>1343.1</ele>
        <time>2013-09-04T16:47:37Z</time>
      </trkpt>
      <trkpt lat="44.11942" lon="6.89932">
        <ele>1342.1</ele>
        <time>2013-09-04T16:47:38Z</time>
      </trkpt>
      <trkpt lat="44.11946" lon="6.89931">
        <ele>1342.1</ele>
        <time>2013-09-04T16:47:39Z</time>
      </trkpt>
      <trkpt lat="44.1195" lon="6.89929">
        <ele>1342.1</ele>
        <time>2013-09-04T16:47:40Z</time>
      </trkpt>
      <trkpt lat="44.11954" lon="6.89926">
        <ele>1341.7</ele>
        <time>2013-09-04T16:47:41Z</time>
      </trkpt>
      <trkpt lat="44.11959" lon="6.89923">
        <ele>1341.7</ele>
        <time>2013-09-04T16:47:42Z</time>
      </trkpt>
      <trkpt lat="44.11963" lon="6.89919">
        <ele>1341.2</ele>
        <time>2013-09-04T16:47:43Z</time>
      </trkpt>
      <trkpt lat="44.11968" lon="6.89915">
        <ele>1341.2</ele>
        <time>2013-09-04T16:47:44Z</time>
      </trkpt>
      <trkpt lat="44.11981" lon="6.89902">
        <ele>1339.7</ele>
        <time>2013-09-04T16:47:47Z</time>
      </trkpt>
      <trkpt lat="44.11997" lon="6.89887">
        <ele>1339.7</ele>
        <time>2013-09-04T16:47:51Z</time>
      </trkpt>
      <trkpt lat="44.12021" lon="6.89866">
        <ele>1338.3</ele>
        <time>2013-09-04T16:47:57Z</time>
      </trkpt>
      <trkpt lat="44.12025" lon="6.89863">
        <ele>1338.8</ele>
        <time>2013-09-04T16:47:58Z</time>
      </trkpt>
      <trkpt lat="44.12051" lon="6.89852">
        <ele>1335.9</ele>
        <time>2013-09-04T16:48:03Z</time>
      </trkpt>
      <trkpt lat="44.12055" lon="6.89853">
        <ele>1335.9</ele>
        <time>2013-09-04T16:48:04Z</time>
      </trkpt>
      <trkpt lat="44.12059" lon="6.89857">
        <ele>1335.4</ele>
        <time>2013-09-04T16:48:05Z</time>
      </trkpt>
      <trkpt lat="44.12062" lon="6.89863">
        <ele>1335.4</ele>
        <time>2013-09-04T16:48:06Z</time>
      </trkpt>
      <trkpt lat="44.12062" lon="6.8987">
        <ele>1335.4</ele>
        <time>2013-09-04T16:48:07Z</time>
      </trkpt>
      <trkpt lat="44.12063" lon="6.89878">
        <ele>1334.5</ele>
        <time>2013-09-04T16:48:08Z</time>
      </trkpt>
      <trkpt lat="44.12063" lon="6.89886">
        <ele>1334.5</ele>
        <time>2013-09-04T16:48:09Z</time>
      </trkpt>
      <trkpt lat="44.12065" lon="6.89893">
        <ele>1334.5</ele>
        <time>2013-09-04T16:48:10Z</time>
      </trkpt>
      <trkpt lat="44.12085" lon="6.89952">
        <ele>1332</ele>
        <time>2013-09-04T16:48:18Z</time>
      </trkpt>
      <trkpt lat="44.12087" lon="6.89961">
        <ele>1331.1</ele>
        <time>2013-09-04T16:48:19Z</time>
      </trkpt>
      <trkpt lat="44.12087" lon="6.89969">
        <ele>1330.6</ele>
        <time>2013-09-04T16:48:20Z</time>
      </trkpt>
      <trkpt lat="44.12086" lon="6.89978">
        <ele>1330.1</ele>
        <time>2013-09-04T16:48:21Z</time>
      </trkpt>
      <trkpt lat="44.12084" lon="6.89987">
        <ele>1329.6</ele>
        <time>2013-09-04T16:48:22Z</time>
      </trkpt>
      <trkpt lat="44.12075" lon="6.90041">
        <ele>1327.2</ele>
        <time>2013-09-04T16:48:28Z</time>
      </trkpt>
      <trkpt lat="44.12068" lon="6.90067">
        <ele>1325.8</ele>
        <time>2013-09-04T16:48:31Z</time>
      </trkpt>
      <trkpt lat="44.12053" lon="6.90139">
        <ele>1322.4</ele>
        <time>2013-09-04T16:48:38Z</time>
      </trkpt>
      <trkpt lat="44.12047" lon="6.90156">
        <ele>1321</ele>
        <time>2013-09-04T16:48:40Z</time>
      </trkpt>
      <trkpt lat="44.12042" lon="6.90164">
        <ele>1321</ele>
        <time>2013-09-04T16:48:41Z</time>
      </trkpt>
      <trkpt lat="44.12038" lon="6.90172">
        <ele>1320</ele>
        <time>2013-09-04T16:48:42Z</time>
      </trkpt>
      <trkpt lat="44.12019" lon="6.90197">
        <ele>1318.1</ele>
        <time>2013-09-04T16:48:46Z</time>
      </trkpt>
      <trkpt lat="44.12007" lon="6.90213">
        <ele>1317.6</ele>
        <time>2013-09-04T16:48:50Z</time>
      </trkpt>
      <trkpt lat="44.12007" lon="6.90218">
        <ele>1317.1</ele>
        <time>2013-09-04T16:48:51Z</time>
      </trkpt>
      <trkpt lat="44.12009" lon="6.90223">
        <ele>1316.2</ele>
        <time>2013-09-04T16:48:52Z</time>
      </trkpt>
      <trkpt lat="44.12014" lon="6.90227">
        <ele>1316.2</ele>
        <time>2013-09-04T16:48:53Z</time>
      </trkpt>
      <trkpt lat="44.12019" lon="6.90231">
        <ele>1315.7</ele>
        <time>2013-09-04T16:48:54Z</time>
      </trkpt>
      <trkpt lat="44.12025" lon="6.90235">
        <ele>1315.2</ele>
        <time>2013-09-04T16:48:55Z</time>
      </trkpt>
      <trkpt lat="44.12031" lon="6.9024">
        <ele>1314.3</ele>
        <time>2013-09-04T16:48:56Z</time>
      </trkpt>
      <trkpt lat="44.12036" lon="6.90245">
        <ele>1313.8</ele>
        <time>2013-09-04T16:48:57Z</time>
      </trkpt>
      <trkpt lat="44.1204" lon="6.90251">
        <ele>1313.3</ele>
        <time>2013-09-04T16:48:58Z</time>
      </trkpt>
      <trkpt lat="44.12053" lon="6.90277">
        <ele>1310.9</ele>
        <time>2013-09-04T16:49:02Z</time>
      </trkpt>
      <trkpt lat="44.12055" lon="6.90283">
        <ele>1310.9</ele>
        <time>2013-09-04T16:49:03Z</time>
      </trkpt>
      <trkpt lat="44.12057" lon="6.90289">
        <ele>1310.4</ele>
        <time>2013-09-04T16:49:04Z</time>
      </trkpt>
      <trkpt lat="44.1206" lon="6.90293">
        <ele>1309.9</ele>
        <time>2013-09-04T16:49:05Z</time>
      </trkpt>
      <trkpt lat="44.12063" lon="6.90297">
        <ele>1309.5</ele>
        <time>2013-09-04T16:49:06Z</time>
      </trkpt>
      <trkpt lat="44.12066" lon="6.903">
        <ele>1309.5</ele>
        <time>2013-09-04T16:49:07Z</time>
      </trkpt>
      <trkpt lat="44.12076" lon="6.90312">
        <ele>1307.5</ele>
        <time>2013-09-04T16:49:10Z</time>
      </trkpt>
      <trkpt lat="44.12087" lon="6.90329">
        <ele>1304.7</ele>
        <time>2013-09-04T16:49:13Z</time>
      </trkpt>
      <trkpt lat="44.12091" lon="6.90334">
        <ele>1304.2</ele>
        <time>2013-09-04T16:49:14Z</time>
      </trkpt>
      <trkpt lat="44.12097" lon="6.90337">
        <ele>1303.7</ele>
        <time>2013-09-04T16:49:15Z</time>
      </trkpt>
      <trkpt lat="44.12103" lon="6.90338">
        <ele>1302.2</ele>
        <time>2013-09-04T16:49:16Z</time>
      </trkpt>
      <trkpt lat="44.12109" lon="6.90339">
        <ele>1301.8</ele>
        <time>2013-09-04T16:49:17Z</time>
      </trkpt>
      <trkpt lat="44.12127" lon="6.90342">
        <ele>1299.8</ele>
        <time>2013-09-04T16:49:20Z</time>
      </trkpt>
      <trkpt lat="44.12132" lon="6.90341">
        <ele>1298.9</ele>
        <time>2013-09-04T16:49:21Z</time>
      </trkpt>
      <trkpt lat="44.12137" lon="6.90338">
        <ele>1298.4</ele>
        <time>2013-09-04T16:49:22Z</time>
      </trkpt>
      <trkpt lat="44.12141" lon="6.90333">
        <ele>1297.4</ele>
        <time>2013-09-04T16:49:23Z</time>
      </trkpt>
      <trkpt lat="44.12144" lon="6.90325">
        <ele>1296.5</ele>
        <time>2013-09-04T16:49:24Z</time>
      </trkpt>
      <trkpt lat="44.12147" lon="6.90316">
        <ele>1296</ele>
        <time>2013-09-04T16:49:25Z</time>
      </trkpt>
      <trkpt lat="44.12156" lon="6.90285">
        <ele>1293.6</ele>
        <time>2013-09-04T16:49:28Z</time>
      </trkpt>
      <trkpt lat="44.12161" lon="6.90276">
        <ele>1292.2</ele>
        <time>2013-09-04T16:49:29Z</time>
      </trkpt>
      <trkpt lat="44.12167" lon="6.9027">
        <ele>1291.7</ele>
        <time>2013-09-04T16:49:30Z</time>
      </trkpt>
      <trkpt lat="44.12174" lon="6.90266">
        <ele>1290.7</ele>
        <time>2013-09-04T16:49:31Z</time>
      </trkpt>
      <trkpt lat="44.12182" lon="6.90264">
        <ele>1289.8</ele>
        <time>2013-09-04T16:49:32Z</time>
      </trkpt>
      <trkpt lat="44.12188" lon="6.90263">
        <ele>1288.3</ele>
        <time>2013-09-04T16:49:33Z</time>
      </trkpt>
      <trkpt lat="44.12194" lon="6.90265">
        <ele>1286.4</ele>
        <time>2013-09-04T16:49:34Z</time>
      </trkpt>
      <trkpt lat="44.12199" lon="6.90269">
        <ele>1285.4</ele>
        <time>2013-09-04T16:49:35Z</time>
      </trkpt>
      <trkpt lat="44.12202" lon="6.90277">
        <ele>1284.9</ele>
        <time>2013-09-04T16:49:36Z</time>
      </trkpt>
      <trkpt lat="44.12201" lon="6.90287">
        <ele>1284</ele>
        <time>2013-09-04T16:49:37Z</time>
      </trkpt>
      <trkpt lat="44.12201" lon="6.90296">
        <ele>1283</ele>
        <time>2013-09-04T16:49:38Z</time>
      </trkpt>
      <trkpt lat="44.12201" lon="6.90304">
        <ele>1281.6</ele>
        <time>2013-09-04T16:49:39Z</time>
      </trkpt>
      <trkpt lat="44.12202" lon="6.90309">
        <ele>1281.6</ele>
        <time>2013-09-04T16:49:40Z</time>
      </trkpt>
      <trkpt lat="44.12208" lon="6.90326">
        <ele>1280.1</ele>
        <time>2013-09-04T16:49:42Z</time>
      </trkpt>
      <trkpt lat="44.1221" lon="6.90334">
        <ele>1279.2</ele>
        <time>2013-09-04T16:49:43Z</time>
      </trkpt>
      <trkpt lat="44.12211" lon="6.90343">
        <ele>1278.2</ele>
        <time>2013-09-04T16:49:44Z</time>
      </trkpt>
      <trkpt lat="44.12211" lon="6.90352">
        <ele>1277.3</ele>
        <time>2013-09-04T16:49:45Z</time>
      </trkpt>
      <trkpt lat="44.12212" lon="6.90362">
        <ele>1276.8</ele>
        <time>2013-09-04T16:49:46Z</time>
      </trkpt>
      <trkpt lat="44.12215" lon="6.904">
        <ele>1272.9</ele>
        <time>2013-09-04T16:49:50Z</time>
      </trkpt>
      <trkpt lat="44.12217" lon="6.9041">
        <ele>1272.4</ele>
        <time>2013-09-04T16:49:51Z</time>
      </trkpt>
      <trkpt lat="44.12222" lon="6.9043">
        <ele>1271</ele>
        <time>2013-09-04T16:49:53Z</time>
      </trkpt>
      <trkpt lat="44.12223" lon="6.90442">
        <ele>1269.6</ele>
        <time>2013-09-04T16:49:54Z</time>
      </trkpt>
      <trkpt lat="44.12224" lon="6.90453">
        <ele>1268.1</ele>
        <time>2013-09-04T16:49:55Z</time>
      </trkpt>
      <trkpt lat="44.12223" lon="6.9048">
        <ele>1264.8</ele>
        <time>2013-09-04T16:49:58Z</time>
      </trkpt>
      <trkpt lat="44.1222" lon="6.90499">
        <ele>1263.3</ele>
        <time>2013-09-04T16:50:03Z</time>
      </trkpt>
      <trkpt lat="44.12218" lon="6.905">
        <ele>1263.3</ele>
        <time>2013-09-04T16:50:04Z</time>
      </trkpt>
      <trkpt lat="44.12219" lon="6.90496">
        <ele>1263.3</ele>
        <time>2013-09-04T16:50:17Z</time>
      </trkpt>
      <trkpt lat="44.12219" lon="6.90493">
        <ele>1263.3</ele>
        <time>2013-09-04T16:50:19Z</time>
      </trkpt>
      <trkpt lat="44.1222" lon="6.9049">
        <ele>1263.3</ele>
        <time>2013-09-04T16:50:20Z</time>
      </trkpt>
      <trkpt lat="44.1222" lon="6.90487">
        <ele>1263.8</ele>
        <time>2013-09-04T16:50:21Z</time>
      </trkpt>
      <trkpt lat="44.1222" lon="6.90483">
        <ele>1263.8</ele>
        <time>2013-09-04T16:50:22Z</time>
      </trkpt>
      <trkpt lat="44.1222" lon="6.90478">
        <ele>1262.8</ele>
        <time>2013-09-04T16:50:23Z</time>
      </trkpt>
      <trkpt lat="44.1222" lon="6.90472">
        <ele>1263.3</ele>
        <time>2013-09-04T16:50:24Z</time>
      </trkpt>
      <trkpt lat="44.12217" lon="6.90444">
        <ele>1261.9</ele>
        <time>2013-09-04T16:50:28Z</time>
      </trkpt>
      <trkpt lat="44.12215" lon="6.90437">
        <ele>1261.4</ele>
        <time>2013-09-04T16:50:29Z</time>
      </trkpt>
      <trkpt lat="44.12199" lon="6.90399">
        <ele>1259.9</ele>
        <time>2013-09-04T16:50:34Z</time>
      </trkpt>
      <trkpt lat="44.12194" lon="6.90394">
        <ele>1259.9</ele>
        <time>2013-09-04T16:50:35Z</time>
      </trkpt>
      <trkpt lat="44.12189" lon="6.9039">
        <ele>1259.5</ele>
        <time>2013-09-04T16:50:36Z</time>
      </trkpt>
      <trkpt lat="44.12183" lon="6.90388">
        <ele>1259.5</ele>
        <time>2013-09-04T16:50:37Z</time>
      </trkpt>
      <trkpt lat="44.12177" lon="6.90389">
        <ele>1259.5</ele>
        <time>2013-09-04T16:50:38Z</time>
      </trkpt>
      <trkpt lat="44.12172" lon="6.90391">
        <ele>1259.5</ele>
        <time>2013-09-04T16:50:39Z</time>
      </trkpt>
      <trkpt lat="44.12168" lon="6.90394">
        <ele>1259.9</ele>
        <time>2013-09-04T16:50:40Z</time>
      </trkpt>
      <trkpt lat="44.12164" lon="6.90398">
        <ele>1259.5</ele>
        <time>2013-09-04T16:50:41Z</time>
      </trkpt>
      <trkpt lat="44.1216" lon="6.904">
        <ele>1259.5</ele>
        <time>2013-09-04T16:50:42Z</time>
      </trkpt>
      <trkpt lat="44.12156" lon="6.90402">
        <ele>1259.9</ele>
        <time>2013-09-04T16:50:43Z</time>
      </trkpt>
      <trkpt lat="44.12151" lon="6.90403">
        <ele>1259.9</ele>
        <time>2013-09-04T16:50:44Z</time>
      </trkpt>
      <trkpt lat="44.12146" lon="6.90404">
        <ele>1259</ele>
        <time>2013-09-04T16:50:45Z</time>
      </trkpt>
      <trkpt lat="44.1211" lon="6.9041">
        <ele>1259</ele>
        <time>2013-09-04T16:50:53Z</time>
      </trkpt>
      <trkpt lat="44.12105" lon="6.90409">
        <ele>1259</ele>
        <time>2013-09-04T16:50:54Z</time>
      </trkpt>
      <trkpt lat="44.121" lon="6.90408">
        <ele>1258.5</ele>
        <time>2013-09-04T16:50:55Z</time>
      </trkpt>
      <trkpt lat="44.12095" lon="6.90406">
        <ele>1258.5</ele>
        <time>2013-09-04T16:50:56Z</time>
      </trkpt>
      <trkpt lat="44.12034" lon="6.90372">
        <ele>1255.6</ele>
        <time>2013-09-04T16:51:06Z</time>
      </trkpt>
      <trkpt lat="44.12027" lon="6.90371">
        <ele>1255.1</ele>
        <time>2013-09-04T16:51:07Z</time>
      </trkpt>
      <trkpt lat="44.1202" lon="6.90371">
        <ele>1254.7</ele>
        <time>2013-09-04T16:51:08Z</time>
      </trkpt>
      <trkpt lat="44.12014" lon="6.90372">
        <ele>1255.1</ele>
        <time>2013-09-04T16:51:09Z</time>
      </trkpt>
      <trkpt lat="44.12008" lon="6.90374">
        <ele>1255.1</ele>
        <time>2013-09-04T16:51:10Z</time>
      </trkpt>
      <trkpt lat="44.12002" lon="6.90377">
        <ele>1254.7</ele>
        <time>2013-09-04T16:51:11Z</time>
      </trkpt>
      <trkpt lat="44.11997" lon="6.90382">
        <ele>1255.1</ele>
        <time>2013-09-04T16:51:12Z</time>
      </trkpt>
      <trkpt lat="44.11992" lon="6.90387">
        <ele>1254.7</ele>
        <time>2013-09-04T16:51:13Z</time>
      </trkpt>
      <trkpt lat="44.11988" lon="6.90394">
        <ele>1254.7</ele>
        <time>2013-09-04T16:51:14Z</time>
      </trkpt>
      <trkpt lat="44.11985" lon="6.90402">
        <ele>1254.7</ele>
        <time>2013-09-04T16:51:15Z</time>
      </trkpt>
      <trkpt lat="44.11981" lon="6.90408">
        <ele>1254.2</ele>
        <time>2013-09-04T16:51:16Z</time>
      </trkpt>
      <trkpt lat="44.11976" lon="6.90413">
        <ele>1254.2</ele>
        <time>2013-09-04T16:51:17Z</time>
      </trkpt>
      <trkpt lat="44.11971" lon="6.90417">
        <ele>1254.2</ele>
        <time>2013-09-04T16:51:18Z</time>
      </trkpt>
      <trkpt lat="44.11967" lon="6.90421">
        <ele>1254.2</ele>
        <time>2013-09-04T16:51:19Z</time>
      </trkpt>
      <trkpt lat="44.11956" lon="6.90427">
        <ele>1253.7</ele>
        <time>2013-09-04T16:51:21Z</time>
      </trkpt>
      <trkpt lat="44.11951" lon="6.90428">
        <ele>1253.7</ele>
        <time>2013-09-04T16:51:22Z</time>
      </trkpt>
      <trkpt lat="44.11945" lon="6.90427">
        <ele>1253.7</ele>
        <time>2013-09-04T16:51:23Z</time>
      </trkpt>
      <trkpt lat="44.1194" lon="6.90423">
        <ele>1254.2</ele>
        <time>2013-09-04T16:51:24Z</time>
      </trkpt>
      <trkpt lat="44.11936" lon="6.90421">
        <ele>1254.7</ele>
        <time>2013-09-04T16:51:25Z</time>
      </trkpt>
      <trkpt lat="44.11933" lon="6.90419">
        <ele>1254.7</ele>
        <time>2013-09-04T16:51:26Z</time>
      </trkpt>
      <trkpt lat="44.1193" lon="6.90416">
        <ele>1254.7</ele>
        <time>2013-09-04T16:51:27Z</time>
      </trkpt>
      <trkpt lat="44.11928" lon="6.90414">
        <ele>1254.7</ele>
        <time>2013-09-04T16:51:28Z</time>
      </trkpt>
      <trkpt lat="44.11925" lon="6.90413">
        <ele>1254.7</ele>
        <time>2013-09-04T16:51:29Z</time>
      </trkpt>
      <trkpt lat="44.11923" lon="6.90411">
        <ele>1254.7</ele>
        <time>2013-09-04T16:51:30Z</time>
      </trkpt>
      <trkpt lat="44.11921" lon="6.9041">
        <ele>1254.7</ele>
        <time>2013-09-04T16:51:31Z</time>
      </trkpt>
      <trkpt lat="44.11919" lon="6.9041">
        <ele>1255.6</ele>
        <time>2013-09-04T16:51:32Z</time>
      </trkpt>
      <trkpt lat="44.11895" lon="6.90413">
        <ele>1259</ele>
        <time>2013-09-04T16:51:44Z</time>
      </trkpt>
      <trkpt lat="44.11875" lon="6.90407">
        <ele>1257.1</ele>
        <time>2013-09-04T16:51:51Z</time>
      </trkpt>
      <trkpt lat="44.11871" lon="6.90406">
        <ele>1257.1</ele>
        <time>2013-09-04T16:51:52Z</time>
      </trkpt>
      <trkpt lat="44.11866" lon="6.90406">
        <ele>1256.1</ele>
        <time>2013-09-04T16:51:53Z</time>
      </trkpt>
      <trkpt lat="44.11861" lon="6.90407">
        <ele>1256.1</ele>
        <time>2013-09-04T16:51:54Z</time>
      </trkpt>
      <trkpt lat="44.11856" lon="6.90409">
        <ele>1255.6</ele>
        <time>2013-09-04T16:51:55Z</time>
      </trkpt>
      <trkpt lat="44.11851" lon="6.90413">
        <ele>1255.1</ele>
        <time>2013-09-04T16:51:56Z</time>
      </trkpt>
      <trkpt lat="44.11846" lon="6.90417">
        <ele>1254.2</ele>
        <time>2013-09-04T16:51:57Z</time>
      </trkpt>
      <trkpt lat="44.11841" lon="6.90421">
        <ele>1254.2</ele>
        <time>2013-09-04T16:51:58Z</time>
      </trkpt>
      <trkpt lat="44.11836" lon="6.90426">
        <ele>1253.2</ele>
        <time>2013-09-04T16:51:59Z</time>
      </trkpt>
      <trkpt lat="44.11832" lon="6.90432">
        <ele>1253.2</ele>
        <time>2013-09-04T16:52:00Z</time>
      </trkpt>
      <trkpt lat="44.11817" lon="6.90453">
        <ele>1252.3</ele>
        <time>2013-09-04T16:52:04Z</time>
      </trkpt>
      <trkpt lat="44.11814" lon="6.90456">
        <ele>1251.3</ele>
        <time>2013-09-04T16:52:05Z</time>
      </trkpt>
      <trkpt lat="44.11811" lon="6.90457">
        <ele>1250.8</ele>
        <time>2013-09-04T16:52:06Z</time>
      </trkpt>
      <trkpt lat="44.11809" lon="6.90457">
        <ele>1250.8</ele>
        <time>2013-09-04T16:52:07Z</time>
      </trkpt>
      <trkpt lat="44.11806" lon="6.90457">
        <ele>1250.3</ele>
        <time>2013-09-04T16:52:08Z</time>
      </trkpt>
      <trkpt lat="44.11798" lon="6.90459">
        <ele>1249.9</ele>
        <time>2013-09-04T16:52:10Z</time>
      </trkpt>
      <trkpt lat="44.11794" lon="6.90461">
        <ele>1248.9</ele>
        <time>2013-09-04T16:52:11Z</time>
      </trkpt>
      <trkpt lat="44.11789" lon="6.90464">
        <ele>1248.4</ele>
        <time>2013-09-04T16:52:12Z</time>
      </trkpt>
      <trkpt lat="44.11785" lon="6.90468">
        <ele>1247.9</ele>
        <time>2013-09-04T16:52:13Z</time>
      </trkpt>
      <trkpt lat="44.11781" lon="6.90472">
        <ele>1247</ele>
        <time>2013-09-04T16:52:14Z</time>
      </trkpt>
      <trkpt lat="44.11771" lon="6.90481">
        <ele>1246.5</ele>
        <time>2013-09-04T16:52:17Z</time>
      </trkpt>
      <trkpt lat="44.11768" lon="6.90481">
        <ele>1247</ele>
        <time>2013-09-04T16:52:18Z</time>
      </trkpt>
      <trkpt lat="44.11764" lon="6.90479">
        <ele>1246</ele>
        <time>2013-09-04T16:52:19Z</time>
      </trkpt>
      <trkpt lat="44.11762" lon="6.90475">
        <ele>1246</ele>
        <time>2013-09-04T16:52:20Z</time>
      </trkpt>
      <trkpt lat="44.11762" lon="6.9047">
        <ele>1246</ele>
        <time>2013-09-04T16:52:21Z</time>
      </trkpt>
      <trkpt lat="44.11762" lon="6.90464">
        <ele>1245.5</ele>
        <time>2013-09-04T16:52:22Z</time>
      </trkpt>
      <trkpt lat="44.11763" lon="6.90459">
        <ele>1245.5</ele>
        <time>2013-09-04T16:52:23Z</time>
      </trkpt>
      <trkpt lat="44.11765" lon="6.90454">
        <ele>1245</ele>
        <time>2013-09-04T16:52:24Z</time>
      </trkpt>
      <trkpt lat="44.11767" lon="6.90448">
        <ele>1244.6</ele>
        <time>2013-09-04T16:52:25Z</time>
      </trkpt>
      <trkpt lat="44.11768" lon="6.90443">
        <ele>1244.1</ele>
        <time>2013-09-04T16:52:26Z</time>
      </trkpt>
      <trkpt lat="44.11769" lon="6.90437">
        <ele>1243.6</ele>
        <time>2013-09-04T16:52:27Z</time>
      </trkpt>
      <trkpt lat="44.11769" lon="6.90432">
        <ele>1242.6</ele>
        <time>2013-09-04T16:52:28Z</time>
      </trkpt>
      <trkpt lat="44.11769" lon="6.90421">
        <ele>1241.7</ele>
        <time>2013-09-04T16:52:30Z</time>
      </trkpt>
      <trkpt lat="44.11769" lon="6.90416">
        <ele>1241.2</ele>
        <time>2013-09-04T16:52:31Z</time>
      </trkpt>
      <trkpt lat="44.11768" lon="6.9041">
        <ele>1241.2</ele>
        <time>2013-09-04T16:52:32Z</time>
      </trkpt>
      <trkpt lat="44.11765" lon="6.90398">
        <ele>1239.8</ele>
        <time>2013-09-04T16:52:34Z</time>
      </trkpt>
      <trkpt lat="44.11764" lon="6.90391">
        <ele>1239.3</ele>
        <time>2013-09-04T16:52:35Z</time>
      </trkpt>
      <trkpt lat="44.11763" lon="6.90383">
        <ele>1238.8</ele>
        <time>2013-09-04T16:52:36Z</time>
      </trkpt>
      <trkpt lat="44.1176" lon="6.90345">
        <ele>1235.9</ele>
        <time>2013-09-04T16:52:40Z</time>
      </trkpt>
      <trkpt lat="44.11758" lon="6.90337">
        <ele>1234.5</ele>
        <time>2013-09-04T16:52:41Z</time>
      </trkpt>
      <trkpt lat="44.11754" lon="6.90331">
        <ele>1233</ele>
        <time>2013-09-04T16:52:42Z</time>
      </trkpt>
      <trkpt lat="44.11748" lon="6.90328">
        <ele>1232.1</ele>
        <time>2013-09-04T16:52:43Z</time>
      </trkpt>
      <trkpt lat="44.11743" lon="6.9033">
        <ele>1231.6</ele>
        <time>2013-09-04T16:52:44Z</time>
      </trkpt>
      <trkpt lat="44.11739" lon="6.90334">
        <ele>1231.1</ele>
        <time>2013-09-04T16:52:45Z</time>
      </trkpt>
      <trkpt lat="44.11735" lon="6.90341">
        <ele>1231.6</ele>
        <time>2013-09-04T16:52:46Z</time>
      </trkpt>
      <trkpt lat="44.11722" lon="6.90367">
        <ele>1228.7</ele>
        <time>2013-09-04T16:52:49Z</time>
      </trkpt>
      <trkpt lat="44.11717" lon="6.90375">
        <ele>1228.2</ele>
        <time>2013-09-04T16:52:50Z</time>
      </trkpt>
      <trkpt lat="44.1171" lon="6.90383">
        <ele>1227.3</ele>
        <time>2013-09-04T16:52:51Z</time>
      </trkpt>
      <trkpt lat="44.11698" lon="6.90397">
        <ele>1225.8</ele>
        <time>2013-09-04T16:52:53Z</time>
      </trkpt>
      <trkpt lat="44.11677" lon="6.90418">
        <ele>1222.5</ele>
        <time>2013-09-04T16:52:57Z</time>
      </trkpt>
      <trkpt lat="44.11672" lon="6.90421">
        <ele>1222</ele>
        <time>2013-09-04T16:52:58Z</time>
      </trkpt>
      <trkpt lat="44.11667" lon="6.90423">
        <ele>1221.5</ele>
        <time>2013-09-04T16:52:59Z</time>
      </trkpt>
      <trkpt lat="44.11663" lon="6.90423">
        <ele>1221</ele>
        <time>2013-09-04T16:53:00Z</time>
      </trkpt>
      <trkpt lat="44.11654" lon="6.90422">
        <ele>1220.5</ele>
        <time>2013-09-04T16:53:02Z</time>
      </trkpt>
      <trkpt lat="44.11649" lon="6.90424">
        <ele>1220.1</ele>
        <time>2013-09-04T16:53:03Z</time>
      </trkpt>
      <trkpt lat="44.11644" lon="6.90425">
        <ele>1219.1</ele>
        <time>2013-09-04T16:53:04Z</time>
      </trkpt>
      <trkpt lat="44.1164" lon="6.90425">
        <ele>1218.6</ele>
        <time>2013-09-04T16:53:05Z</time>
      </trkpt>
      <trkpt lat="44.11635" lon="6.90425">
        <ele>1218.1</ele>
        <time>2013-09-04T16:53:06Z</time>
      </trkpt>
      <trkpt lat="44.1163" lon="6.90425">
        <ele>1217.2</ele>
        <time>2013-09-04T16:53:07Z</time>
      </trkpt>
      <trkpt lat="44.11625" lon="6.90425">
        <ele>1217.2</ele>
        <time>2013-09-04T16:53:08Z</time>
      </trkpt>
      <trkpt lat="44.11607" lon="6.90427">
        <ele>1215.7</ele>
        <time>2013-09-04T16:53:11Z</time>
      </trkpt>
      <trkpt lat="44.116" lon="6.9043">
        <ele>1214.8</ele>
        <time>2013-09-04T16:53:12Z</time>
      </trkpt>
      <trkpt lat="44.11594" lon="6.90434">
        <ele>1214.3</ele>
        <time>2013-09-04T16:53:13Z</time>
      </trkpt>
      <trkpt lat="44.11589" lon="6.90439">
        <ele>1213.8</ele>
        <time>2013-09-04T16:53:14Z</time>
      </trkpt>
      <trkpt lat="44.11584" lon="6.90443">
        <ele>1213.3</ele>
        <time>2013-09-04T16:53:15Z</time>
      </trkpt>
      <trkpt lat="44.11579" lon="6.90447">
        <ele>1213.3</ele>
        <time>2013-09-04T16:53:16Z</time>
      </trkpt>
      <trkpt lat="44.11574" lon="6.90448">
        <ele>1212.8</ele>
        <time>2013-09-04T16:53:17Z</time>
      </trkpt>
      <trkpt lat="44.11568" lon="6.90447">
        <ele>1212.8</ele>
        <time>2013-09-04T16:53:18Z</time>
      </trkpt>
      <trkpt lat="44.11563" lon="6.90445">
        <ele>1212.4</ele>
        <time>2013-09-04T16:53:19Z</time>
      </trkpt>
      <trkpt lat="44.1156" lon="6.90443">
        <ele>1212.4</ele>
        <time>2013-09-04T16:53:20Z</time>
      </trkpt>
      <trkpt lat="44.11551" lon="6.9044">
        <ele>1211.4</ele>
        <time>2013-09-04T16:53:21Z</time>
      </trkpt>
      <trkpt lat="44.11544" lon="6.90442">
        <ele>1210.9</ele>
        <time>2013-09-04T16:53:22Z</time>
      </trkpt>
      <trkpt lat="44.11538" lon="6.90447">
        <ele>1210</ele>
        <time>2013-09-04T16:53:23Z</time>
      </trkpt>
      <trkpt lat="44.11531" lon="6.90453">
        <ele>1209.5</ele>
        <time>2013-09-04T16:53:24Z</time>
      </trkpt>
      <trkpt lat="44.11525" lon="6.90461">
        <ele>1208.5</ele>
        <time>2013-09-04T16:53:25Z</time>
      </trkpt>
      <trkpt lat="44.11519" lon="6.90467">
        <ele>1208</ele>
        <time>2013-09-04T16:53:26Z</time>
      </trkpt>
      <trkpt lat="44.11512" lon="6.90473">
        <ele>1207.1</ele>
        <time>2013-09-04T16:53:27Z</time>
      </trkpt>
      <trkpt lat="44.11507" lon="6.90477">
        <ele>1206.6</ele>
        <time>2013-09-04T16:53:28Z</time>
      </trkpt>
      <trkpt lat="44.11502" lon="6.9048">
        <ele>1205.2</ele>
        <time>2013-09-04T16:53:29Z</time>
      </trkpt>
      <trkpt lat="44.11499" lon="6.90484">
        <ele>1204.7</ele>
        <time>2013-09-04T16:53:30Z</time>
      </trkpt>
      <trkpt lat="44.11499" lon="6.90489">
        <ele>1204.2</ele>
        <time>2013-09-04T16:53:31Z</time>
      </trkpt>
      <trkpt lat="44.11501" lon="6.90493">
        <ele>1203.7</ele>
        <time>2013-09-04T16:53:32Z</time>
      </trkpt>
      <trkpt lat="44.11506" lon="6.90491">
        <ele>1203.2</ele>
        <time>2013-09-04T16:53:33Z</time>
      </trkpt>
      <trkpt lat="44.1151" lon="6.90487">
        <ele>1202.8</ele>
        <time>2013-09-04T16:53:34Z</time>
      </trkpt>
      <trkpt lat="44.11515" lon="6.90483">
        <ele>1203.2</ele>
        <time>2013-09-04T16:53:35Z</time>
      </trkpt>
      <trkpt lat="44.11538" lon="6.90468">
        <ele>1201.3</ele>
        <time>2013-09-04T16:53:40Z</time>
      </trkpt>
      <trkpt lat="44.1155" lon="6.90464">
        <ele>1199.9</ele>
        <time>2013-09-04T16:53:42Z</time>
      </trkpt>
      <trkpt lat="44.11555" lon="6.90465">
        <ele>1198.9</ele>
        <time>2013-09-04T16:53:43Z</time>
      </trkpt>
      <trkpt lat="44.1156" lon="6.90467">
        <ele>1197.9</ele>
        <time>2013-09-04T16:53:44Z</time>
      </trkpt>
      <trkpt lat="44.11565" lon="6.90473">
        <ele>1197</ele>
        <time>2013-09-04T16:53:45Z</time>
      </trkpt>
      <trkpt lat="44.11571" lon="6.90481">
        <ele>1196</ele>
        <time>2013-09-04T16:53:46Z</time>
      </trkpt>
      <trkpt lat="44.11577" lon="6.90488">
        <ele>1195.1</ele>
        <time>2013-09-04T16:53:47Z</time>
      </trkpt>
      <trkpt lat="44.11582" lon="6.90495">
        <ele>1194.1</ele>
        <time>2013-09-04T16:53:48Z</time>
      </trkpt>
      <trkpt lat="44.11591" lon="6.90508">
        <ele>1192.7</ele>
        <time>2013-09-04T16:53:50Z</time>
      </trkpt>
      <trkpt lat="44.11596" lon="6.90514">
        <ele>1191.7</ele>
        <time>2013-09-04T16:53:51Z</time>
      </trkpt>
      <trkpt lat="44.11602" lon="6.90517">
        <ele>1191.2</ele>
        <time>2013-09-04T16:53:52Z</time>
      </trkpt>
      <trkpt lat="44.1162" lon="6.90526">
        <ele>1188.8</ele>
        <time>2013-09-04T16:53:55Z</time>
      </trkpt>
      <trkpt lat="44.11623" lon="6.90532">
        <ele>1187.9</ele>
        <time>2013-09-04T16:53:56Z</time>
      </trkpt>
      <trkpt lat="44.11623" lon="6.90538">
        <ele>1187.4</ele>
        <time>2013-09-04T16:53:57Z</time>
      </trkpt>
      <trkpt lat="44.11622" lon="6.90545">
        <ele>1186.4</ele>
        <time>2013-09-04T16:53:58Z</time>
      </trkpt>
      <trkpt lat="44.1162" lon="6.90549">
        <ele>1185.9</ele>
        <time>2013-09-04T16:53:59Z</time>
      </trkpt>
      <trkpt lat="44.11617" lon="6.90551">
        <ele>1185.4</ele>
        <time>2013-09-04T16:54:00Z</time>
      </trkpt>
      <trkpt lat="44.11614" lon="6.90552">
        <ele>1185</ele>
        <time>2013-09-04T16:54:01Z</time>
      </trkpt>
      <trkpt lat="44.11613" lon="6.90552">
        <ele>1185</ele>
        <time>2013-09-04T16:54:02Z</time>
      </trkpt>
      <trkpt lat="44.11611" lon="6.90553">
        <ele>1184.5</ele>
        <time>2013-09-04T16:54:03Z</time>
      </trkpt>
      <trkpt lat="44.11596" lon="6.90562">
        <ele>1183</ele>
        <time>2013-09-04T16:54:14Z</time>
      </trkpt>
      <trkpt lat="44.11589" lon="6.90567">
        <ele>1182.1</ele>
        <time>2013-09-04T16:54:16Z</time>
      </trkpt>
      <trkpt lat="44.11585" lon="6.90569">
        <ele>1181.6</ele>
        <time>2013-09-04T16:54:17Z</time>
      </trkpt>
      <trkpt lat="44.11581" lon="6.90569">
        <ele>1181.1</ele>
        <time>2013-09-04T16:54:18Z</time>
      </trkpt>
      <trkpt lat="44.11577" lon="6.90569">
        <ele>1181.1</ele>
        <time>2013-09-04T16:54:19Z</time>
      </trkpt>
      <trkpt lat="44.11574" lon="6.90569">
        <ele>1180.6</ele>
        <time>2013-09-04T16:54:20Z</time>
      </trkpt>
      <trkpt lat="44.1157" lon="6.90569">
        <ele>1179.7</ele>
        <time>2013-09-04T16:54:21Z</time>
      </trkpt>
      <trkpt lat="44.11562" lon="6.90572">
        <ele>1178.2</ele>
        <time>2013-09-04T16:54:25Z</time>
      </trkpt>
      <trkpt lat="44.1156" lon="6.90577">
        <ele>1178.2</ele>
        <time>2013-09-04T16:54:26Z</time>
      </trkpt>
      <trkpt lat="44.1156" lon="6.90582">
        <ele>1178.2</ele>
        <time>2013-09-04T16:54:27Z</time>
      </trkpt>
      <trkpt lat="44.11561" lon="6.90586">
        <ele>1178.2</ele>
        <time>2013-09-04T16:54:28Z</time>
      </trkpt>
      <trkpt lat="44.11563" lon="6.90589">
        <ele>1178.2</ele>
        <time>2013-09-04T16:54:29Z</time>
      </trkpt>
      <trkpt lat="44.11564" lon="6.90591">
        <ele>1178.2</ele>
        <time>2013-09-04T16:54:30Z</time>
      </trkpt>
      <trkpt lat="44.11582" lon="6.90621">
        <ele>1180.6</ele>
        <time>2013-09-04T16:54:46Z</time>
      </trkpt>
      <trkpt lat="44.11599" lon="6.90657">
        <ele>1183</ele>
        <time>2013-09-04T16:55:03Z</time>
      </trkpt>
      <trkpt lat="44.11627" lon="6.9068">
        <ele>1185.9</ele>
        <time>2013-09-04T16:55:19Z</time>
      </trkpt>
      <trkpt lat="44.11655" lon="6.90691">
        <ele>1188.8</ele>
        <time>2013-09-04T16:55:36Z</time>
      </trkpt>
      <trkpt lat="44.11682" lon="6.90714">
        <ele>1189.3</ele>
        <time>2013-09-04T16:55:52Z</time>
      </trkpt>
      <trkpt lat="44.11708" lon="6.90741">
        <ele>1189.8</ele>
        <time>2013-09-04T16:56:07Z</time>
      </trkpt>
      <trkpt lat="44.11727" lon="6.90766">
        <ele>1191.2</ele>
        <time>2013-09-04T16:56:20Z</time>
      </trkpt>
      <trkpt lat="44.11742" lon="6.90794">
        <ele>1192.7</ele>
        <time>2013-09-04T16:56:36Z</time>
      </trkpt>
      <trkpt lat="44.11743" lon="6.90795">
        <ele>1192.7</ele>
        <time>2013-09-04T16:56:38Z</time>
      </trkpt>
      <trkpt lat="44.11743" lon="6.90798">
        <ele>1192.2</ele>
        <time>2013-09-04T16:56:52Z</time>
      </trkpt>
      <trkpt lat="44.11743" lon="6.90801">
        <ele>1192.7</ele>
        <time>2013-09-04T16:57:14Z</time>
      </trkpt>
      <trkpt lat="44.11742" lon="6.90804">
        <ele>1192.7</ele>
        <time>2013-09-04T16:57:20Z</time>
      </trkpt>
      <trkpt lat="44.11742" lon="6.90806">
        <ele>1192.2</ele>
        <time>2013-09-04T16:57:21Z</time>
      </trkpt>
      <trkpt lat="44.11742" lon="6.90808">
        <ele>1192.7</ele>
        <time>2013-09-04T16:57:22Z</time>
      </trkpt>
      <trkpt lat="44.11749" lon="6.90847">
        <ele>1194.6</ele>
        <time>2013-09-04T16:57:36Z</time>
      </trkpt>
      <trkpt lat="44.1175" lon="6.90865">
        <ele>1194.6</ele>
        <time>2013-09-04T16:57:50Z</time>
      </trkpt>
      <trkpt lat="44.11751" lon="6.90868">
        <ele>1194.6</ele>
        <time>2013-09-04T16:58:20Z</time>
      </trkpt>
      <trkpt lat="44.11748" lon="6.90871">
        <ele>1194.6</ele>
        <time>2013-09-04T16:58:58Z</time>
      </trkpt>
      <trkpt lat="44.11748" lon="6.90869">
        <ele>1194.6</ele>
        <time>2013-09-04T16:59:29Z</time>
      </trkpt>
      <trkpt lat="44.1175" lon="6.90869">
        <ele>1194.6</ele>
        <time>2013-09-04T17:00:03Z</time>
      </trkpt>
      <trkpt lat="44.1175" lon="6.90869">
        <ele>1195.1</ele>
        <time>2013-09-04T17:00:34Z</time>
      </trkpt>
      <trkpt lat="44.1175" lon="6.90869">
        <ele>1194.6</ele>
        <time>2013-09-04T17:01:06Z</time>
      </trkpt>
      <trkpt lat="44.11747" lon="6.90893">
        <ele>1195.5</ele>
        <time>2013-09-04T17:01:19Z</time>
      </trkpt>
      <trkpt lat="44.11747" lon="6.90898">
        <ele>1195.5</ele>
        <time>2013-09-04T17:01:23Z</time>
      </trkpt>
      <trkpt lat="44.1174" lon="6.90924">
        <ele>1196.5</ele>
        <time>2013-09-04T17:01:39Z</time>
      </trkpt>
      <trkpt lat="44.11739" lon="6.90932">
        <ele>1196.5</ele>
        <time>2013-09-04T17:01:55Z</time>
      </trkpt>
      <trkpt lat="44.11741" lon="6.90933">
        <ele>1196.5</ele>
        <time>2013-09-04T17:02:13Z</time>
      </trkpt>
      <trkpt lat="44.1174" lon="6.90933">
        <ele>1196.5</ele>
        <time>2013-09-04T17:02:25Z</time>
      </trkpt>
      <trkpt lat="44.11736" lon="6.90929">
        <ele>1196</ele>
        <time>2013-09-04T17:02:57Z</time>
      </trkpt>
      <trkpt lat="44.11735" lon="6.90936">
        <ele>1196</ele>
        <time>2013-09-04T17:03:25Z</time>
      </trkpt>
      <trkpt lat="44.11724" lon="6.9097">
        <ele>1197.5</ele>
        <time>2013-09-04T17:03:38Z</time>
      </trkpt>
      <trkpt lat="44.11705" lon="6.91009">
        <ele>1199.4</ele>
        <time>2013-09-04T17:03:55Z</time>
      </trkpt>
      <trkpt lat="44.11695" lon="6.91052">
        <ele>1200.8</ele>
        <time>2013-09-04T17:04:09Z</time>
      </trkpt>
      <trkpt lat="44.11715" lon="6.91099">
        <ele>1202.8</ele>
        <time>2013-09-04T17:04:26Z</time>
      </trkpt>
      <trkpt lat="44.11724" lon="6.9114">
        <ele>1204.7</ele>
        <time>2013-09-04T17:04:45Z</time>
      </trkpt>
      <trkpt lat="44.11718" lon="6.91144">
        <ele>1204.7</ele>
        <time>2013-09-04T17:05:02Z</time>
      </trkpt>
      <trkpt lat="44.11709" lon="6.91151">
        <ele>1204.7</ele>
        <time>2013-09-04T17:05:19Z</time>
      </trkpt>
      <trkpt lat="44.11701" lon="6.91161">
        <ele>1204.2</ele>
        <time>2013-09-04T17:05:39Z</time>
      </trkpt>
      <trkpt lat="44.11702" lon="6.91164">
        <ele>1204.7</ele>
        <time>2013-09-04T17:06:04Z</time>
      </trkpt>
      <trkpt lat="44.11701" lon="6.91164">
        <ele>1204.7</ele>
        <time>2013-09-04T17:06:09Z</time>
      </trkpt>
      <trkpt lat="44.11698" lon="6.91165">
        <ele>1188.8</ele>
        <time>2013-09-05T06:49:27Z</time>
      </trkpt>
      <trkpt lat="44.11698" lon="6.91166">
        <ele>1188.8</ele>
        <time>2013-09-05T06:49:28Z</time>
      </trkpt>
      <trkpt lat="44.11699" lon="6.91186">
        <ele>1189.8</ele>
        <time>2013-09-05T06:49:38Z</time>
      </trkpt>
      <trkpt lat="44.11694" lon="6.91212">
        <ele>1191.7</ele>
        <time>2013-09-05T06:49:54Z</time>
      </trkpt>
      <trkpt lat="44.11685" lon="6.91241">
        <ele>1192.7</ele>
        <time>2013-09-05T06:50:07Z</time>
      </trkpt>
      <trkpt lat="44.11686" lon="6.9127">
        <ele>1195.1</ele>
        <time>2013-09-05T06:50:21Z</time>
      </trkpt>
      <trkpt lat="44.11698" lon="6.91312">
        <ele>1197.5</ele>
        <time>2013-09-05T06:50:38Z</time>
      </trkpt>
      <trkpt lat="44.11716" lon="6.91345">
        <ele>1200.3</ele>
        <time>2013-09-05T06:50:56Z</time>
      </trkpt>
      <trkpt lat="44.11728" lon="6.91397">
        <ele>1202.3</ele>
        <time>2013-09-05T06:51:14Z</time>
      </trkpt>
      <trkpt lat="44.11725" lon="6.9144">
        <ele>1204.7</ele>
        <time>2013-09-05T06:51:26Z</time>
      </trkpt>
      <trkpt lat="44.11708" lon="6.91497">
        <ele>1206.6</ele>
        <time>2013-09-05T06:51:41Z</time>
      </trkpt>
      <trkpt lat="44.11692" lon="6.91527">
        <ele>1209</ele>
        <time>2013-09-05T06:51:55Z</time>
      </trkpt>
      <trkpt lat="44.11668" lon="6.91557">
        <ele>1211.4</ele>
        <time>2013-09-05T06:52:10Z</time>
      </trkpt>
      <trkpt lat="44.11648" lon="6.91583">
        <ele>1213.3</ele>
        <time>2013-09-05T06:52:24Z</time>
      </trkpt>
      <trkpt lat="44.11633" lon="6.916">
        <ele>1215.7</ele>
        <time>2013-09-05T06:52:28Z</time>
      </trkpt>
      <trkpt lat="44.11618" lon="6.9163">
        <ele>1218.6</ele>
        <time>2013-09-05T06:52:41Z</time>
      </trkpt>
      <trkpt lat="44.11594" lon="6.91653">
        <ele>1221</ele>
        <time>2013-09-05T06:52:55Z</time>
      </trkpt>
      <trkpt lat="44.11574" lon="6.91691">
        <ele>1223.9</ele>
        <time>2013-09-05T06:53:13Z</time>
      </trkpt>
      <trkpt lat="44.11571" lon="6.91715">
        <ele>1225.8</ele>
        <time>2013-09-05T06:53:22Z</time>
      </trkpt>
      <trkpt lat="44.11568" lon="6.91753">
        <ele>1228.7</ele>
        <time>2013-09-05T06:53:37Z</time>
      </trkpt>
      <trkpt lat="44.11562" lon="6.91806">
        <ele>1230.6</ele>
        <time>2013-09-05T06:53:54Z</time>
      </trkpt>
      <trkpt lat="44.11543" lon="6.91846">
        <ele>1234.5</ele>
        <time>2013-09-05T06:54:10Z</time>
      </trkpt>
      <trkpt lat="44.11529" lon="6.91888">
        <ele>1237.4</ele>
        <time>2013-09-05T06:54:28Z</time>
      </trkpt>
      <trkpt lat="44.11525" lon="6.91928">
        <ele>1240.2</ele>
        <time>2013-09-05T06:54:43Z</time>
      </trkpt>
      <trkpt lat="44.11521" lon="6.91972">
        <ele>1242.2</ele>
        <time>2013-09-05T06:54:59Z</time>
      </trkpt>
      <trkpt lat="44.11516" lon="6.92018">
        <ele>1245</ele>
        <time>2013-09-05T06:55:15Z</time>
      </trkpt>
      <trkpt lat="44.11511" lon="6.92076">
        <ele>1247.9</ele>
        <time>2013-09-05T06:55:34Z</time>
      </trkpt>
      <trkpt lat="44.11505" lon="6.92131">
        <ele>1250.8</ele>
        <time>2013-09-05T06:55:52Z</time>
      </trkpt>
      <trkpt lat="44.11503" lon="6.92167">
        <ele>1252.7</ele>
        <time>2013-09-05T06:56:05Z</time>
      </trkpt>
      <trkpt lat="44.11501" lon="6.92215">
        <ele>1255.1</ele>
        <time>2013-09-05T06:56:21Z</time>
      </trkpt>
      <trkpt lat="44.11482" lon="6.92244">
        <ele>1257.5</ele>
        <time>2013-09-05T06:56:35Z</time>
      </trkpt>
      <trkpt lat="44.11449" lon="6.92239">
        <ele>1259.9</ele>
        <time>2013-09-05T06:56:50Z</time>
      </trkpt>
      <trkpt lat="44.1144" lon="6.92225">
        <ele>1259.9</ele>
        <time>2013-09-05T06:56:54Z</time>
      </trkpt>
      <trkpt lat="44.11436" lon="6.9217">
        <ele>1261.9</ele>
        <time>2013-09-05T06:57:09Z</time>
      </trkpt>
      <trkpt lat="44.11428" lon="6.92122">
        <ele>1264.8</ele>
        <time>2013-09-05T06:57:25Z</time>
      </trkpt>
      <trkpt lat="44.11419" lon="6.92065">
        <ele>1267.6</ele>
        <time>2013-09-05T06:57:45Z</time>
      </trkpt>
      <trkpt lat="44.11411" lon="6.92045">
        <ele>1268.6</ele>
        <time>2013-09-05T06:57:53Z</time>
      </trkpt>
      <trkpt lat="44.11399" lon="6.92001">
        <ele>1271</ele>
        <time>2013-09-05T06:58:10Z</time>
      </trkpt>
      <trkpt lat="44.11391" lon="6.91959">
        <ele>1273.4</ele>
        <time>2013-09-05T06:58:23Z</time>
      </trkpt>
      <trkpt lat="44.11384" lon="6.91916">
        <ele>1275.3</ele>
        <time>2013-09-05T06:58:38Z</time>
      </trkpt>
      <trkpt lat="44.11379" lon="6.91875">
        <ele>1278.2</ele>
        <time>2013-09-05T06:58:51Z</time>
      </trkpt>
      <trkpt lat="44.1137" lon="6.91826">
        <ele>1280.1</ele>
        <time>2013-09-05T06:59:06Z</time>
      </trkpt>
      <trkpt lat="44.1138" lon="6.91793">
        <ele>1282.5</ele>
        <time>2013-09-05T06:59:20Z</time>
      </trkpt>
      <trkpt lat="44.11412" lon="6.9178">
        <ele>1284</ele>
        <time>2013-09-05T06:59:27Z</time>
      </trkpt>
      <trkpt lat="44.11411" lon="6.9178">
        <ele>1284</ele>
        <time>2013-09-05T06:59:28Z</time>
      </trkpt>
      <trkpt lat="44.11413" lon="6.91776">
        <ele>1284.9</ele>
        <time>2013-09-05T06:59:30Z</time>
      </trkpt>
      <trkpt lat="44.11417" lon="6.91736">
        <ele>1286.4</ele>
        <time>2013-09-05T06:59:43Z</time>
      </trkpt>
      <trkpt lat="44.11416" lon="6.91711">
        <ele>1287.8</ele>
        <time>2013-09-05T06:59:54Z</time>
      </trkpt>
      <trkpt lat="44.11415" lon="6.91712">
        <ele>1288.3</ele>
        <time>2013-09-05T06:59:55Z</time>
      </trkpt>
      <trkpt lat="44.11414" lon="6.91715">
        <ele>1287.8</ele>
        <time>2013-09-05T06:59:56Z</time>
      </trkpt>
      <trkpt lat="44.11415" lon="6.91743">
        <ele>1289.3</ele>
        <time>2013-09-05T07:00:04Z</time>
      </trkpt>
      <trkpt lat="44.11414" lon="6.91764">
        <ele>1291.2</ele>
        <time>2013-09-05T07:00:13Z</time>
      </trkpt>
      <trkpt lat="44.11412" lon="6.91766">
        <ele>1291.2</ele>
        <time>2013-09-05T07:00:14Z</time>
      </trkpt>
      <trkpt lat="44.1141" lon="6.91766">
        <ele>1291.7</ele>
        <time>2013-09-05T07:00:15Z</time>
      </trkpt>
      <trkpt lat="44.11397" lon="6.91766">
        <ele>1292.6</ele>
        <time>2013-09-05T07:00:24Z</time>
      </trkpt>
      <trkpt lat="44.1139" lon="6.91776">
        <ele>1293.1</ele>
        <time>2013-09-05T07:00:29Z</time>
      </trkpt>
      <trkpt lat="44.11388" lon="6.91809">
        <ele>1295</ele>
        <time>2013-09-05T07:00:40Z</time>
      </trkpt>
      <trkpt lat="44.1139" lon="6.91845">
        <ele>1297</ele>
        <time>2013-09-05T07:00:51Z</time>
      </trkpt>
      <trkpt lat="44.1138" lon="6.9187">
        <ele>1297.9</ele>
        <time>2013-09-05T07:01:01Z</time>
      </trkpt>
      <trkpt lat="44.11372" lon="6.91905">
        <ele>1299.8</ele>
        <time>2013-09-05T07:01:12Z</time>
      </trkpt>
      <trkpt lat="44.11374" lon="6.91943">
        <ele>1302.2</ele>
        <time>2013-09-05T07:01:24Z</time>
      </trkpt>
      <trkpt lat="44.11363" lon="6.91989">
        <ele>1304.2</ele>
        <time>2013-09-05T07:01:38Z</time>
      </trkpt>
      <trkpt lat="44.11367" lon="6.92038">
        <ele>1306.6</ele>
        <time>2013-09-05T07:01:53Z</time>
      </trkpt>
      <trkpt lat="44.1137" lon="6.92079">
        <ele>1308</ele>
        <time>2013-09-05T07:02:06Z</time>
      </trkpt>
      <trkpt lat="44.1137" lon="6.92104">
        <ele>1309.9</ele>
        <time>2013-09-05T07:02:15Z</time>
      </trkpt>
      <trkpt lat="44.11366" lon="6.9213">
        <ele>1310.9</ele>
        <time>2013-09-05T07:02:24Z</time>
      </trkpt>
      <trkpt lat="44.11365" lon="6.92133">
        <ele>1311.4</ele>
        <time>2013-09-05T07:02:28Z</time>
      </trkpt>
      <trkpt lat="44.11364" lon="6.9213">
        <ele>1311.9</ele>
        <time>2013-09-05T07:02:29Z</time>
      </trkpt>
      <trkpt lat="44.11359" lon="6.92084">
        <ele>1314.3</ele>
        <time>2013-09-05T07:02:43Z</time>
      </trkpt>
      <trkpt lat="44.11349" lon="6.92036">
        <ele>1316.2</ele>
        <time>2013-09-05T07:02:57Z</time>
      </trkpt>
      <trkpt lat="44.11338" lon="6.92">
        <ele>1319.1</ele>
        <time>2013-09-05T07:03:10Z</time>
      </trkpt>
      <trkpt lat="44.1133" lon="6.91946">
        <ele>1321.5</ele>
        <time>2013-09-05T07:03:26Z</time>
      </trkpt>
      <trkpt lat="44.11309" lon="6.91907">
        <ele>1323.4</ele>
        <time>2013-09-05T07:03:38Z</time>
      </trkpt>
      <trkpt lat="44.11303" lon="6.91852">
        <ele>1325.8</ele>
        <time>2013-09-05T07:03:54Z</time>
      </trkpt>
      <trkpt lat="44.11314" lon="6.91821">
        <ele>1328.2</ele>
        <time>2013-09-05T07:04:05Z</time>
      </trkpt>
      <trkpt lat="44.11314" lon="6.91811">
        <ele>1328.7</ele>
        <time>2013-09-05T07:04:08Z</time>
      </trkpt>
      <trkpt lat="44.11314" lon="6.91808">
        <ele>1328.7</ele>
        <time>2013-09-05T07:04:09Z</time>
      </trkpt>
      <trkpt lat="44.11312" lon="6.91762">
        <ele>1331.1</ele>
        <time>2013-09-05T07:04:23Z</time>
      </trkpt>
      <trkpt lat="44.1131" lon="6.91725">
        <ele>1333</ele>
        <time>2013-09-05T07:04:33Z</time>
      </trkpt>
      <trkpt lat="44.11333" lon="6.91699">
        <ele>1334.9</ele>
        <time>2013-09-05T07:04:44Z</time>
      </trkpt>
      <trkpt lat="44.11342" lon="6.91662">
        <ele>1336.9</ele>
        <time>2013-09-05T07:04:56Z</time>
      </trkpt>
      <trkpt lat="44.11349" lon="6.91627">
        <ele>1338.8</ele>
        <time>2013-09-05T07:05:07Z</time>
      </trkpt>
      <trkpt lat="44.11361" lon="6.91574">
        <ele>1341.2</ele>
        <time>2013-09-05T07:05:23Z</time>
      </trkpt>
      <trkpt lat="44.11372" lon="6.91546">
        <ele>1342.6</ele>
        <time>2013-09-05T07:05:33Z</time>
      </trkpt>
      <trkpt lat="44.11372" lon="6.91545">
        <ele>1343.1</ele>
        <time>2013-09-05T07:05:34Z</time>
      </trkpt>
      <trkpt lat="44.1137" lon="6.91546">
        <ele>1343.1</ele>
        <time>2013-09-05T07:05:36Z</time>
      </trkpt>
      <trkpt lat="44.1137" lon="6.91548">
        <ele>1343.6</ele>
        <time>2013-09-05T07:05:37Z</time>
      </trkpt>
      <trkpt lat="44.1137" lon="6.91549">
        <ele>1343.6</ele>
        <time>2013-09-05T07:05:38Z</time>
      </trkpt>
      <trkpt lat="44.11369" lon="6.91551">
        <ele>1343.6</ele>
        <time>2013-09-05T07:05:39Z</time>
      </trkpt>
      <trkpt lat="44.11349" lon="6.91586">
        <ele>1345.5</ele>
        <time>2013-09-05T07:05:52Z</time>
      </trkpt>
      <trkpt lat="44.11327" lon="6.91638">
        <ele>1348.9</ele>
        <time>2013-09-05T07:06:10Z</time>
      </trkpt>
      <trkpt lat="44.11308" lon="6.91672">
        <ele>1350.3</ele>
        <time>2013-09-05T07:06:23Z</time>
      </trkpt>
      <trkpt lat="44.11289" lon="6.91686">
        <ele>1351.8</ele>
        <time>2013-09-05T07:06:33Z</time>
      </trkpt>
      <trkpt lat="44.11284" lon="6.91701">
        <ele>1352.2</ele>
        <time>2013-09-05T07:06:37Z</time>
      </trkpt>
      <trkpt lat="44.11283" lon="6.91705">
        <ele>1352.2</ele>
        <time>2013-09-05T07:06:38Z</time>
      </trkpt>
      <trkpt lat="44.11278" lon="6.91747">
        <ele>1354.6</ele>
        <time>2013-09-05T07:06:50Z</time>
      </trkpt>
      <trkpt lat="44.11278" lon="6.9179">
        <ele>1357</ele>
        <time>2013-09-05T07:07:03Z</time>
      </trkpt>
      <trkpt lat="44.11278" lon="6.91793">
        <ele>1357.5</ele>
        <time>2013-09-05T07:07:04Z</time>
      </trkpt>
      <trkpt lat="44.11277" lon="6.91796">
        <ele>1357.5</ele>
        <time>2013-09-05T07:07:05Z</time>
      </trkpt>
      <trkpt lat="44.11276" lon="6.91797">
        <ele>1358</ele>
        <time>2013-09-05T07:07:06Z</time>
      </trkpt>
      <trkpt lat="44.11275" lon="6.91795">
        <ele>1358</ele>
        <time>2013-09-05T07:07:07Z</time>
      </trkpt>
      <trkpt lat="44.11275" lon="6.91792">
        <ele>1358.5</ele>
        <time>2013-09-05T07:07:08Z</time>
      </trkpt>
      <trkpt lat="44.11275" lon="6.9179">
        <ele>1359</ele>
        <time>2013-09-05T07:07:09Z</time>
      </trkpt>
      <trkpt lat="44.11277" lon="6.91742">
        <ele>1360.9</ele>
        <time>2013-09-05T07:07:23Z</time>
      </trkpt>
      <trkpt lat="44.11272" lon="6.91698">
        <ele>1362.8</ele>
        <time>2013-09-05T07:07:37Z</time>
      </trkpt>
      <trkpt lat="44.11289" lon="6.91668">
        <ele>1364.7</ele>
        <time>2013-09-05T07:07:48Z</time>
      </trkpt>
      <trkpt lat="44.11294" lon="6.91662">
        <ele>1365.7</ele>
        <time>2013-09-05T07:07:51Z</time>
      </trkpt>
      <trkpt lat="44.11296" lon="6.91659">
        <ele>1365.7</ele>
        <time>2013-09-05T07:07:52Z</time>
      </trkpt>
      <trkpt lat="44.11305" lon="6.9162">
        <ele>1367.6</ele>
        <time>2013-09-05T07:08:05Z</time>
      </trkpt>
      <trkpt lat="44.11319" lon="6.91578">
        <ele>1370</ele>
        <time>2013-09-05T07:08:18Z</time>
      </trkpt>
      <trkpt lat="44.11326" lon="6.91542">
        <ele>1371.5</ele>
        <time>2013-09-05T07:08:29Z</time>
      </trkpt>
      <trkpt lat="44.11328" lon="6.91539">
        <ele>1371.9</ele>
        <time>2013-09-05T07:08:30Z</time>
      </trkpt>
      <trkpt lat="44.1133" lon="6.91537">
        <ele>1371.9</ele>
        <time>2013-09-05T07:08:31Z</time>
      </trkpt>
      <trkpt lat="44.11358" lon="6.91503">
        <ele>1374.8</ele>
        <time>2013-09-05T07:08:45Z</time>
      </trkpt>
      <trkpt lat="44.11363" lon="6.91466">
        <ele>1376.8</ele>
        <time>2013-09-05T07:08:58Z</time>
      </trkpt>
      <trkpt lat="44.11368" lon="6.91428">
        <ele>1378.7</ele>
        <time>2013-09-05T07:09:11Z</time>
      </trkpt>
      <trkpt lat="44.11389" lon="6.91399">
        <ele>1381.1</ele>
        <time>2013-09-05T07:09:23Z</time>
      </trkpt>
      <trkpt lat="44.1141" lon="6.91367">
        <ele>1383.5</ele>
        <time>2013-09-05T07:09:38Z</time>
      </trkpt>
      <trkpt lat="44.11399" lon="6.91321">
        <ele>1386.4</ele>
        <time>2013-09-05T07:09:52Z</time>
      </trkpt>
      <trkpt lat="44.11379" lon="6.91289">
        <ele>1388.3</ele>
        <time>2013-09-05T07:10:05Z</time>
      </trkpt>
      <trkpt lat="44.1136" lon="6.91253">
        <ele>1390.2</ele>
        <time>2013-09-05T07:10:18Z</time>
      </trkpt>
      <trkpt lat="44.11357" lon="6.91242">
        <ele>1391.2</ele>
        <time>2013-09-05T07:10:22Z</time>
      </trkpt>
      <trkpt lat="44.11355" lon="6.91239">
        <ele>1391.2</ele>
        <time>2013-09-05T07:10:23Z</time>
      </trkpt>
      <trkpt lat="44.11354" lon="6.91236">
        <ele>1391.7</ele>
        <time>2013-09-05T07:10:24Z</time>
      </trkpt>
      <trkpt lat="44.11352" lon="6.91232">
        <ele>1391.7</ele>
        <time>2013-09-05T07:10:25Z</time>
      </trkpt>
      <trkpt lat="44.1135" lon="6.91229">
        <ele>1391.7</ele>
        <time>2013-09-05T07:10:26Z</time>
      </trkpt>
      <trkpt lat="44.11337" lon="6.91211">
        <ele>1393.1</ele>
        <time>2013-09-05T07:10:33Z</time>
      </trkpt>
      <trkpt lat="44.11335" lon="6.91212">
        <ele>1393.1</ele>
        <time>2013-09-05T07:10:34Z</time>
      </trkpt>
      <trkpt lat="44.11333" lon="6.91215">
        <ele>1392.6</ele>
        <time>2013-09-05T07:10:35Z</time>
      </trkpt>
      <trkpt lat="44.11333" lon="6.91217">
        <ele>1393.1</ele>
        <time>2013-09-05T07:10:36Z</time>
      </trkpt>
      <trkpt lat="44.11333" lon="6.91219">
        <ele>1393.6</ele>
        <time>2013-09-05T07:10:37Z</time>
      </trkpt>
      <trkpt lat="44.11333" lon="6.91221">
        <ele>1393.6</ele>
        <time>2013-09-05T07:10:38Z</time>
      </trkpt>
      <trkpt lat="44.11335" lon="6.91225">
        <ele>1394.1</ele>
        <time>2013-09-05T07:10:39Z</time>
      </trkpt>
      <trkpt lat="44.11336" lon="6.91228">
        <ele>1394.1</ele>
        <time>2013-09-05T07:10:40Z</time>
      </trkpt>
      <trkpt lat="44.11338" lon="6.91231">
        <ele>1394.1</ele>
        <time>2013-09-05T07:10:41Z</time>
      </trkpt>
      <trkpt lat="44.1134" lon="6.91234">
        <ele>1394.1</ele>
        <time>2013-09-05T07:10:42Z</time>
      </trkpt>
      <trkpt lat="44.11353" lon="6.91274">
        <ele>1396</ele>
        <time>2013-09-05T07:10:54Z</time>
      </trkpt>
      <trkpt lat="44.11372" lon="6.91303">
        <ele>1398.4</ele>
        <time>2013-09-05T07:11:05Z</time>
      </trkpt>
      <trkpt lat="44.11382" lon="6.9134">
        <ele>1400.3</ele>
        <time>2013-09-05T07:11:17Z</time>
      </trkpt>
      <trkpt lat="44.11365" lon="6.91362">
        <ele>1401.7</ele>
        <time>2013-09-05T07:11:27Z</time>
      </trkpt>
      <trkpt lat="44.11349" lon="6.91387">
        <ele>1403.7</ele>
        <time>2013-09-05T07:11:38Z</time>
      </trkpt>
      <trkpt lat="44.11336" lon="6.91428">
        <ele>1405.6</ele>
        <time>2013-09-05T07:11:50Z</time>
      </trkpt>
      <trkpt lat="44.1131" lon="6.91458">
        <ele>1408.5</ele>
        <time>2013-09-05T07:12:03Z</time>
      </trkpt>
      <trkpt lat="44.11286" lon="6.9149">
        <ele>1410.9</ele>
        <time>2013-09-05T07:12:16Z</time>
      </trkpt>
      <trkpt lat="44.11254" lon="6.91528">
        <ele>1413.8</ele>
        <time>2013-09-05T07:12:31Z</time>
      </trkpt>
      <trkpt lat="44.11217" lon="6.91549">
        <ele>1416.2</ele>
        <time>2013-09-05T07:12:46Z</time>
      </trkpt>
      <trkpt lat="44.11198" lon="6.91594">
        <ele>1419.5</ele>
        <time>2013-09-05T07:13:01Z</time>
      </trkpt>
      <trkpt lat="44.1119" lon="6.91636">
        <ele>1421.5</ele>
        <time>2013-09-05T07:13:14Z</time>
      </trkpt>
      <trkpt lat="44.11193" lon="6.9168">
        <ele>1423.4</ele>
        <time>2013-09-05T07:13:26Z</time>
      </trkpt>
      <trkpt lat="44.112" lon="6.91702">
        <ele>1424.3</ele>
        <time>2013-09-05T07:13:32Z</time>
      </trkpt>
      <trkpt lat="44.112" lon="6.91705">
        <ele>1424.8</ele>
        <time>2013-09-05T07:13:33Z</time>
      </trkpt>
      <trkpt lat="44.11199" lon="6.91708">
        <ele>1424.3</ele>
        <time>2013-09-05T07:13:34Z</time>
      </trkpt>
      <trkpt lat="44.11197" lon="6.91708">
        <ele>1425.3</ele>
        <time>2013-09-05T07:13:35Z</time>
      </trkpt>
      <trkpt lat="44.11196" lon="6.91706">
        <ele>1425.3</ele>
        <time>2013-09-05T07:13:36Z</time>
      </trkpt>
      <trkpt lat="44.11195" lon="6.91703">
        <ele>1425.8</ele>
        <time>2013-09-05T07:13:37Z</time>
      </trkpt>
      <trkpt lat="44.11194" lon="6.917">
        <ele>1425.8</ele>
        <time>2013-09-05T07:13:38Z</time>
      </trkpt>
      <trkpt lat="44.11187" lon="6.91643">
        <ele>1428.2</ele>
        <time>2013-09-05T07:13:55Z</time>
      </trkpt>
      <trkpt lat="44.11179" lon="6.91592">
        <ele>1431.1</ele>
        <time>2013-09-05T07:14:10Z</time>
      </trkpt>
      <trkpt lat="44.1117" lon="6.9156">
        <ele>1432.5</ele>
        <time>2013-09-05T07:14:20Z</time>
      </trkpt>
      <trkpt lat="44.11168" lon="6.91559">
        <ele>1432.5</ele>
        <time>2013-09-05T07:14:21Z</time>
      </trkpt>
      <trkpt lat="44.11166" lon="6.9156">
        <ele>1433</ele>
        <time>2013-09-05T07:14:22Z</time>
      </trkpt>
      <trkpt lat="44.11164" lon="6.91562">
        <ele>1433</ele>
        <time>2013-09-05T07:14:23Z</time>
      </trkpt>
      <trkpt lat="44.11159" lon="6.91571">
        <ele>1433.5</ele>
        <time>2013-09-05T07:14:26Z</time>
      </trkpt>
      <trkpt lat="44.11159" lon="6.91575">
        <ele>1433.5</ele>
        <time>2013-09-05T07:14:27Z</time>
      </trkpt>
      <trkpt lat="44.1117" lon="6.91636">
        <ele>1435.9</ele>
        <time>2013-09-05T07:14:43Z</time>
      </trkpt>
      <trkpt lat="44.11169" lon="6.91688">
        <ele>1438.8</ele>
        <time>2013-09-05T07:14:57Z</time>
      </trkpt>
      <trkpt lat="44.11176" lon="6.91733">
        <ele>1440.2</ele>
        <time>2013-09-05T07:15:09Z</time>
      </trkpt>
      <trkpt lat="44.11174" lon="6.91738">
        <ele>1440.2</ele>
        <time>2013-09-05T07:15:11Z</time>
      </trkpt>
      <trkpt lat="44.11172" lon="6.91738">
        <ele>1440.2</ele>
        <time>2013-09-05T07:15:12Z</time>
      </trkpt>
      <trkpt lat="44.11171" lon="6.91736">
        <ele>1440.7</ele>
        <time>2013-09-05T07:15:13Z</time>
      </trkpt>
      <trkpt lat="44.11166" lon="6.91691">
        <ele>1442.1</ele>
        <time>2013-09-05T07:15:25Z</time>
      </trkpt>
      <trkpt lat="44.11155" lon="6.91636">
        <ele>1445</ele>
        <time>2013-09-05T07:15:40Z</time>
      </trkpt>
      <trkpt lat="44.11141" lon="6.91593">
        <ele>1447.9</ele>
        <time>2013-09-05T07:15:54Z</time>
      </trkpt>
      <trkpt lat="44.11127" lon="6.91547">
        <ele>1450.8</ele>
        <time>2013-09-05T07:16:08Z</time>
      </trkpt>
      <trkpt lat="44.11096" lon="6.9151">
        <ele>1453.2</ele>
        <time>2013-09-05T07:16:22Z</time>
      </trkpt>
      <trkpt lat="44.11059" lon="6.91507">
        <ele>1456.1</ele>
        <time>2013-09-05T07:16:37Z</time>
      </trkpt>
      <trkpt lat="44.11021" lon="6.91481">
        <ele>1459.4</ele>
        <time>2013-09-05T07:16:55Z</time>
      </trkpt>
      <trkpt lat="44.1098" lon="6.91477">
        <ele>1461.3</ele>
        <time>2013-09-05T07:17:11Z</time>
      </trkpt>
      <trkpt lat="44.10944" lon="6.91482">
        <ele>1464.7</ele>
        <time>2013-09-05T07:17:27Z</time>
      </trkpt>
      <trkpt lat="44.10907" lon="6.91493">
        <ele>1467.6</ele>
        <time>2013-09-05T07:17:43Z</time>
      </trkpt>
      <trkpt lat="44.10881" lon="6.91523">
        <ele>1469.5</ele>
        <time>2013-09-05T07:17:57Z</time>
      </trkpt>
      <trkpt lat="44.10857" lon="6.91569">
        <ele>1472.4</ele>
        <time>2013-09-05T07:18:14Z</time>
      </trkpt>
      <trkpt lat="44.10835" lon="6.91616">
        <ele>1475.3</ele>
        <time>2013-09-05T07:18:31Z</time>
      </trkpt>
      <trkpt lat="44.10819" lon="6.91643">
        <ele>1476.7</ele>
        <time>2013-09-05T07:18:43Z</time>
      </trkpt>
      <trkpt lat="44.108" lon="6.91646">
        <ele>1477.2</ele>
        <time>2013-09-05T07:18:55Z</time>
      </trkpt>
      <trkpt lat="44.10785" lon="6.91653">
        <ele>1479.1</ele>
        <time>2013-09-05T07:19:04Z</time>
      </trkpt>
      <trkpt lat="44.10761" lon="6.91647">
        <ele>1481.1</ele>
        <time>2013-09-05T07:19:16Z</time>
      </trkpt>
      <trkpt lat="44.10733" lon="6.91634">
        <ele>1483</ele>
        <time>2013-09-05T07:19:31Z</time>
      </trkpt>
      <trkpt lat="44.10705" lon="6.91598">
        <ele>1485.4</ele>
        <time>2013-09-05T07:19:48Z</time>
      </trkpt>
      <trkpt lat="44.10705" lon="6.91551">
        <ele>1488.3</ele>
        <time>2013-09-05T07:20:03Z</time>
      </trkpt>
      <trkpt lat="44.10695" lon="6.91515">
        <ele>1490.2</ele>
        <time>2013-09-05T07:20:15Z</time>
      </trkpt>
      <trkpt lat="44.10692" lon="6.91514">
        <ele>1490.2</ele>
        <time>2013-09-05T07:20:16Z</time>
      </trkpt>
      <trkpt lat="44.1069" lon="6.91514">
        <ele>1490.2</ele>
        <time>2013-09-05T07:20:17Z</time>
      </trkpt>
      <trkpt lat="44.10688" lon="6.91514">
        <ele>1490.2</ele>
        <time>2013-09-05T07:20:18Z</time>
      </trkpt>
      <trkpt lat="44.10686" lon="6.91516">
        <ele>1490.7</ele>
        <time>2013-09-05T07:20:19Z</time>
      </trkpt>
      <trkpt lat="44.10684" lon="6.91518">
        <ele>1490.7</ele>
        <time>2013-09-05T07:20:20Z</time>
      </trkpt>
      <trkpt lat="44.10682" lon="6.9152">
        <ele>1491.1</ele>
        <time>2013-09-05T07:20:21Z</time>
      </trkpt>
      <trkpt lat="44.1068" lon="6.91523">
        <ele>1491.1</ele>
        <time>2013-09-05T07:20:22Z</time>
      </trkpt>
      <trkpt lat="44.10654" lon="6.91567">
        <ele>1494.5</ele>
        <time>2013-09-05T07:20:39Z</time>
      </trkpt>
      <trkpt lat="44.10634" lon="6.91607">
        <ele>1497.4</ele>
        <time>2013-09-05T07:20:54Z</time>
      </trkpt>
      <trkpt lat="44.10653" lon="6.91643">
        <ele>1499.3</ele>
        <time>2013-09-05T07:21:07Z</time>
      </trkpt>
      <trkpt lat="44.10679" lon="6.91677">
        <ele>1499.8</ele>
        <time>2013-09-05T07:21:20Z</time>
      </trkpt>
      <trkpt lat="44.10705" lon="6.91694">
        <ele>1502.7</ele>
        <time>2013-09-05T07:21:31Z</time>
      </trkpt>
      <trkpt lat="44.1075" lon="6.9171">
        <ele>1505.6</ele>
        <time>2013-09-05T07:21:48Z</time>
      </trkpt>
      <trkpt lat="44.10784" lon="6.91724">
        <ele>1508.9</ele>
        <time>2013-09-05T07:22:02Z</time>
      </trkpt>
      <trkpt lat="44.10809" lon="6.91738">
        <ele>1509.9</ele>
        <time>2013-09-05T07:22:13Z</time>
      </trkpt>
      <trkpt lat="44.10842" lon="6.91762">
        <ele>1512.3</ele>
        <time>2013-09-05T07:22:28Z</time>
      </trkpt>
      <trkpt lat="44.10865" lon="6.91776">
        <ele>1513.7</ele>
        <time>2013-09-05T07:22:37Z</time>
      </trkpt>
      <trkpt lat="44.10865" lon="6.91779">
        <ele>1513.7</ele>
        <time>2013-09-05T07:22:38Z</time>
      </trkpt>
      <trkpt lat="44.10864" lon="6.91782">
        <ele>1513.7</ele>
        <time>2013-09-05T07:22:39Z</time>
      </trkpt>
      <trkpt lat="44.10862" lon="6.91784">
        <ele>1513.7</ele>
        <time>2013-09-05T07:22:40Z</time>
      </trkpt>
      <trkpt lat="44.10859" lon="6.91783">
        <ele>1514.7</ele>
        <time>2013-09-05T07:22:41Z</time>
      </trkpt>
      <trkpt lat="44.10856" lon="6.91783">
        <ele>1514.7</ele>
        <time>2013-09-05T07:22:42Z</time>
      </trkpt>
      <trkpt lat="44.10853" lon="6.91781">
        <ele>1514.7</ele>
        <time>2013-09-05T07:22:43Z</time>
      </trkpt>
      <trkpt lat="44.10851" lon="6.9178">
        <ele>1514.2</ele>
        <time>2013-09-05T07:22:44Z</time>
      </trkpt>
      <trkpt lat="44.10805" lon="6.91754">
        <ele>1517.1</ele>
        <time>2013-09-05T07:23:01Z</time>
      </trkpt>
      <trkpt lat="44.10766" lon="6.91753">
        <ele>1519.5</ele>
        <time>2013-09-05T07:23:16Z</time>
      </trkpt>
      <trkpt lat="44.1073" lon="6.91767">
        <ele>1522.4</ele>
        <time>2013-09-05T07:23:32Z</time>
      </trkpt>
      <trkpt lat="44.10714" lon="6.91781">
        <ele>1523.8</ele>
        <time>2013-09-05T07:23:40Z</time>
      </trkpt>
      <trkpt lat="44.10713" lon="6.91783">
        <ele>1523.8</ele>
        <time>2013-09-05T07:23:41Z</time>
      </trkpt>
      <trkpt lat="44.10696" lon="6.91832">
        <ele>1526.7</ele>
        <time>2013-09-05T07:23:58Z</time>
      </trkpt>
      <trkpt lat="44.1072" lon="6.91863">
        <ele>1529.1</ele>
        <time>2013-09-05T07:24:12Z</time>
      </trkpt>
      <trkpt lat="44.10756" lon="6.91906">
        <ele>1532.5</ele>
        <time>2013-09-05T07:24:30Z</time>
      </trkpt>
      <trkpt lat="44.10781" lon="6.91954">
        <ele>1534.4</ele>
        <time>2013-09-05T07:24:47Z</time>
      </trkpt>
      <trkpt lat="44.10792" lon="6.91999">
        <ele>1537.3</ele>
        <time>2013-09-05T07:25:02Z</time>
      </trkpt>
      <trkpt lat="44.10802" lon="6.92047">
        <ele>1539.7</ele>
        <time>2013-09-05T07:25:17Z</time>
      </trkpt>
      <trkpt lat="44.10786" lon="6.92095">
        <ele>1542.1</ele>
        <time>2013-09-05T07:25:35Z</time>
      </trkpt>
      <trkpt lat="44.10757" lon="6.92123">
        <ele>1545</ele>
        <time>2013-09-05T07:25:51Z</time>
      </trkpt>
      <trkpt lat="44.10738" lon="6.92168">
        <ele>1546.9</ele>
        <time>2013-09-05T07:26:07Z</time>
      </trkpt>
      <trkpt lat="44.10728" lon="6.92222">
        <ele>1549.8</ele>
        <time>2013-09-05T07:26:23Z</time>
      </trkpt>
      <trkpt lat="44.10723" lon="6.92266">
        <ele>1552.7</ele>
        <time>2013-09-05T07:26:36Z</time>
      </trkpt>
      <trkpt lat="44.10713" lon="6.92326">
        <ele>1555.1</ele>
        <time>2013-09-05T07:26:54Z</time>
      </trkpt>
      <trkpt lat="44.10699" lon="6.92383">
        <ele>1557.5</ele>
        <time>2013-09-05T07:27:12Z</time>
      </trkpt>
      <trkpt lat="44.10685" lon="6.9243">
        <ele>1559.9</ele>
        <time>2013-09-05T07:27:28Z</time>
      </trkpt>
      <trkpt lat="44.10678" lon="6.92476">
        <ele>1562.8</ele>
        <time>2013-09-05T07:27:43Z</time>
      </trkpt>
      <trkpt lat="44.1066" lon="6.92528">
        <ele>1565.2</ele>
        <time>2013-09-05T07:28:01Z</time>
      </trkpt>
      <trkpt lat="44.10653" lon="6.92578">
        <ele>1568.1</ele>
        <time>2013-09-05T07:28:17Z</time>
      </trkpt>
      <trkpt lat="44.10653" lon="6.92604">
        <ele>1569.5</ele>
        <time>2013-09-05T07:28:25Z</time>
      </trkpt>
      <trkpt lat="44.10638" lon="6.92623">
        <ele>1571.4</ele>
        <time>2013-09-05T07:28:36Z</time>
      </trkpt>
      <trkpt lat="44.10613" lon="6.92612">
        <ele>1573.8</ele>
        <time>2013-09-05T07:28:49Z</time>
      </trkpt>
      <trkpt lat="44.10576" lon="6.92607">
        <ele>1576.2</ele>
        <time>2013-09-05T07:29:06Z</time>
      </trkpt>
      <trkpt lat="44.1054" lon="6.92609">
        <ele>1579.6</ele>
        <time>2013-09-05T07:29:23Z</time>
      </trkpt>
      <trkpt lat="44.10512" lon="6.92605">
        <ele>1582</ele>
        <time>2013-09-05T07:29:36Z</time>
      </trkpt>
      <trkpt lat="44.10472" lon="6.92587">
        <ele>1584.9</ele>
        <time>2013-09-05T07:29:54Z</time>
      </trkpt>
      <trkpt lat="44.10434" lon="6.92561">
        <ele>1586.3</ele>
        <time>2013-09-05T07:30:10Z</time>
      </trkpt>
      <trkpt lat="44.10403" lon="6.92529">
        <ele>1588.7</ele>
        <time>2013-09-05T07:30:26Z</time>
      </trkpt>
      <trkpt lat="44.10375" lon="6.92499">
        <ele>1591.1</ele>
        <time>2013-09-05T07:30:40Z</time>
      </trkpt>
      <trkpt lat="44.10343" lon="6.92478">
        <ele>1594</ele>
        <time>2013-09-05T07:30:55Z</time>
      </trkpt>
      <trkpt lat="44.10305" lon="6.92472">
        <ele>1596.9</ele>
        <time>2013-09-05T07:31:13Z</time>
      </trkpt>
      <trkpt lat="44.10273" lon="6.9247">
        <ele>1599.8</ele>
        <time>2013-09-05T07:31:28Z</time>
      </trkpt>
      <trkpt lat="44.10234" lon="6.92465">
        <ele>1602.2</ele>
        <time>2013-09-05T07:31:46Z</time>
      </trkpt>
      <trkpt lat="44.10194" lon="6.92467">
        <ele>1605.5</ele>
        <time>2013-09-05T07:32:04Z</time>
      </trkpt>
      <trkpt lat="44.10157" lon="6.92477">
        <ele>1608.4</ele>
        <time>2013-09-05T07:32:22Z</time>
      </trkpt>
      <trkpt lat="44.10112" lon="6.92481">
        <ele>1610.8</ele>
        <time>2013-09-05T07:32:42Z</time>
      </trkpt>
      <trkpt lat="44.10078" lon="6.92494">
        <ele>1613.2</ele>
        <time>2013-09-05T07:32:58Z</time>
      </trkpt>
      <trkpt lat="44.10047" lon="6.92519">
        <ele>1616.6</ele>
        <time>2013-09-05T07:33:13Z</time>
      </trkpt>
      <trkpt lat="44.10023" lon="6.92554">
        <ele>1618</ele>
        <time>2013-09-05T07:33:28Z</time>
      </trkpt>
      <trkpt lat="44.09996" lon="6.92565">
        <ele>1621.4</ele>
        <time>2013-09-05T07:33:42Z</time>
      </trkpt>
      <trkpt lat="44.09969" lon="6.92548">
        <ele>1623.8</ele>
        <time>2013-09-05T07:33:56Z</time>
      </trkpt>
      <trkpt lat="44.09946" lon="6.92528">
        <ele>1625.7</ele>
        <time>2013-09-05T07:34:09Z</time>
      </trkpt>
      <trkpt lat="44.09921" lon="6.92502">
        <ele>1628.6</ele>
        <time>2013-09-05T07:34:22Z</time>
      </trkpt>
      <trkpt lat="44.09891" lon="6.92476">
        <ele>1631</ele>
        <time>2013-09-05T07:34:38Z</time>
      </trkpt>
      <trkpt lat="44.09858" lon="6.92456">
        <ele>1633.9</ele>
        <time>2013-09-05T07:34:53Z</time>
      </trkpt>
      <trkpt lat="44.09811" lon="6.92431">
        <ele>1635.8</ele>
        <time>2013-09-05T07:35:12Z</time>
      </trkpt>
      <trkpt lat="44.09775" lon="6.92441">
        <ele>1638.2</ele>
        <time>2013-09-05T07:35:27Z</time>
      </trkpt>
      <trkpt lat="44.0974" lon="6.92459">
        <ele>1641.1</ele>
        <time>2013-09-05T07:35:43Z</time>
      </trkpt>
      <trkpt lat="44.09725" lon="6.92496">
        <ele>1643.5</ele>
        <time>2013-09-05T07:35:57Z</time>
      </trkpt>
      <trkpt lat="44.09726" lon="6.92555">
        <ele>1646.4</ele>
        <time>2013-09-05T07:36:17Z</time>
      </trkpt>
      <trkpt lat="44.09715" lon="6.92594">
        <ele>1648.3</ele>
        <time>2013-09-05T07:36:32Z</time>
      </trkpt>
      <trkpt lat="44.09703" lon="6.92622">
        <ele>1650.7</ele>
        <time>2013-09-05T07:36:43Z</time>
      </trkpt>
      <trkpt lat="44.09682" lon="6.92661">
        <ele>1653.6</ele>
        <time>2013-09-05T07:36:59Z</time>
      </trkpt>
      <trkpt lat="44.09661" lon="6.92692">
        <ele>1655.5</ele>
        <time>2013-09-05T07:37:12Z</time>
      </trkpt>
      <trkpt lat="44.0962" lon="6.92706">
        <ele>1658.4</ele>
        <time>2013-09-05T07:37:29Z</time>
      </trkpt>
      <trkpt lat="44.09581" lon="6.92741">
        <ele>1660.8</ele>
        <time>2013-09-05T07:37:49Z</time>
      </trkpt>
      <trkpt lat="44.09574" lon="6.92746">
        <ele>1661.3</ele>
        <time>2013-09-05T07:38:01Z</time>
      </trkpt>
      <trkpt lat="44.09575" lon="6.92753">
        <ele>1662.3</ele>
        <time>2013-09-05T07:38:22Z</time>
      </trkpt>
      <trkpt lat="44.09574" lon="6.92754">
        <ele>1661.8</ele>
        <time>2013-09-05T07:38:25Z</time>
      </trkpt>
      <trkpt lat="44.09572" lon="6.92757">
        <ele>1662.3</ele>
        <time>2013-09-05T07:38:27Z</time>
      </trkpt>
      <trkpt lat="44.0957" lon="6.92759">
        <ele>1662.7</ele>
        <time>2013-09-05T07:38:28Z</time>
      </trkpt>
      <trkpt lat="44.09549" lon="6.92792">
        <ele>1665.6</ele>
        <time>2013-09-05T07:38:44Z</time>
      </trkpt>
      <trkpt lat="44.09546" lon="6.92834">
        <ele>1668</ele>
        <time>2013-09-05T07:38:57Z</time>
      </trkpt>
      <trkpt lat="44.0954" lon="6.92892">
        <ele>1670</ele>
        <time>2013-09-05T07:39:15Z</time>
      </trkpt>
      <trkpt lat="44.09539" lon="6.92894">
        <ele>1670</ele>
        <time>2013-09-05T07:39:16Z</time>
      </trkpt>
      <trkpt lat="44.09538" lon="6.92895">
        <ele>1670.9</ele>
        <time>2013-09-05T07:39:17Z</time>
      </trkpt>
      <trkpt lat="44.09537" lon="6.92897">
        <ele>1670.9</ele>
        <time>2013-09-05T07:39:18Z</time>
      </trkpt>
      <trkpt lat="44.09536" lon="6.92899">
        <ele>1670.4</ele>
        <time>2013-09-05T07:39:19Z</time>
      </trkpt>
      <trkpt lat="44.09536" lon="6.92902">
        <ele>1670</ele>
        <time>2013-09-05T07:39:20Z</time>
      </trkpt>
      <trkpt lat="44.0953" lon="6.92933">
        <ele>1670.9</ele>
        <time>2013-09-05T07:39:35Z</time>
      </trkpt>
      <trkpt lat="44.09529" lon="6.92975">
        <ele>1671.4</ele>
        <time>2013-09-05T07:39:49Z</time>
      </trkpt>
      <trkpt lat="44.09525" lon="6.93017">
        <ele>1671.9</ele>
        <time>2013-09-05T07:40:01Z</time>
      </trkpt>
      <trkpt lat="44.09514" lon="6.93058">
        <ele>1672.4</ele>
        <time>2013-09-05T07:40:14Z</time>
      </trkpt>
      <trkpt lat="44.0951" lon="6.93097">
        <ele>1672.4</ele>
        <time>2013-09-05T07:40:28Z</time>
      </trkpt>
      <trkpt lat="44.09496" lon="6.93123">
        <ele>1672.4</ele>
        <time>2013-09-05T07:40:42Z</time>
      </trkpt>
      <trkpt lat="44.09494" lon="6.93127">
        <ele>1672.8</ele>
        <time>2013-09-05T07:40:53Z</time>
      </trkpt>
      <trkpt lat="44.09483" lon="6.93139">
        <ele>1672.8</ele>
        <time>2013-09-05T07:41:03Z</time>
      </trkpt>
      <trkpt lat="44.09482" lon="6.9314">
        <ele>1672.8</ele>
        <time>2013-09-05T07:41:04Z</time>
      </trkpt>
      <trkpt lat="44.09481" lon="6.93141">
        <ele>1673.3</ele>
        <time>2013-09-05T07:41:05Z</time>
      </trkpt>
      <trkpt lat="44.0948" lon="6.93143">
        <ele>1673.3</ele>
        <time>2013-09-05T07:41:06Z</time>
      </trkpt>
      <trkpt lat="44.09481" lon="6.93144">
        <ele>1672.8</ele>
        <time>2013-09-05T07:41:07Z</time>
      </trkpt>
      <trkpt lat="44.09484" lon="6.93144">
        <ele>1673.3</ele>
        <time>2013-09-05T07:41:09Z</time>
      </trkpt>
      <trkpt lat="44.09485" lon="6.93142">
        <ele>1672.8</ele>
        <time>2013-09-05T07:41:10Z</time>
      </trkpt>
      <trkpt lat="44.09486" lon="6.9314">
        <ele>1672.8</ele>
        <time>2013-09-05T07:41:11Z</time>
      </trkpt>
      <trkpt lat="44.09487" lon="6.93137">
        <ele>1672.8</ele>
        <time>2013-09-05T07:41:12Z</time>
      </trkpt>
      <trkpt lat="44.09488" lon="6.93134">
        <ele>1672.8</ele>
        <time>2013-09-05T07:41:13Z</time>
      </trkpt>
      <trkpt lat="44.09488" lon="6.93132">
        <ele>1672.4</ele>
        <time>2013-09-05T07:41:14Z</time>
      </trkpt>
      <trkpt lat="44.09489" lon="6.9313">
        <ele>1673.3</ele>
        <time>2013-09-05T07:41:15Z</time>
      </trkpt>
      <trkpt lat="44.09495" lon="6.93116">
        <ele>1672.8</ele>
        <time>2013-09-05T07:41:28Z</time>
      </trkpt>
      <trkpt lat="44.09495" lon="6.93116">
        <ele>1670.9</ele>
        <time>2013-09-05T07:41:36Z</time>
      </trkpt>
      <trkpt lat="44.09495" lon="6.93117">
        <ele>1670.9</ele>
        <time>2013-09-05T07:41:37Z</time>
      </trkpt>
      <trkpt lat="44.09495" lon="6.93116">
        <ele>1654.6</ele>
        <time>2013-09-05T08:30:21Z</time>
      </trkpt>
      <trkpt lat="44.0946" lon="6.93199">
        <ele>1655.5</ele>
        <time>2013-09-05T08:30:23Z</time>
      </trkpt>
      <trkpt lat="44.09451" lon="6.93198">
        <ele>1658.4</ele>
        <time>2013-09-05T08:30:30Z</time>
      </trkpt>
      <trkpt lat="44.09451" lon="6.93197">
        <ele>1660.3</ele>
        <time>2013-09-05T08:30:34Z</time>
      </trkpt>
      <trkpt lat="44.0945" lon="6.93196">
        <ele>1662.3</ele>
        <time>2013-09-05T08:30:37Z</time>
      </trkpt>
      <trkpt lat="44.09449" lon="6.93198">
        <ele>1667.1</ele>
        <time>2013-09-05T08:30:44Z</time>
      </trkpt>
      <trkpt lat="44.09449" lon="6.93197">
        <ele>1667.1</ele>
        <time>2013-09-05T08:30:45Z</time>
      </trkpt>
      <trkpt lat="44.09449" lon="6.93198">
        <ele>1667.5</ele>
        <time>2013-09-05T08:30:46Z</time>
      </trkpt>
      <trkpt lat="44.09451" lon="6.93198">
        <ele>1669</ele>
        <time>2013-09-05T08:30:49Z</time>
      </trkpt>
      <trkpt lat="44.09454" lon="6.93198">
        <ele>1670</ele>
        <time>2013-09-05T08:30:51Z</time>
      </trkpt>
      <trkpt lat="44.09461" lon="6.93187">
        <ele>1672.4</ele>
        <time>2013-09-05T08:30:58Z</time>
      </trkpt>
      <trkpt lat="44.0947" lon="6.93171">
        <ele>1675.7</ele>
        <time>2013-09-05T08:31:05Z</time>
      </trkpt>
      <trkpt lat="44.0948" lon="6.93153">
        <ele>1678.1</ele>
        <time>2013-09-05T08:31:12Z</time>
      </trkpt>
      <trkpt lat="44.09498" lon="6.93126">
        <ele>1681.5</ele>
        <time>2013-09-05T08:31:22Z</time>
      </trkpt>
      <trkpt lat="44.09508" lon="6.93111">
        <ele>1682.4</ele>
        <time>2013-09-05T08:31:28Z</time>
      </trkpt>
      <trkpt lat="44.0951" lon="6.93111">
        <ele>1682</ele>
        <time>2013-09-05T08:31:29Z</time>
      </trkpt>
      <trkpt lat="44.09512" lon="6.93112">
        <ele>1682.9</ele>
        <time>2013-09-05T08:31:30Z</time>
      </trkpt>
      <trkpt lat="44.09513" lon="6.93113">
        <ele>1682.4</ele>
        <time>2013-09-05T08:31:31Z</time>
      </trkpt>
      <trkpt lat="44.09515" lon="6.93114">
        <ele>1682.4</ele>
        <time>2013-09-05T08:31:32Z</time>
      </trkpt>
      <trkpt lat="44.09517" lon="6.93115">
        <ele>1682.4</ele>
        <time>2013-09-05T08:31:33Z</time>
      </trkpt>
      <trkpt lat="44.09518" lon="6.93117">
        <ele>1682.9</ele>
        <time>2013-09-05T08:31:34Z</time>
      </trkpt>
      <trkpt lat="44.09518" lon="6.93119">
        <ele>1682.9</ele>
        <time>2013-09-05T08:31:35Z</time>
      </trkpt>
      <trkpt lat="44.09518" lon="6.93122">
        <ele>1683.4</ele>
        <time>2013-09-05T08:31:36Z</time>
      </trkpt>
      <trkpt lat="44.09517" lon="6.93124">
        <ele>1682.9</ele>
        <time>2013-09-05T08:31:37Z</time>
      </trkpt>
      <trkpt lat="44.09516" lon="6.93128">
        <ele>1683.9</ele>
        <time>2013-09-05T08:31:38Z</time>
      </trkpt>
      <trkpt lat="44.09515" lon="6.93131">
        <ele>1683.9</ele>
        <time>2013-09-05T08:31:39Z</time>
      </trkpt>
      <trkpt lat="44.09515" lon="6.93134">
        <ele>1683.9</ele>
        <time>2013-09-05T08:31:40Z</time>
      </trkpt>
      <trkpt lat="44.09506" lon="6.93185">
        <ele>1686.8</ele>
        <time>2013-09-05T08:31:57Z</time>
      </trkpt>
      <trkpt lat="44.09492" lon="6.93228">
        <ele>1689.2</ele>
        <time>2013-09-05T08:32:14Z</time>
      </trkpt>
      <trkpt lat="44.09471" lon="6.93274">
        <ele>1690.6</ele>
        <time>2013-09-05T08:32:30Z</time>
      </trkpt>
      <trkpt lat="44.09441" lon="6.93336">
        <ele>1691.6</ele>
        <time>2013-09-05T08:32:50Z</time>
      </trkpt>
      <trkpt lat="44.0942" lon="6.93383">
        <ele>1692.1</ele>
        <time>2013-09-05T08:33:04Z</time>
      </trkpt>
      <trkpt lat="44.09395" lon="6.93438">
        <ele>1694</ele>
        <time>2013-09-05T08:33:19Z</time>
      </trkpt>
      <trkpt lat="44.09384" lon="6.93484">
        <ele>1696.4</ele>
        <time>2013-09-05T08:33:33Z</time>
      </trkpt>
      <trkpt lat="44.09384" lon="6.9355">
        <ele>1698.8</ele>
        <time>2013-09-05T08:33:53Z</time>
      </trkpt>
      <trkpt lat="44.09392" lon="6.93592">
        <ele>1700.7</ele>
        <time>2013-09-05T08:34:09Z</time>
      </trkpt>
      <trkpt lat="44.09393" lon="6.9361">
        <ele>1701.7</ele>
        <time>2013-09-05T08:34:15Z</time>
      </trkpt>
      <trkpt lat="44.09392" lon="6.93655">
        <ele>1704.1</ele>
        <time>2013-09-05T08:34:30Z</time>
      </trkpt>
      <trkpt lat="44.09421" lon="6.93673">
        <ele>1704.1</ele>
        <time>2013-09-05T08:34:44Z</time>
      </trkpt>
      <trkpt lat="44.09461" lon="6.93689">
        <ele>1707</ele>
        <time>2013-09-05T08:35:00Z</time>
      </trkpt>
      <trkpt lat="44.09496" lon="6.93675">
        <ele>1709.8</ele>
        <time>2013-09-05T08:35:15Z</time>
      </trkpt>
      <trkpt lat="44.09533" lon="6.93636">
        <ele>1712.3</ele>
        <time>2013-09-05T08:35:33Z</time>
      </trkpt>
      <trkpt lat="44.0957" lon="6.93627">
        <ele>1715.1</ele>
        <time>2013-09-05T08:35:49Z</time>
      </trkpt>
      <trkpt lat="44.09611" lon="6.93632">
        <ele>1717.5</ele>
        <time>2013-09-05T08:36:06Z</time>
      </trkpt>
      <trkpt lat="44.09643" lon="6.93603">
        <ele>1719.9</ele>
        <time>2013-09-05T08:36:21Z</time>
      </trkpt>
      <trkpt lat="44.09676" lon="6.93547">
        <ele>1722.8</ele>
        <time>2013-09-05T08:36:41Z</time>
      </trkpt>
      <trkpt lat="44.09697" lon="6.93508">
        <ele>1724.3</ele>
        <time>2013-09-05T08:36:55Z</time>
      </trkpt>
      <trkpt lat="44.09737" lon="6.93434">
        <ele>1727.6</ele>
        <time>2013-09-05T08:37:19Z</time>
      </trkpt>
      <trkpt lat="44.09754" lon="6.93379">
        <ele>1729.1</ele>
        <time>2013-09-05T08:37:35Z</time>
      </trkpt>
      <trkpt lat="44.09744" lon="6.93342">
        <ele>1730</ele>
        <time>2013-09-05T08:37:48Z</time>
      </trkpt>
      <trkpt lat="44.0974" lon="6.9328">
        <ele>1729.1</ele>
        <time>2013-09-05T08:38:01Z</time>
      </trkpt>
      <trkpt lat="44.09749" lon="6.93263">
        <ele>1729.1</ele>
        <time>2013-09-05T08:38:06Z</time>
      </trkpt>
      <trkpt lat="44.09751" lon="6.93263">
        <ele>1729.1</ele>
        <time>2013-09-05T08:38:07Z</time>
      </trkpt>
      <trkpt lat="44.09753" lon="6.93263">
        <ele>1729.1</ele>
        <time>2013-09-05T08:38:08Z</time>
      </trkpt>
      <trkpt lat="44.09791" lon="6.93285">
        <ele>1731</ele>
        <time>2013-09-05T08:38:22Z</time>
      </trkpt>
      <trkpt lat="44.09839" lon="6.93304">
        <ele>1731.5</ele>
        <time>2013-09-05T08:38:39Z</time>
      </trkpt>
      <trkpt lat="44.09865" lon="6.93322">
        <ele>1732</ele>
        <time>2013-09-05T08:38:52Z</time>
      </trkpt>
      <trkpt lat="44.09867" lon="6.93319">
        <ele>1732.9</ele>
        <time>2013-09-05T08:39:25Z</time>
      </trkpt>
      <trkpt lat="44.09866" lon="6.93318">
        <ele>1732.9</ele>
        <time>2013-09-05T08:39:26Z</time>
      </trkpt>
      <trkpt lat="44.09863" lon="6.93316">
        <ele>1732.9</ele>
        <time>2013-09-05T08:39:28Z</time>
      </trkpt>
      <trkpt lat="44.09862" lon="6.93316">
        <ele>1733.4</ele>
        <time>2013-09-05T08:39:29Z</time>
      </trkpt>
      <trkpt lat="44.09861" lon="6.93314">
        <ele>1732.9</ele>
        <time>2013-09-05T08:39:30Z</time>
      </trkpt>
      <trkpt lat="44.09862" lon="6.93312">
        <ele>1733.4</ele>
        <time>2013-09-05T08:39:31Z</time>
      </trkpt>
      <trkpt lat="44.09863" lon="6.93311">
        <ele>1732.9</ele>
        <time>2013-09-05T08:39:32Z</time>
      </trkpt>
      <trkpt lat="44.09865" lon="6.93312">
        <ele>1733.4</ele>
        <time>2013-09-05T08:39:33Z</time>
      </trkpt>
      <trkpt lat="44.09867" lon="6.93314">
        <ele>1733.4</ele>
        <time>2013-09-05T08:39:34Z</time>
      </trkpt>
      <trkpt lat="44.09869" lon="6.93316">
        <ele>1733.4</ele>
        <time>2013-09-05T08:39:35Z</time>
      </trkpt>
      <trkpt lat="44.0991" lon="6.93352">
        <ele>1734.8</ele>
        <time>2013-09-05T08:39:52Z</time>
      </trkpt>
      <trkpt lat="44.09963" lon="6.93351">
        <ele>1736.8</ele>
        <time>2013-09-05T08:40:08Z</time>
      </trkpt>
      <trkpt lat="44.10018" lon="6.93366">
        <ele>1737.7</ele>
        <time>2013-09-05T08:40:24Z</time>
      </trkpt>
      <trkpt lat="44.10027" lon="6.9337">
        <ele>1738.2</ele>
        <time>2013-09-05T08:40:26Z</time>
      </trkpt>
      <trkpt lat="44.1003" lon="6.93372">
        <ele>1738.2</ele>
        <time>2013-09-05T08:40:27Z</time>
      </trkpt>
      <trkpt lat="44.10033" lon="6.93375">
        <ele>1738.7</ele>
        <time>2013-09-05T08:40:28Z</time>
      </trkpt>
      <trkpt lat="44.10037" lon="6.93378">
        <ele>1738.2</ele>
        <time>2013-09-05T08:40:29Z</time>
      </trkpt>
      <trkpt lat="44.1004" lon="6.93382">
        <ele>1738.2</ele>
        <time>2013-09-05T08:40:30Z</time>
      </trkpt>
      <trkpt lat="44.10043" lon="6.93387">
        <ele>1738.7</ele>
        <time>2013-09-05T08:40:31Z</time>
      </trkpt>
      <trkpt lat="44.10045" lon="6.93391">
        <ele>1738.2</ele>
        <time>2013-09-05T08:40:32Z</time>
      </trkpt>
      <trkpt lat="44.1008" lon="6.93426">
        <ele>1739.6</ele>
        <time>2013-09-05T08:40:44Z</time>
      </trkpt>
      <trkpt lat="44.10124" lon="6.93482">
        <ele>1741.1</ele>
        <time>2013-09-05T08:41:01Z</time>
      </trkpt>
      <trkpt lat="44.10171" lon="6.93555">
        <ele>1744</ele>
        <time>2013-09-05T08:41:21Z</time>
      </trkpt>
      <trkpt lat="44.10193" lon="6.93632">
        <ele>1745.9</ele>
        <time>2013-09-05T08:41:38Z</time>
      </trkpt>
      <trkpt lat="44.10213" lon="6.93714">
        <ele>1748.3</ele>
        <time>2013-09-05T08:41:56Z</time>
      </trkpt>
      <trkpt lat="44.10241" lon="6.93807">
        <ele>1751.2</ele>
        <time>2013-09-05T08:42:17Z</time>
      </trkpt>
      <trkpt lat="44.10277" lon="6.9389">
        <ele>1753.1</ele>
        <time>2013-09-05T08:42:37Z</time>
      </trkpt>
      <trkpt lat="44.10314" lon="6.93938">
        <ele>1754.1</ele>
        <time>2013-09-05T08:42:52Z</time>
      </trkpt>
      <trkpt lat="44.10371" lon="6.93961">
        <ele>1755</ele>
        <time>2013-09-05T08:43:10Z</time>
      </trkpt>
      <trkpt lat="44.10397" lon="6.9397">
        <ele>1756</ele>
        <time>2013-09-05T08:43:17Z</time>
      </trkpt>
      <trkpt lat="44.10401" lon="6.93972">
        <ele>1755</ele>
        <time>2013-09-05T08:43:18Z</time>
      </trkpt>
      <trkpt lat="44.10404" lon="6.93976">
        <ele>1756</ele>
        <time>2013-09-05T08:43:19Z</time>
      </trkpt>
      <trkpt lat="44.10408" lon="6.9398">
        <ele>1755.5</ele>
        <time>2013-09-05T08:43:20Z</time>
      </trkpt>
      <trkpt lat="44.10411" lon="6.93984">
        <ele>1755.5</ele>
        <time>2013-09-05T08:43:21Z</time>
      </trkpt>
      <trkpt lat="44.10421" lon="6.93997">
        <ele>1755.5</ele>
        <time>2013-09-05T08:43:24Z</time>
      </trkpt>
      <trkpt lat="44.1047" lon="6.94071">
        <ele>1756</ele>
        <time>2013-09-05T08:43:41Z</time>
      </trkpt>
      <trkpt lat="44.10495" lon="6.94145">
        <ele>1757.4</ele>
        <time>2013-09-05T08:43:58Z</time>
      </trkpt>
      <trkpt lat="44.10505" lon="6.94213">
        <ele>1759.4</ele>
        <time>2013-09-05T08:44:12Z</time>
      </trkpt>
      <trkpt lat="44.10527" lon="6.94308">
        <ele>1761.8</ele>
        <time>2013-09-05T08:44:32Z</time>
      </trkpt>
      <trkpt lat="44.1057" lon="6.94378">
        <ele>1763.7</ele>
        <time>2013-09-05T08:44:51Z</time>
      </trkpt>
      <trkpt lat="44.10619" lon="6.94414">
        <ele>1763.7</ele>
        <time>2013-09-05T08:45:06Z</time>
      </trkpt>
      <trkpt lat="44.10707" lon="6.94422">
        <ele>1764.2</ele>
        <time>2013-09-05T08:45:26Z</time>
      </trkpt>
      <trkpt lat="44.10789" lon="6.94401">
        <ele>1764.6</ele>
        <time>2013-09-05T08:45:44Z</time>
      </trkpt>
      <trkpt lat="44.10799" lon="6.94401">
        <ele>1764.6</ele>
        <time>2013-09-05T08:45:46Z</time>
      </trkpt>
      <trkpt lat="44.10803" lon="6.94404">
        <ele>1764.6</ele>
        <time>2013-09-05T08:45:47Z</time>
      </trkpt>
      <trkpt lat="44.10807" lon="6.94408">
        <ele>1764.6</ele>
        <time>2013-09-05T08:45:48Z</time>
      </trkpt>
      <trkpt lat="44.10808" lon="6.94414">
        <ele>1765.1</ele>
        <time>2013-09-05T08:45:49Z</time>
      </trkpt>
      <trkpt lat="44.10808" lon="6.94421">
        <ele>1764.6</ele>
        <time>2013-09-05T08:45:50Z</time>
      </trkpt>
      <trkpt lat="44.10807" lon="6.94428">
        <ele>1764.6</ele>
        <time>2013-09-05T08:45:51Z</time>
      </trkpt>
      <trkpt lat="44.10805" lon="6.94434">
        <ele>1765.1</ele>
        <time>2013-09-05T08:45:52Z</time>
      </trkpt>
      <trkpt lat="44.10802" lon="6.9444">
        <ele>1764.6</ele>
        <time>2013-09-05T08:45:53Z</time>
      </trkpt>
      <trkpt lat="44.10799" lon="6.94447">
        <ele>1765.1</ele>
        <time>2013-09-05T08:45:54Z</time>
      </trkpt>
      <trkpt lat="44.10797" lon="6.94453">
        <ele>1764.6</ele>
        <time>2013-09-05T08:45:55Z</time>
      </trkpt>
      <trkpt lat="44.10795" lon="6.9446">
        <ele>1764.6</ele>
        <time>2013-09-05T08:45:56Z</time>
      </trkpt>
      <trkpt lat="44.10794" lon="6.94467">
        <ele>1765.1</ele>
        <time>2013-09-05T08:45:57Z</time>
      </trkpt>
      <trkpt lat="44.10793" lon="6.94474">
        <ele>1765.1</ele>
        <time>2013-09-05T08:45:58Z</time>
      </trkpt>
      <trkpt lat="44.10793" lon="6.9448">
        <ele>1764.6</ele>
        <time>2013-09-05T08:45:59Z</time>
      </trkpt>
      <trkpt lat="44.10799" lon="6.94557">
        <ele>1765.1</ele>
        <time>2013-09-05T08:46:11Z</time>
      </trkpt>
      <trkpt lat="44.10799" lon="6.94563">
        <ele>1765.6</ele>
        <time>2013-09-05T08:46:12Z</time>
      </trkpt>
      <trkpt lat="44.10799" lon="6.94569">
        <ele>1765.6</ele>
        <time>2013-09-05T08:46:13Z</time>
      </trkpt>
      <trkpt lat="44.10799" lon="6.94576">
        <ele>1765.6</ele>
        <time>2013-09-05T08:46:14Z</time>
      </trkpt>
      <trkpt lat="44.10799" lon="6.94582">
        <ele>1765.1</ele>
        <time>2013-09-05T08:46:15Z</time>
      </trkpt>
      <trkpt lat="44.108" lon="6.94634">
        <ele>1766.1</ele>
        <time>2013-09-05T08:46:23Z</time>
      </trkpt>
      <trkpt lat="44.10799" lon="6.9464">
        <ele>1765.1</ele>
        <time>2013-09-05T08:46:24Z</time>
      </trkpt>
      <trkpt lat="44.10797" lon="6.94647">
        <ele>1765.6</ele>
        <time>2013-09-05T08:46:25Z</time>
      </trkpt>
      <trkpt lat="44.10794" lon="6.94652">
        <ele>1765.1</ele>
        <time>2013-09-05T08:46:26Z</time>
      </trkpt>
      <trkpt lat="44.10791" lon="6.94657">
        <ele>1765.1</ele>
        <time>2013-09-05T08:46:27Z</time>
      </trkpt>
      <trkpt lat="44.10788" lon="6.94662">
        <ele>1766.1</ele>
        <time>2013-09-05T08:46:28Z</time>
      </trkpt>
      <trkpt lat="44.10779" lon="6.94678">
        <ele>1765.6</ele>
        <time>2013-09-05T08:46:31Z</time>
      </trkpt>
      <trkpt lat="44.10775" lon="6.94689">
        <ele>1765.6</ele>
        <time>2013-09-05T08:46:33Z</time>
      </trkpt>
      <trkpt lat="44.10773" lon="6.94694">
        <ele>1765.1</ele>
        <time>2013-09-05T08:46:34Z</time>
      </trkpt>
      <trkpt lat="44.10772" lon="6.947">
        <ele>1765.6</ele>
        <time>2013-09-05T08:46:35Z</time>
      </trkpt>
      <trkpt lat="44.10772" lon="6.94705">
        <ele>1765.6</ele>
        <time>2013-09-05T08:46:36Z</time>
      </trkpt>
      <trkpt lat="44.10773" lon="6.9471">
        <ele>1765.6</ele>
        <time>2013-09-05T08:46:37Z</time>
      </trkpt>
      <trkpt lat="44.10774" lon="6.94715">
        <ele>1766.1</ele>
        <time>2013-09-05T08:46:38Z</time>
      </trkpt>
      <trkpt lat="44.10775" lon="6.9472">
        <ele>1766.1</ele>
        <time>2013-09-05T08:46:39Z</time>
      </trkpt>
      <trkpt lat="44.10779" lon="6.9473">
        <ele>1766.1</ele>
        <time>2013-09-05T08:46:41Z</time>
      </trkpt>
      <trkpt lat="44.10788" lon="6.94749">
        <ele>1765.6</ele>
        <time>2013-09-05T08:46:45Z</time>
      </trkpt>
      <trkpt lat="44.10791" lon="6.94754">
        <ele>1765.6</ele>
        <time>2013-09-05T08:46:46Z</time>
      </trkpt>
      <trkpt lat="44.10798" lon="6.94762">
        <ele>1764.6</ele>
        <time>2013-09-05T08:46:48Z</time>
      </trkpt>
      <trkpt lat="44.10802" lon="6.94766">
        <ele>1765.1</ele>
        <time>2013-09-05T08:46:49Z</time>
      </trkpt>
      <trkpt lat="44.10832" lon="6.94804">
        <ele>1765.1</ele>
        <time>2013-09-05T08:46:58Z</time>
      </trkpt>
      <trkpt lat="44.10843" lon="6.94826">
        <ele>1764.2</ele>
        <time>2013-09-05T08:47:02Z</time>
      </trkpt>
      <trkpt lat="44.10846" lon="6.94832">
        <ele>1764.2</ele>
        <time>2013-09-05T08:47:03Z</time>
      </trkpt>
      <trkpt lat="44.10888" lon="6.94898">
        <ele>1760.8</ele>
        <time>2013-09-05T08:47:12Z</time>
      </trkpt>
      <trkpt lat="44.10914" lon="6.94947">
        <ele>1757.9</ele>
        <time>2013-09-05T08:47:17Z</time>
      </trkpt>
      <trkpt lat="44.10935" lon="6.94995">
        <ele>1754.5</ele>
        <time>2013-09-05T08:47:21Z</time>
      </trkpt>
      <trkpt lat="44.10957" lon="6.95047">
        <ele>1750.7</ele>
        <time>2013-09-05T08:47:25Z</time>
      </trkpt>
      <trkpt lat="44.10972" lon="6.95088">
        <ele>1749.3</ele>
        <time>2013-09-05T08:47:28Z</time>
      </trkpt>
      <trkpt lat="44.11009" lon="6.95219">
        <ele>1747.3</ele>
        <time>2013-09-05T08:47:39Z</time>
      </trkpt>
      <trkpt lat="44.1101" lon="6.95229">
        <ele>1746.9</ele>
        <time>2013-09-05T08:47:40Z</time>
      </trkpt>
      <trkpt lat="44.11007" lon="6.95239">
        <ele>1745.9</ele>
        <time>2013-09-05T08:47:41Z</time>
      </trkpt>
      <trkpt lat="44.11" lon="6.95278">
        <ele>1749.3</ele>
        <time>2013-09-05T08:47:47Z</time>
      </trkpt>
      <trkpt lat="44.11003" lon="6.95344">
        <ele>1750.7</ele>
        <time>2013-09-05T08:48:01Z</time>
      </trkpt>
      <trkpt lat="44.11013" lon="6.95442">
        <ele>1750.7</ele>
        <time>2013-09-05T08:48:16Z</time>
      </trkpt>
      <trkpt lat="44.11013" lon="6.95462">
        <ele>1751.2</ele>
        <time>2013-09-05T08:48:19Z</time>
      </trkpt>
      <trkpt lat="44.11013" lon="6.95468">
        <ele>1751.2</ele>
        <time>2013-09-05T08:48:20Z</time>
      </trkpt>
      <trkpt lat="44.11014" lon="6.95473">
        <ele>1751.2</ele>
        <time>2013-09-05T08:48:21Z</time>
      </trkpt>
      <trkpt lat="44.1103" lon="6.95568">
        <ele>1752.6</ele>
        <time>2013-09-05T08:48:38Z</time>
      </trkpt>
      <trkpt lat="44.11035" lon="6.95649">
        <ele>1753.6</ele>
        <time>2013-09-05T08:48:54Z</time>
      </trkpt>
      <trkpt lat="44.11041" lon="6.95708">
        <ele>1754.1</ele>
        <time>2013-09-05T08:49:07Z</time>
      </trkpt>
      <trkpt lat="44.11063" lon="6.95753">
        <ele>1753.6</ele>
        <time>2013-09-05T08:49:19Z</time>
      </trkpt>
      <trkpt lat="44.11068" lon="6.95771">
        <ele>1754.1</ele>
        <time>2013-09-05T08:49:23Z</time>
      </trkpt>
      <trkpt lat="44.11068" lon="6.95777">
        <ele>1754.1</ele>
        <time>2013-09-05T08:49:24Z</time>
      </trkpt>
      <trkpt lat="44.11072" lon="6.95809">
        <ele>1754.5</ele>
        <time>2013-09-05T08:49:33Z</time>
      </trkpt>
      <trkpt lat="44.11073" lon="6.9581">
        <ele>1755</ele>
        <time>2013-09-05T08:49:34Z</time>
      </trkpt>
      <trkpt lat="44.11078" lon="6.9581">
        <ele>1755</ele>
        <time>2013-09-05T08:49:45Z</time>
      </trkpt>
      <trkpt lat="44.1108" lon="6.95808">
        <ele>1753.6</ele>
        <time>2013-09-05T08:50:07Z</time>
      </trkpt>
      <trkpt lat="44.11079" lon="6.95812">
        <ele>1755.5</ele>
        <time>2013-09-05T08:50:16Z</time>
      </trkpt>
      <trkpt lat="44.11078" lon="6.95813">
        <ele>1755</ele>
        <time>2013-09-05T08:50:17Z</time>
      </trkpt>
      <trkpt lat="44.11077" lon="6.95815">
        <ele>1755</ele>
        <time>2013-09-05T08:50:18Z</time>
      </trkpt>
      <trkpt lat="44.11075" lon="6.95816">
        <ele>1755</ele>
        <time>2013-09-05T08:50:19Z</time>
      </trkpt>
      <trkpt lat="44.11073" lon="6.95818">
        <ele>1755</ele>
        <time>2013-09-05T08:50:20Z</time>
      </trkpt>
      <trkpt lat="44.11071" lon="6.95818">
        <ele>1755</ele>
        <time>2013-09-05T08:50:21Z</time>
      </trkpt>
      <trkpt lat="44.11068" lon="6.95819">
        <ele>1755.5</ele>
        <time>2013-09-05T08:50:22Z</time>
      </trkpt>
      <trkpt lat="44.11053" lon="6.95822">
        <ele>1754.5</ele>
        <time>2013-09-05T08:50:34Z</time>
      </trkpt>
      <trkpt lat="44.11053" lon="6.95821">
        <ele>1753.6</ele>
        <time>2013-09-05T08:51:04Z</time>
      </trkpt>
      <trkpt lat="44.11052" lon="6.95821">
        <ele>1754.1</ele>
        <time>2013-09-05T08:51:27Z</time>
      </trkpt>
      <trkpt lat="44.11048" lon="6.95823">
        <ele>1754.1</ele>
        <time>2013-09-05T08:51:54Z</time>
      </trkpt>
      <trkpt lat="44.11053" lon="6.95824">
        <ele>1754.5</ele>
        <time>2013-09-05T08:52:18Z</time>
      </trkpt>
      <trkpt lat="44.11053" lon="6.95821">
        <ele>1754.5</ele>
        <time>2013-09-05T08:52:37Z</time>
      </trkpt>
      <trkpt lat="44.11055" lon="6.95821">
        <ele>1755</ele>
        <time>2013-09-05T08:52:55Z</time>
      </trkpt>
      <trkpt lat="44.11056" lon="6.9582">
        <ele>1755.5</ele>
        <time>2013-09-05T08:53:11Z</time>
      </trkpt>
      <trkpt lat="44.11055" lon="6.95821">
        <ele>1756</ele>
        <time>2013-09-05T08:53:33Z</time>
      </trkpt>
      <trkpt lat="44.11057" lon="6.95821">
        <ele>1755.5</ele>
        <time>2013-09-05T08:53:34Z</time>
      </trkpt>
      <trkpt lat="44.11059" lon="6.95821">
        <ele>1756</ele>
        <time>2013-09-05T08:53:35Z</time>
      </trkpt>
      <trkpt lat="44.11061" lon="6.95821">
        <ele>1756</ele>
        <time>2013-09-05T08:53:36Z</time>
      </trkpt>
      <trkpt lat="44.11063" lon="6.95822">
        <ele>1756</ele>
        <time>2013-09-05T08:53:37Z</time>
      </trkpt>
      <trkpt lat="44.11092" lon="6.95834">
        <ele>1757</ele>
        <time>2013-09-05T08:53:51Z</time>
      </trkpt>
      <trkpt lat="44.11116" lon="6.9584">
        <ele>1758.4</ele>
        <time>2013-09-05T08:54:04Z</time>
      </trkpt>
      <trkpt lat="44.11144" lon="6.95822">
        <ele>1761.3</ele>
        <time>2013-09-05T08:54:19Z</time>
      </trkpt>
      <trkpt lat="44.11166" lon="6.95842">
        <ele>1763.7</ele>
        <time>2013-09-05T08:54:34Z</time>
      </trkpt>
      <trkpt lat="44.11199" lon="6.9585">
        <ele>1765.6</ele>
        <time>2013-09-05T08:54:51Z</time>
      </trkpt>
      <trkpt lat="44.11224" lon="6.95853">
        <ele>1768</ele>
        <time>2013-09-05T08:55:06Z</time>
      </trkpt>
      <trkpt lat="44.11238" lon="6.95878">
        <ele>1769.9</ele>
        <time>2013-09-05T08:55:19Z</time>
      </trkpt>
      <trkpt lat="44.1124" lon="6.9593">
        <ele>1771.4</ele>
        <time>2013-09-05T08:55:35Z</time>
      </trkpt>
      <trkpt lat="44.11255" lon="6.95954">
        <ele>1773.8</ele>
        <time>2013-09-05T08:55:48Z</time>
      </trkpt>
      <trkpt lat="44.11277" lon="6.9599">
        <ele>1775.7</ele>
        <time>2013-09-05T08:56:06Z</time>
      </trkpt>
      <trkpt lat="44.11307" lon="6.96018">
        <ele>1778.6</ele>
        <time>2013-09-05T08:56:26Z</time>
      </trkpt>
      <trkpt lat="44.11325" lon="6.96023">
        <ele>1780</ele>
        <time>2013-09-05T08:56:36Z</time>
      </trkpt>
      <trkpt lat="44.11327" lon="6.96024">
        <ele>1780.5</ele>
        <time>2013-09-05T08:56:37Z</time>
      </trkpt>
      <trkpt lat="44.11328" lon="6.96025">
        <ele>1780.5</ele>
        <time>2013-09-05T08:56:38Z</time>
      </trkpt>
      <trkpt lat="44.1133" lon="6.96026">
        <ele>1781</ele>
        <time>2013-09-05T08:56:39Z</time>
      </trkpt>
      <trkpt lat="44.11332" lon="6.96026">
        <ele>1781</ele>
        <time>2013-09-05T08:56:40Z</time>
      </trkpt>
      <trkpt lat="44.11334" lon="6.96027">
        <ele>1781</ele>
        <time>2013-09-05T08:56:41Z</time>
      </trkpt>
      <trkpt lat="44.11377" lon="6.96021">
        <ele>1783.9</ele>
        <time>2013-09-05T08:57:03Z</time>
      </trkpt>
      <trkpt lat="44.11406" lon="6.96009">
        <ele>1785.3</ele>
        <time>2013-09-05T08:57:18Z</time>
      </trkpt>
      <trkpt lat="44.1143" lon="6.96013">
        <ele>1785.8</ele>
        <time>2013-09-05T08:57:31Z</time>
      </trkpt>
      <trkpt lat="44.11471" lon="6.96023">
        <ele>1785.8</ele>
        <time>2013-09-05T08:57:47Z</time>
      </trkpt>
      <trkpt lat="44.11535" lon="6.96043">
        <ele>1786.8</ele>
        <time>2013-09-05T08:58:06Z</time>
      </trkpt>
      <trkpt lat="44.11606" lon="6.96057">
        <ele>1788.7</ele>
        <time>2013-09-05T08:58:26Z</time>
      </trkpt>
      <trkpt lat="44.11655" lon="6.96035">
        <ele>1790.6</ele>
        <time>2013-09-05T08:58:42Z</time>
      </trkpt>
      <trkpt lat="44.11702" lon="6.96017">
        <ele>1790.1</ele>
        <time>2013-09-05T08:58:56Z</time>
      </trkpt>
      <trkpt lat="44.11768" lon="6.95994">
        <ele>1791.6</ele>
        <time>2013-09-05T08:59:14Z</time>
      </trkpt>
      <trkpt lat="44.11828" lon="6.95977">
        <ele>1792.5</ele>
        <time>2013-09-05T08:59:31Z</time>
      </trkpt>
      <trkpt lat="44.11885" lon="6.9598">
        <ele>1794.4</ele>
        <time>2013-09-05T08:59:50Z</time>
      </trkpt>
      <trkpt lat="44.11916" lon="6.95994">
        <ele>1797.3</ele>
        <time>2013-09-05T09:00:04Z</time>
      </trkpt>
      <trkpt lat="44.11946" lon="6.9602">
        <ele>1800.7</ele>
        <time>2013-09-05T09:00:22Z</time>
      </trkpt>
      <trkpt lat="44.11966" lon="6.96058">
        <ele>1803.6</ele>
        <time>2013-09-05T09:00:41Z</time>
      </trkpt>
      <trkpt lat="44.11984" lon="6.96073">
        <ele>1805</ele>
        <time>2013-09-05T09:00:57Z</time>
      </trkpt>
      <trkpt lat="44.11984" lon="6.96073">
        <ele>1803.6</ele>
        <time>2013-09-05T09:01:02Z</time>
      </trkpt>
      <trkpt lat="44.11993" lon="6.96079">
        <ele>1804.1</ele>
        <time>2013-09-05T09:01:34Z</time>
      </trkpt>
      <trkpt lat="44.12021" lon="6.96118">
        <ele>1804.1</ele>
        <time>2013-09-05T09:01:49Z</time>
      </trkpt>
      <trkpt lat="44.12025" lon="6.96187">
        <ele>1805</ele>
        <time>2013-09-05T09:02:03Z</time>
      </trkpt>
      <trkpt lat="44.12027" lon="6.96243">
        <ele>1806.5</ele>
        <time>2013-09-05T09:02:18Z</time>
      </trkpt>
      <trkpt lat="44.12028" lon="6.96315">
        <ele>1809.8</ele>
        <time>2013-09-05T09:02:37Z</time>
      </trkpt>
      <trkpt lat="44.12034" lon="6.96351">
        <ele>1812.2</ele>
        <time>2013-09-05T09:02:52Z</time>
      </trkpt>
      <trkpt lat="44.12053" lon="6.96396">
        <ele>1815.1</ele>
        <time>2013-09-05T09:03:13Z</time>
      </trkpt>
      <trkpt lat="44.12068" lon="6.96434">
        <ele>1816.6</ele>
        <time>2013-09-05T09:03:28Z</time>
      </trkpt>
      <trkpt lat="44.12086" lon="6.96476">
        <ele>1819.4</ele>
        <time>2013-09-05T09:03:46Z</time>
      </trkpt>
      <trkpt lat="44.12123" lon="6.96526">
        <ele>1819.4</ele>
        <time>2013-09-05T09:04:04Z</time>
      </trkpt>
      <trkpt lat="44.12145" lon="6.9657">
        <ele>1819</ele>
        <time>2013-09-05T09:04:17Z</time>
      </trkpt>
      <trkpt lat="44.12141" lon="6.96622">
        <ele>1820.9</ele>
        <time>2013-09-05T09:04:32Z</time>
      </trkpt>
      <trkpt lat="44.12135" lon="6.96677">
        <ele>1823.3</ele>
        <time>2013-09-05T09:04:49Z</time>
      </trkpt>
      <trkpt lat="44.12132" lon="6.9672">
        <ele>1826.6</ele>
        <time>2013-09-05T09:05:06Z</time>
      </trkpt>
      <trkpt lat="44.12131" lon="6.96755">
        <ele>1828.6</ele>
        <time>2013-09-05T09:05:21Z</time>
      </trkpt>
      <trkpt lat="44.12117" lon="6.9679">
        <ele>1831.5</ele>
        <time>2013-09-05T09:05:37Z</time>
      </trkpt>
      <trkpt lat="44.12106" lon="6.96825">
        <ele>1833.9</ele>
        <time>2013-09-05T09:05:53Z</time>
      </trkpt>
      <trkpt lat="44.12089" lon="6.96863">
        <ele>1836.7</ele>
        <time>2013-09-05T09:06:11Z</time>
      </trkpt>
      <trkpt lat="44.12076" lon="6.96885">
        <ele>1839.6</ele>
        <time>2013-09-05T09:06:25Z</time>
      </trkpt>
      <trkpt lat="44.12057" lon="6.96915">
        <ele>1842.5</ele>
        <time>2013-09-05T09:06:43Z</time>
      </trkpt>
      <trkpt lat="44.12038" lon="6.96944">
        <ele>1845.4</ele>
        <time>2013-09-05T09:07:00Z</time>
      </trkpt>
      <trkpt lat="44.12024" lon="6.96974">
        <ele>1848.3</ele>
        <time>2013-09-05T09:07:15Z</time>
      </trkpt>
      <trkpt lat="44.12004" lon="6.97007">
        <ele>1850.7</ele>
        <time>2013-09-05T09:07:34Z</time>
      </trkpt>
      <trkpt lat="44.11999" lon="6.97046">
        <ele>1852.6</ele>
        <time>2013-09-05T09:07:52Z</time>
      </trkpt>
      <trkpt lat="44.12" lon="6.97048">
        <ele>1852.6</ele>
        <time>2013-09-05T09:07:53Z</time>
      </trkpt>
      <trkpt lat="44.12001" lon="6.9705">
        <ele>1852.6</ele>
        <time>2013-09-05T09:08:06Z</time>
      </trkpt>
      <trkpt lat="44.12001" lon="6.97053">
        <ele>1852.6</ele>
        <time>2013-09-05T09:08:18Z</time>
      </trkpt>
      <trkpt lat="44.12001" lon="6.97054">
        <ele>1852.6</ele>
        <time>2013-09-05T09:08:19Z</time>
      </trkpt>
      <trkpt lat="44.12001" lon="6.97056">
        <ele>1852.6</ele>
        <time>2013-09-05T09:08:20Z</time>
      </trkpt>
      <trkpt lat="44.12003" lon="6.97073">
        <ele>1852.1</ele>
        <time>2013-09-05T09:08:33Z</time>
      </trkpt>
      <trkpt lat="44.12005" lon="6.97075">
        <ele>1852.6</ele>
        <time>2013-09-05T09:09:02Z</time>
      </trkpt>
      <trkpt lat="44.12005" lon="6.97076">
        <ele>1853.1</ele>
        <time>2013-09-05T09:09:03Z</time>
      </trkpt>
      <trkpt lat="44.12005" lon="6.97077">
        <ele>1852.6</ele>
        <time>2013-09-05T09:09:04Z</time>
      </trkpt>
      <trkpt lat="44.12005" lon="6.97079">
        <ele>1852.6</ele>
        <time>2013-09-05T09:09:05Z</time>
      </trkpt>
      <trkpt lat="44.12005" lon="6.97081">
        <ele>1852.6</ele>
        <time>2013-09-05T09:09:06Z</time>
      </trkpt>
      <trkpt lat="44.12005" lon="6.97083">
        <ele>1852.6</ele>
        <time>2013-09-05T09:09:07Z</time>
      </trkpt>
      <trkpt lat="44.12011" lon="6.97138">
        <ele>1849.7</ele>
        <time>2013-09-05T09:09:20Z</time>
      </trkpt>
      <trkpt lat="44.12009" lon="6.97174">
        <ele>1847.8</ele>
        <time>2013-09-05T09:09:26Z</time>
      </trkpt>
      <trkpt lat="44.12007" lon="6.97181">
        <ele>1847.3</ele>
        <time>2013-09-05T09:09:27Z</time>
      </trkpt>
      <trkpt lat="44.12005" lon="6.97187">
        <ele>1846.4</ele>
        <time>2013-09-05T09:09:28Z</time>
      </trkpt>
      <trkpt lat="44.12001" lon="6.97192">
        <ele>1846.4</ele>
        <time>2013-09-05T09:09:29Z</time>
      </trkpt>
      <trkpt lat="44.11998" lon="6.97197">
        <ele>1845.9</ele>
        <time>2013-09-05T09:09:30Z</time>
      </trkpt>
      <trkpt lat="44.11992" lon="6.97207">
        <ele>1844.9</ele>
        <time>2013-09-05T09:09:32Z</time>
      </trkpt>
      <trkpt lat="44.1199" lon="6.97213">
        <ele>1844</ele>
        <time>2013-09-05T09:09:33Z</time>
      </trkpt>
      <trkpt lat="44.11981" lon="6.97238">
        <ele>1841.5</ele>
        <time>2013-09-05T09:09:37Z</time>
      </trkpt>
      <trkpt lat="44.11979" lon="6.97243">
        <ele>1841.1</ele>
        <time>2013-09-05T09:09:38Z</time>
      </trkpt>
      <trkpt lat="44.11978" lon="6.97248">
        <ele>1840.6</ele>
        <time>2013-09-05T09:09:39Z</time>
      </trkpt>
      <trkpt lat="44.11965" lon="6.97292">
        <ele>1837.2</ele>
        <time>2013-09-05T09:09:48Z</time>
      </trkpt>
      <trkpt lat="44.11965" lon="6.97298">
        <ele>1836.7</ele>
        <time>2013-09-05T09:09:59Z</time>
      </trkpt>
      <trkpt lat="44.11965" lon="6.9732">
        <ele>1836.3</ele>
        <time>2013-09-05T09:10:14Z</time>
      </trkpt>
      <trkpt lat="44.11967" lon="6.97336">
        <ele>1835.3</ele>
        <time>2013-09-05T09:10:17Z</time>
      </trkpt>
      <trkpt lat="44.11976" lon="6.97358">
        <ele>1832.9</ele>
        <time>2013-09-05T09:10:21Z</time>
      </trkpt>
      <trkpt lat="44.11979" lon="6.97363">
        <ele>1833.4</ele>
        <time>2013-09-05T09:10:22Z</time>
      </trkpt>
      <trkpt lat="44.11982" lon="6.97368">
        <ele>1832.4</ele>
        <time>2013-09-05T09:10:23Z</time>
      </trkpt>
      <trkpt lat="44.11993" lon="6.97382">
        <ele>1830.5</ele>
        <time>2013-09-05T09:10:26Z</time>
      </trkpt>
      <trkpt lat="44.12008" lon="6.97402">
        <ele>1828.6</ele>
        <time>2013-09-05T09:10:31Z</time>
      </trkpt>
      <trkpt lat="44.12012" lon="6.97406">
        <ele>1827.6</ele>
        <time>2013-09-05T09:10:32Z</time>
      </trkpt>
      <trkpt lat="44.12016" lon="6.9741">
        <ele>1827.6</ele>
        <time>2013-09-05T09:10:33Z</time>
      </trkpt>
      <trkpt lat="44.1202" lon="6.97414">
        <ele>1827.6</ele>
        <time>2013-09-05T09:10:34Z</time>
      </trkpt>
      <trkpt lat="44.12024" lon="6.97417">
        <ele>1827.1</ele>
        <time>2013-09-05T09:10:35Z</time>
      </trkpt>
      <trkpt lat="44.12028" lon="6.97419">
        <ele>1826.6</ele>
        <time>2013-09-05T09:10:36Z</time>
      </trkpt>
      <trkpt lat="44.12032" lon="6.97421">
        <ele>1826.2</ele>
        <time>2013-09-05T09:10:37Z</time>
      </trkpt>
      <trkpt lat="44.12037" lon="6.97422">
        <ele>1826.2</ele>
        <time>2013-09-05T09:10:38Z</time>
      </trkpt>
      <trkpt lat="44.12042" lon="6.97423">
        <ele>1825.7</ele>
        <time>2013-09-05T09:10:39Z</time>
      </trkpt>
      <trkpt lat="44.12054" lon="6.97428">
        <ele>1824.2</ele>
        <time>2013-09-05T09:10:41Z</time>
      </trkpt>
      <trkpt lat="44.12061" lon="6.97431">
        <ele>1824.2</ele>
        <time>2013-09-05T09:10:42Z</time>
      </trkpt>
      <trkpt lat="44.12086" lon="6.9744">
        <ele>1822.3</ele>
        <time>2013-09-05T09:10:46Z</time>
      </trkpt>
      <trkpt lat="44.12096" lon="6.97447">
        <ele>1820.4</ele>
        <time>2013-09-05T09:10:48Z</time>
      </trkpt>
      <trkpt lat="44.12098" lon="6.97451">
        <ele>1819.9</ele>
        <time>2013-09-05T09:10:49Z</time>
      </trkpt>
      <trkpt lat="44.12099" lon="6.97457">
        <ele>1820.4</ele>
        <time>2013-09-05T09:10:50Z</time>
      </trkpt>
      <trkpt lat="44.121" lon="6.97464">
        <ele>1819.4</ele>
        <time>2013-09-05T09:10:51Z</time>
      </trkpt>
      <trkpt lat="44.121" lon="6.97471">
        <ele>1818.5</ele>
        <time>2013-09-05T09:10:52Z</time>
      </trkpt>
      <trkpt lat="44.121" lon="6.97478">
        <ele>1818.5</ele>
        <time>2013-09-05T09:10:53Z</time>
      </trkpt>
      <trkpt lat="44.12101" lon="6.97486">
        <ele>1817.5</ele>
        <time>2013-09-05T09:10:54Z</time>
      </trkpt>
      <trkpt lat="44.12103" lon="6.97495">
        <ele>1817</ele>
        <time>2013-09-05T09:10:55Z</time>
      </trkpt>
      <trkpt lat="44.12105" lon="6.97514">
        <ele>1815.6</ele>
        <time>2013-09-05T09:10:57Z</time>
      </trkpt>
      <trkpt lat="44.12106" lon="6.97523">
        <ele>1814.6</ele>
        <time>2013-09-05T09:10:58Z</time>
      </trkpt>
      <trkpt lat="44.12108" lon="6.97532">
        <ele>1814.2</ele>
        <time>2013-09-05T09:10:59Z</time>
      </trkpt>
      <trkpt lat="44.12113" lon="6.97549">
        <ele>1812.7</ele>
        <time>2013-09-05T09:11:01Z</time>
      </trkpt>
      <trkpt lat="44.12117" lon="6.97557">
        <ele>1811.7</ele>
        <time>2013-09-05T09:11:02Z</time>
      </trkpt>
      <trkpt lat="44.12121" lon="6.97564">
        <ele>1811.3</ele>
        <time>2013-09-05T09:11:03Z</time>
      </trkpt>
      <trkpt lat="44.12134" lon="6.97585">
        <ele>1808.9</ele>
        <time>2013-09-05T09:11:06Z</time>
      </trkpt>
      <trkpt lat="44.12149" lon="6.97624">
        <ele>1805.5</ele>
        <time>2013-09-05T09:11:11Z</time>
      </trkpt>
      <trkpt lat="44.12152" lon="6.97631">
        <ele>1804.5</ele>
        <time>2013-09-05T09:11:12Z</time>
      </trkpt>
      <trkpt lat="44.12155" lon="6.97638">
        <ele>1805</ele>
        <time>2013-09-05T09:11:13Z</time>
      </trkpt>
      <trkpt lat="44.12165" lon="6.97658">
        <ele>1803.1</ele>
        <time>2013-09-05T09:11:16Z</time>
      </trkpt>
      <trkpt lat="44.12169" lon="6.97663">
        <ele>1802.1</ele>
        <time>2013-09-05T09:11:17Z</time>
      </trkpt>
      <trkpt lat="44.12183" lon="6.9768">
        <ele>1799.7</ele>
        <time>2013-09-05T09:11:20Z</time>
      </trkpt>
      <trkpt lat="44.12193" lon="6.97692">
        <ele>1798.8</ele>
        <time>2013-09-05T09:11:22Z</time>
      </trkpt>
      <trkpt lat="44.12205" lon="6.97711">
        <ele>1796.4</ele>
        <time>2013-09-05T09:11:25Z</time>
      </trkpt>
      <trkpt lat="44.12208" lon="6.97717">
        <ele>1795.9</ele>
        <time>2013-09-05T09:11:26Z</time>
      </trkpt>
      <trkpt lat="44.12213" lon="6.9773">
        <ele>1794.4</ele>
        <time>2013-09-05T09:11:28Z</time>
      </trkpt>
      <trkpt lat="44.12216" lon="6.97735">
        <ele>1794.4</ele>
        <time>2013-09-05T09:11:29Z</time>
      </trkpt>
      <trkpt lat="44.12223" lon="6.97745">
        <ele>1793</ele>
        <time>2013-09-05T09:11:32Z</time>
      </trkpt>
      <trkpt lat="44.12233" lon="6.97761">
        <ele>1791.6</ele>
        <time>2013-09-05T09:11:36Z</time>
      </trkpt>
      <trkpt lat="44.12236" lon="6.97765">
        <ele>1790.6</ele>
        <time>2013-09-05T09:11:37Z</time>
      </trkpt>
      <trkpt lat="44.12239" lon="6.9777">
        <ele>1790.1</ele>
        <time>2013-09-05T09:11:38Z</time>
      </trkpt>
      <trkpt lat="44.12242" lon="6.97774">
        <ele>1790.6</ele>
        <time>2013-09-05T09:11:39Z</time>
      </trkpt>
      <trkpt lat="44.12245" lon="6.97778">
        <ele>1790.1</ele>
        <time>2013-09-05T09:11:40Z</time>
      </trkpt>
      <trkpt lat="44.12248" lon="6.97781">
        <ele>1788.7</ele>
        <time>2013-09-05T09:11:41Z</time>
      </trkpt>
      <trkpt lat="44.12252" lon="6.97784">
        <ele>1789.2</ele>
        <time>2013-09-05T09:11:42Z</time>
      </trkpt>
      <trkpt lat="44.12256" lon="6.97786">
        <ele>1788.2</ele>
        <time>2013-09-05T09:11:43Z</time>
      </trkpt>
      <trkpt lat="44.12261" lon="6.97789">
        <ele>1788.2</ele>
        <time>2013-09-05T09:11:44Z</time>
      </trkpt>
      <trkpt lat="44.12282" lon="6.97801">
        <ele>1785.8</ele>
        <time>2013-09-05T09:11:48Z</time>
      </trkpt>
      <trkpt lat="44.12286" lon="6.97804">
        <ele>1784.3</ele>
        <time>2013-09-05T09:11:49Z</time>
      </trkpt>
      <trkpt lat="44.1229" lon="6.97808">
        <ele>1784.3</ele>
        <time>2013-09-05T09:11:50Z</time>
      </trkpt>
      <trkpt lat="44.12295" lon="6.97812">
        <ele>1783.4</ele>
        <time>2013-09-05T09:11:51Z</time>
      </trkpt>
      <trkpt lat="44.12299" lon="6.97814">
        <ele>1782.9</ele>
        <time>2013-09-05T09:11:52Z</time>
      </trkpt>
      <trkpt lat="44.12305" lon="6.97817">
        <ele>1782.4</ele>
        <time>2013-09-05T09:11:53Z</time>
      </trkpt>
      <trkpt lat="44.1231" lon="6.97819">
        <ele>1781.9</ele>
        <time>2013-09-05T09:11:54Z</time>
      </trkpt>
      <trkpt lat="44.12315" lon="6.9782">
        <ele>1781.5</ele>
        <time>2013-09-05T09:11:55Z</time>
      </trkpt>
      <trkpt lat="44.1232" lon="6.97821">
        <ele>1780.5</ele>
        <time>2013-09-05T09:11:56Z</time>
      </trkpt>
      <trkpt lat="44.12326" lon="6.9782">
        <ele>1780.5</ele>
        <time>2013-09-05T09:11:57Z</time>
      </trkpt>
      <trkpt lat="44.12331" lon="6.9782">
        <ele>1779.5</ele>
        <time>2013-09-05T09:11:58Z</time>
      </trkpt>
      <trkpt lat="44.12337" lon="6.97819">
        <ele>1778.1</ele>
        <time>2013-09-05T09:11:59Z</time>
      </trkpt>
      <trkpt lat="44.12348" lon="6.97819">
        <ele>1778.1</ele>
        <time>2013-09-05T09:12:01Z</time>
      </trkpt>
      <trkpt lat="44.12375" lon="6.97827">
        <ele>1775.2</ele>
        <time>2013-09-05T09:12:06Z</time>
      </trkpt>
      <trkpt lat="44.12379" lon="6.9783">
        <ele>1774.7</ele>
        <time>2013-09-05T09:12:07Z</time>
      </trkpt>
      <trkpt lat="44.12382" lon="6.97834">
        <ele>1774.7</ele>
        <time>2013-09-05T09:12:08Z</time>
      </trkpt>
      <trkpt lat="44.12386" lon="6.97839">
        <ele>1773.8</ele>
        <time>2013-09-05T09:12:09Z</time>
      </trkpt>
      <trkpt lat="44.12389" lon="6.97844">
        <ele>1774.3</ele>
        <time>2013-09-05T09:12:10Z</time>
      </trkpt>
      <trkpt lat="44.12392" lon="6.97847">
        <ele>1773.3</ele>
        <time>2013-09-05T09:12:11Z</time>
      </trkpt>
      <trkpt lat="44.12404" lon="6.9785">
        <ele>1771.9</ele>
        <time>2013-09-05T09:12:15Z</time>
      </trkpt>
      <trkpt lat="44.12413" lon="6.97848">
        <ele>1771.4</ele>
        <time>2013-09-05T09:12:17Z</time>
      </trkpt>
      <trkpt lat="44.12418" lon="6.97849">
        <ele>1770.4</ele>
        <time>2013-09-05T09:12:18Z</time>
      </trkpt>
      <trkpt lat="44.12423" lon="6.97851">
        <ele>1770.9</ele>
        <time>2013-09-05T09:12:19Z</time>
      </trkpt>
      <trkpt lat="44.12427" lon="6.97854">
        <ele>1770.4</ele>
        <time>2013-09-05T09:12:20Z</time>
      </trkpt>
      <trkpt lat="44.12431" lon="6.97857">
        <ele>1770.4</ele>
        <time>2013-09-05T09:12:21Z</time>
      </trkpt>
      <trkpt lat="44.12435" lon="6.97858">
        <ele>1770.4</ele>
        <time>2013-09-05T09:12:22Z</time>
      </trkpt>
      <trkpt lat="44.12438" lon="6.97858">
        <ele>1770.9</ele>
        <time>2013-09-05T09:12:23Z</time>
      </trkpt>
      <trkpt lat="44.12441" lon="6.97858">
        <ele>1770.9</ele>
        <time>2013-09-05T09:12:24Z</time>
      </trkpt>
      <trkpt lat="44.12443" lon="6.97859">
        <ele>1769.9</ele>
        <time>2013-09-05T09:12:25Z</time>
      </trkpt>
      <trkpt lat="44.12446" lon="6.9786">
        <ele>1770.4</ele>
        <time>2013-09-05T09:12:26Z</time>
      </trkpt>
      <trkpt lat="44.12448" lon="6.97862">
        <ele>1769.9</ele>
        <time>2013-09-05T09:12:27Z</time>
      </trkpt>
      <trkpt lat="44.1245" lon="6.97864">
        <ele>1769.9</ele>
        <time>2013-09-05T09:12:28Z</time>
      </trkpt>
      <trkpt lat="44.12451" lon="6.97866">
        <ele>1770.4</ele>
        <time>2013-09-05T09:12:29Z</time>
      </trkpt>
      <trkpt lat="44.12452" lon="6.97867">
        <ele>1770.4</ele>
        <time>2013-09-05T09:12:30Z</time>
      </trkpt>
      <trkpt lat="44.12454" lon="6.97874">
        <ele>1770.9</ele>
        <time>2013-09-05T09:12:34Z</time>
      </trkpt>
      <trkpt lat="44.12453" lon="6.97876">
        <ele>1770.9</ele>
        <time>2013-09-05T09:12:35Z</time>
      </trkpt>
      <trkpt lat="44.12438" lon="6.97917">
        <ele>1769</ele>
        <time>2013-09-05T09:12:45Z</time>
      </trkpt>
      <trkpt lat="44.1243" lon="6.97958">
        <ele>1767</ele>
        <time>2013-09-05T09:12:56Z</time>
      </trkpt>
      <trkpt lat="44.12433" lon="6.9797">
        <ele>1766.6</ele>
        <time>2013-09-05T09:12:58Z</time>
      </trkpt>
      <trkpt lat="44.12434" lon="6.97976">
        <ele>1766.1</ele>
        <time>2013-09-05T09:12:59Z</time>
      </trkpt>
      <trkpt lat="44.12438" lon="6.98016">
        <ele>1764.2</ele>
        <time>2013-09-05T09:13:05Z</time>
      </trkpt>
      <trkpt lat="44.1244" lon="6.9804">
        <ele>1762.7</ele>
        <time>2013-09-05T09:13:08Z</time>
      </trkpt>
      <trkpt lat="44.1244" lon="6.98048">
        <ele>1762.7</ele>
        <time>2013-09-05T09:13:09Z</time>
      </trkpt>
      <trkpt lat="44.12438" lon="6.98055">
        <ele>1762.2</ele>
        <time>2013-09-05T09:13:10Z</time>
      </trkpt>
      <trkpt lat="44.12435" lon="6.98061">
        <ele>1761.8</ele>
        <time>2013-09-05T09:13:11Z</time>
      </trkpt>
      <trkpt lat="44.12432" lon="6.98067">
        <ele>1761.8</ele>
        <time>2013-09-05T09:13:12Z</time>
      </trkpt>
      <trkpt lat="44.12426" lon="6.98097">
        <ele>1760.3</ele>
        <time>2013-09-05T09:13:20Z</time>
      </trkpt>
      <trkpt lat="44.12427" lon="6.98102">
        <ele>1760.3</ele>
        <time>2013-09-05T09:13:21Z</time>
      </trkpt>
      <trkpt lat="44.12428" lon="6.98107">
        <ele>1759.8</ele>
        <time>2013-09-05T09:13:22Z</time>
      </trkpt>
      <trkpt lat="44.12428" lon="6.98113">
        <ele>1759.8</ele>
        <time>2013-09-05T09:13:23Z</time>
      </trkpt>
      <trkpt lat="44.12428" lon="6.9812">
        <ele>1759.4</ele>
        <time>2013-09-05T09:13:24Z</time>
      </trkpt>
      <trkpt lat="44.12429" lon="6.98139">
        <ele>1759.4</ele>
        <time>2013-09-05T09:13:27Z</time>
      </trkpt>
      <trkpt lat="44.1243" lon="6.98145">
        <ele>1758.9</ele>
        <time>2013-09-05T09:13:28Z</time>
      </trkpt>
      <trkpt lat="44.12432" lon="6.98151">
        <ele>1758.4</ele>
        <time>2013-09-05T09:13:29Z</time>
      </trkpt>
      <trkpt lat="44.12434" lon="6.98157">
        <ele>1757.9</ele>
        <time>2013-09-05T09:13:30Z</time>
      </trkpt>
      <trkpt lat="44.12436" lon="6.98163">
        <ele>1757.9</ele>
        <time>2013-09-05T09:13:31Z</time>
      </trkpt>
      <trkpt lat="44.12439" lon="6.98169">
        <ele>1757.9</ele>
        <time>2013-09-05T09:13:32Z</time>
      </trkpt>
      <trkpt lat="44.12443" lon="6.98174">
        <ele>1757.9</ele>
        <time>2013-09-05T09:13:33Z</time>
      </trkpt>
      <trkpt lat="44.12446" lon="6.98178">
        <ele>1757.4</ele>
        <time>2013-09-05T09:13:34Z</time>
      </trkpt>
      <trkpt lat="44.12472" lon="6.98226">
        <ele>1757.4</ele>
        <time>2013-09-05T09:13:46Z</time>
      </trkpt>
      <trkpt lat="44.12467" lon="6.98235">
        <ele>1757.4</ele>
        <time>2013-09-05T09:13:50Z</time>
      </trkpt>
      <trkpt lat="44.12465" lon="6.98235">
        <ele>1757.9</ele>
        <time>2013-09-05T09:13:51Z</time>
      </trkpt>
      <trkpt lat="44.12463" lon="6.98236">
        <ele>1757.9</ele>
        <time>2013-09-05T09:13:52Z</time>
      </trkpt>
      <trkpt lat="44.12461" lon="6.98235">
        <ele>1757.9</ele>
        <time>2013-09-05T09:13:53Z</time>
      </trkpt>
      <trkpt lat="44.12459" lon="6.98234">
        <ele>1757.9</ele>
        <time>2013-09-05T09:13:54Z</time>
      </trkpt>
      <trkpt lat="44.12456" lon="6.98233">
        <ele>1757.9</ele>
        <time>2013-09-05T09:13:55Z</time>
      </trkpt>
      <trkpt lat="44.12454" lon="6.98232">
        <ele>1757.9</ele>
        <time>2013-09-05T09:13:56Z</time>
      </trkpt>
      <trkpt lat="44.12452" lon="6.98231">
        <ele>1757.4</ele>
        <time>2013-09-05T09:13:57Z</time>
      </trkpt>
      <trkpt lat="44.12423" lon="6.98241">
        <ele>1757.4</ele>
        <time>2013-09-05T09:14:09Z</time>
      </trkpt>
      <trkpt lat="44.12393" lon="6.98251">
        <ele>1760.3</ele>
        <time>2013-09-05T09:14:25Z</time>
      </trkpt>
      <trkpt lat="44.1237" lon="6.98269">
        <ele>1762.7</ele>
        <time>2013-09-05T09:14:40Z</time>
      </trkpt>
      <trkpt lat="44.12342" lon="6.98295">
        <ele>1766.1</ele>
        <time>2013-09-05T09:15:00Z</time>
      </trkpt>
      <trkpt lat="44.12328" lon="6.98315">
        <ele>1768</ele>
        <time>2013-09-05T09:15:11Z</time>
      </trkpt>
      <trkpt lat="44.12307" lon="6.98346">
        <ele>1770.4</ele>
        <time>2013-09-05T09:15:29Z</time>
      </trkpt>
      <trkpt lat="44.12284" lon="6.9836">
        <ele>1771.9</ele>
        <time>2013-09-05T09:15:43Z</time>
      </trkpt>
      <trkpt lat="44.1226" lon="6.98369">
        <ele>1774.3</ele>
        <time>2013-09-05T09:15:57Z</time>
      </trkpt>
      <trkpt lat="44.12244" lon="6.98388">
        <ele>1776.7</ele>
        <time>2013-09-05T09:16:11Z</time>
      </trkpt>
      <trkpt lat="44.12213" lon="6.98404">
        <ele>1779.5</ele>
        <time>2013-09-05T09:16:30Z</time>
      </trkpt>
      <trkpt lat="44.12183" lon="6.98418">
        <ele>1781.9</ele>
        <time>2013-09-05T09:16:48Z</time>
      </trkpt>
      <trkpt lat="44.12156" lon="6.98431">
        <ele>1784.8</ele>
        <time>2013-09-05T09:17:05Z</time>
      </trkpt>
      <trkpt lat="44.12132" lon="6.98423">
        <ele>1786.3</ele>
        <time>2013-09-05T09:17:19Z</time>
      </trkpt>
      <trkpt lat="44.12111" lon="6.98389">
        <ele>1789.2</ele>
        <time>2013-09-05T09:17:35Z</time>
      </trkpt>
      <trkpt lat="44.12092" lon="6.98364">
        <ele>1790.6</ele>
        <time>2013-09-05T09:17:50Z</time>
      </trkpt>
      <trkpt lat="44.12064" lon="6.98341">
        <ele>1793.5</ele>
        <time>2013-09-05T09:18:08Z</time>
      </trkpt>
      <trkpt lat="44.12033" lon="6.98324">
        <ele>1794.9</ele>
        <time>2013-09-05T09:18:24Z</time>
      </trkpt>
      <trkpt lat="44.12022" lon="6.98317">
        <ele>1794.9</ele>
        <time>2013-09-05T09:18:30Z</time>
      </trkpt>
      <trkpt lat="44.1202" lon="6.98317">
        <ele>1795.4</ele>
        <time>2013-09-05T09:18:31Z</time>
      </trkpt>
      <trkpt lat="44.12018" lon="6.98319">
        <ele>1795.9</ele>
        <time>2013-09-05T09:18:32Z</time>
      </trkpt>
      <trkpt lat="44.12016" lon="6.98321">
        <ele>1795.9</ele>
        <time>2013-09-05T09:18:33Z</time>
      </trkpt>
      <trkpt lat="44.12016" lon="6.98323">
        <ele>1795.9</ele>
        <time>2013-09-05T09:18:34Z</time>
      </trkpt>
      <trkpt lat="44.12016" lon="6.98326">
        <ele>1795.9</ele>
        <time>2013-09-05T09:18:35Z</time>
      </trkpt>
      <trkpt lat="44.12017" lon="6.98328">
        <ele>1795.9</ele>
        <time>2013-09-05T09:18:36Z</time>
      </trkpt>
      <trkpt lat="44.12018" lon="6.9833">
        <ele>1796.4</ele>
        <time>2013-09-05T09:18:37Z</time>
      </trkpt>
      <trkpt lat="44.12019" lon="6.98332">
        <ele>1796.4</ele>
        <time>2013-09-05T09:18:38Z</time>
      </trkpt>
      <trkpt lat="44.12021" lon="6.98333">
        <ele>1796.8</ele>
        <time>2013-09-05T09:18:39Z</time>
      </trkpt>
      <trkpt lat="44.12023" lon="6.98334">
        <ele>1796.8</ele>
        <time>2013-09-05T09:18:40Z</time>
      </trkpt>
      <trkpt lat="44.12052" lon="6.98351">
        <ele>1799.7</ele>
        <time>2013-09-05T09:18:57Z</time>
      </trkpt>
      <trkpt lat="44.12073" lon="6.98379">
        <ele>1801.7</ele>
        <time>2013-09-05T09:19:13Z</time>
      </trkpt>
      <trkpt lat="44.12084" lon="6.98413">
        <ele>1804.5</ele>
        <time>2013-09-05T09:19:28Z</time>
      </trkpt>
      <trkpt lat="44.12097" lon="6.9845">
        <ele>1806.9</ele>
        <time>2013-09-05T09:19:44Z</time>
      </trkpt>
      <trkpt lat="44.12106" lon="6.9848">
        <ele>1809.8</ele>
        <time>2013-09-05T09:19:59Z</time>
      </trkpt>
      <trkpt lat="44.12127" lon="6.98495">
        <ele>1811.7</ele>
        <time>2013-09-05T09:20:14Z</time>
      </trkpt>
      <trkpt lat="44.12166" lon="6.98494">
        <ele>1814.2</ele>
        <time>2013-09-05T09:20:35Z</time>
      </trkpt>
      <trkpt lat="44.12199" lon="6.98491">
        <ele>1816.6</ele>
        <time>2013-09-05T09:20:53Z</time>
      </trkpt>
      <trkpt lat="44.12202" lon="6.98496">
        <ele>1816.6</ele>
        <time>2013-09-05T09:20:56Z</time>
      </trkpt>
      <trkpt lat="44.12202" lon="6.98499">
        <ele>1817.5</ele>
        <time>2013-09-05T09:20:57Z</time>
      </trkpt>
      <trkpt lat="44.12202" lon="6.98501">
        <ele>1817.5</ele>
        <time>2013-09-05T09:20:58Z</time>
      </trkpt>
      <trkpt lat="44.122" lon="6.98503">
        <ele>1818</ele>
        <time>2013-09-05T09:20:59Z</time>
      </trkpt>
      <trkpt lat="44.12198" lon="6.98505">
        <ele>1817.5</ele>
        <time>2013-09-05T09:21:00Z</time>
      </trkpt>
      <trkpt lat="44.12196" lon="6.98506">
        <ele>1818.5</ele>
        <time>2013-09-05T09:21:01Z</time>
      </trkpt>
      <trkpt lat="44.12164" lon="6.98515">
        <ele>1819.9</ele>
        <time>2013-09-05T09:21:17Z</time>
      </trkpt>
      <trkpt lat="44.1213" lon="6.98534">
        <ele>1821.8</ele>
        <time>2013-09-05T09:21:33Z</time>
      </trkpt>
      <trkpt lat="44.12102" lon="6.98558">
        <ele>1824.2</ele>
        <time>2013-09-05T09:21:51Z</time>
      </trkpt>
      <trkpt lat="44.12098" lon="6.98567">
        <ele>1825.2</ele>
        <time>2013-09-05T09:22:04Z</time>
      </trkpt>
      <trkpt lat="44.12097" lon="6.98568">
        <ele>1824.7</ele>
        <time>2013-09-05T09:22:13Z</time>
      </trkpt>
      <trkpt lat="44.12097" lon="6.9857">
        <ele>1824.7</ele>
        <time>2013-09-05T09:22:14Z</time>
      </trkpt>
      <trkpt lat="44.12096" lon="6.98572">
        <ele>1825.2</ele>
        <time>2013-09-05T09:22:15Z</time>
      </trkpt>
      <trkpt lat="44.12095" lon="6.98574">
        <ele>1824.7</ele>
        <time>2013-09-05T09:22:16Z</time>
      </trkpt>
      <trkpt lat="44.12094" lon="6.98575">
        <ele>1824.7</ele>
        <time>2013-09-05T09:22:17Z</time>
      </trkpt>
      <trkpt lat="44.12093" lon="6.98577">
        <ele>1825.2</ele>
        <time>2013-09-05T09:22:18Z</time>
      </trkpt>
      <trkpt lat="44.12092" lon="6.98579">
        <ele>1825.2</ele>
        <time>2013-09-05T09:22:19Z</time>
      </trkpt>
      <trkpt lat="44.12091" lon="6.98581">
        <ele>1825.7</ele>
        <time>2013-09-05T09:22:20Z</time>
      </trkpt>
      <trkpt lat="44.1209" lon="6.98583">
        <ele>1825.7</ele>
        <time>2013-09-05T09:22:21Z</time>
      </trkpt>
      <trkpt lat="44.12089" lon="6.98584">
        <ele>1825.2</ele>
        <time>2013-09-05T09:22:22Z</time>
      </trkpt>
      <trkpt lat="44.12088" lon="6.98587">
        <ele>1825.7</ele>
        <time>2013-09-05T09:22:23Z</time>
      </trkpt>
      <trkpt lat="44.12083" lon="6.98601">
        <ele>1825.7</ele>
        <time>2013-09-05T09:22:35Z</time>
      </trkpt>
      <trkpt lat="44.12082" lon="6.986">
        <ele>1826.2</ele>
        <time>2013-09-05T09:22:40Z</time>
      </trkpt>
      <trkpt lat="44.12083" lon="6.98599">
        <ele>1825.7</ele>
        <time>2013-09-05T09:23:05Z</time>
      </trkpt>
      <trkpt lat="44.12083" lon="6.98602">
        <ele>1825.2</ele>
        <time>2013-09-05T09:23:11Z</time>
      </trkpt>
      <trkpt lat="44.12083" lon="6.98604">
        <ele>1825.7</ele>
        <time>2013-09-05T09:23:12Z</time>
      </trkpt>
      <trkpt lat="44.12083" lon="6.98606">
        <ele>1825.7</ele>
        <time>2013-09-05T09:23:13Z</time>
      </trkpt>
      <trkpt lat="44.12094" lon="6.98639">
        <ele>1825.2</ele>
        <time>2013-09-05T09:23:26Z</time>
      </trkpt>
      <trkpt lat="44.12098" lon="6.98641">
        <ele>1824.7</ele>
        <time>2013-09-05T09:23:38Z</time>
      </trkpt>
      <trkpt lat="44.12098" lon="6.98641">
        <ele>1825.2</ele>
        <time>2013-09-05T09:24:08Z</time>
      </trkpt>
      <trkpt lat="44.12099" lon="6.98644">
        <ele>1826.6</ele>
        <time>2013-09-05T09:24:18Z</time>
      </trkpt>
      <trkpt lat="44.12108" lon="6.98654">
        <ele>1827.6</ele>
        <time>2013-09-05T09:24:32Z</time>
      </trkpt>
      <trkpt lat="44.12107" lon="6.98652">
        <ele>1827.1</ele>
        <time>2013-09-05T09:24:49Z</time>
      </trkpt>
      <trkpt lat="44.12106" lon="6.98653">
        <ele>1827.6</ele>
        <time>2013-09-05T09:25:09Z</time>
      </trkpt>
      <trkpt lat="44.12108" lon="6.98655">
        <ele>1827.6</ele>
        <time>2013-09-05T09:25:27Z</time>
      </trkpt>
      <trkpt lat="44.12111" lon="6.98654">
        <ele>1827.6</ele>
        <time>2013-09-05T09:25:42Z</time>
      </trkpt>
      <trkpt lat="44.12112" lon="6.98658">
        <ele>1827.6</ele>
        <time>2013-09-05T09:26:03Z</time>
      </trkpt>
      <trkpt lat="44.12128" lon="6.98675">
        <ele>1830</ele>
        <time>2013-09-05T09:26:17Z</time>
      </trkpt>
      <trkpt lat="44.12134" lon="6.98679">
        <ele>1831</ele>
        <time>2013-09-05T09:26:22Z</time>
      </trkpt>
      <trkpt lat="44.12139" lon="6.98684">
        <ele>1831.9</ele>
        <time>2013-09-05T09:26:27Z</time>
      </trkpt>
      <trkpt lat="44.12149" lon="6.98696">
        <ele>1832.9</ele>
        <time>2013-09-05T09:26:36Z</time>
      </trkpt>
      <trkpt lat="44.12166" lon="6.98712">
        <ele>1835.3</ele>
        <time>2013-09-05T09:26:50Z</time>
      </trkpt>
      <trkpt lat="44.12187" lon="6.98724">
        <ele>1837.7</ele>
        <time>2013-09-05T09:27:07Z</time>
      </trkpt>
      <trkpt lat="44.12195" lon="6.98727">
        <ele>1839.1</ele>
        <time>2013-09-05T09:27:19Z</time>
      </trkpt>
      <trkpt lat="44.12204" lon="6.98722">
        <ele>1840.1</ele>
        <time>2013-09-05T09:27:35Z</time>
      </trkpt>
      <trkpt lat="44.12211" lon="6.98719">
        <ele>1841.1</ele>
        <time>2013-09-05T09:27:48Z</time>
      </trkpt>
      <trkpt lat="44.12221" lon="6.98715">
        <ele>1843</ele>
        <time>2013-09-05T09:28:02Z</time>
      </trkpt>
      <trkpt lat="44.12225" lon="6.98712">
        <ele>1844</ele>
        <time>2013-09-05T09:28:17Z</time>
      </trkpt>
      <trkpt lat="44.1223" lon="6.98715">
        <ele>1844.4</ele>
        <time>2013-09-05T09:28:29Z</time>
      </trkpt>
      <trkpt lat="44.12234" lon="6.98719">
        <ele>1844.4</ele>
        <time>2013-09-05T09:28:35Z</time>
      </trkpt>
      <trkpt lat="44.12244" lon="6.98728">
        <ele>1845.9</ele>
        <time>2013-09-05T09:28:50Z</time>
      </trkpt>
      <trkpt lat="44.12248" lon="6.98737">
        <ele>1846.4</ele>
        <time>2013-09-05T09:29:03Z</time>
      </trkpt>
      <trkpt lat="44.12253" lon="6.98756">
        <ele>1848.3</ele>
        <time>2013-09-05T09:29:22Z</time>
      </trkpt>
      <trkpt lat="44.12253" lon="6.98762">
        <ele>1847.8</ele>
        <time>2013-09-05T09:29:29Z</time>
      </trkpt>
      <trkpt lat="44.12257" lon="6.98779">
        <ele>1849.2</ele>
        <time>2013-09-05T09:29:44Z</time>
      </trkpt>
      <trkpt lat="44.12266" lon="6.98791">
        <ele>1850.2</ele>
        <time>2013-09-05T09:30:02Z</time>
      </trkpt>
      <trkpt lat="44.1228" lon="6.98804">
        <ele>1850.7</ele>
        <time>2013-09-05T09:30:15Z</time>
      </trkpt>
      <trkpt lat="44.1229" lon="6.98808">
        <ele>1852.1</ele>
        <time>2013-09-05T09:30:22Z</time>
      </trkpt>
      <trkpt lat="44.12307" lon="6.9882">
        <ele>1854</ele>
        <time>2013-09-05T09:30:35Z</time>
      </trkpt>
      <trkpt lat="44.12312" lon="6.9883">
        <ele>1855</ele>
        <time>2013-09-05T09:30:45Z</time>
      </trkpt>
      <trkpt lat="44.12314" lon="6.98839">
        <ele>1856.4</ele>
        <time>2013-09-05T09:31:02Z</time>
      </trkpt>
      <trkpt lat="44.12315" lon="6.98844">
        <ele>1857.4</ele>
        <time>2013-09-05T09:31:11Z</time>
      </trkpt>
      <trkpt lat="44.12323" lon="6.98863">
        <ele>1857.9</ele>
        <time>2013-09-05T09:31:29Z</time>
      </trkpt>
      <trkpt lat="44.12323" lon="6.98863">
        <ele>1858.4</ele>
        <time>2013-09-05T09:31:34Z</time>
      </trkpt>
      <trkpt lat="44.12342" lon="6.98884">
        <ele>1860.3</ele>
        <time>2013-09-05T09:31:50Z</time>
      </trkpt>
      <trkpt lat="44.12369" lon="6.9891">
        <ele>1863.2</ele>
        <time>2013-09-05T09:32:09Z</time>
      </trkpt>
      <trkpt lat="44.12381" lon="6.98922">
        <ele>1863.2</ele>
        <time>2013-09-05T09:32:23Z</time>
      </trkpt>
      <trkpt lat="44.12387" lon="6.98929">
        <ele>1865.6</ele>
        <time>2013-09-05T09:32:37Z</time>
      </trkpt>
      <trkpt lat="44.12396" lon="6.98938">
        <ele>1865.6</ele>
        <time>2013-09-05T09:32:53Z</time>
      </trkpt>
      <trkpt lat="44.12399" lon="6.98942">
        <ele>1866.1</ele>
        <time>2013-09-05T09:33:11Z</time>
      </trkpt>
      <trkpt lat="44.12415" lon="6.98963">
        <ele>1866.5</ele>
        <time>2013-09-05T09:33:25Z</time>
      </trkpt>
      <trkpt lat="44.12421" lon="6.98968">
        <ele>1868.5</ele>
        <time>2013-09-05T09:33:35Z</time>
      </trkpt>
      <trkpt lat="44.12436" lon="6.9898">
        <ele>1869.4</ele>
        <time>2013-09-05T09:33:49Z</time>
      </trkpt>
      <trkpt lat="44.1244" lon="6.98987">
        <ele>1869.9</ele>
        <time>2013-09-05T09:33:53Z</time>
      </trkpt>
      <trkpt lat="44.1245" lon="6.98995">
        <ele>1870.9</ele>
        <time>2013-09-05T09:34:02Z</time>
      </trkpt>
      <trkpt lat="44.12456" lon="6.99004">
        <ele>1871.8</ele>
        <time>2013-09-05T09:34:16Z</time>
      </trkpt>
      <trkpt lat="44.12462" lon="6.99016">
        <ele>1872.8</ele>
        <time>2013-09-05T09:34:30Z</time>
      </trkpt>
      <trkpt lat="44.12464" lon="6.99031">
        <ele>1872.8</ele>
        <time>2013-09-05T09:34:45Z</time>
      </trkpt>
      <trkpt lat="44.12467" lon="6.99048">
        <ele>1873.8</ele>
        <time>2013-09-05T09:35:01Z</time>
      </trkpt>
      <trkpt lat="44.12473" lon="6.99058">
        <ele>1874.7</ele>
        <time>2013-09-05T09:35:15Z</time>
      </trkpt>
      <trkpt lat="44.12493" lon="6.99084">
        <ele>1876.2</ele>
        <time>2013-09-05T09:35:30Z</time>
      </trkpt>
      <trkpt lat="44.12517" lon="6.99107">
        <ele>1877.6</ele>
        <time>2013-09-05T09:35:46Z</time>
      </trkpt>
      <trkpt lat="44.12526" lon="6.99114">
        <ele>1878.1</ele>
        <time>2013-09-05T09:36:00Z</time>
      </trkpt>
      <trkpt lat="44.12544" lon="6.9913">
        <ele>1879</ele>
        <time>2013-09-05T09:36:11Z</time>
      </trkpt>
      <trkpt lat="44.1257" lon="6.99155">
        <ele>1880</ele>
        <time>2013-09-05T09:36:25Z</time>
      </trkpt>
      <trkpt lat="44.12609" lon="6.99178">
        <ele>1881</ele>
        <time>2013-09-05T09:36:43Z</time>
      </trkpt>
      <trkpt lat="44.12641" lon="6.992">
        <ele>1881.4</ele>
        <time>2013-09-05T09:36:57Z</time>
      </trkpt>
      <trkpt lat="44.12672" lon="6.99222">
        <ele>1881.4</ele>
        <time>2013-09-05T09:37:11Z</time>
      </trkpt>
      <trkpt lat="44.12707" lon="6.99249">
        <ele>1883.8</ele>
        <time>2013-09-05T09:37:28Z</time>
      </trkpt>
      <trkpt lat="44.12728" lon="6.99258">
        <ele>1886.2</ele>
        <time>2013-09-05T09:37:41Z</time>
      </trkpt>
      <trkpt lat="44.1273" lon="6.99259">
        <ele>1885.8</ele>
        <time>2013-09-05T09:37:42Z</time>
      </trkpt>
      <trkpt lat="44.12731" lon="6.9926">
        <ele>1886.7</ele>
        <time>2013-09-05T09:37:43Z</time>
      </trkpt>
      <trkpt lat="44.12732" lon="6.99261">
        <ele>1886.7</ele>
        <time>2013-09-05T09:37:44Z</time>
      </trkpt>
      <trkpt lat="44.12734" lon="6.99261">
        <ele>1887.2</ele>
        <time>2013-09-05T09:37:45Z</time>
      </trkpt>
      <trkpt lat="44.12757" lon="6.99267">
        <ele>1889.6</ele>
        <time>2013-09-05T09:38:01Z</time>
      </trkpt>
      <trkpt lat="44.1278" lon="6.99283">
        <ele>1892</ele>
        <time>2013-09-05T09:38:19Z</time>
      </trkpt>
      <trkpt lat="44.12794" lon="6.99292">
        <ele>1893</ele>
        <time>2013-09-05T09:38:29Z</time>
      </trkpt>
      <trkpt lat="44.12795" lon="6.99293">
        <ele>1893.5</ele>
        <time>2013-09-05T09:38:30Z</time>
      </trkpt>
      <trkpt lat="44.12818" lon="6.99302">
        <ele>1896.8</ele>
        <time>2013-09-05T09:38:47Z</time>
      </trkpt>
      <trkpt lat="44.12823" lon="6.99304">
        <ele>1897.8</ele>
        <time>2013-09-05T09:38:51Z</time>
      </trkpt>
      <trkpt lat="44.12825" lon="6.99304">
        <ele>1897.3</ele>
        <time>2013-09-05T09:38:52Z</time>
      </trkpt>
      <trkpt lat="44.12826" lon="6.99304">
        <ele>1897.8</ele>
        <time>2013-09-05T09:38:53Z</time>
      </trkpt>
      <trkpt lat="44.12827" lon="6.99305">
        <ele>1897.8</ele>
        <time>2013-09-05T09:38:54Z</time>
      </trkpt>
      <trkpt lat="44.12828" lon="6.99306">
        <ele>1897.8</ele>
        <time>2013-09-05T09:38:55Z</time>
      </trkpt>
      <trkpt lat="44.12851" lon="6.99313">
        <ele>1901.1</ele>
        <time>2013-09-05T09:39:13Z</time>
      </trkpt>
      <trkpt lat="44.12876" lon="6.99319">
        <ele>1904</ele>
        <time>2013-09-05T09:39:32Z</time>
      </trkpt>
      <trkpt lat="44.12897" lon="6.99325">
        <ele>1906</ele>
        <time>2013-09-05T09:39:49Z</time>
      </trkpt>
      <trkpt lat="44.12903" lon="6.99325">
        <ele>1906.9</ele>
        <time>2013-09-05T09:40:02Z</time>
      </trkpt>
      <trkpt lat="44.12911" lon="6.99325">
        <ele>1907.9</ele>
        <time>2013-09-05T09:40:18Z</time>
      </trkpt>
      <trkpt lat="44.12923" lon="6.99328">
        <ele>1909.3</ele>
        <time>2013-09-05T09:40:34Z</time>
      </trkpt>
      <trkpt lat="44.12934" lon="6.99328">
        <ele>1910.8</ele>
        <time>2013-09-05T09:40:49Z</time>
      </trkpt>
      <trkpt lat="44.12945" lon="6.99331">
        <ele>1911.7</ele>
        <time>2013-09-05T09:41:06Z</time>
      </trkpt>
      <trkpt lat="44.12959" lon="6.99329">
        <ele>1913.6</ele>
        <time>2013-09-05T09:41:24Z</time>
      </trkpt>
      <trkpt lat="44.12972" lon="6.99325">
        <ele>1915.6</ele>
        <time>2013-09-05T09:41:42Z</time>
      </trkpt>
      <trkpt lat="44.12983" lon="6.99321">
        <ele>1917.5</ele>
        <time>2013-09-05T09:41:57Z</time>
      </trkpt>
      <trkpt lat="44.12991" lon="6.99319">
        <ele>1918.5</ele>
        <time>2013-09-05T09:42:12Z</time>
      </trkpt>
      <trkpt lat="44.1301" lon="6.99311">
        <ele>1920.9</ele>
        <time>2013-09-05T09:42:34Z</time>
      </trkpt>
      <trkpt lat="44.13019" lon="6.99315">
        <ele>1921.3</ele>
        <time>2013-09-05T09:42:45Z</time>
      </trkpt>
      <trkpt lat="44.13025" lon="6.99322">
        <ele>1922.8</ele>
        <time>2013-09-05T09:43:01Z</time>
      </trkpt>
      <trkpt lat="44.13029" lon="6.9933">
        <ele>1923.3</ele>
        <time>2013-09-05T09:43:16Z</time>
      </trkpt>
      <trkpt lat="44.13032" lon="6.99335">
        <ele>1923.7</ele>
        <time>2013-09-05T09:43:31Z</time>
      </trkpt>
      <trkpt lat="44.13032" lon="6.99336">
        <ele>1923.7</ele>
        <time>2013-09-05T09:43:41Z</time>
      </trkpt>
      <trkpt lat="44.13032" lon="6.99338">
        <ele>1923.7</ele>
        <time>2013-09-05T09:43:42Z</time>
      </trkpt>
      <trkpt lat="44.13033" lon="6.9934">
        <ele>1923.7</ele>
        <time>2013-09-05T09:43:43Z</time>
      </trkpt>
      <trkpt lat="44.13034" lon="6.99342">
        <ele>1924.2</ele>
        <time>2013-09-05T09:43:44Z</time>
      </trkpt>
      <trkpt lat="44.13035" lon="6.99344">
        <ele>1924.2</ele>
        <time>2013-09-05T09:43:45Z</time>
      </trkpt>
      <trkpt lat="44.13048" lon="6.99373">
        <ele>1926.6</ele>
        <time>2013-09-05T09:44:02Z</time>
      </trkpt>
      <trkpt lat="44.1306" lon="6.99396">
        <ele>1930</ele>
        <time>2013-09-05T09:44:19Z</time>
      </trkpt>
      <trkpt lat="44.13075" lon="6.99411">
        <ele>1932.4</ele>
        <time>2013-09-05T09:44:34Z</time>
      </trkpt>
      <trkpt lat="44.13077" lon="6.99414">
        <ele>1932.4</ele>
        <time>2013-09-05T09:44:36Z</time>
      </trkpt>
      <trkpt lat="44.13077" lon="6.99416">
        <ele>1932.4</ele>
        <time>2013-09-05T09:44:37Z</time>
      </trkpt>
      <trkpt lat="44.13085" lon="6.9944">
        <ele>1934.3</ele>
        <time>2013-09-05T09:44:51Z</time>
      </trkpt>
      <trkpt lat="44.13085" lon="6.99442">
        <ele>1934.3</ele>
        <time>2013-09-05T09:44:52Z</time>
      </trkpt>
      <trkpt lat="44.1308" lon="6.99472">
        <ele>1935.8</ele>
        <time>2013-09-05T09:45:06Z</time>
      </trkpt>
      <trkpt lat="44.1307" lon="6.99496">
        <ele>1939.1</ele>
        <time>2013-09-05T09:45:20Z</time>
      </trkpt>
      <trkpt lat="44.13062" lon="6.99511">
        <ele>1940.1</ele>
        <time>2013-09-05T09:45:30Z</time>
      </trkpt>
      <trkpt lat="44.13061" lon="6.99512">
        <ele>1940.1</ele>
        <time>2013-09-05T09:45:31Z</time>
      </trkpt>
      <trkpt lat="44.13043" lon="6.99533">
        <ele>1943</ele>
        <time>2013-09-05T09:45:47Z</time>
      </trkpt>
      <trkpt lat="44.13028" lon="6.9955">
        <ele>1944.9</ele>
        <time>2013-09-05T09:46:01Z</time>
      </trkpt>
      <trkpt lat="44.13008" lon="6.99569">
        <ele>1947.3</ele>
        <time>2013-09-05T09:46:17Z</time>
      </trkpt>
      <trkpt lat="44.12999" lon="6.99577">
        <ele>1948.3</ele>
        <time>2013-09-05T09:46:30Z</time>
      </trkpt>
      <trkpt lat="44.12998" lon="6.9958">
        <ele>1949.2</ele>
        <time>2013-09-05T09:46:43Z</time>
      </trkpt>
      <trkpt lat="44.13001" lon="6.99583">
        <ele>1950.2</ele>
        <time>2013-09-05T09:46:58Z</time>
      </trkpt>
      <trkpt lat="44.13002" lon="6.99585">
        <ele>1950.7</ele>
        <time>2013-09-05T09:47:21Z</time>
      </trkpt>
      <trkpt lat="44.13009" lon="6.99581">
        <ele>1951.1</ele>
        <time>2013-09-05T09:47:35Z</time>
      </trkpt>
      <trkpt lat="44.13019" lon="6.99575">
        <ele>1953.1</ele>
        <time>2013-09-05T09:47:49Z</time>
      </trkpt>
      <trkpt lat="44.13029" lon="6.99572">
        <ele>1955</ele>
        <time>2013-09-05T09:48:04Z</time>
      </trkpt>
      <trkpt lat="44.13041" lon="6.9957">
        <ele>1956.4</ele>
        <time>2013-09-05T09:48:21Z</time>
      </trkpt>
      <trkpt lat="44.13057" lon="6.99563">
        <ele>1956.9</ele>
        <time>2013-09-05T09:48:39Z</time>
      </trkpt>
      <trkpt lat="44.13068" lon="6.99561">
        <ele>1958.3</ele>
        <time>2013-09-05T09:48:55Z</time>
      </trkpt>
      <trkpt lat="44.13084" lon="6.99564">
        <ele>1959.3</ele>
        <time>2013-09-05T09:49:08Z</time>
      </trkpt>
      <trkpt lat="44.13097" lon="6.99564">
        <ele>1961.7</ele>
        <time>2013-09-05T09:49:18Z</time>
      </trkpt>
      <trkpt lat="44.13116" lon="6.99555">
        <ele>1963.6</ele>
        <time>2013-09-05T09:49:35Z</time>
      </trkpt>
      <trkpt lat="44.13122" lon="6.99549">
        <ele>1964.6</ele>
        <time>2013-09-05T09:49:45Z</time>
      </trkpt>
      <trkpt lat="44.13136" lon="6.9954">
        <ele>1967</ele>
        <time>2013-09-05T09:50:04Z</time>
      </trkpt>
      <trkpt lat="44.13146" lon="6.99527">
        <ele>1968.4</ele>
        <time>2013-09-05T09:50:21Z</time>
      </trkpt>
      <trkpt lat="44.13158" lon="6.99517">
        <ele>1969.9</ele>
        <time>2013-09-05T09:50:38Z</time>
      </trkpt>
      <trkpt lat="44.13172" lon="6.99507">
        <ele>1971.3</ele>
        <time>2013-09-05T09:50:56Z</time>
      </trkpt>
      <trkpt lat="44.13187" lon="6.99494">
        <ele>1973.2</ele>
        <time>2013-09-05T09:51:15Z</time>
      </trkpt>
      <trkpt lat="44.13199" lon="6.99486">
        <ele>1975.7</ele>
        <time>2013-09-05T09:51:33Z</time>
      </trkpt>
      <trkpt lat="44.132" lon="6.99484">
        <ele>1975.2</ele>
        <time>2013-09-05T09:51:55Z</time>
      </trkpt>
      <trkpt lat="44.13198" lon="6.99489">
        <ele>1975.7</ele>
        <time>2013-09-05T09:52:09Z</time>
      </trkpt>
      <trkpt lat="44.13197" lon="6.99491">
        <ele>1975.2</ele>
        <time>2013-09-05T09:52:10Z</time>
      </trkpt>
      <trkpt lat="44.13186" lon="6.99506">
        <ele>1975.2</ele>
        <time>2013-09-05T09:52:19Z</time>
      </trkpt>
      <trkpt lat="44.13185" lon="6.99508">
        <ele>1975.7</ele>
        <time>2013-09-05T09:52:20Z</time>
      </trkpt>
      <trkpt lat="44.13183" lon="6.9951">
        <ele>1975.7</ele>
        <time>2013-09-05T09:52:21Z</time>
      </trkpt>
      <trkpt lat="44.13163" lon="6.9954">
        <ele>1977.1</ele>
        <time>2013-09-05T09:52:36Z</time>
      </trkpt>
      <trkpt lat="44.13144" lon="6.99584">
        <ele>1977.6</ele>
        <time>2013-09-05T09:52:55Z</time>
      </trkpt>
      <trkpt lat="44.13136" lon="6.99609">
        <ele>1978.5</ele>
        <time>2013-09-05T09:53:08Z</time>
      </trkpt>
      <trkpt lat="44.13132" lon="6.99619">
        <ele>1979</ele>
        <time>2013-09-05T09:53:14Z</time>
      </trkpt>
      <trkpt lat="44.13131" lon="6.9962">
        <ele>1979</ele>
        <time>2013-09-05T09:53:15Z</time>
      </trkpt>
      <trkpt lat="44.1313" lon="6.99621">
        <ele>1979.5</ele>
        <time>2013-09-05T09:53:16Z</time>
      </trkpt>
      <trkpt lat="44.13129" lon="6.99622">
        <ele>1979.5</ele>
        <time>2013-09-05T09:53:17Z</time>
      </trkpt>
      <trkpt lat="44.13128" lon="6.99622">
        <ele>1980</ele>
        <time>2013-09-05T09:53:18Z</time>
      </trkpt>
      <trkpt lat="44.13126" lon="6.99623">
        <ele>1980</ele>
        <time>2013-09-05T09:53:19Z</time>
      </trkpt>
      <trkpt lat="44.13117" lon="6.99637">
        <ele>1982.9</ele>
        <time>2013-09-05T09:53:31Z</time>
      </trkpt>
      <trkpt lat="44.13112" lon="6.99644">
        <ele>1984.3</ele>
        <time>2013-09-05T09:53:38Z</time>
      </trkpt>
      <trkpt lat="44.13111" lon="6.99644">
        <ele>1984.8</ele>
        <time>2013-09-05T09:53:39Z</time>
      </trkpt>
      <trkpt lat="44.13109" lon="6.99645">
        <ele>1984.8</ele>
        <time>2013-09-05T09:53:40Z</time>
      </trkpt>
      <trkpt lat="44.13094" lon="6.99647">
        <ele>1986.2</ele>
        <time>2013-09-05T09:53:53Z</time>
      </trkpt>
      <trkpt lat="44.13092" lon="6.99647">
        <ele>1986.2</ele>
        <time>2013-09-05T09:53:54Z</time>
      </trkpt>
      <trkpt lat="44.13091" lon="6.99646">
        <ele>1986.2</ele>
        <time>2013-09-05T09:53:55Z</time>
      </trkpt>
      <trkpt lat="44.1309" lon="6.99646">
        <ele>1986.7</ele>
        <time>2013-09-05T09:53:56Z</time>
      </trkpt>
      <trkpt lat="44.13089" lon="6.99645">
        <ele>1986.2</ele>
        <time>2013-09-05T09:53:57Z</time>
      </trkpt>
      <trkpt lat="44.13084" lon="6.99644">
        <ele>1986.7</ele>
        <time>2013-09-05T09:54:12Z</time>
      </trkpt>
      <trkpt lat="44.13071" lon="6.9965">
        <ele>1989.1</ele>
        <time>2013-09-05T09:54:29Z</time>
      </trkpt>
      <trkpt lat="44.13069" lon="6.9965">
        <ele>1989.1</ele>
        <time>2013-09-05T09:54:32Z</time>
      </trkpt>
      <trkpt lat="44.13059" lon="6.99659">
        <ele>1991</ele>
        <time>2013-09-05T09:54:49Z</time>
      </trkpt>
      <trkpt lat="44.13053" lon="6.99667">
        <ele>1993</ele>
        <time>2013-09-05T09:55:09Z</time>
      </trkpt>
      <trkpt lat="44.13044" lon="6.99672">
        <ele>1994.9</ele>
        <time>2013-09-05T09:55:24Z</time>
      </trkpt>
      <trkpt lat="44.13038" lon="6.99683">
        <ele>1997.3</ele>
        <time>2013-09-05T09:55:40Z</time>
      </trkpt>
      <trkpt lat="44.13031" lon="6.99693">
        <ele>1999.2</ele>
        <time>2013-09-05T09:55:56Z</time>
      </trkpt>
      <trkpt lat="44.13022" lon="6.99698">
        <ele>2000.2</ele>
        <time>2013-09-05T09:56:10Z</time>
      </trkpt>
      <trkpt lat="44.13023" lon="6.99701">
        <ele>2000.6</ele>
        <time>2013-09-05T09:56:34Z</time>
      </trkpt>
      <trkpt lat="44.13019" lon="6.99703">
        <ele>2001.1</ele>
        <time>2013-09-05T09:56:51Z</time>
      </trkpt>
      <trkpt lat="44.13014" lon="6.99705">
        <ele>2002.1</ele>
        <time>2013-09-05T09:57:03Z</time>
      </trkpt>
      <trkpt lat="44.13011" lon="6.99706">
        <ele>2002.6</ele>
        <time>2013-09-05T09:57:17Z</time>
      </trkpt>
      <trkpt lat="44.13011" lon="6.99714">
        <ele>2004.5</ele>
        <time>2013-09-05T09:57:33Z</time>
      </trkpt>
      <trkpt lat="44.13004" lon="6.99719">
        <ele>2006.4</ele>
        <time>2013-09-05T09:57:48Z</time>
      </trkpt>
      <trkpt lat="44.12995" lon="6.99726">
        <ele>2008.8</ele>
        <time>2013-09-05T09:58:05Z</time>
      </trkpt>
      <trkpt lat="44.12984" lon="6.99729">
        <ele>2010.7</ele>
        <time>2013-09-05T09:58:22Z</time>
      </trkpt>
      <trkpt lat="44.12979" lon="6.99736">
        <ele>2012.2</ele>
        <time>2013-09-05T09:58:35Z</time>
      </trkpt>
      <trkpt lat="44.12969" lon="6.99742">
        <ele>2014.1</ele>
        <time>2013-09-05T09:58:49Z</time>
      </trkpt>
      <trkpt lat="44.12959" lon="6.99751">
        <ele>2016.5</ele>
        <time>2013-09-05T09:59:06Z</time>
      </trkpt>
      <trkpt lat="44.1295" lon="6.99764">
        <ele>2019.9</ele>
        <time>2013-09-05T09:59:24Z</time>
      </trkpt>
      <trkpt lat="44.12944" lon="6.99773">
        <ele>2022.3</ele>
        <time>2013-09-05T09:59:39Z</time>
      </trkpt>
      <trkpt lat="44.12938" lon="6.99782">
        <ele>2023.2</ele>
        <time>2013-09-05T09:59:56Z</time>
      </trkpt>
      <trkpt lat="44.12936" lon="6.9978">
        <ele>2023.7</ele>
        <time>2013-09-05T10:00:26Z</time>
      </trkpt>
      <trkpt lat="44.12936" lon="6.99783">
        <ele>2023.7</ele>
        <time>2013-09-05T10:00:58Z</time>
      </trkpt>
      <trkpt lat="44.12934" lon="6.99789">
        <ele>2023.2</ele>
        <time>2013-09-05T10:01:04Z</time>
      </trkpt>
      <trkpt lat="44.12931" lon="6.99807">
        <ele>2023.2</ele>
        <time>2013-09-05T10:01:20Z</time>
      </trkpt>
      <trkpt lat="44.1293" lon="6.99816">
        <ele>2022.8</ele>
        <time>2013-09-05T10:01:36Z</time>
      </trkpt>
      <trkpt lat="44.12927" lon="6.99819">
        <ele>2020.8</ele>
        <time>2013-09-05T10:01:53Z</time>
      </trkpt>
      <trkpt lat="44.12919" lon="6.99828">
        <ele>2021.3</ele>
        <time>2013-09-05T10:02:06Z</time>
      </trkpt>
      <trkpt lat="44.12915" lon="6.99841">
        <ele>2022.8</ele>
        <time>2013-09-05T10:02:20Z</time>
      </trkpt>
      <trkpt lat="44.12914" lon="6.99849">
        <ele>2024.2</ele>
        <time>2013-09-05T10:02:30Z</time>
      </trkpt>
      <trkpt lat="44.12913" lon="6.9985">
        <ele>2023.7</ele>
        <time>2013-09-05T10:02:31Z</time>
      </trkpt>
      <trkpt lat="44.12913" lon="6.99859">
        <ele>2024.2</ele>
        <time>2013-09-05T10:02:39Z</time>
      </trkpt>
      <trkpt lat="44.1291" lon="6.99877">
        <ele>2023.7</ele>
        <time>2013-09-05T10:02:55Z</time>
      </trkpt>
      <trkpt lat="44.12905" lon="6.99892">
        <ele>2021.3</ele>
        <time>2013-09-05T10:03:11Z</time>
      </trkpt>
      <trkpt lat="44.12903" lon="6.99904">
        <ele>2019.9</ele>
        <time>2013-09-05T10:03:27Z</time>
      </trkpt>
      <trkpt lat="44.12902" lon="6.99917">
        <ele>2017.9</ele>
        <time>2013-09-05T10:03:42Z</time>
      </trkpt>
      <trkpt lat="44.12901" lon="6.9992">
        <ele>2017.9</ele>
        <time>2013-09-05T10:03:59Z</time>
      </trkpt>
      <trkpt lat="44.12901" lon="6.9993">
        <ele>2016.5</ele>
        <time>2013-09-05T10:04:14Z</time>
      </trkpt>
      <trkpt lat="44.12905" lon="6.99949">
        <ele>2014.1</ele>
        <time>2013-09-05T10:04:31Z</time>
      </trkpt>
      <trkpt lat="44.1291" lon="6.99966">
        <ele>2012.2</ele>
        <time>2013-09-05T10:04:47Z</time>
      </trkpt>
      <trkpt lat="44.12915" lon="6.99981">
        <ele>2010.3</ele>
        <time>2013-09-05T10:05:02Z</time>
      </trkpt>
      <trkpt lat="44.12916" lon="6.99986">
        <ele>2008.8</ele>
        <time>2013-09-05T10:05:08Z</time>
      </trkpt>
      <trkpt lat="44.12916" lon="6.99994">
        <ele>2006.9</ele>
        <time>2013-09-05T10:05:25Z</time>
      </trkpt>
      <trkpt lat="44.12922" lon="7.00009">
        <ele>2005.5</ele>
        <time>2013-09-05T10:05:39Z</time>
      </trkpt>
      <trkpt lat="44.12921" lon="7.00019">
        <ele>2004</ele>
        <time>2013-09-05T10:05:52Z</time>
      </trkpt>
      <trkpt lat="44.12923" lon="7.00027">
        <ele>2003</ele>
        <time>2013-09-05T10:06:04Z</time>
      </trkpt>
      <trkpt lat="44.12923" lon="7.00029">
        <ele>2002.6</ele>
        <time>2013-09-05T10:06:05Z</time>
      </trkpt>
      <trkpt lat="44.12923" lon="7.00031">
        <ele>2001.6</ele>
        <time>2013-09-05T10:06:06Z</time>
      </trkpt>
      <trkpt lat="44.12923" lon="7.00033">
        <ele>2001.6</ele>
        <time>2013-09-05T10:06:07Z</time>
      </trkpt>
      <trkpt lat="44.12927" lon="7.00044">
        <ele>2001.6</ele>
        <time>2013-09-05T10:06:17Z</time>
      </trkpt>
      <trkpt lat="44.12927" lon="7.00049">
        <ele>2001.1</ele>
        <time>2013-09-05T10:06:20Z</time>
      </trkpt>
      <trkpt lat="44.12926" lon="7.00051">
        <ele>2000.6</ele>
        <time>2013-09-05T10:06:21Z</time>
      </trkpt>
      <trkpt lat="44.12927" lon="7.00054">
        <ele>2000.6</ele>
        <time>2013-09-05T10:06:22Z</time>
      </trkpt>
      <trkpt lat="44.12928" lon="7.00057">
        <ele>2000.6</ele>
        <time>2013-09-05T10:06:23Z</time>
      </trkpt>
      <trkpt lat="44.12928" lon="7.0006">
        <ele>2001.1</ele>
        <time>2013-09-05T10:06:24Z</time>
      </trkpt>
      <trkpt lat="44.12929" lon="7.00063">
        <ele>2000.6</ele>
        <time>2013-09-05T10:06:25Z</time>
      </trkpt>
      <trkpt lat="44.12929" lon="7.00066">
        <ele>2000.2</ele>
        <time>2013-09-05T10:06:26Z</time>
      </trkpt>
      <trkpt lat="44.12926" lon="7.00081">
        <ele>1998.7</ele>
        <time>2013-09-05T10:06:32Z</time>
      </trkpt>
      <trkpt lat="44.12924" lon="7.0009">
        <ele>1997.3</ele>
        <time>2013-09-05T10:06:36Z</time>
      </trkpt>
      <trkpt lat="44.12924" lon="7.00101">
        <ele>1994.4</ele>
        <time>2013-09-05T10:06:42Z</time>
      </trkpt>
      <trkpt lat="44.1292" lon="7.00127">
        <ele>1992.5</ele>
        <time>2013-09-05T10:06:52Z</time>
      </trkpt>
      <trkpt lat="44.12911" lon="7.00141">
        <ele>1990.6</ele>
        <time>2013-09-05T10:06:57Z</time>
      </trkpt>
      <trkpt lat="44.12911" lon="7.00146">
        <ele>1990.6</ele>
        <time>2013-09-05T10:07:06Z</time>
      </trkpt>
      <trkpt lat="44.12911" lon="7.00146">
        <ele>1991</ele>
        <time>2013-09-05T10:07:30Z</time>
      </trkpt>
      <trkpt lat="44.12908" lon="7.0015">
        <ele>1992.5</ele>
        <time>2013-09-05T10:07:45Z</time>
      </trkpt>
      <trkpt lat="44.12905" lon="7.00161">
        <ele>1994.4</ele>
        <time>2013-09-05T10:08:01Z</time>
      </trkpt>
      <trkpt lat="44.12902" lon="7.00168">
        <ele>1996.3</ele>
        <time>2013-09-05T10:08:16Z</time>
      </trkpt>
      <trkpt lat="44.12899" lon="7.00176">
        <ele>1998.2</ele>
        <time>2013-09-05T10:08:31Z</time>
      </trkpt>
      <trkpt lat="44.12901" lon="7.00189">
        <ele>1999.7</ele>
        <time>2013-09-05T10:08:47Z</time>
      </trkpt>
      <trkpt lat="44.12896" lon="7.00198">
        <ele>2002.1</ele>
        <time>2013-09-05T10:09:05Z</time>
      </trkpt>
      <trkpt lat="44.12896" lon="7.00211">
        <ele>2004.5</ele>
        <time>2013-09-05T10:09:23Z</time>
      </trkpt>
      <trkpt lat="44.12894" lon="7.00219">
        <ele>2006.4</ele>
        <time>2013-09-05T10:09:37Z</time>
      </trkpt>
      <trkpt lat="44.12895" lon="7.00225">
        <ele>2008.8</ele>
        <time>2013-09-05T10:09:51Z</time>
      </trkpt>
      <trkpt lat="44.12892" lon="7.00234">
        <ele>2010.7</ele>
        <time>2013-09-05T10:10:07Z</time>
      </trkpt>
      <trkpt lat="44.12886" lon="7.0023">
        <ele>2012.7</ele>
        <time>2013-09-05T10:10:21Z</time>
      </trkpt>
      <trkpt lat="44.12881" lon="7.00224">
        <ele>2013.6</ele>
        <time>2013-09-05T10:10:35Z</time>
      </trkpt>
      <trkpt lat="44.12876" lon="7.00216">
        <ele>2016.5</ele>
        <time>2013-09-05T10:10:52Z</time>
      </trkpt>
      <trkpt lat="44.12873" lon="7.0022">
        <ele>2016.5</ele>
        <time>2013-09-05T10:11:04Z</time>
      </trkpt>
      <trkpt lat="44.12867" lon="7.0023">
        <ele>2016.5</ele>
        <time>2013-09-05T10:11:16Z</time>
      </trkpt>
      <trkpt lat="44.12857" lon="7.00242">
        <ele>2015.5</ele>
        <time>2013-09-05T10:11:34Z</time>
      </trkpt>
      <trkpt lat="44.12855" lon="7.00244">
        <ele>2014.6</ele>
        <time>2013-09-05T10:11:49Z</time>
      </trkpt>
      <trkpt lat="44.12846" lon="7.00252">
        <ele>2013.1</ele>
        <time>2013-09-05T10:11:56Z</time>
      </trkpt>
      <trkpt lat="44.12841" lon="7.00257">
        <ele>2011.7</ele>
        <time>2013-09-05T10:11:59Z</time>
      </trkpt>
      <trkpt lat="44.12828" lon="7.00262">
        <ele>2008.3</ele>
        <time>2013-09-05T10:12:05Z</time>
      </trkpt>
      <trkpt lat="44.12826" lon="7.00262">
        <ele>2008.3</ele>
        <time>2013-09-05T10:12:06Z</time>
      </trkpt>
      <trkpt lat="44.12822" lon="7.00264">
        <ele>2006.9</ele>
        <time>2013-09-05T10:12:08Z</time>
      </trkpt>
      <trkpt lat="44.12816" lon="7.00265">
        <ele>2005.5</ele>
        <time>2013-09-05T10:12:11Z</time>
      </trkpt>
      <trkpt lat="44.1281" lon="7.00267">
        <ele>2005</ele>
        <time>2013-09-05T10:12:18Z</time>
      </trkpt>
      <trkpt lat="44.12808" lon="7.00268">
        <ele>2005</ele>
        <time>2013-09-05T10:12:19Z</time>
      </trkpt>
      <trkpt lat="44.12797" lon="7.00274">
        <ele>2001.6</ele>
        <time>2013-09-05T10:12:26Z</time>
      </trkpt>
      <trkpt lat="44.12796" lon="7.00275">
        <ele>2001.1</ele>
        <time>2013-09-05T10:12:27Z</time>
      </trkpt>
      <trkpt lat="44.12795" lon="7.00277">
        <ele>2001.1</ele>
        <time>2013-09-05T10:12:28Z</time>
      </trkpt>
      <trkpt lat="44.12793" lon="7.00279">
        <ele>2000.6</ele>
        <time>2013-09-05T10:12:29Z</time>
      </trkpt>
      <trkpt lat="44.12787" lon="7.00283">
        <ele>1999.2</ele>
        <time>2013-09-05T10:12:32Z</time>
      </trkpt>
      <trkpt lat="44.1278" lon="7.00292">
        <ele>1997.8</ele>
        <time>2013-09-05T10:12:43Z</time>
      </trkpt>
      <trkpt lat="44.12779" lon="7.00295">
        <ele>1997.3</ele>
        <time>2013-09-05T10:12:44Z</time>
      </trkpt>
      <trkpt lat="44.1278" lon="7.00298">
        <ele>1996.8</ele>
        <time>2013-09-05T10:12:45Z</time>
      </trkpt>
      <trkpt lat="44.12781" lon="7.00302">
        <ele>1996.3</ele>
        <time>2013-09-05T10:12:46Z</time>
      </trkpt>
      <trkpt lat="44.12787" lon="7.00319">
        <ele>1993</ele>
        <time>2013-09-05T10:12:52Z</time>
      </trkpt>
      <trkpt lat="44.12787" lon="7.00318">
        <ele>1993</ele>
        <time>2013-09-05T10:13:14Z</time>
      </trkpt>
      <trkpt lat="44.12792" lon="7.00347">
        <ele>1990.6</ele>
        <time>2013-09-05T10:13:23Z</time>
      </trkpt>
      <trkpt lat="44.12793" lon="7.00353">
        <ele>1990.1</ele>
        <time>2013-09-05T10:13:24Z</time>
      </trkpt>
      <trkpt lat="44.12795" lon="7.00359">
        <ele>1989.6</ele>
        <time>2013-09-05T10:13:25Z</time>
      </trkpt>
      <trkpt lat="44.12796" lon="7.00365">
        <ele>1989.1</ele>
        <time>2013-09-05T10:13:26Z</time>
      </trkpt>
      <trkpt lat="44.12804" lon="7.00402">
        <ele>1985.7</ele>
        <time>2013-09-05T10:13:34Z</time>
      </trkpt>
      <trkpt lat="44.12806" lon="7.00417">
        <ele>1983.8</ele>
        <time>2013-09-05T10:13:37Z</time>
      </trkpt>
      <trkpt lat="44.12809" lon="7.00433">
        <ele>1982.4</ele>
        <time>2013-09-05T10:13:41Z</time>
      </trkpt>
      <trkpt lat="44.12808" lon="7.00456">
        <ele>1979</ele>
        <time>2013-09-05T10:13:47Z</time>
      </trkpt>
      <trkpt lat="44.12807" lon="7.00468">
        <ele>1977.6</ele>
        <time>2013-09-05T10:13:50Z</time>
      </trkpt>
      <trkpt lat="44.12807" lon="7.00479">
        <ele>1976.1</ele>
        <time>2013-09-05T10:13:53Z</time>
      </trkpt>
      <trkpt lat="44.12804" lon="7.00494">
        <ele>1974.2</ele>
        <time>2013-09-05T10:13:56Z</time>
      </trkpt>
      <trkpt lat="44.1279" lon="7.00511">
        <ele>1973.2</ele>
        <time>2013-09-05T10:14:05Z</time>
      </trkpt>
      <trkpt lat="44.12787" lon="7.00511">
        <ele>1973.2</ele>
        <time>2013-09-05T10:14:31Z</time>
      </trkpt>
      <trkpt lat="44.12768" lon="7.00523">
        <ele>1972.3</ele>
        <time>2013-09-05T10:14:42Z</time>
      </trkpt>
      <trkpt lat="44.12755" lon="7.00521">
        <ele>1970.4</ele>
        <time>2013-09-05T10:14:46Z</time>
      </trkpt>
      <trkpt lat="44.12752" lon="7.00521">
        <ele>1969.4</ele>
        <time>2013-09-05T10:14:53Z</time>
      </trkpt>
      <trkpt lat="44.1274" lon="7.00516">
        <ele>1966.5</ele>
        <time>2013-09-05T10:14:58Z</time>
      </trkpt>
      <trkpt lat="44.12738" lon="7.00517">
        <ele>1966</ele>
        <time>2013-09-05T10:14:59Z</time>
      </trkpt>
      <trkpt lat="44.12712" lon="7.00523">
        <ele>1965.1</ele>
        <time>2013-09-05T10:15:11Z</time>
      </trkpt>
      <trkpt lat="44.1267" lon="7.00528">
        <ele>1964.6</ele>
        <time>2013-09-05T10:15:27Z</time>
      </trkpt>
      <trkpt lat="44.12642" lon="7.00527">
        <ele>1962.7</ele>
        <time>2013-09-05T10:15:39Z</time>
      </trkpt>
      <trkpt lat="44.12627" lon="7.00524">
        <ele>1960.3</ele>
        <time>2013-09-05T10:15:48Z</time>
      </trkpt>
      <trkpt lat="44.12593" lon="7.00547">
        <ele>1957.4</ele>
        <time>2013-09-05T10:16:01Z</time>
      </trkpt>
      <trkpt lat="44.12589" lon="7.0056">
        <ele>1955.9</ele>
        <time>2013-09-05T10:16:06Z</time>
      </trkpt>
      <trkpt lat="44.12586" lon="7.00568">
        <ele>1954</ele>
        <time>2013-09-05T10:16:19Z</time>
      </trkpt>
      <trkpt lat="44.12581" lon="7.00582">
        <ele>1951.1</ele>
        <time>2013-09-05T10:16:26Z</time>
      </trkpt>
      <trkpt lat="44.12576" lon="7.00591">
        <ele>1948.7</ele>
        <time>2013-09-05T10:16:30Z</time>
      </trkpt>
      <trkpt lat="44.12575" lon="7.00591">
        <ele>1948.3</ele>
        <time>2013-09-05T10:16:31Z</time>
      </trkpt>
      <trkpt lat="44.12572" lon="7.00591">
        <ele>1948.3</ele>
        <time>2013-09-05T10:16:32Z</time>
      </trkpt>
      <trkpt lat="44.1257" lon="7.00591">
        <ele>1947.3</ele>
        <time>2013-09-05T10:16:33Z</time>
      </trkpt>
      <trkpt lat="44.12568" lon="7.00591">
        <ele>1946.3</ele>
        <time>2013-09-05T10:16:34Z</time>
      </trkpt>
      <trkpt lat="44.12564" lon="7.0059">
        <ele>1947.3</ele>
        <time>2013-09-05T10:16:44Z</time>
      </trkpt>
      <trkpt lat="44.12556" lon="7.00583">
        <ele>1948.3</ele>
        <time>2013-09-05T10:16:59Z</time>
      </trkpt>
      <trkpt lat="44.12551" lon="7.0058">
        <ele>1948.7</ele>
        <time>2013-09-05T10:17:12Z</time>
      </trkpt>
      <trkpt lat="44.1255" lon="7.00579">
        <ele>1948.7</ele>
        <time>2013-09-05T10:17:13Z</time>
      </trkpt>
      <trkpt lat="44.12548" lon="7.00578">
        <ele>1948.7</ele>
        <time>2013-09-05T10:17:14Z</time>
      </trkpt>
      <trkpt lat="44.12547" lon="7.00576">
        <ele>1948.7</ele>
        <time>2013-09-05T10:17:15Z</time>
      </trkpt>
      <trkpt lat="44.12545" lon="7.00574">
        <ele>1948.7</ele>
        <time>2013-09-05T10:17:16Z</time>
      </trkpt>
      <trkpt lat="44.12544" lon="7.00573">
        <ele>1948.7</ele>
        <time>2013-09-05T10:17:17Z</time>
      </trkpt>
      <trkpt lat="44.12543" lon="7.00572">
        <ele>1948.3</ele>
        <time>2013-09-05T10:17:18Z</time>
      </trkpt>
      <trkpt lat="44.12541" lon="7.0057">
        <ele>1948.7</ele>
        <time>2013-09-05T10:17:19Z</time>
      </trkpt>
      <trkpt lat="44.12532" lon="7.00565">
        <ele>1948.7</ele>
        <time>2013-09-05T10:17:24Z</time>
      </trkpt>
      <trkpt lat="44.12527" lon="7.00563">
        <ele>1949.2</ele>
        <time>2013-09-05T10:17:37Z</time>
      </trkpt>
      <trkpt lat="44.12522" lon="7.00558">
        <ele>1950.2</ele>
        <time>2013-09-05T10:17:48Z</time>
      </trkpt>
      <trkpt lat="44.12514" lon="7.00548">
        <ele>1950.7</ele>
        <time>2013-09-05T10:18:03Z</time>
      </trkpt>
      <trkpt lat="44.12513" lon="7.00547">
        <ele>1950.7</ele>
        <time>2013-09-05T10:18:04Z</time>
      </trkpt>
      <trkpt lat="44.12502" lon="7.00536">
        <ele>1951.1</ele>
        <time>2013-09-05T10:18:19Z</time>
      </trkpt>
      <trkpt lat="44.12497" lon="7.00528">
        <ele>1952.1</ele>
        <time>2013-09-05T10:18:30Z</time>
      </trkpt>
      <trkpt lat="44.12486" lon="7.00517">
        <ele>1952.1</ele>
        <time>2013-09-05T10:18:43Z</time>
      </trkpt>
      <trkpt lat="44.12477" lon="7.00505">
        <ele>1951.6</ele>
        <time>2013-09-05T10:18:57Z</time>
      </trkpt>
      <trkpt lat="44.1247" lon="7.00498">
        <ele>1952.1</ele>
        <time>2013-09-05T10:19:13Z</time>
      </trkpt>
      <trkpt lat="44.12465" lon="7.00492">
        <ele>1953.1</ele>
        <time>2013-09-05T10:19:32Z</time>
      </trkpt>
      <trkpt lat="44.12452" lon="7.00485">
        <ele>1953.5</ele>
        <time>2013-09-05T10:19:49Z</time>
      </trkpt>
      <trkpt lat="44.1244" lon="7.00475">
        <ele>1954.5</ele>
        <time>2013-09-05T10:20:07Z</time>
      </trkpt>
      <trkpt lat="44.12427" lon="7.0047">
        <ele>1955.5</ele>
        <time>2013-09-05T10:20:22Z</time>
      </trkpt>
      <trkpt lat="44.12421" lon="7.00469">
        <ele>1955</ele>
        <time>2013-09-05T10:20:30Z</time>
      </trkpt>
      <trkpt lat="44.1242" lon="7.00468">
        <ele>1954.5</ele>
        <time>2013-09-05T10:20:31Z</time>
      </trkpt>
      <trkpt lat="44.1241" lon="7.00463">
        <ele>1955</ele>
        <time>2013-09-05T10:20:43Z</time>
      </trkpt>
      <trkpt lat="44.12389" lon="7.00452">
        <ele>1955.5</ele>
        <time>2013-09-05T10:20:55Z</time>
      </trkpt>
      <trkpt lat="44.12362" lon="7.00437">
        <ele>1956.4</ele>
        <time>2013-09-05T10:21:11Z</time>
      </trkpt>
      <trkpt lat="44.12337" lon="7.00429">
        <ele>1957.4</ele>
        <time>2013-09-05T10:21:25Z</time>
      </trkpt>
      <trkpt lat="44.12309" lon="7.00429">
        <ele>1958.8</ele>
        <time>2013-09-05T10:21:39Z</time>
      </trkpt>
      <trkpt lat="44.12278" lon="7.0044">
        <ele>1958.3</ele>
        <time>2013-09-05T10:21:54Z</time>
      </trkpt>
      <trkpt lat="44.12267" lon="7.00444">
        <ele>1957.4</ele>
        <time>2013-09-05T10:22:04Z</time>
      </trkpt>
      <trkpt lat="44.1225" lon="7.0046">
        <ele>1958.8</ele>
        <time>2013-09-05T10:22:18Z</time>
      </trkpt>
      <trkpt lat="44.12229" lon="7.00478">
        <ele>1956.4</ele>
        <time>2013-09-05T10:22:32Z</time>
      </trkpt>
      <trkpt lat="44.12222" lon="7.00484">
        <ele>1956.4</ele>
        <time>2013-09-05T10:22:43Z</time>
      </trkpt>
      <trkpt lat="44.12215" lon="7.00487">
        <ele>1956.4</ele>
        <time>2013-09-05T10:22:56Z</time>
      </trkpt>
      <trkpt lat="44.12204" lon="7.00494">
        <ele>1956.4</ele>
        <time>2013-09-05T10:23:09Z</time>
      </trkpt>
      <trkpt lat="44.12196" lon="7.00498">
        <ele>1955.9</ele>
        <time>2013-09-05T10:23:21Z</time>
      </trkpt>
      <trkpt lat="44.12188" lon="7.00501">
        <ele>1956.4</ele>
        <time>2013-09-05T10:23:33Z</time>
      </trkpt>
      <trkpt lat="44.12182" lon="7.00504">
        <ele>1956.9</ele>
        <time>2013-09-05T10:23:43Z</time>
      </trkpt>
      <trkpt lat="44.12163" lon="7.00513">
        <ele>1957.4</ele>
        <time>2013-09-05T10:24:00Z</time>
      </trkpt>
      <trkpt lat="44.12153" lon="7.00517">
        <ele>1957.9</ele>
        <time>2013-09-05T10:24:09Z</time>
      </trkpt>
      <trkpt lat="44.12152" lon="7.00517">
        <ele>1957.9</ele>
        <time>2013-09-05T10:24:10Z</time>
      </trkpt>
      <trkpt lat="44.12146" lon="7.00519">
        <ele>1957.9</ele>
        <time>2013-09-05T10:24:16Z</time>
      </trkpt>
      <trkpt lat="44.12144" lon="7.00519">
        <ele>1957.9</ele>
        <time>2013-09-05T10:24:17Z</time>
      </trkpt>
      <trkpt lat="44.1213" lon="7.00524">
        <ele>1957.4</ele>
        <time>2013-09-05T10:24:30Z</time>
      </trkpt>
      <trkpt lat="44.12124" lon="7.00526">
        <ele>1958.3</ele>
        <time>2013-09-05T10:24:37Z</time>
      </trkpt>
      <trkpt lat="44.1211" lon="7.0053">
        <ele>1959.3</ele>
        <time>2013-09-05T10:24:52Z</time>
      </trkpt>
      <trkpt lat="44.12107" lon="7.0053">
        <ele>1958.8</ele>
        <time>2013-09-05T10:24:54Z</time>
      </trkpt>
      <trkpt lat="44.12096" lon="7.00536">
        <ele>1960.8</ele>
        <time>2013-09-05T10:25:09Z</time>
      </trkpt>
      <trkpt lat="44.12094" lon="7.00537">
        <ele>1960.8</ele>
        <time>2013-09-05T10:25:10Z</time>
      </trkpt>
      <trkpt lat="44.12077" lon="7.00545">
        <ele>1961.2</ele>
        <time>2013-09-05T10:25:25Z</time>
      </trkpt>
      <trkpt lat="44.12058" lon="7.00553">
        <ele>1961.2</ele>
        <time>2013-09-05T10:25:43Z</time>
      </trkpt>
      <trkpt lat="44.12044" lon="7.00562">
        <ele>1962.2</ele>
        <time>2013-09-05T10:25:58Z</time>
      </trkpt>
      <trkpt lat="44.12033" lon="7.00572">
        <ele>1963.6</ele>
        <time>2013-09-05T10:26:13Z</time>
      </trkpt>
      <trkpt lat="44.12026" lon="7.00581">
        <ele>1965.1</ele>
        <time>2013-09-05T10:26:26Z</time>
      </trkpt>
      <trkpt lat="44.12014" lon="7.0059">
        <ele>1966.5</ele>
        <time>2013-09-05T10:26:41Z</time>
      </trkpt>
      <trkpt lat="44.12004" lon="7.00597">
        <ele>1967.5</ele>
        <time>2013-09-05T10:26:55Z</time>
      </trkpt>
      <trkpt lat="44.11995" lon="7.00606">
        <ele>1968.4</ele>
        <time>2013-09-05T10:27:08Z</time>
      </trkpt>
      <trkpt lat="44.11987" lon="7.00612">
        <ele>1969.4</ele>
        <time>2013-09-05T10:27:20Z</time>
      </trkpt>
      <trkpt lat="44.11977" lon="7.00624">
        <ele>1970.4</ele>
        <time>2013-09-05T10:27:35Z</time>
      </trkpt>
      <trkpt lat="44.11969" lon="7.00636">
        <ele>1971.8</ele>
        <time>2013-09-05T10:27:51Z</time>
      </trkpt>
      <trkpt lat="44.11962" lon="7.00649">
        <ele>1972.8</ele>
        <time>2013-09-05T10:28:06Z</time>
      </trkpt>
      <trkpt lat="44.11949" lon="7.00654">
        <ele>1974.7</ele>
        <time>2013-09-05T10:28:22Z</time>
      </trkpt>
      <trkpt lat="44.11937" lon="7.00659">
        <ele>1976.6</ele>
        <time>2013-09-05T10:28:38Z</time>
      </trkpt>
      <trkpt lat="44.11923" lon="7.00669">
        <ele>1976.1</ele>
        <time>2013-09-05T10:28:56Z</time>
      </trkpt>
      <trkpt lat="44.11913" lon="7.00677">
        <ele>1975.7</ele>
        <time>2013-09-05T10:29:10Z</time>
      </trkpt>
      <trkpt lat="44.11906" lon="7.00686">
        <ele>1977.1</ele>
        <time>2013-09-05T10:29:22Z</time>
      </trkpt>
      <trkpt lat="44.11899" lon="7.00695">
        <ele>1977.6</ele>
        <time>2013-09-05T10:29:36Z</time>
      </trkpt>
      <trkpt lat="44.11895" lon="7.00702">
        <ele>1980</ele>
        <time>2013-09-05T10:29:48Z</time>
      </trkpt>
      <trkpt lat="44.11892" lon="7.00709">
        <ele>1980.5</ele>
        <time>2013-09-05T10:30:02Z</time>
      </trkpt>
      <trkpt lat="44.11891" lon="7.00708">
        <ele>1980</ele>
        <time>2013-09-05T10:30:15Z</time>
      </trkpt>
      <trkpt lat="44.1189" lon="7.0071">
        <ele>1980</ele>
        <time>2013-09-05T10:30:21Z</time>
      </trkpt>
      <trkpt lat="44.11888" lon="7.00711">
        <ele>1980</ele>
        <time>2013-09-05T10:30:22Z</time>
      </trkpt>
      <trkpt lat="44.11869" lon="7.00719">
        <ele>1976.6</ele>
        <time>2013-09-05T10:30:29Z</time>
      </trkpt>
      <trkpt lat="44.11854" lon="7.00728">
        <ele>1975.2</ele>
        <time>2013-09-05T10:30:36Z</time>
      </trkpt>
      <trkpt lat="44.11836" lon="7.00723">
        <ele>1971.3</ele>
        <time>2013-09-05T10:30:43Z</time>
      </trkpt>
      <trkpt lat="44.1183" lon="7.00719">
        <ele>1970.4</ele>
        <time>2013-09-05T10:30:46Z</time>
      </trkpt>
      <trkpt lat="44.11822" lon="7.00707">
        <ele>1968.4</ele>
        <time>2013-09-05T10:30:55Z</time>
      </trkpt>
      <trkpt lat="44.11818" lon="7.00702">
        <ele>1967</ele>
        <time>2013-09-05T10:30:58Z</time>
      </trkpt>
      <trkpt lat="44.11817" lon="7.00702">
        <ele>1967</ele>
        <time>2013-09-05T10:30:59Z</time>
      </trkpt>
      <trkpt lat="44.11814" lon="7.00699">
        <ele>1966</ele>
        <time>2013-09-05T10:31:09Z</time>
      </trkpt>
      <trkpt lat="44.11813" lon="7.00699">
        <ele>1966</ele>
        <time>2013-09-05T10:31:10Z</time>
      </trkpt>
      <trkpt lat="44.11806" lon="7.00695">
        <ele>1964.6</ele>
        <time>2013-09-05T10:31:15Z</time>
      </trkpt>
      <trkpt lat="44.11791" lon="7.00686">
        <ele>1961.2</ele>
        <time>2013-09-05T10:31:25Z</time>
      </trkpt>
      <trkpt lat="44.11774" lon="7.00676">
        <ele>1957.9</ele>
        <time>2013-09-05T10:31:35Z</time>
      </trkpt>
      <trkpt lat="44.11752" lon="7.00665">
        <ele>1954.5</ele>
        <time>2013-09-05T10:31:44Z</time>
      </trkpt>
      <trkpt lat="44.11746" lon="7.00657">
        <ele>1953.1</ele>
        <time>2013-09-05T10:31:55Z</time>
      </trkpt>
      <trkpt lat="44.11739" lon="7.00655">
        <ele>1953.1</ele>
        <time>2013-09-05T10:32:09Z</time>
      </trkpt>
      <trkpt lat="44.11734" lon="7.00649">
        <ele>1950.7</ele>
        <time>2013-09-05T10:32:20Z</time>
      </trkpt>
      <trkpt lat="44.11733" lon="7.00649">
        <ele>1950.7</ele>
        <time>2013-09-05T10:32:21Z</time>
      </trkpt>
      <trkpt lat="44.11732" lon="7.00647">
        <ele>1950.2</ele>
        <time>2013-09-05T10:32:22Z</time>
      </trkpt>
      <trkpt lat="44.1173" lon="7.00646">
        <ele>1949.7</ele>
        <time>2013-09-05T10:32:23Z</time>
      </trkpt>
      <trkpt lat="44.11727" lon="7.00645">
        <ele>1949.2</ele>
        <time>2013-09-05T10:32:24Z</time>
      </trkpt>
      <trkpt lat="44.11725" lon="7.00644">
        <ele>1949.2</ele>
        <time>2013-09-05T10:32:25Z</time>
      </trkpt>
      <trkpt lat="44.11722" lon="7.00643">
        <ele>1949.2</ele>
        <time>2013-09-05T10:32:26Z</time>
      </trkpt>
      <trkpt lat="44.11719" lon="7.00641">
        <ele>1948.3</ele>
        <time>2013-09-05T10:32:27Z</time>
      </trkpt>
      <trkpt lat="44.11713" lon="7.00637">
        <ele>1947.3</ele>
        <time>2013-09-05T10:32:29Z</time>
      </trkpt>
      <trkpt lat="44.1169" lon="7.00626">
        <ele>1943.9</ele>
        <time>2013-09-05T10:32:40Z</time>
      </trkpt>
      <trkpt lat="44.1169" lon="7.00625">
        <ele>1944.4</ele>
        <time>2013-09-05T10:32:53Z</time>
      </trkpt>
      <trkpt lat="44.11691" lon="7.00626">
        <ele>1941</ele>
        <time>2013-09-05T10:33:06Z</time>
      </trkpt>
      <trkpt lat="44.1169" lon="7.00626">
        <ele>1935.8</ele>
        <time>2013-09-05T11:16:44Z</time>
      </trkpt>
      <trkpt lat="44.11692" lon="7.00637">
        <ele>1935.3</ele>
        <time>2013-09-05T11:16:45Z</time>
      </trkpt>
      <trkpt lat="44.11689" lon="7.00638">
        <ele>1935.8</ele>
        <time>2013-09-05T11:16:47Z</time>
      </trkpt>
      <trkpt lat="44.11686" lon="7.00644">
        <ele>1934.8</ele>
        <time>2013-09-05T11:16:59Z</time>
      </trkpt>
      <trkpt lat="44.11681" lon="7.00669">
        <ele>1933.8</ele>
        <time>2013-09-05T11:17:10Z</time>
      </trkpt>
      <trkpt lat="44.1168" lon="7.00674">
        <ele>1934.3</ele>
        <time>2013-09-05T11:17:21Z</time>
      </trkpt>
      <trkpt lat="44.11681" lon="7.00673">
        <ele>1933.8</ele>
        <time>2013-09-05T11:17:44Z</time>
      </trkpt>
      <trkpt lat="44.11681" lon="7.00676">
        <ele>1933.8</ele>
        <time>2013-09-05T11:18:19Z</time>
      </trkpt>
      <trkpt lat="44.1168" lon="7.00675">
        <ele>1933.4</ele>
        <time>2013-09-05T11:18:41Z</time>
      </trkpt>
      <trkpt lat="44.11681" lon="7.00672">
        <ele>1934.3</ele>
        <time>2013-09-05T11:19:10Z</time>
      </trkpt>
      <trkpt lat="44.11681" lon="7.00673">
        <ele>1935.3</ele>
        <time>2013-09-05T11:19:37Z</time>
      </trkpt>
      <trkpt lat="44.11678" lon="7.00685">
        <ele>1934.3</ele>
        <time>2013-09-05T11:20:02Z</time>
      </trkpt>
      <trkpt lat="44.11674" lon="7.00704">
        <ele>1932.9</ele>
        <time>2013-09-05T11:20:14Z</time>
      </trkpt>
      <trkpt lat="44.11674" lon="7.00714">
        <ele>1933.4</ele>
        <time>2013-09-05T11:20:27Z</time>
      </trkpt>
      <trkpt lat="44.11675" lon="7.00717">
        <ele>1932.4</ele>
        <time>2013-09-05T11:20:43Z</time>
      </trkpt>
      <trkpt lat="44.11676" lon="7.00729">
        <ele>1932.9</ele>
        <time>2013-09-05T11:20:58Z</time>
      </trkpt>
      <trkpt lat="44.11678" lon="7.00742">
        <ele>1932.9</ele>
        <time>2013-09-05T11:21:12Z</time>
      </trkpt>
      <trkpt lat="44.11678" lon="7.00764">
        <ele>1932.9</ele>
        <time>2013-09-05T11:21:29Z</time>
      </trkpt>
      <trkpt lat="44.11674" lon="7.0078">
        <ele>1930.5</ele>
        <time>2013-09-05T11:21:44Z</time>
      </trkpt>
      <trkpt lat="44.11674" lon="7.00792">
        <ele>1930</ele>
        <time>2013-09-05T11:21:58Z</time>
      </trkpt>
      <trkpt lat="44.11675" lon="7.00802">
        <ele>1930.5</ele>
        <time>2013-09-05T11:22:06Z</time>
      </trkpt>
      <trkpt lat="44.11675" lon="7.00818">
        <ele>1928.5</ele>
        <time>2013-09-05T11:22:20Z</time>
      </trkpt>
      <trkpt lat="44.11675" lon="7.00824">
        <ele>1926.6</ele>
        <time>2013-09-05T11:22:33Z</time>
      </trkpt>
      <trkpt lat="44.11672" lon="7.00828">
        <ele>1925.2</ele>
        <time>2013-09-05T11:22:49Z</time>
      </trkpt>
      <trkpt lat="44.11674" lon="7.00835">
        <ele>1923.7</ele>
        <time>2013-09-05T11:23:03Z</time>
      </trkpt>
      <trkpt lat="44.11674" lon="7.00843">
        <ele>1923.7</ele>
        <time>2013-09-05T11:23:16Z</time>
      </trkpt>
      <trkpt lat="44.11676" lon="7.00856">
        <ele>1923.3</ele>
        <time>2013-09-05T11:23:30Z</time>
      </trkpt>
      <trkpt lat="44.1168" lon="7.00874">
        <ele>1923.3</ele>
        <time>2013-09-05T11:23:48Z</time>
      </trkpt>
      <trkpt lat="44.11681" lon="7.00877">
        <ele>1923.3</ele>
        <time>2013-09-05T11:23:52Z</time>
      </trkpt>
      <trkpt lat="44.11682" lon="7.00902">
        <ele>1922.8</ele>
        <time>2013-09-05T11:24:05Z</time>
      </trkpt>
      <trkpt lat="44.11685" lon="7.00928">
        <ele>1921.3</ele>
        <time>2013-09-05T11:24:16Z</time>
      </trkpt>
      <trkpt lat="44.11686" lon="7.00934">
        <ele>1921.8</ele>
        <time>2013-09-05T11:24:19Z</time>
      </trkpt>
      <trkpt lat="44.11685" lon="7.00939">
        <ele>1921.8</ele>
        <time>2013-09-05T11:24:30Z</time>
      </trkpt>
      <trkpt lat="44.11684" lon="7.0094">
        <ele>1921.3</ele>
        <time>2013-09-05T11:24:32Z</time>
      </trkpt>
      <trkpt lat="44.11682" lon="7.00947">
        <ele>1920.4</ele>
        <time>2013-09-05T11:24:36Z</time>
      </trkpt>
      <trkpt lat="44.11682" lon="7.00949">
        <ele>1919.9</ele>
        <time>2013-09-05T11:24:37Z</time>
      </trkpt>
      <trkpt lat="44.11681" lon="7.00951">
        <ele>1919.4</ele>
        <time>2013-09-05T11:24:38Z</time>
      </trkpt>
      <trkpt lat="44.11681" lon="7.00954">
        <ele>1919.4</ele>
        <time>2013-09-05T11:24:39Z</time>
      </trkpt>
      <trkpt lat="44.11682" lon="7.00957">
        <ele>1918.9</ele>
        <time>2013-09-05T11:24:40Z</time>
      </trkpt>
      <trkpt lat="44.11682" lon="7.0096">
        <ele>1919.4</ele>
        <time>2013-09-05T11:24:41Z</time>
      </trkpt>
      <trkpt lat="44.11682" lon="7.00962">
        <ele>1918.9</ele>
        <time>2013-09-05T11:24:42Z</time>
      </trkpt>
      <trkpt lat="44.11681" lon="7.00965">
        <ele>1918.9</ele>
        <time>2013-09-05T11:24:43Z</time>
      </trkpt>
      <trkpt lat="44.11681" lon="7.00967">
        <ele>1918.5</ele>
        <time>2013-09-05T11:24:44Z</time>
      </trkpt>
      <trkpt lat="44.11681" lon="7.0097">
        <ele>1918.5</ele>
        <time>2013-09-05T11:24:45Z</time>
      </trkpt>
      <trkpt lat="44.1168" lon="7.00973">
        <ele>1918</ele>
        <time>2013-09-05T11:24:46Z</time>
      </trkpt>
      <trkpt lat="44.1168" lon="7.00976">
        <ele>1917.5</ele>
        <time>2013-09-05T11:24:47Z</time>
      </trkpt>
      <trkpt lat="44.11679" lon="7.00979">
        <ele>1917.5</ele>
        <time>2013-09-05T11:24:48Z</time>
      </trkpt>
      <trkpt lat="44.11679" lon="7.00982">
        <ele>1917</ele>
        <time>2013-09-05T11:24:49Z</time>
      </trkpt>
      <trkpt lat="44.11677" lon="7.01017">
        <ele>1914.1</ele>
        <time>2013-09-05T11:24:59Z</time>
      </trkpt>
      <trkpt lat="44.11671" lon="7.01052">
        <ele>1912.2</ele>
        <time>2013-09-05T11:25:08Z</time>
      </trkpt>
      <trkpt lat="44.11664" lon="7.01061">
        <ele>1913.6</ele>
        <time>2013-09-05T11:25:21Z</time>
      </trkpt>
      <trkpt lat="44.11651" lon="7.0107">
        <ele>1915.1</ele>
        <time>2013-09-05T11:25:38Z</time>
      </trkpt>
      <trkpt lat="44.11644" lon="7.01073">
        <ele>1915.1</ele>
        <time>2013-09-05T11:25:49Z</time>
      </trkpt>
      <trkpt lat="44.11621" lon="7.01094">
        <ele>1913.6</ele>
        <time>2013-09-05T11:26:02Z</time>
      </trkpt>
      <trkpt lat="44.11613" lon="7.01105">
        <ele>1915.1</ele>
        <time>2013-09-05T11:26:13Z</time>
      </trkpt>
      <trkpt lat="44.11604" lon="7.01117">
        <ele>1915.1</ele>
        <time>2013-09-05T11:26:29Z</time>
      </trkpt>
      <trkpt lat="44.11597" lon="7.01131">
        <ele>1916.5</ele>
        <time>2013-09-05T11:26:45Z</time>
      </trkpt>
      <trkpt lat="44.11588" lon="7.01142">
        <ele>1916.5</ele>
        <time>2013-09-05T11:27:00Z</time>
      </trkpt>
      <trkpt lat="44.11581" lon="7.01151">
        <ele>1916.5</ele>
        <time>2013-09-05T11:27:16Z</time>
      </trkpt>
      <trkpt lat="44.1157" lon="7.01169">
        <ele>1916</ele>
        <time>2013-09-05T11:27:29Z</time>
      </trkpt>
      <trkpt lat="44.11557" lon="7.01184">
        <ele>1916</ele>
        <time>2013-09-05T11:27:43Z</time>
      </trkpt>
      <trkpt lat="44.11551" lon="7.01194">
        <ele>1917</ele>
        <time>2013-09-05T11:27:55Z</time>
      </trkpt>
      <trkpt lat="44.11543" lon="7.01209">
        <ele>1917</ele>
        <time>2013-09-05T11:28:11Z</time>
      </trkpt>
      <trkpt lat="44.11534" lon="7.01225">
        <ele>1917</ele>
        <time>2013-09-05T11:28:26Z</time>
      </trkpt>
      <trkpt lat="44.11527" lon="7.01237">
        <ele>1917.5</ele>
        <time>2013-09-05T11:28:40Z</time>
      </trkpt>
      <trkpt lat="44.11526" lon="7.01238">
        <ele>1917</ele>
        <time>2013-09-05T11:28:42Z</time>
      </trkpt>
      <trkpt lat="44.11525" lon="7.01239">
        <ele>1917</ele>
        <time>2013-09-05T11:28:43Z</time>
      </trkpt>
      <trkpt lat="44.11524" lon="7.0124">
        <ele>1917.5</ele>
        <time>2013-09-05T11:28:44Z</time>
      </trkpt>
      <trkpt lat="44.11514" lon="7.01254">
        <ele>1917</ele>
        <time>2013-09-05T11:28:56Z</time>
      </trkpt>
      <trkpt lat="44.11509" lon="7.01266">
        <ele>1917.5</ele>
        <time>2013-09-05T11:29:10Z</time>
      </trkpt>
      <trkpt lat="44.11505" lon="7.01274">
        <ele>1918.5</ele>
        <time>2013-09-05T11:29:23Z</time>
      </trkpt>
      <trkpt lat="44.11499" lon="7.01289">
        <ele>1918.9</ele>
        <time>2013-09-05T11:29:34Z</time>
      </trkpt>
      <trkpt lat="44.11485" lon="7.01325">
        <ele>1920.9</ele>
        <time>2013-09-05T11:29:50Z</time>
      </trkpt>
      <trkpt lat="44.1148" lon="7.01345">
        <ele>1920.9</ele>
        <time>2013-09-05T11:30:02Z</time>
      </trkpt>
      <trkpt lat="44.11479" lon="7.01344">
        <ele>1921.3</ele>
        <time>2013-09-05T11:30:28Z</time>
      </trkpt>
      <trkpt lat="44.11477" lon="7.01354">
        <ele>1921.3</ele>
        <time>2013-09-05T11:30:41Z</time>
      </trkpt>
      <trkpt lat="44.11471" lon="7.0138">
        <ele>1921.8</ele>
        <time>2013-09-05T11:30:55Z</time>
      </trkpt>
      <trkpt lat="44.11468" lon="7.01413">
        <ele>1922.3</ele>
        <time>2013-09-05T11:31:08Z</time>
      </trkpt>
      <trkpt lat="44.11466" lon="7.01446">
        <ele>1925.7</ele>
        <time>2013-09-05T11:31:21Z</time>
      </trkpt>
      <trkpt lat="44.11466" lon="7.01464">
        <ele>1926.6</ele>
        <time>2013-09-05T11:31:35Z</time>
      </trkpt>
      <trkpt lat="44.11467" lon="7.01466">
        <ele>1927.1</ele>
        <time>2013-09-05T11:31:53Z</time>
      </trkpt>
      <trkpt lat="44.11464" lon="7.01479">
        <ele>1927.6</ele>
        <time>2013-09-05T11:32:09Z</time>
      </trkpt>
      <trkpt lat="44.11464" lon="7.01489">
        <ele>1927.6</ele>
        <time>2013-09-05T11:32:14Z</time>
      </trkpt>
      <trkpt lat="44.11464" lon="7.01491">
        <ele>1927.6</ele>
        <time>2013-09-05T11:32:15Z</time>
      </trkpt>
      <trkpt lat="44.11467" lon="7.01514">
        <ele>1925.7</ele>
        <time>2013-09-05T11:32:21Z</time>
      </trkpt>
      <trkpt lat="44.11467" lon="7.01536">
        <ele>1925.2</ele>
        <time>2013-09-05T11:32:29Z</time>
      </trkpt>
      <trkpt lat="44.11467" lon="7.01548">
        <ele>1925.7</ele>
        <time>2013-09-05T11:32:46Z</time>
      </trkpt>
      <trkpt lat="44.11466" lon="7.01568">
        <ele>1926.6</ele>
        <time>2013-09-05T11:33:03Z</time>
      </trkpt>
      <trkpt lat="44.11465" lon="7.01583">
        <ele>1930</ele>
        <time>2013-09-05T11:33:21Z</time>
      </trkpt>
      <trkpt lat="44.11467" lon="7.01594">
        <ele>1928.5</ele>
        <time>2013-09-05T11:33:37Z</time>
      </trkpt>
      <trkpt lat="44.11466" lon="7.01602">
        <ele>1927.6</ele>
        <time>2013-09-05T11:33:48Z</time>
      </trkpt>
      <trkpt lat="44.11466" lon="7.01605">
        <ele>1926.6</ele>
        <time>2013-09-05T11:33:50Z</time>
      </trkpt>
      <trkpt lat="44.11465" lon="7.01608">
        <ele>1925.7</ele>
        <time>2013-09-05T11:33:52Z</time>
      </trkpt>
      <trkpt lat="44.11464" lon="7.01609">
        <ele>1925.2</ele>
        <time>2013-09-05T11:33:53Z</time>
      </trkpt>
      <trkpt lat="44.11461" lon="7.01614">
        <ele>1923.7</ele>
        <time>2013-09-05T11:33:56Z</time>
      </trkpt>
      <trkpt lat="44.11458" lon="7.01618">
        <ele>1922.8</ele>
        <time>2013-09-05T11:33:59Z</time>
      </trkpt>
      <trkpt lat="44.11455" lon="7.01624">
        <ele>1920.4</ele>
        <time>2013-09-05T11:34:10Z</time>
      </trkpt>
      <trkpt lat="44.11451" lon="7.01619">
        <ele>1919.4</ele>
        <time>2013-09-05T11:34:18Z</time>
      </trkpt>
      <trkpt lat="44.11444" lon="7.0162">
        <ele>1918</ele>
        <time>2013-09-05T11:34:32Z</time>
      </trkpt>
      <trkpt lat="44.11444" lon="7.01621">
        <ele>1918</ele>
        <time>2013-09-05T11:34:38Z</time>
      </trkpt>
      <trkpt lat="44.11443" lon="7.01623">
        <ele>1917.5</ele>
        <time>2013-09-05T11:34:39Z</time>
      </trkpt>
      <trkpt lat="44.11435" lon="7.01635">
        <ele>1914.6</ele>
        <time>2013-09-05T11:34:44Z</time>
      </trkpt>
      <trkpt lat="44.11424" lon="7.01646">
        <ele>1911.2</ele>
        <time>2013-09-05T11:34:48Z</time>
      </trkpt>
      <trkpt lat="44.11402" lon="7.01652">
        <ele>1907.9</ele>
        <time>2013-09-05T11:34:54Z</time>
      </trkpt>
      <trkpt lat="44.11377" lon="7.01654">
        <ele>1906.4</ele>
        <time>2013-09-05T11:35:04Z</time>
      </trkpt>
      <trkpt lat="44.11368" lon="7.01653">
        <ele>1906.4</ele>
        <time>2013-09-05T11:35:15Z</time>
      </trkpt>
      <trkpt lat="44.11366" lon="7.01656">
        <ele>1906.9</ele>
        <time>2013-09-05T11:35:48Z</time>
      </trkpt>
      <trkpt lat="44.11367" lon="7.01651">
        <ele>1907.9</ele>
        <time>2013-09-05T11:36:17Z</time>
      </trkpt>
      <trkpt lat="44.11367" lon="7.01653">
        <ele>1906.4</ele>
        <time>2013-09-05T11:36:25Z</time>
      </trkpt>
      <trkpt lat="44.11366" lon="7.01655">
        <ele>1906.4</ele>
        <time>2013-09-05T11:36:26Z</time>
      </trkpt>
      <trkpt lat="44.11358" lon="7.01665">
        <ele>1905</ele>
        <time>2013-09-05T11:36:31Z</time>
      </trkpt>
      <trkpt lat="44.11357" lon="7.01667">
        <ele>1904</ele>
        <time>2013-09-05T11:36:32Z</time>
      </trkpt>
      <trkpt lat="44.11353" lon="7.01682">
        <ele>1902.6</ele>
        <time>2013-09-05T11:36:36Z</time>
      </trkpt>
      <trkpt lat="44.11349" lon="7.01703">
        <ele>1898.7</ele>
        <time>2013-09-05T11:36:41Z</time>
      </trkpt>
      <trkpt lat="44.11345" lon="7.01721">
        <ele>1894.4</ele>
        <time>2013-09-05T11:36:45Z</time>
      </trkpt>
      <trkpt lat="44.11343" lon="7.01734">
        <ele>1891.5</ele>
        <time>2013-09-05T11:36:48Z</time>
      </trkpt>
      <trkpt lat="44.11342" lon="7.0175">
        <ele>1888.7</ele>
        <time>2013-09-05T11:36:53Z</time>
      </trkpt>
      <trkpt lat="44.1134" lon="7.01765">
        <ele>1886.2</ele>
        <time>2013-09-05T11:36:56Z</time>
      </trkpt>
      <trkpt lat="44.11335" lon="7.01788">
        <ele>1883.4</ele>
        <time>2013-09-05T11:37:00Z</time>
      </trkpt>
      <trkpt lat="44.11334" lon="7.01793">
        <ele>1882.4</ele>
        <time>2013-09-05T11:37:01Z</time>
      </trkpt>
      <trkpt lat="44.11331" lon="7.01831">
        <ele>1878.6</ele>
        <time>2013-09-05T11:37:08Z</time>
      </trkpt>
      <trkpt lat="44.11331" lon="7.01836">
        <ele>1878.6</ele>
        <time>2013-09-05T11:37:09Z</time>
      </trkpt>
      <trkpt lat="44.1133" lon="7.01843">
        <ele>1878.1</ele>
        <time>2013-09-05T11:37:10Z</time>
      </trkpt>
      <trkpt lat="44.11325" lon="7.0187">
        <ele>1876.6</ele>
        <time>2013-09-05T11:37:14Z</time>
      </trkpt>
      <trkpt lat="44.11313" lon="7.01911">
        <ele>1873.8</ele>
        <time>2013-09-05T11:37:23Z</time>
      </trkpt>
      <trkpt lat="44.11311" lon="7.01918">
        <ele>1872.3</ele>
        <time>2013-09-05T11:37:24Z</time>
      </trkpt>
      <trkpt lat="44.11304" lon="7.01934">
        <ele>1871.3</ele>
        <time>2013-09-05T11:37:27Z</time>
      </trkpt>
      <trkpt lat="44.11293" lon="7.01952">
        <ele>1868.9</ele>
        <time>2013-09-05T11:37:31Z</time>
      </trkpt>
      <trkpt lat="44.11288" lon="7.01961">
        <ele>1867.5</ele>
        <time>2013-09-05T11:37:33Z</time>
      </trkpt>
      <trkpt lat="44.11282" lon="7.01969">
        <ele>1866.1</ele>
        <time>2013-09-05T11:37:36Z</time>
      </trkpt>
      <trkpt lat="44.11269" lon="7.01985">
        <ele>1863.2</ele>
        <time>2013-09-05T11:37:49Z</time>
      </trkpt>
      <trkpt lat="44.11258" lon="7.02">
        <ele>1859.8</ele>
        <time>2013-09-05T11:38:02Z</time>
      </trkpt>
      <trkpt lat="44.11242" lon="7.02019">
        <ele>1858.9</ele>
        <time>2013-09-05T11:38:13Z</time>
      </trkpt>
      <trkpt lat="44.11229" lon="7.02033">
        <ele>1856</ele>
        <time>2013-09-05T11:38:19Z</time>
      </trkpt>
      <trkpt lat="44.11214" lon="7.02047">
        <ele>1853.1</ele>
        <time>2013-09-05T11:38:24Z</time>
      </trkpt>
      <trkpt lat="44.11211" lon="7.02051">
        <ele>1852.6</ele>
        <time>2013-09-05T11:38:25Z</time>
      </trkpt>
      <trkpt lat="44.11199" lon="7.02065">
        <ele>1850.7</ele>
        <time>2013-09-05T11:38:29Z</time>
      </trkpt>
      <trkpt lat="44.11192" lon="7.02073">
        <ele>1849.2</ele>
        <time>2013-09-05T11:38:31Z</time>
      </trkpt>
      <trkpt lat="44.11188" lon="7.02077">
        <ele>1848.8</ele>
        <time>2013-09-05T11:38:32Z</time>
      </trkpt>
      <trkpt lat="44.11165" lon="7.02104">
        <ele>1846.8</ele>
        <time>2013-09-05T11:38:38Z</time>
      </trkpt>
      <trkpt lat="44.11162" lon="7.0211">
        <ele>1846.4</ele>
        <time>2013-09-05T11:38:39Z</time>
      </trkpt>
      <trkpt lat="44.11159" lon="7.02115">
        <ele>1845.9</ele>
        <time>2013-09-05T11:38:40Z</time>
      </trkpt>
      <trkpt lat="44.11138" lon="7.02149">
        <ele>1843</ele>
        <time>2013-09-05T11:38:49Z</time>
      </trkpt>
      <trkpt lat="44.11131" lon="7.02157">
        <ele>1841.5</ele>
        <time>2013-09-05T11:38:52Z</time>
      </trkpt>
      <trkpt lat="44.11127" lon="7.0216">
        <ele>1841.5</ele>
        <time>2013-09-05T11:38:53Z</time>
      </trkpt>
      <trkpt lat="44.11091" lon="7.02198">
        <ele>1838.7</ele>
        <time>2013-09-05T11:39:06Z</time>
      </trkpt>
      <trkpt lat="44.11077" lon="7.02209">
        <ele>1835.3</ele>
        <time>2013-09-05T11:39:12Z</time>
      </trkpt>
      <trkpt lat="44.11072" lon="7.02214">
        <ele>1833.4</ele>
        <time>2013-09-05T11:39:15Z</time>
      </trkpt>
      <trkpt lat="44.11068" lon="7.02217">
        <ele>1832.4</ele>
        <time>2013-09-05T11:39:17Z</time>
      </trkpt>
      <trkpt lat="44.11066" lon="7.02218">
        <ele>1831.9</ele>
        <time>2013-09-05T11:39:18Z</time>
      </trkpt>
      <trkpt lat="44.11063" lon="7.02218">
        <ele>1831.5</ele>
        <time>2013-09-05T11:39:19Z</time>
      </trkpt>
      <trkpt lat="44.11048" lon="7.02223">
        <ele>1829.5</ele>
        <time>2013-09-05T11:39:24Z</time>
      </trkpt>
      <trkpt lat="44.1103" lon="7.0223">
        <ele>1827.1</ele>
        <time>2013-09-05T11:39:30Z</time>
      </trkpt>
      <trkpt lat="44.1102" lon="7.02235">
        <ele>1826.6</ele>
        <time>2013-09-05T11:39:33Z</time>
      </trkpt>
      <trkpt lat="44.11016" lon="7.02236">
        <ele>1825.7</ele>
        <time>2013-09-05T11:39:34Z</time>
      </trkpt>
      <trkpt lat="44.11012" lon="7.02239">
        <ele>1825.2</ele>
        <time>2013-09-05T11:39:35Z</time>
      </trkpt>
      <trkpt lat="44.11009" lon="7.02242">
        <ele>1825.2</ele>
        <time>2013-09-05T11:39:36Z</time>
      </trkpt>
      <trkpt lat="44.11007" lon="7.02245">
        <ele>1825.2</ele>
        <time>2013-09-05T11:39:37Z</time>
      </trkpt>
      <trkpt lat="44.11005" lon="7.02247">
        <ele>1825.2</ele>
        <time>2013-09-05T11:39:38Z</time>
      </trkpt>
      <trkpt lat="44.11001" lon="7.02252">
        <ele>1825.2</ele>
        <time>2013-09-05T11:39:50Z</time>
      </trkpt>
      <trkpt lat="44.10991" lon="7.02271">
        <ele>1824.7</ele>
        <time>2013-09-05T11:40:05Z</time>
      </trkpt>
      <trkpt lat="44.1099" lon="7.02272">
        <ele>1824.2</ele>
        <time>2013-09-05T11:40:07Z</time>
      </trkpt>
      <trkpt lat="44.10985" lon="7.0228">
        <ele>1823.3</ele>
        <time>2013-09-05T11:40:17Z</time>
      </trkpt>
      <trkpt lat="44.1098" lon="7.02284">
        <ele>1823.8</ele>
        <time>2013-09-05T11:40:33Z</time>
      </trkpt>
      <trkpt lat="44.10981" lon="7.02286">
        <ele>1823.3</ele>
        <time>2013-09-05T11:40:34Z</time>
      </trkpt>
      <trkpt lat="44.10981" lon="7.02288">
        <ele>1823.8</ele>
        <time>2013-09-05T11:40:35Z</time>
      </trkpt>
      <trkpt lat="44.10981" lon="7.0229">
        <ele>1823.8</ele>
        <time>2013-09-05T11:40:36Z</time>
      </trkpt>
      <trkpt lat="44.10971" lon="7.02325">
        <ele>1822.3</ele>
        <time>2013-09-05T11:40:47Z</time>
      </trkpt>
      <trkpt lat="44.10953" lon="7.02389">
        <ele>1820.9</ele>
        <time>2013-09-05T11:41:03Z</time>
      </trkpt>
      <trkpt lat="44.10932" lon="7.02443">
        <ele>1819.9</ele>
        <time>2013-09-05T11:41:18Z</time>
      </trkpt>
      <trkpt lat="44.10906" lon="7.02491">
        <ele>1817</ele>
        <time>2013-09-05T11:41:33Z</time>
      </trkpt>
      <trkpt lat="44.10903" lon="7.02497">
        <ele>1817</ele>
        <time>2013-09-05T11:41:34Z</time>
      </trkpt>
      <trkpt lat="44.10899" lon="7.02509">
        <ele>1816.6</ele>
        <time>2013-09-05T11:41:36Z</time>
      </trkpt>
      <trkpt lat="44.10893" lon="7.0252">
        <ele>1815.6</ele>
        <time>2013-09-05T11:41:38Z</time>
      </trkpt>
      <trkpt lat="44.10884" lon="7.02536">
        <ele>1812.7</ele>
        <time>2013-09-05T11:41:42Z</time>
      </trkpt>
      <trkpt lat="44.10875" lon="7.02548">
        <ele>1812.2</ele>
        <time>2013-09-05T11:41:46Z</time>
      </trkpt>
      <trkpt lat="44.10872" lon="7.02551">
        <ele>1812.2</ele>
        <time>2013-09-05T11:41:47Z</time>
      </trkpt>
      <trkpt lat="44.10868" lon="7.02555">
        <ele>1810.8</ele>
        <time>2013-09-05T11:41:48Z</time>
      </trkpt>
      <trkpt lat="44.10865" lon="7.0256">
        <ele>1810.3</ele>
        <time>2013-09-05T11:41:49Z</time>
      </trkpt>
      <trkpt lat="44.10863" lon="7.02566">
        <ele>1809.8</ele>
        <time>2013-09-05T11:41:50Z</time>
      </trkpt>
      <trkpt lat="44.10862" lon="7.02572">
        <ele>1809.3</ele>
        <time>2013-09-05T11:41:51Z</time>
      </trkpt>
      <trkpt lat="44.10862" lon="7.02579">
        <ele>1808.4</ele>
        <time>2013-09-05T11:41:52Z</time>
      </trkpt>
      <trkpt lat="44.10863" lon="7.02585">
        <ele>1808.4</ele>
        <time>2013-09-05T11:41:53Z</time>
      </trkpt>
      <trkpt lat="44.10863" lon="7.02592">
        <ele>1807.4</ele>
        <time>2013-09-05T11:41:54Z</time>
      </trkpt>
      <trkpt lat="44.10863" lon="7.026">
        <ele>1806.9</ele>
        <time>2013-09-05T11:41:55Z</time>
      </trkpt>
      <trkpt lat="44.10864" lon="7.02616">
        <ele>1806</ele>
        <time>2013-09-05T11:41:57Z</time>
      </trkpt>
      <trkpt lat="44.10864" lon="7.02624">
        <ele>1804.5</ele>
        <time>2013-09-05T11:41:58Z</time>
      </trkpt>
      <trkpt lat="44.10862" lon="7.02633">
        <ele>1804.1</ele>
        <time>2013-09-05T11:41:59Z</time>
      </trkpt>
      <trkpt lat="44.1086" lon="7.02641">
        <ele>1803.1</ele>
        <time>2013-09-05T11:42:00Z</time>
      </trkpt>
      <trkpt lat="44.10856" lon="7.02647">
        <ele>1802.6</ele>
        <time>2013-09-05T11:42:01Z</time>
      </trkpt>
      <trkpt lat="44.10852" lon="7.02654">
        <ele>1801.7</ele>
        <time>2013-09-05T11:42:02Z</time>
      </trkpt>
      <trkpt lat="44.10847" lon="7.0266">
        <ele>1800.2</ele>
        <time>2013-09-05T11:42:03Z</time>
      </trkpt>
      <trkpt lat="44.10842" lon="7.02665">
        <ele>1799.2</ele>
        <time>2013-09-05T11:42:04Z</time>
      </trkpt>
      <trkpt lat="44.10837" lon="7.02669">
        <ele>1797.8</ele>
        <time>2013-09-05T11:42:05Z</time>
      </trkpt>
      <trkpt lat="44.10831" lon="7.02671">
        <ele>1797.8</ele>
        <time>2013-09-05T11:42:06Z</time>
      </trkpt>
      <trkpt lat="44.10825" lon="7.02674">
        <ele>1796.4</ele>
        <time>2013-09-05T11:42:07Z</time>
      </trkpt>
      <trkpt lat="44.10804" lon="7.02683">
        <ele>1792.5</ele>
        <time>2013-09-05T11:42:10Z</time>
      </trkpt>
      <trkpt lat="44.10796" lon="7.02685">
        <ele>1791.6</ele>
        <time>2013-09-05T11:42:11Z</time>
      </trkpt>
      <trkpt lat="44.10772" lon="7.0269">
        <ele>1787.7</ele>
        <time>2013-09-05T11:42:14Z</time>
      </trkpt>
      <trkpt lat="44.10756" lon="7.0269">
        <ele>1785.3</ele>
        <time>2013-09-05T11:42:16Z</time>
      </trkpt>
      <trkpt lat="44.10745" lon="7.02689">
        <ele>1784.8</ele>
        <time>2013-09-05T11:42:17Z</time>
      </trkpt>
      <trkpt lat="44.10739" lon="7.02688">
        <ele>1783.9</ele>
        <time>2013-09-05T11:42:18Z</time>
      </trkpt>
      <trkpt lat="44.10732" lon="7.0269">
        <ele>1784.3</ele>
        <time>2013-09-05T11:42:19Z</time>
      </trkpt>
      <trkpt lat="44.10703" lon="7.02697">
        <ele>1784.8</ele>
        <time>2013-09-05T11:42:26Z</time>
      </trkpt>
      <trkpt lat="44.10676" lon="7.02698">
        <ele>1782.9</ele>
        <time>2013-09-05T11:42:35Z</time>
      </trkpt>
      <trkpt lat="44.10653" lon="7.02697">
        <ele>1781</ele>
        <time>2013-09-05T11:42:42Z</time>
      </trkpt>
      <trkpt lat="44.10644" lon="7.02695">
        <ele>1780.5</ele>
        <time>2013-09-05T11:42:44Z</time>
      </trkpt>
      <trkpt lat="44.10618" lon="7.02691">
        <ele>1777.1</ele>
        <time>2013-09-05T11:42:52Z</time>
      </trkpt>
      <trkpt lat="44.10586" lon="7.02687">
        <ele>1774.3</ele>
        <time>2013-09-05T11:43:00Z</time>
      </trkpt>
      <trkpt lat="44.10575" lon="7.02692">
        <ele>1773.3</ele>
        <time>2013-09-05T11:43:08Z</time>
      </trkpt>
      <trkpt lat="44.10571" lon="7.02695">
        <ele>1772.8</ele>
        <time>2013-09-05T11:43:19Z</time>
      </trkpt>
      <trkpt lat="44.10571" lon="7.02694">
        <ele>1772.3</ele>
        <time>2013-09-05T11:43:58Z</time>
      </trkpt>
      <trkpt lat="44.10567" lon="7.02696">
        <ele>1771.9</ele>
        <time>2013-09-05T11:44:27Z</time>
      </trkpt>
      <trkpt lat="44.10566" lon="7.02696">
        <ele>1772.3</ele>
        <time>2013-09-05T11:44:49Z</time>
      </trkpt>
      <trkpt lat="44.10564" lon="7.02696">
        <ele>1771.9</ele>
        <time>2013-09-05T11:44:51Z</time>
      </trkpt>
      <trkpt lat="44.10556" lon="7.02686">
        <ele>1769.9</ele>
        <time>2013-09-05T11:44:55Z</time>
      </trkpt>
      <trkpt lat="44.10542" lon="7.02678">
        <ele>1767</ele>
        <time>2013-09-05T11:44:59Z</time>
      </trkpt>
      <trkpt lat="44.10526" lon="7.02672">
        <ele>1762.7</ele>
        <time>2013-09-05T11:45:03Z</time>
      </trkpt>
      <trkpt lat="44.10516" lon="7.02658">
        <ele>1758.4</ele>
        <time>2013-09-05T11:45:07Z</time>
      </trkpt>
      <trkpt lat="44.10502" lon="7.02651">
        <ele>1755</ele>
        <time>2013-09-05T11:45:10Z</time>
      </trkpt>
      <trkpt lat="44.10486" lon="7.02645">
        <ele>1751.7</ele>
        <time>2013-09-05T11:45:13Z</time>
      </trkpt>
      <trkpt lat="44.10474" lon="7.02639">
        <ele>1749.3</ele>
        <time>2013-09-05T11:45:15Z</time>
      </trkpt>
      <trkpt lat="44.10454" lon="7.0263">
        <ele>1744.9</ele>
        <time>2013-09-05T11:45:18Z</time>
      </trkpt>
      <trkpt lat="44.10436" lon="7.02618">
        <ele>1741.6</ele>
        <time>2013-09-05T11:45:21Z</time>
      </trkpt>
      <trkpt lat="44.10416" lon="7.02605">
        <ele>1739.2</ele>
        <time>2013-09-05T11:45:24Z</time>
      </trkpt>
      <trkpt lat="44.1041" lon="7.02599">
        <ele>1738.2</ele>
        <time>2013-09-05T11:45:25Z</time>
      </trkpt>
      <trkpt lat="44.10404" lon="7.02591">
        <ele>1737.2</ele>
        <time>2013-09-05T11:45:26Z</time>
      </trkpt>
      <trkpt lat="44.10399" lon="7.02581">
        <ele>1736.8</ele>
        <time>2013-09-05T11:45:27Z</time>
      </trkpt>
      <trkpt lat="44.10396" lon="7.02571">
        <ele>1736.3</ele>
        <time>2013-09-05T11:45:28Z</time>
      </trkpt>
      <trkpt lat="44.10393" lon="7.02561">
        <ele>1735.3</ele>
        <time>2013-09-05T11:45:29Z</time>
      </trkpt>
      <trkpt lat="44.10391" lon="7.02551">
        <ele>1735.3</ele>
        <time>2013-09-05T11:45:30Z</time>
      </trkpt>
      <trkpt lat="44.10378" lon="7.02497">
        <ele>1736.3</ele>
        <time>2013-09-05T11:45:39Z</time>
      </trkpt>
      <trkpt lat="44.10362" lon="7.02465">
        <ele>1735.8</ele>
        <time>2013-09-05T11:45:51Z</time>
      </trkpt>
      <trkpt lat="44.10341" lon="7.02432">
        <ele>1734.4</ele>
        <time>2013-09-05T11:46:03Z</time>
      </trkpt>
      <trkpt lat="44.10337" lon="7.02418">
        <ele>1732.9</ele>
        <time>2013-09-05T11:46:06Z</time>
      </trkpt>
      <trkpt lat="44.10333" lon="7.02415">
        <ele>1731.5</ele>
        <time>2013-09-05T11:46:07Z</time>
      </trkpt>
      <trkpt lat="44.10325" lon="7.02409">
        <ele>1732</ele>
        <time>2013-09-05T11:46:10Z</time>
      </trkpt>
      <trkpt lat="44.10322" lon="7.02404">
        <ele>1731</ele>
        <time>2013-09-05T11:46:11Z</time>
      </trkpt>
      <trkpt lat="44.10319" lon="7.02399">
        <ele>1731</ele>
        <time>2013-09-05T11:46:12Z</time>
      </trkpt>
      <trkpt lat="44.10311" lon="7.02388">
        <ele>1729.6</ele>
        <time>2013-09-05T11:46:14Z</time>
      </trkpt>
      <trkpt lat="44.10305" lon="7.02383">
        <ele>1728.6</ele>
        <time>2013-09-05T11:46:15Z</time>
      </trkpt>
      <trkpt lat="44.103" lon="7.02378">
        <ele>1728.6</ele>
        <time>2013-09-05T11:46:16Z</time>
      </trkpt>
      <trkpt lat="44.10286" lon="7.02364">
        <ele>1727.2</ele>
        <time>2013-09-05T11:46:19Z</time>
      </trkpt>
      <trkpt lat="44.10272" lon="7.02354">
        <ele>1726.2</ele>
        <time>2013-09-05T11:46:22Z</time>
      </trkpt>
      <trkpt lat="44.1024" lon="7.02322">
        <ele>1722.8</ele>
        <time>2013-09-05T11:46:29Z</time>
      </trkpt>
      <trkpt lat="44.10235" lon="7.02317">
        <ele>1721.9</ele>
        <time>2013-09-05T11:46:30Z</time>
      </trkpt>
      <trkpt lat="44.1023" lon="7.02312">
        <ele>1721.4</ele>
        <time>2013-09-05T11:46:31Z</time>
      </trkpt>
      <trkpt lat="44.10225" lon="7.02309">
        <ele>1719.9</ele>
        <time>2013-09-05T11:46:32Z</time>
      </trkpt>
      <trkpt lat="44.10219" lon="7.02307">
        <ele>1719</ele>
        <time>2013-09-05T11:46:33Z</time>
      </trkpt>
      <trkpt lat="44.10214" lon="7.02305">
        <ele>1719</ele>
        <time>2013-09-05T11:46:34Z</time>
      </trkpt>
      <trkpt lat="44.10188" lon="7.02296">
        <ele>1716.6</ele>
        <time>2013-09-05T11:46:40Z</time>
      </trkpt>
      <trkpt lat="44.10179" lon="7.02292">
        <ele>1714.2</ele>
        <time>2013-09-05T11:46:42Z</time>
      </trkpt>
      <trkpt lat="44.10174" lon="7.02292">
        <ele>1713.7</ele>
        <time>2013-09-05T11:46:43Z</time>
      </trkpt>
      <trkpt lat="44.1017" lon="7.02293">
        <ele>1712.7</ele>
        <time>2013-09-05T11:46:44Z</time>
      </trkpt>
      <trkpt lat="44.10166" lon="7.02295">
        <ele>1712.7</ele>
        <time>2013-09-05T11:46:45Z</time>
      </trkpt>
      <trkpt lat="44.10163" lon="7.02297">
        <ele>1711.3</ele>
        <time>2013-09-05T11:46:46Z</time>
      </trkpt>
      <trkpt lat="44.10156" lon="7.023">
        <ele>1710.3</ele>
        <time>2013-09-05T11:46:48Z</time>
      </trkpt>
      <trkpt lat="44.10139" lon="7.02306">
        <ele>1707.4</ele>
        <time>2013-09-05T11:46:53Z</time>
      </trkpt>
      <trkpt lat="44.10124" lon="7.0231">
        <ele>1706.5</ele>
        <time>2013-09-05T11:46:56Z</time>
      </trkpt>
      <trkpt lat="44.10119" lon="7.0231">
        <ele>1706</ele>
        <time>2013-09-05T11:46:57Z</time>
      </trkpt>
      <trkpt lat="44.10086" lon="7.02315">
        <ele>1703.6</ele>
        <time>2013-09-05T11:47:05Z</time>
      </trkpt>
      <trkpt lat="44.10082" lon="7.02314">
        <ele>1703.6</ele>
        <time>2013-09-05T11:47:06Z</time>
      </trkpt>
      <trkpt lat="44.10077" lon="7.02312">
        <ele>1702.6</ele>
        <time>2013-09-05T11:47:07Z</time>
      </trkpt>
      <trkpt lat="44.10051" lon="7.02306">
        <ele>1700.2</ele>
        <time>2013-09-05T11:47:15Z</time>
      </trkpt>
      <trkpt lat="44.10049" lon="7.02309">
        <ele>1698.8</ele>
        <time>2013-09-05T11:47:28Z</time>
      </trkpt>
      <trkpt lat="44.10042" lon="7.02313">
        <ele>1697.3</ele>
        <time>2013-09-05T11:47:36Z</time>
      </trkpt>
      <trkpt lat="44.10041" lon="7.02315">
        <ele>1697.8</ele>
        <time>2013-09-05T11:47:37Z</time>
      </trkpt>
      <trkpt lat="44.1004" lon="7.02317">
        <ele>1697.3</ele>
        <time>2013-09-05T11:47:38Z</time>
      </trkpt>
      <trkpt lat="44.10039" lon="7.0232">
        <ele>1696.9</ele>
        <time>2013-09-05T11:47:39Z</time>
      </trkpt>
      <trkpt lat="44.10039" lon="7.02324">
        <ele>1696.9</ele>
        <time>2013-09-05T11:47:40Z</time>
      </trkpt>
      <trkpt lat="44.10038" lon="7.02334">
        <ele>1694.5</ele>
        <time>2013-09-05T11:47:43Z</time>
      </trkpt>
      <trkpt lat="44.10036" lon="7.02336">
        <ele>1694</ele>
        <time>2013-09-05T11:47:44Z</time>
      </trkpt>
      <trkpt lat="44.10035" lon="7.02335">
        <ele>1693.5</ele>
        <time>2013-09-05T11:47:45Z</time>
      </trkpt>
      <trkpt lat="44.10034" lon="7.02333">
        <ele>1693.5</ele>
        <time>2013-09-05T11:47:46Z</time>
      </trkpt>
      <trkpt lat="44.10033" lon="7.0233">
        <ele>1693.5</ele>
        <time>2013-09-05T11:47:47Z</time>
      </trkpt>
      <trkpt lat="44.10031" lon="7.02326">
        <ele>1693.5</ele>
        <time>2013-09-05T11:47:48Z</time>
      </trkpt>
      <trkpt lat="44.10029" lon="7.02323">
        <ele>1693</ele>
        <time>2013-09-05T11:47:49Z</time>
      </trkpt>
      <trkpt lat="44.10027" lon="7.02321">
        <ele>1693.5</ele>
        <time>2013-09-05T11:47:50Z</time>
      </trkpt>
      <trkpt lat="44.10024" lon="7.02319">
        <ele>1693.5</ele>
        <time>2013-09-05T11:47:51Z</time>
      </trkpt>
      <trkpt lat="44.10021" lon="7.02317">
        <ele>1693</ele>
        <time>2013-09-05T11:47:52Z</time>
      </trkpt>
      <trkpt lat="44.10015" lon="7.02311">
        <ele>1693</ele>
        <time>2013-09-05T11:47:55Z</time>
      </trkpt>
      <trkpt lat="44.10015" lon="7.02309">
        <ele>1693</ele>
        <time>2013-09-05T11:47:56Z</time>
      </trkpt>
      <trkpt lat="44.10016" lon="7.02307">
        <ele>1692.5</ele>
        <time>2013-09-05T11:47:57Z</time>
      </trkpt>
      <trkpt lat="44.10028" lon="7.02301">
        <ele>1693.5</ele>
        <time>2013-09-05T11:48:08Z</time>
      </trkpt>
      <trkpt lat="44.10029" lon="7.02299">
        <ele>1694</ele>
        <time>2013-09-05T11:48:10Z</time>
      </trkpt>
      <trkpt lat="44.1003" lon="7.02298">
        <ele>1693.5</ele>
        <time>2013-09-05T11:48:11Z</time>
      </trkpt>
      <trkpt lat="44.1003" lon="7.02296">
        <ele>1693.5</ele>
        <time>2013-09-05T11:48:12Z</time>
      </trkpt>
      <trkpt lat="44.1003" lon="7.02294">
        <ele>1693.5</ele>
        <time>2013-09-05T11:48:13Z</time>
      </trkpt>
      <trkpt lat="44.1003" lon="7.02292">
        <ele>1693.5</ele>
        <time>2013-09-05T11:48:14Z</time>
      </trkpt>
      <trkpt lat="44.10029" lon="7.02291">
        <ele>1693.5</ele>
        <time>2013-09-05T11:48:15Z</time>
      </trkpt>
      <trkpt lat="44.10029" lon="7.02289">
        <ele>1693.5</ele>
        <time>2013-09-05T11:48:16Z</time>
      </trkpt>
      <trkpt lat="44.10028" lon="7.02288">
        <ele>1693.5</ele>
        <time>2013-09-05T11:48:17Z</time>
      </trkpt>
      <trkpt lat="44.10027" lon="7.02286">
        <ele>1693</ele>
        <time>2013-09-05T11:48:18Z</time>
      </trkpt>
      <trkpt lat="44.10006" lon="7.02272">
        <ele>1694.5</ele>
        <time>2013-09-05T11:48:32Z</time>
      </trkpt>
      <trkpt lat="44.09988" lon="7.02269">
        <ele>1697.8</ele>
        <time>2013-09-05T11:48:47Z</time>
      </trkpt>
      <trkpt lat="44.09963" lon="7.02275">
        <ele>1699.8</ele>
        <time>2013-09-05T11:49:06Z</time>
      </trkpt>
      <trkpt lat="44.09963" lon="7.02276">
        <ele>1699.8</ele>
        <time>2013-09-05T11:49:07Z</time>
      </trkpt>
      <trkpt lat="44.09962" lon="7.02278">
        <ele>1699.8</ele>
        <time>2013-09-05T11:49:08Z</time>
      </trkpt>
      <trkpt lat="44.09961" lon="7.02279">
        <ele>1699.8</ele>
        <time>2013-09-05T11:49:09Z</time>
      </trkpt>
      <trkpt lat="44.09959" lon="7.02283">
        <ele>1699.3</ele>
        <time>2013-09-05T11:49:23Z</time>
      </trkpt>
      <trkpt lat="44.0996" lon="7.02283">
        <ele>1694.9</ele>
        <time>2013-09-05T11:49:26Z</time>
      </trkpt>
      <trkpt lat="44.09958" lon="7.02284">
        <ele>1702.6</ele>
        <time>2013-09-05T12:11:42Z</time>
      </trkpt>
      <trkpt lat="44.09961" lon="7.02285">
        <ele>1695.9</ele>
        <time>2013-09-05T12:11:59Z</time>
      </trkpt>
      <trkpt lat="44.09961" lon="7.02285">
        <ele>1703.6</ele>
        <time>2013-09-05T12:12:00Z</time>
      </trkpt>
      <trkpt lat="44.0996" lon="7.02285">
        <ele>1697.8</ele>
        <time>2013-09-05T12:12:02Z</time>
      </trkpt>
      <trkpt lat="44.0996" lon="7.02286">
        <ele>1700.7</ele>
        <time>2013-09-05T12:12:05Z</time>
      </trkpt>
      <trkpt lat="44.0996" lon="7.02286">
        <ele>1697.3</ele>
        <time>2013-09-05T12:12:07Z</time>
      </trkpt>
      <trkpt lat="44.09961" lon="7.02286">
        <ele>1696.4</ele>
        <time>2013-09-05T12:12:12Z</time>
      </trkpt>
      <trkpt lat="44.09961" lon="7.02285">
        <ele>1695.9</ele>
        <time>2013-09-05T12:12:16Z</time>
      </trkpt>
      <trkpt lat="44.09961" lon="7.02285">
        <ele>1692.5</ele>
        <time>2013-09-05T12:12:17Z</time>
      </trkpt>
      <trkpt lat="44.09961" lon="7.02286">
        <ele>1698.8</ele>
        <time>2013-09-05T12:12:18Z</time>
      </trkpt>
      <trkpt lat="44.09961" lon="7.02286">
        <ele>1695.4</ele>
        <time>2013-09-05T12:12:19Z</time>
      </trkpt>
      <trkpt lat="44.09961" lon="7.02286">
        <ele>1694</ele>
        <time>2013-09-05T12:12:22Z</time>
      </trkpt>
      <trkpt lat="44.09961" lon="7.02286">
        <ele>1695.4</ele>
        <time>2013-09-05T12:12:24Z</time>
      </trkpt>
      <trkpt lat="44.0996" lon="7.02284">
        <ele>1691.6</ele>
        <time>2013-09-05T12:12:52Z</time>
      </trkpt>
      <trkpt lat="44.0996" lon="7.02284">
        <ele>1695.4</ele>
        <time>2013-09-05T12:12:53Z</time>
      </trkpt>
      <trkpt lat="44.0996" lon="7.02283">
        <ele>1692.5</ele>
        <time>2013-09-05T12:12:57Z</time>
      </trkpt>
      <trkpt lat="44.09959" lon="7.02284">
        <ele>1696.4</ele>
        <time>2013-09-05T12:13:21Z</time>
      </trkpt>
      <trkpt lat="44.09959" lon="7.02283">
        <ele>1693</ele>
        <time>2013-09-05T12:13:26Z</time>
      </trkpt>
      <trkpt lat="44.0996" lon="7.02283">
        <ele>1696.4</ele>
        <time>2013-09-05T12:13:29Z</time>
      </trkpt>
      <trkpt lat="44.0996" lon="7.02283">
        <ele>1693</ele>
        <time>2013-09-05T12:13:30Z</time>
      </trkpt>
      <trkpt lat="44.09958" lon="7.02288">
        <ele>1694.9</ele>
        <time>2013-09-05T12:13:49Z</time>
      </trkpt>
      <trkpt lat="44.09956" lon="7.02289">
        <ele>1694.5</ele>
        <time>2013-09-05T12:14:18Z</time>
      </trkpt>
      <trkpt lat="44.09958" lon="7.02278">
        <ele>1694</ele>
        <time>2013-09-05T12:14:42Z</time>
      </trkpt>
      <trkpt lat="44.09959" lon="7.02272">
        <ele>1694.9</ele>
        <time>2013-09-05T12:14:57Z</time>
      </trkpt>
      <trkpt lat="44.0996" lon="7.02276">
        <ele>1694.5</ele>
        <time>2013-09-05T12:15:26Z</time>
      </trkpt>
      <trkpt lat="44.09961" lon="7.02273">
        <ele>1694.9</ele>
        <time>2013-09-05T12:15:34Z</time>
      </trkpt>
      <trkpt lat="44.09987" lon="7.02268">
        <ele>1693.5</ele>
        <time>2013-09-05T12:15:47Z</time>
      </trkpt>
      <trkpt lat="44.10002" lon="7.0227">
        <ele>1691.6</ele>
        <time>2013-09-05T12:15:52Z</time>
      </trkpt>
      <trkpt lat="44.10024" lon="7.02289">
        <ele>1689.2</ele>
        <time>2013-09-05T12:16:00Z</time>
      </trkpt>
      <trkpt lat="44.10024" lon="7.02292">
        <ele>1688.7</ele>
        <time>2013-09-05T12:16:01Z</time>
      </trkpt>
      <trkpt lat="44.10023" lon="7.02295">
        <ele>1688.2</ele>
        <time>2013-09-05T12:16:02Z</time>
      </trkpt>
      <trkpt lat="44.10022" lon="7.02297">
        <ele>1688.7</ele>
        <time>2013-09-05T12:16:03Z</time>
      </trkpt>
      <trkpt lat="44.10021" lon="7.023">
        <ele>1688.7</ele>
        <time>2013-09-05T12:16:04Z</time>
      </trkpt>
      <trkpt lat="44.1002" lon="7.02312">
        <ele>1688.7</ele>
        <time>2013-09-05T12:16:08Z</time>
      </trkpt>
      <trkpt lat="44.10021" lon="7.02314">
        <ele>1688.2</ele>
        <time>2013-09-05T12:16:09Z</time>
      </trkpt>
      <trkpt lat="44.10022" lon="7.02316">
        <ele>1688.2</ele>
        <time>2013-09-05T12:16:10Z</time>
      </trkpt>
      <trkpt lat="44.10024" lon="7.02316">
        <ele>1688.7</ele>
        <time>2013-09-05T12:16:11Z</time>
      </trkpt>
      <trkpt lat="44.10025" lon="7.02317">
        <ele>1688.7</ele>
        <time>2013-09-05T12:16:12Z</time>
      </trkpt>
      <trkpt lat="44.10027" lon="7.02317">
        <ele>1688.2</ele>
        <time>2013-09-05T12:16:13Z</time>
      </trkpt>
      <trkpt lat="44.10028" lon="7.02318">
        <ele>1688.2</ele>
        <time>2013-09-05T12:16:14Z</time>
      </trkpt>
      <trkpt lat="44.10029" lon="7.02319">
        <ele>1688.7</ele>
        <time>2013-09-05T12:16:15Z</time>
      </trkpt>
      <trkpt lat="44.1003" lon="7.0232">
        <ele>1687.7</ele>
        <time>2013-09-05T12:16:16Z</time>
      </trkpt>
      <trkpt lat="44.10031" lon="7.02321">
        <ele>1688.7</ele>
        <time>2013-09-05T12:16:17Z</time>
      </trkpt>
      <trkpt lat="44.10033" lon="7.02323">
        <ele>1688.2</ele>
        <time>2013-09-05T12:16:32Z</time>
      </trkpt>
      <trkpt lat="44.10031" lon="7.02323">
        <ele>1688.2</ele>
        <time>2013-09-05T12:16:48Z</time>
      </trkpt>
      <trkpt lat="44.10027" lon="7.02325">
        <ele>1688.2</ele>
        <time>2013-09-05T12:17:06Z</time>
      </trkpt>
      <trkpt lat="44.10032" lon="7.02335">
        <ele>1687.7</ele>
        <time>2013-09-05T12:17:20Z</time>
      </trkpt>
      <trkpt lat="44.10032" lon="7.02335">
        <ele>1688.2</ele>
        <time>2013-09-05T12:17:50Z</time>
      </trkpt>
      <trkpt lat="44.10031" lon="7.02344">
        <ele>1687.7</ele>
        <time>2013-09-05T12:18:06Z</time>
      </trkpt>
      <trkpt lat="44.10032" lon="7.02345">
        <ele>1687.7</ele>
        <time>2013-09-05T12:18:07Z</time>
      </trkpt>
      <trkpt lat="44.10032" lon="7.02347">
        <ele>1687.3</ele>
        <time>2013-09-05T12:18:08Z</time>
      </trkpt>
      <trkpt lat="44.10033" lon="7.0236">
        <ele>1685.3</ele>
        <time>2013-09-05T12:18:16Z</time>
      </trkpt>
      <trkpt lat="44.10035" lon="7.02377">
        <ele>1682.4</ele>
        <time>2013-09-05T12:18:22Z</time>
      </trkpt>
      <trkpt lat="44.10037" lon="7.02381">
        <ele>1681.5</ele>
        <time>2013-09-05T12:18:24Z</time>
      </trkpt>
      <trkpt lat="44.10039" lon="7.02385">
        <ele>1680.5</ele>
        <time>2013-09-05T12:18:35Z</time>
      </trkpt>
      <trkpt lat="44.10034" lon="7.02386">
        <ele>1679.1</ele>
        <time>2013-09-05T12:18:48Z</time>
      </trkpt>
      <trkpt lat="44.10023" lon="7.02381">
        <ele>1676.7</ele>
        <time>2013-09-05T12:19:01Z</time>
      </trkpt>
      <trkpt lat="44.10023" lon="7.0238">
        <ele>1676.2</ele>
        <time>2013-09-05T12:19:02Z</time>
      </trkpt>
      <trkpt lat="44.10015" lon="7.02379">
        <ele>1674.8</ele>
        <time>2013-09-05T12:19:12Z</time>
      </trkpt>
      <trkpt lat="44.10014" lon="7.02387">
        <ele>1672.8</ele>
        <time>2013-09-05T12:19:27Z</time>
      </trkpt>
      <trkpt lat="44.10014" lon="7.02389">
        <ele>1672.8</ele>
        <time>2013-09-05T12:19:28Z</time>
      </trkpt>
      <trkpt lat="44.10014" lon="7.0239">
        <ele>1672.4</ele>
        <time>2013-09-05T12:19:29Z</time>
      </trkpt>
      <trkpt lat="44.10015" lon="7.02393">
        <ele>1673.3</ele>
        <time>2013-09-05T12:19:30Z</time>
      </trkpt>
      <trkpt lat="44.10016" lon="7.02395">
        <ele>1672.8</ele>
        <time>2013-09-05T12:19:31Z</time>
      </trkpt>
      <trkpt lat="44.10017" lon="7.02397">
        <ele>1671.9</ele>
        <time>2013-09-05T12:19:32Z</time>
      </trkpt>
      <trkpt lat="44.10018" lon="7.02399">
        <ele>1671.4</ele>
        <time>2013-09-05T12:19:33Z</time>
      </trkpt>
      <trkpt lat="44.10019" lon="7.02401">
        <ele>1671.4</ele>
        <time>2013-09-05T12:19:34Z</time>
      </trkpt>
      <trkpt lat="44.10027" lon="7.02412">
        <ele>1668</ele>
        <time>2013-09-05T12:19:42Z</time>
      </trkpt>
      <trkpt lat="44.10029" lon="7.02417">
        <ele>1667.5</ele>
        <time>2013-09-05T12:19:52Z</time>
      </trkpt>
      <trkpt lat="44.10026" lon="7.02422">
        <ele>1666.6</ele>
        <time>2013-09-05T12:20:07Z</time>
      </trkpt>
      <trkpt lat="44.10024" lon="7.02422">
        <ele>1666.1</ele>
        <time>2013-09-05T12:20:12Z</time>
      </trkpt>
      <trkpt lat="44.10002" lon="7.02417">
        <ele>1662.7</ele>
        <time>2013-09-05T12:20:22Z</time>
      </trkpt>
      <trkpt lat="44.09984" lon="7.02418">
        <ele>1659.9</ele>
        <time>2013-09-05T12:20:32Z</time>
      </trkpt>
      <trkpt lat="44.09983" lon="7.02423">
        <ele>1659.9</ele>
        <time>2013-09-05T12:20:46Z</time>
      </trkpt>
      <trkpt lat="44.09976" lon="7.0243">
        <ele>1659.4</ele>
        <time>2013-09-05T12:21:01Z</time>
      </trkpt>
      <trkpt lat="44.09969" lon="7.02441">
        <ele>1657</ele>
        <time>2013-09-05T12:21:16Z</time>
      </trkpt>
      <trkpt lat="44.09962" lon="7.02453">
        <ele>1655.5</ele>
        <time>2013-09-05T12:21:31Z</time>
      </trkpt>
      <trkpt lat="44.09959" lon="7.02452">
        <ele>1655.5</ele>
        <time>2013-09-05T12:22:00Z</time>
      </trkpt>
      <trkpt lat="44.09955" lon="7.02462">
        <ele>1655.5</ele>
        <time>2013-09-05T12:22:14Z</time>
      </trkpt>
      <trkpt lat="44.09954" lon="7.02463">
        <ele>1654.6</ele>
        <time>2013-09-05T12:22:20Z</time>
      </trkpt>
      <trkpt lat="44.09952" lon="7.02463">
        <ele>1655.1</ele>
        <time>2013-09-05T12:22:21Z</time>
      </trkpt>
      <trkpt lat="44.09951" lon="7.02462">
        <ele>1655.1</ele>
        <time>2013-09-05T12:22:22Z</time>
      </trkpt>
      <trkpt lat="44.09944" lon="7.02455">
        <ele>1654.1</ele>
        <time>2013-09-05T12:22:33Z</time>
      </trkpt>
      <trkpt lat="44.09926" lon="7.02446">
        <ele>1652.2</ele>
        <time>2013-09-05T12:22:44Z</time>
      </trkpt>
      <trkpt lat="44.09913" lon="7.02438">
        <ele>1650.2</ele>
        <time>2013-09-05T12:22:51Z</time>
      </trkpt>
      <trkpt lat="44.09911" lon="7.02438">
        <ele>1650.2</ele>
        <time>2013-09-05T12:22:52Z</time>
      </trkpt>
      <trkpt lat="44.09909" lon="7.02438">
        <ele>1650.2</ele>
        <time>2013-09-05T12:22:53Z</time>
      </trkpt>
      <trkpt lat="44.09907" lon="7.02438">
        <ele>1650.2</ele>
        <time>2013-09-05T12:22:54Z</time>
      </trkpt>
      <trkpt lat="44.09906" lon="7.02438">
        <ele>1649.8</ele>
        <time>2013-09-05T12:22:55Z</time>
      </trkpt>
      <trkpt lat="44.0988" lon="7.02441">
        <ele>1648.3</ele>
        <time>2013-09-05T12:23:06Z</time>
      </trkpt>
      <trkpt lat="44.09868" lon="7.02442">
        <ele>1646.4</ele>
        <time>2013-09-05T12:23:11Z</time>
      </trkpt>
      <trkpt lat="44.09865" lon="7.02441">
        <ele>1646.4</ele>
        <time>2013-09-05T12:23:12Z</time>
      </trkpt>
      <trkpt lat="44.09862" lon="7.02441">
        <ele>1645.4</ele>
        <time>2013-09-05T12:23:13Z</time>
      </trkpt>
      <trkpt lat="44.09859" lon="7.02441">
        <ele>1645.4</ele>
        <time>2013-09-05T12:23:14Z</time>
      </trkpt>
      <trkpt lat="44.09856" lon="7.02442">
        <ele>1645</ele>
        <time>2013-09-05T12:23:15Z</time>
      </trkpt>
      <trkpt lat="44.09853" lon="7.02442">
        <ele>1645.4</ele>
        <time>2013-09-05T12:23:16Z</time>
      </trkpt>
      <trkpt lat="44.09826" lon="7.02445">
        <ele>1642.1</ele>
        <time>2013-09-05T12:23:24Z</time>
      </trkpt>
      <trkpt lat="44.09792" lon="7.0245">
        <ele>1638.7</ele>
        <time>2013-09-05T12:23:36Z</time>
      </trkpt>
      <trkpt lat="44.09789" lon="7.02451">
        <ele>1638.2</ele>
        <time>2013-09-05T12:23:37Z</time>
      </trkpt>
      <trkpt lat="44.09768" lon="7.0246">
        <ele>1635.3</ele>
        <time>2013-09-05T12:23:46Z</time>
      </trkpt>
      <trkpt lat="44.09756" lon="7.02477">
        <ele>1632.5</ele>
        <time>2013-09-05T12:23:51Z</time>
      </trkpt>
      <trkpt lat="44.09737" lon="7.02504">
        <ele>1629.6</ele>
        <time>2013-09-05T12:23:59Z</time>
      </trkpt>
      <trkpt lat="44.09724" lon="7.02536">
        <ele>1626.2</ele>
        <time>2013-09-05T12:24:07Z</time>
      </trkpt>
      <trkpt lat="44.09722" lon="7.0254">
        <ele>1626.2</ele>
        <time>2013-09-05T12:24:08Z</time>
      </trkpt>
      <trkpt lat="44.09716" lon="7.02561">
        <ele>1623.8</ele>
        <time>2013-09-05T12:24:14Z</time>
      </trkpt>
      <trkpt lat="44.09711" lon="7.02573">
        <ele>1622.4</ele>
        <time>2013-09-05T12:24:23Z</time>
      </trkpt>
      <trkpt lat="44.09692" lon="7.02612">
        <ele>1619.5</ele>
        <time>2013-09-05T12:24:35Z</time>
      </trkpt>
      <trkpt lat="44.09681" lon="7.02645">
        <ele>1616.6</ele>
        <time>2013-09-05T12:24:45Z</time>
      </trkpt>
      <trkpt lat="44.0967" lon="7.02681">
        <ele>1613.7</ele>
        <time>2013-09-05T12:24:56Z</time>
      </trkpt>
      <trkpt lat="44.0967" lon="7.02687">
        <ele>1613.7</ele>
        <time>2013-09-05T12:25:07Z</time>
      </trkpt>
      <trkpt lat="44.09666" lon="7.02714">
        <ele>1612.3</ele>
        <time>2013-09-05T12:25:21Z</time>
      </trkpt>
      <trkpt lat="44.09648" lon="7.02744">
        <ele>1609.4</ele>
        <time>2013-09-05T12:25:30Z</time>
      </trkpt>
      <trkpt lat="44.09643" lon="7.02758">
        <ele>1607.9</ele>
        <time>2013-09-05T12:25:33Z</time>
      </trkpt>
      <trkpt lat="44.09629" lon="7.02803">
        <ele>1604.1</ele>
        <time>2013-09-05T12:25:43Z</time>
      </trkpt>
      <trkpt lat="44.09627" lon="7.02808">
        <ele>1603.6</ele>
        <time>2013-09-05T12:25:44Z</time>
      </trkpt>
      <trkpt lat="44.09614" lon="7.02844">
        <ele>1600.3</ele>
        <time>2013-09-05T12:25:53Z</time>
      </trkpt>
      <trkpt lat="44.09606" lon="7.02868">
        <ele>1597.4</ele>
        <time>2013-09-05T12:25:59Z</time>
      </trkpt>
      <trkpt lat="44.09599" lon="7.02892">
        <ele>1595.5</ele>
        <time>2013-09-05T12:26:04Z</time>
      </trkpt>
      <trkpt lat="44.09597" lon="7.02909">
        <ele>1594</ele>
        <time>2013-09-05T12:26:07Z</time>
      </trkpt>
      <trkpt lat="44.09596" lon="7.02914">
        <ele>1593</ele>
        <time>2013-09-05T12:26:08Z</time>
      </trkpt>
      <trkpt lat="44.09595" lon="7.0292">
        <ele>1592.6</ele>
        <time>2013-09-05T12:26:09Z</time>
      </trkpt>
      <trkpt lat="44.09594" lon="7.02925">
        <ele>1592.6</ele>
        <time>2013-09-05T12:26:10Z</time>
      </trkpt>
      <trkpt lat="44.09593" lon="7.02931">
        <ele>1592.1</ele>
        <time>2013-09-05T12:26:11Z</time>
      </trkpt>
      <trkpt lat="44.09592" lon="7.02936">
        <ele>1591.1</ele>
        <time>2013-09-05T12:26:12Z</time>
      </trkpt>
      <trkpt lat="44.09592" lon="7.02942">
        <ele>1590.6</ele>
        <time>2013-09-05T12:26:13Z</time>
      </trkpt>
      <trkpt lat="44.09591" lon="7.02967">
        <ele>1587.8</ele>
        <time>2013-09-05T12:26:19Z</time>
      </trkpt>
      <trkpt lat="44.09593" lon="7.03">
        <ele>1584.4</ele>
        <time>2013-09-05T12:26:27Z</time>
      </trkpt>
      <trkpt lat="44.09596" lon="7.03014">
        <ele>1583</ele>
        <time>2013-09-05T12:26:30Z</time>
      </trkpt>
      <trkpt lat="44.09597" lon="7.03022">
        <ele>1581.5</ele>
        <time>2013-09-05T12:26:32Z</time>
      </trkpt>
      <trkpt lat="44.09595" lon="7.0304">
        <ele>1579.6</ele>
        <time>2013-09-05T12:26:36Z</time>
      </trkpt>
      <trkpt lat="44.09592" lon="7.03058">
        <ele>1577.7</ele>
        <time>2013-09-05T12:26:40Z</time>
      </trkpt>
      <trkpt lat="44.09594" lon="7.03097">
        <ele>1574.3</ele>
        <time>2013-09-05T12:26:47Z</time>
      </trkpt>
      <trkpt lat="44.09595" lon="7.03102">
        <ele>1574.3</ele>
        <time>2013-09-05T12:26:48Z</time>
      </trkpt>
      <trkpt lat="44.09597" lon="7.03128">
        <ele>1572.4</ele>
        <time>2013-09-05T12:26:53Z</time>
      </trkpt>
      <trkpt lat="44.09599" lon="7.03155">
        <ele>1568.5</ele>
        <time>2013-09-05T12:27:00Z</time>
      </trkpt>
      <trkpt lat="44.096" lon="7.03158">
        <ele>1569</ele>
        <time>2013-09-05T12:27:01Z</time>
      </trkpt>
      <trkpt lat="44.09601" lon="7.0317">
        <ele>1567.6</ele>
        <time>2013-09-05T12:27:10Z</time>
      </trkpt>
      <trkpt lat="44.09599" lon="7.03167">
        <ele>1567.6</ele>
        <time>2013-09-05T12:27:14Z</time>
      </trkpt>
      <trkpt lat="44.09599" lon="7.03165">
        <ele>1567.1</ele>
        <time>2013-09-05T12:27:15Z</time>
      </trkpt>
      <trkpt lat="44.09598" lon="7.03161">
        <ele>1566.6</ele>
        <time>2013-09-05T12:27:17Z</time>
      </trkpt>
      <trkpt lat="44.09596" lon="7.03159">
        <ele>1566.1</ele>
        <time>2013-09-05T12:27:18Z</time>
      </trkpt>
      <trkpt lat="44.09594" lon="7.03157">
        <ele>1566.1</ele>
        <time>2013-09-05T12:27:19Z</time>
      </trkpt>
      <trkpt lat="44.09592" lon="7.03154">
        <ele>1566.1</ele>
        <time>2013-09-05T12:27:20Z</time>
      </trkpt>
      <trkpt lat="44.0959" lon="7.0315">
        <ele>1565.2</ele>
        <time>2013-09-05T12:27:21Z</time>
      </trkpt>
      <trkpt lat="44.09588" lon="7.03147">
        <ele>1565.6</ele>
        <time>2013-09-05T12:27:22Z</time>
      </trkpt>
      <trkpt lat="44.09582" lon="7.03137">
        <ele>1563.7</ele>
        <time>2013-09-05T12:27:25Z</time>
      </trkpt>
      <trkpt lat="44.09579" lon="7.03131">
        <ele>1562.8</ele>
        <time>2013-09-05T12:27:27Z</time>
      </trkpt>
      <trkpt lat="44.09578" lon="7.0313">
        <ele>1563.2</ele>
        <time>2013-09-05T12:27:28Z</time>
      </trkpt>
      <trkpt lat="44.09576" lon="7.0313">
        <ele>1562.3</ele>
        <time>2013-09-05T12:27:29Z</time>
      </trkpt>
      <trkpt lat="44.09575" lon="7.03131">
        <ele>1562.3</ele>
        <time>2013-09-05T12:27:30Z</time>
      </trkpt>
      <trkpt lat="44.09574" lon="7.03133">
        <ele>1561.3</ele>
        <time>2013-09-05T12:27:31Z</time>
      </trkpt>
      <trkpt lat="44.09574" lon="7.03135">
        <ele>1560.8</ele>
        <time>2013-09-05T12:27:32Z</time>
      </trkpt>
      <trkpt lat="44.09575" lon="7.03138">
        <ele>1559.9</ele>
        <time>2013-09-05T12:27:33Z</time>
      </trkpt>
      <trkpt lat="44.09579" lon="7.03142">
        <ele>1560.4</ele>
        <time>2013-09-05T12:27:45Z</time>
      </trkpt>
      <trkpt lat="44.09579" lon="7.03146">
        <ele>1559.9</ele>
        <time>2013-09-05T12:28:24Z</time>
      </trkpt>
      <trkpt lat="44.09578" lon="7.03148">
        <ele>1559.9</ele>
        <time>2013-09-05T12:28:25Z</time>
      </trkpt>
      <trkpt lat="44.09578" lon="7.0315">
        <ele>1559.9</ele>
        <time>2013-09-05T12:28:26Z</time>
      </trkpt>
      <trkpt lat="44.09578" lon="7.03153">
        <ele>1559.9</ele>
        <time>2013-09-05T12:28:27Z</time>
      </trkpt>
      <trkpt lat="44.09578" lon="7.03156">
        <ele>1558.4</ele>
        <time>2013-09-05T12:28:28Z</time>
      </trkpt>
      <trkpt lat="44.09577" lon="7.03159">
        <ele>1558</ele>
        <time>2013-09-05T12:28:29Z</time>
      </trkpt>
      <trkpt lat="44.09577" lon="7.03161">
        <ele>1557.5</ele>
        <time>2013-09-05T12:28:30Z</time>
      </trkpt>
      <trkpt lat="44.09578" lon="7.03163">
        <ele>1557</ele>
        <time>2013-09-05T12:28:31Z</time>
      </trkpt>
      <trkpt lat="44.09578" lon="7.03165">
        <ele>1556.5</ele>
        <time>2013-09-05T12:28:32Z</time>
      </trkpt>
      <trkpt lat="44.09578" lon="7.03168">
        <ele>1556.5</ele>
        <time>2013-09-05T12:28:33Z</time>
      </trkpt>
      <trkpt lat="44.09578" lon="7.03172">
        <ele>1556.5</ele>
        <time>2013-09-05T12:28:34Z</time>
      </trkpt>
      <trkpt lat="44.09578" lon="7.03183">
        <ele>1553.2</ele>
        <time>2013-09-05T12:28:38Z</time>
      </trkpt>
      <trkpt lat="44.09578" lon="7.03186">
        <ele>1553.2</ele>
        <time>2013-09-05T12:28:39Z</time>
      </trkpt>
      <trkpt lat="44.09578" lon="7.03193">
        <ele>1551.7</ele>
        <time>2013-09-05T12:28:42Z</time>
      </trkpt>
      <trkpt lat="44.09574" lon="7.0321">
        <ele>1548.3</ele>
        <time>2013-09-05T12:28:53Z</time>
      </trkpt>
      <trkpt lat="44.09569" lon="7.03218">
        <ele>1547.9</ele>
        <time>2013-09-05T12:29:28Z</time>
      </trkpt>
      <trkpt lat="44.09567" lon="7.03211">
        <ele>1547.9</ele>
        <time>2013-09-05T12:29:56Z</time>
      </trkpt>
      <trkpt lat="44.09566" lon="7.03209">
        <ele>1547.9</ele>
        <time>2013-09-05T12:29:57Z</time>
      </trkpt>
      <trkpt lat="44.09562" lon="7.03193">
        <ele>1544.5</ele>
        <time>2013-09-05T12:30:04Z</time>
      </trkpt>
      <trkpt lat="44.09562" lon="7.03191">
        <ele>1544.5</ele>
        <time>2013-09-05T12:30:05Z</time>
      </trkpt>
      <trkpt lat="44.09561" lon="7.03188">
        <ele>1544.5</ele>
        <time>2013-09-05T12:30:06Z</time>
      </trkpt>
      <trkpt lat="44.09561" lon="7.03185">
        <ele>1544.5</ele>
        <time>2013-09-05T12:30:07Z</time>
      </trkpt>
      <trkpt lat="44.0956" lon="7.03182">
        <ele>1544</ele>
        <time>2013-09-05T12:30:08Z</time>
      </trkpt>
      <trkpt lat="44.09558" lon="7.0318">
        <ele>1543.1</ele>
        <time>2013-09-05T12:30:10Z</time>
      </trkpt>
      <trkpt lat="44.09557" lon="7.03183">
        <ele>1542.1</ele>
        <time>2013-09-05T12:30:12Z</time>
      </trkpt>
      <trkpt lat="44.09557" lon="7.0319">
        <ele>1541.6</ele>
        <time>2013-09-05T12:30:18Z</time>
      </trkpt>
      <trkpt lat="44.09557" lon="7.03192">
        <ele>1541.1</ele>
        <time>2013-09-05T12:30:19Z</time>
      </trkpt>
      <trkpt lat="44.09556" lon="7.03195">
        <ele>1541.1</ele>
        <time>2013-09-05T12:30:20Z</time>
      </trkpt>
      <trkpt lat="44.09553" lon="7.03225">
        <ele>1537.8</ele>
        <time>2013-09-05T12:30:28Z</time>
      </trkpt>
      <trkpt lat="44.09551" lon="7.03241">
        <ele>1534.9</ele>
        <time>2013-09-05T12:30:32Z</time>
      </trkpt>
      <trkpt lat="44.09551" lon="7.03245">
        <ele>1534.9</ele>
        <time>2013-09-05T12:30:33Z</time>
      </trkpt>
      <trkpt lat="44.09549" lon="7.03271">
        <ele>1531</ele>
        <time>2013-09-05T12:30:40Z</time>
      </trkpt>
      <trkpt lat="44.0955" lon="7.03297">
        <ele>1528.2</ele>
        <time>2013-09-05T12:30:47Z</time>
      </trkpt>
      <trkpt lat="44.09546" lon="7.03299">
        <ele>1526.7</ele>
        <time>2013-09-05T12:30:53Z</time>
      </trkpt>
      <trkpt lat="44.09533" lon="7.03284">
        <ele>1523.4</ele>
        <time>2013-09-05T12:31:02Z</time>
      </trkpt>
      <trkpt lat="44.09529" lon="7.03283">
        <ele>1522.4</ele>
        <time>2013-09-05T12:31:10Z</time>
      </trkpt>
      <trkpt lat="44.09531" lon="7.0329">
        <ele>1520.9</ele>
        <time>2013-09-05T12:31:22Z</time>
      </trkpt>
      <trkpt lat="44.09529" lon="7.03299">
        <ele>1520</ele>
        <time>2013-09-05T12:31:26Z</time>
      </trkpt>
      <trkpt lat="44.0953" lon="7.03302">
        <ele>1518.5</ele>
        <time>2013-09-05T12:31:27Z</time>
      </trkpt>
      <trkpt lat="44.09535" lon="7.03315">
        <ele>1515.2</ele>
        <time>2013-09-05T12:31:34Z</time>
      </trkpt>
      <trkpt lat="44.09535" lon="7.03318">
        <ele>1515.2</ele>
        <time>2013-09-05T12:31:35Z</time>
      </trkpt>
      <trkpt lat="44.09536" lon="7.03327">
        <ele>1513.3</ele>
        <time>2013-09-05T12:31:38Z</time>
      </trkpt>
      <trkpt lat="44.09537" lon="7.03331">
        <ele>1511.8</ele>
        <time>2013-09-05T12:31:41Z</time>
      </trkpt>
      <trkpt lat="44.09536" lon="7.03331">
        <ele>1510.9</ele>
        <time>2013-09-05T12:31:43Z</time>
      </trkpt>
      <trkpt lat="44.09516" lon="7.03323">
        <ele>1508.5</ele>
        <time>2013-09-05T12:31:55Z</time>
      </trkpt>
      <trkpt lat="44.09507" lon="7.0332">
        <ele>1506.5</ele>
        <time>2013-09-05T12:32:12Z</time>
      </trkpt>
      <trkpt lat="44.095" lon="7.03316">
        <ele>1504.1</ele>
        <time>2013-09-05T12:32:19Z</time>
      </trkpt>
      <trkpt lat="44.095" lon="7.03325">
        <ele>1501.7</ele>
        <time>2013-09-05T12:32:25Z</time>
      </trkpt>
      <trkpt lat="44.09509" lon="7.03342">
        <ele>1498.8</ele>
        <time>2013-09-05T12:32:31Z</time>
      </trkpt>
      <trkpt lat="44.09511" lon="7.03347">
        <ele>1497.9</ele>
        <time>2013-09-05T12:32:33Z</time>
      </trkpt>
      <trkpt lat="44.09522" lon="7.03371">
        <ele>1494.5</ele>
        <time>2013-09-05T12:32:41Z</time>
      </trkpt>
      <trkpt lat="44.09532" lon="7.03404">
        <ele>1491.1</ele>
        <time>2013-09-05T12:32:49Z</time>
      </trkpt>
      <trkpt lat="44.09536" lon="7.03423">
        <ele>1488.3</ele>
        <time>2013-09-05T12:32:55Z</time>
      </trkpt>
      <trkpt lat="44.09536" lon="7.03428">
        <ele>1486.8</ele>
        <time>2013-09-05T12:32:57Z</time>
      </trkpt>
      <trkpt lat="44.09536" lon="7.0345">
        <ele>1483</ele>
        <time>2013-09-05T12:33:07Z</time>
      </trkpt>
      <trkpt lat="44.09537" lon="7.03458">
        <ele>1481.1</ele>
        <time>2013-09-05T12:33:10Z</time>
      </trkpt>
      <trkpt lat="44.09534" lon="7.03469">
        <ele>1478.7</ele>
        <time>2013-09-05T12:33:21Z</time>
      </trkpt>
      <trkpt lat="44.09533" lon="7.03471">
        <ele>1477.2</ele>
        <time>2013-09-05T12:33:33Z</time>
      </trkpt>
      <trkpt lat="44.09531" lon="7.0349">
        <ele>1474.3</ele>
        <time>2013-09-05T12:33:39Z</time>
      </trkpt>
      <trkpt lat="44.09531" lon="7.03493">
        <ele>1474.3</ele>
        <time>2013-09-05T12:33:40Z</time>
      </trkpt>
      <trkpt lat="44.09532" lon="7.03504">
        <ele>1472.4</ele>
        <time>2013-09-05T12:33:44Z</time>
      </trkpt>
      <trkpt lat="44.09535" lon="7.03519">
        <ele>1468.1</ele>
        <time>2013-09-05T12:33:49Z</time>
      </trkpt>
      <trkpt lat="44.09535" lon="7.03523">
        <ele>1468.1</ele>
        <time>2013-09-05T12:33:50Z</time>
      </trkpt>
      <trkpt lat="44.09536" lon="7.03528">
        <ele>1467.1</ele>
        <time>2013-09-05T12:33:52Z</time>
      </trkpt>
      <trkpt lat="44.09536" lon="7.03538">
        <ele>1465.2</ele>
        <time>2013-09-05T12:33:55Z</time>
      </trkpt>
      <trkpt lat="44.09536" lon="7.03544">
        <ele>1464.2</ele>
        <time>2013-09-05T12:33:57Z</time>
      </trkpt>
      <trkpt lat="44.09537" lon="7.03549">
        <ele>1462.3</ele>
        <time>2013-09-05T12:33:59Z</time>
      </trkpt>
      <trkpt lat="44.09539" lon="7.03554">
        <ele>1461.3</ele>
        <time>2013-09-05T12:34:01Z</time>
      </trkpt>
      <trkpt lat="44.09538" lon="7.03561">
        <ele>1459.4</ele>
        <time>2013-09-05T12:34:04Z</time>
      </trkpt>
      <trkpt lat="44.09535" lon="7.03566">
        <ele>1458.5</ele>
        <time>2013-09-05T12:34:06Z</time>
      </trkpt>
      <trkpt lat="44.09534" lon="7.0357">
        <ele>1457.5</ele>
        <time>2013-09-05T12:34:07Z</time>
      </trkpt>
      <trkpt lat="44.09533" lon="7.03573">
        <ele>1457</ele>
        <time>2013-09-05T12:34:08Z</time>
      </trkpt>
      <trkpt lat="44.09531" lon="7.03576">
        <ele>1456.5</ele>
        <time>2013-09-05T12:34:09Z</time>
      </trkpt>
      <trkpt lat="44.09527" lon="7.03581">
        <ele>1455.6</ele>
        <time>2013-09-05T12:34:11Z</time>
      </trkpt>
      <trkpt lat="44.09525" lon="7.03583">
        <ele>1454.6</ele>
        <time>2013-09-05T12:34:12Z</time>
      </trkpt>
      <trkpt lat="44.09523" lon="7.03585">
        <ele>1454.1</ele>
        <time>2013-09-05T12:34:13Z</time>
      </trkpt>
      <trkpt lat="44.09522" lon="7.03588">
        <ele>1453.7</ele>
        <time>2013-09-05T12:34:14Z</time>
      </trkpt>
      <trkpt lat="44.0952" lon="7.0359">
        <ele>1452.7</ele>
        <time>2013-09-05T12:34:15Z</time>
      </trkpt>
      <trkpt lat="44.09518" lon="7.03593">
        <ele>1452.7</ele>
        <time>2013-09-05T12:34:16Z</time>
      </trkpt>
      <trkpt lat="44.09517" lon="7.03595">
        <ele>1452.2</ele>
        <time>2013-09-05T12:34:17Z</time>
      </trkpt>
      <trkpt lat="44.09516" lon="7.03598">
        <ele>1450.8</ele>
        <time>2013-09-05T12:34:18Z</time>
      </trkpt>
      <trkpt lat="44.09516" lon="7.036">
        <ele>1451.3</ele>
        <time>2013-09-05T12:34:19Z</time>
      </trkpt>
      <trkpt lat="44.09516" lon="7.03602">
        <ele>1449.8</ele>
        <time>2013-09-05T12:34:20Z</time>
      </trkpt>
      <trkpt lat="44.09515" lon="7.03604">
        <ele>1450.3</ele>
        <time>2013-09-05T12:34:21Z</time>
      </trkpt>
      <trkpt lat="44.09514" lon="7.03606">
        <ele>1449.3</ele>
        <time>2013-09-05T12:34:22Z</time>
      </trkpt>
      <trkpt lat="44.09512" lon="7.03609">
        <ele>1448.8</ele>
        <time>2013-09-05T12:34:23Z</time>
      </trkpt>
      <trkpt lat="44.0951" lon="7.0361">
        <ele>1447.4</ele>
        <time>2013-09-05T12:34:24Z</time>
      </trkpt>
      <trkpt lat="44.09508" lon="7.0361">
        <ele>1447.4</ele>
        <time>2013-09-05T12:34:25Z</time>
      </trkpt>
      <trkpt lat="44.09505" lon="7.03611">
        <ele>1446.9</ele>
        <time>2013-09-05T12:34:26Z</time>
      </trkpt>
      <trkpt lat="44.09503" lon="7.03609">
        <ele>1446</ele>
        <time>2013-09-05T12:34:27Z</time>
      </trkpt>
      <trkpt lat="44.09499" lon="7.03608">
        <ele>1444</ele>
        <time>2013-09-05T12:34:31Z</time>
      </trkpt>
      <trkpt lat="44.09499" lon="7.03612">
        <ele>1443.1</ele>
        <time>2013-09-05T12:34:42Z</time>
      </trkpt>
      <trkpt lat="44.09499" lon="7.03615">
        <ele>1444.5</ele>
        <time>2013-09-05T12:34:44Z</time>
      </trkpt>
      <trkpt lat="44.095" lon="7.03622">
        <ele>1442.6</ele>
        <time>2013-09-05T12:34:47Z</time>
      </trkpt>
      <trkpt lat="44.09498" lon="7.03622">
        <ele>1442.6</ele>
        <time>2013-09-05T12:35:04Z</time>
      </trkpt>
      <trkpt lat="44.09498" lon="7.03622">
        <ele>1442.6</ele>
        <time>2013-09-05T12:35:05Z</time>
      </trkpt>
      <trkpt lat="44.09496" lon="7.03623">
        <ele>1441.2</ele>
        <time>2013-09-05T12:35:21Z</time>
      </trkpt>
      <trkpt lat="44.09491" lon="7.03626">
        <ele>1441.6</ele>
        <time>2013-09-05T12:35:41Z</time>
      </trkpt>
      <trkpt lat="44.09488" lon="7.03626">
        <ele>1441.6</ele>
        <time>2013-09-05T12:35:54Z</time>
      </trkpt>
      <trkpt lat="44.09476" lon="7.03639">
        <ele>1438.3</ele>
        <time>2013-09-05T12:36:02Z</time>
      </trkpt>
      <trkpt lat="44.09474" lon="7.03648">
        <ele>1436.4</ele>
        <time>2013-09-05T12:36:05Z</time>
      </trkpt>
      <trkpt lat="44.09473" lon="7.03651">
        <ele>1436.4</ele>
        <time>2013-09-05T12:36:06Z</time>
      </trkpt>
      <trkpt lat="44.09471" lon="7.03662">
        <ele>1434.9</ele>
        <time>2013-09-05T12:36:09Z</time>
      </trkpt>
      <trkpt lat="44.09469" lon="7.03673">
        <ele>1433.9</ele>
        <time>2013-09-05T12:36:14Z</time>
      </trkpt>
      <trkpt lat="44.09469" lon="7.03676">
        <ele>1433</ele>
        <time>2013-09-05T12:36:15Z</time>
      </trkpt>
      <trkpt lat="44.09468" lon="7.03681">
        <ele>1432.5</ele>
        <time>2013-09-05T12:36:17Z</time>
      </trkpt>
      <trkpt lat="44.09468" lon="7.03684">
        <ele>1433</ele>
        <time>2013-09-05T12:36:18Z</time>
      </trkpt>
      <trkpt lat="44.09468" lon="7.03687">
        <ele>1432</ele>
        <time>2013-09-05T12:36:19Z</time>
      </trkpt>
      <trkpt lat="44.09466" lon="7.03697">
        <ele>1430.6</ele>
        <time>2013-09-05T12:36:23Z</time>
      </trkpt>
      <trkpt lat="44.09464" lon="7.03714">
        <ele>1428.7</ele>
        <time>2013-09-05T12:36:35Z</time>
      </trkpt>
      <trkpt lat="44.09463" lon="7.03716">
        <ele>1429.6</ele>
        <time>2013-09-05T12:36:36Z</time>
      </trkpt>
      <trkpt lat="44.09452" lon="7.03731">
        <ele>1428.2</ele>
        <time>2013-09-05T12:36:46Z</time>
      </trkpt>
      <trkpt lat="44.09437" lon="7.03746">
        <ele>1424.8</ele>
        <time>2013-09-05T12:36:53Z</time>
      </trkpt>
      <trkpt lat="44.09416" lon="7.03772">
        <ele>1422.9</ele>
        <time>2013-09-05T12:37:04Z</time>
      </trkpt>
      <trkpt lat="44.0941" lon="7.03783">
        <ele>1423.9</ele>
        <time>2013-09-05T12:37:14Z</time>
      </trkpt>
      <trkpt lat="44.09407" lon="7.03787">
        <ele>1424.8</ele>
        <time>2013-09-05T12:37:19Z</time>
      </trkpt>
      <trkpt lat="44.09397" lon="7.03793">
        <ele>1425.3</ele>
        <time>2013-09-05T12:37:25Z</time>
      </trkpt>
      <trkpt lat="44.0939" lon="7.03791">
        <ele>1425.8</ele>
        <time>2013-09-05T12:37:29Z</time>
      </trkpt>
      <trkpt lat="44.09387" lon="7.03791">
        <ele>1423.9</ele>
        <time>2013-09-05T12:37:31Z</time>
      </trkpt>
      <trkpt lat="44.09379" lon="7.03794">
        <ele>1424.3</ele>
        <time>2013-09-05T12:37:37Z</time>
      </trkpt>
      <trkpt lat="44.09379" lon="7.03804">
        <ele>1424.8</ele>
        <time>2013-09-05T12:37:48Z</time>
      </trkpt>
      <trkpt lat="44.09375" lon="7.03809">
        <ele>1424.8</ele>
        <time>2013-09-05T12:37:54Z</time>
      </trkpt>
      <trkpt lat="44.09368" lon="7.03846">
        <ele>1426.3</ele>
        <time>2013-09-05T12:38:06Z</time>
      </trkpt>
      <trkpt lat="44.09354" lon="7.03879">
        <ele>1427.2</ele>
        <time>2013-09-05T12:38:21Z</time>
      </trkpt>
      <trkpt lat="44.09349" lon="7.03887">
        <ele>1428.2</ele>
        <time>2013-09-05T12:38:25Z</time>
      </trkpt>
      <trkpt lat="44.09348" lon="7.03889">
        <ele>1428.2</ele>
        <time>2013-09-05T12:38:26Z</time>
      </trkpt>
      <trkpt lat="44.0933" lon="7.03911">
        <ele>1429.1</ele>
        <time>2013-09-05T12:38:38Z</time>
      </trkpt>
      <trkpt lat="44.09314" lon="7.0394">
        <ele>1430.1</ele>
        <time>2013-09-05T12:38:51Z</time>
      </trkpt>
      <trkpt lat="44.09303" lon="7.03968">
        <ele>1431.5</ele>
        <time>2013-09-05T12:39:04Z</time>
      </trkpt>
      <trkpt lat="44.09295" lon="7.03988">
        <ele>1432</ele>
        <time>2013-09-05T12:39:15Z</time>
      </trkpt>
      <trkpt lat="44.09295" lon="7.0399">
        <ele>1432.5</ele>
        <time>2013-09-05T12:39:16Z</time>
      </trkpt>
      <trkpt lat="44.09295" lon="7.03992">
        <ele>1433</ele>
        <time>2013-09-05T12:39:17Z</time>
      </trkpt>
      <trkpt lat="44.09294" lon="7.03994">
        <ele>1433</ele>
        <time>2013-09-05T12:39:18Z</time>
      </trkpt>
      <trkpt lat="44.09294" lon="7.03997">
        <ele>1433</ele>
        <time>2013-09-05T12:39:19Z</time>
      </trkpt>
      <trkpt lat="44.09295" lon="7.04004">
        <ele>1433</ele>
        <time>2013-09-05T12:39:22Z</time>
      </trkpt>
      <trkpt lat="44.09295" lon="7.04007">
        <ele>1433.9</ele>
        <time>2013-09-05T12:39:23Z</time>
      </trkpt>
      <trkpt lat="44.09295" lon="7.0401">
        <ele>1433.5</ele>
        <time>2013-09-05T12:39:24Z</time>
      </trkpt>
      <trkpt lat="44.09295" lon="7.04012">
        <ele>1433</ele>
        <time>2013-09-05T12:39:25Z</time>
      </trkpt>
      <trkpt lat="44.09295" lon="7.04014">
        <ele>1433.5</ele>
        <time>2013-09-05T12:39:26Z</time>
      </trkpt>
      <trkpt lat="44.09294" lon="7.04016">
        <ele>1433.5</ele>
        <time>2013-09-05T12:39:27Z</time>
      </trkpt>
      <trkpt lat="44.09294" lon="7.04019">
        <ele>1433.5</ele>
        <time>2013-09-05T12:39:28Z</time>
      </trkpt>
      <trkpt lat="44.09294" lon="7.04023">
        <ele>1433.5</ele>
        <time>2013-09-05T12:39:29Z</time>
      </trkpt>
      <trkpt lat="44.09294" lon="7.04063">
        <ele>1434.4</ele>
        <time>2013-09-05T12:39:43Z</time>
      </trkpt>
      <trkpt lat="44.09291" lon="7.04111">
        <ele>1433.9</ele>
        <time>2013-09-05T12:39:56Z</time>
      </trkpt>
      <trkpt lat="44.09288" lon="7.04148">
        <ele>1436.4</ele>
        <time>2013-09-05T12:40:10Z</time>
      </trkpt>
      <trkpt lat="44.09284" lon="7.0418">
        <ele>1435.9</ele>
        <time>2013-09-05T12:40:23Z</time>
      </trkpt>
      <trkpt lat="44.09284" lon="7.04193">
        <ele>1435.9</ele>
        <time>2013-09-05T12:40:27Z</time>
      </trkpt>
      <trkpt lat="44.09283" lon="7.04195">
        <ele>1436.4</ele>
        <time>2013-09-05T12:40:28Z</time>
      </trkpt>
      <trkpt lat="44.09283" lon="7.04198">
        <ele>1436.4</ele>
        <time>2013-09-05T12:40:29Z</time>
      </trkpt>
      <trkpt lat="44.09283" lon="7.04201">
        <ele>1436.4</ele>
        <time>2013-09-05T12:40:30Z</time>
      </trkpt>
      <trkpt lat="44.09283" lon="7.04204">
        <ele>1435.9</ele>
        <time>2013-09-05T12:40:31Z</time>
      </trkpt>
      <trkpt lat="44.0929" lon="7.0425">
        <ele>1433.5</ele>
        <time>2013-09-05T12:40:44Z</time>
      </trkpt>
      <trkpt lat="44.09291" lon="7.04267">
        <ele>1433</ele>
        <time>2013-09-05T12:40:54Z</time>
      </trkpt>
      <trkpt lat="44.09285" lon="7.04289">
        <ele>1431.1</ele>
        <time>2013-09-05T12:41:15Z</time>
      </trkpt>
      <trkpt lat="44.09282" lon="7.04316">
        <ele>1430.1</ele>
        <time>2013-09-05T12:41:26Z</time>
      </trkpt>
      <trkpt lat="44.09282" lon="7.0432">
        <ele>1429.6</ele>
        <time>2013-09-05T12:41:37Z</time>
      </trkpt>
      <trkpt lat="44.09282" lon="7.04322">
        <ele>1429.6</ele>
        <time>2013-09-05T12:41:38Z</time>
      </trkpt>
      <trkpt lat="44.09281" lon="7.04324">
        <ele>1429.6</ele>
        <time>2013-09-05T12:41:39Z</time>
      </trkpt>
      <trkpt lat="44.0928" lon="7.04326">
        <ele>1429.1</ele>
        <time>2013-09-05T12:41:40Z</time>
      </trkpt>
      <trkpt lat="44.0928" lon="7.04329">
        <ele>1429.1</ele>
        <time>2013-09-05T12:41:41Z</time>
      </trkpt>
      <trkpt lat="44.0928" lon="7.0436">
        <ele>1429.6</ele>
        <time>2013-09-05T12:41:54Z</time>
      </trkpt>
      <trkpt lat="44.09278" lon="7.04403">
        <ele>1428.2</ele>
        <time>2013-09-05T12:42:05Z</time>
      </trkpt>
      <trkpt lat="44.09271" lon="7.04419">
        <ele>1426.7</ele>
        <time>2013-09-05T12:42:08Z</time>
      </trkpt>
      <trkpt lat="44.09266" lon="7.04429">
        <ele>1425.3</ele>
        <time>2013-09-05T12:42:10Z</time>
      </trkpt>
      <trkpt lat="44.09263" lon="7.04434">
        <ele>1424.3</ele>
        <time>2013-09-05T12:42:11Z</time>
      </trkpt>
      <trkpt lat="44.09261" lon="7.0444">
        <ele>1424.3</ele>
        <time>2013-09-05T12:42:12Z</time>
      </trkpt>
      <trkpt lat="44.09252" lon="7.04467">
        <ele>1421</ele>
        <time>2013-09-05T12:42:18Z</time>
      </trkpt>
      <trkpt lat="44.09252" lon="7.04508">
        <ele>1417.6</ele>
        <time>2013-09-05T12:42:28Z</time>
      </trkpt>
      <trkpt lat="44.09249" lon="7.04559">
        <ele>1416.2</ele>
        <time>2013-09-05T12:42:39Z</time>
      </trkpt>
      <trkpt lat="44.09247" lon="7.04574">
        <ele>1414.7</ele>
        <time>2013-09-05T12:42:48Z</time>
      </trkpt>
      <trkpt lat="44.09247" lon="7.04573">
        <ele>1413.8</ele>
        <time>2013-09-05T12:43:25Z</time>
      </trkpt>
      <trkpt lat="44.09249" lon="7.04574">
        <ele>1413.8</ele>
        <time>2013-09-05T12:44:03Z</time>
      </trkpt>
      <trkpt lat="44.09246" lon="7.04579">
        <ele>1413.3</ele>
        <time>2013-09-05T12:44:29Z</time>
      </trkpt>
      <trkpt lat="44.09248" lon="7.04605">
        <ele>1410.4</ele>
        <time>2013-09-05T12:44:40Z</time>
      </trkpt>
      <trkpt lat="44.09249" lon="7.04612">
        <ele>1409.4</ele>
        <time>2013-09-05T12:44:42Z</time>
      </trkpt>
      <trkpt lat="44.0925" lon="7.04614">
        <ele>1408.5</ele>
        <time>2013-09-05T12:44:44Z</time>
      </trkpt>
      <trkpt lat="44.09248" lon="7.04616">
        <ele>1408</ele>
        <time>2013-09-05T12:44:57Z</time>
      </trkpt>
      <trkpt lat="44.09243" lon="7.04642">
        <ele>1404.6</ele>
        <time>2013-09-05T12:45:04Z</time>
      </trkpt>
      <trkpt lat="44.09241" lon="7.04645">
        <ele>1404.6</ele>
        <time>2013-09-05T12:45:05Z</time>
      </trkpt>
      <trkpt lat="44.09235" lon="7.04661">
        <ele>1402.2</ele>
        <time>2013-09-05T12:45:10Z</time>
      </trkpt>
      <trkpt lat="44.09229" lon="7.04681">
        <ele>1398.4</ele>
        <time>2013-09-05T12:45:15Z</time>
      </trkpt>
      <trkpt lat="44.09228" lon="7.04685">
        <ele>1398.4</ele>
        <time>2013-09-05T12:45:16Z</time>
      </trkpt>
      <trkpt lat="44.09228" lon="7.04695">
        <ele>1396.5</ele>
        <time>2013-09-05T12:45:21Z</time>
      </trkpt>
      <trkpt lat="44.09228" lon="7.04697">
        <ele>1396</ele>
        <time>2013-09-05T12:45:22Z</time>
      </trkpt>
      <trkpt lat="44.09227" lon="7.04699">
        <ele>1395.5</ele>
        <time>2013-09-05T12:45:23Z</time>
      </trkpt>
      <trkpt lat="44.09227" lon="7.04703">
        <ele>1395</ele>
        <time>2013-09-05T12:45:24Z</time>
      </trkpt>
      <trkpt lat="44.09226" lon="7.04706">
        <ele>1394.1</ele>
        <time>2013-09-05T12:45:25Z</time>
      </trkpt>
      <trkpt lat="44.09224" lon="7.0471">
        <ele>1394.1</ele>
        <time>2013-09-05T12:45:26Z</time>
      </trkpt>
      <trkpt lat="44.09223" lon="7.04714">
        <ele>1394.1</ele>
        <time>2013-09-05T12:45:27Z</time>
      </trkpt>
      <trkpt lat="44.09222" lon="7.04718">
        <ele>1393.1</ele>
        <time>2013-09-05T12:45:28Z</time>
      </trkpt>
      <trkpt lat="44.09222" lon="7.04722">
        <ele>1392.1</ele>
        <time>2013-09-05T12:45:29Z</time>
      </trkpt>
      <trkpt lat="44.09222" lon="7.04726">
        <ele>1391.7</ele>
        <time>2013-09-05T12:45:30Z</time>
      </trkpt>
      <trkpt lat="44.0923" lon="7.04767">
        <ele>1390.7</ele>
        <time>2013-09-05T12:45:40Z</time>
      </trkpt>
      <trkpt lat="44.09232" lon="7.04775">
        <ele>1391.7</ele>
        <time>2013-09-05T12:45:50Z</time>
      </trkpt>
      <trkpt lat="44.09233" lon="7.0478">
        <ele>1391.2</ele>
        <time>2013-09-05T12:46:11Z</time>
      </trkpt>
      <trkpt lat="44.09241" lon="7.0481">
        <ele>1389.7</ele>
        <time>2013-09-05T12:46:24Z</time>
      </trkpt>
      <trkpt lat="44.09245" lon="7.04822">
        <ele>1389.7</ele>
        <time>2013-09-05T12:46:33Z</time>
      </trkpt>
      <trkpt lat="44.09248" lon="7.04829">
        <ele>1389.7</ele>
        <time>2013-09-05T12:46:42Z</time>
      </trkpt>
      <trkpt lat="44.09249" lon="7.04841">
        <ele>1389.2</ele>
        <time>2013-09-05T12:46:53Z</time>
      </trkpt>
      <trkpt lat="44.09249" lon="7.04861">
        <ele>1386.8</ele>
        <time>2013-09-05T12:47:07Z</time>
      </trkpt>
      <trkpt lat="44.09247" lon="7.04873">
        <ele>1385.4</ele>
        <time>2013-09-05T12:47:15Z</time>
      </trkpt>
      <trkpt lat="44.09241" lon="7.04877">
        <ele>1384</ele>
        <time>2013-09-05T12:47:31Z</time>
      </trkpt>
      <trkpt lat="44.09239" lon="7.0488">
        <ele>1384</ele>
        <time>2013-09-05T12:47:49Z</time>
      </trkpt>
      <trkpt lat="44.0924" lon="7.049">
        <ele>1382</ele>
        <time>2013-09-05T12:48:06Z</time>
      </trkpt>
      <trkpt lat="44.09243" lon="7.04905">
        <ele>1381.6</ele>
        <time>2013-09-05T12:48:12Z</time>
      </trkpt>
      <trkpt lat="44.09249" lon="7.04917">
        <ele>1380.6</ele>
        <time>2013-09-05T12:48:27Z</time>
      </trkpt>
      <trkpt lat="44.09254" lon="7.04926">
        <ele>1380.1</ele>
        <time>2013-09-05T12:48:44Z</time>
      </trkpt>
      <trkpt lat="44.09258" lon="7.04932">
        <ele>1378.2</ele>
        <time>2013-09-05T12:49:02Z</time>
      </trkpt>
      <trkpt lat="44.09255" lon="7.04944">
        <ele>1376.3</ele>
        <time>2013-09-05T12:49:22Z</time>
      </trkpt>
      <trkpt lat="44.09255" lon="7.04949">
        <ele>1374.8</ele>
        <time>2013-09-05T12:49:33Z</time>
      </trkpt>
      <trkpt lat="44.09252" lon="7.04955">
        <ele>1371.5</ele>
        <time>2013-09-05T12:49:51Z</time>
      </trkpt>
      <trkpt lat="44.09255" lon="7.04977">
        <ele>1368.6</ele>
        <time>2013-09-05T12:50:09Z</time>
      </trkpt>
      <trkpt lat="44.09247" lon="7.04993">
        <ele>1364.7</ele>
        <time>2013-09-05T12:50:25Z</time>
      </trkpt>
      <trkpt lat="44.09251" lon="7.05">
        <ele>1363.8</ele>
        <time>2013-09-05T12:50:39Z</time>
      </trkpt>
      <trkpt lat="44.09253" lon="7.05006">
        <ele>1362.8</ele>
        <time>2013-09-05T12:50:47Z</time>
      </trkpt>
      <trkpt lat="44.09256" lon="7.05012">
        <ele>1360.9</ele>
        <time>2013-09-05T12:50:59Z</time>
      </trkpt>
      <trkpt lat="44.09255" lon="7.05016">
        <ele>1360.4</ele>
        <time>2013-09-05T12:51:14Z</time>
      </trkpt>
      <trkpt lat="44.09257" lon="7.05024">
        <ele>1357</ele>
        <time>2013-09-05T12:51:30Z</time>
      </trkpt>
      <trkpt lat="44.09273" lon="7.05034">
        <ele>1355.1</ele>
        <time>2013-09-05T12:51:44Z</time>
      </trkpt>
      <trkpt lat="44.09281" lon="7.05042">
        <ele>1352.7</ele>
        <time>2013-09-05T12:51:56Z</time>
      </trkpt>
      <trkpt lat="44.09281" lon="7.05044">
        <ele>1352.7</ele>
        <time>2013-09-05T12:51:57Z</time>
      </trkpt>
      <trkpt lat="44.09282" lon="7.05052">
        <ele>1351.3</ele>
        <time>2013-09-05T12:52:03Z</time>
      </trkpt>
      <trkpt lat="44.09284" lon="7.0506">
        <ele>1349.4</ele>
        <time>2013-09-05T12:52:18Z</time>
      </trkpt>
      <trkpt lat="44.09274" lon="7.05059">
        <ele>1348.4</ele>
        <time>2013-09-05T12:52:32Z</time>
      </trkpt>
      <trkpt lat="44.09273" lon="7.05059">
        <ele>1347.9</ele>
        <time>2013-09-05T12:52:45Z</time>
      </trkpt>
      <trkpt lat="44.09273" lon="7.05059">
        <ele>1345.5</ele>
        <time>2013-09-05T12:52:47Z</time>
      </trkpt>
      <trkpt lat="44.09273" lon="7.0506">
        <ele>1362.3</ele>
        <time>2013-09-05T13:26:06Z</time>
      </trkpt>
      <trkpt lat="44.09276" lon="7.05065">
        <ele>1361.8</ele>
        <time>2013-09-05T13:26:07Z</time>
      </trkpt>
      <trkpt lat="44.09278" lon="7.05061">
        <ele>1360.9</ele>
        <time>2013-09-05T13:26:13Z</time>
      </trkpt>
      <trkpt lat="44.09278" lon="7.0506">
        <ele>1358</ele>
        <time>2013-09-05T13:26:15Z</time>
      </trkpt>
      <trkpt lat="44.09278" lon="7.05059">
        <ele>1358</ele>
        <time>2013-09-05T13:26:16Z</time>
      </trkpt>
      <trkpt lat="44.09277" lon="7.05059">
        <ele>1355.1</ele>
        <time>2013-09-05T13:26:20Z</time>
      </trkpt>
      <trkpt lat="44.09277" lon="7.05059">
        <ele>1351.3</ele>
        <time>2013-09-05T13:26:23Z</time>
      </trkpt>
      <trkpt lat="44.09275" lon="7.05059">
        <ele>1349.8</ele>
        <time>2013-09-05T13:26:26Z</time>
      </trkpt>
      <trkpt lat="44.09279" lon="7.05062">
        <ele>1346.5</ele>
        <time>2013-09-05T13:26:34Z</time>
      </trkpt>
      <trkpt lat="44.09281" lon="7.05062">
        <ele>1343.1</ele>
        <time>2013-09-05T13:26:42Z</time>
      </trkpt>
      <trkpt lat="44.0928" lon="7.05062">
        <ele>1340.7</ele>
        <time>2013-09-05T13:26:49Z</time>
      </trkpt>
      <trkpt lat="44.09279" lon="7.05062">
        <ele>1338.8</ele>
        <time>2013-09-05T13:26:53Z</time>
      </trkpt>
      <trkpt lat="44.09274" lon="7.05057">
        <ele>1335.4</ele>
        <time>2013-09-05T13:27:12Z</time>
      </trkpt>
      <trkpt lat="44.09276" lon="7.05059">
        <ele>1333</ele>
        <time>2013-09-05T13:27:39Z</time>
      </trkpt>
      <trkpt lat="44.09276" lon="7.05058">
        <ele>1332.5</ele>
        <time>2013-09-05T13:27:42Z</time>
      </trkpt>
      <trkpt lat="44.09271" lon="7.05055">
        <ele>1333</ele>
        <time>2013-09-05T13:27:55Z</time>
      </trkpt>
      <trkpt lat="44.09269" lon="7.05054">
        <ele>1332.5</ele>
        <time>2013-09-05T13:28:18Z</time>
      </trkpt>
      <trkpt lat="44.0927" lon="7.05057">
        <ele>1332.5</ele>
        <time>2013-09-05T13:28:47Z</time>
      </trkpt>
      <trkpt lat="44.0927" lon="7.05057">
        <ele>1332.5</ele>
        <time>2013-09-05T13:29:15Z</time>
      </trkpt>
      <trkpt lat="44.09255" lon="7.05043">
        <ele>1333</ele>
        <time>2013-09-05T13:29:29Z</time>
      </trkpt>
      <trkpt lat="44.09224" lon="7.0501">
        <ele>1330.1</ele>
        <time>2013-09-05T13:29:39Z</time>
      </trkpt>
      <trkpt lat="44.09218" lon="7.05">
        <ele>1329.2</ele>
        <time>2013-09-05T13:29:41Z</time>
      </trkpt>
      <trkpt lat="44.09215" lon="7.04994">
        <ele>1329.2</ele>
        <time>2013-09-05T13:29:42Z</time>
      </trkpt>
      <trkpt lat="44.09213" lon="7.04988">
        <ele>1328.2</ele>
        <time>2013-09-05T13:29:43Z</time>
      </trkpt>
      <trkpt lat="44.0921" lon="7.04981">
        <ele>1327.7</ele>
        <time>2013-09-05T13:29:44Z</time>
      </trkpt>
      <trkpt lat="44.09195" lon="7.04937">
        <ele>1325.3</ele>
        <time>2013-09-05T13:29:50Z</time>
      </trkpt>
      <trkpt lat="44.09185" lon="7.04912">
        <ele>1323.9</ele>
        <time>2013-09-05T13:29:54Z</time>
      </trkpt>
      <trkpt lat="44.09163" lon="7.04854">
        <ele>1320</ele>
        <time>2013-09-05T13:30:02Z</time>
      </trkpt>
      <trkpt lat="44.09145" lon="7.04798">
        <ele>1316.7</ele>
        <time>2013-09-05T13:30:08Z</time>
      </trkpt>
      <trkpt lat="44.09141" lon="7.04789">
        <ele>1316.7</ele>
        <time>2013-09-05T13:30:09Z</time>
      </trkpt>
      <trkpt lat="44.09128" lon="7.0475">
        <ele>1313.8</ele>
        <time>2013-09-05T13:30:13Z</time>
      </trkpt>
      <trkpt lat="44.09115" lon="7.04701">
        <ele>1310.9</ele>
        <time>2013-09-05T13:30:18Z</time>
      </trkpt>
      <trkpt lat="44.09112" lon="7.04693">
        <ele>1310.4</ele>
        <time>2013-09-05T13:30:19Z</time>
      </trkpt>
      <trkpt lat="44.09099" lon="7.04648">
        <ele>1308</ele>
        <time>2013-09-05T13:30:24Z</time>
      </trkpt>
      <trkpt lat="44.09095" lon="7.04629">
        <ele>1306.6</ele>
        <time>2013-09-05T13:30:26Z</time>
      </trkpt>
      <trkpt lat="44.09092" lon="7.0459">
        <ele>1304.7</ele>
        <time>2013-09-05T13:30:30Z</time>
      </trkpt>
      <trkpt lat="44.09093" lon="7.04582">
        <ele>1304.7</ele>
        <time>2013-09-05T13:30:31Z</time>
      </trkpt>
      <trkpt lat="44.09095" lon="7.04574">
        <ele>1303.7</ele>
        <time>2013-09-05T13:30:32Z</time>
      </trkpt>
      <trkpt lat="44.09098" lon="7.04561">
        <ele>1303.2</ele>
        <time>2013-09-05T13:30:34Z</time>
      </trkpt>
      <trkpt lat="44.09098" lon="7.04555">
        <ele>1302.7</ele>
        <time>2013-09-05T13:30:35Z</time>
      </trkpt>
      <trkpt lat="44.09096" lon="7.04552">
        <ele>1302.2</ele>
        <time>2013-09-05T13:30:36Z</time>
      </trkpt>
      <trkpt lat="44.09091" lon="7.04553">
        <ele>1301.8</ele>
        <time>2013-09-05T13:30:37Z</time>
      </trkpt>
      <trkpt lat="44.09087" lon="7.04559">
        <ele>1301.3</ele>
        <time>2013-09-05T13:30:38Z</time>
      </trkpt>
      <trkpt lat="44.09085" lon="7.04567">
        <ele>1300.8</ele>
        <time>2013-09-05T13:30:39Z</time>
      </trkpt>
      <trkpt lat="44.09085" lon="7.04576">
        <ele>1300.8</ele>
        <time>2013-09-05T13:30:40Z</time>
      </trkpt>
      <trkpt lat="44.09085" lon="7.04585">
        <ele>1299.8</ele>
        <time>2013-09-05T13:30:41Z</time>
      </trkpt>
      <trkpt lat="44.09085" lon="7.04594">
        <ele>1299.8</ele>
        <time>2013-09-05T13:30:42Z</time>
      </trkpt>
      <trkpt lat="44.09085" lon="7.04613">
        <ele>1299.4</ele>
        <time>2013-09-05T13:30:44Z</time>
      </trkpt>
      <trkpt lat="44.09084" lon="7.04629">
        <ele>1298.4</ele>
        <time>2013-09-05T13:30:46Z</time>
      </trkpt>
      <trkpt lat="44.09081" lon="7.04693">
        <ele>1295</ele>
        <time>2013-09-05T13:30:53Z</time>
      </trkpt>
      <trkpt lat="44.09079" lon="7.04741">
        <ele>1291.7</ele>
        <time>2013-09-05T13:30:57Z</time>
      </trkpt>
      <trkpt lat="44.09079" lon="7.04754">
        <ele>1291.7</ele>
        <time>2013-09-05T13:30:58Z</time>
      </trkpt>
      <trkpt lat="44.09078" lon="7.0478">
        <ele>1289.8</ele>
        <time>2013-09-05T13:31:00Z</time>
      </trkpt>
      <trkpt lat="44.09079" lon="7.04792">
        <ele>1289.3</ele>
        <time>2013-09-05T13:31:01Z</time>
      </trkpt>
      <trkpt lat="44.09081" lon="7.04805">
        <ele>1288.8</ele>
        <time>2013-09-05T13:31:02Z</time>
      </trkpt>
      <trkpt lat="44.09089" lon="7.04858">
        <ele>1285.4</ele>
        <time>2013-09-05T13:31:06Z</time>
      </trkpt>
      <trkpt lat="44.09098" lon="7.04909">
        <ele>1282.5</ele>
        <time>2013-09-05T13:31:10Z</time>
      </trkpt>
      <trkpt lat="44.0911" lon="7.04959">
        <ele>1278.7</ele>
        <time>2013-09-05T13:31:14Z</time>
      </trkpt>
      <trkpt lat="44.09128" lon="7.05013">
        <ele>1275.8</ele>
        <time>2013-09-05T13:31:19Z</time>
      </trkpt>
      <trkpt lat="44.09144" lon="7.05049">
        <ele>1272.9</ele>
        <time>2013-09-05T13:31:23Z</time>
      </trkpt>
      <trkpt lat="44.09147" lon="7.05059">
        <ele>1272.9</ele>
        <time>2013-09-05T13:31:24Z</time>
      </trkpt>
      <trkpt lat="44.09151" lon="7.05067">
        <ele>1271.5</ele>
        <time>2013-09-05T13:31:25Z</time>
      </trkpt>
      <trkpt lat="44.09156" lon="7.05073">
        <ele>1271.5</ele>
        <time>2013-09-05T13:31:26Z</time>
      </trkpt>
      <trkpt lat="44.09163" lon="7.05078">
        <ele>1270.5</ele>
        <time>2013-09-05T13:31:27Z</time>
      </trkpt>
      <trkpt lat="44.09171" lon="7.05083">
        <ele>1270</ele>
        <time>2013-09-05T13:31:28Z</time>
      </trkpt>
      <trkpt lat="44.09179" lon="7.05088">
        <ele>1269.6</ele>
        <time>2013-09-05T13:31:29Z</time>
      </trkpt>
      <trkpt lat="44.09215" lon="7.05122">
        <ele>1266.2</ele>
        <time>2013-09-05T13:31:34Z</time>
      </trkpt>
      <trkpt lat="44.0922" lon="7.05131">
        <ele>1265.2</ele>
        <time>2013-09-05T13:31:35Z</time>
      </trkpt>
      <trkpt lat="44.09224" lon="7.05143">
        <ele>1264.8</ele>
        <time>2013-09-05T13:31:36Z</time>
      </trkpt>
      <trkpt lat="44.09226" lon="7.05155">
        <ele>1263.8</ele>
        <time>2013-09-05T13:31:37Z</time>
      </trkpt>
      <trkpt lat="44.09228" lon="7.05167">
        <ele>1263.8</ele>
        <time>2013-09-05T13:31:38Z</time>
      </trkpt>
      <trkpt lat="44.09232" lon="7.05206">
        <ele>1261.9</ele>
        <time>2013-09-05T13:31:41Z</time>
      </trkpt>
      <trkpt lat="44.09234" lon="7.05218">
        <ele>1260.9</ele>
        <time>2013-09-05T13:31:42Z</time>
      </trkpt>
      <trkpt lat="44.09237" lon="7.05229">
        <ele>1259.9</ele>
        <time>2013-09-05T13:31:43Z</time>
      </trkpt>
      <trkpt lat="44.09242" lon="7.05239">
        <ele>1259.5</ele>
        <time>2013-09-05T13:31:44Z</time>
      </trkpt>
      <trkpt lat="44.09265" lon="7.05277">
        <ele>1256.6</ele>
        <time>2013-09-05T13:31:48Z</time>
      </trkpt>
      <trkpt lat="44.09271" lon="7.05284">
        <ele>1255.1</ele>
        <time>2013-09-05T13:31:49Z</time>
      </trkpt>
      <trkpt lat="44.09277" lon="7.05289">
        <ele>1254.2</ele>
        <time>2013-09-05T13:31:50Z</time>
      </trkpt>
      <trkpt lat="44.09283" lon="7.05293">
        <ele>1254.2</ele>
        <time>2013-09-05T13:31:51Z</time>
      </trkpt>
      <trkpt lat="44.09292" lon="7.05301">
        <ele>1252.7</ele>
        <time>2013-09-05T13:31:53Z</time>
      </trkpt>
      <trkpt lat="44.09295" lon="7.05306">
        <ele>1252.7</ele>
        <time>2013-09-05T13:31:54Z</time>
      </trkpt>
      <trkpt lat="44.09295" lon="7.0531">
        <ele>1251.8</ele>
        <time>2013-09-05T13:31:55Z</time>
      </trkpt>
      <trkpt lat="44.09292" lon="7.05312">
        <ele>1252.3</ele>
        <time>2013-09-05T13:31:56Z</time>
      </trkpt>
      <trkpt lat="44.09289" lon="7.0531">
        <ele>1251.8</ele>
        <time>2013-09-05T13:31:57Z</time>
      </trkpt>
      <trkpt lat="44.09286" lon="7.05307">
        <ele>1251.3</ele>
        <time>2013-09-05T13:31:58Z</time>
      </trkpt>
      <trkpt lat="44.09283" lon="7.05304">
        <ele>1251.3</ele>
        <time>2013-09-05T13:31:59Z</time>
      </trkpt>
      <trkpt lat="44.09279" lon="7.053">
        <ele>1251.3</ele>
        <time>2013-09-05T13:32:00Z</time>
      </trkpt>
      <trkpt lat="44.09276" lon="7.05297">
        <ele>1250.3</ele>
        <time>2013-09-05T13:32:01Z</time>
      </trkpt>
      <trkpt lat="44.09272" lon="7.05294">
        <ele>1249.9</ele>
        <time>2013-09-05T13:32:02Z</time>
      </trkpt>
      <trkpt lat="44.09255" lon="7.0528">
        <ele>1249.4</ele>
        <time>2013-09-05T13:32:06Z</time>
      </trkpt>
      <trkpt lat="44.09222" lon="7.05246">
        <ele>1247</ele>
        <time>2013-09-05T13:32:14Z</time>
      </trkpt>
      <trkpt lat="44.09209" lon="7.05223">
        <ele>1245.5</ele>
        <time>2013-09-05T13:32:18Z</time>
      </trkpt>
      <trkpt lat="44.09207" lon="7.05216">
        <ele>1245</ele>
        <time>2013-09-05T13:32:19Z</time>
      </trkpt>
      <trkpt lat="44.09198" lon="7.05172">
        <ele>1242.6</ele>
        <time>2013-09-05T13:32:24Z</time>
      </trkpt>
      <trkpt lat="44.09194" lon="7.05163">
        <ele>1242.6</ele>
        <time>2013-09-05T13:32:25Z</time>
      </trkpt>
      <trkpt lat="44.09188" lon="7.05155">
        <ele>1241.7</ele>
        <time>2013-09-05T13:32:26Z</time>
      </trkpt>
      <trkpt lat="44.09181" lon="7.05149">
        <ele>1241.2</ele>
        <time>2013-09-05T13:32:27Z</time>
      </trkpt>
      <trkpt lat="44.09173" lon="7.05144">
        <ele>1241.2</ele>
        <time>2013-09-05T13:32:28Z</time>
      </trkpt>
      <trkpt lat="44.09141" lon="7.05124">
        <ele>1237.8</ele>
        <time>2013-09-05T13:32:32Z</time>
      </trkpt>
      <trkpt lat="44.09126" lon="7.05111">
        <ele>1237.4</ele>
        <time>2013-09-05T13:32:34Z</time>
      </trkpt>
      <trkpt lat="44.0912" lon="7.05102">
        <ele>1236.4</ele>
        <time>2013-09-05T13:32:35Z</time>
      </trkpt>
      <trkpt lat="44.09114" lon="7.05092">
        <ele>1235.4</ele>
        <time>2013-09-05T13:32:36Z</time>
      </trkpt>
      <trkpt lat="44.09106" lon="7.05085">
        <ele>1234.5</ele>
        <time>2013-09-05T13:32:37Z</time>
      </trkpt>
      <trkpt lat="44.09097" lon="7.05079">
        <ele>1233.5</ele>
        <time>2013-09-05T13:32:38Z</time>
      </trkpt>
      <trkpt lat="44.09088" lon="7.05074">
        <ele>1233.5</ele>
        <time>2013-09-05T13:32:39Z</time>
      </trkpt>
      <trkpt lat="44.09071" lon="7.05065">
        <ele>1232.1</ele>
        <time>2013-09-05T13:32:41Z</time>
      </trkpt>
      <trkpt lat="44.09061" lon="7.05063">
        <ele>1231.1</ele>
        <time>2013-09-05T13:32:42Z</time>
      </trkpt>
      <trkpt lat="44.09053" lon="7.05064">
        <ele>1230.1</ele>
        <time>2013-09-05T13:32:43Z</time>
      </trkpt>
      <trkpt lat="44.09045" lon="7.05068">
        <ele>1229.7</ele>
        <time>2013-09-05T13:32:44Z</time>
      </trkpt>
      <trkpt lat="44.0904" lon="7.05076">
        <ele>1229.7</ele>
        <time>2013-09-05T13:32:45Z</time>
      </trkpt>
      <trkpt lat="44.09037" lon="7.05086">
        <ele>1229.2</ele>
        <time>2013-09-05T13:32:46Z</time>
      </trkpt>
      <trkpt lat="44.09038" lon="7.05096">
        <ele>1229.2</ele>
        <time>2013-09-05T13:32:47Z</time>
      </trkpt>
      <trkpt lat="44.09041" lon="7.05105">
        <ele>1228.7</ele>
        <time>2013-09-05T13:32:48Z</time>
      </trkpt>
      <trkpt lat="44.09044" lon="7.05112">
        <ele>1228.2</ele>
        <time>2013-09-05T13:32:49Z</time>
      </trkpt>
      <trkpt lat="44.09048" lon="7.05118">
        <ele>1228.2</ele>
        <time>2013-09-05T13:32:50Z</time>
      </trkpt>
      <trkpt lat="44.09051" lon="7.05124">
        <ele>1227.7</ele>
        <time>2013-09-05T13:32:51Z</time>
      </trkpt>
      <trkpt lat="44.09061" lon="7.05143">
        <ele>1225.3</ele>
        <time>2013-09-05T13:32:56Z</time>
      </trkpt>
      <trkpt lat="44.09061" lon="7.05143">
        <ele>1225.3</ele>
        <time>2013-09-05T13:32:57Z</time>
      </trkpt>
      <trkpt lat="44.09066" lon="7.05144">
        <ele>1225.8</ele>
        <time>2013-09-05T13:33:20Z</time>
      </trkpt>
      <trkpt lat="44.0906" lon="7.05147">
        <ele>1225.3</ele>
        <time>2013-09-05T13:33:47Z</time>
      </trkpt>
      <trkpt lat="44.09064" lon="7.05146">
        <ele>1225.8</ele>
        <time>2013-09-05T13:34:19Z</time>
      </trkpt>
      <trkpt lat="44.09064" lon="7.05147">
        <ele>1225.8</ele>
        <time>2013-09-05T13:34:39Z</time>
      </trkpt>
      <trkpt lat="44.09067" lon="7.05158">
        <ele>1226.3</ele>
        <time>2013-09-05T13:35:03Z</time>
      </trkpt>
      <trkpt lat="44.09069" lon="7.05168">
        <ele>1225.8</ele>
        <time>2013-09-05T13:35:05Z</time>
      </trkpt>
      <trkpt lat="44.09069" lon="7.05176">
        <ele>1225.3</ele>
        <time>2013-09-05T13:35:06Z</time>
      </trkpt>
      <trkpt lat="44.09068" lon="7.05185">
        <ele>1224.4</ele>
        <time>2013-09-05T13:35:07Z</time>
      </trkpt>
      <trkpt lat="44.09067" lon="7.05193">
        <ele>1223.9</ele>
        <time>2013-09-05T13:35:08Z</time>
      </trkpt>
      <trkpt lat="44.09065" lon="7.05202">
        <ele>1224.4</ele>
        <time>2013-09-05T13:35:09Z</time>
      </trkpt>
      <trkpt lat="44.09064" lon="7.0521">
        <ele>1223.4</ele>
        <time>2013-09-05T13:35:10Z</time>
      </trkpt>
      <trkpt lat="44.0906" lon="7.05264">
        <ele>1220.1</ele>
        <time>2013-09-05T13:35:16Z</time>
      </trkpt>
      <trkpt lat="44.09058" lon="7.05313">
        <ele>1217.2</ele>
        <time>2013-09-05T13:35:21Z</time>
      </trkpt>
      <trkpt lat="44.09054" lon="7.05346">
        <ele>1215.7</ele>
        <time>2013-09-05T13:35:24Z</time>
      </trkpt>
      <trkpt lat="44.09051" lon="7.0537">
        <ele>1214.3</ele>
        <time>2013-09-05T13:35:26Z</time>
      </trkpt>
      <trkpt lat="44.09046" lon="7.05436">
        <ele>1210.9</ele>
        <time>2013-09-05T13:35:31Z</time>
      </trkpt>
      <trkpt lat="44.09043" lon="7.05464">
        <ele>1207.6</ele>
        <time>2013-09-05T13:35:33Z</time>
      </trkpt>
      <trkpt lat="44.09042" lon="7.05479">
        <ele>1207.6</ele>
        <time>2013-09-05T13:35:34Z</time>
      </trkpt>
      <trkpt lat="44.09036" lon="7.05537">
        <ele>1203.7</ele>
        <time>2013-09-05T13:35:38Z</time>
      </trkpt>
      <trkpt lat="44.09033" lon="7.05595">
        <ele>1200.3</ele>
        <time>2013-09-05T13:35:42Z</time>
      </trkpt>
      <trkpt lat="44.0903" lon="7.0563">
        <ele>1198.4</ele>
        <time>2013-09-05T13:35:45Z</time>
      </trkpt>
      <trkpt lat="44.0903" lon="7.0564">
        <ele>1197.5</ele>
        <time>2013-09-05T13:35:46Z</time>
      </trkpt>
      <trkpt lat="44.0903" lon="7.05647">
        <ele>1197</ele>
        <time>2013-09-05T13:35:47Z</time>
      </trkpt>
      <trkpt lat="44.09034" lon="7.05679">
        <ele>1195.1</ele>
        <time>2013-09-05T13:35:52Z</time>
      </trkpt>
      <trkpt lat="44.09035" lon="7.05685">
        <ele>1194.6</ele>
        <time>2013-09-05T13:35:53Z</time>
      </trkpt>
      <trkpt lat="44.09035" lon="7.05697">
        <ele>1193.1</ele>
        <time>2013-09-05T13:35:55Z</time>
      </trkpt>
      <trkpt lat="44.09032" lon="7.05712">
        <ele>1192.2</ele>
        <time>2013-09-05T13:35:58Z</time>
      </trkpt>
      <trkpt lat="44.0903" lon="7.05717">
        <ele>1191.2</ele>
        <time>2013-09-05T13:35:59Z</time>
      </trkpt>
      <trkpt lat="44.09028" lon="7.05722">
        <ele>1191.7</ele>
        <time>2013-09-05T13:36:00Z</time>
      </trkpt>
      <trkpt lat="44.09024" lon="7.05726">
        <ele>1190.7</ele>
        <time>2013-09-05T13:36:01Z</time>
      </trkpt>
      <trkpt lat="44.09019" lon="7.05729">
        <ele>1190.7</ele>
        <time>2013-09-05T13:36:02Z</time>
      </trkpt>
      <trkpt lat="44.09013" lon="7.05732">
        <ele>1190.3</ele>
        <time>2013-09-05T13:36:03Z</time>
      </trkpt>
      <trkpt lat="44.09007" lon="7.05733">
        <ele>1189.8</ele>
        <time>2013-09-05T13:36:04Z</time>
      </trkpt>
      <trkpt lat="44.09002" lon="7.05735">
        <ele>1189.3</ele>
        <time>2013-09-05T13:36:05Z</time>
      </trkpt>
      <trkpt lat="44.08983" lon="7.05743">
        <ele>1187.9</ele>
        <time>2013-09-05T13:36:08Z</time>
      </trkpt>
      <trkpt lat="44.08977" lon="7.05749">
        <ele>1186.9</ele>
        <time>2013-09-05T13:36:09Z</time>
      </trkpt>
      <trkpt lat="44.0897" lon="7.05755">
        <ele>1186.4</ele>
        <time>2013-09-05T13:36:10Z</time>
      </trkpt>
      <trkpt lat="44.08941" lon="7.05793">
        <ele>1183.5</ele>
        <time>2013-09-05T13:36:15Z</time>
      </trkpt>
      <trkpt lat="44.08937" lon="7.05802">
        <ele>1183</ele>
        <time>2013-09-05T13:36:16Z</time>
      </trkpt>
      <trkpt lat="44.0893" lon="7.05825">
        <ele>1180.6</ele>
        <time>2013-09-05T13:36:18Z</time>
      </trkpt>
      <trkpt lat="44.08924" lon="7.05835">
        <ele>1180.6</ele>
        <time>2013-09-05T13:36:19Z</time>
      </trkpt>
      <trkpt lat="44.08917" lon="7.05844">
        <ele>1179.2</ele>
        <time>2013-09-05T13:36:20Z</time>
      </trkpt>
      <trkpt lat="44.0891" lon="7.05852">
        <ele>1179.2</ele>
        <time>2013-09-05T13:36:21Z</time>
      </trkpt>
      <trkpt lat="44.08903" lon="7.05857">
        <ele>1177.8</ele>
        <time>2013-09-05T13:36:22Z</time>
      </trkpt>
      <trkpt lat="44.08897" lon="7.05858">
        <ele>1178.7</ele>
        <time>2013-09-05T13:36:23Z</time>
      </trkpt>
      <trkpt lat="44.0889" lon="7.05856">
        <ele>1176.3</ele>
        <time>2013-09-05T13:36:24Z</time>
      </trkpt>
      <trkpt lat="44.08884" lon="7.0585">
        <ele>1175.4</ele>
        <time>2013-09-05T13:36:25Z</time>
      </trkpt>
      <trkpt lat="44.08879" lon="7.05841">
        <ele>1175.4</ele>
        <time>2013-09-05T13:36:26Z</time>
      </trkpt>
      <trkpt lat="44.08874" lon="7.05832">
        <ele>1175.4</ele>
        <time>2013-09-05T13:36:27Z</time>
      </trkpt>
      <trkpt lat="44.08867" lon="7.05824">
        <ele>1174.9</ele>
        <time>2013-09-05T13:36:28Z</time>
      </trkpt>
      <trkpt lat="44.0886" lon="7.05818">
        <ele>1173.9</ele>
        <time>2013-09-05T13:36:29Z</time>
      </trkpt>
      <trkpt lat="44.08853" lon="7.05814">
        <ele>1172.5</ele>
        <time>2013-09-05T13:36:30Z</time>
      </trkpt>
      <trkpt lat="44.08845" lon="7.05813">
        <ele>1171</ele>
        <time>2013-09-05T13:36:31Z</time>
      </trkpt>
      <trkpt lat="44.08837" lon="7.05813">
        <ele>1172</ele>
        <time>2013-09-05T13:36:32Z</time>
      </trkpt>
      <trkpt lat="44.08829" lon="7.05813">
        <ele>1170.5</ele>
        <time>2013-09-05T13:36:33Z</time>
      </trkpt>
      <trkpt lat="44.08821" lon="7.05812">
        <ele>1169.1</ele>
        <time>2013-09-05T13:36:34Z</time>
      </trkpt>
      <trkpt lat="44.08812" lon="7.05808">
        <ele>1168.6</ele>
        <time>2013-09-05T13:36:35Z</time>
      </trkpt>
      <trkpt lat="44.08804" lon="7.05804">
        <ele>1168.6</ele>
        <time>2013-09-05T13:36:36Z</time>
      </trkpt>
      <trkpt lat="44.08795" lon="7.05801">
        <ele>1167.7</ele>
        <time>2013-09-05T13:36:37Z</time>
      </trkpt>
      <trkpt lat="44.08785" lon="7.05801">
        <ele>1167.7</ele>
        <time>2013-09-05T13:36:38Z</time>
      </trkpt>
      <trkpt lat="44.08775" lon="7.05802">
        <ele>1166.2</ele>
        <time>2013-09-05T13:36:39Z</time>
      </trkpt>
      <trkpt lat="44.08765" lon="7.05806">
        <ele>1164.8</ele>
        <time>2013-09-05T13:36:40Z</time>
      </trkpt>
      <trkpt lat="44.08737" lon="7.05815">
        <ele>1161.4</ele>
        <time>2013-09-05T13:36:43Z</time>
      </trkpt>
      <trkpt lat="44.08719" lon="7.05819">
        <ele>1161.4</ele>
        <time>2013-09-05T13:36:45Z</time>
      </trkpt>
      <trkpt lat="44.08711" lon="7.05817">
        <ele>1160</ele>
        <time>2013-09-05T13:36:46Z</time>
      </trkpt>
      <trkpt lat="44.08702" lon="7.05813">
        <ele>1158.5</ele>
        <time>2013-09-05T13:36:47Z</time>
      </trkpt>
      <trkpt lat="44.08694" lon="7.05805">
        <ele>1158.5</ele>
        <time>2013-09-05T13:36:48Z</time>
      </trkpt>
      <trkpt lat="44.08686" lon="7.05795">
        <ele>1158.1</ele>
        <time>2013-09-05T13:36:49Z</time>
      </trkpt>
      <trkpt lat="44.08679" lon="7.05785">
        <ele>1156.6</ele>
        <time>2013-09-05T13:36:50Z</time>
      </trkpt>
      <trkpt lat="44.08673" lon="7.05773">
        <ele>1155.6</ele>
        <time>2013-09-05T13:36:51Z</time>
      </trkpt>
      <trkpt lat="44.08667" lon="7.05761">
        <ele>1154.2</ele>
        <time>2013-09-05T13:36:52Z</time>
      </trkpt>
      <trkpt lat="44.08655" lon="7.05741">
        <ele>1153.2</ele>
        <time>2013-09-05T13:36:54Z</time>
      </trkpt>
      <trkpt lat="44.08648" lon="7.05733">
        <ele>1152.3</ele>
        <time>2013-09-05T13:36:55Z</time>
      </trkpt>
      <trkpt lat="44.0864" lon="7.05729">
        <ele>1151.8</ele>
        <time>2013-09-05T13:36:56Z</time>
      </trkpt>
      <trkpt lat="44.08631" lon="7.05727">
        <ele>1150.8</ele>
        <time>2013-09-05T13:36:57Z</time>
      </trkpt>
      <trkpt lat="44.08622" lon="7.05725">
        <ele>1150.4</ele>
        <time>2013-09-05T13:36:58Z</time>
      </trkpt>
      <trkpt lat="44.08614" lon="7.05719">
        <ele>1148.9</ele>
        <time>2013-09-05T13:36:59Z</time>
      </trkpt>
      <trkpt lat="44.08608" lon="7.0571">
        <ele>1148</ele>
        <time>2013-09-05T13:37:00Z</time>
      </trkpt>
      <trkpt lat="44.08602" lon="7.05699">
        <ele>1147</ele>
        <time>2013-09-05T13:37:01Z</time>
      </trkpt>
      <trkpt lat="44.08595" lon="7.05689">
        <ele>1146.5</ele>
        <time>2013-09-05T13:37:02Z</time>
      </trkpt>
      <trkpt lat="44.08588" lon="7.05681">
        <ele>1146</ele>
        <time>2013-09-05T13:37:03Z</time>
      </trkpt>
      <trkpt lat="44.08579" lon="7.05677">
        <ele>1145.1</ele>
        <time>2013-09-05T13:37:04Z</time>
      </trkpt>
      <trkpt lat="44.08571" lon="7.05676">
        <ele>1145.1</ele>
        <time>2013-09-05T13:37:05Z</time>
      </trkpt>
      <trkpt lat="44.08563" lon="7.05678">
        <ele>1143.6</ele>
        <time>2013-09-05T13:37:06Z</time>
      </trkpt>
      <trkpt lat="44.08555" lon="7.05685">
        <ele>1143.1</ele>
        <time>2013-09-05T13:37:07Z</time>
      </trkpt>
      <trkpt lat="44.08548" lon="7.05692">
        <ele>1141.7</ele>
        <time>2013-09-05T13:37:08Z</time>
      </trkpt>
      <trkpt lat="44.08541" lon="7.057">
        <ele>1141.7</ele>
        <time>2013-09-05T13:37:09Z</time>
      </trkpt>
      <trkpt lat="44.08533" lon="7.05704">
        <ele>1140.7</ele>
        <time>2013-09-05T13:37:10Z</time>
      </trkpt>
      <trkpt lat="44.08525" lon="7.05706">
        <ele>1140.3</ele>
        <time>2013-09-05T13:37:11Z</time>
      </trkpt>
      <trkpt lat="44.08516" lon="7.05704">
        <ele>1139.3</ele>
        <time>2013-09-05T13:37:12Z</time>
      </trkpt>
      <trkpt lat="44.08508" lon="7.05699">
        <ele>1138.8</ele>
        <time>2013-09-05T13:37:13Z</time>
      </trkpt>
      <trkpt lat="44.08498" lon="7.05693">
        <ele>1138.3</ele>
        <time>2013-09-05T13:37:14Z</time>
      </trkpt>
      <trkpt lat="44.08488" lon="7.0569">
        <ele>1137.4</ele>
        <time>2013-09-05T13:37:15Z</time>
      </trkpt>
      <trkpt lat="44.08478" lon="7.05689">
        <ele>1136.9</ele>
        <time>2013-09-05T13:37:16Z</time>
      </trkpt>
      <trkpt lat="44.08467" lon="7.0569">
        <ele>1135.5</ele>
        <time>2013-09-05T13:37:17Z</time>
      </trkpt>
      <trkpt lat="44.08457" lon="7.05693">
        <ele>1134.5</ele>
        <time>2013-09-05T13:37:18Z</time>
      </trkpt>
      <trkpt lat="44.08446" lon="7.05697">
        <ele>1134</ele>
        <time>2013-09-05T13:37:19Z</time>
      </trkpt>
      <trkpt lat="44.08436" lon="7.05698">
        <ele>1133.5</ele>
        <time>2013-09-05T13:37:20Z</time>
      </trkpt>
      <trkpt lat="44.08426" lon="7.05698">
        <ele>1133.1</ele>
        <time>2013-09-05T13:37:21Z</time>
      </trkpt>
      <trkpt lat="44.08403" lon="7.05696">
        <ele>1130.7</ele>
        <time>2013-09-05T13:37:24Z</time>
      </trkpt>
      <trkpt lat="44.08398" lon="7.05698">
        <ele>1130.2</ele>
        <time>2013-09-05T13:37:25Z</time>
      </trkpt>
      <trkpt lat="44.08396" lon="7.05701">
        <ele>1130.2</ele>
        <time>2013-09-05T13:37:26Z</time>
      </trkpt>
      <trkpt lat="44.08395" lon="7.05705">
        <ele>1130.2</ele>
        <time>2013-09-05T13:37:27Z</time>
      </trkpt>
      <trkpt lat="44.08397" lon="7.05709">
        <ele>1129.7</ele>
        <time>2013-09-05T13:37:28Z</time>
      </trkpt>
      <trkpt lat="44.08399" lon="7.05712">
        <ele>1129.7</ele>
        <time>2013-09-05T13:37:29Z</time>
      </trkpt>
      <trkpt lat="44.08402" lon="7.05714">
        <ele>1130.2</ele>
        <time>2013-09-05T13:37:30Z</time>
      </trkpt>
      <trkpt lat="44.08405" lon="7.05714">
        <ele>1129.2</ele>
        <time>2013-09-05T13:37:31Z</time>
      </trkpt>
      <trkpt lat="44.08409" lon="7.05714">
        <ele>1129.2</ele>
        <time>2013-09-05T13:37:32Z</time>
      </trkpt>
      <trkpt lat="44.08412" lon="7.05714">
        <ele>1128.7</ele>
        <time>2013-09-05T13:37:33Z</time>
      </trkpt>
      <trkpt lat="44.08415" lon="7.05713">
        <ele>1127.8</ele>
        <time>2013-09-05T13:37:34Z</time>
      </trkpt>
      <trkpt lat="44.08424" lon="7.0571">
        <ele>1128.2</ele>
        <time>2013-09-05T13:37:45Z</time>
      </trkpt>
      <trkpt lat="44.08429" lon="7.05711">
        <ele>1128.7</ele>
        <time>2013-09-05T13:38:02Z</time>
      </trkpt>
      <trkpt lat="44.08431" lon="7.05711">
        <ele>1128.2</ele>
        <time>2013-09-05T13:38:03Z</time>
      </trkpt>
      <trkpt lat="44.08433" lon="7.05711">
        <ele>1128.2</ele>
        <time>2013-09-05T13:38:04Z</time>
      </trkpt>
      <trkpt lat="44.08465" lon="7.05712">
        <ele>1125.4</ele>
        <time>2013-09-05T13:38:13Z</time>
      </trkpt>
      <trkpt lat="44.08471" lon="7.05712">
        <ele>1125.4</ele>
        <time>2013-09-05T13:38:14Z</time>
      </trkpt>
      <trkpt lat="44.08478" lon="7.05713">
        <ele>1124.4</ele>
        <time>2013-09-05T13:38:15Z</time>
      </trkpt>
      <trkpt lat="44.08486" lon="7.05716">
        <ele>1123.4</ele>
        <time>2013-09-05T13:38:16Z</time>
      </trkpt>
      <trkpt lat="44.08494" lon="7.05721">
        <ele>1123.4</ele>
        <time>2013-09-05T13:38:17Z</time>
      </trkpt>
      <trkpt lat="44.08502" lon="7.05728">
        <ele>1122.5</ele>
        <time>2013-09-05T13:38:18Z</time>
      </trkpt>
      <trkpt lat="44.0851" lon="7.05735">
        <ele>1122</ele>
        <time>2013-09-05T13:38:19Z</time>
      </trkpt>
      <trkpt lat="44.08517" lon="7.05741">
        <ele>1121</ele>
        <time>2013-09-05T13:38:20Z</time>
      </trkpt>
      <trkpt lat="44.08524" lon="7.05746">
        <ele>1121</ele>
        <time>2013-09-05T13:38:21Z</time>
      </trkpt>
      <trkpt lat="44.08533" lon="7.05749">
        <ele>1120.6</ele>
        <time>2013-09-05T13:38:22Z</time>
      </trkpt>
      <trkpt lat="44.08553" lon="7.05755">
        <ele>1118.2</ele>
        <time>2013-09-05T13:38:24Z</time>
      </trkpt>
      <trkpt lat="44.08563" lon="7.0576">
        <ele>1117.2</ele>
        <time>2013-09-05T13:38:25Z</time>
      </trkpt>
      <trkpt lat="44.08601" lon="7.05791">
        <ele>1114.8</ele>
        <time>2013-09-05T13:38:29Z</time>
      </trkpt>
      <trkpt lat="44.08609" lon="7.05803">
        <ele>1113.3</ele>
        <time>2013-09-05T13:38:30Z</time>
      </trkpt>
      <trkpt lat="44.08615" lon="7.05817">
        <ele>1112.4</ele>
        <time>2013-09-05T13:38:31Z</time>
      </trkpt>
      <trkpt lat="44.0862" lon="7.05832">
        <ele>1111.9</ele>
        <time>2013-09-05T13:38:32Z</time>
      </trkpt>
      <trkpt lat="44.0863" lon="7.0586">
        <ele>1110</ele>
        <time>2013-09-05T13:38:34Z</time>
      </trkpt>
      <trkpt lat="44.08637" lon="7.05873">
        <ele>1109.5</ele>
        <time>2013-09-05T13:38:35Z</time>
      </trkpt>
      <trkpt lat="44.08645" lon="7.05884">
        <ele>1108.1</ele>
        <time>2013-09-05T13:38:36Z</time>
      </trkpt>
      <trkpt lat="44.08655" lon="7.05893">
        <ele>1107.6</ele>
        <time>2013-09-05T13:38:37Z</time>
      </trkpt>
      <trkpt lat="44.08666" lon="7.059">
        <ele>1106.6</ele>
        <time>2013-09-05T13:38:38Z</time>
      </trkpt>
      <trkpt lat="44.08677" lon="7.05906">
        <ele>1105.2</ele>
        <time>2013-09-05T13:38:39Z</time>
      </trkpt>
      <trkpt lat="44.08719" lon="7.05931">
        <ele>1101.8</ele>
        <time>2013-09-05T13:38:43Z</time>
      </trkpt>
      <trkpt lat="44.08739" lon="7.05946">
        <ele>1099.4</ele>
        <time>2013-09-05T13:38:45Z</time>
      </trkpt>
      <trkpt lat="44.08748" lon="7.05955">
        <ele>1098.4</ele>
        <time>2013-09-05T13:38:46Z</time>
      </trkpt>
      <trkpt lat="44.08758" lon="7.05966">
        <ele>1097.5</ele>
        <time>2013-09-05T13:38:47Z</time>
      </trkpt>
      <trkpt lat="44.08766" lon="7.05978">
        <ele>1096.5</ele>
        <time>2013-09-05T13:38:48Z</time>
      </trkpt>
      <trkpt lat="44.08774" lon="7.05991">
        <ele>1095.6</ele>
        <time>2013-09-05T13:38:49Z</time>
      </trkpt>
      <trkpt lat="44.08801" lon="7.06041">
        <ele>1092.2</ele>
        <time>2013-09-05T13:38:53Z</time>
      </trkpt>
      <trkpt lat="44.08844" lon="7.06125">
        <ele>1089.3</ele>
        <time>2013-09-05T13:39:00Z</time>
      </trkpt>
      <trkpt lat="44.08855" lon="7.06142">
        <ele>1088.4</ele>
        <time>2013-09-05T13:39:02Z</time>
      </trkpt>
      <trkpt lat="44.08862" lon="7.06146">
        <ele>1087.4</ele>
        <time>2013-09-05T13:39:03Z</time>
      </trkpt>
      <trkpt lat="44.08869" lon="7.06147">
        <ele>1086.9</ele>
        <time>2013-09-05T13:39:04Z</time>
      </trkpt>
      <trkpt lat="44.08877" lon="7.06145">
        <ele>1086.4</ele>
        <time>2013-09-05T13:39:05Z</time>
      </trkpt>
      <trkpt lat="44.08884" lon="7.0614">
        <ele>1086</ele>
        <time>2013-09-05T13:39:06Z</time>
      </trkpt>
      <trkpt lat="44.08891" lon="7.06133">
        <ele>1085</ele>
        <time>2013-09-05T13:39:07Z</time>
      </trkpt>
      <trkpt lat="44.08897" lon="7.06125">
        <ele>1084.5</ele>
        <time>2013-09-05T13:39:08Z</time>
      </trkpt>
      <trkpt lat="44.08903" lon="7.06116">
        <ele>1083.1</ele>
        <time>2013-09-05T13:39:09Z</time>
      </trkpt>
      <trkpt lat="44.08907" lon="7.06108">
        <ele>1082.6</ele>
        <time>2013-09-05T13:39:10Z</time>
      </trkpt>
      <trkpt lat="44.08911" lon="7.061">
        <ele>1082.1</ele>
        <time>2013-09-05T13:39:11Z</time>
      </trkpt>
      <trkpt lat="44.08921" lon="7.06077">
        <ele>1081.1</ele>
        <time>2013-09-05T13:39:14Z</time>
      </trkpt>
      <trkpt lat="44.08929" lon="7.0606">
        <ele>1079.2</ele>
        <time>2013-09-05T13:39:17Z</time>
      </trkpt>
      <trkpt lat="44.08954" lon="7.0603">
        <ele>1075.9</ele>
        <time>2013-09-05T13:39:29Z</time>
      </trkpt>
      <trkpt lat="44.08953" lon="7.06027">
        <ele>1076.3</ele>
        <time>2013-09-05T13:39:42Z</time>
      </trkpt>
      <trkpt lat="44.08958" lon="7.06024">
        <ele>1075.9</ele>
        <time>2013-09-05T13:40:05Z</time>
      </trkpt>
      <trkpt lat="44.08957" lon="7.06026">
        <ele>1075.9</ele>
        <time>2013-09-05T13:40:38Z</time>
      </trkpt>
      <trkpt lat="44.08958" lon="7.06023">
        <ele>1075.9</ele>
        <time>2013-09-05T13:40:47Z</time>
      </trkpt>
      <trkpt lat="44.08959" lon="7.06021">
        <ele>1075.4</ele>
        <time>2013-09-05T13:40:48Z</time>
      </trkpt>
      <trkpt lat="44.08959" lon="7.0602">
        <ele>1075.9</ele>
        <time>2013-09-05T13:40:49Z</time>
      </trkpt>
      <trkpt lat="44.0896" lon="7.06017">
        <ele>1075.4</ele>
        <time>2013-09-05T13:40:50Z</time>
      </trkpt>
      <trkpt lat="44.08962" lon="7.06014">
        <ele>1074.9</ele>
        <time>2013-09-05T13:40:51Z</time>
      </trkpt>
      <trkpt lat="44.08964" lon="7.06011">
        <ele>1074.9</ele>
        <time>2013-09-05T13:40:52Z</time>
      </trkpt>
      <trkpt lat="44.08967" lon="7.06008">
        <ele>1074.9</ele>
        <time>2013-09-05T13:40:53Z</time>
      </trkpt>
      <trkpt lat="44.0897" lon="7.06004">
        <ele>1073.9</ele>
        <time>2013-09-05T13:40:54Z</time>
      </trkpt>
      <trkpt lat="44.08975" lon="7.06001">
        <ele>1074.4</ele>
        <time>2013-09-05T13:40:55Z</time>
      </trkpt>
      <trkpt lat="44.09003" lon="7.05978">
        <ele>1072</ele>
        <time>2013-09-05T13:41:00Z</time>
      </trkpt>
      <trkpt lat="44.09009" lon="7.05969">
        <ele>1071.1</ele>
        <time>2013-09-05T13:41:01Z</time>
      </trkpt>
      <trkpt lat="44.09013" lon="7.05958">
        <ele>1069.6</ele>
        <time>2013-09-05T13:41:02Z</time>
      </trkpt>
      <trkpt lat="44.09025" lon="7.05918">
        <ele>1067.2</ele>
        <time>2013-09-05T13:41:06Z</time>
      </trkpt>
      <trkpt lat="44.09029" lon="7.05911">
        <ele>1066.7</ele>
        <time>2013-09-05T13:41:07Z</time>
      </trkpt>
      <trkpt lat="44.09034" lon="7.05906">
        <ele>1066.2</ele>
        <time>2013-09-05T13:41:08Z</time>
      </trkpt>
      <trkpt lat="44.0904" lon="7.05903">
        <ele>1066.2</ele>
        <time>2013-09-05T13:41:09Z</time>
      </trkpt>
      <trkpt lat="44.09046" lon="7.05904">
        <ele>1064.3</ele>
        <time>2013-09-05T13:41:10Z</time>
      </trkpt>
      <trkpt lat="44.09052" lon="7.05908">
        <ele>1064.3</ele>
        <time>2013-09-05T13:41:11Z</time>
      </trkpt>
      <trkpt lat="44.09058" lon="7.05913">
        <ele>1063.8</ele>
        <time>2013-09-05T13:41:12Z</time>
      </trkpt>
      <trkpt lat="44.09064" lon="7.05918">
        <ele>1063.8</ele>
        <time>2013-09-05T13:41:13Z</time>
      </trkpt>
      <trkpt lat="44.09071" lon="7.0592">
        <ele>1063.4</ele>
        <time>2013-09-05T13:41:14Z</time>
      </trkpt>
      <trkpt lat="44.09078" lon="7.05921">
        <ele>1062.9</ele>
        <time>2013-09-05T13:41:15Z</time>
      </trkpt>
      <trkpt lat="44.09084" lon="7.05918">
        <ele>1062.4</ele>
        <time>2013-09-05T13:41:16Z</time>
      </trkpt>
      <trkpt lat="44.09089" lon="7.05914">
        <ele>1062.4</ele>
        <time>2013-09-05T13:41:17Z</time>
      </trkpt>
      <trkpt lat="44.09095" lon="7.05908">
        <ele>1061.9</ele>
        <time>2013-09-05T13:41:18Z</time>
      </trkpt>
      <trkpt lat="44.09098" lon="7.059">
        <ele>1061</ele>
        <time>2013-09-05T13:41:19Z</time>
      </trkpt>
      <trkpt lat="44.09102" lon="7.05892">
        <ele>1061</ele>
        <time>2013-09-05T13:41:20Z</time>
      </trkpt>
      <trkpt lat="44.09125" lon="7.05843">
        <ele>1057.6</ele>
        <time>2013-09-05T13:41:25Z</time>
      </trkpt>
      <trkpt lat="44.0913" lon="7.05832">
        <ele>1057.6</ele>
        <time>2013-09-05T13:41:26Z</time>
      </trkpt>
      <trkpt lat="44.09136" lon="7.05821">
        <ele>1056.6</ele>
        <time>2013-09-05T13:41:27Z</time>
      </trkpt>
      <trkpt lat="44.09142" lon="7.05812">
        <ele>1056.2</ele>
        <time>2013-09-05T13:41:28Z</time>
      </trkpt>
      <trkpt lat="44.09149" lon="7.05803">
        <ele>1055.2</ele>
        <time>2013-09-05T13:41:29Z</time>
      </trkpt>
      <trkpt lat="44.09156" lon="7.05796">
        <ele>1054.7</ele>
        <time>2013-09-05T13:41:30Z</time>
      </trkpt>
      <trkpt lat="44.09162" lon="7.05788">
        <ele>1053.7</ele>
        <time>2013-09-05T13:41:31Z</time>
      </trkpt>
      <trkpt lat="44.09168" lon="7.0578">
        <ele>1053.3</ele>
        <time>2013-09-05T13:41:32Z</time>
      </trkpt>
      <trkpt lat="44.09173" lon="7.05773">
        <ele>1052.8</ele>
        <time>2013-09-05T13:41:33Z</time>
      </trkpt>
      <trkpt lat="44.09176" lon="7.05766">
        <ele>1052.3</ele>
        <time>2013-09-05T13:41:34Z</time>
      </trkpt>
      <trkpt lat="44.0918" lon="7.0576">
        <ele>1051.3</ele>
        <time>2013-09-05T13:41:35Z</time>
      </trkpt>
      <trkpt lat="44.09184" lon="7.05757">
        <ele>1050.9</ele>
        <time>2013-09-05T13:41:36Z</time>
      </trkpt>
      <trkpt lat="44.09188" lon="7.05756">
        <ele>1050.4</ele>
        <time>2013-09-05T13:41:37Z</time>
      </trkpt>
      <trkpt lat="44.09194" lon="7.05757">
        <ele>1049.9</ele>
        <time>2013-09-05T13:41:38Z</time>
      </trkpt>
      <trkpt lat="44.09199" lon="7.05759">
        <ele>1050.4</ele>
        <time>2013-09-05T13:41:39Z</time>
      </trkpt>
      <trkpt lat="44.09203" lon="7.05762">
        <ele>1050.4</ele>
        <time>2013-09-05T13:41:40Z</time>
      </trkpt>
      <trkpt lat="44.09207" lon="7.05767">
        <ele>1049.4</ele>
        <time>2013-09-05T13:41:41Z</time>
      </trkpt>
      <trkpt lat="44.09211" lon="7.05771">
        <ele>1049.4</ele>
        <time>2013-09-05T13:41:42Z</time>
      </trkpt>
      <trkpt lat="44.09217" lon="7.05772">
        <ele>1049.4</ele>
        <time>2013-09-05T13:41:43Z</time>
      </trkpt>
      <trkpt lat="44.09223" lon="7.05771">
        <ele>1048</ele>
        <time>2013-09-05T13:41:44Z</time>
      </trkpt>
      <trkpt lat="44.09229" lon="7.05768">
        <ele>1048</ele>
        <time>2013-09-05T13:41:45Z</time>
      </trkpt>
      <trkpt lat="44.09232" lon="7.05765">
        <ele>1047.5</ele>
        <time>2013-09-05T13:41:46Z</time>
      </trkpt>
      <trkpt lat="44.0924" lon="7.05755">
        <ele>1046.5</ele>
        <time>2013-09-05T13:41:47Z</time>
      </trkpt>
      <trkpt lat="44.09251" lon="7.05741">
        <ele>1046.1</ele>
        <time>2013-09-05T13:41:49Z</time>
      </trkpt>
      <trkpt lat="44.09258" lon="7.05735">
        <ele>1045.1</ele>
        <time>2013-09-05T13:41:50Z</time>
      </trkpt>
      <trkpt lat="44.09264" lon="7.05731">
        <ele>1044.1</ele>
        <time>2013-09-05T13:41:51Z</time>
      </trkpt>
      <trkpt lat="44.09271" lon="7.05728">
        <ele>1043.7</ele>
        <time>2013-09-05T13:41:52Z</time>
      </trkpt>
      <trkpt lat="44.09277" lon="7.05726">
        <ele>1042.7</ele>
        <time>2013-09-05T13:41:53Z</time>
      </trkpt>
      <trkpt lat="44.09282" lon="7.05726">
        <ele>1042.2</ele>
        <time>2013-09-05T13:41:54Z</time>
      </trkpt>
      <trkpt lat="44.09287" lon="7.05726">
        <ele>1041.7</ele>
        <time>2013-09-05T13:41:55Z</time>
      </trkpt>
      <trkpt lat="44.09291" lon="7.05727">
        <ele>1040.8</ele>
        <time>2013-09-05T13:41:56Z</time>
      </trkpt>
      <trkpt lat="44.09295" lon="7.05728">
        <ele>1040.3</ele>
        <time>2013-09-05T13:41:57Z</time>
      </trkpt>
      <trkpt lat="44.093" lon="7.05729">
        <ele>1040.8</ele>
        <time>2013-09-05T13:41:58Z</time>
      </trkpt>
      <trkpt lat="44.09305" lon="7.05729">
        <ele>1040.3</ele>
        <time>2013-09-05T13:41:59Z</time>
      </trkpt>
      <trkpt lat="44.0931" lon="7.05728">
        <ele>1039.8</ele>
        <time>2013-09-05T13:42:00Z</time>
      </trkpt>
      <trkpt lat="44.09316" lon="7.05726">
        <ele>1039.3</ele>
        <time>2013-09-05T13:42:01Z</time>
      </trkpt>
      <trkpt lat="44.09323" lon="7.05723">
        <ele>1039.3</ele>
        <time>2013-09-05T13:42:02Z</time>
      </trkpt>
      <trkpt lat="44.09329" lon="7.05719">
        <ele>1038.8</ele>
        <time>2013-09-05T13:42:03Z</time>
      </trkpt>
      <trkpt lat="44.09335" lon="7.05714">
        <ele>1037.9</ele>
        <time>2013-09-05T13:42:04Z</time>
      </trkpt>
      <trkpt lat="44.09341" lon="7.05707">
        <ele>1037.9</ele>
        <time>2013-09-05T13:42:05Z</time>
      </trkpt>
      <trkpt lat="44.09374" lon="7.05669">
        <ele>1034.5</ele>
        <time>2013-09-05T13:42:10Z</time>
      </trkpt>
      <trkpt lat="44.09412" lon="7.05629">
        <ele>1030.7</ele>
        <time>2013-09-05T13:42:16Z</time>
      </trkpt>
      <trkpt lat="44.09418" lon="7.05623">
        <ele>1030.2</ele>
        <time>2013-09-05T13:42:17Z</time>
      </trkpt>
      <trkpt lat="44.0943" lon="7.0561">
        <ele>1029.2</ele>
        <time>2013-09-05T13:42:19Z</time>
      </trkpt>
      <trkpt lat="44.09469" lon="7.05579">
        <ele>1024.9</ele>
        <time>2013-09-05T13:42:25Z</time>
      </trkpt>
      <trkpt lat="44.09475" lon="7.05575">
        <ele>1024.4</ele>
        <time>2013-09-05T13:42:26Z</time>
      </trkpt>
      <trkpt lat="44.09488" lon="7.05568">
        <ele>1023.5</ele>
        <time>2013-09-05T13:42:28Z</time>
      </trkpt>
      <trkpt lat="44.09495" lon="7.05568">
        <ele>1023</ele>
        <time>2013-09-05T13:42:29Z</time>
      </trkpt>
      <trkpt lat="44.09503" lon="7.05567">
        <ele>1022.5</ele>
        <time>2013-09-05T13:42:30Z</time>
      </trkpt>
      <trkpt lat="44.0951" lon="7.05566">
        <ele>1022</ele>
        <time>2013-09-05T13:42:31Z</time>
      </trkpt>
      <trkpt lat="44.09518" lon="7.05563">
        <ele>1021.1</ele>
        <time>2013-09-05T13:42:32Z</time>
      </trkpt>
      <trkpt lat="44.09525" lon="7.05559">
        <ele>1020.1</ele>
        <time>2013-09-05T13:42:33Z</time>
      </trkpt>
      <trkpt lat="44.09547" lon="7.05549">
        <ele>1018.2</ele>
        <time>2013-09-05T13:42:36Z</time>
      </trkpt>
      <trkpt lat="44.09554" lon="7.05548">
        <ele>1017.7</ele>
        <time>2013-09-05T13:42:37Z</time>
      </trkpt>
      <trkpt lat="44.09561" lon="7.05547">
        <ele>1016.7</ele>
        <time>2013-09-05T13:42:38Z</time>
      </trkpt>
      <trkpt lat="44.09568" lon="7.05549">
        <ele>1016.3</ele>
        <time>2013-09-05T13:42:39Z</time>
      </trkpt>
      <trkpt lat="44.09575" lon="7.05552">
        <ele>1015.8</ele>
        <time>2013-09-05T13:42:40Z</time>
      </trkpt>
      <trkpt lat="44.09581" lon="7.05554">
        <ele>1014.8</ele>
        <time>2013-09-05T13:42:41Z</time>
      </trkpt>
      <trkpt lat="44.09587" lon="7.05555">
        <ele>1014.3</ele>
        <time>2013-09-05T13:42:42Z</time>
      </trkpt>
      <trkpt lat="44.09594" lon="7.05554">
        <ele>1013.9</ele>
        <time>2013-09-05T13:42:43Z</time>
      </trkpt>
      <trkpt lat="44.09601" lon="7.05554">
        <ele>1012.9</ele>
        <time>2013-09-05T13:42:44Z</time>
      </trkpt>
      <trkpt lat="44.09607" lon="7.05557">
        <ele>1012.4</ele>
        <time>2013-09-05T13:42:45Z</time>
      </trkpt>
      <trkpt lat="44.09613" lon="7.05562">
        <ele>1011.9</ele>
        <time>2013-09-05T13:42:46Z</time>
      </trkpt>
      <trkpt lat="44.09618" lon="7.05569">
        <ele>1011.4</ele>
        <time>2013-09-05T13:42:47Z</time>
      </trkpt>
      <trkpt lat="44.09622" lon="7.05577">
        <ele>1011.4</ele>
        <time>2013-09-05T13:42:48Z</time>
      </trkpt>
      <trkpt lat="44.09627" lon="7.05584">
        <ele>1011</ele>
        <time>2013-09-05T13:42:49Z</time>
      </trkpt>
      <trkpt lat="44.09632" lon="7.0559">
        <ele>1010.5</ele>
        <time>2013-09-05T13:42:50Z</time>
      </trkpt>
      <trkpt lat="44.09637" lon="7.05593">
        <ele>1009.5</ele>
        <time>2013-09-05T13:42:51Z</time>
      </trkpt>
      <trkpt lat="44.09642" lon="7.05594">
        <ele>1008.6</ele>
        <time>2013-09-05T13:42:52Z</time>
      </trkpt>
      <trkpt lat="44.09648" lon="7.05595">
        <ele>1009.5</ele>
        <time>2013-09-05T13:42:53Z</time>
      </trkpt>
      <trkpt lat="44.09652" lon="7.05597">
        <ele>1008.1</ele>
        <time>2013-09-05T13:42:54Z</time>
      </trkpt>
      <trkpt lat="44.09656" lon="7.056">
        <ele>1007.6</ele>
        <time>2013-09-05T13:42:55Z</time>
      </trkpt>
      <trkpt lat="44.09659" lon="7.05606">
        <ele>1008.1</ele>
        <time>2013-09-05T13:42:56Z</time>
      </trkpt>
      <trkpt lat="44.09661" lon="7.05612">
        <ele>1008.1</ele>
        <time>2013-09-05T13:42:57Z</time>
      </trkpt>
      <trkpt lat="44.09662" lon="7.05619">
        <ele>1007.6</ele>
        <time>2013-09-05T13:42:58Z</time>
      </trkpt>
      <trkpt lat="44.09662" lon="7.05626">
        <ele>1007.1</ele>
        <time>2013-09-05T13:42:59Z</time>
      </trkpt>
      <trkpt lat="44.09659" lon="7.05632">
        <ele>1007.1</ele>
        <time>2013-09-05T13:43:00Z</time>
      </trkpt>
      <trkpt lat="44.09655" lon="7.05637">
        <ele>1006.6</ele>
        <time>2013-09-05T13:43:01Z</time>
      </trkpt>
      <trkpt lat="44.09649" lon="7.0564">
        <ele>1006.6</ele>
        <time>2013-09-05T13:43:02Z</time>
      </trkpt>
      <trkpt lat="44.09642" lon="7.05642">
        <ele>1006.2</ele>
        <time>2013-09-05T13:43:03Z</time>
      </trkpt>
      <trkpt lat="44.09636" lon="7.05644">
        <ele>1005.7</ele>
        <time>2013-09-05T13:43:04Z</time>
      </trkpt>
      <trkpt lat="44.09629" lon="7.05644">
        <ele>1005.2</ele>
        <time>2013-09-05T13:43:05Z</time>
      </trkpt>
      <trkpt lat="44.09622" lon="7.05644">
        <ele>1004.7</ele>
        <time>2013-09-05T13:43:06Z</time>
      </trkpt>
      <trkpt lat="44.09615" lon="7.05643">
        <ele>1004.2</ele>
        <time>2013-09-05T13:43:07Z</time>
      </trkpt>
      <trkpt lat="44.09609" lon="7.05641">
        <ele>1002.8</ele>
        <time>2013-09-05T13:43:08Z</time>
      </trkpt>
      <trkpt lat="44.09587" lon="7.05637">
        <ele>1001.4</ele>
        <time>2013-09-05T13:43:11Z</time>
      </trkpt>
      <trkpt lat="44.0958" lon="7.0564">
        <ele>1000.9</ele>
        <time>2013-09-05T13:43:12Z</time>
      </trkpt>
      <trkpt lat="44.09573" lon="7.05646">
        <ele>1000.4</ele>
        <time>2013-09-05T13:43:13Z</time>
      </trkpt>
      <trkpt lat="44.09567" lon="7.05654">
        <ele>999.9</ele>
        <time>2013-09-05T13:43:14Z</time>
      </trkpt>
      <trkpt lat="44.09561" lon="7.05663">
        <ele>999</ele>
        <time>2013-09-05T13:43:15Z</time>
      </trkpt>
      <trkpt lat="44.09543" lon="7.05687">
        <ele>997.5</ele>
        <time>2013-09-05T13:43:18Z</time>
      </trkpt>
      <trkpt lat="44.09537" lon="7.05693">
        <ele>997</ele>
        <time>2013-09-05T13:43:19Z</time>
      </trkpt>
      <trkpt lat="44.09531" lon="7.05697">
        <ele>996.5</ele>
        <time>2013-09-05T13:43:20Z</time>
      </trkpt>
      <trkpt lat="44.09525" lon="7.05699">
        <ele>995.1</ele>
        <time>2013-09-05T13:43:21Z</time>
      </trkpt>
      <trkpt lat="44.0952" lon="7.057">
        <ele>994.1</ele>
        <time>2013-09-05T13:43:22Z</time>
      </trkpt>
      <trkpt lat="44.09514" lon="7.05701">
        <ele>994.1</ele>
        <time>2013-09-05T13:43:23Z</time>
      </trkpt>
      <trkpt lat="44.09507" lon="7.05702">
        <ele>993.2</ele>
        <time>2013-09-05T13:43:24Z</time>
      </trkpt>
      <trkpt lat="44.09499" lon="7.05706">
        <ele>992.7</ele>
        <time>2013-09-05T13:43:25Z</time>
      </trkpt>
      <trkpt lat="44.0949" lon="7.05708">
        <ele>991.7</ele>
        <time>2013-09-05T13:43:26Z</time>
      </trkpt>
      <trkpt lat="44.09457" lon="7.05725">
        <ele>988.9</ele>
        <time>2013-09-05T13:43:31Z</time>
      </trkpt>
      <trkpt lat="44.09452" lon="7.05732">
        <ele>988.4</ele>
        <time>2013-09-05T13:43:32Z</time>
      </trkpt>
      <trkpt lat="44.09449" lon="7.05742">
        <ele>987.9</ele>
        <time>2013-09-05T13:43:33Z</time>
      </trkpt>
      <trkpt lat="44.09445" lon="7.05763">
        <ele>986.9</ele>
        <time>2013-09-05T13:43:35Z</time>
      </trkpt>
      <trkpt lat="44.09444" lon="7.05774">
        <ele>986</ele>
        <time>2013-09-05T13:43:36Z</time>
      </trkpt>
      <trkpt lat="44.09441" lon="7.05783">
        <ele>985</ele>
        <time>2013-09-05T13:43:37Z</time>
      </trkpt>
      <trkpt lat="44.09436" lon="7.05792">
        <ele>985</ele>
        <time>2013-09-05T13:43:38Z</time>
      </trkpt>
      <trkpt lat="44.0943" lon="7.05799">
        <ele>984.1</ele>
        <time>2013-09-05T13:43:39Z</time>
      </trkpt>
      <trkpt lat="44.09424" lon="7.05806">
        <ele>983.6</ele>
        <time>2013-09-05T13:43:40Z</time>
      </trkpt>
      <trkpt lat="44.09409" lon="7.0582">
        <ele>982.6</ele>
        <time>2013-09-05T13:43:42Z</time>
      </trkpt>
      <trkpt lat="44.09377" lon="7.05862">
        <ele>980.7</ele>
        <time>2013-09-05T13:43:47Z</time>
      </trkpt>
      <trkpt lat="44.09373" lon="7.05873">
        <ele>979.7</ele>
        <time>2013-09-05T13:43:48Z</time>
      </trkpt>
      <trkpt lat="44.09371" lon="7.05885">
        <ele>979.2</ele>
        <time>2013-09-05T13:43:49Z</time>
      </trkpt>
      <trkpt lat="44.0937" lon="7.05897">
        <ele>977.8</ele>
        <time>2013-09-05T13:43:50Z</time>
      </trkpt>
      <trkpt lat="44.09369" lon="7.0591">
        <ele>976.8</ele>
        <time>2013-09-05T13:43:51Z</time>
      </trkpt>
      <trkpt lat="44.09368" lon="7.05922">
        <ele>975.9</ele>
        <time>2013-09-05T13:43:52Z</time>
      </trkpt>
      <trkpt lat="44.09366" lon="7.05935">
        <ele>976.4</ele>
        <time>2013-09-05T13:43:53Z</time>
      </trkpt>
      <trkpt lat="44.09363" lon="7.05947">
        <ele>974.9</ele>
        <time>2013-09-05T13:43:54Z</time>
      </trkpt>
      <trkpt lat="44.09359" lon="7.05958">
        <ele>974.4</ele>
        <time>2013-09-05T13:43:55Z</time>
      </trkpt>
      <trkpt lat="44.09355" lon="7.0597">
        <ele>973.5</ele>
        <time>2013-09-05T13:43:56Z</time>
      </trkpt>
      <trkpt lat="44.09349" lon="7.05981">
        <ele>973</ele>
        <time>2013-09-05T13:43:57Z</time>
      </trkpt>
      <trkpt lat="44.09324" lon="7.06024">
        <ele>969.6</ele>
        <time>2013-09-05T13:44:01Z</time>
      </trkpt>
      <trkpt lat="44.09312" lon="7.06046">
        <ele>967.7</ele>
        <time>2013-09-05T13:44:03Z</time>
      </trkpt>
      <trkpt lat="44.09305" lon="7.06055">
        <ele>966.7</ele>
        <time>2013-09-05T13:44:04Z</time>
      </trkpt>
      <trkpt lat="44.09293" lon="7.06062">
        <ele>965.3</ele>
        <time>2013-09-05T13:44:05Z</time>
      </trkpt>
      <trkpt lat="44.09263" lon="7.06087">
        <ele>962.4</ele>
        <time>2013-09-05T13:44:08Z</time>
      </trkpt>
      <trkpt lat="44.09254" lon="7.06097">
        <ele>961.5</ele>
        <time>2013-09-05T13:44:09Z</time>
      </trkpt>
      <trkpt lat="44.09246" lon="7.06108">
        <ele>960.5</ele>
        <time>2013-09-05T13:44:10Z</time>
      </trkpt>
      <trkpt lat="44.09224" lon="7.06144">
        <ele>957.6</ele>
        <time>2013-09-05T13:44:13Z</time>
      </trkpt>
      <trkpt lat="44.092" lon="7.06177">
        <ele>954.3</ele>
        <time>2013-09-05T13:44:16Z</time>
      </trkpt>
      <trkpt lat="44.09163" lon="7.06214">
        <ele>950.9</ele>
        <time>2013-09-05T13:44:20Z</time>
      </trkpt>
      <trkpt lat="44.09154" lon="7.06223">
        <ele>950.4</ele>
        <time>2013-09-05T13:44:21Z</time>
      </trkpt>
      <trkpt lat="44.0913" lon="7.06251">
        <ele>947</ele>
        <time>2013-09-05T13:44:24Z</time>
      </trkpt>
      <trkpt lat="44.09124" lon="7.06263">
        <ele>946.1</ele>
        <time>2013-09-05T13:44:25Z</time>
      </trkpt>
      <trkpt lat="44.09111" lon="7.06286">
        <ele>944.2</ele>
        <time>2013-09-05T13:44:27Z</time>
      </trkpt>
      <trkpt lat="44.09104" lon="7.06295">
        <ele>943.7</ele>
        <time>2013-09-05T13:44:28Z</time>
      </trkpt>
      <trkpt lat="44.09095" lon="7.06302">
        <ele>942.7</ele>
        <time>2013-09-05T13:44:29Z</time>
      </trkpt>
      <trkpt lat="44.09086" lon="7.06308">
        <ele>942.2</ele>
        <time>2013-09-05T13:44:30Z</time>
      </trkpt>
      <trkpt lat="44.09079" lon="7.06314">
        <ele>941.8</ele>
        <time>2013-09-05T13:44:31Z</time>
      </trkpt>
      <trkpt lat="44.09071" lon="7.06322">
        <ele>940.8</ele>
        <time>2013-09-05T13:44:32Z</time>
      </trkpt>
      <trkpt lat="44.09065" lon="7.0633">
        <ele>939.4</ele>
        <time>2013-09-05T13:44:33Z</time>
      </trkpt>
      <trkpt lat="44.09036" lon="7.06366">
        <ele>935.5</ele>
        <time>2013-09-05T13:44:38Z</time>
      </trkpt>
      <trkpt lat="44.09018" lon="7.0639">
        <ele>932.6</ele>
        <time>2013-09-05T13:44:41Z</time>
      </trkpt>
      <trkpt lat="44.09005" lon="7.06408">
        <ele>931.2</ele>
        <time>2013-09-05T13:44:43Z</time>
      </trkpt>
      <trkpt lat="44.09014" lon="7.06504">
        <ele>927.8</ele>
        <time>2013-09-05T13:44:47Z</time>
      </trkpt>
      <trkpt lat="44.09014" lon="7.06518">
        <ele>927.3</ele>
        <time>2013-09-05T13:44:48Z</time>
      </trkpt>
      <trkpt lat="44.09015" lon="7.06531">
        <ele>925.9</ele>
        <time>2013-09-05T13:44:49Z</time>
      </trkpt>
      <trkpt lat="44.09016" lon="7.06543">
        <ele>925.9</ele>
        <time>2013-09-05T13:44:50Z</time>
      </trkpt>
      <trkpt lat="44.09019" lon="7.06555">
        <ele>924.9</ele>
        <time>2013-09-05T13:44:51Z</time>
      </trkpt>
      <trkpt lat="44.09022" lon="7.06567">
        <ele>924.5</ele>
        <time>2013-09-05T13:44:52Z</time>
      </trkpt>
      <trkpt lat="44.09025" lon="7.06579">
        <ele>923.5</ele>
        <time>2013-09-05T13:44:53Z</time>
      </trkpt>
      <trkpt lat="44.09028" lon="7.0659">
        <ele>923</ele>
        <time>2013-09-05T13:44:54Z</time>
      </trkpt>
      <trkpt lat="44.0903" lon="7.06601">
        <ele>922</ele>
        <time>2013-09-05T13:44:55Z</time>
      </trkpt>
      <trkpt lat="44.0903" lon="7.06613">
        <ele>921.6</ele>
        <time>2013-09-05T13:44:56Z</time>
      </trkpt>
      <trkpt lat="44.09028" lon="7.0665">
        <ele>919.2</ele>
        <time>2013-09-05T13:44:59Z</time>
      </trkpt>
      <trkpt lat="44.09027" lon="7.06662">
        <ele>918.2</ele>
        <time>2013-09-05T13:45:00Z</time>
      </trkpt>
      <trkpt lat="44.09024" lon="7.06712">
        <ele>914.8</ele>
        <time>2013-09-05T13:45:04Z</time>
      </trkpt>
      <trkpt lat="44.09017" lon="7.06754">
        <ele>912.9</ele>
        <time>2013-09-05T13:45:07Z</time>
      </trkpt>
      <trkpt lat="44.09018" lon="7.06766">
        <ele>912</ele>
        <time>2013-09-05T13:45:08Z</time>
      </trkpt>
      <trkpt lat="44.09023" lon="7.06791">
        <ele>910.5</ele>
        <time>2013-09-05T13:45:10Z</time>
      </trkpt>
      <trkpt lat="44.09032" lon="7.06841">
        <ele>907.1</ele>
        <time>2013-09-05T13:45:14Z</time>
      </trkpt>
      <trkpt lat="44.09034" lon="7.06853">
        <ele>907.1</ele>
        <time>2013-09-05T13:45:15Z</time>
      </trkpt>
      <trkpt lat="44.09034" lon="7.06864">
        <ele>905.7</ele>
        <time>2013-09-05T13:45:16Z</time>
      </trkpt>
      <trkpt lat="44.09033" lon="7.06874">
        <ele>905.2</ele>
        <time>2013-09-05T13:45:17Z</time>
      </trkpt>
      <trkpt lat="44.09024" lon="7.06916">
        <ele>902.3</ele>
        <time>2013-09-05T13:45:21Z</time>
      </trkpt>
      <trkpt lat="44.08994" lon="7.0696">
        <ele>899</ele>
        <time>2013-09-05T13:45:25Z</time>
      </trkpt>
      <trkpt lat="44.08975" lon="7.07004">
        <ele>895.1</ele>
        <time>2013-09-05T13:45:29Z</time>
      </trkpt>
      <trkpt lat="44.08962" lon="7.07046">
        <ele>891.3</ele>
        <time>2013-09-05T13:45:33Z</time>
      </trkpt>
      <trkpt lat="44.08958" lon="7.07055">
        <ele>891.3</ele>
        <time>2013-09-05T13:45:34Z</time>
      </trkpt>
      <trkpt lat="44.08946" lon="7.07092">
        <ele>888.4</ele>
        <time>2013-09-05T13:45:38Z</time>
      </trkpt>
      <trkpt lat="44.08943" lon="7.07103">
        <ele>887.4</ele>
        <time>2013-09-05T13:45:39Z</time>
      </trkpt>
      <trkpt lat="44.08941" lon="7.07115">
        <ele>887.4</ele>
        <time>2013-09-05T13:45:40Z</time>
      </trkpt>
      <trkpt lat="44.08939" lon="7.07127">
        <ele>886</ele>
        <time>2013-09-05T13:45:41Z</time>
      </trkpt>
      <trkpt lat="44.08934" lon="7.07178">
        <ele>883.1</ele>
        <time>2013-09-05T13:45:45Z</time>
      </trkpt>
      <trkpt lat="44.08919" lon="7.07236">
        <ele>879.7</ele>
        <time>2013-09-05T13:45:50Z</time>
      </trkpt>
      <trkpt lat="44.08911" lon="7.07265">
        <ele>878.3</ele>
        <time>2013-09-05T13:45:54Z</time>
      </trkpt>
      <trkpt lat="44.08911" lon="7.07289">
        <ele>876.9</ele>
        <time>2013-09-05T13:45:58Z</time>
      </trkpt>
      <trkpt lat="44.08915" lon="7.07299">
        <ele>875.4</ele>
        <time>2013-09-05T13:46:00Z</time>
      </trkpt>
      <trkpt lat="44.08922" lon="7.07305">
        <ele>874.9</ele>
        <time>2013-09-05T13:46:01Z</time>
      </trkpt>
      <trkpt lat="44.08931" lon="7.07317">
        <ele>874</ele>
        <time>2013-09-05T13:46:02Z</time>
      </trkpt>
      <trkpt lat="44.08937" lon="7.07328">
        <ele>873</ele>
        <time>2013-09-05T13:46:03Z</time>
      </trkpt>
      <trkpt lat="44.08942" lon="7.07339">
        <ele>872.5</ele>
        <time>2013-09-05T13:46:04Z</time>
      </trkpt>
      <trkpt lat="44.08948" lon="7.0735">
        <ele>872.1</ele>
        <time>2013-09-05T13:46:05Z</time>
      </trkpt>
      <trkpt lat="44.08953" lon="7.0736">
        <ele>871.6</ele>
        <time>2013-09-05T13:46:06Z</time>
      </trkpt>
      <trkpt lat="44.08959" lon="7.0737">
        <ele>871.1</ele>
        <time>2013-09-05T13:46:07Z</time>
      </trkpt>
      <trkpt lat="44.08984" lon="7.07409">
        <ele>867.7</ele>
        <time>2013-09-05T13:46:11Z</time>
      </trkpt>
      <trkpt lat="44.0899" lon="7.07418">
        <ele>867.3</ele>
        <time>2013-09-05T13:46:12Z</time>
      </trkpt>
      <trkpt lat="44.09" lon="7.07438">
        <ele>864.8</ele>
        <time>2013-09-05T13:46:14Z</time>
      </trkpt>
      <trkpt lat="44.09003" lon="7.0745">
        <ele>864.8</ele>
        <time>2013-09-05T13:46:15Z</time>
      </trkpt>
      <trkpt lat="44.09005" lon="7.07462">
        <ele>863.9</ele>
        <time>2013-09-05T13:46:16Z</time>
      </trkpt>
      <trkpt lat="44.09003" lon="7.07474">
        <ele>863.4</ele>
        <time>2013-09-05T13:46:17Z</time>
      </trkpt>
      <trkpt lat="44.08998" lon="7.07484">
        <ele>862.4</ele>
        <time>2013-09-05T13:46:18Z</time>
      </trkpt>
      <trkpt lat="44.0899" lon="7.07492">
        <ele>862.4</ele>
        <time>2013-09-05T13:46:19Z</time>
      </trkpt>
      <trkpt lat="44.08983" lon="7.07499">
        <ele>861.5</ele>
        <time>2013-09-05T13:46:20Z</time>
      </trkpt>
      <trkpt lat="44.08975" lon="7.07506">
        <ele>861.5</ele>
        <time>2013-09-05T13:46:21Z</time>
      </trkpt>
      <trkpt lat="44.08971" lon="7.07514">
        <ele>860.5</ele>
        <time>2013-09-05T13:46:22Z</time>
      </trkpt>
      <trkpt lat="44.0897" lon="7.07524">
        <ele>860.5</ele>
        <time>2013-09-05T13:46:23Z</time>
      </trkpt>
      <trkpt lat="44.08969" lon="7.07534">
        <ele>859.6</ele>
        <time>2013-09-05T13:46:24Z</time>
      </trkpt>
      <trkpt lat="44.08969" lon="7.07545">
        <ele>858.6</ele>
        <time>2013-09-05T13:46:25Z</time>
      </trkpt>
      <trkpt lat="44.0897" lon="7.07557">
        <ele>857.6</ele>
        <time>2013-09-05T13:46:26Z</time>
      </trkpt>
      <trkpt lat="44.08975" lon="7.0761">
        <ele>854.3</ele>
        <time>2013-09-05T13:46:30Z</time>
      </trkpt>
      <trkpt lat="44.08975" lon="7.07623">
        <ele>853.8</ele>
        <time>2013-09-05T13:46:31Z</time>
      </trkpt>
      <trkpt lat="44.08973" lon="7.07635">
        <ele>852.8</ele>
        <time>2013-09-05T13:46:32Z</time>
      </trkpt>
      <trkpt lat="44.08971" lon="7.07647">
        <ele>851.9</ele>
        <time>2013-09-05T13:46:33Z</time>
      </trkpt>
      <trkpt lat="44.08967" lon="7.07657">
        <ele>850.9</ele>
        <time>2013-09-05T13:46:34Z</time>
      </trkpt>
      <trkpt lat="44.08962" lon="7.07666">
        <ele>850.4</ele>
        <time>2013-09-05T13:46:35Z</time>
      </trkpt>
      <trkpt lat="44.08954" lon="7.07673">
        <ele>850.4</ele>
        <time>2013-09-05T13:46:36Z</time>
      </trkpt>
      <trkpt lat="44.08947" lon="7.07681">
        <ele>849.5</ele>
        <time>2013-09-05T13:46:37Z</time>
      </trkpt>
      <trkpt lat="44.08941" lon="7.0769">
        <ele>848.5</ele>
        <time>2013-09-05T13:46:38Z</time>
      </trkpt>
      <trkpt lat="44.08935" lon="7.07701">
        <ele>848</ele>
        <time>2013-09-05T13:46:39Z</time>
      </trkpt>
      <trkpt lat="44.0891" lon="7.07759">
        <ele>844.2</ele>
        <time>2013-09-05T13:46:44Z</time>
      </trkpt>
      <trkpt lat="44.08905" lon="7.07771">
        <ele>842.7</ele>
        <time>2013-09-05T13:46:45Z</time>
      </trkpt>
      <trkpt lat="44.08892" lon="7.07794">
        <ele>841.8</ele>
        <time>2013-09-05T13:46:47Z</time>
      </trkpt>
      <trkpt lat="44.08888" lon="7.07807">
        <ele>840.8</ele>
        <time>2013-09-05T13:46:48Z</time>
      </trkpt>
      <trkpt lat="44.08878" lon="7.07831">
        <ele>838.4</ele>
        <time>2013-09-05T13:46:50Z</time>
      </trkpt>
      <trkpt lat="44.08872" lon="7.07842">
        <ele>837</ele>
        <time>2013-09-05T13:46:51Z</time>
      </trkpt>
      <trkpt lat="44.08866" lon="7.07851">
        <ele>836.5</ele>
        <time>2013-09-05T13:46:52Z</time>
      </trkpt>
      <trkpt lat="44.0886" lon="7.07858">
        <ele>835</ele>
        <time>2013-09-05T13:46:53Z</time>
      </trkpt>
      <trkpt lat="44.08853" lon="7.07864">
        <ele>835</ele>
        <time>2013-09-05T13:46:54Z</time>
      </trkpt>
      <trkpt lat="44.08846" lon="7.07871">
        <ele>834.1</ele>
        <time>2013-09-05T13:46:55Z</time>
      </trkpt>
      <trkpt lat="44.0884" lon="7.0788">
        <ele>834.1</ele>
        <time>2013-09-05T13:46:56Z</time>
      </trkpt>
      <trkpt lat="44.08834" lon="7.0789">
        <ele>833.1</ele>
        <time>2013-09-05T13:46:57Z</time>
      </trkpt>
      <trkpt lat="44.08821" lon="7.07918">
        <ele>830.2</ele>
        <time>2013-09-05T13:47:00Z</time>
      </trkpt>
      <trkpt lat="44.08818" lon="7.07931">
        <ele>829.8</ele>
        <time>2013-09-05T13:47:01Z</time>
      </trkpt>
      <trkpt lat="44.08808" lon="7.07962">
        <ele>827.4</ele>
        <time>2013-09-05T13:47:04Z</time>
      </trkpt>
      <trkpt lat="44.088" lon="7.0798">
        <ele>826.4</ele>
        <time>2013-09-05T13:47:06Z</time>
      </trkpt>
      <trkpt lat="44.08798" lon="7.0799">
        <ele>825.9</ele>
        <time>2013-09-05T13:47:07Z</time>
      </trkpt>
      <trkpt lat="44.08797" lon="7.08001">
        <ele>825.4</ele>
        <time>2013-09-05T13:47:08Z</time>
      </trkpt>
      <trkpt lat="44.08797" lon="7.08024">
        <ele>823.5</ele>
        <time>2013-09-05T13:47:10Z</time>
      </trkpt>
      <trkpt lat="44.08796" lon="7.08036">
        <ele>822.6</ele>
        <time>2013-09-05T13:47:11Z</time>
      </trkpt>
      <trkpt lat="44.08788" lon="7.08074">
        <ele>819.2</ele>
        <time>2013-09-05T13:47:14Z</time>
      </trkpt>
      <trkpt lat="44.08769" lon="7.08128">
        <ele>815.8</ele>
        <time>2013-09-05T13:47:19Z</time>
      </trkpt>
      <trkpt lat="44.08755" lon="7.08171">
        <ele>812.9</ele>
        <time>2013-09-05T13:47:23Z</time>
      </trkpt>
      <trkpt lat="44.08749" lon="7.08186">
        <ele>812</ele>
        <time>2013-09-05T13:47:24Z</time>
      </trkpt>
      <trkpt lat="44.08743" lon="7.08194">
        <ele>811.5</ele>
        <time>2013-09-05T13:47:25Z</time>
      </trkpt>
      <trkpt lat="44.08737" lon="7.08201">
        <ele>810.5</ele>
        <time>2013-09-05T13:47:26Z</time>
      </trkpt>
      <trkpt lat="44.08731" lon="7.08207">
        <ele>809.6</ele>
        <time>2013-09-05T13:47:27Z</time>
      </trkpt>
      <trkpt lat="44.08725" lon="7.08212">
        <ele>809.6</ele>
        <time>2013-09-05T13:47:28Z</time>
      </trkpt>
      <trkpt lat="44.08718" lon="7.08215">
        <ele>808.6</ele>
        <time>2013-09-05T13:47:29Z</time>
      </trkpt>
      <trkpt lat="44.08713" lon="7.08219">
        <ele>808.6</ele>
        <time>2013-09-05T13:47:30Z</time>
      </trkpt>
      <trkpt lat="44.08709" lon="7.08223">
        <ele>807.6</ele>
        <time>2013-09-05T13:47:31Z</time>
      </trkpt>
      <trkpt lat="44.08702" lon="7.08235">
        <ele>806.2</ele>
        <time>2013-09-05T13:47:33Z</time>
      </trkpt>
      <trkpt lat="44.08691" lon="7.08271">
        <ele>803.3</ele>
        <time>2013-09-05T13:47:38Z</time>
      </trkpt>
      <trkpt lat="44.08687" lon="7.08288">
        <ele>802.8</ele>
        <time>2013-09-05T13:47:40Z</time>
      </trkpt>
      <trkpt lat="44.08681" lon="7.08303">
        <ele>801.9</ele>
        <time>2013-09-05T13:47:42Z</time>
      </trkpt>
      <trkpt lat="44.08655" lon="7.08344">
        <ele>799</ele>
        <time>2013-09-05T13:47:47Z</time>
      </trkpt>
      <trkpt lat="44.08629" lon="7.08382">
        <ele>796.6</ele>
        <time>2013-09-05T13:47:51Z</time>
      </trkpt>
      <trkpt lat="44.08617" lon="7.08403">
        <ele>794.7</ele>
        <time>2013-09-05T13:47:53Z</time>
      </trkpt>
      <trkpt lat="44.0861" lon="7.08413">
        <ele>794.7</ele>
        <time>2013-09-05T13:47:54Z</time>
      </trkpt>
      <trkpt lat="44.08583" lon="7.08442">
        <ele>791.8</ele>
        <time>2013-09-05T13:47:58Z</time>
      </trkpt>
      <trkpt lat="44.08576" lon="7.08446">
        <ele>791.8</ele>
        <time>2013-09-05T13:47:59Z</time>
      </trkpt>
      <trkpt lat="44.08545" lon="7.08467">
        <ele>788.4</ele>
        <time>2013-09-05T13:48:04Z</time>
      </trkpt>
      <trkpt lat="44.08516" lon="7.08489">
        <ele>785.5</ele>
        <time>2013-09-05T13:48:13Z</time>
      </trkpt>
      <trkpt lat="44.0851" lon="7.08492">
        <ele>786</ele>
        <time>2013-09-05T13:48:27Z</time>
      </trkpt>
      <trkpt lat="44.08509" lon="7.08494">
        <ele>785.5</ele>
        <time>2013-09-05T13:48:29Z</time>
      </trkpt>
      <trkpt lat="44.08515" lon="7.08509">
        <ele>784.6</ele>
        <time>2013-09-05T13:48:34Z</time>
      </trkpt>
      <trkpt lat="44.08522" lon="7.08582">
        <ele>780.7</ele>
        <time>2013-09-05T13:48:43Z</time>
      </trkpt>
      <trkpt lat="44.08526" lon="7.08609">
        <ele>779.3</ele>
        <time>2013-09-05T13:48:47Z</time>
      </trkpt>
      <trkpt lat="44.0853" lon="7.08624">
        <ele>777.8</ele>
        <time>2013-09-05T13:48:49Z</time>
      </trkpt>
      <trkpt lat="44.08531" lon="7.08632">
        <ele>777.8</ele>
        <time>2013-09-05T13:48:50Z</time>
      </trkpt>
      <trkpt lat="44.08531" lon="7.08641">
        <ele>777.4</ele>
        <time>2013-09-05T13:48:51Z</time>
      </trkpt>
      <trkpt lat="44.08529" lon="7.0865">
        <ele>776.9</ele>
        <time>2013-09-05T13:48:52Z</time>
      </trkpt>
      <trkpt lat="44.08528" lon="7.08659">
        <ele>776.4</ele>
        <time>2013-09-05T13:48:53Z</time>
      </trkpt>
      <trkpt lat="44.08529" lon="7.08669">
        <ele>776.4</ele>
        <time>2013-09-05T13:48:54Z</time>
      </trkpt>
      <trkpt lat="44.0853" lon="7.08678">
        <ele>775</ele>
        <time>2013-09-05T13:48:55Z</time>
      </trkpt>
      <trkpt lat="44.08532" lon="7.08688">
        <ele>774.5</ele>
        <time>2013-09-05T13:48:56Z</time>
      </trkpt>
      <trkpt lat="44.08544" lon="7.08748">
        <ele>771.1</ele>
        <time>2013-09-05T13:49:02Z</time>
      </trkpt>
      <trkpt lat="44.08544" lon="7.08759">
        <ele>771.1</ele>
        <time>2013-09-05T13:49:03Z</time>
      </trkpt>
      <trkpt lat="44.08538" lon="7.08791">
        <ele>769.2</ele>
        <time>2013-09-05T13:49:06Z</time>
      </trkpt>
      <trkpt lat="44.08535" lon="7.08823">
        <ele>767.3</ele>
        <time>2013-09-05T13:49:09Z</time>
      </trkpt>
      <trkpt lat="44.0853" lon="7.08864">
        <ele>764.9</ele>
        <time>2013-09-05T13:49:13Z</time>
      </trkpt>
      <trkpt lat="44.08527" lon="7.08875">
        <ele>763.9</ele>
        <time>2013-09-05T13:49:14Z</time>
      </trkpt>
      <trkpt lat="44.08524" lon="7.08886">
        <ele>763.4</ele>
        <time>2013-09-05T13:49:15Z</time>
      </trkpt>
      <trkpt lat="44.08518" lon="7.08914">
        <ele>762</ele>
        <time>2013-09-05T13:49:18Z</time>
      </trkpt>
      <trkpt lat="44.08519" lon="7.08923">
        <ele>761.5</ele>
        <time>2013-09-05T13:49:19Z</time>
      </trkpt>
      <trkpt lat="44.08522" lon="7.08931">
        <ele>760.5</ele>
        <time>2013-09-05T13:49:20Z</time>
      </trkpt>
      <trkpt lat="44.08527" lon="7.08938">
        <ele>760.5</ele>
        <time>2013-09-05T13:49:21Z</time>
      </trkpt>
      <trkpt lat="44.08532" lon="7.08944">
        <ele>760.1</ele>
        <time>2013-09-05T13:49:22Z</time>
      </trkpt>
      <trkpt lat="44.08536" lon="7.08948">
        <ele>759.6</ele>
        <time>2013-09-05T13:49:23Z</time>
      </trkpt>
      <trkpt lat="44.0854" lon="7.08952">
        <ele>759.1</ele>
        <time>2013-09-05T13:49:24Z</time>
      </trkpt>
      <trkpt lat="44.08544" lon="7.08956">
        <ele>758.6</ele>
        <time>2013-09-05T13:49:25Z</time>
      </trkpt>
      <trkpt lat="44.08562" lon="7.08966">
        <ele>756.2</ele>
        <time>2013-09-05T13:49:34Z</time>
      </trkpt>
      <trkpt lat="44.08574" lon="7.08971">
        <ele>754.8</ele>
        <time>2013-09-05T13:49:46Z</time>
      </trkpt>
      <trkpt lat="44.08575" lon="7.08974">
        <ele>754.3</ele>
        <time>2013-09-05T13:49:48Z</time>
      </trkpt>
      <trkpt lat="44.08583" lon="7.08993">
        <ele>750.9</ele>
        <time>2013-09-05T13:49:59Z</time>
      </trkpt>
      <trkpt lat="44.08585" lon="7.08998">
        <ele>749</ele>
        <time>2013-09-05T13:50:02Z</time>
      </trkpt>
      <trkpt lat="44.08621" lon="7.09069">
        <ele>748</ele>
        <time>2013-09-05T13:50:03Z</time>
      </trkpt>
      <trkpt lat="44.08633" lon="7.09091">
        <ele>747.6</ele>
        <time>2013-09-05T13:50:05Z</time>
      </trkpt>
      <trkpt lat="44.08636" lon="7.09103">
        <ele>746.6</ele>
        <time>2013-09-05T13:50:06Z</time>
      </trkpt>
      <trkpt lat="44.08638" lon="7.09116">
        <ele>746.1</ele>
        <time>2013-09-05T13:50:07Z</time>
      </trkpt>
      <trkpt lat="44.08641" lon="7.09128">
        <ele>745.6</ele>
        <time>2013-09-05T13:50:08Z</time>
      </trkpt>
      <trkpt lat="44.08644" lon="7.0914">
        <ele>744.7</ele>
        <time>2013-09-05T13:50:09Z</time>
      </trkpt>
      <trkpt lat="44.08647" lon="7.09151">
        <ele>744.7</ele>
        <time>2013-09-05T13:50:10Z</time>
      </trkpt>
      <trkpt lat="44.08649" lon="7.09162">
        <ele>744.2</ele>
        <time>2013-09-05T13:50:11Z</time>
      </trkpt>
      <trkpt lat="44.08648" lon="7.09174">
        <ele>743.7</ele>
        <time>2013-09-05T13:50:12Z</time>
      </trkpt>
      <trkpt lat="44.08646" lon="7.09185">
        <ele>742.8</ele>
        <time>2013-09-05T13:50:13Z</time>
      </trkpt>
      <trkpt lat="44.08639" lon="7.0922">
        <ele>740.8</ele>
        <time>2013-09-05T13:50:16Z</time>
      </trkpt>
      <trkpt lat="44.08633" lon="7.09268">
        <ele>738</ele>
        <time>2013-09-05T13:50:20Z</time>
      </trkpt>
      <trkpt lat="44.08633" lon="7.09279">
        <ele>737</ele>
        <time>2013-09-05T13:50:21Z</time>
      </trkpt>
      <trkpt lat="44.08635" lon="7.09289">
        <ele>736.5</ele>
        <time>2013-09-05T13:50:22Z</time>
      </trkpt>
      <trkpt lat="44.08638" lon="7.09297">
        <ele>735.6</ele>
        <time>2013-09-05T13:50:23Z</time>
      </trkpt>
      <trkpt lat="44.08644" lon="7.09305">
        <ele>735.1</ele>
        <time>2013-09-05T13:50:24Z</time>
      </trkpt>
      <trkpt lat="44.08649" lon="7.09313">
        <ele>733.6</ele>
        <time>2013-09-05T13:50:25Z</time>
      </trkpt>
      <trkpt lat="44.08653" lon="7.09322">
        <ele>733.1</ele>
        <time>2013-09-05T13:50:26Z</time>
      </trkpt>
      <trkpt lat="44.08656" lon="7.09332">
        <ele>733.1</ele>
        <time>2013-09-05T13:50:27Z</time>
      </trkpt>
      <trkpt lat="44.08657" lon="7.09342">
        <ele>732.7</ele>
        <time>2013-09-05T13:50:28Z</time>
      </trkpt>
      <trkpt lat="44.08656" lon="7.09353">
        <ele>731.7</ele>
        <time>2013-09-05T13:50:29Z</time>
      </trkpt>
      <trkpt lat="44.08654" lon="7.09363">
        <ele>731.7</ele>
        <time>2013-09-05T13:50:30Z</time>
      </trkpt>
      <trkpt lat="44.08651" lon="7.09372">
        <ele>730.7</ele>
        <time>2013-09-05T13:50:31Z</time>
      </trkpt>
      <trkpt lat="44.08646" lon="7.09381">
        <ele>730.3</ele>
        <time>2013-09-05T13:50:32Z</time>
      </trkpt>
      <trkpt lat="44.08642" lon="7.09391">
        <ele>729.3</ele>
        <time>2013-09-05T13:50:33Z</time>
      </trkpt>
      <trkpt lat="44.08639" lon="7.09401">
        <ele>729.3</ele>
        <time>2013-09-05T13:50:34Z</time>
      </trkpt>
      <trkpt lat="44.08633" lon="7.09431">
        <ele>727.4</ele>
        <time>2013-09-05T13:50:37Z</time>
      </trkpt>
      <trkpt lat="44.08628" lon="7.09449">
        <ele>725.9</ele>
        <time>2013-09-05T13:50:39Z</time>
      </trkpt>
      <trkpt lat="44.08625" lon="7.09457">
        <ele>725.5</ele>
        <time>2013-09-05T13:50:40Z</time>
      </trkpt>
      <trkpt lat="44.08617" lon="7.09474">
        <ele>724</ele>
        <time>2013-09-05T13:50:43Z</time>
      </trkpt>
      <trkpt lat="44.08597" lon="7.09509">
        <ele>721.1</ele>
        <time>2013-09-05T13:50:54Z</time>
      </trkpt>
      <trkpt lat="44.08594" lon="7.09513">
        <ele>720.7</ele>
        <time>2013-09-05T13:50:55Z</time>
      </trkpt>
      <trkpt lat="44.08591" lon="7.09518">
        <ele>720.2</ele>
        <time>2013-09-05T13:50:56Z</time>
      </trkpt>
      <trkpt lat="44.08556" lon="7.09572">
        <ele>716.8</ele>
        <time>2013-09-05T13:51:04Z</time>
      </trkpt>
      <trkpt lat="44.08528" lon="7.09614">
        <ele>714.4</ele>
        <time>2013-09-05T13:51:09Z</time>
      </trkpt>
      <trkpt lat="44.08504" lon="7.09644">
        <ele>711.5</ele>
        <time>2013-09-05T13:51:13Z</time>
      </trkpt>
      <trkpt lat="44.08497" lon="7.09647">
        <ele>710.6</ele>
        <time>2013-09-05T13:51:14Z</time>
      </trkpt>
      <trkpt lat="44.08482" lon="7.09648">
        <ele>709.1</ele>
        <time>2013-09-05T13:51:16Z</time>
      </trkpt>
      <trkpt lat="44.08474" lon="7.09652">
        <ele>708.6</ele>
        <time>2013-09-05T13:51:17Z</time>
      </trkpt>
      <trkpt lat="44.08468" lon="7.09657">
        <ele>708.2</ele>
        <time>2013-09-05T13:51:18Z</time>
      </trkpt>
      <trkpt lat="44.08462" lon="7.09665">
        <ele>707.7</ele>
        <time>2013-09-05T13:51:19Z</time>
      </trkpt>
      <trkpt lat="44.08456" lon="7.09675">
        <ele>707.2</ele>
        <time>2013-09-05T13:51:20Z</time>
      </trkpt>
      <trkpt lat="44.08452" lon="7.09686">
        <ele>706.7</ele>
        <time>2013-09-05T13:51:21Z</time>
      </trkpt>
      <trkpt lat="44.08448" lon="7.09697">
        <ele>705.8</ele>
        <time>2013-09-05T13:51:22Z</time>
      </trkpt>
      <trkpt lat="44.08432" lon="7.09743">
        <ele>702.4</ele>
        <time>2013-09-05T13:51:26Z</time>
      </trkpt>
      <trkpt lat="44.08427" lon="7.09753">
        <ele>701.9</ele>
        <time>2013-09-05T13:51:27Z</time>
      </trkpt>
      <trkpt lat="44.08421" lon="7.09762">
        <ele>701.4</ele>
        <time>2013-09-05T13:51:28Z</time>
      </trkpt>
      <trkpt lat="44.08408" lon="7.09776">
        <ele>699.5</ele>
        <time>2013-09-05T13:51:30Z</time>
      </trkpt>
      <trkpt lat="44.08401" lon="7.09781">
        <ele>699.5</ele>
        <time>2013-09-05T13:51:31Z</time>
      </trkpt>
      <trkpt lat="44.08393" lon="7.09785">
        <ele>699</ele>
        <time>2013-09-05T13:51:32Z</time>
      </trkpt>
      <trkpt lat="44.08379" lon="7.09791">
        <ele>697.6</ele>
        <time>2013-09-05T13:51:34Z</time>
      </trkpt>
      <trkpt lat="44.08375" lon="7.09795">
        <ele>697.1</ele>
        <time>2013-09-05T13:51:35Z</time>
      </trkpt>
      <trkpt lat="44.08371" lon="7.098">
        <ele>696.1</ele>
        <time>2013-09-05T13:51:36Z</time>
      </trkpt>
      <trkpt lat="44.08368" lon="7.09806">
        <ele>696.1</ele>
        <time>2013-09-05T13:51:37Z</time>
      </trkpt>
      <trkpt lat="44.08367" lon="7.09814">
        <ele>695.2</ele>
        <time>2013-09-05T13:51:38Z</time>
      </trkpt>
      <trkpt lat="44.08366" lon="7.09822">
        <ele>694.7</ele>
        <time>2013-09-05T13:51:39Z</time>
      </trkpt>
      <trkpt lat="44.08366" lon="7.09831">
        <ele>694.7</ele>
        <time>2013-09-05T13:51:40Z</time>
      </trkpt>
      <trkpt lat="44.08367" lon="7.0984">
        <ele>694.7</ele>
        <time>2013-09-05T13:51:41Z</time>
      </trkpt>
      <trkpt lat="44.08368" lon="7.09849">
        <ele>694.7</ele>
        <time>2013-09-05T13:51:42Z</time>
      </trkpt>
      <trkpt lat="44.0837" lon="7.09858">
        <ele>694.2</ele>
        <time>2013-09-05T13:51:43Z</time>
      </trkpt>
      <trkpt lat="44.08374" lon="7.09864">
        <ele>693.3</ele>
        <time>2013-09-05T13:51:44Z</time>
      </trkpt>
      <trkpt lat="44.0838" lon="7.09868">
        <ele>692.8</ele>
        <time>2013-09-05T13:51:45Z</time>
      </trkpt>
      <trkpt lat="44.08387" lon="7.09868">
        <ele>691.8</ele>
        <time>2013-09-05T13:51:46Z</time>
      </trkpt>
      <trkpt lat="44.08393" lon="7.09868">
        <ele>691.8</ele>
        <time>2013-09-05T13:51:47Z</time>
      </trkpt>
      <trkpt lat="44.084" lon="7.09867">
        <ele>690.8</ele>
        <time>2013-09-05T13:51:48Z</time>
      </trkpt>
      <trkpt lat="44.08407" lon="7.09868">
        <ele>690.4</ele>
        <time>2013-09-05T13:51:49Z</time>
      </trkpt>
      <trkpt lat="44.08413" lon="7.09869">
        <ele>689.4</ele>
        <time>2013-09-05T13:51:50Z</time>
      </trkpt>
      <trkpt lat="44.08435" lon="7.09876">
        <ele>687</ele>
        <time>2013-09-05T13:51:54Z</time>
      </trkpt>
      <trkpt lat="44.08441" lon="7.09878">
        <ele>687</ele>
        <time>2013-09-05T13:51:55Z</time>
      </trkpt>
      <trkpt lat="44.08446" lon="7.09881">
        <ele>686.5</ele>
        <time>2013-09-05T13:51:56Z</time>
      </trkpt>
      <trkpt lat="44.0845" lon="7.09886">
        <ele>685.6</ele>
        <time>2013-09-05T13:51:57Z</time>
      </trkpt>
      <trkpt lat="44.08455" lon="7.0989">
        <ele>685.1</ele>
        <time>2013-09-05T13:51:58Z</time>
      </trkpt>
      <trkpt lat="44.08459" lon="7.09895">
        <ele>684.6</ele>
        <time>2013-09-05T13:51:59Z</time>
      </trkpt>
      <trkpt lat="44.08467" lon="7.09903">
        <ele>684.1</ele>
        <time>2013-09-05T13:52:01Z</time>
      </trkpt>
      <trkpt lat="44.08472" lon="7.09907">
        <ele>683.2</ele>
        <time>2013-09-05T13:52:02Z</time>
      </trkpt>
      <trkpt lat="44.08477" lon="7.0991">
        <ele>683.2</ele>
        <time>2013-09-05T13:52:03Z</time>
      </trkpt>
      <trkpt lat="44.08483" lon="7.09912">
        <ele>682.7</ele>
        <time>2013-09-05T13:52:04Z</time>
      </trkpt>
      <trkpt lat="44.08488" lon="7.09915">
        <ele>681.7</ele>
        <time>2013-09-05T13:52:05Z</time>
      </trkpt>
      <trkpt lat="44.08493" lon="7.09918">
        <ele>681.7</ele>
        <time>2013-09-05T13:52:06Z</time>
      </trkpt>
      <trkpt lat="44.08498" lon="7.09921">
        <ele>681.2</ele>
        <time>2013-09-05T13:52:07Z</time>
      </trkpt>
      <trkpt lat="44.08503" lon="7.09925">
        <ele>680.8</ele>
        <time>2013-09-05T13:52:08Z</time>
      </trkpt>
      <trkpt lat="44.08509" lon="7.09931">
        <ele>680.3</ele>
        <time>2013-09-05T13:52:09Z</time>
      </trkpt>
      <trkpt lat="44.08513" lon="7.09937">
        <ele>679.3</ele>
        <time>2013-09-05T13:52:10Z</time>
      </trkpt>
      <trkpt lat="44.08519" lon="7.09945">
        <ele>679.3</ele>
        <time>2013-09-05T13:52:11Z</time>
      </trkpt>
      <trkpt lat="44.08542" lon="7.09972">
        <ele>677.4</ele>
        <time>2013-09-05T13:52:15Z</time>
      </trkpt>
      <trkpt lat="44.08549" lon="7.09977">
        <ele>676.9</ele>
        <time>2013-09-05T13:52:16Z</time>
      </trkpt>
      <trkpt lat="44.08557" lon="7.0998">
        <ele>675.9</ele>
        <time>2013-09-05T13:52:17Z</time>
      </trkpt>
      <trkpt lat="44.08565" lon="7.09983">
        <ele>675.5</ele>
        <time>2013-09-05T13:52:18Z</time>
      </trkpt>
      <trkpt lat="44.08572" lon="7.09987">
        <ele>674.5</ele>
        <time>2013-09-05T13:52:19Z</time>
      </trkpt>
      <trkpt lat="44.08579" lon="7.09995">
        <ele>674</ele>
        <time>2013-09-05T13:52:20Z</time>
      </trkpt>
      <trkpt lat="44.08584" lon="7.10004">
        <ele>673.1</ele>
        <time>2013-09-05T13:52:21Z</time>
      </trkpt>
      <trkpt lat="44.08589" lon="7.10015">
        <ele>672.1</ele>
        <time>2013-09-05T13:52:22Z</time>
      </trkpt>
      <trkpt lat="44.08593" lon="7.10026">
        <ele>671.1</ele>
        <time>2013-09-05T13:52:23Z</time>
      </trkpt>
      <trkpt lat="44.0861" lon="7.10057">
        <ele>669.2</ele>
        <time>2013-09-05T13:52:26Z</time>
      </trkpt>
      <trkpt lat="44.08623" lon="7.10074">
        <ele>667.3</ele>
        <time>2013-09-05T13:52:28Z</time>
      </trkpt>
      <trkpt lat="44.08627" lon="7.10084">
        <ele>666.8</ele>
        <time>2013-09-05T13:52:29Z</time>
      </trkpt>
      <trkpt lat="44.08629" lon="7.10095">
        <ele>665.9</ele>
        <time>2013-09-05T13:52:30Z</time>
      </trkpt>
      <trkpt lat="44.08631" lon="7.10106">
        <ele>665.9</ele>
        <time>2013-09-05T13:52:31Z</time>
      </trkpt>
      <trkpt lat="44.08631" lon="7.10118">
        <ele>665.4</ele>
        <time>2013-09-05T13:52:32Z</time>
      </trkpt>
      <trkpt lat="44.08632" lon="7.10131">
        <ele>663.9</ele>
        <time>2013-09-05T13:52:33Z</time>
      </trkpt>
      <trkpt lat="44.08634" lon="7.10144">
        <ele>663.5</ele>
        <time>2013-09-05T13:52:34Z</time>
      </trkpt>
      <trkpt lat="44.08644" lon="7.10192">
        <ele>661.5</ele>
        <time>2013-09-05T13:52:38Z</time>
      </trkpt>
      <trkpt lat="44.08648" lon="7.10202">
        <ele>660.6</ele>
        <time>2013-09-05T13:52:39Z</time>
      </trkpt>
      <trkpt lat="44.08653" lon="7.10211">
        <ele>660.1</ele>
        <time>2013-09-05T13:52:40Z</time>
      </trkpt>
      <trkpt lat="44.08658" lon="7.10218">
        <ele>659.1</ele>
        <time>2013-09-05T13:52:41Z</time>
      </trkpt>
      <trkpt lat="44.08665" lon="7.10224">
        <ele>658.2</ele>
        <time>2013-09-05T13:52:42Z</time>
      </trkpt>
      <trkpt lat="44.08672" lon="7.10229">
        <ele>658.2</ele>
        <time>2013-09-05T13:52:43Z</time>
      </trkpt>
      <trkpt lat="44.08677" lon="7.10232">
        <ele>657.7</ele>
        <time>2013-09-05T13:52:44Z</time>
      </trkpt>
      <trkpt lat="44.08682" lon="7.10235">
        <ele>657.7</ele>
        <time>2013-09-05T13:52:45Z</time>
      </trkpt>
      <trkpt lat="44.08685" lon="7.10236">
        <ele>656.2</ele>
        <time>2013-09-05T13:52:46Z</time>
      </trkpt>
      <trkpt lat="44.08689" lon="7.10237">
        <ele>656.7</ele>
        <time>2013-09-05T13:52:47Z</time>
      </trkpt>
      <trkpt lat="44.08698" lon="7.10239">
        <ele>655.8</ele>
        <time>2013-09-05T13:52:57Z</time>
      </trkpt>
      <trkpt lat="44.08723" lon="7.10234">
        <ele>654.3</ele>
        <time>2013-09-05T13:53:07Z</time>
      </trkpt>
      <trkpt lat="44.08762" lon="7.10223">
        <ele>650.5</ele>
        <time>2013-09-05T13:53:14Z</time>
      </trkpt>
      <trkpt lat="44.08767" lon="7.10223">
        <ele>650</ele>
        <time>2013-09-05T13:53:15Z</time>
      </trkpt>
      <trkpt lat="44.08772" lon="7.10223">
        <ele>649.5</ele>
        <time>2013-09-05T13:53:16Z</time>
      </trkpt>
      <trkpt lat="44.08778" lon="7.10226">
        <ele>649</ele>
        <time>2013-09-05T13:53:17Z</time>
      </trkpt>
      <trkpt lat="44.08783" lon="7.10231">
        <ele>649</ele>
        <time>2013-09-05T13:53:18Z</time>
      </trkpt>
      <trkpt lat="44.08787" lon="7.10237">
        <ele>648.6</ele>
        <time>2013-09-05T13:53:19Z</time>
      </trkpt>
      <trkpt lat="44.08792" lon="7.10244">
        <ele>648.1</ele>
        <time>2013-09-05T13:53:20Z</time>
      </trkpt>
      <trkpt lat="44.08797" lon="7.10251">
        <ele>647.1</ele>
        <time>2013-09-05T13:53:21Z</time>
      </trkpt>
      <trkpt lat="44.08813" lon="7.10272">
        <ele>644.7</ele>
        <time>2013-09-05T13:53:24Z</time>
      </trkpt>
      <trkpt lat="44.0882" lon="7.10276">
        <ele>644.2</ele>
        <time>2013-09-05T13:53:25Z</time>
      </trkpt>
      <trkpt lat="44.08827" lon="7.10278">
        <ele>643.3</ele>
        <time>2013-09-05T13:53:26Z</time>
      </trkpt>
      <trkpt lat="44.08833" lon="7.10278">
        <ele>642.8</ele>
        <time>2013-09-05T13:53:27Z</time>
      </trkpt>
      <trkpt lat="44.0884" lon="7.10281">
        <ele>642.3</ele>
        <time>2013-09-05T13:53:28Z</time>
      </trkpt>
      <trkpt lat="44.08846" lon="7.10287">
        <ele>641.3</ele>
        <time>2013-09-05T13:53:29Z</time>
      </trkpt>
      <trkpt lat="44.08852" lon="7.10293">
        <ele>641.3</ele>
        <time>2013-09-05T13:53:30Z</time>
      </trkpt>
      <trkpt lat="44.08861" lon="7.10303">
        <ele>640.9</ele>
        <time>2013-09-05T13:53:32Z</time>
      </trkpt>
      <trkpt lat="44.08864" lon="7.10307">
        <ele>640.4</ele>
        <time>2013-09-05T13:53:33Z</time>
      </trkpt>
      <trkpt lat="44.08866" lon="7.1031">
        <ele>639.4</ele>
        <time>2013-09-05T13:53:34Z</time>
      </trkpt>
      <trkpt lat="44.08867" lon="7.10316">
        <ele>639.4</ele>
        <time>2013-09-05T13:53:36Z</time>
      </trkpt>
      <trkpt lat="44.08866" lon="7.10319">
        <ele>638.5</ele>
        <time>2013-09-05T13:53:37Z</time>
      </trkpt>
      <trkpt lat="44.08864" lon="7.10322">
        <ele>638.5</ele>
        <time>2013-09-05T13:53:38Z</time>
      </trkpt>
      <trkpt lat="44.08862" lon="7.10324">
        <ele>638</ele>
        <time>2013-09-05T13:53:39Z</time>
      </trkpt>
      <trkpt lat="44.08859" lon="7.10324">
        <ele>637.5</ele>
        <time>2013-09-05T13:53:40Z</time>
      </trkpt>
      <trkpt lat="44.08857" lon="7.10322">
        <ele>637</ele>
        <time>2013-09-05T13:53:41Z</time>
      </trkpt>
      <trkpt lat="44.08854" lon="7.10319">
        <ele>637</ele>
        <time>2013-09-05T13:53:42Z</time>
      </trkpt>
      <trkpt lat="44.08853" lon="7.10316">
        <ele>637</ele>
        <time>2013-09-05T13:53:43Z</time>
      </trkpt>
      <trkpt lat="44.08851" lon="7.10313">
        <ele>636.5</ele>
        <time>2013-09-05T13:53:44Z</time>
      </trkpt>
      <trkpt lat="44.08821" lon="7.10294">
        <ele>635.6</ele>
        <time>2013-09-05T13:53:54Z</time>
      </trkpt>
      <trkpt lat="44.08811" lon="7.10293">
        <ele>634.1</ele>
        <time>2013-09-05T13:53:56Z</time>
      </trkpt>
      <trkpt lat="44.08805" lon="7.10292">
        <ele>633.7</ele>
        <time>2013-09-05T13:53:57Z</time>
      </trkpt>
      <trkpt lat="44.08766" lon="7.10276">
        <ele>631.2</ele>
        <time>2013-09-05T13:54:03Z</time>
      </trkpt>
      <trkpt lat="44.08759" lon="7.10275">
        <ele>631.2</ele>
        <time>2013-09-05T13:54:04Z</time>
      </trkpt>
      <trkpt lat="44.08752" lon="7.10276">
        <ele>630.8</ele>
        <time>2013-09-05T13:54:05Z</time>
      </trkpt>
      <trkpt lat="44.08712" lon="7.10279">
        <ele>627.4</ele>
        <time>2013-09-05T13:54:10Z</time>
      </trkpt>
      <trkpt lat="44.08704" lon="7.10281">
        <ele>626.4</ele>
        <time>2013-09-05T13:54:11Z</time>
      </trkpt>
      <trkpt lat="44.08697" lon="7.10285">
        <ele>626</ele>
        <time>2013-09-05T13:54:12Z</time>
      </trkpt>
      <trkpt lat="44.0869" lon="7.1029">
        <ele>625.5</ele>
        <time>2013-09-05T13:54:13Z</time>
      </trkpt>
      <trkpt lat="44.08683" lon="7.10295">
        <ele>624.5</ele>
        <time>2013-09-05T13:54:14Z</time>
      </trkpt>
      <trkpt lat="44.08675" lon="7.10299">
        <ele>623.6</ele>
        <time>2013-09-05T13:54:15Z</time>
      </trkpt>
      <trkpt lat="44.08667" lon="7.10302">
        <ele>623.1</ele>
        <time>2013-09-05T13:54:16Z</time>
      </trkpt>
      <trkpt lat="44.08652" lon="7.10308">
        <ele>621.2</ele>
        <time>2013-09-05T13:54:18Z</time>
      </trkpt>
      <trkpt lat="44.08644" lon="7.10309">
        <ele>620.7</ele>
        <time>2013-09-05T13:54:19Z</time>
      </trkpt>
      <trkpt lat="44.08637" lon="7.10307">
        <ele>620.2</ele>
        <time>2013-09-05T13:54:20Z</time>
      </trkpt>
      <trkpt lat="44.0863" lon="7.10302">
        <ele>619.7</ele>
        <time>2013-09-05T13:54:21Z</time>
      </trkpt>
      <trkpt lat="44.08623" lon="7.10297">
        <ele>618.8</ele>
        <time>2013-09-05T13:54:22Z</time>
      </trkpt>
      <trkpt lat="44.08617" lon="7.10291">
        <ele>618.8</ele>
        <time>2013-09-05T13:54:23Z</time>
      </trkpt>
      <trkpt lat="44.08611" lon="7.10283">
        <ele>617.3</ele>
        <time>2013-09-05T13:54:24Z</time>
      </trkpt>
      <trkpt lat="44.08607" lon="7.10274">
        <ele>616.8</ele>
        <time>2013-09-05T13:54:25Z</time>
      </trkpt>
      <trkpt lat="44.08603" lon="7.10264">
        <ele>615.9</ele>
        <time>2013-09-05T13:54:26Z</time>
      </trkpt>
      <trkpt lat="44.08601" lon="7.10253">
        <ele>615.4</ele>
        <time>2013-09-05T13:54:27Z</time>
      </trkpt>
      <trkpt lat="44.08598" lon="7.10243">
        <ele>615.4</ele>
        <time>2013-09-05T13:54:28Z</time>
      </trkpt>
      <trkpt lat="44.08593" lon="7.10234">
        <ele>614.4</ele>
        <time>2013-09-05T13:54:29Z</time>
      </trkpt>
      <trkpt lat="44.08581" lon="7.10206">
        <ele>612</ele>
        <time>2013-09-05T13:54:32Z</time>
      </trkpt>
      <trkpt lat="44.08565" lon="7.10158">
        <ele>608.7</ele>
        <time>2013-09-05T13:54:37Z</time>
      </trkpt>
      <trkpt lat="44.08548" lon="7.10126">
        <ele>606.7</ele>
        <time>2013-09-05T13:54:41Z</time>
      </trkpt>
      <trkpt lat="44.08543" lon="7.10119">
        <ele>605.3</ele>
        <time>2013-09-05T13:54:42Z</time>
      </trkpt>
      <trkpt lat="44.08536" lon="7.10115">
        <ele>605.3</ele>
        <time>2013-09-05T13:54:43Z</time>
      </trkpt>
      <trkpt lat="44.08528" lon="7.10114">
        <ele>604.8</ele>
        <time>2013-09-05T13:54:44Z</time>
      </trkpt>
      <trkpt lat="44.08497" lon="7.10111">
        <ele>601.4</ele>
        <time>2013-09-05T13:54:48Z</time>
      </trkpt>
      <trkpt lat="44.0849" lon="7.1011">
        <ele>601.4</ele>
        <time>2013-09-05T13:54:49Z</time>
      </trkpt>
      <trkpt lat="44.08477" lon="7.10109">
        <ele>600</ele>
        <time>2013-09-05T13:54:51Z</time>
      </trkpt>
      <trkpt lat="44.08472" lon="7.10111">
        <ele>600</ele>
        <time>2013-09-05T13:54:52Z</time>
      </trkpt>
      <trkpt lat="44.08468" lon="7.10117">
        <ele>599.5</ele>
        <time>2013-09-05T13:54:53Z</time>
      </trkpt>
      <trkpt lat="44.08468" lon="7.10122">
        <ele>599</ele>
        <time>2013-09-05T13:54:54Z</time>
      </trkpt>
      <trkpt lat="44.08471" lon="7.10126">
        <ele>599</ele>
        <time>2013-09-05T13:54:55Z</time>
      </trkpt>
      <trkpt lat="44.08477" lon="7.10127">
        <ele>598.6</ele>
        <time>2013-09-05T13:54:56Z</time>
      </trkpt>
      <trkpt lat="44.08483" lon="7.10126">
        <ele>598.6</ele>
        <time>2013-09-05T13:54:57Z</time>
      </trkpt>
      <trkpt lat="44.08488" lon="7.10124">
        <ele>598.1</ele>
        <time>2013-09-05T13:54:58Z</time>
      </trkpt>
      <trkpt lat="44.08493" lon="7.10123">
        <ele>598.1</ele>
        <time>2013-09-05T13:54:59Z</time>
      </trkpt>
      <trkpt lat="44.08499" lon="7.10123">
        <ele>597.6</ele>
        <time>2013-09-05T13:55:00Z</time>
      </trkpt>
      <trkpt lat="44.08505" lon="7.10124">
        <ele>597.1</ele>
        <time>2013-09-05T13:55:01Z</time>
      </trkpt>
      <trkpt lat="44.08518" lon="7.10126">
        <ele>596.2</ele>
        <time>2013-09-05T13:55:03Z</time>
      </trkpt>
      <trkpt lat="44.08524" lon="7.1013">
        <ele>595.7</ele>
        <time>2013-09-05T13:55:04Z</time>
      </trkpt>
      <trkpt lat="44.0853" lon="7.10136">
        <ele>594.7</ele>
        <time>2013-09-05T13:55:05Z</time>
      </trkpt>
      <trkpt lat="44.08534" lon="7.10143">
        <ele>594.7</ele>
        <time>2013-09-05T13:55:06Z</time>
      </trkpt>
      <trkpt lat="44.08538" lon="7.10152">
        <ele>593.8</ele>
        <time>2013-09-05T13:55:07Z</time>
      </trkpt>
      <trkpt lat="44.0854" lon="7.10161">
        <ele>593.3</ele>
        <time>2013-09-05T13:55:08Z</time>
      </trkpt>
      <trkpt lat="44.0854" lon="7.1017">
        <ele>592.3</ele>
        <time>2013-09-05T13:55:09Z</time>
      </trkpt>
      <trkpt lat="44.0854" lon="7.10179">
        <ele>591.8</ele>
        <time>2013-09-05T13:55:10Z</time>
      </trkpt>
      <trkpt lat="44.08542" lon="7.10186">
        <ele>591.8</ele>
        <time>2013-09-05T13:55:11Z</time>
      </trkpt>
      <trkpt lat="44.08546" lon="7.10193">
        <ele>590.9</ele>
        <time>2013-09-05T13:55:12Z</time>
      </trkpt>
      <trkpt lat="44.08552" lon="7.10206">
        <ele>590.4</ele>
        <time>2013-09-05T13:55:14Z</time>
      </trkpt>
      <trkpt lat="44.08555" lon="7.10214">
        <ele>589.4</ele>
        <time>2013-09-05T13:55:15Z</time>
      </trkpt>
      <trkpt lat="44.08556" lon="7.10222">
        <ele>589</ele>
        <time>2013-09-05T13:55:16Z</time>
      </trkpt>
      <trkpt lat="44.08558" lon="7.1023">
        <ele>589</ele>
        <time>2013-09-05T13:55:17Z</time>
      </trkpt>
      <trkpt lat="44.0856" lon="7.10238">
        <ele>589</ele>
        <time>2013-09-05T13:55:18Z</time>
      </trkpt>
      <trkpt lat="44.08565" lon="7.10255">
        <ele>587.5</ele>
        <time>2013-09-05T13:55:20Z</time>
      </trkpt>
      <trkpt lat="44.08565" lon="7.10263">
        <ele>587.5</ele>
        <time>2013-09-05T13:55:21Z</time>
      </trkpt>
      <trkpt lat="44.08563" lon="7.10272">
        <ele>586.1</ele>
        <time>2013-09-05T13:55:22Z</time>
      </trkpt>
      <trkpt lat="44.08561" lon="7.10281">
        <ele>586.1</ele>
        <time>2013-09-05T13:55:23Z</time>
      </trkpt>
      <trkpt lat="44.08561" lon="7.10291">
        <ele>585.6</ele>
        <time>2013-09-05T13:55:24Z</time>
      </trkpt>
      <trkpt lat="44.08562" lon="7.103">
        <ele>585.1</ele>
        <time>2013-09-05T13:55:25Z</time>
      </trkpt>
      <trkpt lat="44.08565" lon="7.10308">
        <ele>584.6</ele>
        <time>2013-09-05T13:55:26Z</time>
      </trkpt>
      <trkpt lat="44.08568" lon="7.10314">
        <ele>584.1</ele>
        <time>2013-09-05T13:55:27Z</time>
      </trkpt>
      <trkpt lat="44.08585" lon="7.10346">
        <ele>582.2</ele>
        <time>2013-09-05T13:55:36Z</time>
      </trkpt>
      <trkpt lat="44.08592" lon="7.10356">
        <ele>581.3</ele>
        <time>2013-09-05T13:55:39Z</time>
      </trkpt>
      <trkpt lat="44.08595" lon="7.1036">
        <ele>581.3</ele>
        <time>2013-09-05T13:55:40Z</time>
      </trkpt>
      <trkpt lat="44.08612" lon="7.10377">
        <ele>579.8</ele>
        <time>2013-09-05T13:55:45Z</time>
      </trkpt>
      <trkpt lat="44.08616" lon="7.1038">
        <ele>578.9</ele>
        <time>2013-09-05T13:55:46Z</time>
      </trkpt>
      <trkpt lat="44.08619" lon="7.10382">
        <ele>578.4</ele>
        <time>2013-09-05T13:55:47Z</time>
      </trkpt>
      <trkpt lat="44.08624" lon="7.10384">
        <ele>577.9</ele>
        <time>2013-09-05T13:55:48Z</time>
      </trkpt>
      <trkpt lat="44.08628" lon="7.10385">
        <ele>577.9</ele>
        <time>2013-09-05T13:55:49Z</time>
      </trkpt>
      <trkpt lat="44.08632" lon="7.10384">
        <ele>577.4</ele>
        <time>2013-09-05T13:55:50Z</time>
      </trkpt>
      <trkpt lat="44.08638" lon="7.10383">
        <ele>576.9</ele>
        <time>2013-09-05T13:55:51Z</time>
      </trkpt>
      <trkpt lat="44.08655" lon="7.10379">
        <ele>576</ele>
        <time>2013-09-05T13:55:54Z</time>
      </trkpt>
      <trkpt lat="44.08661" lon="7.10376">
        <ele>575.5</ele>
        <time>2013-09-05T13:55:55Z</time>
      </trkpt>
      <trkpt lat="44.08674" lon="7.1037">
        <ele>574</ele>
        <time>2013-09-05T13:55:57Z</time>
      </trkpt>
      <trkpt lat="44.08681" lon="7.10368">
        <ele>573.6</ele>
        <time>2013-09-05T13:55:58Z</time>
      </trkpt>
      <trkpt lat="44.08688" lon="7.1037">
        <ele>573.1</ele>
        <time>2013-09-05T13:55:59Z</time>
      </trkpt>
      <trkpt lat="44.08695" lon="7.10374">
        <ele>572.6</ele>
        <time>2013-09-05T13:56:00Z</time>
      </trkpt>
      <trkpt lat="44.08701" lon="7.10379">
        <ele>572.1</ele>
        <time>2013-09-05T13:56:01Z</time>
      </trkpt>
      <trkpt lat="44.08734" lon="7.10405">
        <ele>569.2</ele>
        <time>2013-09-05T13:56:06Z</time>
      </trkpt>
      <trkpt lat="44.08768" lon="7.10436">
        <ele>565.9</ele>
        <time>2013-09-05T13:56:12Z</time>
      </trkpt>
      <trkpt lat="44.08773" lon="7.10443">
        <ele>564.9</ele>
        <time>2013-09-05T13:56:13Z</time>
      </trkpt>
      <trkpt lat="44.08782" lon="7.10458">
        <ele>564</ele>
        <time>2013-09-05T13:56:15Z</time>
      </trkpt>
      <trkpt lat="44.08785" lon="7.10468">
        <ele>563</ele>
        <time>2013-09-05T13:56:16Z</time>
      </trkpt>
      <trkpt lat="44.08787" lon="7.10478">
        <ele>562.5</ele>
        <time>2013-09-05T13:56:17Z</time>
      </trkpt>
      <trkpt lat="44.08789" lon="7.10488">
        <ele>561.6</ele>
        <time>2013-09-05T13:56:18Z</time>
      </trkpt>
      <trkpt lat="44.08791" lon="7.10498">
        <ele>561.1</ele>
        <time>2013-09-05T13:56:19Z</time>
      </trkpt>
      <trkpt lat="44.08794" lon="7.10508">
        <ele>560.6</ele>
        <time>2013-09-05T13:56:20Z</time>
      </trkpt>
      <trkpt lat="44.08798" lon="7.10517">
        <ele>560.1</ele>
        <time>2013-09-05T13:56:21Z</time>
      </trkpt>
      <trkpt lat="44.08811" lon="7.10546">
        <ele>558.7</ele>
        <time>2013-09-05T13:56:24Z</time>
      </trkpt>
      <trkpt lat="44.08838" lon="7.10601">
        <ele>555.3</ele>
        <time>2013-09-05T13:56:30Z</time>
      </trkpt>
      <trkpt lat="44.08843" lon="7.1061">
        <ele>554.3</ele>
        <time>2013-09-05T13:56:31Z</time>
      </trkpt>
      <trkpt lat="44.08849" lon="7.10618">
        <ele>553.9</ele>
        <time>2013-09-05T13:56:32Z</time>
      </trkpt>
      <trkpt lat="44.08855" lon="7.10625">
        <ele>552.9</ele>
        <time>2013-09-05T13:56:33Z</time>
      </trkpt>
      <trkpt lat="44.08861" lon="7.10631">
        <ele>552.9</ele>
        <time>2013-09-05T13:56:34Z</time>
      </trkpt>
      <trkpt lat="44.08867" lon="7.10636">
        <ele>551.9</ele>
        <time>2013-09-05T13:56:35Z</time>
      </trkpt>
      <trkpt lat="44.08873" lon="7.10641">
        <ele>551.9</ele>
        <time>2013-09-05T13:56:36Z</time>
      </trkpt>
      <trkpt lat="44.08878" lon="7.10647">
        <ele>551.5</ele>
        <time>2013-09-05T13:56:37Z</time>
      </trkpt>
      <trkpt lat="44.08882" lon="7.10653">
        <ele>550.5</ele>
        <time>2013-09-05T13:56:38Z</time>
      </trkpt>
      <trkpt lat="44.08883" lon="7.10661">
        <ele>550</ele>
        <time>2013-09-05T13:56:39Z</time>
      </trkpt>
      <trkpt lat="44.08884" lon="7.10668">
        <ele>550</ele>
        <time>2013-09-05T13:56:40Z</time>
      </trkpt>
      <trkpt lat="44.0888" lon="7.10677">
        <ele>550</ele>
        <time>2013-09-05T13:56:41Z</time>
      </trkpt>
      <trkpt lat="44.08868" lon="7.10705">
        <ele>549.1</ele>
        <time>2013-09-05T13:56:45Z</time>
      </trkpt>
      <trkpt lat="44.08864" lon="7.10711">
        <ele>549.1</ele>
        <time>2013-09-05T13:56:46Z</time>
      </trkpt>
      <trkpt lat="44.0886" lon="7.10714">
        <ele>549.1</ele>
        <time>2013-09-05T13:56:47Z</time>
      </trkpt>
      <trkpt lat="44.08856" lon="7.10715">
        <ele>549.1</ele>
        <time>2013-09-05T13:56:48Z</time>
      </trkpt>
      <trkpt lat="44.08852" lon="7.10715">
        <ele>549.1</ele>
        <time>2013-09-05T13:56:49Z</time>
      </trkpt>
      <trkpt lat="44.08848" lon="7.10713">
        <ele>549.5</ele>
        <time>2013-09-05T13:56:50Z</time>
      </trkpt>
      <trkpt lat="44.08811" lon="7.10701">
        <ele>550.5</ele>
        <time>2013-09-05T13:57:03Z</time>
      </trkpt>
      <trkpt lat="44.08769" lon="7.10677">
        <ele>551.5</ele>
        <time>2013-09-05T13:57:20Z</time>
      </trkpt>
      <trkpt lat="44.08733" lon="7.10643">
        <ele>552.9</ele>
        <time>2013-09-05T13:57:34Z</time>
      </trkpt>
      <trkpt lat="44.08705" lon="7.10607">
        <ele>553.4</ele>
        <time>2013-09-05T13:57:46Z</time>
      </trkpt>
      <trkpt lat="44.08644" lon="7.10601">
        <ele>553.4</ele>
        <time>2013-09-05T13:58:02Z</time>
      </trkpt>
      <trkpt lat="44.08597" lon="7.10613">
        <ele>551.9</ele>
        <time>2013-09-05T13:58:16Z</time>
      </trkpt>
      <trkpt lat="44.08558" lon="7.10626">
        <ele>548.6</ele>
        <time>2013-09-05T13:58:24Z</time>
      </trkpt>
      <trkpt lat="44.08477" lon="7.10625">
        <ele>545.2</ele>
        <time>2013-09-05T13:58:37Z</time>
      </trkpt>
      <trkpt lat="44.08471" lon="7.10623">
        <ele>544.7</ele>
        <time>2013-09-05T13:58:38Z</time>
      </trkpt>
      <trkpt lat="44.08465" lon="7.10619">
        <ele>544.7</ele>
        <time>2013-09-05T13:58:39Z</time>
      </trkpt>
      <trkpt lat="44.0846" lon="7.10615">
        <ele>545.2</ele>
        <time>2013-09-05T13:58:40Z</time>
      </trkpt>
      <trkpt lat="44.08455" lon="7.1061">
        <ele>544.2</ele>
        <time>2013-09-05T13:58:41Z</time>
      </trkpt>
      <trkpt lat="44.08451" lon="7.10603">
        <ele>544.2</ele>
        <time>2013-09-05T13:58:42Z</time>
      </trkpt>
      <trkpt lat="44.08447" lon="7.10596">
        <ele>543.8</ele>
        <time>2013-09-05T13:58:43Z</time>
      </trkpt>
      <trkpt lat="44.08444" lon="7.10588">
        <ele>544.2</ele>
        <time>2013-09-05T13:58:44Z</time>
      </trkpt>
      <trkpt lat="44.08442" lon="7.1058">
        <ele>544.2</ele>
        <time>2013-09-05T13:58:45Z</time>
      </trkpt>
      <trkpt lat="44.0844" lon="7.10571">
        <ele>543.8</ele>
        <time>2013-09-05T13:58:46Z</time>
      </trkpt>
      <trkpt lat="44.08435" lon="7.10554">
        <ele>541.8</ele>
        <time>2013-09-05T13:58:48Z</time>
      </trkpt>
      <trkpt lat="44.08432" lon="7.10547">
        <ele>541.8</ele>
        <time>2013-09-05T13:58:49Z</time>
      </trkpt>
      <trkpt lat="44.08424" lon="7.10525">
        <ele>540.4</ele>
        <time>2013-09-05T13:58:52Z</time>
      </trkpt>
      <trkpt lat="44.08415" lon="7.105">
        <ele>538.5</ele>
        <time>2013-09-05T13:58:56Z</time>
      </trkpt>
      <trkpt lat="44.08412" lon="7.10497">
        <ele>539</ele>
        <time>2013-09-05T13:58:57Z</time>
      </trkpt>
      <trkpt lat="44.08409" lon="7.10494">
        <ele>538.5</ele>
        <time>2013-09-05T13:58:58Z</time>
      </trkpt>
      <trkpt lat="44.08372" lon="7.10499">
        <ele>538.5</ele>
        <time>2013-09-05T13:59:09Z</time>
      </trkpt>
      <trkpt lat="44.08319" lon="7.10541">
        <ele>536.6</ele>
        <time>2013-09-05T13:59:25Z</time>
      </trkpt>
      <trkpt lat="44.08268" lon="7.1058">
        <ele>535.1</ele>
        <time>2013-09-05T13:59:39Z</time>
      </trkpt>
      <trkpt lat="44.08207" lon="7.10625">
        <ele>535.1</ele>
        <time>2013-09-05T13:59:54Z</time>
      </trkpt>
      <trkpt lat="44.08189" lon="7.10643">
        <ele>535.6</ele>
        <time>2013-09-05T13:59:59Z</time>
      </trkpt>
      <trkpt lat="44.08186" lon="7.10648">
        <ele>535.1</ele>
        <time>2013-09-05T14:00:00Z</time>
      </trkpt>
      <trkpt lat="44.08169" lon="7.10662">
        <ele>535.6</ele>
        <time>2013-09-05T14:00:09Z</time>
      </trkpt>
      <trkpt lat="44.0817" lon="7.10658">
        <ele>534.6</ele>
        <time>2013-09-05T14:00:22Z</time>
      </trkpt>
      <trkpt lat="44.08171" lon="7.10655">
        <ele>533.7</ele>
        <time>2013-09-05T14:00:41Z</time>
      </trkpt>
      <trkpt lat="44.08172" lon="7.10653">
        <ele>533.7</ele>
        <time>2013-09-05T14:00:54Z</time>
      </trkpt>
      <trkpt lat="44.08169" lon="7.10656">
        <ele>533.2</ele>
        <time>2013-09-05T14:01:06Z</time>
      </trkpt>
      <trkpt lat="44.08168" lon="7.10657">
        <ele>534.6</ele>
        <time>2013-09-05T14:01:20Z</time>
      </trkpt>
      <trkpt lat="44.08171" lon="7.10659">
        <ele>534.2</ele>
        <time>2013-09-05T14:01:35Z</time>
      </trkpt>
      <trkpt lat="44.08163" lon="7.10662">
        <ele>534.6</ele>
        <time>2013-09-05T14:01:50Z</time>
      </trkpt>
      <trkpt lat="44.08157" lon="7.10667">
        <ele>535.1</ele>
        <time>2013-09-05T14:01:56Z</time>
      </trkpt>
      <trkpt lat="44.08139" lon="7.10684">
        <ele>537.5</ele>
        <time>2013-09-05T14:02:16Z</time>
      </trkpt>
      <trkpt lat="44.08117" lon="7.10689">
        <ele>539.9</ele>
        <time>2013-09-05T14:02:34Z</time>
      </trkpt>
      <trkpt lat="44.08097" lon="7.10697">
        <ele>541.8</ele>
        <time>2013-09-05T14:02:51Z</time>
      </trkpt>
      <trkpt lat="44.08082" lon="7.10702">
        <ele>544.7</ele>
        <time>2013-09-05T14:03:05Z</time>
      </trkpt>
      <trkpt lat="44.08074" lon="7.10707">
        <ele>545.7</ele>
        <time>2013-09-05T14:03:12Z</time>
      </trkpt>
      <trkpt lat="44.08074" lon="7.10713">
        <ele>546.7</ele>
        <time>2013-09-05T14:03:17Z</time>
      </trkpt>
      <trkpt lat="44.08094" lon="7.10712">
        <ele>548.6</ele>
        <time>2013-09-05T14:03:33Z</time>
      </trkpt>
      <trkpt lat="44.08113" lon="7.10712">
        <ele>551</ele>
        <time>2013-09-05T14:03:48Z</time>
      </trkpt>
      <trkpt lat="44.08137" lon="7.10712">
        <ele>553.4</ele>
        <time>2013-09-05T14:04:05Z</time>
      </trkpt>
      <trkpt lat="44.08159" lon="7.10716">
        <ele>555.8</ele>
        <time>2013-09-05T14:04:20Z</time>
      </trkpt>
      <trkpt lat="44.08178" lon="7.10721">
        <ele>557.7</ele>
        <time>2013-09-05T14:04:34Z</time>
      </trkpt>
      <trkpt lat="44.08187" lon="7.10724">
        <ele>558.7</ele>
        <time>2013-09-05T14:04:40Z</time>
      </trkpt>
      <trkpt lat="44.08194" lon="7.10727">
        <ele>559.6</ele>
        <time>2013-09-05T14:04:46Z</time>
      </trkpt>
      <trkpt lat="44.08218" lon="7.10749">
        <ele>562</ele>
        <time>2013-09-05T14:05:05Z</time>
      </trkpt>
      <trkpt lat="44.08211" lon="7.10753">
        <ele>563.5</ele>
        <time>2013-09-05T14:05:13Z</time>
      </trkpt>
      <trkpt lat="44.08193" lon="7.10737">
        <ele>565.4</ele>
        <time>2013-09-05T14:05:27Z</time>
      </trkpt>
      <trkpt lat="44.08173" lon="7.10735">
        <ele>567.8</ele>
        <time>2013-09-05T14:05:41Z</time>
      </trkpt>
      <trkpt lat="44.08163" lon="7.10734">
        <ele>569.2</ele>
        <time>2013-09-05T14:05:49Z</time>
      </trkpt>
      <trkpt lat="44.08155" lon="7.10735">
        <ele>570.7</ele>
        <time>2013-09-05T14:05:54Z</time>
      </trkpt>
      <trkpt lat="44.08127" lon="7.10744">
        <ele>572.1</ele>
        <time>2013-09-05T14:06:12Z</time>
      </trkpt>
      <trkpt lat="44.08115" lon="7.10748">
        <ele>574</ele>
        <time>2013-09-05T14:06:21Z</time>
      </trkpt>
      <trkpt lat="44.08088" lon="7.10763">
        <ele>577.9</ele>
        <time>2013-09-05T14:06:42Z</time>
      </trkpt>
      <trkpt lat="44.08071" lon="7.10771">
        <ele>579.8</ele>
        <time>2013-09-05T14:06:55Z</time>
      </trkpt>
      <trkpt lat="44.08065" lon="7.10776">
        <ele>581.3</ele>
        <time>2013-09-05T14:07:00Z</time>
      </trkpt>
      <trkpt lat="44.08043" lon="7.10787">
        <ele>584.6</ele>
        <time>2013-09-05T14:07:17Z</time>
      </trkpt>
      <trkpt lat="44.0803" lon="7.10792">
        <ele>586.1</ele>
        <time>2013-09-05T14:07:27Z</time>
      </trkpt>
      <trkpt lat="44.08023" lon="7.10795">
        <ele>587.5</ele>
        <time>2013-09-05T14:07:32Z</time>
      </trkpt>
      <trkpt lat="44.08002" lon="7.10805">
        <ele>590.4</ele>
        <time>2013-09-05T14:07:49Z</time>
      </trkpt>
      <trkpt lat="44.07994" lon="7.10795">
        <ele>590.9</ele>
        <time>2013-09-05T14:07:58Z</time>
      </trkpt>
      <trkpt lat="44.07993" lon="7.10787">
        <ele>591.8</ele>
        <time>2013-09-05T14:08:02Z</time>
      </trkpt>
      <trkpt lat="44.07997" lon="7.1076">
        <ele>594.2</ele>
        <time>2013-09-05T14:08:18Z</time>
      </trkpt>
      <trkpt lat="44.08008" lon="7.10735">
        <ele>597.1</ele>
        <time>2013-09-05T14:08:32Z</time>
      </trkpt>
      <trkpt lat="44.08001" lon="7.10733">
        <ele>597.1</ele>
        <time>2013-09-05T14:08:37Z</time>
      </trkpt>
      <trkpt lat="44.07999" lon="7.10735">
        <ele>598.1</ele>
        <time>2013-09-05T14:08:38Z</time>
      </trkpt>
      <trkpt lat="44.07998" lon="7.10737">
        <ele>597.6</ele>
        <time>2013-09-05T14:08:39Z</time>
      </trkpt>
      <trkpt lat="44.07998" lon="7.10739">
        <ele>597.6</ele>
        <time>2013-09-05T14:08:40Z</time>
      </trkpt>
      <trkpt lat="44.07985" lon="7.10777">
        <ele>599.5</ele>
        <time>2013-09-05T14:08:57Z</time>
      </trkpt>
      <trkpt lat="44.0798" lon="7.10807">
        <ele>601.4</ele>
        <time>2013-09-05T14:09:10Z</time>
      </trkpt>
      <trkpt lat="44.07978" lon="7.10817">
        <ele>602.4</ele>
        <time>2013-09-05T14:09:15Z</time>
      </trkpt>
      <trkpt lat="44.07978" lon="7.10819">
        <ele>602.4</ele>
        <time>2013-09-05T14:09:16Z</time>
      </trkpt>
      <trkpt lat="44.07991" lon="7.10839">
        <ele>605.3</ele>
        <time>2013-09-05T14:09:30Z</time>
      </trkpt>
      <trkpt lat="44.08015" lon="7.10832">
        <ele>606.3</ele>
        <time>2013-09-05T14:09:44Z</time>
      </trkpt>
      <trkpt lat="44.08048" lon="7.10817">
        <ele>608.7</ele>
        <time>2013-09-05T14:10:01Z</time>
      </trkpt>
      <trkpt lat="44.08058" lon="7.10816">
        <ele>609.1</ele>
        <time>2013-09-05T14:10:07Z</time>
      </trkpt>
      <trkpt lat="44.08059" lon="7.10818">
        <ele>610.1</ele>
        <time>2013-09-05T14:10:08Z</time>
      </trkpt>
      <trkpt lat="44.08061" lon="7.10821">
        <ele>610.1</ele>
        <time>2013-09-05T14:10:10Z</time>
      </trkpt>
      <trkpt lat="44.08056" lon="7.10825">
        <ele>610.6</ele>
        <time>2013-09-05T14:10:15Z</time>
      </trkpt>
      <trkpt lat="44.08035" lon="7.10836">
        <ele>613</ele>
        <time>2013-09-05T14:10:30Z</time>
      </trkpt>
      <trkpt lat="44.08006" lon="7.10854">
        <ele>616.3</ele>
        <time>2013-09-05T14:10:48Z</time>
      </trkpt>
      <trkpt lat="44.07978" lon="7.10871">
        <ele>617.8</ele>
        <time>2013-09-05T14:11:05Z</time>
      </trkpt>
      <trkpt lat="44.07957" lon="7.1088">
        <ele>619.7</ele>
        <time>2013-09-05T14:11:18Z</time>
      </trkpt>
      <trkpt lat="44.07946" lon="7.1086">
        <ele>621.6</ele>
        <time>2013-09-05T14:11:33Z</time>
      </trkpt>
      <trkpt lat="44.0795" lon="7.10813">
        <ele>623.6</ele>
        <time>2013-09-05T14:11:51Z</time>
      </trkpt>
      <trkpt lat="44.07946" lon="7.10796">
        <ele>624.5</ele>
        <time>2013-09-05T14:11:59Z</time>
      </trkpt>
      <trkpt lat="44.07946" lon="7.10794">
        <ele>625.5</ele>
        <time>2013-09-05T14:12:00Z</time>
      </trkpt>
      <trkpt lat="44.07945" lon="7.10792">
        <ele>625.5</ele>
        <time>2013-09-05T14:12:01Z</time>
      </trkpt>
      <trkpt lat="44.07945" lon="7.10789">
        <ele>625.5</ele>
        <time>2013-09-05T14:12:02Z</time>
      </trkpt>
      <trkpt lat="44.07945" lon="7.10787">
        <ele>626</ele>
        <time>2013-09-05T14:12:03Z</time>
      </trkpt>
      <trkpt lat="44.07944" lon="7.10776">
        <ele>626</ele>
        <time>2013-09-05T14:12:08Z</time>
      </trkpt>
      <trkpt lat="44.07945" lon="7.10773">
        <ele>626</ele>
        <time>2013-09-05T14:12:09Z</time>
      </trkpt>
      <trkpt lat="44.07946" lon="7.10771">
        <ele>626</ele>
        <time>2013-09-05T14:12:10Z</time>
      </trkpt>
      <trkpt lat="44.07947" lon="7.10768">
        <ele>626</ele>
        <time>2013-09-05T14:12:11Z</time>
      </trkpt>
      <trkpt lat="44.07948" lon="7.10766">
        <ele>626.4</ele>
        <time>2013-09-05T14:12:12Z</time>
      </trkpt>
      <trkpt lat="44.07959" lon="7.10728">
        <ele>628.4</ele>
        <time>2013-09-05T14:12:29Z</time>
      </trkpt>
      <trkpt lat="44.0796" lon="7.1072">
        <ele>628.8</ele>
        <time>2013-09-05T14:12:32Z</time>
      </trkpt>
      <trkpt lat="44.07959" lon="7.10719">
        <ele>629.3</ele>
        <time>2013-09-05T14:12:33Z</time>
      </trkpt>
      <trkpt lat="44.07958" lon="7.10718">
        <ele>629.8</ele>
        <time>2013-09-05T14:12:34Z</time>
      </trkpt>
      <trkpt lat="44.07957" lon="7.10718">
        <ele>629.3</ele>
        <time>2013-09-05T14:12:35Z</time>
      </trkpt>
      <trkpt lat="44.07956" lon="7.1072">
        <ele>629.3</ele>
        <time>2013-09-05T14:12:36Z</time>
      </trkpt>
      <trkpt lat="44.07956" lon="7.10722">
        <ele>629.8</ele>
        <time>2013-09-05T14:12:37Z</time>
      </trkpt>
      <trkpt lat="44.07955" lon="7.10724">
        <ele>630.3</ele>
        <time>2013-09-05T14:12:38Z</time>
      </trkpt>
      <trkpt lat="44.07955" lon="7.10727">
        <ele>630.3</ele>
        <time>2013-09-05T14:12:39Z</time>
      </trkpt>
      <trkpt lat="44.07943" lon="7.10756">
        <ele>632.7</ele>
        <time>2013-09-05T14:12:54Z</time>
      </trkpt>
      <trkpt lat="44.07931" lon="7.10792">
        <ele>634.6</ele>
        <time>2013-09-05T14:13:10Z</time>
      </trkpt>
      <trkpt lat="44.07918" lon="7.10812">
        <ele>637.5</ele>
        <time>2013-09-05T14:13:24Z</time>
      </trkpt>
      <trkpt lat="44.07916" lon="7.10812">
        <ele>637</ele>
        <time>2013-09-05T14:13:25Z</time>
      </trkpt>
      <trkpt lat="44.07915" lon="7.10812">
        <ele>637.5</ele>
        <time>2013-09-05T14:13:26Z</time>
      </trkpt>
      <trkpt lat="44.07913" lon="7.10811">
        <ele>637.5</ele>
        <time>2013-09-05T14:13:27Z</time>
      </trkpt>
      <trkpt lat="44.07912" lon="7.10811">
        <ele>637.5</ele>
        <time>2013-09-05T14:13:28Z</time>
      </trkpt>
      <trkpt lat="44.07911" lon="7.10811">
        <ele>637.5</ele>
        <time>2013-09-05T14:13:29Z</time>
      </trkpt>
      <trkpt lat="44.07909" lon="7.10811">
        <ele>637.5</ele>
        <time>2013-09-05T14:13:30Z</time>
      </trkpt>
      <trkpt lat="44.07908" lon="7.10812">
        <ele>637.5</ele>
        <time>2013-09-05T14:13:31Z</time>
      </trkpt>
      <trkpt lat="44.07906" lon="7.10812">
        <ele>638</ele>
        <time>2013-09-05T14:13:32Z</time>
      </trkpt>
      <trkpt lat="44.07904" lon="7.10812">
        <ele>638</ele>
        <time>2013-09-05T14:13:33Z</time>
      </trkpt>
      <trkpt lat="44.07903" lon="7.10812">
        <ele>638</ele>
        <time>2013-09-05T14:13:34Z</time>
      </trkpt>
      <trkpt lat="44.07902" lon="7.10812">
        <ele>637.5</ele>
        <time>2013-09-05T14:13:35Z</time>
      </trkpt>
      <trkpt lat="44.07887" lon="7.10809">
        <ele>637.5</ele>
        <time>2013-09-05T14:13:47Z</time>
      </trkpt>
      <trkpt lat="44.07884" lon="7.10809">
        <ele>638.5</ele>
        <time>2013-09-05T14:14:00Z</time>
      </trkpt>
      <trkpt lat="44.07885" lon="7.10811">
        <ele>638</ele>
        <time>2013-09-05T14:14:07Z</time>
      </trkpt>
      <trkpt lat="44.07886" lon="7.10812">
        <ele>638</ele>
        <time>2013-09-05T14:14:08Z</time>
      </trkpt>
      <trkpt lat="44.07887" lon="7.10813">
        <ele>638</ele>
        <time>2013-09-05T14:14:09Z</time>
      </trkpt>
      <trkpt lat="44.07889" lon="7.10814">
        <ele>637.5</ele>
        <time>2013-09-05T14:14:10Z</time>
      </trkpt>
      <trkpt lat="44.07891" lon="7.10814">
        <ele>637.5</ele>
        <time>2013-09-05T14:14:11Z</time>
      </trkpt>
      <trkpt lat="44.07893" lon="7.10813">
        <ele>637.5</ele>
        <time>2013-09-05T14:14:12Z</time>
      </trkpt>
      <trkpt lat="44.07895" lon="7.10813">
        <ele>637.5</ele>
        <time>2013-09-05T14:14:13Z</time>
      </trkpt>
      <trkpt lat="44.07898" lon="7.10814">
        <ele>637</ele>
        <time>2013-09-05T14:14:14Z</time>
      </trkpt>
      <trkpt lat="44.07917" lon="7.10816">
        <ele>637.5</ele>
        <time>2013-09-05T14:14:21Z</time>
      </trkpt>
      <trkpt lat="44.07918" lon="7.1082">
        <ele>637.5</ele>
        <time>2013-09-05T14:14:22Z</time>
      </trkpt>
      <trkpt lat="44.07918" lon="7.10823">
        <ele>637</ele>
        <time>2013-09-05T14:14:23Z</time>
      </trkpt>
      <trkpt lat="44.07909" lon="7.10857">
        <ele>638.5</ele>
        <time>2013-09-05T14:14:37Z</time>
      </trkpt>
      <trkpt lat="44.0789" lon="7.10853">
        <ele>640.9</ele>
        <time>2013-09-05T14:14:49Z</time>
      </trkpt>
      <trkpt lat="44.07873" lon="7.10861">
        <ele>641.8</ele>
        <time>2013-09-05T14:15:01Z</time>
      </trkpt>
      <trkpt lat="44.07873" lon="7.10863">
        <ele>641.8</ele>
        <time>2013-09-05T14:15:28Z</time>
      </trkpt>
      <trkpt lat="44.0787" lon="7.10863">
        <ele>642.3</ele>
        <time>2013-09-05T14:15:31Z</time>
      </trkpt>
      <trkpt lat="44.07851" lon="7.10885">
        <ele>643.7</ele>
        <time>2013-09-05T14:15:47Z</time>
      </trkpt>
      <trkpt lat="44.07848" lon="7.1089">
        <ele>645.2</ele>
        <time>2013-09-05T14:15:50Z</time>
      </trkpt>
      <trkpt lat="44.07827" lon="7.10907">
        <ele>647.1</ele>
        <time>2013-09-05T14:16:06Z</time>
      </trkpt>
      <trkpt lat="44.07819" lon="7.10917">
        <ele>648.1</ele>
        <time>2013-09-05T14:16:19Z</time>
      </trkpt>
      <trkpt lat="44.07819" lon="7.10918">
        <ele>647.6</ele>
        <time>2013-09-05T14:16:38Z</time>
      </trkpt>
      <trkpt lat="44.0782" lon="7.10919">
        <ele>647.6</ele>
        <time>2013-09-05T14:16:59Z</time>
      </trkpt>
      <trkpt lat="44.07817" lon="7.1092">
        <ele>647.6</ele>
        <time>2013-09-05T14:17:07Z</time>
      </trkpt>
      <trkpt lat="44.07816" lon="7.1092">
        <ele>647.6</ele>
        <time>2013-09-05T14:17:08Z</time>
      </trkpt>
      <trkpt lat="44.07815" lon="7.10921">
        <ele>647.6</ele>
        <time>2013-09-05T14:17:09Z</time>
      </trkpt>
      <trkpt lat="44.07814" lon="7.10923">
        <ele>648.1</ele>
        <time>2013-09-05T14:17:10Z</time>
      </trkpt>
      <trkpt lat="44.07813" lon="7.10924">
        <ele>648.1</ele>
        <time>2013-09-05T14:17:11Z</time>
      </trkpt>
      <trkpt lat="44.07808" lon="7.1093">
        <ele>648.6</ele>
        <time>2013-09-05T14:17:25Z</time>
      </trkpt>
      <trkpt lat="44.07807" lon="7.10931">
        <ele>648.6</ele>
        <time>2013-09-05T14:17:47Z</time>
      </trkpt>
      <trkpt lat="44.07808" lon="7.1093">
        <ele>649</ele>
        <time>2013-09-05T14:18:14Z</time>
      </trkpt>
      <trkpt lat="44.07809" lon="7.10928">
        <ele>648.1</ele>
        <time>2013-09-05T14:18:29Z</time>
      </trkpt>
      <trkpt lat="44.0781" lon="7.10928">
        <ele>648.6</ele>
        <time>2013-09-05T14:19:00Z</time>
      </trkpt>
      <trkpt lat="44.07809" lon="7.10927">
        <ele>648.6</ele>
        <time>2013-09-05T14:19:28Z</time>
      </trkpt>
      <trkpt lat="44.07808" lon="7.1093">
        <ele>648.1</ele>
        <time>2013-09-05T14:19:56Z</time>
      </trkpt>
      <trkpt lat="44.0781" lon="7.10929">
        <ele>648.6</ele>
        <time>2013-09-05T14:20:27Z</time>
      </trkpt>
      <trkpt lat="44.07807" lon="7.10927">
        <ele>648.1</ele>
        <time>2013-09-05T14:21:02Z</time>
      </trkpt>
      <trkpt lat="44.07807" lon="7.10929">
        <ele>648.1</ele>
        <time>2013-09-05T14:21:30Z</time>
      </trkpt>
      <trkpt lat="44.07809" lon="7.10931">
        <ele>648.1</ele>
        <time>2013-09-05T14:22:03Z</time>
      </trkpt>
      <trkpt lat="44.07809" lon="7.10931">
        <ele>648.1</ele>
        <time>2013-09-05T14:22:30Z</time>
      </trkpt>
      <trkpt lat="44.07807" lon="7.10931">
        <ele>649</ele>
        <time>2013-09-05T14:22:45Z</time>
      </trkpt>
      <trkpt lat="44.07806" lon="7.10932">
        <ele>649</ele>
        <time>2013-09-05T14:22:51Z</time>
      </trkpt>
      <trkpt lat="44.07805" lon="7.10932">
        <ele>649.5</ele>
        <time>2013-09-05T14:22:52Z</time>
      </trkpt>
      <trkpt lat="44.07804" lon="7.10932">
        <ele>649.5</ele>
        <time>2013-09-05T14:22:53Z</time>
      </trkpt>
      <trkpt lat="44.07803" lon="7.10932">
        <ele>650</ele>
        <time>2013-09-05T14:22:54Z</time>
      </trkpt>
      <trkpt lat="44.07802" lon="7.10932">
        <ele>650</ele>
        <time>2013-09-05T14:22:55Z</time>
      </trkpt>
      <trkpt lat="44.078" lon="7.10933">
        <ele>650</ele>
        <time>2013-09-05T14:22:56Z</time>
      </trkpt>
      <trkpt lat="44.07799" lon="7.10933">
        <ele>650.5</ele>
        <time>2013-09-05T14:22:57Z</time>
      </trkpt>
      <trkpt lat="44.07798" lon="7.10934">
        <ele>650.5</ele>
        <time>2013-09-05T14:22:58Z</time>
      </trkpt>
      <trkpt lat="44.07791" lon="7.10935">
        <ele>651</ele>
        <time>2013-09-05T14:23:05Z</time>
      </trkpt>
      <trkpt lat="44.0779" lon="7.10935">
        <ele>651</ele>
        <time>2013-09-05T14:23:06Z</time>
      </trkpt>
      <trkpt lat="44.07789" lon="7.10936">
        <ele>651.4</ele>
        <time>2013-09-05T14:23:07Z</time>
      </trkpt>
      <trkpt lat="44.07785" lon="7.10938">
        <ele>651.9</ele>
        <time>2013-09-05T14:23:11Z</time>
      </trkpt>
      <trkpt lat="44.07784" lon="7.10939">
        <ele>651.9</ele>
        <time>2013-09-05T14:23:12Z</time>
      </trkpt>
      <trkpt lat="44.07783" lon="7.10939">
        <ele>652.4</ele>
        <time>2013-09-05T14:23:13Z</time>
      </trkpt>
      <trkpt lat="44.07782" lon="7.1094">
        <ele>652.4</ele>
        <time>2013-09-05T14:23:14Z</time>
      </trkpt>
      <trkpt lat="44.0778" lon="7.1094">
        <ele>652.9</ele>
        <time>2013-09-05T14:23:15Z</time>
      </trkpt>
      <trkpt lat="44.07779" lon="7.1094">
        <ele>652.9</ele>
        <time>2013-09-05T14:23:16Z</time>
      </trkpt>
      <trkpt lat="44.07767" lon="7.10946">
        <ele>654.3</ele>
        <time>2013-09-05T14:23:27Z</time>
      </trkpt>
      <trkpt lat="44.07765" lon="7.10946">
        <ele>655.3</ele>
        <time>2013-09-05T14:23:28Z</time>
      </trkpt>
      <trkpt lat="44.07764" lon="7.10946">
        <ele>654.8</ele>
        <time>2013-09-05T14:23:29Z</time>
      </trkpt>
      <trkpt lat="44.07747" lon="7.10953">
        <ele>658.2</ele>
        <time>2013-09-05T14:23:43Z</time>
      </trkpt>
      <trkpt lat="44.07742" lon="7.10957">
        <ele>658.6</ele>
        <time>2013-09-05T14:23:48Z</time>
      </trkpt>
      <trkpt lat="44.07724" lon="7.10961">
        <ele>661</ele>
        <time>2013-09-05T14:24:03Z</time>
      </trkpt>
      <trkpt lat="44.07708" lon="7.10972">
        <ele>663.5</ele>
        <time>2013-09-05T14:24:18Z</time>
      </trkpt>
      <trkpt lat="44.07691" lon="7.10983">
        <ele>665.4</ele>
        <time>2013-09-05T14:24:33Z</time>
      </trkpt>
      <trkpt lat="44.07685" lon="7.10989">
        <ele>666.8</ele>
        <time>2013-09-05T14:24:39Z</time>
      </trkpt>
      <trkpt lat="44.07684" lon="7.1099">
        <ele>666.8</ele>
        <time>2013-09-05T14:24:40Z</time>
      </trkpt>
      <trkpt lat="44.07683" lon="7.10991">
        <ele>667.3</ele>
        <time>2013-09-05T14:24:41Z</time>
      </trkpt>
      <trkpt lat="44.07682" lon="7.10992">
        <ele>667.3</ele>
        <time>2013-09-05T14:24:42Z</time>
      </trkpt>
      <trkpt lat="44.07681" lon="7.10992">
        <ele>667.3</ele>
        <time>2013-09-05T14:24:43Z</time>
      </trkpt>
      <trkpt lat="44.0768" lon="7.10993">
        <ele>667.8</ele>
        <time>2013-09-05T14:24:44Z</time>
      </trkpt>
      <trkpt lat="44.07679" lon="7.10994">
        <ele>667.8</ele>
        <time>2013-09-05T14:24:45Z</time>
      </trkpt>
      <trkpt lat="44.07678" lon="7.10995">
        <ele>668.3</ele>
        <time>2013-09-05T14:24:46Z</time>
      </trkpt>
      <trkpt lat="44.07677" lon="7.10996">
        <ele>668.3</ele>
        <time>2013-09-05T14:24:47Z</time>
      </trkpt>
      <trkpt lat="44.07676" lon="7.10997">
        <ele>668.7</ele>
        <time>2013-09-05T14:24:48Z</time>
      </trkpt>
      <trkpt lat="44.07676" lon="7.10998">
        <ele>669.2</ele>
        <time>2013-09-05T14:24:49Z</time>
      </trkpt>
      <trkpt lat="44.07675" lon="7.10999">
        <ele>668.3</ele>
        <time>2013-09-05T14:24:50Z</time>
      </trkpt>
      <trkpt lat="44.07671" lon="7.11003">
        <ele>669.7</ele>
        <time>2013-09-05T14:24:54Z</time>
      </trkpt>
      <trkpt lat="44.07653" lon="7.1102">
        <ele>671.6</ele>
        <time>2013-09-05T14:25:11Z</time>
      </trkpt>
      <trkpt lat="44.07634" lon="7.11039">
        <ele>674.5</ele>
        <time>2013-09-05T14:25:28Z</time>
      </trkpt>
      <trkpt lat="44.07633" lon="7.11068">
        <ele>676.9</ele>
        <time>2013-09-05T14:25:45Z</time>
      </trkpt>
      <trkpt lat="44.0763" lon="7.11097">
        <ele>678.8</ele>
        <time>2013-09-05T14:26:03Z</time>
      </trkpt>
      <trkpt lat="44.07628" lon="7.11119">
        <ele>681.2</ele>
        <time>2013-09-05T14:26:18Z</time>
      </trkpt>
      <trkpt lat="44.07627" lon="7.11128">
        <ele>682.2</ele>
        <time>2013-09-05T14:26:24Z</time>
      </trkpt>
      <trkpt lat="44.07628" lon="7.11129">
        <ele>682.2</ele>
        <time>2013-09-05T14:26:25Z</time>
      </trkpt>
      <trkpt lat="44.07629" lon="7.11131">
        <ele>683.2</ele>
        <time>2013-09-05T14:26:26Z</time>
      </trkpt>
      <trkpt lat="44.07627" lon="7.11145">
        <ele>684.1</ele>
        <time>2013-09-05T14:26:36Z</time>
      </trkpt>
      <trkpt lat="44.07626" lon="7.11146">
        <ele>683.6</ele>
        <time>2013-09-05T14:26:37Z</time>
      </trkpt>
      <trkpt lat="44.07626" lon="7.11148">
        <ele>683.6</ele>
        <time>2013-09-05T14:26:38Z</time>
      </trkpt>
      <trkpt lat="44.07625" lon="7.11149">
        <ele>684.1</ele>
        <time>2013-09-05T14:26:39Z</time>
      </trkpt>
      <trkpt lat="44.07624" lon="7.1115">
        <ele>684.6</ele>
        <time>2013-09-05T14:26:40Z</time>
      </trkpt>
      <trkpt lat="44.07622" lon="7.11151">
        <ele>684.6</ele>
        <time>2013-09-05T14:26:41Z</time>
      </trkpt>
      <trkpt lat="44.0762" lon="7.11153">
        <ele>685.1</ele>
        <time>2013-09-05T14:26:43Z</time>
      </trkpt>
      <trkpt lat="44.07619" lon="7.11153">
        <ele>685.6</ele>
        <time>2013-09-05T14:26:44Z</time>
      </trkpt>
      <trkpt lat="44.07618" lon="7.11154">
        <ele>685.1</ele>
        <time>2013-09-05T14:26:45Z</time>
      </trkpt>
      <trkpt lat="44.07604" lon="7.11161">
        <ele>687.5</ele>
        <time>2013-09-05T14:26:57Z</time>
      </trkpt>
      <trkpt lat="44.07603" lon="7.11163">
        <ele>687.5</ele>
        <time>2013-09-05T14:26:58Z</time>
      </trkpt>
      <trkpt lat="44.07597" lon="7.11172">
        <ele>688.4</ele>
        <time>2013-09-05T14:27:07Z</time>
      </trkpt>
      <trkpt lat="44.07596" lon="7.11174">
        <ele>688.9</ele>
        <time>2013-09-05T14:27:08Z</time>
      </trkpt>
      <trkpt lat="44.07596" lon="7.11176">
        <ele>689.4</ele>
        <time>2013-09-05T14:27:09Z</time>
      </trkpt>
      <trkpt lat="44.07589" lon="7.11193">
        <ele>692.3</ele>
        <time>2013-09-05T14:27:23Z</time>
      </trkpt>
      <trkpt lat="44.07585" lon="7.11201">
        <ele>693.3</ele>
        <time>2013-09-05T14:27:37Z</time>
      </trkpt>
      <trkpt lat="44.0758" lon="7.11208">
        <ele>694.7</ele>
        <time>2013-09-05T14:27:52Z</time>
      </trkpt>
      <trkpt lat="44.07573" lon="7.11215">
        <ele>696.1</ele>
        <time>2013-09-05T14:28:08Z</time>
      </trkpt>
      <trkpt lat="44.07563" lon="7.11227">
        <ele>697.6</ele>
        <time>2013-09-05T14:28:25Z</time>
      </trkpt>
      <trkpt lat="44.07557" lon="7.11243">
        <ele>700.5</ele>
        <time>2013-09-05T14:28:44Z</time>
      </trkpt>
      <trkpt lat="44.07559" lon="7.11252">
        <ele>701.9</ele>
        <time>2013-09-05T14:28:58Z</time>
      </trkpt>
      <trkpt lat="44.07566" lon="7.1126">
        <ele>700.9</ele>
        <time>2013-09-05T14:29:31Z</time>
      </trkpt>
      <trkpt lat="44.07563" lon="7.11258">
        <ele>700.9</ele>
        <time>2013-09-05T14:29:57Z</time>
      </trkpt>
      <trkpt lat="44.0756" lon="7.11261">
        <ele>702.4</ele>
        <time>2013-09-05T14:30:23Z</time>
      </trkpt>
      <trkpt lat="44.07559" lon="7.11268">
        <ele>702.9</ele>
        <time>2013-09-05T14:30:39Z</time>
      </trkpt>
      <trkpt lat="44.07555" lon="7.11285">
        <ele>706.2</ele>
        <time>2013-09-05T14:30:55Z</time>
      </trkpt>
      <trkpt lat="44.0755" lon="7.11307">
        <ele>708.2</ele>
        <time>2013-09-05T14:31:13Z</time>
      </trkpt>
      <trkpt lat="44.0755" lon="7.11316">
        <ele>708.6</ele>
        <time>2013-09-05T14:31:30Z</time>
      </trkpt>
      <trkpt lat="44.0755" lon="7.11321">
        <ele>708.2</ele>
        <time>2013-09-05T14:31:39Z</time>
      </trkpt>
      <trkpt lat="44.07551" lon="7.11322">
        <ele>708.2</ele>
        <time>2013-09-05T14:31:40Z</time>
      </trkpt>
      <trkpt lat="44.07552" lon="7.11324">
        <ele>708.6</ele>
        <time>2013-09-05T14:31:41Z</time>
      </trkpt>
      <trkpt lat="44.07557" lon="7.11351">
        <ele>711</ele>
        <time>2013-09-05T14:31:58Z</time>
      </trkpt>
      <trkpt lat="44.07558" lon="7.11351">
        <ele>710.6</ele>
        <time>2013-09-05T14:31:59Z</time>
      </trkpt>
      <trkpt lat="44.07559" lon="7.1135">
        <ele>710.1</ele>
        <time>2013-09-05T14:32:00Z</time>
      </trkpt>
      <trkpt lat="44.07561" lon="7.11349">
        <ele>710.1</ele>
        <time>2013-09-05T14:32:01Z</time>
      </trkpt>
      <trkpt lat="44.07561" lon="7.11348">
        <ele>711</ele>
        <time>2013-09-05T14:32:02Z</time>
      </trkpt>
      <trkpt lat="44.07562" lon="7.11346">
        <ele>712</ele>
        <time>2013-09-05T14:32:03Z</time>
      </trkpt>
      <trkpt lat="44.07562" lon="7.11344">
        <ele>712.5</ele>
        <time>2013-09-05T14:32:04Z</time>
      </trkpt>
      <trkpt lat="44.07563" lon="7.11343">
        <ele>712.5</ele>
        <time>2013-09-05T14:32:05Z</time>
      </trkpt>
      <trkpt lat="44.07562" lon="7.11341">
        <ele>713.4</ele>
        <time>2013-09-05T14:32:06Z</time>
      </trkpt>
      <trkpt lat="44.07563" lon="7.11339">
        <ele>713.4</ele>
        <time>2013-09-05T14:32:07Z</time>
      </trkpt>
      <trkpt lat="44.07564" lon="7.11304">
        <ele>715.8</ele>
        <time>2013-09-05T14:32:25Z</time>
      </trkpt>
      <trkpt lat="44.07579" lon="7.11295">
        <ele>717.8</ele>
        <time>2013-09-05T14:32:39Z</time>
      </trkpt>
      <trkpt lat="44.07589" lon="7.11285">
        <ele>720.7</ele>
        <time>2013-09-05T14:32:48Z</time>
      </trkpt>
      <trkpt lat="44.07609" lon="7.11279">
        <ele>722.6</ele>
        <time>2013-09-05T14:33:04Z</time>
      </trkpt>
      <trkpt lat="44.07629" lon="7.11282">
        <ele>725.9</ele>
        <time>2013-09-05T14:33:20Z</time>
      </trkpt>
      <trkpt lat="44.07641" lon="7.11283">
        <ele>726.9</ele>
        <time>2013-09-05T14:33:30Z</time>
      </trkpt>
      <trkpt lat="44.07642" lon="7.11282">
        <ele>727.9</ele>
        <time>2013-09-05T14:33:31Z</time>
      </trkpt>
      <trkpt lat="44.07643" lon="7.11282">
        <ele>727.9</ele>
        <time>2013-09-05T14:33:32Z</time>
      </trkpt>
      <trkpt lat="44.07645" lon="7.11281">
        <ele>727.9</ele>
        <time>2013-09-05T14:33:33Z</time>
      </trkpt>
      <trkpt lat="44.07646" lon="7.1128">
        <ele>727.9</ele>
        <time>2013-09-05T14:33:34Z</time>
      </trkpt>
      <trkpt lat="44.07647" lon="7.11279">
        <ele>728.3</ele>
        <time>2013-09-05T14:33:35Z</time>
      </trkpt>
      <trkpt lat="44.07648" lon="7.11278">
        <ele>727.9</ele>
        <time>2013-09-05T14:33:36Z</time>
      </trkpt>
      <trkpt lat="44.07649" lon="7.11277">
        <ele>728.8</ele>
        <time>2013-09-05T14:33:37Z</time>
      </trkpt>
      <trkpt lat="44.07649" lon="7.11275">
        <ele>728.3</ele>
        <time>2013-09-05T14:33:38Z</time>
      </trkpt>
      <trkpt lat="44.0765" lon="7.11273">
        <ele>728.8</ele>
        <time>2013-09-05T14:33:39Z</time>
      </trkpt>
      <trkpt lat="44.07651" lon="7.11272">
        <ele>728.8</ele>
        <time>2013-09-05T14:33:40Z</time>
      </trkpt>
      <trkpt lat="44.07652" lon="7.11271">
        <ele>729.3</ele>
        <time>2013-09-05T14:33:41Z</time>
      </trkpt>
      <trkpt lat="44.07653" lon="7.1127">
        <ele>729.3</ele>
        <time>2013-09-05T14:33:42Z</time>
      </trkpt>
      <trkpt lat="44.07654" lon="7.11268">
        <ele>729.3</ele>
        <time>2013-09-05T14:33:43Z</time>
      </trkpt>
      <trkpt lat="44.07655" lon="7.11267">
        <ele>729.8</ele>
        <time>2013-09-05T14:33:44Z</time>
      </trkpt>
      <trkpt lat="44.07664" lon="7.11253">
        <ele>732.7</ele>
        <time>2013-09-05T14:33:56Z</time>
      </trkpt>
      <trkpt lat="44.07672" lon="7.11249">
        <ele>731.7</ele>
        <time>2013-09-05T14:34:11Z</time>
      </trkpt>
      <trkpt lat="44.07668" lon="7.11261">
        <ele>734.6</ele>
        <time>2013-09-05T14:34:26Z</time>
      </trkpt>
      <trkpt lat="44.07666" lon="7.11269">
        <ele>735.6</ele>
        <time>2013-09-05T14:34:33Z</time>
      </trkpt>
      <trkpt lat="44.07661" lon="7.11286">
        <ele>737.5</ele>
        <time>2013-09-05T14:34:50Z</time>
      </trkpt>
      <trkpt lat="44.07653" lon="7.11306">
        <ele>739.4</ele>
        <time>2013-09-05T14:35:08Z</time>
      </trkpt>
      <trkpt lat="44.07648" lon="7.11324">
        <ele>742.8</ele>
        <time>2013-09-05T14:35:22Z</time>
      </trkpt>
      <trkpt lat="44.07644" lon="7.11343">
        <ele>745.2</ele>
        <time>2013-09-05T14:35:39Z</time>
      </trkpt>
      <trkpt lat="44.07641" lon="7.11358">
        <ele>746.6</ele>
        <time>2013-09-05T14:35:55Z</time>
      </trkpt>
      <trkpt lat="44.07633" lon="7.11374">
        <ele>749.5</ele>
        <time>2013-09-05T14:36:12Z</time>
      </trkpt>
      <trkpt lat="44.07626" lon="7.11383">
        <ele>751.9</ele>
        <time>2013-09-05T14:36:28Z</time>
      </trkpt>
      <trkpt lat="44.07617" lon="7.11394">
        <ele>753.8</ele>
        <time>2013-09-05T14:36:42Z</time>
      </trkpt>
      <trkpt lat="44.07608" lon="7.11406">
        <ele>755.7</ele>
        <time>2013-09-05T14:36:57Z</time>
      </trkpt>
      <trkpt lat="44.07605" lon="7.11407">
        <ele>756.7</ele>
        <time>2013-09-05T14:37:10Z</time>
      </trkpt>
      <trkpt lat="44.07605" lon="7.11411">
        <ele>756.2</ele>
        <time>2013-09-05T14:37:33Z</time>
      </trkpt>
      <trkpt lat="44.07601" lon="7.11422">
        <ele>757.7</ele>
        <time>2013-09-05T14:37:47Z</time>
      </trkpt>
      <trkpt lat="44.07593" lon="7.11429">
        <ele>759.6</ele>
        <time>2013-09-05T14:38:02Z</time>
      </trkpt>
      <trkpt lat="44.07589" lon="7.11433">
        <ele>759.6</ele>
        <time>2013-09-05T14:38:13Z</time>
      </trkpt>
      <trkpt lat="44.07586" lon="7.11445">
        <ele>760.5</ele>
        <time>2013-09-05T14:38:26Z</time>
      </trkpt>
      <trkpt lat="44.07583" lon="7.11459">
        <ele>761.5</ele>
        <time>2013-09-05T14:38:40Z</time>
      </trkpt>
      <trkpt lat="44.07578" lon="7.11468">
        <ele>762.5</ele>
        <time>2013-09-05T14:38:53Z</time>
      </trkpt>
      <trkpt lat="44.07571" lon="7.11481">
        <ele>765.8</ele>
        <time>2013-09-05T14:39:07Z</time>
      </trkpt>
      <trkpt lat="44.07568" lon="7.11499">
        <ele>767.3</ele>
        <time>2013-09-05T14:39:24Z</time>
      </trkpt>
      <trkpt lat="44.07567" lon="7.11515">
        <ele>769.2</ele>
        <time>2013-09-05T14:39:40Z</time>
      </trkpt>
      <trkpt lat="44.07565" lon="7.11526">
        <ele>770.2</ele>
        <time>2013-09-05T14:39:55Z</time>
      </trkpt>
      <trkpt lat="44.07565" lon="7.11529">
        <ele>770.2</ele>
        <time>2013-09-05T14:40:03Z</time>
      </trkpt>
      <trkpt lat="44.07567" lon="7.11556">
        <ele>773</ele>
        <time>2013-09-05T14:40:18Z</time>
      </trkpt>
      <trkpt lat="44.07568" lon="7.11565">
        <ele>774</ele>
        <time>2013-09-05T14:40:30Z</time>
      </trkpt>
      <trkpt lat="44.07567" lon="7.11573">
        <ele>774</ele>
        <time>2013-09-05T14:40:42Z</time>
      </trkpt>
      <trkpt lat="44.07563" lon="7.11593">
        <ele>776.4</ele>
        <time>2013-09-05T14:40:55Z</time>
      </trkpt>
      <trkpt lat="44.07566" lon="7.11617">
        <ele>778.3</ele>
        <time>2013-09-05T14:41:08Z</time>
      </trkpt>
      <trkpt lat="44.07562" lon="7.1164">
        <ele>780.3</ele>
        <time>2013-09-05T14:41:22Z</time>
      </trkpt>
      <trkpt lat="44.07562" lon="7.11649">
        <ele>780.7</ele>
        <time>2013-09-05T14:41:29Z</time>
      </trkpt>
      <trkpt lat="44.0756" lon="7.11653">
        <ele>780.7</ele>
        <time>2013-09-05T14:41:31Z</time>
      </trkpt>
      <trkpt lat="44.07559" lon="7.11656">
        <ele>780.7</ele>
        <time>2013-09-05T14:41:32Z</time>
      </trkpt>
      <trkpt lat="44.07559" lon="7.11659">
        <ele>781.2</ele>
        <time>2013-09-05T14:41:33Z</time>
      </trkpt>
      <trkpt lat="44.07555" lon="7.11684">
        <ele>785.1</ele>
        <time>2013-09-05T14:41:45Z</time>
      </trkpt>
      <trkpt lat="44.07552" lon="7.11702">
        <ele>786.5</ele>
        <time>2013-09-05T14:41:57Z</time>
      </trkpt>
      <trkpt lat="44.07552" lon="7.11704">
        <ele>787.5</ele>
        <time>2013-09-05T14:41:58Z</time>
      </trkpt>
      <trkpt lat="44.07547" lon="7.11724">
        <ele>788.4</ele>
        <time>2013-09-05T14:42:13Z</time>
      </trkpt>
      <trkpt lat="44.07545" lon="7.11734">
        <ele>790.3</ele>
        <time>2013-09-05T14:42:28Z</time>
      </trkpt>
      <trkpt lat="44.07542" lon="7.11751">
        <ele>790.3</ele>
        <time>2013-09-05T14:42:43Z</time>
      </trkpt>
      <trkpt lat="44.0754" lon="7.11761">
        <ele>791.8</ele>
        <time>2013-09-05T14:42:59Z</time>
      </trkpt>
      <trkpt lat="44.07539" lon="7.11773">
        <ele>792.7</ele>
        <time>2013-09-05T14:43:12Z</time>
      </trkpt>
      <trkpt lat="44.07539" lon="7.11778">
        <ele>793.7</ele>
        <time>2013-09-05T14:43:27Z</time>
      </trkpt>
      <trkpt lat="44.07536" lon="7.1178">
        <ele>793.2</ele>
        <time>2013-09-05T14:44:03Z</time>
      </trkpt>
      <trkpt lat="44.07538" lon="7.11783">
        <ele>793.7</ele>
        <time>2013-09-05T14:44:18Z</time>
      </trkpt>
      <trkpt lat="44.07542" lon="7.11792">
        <ele>795.6</ele>
        <time>2013-09-05T14:44:31Z</time>
      </trkpt>
      <trkpt lat="44.07535" lon="7.11809">
        <ele>796.1</ele>
        <time>2013-09-05T14:44:48Z</time>
      </trkpt>
      <trkpt lat="44.07531" lon="7.11822">
        <ele>797.1</ele>
        <time>2013-09-05T14:45:01Z</time>
      </trkpt>
      <trkpt lat="44.07526" lon="7.11835">
        <ele>798</ele>
        <time>2013-09-05T14:45:17Z</time>
      </trkpt>
      <trkpt lat="44.07525" lon="7.11839">
        <ele>798.5</ele>
        <time>2013-09-05T14:45:20Z</time>
      </trkpt>
      <trkpt lat="44.07517" lon="7.11867">
        <ele>798.5</ele>
        <time>2013-09-05T14:45:34Z</time>
      </trkpt>
      <trkpt lat="44.07505" lon="7.11888">
        <ele>800.9</ele>
        <time>2013-09-05T14:45:49Z</time>
      </trkpt>
      <trkpt lat="44.07503" lon="7.1189">
        <ele>800.9</ele>
        <time>2013-09-05T14:45:51Z</time>
      </trkpt>
      <trkpt lat="44.07503" lon="7.11891">
        <ele>801.4</ele>
        <time>2013-09-05T14:45:52Z</time>
      </trkpt>
      <trkpt lat="44.075" lon="7.11902">
        <ele>801.9</ele>
        <time>2013-09-05T14:45:59Z</time>
      </trkpt>
      <trkpt lat="44.07501" lon="7.11903">
        <ele>802.8</ele>
        <time>2013-09-05T14:46:00Z</time>
      </trkpt>
      <trkpt lat="44.07502" lon="7.11906">
        <ele>802.4</ele>
        <time>2013-09-05T14:46:02Z</time>
      </trkpt>
      <trkpt lat="44.07503" lon="7.11907">
        <ele>802.8</ele>
        <time>2013-09-05T14:46:03Z</time>
      </trkpt>
      <trkpt lat="44.07504" lon="7.11908">
        <ele>802.8</ele>
        <time>2013-09-05T14:46:04Z</time>
      </trkpt>
      <trkpt lat="44.07505" lon="7.11909">
        <ele>802.8</ele>
        <time>2013-09-05T14:46:05Z</time>
      </trkpt>
      <trkpt lat="44.07506" lon="7.11911">
        <ele>803.3</ele>
        <time>2013-09-05T14:46:06Z</time>
      </trkpt>
      <trkpt lat="44.07512" lon="7.11935">
        <ele>805.2</ele>
        <time>2013-09-05T14:46:21Z</time>
      </trkpt>
      <trkpt lat="44.07511" lon="7.11936">
        <ele>805.7</ele>
        <time>2013-09-05T14:46:22Z</time>
      </trkpt>
      <trkpt lat="44.0751" lon="7.11938">
        <ele>805.7</ele>
        <time>2013-09-05T14:46:23Z</time>
      </trkpt>
      <trkpt lat="44.07509" lon="7.11939">
        <ele>805.2</ele>
        <time>2013-09-05T14:46:24Z</time>
      </trkpt>
      <trkpt lat="44.07508" lon="7.11941">
        <ele>805.7</ele>
        <time>2013-09-05T14:46:25Z</time>
      </trkpt>
      <trkpt lat="44.07507" lon="7.11942">
        <ele>805.2</ele>
        <time>2013-09-05T14:46:26Z</time>
      </trkpt>
      <trkpt lat="44.07506" lon="7.11943">
        <ele>805.7</ele>
        <time>2013-09-05T14:46:27Z</time>
      </trkpt>
      <trkpt lat="44.07505" lon="7.11944">
        <ele>805.7</ele>
        <time>2013-09-05T14:46:28Z</time>
      </trkpt>
      <trkpt lat="44.07504" lon="7.11944">
        <ele>806.2</ele>
        <time>2013-09-05T14:46:29Z</time>
      </trkpt>
      <trkpt lat="44.07503" lon="7.11945">
        <ele>806.2</ele>
        <time>2013-09-05T14:46:30Z</time>
      </trkpt>
      <trkpt lat="44.075" lon="7.11945">
        <ele>806.7</ele>
        <time>2013-09-05T14:46:32Z</time>
      </trkpt>
      <trkpt lat="44.07497" lon="7.11943">
        <ele>807.2</ele>
        <time>2013-09-05T14:46:34Z</time>
      </trkpt>
      <trkpt lat="44.07475" lon="7.11953">
        <ele>809.1</ele>
        <time>2013-09-05T14:46:50Z</time>
      </trkpt>
      <trkpt lat="44.07469" lon="7.11965">
        <ele>810.5</ele>
        <time>2013-09-05T14:46:58Z</time>
      </trkpt>
      <trkpt lat="44.07471" lon="7.11999">
        <ele>813.9</ele>
        <time>2013-09-05T14:47:15Z</time>
      </trkpt>
      <trkpt lat="44.07471" lon="7.12001">
        <ele>814.4</ele>
        <time>2013-09-05T14:47:16Z</time>
      </trkpt>
      <trkpt lat="44.07461" lon="7.1201">
        <ele>815.3</ele>
        <time>2013-09-05T14:47:26Z</time>
      </trkpt>
      <trkpt lat="44.07452" lon="7.12">
        <ele>816.3</ele>
        <time>2013-09-05T14:47:37Z</time>
      </trkpt>
      <trkpt lat="44.07446" lon="7.11997">
        <ele>817.7</ele>
        <time>2013-09-05T14:47:41Z</time>
      </trkpt>
      <trkpt lat="44.0743" lon="7.11985">
        <ele>818.7</ele>
        <time>2013-09-05T14:47:55Z</time>
      </trkpt>
      <trkpt lat="44.07412" lon="7.11976">
        <ele>819.7</ele>
        <time>2013-09-05T14:48:07Z</time>
      </trkpt>
      <trkpt lat="44.07398" lon="7.11966">
        <ele>821.6</ele>
        <time>2013-09-05T14:48:18Z</time>
      </trkpt>
      <trkpt lat="44.07386" lon="7.11953">
        <ele>823</ele>
        <time>2013-09-05T14:48:30Z</time>
      </trkpt>
      <trkpt lat="44.07374" lon="7.11934">
        <ele>825</ele>
        <time>2013-09-05T14:48:41Z</time>
      </trkpt>
      <trkpt lat="44.07373" lon="7.11932">
        <ele>825</ele>
        <time>2013-09-05T14:48:42Z</time>
      </trkpt>
      <trkpt lat="44.07362" lon="7.11902">
        <ele>827.4</ele>
        <time>2013-09-05T14:48:57Z</time>
      </trkpt>
      <trkpt lat="44.07352" lon="7.11872">
        <ele>829.8</ele>
        <time>2013-09-05T14:49:11Z</time>
      </trkpt>
      <trkpt lat="44.07337" lon="7.1185">
        <ele>832.2</ele>
        <time>2013-09-05T14:49:24Z</time>
      </trkpt>
      <trkpt lat="44.07327" lon="7.11829">
        <ele>834.6</ele>
        <time>2013-09-05T14:49:35Z</time>
      </trkpt>
      <trkpt lat="44.07306" lon="7.11806">
        <ele>835.5</ele>
        <time>2013-09-05T14:49:48Z</time>
      </trkpt>
      <trkpt lat="44.07283" lon="7.11787">
        <ele>837.5</ele>
        <time>2013-09-05T14:50:02Z</time>
      </trkpt>
      <trkpt lat="44.07256" lon="7.11766">
        <ele>838.9</ele>
        <time>2013-09-05T14:50:17Z</time>
      </trkpt>
      <trkpt lat="44.07232" lon="7.1175">
        <ele>842.3</ele>
        <time>2013-09-05T14:50:31Z</time>
      </trkpt>
      <trkpt lat="44.07205" lon="7.11741">
        <ele>844.2</ele>
        <time>2013-09-05T14:50:46Z</time>
      </trkpt>
      <trkpt lat="44.07175" lon="7.1175">
        <ele>846.1</ele>
        <time>2013-09-05T14:51:03Z</time>
      </trkpt>
      <trkpt lat="44.07168" lon="7.11759">
        <ele>848</ele>
        <time>2013-09-05T14:51:09Z</time>
      </trkpt>
      <trkpt lat="44.07154" lon="7.11791">
        <ele>849.9</ele>
        <time>2013-09-05T14:51:26Z</time>
      </trkpt>
      <trkpt lat="44.07137" lon="7.11817">
        <ele>851.9</ele>
        <time>2013-09-05T14:51:40Z</time>
      </trkpt>
      <trkpt lat="44.07117" lon="7.11837">
        <ele>853.8</ele>
        <time>2013-09-05T14:51:55Z</time>
      </trkpt>
      <trkpt lat="44.07101" lon="7.11863">
        <ele>854.8</ele>
        <time>2013-09-05T14:52:08Z</time>
      </trkpt>
      <trkpt lat="44.07096" lon="7.11904">
        <ele>857.6</ele>
        <time>2013-09-05T14:52:24Z</time>
      </trkpt>
      <trkpt lat="44.07088" lon="7.11935">
        <ele>859.1</ele>
        <time>2013-09-05T14:52:38Z</time>
      </trkpt>
      <trkpt lat="44.07073" lon="7.11946">
        <ele>860</ele>
        <time>2013-09-05T14:52:48Z</time>
      </trkpt>
      <trkpt lat="44.07072" lon="7.11947">
        <ele>860.5</ele>
        <time>2013-09-05T14:52:49Z</time>
      </trkpt>
      <trkpt lat="44.07062" lon="7.11954">
        <ele>862.4</ele>
        <time>2013-09-05T14:52:56Z</time>
      </trkpt>
      <trkpt lat="44.07046" lon="7.11976">
        <ele>863.9</ele>
        <time>2013-09-05T14:53:08Z</time>
      </trkpt>
      <trkpt lat="44.07024" lon="7.11992">
        <ele>864.8</ele>
        <time>2013-09-05T14:53:20Z</time>
      </trkpt>
      <trkpt lat="44.06996" lon="7.12017">
        <ele>866.8</ele>
        <time>2013-09-05T14:53:36Z</time>
      </trkpt>
      <trkpt lat="44.07" lon="7.1206">
        <ele>869.2</ele>
        <time>2013-09-05T14:53:53Z</time>
      </trkpt>
      <trkpt lat="44.07003" lon="7.12074">
        <ele>870.6</ele>
        <time>2013-09-05T14:54:00Z</time>
      </trkpt>
      <trkpt lat="44.07011" lon="7.12114">
        <ele>873</ele>
        <time>2013-09-05T14:54:18Z</time>
      </trkpt>
      <trkpt lat="44.07016" lon="7.12161">
        <ele>875.4</ele>
        <time>2013-09-05T14:54:36Z</time>
      </trkpt>
      <trkpt lat="44.07017" lon="7.12212">
        <ele>877.8</ele>
        <time>2013-09-05T14:54:57Z</time>
      </trkpt>
      <trkpt lat="44.07005" lon="7.12256">
        <ele>879.7</ele>
        <time>2013-09-05T14:55:14Z</time>
      </trkpt>
      <trkpt lat="44.06993" lon="7.12299">
        <ele>882.2</ele>
        <time>2013-09-05T14:55:31Z</time>
      </trkpt>
      <trkpt lat="44.06989" lon="7.12331">
        <ele>885</ele>
        <time>2013-09-05T14:55:46Z</time>
      </trkpt>
      <trkpt lat="44.06982" lon="7.12362">
        <ele>888.4</ele>
        <time>2013-09-05T14:56:01Z</time>
      </trkpt>
      <trkpt lat="44.0698" lon="7.12396">
        <ele>891.8</ele>
        <time>2013-09-05T14:56:18Z</time>
      </trkpt>
      <trkpt lat="44.0698" lon="7.12398">
        <ele>891.8</ele>
        <time>2013-09-05T14:56:19Z</time>
      </trkpt>
      <trkpt lat="44.06991" lon="7.12426">
        <ele>894.6</ele>
        <time>2013-09-05T14:56:37Z</time>
      </trkpt>
      <trkpt lat="44.07006" lon="7.12455">
        <ele>897.5</ele>
        <time>2013-09-05T14:56:56Z</time>
      </trkpt>
      <trkpt lat="44.07013" lon="7.12482">
        <ele>899.5</ele>
        <time>2013-09-05T14:57:11Z</time>
      </trkpt>
      <trkpt lat="44.07012" lon="7.12494">
        <ele>900.9</ele>
        <time>2013-09-05T14:57:18Z</time>
      </trkpt>
      <trkpt lat="44.07014" lon="7.12528">
        <ele>903.8</ele>
        <time>2013-09-05T14:57:33Z</time>
      </trkpt>
      <trkpt lat="44.07018" lon="7.12562">
        <ele>905.7</ele>
        <time>2013-09-05T14:57:48Z</time>
      </trkpt>
      <trkpt lat="44.07013" lon="7.12597">
        <ele>908.6</ele>
        <time>2013-09-05T14:58:04Z</time>
      </trkpt>
      <trkpt lat="44.07006" lon="7.12604">
        <ele>909.1</ele>
        <time>2013-09-05T14:58:11Z</time>
      </trkpt>
      <trkpt lat="44.06991" lon="7.1261">
        <ele>912.4</ele>
        <time>2013-09-05T14:58:21Z</time>
      </trkpt>
      <trkpt lat="44.0697" lon="7.12632">
        <ele>914.4</ele>
        <time>2013-09-05T14:58:37Z</time>
      </trkpt>
      <trkpt lat="44.06962" lon="7.12646">
        <ele>916.3</ele>
        <time>2013-09-05T14:58:45Z</time>
      </trkpt>
      <trkpt lat="44.06957" lon="7.12658">
        <ele>917.7</ele>
        <time>2013-09-05T14:58:52Z</time>
      </trkpt>
      <trkpt lat="44.06942" lon="7.12685">
        <ele>920.6</ele>
        <time>2013-09-05T14:59:08Z</time>
      </trkpt>
      <trkpt lat="44.0693" lon="7.12716">
        <ele>923</ele>
        <time>2013-09-05T14:59:24Z</time>
      </trkpt>
      <trkpt lat="44.06936" lon="7.12758">
        <ele>925.4</ele>
        <time>2013-09-05T14:59:42Z</time>
      </trkpt>
      <trkpt lat="44.06947" lon="7.12785">
        <ele>927.8</ele>
        <time>2013-09-05T14:59:56Z</time>
      </trkpt>
      <trkpt lat="44.06946" lon="7.12813">
        <ele>930.7</ele>
        <time>2013-09-05T15:00:11Z</time>
      </trkpt>
      <trkpt lat="44.06946" lon="7.1283">
        <ele>933.1</ele>
        <time>2013-09-05T15:00:20Z</time>
      </trkpt>
      <trkpt lat="44.06939" lon="7.12859">
        <ele>936</ele>
        <time>2013-09-05T15:00:36Z</time>
      </trkpt>
      <trkpt lat="44.06937" lon="7.12884">
        <ele>939.4</ele>
        <time>2013-09-05T15:00:49Z</time>
      </trkpt>
      <trkpt lat="44.06941" lon="7.12913">
        <ele>941.3</ele>
        <time>2013-09-05T15:01:04Z</time>
      </trkpt>
      <trkpt lat="44.06941" lon="7.12917">
        <ele>941.8</ele>
        <time>2013-09-05T15:01:06Z</time>
      </trkpt>
      <trkpt lat="44.06941" lon="7.12919">
        <ele>942.2</ele>
        <time>2013-09-05T15:01:07Z</time>
      </trkpt>
      <trkpt lat="44.0694" lon="7.12921">
        <ele>942.2</ele>
        <time>2013-09-05T15:01:08Z</time>
      </trkpt>
      <trkpt lat="44.0694" lon="7.12923">
        <ele>942.2</ele>
        <time>2013-09-05T15:01:09Z</time>
      </trkpt>
      <trkpt lat="44.06939" lon="7.12925">
        <ele>942.2</ele>
        <time>2013-09-05T15:01:10Z</time>
      </trkpt>
      <trkpt lat="44.06938" lon="7.12926">
        <ele>942.2</ele>
        <time>2013-09-05T15:01:11Z</time>
      </trkpt>
      <trkpt lat="44.06937" lon="7.12927">
        <ele>942.7</ele>
        <time>2013-09-05T15:01:12Z</time>
      </trkpt>
      <trkpt lat="44.06918" lon="7.12933">
        <ele>943.7</ele>
        <time>2013-09-05T15:01:26Z</time>
      </trkpt>
      <trkpt lat="44.069" lon="7.12939">
        <ele>945.1</ele>
        <time>2013-09-05T15:01:41Z</time>
      </trkpt>
      <trkpt lat="44.06896" lon="7.12938">
        <ele>946.1</ele>
        <time>2013-09-05T15:01:51Z</time>
      </trkpt>
      <trkpt lat="44.06896" lon="7.12938">
        <ele>945.1</ele>
        <time>2013-09-05T15:01:58Z</time>
      </trkpt>
      <trkpt lat="44.06895" lon="7.12939">
        <ele>947</ele>
        <time>2013-09-05T15:01:59Z</time>
      </trkpt>
      <trkpt lat="44.06895" lon="7.12939">
        <ele>945.6</ele>
        <time>2013-09-05T15:02:00Z</time>
      </trkpt>
      <trkpt lat="44.06894" lon="7.12937">
        <ele>943.2</ele>
        <time>2013-09-05T15:02:09Z</time>
      </trkpt>
      <trkpt lat="44.06894" lon="7.12937">
        <ele>945.6</ele>
        <time>2013-09-05T15:02:13Z</time>
      </trkpt>
      <trkpt lat="44.06894" lon="7.12937">
        <ele>946.6</ele>
        <time>2013-09-05T15:02:15Z</time>
      </trkpt>
      <trkpt lat="44.06894" lon="7.12937">
        <ele>944.2</ele>
        <time>2013-09-05T15:02:16Z</time>
      </trkpt>
      <trkpt lat="44.06894" lon="7.12937">
        <ele>948</ele>
        <time>2013-09-05T15:02:17Z</time>
      </trkpt>
      <trkpt lat="44.06894" lon="7.12937">
        <ele>948</ele>
        <time>2013-09-05T15:02:18Z</time>
      </trkpt>
      <trkpt lat="44.06895" lon="7.12936">
        <ele>946.1</ele>
        <time>2013-09-05T15:02:20Z</time>
      </trkpt>
      <trkpt lat="44.06876" lon="7.12931">
        <ele>946.6</ele>
        <time>2013-09-05T15:02:31Z</time>
      </trkpt>
      <trkpt lat="44.06864" lon="7.1294">
        <ele>948</ele>
        <time>2013-09-05T15:02:39Z</time>
      </trkpt>
      <trkpt lat="44.0685" lon="7.12964">
        <ele>949.9</ele>
        <time>2013-09-05T15:02:54Z</time>
      </trkpt>
      <trkpt lat="44.06831" lon="7.12991">
        <ele>952.8</ele>
        <time>2013-09-05T15:03:10Z</time>
      </trkpt>
      <trkpt lat="44.0682" lon="7.13011">
        <ele>955.2</ele>
        <time>2013-09-05T15:03:23Z</time>
      </trkpt>
      <trkpt lat="44.06807" lon="7.13034">
        <ele>956.7</ele>
        <time>2013-09-05T15:03:39Z</time>
      </trkpt>
      <trkpt lat="44.06805" lon="7.13036">
        <ele>957.6</ele>
        <time>2013-09-05T15:03:41Z</time>
      </trkpt>
      <trkpt lat="44.06804" lon="7.13037">
        <ele>958.1</ele>
        <time>2013-09-05T15:03:42Z</time>
      </trkpt>
      <trkpt lat="44.06803" lon="7.13039">
        <ele>958.1</ele>
        <time>2013-09-05T15:03:43Z</time>
      </trkpt>
      <trkpt lat="44.06802" lon="7.1304">
        <ele>958.6</ele>
        <time>2013-09-05T15:03:44Z</time>
      </trkpt>
      <trkpt lat="44.06801" lon="7.13042">
        <ele>958.1</ele>
        <time>2013-09-05T15:03:45Z</time>
      </trkpt>
      <trkpt lat="44.068" lon="7.13043">
        <ele>958.1</ele>
        <time>2013-09-05T15:03:46Z</time>
      </trkpt>
      <trkpt lat="44.06799" lon="7.13045">
        <ele>957.6</ele>
        <time>2013-09-05T15:03:47Z</time>
      </trkpt>
      <trkpt lat="44.06793" lon="7.13051">
        <ele>959.5</ele>
        <time>2013-09-05T15:03:52Z</time>
      </trkpt>
      <trkpt lat="44.06779" lon="7.13072">
        <ele>960.5</ele>
        <time>2013-09-05T15:04:06Z</time>
      </trkpt>
      <trkpt lat="44.06775" lon="7.13101">
        <ele>963.9</ele>
        <time>2013-09-05T15:04:20Z</time>
      </trkpt>
      <trkpt lat="44.06777" lon="7.1313">
        <ele>966.7</ele>
        <time>2013-09-05T15:04:36Z</time>
      </trkpt>
      <trkpt lat="44.06772" lon="7.13142">
        <ele>967.7</ele>
        <time>2013-09-05T15:04:44Z</time>
      </trkpt>
      <trkpt lat="44.06771" lon="7.13142">
        <ele>967.7</ele>
        <time>2013-09-05T15:04:45Z</time>
      </trkpt>
      <trkpt lat="44.0677" lon="7.13143">
        <ele>967.7</ele>
        <time>2013-09-05T15:04:46Z</time>
      </trkpt>
      <trkpt lat="44.06769" lon="7.13143">
        <ele>967.7</ele>
        <time>2013-09-05T15:04:47Z</time>
      </trkpt>
      <trkpt lat="44.06768" lon="7.13144">
        <ele>968.7</ele>
        <time>2013-09-05T15:04:48Z</time>
      </trkpt>
      <trkpt lat="44.06767" lon="7.13145">
        <ele>967.7</ele>
        <time>2013-09-05T15:04:49Z</time>
      </trkpt>
      <trkpt lat="44.06761" lon="7.13148">
        <ele>969.2</ele>
        <time>2013-09-05T15:04:54Z</time>
      </trkpt>
      <trkpt lat="44.0676" lon="7.13148">
        <ele>968.7</ele>
        <time>2013-09-05T15:04:55Z</time>
      </trkpt>
      <trkpt lat="44.06758" lon="7.13148">
        <ele>969.6</ele>
        <time>2013-09-05T15:04:56Z</time>
      </trkpt>
      <trkpt lat="44.06757" lon="7.13148">
        <ele>969.2</ele>
        <time>2013-09-05T15:04:57Z</time>
      </trkpt>
      <trkpt lat="44.06756" lon="7.13147">
        <ele>969.2</ele>
        <time>2013-09-05T15:04:58Z</time>
      </trkpt>
      <trkpt lat="44.06733" lon="7.13136">
        <ele>972.5</ele>
        <time>2013-09-05T15:05:14Z</time>
      </trkpt>
      <trkpt lat="44.06711" lon="7.1314">
        <ele>973</ele>
        <time>2013-09-05T15:05:28Z</time>
      </trkpt>
      <trkpt lat="44.06686" lon="7.13149">
        <ele>975.4</ele>
        <time>2013-09-05T15:05:43Z</time>
      </trkpt>
      <trkpt lat="44.06669" lon="7.1314">
        <ele>978.3</ele>
        <time>2013-09-05T15:05:57Z</time>
      </trkpt>
      <trkpt lat="44.06654" lon="7.13115">
        <ele>980.7</ele>
        <time>2013-09-05T15:06:11Z</time>
      </trkpt>
      <trkpt lat="44.06631" lon="7.13093">
        <ele>983.1</ele>
        <time>2013-09-05T15:06:25Z</time>
      </trkpt>
      <trkpt lat="44.06604" lon="7.13075">
        <ele>985</ele>
        <time>2013-09-05T15:06:41Z</time>
      </trkpt>
      <trkpt lat="44.06582" lon="7.13054">
        <ele>986.5</ele>
        <time>2013-09-05T15:06:54Z</time>
      </trkpt>
      <trkpt lat="44.06554" lon="7.13026">
        <ele>988.4</ele>
        <time>2013-09-05T15:07:10Z</time>
      </trkpt>
      <trkpt lat="44.0653" lon="7.1301">
        <ele>990.8</ele>
        <time>2013-09-05T15:07:25Z</time>
      </trkpt>
      <trkpt lat="44.06521" lon="7.13011">
        <ele>992.7</ele>
        <time>2013-09-05T15:07:31Z</time>
      </trkpt>
      <trkpt lat="44.06497" lon="7.13008">
        <ele>995.6</ele>
        <time>2013-09-05T15:07:47Z</time>
      </trkpt>
      <trkpt lat="44.06482" lon="7.13003">
        <ele>997.5</ele>
        <time>2013-09-05T15:07:58Z</time>
      </trkpt>
      <trkpt lat="44.06463" lon="7.13002">
        <ele>998.5</ele>
        <time>2013-09-05T15:08:10Z</time>
      </trkpt>
      <trkpt lat="44.06464" lon="7.13003">
        <ele>999</ele>
        <time>2013-09-05T15:08:23Z</time>
      </trkpt>
      <trkpt lat="44.0646" lon="7.13003">
        <ele>999.4</ele>
        <time>2013-09-05T15:08:31Z</time>
      </trkpt>
      <trkpt lat="44.06459" lon="7.13003">
        <ele>999.4</ele>
        <time>2013-09-05T15:08:32Z</time>
      </trkpt>
      <trkpt lat="44.06457" lon="7.13006">
        <ele>999.4</ele>
        <time>2013-09-05T15:08:36Z</time>
      </trkpt>
      <trkpt lat="44.06456" lon="7.13006">
        <ele>999.9</ele>
        <time>2013-09-05T15:08:37Z</time>
      </trkpt>
      <trkpt lat="44.06454" lon="7.13008">
        <ele>999.9</ele>
        <time>2013-09-05T15:08:38Z</time>
      </trkpt>
      <trkpt lat="44.06441" lon="7.13024">
        <ele>1002.8</ele>
        <time>2013-09-05T15:08:49Z</time>
      </trkpt>
      <trkpt lat="44.06426" lon="7.13051">
        <ele>1004.2</ele>
        <time>2013-09-05T15:09:05Z</time>
      </trkpt>
      <trkpt lat="44.06417" lon="7.13059">
        <ele>1005.7</ele>
        <time>2013-09-05T15:09:12Z</time>
      </trkpt>
      <trkpt lat="44.06399" lon="7.13075">
        <ele>1008.6</ele>
        <time>2013-09-05T15:09:26Z</time>
      </trkpt>
      <trkpt lat="44.06373" lon="7.13076">
        <ele>1010</ele>
        <time>2013-09-05T15:09:42Z</time>
      </trkpt>
      <trkpt lat="44.06361" lon="7.13067">
        <ele>1011.4</ele>
        <time>2013-09-05T15:09:50Z</time>
      </trkpt>
      <trkpt lat="44.0636" lon="7.13067">
        <ele>1011.4</ele>
        <time>2013-09-05T15:09:51Z</time>
      </trkpt>
      <trkpt lat="44.06348" lon="7.13056">
        <ele>1013.4</ele>
        <time>2013-09-05T15:10:04Z</time>
      </trkpt>
      <trkpt lat="44.06348" lon="7.13057">
        <ele>1012.9</ele>
        <time>2013-09-05T15:10:05Z</time>
      </trkpt>
      <trkpt lat="44.06347" lon="7.13059">
        <ele>1012.9</ele>
        <time>2013-09-05T15:10:06Z</time>
      </trkpt>
      <trkpt lat="44.06348" lon="7.13061">
        <ele>1012.9</ele>
        <time>2013-09-05T15:10:07Z</time>
      </trkpt>
      <trkpt lat="44.06348" lon="7.13063">
        <ele>1012.9</ele>
        <time>2013-09-05T15:10:08Z</time>
      </trkpt>
      <trkpt lat="44.06349" lon="7.13065">
        <ele>1012.9</ele>
        <time>2013-09-05T15:10:09Z</time>
      </trkpt>
      <trkpt lat="44.06349" lon="7.13067">
        <ele>1013.4</ele>
        <time>2013-09-05T15:10:10Z</time>
      </trkpt>
      <trkpt lat="44.06348" lon="7.13069">
        <ele>1013.4</ele>
        <time>2013-09-05T15:10:11Z</time>
      </trkpt>
      <trkpt lat="44.06348" lon="7.13071">
        <ele>1013.4</ele>
        <time>2013-09-05T15:10:12Z</time>
      </trkpt>
      <trkpt lat="44.06347" lon="7.13074">
        <ele>1013.9</ele>
        <time>2013-09-05T15:10:13Z</time>
      </trkpt>
      <trkpt lat="44.06346" lon="7.13075">
        <ele>1013.4</ele>
        <time>2013-09-05T15:10:14Z</time>
      </trkpt>
      <trkpt lat="44.06345" lon="7.1311">
        <ele>1013.4</ele>
        <time>2013-09-05T15:10:30Z</time>
      </trkpt>
      <trkpt lat="44.06346" lon="7.13116">
        <ele>1012.9</ele>
        <time>2013-09-05T15:10:32Z</time>
      </trkpt>
      <trkpt lat="44.06348" lon="7.13119">
        <ele>1012.4</ele>
        <time>2013-09-05T15:10:33Z</time>
      </trkpt>
      <trkpt lat="44.0635" lon="7.13121">
        <ele>1013.4</ele>
        <time>2013-09-05T15:10:34Z</time>
      </trkpt>
      <trkpt lat="44.06385" lon="7.13166">
        <ele>1011.9</ele>
        <time>2013-09-05T15:10:47Z</time>
      </trkpt>
      <trkpt lat="44.06389" lon="7.13168">
        <ele>1011.9</ele>
        <time>2013-09-05T15:10:56Z</time>
      </trkpt>
      <trkpt lat="44.06388" lon="7.13165">
        <ele>1011.9</ele>
        <time>2013-09-05T15:11:13Z</time>
      </trkpt>
      <trkpt lat="44.06386" lon="7.13163">
        <ele>1010.5</ele>
        <time>2013-09-05T15:11:38Z</time>
      </trkpt>
      <trkpt lat="44.06383" lon="7.13165">
        <ele>1011</ele>
        <time>2013-09-05T15:12:12Z</time>
      </trkpt>
      <trkpt lat="44.06385" lon="7.13166">
        <ele>1011</ele>
        <time>2013-09-05T15:12:39Z</time>
      </trkpt>
      <trkpt lat="44.06386" lon="7.13173">
        <ele>1012.9</ele>
        <time>2013-09-05T15:13:06Z</time>
      </trkpt>
      <trkpt lat="44.06386" lon="7.13176">
        <ele>1011.9</ele>
        <time>2013-09-05T15:13:18Z</time>
      </trkpt>
      <trkpt lat="44.06394" lon="7.13218">
        <ele>1011.9</ele>
        <time>2013-09-05T15:13:29Z</time>
      </trkpt>
      <trkpt lat="44.06409" lon="7.13269">
        <ele>1009</ele>
        <time>2013-09-05T15:13:43Z</time>
      </trkpt>
      <trkpt lat="44.06412" lon="7.13269">
        <ele>1009</ele>
        <time>2013-09-05T15:13:57Z</time>
      </trkpt>
      <trkpt lat="44.0641" lon="7.13268">
        <ele>1009</ele>
        <time>2013-09-05T15:14:36Z</time>
      </trkpt>
      <trkpt lat="44.06408" lon="7.13268">
        <ele>1009.5</ele>
        <time>2013-09-05T15:15:09Z</time>
      </trkpt>
      <trkpt lat="44.06409" lon="7.13268">
        <ele>1009</ele>
        <time>2013-09-05T15:15:41Z</time>
      </trkpt>
      <trkpt lat="44.06409" lon="7.13265">
        <ele>1009.5</ele>
        <time>2013-09-05T15:16:12Z</time>
      </trkpt>
      <trkpt lat="44.0641" lon="7.13266">
        <ele>1010</ele>
        <time>2013-09-05T15:16:45Z</time>
      </trkpt>
      <trkpt lat="44.06409" lon="7.13269">
        <ele>1010</ele>
        <time>2013-09-05T15:17:22Z</time>
      </trkpt>
      <trkpt lat="44.06408" lon="7.13266">
        <ele>1010</ele>
        <time>2013-09-05T15:17:55Z</time>
      </trkpt>
      <trkpt lat="44.06409" lon="7.13268">
        <ele>1010</ele>
        <time>2013-09-05T15:18:22Z</time>
      </trkpt>
      <trkpt lat="44.06409" lon="7.13266">
        <ele>1011</ele>
        <time>2013-09-05T15:19:08Z</time>
      </trkpt>
      <trkpt lat="44.06408" lon="7.13269">
        <ele>1011</ele>
        <time>2013-09-05T15:19:45Z</time>
      </trkpt>
      <trkpt lat="44.06409" lon="7.13273">
        <ele>1011</ele>
        <time>2013-09-05T15:20:24Z</time>
      </trkpt>
      <trkpt lat="44.06406" lon="7.13273">
        <ele>1011</ele>
        <time>2013-09-05T15:20:56Z</time>
      </trkpt>
      <trkpt lat="44.0641" lon="7.1327">
        <ele>1011</ele>
        <time>2013-09-05T15:21:11Z</time>
      </trkpt>
      <trkpt lat="44.0641" lon="7.13268">
        <ele>1010.5</ele>
        <time>2013-09-05T15:21:12Z</time>
      </trkpt>
      <trkpt lat="44.06409" lon="7.13267">
        <ele>1011.4</ele>
        <time>2013-09-05T15:21:13Z</time>
      </trkpt>
      <trkpt lat="44.06408" lon="7.13265">
        <ele>1011</ele>
        <time>2013-09-05T15:21:14Z</time>
      </trkpt>
      <trkpt lat="44.06407" lon="7.13264">
        <ele>1011</ele>
        <time>2013-09-05T15:21:15Z</time>
      </trkpt>
      <trkpt lat="44.06405" lon="7.13266">
        <ele>1011.9</ele>
        <time>2013-09-05T15:21:17Z</time>
      </trkpt>
      <trkpt lat="44.06405" lon="7.13267">
        <ele>1011.9</ele>
        <time>2013-09-05T15:21:18Z</time>
      </trkpt>
      <trkpt lat="44.06405" lon="7.13271">
        <ele>1011.4</ele>
        <time>2013-09-05T15:21:30Z</time>
      </trkpt>
      <trkpt lat="44.06408" lon="7.13275">
        <ele>1011.4</ele>
        <time>2013-09-05T15:21:48Z</time>
      </trkpt>
      <trkpt lat="44.06409" lon="7.13276">
        <ele>1011</ele>
        <time>2013-09-05T15:21:49Z</time>
      </trkpt>
      <trkpt lat="44.06414" lon="7.13291">
        <ele>1007.6</ele>
        <time>2013-09-05T15:21:55Z</time>
      </trkpt>
      <trkpt lat="44.06417" lon="7.13307">
        <ele>1003.8</ele>
        <time>2013-09-05T15:22:00Z</time>
      </trkpt>
      <trkpt lat="44.06419" lon="7.1332">
        <ele>1000.9</ele>
        <time>2013-09-05T15:22:11Z</time>
      </trkpt>
      <trkpt lat="44.06423" lon="7.1333">
        <ele>999.9</ele>
        <time>2013-09-05T15:22:21Z</time>
      </trkpt>
      <trkpt lat="44.06425" lon="7.13337">
        <ele>998.5</ele>
        <time>2013-09-05T15:22:26Z</time>
      </trkpt>
      <trkpt lat="44.06433" lon="7.13352">
        <ele>996.5</ele>
        <time>2013-09-05T15:22:36Z</time>
      </trkpt>
      <trkpt lat="44.06436" lon="7.13354">
        <ele>997</ele>
        <time>2013-09-05T15:22:46Z</time>
      </trkpt>
      <trkpt lat="44.0644" lon="7.1336">
        <ele>994.6</ele>
        <time>2013-09-05T15:23:02Z</time>
      </trkpt>
      <trkpt lat="44.06441" lon="7.13361">
        <ele>994.1</ele>
        <time>2013-09-05T15:23:03Z</time>
      </trkpt>
      <trkpt lat="44.06445" lon="7.13371">
        <ele>992.2</ele>
        <time>2013-09-05T15:23:08Z</time>
      </trkpt>
      <trkpt lat="44.0646" lon="7.1339">
        <ele>988.9</ele>
        <time>2013-09-05T15:23:19Z</time>
      </trkpt>
      <trkpt lat="44.06465" lon="7.1341">
        <ele>985.5</ele>
        <time>2013-09-05T15:23:28Z</time>
      </trkpt>
      <trkpt lat="44.06465" lon="7.13415">
        <ele>984.5</ele>
        <time>2013-09-05T15:23:30Z</time>
      </trkpt>
      <trkpt lat="44.0647" lon="7.13434">
        <ele>982.6</ele>
        <time>2013-09-05T15:23:43Z</time>
      </trkpt>
      <trkpt lat="44.06472" lon="7.13447">
        <ele>981.6</ele>
        <time>2013-09-05T15:23:49Z</time>
      </trkpt>
      <trkpt lat="44.06477" lon="7.13477">
        <ele>978.3</ele>
        <time>2013-09-05T15:23:59Z</time>
      </trkpt>
      <trkpt lat="44.0648" lon="7.1349">
        <ele>977.3</ele>
        <time>2013-09-05T15:24:10Z</time>
      </trkpt>
      <trkpt lat="44.06481" lon="7.135">
        <ele>976.8</ele>
        <time>2013-09-05T15:24:19Z</time>
      </trkpt>
      <trkpt lat="44.06483" lon="7.13531">
        <ele>974.4</ele>
        <time>2013-09-05T15:24:28Z</time>
      </trkpt>
      <trkpt lat="44.06489" lon="7.13568">
        <ele>971.1</ele>
        <time>2013-09-05T15:24:41Z</time>
      </trkpt>
      <trkpt lat="44.0649" lon="7.13577">
        <ele>970.1</ele>
        <time>2013-09-05T15:24:45Z</time>
      </trkpt>
      <trkpt lat="44.06502" lon="7.13601">
        <ele>968.7</ele>
        <time>2013-09-05T15:24:54Z</time>
      </trkpt>
      <trkpt lat="44.06504" lon="7.13602">
        <ele>969.2</ele>
        <time>2013-09-05T15:24:55Z</time>
      </trkpt>
      <trkpt lat="44.06506" lon="7.13604">
        <ele>969.2</ele>
        <time>2013-09-05T15:24:56Z</time>
      </trkpt>
      <trkpt lat="44.06508" lon="7.13606">
        <ele>969.2</ele>
        <time>2013-09-05T15:24:57Z</time>
      </trkpt>
      <trkpt lat="44.0651" lon="7.13608">
        <ele>969.6</ele>
        <time>2013-09-05T15:24:58Z</time>
      </trkpt>
      <trkpt lat="44.06539" lon="7.13629">
        <ele>966.7</ele>
        <time>2013-09-05T15:25:09Z</time>
      </trkpt>
      <trkpt lat="44.06553" lon="7.13635">
        <ele>964.3</ele>
        <time>2013-09-05T15:25:19Z</time>
      </trkpt>
      <trkpt lat="44.06572" lon="7.13655">
        <ele>961.5</ele>
        <time>2013-09-05T15:25:29Z</time>
      </trkpt>
      <trkpt lat="44.06587" lon="7.13674">
        <ele>958.1</ele>
        <time>2013-09-05T15:25:35Z</time>
      </trkpt>
      <trkpt lat="44.06589" lon="7.13677">
        <ele>958.1</ele>
        <time>2013-09-05T15:25:36Z</time>
      </trkpt>
      <trkpt lat="44.066" lon="7.13692">
        <ele>955.2</ele>
        <time>2013-09-05T15:25:41Z</time>
      </trkpt>
      <trkpt lat="44.06603" lon="7.13696">
        <ele>954.7</ele>
        <time>2013-09-05T15:25:42Z</time>
      </trkpt>
      <trkpt lat="44.06619" lon="7.13718">
        <ele>951.4</ele>
        <time>2013-09-05T15:25:49Z</time>
      </trkpt>
      <trkpt lat="44.06622" lon="7.13722">
        <ele>951.4</ele>
        <time>2013-09-05T15:25:50Z</time>
      </trkpt>
      <trkpt lat="44.06645" lon="7.13758">
        <ele>947.5</ele>
        <time>2013-09-05T15:26:00Z</time>
      </trkpt>
      <trkpt lat="44.06665" lon="7.13787">
        <ele>944.6</ele>
        <time>2013-09-05T15:26:10Z</time>
      </trkpt>
      <trkpt lat="44.06693" lon="7.13805">
        <ele>943.7</ele>
        <time>2013-09-05T15:26:22Z</time>
      </trkpt>
      <trkpt lat="44.0671" lon="7.13809">
        <ele>941.3</ele>
        <time>2013-09-05T15:26:33Z</time>
      </trkpt>
      <trkpt lat="44.06714" lon="7.13823">
        <ele>939.4</ele>
        <time>2013-09-05T15:26:37Z</time>
      </trkpt>
      <trkpt lat="44.06714" lon="7.13826">
        <ele>938.9</ele>
        <time>2013-09-05T15:26:38Z</time>
      </trkpt>
      <trkpt lat="44.06713" lon="7.13831">
        <ele>938.9</ele>
        <time>2013-09-05T15:26:39Z</time>
      </trkpt>
      <trkpt lat="44.0671" lon="7.13836">
        <ele>938.4</ele>
        <time>2013-09-05T15:26:40Z</time>
      </trkpt>
      <trkpt lat="44.06708" lon="7.1384">
        <ele>937.9</ele>
        <time>2013-09-05T15:26:41Z</time>
      </trkpt>
      <trkpt lat="44.06705" lon="7.13846">
        <ele>937.9</ele>
        <time>2013-09-05T15:26:42Z</time>
      </trkpt>
      <trkpt lat="44.06702" lon="7.13851">
        <ele>936.9</ele>
        <time>2013-09-05T15:26:43Z</time>
      </trkpt>
      <trkpt lat="44.06697" lon="7.13862">
        <ele>935</ele>
        <time>2013-09-05T15:26:45Z</time>
      </trkpt>
      <trkpt lat="44.06692" lon="7.13876">
        <ele>933.6</ele>
        <time>2013-09-05T15:26:47Z</time>
      </trkpt>
      <trkpt lat="44.06691" lon="7.13883">
        <ele>933.1</ele>
        <time>2013-09-05T15:26:48Z</time>
      </trkpt>
      <trkpt lat="44.06691" lon="7.13891">
        <ele>932.6</ele>
        <time>2013-09-05T15:26:49Z</time>
      </trkpt>
      <trkpt lat="44.06691" lon="7.13912">
        <ele>934.1</ele>
        <time>2013-09-05T15:26:54Z</time>
      </trkpt>
      <trkpt lat="44.06697" lon="7.13945">
        <ele>936</ele>
        <time>2013-09-05T15:27:08Z</time>
      </trkpt>
      <trkpt lat="44.067" lon="7.1396">
        <ele>937.4</ele>
        <time>2013-09-05T15:27:22Z</time>
      </trkpt>
      <trkpt lat="44.06703" lon="7.13965">
        <ele>938.9</ele>
        <time>2013-09-05T15:27:39Z</time>
      </trkpt>
      <trkpt lat="44.06708" lon="7.1398">
        <ele>940.3</ele>
        <time>2013-09-05T15:27:59Z</time>
      </trkpt>
      <trkpt lat="44.06707" lon="7.13998">
        <ele>939.4</ele>
        <time>2013-09-05T15:28:14Z</time>
      </trkpt>
      <trkpt lat="44.06709" lon="7.14037">
        <ele>935.5</ele>
        <time>2013-09-05T15:28:22Z</time>
      </trkpt>
      <trkpt lat="44.06707" lon="7.14067">
        <ele>932.1</ele>
        <time>2013-09-05T15:28:29Z</time>
      </trkpt>
      <trkpt lat="44.06707" lon="7.14074">
        <ele>931.7</ele>
        <time>2013-09-05T15:28:31Z</time>
      </trkpt>
      <trkpt lat="44.06708" lon="7.14116">
        <ele>929.3</ele>
        <time>2013-09-05T15:28:41Z</time>
      </trkpt>
      <trkpt lat="44.06708" lon="7.14139">
        <ele>928.3</ele>
        <time>2013-09-05T15:28:51Z</time>
      </trkpt>
      <trkpt lat="44.06709" lon="7.14158">
        <ele>925.9</ele>
        <time>2013-09-05T15:29:01Z</time>
      </trkpt>
      <trkpt lat="44.0671" lon="7.14159">
        <ele>924.9</ele>
        <time>2013-09-05T15:29:02Z</time>
      </trkpt>
      <trkpt lat="44.06711" lon="7.14161">
        <ele>924.9</ele>
        <time>2013-09-05T15:29:03Z</time>
      </trkpt>
      <trkpt lat="44.06712" lon="7.14162">
        <ele>924.5</ele>
        <time>2013-09-05T15:29:04Z</time>
      </trkpt>
      <trkpt lat="44.06713" lon="7.14164">
        <ele>924</ele>
        <time>2013-09-05T15:29:05Z</time>
      </trkpt>
      <trkpt lat="44.0671" lon="7.14168">
        <ele>922.5</ele>
        <time>2013-09-05T15:29:09Z</time>
      </trkpt>
      <trkpt lat="44.06708" lon="7.14173">
        <ele>921.6</ele>
        <time>2013-09-05T15:29:20Z</time>
      </trkpt>
      <trkpt lat="44.06713" lon="7.14184">
        <ele>920.1</ele>
        <time>2013-09-05T15:29:32Z</time>
      </trkpt>
      <trkpt lat="44.06715" lon="7.14196">
        <ele>917.2</ele>
        <time>2013-09-05T15:29:47Z</time>
      </trkpt>
      <trkpt lat="44.06716" lon="7.14205">
        <ele>915.3</ele>
        <time>2013-09-05T15:30:00Z</time>
      </trkpt>
      <trkpt lat="44.06714" lon="7.1421">
        <ele>915.3</ele>
        <time>2013-09-05T15:30:10Z</time>
      </trkpt>
      <trkpt lat="44.06718" lon="7.14218">
        <ele>912</ele>
        <time>2013-09-05T15:30:23Z</time>
      </trkpt>
      <trkpt lat="44.06718" lon="7.14219">
        <ele>912</ele>
        <time>2013-09-05T15:30:24Z</time>
      </trkpt>
      <trkpt lat="44.06721" lon="7.14234">
        <ele>910</ele>
        <time>2013-09-05T15:30:38Z</time>
      </trkpt>
      <trkpt lat="44.06724" lon="7.14246">
        <ele>908.6</ele>
        <time>2013-09-05T15:30:51Z</time>
      </trkpt>
      <trkpt lat="44.06729" lon="7.14261">
        <ele>906.2</ele>
        <time>2013-09-05T15:31:05Z</time>
      </trkpt>
      <trkpt lat="44.06737" lon="7.1427">
        <ele>903.8</ele>
        <time>2013-09-05T15:31:19Z</time>
      </trkpt>
      <trkpt lat="44.06738" lon="7.14273">
        <ele>904.3</ele>
        <time>2013-09-05T15:31:29Z</time>
      </trkpt>
      <trkpt lat="44.06739" lon="7.14276">
        <ele>904.3</ele>
        <time>2013-09-05T15:31:30Z</time>
      </trkpt>
      <trkpt lat="44.0674" lon="7.14278">
        <ele>903.8</ele>
        <time>2013-09-05T15:31:31Z</time>
      </trkpt>
      <trkpt lat="44.06766" lon="7.14304">
        <ele>900.9</ele>
        <time>2013-09-05T15:31:42Z</time>
      </trkpt>
      <trkpt lat="44.06776" lon="7.14316">
        <ele>898</ele>
        <time>2013-09-05T15:31:46Z</time>
      </trkpt>
      <trkpt lat="44.06785" lon="7.14327">
        <ele>896.1</ele>
        <time>2013-09-05T15:31:50Z</time>
      </trkpt>
      <trkpt lat="44.06796" lon="7.14348">
        <ele>893.2</ele>
        <time>2013-09-05T15:31:55Z</time>
      </trkpt>
      <trkpt lat="44.06793" lon="7.14389">
        <ele>890.3</ele>
        <time>2013-09-05T15:32:05Z</time>
      </trkpt>
      <trkpt lat="44.06777" lon="7.14415">
        <ele>888.4</ele>
        <time>2013-09-05T15:32:12Z</time>
      </trkpt>
      <trkpt lat="44.06774" lon="7.14416">
        <ele>888.4</ele>
        <time>2013-09-05T15:32:13Z</time>
      </trkpt>
      <trkpt lat="44.06749" lon="7.14434">
        <ele>885.5</ele>
        <time>2013-09-05T15:32:21Z</time>
      </trkpt>
      <trkpt lat="44.06735" lon="7.14443">
        <ele>882.2</ele>
        <time>2013-09-05T15:32:26Z</time>
      </trkpt>
      <trkpt lat="44.06726" lon="7.14448">
        <ele>880.2</ele>
        <time>2013-09-05T15:32:29Z</time>
      </trkpt>
      <trkpt lat="44.06709" lon="7.14452">
        <ele>877.8</ele>
        <time>2013-09-05T15:32:34Z</time>
      </trkpt>
      <trkpt lat="44.06695" lon="7.14457">
        <ele>874.5</ele>
        <time>2013-09-05T15:32:40Z</time>
      </trkpt>
      <trkpt lat="44.06693" lon="7.14459">
        <ele>874</ele>
        <time>2013-09-05T15:32:41Z</time>
      </trkpt>
      <trkpt lat="44.06693" lon="7.14462">
        <ele>874</ele>
        <time>2013-09-05T15:32:42Z</time>
      </trkpt>
      <trkpt lat="44.06694" lon="7.14464">
        <ele>873.5</ele>
        <time>2013-09-05T15:32:43Z</time>
      </trkpt>
      <trkpt lat="44.06695" lon="7.14467">
        <ele>873</ele>
        <time>2013-09-05T15:32:44Z</time>
      </trkpt>
      <trkpt lat="44.06697" lon="7.14469">
        <ele>873</ele>
        <time>2013-09-05T15:32:45Z</time>
      </trkpt>
      <trkpt lat="44.067" lon="7.14472">
        <ele>872.1</ele>
        <time>2013-09-05T15:32:46Z</time>
      </trkpt>
      <trkpt lat="44.06703" lon="7.14474">
        <ele>871.1</ele>
        <time>2013-09-05T15:32:47Z</time>
      </trkpt>
      <trkpt lat="44.06712" lon="7.1448">
        <ele>869.2</ele>
        <time>2013-09-05T15:32:50Z</time>
      </trkpt>
      <trkpt lat="44.06724" lon="7.14485">
        <ele>865.8</ele>
        <time>2013-09-05T15:32:54Z</time>
      </trkpt>
      <trkpt lat="44.06734" lon="7.14491">
        <ele>862.4</ele>
        <time>2013-09-05T15:32:58Z</time>
      </trkpt>
      <trkpt lat="44.06744" lon="7.14499">
        <ele>859.1</ele>
        <time>2013-09-05T15:33:02Z</time>
      </trkpt>
      <trkpt lat="44.06749" lon="7.14501">
        <ele>858.1</ele>
        <time>2013-09-05T15:33:04Z</time>
      </trkpt>
      <trkpt lat="44.06759" lon="7.14503">
        <ele>855.7</ele>
        <time>2013-09-05T15:33:07Z</time>
      </trkpt>
      <trkpt lat="44.06767" lon="7.14501">
        <ele>854.3</ele>
        <time>2013-09-05T15:33:15Z</time>
      </trkpt>
      <trkpt lat="44.06789" lon="7.1449">
        <ele>854.3</ele>
        <time>2013-09-05T15:33:26Z</time>
      </trkpt>
      <trkpt lat="44.06794" lon="7.1449">
        <ele>853.3</ele>
        <time>2013-09-05T15:33:27Z</time>
      </trkpt>
      <trkpt lat="44.06799" lon="7.14492">
        <ele>852.8</ele>
        <time>2013-09-05T15:33:28Z</time>
      </trkpt>
      <trkpt lat="44.06818" lon="7.14499">
        <ele>850.4</ele>
        <time>2013-09-05T15:33:33Z</time>
      </trkpt>
      <trkpt lat="44.06822" lon="7.145">
        <ele>850.4</ele>
        <time>2013-09-05T15:33:34Z</time>
      </trkpt>
      <trkpt lat="44.06832" lon="7.14499">
        <ele>849</ele>
        <time>2013-09-05T15:33:36Z</time>
      </trkpt>
      <trkpt lat="44.06837" lon="7.14499">
        <ele>848.5</ele>
        <time>2013-09-05T15:33:37Z</time>
      </trkpt>
      <trkpt lat="44.0684" lon="7.14499">
        <ele>847.5</ele>
        <time>2013-09-05T15:33:38Z</time>
      </trkpt>
      <trkpt lat="44.0685" lon="7.1451">
        <ele>844.2</ele>
        <time>2013-09-05T15:33:43Z</time>
      </trkpt>
      <trkpt lat="44.06849" lon="7.14512">
        <ele>844.2</ele>
        <time>2013-09-05T15:33:44Z</time>
      </trkpt>
      <trkpt lat="44.06848" lon="7.14515">
        <ele>844.7</ele>
        <time>2013-09-05T15:33:45Z</time>
      </trkpt>
      <trkpt lat="44.06827" lon="7.14532">
        <ele>846.1</ele>
        <time>2013-09-05T15:33:55Z</time>
      </trkpt>
      <trkpt lat="44.0682" lon="7.1454">
        <ele>847.1</ele>
        <time>2013-09-05T15:34:02Z</time>
      </trkpt>
      <trkpt lat="44.0682" lon="7.14542">
        <ele>847.1</ele>
        <time>2013-09-05T15:34:03Z</time>
      </trkpt>
      <trkpt lat="44.06807" lon="7.14574">
        <ele>847.1</ele>
        <time>2013-09-05T15:34:16Z</time>
      </trkpt>
      <trkpt lat="44.06794" lon="7.14597">
        <ele>845.6</ele>
        <time>2013-09-05T15:34:23Z</time>
      </trkpt>
      <trkpt lat="44.06793" lon="7.14603">
        <ele>845.1</ele>
        <time>2013-09-05T15:34:24Z</time>
      </trkpt>
      <trkpt lat="44.06792" lon="7.14609">
        <ele>845.1</ele>
        <time>2013-09-05T15:34:25Z</time>
      </trkpt>
      <trkpt lat="44.06793" lon="7.14616">
        <ele>845.1</ele>
        <time>2013-09-05T15:34:26Z</time>
      </trkpt>
      <trkpt lat="44.06793" lon="7.14624">
        <ele>844.2</ele>
        <time>2013-09-05T15:34:27Z</time>
      </trkpt>
      <trkpt lat="44.06794" lon="7.1464">
        <ele>844.2</ele>
        <time>2013-09-05T15:34:29Z</time>
      </trkpt>
      <trkpt lat="44.06798" lon="7.14665">
        <ele>842.7</ele>
        <time>2013-09-05T15:34:32Z</time>
      </trkpt>
      <trkpt lat="44.06797" lon="7.14673">
        <ele>842.7</ele>
        <time>2013-09-05T15:34:33Z</time>
      </trkpt>
      <trkpt lat="44.06796" lon="7.14691">
        <ele>841.8</ele>
        <time>2013-09-05T15:34:35Z</time>
      </trkpt>
      <trkpt lat="44.06797" lon="7.14699">
        <ele>841.3</ele>
        <time>2013-09-05T15:34:36Z</time>
      </trkpt>
      <trkpt lat="44.06799" lon="7.14708">
        <ele>841.3</ele>
        <time>2013-09-05T15:34:37Z</time>
      </trkpt>
      <trkpt lat="44.06802" lon="7.14715">
        <ele>840.8</ele>
        <time>2013-09-05T15:34:38Z</time>
      </trkpt>
      <trkpt lat="44.06806" lon="7.14722">
        <ele>840.3</ele>
        <time>2013-09-05T15:34:39Z</time>
      </trkpt>
      <trkpt lat="44.06815" lon="7.14739">
        <ele>839.4</ele>
        <time>2013-09-05T15:34:42Z</time>
      </trkpt>
      <trkpt lat="44.06839" lon="7.14784">
        <ele>837</ele>
        <time>2013-09-05T15:34:50Z</time>
      </trkpt>
      <trkpt lat="44.06841" lon="7.1479">
        <ele>837</ele>
        <time>2013-09-05T15:34:51Z</time>
      </trkpt>
      <trkpt lat="44.06842" lon="7.14796">
        <ele>837</ele>
        <time>2013-09-05T15:34:52Z</time>
      </trkpt>
      <trkpt lat="44.06847" lon="7.14812">
        <ele>838.4</ele>
        <time>2013-09-05T15:34:57Z</time>
      </trkpt>
      <trkpt lat="44.06857" lon="7.14845">
        <ele>839.9</ele>
        <time>2013-09-05T15:35:11Z</time>
      </trkpt>
      <trkpt lat="44.06862" lon="7.14899">
        <ele>837</ele>
        <time>2013-09-05T15:35:22Z</time>
      </trkpt>
      <trkpt lat="44.06875" lon="7.1492">
        <ele>836</ele>
        <time>2013-09-05T15:35:28Z</time>
      </trkpt>
      <trkpt lat="44.0688" lon="7.14922">
        <ele>835.5</ele>
        <time>2013-09-05T15:35:29Z</time>
      </trkpt>
      <trkpt lat="44.06884" lon="7.14924">
        <ele>835.5</ele>
        <time>2013-09-05T15:35:30Z</time>
      </trkpt>
      <trkpt lat="44.06889" lon="7.14926">
        <ele>834.6</ele>
        <time>2013-09-05T15:35:31Z</time>
      </trkpt>
      <trkpt lat="44.06895" lon="7.14929">
        <ele>834.6</ele>
        <time>2013-09-05T15:35:33Z</time>
      </trkpt>
      <trkpt lat="44.06896" lon="7.14932">
        <ele>835</ele>
        <time>2013-09-05T15:35:34Z</time>
      </trkpt>
      <trkpt lat="44.06896" lon="7.14935">
        <ele>834.6</ele>
        <time>2013-09-05T15:35:35Z</time>
      </trkpt>
      <trkpt lat="44.06887" lon="7.14951">
        <ele>833.1</ele>
        <time>2013-09-05T15:35:40Z</time>
      </trkpt>
      <trkpt lat="44.06877" lon="7.14969">
        <ele>832.2</ele>
        <time>2013-09-05T15:35:45Z</time>
      </trkpt>
      <trkpt lat="44.06875" lon="7.14974">
        <ele>832.2</ele>
        <time>2013-09-05T15:35:46Z</time>
      </trkpt>
      <trkpt lat="44.06873" lon="7.14986">
        <ele>830.7</ele>
        <time>2013-09-05T15:35:48Z</time>
      </trkpt>
      <trkpt lat="44.06871" lon="7.15">
        <ele>829.3</ele>
        <time>2013-09-05T15:35:52Z</time>
      </trkpt>
      <trkpt lat="44.06872" lon="7.15002">
        <ele>829.3</ele>
        <time>2013-09-05T15:35:53Z</time>
      </trkpt>
      <trkpt lat="44.06872" lon="7.15004">
        <ele>830.2</ele>
        <time>2013-09-05T15:35:54Z</time>
      </trkpt>
      <trkpt lat="44.06873" lon="7.15006">
        <ele>830.7</ele>
        <time>2013-09-05T15:35:55Z</time>
      </trkpt>
      <trkpt lat="44.06874" lon="7.15009">
        <ele>830.7</ele>
        <time>2013-09-05T15:35:56Z</time>
      </trkpt>
      <trkpt lat="44.06875" lon="7.15011">
        <ele>831.2</ele>
        <time>2013-09-05T15:35:57Z</time>
      </trkpt>
      <trkpt lat="44.06876" lon="7.15012">
        <ele>831.7</ele>
        <time>2013-09-05T15:35:58Z</time>
      </trkpt>
      <trkpt lat="44.06877" lon="7.15014">
        <ele>832.6</ele>
        <time>2013-09-05T15:35:59Z</time>
      </trkpt>
      <trkpt lat="44.06879" lon="7.15015">
        <ele>832.2</ele>
        <time>2013-09-05T15:36:00Z</time>
      </trkpt>
      <trkpt lat="44.0688" lon="7.15016">
        <ele>832.6</ele>
        <time>2013-09-05T15:36:01Z</time>
      </trkpt>
      <trkpt lat="44.06881" lon="7.15017">
        <ele>833.1</ele>
        <time>2013-09-05T15:36:02Z</time>
      </trkpt>
      <trkpt lat="44.06883" lon="7.15018">
        <ele>833.6</ele>
        <time>2013-09-05T15:36:03Z</time>
      </trkpt>
      <trkpt lat="44.06885" lon="7.1502">
        <ele>833.1</ele>
        <time>2013-09-05T15:36:04Z</time>
      </trkpt>
      <trkpt lat="44.06886" lon="7.15021">
        <ele>834.1</ele>
        <time>2013-09-05T15:36:05Z</time>
      </trkpt>
      <trkpt lat="44.06887" lon="7.15022">
        <ele>834.1</ele>
        <time>2013-09-05T15:36:06Z</time>
      </trkpt>
      <trkpt lat="44.06889" lon="7.15023">
        <ele>834.1</ele>
        <time>2013-09-05T15:36:07Z</time>
      </trkpt>
      <trkpt lat="44.0689" lon="7.15024">
        <ele>834.1</ele>
        <time>2013-09-05T15:36:08Z</time>
      </trkpt>
      <trkpt lat="44.06891" lon="7.15025">
        <ele>834.6</ele>
        <time>2013-09-05T15:36:09Z</time>
      </trkpt>
      <trkpt lat="44.06892" lon="7.15027">
        <ele>834.6</ele>
        <time>2013-09-05T15:36:10Z</time>
      </trkpt>
      <trkpt lat="44.06893" lon="7.15028">
        <ele>835</ele>
        <time>2013-09-05T15:36:11Z</time>
      </trkpt>
      <trkpt lat="44.06894" lon="7.15029">
        <ele>835</ele>
        <time>2013-09-05T15:36:12Z</time>
      </trkpt>
      <trkpt lat="44.06895" lon="7.15031">
        <ele>835.5</ele>
        <time>2013-09-05T15:36:13Z</time>
      </trkpt>
      <trkpt lat="44.06896" lon="7.15033">
        <ele>835.5</ele>
        <time>2013-09-05T15:36:14Z</time>
      </trkpt>
      <trkpt lat="44.06896" lon="7.15035">
        <ele>835.5</ele>
        <time>2013-09-05T15:36:15Z</time>
      </trkpt>
      <trkpt lat="44.06898" lon="7.15072">
        <ele>832.6</ele>
        <time>2013-09-05T15:36:27Z</time>
      </trkpt>
      <trkpt lat="44.06899" lon="7.15076">
        <ele>832.2</ele>
        <time>2013-09-05T15:36:28Z</time>
      </trkpt>
      <trkpt lat="44.069" lon="7.1508">
        <ele>831.2</ele>
        <time>2013-09-05T15:36:29Z</time>
      </trkpt>
      <trkpt lat="44.06901" lon="7.15085">
        <ele>831.2</ele>
        <time>2013-09-05T15:36:30Z</time>
      </trkpt>
      <trkpt lat="44.06903" lon="7.15089">
        <ele>830.7</ele>
        <time>2013-09-05T15:36:31Z</time>
      </trkpt>
      <trkpt lat="44.06905" lon="7.15095">
        <ele>830.2</ele>
        <time>2013-09-05T15:36:32Z</time>
      </trkpt>
      <trkpt lat="44.06907" lon="7.151">
        <ele>829.8</ele>
        <time>2013-09-05T15:36:33Z</time>
      </trkpt>
      <trkpt lat="44.06913" lon="7.15113">
        <ele>828.3</ele>
        <time>2013-09-05T15:36:35Z</time>
      </trkpt>
      <trkpt lat="44.06918" lon="7.15124">
        <ele>827.4</ele>
        <time>2013-09-05T15:36:37Z</time>
      </trkpt>
      <trkpt lat="44.06944" lon="7.15145">
        <ele>825.4</ele>
        <time>2013-09-05T15:36:46Z</time>
      </trkpt>
      <trkpt lat="44.06969" lon="7.15146">
        <ele>825</ele>
        <time>2013-09-05T15:36:55Z</time>
      </trkpt>
      <trkpt lat="44.06971" lon="7.15149">
        <ele>824.5</ele>
        <time>2013-09-05T15:36:56Z</time>
      </trkpt>
      <trkpt lat="44.06971" lon="7.15152">
        <ele>825</ele>
        <time>2013-09-05T15:36:57Z</time>
      </trkpt>
      <trkpt lat="44.06972" lon="7.15165">
        <ele>825.4</ele>
        <time>2013-09-05T15:37:02Z</time>
      </trkpt>
      <trkpt lat="44.06971" lon="7.15168">
        <ele>825.4</ele>
        <time>2013-09-05T15:37:03Z</time>
      </trkpt>
      <trkpt lat="44.0697" lon="7.1517">
        <ele>825.4</ele>
        <time>2013-09-05T15:37:04Z</time>
      </trkpt>
      <trkpt lat="44.06969" lon="7.15171">
        <ele>825.4</ele>
        <time>2013-09-05T15:37:05Z</time>
      </trkpt>
      <trkpt lat="44.06967" lon="7.15173">
        <ele>825.4</ele>
        <time>2013-09-05T15:37:06Z</time>
      </trkpt>
      <trkpt lat="44.06966" lon="7.15175">
        <ele>825</ele>
        <time>2013-09-05T15:37:07Z</time>
      </trkpt>
      <trkpt lat="44.06959" lon="7.15192">
        <ele>827.4</ele>
        <time>2013-09-05T15:37:17Z</time>
      </trkpt>
      <trkpt lat="44.06958" lon="7.15194">
        <ele>827.4</ele>
        <time>2013-09-05T15:37:18Z</time>
      </trkpt>
      <trkpt lat="44.06958" lon="7.15194">
        <ele>828.3</ele>
        <time>2013-09-05T15:37:19Z</time>
      </trkpt>
      <trkpt lat="44.06957" lon="7.15195">
        <ele>828.3</ele>
        <time>2013-09-05T15:37:20Z</time>
      </trkpt>
      <trkpt lat="44.06956" lon="7.15195">
        <ele>828.8</ele>
        <time>2013-09-05T15:37:21Z</time>
      </trkpt>
      <trkpt lat="44.06949" lon="7.15201">
        <ele>830.7</ele>
        <time>2013-09-05T15:37:34Z</time>
      </trkpt>
      <trkpt lat="44.0695" lon="7.15206">
        <ele>830.2</ele>
        <time>2013-09-05T15:38:03Z</time>
      </trkpt>
      <trkpt lat="44.06945" lon="7.15209">
        <ele>832.6</ele>
        <time>2013-09-05T15:38:18Z</time>
      </trkpt>
      <trkpt lat="44.0694" lon="7.15216">
        <ele>834.1</ele>
        <time>2013-09-05T15:38:33Z</time>
      </trkpt>
      <trkpt lat="44.06932" lon="7.15221">
        <ele>835</ele>
        <time>2013-09-05T15:38:48Z</time>
      </trkpt>
      <trkpt lat="44.06923" lon="7.15223">
        <ele>837.5</ele>
        <time>2013-09-05T15:39:03Z</time>
      </trkpt>
      <trkpt lat="44.06916" lon="7.15223">
        <ele>838.9</ele>
        <time>2013-09-05T15:39:15Z</time>
      </trkpt>
      <trkpt lat="44.06903" lon="7.15227">
        <ele>841.8</ele>
        <time>2013-09-05T15:39:33Z</time>
      </trkpt>
      <trkpt lat="44.06907" lon="7.15225">
        <ele>843.2</ele>
        <time>2013-09-05T15:39:43Z</time>
      </trkpt>
      <trkpt lat="44.0691" lon="7.15226">
        <ele>843.2</ele>
        <time>2013-09-05T15:39:56Z</time>
      </trkpt>
      <trkpt lat="44.06917" lon="7.15233">
        <ele>845.1</ele>
        <time>2013-09-05T15:40:11Z</time>
      </trkpt>
      <trkpt lat="44.06922" lon="7.15242">
        <ele>847.5</ele>
        <time>2013-09-05T15:40:27Z</time>
      </trkpt>
      <trkpt lat="44.06922" lon="7.15246">
        <ele>849.5</ele>
        <time>2013-09-05T15:40:41Z</time>
      </trkpt>
      <trkpt lat="44.06929" lon="7.15253">
        <ele>852.4</ele>
        <time>2013-09-05T15:40:57Z</time>
      </trkpt>
      <trkpt lat="44.06937" lon="7.15262">
        <ele>855.2</ele>
        <time>2013-09-05T15:41:14Z</time>
      </trkpt>
      <trkpt lat="44.0695" lon="7.15279">
        <ele>858.6</ele>
        <time>2013-09-05T15:41:32Z</time>
      </trkpt>
      <trkpt lat="44.06958" lon="7.15289">
        <ele>861</ele>
        <time>2013-09-05T15:41:47Z</time>
      </trkpt>
      <trkpt lat="44.06961" lon="7.15298">
        <ele>863.9</ele>
        <time>2013-09-05T15:42:01Z</time>
      </trkpt>
      <trkpt lat="44.06965" lon="7.15307">
        <ele>865.8</ele>
        <time>2013-09-05T15:42:14Z</time>
      </trkpt>
      <trkpt lat="44.0697" lon="7.15317">
        <ele>868.7</ele>
        <time>2013-09-05T15:42:28Z</time>
      </trkpt>
      <trkpt lat="44.06975" lon="7.15328">
        <ele>870.6</ele>
        <time>2013-09-05T15:42:41Z</time>
      </trkpt>
      <trkpt lat="44.0698" lon="7.15338">
        <ele>873</ele>
        <time>2013-09-05T15:42:54Z</time>
      </trkpt>
      <trkpt lat="44.06983" lon="7.1535">
        <ele>875.4</ele>
        <time>2013-09-05T15:43:09Z</time>
      </trkpt>
      <trkpt lat="44.06987" lon="7.15363">
        <ele>877.3</ele>
        <time>2013-09-05T15:43:22Z</time>
      </trkpt>
      <trkpt lat="44.06993" lon="7.15375">
        <ele>879.3</ele>
        <time>2013-09-05T15:43:36Z</time>
      </trkpt>
      <trkpt lat="44.06997" lon="7.15385">
        <ele>881.2</ele>
        <time>2013-09-05T15:43:50Z</time>
      </trkpt>
      <trkpt lat="44.07003" lon="7.15395">
        <ele>883.6</ele>
        <time>2013-09-05T15:44:01Z</time>
      </trkpt>
      <trkpt lat="44.07007" lon="7.15408">
        <ele>885</ele>
        <time>2013-09-05T15:44:15Z</time>
      </trkpt>
      <trkpt lat="44.07011" lon="7.15419">
        <ele>888.4</ele>
        <time>2013-09-05T15:44:28Z</time>
      </trkpt>
      <trkpt lat="44.07014" lon="7.15435">
        <ele>890.3</ele>
        <time>2013-09-05T15:44:43Z</time>
      </trkpt>
      <trkpt lat="44.07012" lon="7.15442">
        <ele>891.3</ele>
        <time>2013-09-05T15:44:51Z</time>
      </trkpt>
      <trkpt lat="44.07006" lon="7.15453">
        <ele>893.2</ele>
        <time>2013-09-05T15:45:05Z</time>
      </trkpt>
      <trkpt lat="44.07" lon="7.15464">
        <ele>894.6</ele>
        <time>2013-09-05T15:45:20Z</time>
      </trkpt>
      <trkpt lat="44.07002" lon="7.15465">
        <ele>895.1</ele>
        <time>2013-09-05T15:45:30Z</time>
      </trkpt>
      <trkpt lat="44.07001" lon="7.15473">
        <ele>894.2</ele>
        <time>2013-09-05T15:46:01Z</time>
      </trkpt>
      <trkpt lat="44.06999" lon="7.1547">
        <ele>895.1</ele>
        <time>2013-09-05T15:46:29Z</time>
      </trkpt>
      <trkpt lat="44.06998" lon="7.15476">
        <ele>896.1</ele>
        <time>2013-09-05T15:46:42Z</time>
      </trkpt>
      <trkpt lat="44.0699" lon="7.15488">
        <ele>897.5</ele>
        <time>2013-09-05T15:47:01Z</time>
      </trkpt>
      <trkpt lat="44.0699" lon="7.15489">
        <ele>897.1</ele>
        <time>2013-09-05T15:47:02Z</time>
      </trkpt>
      <trkpt lat="44.0699" lon="7.1549">
        <ele>897.5</ele>
        <time>2013-09-05T15:47:03Z</time>
      </trkpt>
      <trkpt lat="44.0699" lon="7.1549">
        <ele>897.1</ele>
        <time>2013-09-05T15:47:04Z</time>
      </trkpt>
      <trkpt lat="44.06989" lon="7.1549">
        <ele>897.5</ele>
        <time>2013-09-05T15:47:05Z</time>
      </trkpt>
      <trkpt lat="44.06988" lon="7.15491">
        <ele>897.5</ele>
        <time>2013-09-05T15:47:06Z</time>
      </trkpt>
      <trkpt lat="44.06985" lon="7.15494">
        <ele>898</ele>
        <time>2013-09-05T15:47:11Z</time>
      </trkpt>
      <trkpt lat="44.06985" lon="7.15496">
        <ele>897.5</ele>
        <time>2013-09-05T15:47:12Z</time>
      </trkpt>
      <trkpt lat="44.06984" lon="7.15497">
        <ele>898.5</ele>
        <time>2013-09-05T15:47:13Z</time>
      </trkpt>
      <trkpt lat="44.06983" lon="7.15499">
        <ele>898.5</ele>
        <time>2013-09-05T15:47:15Z</time>
      </trkpt>
      <trkpt lat="44.06982" lon="7.155">
        <ele>898.5</ele>
        <time>2013-09-05T15:47:16Z</time>
      </trkpt>
      <trkpt lat="44.06981" lon="7.15501">
        <ele>898.5</ele>
        <time>2013-09-05T15:47:17Z</time>
      </trkpt>
      <trkpt lat="44.0698" lon="7.15502">
        <ele>899</ele>
        <time>2013-09-05T15:47:18Z</time>
      </trkpt>
      <trkpt lat="44.0698" lon="7.15503">
        <ele>899</ele>
        <time>2013-09-05T15:47:19Z</time>
      </trkpt>
      <trkpt lat="44.06976" lon="7.15509">
        <ele>899.5</ele>
        <time>2013-09-05T15:47:23Z</time>
      </trkpt>
      <trkpt lat="44.06976" lon="7.1551">
        <ele>899</ele>
        <time>2013-09-05T15:47:24Z</time>
      </trkpt>
      <trkpt lat="44.06975" lon="7.15512">
        <ele>899.5</ele>
        <time>2013-09-05T15:47:25Z</time>
      </trkpt>
      <trkpt lat="44.06964" lon="7.15533">
        <ele>901.4</ele>
        <time>2013-09-05T15:47:40Z</time>
      </trkpt>
      <trkpt lat="44.06959" lon="7.15551">
        <ele>903.8</ele>
        <time>2013-09-05T15:47:52Z</time>
      </trkpt>
      <trkpt lat="44.06957" lon="7.15553">
        <ele>903.8</ele>
        <time>2013-09-05T15:47:54Z</time>
      </trkpt>
      <trkpt lat="44.06956" lon="7.15568">
        <ele>905.2</ele>
        <time>2013-09-05T15:48:03Z</time>
      </trkpt>
      <trkpt lat="44.06957" lon="7.15577">
        <ele>906.2</ele>
        <time>2013-09-05T15:48:15Z</time>
      </trkpt>
      <trkpt lat="44.06957" lon="7.15581">
        <ele>907.6</ele>
        <time>2013-09-05T15:48:29Z</time>
      </trkpt>
      <trkpt lat="44.06951" lon="7.15591">
        <ele>909.1</ele>
        <time>2013-09-05T15:48:46Z</time>
      </trkpt>
      <trkpt lat="44.06944" lon="7.15602">
        <ele>911.5</ele>
        <time>2013-09-05T15:49:00Z</time>
      </trkpt>
      <trkpt lat="44.06942" lon="7.15613">
        <ele>913.9</ele>
        <time>2013-09-05T15:49:13Z</time>
      </trkpt>
      <trkpt lat="44.06937" lon="7.15627">
        <ele>915.8</ele>
        <time>2013-09-05T15:49:27Z</time>
      </trkpt>
      <trkpt lat="44.06933" lon="7.15637">
        <ele>918.2</ele>
        <time>2013-09-05T15:49:39Z</time>
      </trkpt>
      <trkpt lat="44.06929" lon="7.15652">
        <ele>920.1</ele>
        <time>2013-09-05T15:49:54Z</time>
      </trkpt>
      <trkpt lat="44.06928" lon="7.15664">
        <ele>922</ele>
        <time>2013-09-05T15:50:06Z</time>
      </trkpt>
      <trkpt lat="44.06929" lon="7.15675">
        <ele>924.5</ele>
        <time>2013-09-05T15:50:18Z</time>
      </trkpt>
      <trkpt lat="44.06931" lon="7.1569">
        <ele>927.3</ele>
        <time>2013-09-05T15:50:34Z</time>
      </trkpt>
      <trkpt lat="44.06932" lon="7.15702">
        <ele>928.8</ele>
        <time>2013-09-05T15:50:48Z</time>
      </trkpt>
      <trkpt lat="44.06934" lon="7.15716">
        <ele>930.7</ele>
        <time>2013-09-05T15:51:02Z</time>
      </trkpt>
      <trkpt lat="44.06935" lon="7.15725">
        <ele>933.1</ele>
        <time>2013-09-05T15:51:18Z</time>
      </trkpt>
      <trkpt lat="44.06936" lon="7.15737">
        <ele>935</ele>
        <time>2013-09-05T15:51:32Z</time>
      </trkpt>
      <trkpt lat="44.06935" lon="7.15755">
        <ele>937.9</ele>
        <time>2013-09-05T15:51:47Z</time>
      </trkpt>
      <trkpt lat="44.0693" lon="7.15769">
        <ele>939.8</ele>
        <time>2013-09-05T15:52:02Z</time>
      </trkpt>
      <trkpt lat="44.06924" lon="7.15785">
        <ele>943.2</ele>
        <time>2013-09-05T15:52:20Z</time>
      </trkpt>
      <trkpt lat="44.06917" lon="7.158">
        <ele>945.6</ele>
        <time>2013-09-05T15:52:37Z</time>
      </trkpt>
      <trkpt lat="44.06912" lon="7.15813">
        <ele>947</ele>
        <time>2013-09-05T15:52:51Z</time>
      </trkpt>
      <trkpt lat="44.0691" lon="7.15822">
        <ele>949</ele>
        <time>2013-09-05T15:53:07Z</time>
      </trkpt>
      <trkpt lat="44.06909" lon="7.15822">
        <ele>949</ele>
        <time>2013-09-05T15:53:08Z</time>
      </trkpt>
      <trkpt lat="44.06909" lon="7.15822">
        <ele>946.1</ele>
        <time>2013-09-05T15:53:09Z</time>
      </trkpt>
      <trkpt lat="44.06909" lon="7.15822">
        <ele>947.5</ele>
        <time>2013-09-05T15:53:10Z</time>
      </trkpt>
      <trkpt lat="44.0691" lon="7.15825">
        <ele>947.5</ele>
        <time>2013-09-05T15:53:26Z</time>
      </trkpt>
      <trkpt lat="44.06907" lon="7.15837">
        <ele>949.4</ele>
        <time>2013-09-05T15:53:37Z</time>
      </trkpt>
      <trkpt lat="44.06907" lon="7.15846">
        <ele>950.4</ele>
        <time>2013-09-05T15:53:42Z</time>
      </trkpt>
      <trkpt lat="44.06904" lon="7.15865">
        <ele>951.4</ele>
        <time>2013-09-05T15:53:55Z</time>
      </trkpt>
      <trkpt lat="44.06904" lon="7.15873">
        <ele>951.8</ele>
        <time>2013-09-05T15:53:59Z</time>
      </trkpt>
      <trkpt lat="44.06908" lon="7.15891">
        <ele>953.8</ele>
        <time>2013-09-05T15:54:09Z</time>
      </trkpt>
      <trkpt lat="44.06909" lon="7.15893">
        <ele>953.8</ele>
        <time>2013-09-05T15:54:10Z</time>
      </trkpt>
      <trkpt lat="44.0691" lon="7.15917">
        <ele>956.2</ele>
        <time>2013-09-05T15:54:24Z</time>
      </trkpt>
      <trkpt lat="44.06914" lon="7.15937">
        <ele>958.1</ele>
        <time>2013-09-05T15:54:36Z</time>
      </trkpt>
      <trkpt lat="44.06919" lon="7.15959">
        <ele>958.6</ele>
        <time>2013-09-05T15:54:46Z</time>
      </trkpt>
      <trkpt lat="44.06919" lon="7.15961">
        <ele>959.1</ele>
        <time>2013-09-05T15:54:47Z</time>
      </trkpt>
      <trkpt lat="44.0692" lon="7.15973">
        <ele>960.5</ele>
        <time>2013-09-05T15:54:54Z</time>
      </trkpt>
      <trkpt lat="44.06922" lon="7.15985">
        <ele>961.5</ele>
        <time>2013-09-05T15:55:02Z</time>
      </trkpt>
      <trkpt lat="44.06926" lon="7.15996">
        <ele>962.9</ele>
        <time>2013-09-05T15:55:09Z</time>
      </trkpt>
      <trkpt lat="44.06927" lon="7.16004">
        <ele>963.9</ele>
        <time>2013-09-05T15:55:13Z</time>
      </trkpt>
      <trkpt lat="44.06928" lon="7.16009">
        <ele>964.3</ele>
        <time>2013-09-05T15:55:15Z</time>
      </trkpt>
      <trkpt lat="44.06928" lon="7.16016">
        <ele>964.8</ele>
        <time>2013-09-05T15:55:19Z</time>
      </trkpt>
      <trkpt lat="44.06928" lon="7.16018">
        <ele>965.3</ele>
        <time>2013-09-05T15:55:20Z</time>
      </trkpt>
      <trkpt lat="44.06931" lon="7.16052">
        <ele>966.7</ele>
        <time>2013-09-05T15:55:34Z</time>
      </trkpt>
      <trkpt lat="44.06929" lon="7.16092">
        <ele>969.6</ele>
        <time>2013-09-05T15:55:52Z</time>
      </trkpt>
      <trkpt lat="44.06928" lon="7.16127">
        <ele>971.6</ele>
        <time>2013-09-05T15:56:08Z</time>
      </trkpt>
      <trkpt lat="44.06927" lon="7.16161">
        <ele>974</ele>
        <time>2013-09-05T15:56:23Z</time>
      </trkpt>
      <trkpt lat="44.06926" lon="7.16179">
        <ele>975.4</ele>
        <time>2013-09-05T15:56:31Z</time>
      </trkpt>
      <trkpt lat="44.06925" lon="7.1618">
        <ele>974.9</ele>
        <time>2013-09-05T15:56:32Z</time>
      </trkpt>
      <trkpt lat="44.06921" lon="7.16215">
        <ele>977.8</ele>
        <time>2013-09-05T15:56:48Z</time>
      </trkpt>
      <trkpt lat="44.06916" lon="7.16249">
        <ele>980.7</ele>
        <time>2013-09-05T15:57:04Z</time>
      </trkpt>
      <trkpt lat="44.06909" lon="7.16283">
        <ele>982.6</ele>
        <time>2013-09-05T15:57:20Z</time>
      </trkpt>
      <trkpt lat="44.06899" lon="7.16313">
        <ele>984.1</ele>
        <time>2013-09-05T15:57:34Z</time>
      </trkpt>
      <trkpt lat="44.06903" lon="7.16353">
        <ele>986</ele>
        <time>2013-09-05T15:57:50Z</time>
      </trkpt>
      <trkpt lat="44.06901" lon="7.16384">
        <ele>987.4</ele>
        <time>2013-09-05T15:58:02Z</time>
      </trkpt>
      <trkpt lat="44.06898" lon="7.1641">
        <ele>988.4</ele>
        <time>2013-09-05T15:58:12Z</time>
      </trkpt>
      <trkpt lat="44.06898" lon="7.16413">
        <ele>988.4</ele>
        <time>2013-09-05T15:58:13Z</time>
      </trkpt>
      <trkpt lat="44.06898" lon="7.16416">
        <ele>988.9</ele>
        <time>2013-09-05T15:58:14Z</time>
      </trkpt>
      <trkpt lat="44.06897" lon="7.16419">
        <ele>988.9</ele>
        <time>2013-09-05T15:58:15Z</time>
      </trkpt>
      <trkpt lat="44.06897" lon="7.16422">
        <ele>989.3</ele>
        <time>2013-09-05T15:58:16Z</time>
      </trkpt>
      <trkpt lat="44.06897" lon="7.16425">
        <ele>989.3</ele>
        <time>2013-09-05T15:58:17Z</time>
      </trkpt>
      <trkpt lat="44.06896" lon="7.16457">
        <ele>991.3</ele>
        <time>2013-09-05T15:58:30Z</time>
      </trkpt>
      <trkpt lat="44.06894" lon="7.16468">
        <ele>992.2</ele>
        <time>2013-09-05T15:58:36Z</time>
      </trkpt>
      <trkpt lat="44.06895" lon="7.16471">
        <ele>992.7</ele>
        <time>2013-09-05T15:58:37Z</time>
      </trkpt>
      <trkpt lat="44.06895" lon="7.16473">
        <ele>992.7</ele>
        <time>2013-09-05T15:58:38Z</time>
      </trkpt>
      <trkpt lat="44.06895" lon="7.16476">
        <ele>993.2</ele>
        <time>2013-09-05T15:58:39Z</time>
      </trkpt>
      <trkpt lat="44.06895" lon="7.16479">
        <ele>992.7</ele>
        <time>2013-09-05T15:58:40Z</time>
      </trkpt>
      <trkpt lat="44.06895" lon="7.16481">
        <ele>993.7</ele>
        <time>2013-09-05T15:58:41Z</time>
      </trkpt>
      <trkpt lat="44.06895" lon="7.16484">
        <ele>993.7</ele>
        <time>2013-09-05T15:58:42Z</time>
      </trkpt>
      <trkpt lat="44.06896" lon="7.16487">
        <ele>993.7</ele>
        <time>2013-09-05T15:58:43Z</time>
      </trkpt>
      <trkpt lat="44.06897" lon="7.1649">
        <ele>994.1</ele>
        <time>2013-09-05T15:58:44Z</time>
      </trkpt>
      <trkpt lat="44.06898" lon="7.16493">
        <ele>994.1</ele>
        <time>2013-09-05T15:58:45Z</time>
      </trkpt>
      <trkpt lat="44.06899" lon="7.16495">
        <ele>994.1</ele>
        <time>2013-09-05T15:58:46Z</time>
      </trkpt>
      <trkpt lat="44.06906" lon="7.16512">
        <ele>995.6</ele>
        <time>2013-09-05T15:58:52Z</time>
      </trkpt>
      <trkpt lat="44.06914" lon="7.16544">
        <ele>998</ele>
        <time>2013-09-05T15:59:08Z</time>
      </trkpt>
      <trkpt lat="44.06917" lon="7.16583">
        <ele>1000.9</ele>
        <time>2013-09-05T15:59:27Z</time>
      </trkpt>
      <trkpt lat="44.06917" lon="7.16607">
        <ele>1003.3</ele>
        <time>2013-09-05T15:59:41Z</time>
      </trkpt>
      <trkpt lat="44.06916" lon="7.16611">
        <ele>1003.3</ele>
        <time>2013-09-05T15:59:43Z</time>
      </trkpt>
      <trkpt lat="44.06914" lon="7.16612">
        <ele>1003.3</ele>
        <time>2013-09-05T15:59:44Z</time>
      </trkpt>
      <trkpt lat="44.06913" lon="7.16614">
        <ele>1003.3</ele>
        <time>2013-09-05T15:59:45Z</time>
      </trkpt>
      <trkpt lat="44.06912" lon="7.16616">
        <ele>1003.3</ele>
        <time>2013-09-05T15:59:46Z</time>
      </trkpt>
      <trkpt lat="44.06912" lon="7.16618">
        <ele>1003.3</ele>
        <time>2013-09-05T15:59:47Z</time>
      </trkpt>
      <trkpt lat="44.06911" lon="7.1662">
        <ele>1003.3</ele>
        <time>2013-09-05T15:59:48Z</time>
      </trkpt>
      <trkpt lat="44.0691" lon="7.16622">
        <ele>1003.3</ele>
        <time>2013-09-05T15:59:49Z</time>
      </trkpt>
      <trkpt lat="44.06909" lon="7.16625">
        <ele>1003.3</ele>
        <time>2013-09-05T15:59:50Z</time>
      </trkpt>
      <trkpt lat="44.06908" lon="7.16627">
        <ele>1003.3</ele>
        <time>2013-09-05T15:59:51Z</time>
      </trkpt>
      <trkpt lat="44.06907" lon="7.1663">
        <ele>1003.3</ele>
        <time>2013-09-05T15:59:52Z</time>
      </trkpt>
      <trkpt lat="44.06906" lon="7.16633">
        <ele>1002.8</ele>
        <time>2013-09-05T15:59:53Z</time>
      </trkpt>
      <trkpt lat="44.06897" lon="7.16678">
        <ele>1004.2</ele>
        <time>2013-09-05T16:00:08Z</time>
      </trkpt>
      <trkpt lat="44.06891" lon="7.16718">
        <ele>1007.1</ele>
        <time>2013-09-05T16:00:24Z</time>
      </trkpt>
      <trkpt lat="44.06882" lon="7.16759">
        <ele>1009</ele>
        <time>2013-09-05T16:00:43Z</time>
      </trkpt>
      <trkpt lat="44.06874" lon="7.16798">
        <ele>1012.4</ele>
        <time>2013-09-05T16:01:02Z</time>
      </trkpt>
      <trkpt lat="44.06874" lon="7.16843">
        <ele>1011.9</ele>
        <time>2013-09-05T16:01:18Z</time>
      </trkpt>
      <trkpt lat="44.06877" lon="7.16862">
        <ele>1013.4</ele>
        <time>2013-09-05T16:01:30Z</time>
      </trkpt>
      <trkpt lat="44.0688" lon="7.16873">
        <ele>1015.3</ele>
        <time>2013-09-05T16:01:46Z</time>
      </trkpt>
      <trkpt lat="44.06884" lon="7.16886">
        <ele>1017.2</ele>
        <time>2013-09-05T16:02:02Z</time>
      </trkpt>
      <trkpt lat="44.06888" lon="7.16902">
        <ele>1019.1</ele>
        <time>2013-09-05T16:02:18Z</time>
      </trkpt>
      <trkpt lat="44.0689" lon="7.16917">
        <ele>1021.1</ele>
        <time>2013-09-05T16:02:36Z</time>
      </trkpt>
      <trkpt lat="44.06888" lon="7.1692">
        <ele>1021.1</ele>
        <time>2013-09-05T16:02:44Z</time>
      </trkpt>
      <trkpt lat="44.06888" lon="7.16922">
        <ele>1020.6</ele>
        <time>2013-09-05T16:02:45Z</time>
      </trkpt>
      <trkpt lat="44.0689" lon="7.16932">
        <ele>1022</ele>
        <time>2013-09-05T16:02:50Z</time>
      </trkpt>
      <trkpt lat="44.06891" lon="7.16942">
        <ele>1022.5</ele>
        <time>2013-09-05T16:02:55Z</time>
      </trkpt>
      <trkpt lat="44.06891" lon="7.16944">
        <ele>1022.5</ele>
        <time>2013-09-05T16:02:56Z</time>
      </trkpt>
      <trkpt lat="44.06896" lon="7.16979">
        <ele>1024.9</ele>
        <time>2013-09-05T16:03:11Z</time>
      </trkpt>
      <trkpt lat="44.06897" lon="7.16988">
        <ele>1025.9</ele>
        <time>2013-09-05T16:03:27Z</time>
      </trkpt>
      <trkpt lat="44.06899" lon="7.17003">
        <ele>1027.3</ele>
        <time>2013-09-05T16:03:44Z</time>
      </trkpt>
      <trkpt lat="44.06899" lon="7.17014">
        <ele>1028.3</ele>
        <time>2013-09-05T16:03:59Z</time>
      </trkpt>
      <trkpt lat="44.06898" lon="7.17033">
        <ele>1030.2</ele>
        <time>2013-09-05T16:04:17Z</time>
      </trkpt>
      <trkpt lat="44.06899" lon="7.17048">
        <ele>1032.1</ele>
        <time>2013-09-05T16:04:33Z</time>
      </trkpt>
      <trkpt lat="44.06901" lon="7.17069">
        <ele>1034.5</ele>
        <time>2013-09-05T16:04:51Z</time>
      </trkpt>
      <trkpt lat="44.069" lon="7.17088">
        <ele>1036.4</ele>
        <time>2013-09-05T16:05:09Z</time>
      </trkpt>
      <trkpt lat="44.069" lon="7.17101">
        <ele>1039.8</ele>
        <time>2013-09-05T16:05:25Z</time>
      </trkpt>
      <trkpt lat="44.069" lon="7.17102">
        <ele>1039.8</ele>
        <time>2013-09-05T16:05:26Z</time>
      </trkpt>
      <trkpt lat="44.06905" lon="7.17108">
        <ele>1038.8</ele>
        <time>2013-09-05T16:05:43Z</time>
      </trkpt>
      <trkpt lat="44.06903" lon="7.17108">
        <ele>1038.4</ele>
        <time>2013-09-05T16:05:54Z</time>
      </trkpt>
      <trkpt lat="44.069" lon="7.17108">
        <ele>1039.3</ele>
        <time>2013-09-05T16:06:21Z</time>
      </trkpt>
      <trkpt lat="44.069" lon="7.17109">
        <ele>1039.8</ele>
        <time>2013-09-05T16:06:51Z</time>
      </trkpt>
      <trkpt lat="44.069" lon="7.17114">
        <ele>1039.8</ele>
        <time>2013-09-05T16:07:18Z</time>
      </trkpt>
      <trkpt lat="44.06906" lon="7.17107">
        <ele>1039.8</ele>
        <time>2013-09-05T16:07:35Z</time>
      </trkpt>
      <trkpt lat="44.06907" lon="7.17104">
        <ele>1039.8</ele>
        <time>2013-09-05T16:07:44Z</time>
      </trkpt>
      <trkpt lat="44.0693" lon="7.17107">
        <ele>1039.8</ele>
        <time>2013-09-05T16:07:57Z</time>
      </trkpt>
      <trkpt lat="44.0696" lon="7.17093">
        <ele>1042.2</ele>
        <time>2013-09-05T16:08:16Z</time>
      </trkpt>
      <trkpt lat="44.06995" lon="7.17082">
        <ele>1044.1</ele>
        <time>2013-09-05T16:08:35Z</time>
      </trkpt>
      <trkpt lat="44.07005" lon="7.17082">
        <ele>1046.1</ele>
        <time>2013-09-05T16:08:41Z</time>
      </trkpt>
      <trkpt lat="44.07032" lon="7.17086">
        <ele>1047.5</ele>
        <time>2013-09-05T16:08:57Z</time>
      </trkpt>
      <trkpt lat="44.07062" lon="7.17092">
        <ele>1049.9</ele>
        <time>2013-09-05T16:09:13Z</time>
      </trkpt>
      <trkpt lat="44.07093" lon="7.17088">
        <ele>1052.3</ele>
        <time>2013-09-05T16:09:29Z</time>
      </trkpt>
      <trkpt lat="44.07123" lon="7.17086">
        <ele>1054.7</ele>
        <time>2013-09-05T16:09:44Z</time>
      </trkpt>
      <trkpt lat="44.07165" lon="7.17079">
        <ele>1057.1</ele>
        <time>2013-09-05T16:10:04Z</time>
      </trkpt>
      <trkpt lat="44.07196" lon="7.17074">
        <ele>1060</ele>
        <time>2013-09-05T16:10:18Z</time>
      </trkpt>
      <trkpt lat="44.07227" lon="7.17047">
        <ele>1061.4</ele>
        <time>2013-09-05T16:10:35Z</time>
      </trkpt>
      <trkpt lat="44.07253" lon="7.16999">
        <ele>1064.3</ele>
        <time>2013-09-05T16:10:55Z</time>
      </trkpt>
      <trkpt lat="44.07279" lon="7.16957">
        <ele>1067.2</ele>
        <time>2013-09-05T16:11:14Z</time>
      </trkpt>
      <trkpt lat="44.07291" lon="7.16941">
        <ele>1068.6</ele>
        <time>2013-09-05T16:11:21Z</time>
      </trkpt>
      <trkpt lat="44.07323" lon="7.1691">
        <ele>1069.6</ele>
        <time>2013-09-05T16:11:38Z</time>
      </trkpt>
      <trkpt lat="44.07326" lon="7.16911">
        <ele>1069.6</ele>
        <time>2013-09-05T16:11:39Z</time>
      </trkpt>
      <trkpt lat="44.07327" lon="7.16912">
        <ele>1070.1</ele>
        <time>2013-09-05T16:11:40Z</time>
      </trkpt>
      <trkpt lat="44.07328" lon="7.16915">
        <ele>1070.1</ele>
        <time>2013-09-05T16:11:41Z</time>
      </trkpt>
      <trkpt lat="44.07329" lon="7.16918">
        <ele>1070.1</ele>
        <time>2013-09-05T16:11:42Z</time>
      </trkpt>
      <trkpt lat="44.07328" lon="7.16921">
        <ele>1071.1</ele>
        <time>2013-09-05T16:11:43Z</time>
      </trkpt>
      <trkpt lat="44.07328" lon="7.16925">
        <ele>1071.1</ele>
        <time>2013-09-05T16:11:44Z</time>
      </trkpt>
      <trkpt lat="44.07326" lon="7.16927">
        <ele>1071.1</ele>
        <time>2013-09-05T16:11:45Z</time>
      </trkpt>
      <trkpt lat="44.07324" lon="7.1693">
        <ele>1071.5</ele>
        <time>2013-09-05T16:11:46Z</time>
      </trkpt>
      <trkpt lat="44.07321" lon="7.16932">
        <ele>1071.5</ele>
        <time>2013-09-05T16:11:47Z</time>
      </trkpt>
      <trkpt lat="44.07292" lon="7.16964">
        <ele>1073</ele>
        <time>2013-09-05T16:12:01Z</time>
      </trkpt>
      <trkpt lat="44.07272" lon="7.17012">
        <ele>1075.9</ele>
        <time>2013-09-05T16:12:18Z</time>
      </trkpt>
      <trkpt lat="44.07258" lon="7.17074">
        <ele>1079.2</ele>
        <time>2013-09-05T16:12:39Z</time>
      </trkpt>
      <trkpt lat="44.07243" lon="7.17122">
        <ele>1082.6</ele>
        <time>2013-09-05T16:12:56Z</time>
      </trkpt>
      <trkpt lat="44.07221" lon="7.17163">
        <ele>1084.5</ele>
        <time>2013-09-05T16:13:12Z</time>
      </trkpt>
      <trkpt lat="44.07195" lon="7.17187">
        <ele>1087.4</ele>
        <time>2013-09-05T16:13:26Z</time>
      </trkpt>
      <trkpt lat="44.07171" lon="7.17223">
        <ele>1090.8</ele>
        <time>2013-09-05T16:13:42Z</time>
      </trkpt>
      <trkpt lat="44.07149" lon="7.1727">
        <ele>1093.6</ele>
        <time>2013-09-05T16:14:00Z</time>
      </trkpt>
      <trkpt lat="44.07126" lon="7.17315">
        <ele>1096</ele>
        <time>2013-09-05T16:14:18Z</time>
      </trkpt>
      <trkpt lat="44.07106" lon="7.17354">
        <ele>1098.4</ele>
        <time>2013-09-05T16:14:33Z</time>
      </trkpt>
      <trkpt lat="44.07085" lon="7.17397">
        <ele>1101.8</ele>
        <time>2013-09-05T16:14:49Z</time>
      </trkpt>
      <trkpt lat="44.07072" lon="7.17433">
        <ele>1103.7</ele>
        <time>2013-09-05T16:15:05Z</time>
      </trkpt>
      <trkpt lat="44.07057" lon="7.17483">
        <ele>1106.1</ele>
        <time>2013-09-05T16:15:22Z</time>
      </trkpt>
      <trkpt lat="44.07037" lon="7.17511">
        <ele>1108.5</ele>
        <time>2013-09-05T16:15:38Z</time>
      </trkpt>
      <trkpt lat="44.07019" lon="7.17526">
        <ele>1109.5</ele>
        <time>2013-09-05T16:15:51Z</time>
      </trkpt>
      <trkpt lat="44.06997" lon="7.17542">
        <ele>1110.5</ele>
        <time>2013-09-05T16:16:05Z</time>
      </trkpt>
      <trkpt lat="44.06968" lon="7.17573">
        <ele>1112.9</ele>
        <time>2013-09-05T16:16:23Z</time>
      </trkpt>
      <trkpt lat="44.06939" lon="7.17602">
        <ele>1114.8</ele>
        <time>2013-09-05T16:16:40Z</time>
      </trkpt>
      <trkpt lat="44.06919" lon="7.17616">
        <ele>1116.2</ele>
        <time>2013-09-05T16:16:49Z</time>
      </trkpt>
      <trkpt lat="44.06882" lon="7.17656">
        <ele>1118.6</ele>
        <time>2013-09-05T16:17:07Z</time>
      </trkpt>
      <trkpt lat="44.06851" lon="7.17682">
        <ele>1120.1</ele>
        <time>2013-09-05T16:17:21Z</time>
      </trkpt>
      <trkpt lat="44.06821" lon="7.1771">
        <ele>1120.6</ele>
        <time>2013-09-05T16:17:34Z</time>
      </trkpt>
      <trkpt lat="44.06801" lon="7.17753">
        <ele>1121</ele>
        <time>2013-09-05T16:17:47Z</time>
      </trkpt>
      <trkpt lat="44.06787" lon="7.17846">
        <ele>1124.4</ele>
        <time>2013-09-05T16:18:08Z</time>
      </trkpt>
      <trkpt lat="44.06785" lon="7.17908">
        <ele>1126.8</ele>
        <time>2013-09-05T16:18:26Z</time>
      </trkpt>
      <trkpt lat="44.06778" lon="7.1797">
        <ele>1129.7</ele>
        <time>2013-09-05T16:18:43Z</time>
      </trkpt>
      <trkpt lat="44.06774" lon="7.17991">
        <ele>1131.1</ele>
        <time>2013-09-05T16:18:49Z</time>
      </trkpt>
      <trkpt lat="44.06756" lon="7.18068">
        <ele>1134</ele>
        <time>2013-09-05T16:19:11Z</time>
      </trkpt>
      <trkpt lat="44.06739" lon="7.18126">
        <ele>1137.4</ele>
        <time>2013-09-05T16:19:28Z</time>
      </trkpt>
      <trkpt lat="44.06724" lon="7.18179">
        <ele>1140.3</ele>
        <time>2013-09-05T16:19:43Z</time>
      </trkpt>
      <trkpt lat="44.06707" lon="7.18227">
        <ele>1143.1</ele>
        <time>2013-09-05T16:19:59Z</time>
      </trkpt>
      <trkpt lat="44.0667" lon="7.18278">
        <ele>1146</ele>
        <time>2013-09-05T16:20:19Z</time>
      </trkpt>
      <trkpt lat="44.06635" lon="7.18326">
        <ele>1148.9</ele>
        <time>2013-09-05T16:20:39Z</time>
      </trkpt>
      <trkpt lat="44.06607" lon="7.18364">
        <ele>1151.8</ele>
        <time>2013-09-05T16:20:56Z</time>
      </trkpt>
      <trkpt lat="44.06573" lon="7.18405">
        <ele>1153.7</ele>
        <time>2013-09-05T16:21:14Z</time>
      </trkpt>
      <trkpt lat="44.0655" lon="7.18437">
        <ele>1157.1</ele>
        <time>2013-09-05T16:21:29Z</time>
      </trkpt>
      <trkpt lat="44.06516" lon="7.18474">
        <ele>1160</ele>
        <time>2013-09-05T16:21:48Z</time>
      </trkpt>
      <trkpt lat="44.0649" lon="7.18505">
        <ele>1161.9</ele>
        <time>2013-09-05T16:22:03Z</time>
      </trkpt>
      <trkpt lat="44.06471" lon="7.18537">
        <ele>1164.3</ele>
        <time>2013-09-05T16:22:19Z</time>
      </trkpt>
      <trkpt lat="44.06446" lon="7.18582">
        <ele>1167.2</ele>
        <time>2013-09-05T16:22:37Z</time>
      </trkpt>
      <trkpt lat="44.06425" lon="7.1863">
        <ele>1169.6</ele>
        <time>2013-09-05T16:22:54Z</time>
      </trkpt>
      <trkpt lat="44.06405" lon="7.18687">
        <ele>1172.5</ele>
        <time>2013-09-05T16:23:13Z</time>
      </trkpt>
      <trkpt lat="44.06393" lon="7.18731">
        <ele>1175.8</ele>
        <time>2013-09-05T16:23:27Z</time>
      </trkpt>
      <trkpt lat="44.06408" lon="7.18762">
        <ele>1177.3</ele>
        <time>2013-09-05T16:23:39Z</time>
      </trkpt>
      <trkpt lat="44.06438" lon="7.18746">
        <ele>1179.2</ele>
        <time>2013-09-05T16:23:52Z</time>
      </trkpt>
      <trkpt lat="44.06466" lon="7.18733">
        <ele>1180.6</ele>
        <time>2013-09-05T16:24:05Z</time>
      </trkpt>
      <trkpt lat="44.06498" lon="7.18732">
        <ele>1183</ele>
        <time>2013-09-05T16:24:21Z</time>
      </trkpt>
      <trkpt lat="44.06498" lon="7.18734">
        <ele>1183</ele>
        <time>2013-09-05T16:24:22Z</time>
      </trkpt>
      <trkpt lat="44.06497" lon="7.18736">
        <ele>1182.6</ele>
        <time>2013-09-05T16:24:23Z</time>
      </trkpt>
      <trkpt lat="44.06495" lon="7.18737">
        <ele>1183</ele>
        <time>2013-09-05T16:24:24Z</time>
      </trkpt>
      <trkpt lat="44.06494" lon="7.18739">
        <ele>1183</ele>
        <time>2013-09-05T16:24:25Z</time>
      </trkpt>
      <trkpt lat="44.06492" lon="7.1874">
        <ele>1183.5</ele>
        <time>2013-09-05T16:24:26Z</time>
      </trkpt>
      <trkpt lat="44.06491" lon="7.18742">
        <ele>1183.5</ele>
        <time>2013-09-05T16:24:27Z</time>
      </trkpt>
      <trkpt lat="44.06491" lon="7.18744">
        <ele>1183.5</ele>
        <time>2013-09-05T16:24:41Z</time>
      </trkpt>
      <trkpt lat="44.06493" lon="7.18742">
        <ele>1183</ele>
        <time>2013-09-05T16:24:44Z</time>
      </trkpt>
      <trkpt lat="44.06494" lon="7.1874">
        <ele>1183</ele>
        <time>2013-09-05T16:24:45Z</time>
      </trkpt>
      <trkpt lat="44.06495" lon="7.18737">
        <ele>1183</ele>
        <time>2013-09-05T16:24:46Z</time>
      </trkpt>
      <trkpt lat="44.06497" lon="7.18734">
        <ele>1183.5</ele>
        <time>2013-09-05T16:24:47Z</time>
      </trkpt>
      <trkpt lat="44.06499" lon="7.18733">
        <ele>1183</ele>
        <time>2013-09-05T16:24:48Z</time>
      </trkpt>
      <trkpt lat="44.06501" lon="7.18733">
        <ele>1183.5</ele>
        <time>2013-09-05T16:24:49Z</time>
      </trkpt>
      <trkpt lat="44.06503" lon="7.18733">
        <ele>1183</ele>
        <time>2013-09-05T16:24:50Z</time>
      </trkpt>
      <trkpt lat="44.0654" lon="7.18746">
        <ele>1185.9</ele>
        <time>2013-09-05T16:25:09Z</time>
      </trkpt>
      <trkpt lat="44.06573" lon="7.18734">
        <ele>1188.3</ele>
        <time>2013-09-05T16:25:25Z</time>
      </trkpt>
      <trkpt lat="44.06601" lon="7.1869">
        <ele>1191.7</ele>
        <time>2013-09-05T16:25:44Z</time>
      </trkpt>
      <trkpt lat="44.06629" lon="7.18658">
        <ele>1194.6</ele>
        <time>2013-09-05T16:26:01Z</time>
      </trkpt>
      <trkpt lat="44.06654" lon="7.18639">
        <ele>1196.5</ele>
        <time>2013-09-05T16:26:14Z</time>
      </trkpt>
      <trkpt lat="44.06657" lon="7.18641">
        <ele>1196.5</ele>
        <time>2013-09-05T16:26:15Z</time>
      </trkpt>
      <trkpt lat="44.06658" lon="7.18644">
        <ele>1197</ele>
        <time>2013-09-05T16:26:16Z</time>
      </trkpt>
      <trkpt lat="44.06658" lon="7.18648">
        <ele>1197</ele>
        <time>2013-09-05T16:26:17Z</time>
      </trkpt>
      <trkpt lat="44.06657" lon="7.18651">
        <ele>1197</ele>
        <time>2013-09-05T16:26:18Z</time>
      </trkpt>
      <trkpt lat="44.06655" lon="7.18654">
        <ele>1197</ele>
        <time>2013-09-05T16:26:19Z</time>
      </trkpt>
      <trkpt lat="44.06653" lon="7.18656">
        <ele>1197.5</ele>
        <time>2013-09-05T16:26:20Z</time>
      </trkpt>
      <trkpt lat="44.06651" lon="7.18658">
        <ele>1197.9</ele>
        <time>2013-09-05T16:26:21Z</time>
      </trkpt>
      <trkpt lat="44.06648" lon="7.1866">
        <ele>1198.4</ele>
        <time>2013-09-05T16:26:22Z</time>
      </trkpt>
      <trkpt lat="44.06646" lon="7.18662">
        <ele>1197.9</ele>
        <time>2013-09-05T16:26:23Z</time>
      </trkpt>
      <trkpt lat="44.06622" lon="7.18705">
        <ele>1200.8</ele>
        <time>2013-09-05T16:26:39Z</time>
      </trkpt>
      <trkpt lat="44.06611" lon="7.18753">
        <ele>1204.2</ele>
        <time>2013-09-05T16:26:55Z</time>
      </trkpt>
      <trkpt lat="44.06605" lon="7.18824">
        <ele>1207.1</ele>
        <time>2013-09-05T16:27:15Z</time>
      </trkpt>
      <trkpt lat="44.0661" lon="7.1889">
        <ele>1210.4</ele>
        <time>2013-09-05T16:27:34Z</time>
      </trkpt>
      <trkpt lat="44.0661" lon="7.1894">
        <ele>1213.3</ele>
        <time>2013-09-05T16:27:48Z</time>
      </trkpt>
      <trkpt lat="44.06606" lon="7.19002">
        <ele>1215.2</ele>
        <time>2013-09-05T16:28:07Z</time>
      </trkpt>
      <trkpt lat="44.06599" lon="7.19042">
        <ele>1218.1</ele>
        <time>2013-09-05T16:28:19Z</time>
      </trkpt>
      <trkpt lat="44.06576" lon="7.191">
        <ele>1221.5</ele>
        <time>2013-09-05T16:28:38Z</time>
      </trkpt>
      <trkpt lat="44.06569" lon="7.19157">
        <ele>1224.9</ele>
        <time>2013-09-05T16:28:57Z</time>
      </trkpt>
      <trkpt lat="44.06567" lon="7.19214">
        <ele>1227.3</ele>
        <time>2013-09-05T16:29:16Z</time>
      </trkpt>
      <trkpt lat="44.06563" lon="7.19269">
        <ele>1230.1</ele>
        <time>2013-09-05T16:29:35Z</time>
      </trkpt>
      <trkpt lat="44.06555" lon="7.19315">
        <ele>1232.6</ele>
        <time>2013-09-05T16:29:54Z</time>
      </trkpt>
      <trkpt lat="44.06546" lon="7.19365">
        <ele>1235.9</ele>
        <time>2013-09-05T16:30:14Z</time>
      </trkpt>
      <trkpt lat="44.0654" lon="7.19392">
        <ele>1237.4</ele>
        <time>2013-09-05T16:30:26Z</time>
      </trkpt>
      <trkpt lat="44.06537" lon="7.19437">
        <ele>1240.2</ele>
        <time>2013-09-05T16:30:43Z</time>
      </trkpt>
      <trkpt lat="44.06545" lon="7.19477">
        <ele>1242.6</ele>
        <time>2013-09-05T16:30:58Z</time>
      </trkpt>
      <trkpt lat="44.06552" lon="7.19525">
        <ele>1245.5</ele>
        <time>2013-09-05T16:31:15Z</time>
      </trkpt>
      <trkpt lat="44.06556" lon="7.19563">
        <ele>1247.9</ele>
        <time>2013-09-05T16:31:32Z</time>
      </trkpt>
      <trkpt lat="44.0654" lon="7.19573">
        <ele>1245.5</ele>
        <time>2013-09-05T16:31:41Z</time>
      </trkpt>
      <trkpt lat="44.06537" lon="7.19574">
        <ele>1245</ele>
        <time>2013-09-05T16:31:55Z</time>
      </trkpt>
      <trkpt lat="44.06538" lon="7.19571">
        <ele>1245</ele>
        <time>2013-09-05T16:32:25Z</time>
      </trkpt>
      <trkpt lat="44.06539" lon="7.19573">
        <ele>1244.6</ele>
        <time>2013-09-05T16:32:37Z</time>
      </trkpt>
      <trkpt lat="44.06532" lon="7.19567">
        <ele>1243.6</ele>
        <time>2013-09-05T16:32:41Z</time>
      </trkpt>
      <trkpt lat="44.06524" lon="7.19555">
        <ele>1242.6</ele>
        <time>2013-09-05T16:32:46Z</time>
      </trkpt>
      <trkpt lat="44.06524" lon="7.19539">
        <ele>1242.2</ele>
        <time>2013-09-05T16:32:58Z</time>
      </trkpt>
      <trkpt lat="44.06523" lon="7.19538">
        <ele>1239.8</ele>
        <time>2013-09-05T16:33:04Z</time>
      </trkpt>
      <trkpt lat="44.06523" lon="7.19538">
        <ele>1240.7</ele>
        <time>2013-09-05T16:33:05Z</time>
      </trkpt>
      <trkpt lat="44.06547" lon="7.1956">
        <ele>1246.5</ele>
        <time>2013-09-06T07:10:21Z</time>
      </trkpt>
      <trkpt lat="44.06548" lon="7.19561">
        <ele>1246.5</ele>
        <time>2013-09-06T07:10:22Z</time>
      </trkpt>
      <trkpt lat="44.06549" lon="7.19556">
        <ele>1247.9</ele>
        <time>2013-09-06T07:10:29Z</time>
      </trkpt>
      <trkpt lat="44.06555" lon="7.19557">
        <ele>1249.4</ele>
        <time>2013-09-06T07:10:37Z</time>
      </trkpt>
      <trkpt lat="44.06557" lon="7.1959">
        <ele>1250.8</ele>
        <time>2013-09-06T07:10:51Z</time>
      </trkpt>
      <trkpt lat="44.06558" lon="7.19628">
        <ele>1253.7</ele>
        <time>2013-09-06T07:11:05Z</time>
      </trkpt>
      <trkpt lat="44.06555" lon="7.19653">
        <ele>1257.5</ele>
        <time>2013-09-06T07:11:16Z</time>
      </trkpt>
      <trkpt lat="44.0656" lon="7.19691">
        <ele>1258</ele>
        <time>2013-09-06T07:11:31Z</time>
      </trkpt>
      <trkpt lat="44.06573" lon="7.19729">
        <ele>1259.5</ele>
        <time>2013-09-06T07:11:47Z</time>
      </trkpt>
      <trkpt lat="44.06586" lon="7.19774">
        <ele>1262.4</ele>
        <time>2013-09-06T07:12:05Z</time>
      </trkpt>
      <trkpt lat="44.06594" lon="7.19804">
        <ele>1265.2</ele>
        <time>2013-09-06T07:12:18Z</time>
      </trkpt>
      <trkpt lat="44.0661" lon="7.19852">
        <ele>1267.2</ele>
        <time>2013-09-06T07:12:37Z</time>
      </trkpt>
      <trkpt lat="44.06624" lon="7.19892">
        <ele>1270</ele>
        <time>2013-09-06T07:12:53Z</time>
      </trkpt>
      <trkpt lat="44.06644" lon="7.19949">
        <ele>1272.9</ele>
        <time>2013-09-06T07:13:15Z</time>
      </trkpt>
      <trkpt lat="44.06652" lon="7.19999">
        <ele>1276.3</ele>
        <time>2013-09-06T07:13:33Z</time>
      </trkpt>
      <trkpt lat="44.06661" lon="7.20052">
        <ele>1278.2</ele>
        <time>2013-09-06T07:13:49Z</time>
      </trkpt>
      <trkpt lat="44.06668" lon="7.20115">
        <ele>1280.6</ele>
        <time>2013-09-06T07:14:08Z</time>
      </trkpt>
      <trkpt lat="44.06664" lon="7.20122">
        <ele>1277.7</ele>
        <time>2013-09-06T07:14:18Z</time>
      </trkpt>
      <trkpt lat="44.06665" lon="7.20123">
        <ele>1279.7</ele>
        <time>2013-09-06T07:19:24Z</time>
      </trkpt>
      <trkpt lat="44.06666" lon="7.20124">
        <ele>1279.7</ele>
        <time>2013-09-06T07:19:25Z</time>
      </trkpt>
      <trkpt lat="44.06664" lon="7.20123">
        <ele>1281.1</ele>
        <time>2013-09-06T07:19:33Z</time>
      </trkpt>
      <trkpt lat="44.06659" lon="7.20134">
        <ele>1283</ele>
        <time>2013-09-06T07:19:40Z</time>
      </trkpt>
      <trkpt lat="44.06652" lon="7.20148">
        <ele>1286.4</ele>
        <time>2013-09-06T07:19:46Z</time>
      </trkpt>
      <trkpt lat="44.06647" lon="7.20181">
        <ele>1289.3</ele>
        <time>2013-09-06T07:19:57Z</time>
      </trkpt>
      <trkpt lat="44.0665" lon="7.20221">
        <ele>1291.2</ele>
        <time>2013-09-06T07:20:12Z</time>
      </trkpt>
      <trkpt lat="44.06655" lon="7.20266">
        <ele>1293.6</ele>
        <time>2013-09-06T07:20:29Z</time>
      </trkpt>
      <trkpt lat="44.06657" lon="7.20304">
        <ele>1295.5</ele>
        <time>2013-09-06T07:20:44Z</time>
      </trkpt>
      <trkpt lat="44.06655" lon="7.20348">
        <ele>1297</ele>
        <time>2013-09-06T07:21:00Z</time>
      </trkpt>
      <trkpt lat="44.06666" lon="7.20397">
        <ele>1299.4</ele>
        <time>2013-09-06T07:21:16Z</time>
      </trkpt>
      <trkpt lat="44.06694" lon="7.20421">
        <ele>1302.2</ele>
        <time>2013-09-06T07:21:33Z</time>
      </trkpt>
      <trkpt lat="44.06735" lon="7.20419">
        <ele>1305.1</ele>
        <time>2013-09-06T07:21:51Z</time>
      </trkpt>
      <trkpt lat="44.06771" lon="7.20417">
        <ele>1308</ele>
        <time>2013-09-06T07:22:08Z</time>
      </trkpt>
      <trkpt lat="44.06798" lon="7.20433">
        <ele>1310.9</ele>
        <time>2013-09-06T07:22:24Z</time>
      </trkpt>
      <trkpt lat="44.06822" lon="7.20447">
        <ele>1312.8</ele>
        <time>2013-09-06T07:22:37Z</time>
      </trkpt>
      <trkpt lat="44.06853" lon="7.20466">
        <ele>1315.7</ele>
        <time>2013-09-06T07:22:52Z</time>
      </trkpt>
      <trkpt lat="44.06895" lon="7.20492">
        <ele>1319.1</ele>
        <time>2013-09-06T07:23:14Z</time>
      </trkpt>
      <trkpt lat="44.06923" lon="7.20514">
        <ele>1322</ele>
        <time>2013-09-06T07:23:29Z</time>
      </trkpt>
      <trkpt lat="44.06956" lon="7.20544">
        <ele>1324.4</ele>
        <time>2013-09-06T07:23:47Z</time>
      </trkpt>
      <trkpt lat="44.06986" lon="7.20569">
        <ele>1327.2</ele>
        <time>2013-09-06T07:24:03Z</time>
      </trkpt>
      <trkpt lat="44.07003" lon="7.20587">
        <ele>1329.2</ele>
        <time>2013-09-06T07:24:14Z</time>
      </trkpt>
      <trkpt lat="44.07038" lon="7.20608">
        <ele>1331.6</ele>
        <time>2013-09-06T07:24:31Z</time>
      </trkpt>
      <trkpt lat="44.07075" lon="7.2063">
        <ele>1334.9</ele>
        <time>2013-09-06T07:24:49Z</time>
      </trkpt>
      <trkpt lat="44.07112" lon="7.20666">
        <ele>1338.3</ele>
        <time>2013-09-06T07:25:10Z</time>
      </trkpt>
      <trkpt lat="44.07145" lon="7.20695">
        <ele>1341.2</ele>
        <time>2013-09-06T07:25:28Z</time>
      </trkpt>
      <trkpt lat="44.07158" lon="7.20734">
        <ele>1343.6</ele>
        <time>2013-09-06T07:25:44Z</time>
      </trkpt>
      <trkpt lat="44.07175" lon="7.20767">
        <ele>1346</ele>
        <time>2013-09-06T07:25:58Z</time>
      </trkpt>
      <trkpt lat="44.07193" lon="7.20803">
        <ele>1348.4</ele>
        <time>2013-09-06T07:26:12Z</time>
      </trkpt>
      <trkpt lat="44.07192" lon="7.20852">
        <ele>1351.3</ele>
        <time>2013-09-06T07:26:28Z</time>
      </trkpt>
      <trkpt lat="44.07195" lon="7.20901">
        <ele>1353.2</ele>
        <time>2013-09-06T07:26:45Z</time>
      </trkpt>
      <trkpt lat="44.07214" lon="7.20899">
        <ele>1354.2</ele>
        <time>2013-09-06T07:26:56Z</time>
      </trkpt>
      <trkpt lat="44.07214" lon="7.20861">
        <ele>1355.1</ele>
        <time>2013-09-06T07:27:08Z</time>
      </trkpt>
      <trkpt lat="44.0722" lon="7.20819">
        <ele>1357.5</ele>
        <time>2013-09-06T07:27:21Z</time>
      </trkpt>
      <trkpt lat="44.07222" lon="7.20814">
        <ele>1358</ele>
        <time>2013-09-06T07:27:23Z</time>
      </trkpt>
      <trkpt lat="44.07234" lon="7.20757">
        <ele>1361.4</ele>
        <time>2013-09-06T07:27:42Z</time>
      </trkpt>
      <trkpt lat="44.07234" lon="7.20696">
        <ele>1363.8</ele>
        <time>2013-09-06T07:28:02Z</time>
      </trkpt>
      <trkpt lat="44.07239" lon="7.20653">
        <ele>1366.2</ele>
        <time>2013-09-06T07:28:18Z</time>
      </trkpt>
      <trkpt lat="44.07239" lon="7.20602">
        <ele>1369.1</ele>
        <time>2013-09-06T07:28:36Z</time>
      </trkpt>
      <trkpt lat="44.07221" lon="7.20555">
        <ele>1371</ele>
        <time>2013-09-06T07:28:53Z</time>
      </trkpt>
      <trkpt lat="44.07215" lon="7.20518">
        <ele>1373.4</ele>
        <time>2013-09-06T07:29:06Z</time>
      </trkpt>
      <trkpt lat="44.07216" lon="7.2046">
        <ele>1376.8</ele>
        <time>2013-09-06T07:29:24Z</time>
      </trkpt>
      <trkpt lat="44.0722" lon="7.2041">
        <ele>1379.2</ele>
        <time>2013-09-06T07:29:40Z</time>
      </trkpt>
      <trkpt lat="44.07221" lon="7.20403">
        <ele>1380.1</ele>
        <time>2013-09-06T07:29:42Z</time>
      </trkpt>
      <trkpt lat="44.07227" lon="7.20353">
        <ele>1383.5</ele>
        <time>2013-09-06T07:29:58Z</time>
      </trkpt>
      <trkpt lat="44.07232" lon="7.20304">
        <ele>1385.9</ele>
        <time>2013-09-06T07:30:13Z</time>
      </trkpt>
      <trkpt lat="44.07251" lon="7.20271">
        <ele>1387.3</ele>
        <time>2013-09-06T07:30:27Z</time>
      </trkpt>
      <trkpt lat="44.07254" lon="7.20271">
        <ele>1387.3</ele>
        <time>2013-09-06T07:30:28Z</time>
      </trkpt>
      <trkpt lat="44.07264" lon="7.20299">
        <ele>1388.3</ele>
        <time>2013-09-06T07:30:38Z</time>
      </trkpt>
      <trkpt lat="44.07256" lon="7.20353">
        <ele>1390.7</ele>
        <time>2013-09-06T07:30:54Z</time>
      </trkpt>
      <trkpt lat="44.07253" lon="7.20415">
        <ele>1394.5</ele>
        <time>2013-09-06T07:31:11Z</time>
      </trkpt>
      <trkpt lat="44.07257" lon="7.20478">
        <ele>1397.4</ele>
        <time>2013-09-06T07:31:30Z</time>
      </trkpt>
      <trkpt lat="44.0728" lon="7.20528">
        <ele>1400.3</ele>
        <time>2013-09-06T07:31:49Z</time>
      </trkpt>
      <trkpt lat="44.07308" lon="7.20547">
        <ele>1403.2</ele>
        <time>2013-09-06T07:32:03Z</time>
      </trkpt>
      <trkpt lat="44.07341" lon="7.20567">
        <ele>1406.1</ele>
        <time>2013-09-06T07:32:19Z</time>
      </trkpt>
      <trkpt lat="44.0735" lon="7.20614">
        <ele>1409.4</ele>
        <time>2013-09-06T07:32:35Z</time>
      </trkpt>
      <trkpt lat="44.07355" lon="7.20675">
        <ele>1410.9</ele>
        <time>2013-09-06T07:32:56Z</time>
      </trkpt>
      <trkpt lat="44.07357" lon="7.20712">
        <ele>1414.2</ele>
        <time>2013-09-06T07:33:09Z</time>
      </trkpt>
      <trkpt lat="44.07356" lon="7.20764">
        <ele>1417.6</ele>
        <time>2013-09-06T07:33:27Z</time>
      </trkpt>
      <trkpt lat="44.07357" lon="7.20817">
        <ele>1420</ele>
        <time>2013-09-06T07:33:44Z</time>
      </trkpt>
      <trkpt lat="44.07367" lon="7.20874">
        <ele>1423.4</ele>
        <time>2013-09-06T07:34:02Z</time>
      </trkpt>
      <trkpt lat="44.07381" lon="7.20922">
        <ele>1426.7</ele>
        <time>2013-09-06T07:34:18Z</time>
      </trkpt>
      <trkpt lat="44.07396" lon="7.20965">
        <ele>1429.1</ele>
        <time>2013-09-06T07:34:34Z</time>
      </trkpt>
      <trkpt lat="44.07395" lon="7.21016">
        <ele>1430.6</ele>
        <time>2013-09-06T07:34:51Z</time>
      </trkpt>
      <trkpt lat="44.07393" lon="7.21037">
        <ele>1433.5</ele>
        <time>2013-09-06T07:34:57Z</time>
      </trkpt>
      <trkpt lat="44.0739" lon="7.21067">
        <ele>1434.9</ele>
        <time>2013-09-06T07:35:07Z</time>
      </trkpt>
      <trkpt lat="44.07384" lon="7.21115">
        <ele>1437.8</ele>
        <time>2013-09-06T07:35:22Z</time>
      </trkpt>
      <trkpt lat="44.07381" lon="7.21169">
        <ele>1440.2</ele>
        <time>2013-09-06T07:35:39Z</time>
      </trkpt>
      <trkpt lat="44.07381" lon="7.21218">
        <ele>1443.6</ele>
        <time>2013-09-06T07:35:54Z</time>
      </trkpt>
      <trkpt lat="44.07381" lon="7.21273">
        <ele>1446</ele>
        <time>2013-09-06T07:36:11Z</time>
      </trkpt>
      <trkpt lat="44.07381" lon="7.21321">
        <ele>1449.8</ele>
        <time>2013-09-06T07:36:25Z</time>
      </trkpt>
      <trkpt lat="44.0738" lon="7.2137">
        <ele>1451.7</ele>
        <time>2013-09-06T07:36:42Z</time>
      </trkpt>
      <trkpt lat="44.07378" lon="7.21423">
        <ele>1454.6</ele>
        <time>2013-09-06T07:37:00Z</time>
      </trkpt>
      <trkpt lat="44.07379" lon="7.21466">
        <ele>1458</ele>
        <time>2013-09-06T07:37:15Z</time>
      </trkpt>
      <trkpt lat="44.07394" lon="7.21512">
        <ele>1460.4</ele>
        <time>2013-09-06T07:37:33Z</time>
      </trkpt>
      <trkpt lat="44.07394" lon="7.21562">
        <ele>1463.7</ele>
        <time>2013-09-06T07:37:50Z</time>
      </trkpt>
      <trkpt lat="44.0739" lon="7.21578">
        <ele>1464.2</ele>
        <time>2013-09-06T07:37:56Z</time>
      </trkpt>
      <trkpt lat="44.07377" lon="7.2161">
        <ele>1466.6</ele>
        <time>2013-09-06T07:38:08Z</time>
      </trkpt>
      <trkpt lat="44.07355" lon="7.21663">
        <ele>1469</ele>
        <time>2013-09-06T07:38:28Z</time>
      </trkpt>
      <trkpt lat="44.07343" lon="7.21703">
        <ele>1472.9</ele>
        <time>2013-09-06T07:38:42Z</time>
      </trkpt>
      <trkpt lat="44.07329" lon="7.21747">
        <ele>1474.3</ele>
        <time>2013-09-06T07:38:57Z</time>
      </trkpt>
      <trkpt lat="44.07309" lon="7.21797">
        <ele>1478.2</ele>
        <time>2013-09-06T07:39:15Z</time>
      </trkpt>
      <trkpt lat="44.07288" lon="7.21849">
        <ele>1480.1</ele>
        <time>2013-09-06T07:39:33Z</time>
      </trkpt>
      <trkpt lat="44.07267" lon="7.2188">
        <ele>1483</ele>
        <time>2013-09-06T07:39:48Z</time>
      </trkpt>
      <trkpt lat="44.07248" lon="7.21926">
        <ele>1486.3</ele>
        <time>2013-09-06T07:40:04Z</time>
      </trkpt>
      <trkpt lat="44.07239" lon="7.21952">
        <ele>1488.7</ele>
        <time>2013-09-06T07:40:13Z</time>
      </trkpt>
      <trkpt lat="44.07219" lon="7.21998">
        <ele>1491.1</ele>
        <time>2013-09-06T07:40:31Z</time>
      </trkpt>
      <trkpt lat="44.07198" lon="7.22034">
        <ele>1493.1</ele>
        <time>2013-09-06T07:40:48Z</time>
      </trkpt>
      <trkpt lat="44.07175" lon="7.22056">
        <ele>1496.4</ele>
        <time>2013-09-06T07:41:03Z</time>
      </trkpt>
      <trkpt lat="44.07142" lon="7.22063">
        <ele>1499.3</ele>
        <time>2013-09-06T07:41:19Z</time>
      </trkpt>
      <trkpt lat="44.07131" lon="7.22065">
        <ele>1500.8</ele>
        <time>2013-09-06T07:41:25Z</time>
      </trkpt>
      <trkpt lat="44.07106" lon="7.22094">
        <ele>1501.2</ele>
        <time>2013-09-06T07:41:40Z</time>
      </trkpt>
      <trkpt lat="44.07096" lon="7.22132">
        <ele>1502.7</ele>
        <time>2013-09-06T07:41:52Z</time>
      </trkpt>
      <trkpt lat="44.07088" lon="7.22189">
        <ele>1502.7</ele>
        <time>2013-09-06T07:42:08Z</time>
      </trkpt>
      <trkpt lat="44.07098" lon="7.22224">
        <ele>1503.2</ele>
        <time>2013-09-06T07:42:21Z</time>
      </trkpt>
      <trkpt lat="44.07107" lon="7.22269">
        <ele>1502.2</ele>
        <time>2013-09-06T07:42:35Z</time>
      </trkpt>
      <trkpt lat="44.07096" lon="7.22337">
        <ele>1498.8</ele>
        <time>2013-09-06T07:42:47Z</time>
      </trkpt>
      <trkpt lat="44.07086" lon="7.224">
        <ele>1496</ele>
        <time>2013-09-06T07:42:55Z</time>
      </trkpt>
      <trkpt lat="44.07081" lon="7.2243">
        <ele>1495</ele>
        <time>2013-09-06T07:43:01Z</time>
      </trkpt>
      <trkpt lat="44.07082" lon="7.22435">
        <ele>1494.5</ele>
        <time>2013-09-06T07:43:02Z</time>
      </trkpt>
      <trkpt lat="44.07083" lon="7.2244">
        <ele>1495</ele>
        <time>2013-09-06T07:43:03Z</time>
      </trkpt>
      <trkpt lat="44.07085" lon="7.22446">
        <ele>1494.5</ele>
        <time>2013-09-06T07:43:04Z</time>
      </trkpt>
      <trkpt lat="44.07086" lon="7.22452">
        <ele>1494.5</ele>
        <time>2013-09-06T07:43:05Z</time>
      </trkpt>
      <trkpt lat="44.07089" lon="7.22464">
        <ele>1493.6</ele>
        <time>2013-09-06T07:43:07Z</time>
      </trkpt>
      <trkpt lat="44.07097" lon="7.22538">
        <ele>1491.1</ele>
        <time>2013-09-06T07:43:17Z</time>
      </trkpt>
      <trkpt lat="44.071" lon="7.22555">
        <ele>1490.2</ele>
        <time>2013-09-06T07:43:19Z</time>
      </trkpt>
      <trkpt lat="44.07117" lon="7.22604">
        <ele>1486.3</ele>
        <time>2013-09-06T07:43:25Z</time>
      </trkpt>
      <trkpt lat="44.0712" lon="7.22611">
        <ele>1485.9</ele>
        <time>2013-09-06T07:43:26Z</time>
      </trkpt>
      <trkpt lat="44.07129" lon="7.22648">
        <ele>1483.9</ele>
        <time>2013-09-06T07:43:31Z</time>
      </trkpt>
      <trkpt lat="44.07147" lon="7.22712">
        <ele>1481.1</ele>
        <time>2013-09-06T07:43:38Z</time>
      </trkpt>
      <trkpt lat="44.07159" lon="7.22753">
        <ele>1478.2</ele>
        <time>2013-09-06T07:43:42Z</time>
      </trkpt>
      <trkpt lat="44.0717" lon="7.22796">
        <ele>1476.7</ele>
        <time>2013-09-06T07:43:46Z</time>
      </trkpt>
      <trkpt lat="44.07186" lon="7.22847">
        <ele>1473.4</ele>
        <time>2013-09-06T07:43:51Z</time>
      </trkpt>
      <trkpt lat="44.07189" lon="7.22858">
        <ele>1473.4</ele>
        <time>2013-09-06T07:43:52Z</time>
      </trkpt>
      <trkpt lat="44.07197" lon="7.22894">
        <ele>1471.9</ele>
        <time>2013-09-06T07:43:55Z</time>
      </trkpt>
      <trkpt lat="44.07205" lon="7.22963">
        <ele>1468.6</ele>
        <time>2013-09-06T07:44:00Z</time>
      </trkpt>
      <trkpt lat="44.07209" lon="7.22991">
        <ele>1467.6</ele>
        <time>2013-09-06T07:44:02Z</time>
      </trkpt>
      <trkpt lat="44.07215" lon="7.23034">
        <ele>1464.2</ele>
        <time>2013-09-06T07:44:05Z</time>
      </trkpt>
      <trkpt lat="44.0722" lon="7.23079">
        <ele>1462.3</ele>
        <time>2013-09-06T07:44:08Z</time>
      </trkpt>
      <trkpt lat="44.07228" lon="7.2313">
        <ele>1459.4</ele>
        <time>2013-09-06T07:44:12Z</time>
      </trkpt>
      <trkpt lat="44.07233" lon="7.23141">
        <ele>1458.9</ele>
        <time>2013-09-06T07:44:13Z</time>
      </trkpt>
      <trkpt lat="44.07239" lon="7.2315">
        <ele>1458</ele>
        <time>2013-09-06T07:44:14Z</time>
      </trkpt>
      <trkpt lat="44.07246" lon="7.23159">
        <ele>1457</ele>
        <time>2013-09-06T07:44:15Z</time>
      </trkpt>
      <trkpt lat="44.07253" lon="7.23166">
        <ele>1456.5</ele>
        <time>2013-09-06T07:44:16Z</time>
      </trkpt>
      <trkpt lat="44.07275" lon="7.23193">
        <ele>1455.1</ele>
        <time>2013-09-06T07:44:19Z</time>
      </trkpt>
      <trkpt lat="44.07295" lon="7.23225">
        <ele>1452.2</ele>
        <time>2013-09-06T07:44:22Z</time>
      </trkpt>
      <trkpt lat="44.07307" lon="7.23248">
        <ele>1451.3</ele>
        <time>2013-09-06T07:44:24Z</time>
      </trkpt>
      <trkpt lat="44.07312" lon="7.23259">
        <ele>1450.8</ele>
        <time>2013-09-06T07:44:25Z</time>
      </trkpt>
      <trkpt lat="44.07316" lon="7.2327">
        <ele>1449.3</ele>
        <time>2013-09-06T07:44:26Z</time>
      </trkpt>
      <trkpt lat="44.07319" lon="7.23295">
        <ele>1448.4</ele>
        <time>2013-09-06T07:44:28Z</time>
      </trkpt>
      <trkpt lat="44.07317" lon="7.23335">
        <ele>1446.9</ele>
        <time>2013-09-06T07:44:31Z</time>
      </trkpt>
      <trkpt lat="44.07318" lon="7.23349">
        <ele>1446</ele>
        <time>2013-09-06T07:44:32Z</time>
      </trkpt>
      <trkpt lat="44.07327" lon="7.23386">
        <ele>1444.5</ele>
        <time>2013-09-06T07:44:35Z</time>
      </trkpt>
      <trkpt lat="44.07336" lon="7.2341">
        <ele>1442.6</ele>
        <time>2013-09-06T07:44:37Z</time>
      </trkpt>
      <trkpt lat="44.07356" lon="7.23458">
        <ele>1439.7</ele>
        <time>2013-09-06T07:44:41Z</time>
      </trkpt>
      <trkpt lat="44.07384" lon="7.23518">
        <ele>1436.8</ele>
        <time>2013-09-06T07:44:46Z</time>
      </trkpt>
      <trkpt lat="44.07389" lon="7.23531">
        <ele>1435.9</ele>
        <time>2013-09-06T07:44:47Z</time>
      </trkpt>
      <trkpt lat="44.07398" lon="7.23574">
        <ele>1433.5</ele>
        <time>2013-09-06T07:44:50Z</time>
      </trkpt>
      <trkpt lat="44.07398" lon="7.23588">
        <ele>1432.5</ele>
        <time>2013-09-06T07:44:51Z</time>
      </trkpt>
      <trkpt lat="44.07396" lon="7.23645">
        <ele>1429.6</ele>
        <time>2013-09-06T07:44:55Z</time>
      </trkpt>
      <trkpt lat="44.07402" lon="7.23682">
        <ele>1428.2</ele>
        <time>2013-09-06T07:44:58Z</time>
      </trkpt>
      <trkpt lat="44.07412" lon="7.23718">
        <ele>1424.8</ele>
        <time>2013-09-06T07:45:01Z</time>
      </trkpt>
      <trkpt lat="44.07429" lon="7.2378">
        <ele>1421.9</ele>
        <time>2013-09-06T07:45:06Z</time>
      </trkpt>
      <trkpt lat="44.07436" lon="7.23796">
        <ele>1421.5</ele>
        <time>2013-09-06T07:45:07Z</time>
      </trkpt>
      <trkpt lat="44.07463" lon="7.23822">
        <ele>1419</ele>
        <time>2013-09-06T07:45:10Z</time>
      </trkpt>
      <trkpt lat="44.07478" lon="7.2384">
        <ele>1417.6</ele>
        <time>2013-09-06T07:45:12Z</time>
      </trkpt>
      <trkpt lat="44.07504" lon="7.23876">
        <ele>1415.2</ele>
        <time>2013-09-06T07:45:16Z</time>
      </trkpt>
      <trkpt lat="44.07517" lon="7.23895">
        <ele>1413.3</ele>
        <time>2013-09-06T07:45:18Z</time>
      </trkpt>
      <trkpt lat="44.07543" lon="7.23902">
        <ele>1412.3</ele>
        <time>2013-09-06T07:45:20Z</time>
      </trkpt>
      <trkpt lat="44.07587" lon="7.23911">
        <ele>1408.5</ele>
        <time>2013-09-06T07:45:24Z</time>
      </trkpt>
      <trkpt lat="44.07596" lon="7.23914">
        <ele>1409</ele>
        <time>2013-09-06T07:45:25Z</time>
      </trkpt>
      <trkpt lat="44.07626" lon="7.23915">
        <ele>1407</ele>
        <time>2013-09-06T07:45:29Z</time>
      </trkpt>
      <trkpt lat="44.07666" lon="7.23898">
        <ele>1404.1</ele>
        <time>2013-09-06T07:45:34Z</time>
      </trkpt>
      <trkpt lat="44.07674" lon="7.23893">
        <ele>1403.2</ele>
        <time>2013-09-06T07:45:35Z</time>
      </trkpt>
      <trkpt lat="44.07706" lon="7.23838">
        <ele>1399.8</ele>
        <time>2013-09-06T07:45:40Z</time>
      </trkpt>
      <trkpt lat="44.07724" lon="7.2381">
        <ele>1397.4</ele>
        <time>2013-09-06T07:45:43Z</time>
      </trkpt>
      <trkpt lat="44.07739" lon="7.2381">
        <ele>1396.5</ele>
        <time>2013-09-06T07:45:46Z</time>
      </trkpt>
      <trkpt lat="44.07786" lon="7.2389">
        <ele>1392.6</ele>
        <time>2013-09-06T07:45:53Z</time>
      </trkpt>
      <trkpt lat="44.07806" lon="7.23922">
        <ele>1390.7</ele>
        <time>2013-09-06T07:45:56Z</time>
      </trkpt>
      <trkpt lat="44.0784" lon="7.23969">
        <ele>1387.8</ele>
        <time>2013-09-06T07:46:01Z</time>
      </trkpt>
      <trkpt lat="44.07873" lon="7.24004">
        <ele>1385.4</ele>
        <time>2013-09-06T07:46:05Z</time>
      </trkpt>
      <trkpt lat="44.07897" lon="7.2403">
        <ele>1382</ele>
        <time>2013-09-06T07:46:08Z</time>
      </trkpt>
      <trkpt lat="44.07905" lon="7.24038">
        <ele>1382</ele>
        <time>2013-09-06T07:46:09Z</time>
      </trkpt>
      <trkpt lat="44.07939" lon="7.24091">
        <ele>1377.7</ele>
        <time>2013-09-06T07:46:14Z</time>
      </trkpt>
      <trkpt lat="44.07946" lon="7.24102">
        <ele>1377.7</ele>
        <time>2013-09-06T07:46:15Z</time>
      </trkpt>
      <trkpt lat="44.07959" lon="7.24124">
        <ele>1375.3</ele>
        <time>2013-09-06T07:46:17Z</time>
      </trkpt>
      <trkpt lat="44.07991" lon="7.24152">
        <ele>1372.4</ele>
        <time>2013-09-06T07:46:21Z</time>
      </trkpt>
      <trkpt lat="44.08038" lon="7.24169">
        <ele>1368.6</ele>
        <time>2013-09-06T07:46:26Z</time>
      </trkpt>
      <trkpt lat="44.08048" lon="7.24175">
        <ele>1368.6</ele>
        <time>2013-09-06T07:46:27Z</time>
      </trkpt>
      <trkpt lat="44.08087" lon="7.24196">
        <ele>1365.2</ele>
        <time>2013-09-06T07:46:31Z</time>
      </trkpt>
      <trkpt lat="44.08096" lon="7.24202">
        <ele>1364.7</ele>
        <time>2013-09-06T07:46:32Z</time>
      </trkpt>
      <trkpt lat="44.0814" lon="7.2421">
        <ele>1361.4</ele>
        <time>2013-09-06T07:46:37Z</time>
      </trkpt>
      <trkpt lat="44.08174" lon="7.2422">
        <ele>1359</ele>
        <time>2013-09-06T07:46:41Z</time>
      </trkpt>
      <trkpt lat="44.08183" lon="7.24221">
        <ele>1359</ele>
        <time>2013-09-06T07:46:42Z</time>
      </trkpt>
      <trkpt lat="44.08192" lon="7.24221">
        <ele>1358.5</ele>
        <time>2013-09-06T07:46:43Z</time>
      </trkpt>
      <trkpt lat="44.08212" lon="7.24217">
        <ele>1357.5</ele>
        <time>2013-09-06T07:46:45Z</time>
      </trkpt>
      <trkpt lat="44.08231" lon="7.24208">
        <ele>1357</ele>
        <time>2013-09-06T07:46:47Z</time>
      </trkpt>
      <trkpt lat="44.0827" lon="7.24181">
        <ele>1353.7</ele>
        <time>2013-09-06T07:46:52Z</time>
      </trkpt>
      <trkpt lat="44.08276" lon="7.24178">
        <ele>1353.2</ele>
        <time>2013-09-06T07:46:53Z</time>
      </trkpt>
      <trkpt lat="44.08281" lon="7.24178">
        <ele>1352.7</ele>
        <time>2013-09-06T07:46:54Z</time>
      </trkpt>
      <trkpt lat="44.08283" lon="7.24183">
        <ele>1352.2</ele>
        <time>2013-09-06T07:46:55Z</time>
      </trkpt>
      <trkpt lat="44.08282" lon="7.2419">
        <ele>1351.8</ele>
        <time>2013-09-06T07:46:56Z</time>
      </trkpt>
      <trkpt lat="44.0828" lon="7.24195">
        <ele>1351.3</ele>
        <time>2013-09-06T07:46:57Z</time>
      </trkpt>
      <trkpt lat="44.08276" lon="7.24199">
        <ele>1351.8</ele>
        <time>2013-09-06T07:46:58Z</time>
      </trkpt>
      <trkpt lat="44.08272" lon="7.24202">
        <ele>1351.3</ele>
        <time>2013-09-06T07:46:59Z</time>
      </trkpt>
      <trkpt lat="44.08267" lon="7.24205">
        <ele>1350.8</ele>
        <time>2013-09-06T07:47:00Z</time>
      </trkpt>
      <trkpt lat="44.08261" lon="7.24207">
        <ele>1350.3</ele>
        <time>2013-09-06T07:47:01Z</time>
      </trkpt>
      <trkpt lat="44.08256" lon="7.2421">
        <ele>1349.8</ele>
        <time>2013-09-06T07:47:02Z</time>
      </trkpt>
      <trkpt lat="44.082" lon="7.24239">
        <ele>1346.9</ele>
        <time>2013-09-06T07:47:10Z</time>
      </trkpt>
      <trkpt lat="44.0819" lon="7.24241">
        <ele>1346.5</ele>
        <time>2013-09-06T07:47:11Z</time>
      </trkpt>
      <trkpt lat="44.08181" lon="7.24241">
        <ele>1345.5</ele>
        <time>2013-09-06T07:47:12Z</time>
      </trkpt>
      <trkpt lat="44.08172" lon="7.24241">
        <ele>1345</ele>
        <time>2013-09-06T07:47:13Z</time>
      </trkpt>
      <trkpt lat="44.0814" lon="7.24238">
        <ele>1342.1</ele>
        <time>2013-09-06T07:47:17Z</time>
      </trkpt>
      <trkpt lat="44.08105" lon="7.24238">
        <ele>1338.8</ele>
        <time>2013-09-06T07:47:21Z</time>
      </trkpt>
      <trkpt lat="44.08077" lon="7.24232">
        <ele>1337.3</ele>
        <time>2013-09-06T07:47:24Z</time>
      </trkpt>
      <trkpt lat="44.08037" lon="7.2422">
        <ele>1334</ele>
        <time>2013-09-06T07:47:28Z</time>
      </trkpt>
      <trkpt lat="44.08026" lon="7.24219">
        <ele>1333.5</ele>
        <time>2013-09-06T07:47:29Z</time>
      </trkpt>
      <trkpt lat="44.07993" lon="7.24216">
        <ele>1329.6</ele>
        <time>2013-09-06T07:47:32Z</time>
      </trkpt>
      <trkpt lat="44.07982" lon="7.24213">
        <ele>1329.2</ele>
        <time>2013-09-06T07:47:33Z</time>
      </trkpt>
      <trkpt lat="44.07971" lon="7.24208">
        <ele>1328.7</ele>
        <time>2013-09-06T07:47:34Z</time>
      </trkpt>
      <trkpt lat="44.07939" lon="7.24192">
        <ele>1325.8</ele>
        <time>2013-09-06T07:47:37Z</time>
      </trkpt>
      <trkpt lat="44.07897" lon="7.24162">
        <ele>1322.4</ele>
        <time>2013-09-06T07:47:41Z</time>
      </trkpt>
      <trkpt lat="44.07855" lon="7.24129">
        <ele>1318.6</ele>
        <time>2013-09-06T07:47:45Z</time>
      </trkpt>
      <trkpt lat="44.07813" lon="7.24097">
        <ele>1315.2</ele>
        <time>2013-09-06T07:47:49Z</time>
      </trkpt>
      <trkpt lat="44.07783" lon="7.24074">
        <ele>1311.9</ele>
        <time>2013-09-06T07:47:52Z</time>
      </trkpt>
      <trkpt lat="44.07774" lon="7.24067">
        <ele>1311.4</ele>
        <time>2013-09-06T07:47:53Z</time>
      </trkpt>
      <trkpt lat="44.07765" lon="7.24058">
        <ele>1310.4</ele>
        <time>2013-09-06T07:47:54Z</time>
      </trkpt>
      <trkpt lat="44.07758" lon="7.24049">
        <ele>1309.9</ele>
        <time>2013-09-06T07:47:55Z</time>
      </trkpt>
      <trkpt lat="44.07738" lon="7.24025">
        <ele>1307.1</ele>
        <time>2013-09-06T07:47:58Z</time>
      </trkpt>
      <trkpt lat="44.07731" lon="7.24023">
        <ele>1306.6</ele>
        <time>2013-09-06T07:47:59Z</time>
      </trkpt>
      <trkpt lat="44.07723" lon="7.24025">
        <ele>1307.1</ele>
        <time>2013-09-06T07:48:00Z</time>
      </trkpt>
      <trkpt lat="44.07716" lon="7.2403">
        <ele>1306.1</ele>
        <time>2013-09-06T07:48:01Z</time>
      </trkpt>
      <trkpt lat="44.07712" lon="7.2404">
        <ele>1305.6</ele>
        <time>2013-09-06T07:48:02Z</time>
      </trkpt>
      <trkpt lat="44.07707" lon="7.2405">
        <ele>1305.1</ele>
        <time>2013-09-06T07:48:03Z</time>
      </trkpt>
      <trkpt lat="44.07685" lon="7.24108">
        <ele>1301.8</ele>
        <time>2013-09-06T07:48:08Z</time>
      </trkpt>
      <trkpt lat="44.07674" lon="7.24132">
        <ele>1299.8</ele>
        <time>2013-09-06T07:48:10Z</time>
      </trkpt>
      <trkpt lat="44.07668" lon="7.24142">
        <ele>1298.9</ele>
        <time>2013-09-06T07:48:11Z</time>
      </trkpt>
      <trkpt lat="44.07661" lon="7.24152">
        <ele>1297.9</ele>
        <time>2013-09-06T07:48:12Z</time>
      </trkpt>
      <trkpt lat="44.07655" lon="7.2416">
        <ele>1297.4</ele>
        <time>2013-09-06T07:48:13Z</time>
      </trkpt>
      <trkpt lat="44.07647" lon="7.24168">
        <ele>1296.5</ele>
        <time>2013-09-06T07:48:14Z</time>
      </trkpt>
      <trkpt lat="44.0764" lon="7.24174">
        <ele>1296</ele>
        <time>2013-09-06T07:48:15Z</time>
      </trkpt>
      <trkpt lat="44.07632" lon="7.24177">
        <ele>1295.5</ele>
        <time>2013-09-06T07:48:16Z</time>
      </trkpt>
      <trkpt lat="44.07625" lon="7.24179">
        <ele>1294.1</ele>
        <time>2013-09-06T07:48:17Z</time>
      </trkpt>
      <trkpt lat="44.07605" lon="7.24187">
        <ele>1292.6</ele>
        <time>2013-09-06T07:48:23Z</time>
      </trkpt>
      <trkpt lat="44.07604" lon="7.24185">
        <ele>1293.6</ele>
        <time>2013-09-06T07:48:44Z</time>
      </trkpt>
      <trkpt lat="44.07608" lon="7.24185">
        <ele>1293.1</ele>
        <time>2013-09-06T07:49:05Z</time>
      </trkpt>
      <trkpt lat="44.07609" lon="7.24187">
        <ele>1292.6</ele>
        <time>2013-09-06T07:49:09Z</time>
      </trkpt>
      <trkpt lat="44.0761" lon="7.24196">
        <ele>1292.6</ele>
        <time>2013-09-06T07:49:12Z</time>
      </trkpt>
      <trkpt lat="44.07613" lon="7.24198">
        <ele>1292.6</ele>
        <time>2013-09-06T07:49:13Z</time>
      </trkpt>
      <trkpt lat="44.07616" lon="7.24201">
        <ele>1292.2</ele>
        <time>2013-09-06T07:49:14Z</time>
      </trkpt>
      <trkpt lat="44.07619" lon="7.24202">
        <ele>1292.2</ele>
        <time>2013-09-06T07:49:15Z</time>
      </trkpt>
      <trkpt lat="44.07623" lon="7.24202">
        <ele>1291.7</ele>
        <time>2013-09-06T07:49:16Z</time>
      </trkpt>
      <trkpt lat="44.07627" lon="7.24201">
        <ele>1291.2</ele>
        <time>2013-09-06T07:49:17Z</time>
      </trkpt>
      <trkpt lat="44.07632" lon="7.242">
        <ele>1291.2</ele>
        <time>2013-09-06T07:49:18Z</time>
      </trkpt>
      <trkpt lat="44.07637" lon="7.24199">
        <ele>1291.2</ele>
        <time>2013-09-06T07:49:19Z</time>
      </trkpt>
      <trkpt lat="44.07642" lon="7.24197">
        <ele>1290.7</ele>
        <time>2013-09-06T07:49:20Z</time>
      </trkpt>
      <trkpt lat="44.07647" lon="7.24195">
        <ele>1290.2</ele>
        <time>2013-09-06T07:49:21Z</time>
      </trkpt>
      <trkpt lat="44.07652" lon="7.24191">
        <ele>1290.2</ele>
        <time>2013-09-06T07:49:22Z</time>
      </trkpt>
      <trkpt lat="44.07666" lon="7.24177">
        <ele>1288.3</ele>
        <time>2013-09-06T07:49:25Z</time>
      </trkpt>
      <trkpt lat="44.07671" lon="7.2417">
        <ele>1288.3</ele>
        <time>2013-09-06T07:49:26Z</time>
      </trkpt>
      <trkpt lat="44.07699" lon="7.24132">
        <ele>1284.5</ele>
        <time>2013-09-06T07:49:31Z</time>
      </trkpt>
      <trkpt lat="44.07729" lon="7.24092">
        <ele>1281.1</ele>
        <time>2013-09-06T07:49:36Z</time>
      </trkpt>
      <trkpt lat="44.07734" lon="7.2409">
        <ele>1280.6</ele>
        <time>2013-09-06T07:49:37Z</time>
      </trkpt>
      <trkpt lat="44.07737" lon="7.24092">
        <ele>1279.7</ele>
        <time>2013-09-06T07:49:38Z</time>
      </trkpt>
      <trkpt lat="44.07738" lon="7.24096">
        <ele>1278.7</ele>
        <time>2013-09-06T07:49:39Z</time>
      </trkpt>
      <trkpt lat="44.07739" lon="7.24101">
        <ele>1278.7</ele>
        <time>2013-09-06T07:49:40Z</time>
      </trkpt>
      <trkpt lat="44.07741" lon="7.24109">
        <ele>1278.2</ele>
        <time>2013-09-06T07:49:41Z</time>
      </trkpt>
      <trkpt lat="44.07745" lon="7.24117">
        <ele>1277.3</ele>
        <time>2013-09-06T07:49:42Z</time>
      </trkpt>
      <trkpt lat="44.07776" lon="7.24165">
        <ele>1273.4</ele>
        <time>2013-09-06T07:49:46Z</time>
      </trkpt>
      <trkpt lat="44.07819" lon="7.24216">
        <ele>1270.5</ele>
        <time>2013-09-06T07:49:51Z</time>
      </trkpt>
      <trkpt lat="44.07846" lon="7.24247">
        <ele>1268.1</ele>
        <time>2013-09-06T07:49:53Z</time>
      </trkpt>
      <trkpt lat="44.07855" lon="7.24261">
        <ele>1266.7</ele>
        <time>2013-09-06T07:49:54Z</time>
      </trkpt>
      <trkpt lat="44.07864" lon="7.24275">
        <ele>1265.7</ele>
        <time>2013-09-06T07:49:55Z</time>
      </trkpt>
      <trkpt lat="44.07879" lon="7.24301">
        <ele>1262.8</ele>
        <time>2013-09-06T07:49:57Z</time>
      </trkpt>
      <trkpt lat="44.07888" lon="7.2431">
        <ele>1262.8</ele>
        <time>2013-09-06T07:49:58Z</time>
      </trkpt>
      <trkpt lat="44.07897" lon="7.24316">
        <ele>1261.9</ele>
        <time>2013-09-06T07:49:59Z</time>
      </trkpt>
      <trkpt lat="44.07939" lon="7.24344">
        <ele>1258</ele>
        <time>2013-09-06T07:50:03Z</time>
      </trkpt>
      <trkpt lat="44.07984" lon="7.24367">
        <ele>1254.2</ele>
        <time>2013-09-06T07:50:07Z</time>
      </trkpt>
      <trkpt lat="44.08033" lon="7.24392">
        <ele>1249.9</ele>
        <time>2013-09-06T07:50:11Z</time>
      </trkpt>
      <trkpt lat="44.0807" lon="7.24412">
        <ele>1247</ele>
        <time>2013-09-06T07:50:14Z</time>
      </trkpt>
      <trkpt lat="44.08119" lon="7.2444">
        <ele>1242.2</ele>
        <time>2013-09-06T07:50:18Z</time>
      </trkpt>
      <trkpt lat="44.08156" lon="7.24461">
        <ele>1238.3</ele>
        <time>2013-09-06T07:50:21Z</time>
      </trkpt>
      <trkpt lat="44.08191" lon="7.24482">
        <ele>1235</ele>
        <time>2013-09-06T07:50:24Z</time>
      </trkpt>
      <trkpt lat="44.08225" lon="7.24493">
        <ele>1231.6</ele>
        <time>2013-09-06T07:50:27Z</time>
      </trkpt>
      <trkpt lat="44.08236" lon="7.24494">
        <ele>1230.6</ele>
        <time>2013-09-06T07:50:28Z</time>
      </trkpt>
      <trkpt lat="44.08247" lon="7.24493">
        <ele>1230.1</ele>
        <time>2013-09-06T07:50:29Z</time>
      </trkpt>
      <trkpt lat="44.08259" lon="7.2449">
        <ele>1228.7</ele>
        <time>2013-09-06T07:50:30Z</time>
      </trkpt>
      <trkpt lat="44.0827" lon="7.24484">
        <ele>1228.2</ele>
        <time>2013-09-06T07:50:31Z</time>
      </trkpt>
      <trkpt lat="44.0828" lon="7.24477">
        <ele>1227.3</ele>
        <time>2013-09-06T07:50:32Z</time>
      </trkpt>
      <trkpt lat="44.08289" lon="7.24471">
        <ele>1226.3</ele>
        <time>2013-09-06T07:50:33Z</time>
      </trkpt>
      <trkpt lat="44.08298" lon="7.24465">
        <ele>1224.4</ele>
        <time>2013-09-06T07:50:34Z</time>
      </trkpt>
      <trkpt lat="44.08306" lon="7.24463">
        <ele>1223.4</ele>
        <time>2013-09-06T07:50:35Z</time>
      </trkpt>
      <trkpt lat="44.08315" lon="7.24465">
        <ele>1222.9</ele>
        <time>2013-09-06T07:50:36Z</time>
      </trkpt>
      <trkpt lat="44.08323" lon="7.2447">
        <ele>1222.5</ele>
        <time>2013-09-06T07:50:37Z</time>
      </trkpt>
      <trkpt lat="44.08331" lon="7.24479">
        <ele>1221.5</ele>
        <time>2013-09-06T07:50:38Z</time>
      </trkpt>
      <trkpt lat="44.08338" lon="7.24488">
        <ele>1221</ele>
        <time>2013-09-06T07:50:39Z</time>
      </trkpt>
      <trkpt lat="44.08349" lon="7.24509">
        <ele>1220.1</ele>
        <time>2013-09-06T07:50:41Z</time>
      </trkpt>
      <trkpt lat="44.08351" lon="7.24523">
        <ele>1218.6</ele>
        <time>2013-09-06T07:50:42Z</time>
      </trkpt>
      <trkpt lat="44.08352" lon="7.24537">
        <ele>1218.6</ele>
        <time>2013-09-06T07:50:43Z</time>
      </trkpt>
      <trkpt lat="44.08356" lon="7.2456">
        <ele>1216.7</ele>
        <time>2013-09-06T07:50:45Z</time>
      </trkpt>
      <trkpt lat="44.0836" lon="7.24569">
        <ele>1215.7</ele>
        <time>2013-09-06T07:50:46Z</time>
      </trkpt>
      <trkpt lat="44.08365" lon="7.24573">
        <ele>1215.2</ele>
        <time>2013-09-06T07:50:47Z</time>
      </trkpt>
      <trkpt lat="44.08371" lon="7.24573">
        <ele>1214.8</ele>
        <time>2013-09-06T07:50:48Z</time>
      </trkpt>
      <trkpt lat="44.08378" lon="7.2457">
        <ele>1214.3</ele>
        <time>2013-09-06T07:50:49Z</time>
      </trkpt>
      <trkpt lat="44.08386" lon="7.24565">
        <ele>1213.8</ele>
        <time>2013-09-06T07:50:50Z</time>
      </trkpt>
      <trkpt lat="44.08395" lon="7.24559">
        <ele>1212.8</ele>
        <time>2013-09-06T07:50:51Z</time>
      </trkpt>
      <trkpt lat="44.08433" lon="7.24539">
        <ele>1209.5</ele>
        <time>2013-09-06T07:50:55Z</time>
      </trkpt>
      <trkpt lat="44.08472" lon="7.24522">
        <ele>1205.2</ele>
        <time>2013-09-06T07:50:59Z</time>
      </trkpt>
      <trkpt lat="44.08481" lon="7.2452">
        <ele>1204.2</ele>
        <time>2013-09-06T07:51:00Z</time>
      </trkpt>
      <trkpt lat="44.08488" lon="7.24522">
        <ele>1202.8</ele>
        <time>2013-09-06T07:51:01Z</time>
      </trkpt>
      <trkpt lat="44.08495" lon="7.24527">
        <ele>1202.8</ele>
        <time>2013-09-06T07:51:02Z</time>
      </trkpt>
      <trkpt lat="44.08499" lon="7.24536">
        <ele>1201.8</ele>
        <time>2013-09-06T07:51:03Z</time>
      </trkpt>
      <trkpt lat="44.08502" lon="7.24546">
        <ele>1200.8</ele>
        <time>2013-09-06T07:51:04Z</time>
      </trkpt>
      <trkpt lat="44.08503" lon="7.24557">
        <ele>1200.3</ele>
        <time>2013-09-06T07:51:05Z</time>
      </trkpt>
      <trkpt lat="44.08503" lon="7.2457">
        <ele>1199.4</ele>
        <time>2013-09-06T07:51:06Z</time>
      </trkpt>
      <trkpt lat="44.08499" lon="7.24582">
        <ele>1198.9</ele>
        <time>2013-09-06T07:51:07Z</time>
      </trkpt>
      <trkpt lat="44.08493" lon="7.24594">
        <ele>1198.4</ele>
        <time>2013-09-06T07:51:08Z</time>
      </trkpt>
      <trkpt lat="44.08474" lon="7.24626">
        <ele>1196</ele>
        <time>2013-09-06T07:51:11Z</time>
      </trkpt>
      <trkpt lat="44.0847" lon="7.24637">
        <ele>1196</ele>
        <time>2013-09-06T07:51:12Z</time>
      </trkpt>
      <trkpt lat="44.08469" lon="7.24649">
        <ele>1194.6</ele>
        <time>2013-09-06T07:51:13Z</time>
      </trkpt>
      <trkpt lat="44.08471" lon="7.2466">
        <ele>1194.1</ele>
        <time>2013-09-06T07:51:14Z</time>
      </trkpt>
      <trkpt lat="44.08475" lon="7.24669">
        <ele>1193.6</ele>
        <time>2013-09-06T07:51:15Z</time>
      </trkpt>
      <trkpt lat="44.08481" lon="7.24677">
        <ele>1193.1</ele>
        <time>2013-09-06T07:51:16Z</time>
      </trkpt>
      <trkpt lat="44.08489" lon="7.24682">
        <ele>1192.2</ele>
        <time>2013-09-06T07:51:17Z</time>
      </trkpt>
      <trkpt lat="44.08498" lon="7.24685">
        <ele>1191.2</ele>
        <time>2013-09-06T07:51:18Z</time>
      </trkpt>
      <trkpt lat="44.08507" lon="7.24687">
        <ele>1190.3</ele>
        <time>2013-09-06T07:51:19Z</time>
      </trkpt>
      <trkpt lat="44.08548" lon="7.24699">
        <ele>1186.9</ele>
        <time>2013-09-06T07:51:23Z</time>
      </trkpt>
      <trkpt lat="44.08558" lon="7.24704">
        <ele>1186.9</ele>
        <time>2013-09-06T07:51:24Z</time>
      </trkpt>
      <trkpt lat="44.08597" lon="7.24727">
        <ele>1183</ele>
        <time>2013-09-06T07:51:28Z</time>
      </trkpt>
      <trkpt lat="44.08607" lon="7.24732">
        <ele>1182.1</ele>
        <time>2013-09-06T07:51:29Z</time>
      </trkpt>
      <trkpt lat="44.08617" lon="7.24735">
        <ele>1181.1</ele>
        <time>2013-09-06T07:51:30Z</time>
      </trkpt>
      <trkpt lat="44.08627" lon="7.24735">
        <ele>1180.6</ele>
        <time>2013-09-06T07:51:31Z</time>
      </trkpt>
      <trkpt lat="44.08659" lon="7.24735">
        <ele>1177.8</ele>
        <time>2013-09-06T07:51:34Z</time>
      </trkpt>
      <trkpt lat="44.08669" lon="7.24738">
        <ele>1177.3</ele>
        <time>2013-09-06T07:51:35Z</time>
      </trkpt>
      <trkpt lat="44.08679" lon="7.24744">
        <ele>1175.8</ele>
        <time>2013-09-06T07:51:36Z</time>
      </trkpt>
      <trkpt lat="44.08688" lon="7.24751">
        <ele>1175.4</ele>
        <time>2013-09-06T07:51:37Z</time>
      </trkpt>
      <trkpt lat="44.08698" lon="7.2476">
        <ele>1174.9</ele>
        <time>2013-09-06T07:51:38Z</time>
      </trkpt>
      <trkpt lat="44.08725" lon="7.2478">
        <ele>1172</ele>
        <time>2013-09-06T07:51:41Z</time>
      </trkpt>
      <trkpt lat="44.08756" lon="7.24795">
        <ele>1169.1</ele>
        <time>2013-09-06T07:51:44Z</time>
      </trkpt>
      <trkpt lat="44.08789" lon="7.24811">
        <ele>1165.7</ele>
        <time>2013-09-06T07:51:47Z</time>
      </trkpt>
      <trkpt lat="44.08833" lon="7.24833">
        <ele>1162.4</ele>
        <time>2013-09-06T07:51:51Z</time>
      </trkpt>
      <trkpt lat="44.08876" lon="7.24861">
        <ele>1159</ele>
        <time>2013-09-06T07:51:55Z</time>
      </trkpt>
      <trkpt lat="44.08916" lon="7.24895">
        <ele>1155.6</ele>
        <time>2013-09-06T07:51:59Z</time>
      </trkpt>
      <trkpt lat="44.08952" lon="7.24936">
        <ele>1152.3</ele>
        <time>2013-09-06T07:52:03Z</time>
      </trkpt>
      <trkpt lat="44.08987" lon="7.24974">
        <ele>1148</ele>
        <time>2013-09-06T07:52:07Z</time>
      </trkpt>
      <trkpt lat="44.09001" lon="7.24995">
        <ele>1146</ele>
        <time>2013-09-06T07:52:09Z</time>
      </trkpt>
      <trkpt lat="44.09007" lon="7.25007">
        <ele>1145.6</ele>
        <time>2013-09-06T07:52:10Z</time>
      </trkpt>
      <trkpt lat="44.09012" lon="7.2502">
        <ele>1144.6</ele>
        <time>2013-09-06T07:52:11Z</time>
      </trkpt>
      <trkpt lat="44.09017" lon="7.25034">
        <ele>1143.1</ele>
        <time>2013-09-06T07:52:12Z</time>
      </trkpt>
      <trkpt lat="44.09021" lon="7.25048">
        <ele>1142.7</ele>
        <time>2013-09-06T07:52:13Z</time>
      </trkpt>
      <trkpt lat="44.09024" lon="7.25063">
        <ele>1142.2</ele>
        <time>2013-09-06T07:52:14Z</time>
      </trkpt>
      <trkpt lat="44.09036" lon="7.2512">
        <ele>1139.8</ele>
        <time>2013-09-06T07:52:18Z</time>
      </trkpt>
      <trkpt lat="44.09039" lon="7.25142">
        <ele>1137.4</ele>
        <time>2013-09-06T07:52:20Z</time>
      </trkpt>
      <trkpt lat="44.09038" lon="7.25151">
        <ele>1136.4</ele>
        <time>2013-09-06T07:52:21Z</time>
      </trkpt>
      <trkpt lat="44.09036" lon="7.2516">
        <ele>1135.9</ele>
        <time>2013-09-06T07:52:22Z</time>
      </trkpt>
      <trkpt lat="44.09033" lon="7.25166">
        <ele>1136.4</ele>
        <time>2013-09-06T07:52:23Z</time>
      </trkpt>
      <trkpt lat="44.09028" lon="7.25169">
        <ele>1135.9</ele>
        <time>2013-09-06T07:52:24Z</time>
      </trkpt>
      <trkpt lat="44.09022" lon="7.25168">
        <ele>1135.5</ele>
        <time>2013-09-06T07:52:25Z</time>
      </trkpt>
      <trkpt lat="44.09017" lon="7.25161">
        <ele>1135.9</ele>
        <time>2013-09-06T07:52:26Z</time>
      </trkpt>
      <trkpt lat="44.09014" lon="7.25154">
        <ele>1135</ele>
        <time>2013-09-06T07:52:27Z</time>
      </trkpt>
      <trkpt lat="44.09011" lon="7.25146">
        <ele>1135</ele>
        <time>2013-09-06T07:52:28Z</time>
      </trkpt>
      <trkpt lat="44.09008" lon="7.25139">
        <ele>1134.5</ele>
        <time>2013-09-06T07:52:29Z</time>
      </trkpt>
      <trkpt lat="44.09004" lon="7.25132">
        <ele>1134</ele>
        <time>2013-09-06T07:52:30Z</time>
      </trkpt>
      <trkpt lat="44.09" lon="7.25126">
        <ele>1134</ele>
        <time>2013-09-06T07:52:31Z</time>
      </trkpt>
      <trkpt lat="44.08997" lon="7.25119">
        <ele>1134</ele>
        <time>2013-09-06T07:52:32Z</time>
      </trkpt>
      <trkpt lat="44.08963" lon="7.25053">
        <ele>1130.7</ele>
        <time>2013-09-06T07:52:40Z</time>
      </trkpt>
      <trkpt lat="44.08919" lon="7.25006">
        <ele>1127.3</ele>
        <time>2013-09-06T07:52:46Z</time>
      </trkpt>
      <trkpt lat="44.0891" lon="7.25">
        <ele>1126.8</ele>
        <time>2013-09-06T07:52:47Z</time>
      </trkpt>
      <trkpt lat="44.089" lon="7.24995">
        <ele>1125.8</ele>
        <time>2013-09-06T07:52:48Z</time>
      </trkpt>
      <trkpt lat="44.08889" lon="7.24993">
        <ele>1125.4</ele>
        <time>2013-09-06T07:52:49Z</time>
      </trkpt>
      <trkpt lat="44.08878" lon="7.24992">
        <ele>1124.4</ele>
        <time>2013-09-06T07:52:50Z</time>
      </trkpt>
      <trkpt lat="44.08868" lon="7.24994">
        <ele>1123.9</ele>
        <time>2013-09-06T07:52:51Z</time>
      </trkpt>
      <trkpt lat="44.08857" lon="7.24996">
        <ele>1123</ele>
        <time>2013-09-06T07:52:52Z</time>
      </trkpt>
      <trkpt lat="44.08835" lon="7.24998">
        <ele>1121.5</ele>
        <time>2013-09-06T07:52:54Z</time>
      </trkpt>
      <trkpt lat="44.08823" lon="7.24997">
        <ele>1121</ele>
        <time>2013-09-06T07:52:55Z</time>
      </trkpt>
      <trkpt lat="44.08801" lon="7.24989">
        <ele>1119.6</ele>
        <time>2013-09-06T07:52:57Z</time>
      </trkpt>
      <trkpt lat="44.08789" lon="7.24985">
        <ele>1118.2</ele>
        <time>2013-09-06T07:52:58Z</time>
      </trkpt>
      <trkpt lat="44.08777" lon="7.24982">
        <ele>1118.2</ele>
        <time>2013-09-06T07:52:59Z</time>
      </trkpt>
      <trkpt lat="44.0873" lon="7.24973">
        <ele>1114.8</ele>
        <time>2013-09-06T07:53:03Z</time>
      </trkpt>
      <trkpt lat="44.08682" lon="7.2497">
        <ele>1111.9</ele>
        <time>2013-09-06T07:53:07Z</time>
      </trkpt>
      <trkpt lat="44.08647" lon="7.24965">
        <ele>1108.5</ele>
        <time>2013-09-06T07:53:10Z</time>
      </trkpt>
      <trkpt lat="44.08635" lon="7.2496">
        <ele>1107.6</ele>
        <time>2013-09-06T07:53:11Z</time>
      </trkpt>
      <trkpt lat="44.08624" lon="7.24954">
        <ele>1107.1</ele>
        <time>2013-09-06T07:53:12Z</time>
      </trkpt>
      <trkpt lat="44.08578" lon="7.24929">
        <ele>1102.8</ele>
        <time>2013-09-06T07:53:16Z</time>
      </trkpt>
      <trkpt lat="44.08566" lon="7.24924">
        <ele>1102.8</ele>
        <time>2013-09-06T07:53:17Z</time>
      </trkpt>
      <trkpt lat="44.08554" lon="7.2492">
        <ele>1101.8</ele>
        <time>2013-09-06T07:53:18Z</time>
      </trkpt>
      <trkpt lat="44.08541" lon="7.2492">
        <ele>1100.9</ele>
        <time>2013-09-06T07:53:19Z</time>
      </trkpt>
      <trkpt lat="44.08529" lon="7.24922">
        <ele>1099.4</ele>
        <time>2013-09-06T07:53:20Z</time>
      </trkpt>
      <trkpt lat="44.08468" lon="7.24942">
        <ele>1095.6</ele>
        <time>2013-09-06T07:53:25Z</time>
      </trkpt>
      <trkpt lat="44.08434" lon="7.24956">
        <ele>1092.2</ele>
        <time>2013-09-06T07:53:28Z</time>
      </trkpt>
      <trkpt lat="44.08392" lon="7.24987">
        <ele>1088.8</ele>
        <time>2013-09-06T07:53:32Z</time>
      </trkpt>
      <trkpt lat="44.08349" lon="7.25016">
        <ele>1084.5</ele>
        <time>2013-09-06T07:53:36Z</time>
      </trkpt>
      <trkpt lat="44.08338" lon="7.25021">
        <ele>1083.5</ele>
        <time>2013-09-06T07:53:37Z</time>
      </trkpt>
      <trkpt lat="44.08327" lon="7.25025">
        <ele>1082.6</ele>
        <time>2013-09-06T07:53:38Z</time>
      </trkpt>
      <trkpt lat="44.08315" lon="7.25027">
        <ele>1082.1</ele>
        <time>2013-09-06T07:53:39Z</time>
      </trkpt>
      <trkpt lat="44.08302" lon="7.25026">
        <ele>1081.1</ele>
        <time>2013-09-06T07:53:40Z</time>
      </trkpt>
      <trkpt lat="44.08289" lon="7.25024">
        <ele>1080.7</ele>
        <time>2013-09-06T07:53:41Z</time>
      </trkpt>
      <trkpt lat="44.08277" lon="7.2502">
        <ele>1079.2</ele>
        <time>2013-09-06T07:53:42Z</time>
      </trkpt>
      <trkpt lat="44.08228" lon="7.25003">
        <ele>1075.9</ele>
        <time>2013-09-06T07:53:46Z</time>
      </trkpt>
      <trkpt lat="44.08203" lon="7.24992">
        <ele>1074.4</ele>
        <time>2013-09-06T07:53:48Z</time>
      </trkpt>
      <trkpt lat="44.08177" lon="7.24981">
        <ele>1071.1</ele>
        <time>2013-09-06T07:53:50Z</time>
      </trkpt>
      <trkpt lat="44.08139" lon="7.24965">
        <ele>1068.2</ele>
        <time>2013-09-06T07:53:53Z</time>
      </trkpt>
      <trkpt lat="44.08102" lon="7.2495">
        <ele>1064.8</ele>
        <time>2013-09-06T07:53:56Z</time>
      </trkpt>
      <trkpt lat="44.08065" lon="7.24936">
        <ele>1061.9</ele>
        <time>2013-09-06T07:53:59Z</time>
      </trkpt>
      <trkpt lat="44.08028" lon="7.2493">
        <ele>1058.6</ele>
        <time>2013-09-06T07:54:02Z</time>
      </trkpt>
      <trkpt lat="44.08015" lon="7.24932">
        <ele>1057.1</ele>
        <time>2013-09-06T07:54:03Z</time>
      </trkpt>
      <trkpt lat="44.07977" lon="7.24943">
        <ele>1053.7</ele>
        <time>2013-09-06T07:54:06Z</time>
      </trkpt>
      <trkpt lat="44.07942" lon="7.24957">
        <ele>1050.4</ele>
        <time>2013-09-06T07:54:09Z</time>
      </trkpt>
      <trkpt lat="44.07907" lon="7.24968">
        <ele>1047.5</ele>
        <time>2013-09-06T07:54:12Z</time>
      </trkpt>
      <trkpt lat="44.07858" lon="7.24971">
        <ele>1044.1</ele>
        <time>2013-09-06T07:54:16Z</time>
      </trkpt>
      <trkpt lat="44.0785" lon="7.2497">
        <ele>1044.1</ele>
        <time>2013-09-06T07:54:17Z</time>
      </trkpt>
      <trkpt lat="44.07807" lon="7.24971">
        <ele>1040.8</ele>
        <time>2013-09-06T07:54:20Z</time>
      </trkpt>
      <trkpt lat="44.07795" lon="7.24971">
        <ele>1038.8</ele>
        <time>2013-09-06T07:54:21Z</time>
      </trkpt>
      <trkpt lat="44.07747" lon="7.24973">
        <ele>1035.5</ele>
        <time>2013-09-06T07:54:25Z</time>
      </trkpt>
      <trkpt lat="44.07699" lon="7.24978">
        <ele>1032.1</ele>
        <time>2013-09-06T07:54:29Z</time>
      </trkpt>
      <trkpt lat="44.07652" lon="7.24983">
        <ele>1028.3</ele>
        <time>2013-09-06T07:54:33Z</time>
      </trkpt>
      <trkpt lat="44.07614" lon="7.24975">
        <ele>1024.4</ele>
        <time>2013-09-06T07:54:36Z</time>
      </trkpt>
      <trkpt lat="44.07564" lon="7.24963">
        <ele>1021.1</ele>
        <time>2013-09-06T07:54:40Z</time>
      </trkpt>
      <trkpt lat="44.07525" lon="7.24954">
        <ele>1017.7</ele>
        <time>2013-09-06T07:54:43Z</time>
      </trkpt>
      <trkpt lat="44.07512" lon="7.24952">
        <ele>1016.7</ele>
        <time>2013-09-06T07:54:44Z</time>
      </trkpt>
      <trkpt lat="44.07498" lon="7.24951">
        <ele>1015.8</ele>
        <time>2013-09-06T07:54:45Z</time>
      </trkpt>
      <trkpt lat="44.07486" lon="7.24954">
        <ele>1014.3</ele>
        <time>2013-09-06T07:54:46Z</time>
      </trkpt>
      <trkpt lat="44.07448" lon="7.24968">
        <ele>1011.4</ele>
        <time>2013-09-06T07:54:49Z</time>
      </trkpt>
      <trkpt lat="44.07437" lon="7.24975">
        <ele>1010.5</ele>
        <time>2013-09-06T07:54:50Z</time>
      </trkpt>
      <trkpt lat="44.07427" lon="7.24986">
        <ele>1009.5</ele>
        <time>2013-09-06T07:54:51Z</time>
      </trkpt>
      <trkpt lat="44.07395" lon="7.25019">
        <ele>1006.2</ele>
        <time>2013-09-06T07:54:54Z</time>
      </trkpt>
      <trkpt lat="44.07376" lon="7.25041">
        <ele>1004.2</ele>
        <time>2013-09-06T07:54:56Z</time>
      </trkpt>
      <trkpt lat="44.07368" lon="7.25053">
        <ele>1003.3</ele>
        <time>2013-09-06T07:54:57Z</time>
      </trkpt>
      <trkpt lat="44.0736" lon="7.25066">
        <ele>1002.3</ele>
        <time>2013-09-06T07:54:58Z</time>
      </trkpt>
      <trkpt lat="44.07355" lon="7.25079">
        <ele>1001.4</ele>
        <time>2013-09-06T07:54:59Z</time>
      </trkpt>
      <trkpt lat="44.0735" lon="7.25091">
        <ele>1000.4</ele>
        <time>2013-09-06T07:55:00Z</time>
      </trkpt>
      <trkpt lat="44.07332" lon="7.2511">
        <ele>997.5</ele>
        <time>2013-09-06T07:55:03Z</time>
      </trkpt>
      <trkpt lat="44.07329" lon="7.25119">
        <ele>997.5</ele>
        <time>2013-09-06T07:55:04Z</time>
      </trkpt>
      <trkpt lat="44.07327" lon="7.25128">
        <ele>997.5</ele>
        <time>2013-09-06T07:55:05Z</time>
      </trkpt>
      <trkpt lat="44.07327" lon="7.25136">
        <ele>997</ele>
        <time>2013-09-06T07:55:06Z</time>
      </trkpt>
      <trkpt lat="44.07329" lon="7.25144">
        <ele>997.5</ele>
        <time>2013-09-06T07:55:07Z</time>
      </trkpt>
      <trkpt lat="44.07331" lon="7.25153">
        <ele>997</ele>
        <time>2013-09-06T07:55:08Z</time>
      </trkpt>
      <trkpt lat="44.07337" lon="7.25179">
        <ele>997</ele>
        <time>2013-09-06T07:55:11Z</time>
      </trkpt>
      <trkpt lat="44.07337" lon="7.25188">
        <ele>997</ele>
        <time>2013-09-06T07:55:12Z</time>
      </trkpt>
      <trkpt lat="44.07336" lon="7.25196">
        <ele>997.5</ele>
        <time>2013-09-06T07:55:13Z</time>
      </trkpt>
      <trkpt lat="44.07333" lon="7.25203">
        <ele>998</ele>
        <time>2013-09-06T07:55:14Z</time>
      </trkpt>
      <trkpt lat="44.07329" lon="7.25209">
        <ele>997.5</ele>
        <time>2013-09-06T07:55:15Z</time>
      </trkpt>
      <trkpt lat="44.07324" lon="7.25213">
        <ele>997</ele>
        <time>2013-09-06T07:55:16Z</time>
      </trkpt>
      <trkpt lat="44.07319" lon="7.25217">
        <ele>997.5</ele>
        <time>2013-09-06T07:55:17Z</time>
      </trkpt>
      <trkpt lat="44.07313" lon="7.25219">
        <ele>997.5</ele>
        <time>2013-09-06T07:55:18Z</time>
      </trkpt>
      <trkpt lat="44.07306" lon="7.25219">
        <ele>997.5</ele>
        <time>2013-09-06T07:55:19Z</time>
      </trkpt>
      <trkpt lat="44.07242" lon="7.25262">
        <ele>996.5</ele>
        <time>2013-09-06T07:55:32Z</time>
      </trkpt>
      <trkpt lat="44.07194" lon="7.25311">
        <ele>996.1</ele>
        <time>2013-09-06T07:55:44Z</time>
      </trkpt>
      <trkpt lat="44.0719" lon="7.25316">
        <ele>995.6</ele>
        <time>2013-09-06T07:55:45Z</time>
      </trkpt>
      <trkpt lat="44.07178" lon="7.25333">
        <ele>996.1</ele>
        <time>2013-09-06T07:55:49Z</time>
      </trkpt>
      <trkpt lat="44.07175" lon="7.25342">
        <ele>995.6</ele>
        <time>2013-09-06T07:55:50Z</time>
      </trkpt>
      <trkpt lat="44.07162" lon="7.25373">
        <ele>995.6</ele>
        <time>2013-09-06T07:55:54Z</time>
      </trkpt>
      <trkpt lat="44.07158" lon="7.25381">
        <ele>995.1</ele>
        <time>2013-09-06T07:55:55Z</time>
      </trkpt>
      <trkpt lat="44.07116" lon="7.25469">
        <ele>993.2</ele>
        <time>2013-09-06T07:56:07Z</time>
      </trkpt>
      <trkpt lat="44.07112" lon="7.25478">
        <ele>992.7</ele>
        <time>2013-09-06T07:56:08Z</time>
      </trkpt>
      <trkpt lat="44.07059" lon="7.25577">
        <ele>990.8</ele>
        <time>2013-09-06T07:56:21Z</time>
      </trkpt>
      <trkpt lat="44.07051" lon="7.25589">
        <ele>990.3</ele>
        <time>2013-09-06T07:56:23Z</time>
      </trkpt>
      <trkpt lat="44.07023" lon="7.25629">
        <ele>990.3</ele>
        <time>2013-09-06T07:56:31Z</time>
      </trkpt>
      <trkpt lat="44.0702" lon="7.25629">
        <ele>989.3</ele>
        <time>2013-09-06T07:56:32Z</time>
      </trkpt>
      <trkpt lat="44.07016" lon="7.25628">
        <ele>989.8</ele>
        <time>2013-09-06T07:56:33Z</time>
      </trkpt>
      <trkpt lat="44.07013" lon="7.25627">
        <ele>989.8</ele>
        <time>2013-09-06T07:56:34Z</time>
      </trkpt>
      <trkpt lat="44.07011" lon="7.25624">
        <ele>989.3</ele>
        <time>2013-09-06T07:56:35Z</time>
      </trkpt>
      <trkpt lat="44.0701" lon="7.2562">
        <ele>989.3</ele>
        <time>2013-09-06T07:56:36Z</time>
      </trkpt>
      <trkpt lat="44.0701" lon="7.25615">
        <ele>989.3</ele>
        <time>2013-09-06T07:56:37Z</time>
      </trkpt>
      <trkpt lat="44.07011" lon="7.2561">
        <ele>988.9</ele>
        <time>2013-09-06T07:56:38Z</time>
      </trkpt>
      <trkpt lat="44.07013" lon="7.25604">
        <ele>988.9</ele>
        <time>2013-09-06T07:56:39Z</time>
      </trkpt>
      <trkpt lat="44.07016" lon="7.25599">
        <ele>988.9</ele>
        <time>2013-09-06T07:56:40Z</time>
      </trkpt>
      <trkpt lat="44.07019" lon="7.25593">
        <ele>987.9</ele>
        <time>2013-09-06T07:56:41Z</time>
      </trkpt>
      <trkpt lat="44.07023" lon="7.25587">
        <ele>987.9</ele>
        <time>2013-09-06T07:56:42Z</time>
      </trkpt>
      <trkpt lat="44.07026" lon="7.2558">
        <ele>987.9</ele>
        <time>2013-09-06T07:56:43Z</time>
      </trkpt>
      <trkpt lat="44.0703" lon="7.25573">
        <ele>987.4</ele>
        <time>2013-09-06T07:56:44Z</time>
      </trkpt>
      <trkpt lat="44.07069" lon="7.25501">
        <ele>984.1</ele>
        <time>2013-09-06T07:56:53Z</time>
      </trkpt>
      <trkpt lat="44.07072" lon="7.25491">
        <ele>983.6</ele>
        <time>2013-09-06T07:56:54Z</time>
      </trkpt>
      <trkpt lat="44.07073" lon="7.25481">
        <ele>983.6</ele>
        <time>2013-09-06T07:56:55Z</time>
      </trkpt>
      <trkpt lat="44.07073" lon="7.25471">
        <ele>982.6</ele>
        <time>2013-09-06T07:56:56Z</time>
      </trkpt>
      <trkpt lat="44.07069" lon="7.25462">
        <ele>982.6</ele>
        <time>2013-09-06T07:56:57Z</time>
      </trkpt>
      <trkpt lat="44.07063" lon="7.25454">
        <ele>981.6</ele>
        <time>2013-09-06T07:56:58Z</time>
      </trkpt>
      <trkpt lat="44.07056" lon="7.25448">
        <ele>981.6</ele>
        <time>2013-09-06T07:56:59Z</time>
      </trkpt>
      <trkpt lat="44.07048" lon="7.25446">
        <ele>981.2</ele>
        <time>2013-09-06T07:57:00Z</time>
      </trkpt>
      <trkpt lat="44.0704" lon="7.25447">
        <ele>980.2</ele>
        <time>2013-09-06T07:57:01Z</time>
      </trkpt>
      <trkpt lat="44.07032" lon="7.25451">
        <ele>980.2</ele>
        <time>2013-09-06T07:57:02Z</time>
      </trkpt>
      <trkpt lat="44.07025" lon="7.25456">
        <ele>979.7</ele>
        <time>2013-09-06T07:57:03Z</time>
      </trkpt>
      <trkpt lat="44.07018" lon="7.25462">
        <ele>978.8</ele>
        <time>2013-09-06T07:57:04Z</time>
      </trkpt>
      <trkpt lat="44.07011" lon="7.25469">
        <ele>978.3</ele>
        <time>2013-09-06T07:57:05Z</time>
      </trkpt>
      <trkpt lat="44.06978" lon="7.25495">
        <ele>976.4</ele>
        <time>2013-09-06T07:57:09Z</time>
      </trkpt>
      <trkpt lat="44.06969" lon="7.255">
        <ele>975.4</ele>
        <time>2013-09-06T07:57:10Z</time>
      </trkpt>
      <trkpt lat="44.0696" lon="7.25502">
        <ele>975.4</ele>
        <time>2013-09-06T07:57:11Z</time>
      </trkpt>
      <trkpt lat="44.06932" lon="7.25506">
        <ele>973.5</ele>
        <time>2013-09-06T07:57:14Z</time>
      </trkpt>
      <trkpt lat="44.06898" lon="7.25513">
        <ele>971.1</ele>
        <time>2013-09-06T07:57:18Z</time>
      </trkpt>
      <trkpt lat="44.06853" lon="7.25521">
        <ele>968.7</ele>
        <time>2013-09-06T07:57:23Z</time>
      </trkpt>
      <trkpt lat="44.06844" lon="7.25521">
        <ele>967.2</ele>
        <time>2013-09-06T07:57:24Z</time>
      </trkpt>
      <trkpt lat="44.06834" lon="7.2552">
        <ele>966.7</ele>
        <time>2013-09-06T07:57:25Z</time>
      </trkpt>
      <trkpt lat="44.06825" lon="7.25518">
        <ele>966.3</ele>
        <time>2013-09-06T07:57:26Z</time>
      </trkpt>
      <trkpt lat="44.06815" lon="7.25519">
        <ele>965.8</ele>
        <time>2013-09-06T07:57:27Z</time>
      </trkpt>
      <trkpt lat="44.06805" lon="7.25521">
        <ele>964.8</ele>
        <time>2013-09-06T07:57:28Z</time>
      </trkpt>
      <trkpt lat="44.06796" lon="7.25526">
        <ele>964.3</ele>
        <time>2013-09-06T07:57:29Z</time>
      </trkpt>
      <trkpt lat="44.06787" lon="7.25531">
        <ele>963.9</ele>
        <time>2013-09-06T07:57:30Z</time>
      </trkpt>
      <trkpt lat="44.0677" lon="7.25539">
        <ele>961.9</ele>
        <time>2013-09-06T07:57:32Z</time>
      </trkpt>
      <trkpt lat="44.06761" lon="7.2554">
        <ele>961.5</ele>
        <time>2013-09-06T07:57:33Z</time>
      </trkpt>
      <trkpt lat="44.06735" lon="7.25544">
        <ele>959.5</ele>
        <time>2013-09-06T07:57:36Z</time>
      </trkpt>
      <trkpt lat="44.06727" lon="7.25547">
        <ele>959.1</ele>
        <time>2013-09-06T07:57:37Z</time>
      </trkpt>
      <trkpt lat="44.0672" lon="7.25551">
        <ele>958.6</ele>
        <time>2013-09-06T07:57:38Z</time>
      </trkpt>
      <trkpt lat="44.06715" lon="7.25557">
        <ele>958.1</ele>
        <time>2013-09-06T07:57:39Z</time>
      </trkpt>
      <trkpt lat="44.0671" lon="7.25566">
        <ele>957.6</ele>
        <time>2013-09-06T07:57:40Z</time>
      </trkpt>
      <trkpt lat="44.06707" lon="7.25575">
        <ele>957.1</ele>
        <time>2013-09-06T07:57:41Z</time>
      </trkpt>
      <trkpt lat="44.06705" lon="7.25586">
        <ele>956.7</ele>
        <time>2013-09-06T07:57:42Z</time>
      </trkpt>
      <trkpt lat="44.06705" lon="7.25597">
        <ele>956.7</ele>
        <time>2013-09-06T07:57:43Z</time>
      </trkpt>
      <trkpt lat="44.06705" lon="7.25608">
        <ele>956.2</ele>
        <time>2013-09-06T07:57:44Z</time>
      </trkpt>
      <trkpt lat="44.06707" lon="7.25618">
        <ele>955.2</ele>
        <time>2013-09-06T07:57:45Z</time>
      </trkpt>
      <trkpt lat="44.06709" lon="7.25627">
        <ele>955.2</ele>
        <time>2013-09-06T07:57:46Z</time>
      </trkpt>
      <trkpt lat="44.06713" lon="7.25647">
        <ele>954.7</ele>
        <time>2013-09-06T07:57:48Z</time>
      </trkpt>
      <trkpt lat="44.06714" lon="7.25658">
        <ele>954.3</ele>
        <time>2013-09-06T07:57:49Z</time>
      </trkpt>
      <trkpt lat="44.06712" lon="7.25669">
        <ele>953.8</ele>
        <time>2013-09-06T07:57:50Z</time>
      </trkpt>
      <trkpt lat="44.0671" lon="7.25678">
        <ele>952.8</ele>
        <time>2013-09-06T07:57:51Z</time>
      </trkpt>
      <trkpt lat="44.06706" lon="7.25687">
        <ele>953.3</ele>
        <time>2013-09-06T07:57:52Z</time>
      </trkpt>
      <trkpt lat="44.06702" lon="7.25695">
        <ele>952.8</ele>
        <time>2013-09-06T07:57:53Z</time>
      </trkpt>
      <trkpt lat="44.06683" lon="7.25732">
        <ele>952.8</ele>
        <time>2013-09-06T07:57:58Z</time>
      </trkpt>
      <trkpt lat="44.06678" lon="7.25735">
        <ele>952.8</ele>
        <time>2013-09-06T07:57:59Z</time>
      </trkpt>
      <trkpt lat="44.06672" lon="7.25737">
        <ele>952.8</ele>
        <time>2013-09-06T07:58:00Z</time>
      </trkpt>
      <trkpt lat="44.06665" lon="7.25736">
        <ele>952.8</ele>
        <time>2013-09-06T07:58:01Z</time>
      </trkpt>
      <trkpt lat="44.06658" lon="7.25734">
        <ele>952.8</ele>
        <time>2013-09-06T07:58:02Z</time>
      </trkpt>
      <trkpt lat="44.06652" lon="7.25731">
        <ele>952.8</ele>
        <time>2013-09-06T07:58:03Z</time>
      </trkpt>
      <trkpt lat="44.06646" lon="7.25729">
        <ele>953.3</ele>
        <time>2013-09-06T07:58:04Z</time>
      </trkpt>
      <trkpt lat="44.0664" lon="7.25726">
        <ele>952.8</ele>
        <time>2013-09-06T07:58:05Z</time>
      </trkpt>
      <trkpt lat="44.06602" lon="7.25717">
        <ele>952.8</ele>
        <time>2013-09-06T07:58:11Z</time>
      </trkpt>
      <trkpt lat="44.06531" lon="7.25712">
        <ele>951.8</ele>
        <time>2013-09-06T07:58:24Z</time>
      </trkpt>
      <trkpt lat="44.06505" lon="7.25713">
        <ele>952.8</ele>
        <time>2013-09-06T07:58:30Z</time>
      </trkpt>
      <trkpt lat="44.06501" lon="7.25715">
        <ele>952.3</ele>
        <time>2013-09-06T07:58:31Z</time>
      </trkpt>
      <trkpt lat="44.06496" lon="7.25716">
        <ele>952.3</ele>
        <time>2013-09-06T07:58:32Z</time>
      </trkpt>
      <trkpt lat="44.06399" lon="7.25753">
        <ele>950.9</ele>
        <time>2013-09-06T07:58:50Z</time>
      </trkpt>
      <trkpt lat="44.06317" lon="7.25761">
        <ele>949</ele>
        <time>2013-09-06T07:59:02Z</time>
      </trkpt>
      <trkpt lat="44.06214" lon="7.25776">
        <ele>946.6</ele>
        <time>2013-09-06T07:59:15Z</time>
      </trkpt>
      <trkpt lat="44.06207" lon="7.25782">
        <ele>946.1</ele>
        <time>2013-09-06T07:59:16Z</time>
      </trkpt>
      <trkpt lat="44.062" lon="7.25788">
        <ele>946.6</ele>
        <time>2013-09-06T07:59:17Z</time>
      </trkpt>
      <trkpt lat="44.06194" lon="7.25795">
        <ele>945.6</ele>
        <time>2013-09-06T07:59:18Z</time>
      </trkpt>
      <trkpt lat="44.06187" lon="7.25802">
        <ele>945.6</ele>
        <time>2013-09-06T07:59:19Z</time>
      </trkpt>
      <trkpt lat="44.06101" lon="7.25893">
        <ele>943.2</ele>
        <time>2013-09-06T07:59:32Z</time>
      </trkpt>
      <trkpt lat="44.06014" lon="7.25961">
        <ele>940.8</ele>
        <time>2013-09-06T07:59:44Z</time>
      </trkpt>
      <trkpt lat="44.05982" lon="7.26002">
        <ele>938.4</ele>
        <time>2013-09-06T07:59:49Z</time>
      </trkpt>
      <trkpt lat="44.05971" lon="7.26022">
        <ele>936.9</ele>
        <time>2013-09-06T07:59:51Z</time>
      </trkpt>
      <trkpt lat="44.05954" lon="7.26052">
        <ele>935.5</ele>
        <time>2013-09-06T07:59:54Z</time>
      </trkpt>
      <trkpt lat="44.05894" lon="7.26144">
        <ele>932.1</ele>
        <time>2013-09-06T08:00:04Z</time>
      </trkpt>
      <trkpt lat="44.05887" lon="7.26152">
        <ele>932.1</ele>
        <time>2013-09-06T08:00:05Z</time>
      </trkpt>
      <trkpt lat="44.05832" lon="7.26212">
        <ele>928.8</ele>
        <time>2013-09-06T08:00:13Z</time>
      </trkpt>
      <trkpt lat="44.05825" lon="7.2622">
        <ele>928.8</ele>
        <time>2013-09-06T08:00:14Z</time>
      </trkpt>
      <trkpt lat="44.0581" lon="7.26235">
        <ele>928.3</ele>
        <time>2013-09-06T08:00:16Z</time>
      </trkpt>
      <trkpt lat="44.05803" lon="7.2624">
        <ele>927.8</ele>
        <time>2013-09-06T08:00:17Z</time>
      </trkpt>
      <trkpt lat="44.05778" lon="7.26256">
        <ele>926.4</ele>
        <time>2013-09-06T08:00:20Z</time>
      </trkpt>
      <trkpt lat="44.05753" lon="7.26271">
        <ele>925.4</ele>
        <time>2013-09-06T08:00:23Z</time>
      </trkpt>
      <trkpt lat="44.05726" lon="7.2628">
        <ele>924.9</ele>
        <time>2013-09-06T08:00:26Z</time>
      </trkpt>
      <trkpt lat="44.05672" lon="7.26318">
        <ele>922</ele>
        <time>2013-09-06T08:00:33Z</time>
      </trkpt>
      <trkpt lat="44.05618" lon="7.26379">
        <ele>918.7</ele>
        <time>2013-09-06T08:00:41Z</time>
      </trkpt>
      <trkpt lat="44.05612" lon="7.26388">
        <ele>918.7</ele>
        <time>2013-09-06T08:00:42Z</time>
      </trkpt>
      <trkpt lat="44.05561" lon="7.26456">
        <ele>915.3</ele>
        <time>2013-09-06T08:00:50Z</time>
      </trkpt>
      <trkpt lat="44.0552" lon="7.265">
        <ele>913.4</ele>
        <time>2013-09-06T08:00:56Z</time>
      </trkpt>
      <trkpt lat="44.05462" lon="7.26537">
        <ele>910</ele>
        <time>2013-09-06T08:01:03Z</time>
      </trkpt>
      <trkpt lat="44.05453" lon="7.26541">
        <ele>911</ele>
        <time>2013-09-06T08:01:04Z</time>
      </trkpt>
      <trkpt lat="44.05392" lon="7.26576">
        <ele>908.1</ele>
        <time>2013-09-06T08:01:11Z</time>
      </trkpt>
      <trkpt lat="44.05361" lon="7.26606">
        <ele>905.2</ele>
        <time>2013-09-06T08:01:15Z</time>
      </trkpt>
      <trkpt lat="44.05321" lon="7.26659">
        <ele>903.3</ele>
        <time>2013-09-06T08:01:21Z</time>
      </trkpt>
      <trkpt lat="44.05315" lon="7.26669">
        <ele>902.8</ele>
        <time>2013-09-06T08:01:22Z</time>
      </trkpt>
      <trkpt lat="44.0531" lon="7.2668">
        <ele>901.9</ele>
        <time>2013-09-06T08:01:23Z</time>
      </trkpt>
      <trkpt lat="44.05306" lon="7.26691">
        <ele>901.9</ele>
        <time>2013-09-06T08:01:24Z</time>
      </trkpt>
      <trkpt lat="44.05303" lon="7.26703">
        <ele>901.4</ele>
        <time>2013-09-06T08:01:25Z</time>
      </trkpt>
      <trkpt lat="44.053" lon="7.26715">
        <ele>901.4</ele>
        <time>2013-09-06T08:01:26Z</time>
      </trkpt>
      <trkpt lat="44.05298" lon="7.26728">
        <ele>901.4</ele>
        <time>2013-09-06T08:01:27Z</time>
      </trkpt>
      <trkpt lat="44.0529" lon="7.26778">
        <ele>899.5</ele>
        <time>2013-09-06T08:01:31Z</time>
      </trkpt>
      <trkpt lat="44.05278" lon="7.26828">
        <ele>897.5</ele>
        <time>2013-09-06T08:01:35Z</time>
      </trkpt>
      <trkpt lat="44.05243" lon="7.26971">
        <ele>895.1</ele>
        <time>2013-09-06T08:01:47Z</time>
      </trkpt>
      <trkpt lat="44.05232" lon="7.27002">
        <ele>893.7</ele>
        <time>2013-09-06T08:01:50Z</time>
      </trkpt>
      <trkpt lat="44.0522" lon="7.2703">
        <ele>892.2</ele>
        <time>2013-09-06T08:01:53Z</time>
      </trkpt>
      <trkpt lat="44.05214" lon="7.27039">
        <ele>892.7</ele>
        <time>2013-09-06T08:01:54Z</time>
      </trkpt>
      <trkpt lat="44.05208" lon="7.27047">
        <ele>891.8</ele>
        <time>2013-09-06T08:01:55Z</time>
      </trkpt>
      <trkpt lat="44.05194" lon="7.27063">
        <ele>890.8</ele>
        <time>2013-09-06T08:01:57Z</time>
      </trkpt>
      <trkpt lat="44.05151" lon="7.27112">
        <ele>888.9</ele>
        <time>2013-09-06T08:02:03Z</time>
      </trkpt>
      <trkpt lat="44.05145" lon="7.27122">
        <ele>887.9</ele>
        <time>2013-09-06T08:02:04Z</time>
      </trkpt>
      <trkpt lat="44.05114" lon="7.27175">
        <ele>884.6</ele>
        <time>2013-09-06T08:02:09Z</time>
      </trkpt>
      <trkpt lat="44.05107" lon="7.27185">
        <ele>884.1</ele>
        <time>2013-09-06T08:02:10Z</time>
      </trkpt>
      <trkpt lat="44.05062" lon="7.27244">
        <ele>880.7</ele>
        <time>2013-09-06T08:02:16Z</time>
      </trkpt>
      <trkpt lat="44.05054" lon="7.27252">
        <ele>880.7</ele>
        <time>2013-09-06T08:02:17Z</time>
      </trkpt>
      <trkpt lat="44.05029" lon="7.27278">
        <ele>879.3</ele>
        <time>2013-09-06T08:02:20Z</time>
      </trkpt>
      <trkpt lat="44.04983" lon="7.27313">
        <ele>876.4</ele>
        <time>2013-09-06T08:02:25Z</time>
      </trkpt>
      <trkpt lat="44.04955" lon="7.27331">
        <ele>874.9</ele>
        <time>2013-09-06T08:02:28Z</time>
      </trkpt>
      <trkpt lat="44.04928" lon="7.27352">
        <ele>873.5</ele>
        <time>2013-09-06T08:02:31Z</time>
      </trkpt>
      <trkpt lat="44.0492" lon="7.27361">
        <ele>872.5</ele>
        <time>2013-09-06T08:02:32Z</time>
      </trkpt>
      <trkpt lat="44.04914" lon="7.27372">
        <ele>872.5</ele>
        <time>2013-09-06T08:02:33Z</time>
      </trkpt>
      <trkpt lat="44.04909" lon="7.27383">
        <ele>872.1</ele>
        <time>2013-09-06T08:02:34Z</time>
      </trkpt>
      <trkpt lat="44.04905" lon="7.27394">
        <ele>871.1</ele>
        <time>2013-09-06T08:02:35Z</time>
      </trkpt>
      <trkpt lat="44.04903" lon="7.27407">
        <ele>870.6</ele>
        <time>2013-09-06T08:02:36Z</time>
      </trkpt>
      <trkpt lat="44.04903" lon="7.27419">
        <ele>869.2</ele>
        <time>2013-09-06T08:02:37Z</time>
      </trkpt>
      <trkpt lat="44.04907" lon="7.27431">
        <ele>869.2</ele>
        <time>2013-09-06T08:02:38Z</time>
      </trkpt>
      <trkpt lat="44.04912" lon="7.27442">
        <ele>868.7</ele>
        <time>2013-09-06T08:02:39Z</time>
      </trkpt>
      <trkpt lat="44.04918" lon="7.27452">
        <ele>868.2</ele>
        <time>2013-09-06T08:02:40Z</time>
      </trkpt>
      <trkpt lat="44.0493" lon="7.27471">
        <ele>866.8</ele>
        <time>2013-09-06T08:02:42Z</time>
      </trkpt>
      <trkpt lat="44.04933" lon="7.27481">
        <ele>865.8</ele>
        <time>2013-09-06T08:02:43Z</time>
      </trkpt>
      <trkpt lat="44.04933" lon="7.27491">
        <ele>864.8</ele>
        <time>2013-09-06T08:02:44Z</time>
      </trkpt>
      <trkpt lat="44.0493" lon="7.27501">
        <ele>864.8</ele>
        <time>2013-09-06T08:02:45Z</time>
      </trkpt>
      <trkpt lat="44.04924" lon="7.27507">
        <ele>863.9</ele>
        <time>2013-09-06T08:02:46Z</time>
      </trkpt>
      <trkpt lat="44.04918" lon="7.27512">
        <ele>863.4</ele>
        <time>2013-09-06T08:02:47Z</time>
      </trkpt>
      <trkpt lat="44.04907" lon="7.27508">
        <ele>862.4</ele>
        <time>2013-09-06T08:02:48Z</time>
      </trkpt>
      <trkpt lat="44.04898" lon="7.27504">
        <ele>862.4</ele>
        <time>2013-09-06T08:02:49Z</time>
      </trkpt>
      <trkpt lat="44.0489" lon="7.27499">
        <ele>862</ele>
        <time>2013-09-06T08:02:50Z</time>
      </trkpt>
      <trkpt lat="44.04882" lon="7.27493">
        <ele>862</ele>
        <time>2013-09-06T08:02:51Z</time>
      </trkpt>
      <trkpt lat="44.04873" lon="7.27486">
        <ele>861</ele>
        <time>2013-09-06T08:02:52Z</time>
      </trkpt>
      <trkpt lat="44.04866" lon="7.27477">
        <ele>860</ele>
        <time>2013-09-06T08:02:53Z</time>
      </trkpt>
      <trkpt lat="44.04841" lon="7.27451">
        <ele>858.6</ele>
        <time>2013-09-06T08:02:56Z</time>
      </trkpt>
      <trkpt lat="44.04831" lon="7.27445">
        <ele>857.6</ele>
        <time>2013-09-06T08:02:57Z</time>
      </trkpt>
      <trkpt lat="44.04821" lon="7.27441">
        <ele>856.7</ele>
        <time>2013-09-06T08:02:58Z</time>
      </trkpt>
      <trkpt lat="44.048" lon="7.27433">
        <ele>855.2</ele>
        <time>2013-09-06T08:03:00Z</time>
      </trkpt>
      <trkpt lat="44.04791" lon="7.27426">
        <ele>854.8</ele>
        <time>2013-09-06T08:03:01Z</time>
      </trkpt>
      <trkpt lat="44.04774" lon="7.27413">
        <ele>853.8</ele>
        <time>2013-09-06T08:03:03Z</time>
      </trkpt>
      <trkpt lat="44.04765" lon="7.2741">
        <ele>853.3</ele>
        <time>2013-09-06T08:03:04Z</time>
      </trkpt>
      <trkpt lat="44.04755" lon="7.27411">
        <ele>852.8</ele>
        <time>2013-09-06T08:03:05Z</time>
      </trkpt>
      <trkpt lat="44.04747" lon="7.27417">
        <ele>852.4</ele>
        <time>2013-09-06T08:03:06Z</time>
      </trkpt>
      <trkpt lat="44.0474" lon="7.27426">
        <ele>851.4</ele>
        <time>2013-09-06T08:03:07Z</time>
      </trkpt>
      <trkpt lat="44.04732" lon="7.27435">
        <ele>850.9</ele>
        <time>2013-09-06T08:03:08Z</time>
      </trkpt>
      <trkpt lat="44.04726" lon="7.27446">
        <ele>850.4</ele>
        <time>2013-09-06T08:03:09Z</time>
      </trkpt>
      <trkpt lat="44.04707" lon="7.27479">
        <ele>848.5</ele>
        <time>2013-09-06T08:03:12Z</time>
      </trkpt>
      <trkpt lat="44.04682" lon="7.27526">
        <ele>845.1</ele>
        <time>2013-09-06T08:03:16Z</time>
      </trkpt>
      <trkpt lat="44.04669" lon="7.27549">
        <ele>843.7</ele>
        <time>2013-09-06T08:03:18Z</time>
      </trkpt>
      <trkpt lat="44.04661" lon="7.2756">
        <ele>843.2</ele>
        <time>2013-09-06T08:03:19Z</time>
      </trkpt>
      <trkpt lat="44.04652" lon="7.2757">
        <ele>842.7</ele>
        <time>2013-09-06T08:03:20Z</time>
      </trkpt>
      <trkpt lat="44.04633" lon="7.27589">
        <ele>841.3</ele>
        <time>2013-09-06T08:03:22Z</time>
      </trkpt>
      <trkpt lat="44.04589" lon="7.27633">
        <ele>838.9</ele>
        <time>2013-09-06T08:03:27Z</time>
      </trkpt>
      <trkpt lat="44.04582" lon="7.27643">
        <ele>838.4</ele>
        <time>2013-09-06T08:03:28Z</time>
      </trkpt>
      <trkpt lat="44.04554" lon="7.27688">
        <ele>835</ele>
        <time>2013-09-06T08:03:32Z</time>
      </trkpt>
      <trkpt lat="44.04527" lon="7.27735">
        <ele>831.7</ele>
        <time>2013-09-06T08:03:36Z</time>
      </trkpt>
      <trkpt lat="44.04509" lon="7.27771">
        <ele>830.7</ele>
        <time>2013-09-06T08:03:39Z</time>
      </trkpt>
      <trkpt lat="44.04497" lon="7.27796">
        <ele>828.8</ele>
        <time>2013-09-06T08:03:41Z</time>
      </trkpt>
      <trkpt lat="44.04493" lon="7.27809">
        <ele>828.3</ele>
        <time>2013-09-06T08:03:42Z</time>
      </trkpt>
      <trkpt lat="44.04489" lon="7.27822">
        <ele>827.4</ele>
        <time>2013-09-06T08:03:43Z</time>
      </trkpt>
      <trkpt lat="44.04487" lon="7.27837">
        <ele>826.9</ele>
        <time>2013-09-06T08:03:44Z</time>
      </trkpt>
      <trkpt lat="44.04486" lon="7.27851">
        <ele>826.9</ele>
        <time>2013-09-06T08:03:45Z</time>
      </trkpt>
      <trkpt lat="44.04485" lon="7.27865">
        <ele>825.9</ele>
        <time>2013-09-06T08:03:46Z</time>
      </trkpt>
      <trkpt lat="44.04479" lon="7.27941">
        <ele>825.4</ele>
        <time>2013-09-06T08:03:52Z</time>
      </trkpt>
      <trkpt lat="44.04475" lon="7.27951">
        <ele>825.4</ele>
        <time>2013-09-06T08:03:53Z</time>
      </trkpt>
      <trkpt lat="44.0447" lon="7.27959">
        <ele>825.9</ele>
        <time>2013-09-06T08:03:54Z</time>
      </trkpt>
      <trkpt lat="44.04446" lon="7.27987">
        <ele>825.4</ele>
        <time>2013-09-06T08:03:58Z</time>
      </trkpt>
      <trkpt lat="44.04439" lon="7.27992">
        <ele>825.9</ele>
        <time>2013-09-06T08:03:59Z</time>
      </trkpt>
      <trkpt lat="44.04432" lon="7.27997">
        <ele>825.9</ele>
        <time>2013-09-06T08:04:00Z</time>
      </trkpt>
      <trkpt lat="44.04425" lon="7.28001">
        <ele>825.4</ele>
        <time>2013-09-06T08:04:01Z</time>
      </trkpt>
      <trkpt lat="44.04418" lon="7.28007">
        <ele>825.4</ele>
        <time>2013-09-06T08:04:02Z</time>
      </trkpt>
      <trkpt lat="44.04413" lon="7.28013">
        <ele>825.4</ele>
        <time>2013-09-06T08:04:03Z</time>
      </trkpt>
      <trkpt lat="44.04407" lon="7.2802">
        <ele>824.5</ele>
        <time>2013-09-06T08:04:04Z</time>
      </trkpt>
      <trkpt lat="44.04403" lon="7.28029">
        <ele>824.5</ele>
        <time>2013-09-06T08:04:05Z</time>
      </trkpt>
      <trkpt lat="44.044" lon="7.28038">
        <ele>824.5</ele>
        <time>2013-09-06T08:04:06Z</time>
      </trkpt>
      <trkpt lat="44.04398" lon="7.28048">
        <ele>824</ele>
        <time>2013-09-06T08:04:07Z</time>
      </trkpt>
      <trkpt lat="44.04385" lon="7.28146">
        <ele>822.6</ele>
        <time>2013-09-06T08:04:16Z</time>
      </trkpt>
      <trkpt lat="44.04372" lon="7.28212">
        <ele>821.1</ele>
        <time>2013-09-06T08:04:22Z</time>
      </trkpt>
      <trkpt lat="44.04371" lon="7.28223">
        <ele>821.6</ele>
        <time>2013-09-06T08:04:23Z</time>
      </trkpt>
      <trkpt lat="44.04372" lon="7.28235">
        <ele>821.1</ele>
        <time>2013-09-06T08:04:24Z</time>
      </trkpt>
      <trkpt lat="44.04373" lon="7.28246">
        <ele>821.1</ele>
        <time>2013-09-06T08:04:25Z</time>
      </trkpt>
      <trkpt lat="44.04376" lon="7.28256">
        <ele>820.6</ele>
        <time>2013-09-06T08:04:26Z</time>
      </trkpt>
      <trkpt lat="44.04379" lon="7.28267">
        <ele>820.1</ele>
        <time>2013-09-06T08:04:27Z</time>
      </trkpt>
      <trkpt lat="44.04386" lon="7.28298">
        <ele>819.7</ele>
        <time>2013-09-06T08:04:30Z</time>
      </trkpt>
      <trkpt lat="44.04386" lon="7.28307">
        <ele>819.2</ele>
        <time>2013-09-06T08:04:31Z</time>
      </trkpt>
      <trkpt lat="44.04383" lon="7.28316">
        <ele>819.7</ele>
        <time>2013-09-06T08:04:32Z</time>
      </trkpt>
      <trkpt lat="44.0438" lon="7.28325">
        <ele>819.2</ele>
        <time>2013-09-06T08:04:33Z</time>
      </trkpt>
      <trkpt lat="44.04374" lon="7.28332">
        <ele>819.7</ele>
        <time>2013-09-06T08:04:34Z</time>
      </trkpt>
      <trkpt lat="44.04363" lon="7.28358">
        <ele>819.2</ele>
        <time>2013-09-06T08:04:37Z</time>
      </trkpt>
      <trkpt lat="44.0436" lon="7.28367">
        <ele>818.7</ele>
        <time>2013-09-06T08:04:38Z</time>
      </trkpt>
      <trkpt lat="44.04343" lon="7.28424">
        <ele>818.2</ele>
        <time>2013-09-06T08:04:44Z</time>
      </trkpt>
      <trkpt lat="44.04339" lon="7.28433">
        <ele>817.7</ele>
        <time>2013-09-06T08:04:45Z</time>
      </trkpt>
      <trkpt lat="44.04322" lon="7.28478">
        <ele>815.8</ele>
        <time>2013-09-06T08:04:50Z</time>
      </trkpt>
      <trkpt lat="44.04322" lon="7.28488">
        <ele>815.8</ele>
        <time>2013-09-06T08:04:51Z</time>
      </trkpt>
      <trkpt lat="44.04323" lon="7.28498">
        <ele>815.8</ele>
        <time>2013-09-06T08:04:52Z</time>
      </trkpt>
      <trkpt lat="44.04328" lon="7.28532">
        <ele>813.4</ele>
        <time>2013-09-06T08:04:55Z</time>
      </trkpt>
      <trkpt lat="44.04329" lon="7.28544">
        <ele>813.4</ele>
        <time>2013-09-06T08:04:56Z</time>
      </trkpt>
      <trkpt lat="44.04328" lon="7.28556">
        <ele>812.5</ele>
        <time>2013-09-06T08:04:57Z</time>
      </trkpt>
      <trkpt lat="44.04326" lon="7.28568">
        <ele>812.5</ele>
        <time>2013-09-06T08:04:58Z</time>
      </trkpt>
      <trkpt lat="44.04323" lon="7.2858">
        <ele>811.5</ele>
        <time>2013-09-06T08:04:59Z</time>
      </trkpt>
      <trkpt lat="44.04318" lon="7.28591">
        <ele>811.5</ele>
        <time>2013-09-06T08:05:00Z</time>
      </trkpt>
      <trkpt lat="44.04313" lon="7.28602">
        <ele>810.5</ele>
        <time>2013-09-06T08:05:01Z</time>
      </trkpt>
      <trkpt lat="44.04302" lon="7.28623">
        <ele>809.6</ele>
        <time>2013-09-06T08:05:03Z</time>
      </trkpt>
      <trkpt lat="44.04294" lon="7.28647">
        <ele>808.6</ele>
        <time>2013-09-06T08:05:05Z</time>
      </trkpt>
      <trkpt lat="44.04292" lon="7.28659">
        <ele>808.1</ele>
        <time>2013-09-06T08:05:06Z</time>
      </trkpt>
      <trkpt lat="44.04291" lon="7.28685">
        <ele>806.7</ele>
        <time>2013-09-06T08:05:08Z</time>
      </trkpt>
      <trkpt lat="44.0429" lon="7.28698">
        <ele>806.2</ele>
        <time>2013-09-06T08:05:09Z</time>
      </trkpt>
      <trkpt lat="44.04287" lon="7.28711">
        <ele>805.7</ele>
        <time>2013-09-06T08:05:10Z</time>
      </trkpt>
      <trkpt lat="44.04283" lon="7.28723">
        <ele>805.2</ele>
        <time>2013-09-06T08:05:11Z</time>
      </trkpt>
      <trkpt lat="44.04271" lon="7.28759">
        <ele>803.8</ele>
        <time>2013-09-06T08:05:14Z</time>
      </trkpt>
      <trkpt lat="44.04269" lon="7.28772">
        <ele>802.8</ele>
        <time>2013-09-06T08:05:15Z</time>
      </trkpt>
      <trkpt lat="44.04269" lon="7.28785">
        <ele>802.4</ele>
        <time>2013-09-06T08:05:16Z</time>
      </trkpt>
      <trkpt lat="44.04269" lon="7.28798">
        <ele>801.4</ele>
        <time>2013-09-06T08:05:17Z</time>
      </trkpt>
      <trkpt lat="44.04271" lon="7.28812">
        <ele>800.9</ele>
        <time>2013-09-06T08:05:18Z</time>
      </trkpt>
      <trkpt lat="44.04273" lon="7.28826">
        <ele>800</ele>
        <time>2013-09-06T08:05:19Z</time>
      </trkpt>
      <trkpt lat="44.04272" lon="7.2884">
        <ele>799</ele>
        <time>2013-09-06T08:05:20Z</time>
      </trkpt>
      <trkpt lat="44.04269" lon="7.28852">
        <ele>798.5</ele>
        <time>2013-09-06T08:05:21Z</time>
      </trkpt>
      <trkpt lat="44.04262" lon="7.28862">
        <ele>798</ele>
        <time>2013-09-06T08:05:22Z</time>
      </trkpt>
      <trkpt lat="44.04253" lon="7.28868">
        <ele>797.1</ele>
        <time>2013-09-06T08:05:23Z</time>
      </trkpt>
      <trkpt lat="44.04243" lon="7.28869">
        <ele>796.6</ele>
        <time>2013-09-06T08:05:24Z</time>
      </trkpt>
      <trkpt lat="44.04234" lon="7.28866">
        <ele>796.1</ele>
        <time>2013-09-06T08:05:25Z</time>
      </trkpt>
      <trkpt lat="44.04226" lon="7.2886">
        <ele>795.2</ele>
        <time>2013-09-06T08:05:26Z</time>
      </trkpt>
      <trkpt lat="44.04217" lon="7.28853">
        <ele>794.7</ele>
        <time>2013-09-06T08:05:27Z</time>
      </trkpt>
      <trkpt lat="44.04207" lon="7.28849">
        <ele>794.7</ele>
        <time>2013-09-06T08:05:28Z</time>
      </trkpt>
      <trkpt lat="44.04197" lon="7.28846">
        <ele>793.2</ele>
        <time>2013-09-06T08:05:29Z</time>
      </trkpt>
      <trkpt lat="44.04187" lon="7.28845">
        <ele>793.7</ele>
        <time>2013-09-06T08:05:30Z</time>
      </trkpt>
      <trkpt lat="44.04176" lon="7.28851">
        <ele>792.7</ele>
        <time>2013-09-06T08:05:31Z</time>
      </trkpt>
      <trkpt lat="44.04166" lon="7.28856">
        <ele>791.8</ele>
        <time>2013-09-06T08:05:32Z</time>
      </trkpt>
      <trkpt lat="44.04156" lon="7.28863">
        <ele>791.8</ele>
        <time>2013-09-06T08:05:33Z</time>
      </trkpt>
      <trkpt lat="44.04136" lon="7.28875">
        <ele>790.3</ele>
        <time>2013-09-06T08:05:35Z</time>
      </trkpt>
      <trkpt lat="44.04106" lon="7.28892">
        <ele>788.4</ele>
        <time>2013-09-06T08:05:38Z</time>
      </trkpt>
      <trkpt lat="44.04056" lon="7.28925">
        <ele>785.5</ele>
        <time>2013-09-06T08:05:43Z</time>
      </trkpt>
      <trkpt lat="44.04047" lon="7.28934">
        <ele>784.6</ele>
        <time>2013-09-06T08:05:44Z</time>
      </trkpt>
      <trkpt lat="44.04039" lon="7.28945">
        <ele>784.6</ele>
        <time>2013-09-06T08:05:45Z</time>
      </trkpt>
      <trkpt lat="44.04031" lon="7.28957">
        <ele>784.1</ele>
        <time>2013-09-06T08:05:46Z</time>
      </trkpt>
      <trkpt lat="44.04025" lon="7.28968">
        <ele>783.6</ele>
        <time>2013-09-06T08:05:47Z</time>
      </trkpt>
      <trkpt lat="44.03987" lon="7.29038">
        <ele>780.7</ele>
        <time>2013-09-06T08:05:53Z</time>
      </trkpt>
      <trkpt lat="44.03978" lon="7.29047">
        <ele>778.8</ele>
        <time>2013-09-06T08:05:54Z</time>
      </trkpt>
      <trkpt lat="44.03969" lon="7.29056">
        <ele>778.3</ele>
        <time>2013-09-06T08:05:55Z</time>
      </trkpt>
      <trkpt lat="44.03959" lon="7.29063">
        <ele>777.4</ele>
        <time>2013-09-06T08:05:56Z</time>
      </trkpt>
      <trkpt lat="44.03948" lon="7.29068">
        <ele>776.9</ele>
        <time>2013-09-06T08:05:57Z</time>
      </trkpt>
      <trkpt lat="44.03906" lon="7.29091">
        <ele>774.5</ele>
        <time>2013-09-06T08:06:01Z</time>
      </trkpt>
      <trkpt lat="44.03896" lon="7.29099">
        <ele>774.5</ele>
        <time>2013-09-06T08:06:02Z</time>
      </trkpt>
      <trkpt lat="44.03878" lon="7.29114">
        <ele>772.6</ele>
        <time>2013-09-06T08:06:04Z</time>
      </trkpt>
      <trkpt lat="44.03868" lon="7.29118">
        <ele>772.6</ele>
        <time>2013-09-06T08:06:05Z</time>
      </trkpt>
      <trkpt lat="44.03848" lon="7.29124">
        <ele>771.6</ele>
        <time>2013-09-06T08:06:07Z</time>
      </trkpt>
      <trkpt lat="44.03829" lon="7.29135">
        <ele>769.7</ele>
        <time>2013-09-06T08:06:09Z</time>
      </trkpt>
      <trkpt lat="44.03821" lon="7.29143">
        <ele>768.7</ele>
        <time>2013-09-06T08:06:10Z</time>
      </trkpt>
      <trkpt lat="44.03812" lon="7.29152">
        <ele>769.2</ele>
        <time>2013-09-06T08:06:11Z</time>
      </trkpt>
      <trkpt lat="44.03786" lon="7.29179">
        <ele>767.3</ele>
        <time>2013-09-06T08:06:14Z</time>
      </trkpt>
      <trkpt lat="44.03776" lon="7.29184">
        <ele>766.8</ele>
        <time>2013-09-06T08:06:15Z</time>
      </trkpt>
      <trkpt lat="44.03766" lon="7.29187">
        <ele>766.3</ele>
        <time>2013-09-06T08:06:16Z</time>
      </trkpt>
      <trkpt lat="44.03735" lon="7.29196">
        <ele>764.4</ele>
        <time>2013-09-06T08:06:19Z</time>
      </trkpt>
      <trkpt lat="44.03725" lon="7.29201">
        <ele>763.9</ele>
        <time>2013-09-06T08:06:20Z</time>
      </trkpt>
      <trkpt lat="44.03715" lon="7.29207">
        <ele>762.9</ele>
        <time>2013-09-06T08:06:21Z</time>
      </trkpt>
      <trkpt lat="44.03707" lon="7.29216">
        <ele>762.5</ele>
        <time>2013-09-06T08:06:22Z</time>
      </trkpt>
      <trkpt lat="44.03699" lon="7.29226">
        <ele>762</ele>
        <time>2013-09-06T08:06:23Z</time>
      </trkpt>
      <trkpt lat="44.03675" lon="7.29254">
        <ele>760.1</ele>
        <time>2013-09-06T08:06:26Z</time>
      </trkpt>
      <trkpt lat="44.03642" lon="7.29286">
        <ele>758.1</ele>
        <time>2013-09-06T08:06:30Z</time>
      </trkpt>
      <trkpt lat="44.03634" lon="7.29295">
        <ele>758.1</ele>
        <time>2013-09-06T08:06:31Z</time>
      </trkpt>
      <trkpt lat="44.03627" lon="7.29305">
        <ele>757.2</ele>
        <time>2013-09-06T08:06:32Z</time>
      </trkpt>
      <trkpt lat="44.03621" lon="7.29316">
        <ele>756.7</ele>
        <time>2013-09-06T08:06:33Z</time>
      </trkpt>
      <trkpt lat="44.0361" lon="7.2934">
        <ele>756.2</ele>
        <time>2013-09-06T08:06:35Z</time>
      </trkpt>
      <trkpt lat="44.03584" lon="7.29399">
        <ele>752.9</ele>
        <time>2013-09-06T08:06:40Z</time>
      </trkpt>
      <trkpt lat="44.03562" lon="7.29447">
        <ele>750.9</ele>
        <time>2013-09-06T08:06:44Z</time>
      </trkpt>
      <trkpt lat="44.03554" lon="7.29457">
        <ele>750</ele>
        <time>2013-09-06T08:06:45Z</time>
      </trkpt>
      <trkpt lat="44.03547" lon="7.29466">
        <ele>749.5</ele>
        <time>2013-09-06T08:06:46Z</time>
      </trkpt>
      <trkpt lat="44.03504" lon="7.29505">
        <ele>746.6</ele>
        <time>2013-09-06T08:06:51Z</time>
      </trkpt>
      <trkpt lat="44.03496" lon="7.29513">
        <ele>746.1</ele>
        <time>2013-09-06T08:06:52Z</time>
      </trkpt>
      <trkpt lat="44.0349" lon="7.29523">
        <ele>745.6</ele>
        <time>2013-09-06T08:06:53Z</time>
      </trkpt>
      <trkpt lat="44.03474" lon="7.29556">
        <ele>744.7</ele>
        <time>2013-09-06T08:06:56Z</time>
      </trkpt>
      <trkpt lat="44.03468" lon="7.29566">
        <ele>743.7</ele>
        <time>2013-09-06T08:06:57Z</time>
      </trkpt>
      <trkpt lat="44.0346" lon="7.29576">
        <ele>743.2</ele>
        <time>2013-09-06T08:06:58Z</time>
      </trkpt>
      <trkpt lat="44.03452" lon="7.29586">
        <ele>742.8</ele>
        <time>2013-09-06T08:06:59Z</time>
      </trkpt>
      <trkpt lat="44.0341" lon="7.29639">
        <ele>739.4</ele>
        <time>2013-09-06T08:07:05Z</time>
      </trkpt>
      <trkpt lat="44.03377" lon="7.29693">
        <ele>737.5</ele>
        <time>2013-09-06T08:07:10Z</time>
      </trkpt>
      <trkpt lat="44.03365" lon="7.29715">
        <ele>736.5</ele>
        <time>2013-09-06T08:07:12Z</time>
      </trkpt>
      <trkpt lat="44.03361" lon="7.29727">
        <ele>736</ele>
        <time>2013-09-06T08:07:13Z</time>
      </trkpt>
      <trkpt lat="44.0334" lon="7.29814">
        <ele>733.1</ele>
        <time>2013-09-06T08:07:20Z</time>
      </trkpt>
      <trkpt lat="44.03323" lon="7.29965">
        <ele>729.8</ele>
        <time>2013-09-06T08:07:32Z</time>
      </trkpt>
      <trkpt lat="44.03304" lon="7.30097">
        <ele>726.9</ele>
        <time>2013-09-06T08:07:43Z</time>
      </trkpt>
      <trkpt lat="44.03291" lon="7.30174">
        <ele>725.9</ele>
        <time>2013-09-06T08:07:50Z</time>
      </trkpt>
      <trkpt lat="44.03283" lon="7.3019">
        <ele>725.5</ele>
        <time>2013-09-06T08:07:54Z</time>
      </trkpt>
      <trkpt lat="44.03281" lon="7.30196">
        <ele>725.5</ele>
        <time>2013-09-06T08:07:55Z</time>
      </trkpt>
      <trkpt lat="44.0328" lon="7.30204">
        <ele>725</ele>
        <time>2013-09-06T08:07:56Z</time>
      </trkpt>
      <trkpt lat="44.03281" lon="7.30213">
        <ele>725</ele>
        <time>2013-09-06T08:07:57Z</time>
      </trkpt>
      <trkpt lat="44.03281" lon="7.30218">
        <ele>725</ele>
        <time>2013-09-06T08:07:58Z</time>
      </trkpt>
      <trkpt lat="44.03346" lon="7.30249">
        <ele>725</ele>
        <time>2013-09-06T08:08:03Z</time>
      </trkpt>
      <trkpt lat="44.03351" lon="7.30293">
        <ele>724</ele>
        <time>2013-09-06T08:08:08Z</time>
      </trkpt>
      <trkpt lat="44.03349" lon="7.30301">
        <ele>724</ele>
        <time>2013-09-06T08:08:09Z</time>
      </trkpt>
      <trkpt lat="44.03347" lon="7.30309">
        <ele>724</ele>
        <time>2013-09-06T08:08:10Z</time>
      </trkpt>
      <trkpt lat="44.03342" lon="7.30316">
        <ele>723.5</ele>
        <time>2013-09-06T08:08:11Z</time>
      </trkpt>
      <trkpt lat="44.03281" lon="7.30392">
        <ele>721.1</ele>
        <time>2013-09-06T08:08:22Z</time>
      </trkpt>
      <trkpt lat="44.03274" lon="7.30397">
        <ele>720.7</ele>
        <time>2013-09-06T08:08:23Z</time>
      </trkpt>
      <trkpt lat="44.03219" lon="7.3044">
        <ele>717.3</ele>
        <time>2013-09-06T08:08:31Z</time>
      </trkpt>
      <trkpt lat="44.03206" lon="7.30453">
        <ele>716.3</ele>
        <time>2013-09-06T08:08:33Z</time>
      </trkpt>
      <trkpt lat="44.03182" lon="7.30487">
        <ele>714.4</ele>
        <time>2013-09-06T08:08:37Z</time>
      </trkpt>
      <trkpt lat="44.03178" lon="7.30497">
        <ele>713.9</ele>
        <time>2013-09-06T08:08:38Z</time>
      </trkpt>
      <trkpt lat="44.0317" lon="7.30518">
        <ele>713</ele>
        <time>2013-09-06T08:08:40Z</time>
      </trkpt>
      <trkpt lat="44.03164" lon="7.30527">
        <ele>713.4</ele>
        <time>2013-09-06T08:08:41Z</time>
      </trkpt>
      <trkpt lat="44.03151" lon="7.3055">
        <ele>711</ele>
        <time>2013-09-06T08:08:43Z</time>
      </trkpt>
      <trkpt lat="44.03137" lon="7.30576">
        <ele>709.1</ele>
        <time>2013-09-06T08:08:46Z</time>
      </trkpt>
      <trkpt lat="44.0313" lon="7.30584">
        <ele>708.6</ele>
        <time>2013-09-06T08:08:47Z</time>
      </trkpt>
      <trkpt lat="44.03109" lon="7.30608">
        <ele>707.7</ele>
        <time>2013-09-06T08:08:50Z</time>
      </trkpt>
      <trkpt lat="44.03104" lon="7.30618">
        <ele>707.2</ele>
        <time>2013-09-06T08:08:51Z</time>
      </trkpt>
      <trkpt lat="44.03102" lon="7.3063">
        <ele>706.7</ele>
        <time>2013-09-06T08:08:52Z</time>
      </trkpt>
      <trkpt lat="44.03099" lon="7.30657">
        <ele>705.3</ele>
        <time>2013-09-06T08:08:54Z</time>
      </trkpt>
      <trkpt lat="44.03096" lon="7.30669">
        <ele>704.3</ele>
        <time>2013-09-06T08:08:55Z</time>
      </trkpt>
      <trkpt lat="44.03091" lon="7.3068">
        <ele>704.8</ele>
        <time>2013-09-06T08:08:56Z</time>
      </trkpt>
      <trkpt lat="44.03085" lon="7.30691">
        <ele>703.8</ele>
        <time>2013-09-06T08:08:57Z</time>
      </trkpt>
      <trkpt lat="44.03079" lon="7.30702">
        <ele>703.3</ele>
        <time>2013-09-06T08:08:58Z</time>
      </trkpt>
      <trkpt lat="44.03037" lon="7.3076">
        <ele>700</ele>
        <time>2013-09-06T08:09:04Z</time>
      </trkpt>
      <trkpt lat="44.03022" lon="7.30779">
        <ele>699</ele>
        <time>2013-09-06T08:09:06Z</time>
      </trkpt>
      <trkpt lat="44.02984" lon="7.30824">
        <ele>696.1</ele>
        <time>2013-09-06T08:09:11Z</time>
      </trkpt>
      <trkpt lat="44.02959" lon="7.3085">
        <ele>694.7</ele>
        <time>2013-09-06T08:09:14Z</time>
      </trkpt>
      <trkpt lat="44.02914" lon="7.30888">
        <ele>691.8</ele>
        <time>2013-09-06T08:09:19Z</time>
      </trkpt>
      <trkpt lat="44.02863" lon="7.30922">
        <ele>688</ele>
        <time>2013-09-06T08:09:25Z</time>
      </trkpt>
      <trkpt lat="44.02843" lon="7.30936">
        <ele>686.5</ele>
        <time>2013-09-06T08:09:28Z</time>
      </trkpt>
      <trkpt lat="44.02806" lon="7.30953">
        <ele>684.1</ele>
        <time>2013-09-06T08:09:33Z</time>
      </trkpt>
      <trkpt lat="44.02748" lon="7.30968">
        <ele>681.2</ele>
        <time>2013-09-06T08:09:41Z</time>
      </trkpt>
      <trkpt lat="44.02682" lon="7.30977">
        <ele>677.9</ele>
        <time>2013-09-06T08:09:49Z</time>
      </trkpt>
      <trkpt lat="44.02671" lon="7.30976">
        <ele>677.4</ele>
        <time>2013-09-06T08:09:50Z</time>
      </trkpt>
      <trkpt lat="44.02662" lon="7.30973">
        <ele>676.9</ele>
        <time>2013-09-06T08:09:51Z</time>
      </trkpt>
      <trkpt lat="44.02645" lon="7.30965">
        <ele>675.5</ele>
        <time>2013-09-06T08:09:53Z</time>
      </trkpt>
      <trkpt lat="44.02637" lon="7.30963">
        <ele>675.5</ele>
        <time>2013-09-06T08:09:54Z</time>
      </trkpt>
      <trkpt lat="44.02629" lon="7.30963">
        <ele>675</ele>
        <time>2013-09-06T08:09:55Z</time>
      </trkpt>
      <trkpt lat="44.02622" lon="7.30965">
        <ele>674.5</ele>
        <time>2013-09-06T08:09:56Z</time>
      </trkpt>
      <trkpt lat="44.02615" lon="7.3097">
        <ele>673.5</ele>
        <time>2013-09-06T08:09:57Z</time>
      </trkpt>
      <trkpt lat="44.02608" lon="7.30975">
        <ele>673.5</ele>
        <time>2013-09-06T08:09:58Z</time>
      </trkpt>
      <trkpt lat="44.02588" lon="7.30992">
        <ele>672.1</ele>
        <time>2013-09-06T08:10:01Z</time>
      </trkpt>
      <trkpt lat="44.02581" lon="7.30995">
        <ele>671.6</ele>
        <time>2013-09-06T08:10:02Z</time>
      </trkpt>
      <trkpt lat="44.02574" lon="7.30996">
        <ele>671.6</ele>
        <time>2013-09-06T08:10:03Z</time>
      </trkpt>
      <trkpt lat="44.02566" lon="7.30995">
        <ele>671.1</ele>
        <time>2013-09-06T08:10:04Z</time>
      </trkpt>
      <trkpt lat="44.02499" lon="7.30981">
        <ele>668.3</ele>
        <time>2013-09-06T08:10:12Z</time>
      </trkpt>
      <trkpt lat="44.0249" lon="7.30981">
        <ele>667.3</ele>
        <time>2013-09-06T08:10:13Z</time>
      </trkpt>
      <trkpt lat="44.02462" lon="7.30986">
        <ele>665.9</ele>
        <time>2013-09-06T08:10:16Z</time>
      </trkpt>
      <trkpt lat="44.02433" lon="7.30992">
        <ele>664.4</ele>
        <time>2013-09-06T08:10:19Z</time>
      </trkpt>
      <trkpt lat="44.02381" lon="7.30998">
        <ele>662</ele>
        <time>2013-09-06T08:10:25Z</time>
      </trkpt>
      <trkpt lat="44.02372" lon="7.30994">
        <ele>661</ele>
        <time>2013-09-06T08:10:26Z</time>
      </trkpt>
      <trkpt lat="44.02364" lon="7.30988">
        <ele>660.1</ele>
        <time>2013-09-06T08:10:27Z</time>
      </trkpt>
      <trkpt lat="44.0235" lon="7.30974">
        <ele>659.6</ele>
        <time>2013-09-06T08:10:29Z</time>
      </trkpt>
      <trkpt lat="44.02342" lon="7.3097">
        <ele>659.1</ele>
        <time>2013-09-06T08:10:30Z</time>
      </trkpt>
      <trkpt lat="44.02333" lon="7.30968">
        <ele>658.6</ele>
        <time>2013-09-06T08:10:31Z</time>
      </trkpt>
      <trkpt lat="44.02323" lon="7.30969">
        <ele>658.2</ele>
        <time>2013-09-06T08:10:32Z</time>
      </trkpt>
      <trkpt lat="44.02314" lon="7.30972">
        <ele>657.7</ele>
        <time>2013-09-06T08:10:33Z</time>
      </trkpt>
      <trkpt lat="44.02306" lon="7.30978">
        <ele>657.7</ele>
        <time>2013-09-06T08:10:34Z</time>
      </trkpt>
      <trkpt lat="44.02298" lon="7.30985">
        <ele>656.7</ele>
        <time>2013-09-06T08:10:35Z</time>
      </trkpt>
      <trkpt lat="44.02268" lon="7.31017">
        <ele>654.8</ele>
        <time>2013-09-06T08:10:39Z</time>
      </trkpt>
      <trkpt lat="44.0226" lon="7.31023">
        <ele>654.3</ele>
        <time>2013-09-06T08:10:40Z</time>
      </trkpt>
      <trkpt lat="44.02251" lon="7.31028">
        <ele>653.4</ele>
        <time>2013-09-06T08:10:41Z</time>
      </trkpt>
      <trkpt lat="44.02242" lon="7.31031">
        <ele>652.9</ele>
        <time>2013-09-06T08:10:42Z</time>
      </trkpt>
      <trkpt lat="44.02232" lon="7.31034">
        <ele>652.4</ele>
        <time>2013-09-06T08:10:43Z</time>
      </trkpt>
      <trkpt lat="44.02223" lon="7.31036">
        <ele>652.4</ele>
        <time>2013-09-06T08:10:44Z</time>
      </trkpt>
      <trkpt lat="44.02194" lon="7.31042">
        <ele>651</ele>
        <time>2013-09-06T08:10:47Z</time>
      </trkpt>
      <trkpt lat="44.02137" lon="7.31051">
        <ele>648.1</ele>
        <time>2013-09-06T08:10:53Z</time>
      </trkpt>
      <trkpt lat="44.02091" lon="7.31063">
        <ele>646.1</ele>
        <time>2013-09-06T08:10:58Z</time>
      </trkpt>
      <trkpt lat="44.02055" lon="7.31073">
        <ele>644.2</ele>
        <time>2013-09-06T08:11:02Z</time>
      </trkpt>
      <trkpt lat="44.01997" lon="7.31083">
        <ele>640.9</ele>
        <time>2013-09-06T08:11:09Z</time>
      </trkpt>
      <trkpt lat="44.01963" lon="7.31089">
        <ele>638.9</ele>
        <time>2013-09-06T08:11:13Z</time>
      </trkpt>
      <trkpt lat="44.01945" lon="7.31091">
        <ele>638.5</ele>
        <time>2013-09-06T08:11:15Z</time>
      </trkpt>
      <trkpt lat="44.0191" lon="7.31086">
        <ele>635.6</ele>
        <time>2013-09-06T08:11:20Z</time>
      </trkpt>
      <trkpt lat="44.01905" lon="7.31083">
        <ele>635.6</ele>
        <time>2013-09-06T08:11:21Z</time>
      </trkpt>
      <trkpt lat="44.01901" lon="7.31078">
        <ele>635.1</ele>
        <time>2013-09-06T08:11:22Z</time>
      </trkpt>
      <trkpt lat="44.01898" lon="7.31073">
        <ele>635.1</ele>
        <time>2013-09-06T08:11:23Z</time>
      </trkpt>
      <trkpt lat="44.01897" lon="7.31071">
        <ele>635.1</ele>
        <time>2013-09-06T08:11:24Z</time>
      </trkpt>
      <trkpt lat="44.01887" lon="7.31048">
        <ele>636.1</ele>
        <time>2013-09-06T08:11:33Z</time>
      </trkpt>
      <trkpt lat="44.01879" lon="7.31034">
        <ele>636.1</ele>
        <time>2013-09-06T08:11:41Z</time>
      </trkpt>
      <trkpt lat="44.01879" lon="7.3104">
        <ele>636.5</ele>
        <time>2013-09-06T08:11:44Z</time>
      </trkpt>
      <trkpt lat="44.01881" lon="7.31042">
        <ele>636.5</ele>
        <time>2013-09-06T08:11:45Z</time>
      </trkpt>
      <trkpt lat="44.01884" lon="7.31045">
        <ele>636.1</ele>
        <time>2013-09-06T08:11:46Z</time>
      </trkpt>
      <trkpt lat="44.0191" lon="7.31079">
        <ele>635.1</ele>
        <time>2013-09-06T08:12:00Z</time>
      </trkpt>
      <trkpt lat="44.01916" lon="7.3109">
        <ele>635.1</ele>
        <time>2013-09-06T08:12:04Z</time>
      </trkpt>
      <trkpt lat="44.01915" lon="7.31094">
        <ele>635.1</ele>
        <time>2013-09-06T08:12:05Z</time>
      </trkpt>
      <trkpt lat="44.01913" lon="7.31098">
        <ele>634.6</ele>
        <time>2013-09-06T08:12:06Z</time>
      </trkpt>
      <trkpt lat="44.01865" lon="7.31147">
        <ele>631.7</ele>
        <time>2013-09-06T08:12:17Z</time>
      </trkpt>
      <trkpt lat="44.01833" lon="7.31184">
        <ele>632.2</ele>
        <time>2013-09-06T08:12:25Z</time>
      </trkpt>
      <trkpt lat="44.01816" lon="7.31202">
        <ele>632.2</ele>
        <time>2013-09-06T08:12:30Z</time>
      </trkpt>
      <trkpt lat="44.01774" lon="7.31254">
        <ele>631.7</ele>
        <time>2013-09-06T08:12:42Z</time>
      </trkpt>
      <trkpt lat="44.01736" lon="7.31284">
        <ele>629.8</ele>
        <time>2013-09-06T08:12:49Z</time>
      </trkpt>
      <trkpt lat="44.0169" lon="7.31301">
        <ele>627.4</ele>
        <time>2013-09-06T08:12:56Z</time>
      </trkpt>
      <trkpt lat="44.01683" lon="7.31303">
        <ele>626.9</ele>
        <time>2013-09-06T08:12:57Z</time>
      </trkpt>
      <trkpt lat="44.01676" lon="7.31303">
        <ele>626.9</ele>
        <time>2013-09-06T08:12:58Z</time>
      </trkpt>
      <trkpt lat="44.01668" lon="7.31303">
        <ele>627.4</ele>
        <time>2013-09-06T08:12:59Z</time>
      </trkpt>
      <trkpt lat="44.01661" lon="7.31302">
        <ele>626.9</ele>
        <time>2013-09-06T08:13:00Z</time>
      </trkpt>
      <trkpt lat="44.01592" lon="7.31295">
        <ele>623.6</ele>
        <time>2013-09-06T08:13:09Z</time>
      </trkpt>
      <trkpt lat="44.01583" lon="7.31294">
        <ele>623.6</ele>
        <time>2013-09-06T08:13:10Z</time>
      </trkpt>
      <trkpt lat="44.01558" lon="7.31297">
        <ele>622.6</ele>
        <time>2013-09-06T08:13:13Z</time>
      </trkpt>
      <trkpt lat="44.01549" lon="7.313">
        <ele>622.1</ele>
        <time>2013-09-06T08:13:14Z</time>
      </trkpt>
      <trkpt lat="44.01495" lon="7.3133">
        <ele>619.7</ele>
        <time>2013-09-06T08:13:21Z</time>
      </trkpt>
      <trkpt lat="44.01462" lon="7.31349">
        <ele>618.8</ele>
        <time>2013-09-06T08:13:25Z</time>
      </trkpt>
      <trkpt lat="44.01421" lon="7.31367">
        <ele>617.8</ele>
        <time>2013-09-06T08:13:30Z</time>
      </trkpt>
      <trkpt lat="44.01363" lon="7.31373">
        <ele>614.9</ele>
        <time>2013-09-06T08:13:37Z</time>
      </trkpt>
      <trkpt lat="44.01251" lon="7.31357">
        <ele>611.5</ele>
        <time>2013-09-06T08:13:50Z</time>
      </trkpt>
      <trkpt lat="44.01225" lon="7.31348">
        <ele>609.6</ele>
        <time>2013-09-06T08:13:53Z</time>
      </trkpt>
      <trkpt lat="44.01131" lon="7.31308">
        <ele>606.3</ele>
        <time>2013-09-06T08:14:04Z</time>
      </trkpt>
      <trkpt lat="44.01123" lon="7.31306">
        <ele>606.3</ele>
        <time>2013-09-06T08:14:05Z</time>
      </trkpt>
      <trkpt lat="44.01044" lon="7.31272">
        <ele>602.9</ele>
        <time>2013-09-06T08:14:14Z</time>
      </trkpt>
      <trkpt lat="44.00983" lon="7.31257">
        <ele>600.5</ele>
        <time>2013-09-06T08:14:21Z</time>
      </trkpt>
      <trkpt lat="44.00893" lon="7.3124">
        <ele>597.6</ele>
        <time>2013-09-06T08:14:31Z</time>
      </trkpt>
      <trkpt lat="44.00875" lon="7.31237">
        <ele>596.6</ele>
        <time>2013-09-06T08:14:33Z</time>
      </trkpt>
      <trkpt lat="44.00783" lon="7.31221">
        <ele>593.8</ele>
        <time>2013-09-06T08:14:44Z</time>
      </trkpt>
      <trkpt lat="44.00733" lon="7.31215">
        <ele>593.3</ele>
        <time>2013-09-06T08:14:50Z</time>
      </trkpt>
      <trkpt lat="44.00724" lon="7.31217">
        <ele>592.8</ele>
        <time>2013-09-06T08:14:51Z</time>
      </trkpt>
      <trkpt lat="44.00716" lon="7.31219">
        <ele>591.8</ele>
        <time>2013-09-06T08:14:52Z</time>
      </trkpt>
      <trkpt lat="44.00649" lon="7.31236">
        <ele>589.9</ele>
        <time>2013-09-06T08:15:00Z</time>
      </trkpt>
      <trkpt lat="44.00625" lon="7.31231">
        <ele>589.4</ele>
        <time>2013-09-06T08:15:03Z</time>
      </trkpt>
      <trkpt lat="44.00522" lon="7.31187">
        <ele>586.5</ele>
        <time>2013-09-06T08:15:17Z</time>
      </trkpt>
      <trkpt lat="44.00433" lon="7.31122">
        <ele>583.7</ele>
        <time>2013-09-06T08:15:30Z</time>
      </trkpt>
      <trkpt lat="44.00405" lon="7.31103">
        <ele>583.2</ele>
        <time>2013-09-06T08:15:34Z</time>
      </trkpt>
      <trkpt lat="44.00397" lon="7.31101">
        <ele>582.2</ele>
        <time>2013-09-06T08:15:35Z</time>
      </trkpt>
      <trkpt lat="44.00389" lon="7.311">
        <ele>582.2</ele>
        <time>2013-09-06T08:15:36Z</time>
      </trkpt>
      <trkpt lat="44.00348" lon="7.31105">
        <ele>581.7</ele>
        <time>2013-09-06T08:15:41Z</time>
      </trkpt>
      <trkpt lat="44.0034" lon="7.3111">
        <ele>581.3</ele>
        <time>2013-09-06T08:15:42Z</time>
      </trkpt>
      <trkpt lat="44.00334" lon="7.31116">
        <ele>581.3</ele>
        <time>2013-09-06T08:15:43Z</time>
      </trkpt>
      <trkpt lat="44.00244" lon="7.31195">
        <ele>578.9</ele>
        <time>2013-09-06T08:15:57Z</time>
      </trkpt>
      <trkpt lat="44.00219" lon="7.31208">
        <ele>579.3</ele>
        <time>2013-09-06T08:16:01Z</time>
      </trkpt>
      <trkpt lat="44.00213" lon="7.31206">
        <ele>578.9</ele>
        <time>2013-09-06T08:16:02Z</time>
      </trkpt>
      <trkpt lat="44.00207" lon="7.31202">
        <ele>578.9</ele>
        <time>2013-09-06T08:16:03Z</time>
      </trkpt>
      <trkpt lat="44.00202" lon="7.31195">
        <ele>578.9</ele>
        <time>2013-09-06T08:16:04Z</time>
      </trkpt>
      <trkpt lat="44.00199" lon="7.31187">
        <ele>579.3</ele>
        <time>2013-09-06T08:16:05Z</time>
      </trkpt>
      <trkpt lat="44.00196" lon="7.31177">
        <ele>578.9</ele>
        <time>2013-09-06T08:16:06Z</time>
      </trkpt>
      <trkpt lat="44.0018" lon="7.31132">
        <ele>577.9</ele>
        <time>2013-09-06T08:16:11Z</time>
      </trkpt>
      <trkpt lat="44.00175" lon="7.31125">
        <ele>578.4</ele>
        <time>2013-09-06T08:16:12Z</time>
      </trkpt>
      <trkpt lat="44.0017" lon="7.31119">
        <ele>577.9</ele>
        <time>2013-09-06T08:16:13Z</time>
      </trkpt>
      <trkpt lat="44.00163" lon="7.31115">
        <ele>577.9</ele>
        <time>2013-09-06T08:16:14Z</time>
      </trkpt>
      <trkpt lat="44.00156" lon="7.31114">
        <ele>577.9</ele>
        <time>2013-09-06T08:16:15Z</time>
      </trkpt>
      <trkpt lat="44.00148" lon="7.31113">
        <ele>577.9</ele>
        <time>2013-09-06T08:16:16Z</time>
      </trkpt>
      <trkpt lat="44.0005" lon="7.31131">
        <ele>575.5</ele>
        <time>2013-09-06T08:16:29Z</time>
      </trkpt>
      <trkpt lat="44.00036" lon="7.3114">
        <ele>574.5</ele>
        <time>2013-09-06T08:16:31Z</time>
      </trkpt>
      <trkpt lat="44.0003" lon="7.31147">
        <ele>574.5</ele>
        <time>2013-09-06T08:16:32Z</time>
      </trkpt>
      <trkpt lat="43.99982" lon="7.31206">
        <ele>572.6</ele>
        <time>2013-09-06T08:16:40Z</time>
      </trkpt>
      <trkpt lat="43.99977" lon="7.31215">
        <ele>572.1</ele>
        <time>2013-09-06T08:16:41Z</time>
      </trkpt>
      <trkpt lat="43.99973" lon="7.31224">
        <ele>573.1</ele>
        <time>2013-09-06T08:16:42Z</time>
      </trkpt>
      <trkpt lat="43.99969" lon="7.31233">
        <ele>572.6</ele>
        <time>2013-09-06T08:16:43Z</time>
      </trkpt>
      <trkpt lat="43.99967" lon="7.31243">
        <ele>572.1</ele>
        <time>2013-09-06T08:16:44Z</time>
      </trkpt>
      <trkpt lat="43.99938" lon="7.31355">
        <ele>569.7</ele>
        <time>2013-09-06T08:16:55Z</time>
      </trkpt>
      <trkpt lat="43.99894" lon="7.315">
        <ele>566.8</ele>
        <time>2013-09-06T08:17:10Z</time>
      </trkpt>
      <trkpt lat="43.99849" lon="7.31625">
        <ele>564.9</ele>
        <time>2013-09-06T08:17:23Z</time>
      </trkpt>
      <trkpt lat="43.99799" lon="7.31694">
        <ele>563.5</ele>
        <time>2013-09-06T08:17:32Z</time>
      </trkpt>
      <trkpt lat="43.99793" lon="7.317">
        <ele>563.5</ele>
        <time>2013-09-06T08:17:33Z</time>
      </trkpt>
      <trkpt lat="43.99785" lon="7.31705">
        <ele>563.5</ele>
        <time>2013-09-06T08:17:34Z</time>
      </trkpt>
      <trkpt lat="43.99778" lon="7.31708">
        <ele>563</ele>
        <time>2013-09-06T08:17:35Z</time>
      </trkpt>
      <trkpt lat="43.9977" lon="7.31711">
        <ele>562.5</ele>
        <time>2013-09-06T08:17:36Z</time>
      </trkpt>
      <trkpt lat="43.99764" lon="7.31712">
        <ele>562</ele>
        <time>2013-09-06T08:17:37Z</time>
      </trkpt>
      <trkpt lat="43.99717" lon="7.31726">
        <ele>562</ele>
        <time>2013-09-06T08:17:43Z</time>
      </trkpt>
      <trkpt lat="43.9971" lon="7.3173">
        <ele>562</ele>
        <time>2013-09-06T08:17:44Z</time>
      </trkpt>
      <trkpt lat="43.99624" lon="7.3181">
        <ele>558.7</ele>
        <time>2013-09-06T08:17:58Z</time>
      </trkpt>
      <trkpt lat="43.99617" lon="7.31814">
        <ele>558.2</ele>
        <time>2013-09-06T08:17:59Z</time>
      </trkpt>
      <trkpt lat="43.99602" lon="7.31821">
        <ele>558.2</ele>
        <time>2013-09-06T08:18:01Z</time>
      </trkpt>
      <trkpt lat="43.99477" lon="7.31861">
        <ele>555.3</ele>
        <time>2013-09-06T08:18:17Z</time>
      </trkpt>
      <trkpt lat="43.99414" lon="7.3187">
        <ele>553.9</ele>
        <time>2013-09-06T08:18:25Z</time>
      </trkpt>
      <trkpt lat="43.99406" lon="7.31873">
        <ele>553.4</ele>
        <time>2013-09-06T08:18:26Z</time>
      </trkpt>
      <trkpt lat="43.99303" lon="7.31931">
        <ele>550.5</ele>
        <time>2013-09-06T08:18:40Z</time>
      </trkpt>
      <trkpt lat="43.99203" lon="7.31986">
        <ele>547.6</ele>
        <time>2013-09-06T08:18:56Z</time>
      </trkpt>
      <trkpt lat="43.99083" lon="7.32047">
        <ele>545.7</ele>
        <time>2013-09-06T08:19:14Z</time>
      </trkpt>
      <trkpt lat="43.99028" lon="7.32073">
        <ele>542.3</ele>
        <time>2013-09-06T08:19:22Z</time>
      </trkpt>
      <trkpt lat="43.98972" lon="7.32081">
        <ele>539.4</ele>
        <time>2013-09-06T08:19:29Z</time>
      </trkpt>
      <trkpt lat="43.98964" lon="7.3208">
        <ele>539.4</ele>
        <time>2013-09-06T08:19:30Z</time>
      </trkpt>
      <trkpt lat="43.98859" lon="7.32042">
        <ele>538</ele>
        <time>2013-09-06T08:19:45Z</time>
      </trkpt>
      <trkpt lat="43.98794" lon="7.32015">
        <ele>534.6</ele>
        <time>2013-09-06T08:19:54Z</time>
      </trkpt>
      <trkpt lat="43.98753" lon="7.31997">
        <ele>533.7</ele>
        <time>2013-09-06T08:19:59Z</time>
      </trkpt>
      <trkpt lat="43.98697" lon="7.31964">
        <ele>530.3</ele>
        <time>2013-09-06T08:20:06Z</time>
      </trkpt>
      <trkpt lat="43.98665" lon="7.31941">
        <ele>529.3</ele>
        <time>2013-09-06T08:20:10Z</time>
      </trkpt>
      <trkpt lat="43.98657" lon="7.31938">
        <ele>529.3</ele>
        <time>2013-09-06T08:20:11Z</time>
      </trkpt>
      <trkpt lat="43.98649" lon="7.31936">
        <ele>529.3</ele>
        <time>2013-09-06T08:20:12Z</time>
      </trkpt>
      <trkpt lat="43.98641" lon="7.31937">
        <ele>528.9</ele>
        <time>2013-09-06T08:20:13Z</time>
      </trkpt>
      <trkpt lat="43.98633" lon="7.31939">
        <ele>528.4</ele>
        <time>2013-09-06T08:20:14Z</time>
      </trkpt>
      <trkpt lat="43.9853" lon="7.31981">
        <ele>525</ele>
        <time>2013-09-06T08:20:27Z</time>
      </trkpt>
      <trkpt lat="43.98521" lon="7.3198">
        <ele>525</ele>
        <time>2013-09-06T08:20:28Z</time>
      </trkpt>
      <trkpt lat="43.98513" lon="7.31978">
        <ele>525</ele>
        <time>2013-09-06T08:20:29Z</time>
      </trkpt>
      <trkpt lat="43.98386" lon="7.31952">
        <ele>522.6</ele>
        <time>2013-09-06T08:20:45Z</time>
      </trkpt>
      <trkpt lat="43.98321" lon="7.31936">
        <ele>521.2</ele>
        <time>2013-09-06T08:20:54Z</time>
      </trkpt>
      <trkpt lat="43.98213" lon="7.31848">
        <ele>519.3</ele>
        <time>2013-09-06T08:21:11Z</time>
      </trkpt>
      <trkpt lat="43.98168" lon="7.31792">
        <ele>518.3</ele>
        <time>2013-09-06T08:21:20Z</time>
      </trkpt>
      <trkpt lat="43.98154" lon="7.3176">
        <ele>517.8</ele>
        <time>2013-09-06T08:21:24Z</time>
      </trkpt>
      <trkpt lat="43.98152" lon="7.31751">
        <ele>517.3</ele>
        <time>2013-09-06T08:21:25Z</time>
      </trkpt>
      <trkpt lat="43.98146" lon="7.31716">
        <ele>516.9</ele>
        <time>2013-09-06T08:21:29Z</time>
      </trkpt>
      <trkpt lat="43.98146" lon="7.31707">
        <ele>516.9</ele>
        <time>2013-09-06T08:21:30Z</time>
      </trkpt>
      <trkpt lat="43.98146" lon="7.31699">
        <ele>516.4</ele>
        <time>2013-09-06T08:21:31Z</time>
      </trkpt>
      <trkpt lat="43.98149" lon="7.31656">
        <ele>515.9</ele>
        <time>2013-09-06T08:21:40Z</time>
      </trkpt>
      <trkpt lat="43.9815" lon="7.31616">
        <ele>516.4</ele>
        <time>2013-09-06T08:21:48Z</time>
      </trkpt>
      <trkpt lat="43.98152" lon="7.31571">
        <ele>516.4</ele>
        <time>2013-09-06T08:21:55Z</time>
      </trkpt>
      <trkpt lat="43.98152" lon="7.31564">
        <ele>515.9</ele>
        <time>2013-09-06T08:21:56Z</time>
      </trkpt>
      <trkpt lat="43.98151" lon="7.31558">
        <ele>516.4</ele>
        <time>2013-09-06T08:21:57Z</time>
      </trkpt>
      <trkpt lat="43.9815" lon="7.31551">
        <ele>516.4</ele>
        <time>2013-09-06T08:21:58Z</time>
      </trkpt>
      <trkpt lat="43.98148" lon="7.31545">
        <ele>516.4</ele>
        <time>2013-09-06T08:21:59Z</time>
      </trkpt>
      <trkpt lat="43.98146" lon="7.31539">
        <ele>516.4</ele>
        <time>2013-09-06T08:22:00Z</time>
      </trkpt>
      <trkpt lat="43.98143" lon="7.31535">
        <ele>516.4</ele>
        <time>2013-09-06T08:22:01Z</time>
      </trkpt>
      <trkpt lat="43.98139" lon="7.31531">
        <ele>516.4</ele>
        <time>2013-09-06T08:22:02Z</time>
      </trkpt>
      <trkpt lat="43.98136" lon="7.31527">
        <ele>516.4</ele>
        <time>2013-09-06T08:22:03Z</time>
      </trkpt>
      <trkpt lat="43.98131" lon="7.31524">
        <ele>515.9</ele>
        <time>2013-09-06T08:22:04Z</time>
      </trkpt>
      <trkpt lat="43.98127" lon="7.31521">
        <ele>516.4</ele>
        <time>2013-09-06T08:22:05Z</time>
      </trkpt>
      <trkpt lat="43.98079" lon="7.31494">
        <ele>515.9</ele>
        <time>2013-09-06T08:22:14Z</time>
      </trkpt>
      <trkpt lat="43.98075" lon="7.3149">
        <ele>516.9</ele>
        <time>2013-09-06T08:22:15Z</time>
      </trkpt>
      <trkpt lat="43.98071" lon="7.31485">
        <ele>516.4</ele>
        <time>2013-09-06T08:22:16Z</time>
      </trkpt>
      <trkpt lat="43.98054" lon="7.31459">
        <ele>517.3</ele>
        <time>2013-09-06T08:22:21Z</time>
      </trkpt>
      <trkpt lat="43.9805" lon="7.31455">
        <ele>516.9</ele>
        <time>2013-09-06T08:22:22Z</time>
      </trkpt>
      <trkpt lat="43.98046" lon="7.31451">
        <ele>517.3</ele>
        <time>2013-09-06T08:22:23Z</time>
      </trkpt>
      <trkpt lat="43.98042" lon="7.31449">
        <ele>517.3</ele>
        <time>2013-09-06T08:22:24Z</time>
      </trkpt>
      <trkpt lat="43.98038" lon="7.31447">
        <ele>516.9</ele>
        <time>2013-09-06T08:22:25Z</time>
      </trkpt>
      <trkpt lat="43.9803" lon="7.31443">
        <ele>517.8</ele>
        <time>2013-09-06T08:22:27Z</time>
      </trkpt>
      <trkpt lat="43.97951" lon="7.31428">
        <ele>519.7</ele>
        <time>2013-09-06T08:22:44Z</time>
      </trkpt>
      <trkpt lat="43.9788" lon="7.31405">
        <ele>517.3</ele>
        <time>2013-09-06T08:22:57Z</time>
      </trkpt>
      <trkpt lat="43.97873" lon="7.314">
        <ele>516.4</ele>
        <time>2013-09-06T08:22:58Z</time>
      </trkpt>
      <trkpt lat="43.97854" lon="7.31383">
        <ele>515.9</ele>
        <time>2013-09-06T08:23:01Z</time>
      </trkpt>
      <trkpt lat="43.97848" lon="7.31375">
        <ele>514.9</ele>
        <time>2013-09-06T08:23:02Z</time>
      </trkpt>
      <trkpt lat="43.97843" lon="7.31367">
        <ele>514.9</ele>
        <time>2013-09-06T08:23:03Z</time>
      </trkpt>
      <trkpt lat="43.97833" lon="7.31351">
        <ele>514.4</ele>
        <time>2013-09-06T08:23:05Z</time>
      </trkpt>
      <trkpt lat="43.97827" lon="7.31344">
        <ele>514.4</ele>
        <time>2013-09-06T08:23:06Z</time>
      </trkpt>
      <trkpt lat="43.97821" lon="7.31338">
        <ele>513.5</ele>
        <time>2013-09-06T08:23:07Z</time>
      </trkpt>
      <trkpt lat="43.97813" lon="7.31334">
        <ele>513.5</ele>
        <time>2013-09-06T08:23:08Z</time>
      </trkpt>
      <trkpt lat="43.97806" lon="7.3133">
        <ele>513.5</ele>
        <time>2013-09-06T08:23:09Z</time>
      </trkpt>
      <trkpt lat="43.97777" lon="7.31323">
        <ele>513</ele>
        <time>2013-09-06T08:23:13Z</time>
      </trkpt>
      <trkpt lat="43.97741" lon="7.31322">
        <ele>512</ele>
        <time>2013-09-06T08:23:18Z</time>
      </trkpt>
      <trkpt lat="43.97648" lon="7.31293">
        <ele>511.1</ele>
        <time>2013-09-06T08:23:33Z</time>
      </trkpt>
      <trkpt lat="43.97637" lon="7.31286">
        <ele>511.1</ele>
        <time>2013-09-06T08:23:35Z</time>
      </trkpt>
      <trkpt lat="43.97632" lon="7.31281">
        <ele>510.6</ele>
        <time>2013-09-06T08:23:36Z</time>
      </trkpt>
      <trkpt lat="43.97585" lon="7.31227">
        <ele>509.6</ele>
        <time>2013-09-06T08:23:46Z</time>
      </trkpt>
      <trkpt lat="43.9758" lon="7.31223">
        <ele>509.2</ele>
        <time>2013-09-06T08:23:47Z</time>
      </trkpt>
      <trkpt lat="43.97574" lon="7.3122">
        <ele>509.2</ele>
        <time>2013-09-06T08:23:48Z</time>
      </trkpt>
      <trkpt lat="43.97569" lon="7.31218">
        <ele>510.1</ele>
        <time>2013-09-06T08:23:49Z</time>
      </trkpt>
      <trkpt lat="43.97563" lon="7.31216">
        <ele>509.6</ele>
        <time>2013-09-06T08:23:50Z</time>
      </trkpt>
      <trkpt lat="43.97558" lon="7.31216">
        <ele>510.1</ele>
        <time>2013-09-06T08:23:51Z</time>
      </trkpt>
      <trkpt lat="43.97544" lon="7.31214">
        <ele>510.6</ele>
        <time>2013-09-06T08:23:54Z</time>
      </trkpt>
      <trkpt lat="43.97487" lon="7.31205">
        <ele>512</ele>
        <time>2013-09-06T08:24:08Z</time>
      </trkpt>
      <trkpt lat="43.97459" lon="7.31169">
        <ele>513</ele>
        <time>2013-09-06T08:24:18Z</time>
      </trkpt>
      <trkpt lat="43.97428" lon="7.31083">
        <ele>513.5</ele>
        <time>2013-09-06T08:24:33Z</time>
      </trkpt>
      <trkpt lat="43.97424" lon="7.31078">
        <ele>513.5</ele>
        <time>2013-09-06T08:24:34Z</time>
      </trkpt>
      <trkpt lat="43.9742" lon="7.31075">
        <ele>513.5</ele>
        <time>2013-09-06T08:24:35Z</time>
      </trkpt>
      <trkpt lat="43.97415" lon="7.31073">
        <ele>513.5</ele>
        <time>2013-09-06T08:24:36Z</time>
      </trkpt>
      <trkpt lat="43.9741" lon="7.31073">
        <ele>513</ele>
        <time>2013-09-06T08:24:37Z</time>
      </trkpt>
      <trkpt lat="43.97405" lon="7.31074">
        <ele>513</ele>
        <time>2013-09-06T08:24:38Z</time>
      </trkpt>
      <trkpt lat="43.974" lon="7.31076">
        <ele>513.5</ele>
        <time>2013-09-06T08:24:39Z</time>
      </trkpt>
      <trkpt lat="43.97396" lon="7.3108">
        <ele>513.5</ele>
        <time>2013-09-06T08:24:40Z</time>
      </trkpt>
      <trkpt lat="43.97392" lon="7.31086">
        <ele>513</ele>
        <time>2013-09-06T08:24:41Z</time>
      </trkpt>
      <trkpt lat="43.97389" lon="7.31093">
        <ele>513</ele>
        <time>2013-09-06T08:24:42Z</time>
      </trkpt>
      <trkpt lat="43.97387" lon="7.31099">
        <ele>513</ele>
        <time>2013-09-06T08:24:43Z</time>
      </trkpt>
      <trkpt lat="43.97366" lon="7.31169">
        <ele>513</ele>
        <time>2013-09-06T08:24:53Z</time>
      </trkpt>
      <trkpt lat="43.97362" lon="7.31175">
        <ele>513</ele>
        <time>2013-09-06T08:24:54Z</time>
      </trkpt>
      <trkpt lat="43.97358" lon="7.3118">
        <ele>513</ele>
        <time>2013-09-06T08:24:55Z</time>
      </trkpt>
      <trkpt lat="43.97353" lon="7.31184">
        <ele>513</ele>
        <time>2013-09-06T08:24:56Z</time>
      </trkpt>
      <trkpt lat="43.97348" lon="7.31187">
        <ele>512</ele>
        <time>2013-09-06T08:24:57Z</time>
      </trkpt>
      <trkpt lat="43.97341" lon="7.3119">
        <ele>512.5</ele>
        <time>2013-09-06T08:24:58Z</time>
      </trkpt>
      <trkpt lat="43.97335" lon="7.31192">
        <ele>511.6</ele>
        <time>2013-09-06T08:24:59Z</time>
      </trkpt>
      <trkpt lat="43.97329" lon="7.31191">
        <ele>511.6</ele>
        <time>2013-09-06T08:25:00Z</time>
      </trkpt>
      <trkpt lat="43.97323" lon="7.3119">
        <ele>511.6</ele>
        <time>2013-09-06T08:25:01Z</time>
      </trkpt>
      <trkpt lat="43.97292" lon="7.31184">
        <ele>510.1</ele>
        <time>2013-09-06T08:25:06Z</time>
      </trkpt>
      <trkpt lat="43.97285" lon="7.31186">
        <ele>509.6</ele>
        <time>2013-09-06T08:25:07Z</time>
      </trkpt>
      <trkpt lat="43.97278" lon="7.31189">
        <ele>509.6</ele>
        <time>2013-09-06T08:25:08Z</time>
      </trkpt>
      <trkpt lat="43.97219" lon="7.31201">
        <ele>506.3</ele>
        <time>2013-09-06T08:25:16Z</time>
      </trkpt>
      <trkpt lat="43.97175" lon="7.31193">
        <ele>504.4</ele>
        <time>2013-09-06T08:25:21Z</time>
      </trkpt>
      <trkpt lat="43.97167" lon="7.31189">
        <ele>503.4</ele>
        <time>2013-09-06T08:25:22Z</time>
      </trkpt>
      <trkpt lat="43.9716" lon="7.31182">
        <ele>503.4</ele>
        <time>2013-09-06T08:25:23Z</time>
      </trkpt>
      <trkpt lat="43.97153" lon="7.31172">
        <ele>503.4</ele>
        <time>2013-09-06T08:25:24Z</time>
      </trkpt>
      <trkpt lat="43.97146" lon="7.31163">
        <ele>502.4</ele>
        <time>2013-09-06T08:25:25Z</time>
      </trkpt>
      <trkpt lat="43.97139" lon="7.31154">
        <ele>502</ele>
        <time>2013-09-06T08:25:26Z</time>
      </trkpt>
      <trkpt lat="43.97133" lon="7.31145">
        <ele>501.5</ele>
        <time>2013-09-06T08:25:27Z</time>
      </trkpt>
      <trkpt lat="43.97086" lon="7.31087">
        <ele>498.1</ele>
        <time>2013-09-06T08:25:34Z</time>
      </trkpt>
      <trkpt lat="43.97032" lon="7.31019">
        <ele>494.7</ele>
        <time>2013-09-06T08:25:42Z</time>
      </trkpt>
      <trkpt lat="43.97021" lon="7.30998">
        <ele>494.3</ele>
        <time>2013-09-06T08:25:44Z</time>
      </trkpt>
      <trkpt lat="43.97017" lon="7.30986">
        <ele>493.8</ele>
        <time>2013-09-06T08:25:45Z</time>
      </trkpt>
      <trkpt lat="43.97014" lon="7.30974">
        <ele>492.8</ele>
        <time>2013-09-06T08:25:46Z</time>
      </trkpt>
      <trkpt lat="43.97011" lon="7.30961">
        <ele>492.3</ele>
        <time>2013-09-06T08:25:47Z</time>
      </trkpt>
      <trkpt lat="43.9701" lon="7.30948">
        <ele>491.9</ele>
        <time>2013-09-06T08:25:48Z</time>
      </trkpt>
      <trkpt lat="43.97006" lon="7.30895">
        <ele>489.9</ele>
        <time>2013-09-06T08:25:52Z</time>
      </trkpt>
      <trkpt lat="43.97004" lon="7.30854">
        <ele>488</ele>
        <time>2013-09-06T08:25:55Z</time>
      </trkpt>
      <trkpt lat="43.97" lon="7.30786">
        <ele>486.1</ele>
        <time>2013-09-06T08:26:00Z</time>
      </trkpt>
      <trkpt lat="43.96998" lon="7.30773">
        <ele>486.1</ele>
        <time>2013-09-06T08:26:01Z</time>
      </trkpt>
      <trkpt lat="43.96995" lon="7.30761">
        <ele>485.1</ele>
        <time>2013-09-06T08:26:02Z</time>
      </trkpt>
      <trkpt lat="43.96992" lon="7.30749">
        <ele>485.1</ele>
        <time>2013-09-06T08:26:03Z</time>
      </trkpt>
      <trkpt lat="43.96987" lon="7.30738">
        <ele>484.2</ele>
        <time>2013-09-06T08:26:04Z</time>
      </trkpt>
      <trkpt lat="43.96982" lon="7.30727">
        <ele>483.2</ele>
        <time>2013-09-06T08:26:05Z</time>
      </trkpt>
      <trkpt lat="43.96977" lon="7.30717">
        <ele>482.7</ele>
        <time>2013-09-06T08:26:06Z</time>
      </trkpt>
      <trkpt lat="43.96971" lon="7.30707">
        <ele>482.2</ele>
        <time>2013-09-06T08:26:07Z</time>
      </trkpt>
      <trkpt lat="43.96935" lon="7.30648">
        <ele>479.4</ele>
        <time>2013-09-06T08:26:13Z</time>
      </trkpt>
      <trkpt lat="43.96893" lon="7.30577">
        <ele>476</ele>
        <time>2013-09-06T08:26:20Z</time>
      </trkpt>
      <trkpt lat="43.96882" lon="7.30557">
        <ele>475</ele>
        <time>2013-09-06T08:26:22Z</time>
      </trkpt>
      <trkpt lat="43.96869" lon="7.30538">
        <ele>474.6</ele>
        <time>2013-09-06T08:26:24Z</time>
      </trkpt>
      <trkpt lat="43.96862" lon="7.30531">
        <ele>473.6</ele>
        <time>2013-09-06T08:26:25Z</time>
      </trkpt>
      <trkpt lat="43.96854" lon="7.30525">
        <ele>473.6</ele>
        <time>2013-09-06T08:26:26Z</time>
      </trkpt>
      <trkpt lat="43.96845" lon="7.3052">
        <ele>473.1</ele>
        <time>2013-09-06T08:26:27Z</time>
      </trkpt>
      <trkpt lat="43.96836" lon="7.30517">
        <ele>472.1</ele>
        <time>2013-09-06T08:26:28Z</time>
      </trkpt>
      <trkpt lat="43.96826" lon="7.30515">
        <ele>471.2</ele>
        <time>2013-09-06T08:26:29Z</time>
      </trkpt>
      <trkpt lat="43.96817" lon="7.30514">
        <ele>471.2</ele>
        <time>2013-09-06T08:26:30Z</time>
      </trkpt>
      <trkpt lat="43.96799" lon="7.3051">
        <ele>470.2</ele>
        <time>2013-09-06T08:26:32Z</time>
      </trkpt>
      <trkpt lat="43.9679" lon="7.30506">
        <ele>470.2</ele>
        <time>2013-09-06T08:26:33Z</time>
      </trkpt>
      <trkpt lat="43.96781" lon="7.30501">
        <ele>469.7</ele>
        <time>2013-09-06T08:26:34Z</time>
      </trkpt>
      <trkpt lat="43.96773" lon="7.30494">
        <ele>469.3</ele>
        <time>2013-09-06T08:26:35Z</time>
      </trkpt>
      <trkpt lat="43.96765" lon="7.30487">
        <ele>468.3</ele>
        <time>2013-09-06T08:26:36Z</time>
      </trkpt>
      <trkpt lat="43.96757" lon="7.3048">
        <ele>467.8</ele>
        <time>2013-09-06T08:26:37Z</time>
      </trkpt>
      <trkpt lat="43.96728" lon="7.30451">
        <ele>465.4</ele>
        <time>2013-09-06T08:26:41Z</time>
      </trkpt>
      <trkpt lat="43.9672" lon="7.30445">
        <ele>465.4</ele>
        <time>2013-09-06T08:26:42Z</time>
      </trkpt>
      <trkpt lat="43.96712" lon="7.30441">
        <ele>465.4</ele>
        <time>2013-09-06T08:26:43Z</time>
      </trkpt>
      <trkpt lat="43.96704" lon="7.30438">
        <ele>464.9</ele>
        <time>2013-09-06T08:26:44Z</time>
      </trkpt>
      <trkpt lat="43.96695" lon="7.30437">
        <ele>464</ele>
        <time>2013-09-06T08:26:45Z</time>
      </trkpt>
      <trkpt lat="43.96687" lon="7.30435">
        <ele>464</ele>
        <time>2013-09-06T08:26:46Z</time>
      </trkpt>
      <trkpt lat="43.96662" lon="7.30427">
        <ele>463.5</ele>
        <time>2013-09-06T08:26:49Z</time>
      </trkpt>
      <trkpt lat="43.96655" lon="7.30423">
        <ele>464</ele>
        <time>2013-09-06T08:26:50Z</time>
      </trkpt>
      <trkpt lat="43.96647" lon="7.30418">
        <ele>463</ele>
        <time>2013-09-06T08:26:51Z</time>
      </trkpt>
      <trkpt lat="43.96562" lon="7.30347">
        <ele>461.6</ele>
        <time>2013-09-06T08:27:04Z</time>
      </trkpt>
      <trkpt lat="43.96557" lon="7.30338">
        <ele>460.6</ele>
        <time>2013-09-06T08:27:05Z</time>
      </trkpt>
      <trkpt lat="43.96545" lon="7.30311">
        <ele>460.6</ele>
        <time>2013-09-06T08:27:08Z</time>
      </trkpt>
      <trkpt lat="43.9654" lon="7.30303">
        <ele>460.6</ele>
        <time>2013-09-06T08:27:09Z</time>
      </trkpt>
      <trkpt lat="43.96535" lon="7.30295">
        <ele>460.6</ele>
        <time>2013-09-06T08:27:10Z</time>
      </trkpt>
      <trkpt lat="43.96447" lon="7.30226">
        <ele>458.7</ele>
        <time>2013-09-06T08:27:24Z</time>
      </trkpt>
      <trkpt lat="43.96407" lon="7.30208">
        <ele>458.2</ele>
        <time>2013-09-06T08:27:30Z</time>
      </trkpt>
      <trkpt lat="43.96401" lon="7.30207">
        <ele>457.7</ele>
        <time>2013-09-06T08:27:31Z</time>
      </trkpt>
      <trkpt lat="43.96394" lon="7.30207">
        <ele>458.2</ele>
        <time>2013-09-06T08:27:32Z</time>
      </trkpt>
      <trkpt lat="43.96387" lon="7.30208">
        <ele>457.7</ele>
        <time>2013-09-06T08:27:33Z</time>
      </trkpt>
      <trkpt lat="43.9638" lon="7.3021">
        <ele>457.7</ele>
        <time>2013-09-06T08:27:34Z</time>
      </trkpt>
      <trkpt lat="43.96295" lon="7.30265">
        <ele>456.8</ele>
        <time>2013-09-06T08:27:48Z</time>
      </trkpt>
      <trkpt lat="43.96256" lon="7.30306">
        <ele>456.8</ele>
        <time>2013-09-06T08:27:56Z</time>
      </trkpt>
      <trkpt lat="43.96251" lon="7.30308">
        <ele>456.8</ele>
        <time>2013-09-06T08:27:57Z</time>
      </trkpt>
      <trkpt lat="43.96245" lon="7.3031">
        <ele>457.2</ele>
        <time>2013-09-06T08:27:58Z</time>
      </trkpt>
      <trkpt lat="43.96239" lon="7.30311">
        <ele>457.2</ele>
        <time>2013-09-06T08:27:59Z</time>
      </trkpt>
      <trkpt lat="43.96233" lon="7.30311">
        <ele>457.7</ele>
        <time>2013-09-06T08:28:00Z</time>
      </trkpt>
      <trkpt lat="43.96149" lon="7.3033">
        <ele>458.7</ele>
        <time>2013-09-06T08:28:15Z</time>
      </trkpt>
      <trkpt lat="43.96138" lon="7.30329">
        <ele>458.7</ele>
        <time>2013-09-06T08:28:17Z</time>
      </trkpt>
      <trkpt lat="43.96132" lon="7.30317">
        <ele>458.7</ele>
        <time>2013-09-06T08:28:18Z</time>
      </trkpt>
      <trkpt lat="43.96089" lon="7.30278">
        <ele>459.7</ele>
        <time>2013-09-06T08:28:26Z</time>
      </trkpt>
      <trkpt lat="43.96007" lon="7.30255">
        <ele>461.6</ele>
        <time>2013-09-06T08:28:41Z</time>
      </trkpt>
      <trkpt lat="43.95936" lon="7.3027">
        <ele>461.6</ele>
        <time>2013-09-06T08:28:54Z</time>
      </trkpt>
      <trkpt lat="43.9593" lon="7.30271">
        <ele>462.1</ele>
        <time>2013-09-06T08:28:55Z</time>
      </trkpt>
      <trkpt lat="43.95924" lon="7.3027">
        <ele>461.6</ele>
        <time>2013-09-06T08:28:56Z</time>
      </trkpt>
      <trkpt lat="43.95919" lon="7.30268">
        <ele>462.1</ele>
        <time>2013-09-06T08:28:57Z</time>
      </trkpt>
      <trkpt lat="43.95914" lon="7.30265">
        <ele>462.1</ele>
        <time>2013-09-06T08:28:58Z</time>
      </trkpt>
      <trkpt lat="43.95909" lon="7.3026">
        <ele>462.1</ele>
        <time>2013-09-06T08:28:59Z</time>
      </trkpt>
      <trkpt lat="43.95905" lon="7.30254">
        <ele>461.6</ele>
        <time>2013-09-06T08:29:00Z</time>
      </trkpt>
      <trkpt lat="43.95902" lon="7.30248">
        <ele>462.1</ele>
        <time>2013-09-06T08:29:01Z</time>
      </trkpt>
      <trkpt lat="43.95899" lon="7.30241">
        <ele>462.5</ele>
        <time>2013-09-06T08:29:02Z</time>
      </trkpt>
      <trkpt lat="43.95898" lon="7.30234">
        <ele>463</ele>
        <time>2013-09-06T08:29:03Z</time>
      </trkpt>
      <trkpt lat="43.95896" lon="7.30227">
        <ele>462.5</ele>
        <time>2013-09-06T08:29:04Z</time>
      </trkpt>
      <trkpt lat="43.95877" lon="7.30096">
        <ele>464.5</ele>
        <time>2013-09-06T08:29:22Z</time>
      </trkpt>
      <trkpt lat="43.95838" lon="7.29985">
        <ele>465.9</ele>
        <time>2013-09-06T08:29:39Z</time>
      </trkpt>
      <trkpt lat="43.95821" lon="7.29941">
        <ele>466.4</ele>
        <time>2013-09-06T08:29:46Z</time>
      </trkpt>
      <trkpt lat="43.95817" lon="7.29936">
        <ele>465.9</ele>
        <time>2013-09-06T08:29:47Z</time>
      </trkpt>
      <trkpt lat="43.95813" lon="7.29931">
        <ele>466.4</ele>
        <time>2013-09-06T08:29:48Z</time>
      </trkpt>
      <trkpt lat="43.95809" lon="7.29927">
        <ele>466.9</ele>
        <time>2013-09-06T08:29:49Z</time>
      </trkpt>
      <trkpt lat="43.95804" lon="7.29924">
        <ele>466.4</ele>
        <time>2013-09-06T08:29:50Z</time>
      </trkpt>
      <trkpt lat="43.95799" lon="7.29921">
        <ele>466.4</ele>
        <time>2013-09-06T08:29:51Z</time>
      </trkpt>
      <trkpt lat="43.95795" lon="7.29918">
        <ele>466.4</ele>
        <time>2013-09-06T08:29:52Z</time>
      </trkpt>
      <trkpt lat="43.9579" lon="7.29917">
        <ele>466.4</ele>
        <time>2013-09-06T08:29:53Z</time>
      </trkpt>
      <trkpt lat="43.95785" lon="7.29917">
        <ele>466.9</ele>
        <time>2013-09-06T08:29:54Z</time>
      </trkpt>
      <trkpt lat="43.9578" lon="7.29917">
        <ele>466.4</ele>
        <time>2013-09-06T08:29:55Z</time>
      </trkpt>
      <trkpt lat="43.95775" lon="7.29917">
        <ele>466.9</ele>
        <time>2013-09-06T08:29:56Z</time>
      </trkpt>
      <trkpt lat="43.95749" lon="7.2992">
        <ele>466.9</ele>
        <time>2013-09-06T08:30:01Z</time>
      </trkpt>
      <trkpt lat="43.95744" lon="7.29919">
        <ele>466.9</ele>
        <time>2013-09-06T08:30:02Z</time>
      </trkpt>
      <trkpt lat="43.95739" lon="7.29917">
        <ele>467.3</ele>
        <time>2013-09-06T08:30:03Z</time>
      </trkpt>
      <trkpt lat="43.95724" lon="7.29906">
        <ele>466.9</ele>
        <time>2013-09-06T08:30:06Z</time>
      </trkpt>
      <trkpt lat="43.95719" lon="7.29902">
        <ele>466.9</ele>
        <time>2013-09-06T08:30:07Z</time>
      </trkpt>
      <trkpt lat="43.95655" lon="7.29814">
        <ele>464.9</ele>
        <time>2013-09-06T08:30:22Z</time>
      </trkpt>
      <trkpt lat="43.95649" lon="7.29809">
        <ele>464.5</ele>
        <time>2013-09-06T08:30:23Z</time>
      </trkpt>
      <trkpt lat="43.95644" lon="7.29804">
        <ele>464.5</ele>
        <time>2013-09-06T08:30:24Z</time>
      </trkpt>
      <trkpt lat="43.95638" lon="7.298">
        <ele>464.5</ele>
        <time>2013-09-06T08:30:25Z</time>
      </trkpt>
      <trkpt lat="43.95591" lon="7.29775">
        <ele>461.6</ele>
        <time>2013-09-06T08:30:32Z</time>
      </trkpt>
      <trkpt lat="43.9556" lon="7.29762">
        <ele>459.7</ele>
        <time>2013-09-06T08:30:36Z</time>
      </trkpt>
      <trkpt lat="43.95542" lon="7.29759">
        <ele>458.7</ele>
        <time>2013-09-06T08:30:38Z</time>
      </trkpt>
      <trkpt lat="43.95498" lon="7.29763">
        <ele>456.3</ele>
        <time>2013-09-06T08:30:43Z</time>
      </trkpt>
      <trkpt lat="43.95489" lon="7.29761">
        <ele>456.3</ele>
        <time>2013-09-06T08:30:44Z</time>
      </trkpt>
      <trkpt lat="43.9548" lon="7.29757">
        <ele>455.8</ele>
        <time>2013-09-06T08:30:45Z</time>
      </trkpt>
      <trkpt lat="43.95471" lon="7.2975">
        <ele>454.8</ele>
        <time>2013-09-06T08:30:46Z</time>
      </trkpt>
      <trkpt lat="43.95464" lon="7.29739">
        <ele>453.9</ele>
        <time>2013-09-06T08:30:47Z</time>
      </trkpt>
      <trkpt lat="43.95459" lon="7.29728">
        <ele>453.4</ele>
        <time>2013-09-06T08:30:48Z</time>
      </trkpt>
      <trkpt lat="43.95453" lon="7.29716">
        <ele>453.9</ele>
        <time>2013-09-06T08:30:49Z</time>
      </trkpt>
      <trkpt lat="43.95436" lon="7.29681">
        <ele>451.5</ele>
        <time>2013-09-06T08:30:52Z</time>
      </trkpt>
      <trkpt lat="43.95382" lon="7.296">
        <ele>448.6</ele>
        <time>2013-09-06T08:31:00Z</time>
      </trkpt>
      <trkpt lat="43.95374" lon="7.29594">
        <ele>448.1</ele>
        <time>2013-09-06T08:31:01Z</time>
      </trkpt>
      <trkpt lat="43.95365" lon="7.29589">
        <ele>447.6</ele>
        <time>2013-09-06T08:31:02Z</time>
      </trkpt>
      <trkpt lat="43.95355" lon="7.29584">
        <ele>446.7</ele>
        <time>2013-09-06T08:31:03Z</time>
      </trkpt>
      <trkpt lat="43.95346" lon="7.29581">
        <ele>446.2</ele>
        <time>2013-09-06T08:31:04Z</time>
      </trkpt>
      <trkpt lat="43.95327" lon="7.29573">
        <ele>444.8</ele>
        <time>2013-09-06T08:31:06Z</time>
      </trkpt>
      <trkpt lat="43.95317" lon="7.29567">
        <ele>444.8</ele>
        <time>2013-09-06T08:31:07Z</time>
      </trkpt>
      <trkpt lat="43.9529" lon="7.2955">
        <ele>441.9</ele>
        <time>2013-09-06T08:31:10Z</time>
      </trkpt>
      <trkpt lat="43.9528" lon="7.29546">
        <ele>441.4</ele>
        <time>2013-09-06T08:31:11Z</time>
      </trkpt>
      <trkpt lat="43.95271" lon="7.29543">
        <ele>440.9</ele>
        <time>2013-09-06T08:31:12Z</time>
      </trkpt>
      <trkpt lat="43.95242" lon="7.29532">
        <ele>439.5</ele>
        <time>2013-09-06T08:31:15Z</time>
      </trkpt>
      <trkpt lat="43.95233" lon="7.29525">
        <ele>438</ele>
        <time>2013-09-06T08:31:16Z</time>
      </trkpt>
      <trkpt lat="43.95225" lon="7.29515">
        <ele>438</ele>
        <time>2013-09-06T08:31:17Z</time>
      </trkpt>
      <trkpt lat="43.95218" lon="7.29503">
        <ele>437.1</ele>
        <time>2013-09-06T08:31:18Z</time>
      </trkpt>
      <trkpt lat="43.95213" lon="7.29491">
        <ele>436.6</ele>
        <time>2013-09-06T08:31:19Z</time>
      </trkpt>
      <trkpt lat="43.95208" lon="7.29478">
        <ele>435.6</ele>
        <time>2013-09-06T08:31:20Z</time>
      </trkpt>
      <trkpt lat="43.95202" lon="7.29467">
        <ele>436.1</ele>
        <time>2013-09-06T08:31:21Z</time>
      </trkpt>
      <trkpt lat="43.95195" lon="7.29458">
        <ele>435.1</ele>
        <time>2013-09-06T08:31:22Z</time>
      </trkpt>
      <trkpt lat="43.95186" lon="7.29449">
        <ele>434.7</ele>
        <time>2013-09-06T08:31:23Z</time>
      </trkpt>
      <trkpt lat="43.95159" lon="7.29426">
        <ele>432.3</ele>
        <time>2013-09-06T08:31:26Z</time>
      </trkpt>
      <trkpt lat="43.95151" lon="7.29416">
        <ele>431.8</ele>
        <time>2013-09-06T08:31:27Z</time>
      </trkpt>
      <trkpt lat="43.95145" lon="7.29404">
        <ele>430.8</ele>
        <time>2013-09-06T08:31:28Z</time>
      </trkpt>
      <trkpt lat="43.9514" lon="7.29391">
        <ele>430.8</ele>
        <time>2013-09-06T08:31:29Z</time>
      </trkpt>
      <trkpt lat="43.95136" lon="7.29377">
        <ele>429.9</ele>
        <time>2013-09-06T08:31:30Z</time>
      </trkpt>
      <trkpt lat="43.95122" lon="7.29323">
        <ele>427.9</ele>
        <time>2013-09-06T08:31:34Z</time>
      </trkpt>
      <trkpt lat="43.95108" lon="7.29272">
        <ele>425.5</ele>
        <time>2013-09-06T08:31:38Z</time>
      </trkpt>
      <trkpt lat="43.95102" lon="7.29261">
        <ele>425.5</ele>
        <time>2013-09-06T08:31:39Z</time>
      </trkpt>
      <trkpt lat="43.95094" lon="7.29252">
        <ele>425</ele>
        <time>2013-09-06T08:31:40Z</time>
      </trkpt>
      <trkpt lat="43.95087" lon="7.29244">
        <ele>424.6</ele>
        <time>2013-09-06T08:31:41Z</time>
      </trkpt>
      <trkpt lat="43.95079" lon="7.29236">
        <ele>424.6</ele>
        <time>2013-09-06T08:31:42Z</time>
      </trkpt>
      <trkpt lat="43.95056" lon="7.29213">
        <ele>422.6</ele>
        <time>2013-09-06T08:31:45Z</time>
      </trkpt>
      <trkpt lat="43.95013" lon="7.29168">
        <ele>419.3</ele>
        <time>2013-09-06T08:31:51Z</time>
      </trkpt>
      <trkpt lat="43.94987" lon="7.2914">
        <ele>416.4</ele>
        <time>2013-09-06T08:31:54Z</time>
      </trkpt>
      <trkpt lat="43.94958" lon="7.29109">
        <ele>413.5</ele>
        <time>2013-09-06T08:31:58Z</time>
      </trkpt>
      <trkpt lat="43.9495" lon="7.29023">
        <ele>410.6</ele>
        <time>2013-09-06T08:32:01Z</time>
      </trkpt>
      <trkpt lat="43.94946" lon="7.29007">
        <ele>410.6</ele>
        <time>2013-09-06T08:32:02Z</time>
      </trkpt>
      <trkpt lat="43.94941" lon="7.28977">
        <ele>409.7</ele>
        <time>2013-09-06T08:32:04Z</time>
      </trkpt>
      <trkpt lat="43.94931" lon="7.28917">
        <ele>406.3</ele>
        <time>2013-09-06T08:32:08Z</time>
      </trkpt>
      <trkpt lat="43.94915" lon="7.28834">
        <ele>403.4</ele>
        <time>2013-09-06T08:32:14Z</time>
      </trkpt>
      <trkpt lat="43.94911" lon="7.28822">
        <ele>402.9</ele>
        <time>2013-09-06T08:32:15Z</time>
      </trkpt>
      <trkpt lat="43.94905" lon="7.28811">
        <ele>403.4</ele>
        <time>2013-09-06T08:32:16Z</time>
      </trkpt>
      <trkpt lat="43.94898" lon="7.28801">
        <ele>402.5</ele>
        <time>2013-09-06T08:32:17Z</time>
      </trkpt>
      <trkpt lat="43.94892" lon="7.28792">
        <ele>402</ele>
        <time>2013-09-06T08:32:18Z</time>
      </trkpt>
      <trkpt lat="43.94885" lon="7.28784">
        <ele>402</ele>
        <time>2013-09-06T08:32:19Z</time>
      </trkpt>
      <trkpt lat="43.94856" lon="7.28748">
        <ele>400.1</ele>
        <time>2013-09-06T08:32:23Z</time>
      </trkpt>
      <trkpt lat="43.94849" lon="7.28741">
        <ele>399.6</ele>
        <time>2013-09-06T08:32:24Z</time>
      </trkpt>
      <trkpt lat="43.9484" lon="7.28735">
        <ele>399.6</ele>
        <time>2013-09-06T08:32:25Z</time>
      </trkpt>
      <trkpt lat="43.94799" lon="7.28707">
        <ele>397.2</ele>
        <time>2013-09-06T08:32:30Z</time>
      </trkpt>
      <trkpt lat="43.94791" lon="7.28698">
        <ele>396.2</ele>
        <time>2013-09-06T08:32:31Z</time>
      </trkpt>
      <trkpt lat="43.94785" lon="7.28688">
        <ele>395.7</ele>
        <time>2013-09-06T08:32:32Z</time>
      </trkpt>
      <trkpt lat="43.94779" lon="7.28676">
        <ele>394.8</ele>
        <time>2013-09-06T08:32:33Z</time>
      </trkpt>
      <trkpt lat="43.94774" lon="7.28665">
        <ele>394.8</ele>
        <time>2013-09-06T08:32:34Z</time>
      </trkpt>
      <trkpt lat="43.9477" lon="7.28652">
        <ele>394.3</ele>
        <time>2013-09-06T08:32:35Z</time>
      </trkpt>
      <trkpt lat="43.94745" lon="7.28578">
        <ele>390.9</ele>
        <time>2013-09-06T08:32:41Z</time>
      </trkpt>
      <trkpt lat="43.94741" lon="7.28566">
        <ele>390.9</ele>
        <time>2013-09-06T08:32:42Z</time>
      </trkpt>
      <trkpt lat="43.94724" lon="7.28517">
        <ele>388</ele>
        <time>2013-09-06T08:32:46Z</time>
      </trkpt>
      <trkpt lat="43.94719" lon="7.28505">
        <ele>388</ele>
        <time>2013-09-06T08:32:47Z</time>
      </trkpt>
      <trkpt lat="43.94703" lon="7.28472">
        <ele>386.6</ele>
        <time>2013-09-06T08:32:50Z</time>
      </trkpt>
      <trkpt lat="43.94688" lon="7.28454">
        <ele>385.2</ele>
        <time>2013-09-06T08:32:52Z</time>
      </trkpt>
      <trkpt lat="43.9468" lon="7.28447">
        <ele>385.2</ele>
        <time>2013-09-06T08:32:53Z</time>
      </trkpt>
      <trkpt lat="43.94672" lon="7.28441">
        <ele>385.2</ele>
        <time>2013-09-06T08:32:54Z</time>
      </trkpt>
      <trkpt lat="43.94664" lon="7.28435">
        <ele>384.7</ele>
        <time>2013-09-06T08:32:55Z</time>
      </trkpt>
      <trkpt lat="43.94655" lon="7.2843">
        <ele>384.2</ele>
        <time>2013-09-06T08:32:56Z</time>
      </trkpt>
      <trkpt lat="43.94647" lon="7.28426">
        <ele>384.7</ele>
        <time>2013-09-06T08:32:57Z</time>
      </trkpt>
      <trkpt lat="43.94541" lon="7.28377">
        <ele>381.3</ele>
        <time>2013-09-06T08:33:10Z</time>
      </trkpt>
      <trkpt lat="43.94413" lon="7.28317">
        <ele>377.9</ele>
        <time>2013-09-06T08:33:27Z</time>
      </trkpt>
      <trkpt lat="43.94275" lon="7.28267">
        <ele>375.5</ele>
        <time>2013-09-06T08:33:46Z</time>
      </trkpt>
      <trkpt lat="43.94246" lon="7.28273">
        <ele>374.6</ele>
        <time>2013-09-06T08:33:50Z</time>
      </trkpt>
      <trkpt lat="43.9424" lon="7.28277">
        <ele>374.1</ele>
        <time>2013-09-06T08:33:51Z</time>
      </trkpt>
      <trkpt lat="43.94166" lon="7.28337">
        <ele>374.6</ele>
        <time>2013-09-06T08:34:04Z</time>
      </trkpt>
      <trkpt lat="43.94149" lon="7.28348">
        <ele>374.6</ele>
        <time>2013-09-06T08:34:07Z</time>
      </trkpt>
      <trkpt lat="43.94144" lon="7.2835">
        <ele>374.1</ele>
        <time>2013-09-06T08:34:08Z</time>
      </trkpt>
      <trkpt lat="43.94138" lon="7.28352">
        <ele>374.1</ele>
        <time>2013-09-06T08:34:09Z</time>
      </trkpt>
      <trkpt lat="43.94061" lon="7.28374">
        <ele>372.2</ele>
        <time>2013-09-06T08:34:23Z</time>
      </trkpt>
      <trkpt lat="43.93985" lon="7.28364">
        <ele>372.2</ele>
        <time>2013-09-06T08:34:35Z</time>
      </trkpt>
      <trkpt lat="43.93973" lon="7.28358">
        <ele>372.7</ele>
        <time>2013-09-06T08:34:37Z</time>
      </trkpt>
      <trkpt lat="43.93949" lon="7.28344">
        <ele>371.7</ele>
        <time>2013-09-06T08:34:41Z</time>
      </trkpt>
      <trkpt lat="43.93944" lon="7.28339">
        <ele>371.2</ele>
        <time>2013-09-06T08:34:42Z</time>
      </trkpt>
      <trkpt lat="43.93939" lon="7.28333">
        <ele>371.2</ele>
        <time>2013-09-06T08:34:43Z</time>
      </trkpt>
      <trkpt lat="43.93863" lon="7.2821">
        <ele>370.2</ele>
        <time>2013-09-06T08:35:00Z</time>
      </trkpt>
      <trkpt lat="43.93822" lon="7.28139">
        <ele>369.8</ele>
        <time>2013-09-06T08:35:10Z</time>
      </trkpt>
      <trkpt lat="43.9382" lon="7.28131">
        <ele>370.2</ele>
        <time>2013-09-06T08:35:11Z</time>
      </trkpt>
      <trkpt lat="43.93813" lon="7.28066">
        <ele>370.2</ele>
        <time>2013-09-06T08:35:18Z</time>
      </trkpt>
      <trkpt lat="43.93814" lon="7.28057">
        <ele>370.2</ele>
        <time>2013-09-06T08:35:19Z</time>
      </trkpt>
      <trkpt lat="43.93818" lon="7.28019">
        <ele>370.7</ele>
        <time>2013-09-06T08:35:23Z</time>
      </trkpt>
      <trkpt lat="43.9382" lon="7.28">
        <ele>369.3</ele>
        <time>2013-09-06T08:35:25Z</time>
      </trkpt>
      <trkpt lat="43.93822" lon="7.27854">
        <ele>368.8</ele>
        <time>2013-09-06T08:35:40Z</time>
      </trkpt>
      <trkpt lat="43.9382" lon="7.27844">
        <ele>368.3</ele>
        <time>2013-09-06T08:35:41Z</time>
      </trkpt>
      <trkpt lat="43.93818" lon="7.27834">
        <ele>368.3</ele>
        <time>2013-09-06T08:35:42Z</time>
      </trkpt>
      <trkpt lat="43.93815" lon="7.27825">
        <ele>367.8</ele>
        <time>2013-09-06T08:35:43Z</time>
      </trkpt>
      <trkpt lat="43.9377" lon="7.27694">
        <ele>365.9</ele>
        <time>2013-09-06T08:35:58Z</time>
      </trkpt>
      <trkpt lat="43.93751" lon="7.27641">
        <ele>364.5</ele>
        <time>2013-09-06T08:36:04Z</time>
      </trkpt>
      <trkpt lat="43.93748" lon="7.27633">
        <ele>364.5</ele>
        <time>2013-09-06T08:36:05Z</time>
      </trkpt>
      <trkpt lat="43.93699" lon="7.27521">
        <ele>363</ele>
        <time>2013-09-06T08:36:18Z</time>
      </trkpt>
      <trkpt lat="43.93638" lon="7.27412">
        <ele>360.6</ele>
        <time>2013-09-06T08:36:32Z</time>
      </trkpt>
      <trkpt lat="43.9361" lon="7.27288">
        <ele>359.7</ele>
        <time>2013-09-06T08:36:45Z</time>
      </trkpt>
      <trkpt lat="43.93608" lon="7.27267">
        <ele>359.2</ele>
        <time>2013-09-06T08:36:47Z</time>
      </trkpt>
      <trkpt lat="43.93609" lon="7.27215">
        <ele>358.7</ele>
        <time>2013-09-06T08:36:52Z</time>
      </trkpt>
      <trkpt lat="43.93605" lon="7.27186">
        <ele>358.2</ele>
        <time>2013-09-06T08:36:55Z</time>
      </trkpt>
      <trkpt lat="43.93603" lon="7.27177">
        <ele>358.2</ele>
        <time>2013-09-06T08:36:56Z</time>
      </trkpt>
      <trkpt lat="43.93576" lon="7.27062">
        <ele>356.8</ele>
        <time>2013-09-06T08:37:08Z</time>
      </trkpt>
      <trkpt lat="43.93544" lon="7.26936">
        <ele>353.4</ele>
        <time>2013-09-06T08:37:21Z</time>
      </trkpt>
      <trkpt lat="43.93539" lon="7.26906">
        <ele>353.4</ele>
        <time>2013-09-06T08:37:24Z</time>
      </trkpt>
      <trkpt lat="43.93538" lon="7.26896">
        <ele>353.4</ele>
        <time>2013-09-06T08:37:25Z</time>
      </trkpt>
      <trkpt lat="43.93538" lon="7.26855">
        <ele>352</ele>
        <time>2013-09-06T08:37:29Z</time>
      </trkpt>
      <trkpt lat="43.93541" lon="7.26836">
        <ele>351.5</ele>
        <time>2013-09-06T08:37:31Z</time>
      </trkpt>
      <trkpt lat="43.93543" lon="7.26828">
        <ele>351</ele>
        <time>2013-09-06T08:37:32Z</time>
      </trkpt>
      <trkpt lat="43.9355" lon="7.26797">
        <ele>350.5</ele>
        <time>2013-09-06T08:37:35Z</time>
      </trkpt>
      <trkpt lat="43.93551" lon="7.26786">
        <ele>349.6</ele>
        <time>2013-09-06T08:37:36Z</time>
      </trkpt>
      <trkpt lat="43.9355" lon="7.26775">
        <ele>349.6</ele>
        <time>2013-09-06T08:37:37Z</time>
      </trkpt>
      <trkpt lat="43.93539" lon="7.26681">
        <ele>346.2</ele>
        <time>2013-09-06T08:37:45Z</time>
      </trkpt>
      <trkpt lat="43.93518" lon="7.26574">
        <ele>342.9</ele>
        <time>2013-09-06T08:37:54Z</time>
      </trkpt>
      <trkpt lat="43.93505" lon="7.26528">
        <ele>342.4</ele>
        <time>2013-09-06T08:37:58Z</time>
      </trkpt>
      <trkpt lat="43.935" lon="7.26519">
        <ele>341.9</ele>
        <time>2013-09-06T08:37:59Z</time>
      </trkpt>
      <trkpt lat="43.93495" lon="7.26511">
        <ele>340.4</ele>
        <time>2013-09-06T08:38:00Z</time>
      </trkpt>
      <trkpt lat="43.93489" lon="7.26502">
        <ele>340.9</ele>
        <time>2013-09-06T08:38:01Z</time>
      </trkpt>
      <trkpt lat="43.93482" lon="7.26495">
        <ele>340</ele>
        <time>2013-09-06T08:38:02Z</time>
      </trkpt>
      <trkpt lat="43.93475" lon="7.26488">
        <ele>340</ele>
        <time>2013-09-06T08:38:03Z</time>
      </trkpt>
      <trkpt lat="43.93467" lon="7.26485">
        <ele>339.5</ele>
        <time>2013-09-06T08:38:04Z</time>
      </trkpt>
      <trkpt lat="43.93459" lon="7.26481">
        <ele>339.5</ele>
        <time>2013-09-06T08:38:05Z</time>
      </trkpt>
      <trkpt lat="43.93428" lon="7.26468">
        <ele>338</ele>
        <time>2013-09-06T08:38:09Z</time>
      </trkpt>
      <trkpt lat="43.9342" lon="7.26467">
        <ele>338</ele>
        <time>2013-09-06T08:38:10Z</time>
      </trkpt>
      <trkpt lat="43.93412" lon="7.26469">
        <ele>337.6</ele>
        <time>2013-09-06T08:38:11Z</time>
      </trkpt>
      <trkpt lat="43.93404" lon="7.26472">
        <ele>337.6</ele>
        <time>2013-09-06T08:38:12Z</time>
      </trkpt>
      <trkpt lat="43.93365" lon="7.26493">
        <ele>336.1</ele>
        <time>2013-09-06T08:38:17Z</time>
      </trkpt>
      <trkpt lat="43.93263" lon="7.26557">
        <ele>334.7</ele>
        <time>2013-09-06T08:38:31Z</time>
      </trkpt>
      <trkpt lat="43.93212" lon="7.26583">
        <ele>333.7</ele>
        <time>2013-09-06T08:38:39Z</time>
      </trkpt>
      <trkpt lat="43.93206" lon="7.26591">
        <ele>334.2</ele>
        <time>2013-09-06T08:38:40Z</time>
      </trkpt>
      <trkpt lat="43.93134" lon="7.26607">
        <ele>335.6</ele>
        <time>2013-09-06T08:38:53Z</time>
      </trkpt>
      <trkpt lat="43.93105" lon="7.26593">
        <ele>336.1</ele>
        <time>2013-09-06T08:38:59Z</time>
      </trkpt>
      <trkpt lat="43.9306" lon="7.26572">
        <ele>338</ele>
        <time>2013-09-06T08:39:09Z</time>
      </trkpt>
      <trkpt lat="43.93055" lon="7.26572">
        <ele>337.6</ele>
        <time>2013-09-06T08:39:10Z</time>
      </trkpt>
      <trkpt lat="43.9305" lon="7.26572">
        <ele>338</ele>
        <time>2013-09-06T08:39:11Z</time>
      </trkpt>
      <trkpt lat="43.92988" lon="7.26595">
        <ele>339.5</ele>
        <time>2013-09-06T08:39:25Z</time>
      </trkpt>
      <trkpt lat="43.92928" lon="7.2663">
        <ele>340.4</ele>
        <time>2013-09-06T08:39:39Z</time>
      </trkpt>
      <trkpt lat="43.92918" lon="7.26635">
        <ele>340.4</ele>
        <time>2013-09-06T08:39:41Z</time>
      </trkpt>
      <trkpt lat="43.92913" lon="7.26635">
        <ele>340.4</ele>
        <time>2013-09-06T08:39:42Z</time>
      </trkpt>
      <trkpt lat="43.92909" lon="7.26633">
        <ele>340.4</ele>
        <time>2013-09-06T08:39:43Z</time>
      </trkpt>
      <trkpt lat="43.92904" lon="7.26631">
        <ele>341.4</ele>
        <time>2013-09-06T08:39:44Z</time>
      </trkpt>
      <trkpt lat="43.929" lon="7.26628">
        <ele>340.9</ele>
        <time>2013-09-06T08:39:45Z</time>
      </trkpt>
      <trkpt lat="43.92871" lon="7.26617">
        <ele>341.4</ele>
        <time>2013-09-06T08:39:51Z</time>
      </trkpt>
      <trkpt lat="43.92792" lon="7.26606">
        <ele>340.9</ele>
        <time>2013-09-06T08:40:05Z</time>
      </trkpt>
      <trkpt lat="43.92757" lon="7.26599">
        <ele>340</ele>
        <time>2013-09-06T08:40:11Z</time>
      </trkpt>
      <trkpt lat="43.92751" lon="7.26597">
        <ele>340.4</ele>
        <time>2013-09-06T08:40:12Z</time>
      </trkpt>
      <trkpt lat="43.92712" lon="7.26574">
        <ele>340</ele>
        <time>2013-09-06T08:40:19Z</time>
      </trkpt>
      <trkpt lat="43.92707" lon="7.26569">
        <ele>339.5</ele>
        <time>2013-09-06T08:40:20Z</time>
      </trkpt>
      <trkpt lat="43.92703" lon="7.26563">
        <ele>339.5</ele>
        <time>2013-09-06T08:40:21Z</time>
      </trkpt>
      <trkpt lat="43.9269" lon="7.26547">
        <ele>339.5</ele>
        <time>2013-09-06T08:40:24Z</time>
      </trkpt>
      <trkpt lat="43.9268" lon="7.26538">
        <ele>339.5</ele>
        <time>2013-09-06T08:40:26Z</time>
      </trkpt>
      <trkpt lat="43.92674" lon="7.26534">
        <ele>339.5</ele>
        <time>2013-09-06T08:40:27Z</time>
      </trkpt>
      <trkpt lat="43.92669" lon="7.2653">
        <ele>339</ele>
        <time>2013-09-06T08:40:28Z</time>
      </trkpt>
      <trkpt lat="43.92613" lon="7.26481">
        <ele>335.2</ele>
        <time>2013-09-06T08:40:37Z</time>
      </trkpt>
      <trkpt lat="43.92608" lon="7.26473">
        <ele>335.2</ele>
        <time>2013-09-06T08:40:38Z</time>
      </trkpt>
      <trkpt lat="43.92579" lon="7.2643">
        <ele>333.7</ele>
        <time>2013-09-06T08:40:43Z</time>
      </trkpt>
      <trkpt lat="43.92572" lon="7.26424">
        <ele>333.7</ele>
        <time>2013-09-06T08:40:44Z</time>
      </trkpt>
      <trkpt lat="43.92563" lon="7.26422">
        <ele>332.8</ele>
        <time>2013-09-06T08:40:45Z</time>
      </trkpt>
      <trkpt lat="43.92553" lon="7.26423">
        <ele>332.8</ele>
        <time>2013-09-06T08:40:46Z</time>
      </trkpt>
      <trkpt lat="43.92545" lon="7.26425">
        <ele>332.8</ele>
        <time>2013-09-06T08:40:47Z</time>
      </trkpt>
      <trkpt lat="43.92537" lon="7.26431">
        <ele>332.3</ele>
        <time>2013-09-06T08:40:48Z</time>
      </trkpt>
      <trkpt lat="43.92503" lon="7.26452">
        <ele>329.4</ele>
        <time>2013-09-06T08:40:52Z</time>
      </trkpt>
      <trkpt lat="43.92487" lon="7.26458">
        <ele>328.9</ele>
        <time>2013-09-06T08:40:54Z</time>
      </trkpt>
      <trkpt lat="43.92478" lon="7.26459">
        <ele>328.4</ele>
        <time>2013-09-06T08:40:55Z</time>
      </trkpt>
      <trkpt lat="43.92469" lon="7.26457">
        <ele>328</ele>
        <time>2013-09-06T08:40:56Z</time>
      </trkpt>
      <trkpt lat="43.92461" lon="7.26454">
        <ele>328</ele>
        <time>2013-09-06T08:40:57Z</time>
      </trkpt>
      <trkpt lat="43.92453" lon="7.26449">
        <ele>328</ele>
        <time>2013-09-06T08:40:58Z</time>
      </trkpt>
      <trkpt lat="43.92418" lon="7.26412">
        <ele>326</ele>
        <time>2013-09-06T08:41:03Z</time>
      </trkpt>
      <trkpt lat="43.9241" lon="7.26407">
        <ele>326</ele>
        <time>2013-09-06T08:41:04Z</time>
      </trkpt>
      <trkpt lat="43.92394" lon="7.26398">
        <ele>324.6</ele>
        <time>2013-09-06T08:41:06Z</time>
      </trkpt>
      <trkpt lat="43.92375" lon="7.26393">
        <ele>324.6</ele>
        <time>2013-09-06T08:41:08Z</time>
      </trkpt>
      <trkpt lat="43.92367" lon="7.26394">
        <ele>324.1</ele>
        <time>2013-09-06T08:41:09Z</time>
      </trkpt>
      <trkpt lat="43.92358" lon="7.26399">
        <ele>324.1</ele>
        <time>2013-09-06T08:41:10Z</time>
      </trkpt>
      <trkpt lat="43.92351" lon="7.26405">
        <ele>323.6</ele>
        <time>2013-09-06T08:41:11Z</time>
      </trkpt>
      <trkpt lat="43.92346" lon="7.26413">
        <ele>324.1</ele>
        <time>2013-09-06T08:41:12Z</time>
      </trkpt>
      <trkpt lat="43.92343" lon="7.26425">
        <ele>324.1</ele>
        <time>2013-09-06T08:41:13Z</time>
      </trkpt>
      <trkpt lat="43.92339" lon="7.26434">
        <ele>323.6</ele>
        <time>2013-09-06T08:41:14Z</time>
      </trkpt>
      <trkpt lat="43.92312" lon="7.26483">
        <ele>323.6</ele>
        <time>2013-09-06T08:41:20Z</time>
      </trkpt>
      <trkpt lat="43.92307" lon="7.26488">
        <ele>323.6</ele>
        <time>2013-09-06T08:41:21Z</time>
      </trkpt>
      <trkpt lat="43.92278" lon="7.26511">
        <ele>324.1</ele>
        <time>2013-09-06T08:41:26Z</time>
      </trkpt>
      <trkpt lat="43.92273" lon="7.2651">
        <ele>325.1</ele>
        <time>2013-09-06T08:41:27Z</time>
      </trkpt>
      <trkpt lat="43.92268" lon="7.26507">
        <ele>324.6</ele>
        <time>2013-09-06T08:41:28Z</time>
      </trkpt>
      <trkpt lat="43.92189" lon="7.26486">
        <ele>326.5</ele>
        <time>2013-09-06T08:41:45Z</time>
      </trkpt>
      <trkpt lat="43.92184" lon="7.26486">
        <ele>327</ele>
        <time>2013-09-06T08:41:46Z</time>
      </trkpt>
      <trkpt lat="43.92121" lon="7.26502">
        <ele>328.9</ele>
        <time>2013-09-06T08:42:02Z</time>
      </trkpt>
      <trkpt lat="43.92058" lon="7.26497">
        <ele>330.8</ele>
        <time>2013-09-06T08:42:18Z</time>
      </trkpt>
      <trkpt lat="43.92042" lon="7.26493">
        <ele>331.3</ele>
        <time>2013-09-06T08:42:22Z</time>
      </trkpt>
      <trkpt lat="43.92021" lon="7.26494">
        <ele>331.3</ele>
        <time>2013-09-06T08:42:27Z</time>
      </trkpt>
      <trkpt lat="43.92017" lon="7.26493">
        <ele>331.8</ele>
        <time>2013-09-06T08:42:28Z</time>
      </trkpt>
      <trkpt lat="43.92014" lon="7.26491">
        <ele>331.8</ele>
        <time>2013-09-06T08:42:29Z</time>
      </trkpt>
      <trkpt lat="43.9201" lon="7.26489">
        <ele>331.8</ele>
        <time>2013-09-06T08:42:30Z</time>
      </trkpt>
      <trkpt lat="43.92007" lon="7.26486">
        <ele>332.3</ele>
        <time>2013-09-06T08:42:31Z</time>
      </trkpt>
      <trkpt lat="43.91975" lon="7.26483">
        <ele>331.8</ele>
        <time>2013-09-06T08:42:41Z</time>
      </trkpt>
      <trkpt lat="43.91964" lon="7.26502">
        <ele>331.8</ele>
        <time>2013-09-06T08:42:50Z</time>
      </trkpt>
      <trkpt lat="43.91963" lon="7.26504">
        <ele>331.8</ele>
        <time>2013-09-06T08:43:16Z</time>
      </trkpt>
      <trkpt lat="43.91963" lon="7.26505">
        <ele>331.8</ele>
        <time>2013-09-06T08:43:17Z</time>
      </trkpt>
      <trkpt lat="43.91963" lon="7.26507">
        <ele>331.8</ele>
        <time>2013-09-06T08:43:18Z</time>
      </trkpt>
      <trkpt lat="43.91962" lon="7.26509">
        <ele>331.8</ele>
        <time>2013-09-06T08:43:19Z</time>
      </trkpt>
      <trkpt lat="43.9196" lon="7.26512">
        <ele>331.8</ele>
        <time>2013-09-06T08:43:20Z</time>
      </trkpt>
      <trkpt lat="43.91958" lon="7.26516">
        <ele>331.8</ele>
        <time>2013-09-06T08:43:21Z</time>
      </trkpt>
      <trkpt lat="43.91947" lon="7.26536">
        <ele>331.3</ele>
        <time>2013-09-06T08:43:26Z</time>
      </trkpt>
      <trkpt lat="43.91929" lon="7.26557">
        <ele>330.4</ele>
        <time>2013-09-06T08:43:31Z</time>
      </trkpt>
      <trkpt lat="43.91924" lon="7.26559">
        <ele>330.4</ele>
        <time>2013-09-06T08:43:32Z</time>
      </trkpt>
      <trkpt lat="43.9191" lon="7.26565">
        <ele>330.4</ele>
        <time>2013-09-06T08:43:35Z</time>
      </trkpt>
      <trkpt lat="43.91905" lon="7.26568">
        <ele>329.9</ele>
        <time>2013-09-06T08:43:36Z</time>
      </trkpt>
      <trkpt lat="43.91895" lon="7.26574">
        <ele>330.4</ele>
        <time>2013-09-06T08:43:38Z</time>
      </trkpt>
      <trkpt lat="43.9189" lon="7.26576">
        <ele>329.9</ele>
        <time>2013-09-06T08:43:39Z</time>
      </trkpt>
      <trkpt lat="43.91884" lon="7.26578">
        <ele>328.9</ele>
        <time>2013-09-06T08:43:40Z</time>
      </trkpt>
      <trkpt lat="43.91831" lon="7.26586">
        <ele>328</ele>
        <time>2013-09-06T08:43:48Z</time>
      </trkpt>
      <trkpt lat="43.91804" lon="7.26582">
        <ele>328</ele>
        <time>2013-09-06T08:43:52Z</time>
      </trkpt>
      <trkpt lat="43.91752" lon="7.26564">
        <ele>328</ele>
        <time>2013-09-06T08:44:01Z</time>
      </trkpt>
      <trkpt lat="43.9174" lon="7.26558">
        <ele>328.9</ele>
        <time>2013-09-06T08:44:03Z</time>
      </trkpt>
      <trkpt lat="43.91658" lon="7.26502">
        <ele>328.9</ele>
        <time>2013-09-06T08:44:18Z</time>
      </trkpt>
      <trkpt lat="43.91634" lon="7.26488">
        <ele>329.4</ele>
        <time>2013-09-06T08:44:27Z</time>
      </trkpt>
      <trkpt lat="43.91615" lon="7.26463">
        <ele>331.3</ele>
        <time>2013-09-06T08:44:38Z</time>
      </trkpt>
      <trkpt lat="43.9158" lon="7.26436">
        <ele>334.7</ele>
        <time>2013-09-06T08:44:54Z</time>
      </trkpt>
      <trkpt lat="43.91544" lon="7.26408">
        <ele>336.6</ele>
        <time>2013-09-06T08:45:10Z</time>
      </trkpt>
      <trkpt lat="43.91507" lon="7.26376">
        <ele>340</ele>
        <time>2013-09-06T08:45:28Z</time>
      </trkpt>
      <trkpt lat="43.91466" lon="7.26344">
        <ele>343.3</ele>
        <time>2013-09-06T08:45:47Z</time>
      </trkpt>
      <trkpt lat="43.91453" lon="7.26335">
        <ele>343.8</ele>
        <time>2013-09-06T08:45:53Z</time>
      </trkpt>
      <trkpt lat="43.91419" lon="7.26321">
        <ele>346.2</ele>
        <time>2013-09-06T08:46:08Z</time>
      </trkpt>
      <trkpt lat="43.91382" lon="7.26309">
        <ele>349.1</ele>
        <time>2013-09-06T08:46:23Z</time>
      </trkpt>
      <trkpt lat="43.91363" lon="7.26308">
        <ele>351</ele>
        <time>2013-09-06T08:46:35Z</time>
      </trkpt>
      <trkpt lat="43.91318" lon="7.26283">
        <ele>353.4</ele>
        <time>2013-09-06T08:46:50Z</time>
      </trkpt>
      <trkpt lat="43.91301" lon="7.26321">
        <ele>354.9</ele>
        <time>2013-09-06T08:47:03Z</time>
      </trkpt>
      <trkpt lat="43.91289" lon="7.26374">
        <ele>358.2</ele>
        <time>2013-09-06T08:47:20Z</time>
      </trkpt>
      <trkpt lat="43.91298" lon="7.26409">
        <ele>359.7</ele>
        <time>2013-09-06T08:47:32Z</time>
      </trkpt>
      <trkpt lat="43.91301" lon="7.26461">
        <ele>362.1</ele>
        <time>2013-09-06T08:47:47Z</time>
      </trkpt>
      <trkpt lat="43.91284" lon="7.26515">
        <ele>365</ele>
        <time>2013-09-06T08:48:05Z</time>
      </trkpt>
      <trkpt lat="43.91259" lon="7.26555">
        <ele>367.4</ele>
        <time>2013-09-06T08:48:21Z</time>
      </trkpt>
      <trkpt lat="43.91229" lon="7.266">
        <ele>369.8</ele>
        <time>2013-09-06T08:48:39Z</time>
      </trkpt>
      <trkpt lat="43.91225" lon="7.26638">
        <ele>372.7</ele>
        <time>2013-09-06T08:48:51Z</time>
      </trkpt>
      <trkpt lat="43.91226" lon="7.26641">
        <ele>372.7</ele>
        <time>2013-09-06T08:48:52Z</time>
      </trkpt>
      <trkpt lat="43.91227" lon="7.26643">
        <ele>372.7</ele>
        <time>2013-09-06T08:48:53Z</time>
      </trkpt>
      <trkpt lat="43.91228" lon="7.26644">
        <ele>372.2</ele>
        <time>2013-09-06T08:48:54Z</time>
      </trkpt>
      <trkpt lat="43.91231" lon="7.26647">
        <ele>373.1</ele>
        <time>2013-09-06T08:48:57Z</time>
      </trkpt>
      <trkpt lat="43.91217" lon="7.26678">
        <ele>375.1</ele>
        <time>2013-09-06T08:49:09Z</time>
      </trkpt>
      <trkpt lat="43.91187" lon="7.2667">
        <ele>377</ele>
        <time>2013-09-06T08:49:24Z</time>
      </trkpt>
      <trkpt lat="43.91183" lon="7.26665">
        <ele>377.9</ele>
        <time>2013-09-06T08:49:35Z</time>
      </trkpt>
      <trkpt lat="43.91186" lon="7.26664">
        <ele>377.5</ele>
        <time>2013-09-06T08:50:09Z</time>
      </trkpt>
      <trkpt lat="43.91188" lon="7.26661">
        <ele>377.5</ele>
        <time>2013-09-06T08:50:42Z</time>
      </trkpt>
      <trkpt lat="43.91185" lon="7.2666">
        <ele>377.5</ele>
        <time>2013-09-06T08:51:15Z</time>
      </trkpt>
      <trkpt lat="43.91184" lon="7.26659">
        <ele>377.5</ele>
        <time>2013-09-06T08:51:16Z</time>
      </trkpt>
      <trkpt lat="43.91182" lon="7.26657">
        <ele>377.5</ele>
        <time>2013-09-06T08:51:17Z</time>
      </trkpt>
      <trkpt lat="43.91181" lon="7.26656">
        <ele>377.5</ele>
        <time>2013-09-06T08:51:18Z</time>
      </trkpt>
      <trkpt lat="43.91179" lon="7.26654">
        <ele>377.5</ele>
        <time>2013-09-06T08:51:19Z</time>
      </trkpt>
      <trkpt lat="43.91177" lon="7.26652">
        <ele>377.5</ele>
        <time>2013-09-06T08:51:20Z</time>
      </trkpt>
      <trkpt lat="43.91176" lon="7.26649">
        <ele>377.9</ele>
        <time>2013-09-06T08:51:21Z</time>
      </trkpt>
      <trkpt lat="43.91156" lon="7.26619">
        <ele>379.9</ele>
        <time>2013-09-06T08:51:34Z</time>
      </trkpt>
      <trkpt lat="43.91152" lon="7.26565">
        <ele>381.8</ele>
        <time>2013-09-06T08:51:50Z</time>
      </trkpt>
      <trkpt lat="43.91165" lon="7.26504">
        <ele>383.2</ele>
        <time>2013-09-06T08:52:06Z</time>
      </trkpt>
      <trkpt lat="43.91162" lon="7.26463">
        <ele>386.1</ele>
        <time>2013-09-06T08:52:18Z</time>
      </trkpt>
      <trkpt lat="43.91138" lon="7.26438">
        <ele>388</ele>
        <time>2013-09-06T08:52:31Z</time>
      </trkpt>
      <trkpt lat="43.91101" lon="7.26421">
        <ele>391.4</ele>
        <time>2013-09-06T08:52:46Z</time>
      </trkpt>
      <trkpt lat="43.91059" lon="7.26407">
        <ele>393.3</ele>
        <time>2013-09-06T08:53:02Z</time>
      </trkpt>
      <trkpt lat="43.91018" lon="7.26389">
        <ele>396.2</ele>
        <time>2013-09-06T08:53:19Z</time>
      </trkpt>
      <trkpt lat="43.90973" lon="7.26373">
        <ele>398.6</ele>
        <time>2013-09-06T08:53:37Z</time>
      </trkpt>
      <trkpt lat="43.90935" lon="7.26354">
        <ele>401.5</ele>
        <time>2013-09-06T08:53:54Z</time>
      </trkpt>
      <trkpt lat="43.90926" lon="7.26306">
        <ele>404.4</ele>
        <time>2013-09-06T08:54:08Z</time>
      </trkpt>
      <trkpt lat="43.90897" lon="7.26282">
        <ele>406.8</ele>
        <time>2013-09-06T08:54:22Z</time>
      </trkpt>
      <trkpt lat="43.90861" lon="7.26289">
        <ele>408.7</ele>
        <time>2013-09-06T08:54:37Z</time>
      </trkpt>
      <trkpt lat="43.90841" lon="7.26252">
        <ele>411.1</ele>
        <time>2013-09-06T08:54:50Z</time>
      </trkpt>
      <trkpt lat="43.9081" lon="7.26219">
        <ele>414</ele>
        <time>2013-09-06T08:55:05Z</time>
      </trkpt>
      <trkpt lat="43.90774" lon="7.26201">
        <ele>415.4</ele>
        <time>2013-09-06T08:55:19Z</time>
      </trkpt>
      <trkpt lat="43.90752" lon="7.26163">
        <ele>418.3</ele>
        <time>2013-09-06T08:55:33Z</time>
      </trkpt>
      <trkpt lat="43.90719" lon="7.26139">
        <ele>420.7</ele>
        <time>2013-09-06T08:55:47Z</time>
      </trkpt>
      <trkpt lat="43.907" lon="7.261">
        <ele>422.6</ele>
        <time>2013-09-06T08:56:00Z</time>
      </trkpt>
      <trkpt lat="43.90679" lon="7.26064">
        <ele>425.5</ele>
        <time>2013-09-06T08:56:13Z</time>
      </trkpt>
      <trkpt lat="43.90652" lon="7.26027">
        <ele>428.4</ele>
        <time>2013-09-06T08:56:28Z</time>
      </trkpt>
      <trkpt lat="43.90625" lon="7.25996">
        <ele>430.3</ele>
        <time>2013-09-06T08:56:42Z</time>
      </trkpt>
      <trkpt lat="43.90581" lon="7.26003">
        <ele>432.3</ele>
        <time>2013-09-06T08:56:57Z</time>
      </trkpt>
      <trkpt lat="43.90567" lon="7.25968">
        <ele>434.2</ele>
        <time>2013-09-06T08:57:09Z</time>
      </trkpt>
      <trkpt lat="43.9055" lon="7.25919">
        <ele>436.1</ele>
        <time>2013-09-06T08:57:23Z</time>
      </trkpt>
      <trkpt lat="43.90526" lon="7.25893">
        <ele>437.1</ele>
        <time>2013-09-06T08:57:34Z</time>
      </trkpt>
      <trkpt lat="43.90502" lon="7.25847">
        <ele>439.5</ele>
        <time>2013-09-06T08:57:47Z</time>
      </trkpt>
      <trkpt lat="43.90478" lon="7.25769">
        <ele>441.4</ele>
        <time>2013-09-06T08:58:06Z</time>
      </trkpt>
      <trkpt lat="43.9045" lon="7.25737">
        <ele>444.3</ele>
        <time>2013-09-06T08:58:20Z</time>
      </trkpt>
      <trkpt lat="43.90423" lon="7.25784">
        <ele>446.2</ele>
        <time>2013-09-06T08:58:33Z</time>
      </trkpt>
      <trkpt lat="43.90385" lon="7.25829">
        <ele>448.1</ele>
        <time>2013-09-06T08:58:49Z</time>
      </trkpt>
      <trkpt lat="43.90398" lon="7.25888">
        <ele>449.6</ele>
        <time>2013-09-06T08:59:02Z</time>
      </trkpt>
      <trkpt lat="43.90413" lon="7.25962">
        <ele>452.9</ele>
        <time>2013-09-06T08:59:19Z</time>
      </trkpt>
      <trkpt lat="43.90413" lon="7.26047">
        <ele>455.3</ele>
        <time>2013-09-06T08:59:37Z</time>
      </trkpt>
      <trkpt lat="43.90415" lon="7.26113">
        <ele>457.2</ele>
        <time>2013-09-06T08:59:52Z</time>
      </trkpt>
      <trkpt lat="43.90381" lon="7.26121">
        <ele>459.2</ele>
        <time>2013-09-06T09:00:02Z</time>
      </trkpt>
      <trkpt lat="43.90331" lon="7.2614">
        <ele>460.1</ele>
        <time>2013-09-06T09:00:17Z</time>
      </trkpt>
      <trkpt lat="43.90302" lon="7.26187">
        <ele>459.7</ele>
        <time>2013-09-06T09:00:29Z</time>
      </trkpt>
      <trkpt lat="43.90298" lon="7.26192">
        <ele>459.7</ele>
        <time>2013-09-06T09:00:30Z</time>
      </trkpt>
      <trkpt lat="43.90291" lon="7.262">
        <ele>458.7</ele>
        <time>2013-09-06T09:00:32Z</time>
      </trkpt>
      <trkpt lat="43.90287" lon="7.26203">
        <ele>458.7</ele>
        <time>2013-09-06T09:00:33Z</time>
      </trkpt>
      <trkpt lat="43.90283" lon="7.26205">
        <ele>458.7</ele>
        <time>2013-09-06T09:00:34Z</time>
      </trkpt>
      <trkpt lat="43.90271" lon="7.26211">
        <ele>458.2</ele>
        <time>2013-09-06T09:00:37Z</time>
      </trkpt>
      <trkpt lat="43.90267" lon="7.26214">
        <ele>458.7</ele>
        <time>2013-09-06T09:00:38Z</time>
      </trkpt>
      <trkpt lat="43.90196" lon="7.26274">
        <ele>456.8</ele>
        <time>2013-09-06T09:00:54Z</time>
      </trkpt>
      <trkpt lat="43.90186" lon="7.26281">
        <ele>456.8</ele>
        <time>2013-09-06T09:00:56Z</time>
      </trkpt>
      <trkpt lat="43.90181" lon="7.26282">
        <ele>457.2</ele>
        <time>2013-09-06T09:00:57Z</time>
      </trkpt>
      <trkpt lat="43.90175" lon="7.26282">
        <ele>456.8</ele>
        <time>2013-09-06T09:00:58Z</time>
      </trkpt>
      <trkpt lat="43.90169" lon="7.2628">
        <ele>456.8</ele>
        <time>2013-09-06T09:00:59Z</time>
      </trkpt>
      <trkpt lat="43.90164" lon="7.26276">
        <ele>456.8</ele>
        <time>2013-09-06T09:01:00Z</time>
      </trkpt>
      <trkpt lat="43.9016" lon="7.26271">
        <ele>456.8</ele>
        <time>2013-09-06T09:01:01Z</time>
      </trkpt>
      <trkpt lat="43.90157" lon="7.26264">
        <ele>456.3</ele>
        <time>2013-09-06T09:01:02Z</time>
      </trkpt>
      <trkpt lat="43.90154" lon="7.26257">
        <ele>456.8</ele>
        <time>2013-09-06T09:01:03Z</time>
      </trkpt>
      <trkpt lat="43.90152" lon="7.2625">
        <ele>456.8</ele>
        <time>2013-09-06T09:01:04Z</time>
      </trkpt>
      <trkpt lat="43.90151" lon="7.26243">
        <ele>456.8</ele>
        <time>2013-09-06T09:01:05Z</time>
      </trkpt>
      <trkpt lat="43.9015" lon="7.26236">
        <ele>457.2</ele>
        <time>2013-09-06T09:01:06Z</time>
      </trkpt>
      <trkpt lat="43.9015" lon="7.26229">
        <ele>456.8</ele>
        <time>2013-09-06T09:01:07Z</time>
      </trkpt>
      <trkpt lat="43.90152" lon="7.26222">
        <ele>457.2</ele>
        <time>2013-09-06T09:01:08Z</time>
      </trkpt>
      <trkpt lat="43.90154" lon="7.26216">
        <ele>457.2</ele>
        <time>2013-09-06T09:01:09Z</time>
      </trkpt>
      <trkpt lat="43.90156" lon="7.26211">
        <ele>457.7</ele>
        <time>2013-09-06T09:01:10Z</time>
      </trkpt>
      <trkpt lat="43.9018" lon="7.26152">
        <ele>460.6</ele>
        <time>2013-09-06T09:01:24Z</time>
      </trkpt>
      <trkpt lat="43.90215" lon="7.26108">
        <ele>463.5</ele>
        <time>2013-09-06T09:01:40Z</time>
      </trkpt>
      <trkpt lat="43.90248" lon="7.2607">
        <ele>466.9</ele>
        <time>2013-09-06T09:01:55Z</time>
      </trkpt>
      <trkpt lat="43.90251" lon="7.26021">
        <ele>468.8</ele>
        <time>2013-09-06T09:02:08Z</time>
      </trkpt>
      <trkpt lat="43.9026" lon="7.25975">
        <ele>470.7</ele>
        <time>2013-09-06T09:02:21Z</time>
      </trkpt>
      <trkpt lat="43.90256" lon="7.25931">
        <ele>473.1</ele>
        <time>2013-09-06T09:02:34Z</time>
      </trkpt>
      <trkpt lat="43.90249" lon="7.25926">
        <ele>473.6</ele>
        <time>2013-09-06T09:02:37Z</time>
      </trkpt>
      <trkpt lat="43.90247" lon="7.25927">
        <ele>474.1</ele>
        <time>2013-09-06T09:02:38Z</time>
      </trkpt>
      <trkpt lat="43.90244" lon="7.25927">
        <ele>474.1</ele>
        <time>2013-09-06T09:02:39Z</time>
      </trkpt>
      <trkpt lat="43.90208" lon="7.25931">
        <ele>476</ele>
        <time>2013-09-06T09:02:53Z</time>
      </trkpt>
      <trkpt lat="43.90173" lon="7.25914">
        <ele>478.9</ele>
        <time>2013-09-06T09:03:08Z</time>
      </trkpt>
      <trkpt lat="43.9016" lon="7.25878">
        <ele>480.3</ele>
        <time>2013-09-06T09:03:21Z</time>
      </trkpt>
      <trkpt lat="43.90172" lon="7.25823">
        <ele>483.2</ele>
        <time>2013-09-06T09:03:38Z</time>
      </trkpt>
      <trkpt lat="43.902" lon="7.25792">
        <ele>485.6</ele>
        <time>2013-09-06T09:03:53Z</time>
      </trkpt>
      <trkpt lat="43.90226" lon="7.25747">
        <ele>489</ele>
        <time>2013-09-06T09:04:10Z</time>
      </trkpt>
      <trkpt lat="43.90234" lon="7.25696">
        <ele>490.4</ele>
        <time>2013-09-06T09:04:24Z</time>
      </trkpt>
      <trkpt lat="43.9022" lon="7.25646">
        <ele>493.3</ele>
        <time>2013-09-06T09:04:39Z</time>
      </trkpt>
      <trkpt lat="43.90208" lon="7.25609">
        <ele>495.2</ele>
        <time>2013-09-06T09:04:52Z</time>
      </trkpt>
      <trkpt lat="43.90172" lon="7.25582">
        <ele>497.6</ele>
        <time>2013-09-06T09:05:09Z</time>
      </trkpt>
      <trkpt lat="43.90124" lon="7.25575">
        <ele>500.5</ele>
        <time>2013-09-06T09:05:28Z</time>
      </trkpt>
      <trkpt lat="43.90096" lon="7.25544">
        <ele>502.4</ele>
        <time>2013-09-06T09:05:42Z</time>
      </trkpt>
      <trkpt lat="43.90064" lon="7.2552">
        <ele>505.3</ele>
        <time>2013-09-06T09:05:57Z</time>
      </trkpt>
      <trkpt lat="43.90018" lon="7.25503">
        <ele>508.2</ele>
        <time>2013-09-06T09:06:15Z</time>
      </trkpt>
      <trkpt lat="43.89976" lon="7.25501">
        <ele>510.6</ele>
        <time>2013-09-06T09:06:30Z</time>
      </trkpt>
      <trkpt lat="43.89939" lon="7.25469">
        <ele>514</ele>
        <time>2013-09-06T09:06:46Z</time>
      </trkpt>
      <trkpt lat="43.89902" lon="7.25459">
        <ele>516.4</ele>
        <time>2013-09-06T09:07:00Z</time>
      </trkpt>
      <trkpt lat="43.89861" lon="7.25481">
        <ele>518.3</ele>
        <time>2013-09-06T09:07:16Z</time>
      </trkpt>
      <trkpt lat="43.89824" lon="7.25469">
        <ele>520.7</ele>
        <time>2013-09-06T09:07:29Z</time>
      </trkpt>
      <trkpt lat="43.89782" lon="7.25477">
        <ele>521.2</ele>
        <time>2013-09-06T09:07:41Z</time>
      </trkpt>
      <trkpt lat="43.89724" lon="7.25508">
        <ele>519.7</ele>
        <time>2013-09-06T09:07:59Z</time>
      </trkpt>
      <trkpt lat="43.89702" lon="7.25503">
        <ele>518.8</ele>
        <time>2013-09-06T09:08:02Z</time>
      </trkpt>
      <trkpt lat="43.89694" lon="7.25503">
        <ele>518.8</ele>
        <time>2013-09-06T09:08:03Z</time>
      </trkpt>
      <trkpt lat="43.89685" lon="7.25506">
        <ele>518.3</ele>
        <time>2013-09-06T09:08:04Z</time>
      </trkpt>
      <trkpt lat="43.89649" lon="7.25516">
        <ele>515.9</ele>
        <time>2013-09-06T09:08:09Z</time>
      </trkpt>
      <trkpt lat="43.89643" lon="7.2552">
        <ele>514.9</ele>
        <time>2013-09-06T09:08:10Z</time>
      </trkpt>
      <trkpt lat="43.89639" lon="7.25528">
        <ele>514.9</ele>
        <time>2013-09-06T09:08:11Z</time>
      </trkpt>
      <trkpt lat="43.89636" lon="7.25537">
        <ele>514</ele>
        <time>2013-09-06T09:08:12Z</time>
      </trkpt>
      <trkpt lat="43.89634" lon="7.25548">
        <ele>513</ele>
        <time>2013-09-06T09:08:13Z</time>
      </trkpt>
      <trkpt lat="43.89632" lon="7.25558">
        <ele>513</ele>
        <time>2013-09-06T09:08:14Z</time>
      </trkpt>
      <trkpt lat="43.89629" lon="7.25568">
        <ele>512</ele>
        <time>2013-09-06T09:08:15Z</time>
      </trkpt>
      <trkpt lat="43.89625" lon="7.25578">
        <ele>511.6</ele>
        <time>2013-09-06T09:08:16Z</time>
      </trkpt>
      <trkpt lat="43.8962" lon="7.25586">
        <ele>510.1</ele>
        <time>2013-09-06T09:08:17Z</time>
      </trkpt>
      <trkpt lat="43.89615" lon="7.25594">
        <ele>510.1</ele>
        <time>2013-09-06T09:08:18Z</time>
      </trkpt>
      <trkpt lat="43.8961" lon="7.25603">
        <ele>509.2</ele>
        <time>2013-09-06T09:08:19Z</time>
      </trkpt>
      <trkpt lat="43.89607" lon="7.25613">
        <ele>509.6</ele>
        <time>2013-09-06T09:08:20Z</time>
      </trkpt>
      <trkpt lat="43.89606" lon="7.25624">
        <ele>508.7</ele>
        <time>2013-09-06T09:08:21Z</time>
      </trkpt>
      <trkpt lat="43.89605" lon="7.25644">
        <ele>507.2</ele>
        <time>2013-09-06T09:08:23Z</time>
      </trkpt>
      <trkpt lat="43.89602" lon="7.25652">
        <ele>506.8</ele>
        <time>2013-09-06T09:08:24Z</time>
      </trkpt>
      <trkpt lat="43.89597" lon="7.25657">
        <ele>506.3</ele>
        <time>2013-09-06T09:08:25Z</time>
      </trkpt>
      <trkpt lat="43.89593" lon="7.25661">
        <ele>505.8</ele>
        <time>2013-09-06T09:08:26Z</time>
      </trkpt>
      <trkpt lat="43.89588" lon="7.25665">
        <ele>504.8</ele>
        <time>2013-09-06T09:08:27Z</time>
      </trkpt>
      <trkpt lat="43.89583" lon="7.25669">
        <ele>505.3</ele>
        <time>2013-09-06T09:08:28Z</time>
      </trkpt>
      <trkpt lat="43.89579" lon="7.25674">
        <ele>504.4</ele>
        <time>2013-09-06T09:08:29Z</time>
      </trkpt>
      <trkpt lat="43.89574" lon="7.25681">
        <ele>504.4</ele>
        <time>2013-09-06T09:08:30Z</time>
      </trkpt>
      <trkpt lat="43.8957" lon="7.25688">
        <ele>504.4</ele>
        <time>2013-09-06T09:08:31Z</time>
      </trkpt>
      <trkpt lat="43.8956" lon="7.25703">
        <ele>502.9</ele>
        <time>2013-09-06T09:08:33Z</time>
      </trkpt>
      <trkpt lat="43.89554" lon="7.25709">
        <ele>502</ele>
        <time>2013-09-06T09:08:34Z</time>
      </trkpt>
      <trkpt lat="43.89544" lon="7.2572">
        <ele>501.5</ele>
        <time>2013-09-06T09:08:36Z</time>
      </trkpt>
      <trkpt lat="43.8954" lon="7.25729">
        <ele>501</ele>
        <time>2013-09-06T09:08:37Z</time>
      </trkpt>
      <trkpt lat="43.89538" lon="7.25739">
        <ele>501</ele>
        <time>2013-09-06T09:08:38Z</time>
      </trkpt>
      <trkpt lat="43.89538" lon="7.2575">
        <ele>499.5</ele>
        <time>2013-09-06T09:08:39Z</time>
      </trkpt>
      <trkpt lat="43.89537" lon="7.25761">
        <ele>498.6</ele>
        <time>2013-09-06T09:08:40Z</time>
      </trkpt>
      <trkpt lat="43.89537" lon="7.25772">
        <ele>498.6</ele>
        <time>2013-09-06T09:08:41Z</time>
      </trkpt>
      <trkpt lat="43.89535" lon="7.25783">
        <ele>497.6</ele>
        <time>2013-09-06T09:08:42Z</time>
      </trkpt>
      <trkpt lat="43.89533" lon="7.25792">
        <ele>497.1</ele>
        <time>2013-09-06T09:08:43Z</time>
      </trkpt>
      <trkpt lat="43.89528" lon="7.25801">
        <ele>496.7</ele>
        <time>2013-09-06T09:08:44Z</time>
      </trkpt>
      <trkpt lat="43.89523" lon="7.25808">
        <ele>496.7</ele>
        <time>2013-09-06T09:08:45Z</time>
      </trkpt>
      <trkpt lat="43.89518" lon="7.25815">
        <ele>496.2</ele>
        <time>2013-09-06T09:08:46Z</time>
      </trkpt>
      <trkpt lat="43.89514" lon="7.25824">
        <ele>495.2</ele>
        <time>2013-09-06T09:08:47Z</time>
      </trkpt>
      <trkpt lat="43.89512" lon="7.25834">
        <ele>494.3</ele>
        <time>2013-09-06T09:08:48Z</time>
      </trkpt>
      <trkpt lat="43.89512" lon="7.25844">
        <ele>494.3</ele>
        <time>2013-09-06T09:08:49Z</time>
      </trkpt>
      <trkpt lat="43.89513" lon="7.25855">
        <ele>493.3</ele>
        <time>2013-09-06T09:08:50Z</time>
      </trkpt>
      <trkpt lat="43.89515" lon="7.25866">
        <ele>492.3</ele>
        <time>2013-09-06T09:08:51Z</time>
      </trkpt>
      <trkpt lat="43.89516" lon="7.25877">
        <ele>491.4</ele>
        <time>2013-09-06T09:08:52Z</time>
      </trkpt>
      <trkpt lat="43.89516" lon="7.25887">
        <ele>490.4</ele>
        <time>2013-09-06T09:08:53Z</time>
      </trkpt>
      <trkpt lat="43.89514" lon="7.25895">
        <ele>489.5</ele>
        <time>2013-09-06T09:08:54Z</time>
      </trkpt>
      <trkpt lat="43.89511" lon="7.25902">
        <ele>488.5</ele>
        <time>2013-09-06T09:08:55Z</time>
      </trkpt>
      <trkpt lat="43.89505" lon="7.25907">
        <ele>488</ele>
        <time>2013-09-06T09:08:56Z</time>
      </trkpt>
      <trkpt lat="43.89497" lon="7.2591">
        <ele>487.5</ele>
        <time>2013-09-06T09:08:57Z</time>
      </trkpt>
      <trkpt lat="43.89488" lon="7.25913">
        <ele>487.5</ele>
        <time>2013-09-06T09:08:58Z</time>
      </trkpt>
      <trkpt lat="43.89471" lon="7.25921">
        <ele>486.1</ele>
        <time>2013-09-06T09:09:00Z</time>
      </trkpt>
      <trkpt lat="43.89463" lon="7.25927">
        <ele>485.6</ele>
        <time>2013-09-06T09:09:01Z</time>
      </trkpt>
      <trkpt lat="43.89455" lon="7.25934">
        <ele>484.6</ele>
        <time>2013-09-06T09:09:02Z</time>
      </trkpt>
      <trkpt lat="43.8945" lon="7.25943">
        <ele>484.2</ele>
        <time>2013-09-06T09:09:03Z</time>
      </trkpt>
      <trkpt lat="43.89433" lon="7.25989">
        <ele>481.3</ele>
        <time>2013-09-06T09:09:07Z</time>
      </trkpt>
      <trkpt lat="43.89428" lon="7.26001">
        <ele>479.8</ele>
        <time>2013-09-06T09:09:08Z</time>
      </trkpt>
      <trkpt lat="43.89418" lon="7.26022">
        <ele>478.4</ele>
        <time>2013-09-06T09:09:10Z</time>
      </trkpt>
      <trkpt lat="43.89412" lon="7.26031">
        <ele>477.4</ele>
        <time>2013-09-06T09:09:11Z</time>
      </trkpt>
      <trkpt lat="43.89408" lon="7.26042">
        <ele>477</ele>
        <time>2013-09-06T09:09:12Z</time>
      </trkpt>
      <trkpt lat="43.89404" lon="7.26054">
        <ele>476</ele>
        <time>2013-09-06T09:09:13Z</time>
      </trkpt>
      <trkpt lat="43.89403" lon="7.26067">
        <ele>475</ele>
        <time>2013-09-06T09:09:14Z</time>
      </trkpt>
      <trkpt lat="43.89402" lon="7.2608">
        <ele>474.6</ele>
        <time>2013-09-06T09:09:15Z</time>
      </trkpt>
      <trkpt lat="43.89397" lon="7.26129">
        <ele>471.2</ele>
        <time>2013-09-06T09:09:19Z</time>
      </trkpt>
      <trkpt lat="43.89394" lon="7.26136">
        <ele>470.7</ele>
        <time>2013-09-06T09:09:20Z</time>
      </trkpt>
      <trkpt lat="43.8939" lon="7.26143">
        <ele>470.2</ele>
        <time>2013-09-06T09:09:21Z</time>
      </trkpt>
      <trkpt lat="43.89385" lon="7.26148">
        <ele>469.7</ele>
        <time>2013-09-06T09:09:22Z</time>
      </trkpt>
      <trkpt lat="43.89367" lon="7.2616">
        <ele>468.3</ele>
        <time>2013-09-06T09:09:25Z</time>
      </trkpt>
      <trkpt lat="43.89328" lon="7.26176">
        <ele>465.4</ele>
        <time>2013-09-06T09:09:29Z</time>
      </trkpt>
      <trkpt lat="43.89294" lon="7.26186">
        <ele>462.5</ele>
        <time>2013-09-06T09:09:33Z</time>
      </trkpt>
      <trkpt lat="43.89289" lon="7.2619">
        <ele>462.1</ele>
        <time>2013-09-06T09:09:34Z</time>
      </trkpt>
      <trkpt lat="43.89286" lon="7.26199">
        <ele>461.6</ele>
        <time>2013-09-06T09:09:35Z</time>
      </trkpt>
      <trkpt lat="43.89287" lon="7.26209">
        <ele>461.1</ele>
        <time>2013-09-06T09:09:36Z</time>
      </trkpt>
      <trkpt lat="43.89289" lon="7.2622">
        <ele>460.1</ele>
        <time>2013-09-06T09:09:37Z</time>
      </trkpt>
      <trkpt lat="43.89293" lon="7.26256">
        <ele>459.2</ele>
        <time>2013-09-06T09:09:40Z</time>
      </trkpt>
      <trkpt lat="43.8929" lon="7.26269">
        <ele>458.2</ele>
        <time>2013-09-06T09:09:41Z</time>
      </trkpt>
      <trkpt lat="43.89285" lon="7.2628">
        <ele>457.2</ele>
        <time>2013-09-06T09:09:42Z</time>
      </trkpt>
      <trkpt lat="43.89274" lon="7.26302">
        <ele>455.8</ele>
        <time>2013-09-06T09:09:44Z</time>
      </trkpt>
      <trkpt lat="43.89271" lon="7.26315">
        <ele>455.3</ele>
        <time>2013-09-06T09:09:45Z</time>
      </trkpt>
      <trkpt lat="43.8927" lon="7.26328">
        <ele>454.4</ele>
        <time>2013-09-06T09:09:46Z</time>
      </trkpt>
      <trkpt lat="43.89268" lon="7.26353">
        <ele>452.4</ele>
        <time>2013-09-06T09:09:48Z</time>
      </trkpt>
      <trkpt lat="43.89264" lon="7.26364">
        <ele>452</ele>
        <time>2013-09-06T09:09:49Z</time>
      </trkpt>
      <trkpt lat="43.89257" lon="7.26372">
        <ele>451.5</ele>
        <time>2013-09-06T09:09:50Z</time>
      </trkpt>
      <trkpt lat="43.89249" lon="7.26377">
        <ele>450.5</ele>
        <time>2013-09-06T09:09:51Z</time>
      </trkpt>
      <trkpt lat="43.8924" lon="7.26379">
        <ele>450</ele>
        <time>2013-09-06T09:09:52Z</time>
      </trkpt>
      <trkpt lat="43.89232" lon="7.2638">
        <ele>449.6</ele>
        <time>2013-09-06T09:09:53Z</time>
      </trkpt>
      <trkpt lat="43.89225" lon="7.26385">
        <ele>448.6</ele>
        <time>2013-09-06T09:09:54Z</time>
      </trkpt>
      <trkpt lat="43.8922" lon="7.26393">
        <ele>448.1</ele>
        <time>2013-09-06T09:09:55Z</time>
      </trkpt>
      <trkpt lat="43.89216" lon="7.26403">
        <ele>447.6</ele>
        <time>2013-09-06T09:09:56Z</time>
      </trkpt>
      <trkpt lat="43.89214" lon="7.26414">
        <ele>446.7</ele>
        <time>2013-09-06T09:09:57Z</time>
      </trkpt>
      <trkpt lat="43.89213" lon="7.26427">
        <ele>445.7</ele>
        <time>2013-09-06T09:09:58Z</time>
      </trkpt>
      <trkpt lat="43.89212" lon="7.26441">
        <ele>445.2</ele>
        <time>2013-09-06T09:09:59Z</time>
      </trkpt>
      <trkpt lat="43.8921" lon="7.26455">
        <ele>444.3</ele>
        <time>2013-09-06T09:10:00Z</time>
      </trkpt>
      <trkpt lat="43.89206" lon="7.26468">
        <ele>444.3</ele>
        <time>2013-09-06T09:10:01Z</time>
      </trkpt>
      <trkpt lat="43.89202" lon="7.2648">
        <ele>443.3</ele>
        <time>2013-09-06T09:10:02Z</time>
      </trkpt>
      <trkpt lat="43.89198" lon="7.26493">
        <ele>442.3</ele>
        <time>2013-09-06T09:10:03Z</time>
      </trkpt>
      <trkpt lat="43.89196" lon="7.26505">
        <ele>441.4</ele>
        <time>2013-09-06T09:10:04Z</time>
      </trkpt>
      <trkpt lat="43.89198" lon="7.26518">
        <ele>440.9</ele>
        <time>2013-09-06T09:10:05Z</time>
      </trkpt>
      <trkpt lat="43.892" lon="7.2653">
        <ele>439.9</ele>
        <time>2013-09-06T09:10:06Z</time>
      </trkpt>
      <trkpt lat="43.89203" lon="7.26541">
        <ele>439.9</ele>
        <time>2013-09-06T09:10:07Z</time>
      </trkpt>
      <trkpt lat="43.89205" lon="7.26551">
        <ele>438.5</ele>
        <time>2013-09-06T09:10:08Z</time>
      </trkpt>
      <trkpt lat="43.89205" lon="7.2656">
        <ele>438</ele>
        <time>2013-09-06T09:10:09Z</time>
      </trkpt>
      <trkpt lat="43.89203" lon="7.26569">
        <ele>437.1</ele>
        <time>2013-09-06T09:10:10Z</time>
      </trkpt>
      <trkpt lat="43.89178" lon="7.26598">
        <ele>435.1</ele>
        <time>2013-09-06T09:10:14Z</time>
      </trkpt>
      <trkpt lat="43.89168" lon="7.26598">
        <ele>435.1</ele>
        <time>2013-09-06T09:10:15Z</time>
      </trkpt>
      <trkpt lat="43.89157" lon="7.26591">
        <ele>434.2</ele>
        <time>2013-09-06T09:10:16Z</time>
      </trkpt>
      <trkpt lat="43.89149" lon="7.26588">
        <ele>433.7</ele>
        <time>2013-09-06T09:10:17Z</time>
      </trkpt>
      <trkpt lat="43.89143" lon="7.26594">
        <ele>432.7</ele>
        <time>2013-09-06T09:10:18Z</time>
      </trkpt>
      <trkpt lat="43.89138" lon="7.26602">
        <ele>432.3</ele>
        <time>2013-09-06T09:10:19Z</time>
      </trkpt>
      <trkpt lat="43.89134" lon="7.2661">
        <ele>431.8</ele>
        <time>2013-09-06T09:10:20Z</time>
      </trkpt>
      <trkpt lat="43.89128" lon="7.26614">
        <ele>430.8</ele>
        <time>2013-09-06T09:10:21Z</time>
      </trkpt>
      <trkpt lat="43.89121" lon="7.26615">
        <ele>430.3</ele>
        <time>2013-09-06T09:10:22Z</time>
      </trkpt>
      <trkpt lat="43.89113" lon="7.26612">
        <ele>430.3</ele>
        <time>2013-09-06T09:10:23Z</time>
      </trkpt>
      <trkpt lat="43.89107" lon="7.26609">
        <ele>429.9</ele>
        <time>2013-09-06T09:10:24Z</time>
      </trkpt>
      <trkpt lat="43.89096" lon="7.26606">
        <ele>428.9</ele>
        <time>2013-09-06T09:10:25Z</time>
      </trkpt>
      <trkpt lat="43.89088" lon="7.26607">
        <ele>427.9</ele>
        <time>2013-09-06T09:10:26Z</time>
      </trkpt>
      <trkpt lat="43.8908" lon="7.26612">
        <ele>427.4</ele>
        <time>2013-09-06T09:10:27Z</time>
      </trkpt>
      <trkpt lat="43.89073" lon="7.26619">
        <ele>426.5</ele>
        <time>2013-09-06T09:10:28Z</time>
      </trkpt>
      <trkpt lat="43.89067" lon="7.26629">
        <ele>426</ele>
        <time>2013-09-06T09:10:29Z</time>
      </trkpt>
      <trkpt lat="43.89062" lon="7.26639">
        <ele>425.5</ele>
        <time>2013-09-06T09:10:30Z</time>
      </trkpt>
      <trkpt lat="43.8904" lon="7.26676">
        <ele>422.2</ele>
        <time>2013-09-06T09:10:34Z</time>
      </trkpt>
      <trkpt lat="43.89034" lon="7.26681">
        <ele>421.7</ele>
        <time>2013-09-06T09:10:35Z</time>
      </trkpt>
      <trkpt lat="43.89028" lon="7.26682">
        <ele>421.2</ele>
        <time>2013-09-06T09:10:36Z</time>
      </trkpt>
      <trkpt lat="43.89022" lon="7.2668">
        <ele>420.7</ele>
        <time>2013-09-06T09:10:37Z</time>
      </trkpt>
      <trkpt lat="43.89018" lon="7.26676">
        <ele>419.8</ele>
        <time>2013-09-06T09:10:38Z</time>
      </trkpt>
      <trkpt lat="43.89017" lon="7.26669">
        <ele>419.3</ele>
        <time>2013-09-06T09:10:39Z</time>
      </trkpt>
      <trkpt lat="43.89019" lon="7.2666">
        <ele>418.3</ele>
        <time>2013-09-06T09:10:40Z</time>
      </trkpt>
      <trkpt lat="43.89022" lon="7.26651">
        <ele>418.3</ele>
        <time>2013-09-06T09:10:41Z</time>
      </trkpt>
      <trkpt lat="43.89026" lon="7.26643">
        <ele>417.8</ele>
        <time>2013-09-06T09:10:42Z</time>
      </trkpt>
      <trkpt lat="43.89031" lon="7.26635">
        <ele>417.4</ele>
        <time>2013-09-06T09:10:43Z</time>
      </trkpt>
      <trkpt lat="43.89035" lon="7.26626">
        <ele>416.9</ele>
        <time>2013-09-06T09:10:44Z</time>
      </trkpt>
      <trkpt lat="43.89038" lon="7.26616">
        <ele>416.4</ele>
        <time>2013-09-06T09:10:45Z</time>
      </trkpt>
      <trkpt lat="43.89042" lon="7.26606">
        <ele>416.4</ele>
        <time>2013-09-06T09:10:46Z</time>
      </trkpt>
      <trkpt lat="43.89046" lon="7.26597">
        <ele>415.9</ele>
        <time>2013-09-06T09:10:47Z</time>
      </trkpt>
      <trkpt lat="43.8905" lon="7.26588">
        <ele>415</ele>
        <time>2013-09-06T09:10:48Z</time>
      </trkpt>
      <trkpt lat="43.89053" lon="7.26579">
        <ele>414</ele>
        <time>2013-09-06T09:10:49Z</time>
      </trkpt>
      <trkpt lat="43.89053" lon="7.26569">
        <ele>414</ele>
        <time>2013-09-06T09:10:50Z</time>
      </trkpt>
      <trkpt lat="43.89052" lon="7.26559">
        <ele>414</ele>
        <time>2013-09-06T09:10:51Z</time>
      </trkpt>
      <trkpt lat="43.89051" lon="7.26548">
        <ele>413.5</ele>
        <time>2013-09-06T09:10:52Z</time>
      </trkpt>
      <trkpt lat="43.89046" lon="7.2649">
        <ele>411.1</ele>
        <time>2013-09-06T09:10:57Z</time>
      </trkpt>
      <trkpt lat="43.89047" lon="7.26479">
        <ele>410.1</ele>
        <time>2013-09-06T09:10:58Z</time>
      </trkpt>
      <trkpt lat="43.8905" lon="7.26458">
        <ele>409.2</ele>
        <time>2013-09-06T09:11:00Z</time>
      </trkpt>
      <trkpt lat="43.89061" lon="7.26428">
        <ele>407.7</ele>
        <time>2013-09-06T09:11:03Z</time>
      </trkpt>
      <trkpt lat="43.8908" lon="7.26391">
        <ele>406.8</ele>
        <time>2013-09-06T09:11:07Z</time>
      </trkpt>
      <trkpt lat="43.89084" lon="7.26381">
        <ele>406.3</ele>
        <time>2013-09-06T09:11:08Z</time>
      </trkpt>
      <trkpt lat="43.89086" lon="7.2637">
        <ele>405.8</ele>
        <time>2013-09-06T09:11:09Z</time>
      </trkpt>
      <trkpt lat="43.89087" lon="7.2636">
        <ele>405.3</ele>
        <time>2013-09-06T09:11:10Z</time>
      </trkpt>
      <trkpt lat="43.89087" lon="7.2635">
        <ele>405.8</ele>
        <time>2013-09-06T09:11:11Z</time>
      </trkpt>
      <trkpt lat="43.89087" lon="7.2634">
        <ele>405.8</ele>
        <time>2013-09-06T09:11:12Z</time>
      </trkpt>
      <trkpt lat="43.89085" lon="7.2633">
        <ele>405.3</ele>
        <time>2013-09-06T09:11:13Z</time>
      </trkpt>
      <trkpt lat="43.89082" lon="7.26322">
        <ele>405.3</ele>
        <time>2013-09-06T09:11:14Z</time>
      </trkpt>
      <trkpt lat="43.89077" lon="7.26314">
        <ele>404.9</ele>
        <time>2013-09-06T09:11:15Z</time>
      </trkpt>
      <trkpt lat="43.89072" lon="7.26306">
        <ele>404.9</ele>
        <time>2013-09-06T09:11:16Z</time>
      </trkpt>
      <trkpt lat="43.89068" lon="7.263">
        <ele>403.9</ele>
        <time>2013-09-06T09:11:17Z</time>
      </trkpt>
      <trkpt lat="43.89009" lon="7.2623">
        <ele>401.5</ele>
        <time>2013-09-06T09:11:26Z</time>
      </trkpt>
      <trkpt lat="43.89008" lon="7.2622">
        <ele>401.5</ele>
        <time>2013-09-06T09:11:27Z</time>
      </trkpt>
      <trkpt lat="43.89014" lon="7.26107">
        <ele>398.1</ele>
        <time>2013-09-06T09:11:38Z</time>
      </trkpt>
      <trkpt lat="43.89014" lon="7.26099">
        <ele>398.1</ele>
        <time>2013-09-06T09:11:39Z</time>
      </trkpt>
      <trkpt lat="43.89013" lon="7.26066">
        <ele>397.2</ele>
        <time>2013-09-06T09:11:43Z</time>
      </trkpt>
      <trkpt lat="43.88999" lon="7.25972">
        <ele>395.7</ele>
        <time>2013-09-06T09:11:53Z</time>
      </trkpt>
      <trkpt lat="43.88996" lon="7.25963">
        <ele>395.2</ele>
        <time>2013-09-06T09:11:54Z</time>
      </trkpt>
      <trkpt lat="43.88992" lon="7.25954">
        <ele>394.8</ele>
        <time>2013-09-06T09:11:55Z</time>
      </trkpt>
      <trkpt lat="43.88988" lon="7.25945">
        <ele>394.8</ele>
        <time>2013-09-06T09:11:56Z</time>
      </trkpt>
      <trkpt lat="43.88983" lon="7.25935">
        <ele>394.8</ele>
        <time>2013-09-06T09:11:57Z</time>
      </trkpt>
      <trkpt lat="43.88976" lon="7.25929">
        <ele>393.8</ele>
        <time>2013-09-06T09:11:58Z</time>
      </trkpt>
      <trkpt lat="43.88969" lon="7.25923">
        <ele>393.8</ele>
        <time>2013-09-06T09:11:59Z</time>
      </trkpt>
      <trkpt lat="43.88955" lon="7.25915">
        <ele>392.4</ele>
        <time>2013-09-06T09:12:01Z</time>
      </trkpt>
      <trkpt lat="43.88925" lon="7.25907">
        <ele>390.4</ele>
        <time>2013-09-06T09:12:05Z</time>
      </trkpt>
      <trkpt lat="43.88922" lon="7.259">
        <ele>390.4</ele>
        <time>2013-09-06T09:12:06Z</time>
      </trkpt>
      <trkpt lat="43.88923" lon="7.25839">
        <ele>388.5</ele>
        <time>2013-09-06T09:12:11Z</time>
      </trkpt>
      <trkpt lat="43.88926" lon="7.25826">
        <ele>387.6</ele>
        <time>2013-09-06T09:12:12Z</time>
      </trkpt>
      <trkpt lat="43.88932" lon="7.25816">
        <ele>387.6</ele>
        <time>2013-09-06T09:12:13Z</time>
      </trkpt>
      <trkpt lat="43.8894" lon="7.25807">
        <ele>386.6</ele>
        <time>2013-09-06T09:12:14Z</time>
      </trkpt>
      <trkpt lat="43.88949" lon="7.25799">
        <ele>386.1</ele>
        <time>2013-09-06T09:12:15Z</time>
      </trkpt>
      <trkpt lat="43.88965" lon="7.25788">
        <ele>385.6</ele>
        <time>2013-09-06T09:12:17Z</time>
      </trkpt>
      <trkpt lat="43.88972" lon="7.25781">
        <ele>384.7</ele>
        <time>2013-09-06T09:12:18Z</time>
      </trkpt>
      <trkpt lat="43.88978" lon="7.25771">
        <ele>384.2</ele>
        <time>2013-09-06T09:12:19Z</time>
      </trkpt>
      <trkpt lat="43.88983" lon="7.25759">
        <ele>383.7</ele>
        <time>2013-09-06T09:12:20Z</time>
      </trkpt>
      <trkpt lat="43.88987" lon="7.25749">
        <ele>383.2</ele>
        <time>2013-09-06T09:12:21Z</time>
      </trkpt>
      <trkpt lat="43.88988" lon="7.25743">
        <ele>382.7</ele>
        <time>2013-09-06T09:12:22Z</time>
      </trkpt>
      <trkpt lat="43.88989" lon="7.2573">
        <ele>382.3</ele>
        <time>2013-09-06T09:12:23Z</time>
      </trkpt>
      <trkpt lat="43.88988" lon="7.25722">
        <ele>381.8</ele>
        <time>2013-09-06T09:12:24Z</time>
      </trkpt>
      <trkpt lat="43.88981" lon="7.25714">
        <ele>381.3</ele>
        <time>2013-09-06T09:12:25Z</time>
      </trkpt>
      <trkpt lat="43.88971" lon="7.2571">
        <ele>380.8</ele>
        <time>2013-09-06T09:12:26Z</time>
      </trkpt>
      <trkpt lat="43.8896" lon="7.25708">
        <ele>380.8</ele>
        <time>2013-09-06T09:12:27Z</time>
      </trkpt>
      <trkpt lat="43.8893" lon="7.257">
        <ele>379.4</ele>
        <time>2013-09-06T09:12:30Z</time>
      </trkpt>
      <trkpt lat="43.88921" lon="7.25695">
        <ele>379.4</ele>
        <time>2013-09-06T09:12:31Z</time>
      </trkpt>
      <trkpt lat="43.88913" lon="7.25689">
        <ele>378.9</ele>
        <time>2013-09-06T09:12:32Z</time>
      </trkpt>
      <trkpt lat="43.88908" lon="7.25683">
        <ele>378.9</ele>
        <time>2013-09-06T09:12:33Z</time>
      </trkpt>
      <trkpt lat="43.88906" lon="7.25676">
        <ele>377.9</ele>
        <time>2013-09-06T09:12:34Z</time>
      </trkpt>
      <trkpt lat="43.88909" lon="7.25668">
        <ele>378.4</ele>
        <time>2013-09-06T09:12:35Z</time>
      </trkpt>
      <trkpt lat="43.88913" lon="7.2566">
        <ele>377.9</ele>
        <time>2013-09-06T09:12:36Z</time>
      </trkpt>
      <trkpt lat="43.88917" lon="7.25653">
        <ele>377.9</ele>
        <time>2013-09-06T09:12:37Z</time>
      </trkpt>
      <trkpt lat="43.88922" lon="7.25646">
        <ele>377.9</ele>
        <time>2013-09-06T09:12:38Z</time>
      </trkpt>
      <trkpt lat="43.88927" lon="7.25639">
        <ele>377.5</ele>
        <time>2013-09-06T09:12:39Z</time>
      </trkpt>
      <trkpt lat="43.88986" lon="7.25566">
        <ele>375.5</ele>
        <time>2013-09-06T09:12:49Z</time>
      </trkpt>
      <trkpt lat="43.88991" lon="7.25555">
        <ele>375.5</ele>
        <time>2013-09-06T09:12:50Z</time>
      </trkpt>
      <trkpt lat="43.88993" lon="7.25545">
        <ele>375.1</ele>
        <time>2013-09-06T09:12:51Z</time>
      </trkpt>
      <trkpt lat="43.88994" lon="7.25536">
        <ele>375.1</ele>
        <time>2013-09-06T09:12:52Z</time>
      </trkpt>
      <trkpt lat="43.88995" lon="7.25528">
        <ele>374.6</ele>
        <time>2013-09-06T09:12:53Z</time>
      </trkpt>
      <trkpt lat="43.88993" lon="7.2551">
        <ele>374.6</ele>
        <time>2013-09-06T09:12:55Z</time>
      </trkpt>
      <trkpt lat="43.88987" lon="7.25475">
        <ele>373.6</ele>
        <time>2013-09-06T09:12:58Z</time>
      </trkpt>
      <trkpt lat="43.88984" lon="7.25465">
        <ele>373.6</ele>
        <time>2013-09-06T09:12:59Z</time>
      </trkpt>
      <trkpt lat="43.8898" lon="7.25456">
        <ele>374.1</ele>
        <time>2013-09-06T09:13:00Z</time>
      </trkpt>
      <trkpt lat="43.8897" lon="7.25428">
        <ele>374.1</ele>
        <time>2013-09-06T09:13:03Z</time>
      </trkpt>
      <trkpt lat="43.88968" lon="7.25405">
        <ele>374.6</ele>
        <time>2013-09-06T09:13:06Z</time>
      </trkpt>
      <trkpt lat="43.88969" lon="7.25394">
        <ele>375.5</ele>
        <time>2013-09-06T09:13:08Z</time>
      </trkpt>
      <trkpt lat="43.8897" lon="7.25378">
        <ele>376.5</ele>
        <time>2013-09-06T09:13:12Z</time>
      </trkpt>
      <trkpt lat="43.8897" lon="7.25375">
        <ele>377</ele>
        <time>2013-09-06T09:13:13Z</time>
      </trkpt>
      <trkpt lat="43.88971" lon="7.25371">
        <ele>377</ele>
        <time>2013-09-06T09:13:14Z</time>
      </trkpt>
      <trkpt lat="43.88963" lon="7.25332">
        <ele>379.4</ele>
        <time>2013-09-06T09:13:24Z</time>
      </trkpt>
      <trkpt lat="43.88946" lon="7.25298">
        <ele>381.3</ele>
        <time>2013-09-06T09:13:37Z</time>
      </trkpt>
      <trkpt lat="43.88945" lon="7.25255">
        <ele>383.7</ele>
        <time>2013-09-06T09:13:51Z</time>
      </trkpt>
      <trkpt lat="43.88927" lon="7.2523">
        <ele>385.6</ele>
        <time>2013-09-06T09:14:03Z</time>
      </trkpt>
      <trkpt lat="43.88906" lon="7.25204">
        <ele>387.6</ele>
        <time>2013-09-06T09:14:16Z</time>
      </trkpt>
      <trkpt lat="43.88873" lon="7.25201">
        <ele>390.4</ele>
        <time>2013-09-06T09:14:31Z</time>
      </trkpt>
      <trkpt lat="43.88861" lon="7.25166">
        <ele>392.4</ele>
        <time>2013-09-06T09:14:44Z</time>
      </trkpt>
      <trkpt lat="43.88843" lon="7.2514">
        <ele>394.8</ele>
        <time>2013-09-06T09:14:56Z</time>
      </trkpt>
      <trkpt lat="43.88838" lon="7.25138">
        <ele>396.2</ele>
        <time>2013-09-06T09:14:58Z</time>
      </trkpt>
      <trkpt lat="43.88804" lon="7.25125">
        <ele>397.6</ele>
        <time>2013-09-06T09:15:13Z</time>
      </trkpt>
      <trkpt lat="43.88791" lon="7.25121">
        <ele>398.6</ele>
        <time>2013-09-06T09:15:19Z</time>
      </trkpt>
      <trkpt lat="43.88788" lon="7.25105">
        <ele>400.1</ele>
        <time>2013-09-06T09:15:25Z</time>
      </trkpt>
      <trkpt lat="43.88789" lon="7.25102">
        <ele>399.6</ele>
        <time>2013-09-06T09:15:26Z</time>
      </trkpt>
      <trkpt lat="43.8879" lon="7.251">
        <ele>400.1</ele>
        <time>2013-09-06T09:15:27Z</time>
      </trkpt>
      <trkpt lat="43.88791" lon="7.25097">
        <ele>400.5</ele>
        <time>2013-09-06T09:15:28Z</time>
      </trkpt>
      <trkpt lat="43.88792" lon="7.25095">
        <ele>400.5</ele>
        <time>2013-09-06T09:15:29Z</time>
      </trkpt>
      <trkpt lat="43.88792" lon="7.25093">
        <ele>400.5</ele>
        <time>2013-09-06T09:15:30Z</time>
      </trkpt>
      <trkpt lat="43.88793" lon="7.2509">
        <ele>401.5</ele>
        <time>2013-09-06T09:15:31Z</time>
      </trkpt>
      <trkpt lat="43.88794" lon="7.25086">
        <ele>401</ele>
        <time>2013-09-06T09:15:32Z</time>
      </trkpt>
      <trkpt lat="43.88794" lon="7.25083">
        <ele>401</ele>
        <time>2013-09-06T09:15:33Z</time>
      </trkpt>
      <trkpt lat="43.88794" lon="7.25079">
        <ele>401.5</ele>
        <time>2013-09-06T09:15:34Z</time>
      </trkpt>
      <trkpt lat="43.88786" lon="7.25035">
        <ele>403.9</ele>
        <time>2013-09-06T09:15:48Z</time>
      </trkpt>
      <trkpt lat="43.88761" lon="7.25003">
        <ele>406.3</ele>
        <time>2013-09-06T09:16:04Z</time>
      </trkpt>
      <trkpt lat="43.8875" lon="7.24984">
        <ele>408.2</ele>
        <time>2013-09-06T09:16:12Z</time>
      </trkpt>
      <trkpt lat="43.88723" lon="7.24986">
        <ele>409.7</ele>
        <time>2013-09-06T09:16:24Z</time>
      </trkpt>
      <trkpt lat="43.88703" lon="7.24964">
        <ele>411.1</ele>
        <time>2013-09-06T09:16:37Z</time>
      </trkpt>
      <trkpt lat="43.88687" lon="7.24929">
        <ele>414</ele>
        <time>2013-09-06T09:16:51Z</time>
      </trkpt>
      <trkpt lat="43.88652" lon="7.24909">
        <ele>417.4</ele>
        <time>2013-09-06T09:17:09Z</time>
      </trkpt>
      <trkpt lat="43.88624" lon="7.24907">
        <ele>418.8</ele>
        <time>2013-09-06T09:17:22Z</time>
      </trkpt>
      <trkpt lat="43.88589" lon="7.24906">
        <ele>421.7</ele>
        <time>2013-09-06T09:17:38Z</time>
      </trkpt>
      <trkpt lat="43.88552" lon="7.24909">
        <ele>423.1</ele>
        <time>2013-09-06T09:17:55Z</time>
      </trkpt>
      <trkpt lat="43.88516" lon="7.24925">
        <ele>426</ele>
        <time>2013-09-06T09:18:10Z</time>
      </trkpt>
      <trkpt lat="43.88478" lon="7.24907">
        <ele>428.9</ele>
        <time>2013-09-06T09:18:28Z</time>
      </trkpt>
      <trkpt lat="43.88438" lon="7.24882">
        <ele>430.8</ele>
        <time>2013-09-06T09:18:44Z</time>
      </trkpt>
      <trkpt lat="43.88413" lon="7.24905">
        <ele>432.3</ele>
        <time>2013-09-06T09:18:55Z</time>
      </trkpt>
      <trkpt lat="43.88387" lon="7.24939">
        <ele>433.2</ele>
        <time>2013-09-06T09:19:07Z</time>
      </trkpt>
      <trkpt lat="43.88352" lon="7.24953">
        <ele>435.1</ele>
        <time>2013-09-06T09:19:20Z</time>
      </trkpt>
      <trkpt lat="43.88311" lon="7.24922">
        <ele>437.5</ele>
        <time>2013-09-06T09:19:35Z</time>
      </trkpt>
      <trkpt lat="43.88284" lon="7.24898">
        <ele>439</ele>
        <time>2013-09-06T09:19:46Z</time>
      </trkpt>
      <trkpt lat="43.88254" lon="7.24882">
        <ele>439.9</ele>
        <time>2013-09-06T09:19:57Z</time>
      </trkpt>
      <trkpt lat="43.8822" lon="7.24848">
        <ele>442.3</ele>
        <time>2013-09-06T09:20:10Z</time>
      </trkpt>
      <trkpt lat="43.88179" lon="7.24866">
        <ele>443.8</ele>
        <time>2013-09-06T09:20:23Z</time>
      </trkpt>
      <trkpt lat="43.88146" lon="7.24859">
        <ele>445.7</ele>
        <time>2013-09-06T09:20:34Z</time>
      </trkpt>
      <trkpt lat="43.88109" lon="7.24838">
        <ele>446.2</ele>
        <time>2013-09-06T09:20:46Z</time>
      </trkpt>
      <trkpt lat="43.88077" lon="7.24795">
        <ele>449.6</ele>
        <time>2013-09-06T09:21:00Z</time>
      </trkpt>
      <trkpt lat="43.88044" lon="7.24744">
        <ele>450.5</ele>
        <time>2013-09-06T09:21:15Z</time>
      </trkpt>
      <trkpt lat="43.87995" lon="7.24692">
        <ele>453.9</ele>
        <time>2013-09-06T09:21:34Z</time>
      </trkpt>
      <trkpt lat="43.87972" lon="7.24642">
        <ele>454.8</ele>
        <time>2013-09-06T09:21:47Z</time>
      </trkpt>
      <trkpt lat="43.87933" lon="7.24618">
        <ele>457.2</ele>
        <time>2013-09-06T09:22:00Z</time>
      </trkpt>
      <trkpt lat="43.87895" lon="7.24614">
        <ele>458.7</ele>
        <time>2013-09-06T09:22:11Z</time>
      </trkpt>
      <trkpt lat="43.87868" lon="7.24574">
        <ele>459.2</ele>
        <time>2013-09-06T09:22:23Z</time>
      </trkpt>
      <trkpt lat="43.87839" lon="7.24566">
        <ele>459.7</ele>
        <time>2013-09-06T09:22:30Z</time>
      </trkpt>
      <trkpt lat="43.87801" lon="7.24558">
        <ele>459.7</ele>
        <time>2013-09-06T09:22:39Z</time>
      </trkpt>
      <trkpt lat="43.87779" lon="7.24553">
        <ele>459.7</ele>
        <time>2013-09-06T09:22:44Z</time>
      </trkpt>
      <trkpt lat="43.87775" lon="7.24553">
        <ele>459.7</ele>
        <time>2013-09-06T09:22:45Z</time>
      </trkpt>
      <trkpt lat="43.87771" lon="7.24552">
        <ele>459.7</ele>
        <time>2013-09-06T09:22:46Z</time>
      </trkpt>
      <trkpt lat="43.8771" lon="7.24543">
        <ele>459.2</ele>
        <time>2013-09-06T09:22:59Z</time>
      </trkpt>
      <trkpt lat="43.87705" lon="7.24544">
        <ele>459.2</ele>
        <time>2013-09-06T09:23:00Z</time>
      </trkpt>
      <trkpt lat="43.87701" lon="7.24546">
        <ele>458.7</ele>
        <time>2013-09-06T09:23:01Z</time>
      </trkpt>
      <trkpt lat="43.87697" lon="7.24549">
        <ele>458.7</ele>
        <time>2013-09-06T09:23:02Z</time>
      </trkpt>
      <trkpt lat="43.87694" lon="7.24553">
        <ele>458.7</ele>
        <time>2013-09-06T09:23:03Z</time>
      </trkpt>
      <trkpt lat="43.87674" lon="7.2458">
        <ele>458.2</ele>
        <time>2013-09-06T09:23:09Z</time>
      </trkpt>
      <trkpt lat="43.8767" lon="7.24584">
        <ele>458.7</ele>
        <time>2013-09-06T09:23:10Z</time>
      </trkpt>
      <trkpt lat="43.8761" lon="7.2462">
        <ele>457.7</ele>
        <time>2013-09-06T09:23:22Z</time>
      </trkpt>
      <trkpt lat="43.87605" lon="7.24622">
        <ele>458.2</ele>
        <time>2013-09-06T09:23:23Z</time>
      </trkpt>
      <trkpt lat="43.87599" lon="7.24623">
        <ele>457.7</ele>
        <time>2013-09-06T09:23:24Z</time>
      </trkpt>
      <trkpt lat="43.87587" lon="7.24623">
        <ele>457.2</ele>
        <time>2013-09-06T09:23:26Z</time>
      </trkpt>
      <trkpt lat="43.87581" lon="7.2462">
        <ele>457.7</ele>
        <time>2013-09-06T09:23:27Z</time>
      </trkpt>
      <trkpt lat="43.87577" lon="7.24617">
        <ele>457.7</ele>
        <time>2013-09-06T09:23:28Z</time>
      </trkpt>
      <trkpt lat="43.87573" lon="7.24611">
        <ele>457.2</ele>
        <time>2013-09-06T09:23:29Z</time>
      </trkpt>
      <trkpt lat="43.87571" lon="7.24605">
        <ele>457.2</ele>
        <time>2013-09-06T09:23:30Z</time>
      </trkpt>
      <trkpt lat="43.87569" lon="7.24598">
        <ele>457.7</ele>
        <time>2013-09-06T09:23:31Z</time>
      </trkpt>
      <trkpt lat="43.87568" lon="7.2459">
        <ele>457.2</ele>
        <time>2013-09-06T09:23:32Z</time>
      </trkpt>
      <trkpt lat="43.87559" lon="7.24505">
        <ele>458.2</ele>
        <time>2013-09-06T09:23:43Z</time>
      </trkpt>
      <trkpt lat="43.87557" lon="7.24497">
        <ele>458.2</ele>
        <time>2013-09-06T09:23:44Z</time>
      </trkpt>
      <trkpt lat="43.87555" lon="7.2449">
        <ele>457.7</ele>
        <time>2013-09-06T09:23:45Z</time>
      </trkpt>
      <trkpt lat="43.87545" lon="7.2446">
        <ele>457.7</ele>
        <time>2013-09-06T09:23:49Z</time>
      </trkpt>
      <trkpt lat="43.87545" lon="7.24452">
        <ele>458.2</ele>
        <time>2013-09-06T09:23:50Z</time>
      </trkpt>
      <trkpt lat="43.87546" lon="7.24445">
        <ele>457.7</ele>
        <time>2013-09-06T09:23:51Z</time>
      </trkpt>
      <trkpt lat="43.87548" lon="7.24437">
        <ele>458.2</ele>
        <time>2013-09-06T09:23:52Z</time>
      </trkpt>
      <trkpt lat="43.87551" lon="7.2443">
        <ele>458.2</ele>
        <time>2013-09-06T09:23:53Z</time>
      </trkpt>
      <trkpt lat="43.87562" lon="7.24343">
        <ele>458.7</ele>
        <time>2013-09-06T09:24:05Z</time>
      </trkpt>
      <trkpt lat="43.87556" lon="7.24293">
        <ele>459.2</ele>
        <time>2013-09-06T09:24:12Z</time>
      </trkpt>
      <trkpt lat="43.87547" lon="7.24261">
        <ele>459.7</ele>
        <time>2013-09-06T09:24:17Z</time>
      </trkpt>
      <trkpt lat="43.87514" lon="7.24135">
        <ele>461.6</ele>
        <time>2013-09-06T09:24:38Z</time>
      </trkpt>
      <trkpt lat="43.87509" lon="7.24104">
        <ele>462.1</ele>
        <time>2013-09-06T09:24:43Z</time>
      </trkpt>
      <trkpt lat="43.87489" lon="7.23985">
        <ele>464</ele>
        <time>2013-09-06T09:25:02Z</time>
      </trkpt>
      <trkpt lat="43.87461" lon="7.23868">
        <ele>465.9</ele>
        <time>2013-09-06T09:25:21Z</time>
      </trkpt>
      <trkpt lat="43.87432" lon="7.23761">
        <ele>466.9</ele>
        <time>2013-09-06T09:25:39Z</time>
      </trkpt>
      <trkpt lat="43.87431" lon="7.23755">
        <ele>467.3</ele>
        <time>2013-09-06T09:25:40Z</time>
      </trkpt>
      <trkpt lat="43.87427" lon="7.23743">
        <ele>467.8</ele>
        <time>2013-09-06T09:25:42Z</time>
      </trkpt>
      <trkpt lat="43.87425" lon="7.23738">
        <ele>467.8</ele>
        <time>2013-09-06T09:25:43Z</time>
      </trkpt>
      <trkpt lat="43.87422" lon="7.23733">
        <ele>467.3</ele>
        <time>2013-09-06T09:25:44Z</time>
      </trkpt>
      <trkpt lat="43.87418" lon="7.23729">
        <ele>467.3</ele>
        <time>2013-09-06T09:25:45Z</time>
      </trkpt>
      <trkpt lat="43.87414" lon="7.23726">
        <ele>467.3</ele>
        <time>2013-09-06T09:25:46Z</time>
      </trkpt>
      <trkpt lat="43.8741" lon="7.23723">
        <ele>467.3</ele>
        <time>2013-09-06T09:25:47Z</time>
      </trkpt>
      <trkpt lat="43.87405" lon="7.23721">
        <ele>467.3</ele>
        <time>2013-09-06T09:25:48Z</time>
      </trkpt>
      <trkpt lat="43.87338" lon="7.23685">
        <ele>466.4</ele>
        <time>2013-09-06T09:26:02Z</time>
      </trkpt>
      <trkpt lat="43.87335" lon="7.23679">
        <ele>466.9</ele>
        <time>2013-09-06T09:26:03Z</time>
      </trkpt>
      <trkpt lat="43.87334" lon="7.23673">
        <ele>466.9</ele>
        <time>2013-09-06T09:26:04Z</time>
      </trkpt>
      <trkpt lat="43.87334" lon="7.23665">
        <ele>466.4</ele>
        <time>2013-09-06T09:26:05Z</time>
      </trkpt>
      <trkpt lat="43.87335" lon="7.23658">
        <ele>466.9</ele>
        <time>2013-09-06T09:26:06Z</time>
      </trkpt>
      <trkpt lat="43.87342" lon="7.23563">
        <ele>468.8</ele>
        <time>2013-09-06T09:26:21Z</time>
      </trkpt>
      <trkpt lat="43.8732" lon="7.235">
        <ele>470.7</ele>
        <time>2013-09-06T09:26:35Z</time>
      </trkpt>
      <trkpt lat="43.87322" lon="7.23452">
        <ele>471.7</ele>
        <time>2013-09-06T09:26:45Z</time>
      </trkpt>
      <trkpt lat="43.87359" lon="7.23429">
        <ele>473.6</ele>
        <time>2013-09-06T09:26:56Z</time>
      </trkpt>
      <trkpt lat="43.87389" lon="7.23381">
        <ele>475</ele>
        <time>2013-09-06T09:27:10Z</time>
      </trkpt>
      <trkpt lat="43.87397" lon="7.23318">
        <ele>477.4</ele>
        <time>2013-09-06T09:27:24Z</time>
      </trkpt>
      <trkpt lat="43.87436" lon="7.23292">
        <ele>478.9</ele>
        <time>2013-09-06T09:27:37Z</time>
      </trkpt>
      <trkpt lat="43.87478" lon="7.23258">
        <ele>480.8</ele>
        <time>2013-09-06T09:27:52Z</time>
      </trkpt>
      <trkpt lat="43.87461" lon="7.23192">
        <ele>481.8</ele>
        <time>2013-09-06T09:28:06Z</time>
      </trkpt>
      <trkpt lat="43.8744" lon="7.23152">
        <ele>482.7</ele>
        <time>2013-09-06T09:28:15Z</time>
      </trkpt>
      <trkpt lat="43.87437" lon="7.23148">
        <ele>481.8</ele>
        <time>2013-09-06T09:28:16Z</time>
      </trkpt>
      <trkpt lat="43.87433" lon="7.23145">
        <ele>481.8</ele>
        <time>2013-09-06T09:28:17Z</time>
      </trkpt>
      <trkpt lat="43.87428" lon="7.23142">
        <ele>482.2</ele>
        <time>2013-09-06T09:28:18Z</time>
      </trkpt>
      <trkpt lat="43.87424" lon="7.2314">
        <ele>481.8</ele>
        <time>2013-09-06T09:28:19Z</time>
      </trkpt>
      <trkpt lat="43.87419" lon="7.23138">
        <ele>482.2</ele>
        <time>2013-09-06T09:28:20Z</time>
      </trkpt>
      <trkpt lat="43.87414" lon="7.23137">
        <ele>482.2</ele>
        <time>2013-09-06T09:28:21Z</time>
      </trkpt>
      <trkpt lat="43.87409" lon="7.23135">
        <ele>482.2</ele>
        <time>2013-09-06T09:28:22Z</time>
      </trkpt>
      <trkpt lat="43.87396" lon="7.2313">
        <ele>482.7</ele>
        <time>2013-09-06T09:28:25Z</time>
      </trkpt>
      <trkpt lat="43.87392" lon="7.23127">
        <ele>482.2</ele>
        <time>2013-09-06T09:28:26Z</time>
      </trkpt>
      <trkpt lat="43.87388" lon="7.23124">
        <ele>482.2</ele>
        <time>2013-09-06T09:28:27Z</time>
      </trkpt>
      <trkpt lat="43.87359" lon="7.23098">
        <ele>482.7</ele>
        <time>2013-09-06T09:28:35Z</time>
      </trkpt>
      <trkpt lat="43.87355" lon="7.23096">
        <ele>482.7</ele>
        <time>2013-09-06T09:28:36Z</time>
      </trkpt>
      <trkpt lat="43.87315" lon="7.23074">
        <ele>482.7</ele>
        <time>2013-09-06T09:28:46Z</time>
      </trkpt>
      <trkpt lat="43.87255" lon="7.23015">
        <ele>484.6</ele>
        <time>2013-09-06T09:29:02Z</time>
      </trkpt>
      <trkpt lat="43.87252" lon="7.2301">
        <ele>484.2</ele>
        <time>2013-09-06T09:29:03Z</time>
      </trkpt>
      <trkpt lat="43.87251" lon="7.23005">
        <ele>484.2</ele>
        <time>2013-09-06T09:29:04Z</time>
      </trkpt>
      <trkpt lat="43.87229" lon="7.22929">
        <ele>487.5</ele>
        <time>2013-09-06T09:29:20Z</time>
      </trkpt>
      <trkpt lat="43.87232" lon="7.22872">
        <ele>489.5</ele>
        <time>2013-09-06T09:29:32Z</time>
      </trkpt>
      <trkpt lat="43.8725" lon="7.22825">
        <ele>491.4</ele>
        <time>2013-09-06T09:29:44Z</time>
      </trkpt>
      <trkpt lat="43.87221" lon="7.22774">
        <ele>493.3</ele>
        <time>2013-09-06T09:29:58Z</time>
      </trkpt>
      <trkpt lat="43.87187" lon="7.22721">
        <ele>495.7</ele>
        <time>2013-09-06T09:30:14Z</time>
      </trkpt>
      <trkpt lat="43.8716" lon="7.22726">
        <ele>496.7</ele>
        <time>2013-09-06T09:30:25Z</time>
      </trkpt>
      <trkpt lat="43.87139" lon="7.2276">
        <ele>498.1</ele>
        <time>2013-09-06T09:30:37Z</time>
      </trkpt>
      <trkpt lat="43.87104" lon="7.22804">
        <ele>500.5</ele>
        <time>2013-09-06T09:30:51Z</time>
      </trkpt>
      <trkpt lat="43.8707" lon="7.22831">
        <ele>502</ele>
        <time>2013-09-06T09:31:04Z</time>
      </trkpt>
      <trkpt lat="43.87028" lon="7.22782">
        <ele>504.4</ele>
        <time>2013-09-06T09:31:21Z</time>
      </trkpt>
      <trkpt lat="43.8699" lon="7.22724">
        <ele>506.8</ele>
        <time>2013-09-06T09:31:39Z</time>
      </trkpt>
      <trkpt lat="43.86952" lon="7.22717">
        <ele>508.2</ele>
        <time>2013-09-06T09:31:51Z</time>
      </trkpt>
      <trkpt lat="43.86911" lon="7.22748">
        <ele>510.1</ele>
        <time>2013-09-06T09:32:05Z</time>
      </trkpt>
      <trkpt lat="43.8689" lon="7.22795">
        <ele>512</ele>
        <time>2013-09-06T09:32:18Z</time>
      </trkpt>
      <trkpt lat="43.86871" lon="7.22822">
        <ele>512.5</ele>
        <time>2013-09-06T09:32:27Z</time>
      </trkpt>
      <trkpt lat="43.8684" lon="7.22821">
        <ele>514</ele>
        <time>2013-09-06T09:32:37Z</time>
      </trkpt>
      <trkpt lat="43.86839" lon="7.22823">
        <ele>514</ele>
        <time>2013-09-06T09:32:38Z</time>
      </trkpt>
      <trkpt lat="43.86837" lon="7.22825">
        <ele>514.4</ele>
        <time>2013-09-06T09:32:39Z</time>
      </trkpt>
      <trkpt lat="43.86835" lon="7.22828">
        <ele>514.9</ele>
        <time>2013-09-06T09:32:40Z</time>
      </trkpt>
      <trkpt lat="43.86833" lon="7.2283">
        <ele>514.4</ele>
        <time>2013-09-06T09:32:41Z</time>
      </trkpt>
      <trkpt lat="43.86831" lon="7.22832">
        <ele>514.4</ele>
        <time>2013-09-06T09:32:42Z</time>
      </trkpt>
      <trkpt lat="43.868" lon="7.22853">
        <ele>516.9</ele>
        <time>2013-09-06T09:32:54Z</time>
      </trkpt>
      <trkpt lat="43.86769" lon="7.22851">
        <ele>518.3</ele>
        <time>2013-09-06T09:33:05Z</time>
      </trkpt>
      <trkpt lat="43.86726" lon="7.22866">
        <ele>520.2</ele>
        <time>2013-09-06T09:33:19Z</time>
      </trkpt>
      <trkpt lat="43.86692" lon="7.22868">
        <ele>522.1</ele>
        <time>2013-09-06T09:33:31Z</time>
      </trkpt>
      <trkpt lat="43.86656" lon="7.2286">
        <ele>524.1</ele>
        <time>2013-09-06T09:33:43Z</time>
      </trkpt>
      <trkpt lat="43.86613" lon="7.22881">
        <ele>524.5</ele>
        <time>2013-09-06T09:33:56Z</time>
      </trkpt>
      <trkpt lat="43.86599" lon="7.22865">
        <ele>524.1</ele>
        <time>2013-09-06T09:34:01Z</time>
      </trkpt>
      <trkpt lat="43.86598" lon="7.2286">
        <ele>524.1</ele>
        <time>2013-09-06T09:34:02Z</time>
      </trkpt>
      <trkpt lat="43.86598" lon="7.22854">
        <ele>524.5</ele>
        <time>2013-09-06T09:34:03Z</time>
      </trkpt>
      <trkpt lat="43.86599" lon="7.22849">
        <ele>524.5</ele>
        <time>2013-09-06T09:34:04Z</time>
      </trkpt>
      <trkpt lat="43.86601" lon="7.22844">
        <ele>524.1</ele>
        <time>2013-09-06T09:34:05Z</time>
      </trkpt>
      <trkpt lat="43.86628" lon="7.22792">
        <ele>526.5</ele>
        <time>2013-09-06T09:34:18Z</time>
      </trkpt>
      <trkpt lat="43.86667" lon="7.22741">
        <ele>527.9</ele>
        <time>2013-09-06T09:34:33Z</time>
      </trkpt>
      <trkpt lat="43.86696" lon="7.22679">
        <ele>530.3</ele>
        <time>2013-09-06T09:34:48Z</time>
      </trkpt>
      <trkpt lat="43.86693" lon="7.22666">
        <ele>529.8</ele>
        <time>2013-09-06T09:34:51Z</time>
      </trkpt>
      <trkpt lat="43.86691" lon="7.22663">
        <ele>530.3</ele>
        <time>2013-09-06T09:34:52Z</time>
      </trkpt>
      <trkpt lat="43.86687" lon="7.22661">
        <ele>530.3</ele>
        <time>2013-09-06T09:34:53Z</time>
      </trkpt>
      <trkpt lat="43.86683" lon="7.2266">
        <ele>530.3</ele>
        <time>2013-09-06T09:34:54Z</time>
      </trkpt>
      <trkpt lat="43.86679" lon="7.2266">
        <ele>530.3</ele>
        <time>2013-09-06T09:34:55Z</time>
      </trkpt>
      <trkpt lat="43.86636" lon="7.22668">
        <ele>529.8</ele>
        <time>2013-09-06T09:35:04Z</time>
      </trkpt>
      <trkpt lat="43.86632" lon="7.22671">
        <ele>530.3</ele>
        <time>2013-09-06T09:35:05Z</time>
      </trkpt>
      <trkpt lat="43.86566" lon="7.22718">
        <ele>528.9</ele>
        <time>2013-09-06T09:35:20Z</time>
      </trkpt>
      <trkpt lat="43.86561" lon="7.22719">
        <ele>528.9</ele>
        <time>2013-09-06T09:35:21Z</time>
      </trkpt>
      <trkpt lat="43.86557" lon="7.22718">
        <ele>528.9</ele>
        <time>2013-09-06T09:35:22Z</time>
      </trkpt>
      <trkpt lat="43.86552" lon="7.22719">
        <ele>528.9</ele>
        <time>2013-09-06T09:35:23Z</time>
      </trkpt>
      <trkpt lat="43.86548" lon="7.2272">
        <ele>528.9</ele>
        <time>2013-09-06T09:35:24Z</time>
      </trkpt>
      <trkpt lat="43.86543" lon="7.22721">
        <ele>529.3</ele>
        <time>2013-09-06T09:35:25Z</time>
      </trkpt>
      <trkpt lat="43.86538" lon="7.22721">
        <ele>529.3</ele>
        <time>2013-09-06T09:35:26Z</time>
      </trkpt>
      <trkpt lat="43.86532" lon="7.22722">
        <ele>529.3</ele>
        <time>2013-09-06T09:35:27Z</time>
      </trkpt>
      <trkpt lat="43.86511" lon="7.22723">
        <ele>528.9</ele>
        <time>2013-09-06T09:35:31Z</time>
      </trkpt>
      <trkpt lat="43.86443" lon="7.22735">
        <ele>527.4</ele>
        <time>2013-09-06T09:35:43Z</time>
      </trkpt>
      <trkpt lat="43.86421" lon="7.22738">
        <ele>527.4</ele>
        <time>2013-09-06T09:35:47Z</time>
      </trkpt>
      <trkpt lat="43.86417" lon="7.22739">
        <ele>526.9</ele>
        <time>2013-09-06T09:35:48Z</time>
      </trkpt>
      <trkpt lat="43.86413" lon="7.22741">
        <ele>526.9</ele>
        <time>2013-09-06T09:35:49Z</time>
      </trkpt>
      <trkpt lat="43.8634" lon="7.22765">
        <ele>526.5</ele>
        <time>2013-09-06T09:36:02Z</time>
      </trkpt>
      <trkpt lat="43.86323" lon="7.22774">
        <ele>526</ele>
        <time>2013-09-06T09:36:05Z</time>
      </trkpt>
      <trkpt lat="43.86318" lon="7.22778">
        <ele>526.5</ele>
        <time>2013-09-06T09:36:06Z</time>
      </trkpt>
      <trkpt lat="43.86313" lon="7.22783">
        <ele>526</ele>
        <time>2013-09-06T09:36:07Z</time>
      </trkpt>
      <trkpt lat="43.86246" lon="7.22858">
        <ele>524.5</ele>
        <time>2013-09-06T09:36:22Z</time>
      </trkpt>
      <trkpt lat="43.86203" lon="7.22902">
        <ele>524.1</ele>
        <time>2013-09-06T09:36:31Z</time>
      </trkpt>
      <trkpt lat="43.86198" lon="7.22906">
        <ele>524.5</ele>
        <time>2013-09-06T09:36:32Z</time>
      </trkpt>
      <trkpt lat="43.86192" lon="7.22908">
        <ele>524.1</ele>
        <time>2013-09-06T09:36:33Z</time>
      </trkpt>
      <trkpt lat="43.86186" lon="7.22909">
        <ele>523.6</ele>
        <time>2013-09-06T09:36:34Z</time>
      </trkpt>
      <trkpt lat="43.8618" lon="7.22909">
        <ele>523.6</ele>
        <time>2013-09-06T09:36:35Z</time>
      </trkpt>
      <trkpt lat="43.86175" lon="7.2291">
        <ele>524.1</ele>
        <time>2013-09-06T09:36:36Z</time>
      </trkpt>
      <trkpt lat="43.86169" lon="7.22909">
        <ele>524.1</ele>
        <time>2013-09-06T09:36:37Z</time>
      </trkpt>
      <trkpt lat="43.86089" lon="7.22908">
        <ele>526.9</ele>
        <time>2013-09-06T09:36:54Z</time>
      </trkpt>
      <trkpt lat="43.86026" lon="7.22908">
        <ele>529.3</ele>
        <time>2013-09-06T09:37:11Z</time>
      </trkpt>
      <trkpt lat="43.85992" lon="7.22926">
        <ele>530.3</ele>
        <time>2013-09-06T09:37:23Z</time>
      </trkpt>
      <trkpt lat="43.85981" lon="7.22932">
        <ele>529.3</ele>
        <time>2013-09-06T09:37:32Z</time>
      </trkpt>
      <trkpt lat="43.85981" lon="7.22932">
        <ele>529.3</ele>
        <time>2013-09-06T09:38:09Z</time>
      </trkpt>
      <trkpt lat="43.85983" lon="7.22929">
        <ele>529.3</ele>
        <time>2013-09-06T09:38:45Z</time>
      </trkpt>
      <trkpt lat="43.85986" lon="7.22928">
        <ele>529.8</ele>
        <time>2013-09-06T09:39:19Z</time>
      </trkpt>
      <trkpt lat="43.85985" lon="7.2293">
        <ele>529.8</ele>
        <time>2013-09-06T09:39:53Z</time>
      </trkpt>
      <trkpt lat="43.85984" lon="7.22932">
        <ele>530.8</ele>
        <time>2013-09-06T09:40:04Z</time>
      </trkpt>
      <trkpt lat="43.85983" lon="7.22929">
        <ele>529.8</ele>
        <time>2013-09-06T09:40:39Z</time>
      </trkpt>
      <trkpt lat="43.85983" lon="7.22926">
        <ele>528.9</ele>
        <time>2013-09-06T09:40:57Z</time>
      </trkpt>
      <trkpt lat="43.85983" lon="7.22932">
        <ele>531.3</ele>
        <time>2013-09-06T09:41:30Z</time>
      </trkpt>
      <trkpt lat="43.85983" lon="7.22931">
        <ele>527.9</ele>
        <time>2013-09-06T09:41:35Z</time>
      </trkpt>
      <trkpt lat="43.85983" lon="7.22931">
        <ele>531.3</ele>
        <time>2013-09-06T09:41:36Z</time>
      </trkpt>
      <trkpt lat="43.85984" lon="7.22927">
        <ele>529.8</ele>
        <time>2013-09-06T09:42:09Z</time>
      </trkpt>
      <trkpt lat="43.85986" lon="7.22927">
        <ele>529.8</ele>
        <time>2013-09-06T09:42:42Z</time>
      </trkpt>
      <trkpt lat="43.85987" lon="7.22932">
        <ele>529.8</ele>
        <time>2013-09-06T09:43:17Z</time>
      </trkpt>
      <trkpt lat="43.8598" lon="7.22933">
        <ele>529.3</ele>
        <time>2013-09-06T09:43:39Z</time>
      </trkpt>
      <trkpt lat="43.85979" lon="7.22935">
        <ele>528.9</ele>
        <time>2013-09-06T09:43:45Z</time>
      </trkpt>
      <trkpt lat="43.85978" lon="7.22936">
        <ele>529.3</ele>
        <time>2013-09-06T09:43:46Z</time>
      </trkpt>
      <trkpt lat="43.85976" lon="7.22938">
        <ele>529.3</ele>
        <time>2013-09-06T09:43:47Z</time>
      </trkpt>
      <trkpt lat="43.85975" lon="7.2294">
        <ele>528.9</ele>
        <time>2013-09-06T09:43:48Z</time>
      </trkpt>
      <trkpt lat="43.85973" lon="7.22943">
        <ele>528.9</ele>
        <time>2013-09-06T09:43:49Z</time>
      </trkpt>
      <trkpt lat="43.85972" lon="7.22946">
        <ele>529.3</ele>
        <time>2013-09-06T09:43:50Z</time>
      </trkpt>
      <trkpt lat="43.85971" lon="7.22948">
        <ele>528.9</ele>
        <time>2013-09-06T09:43:51Z</time>
      </trkpt>
      <trkpt lat="43.85943" lon="7.22984">
        <ele>528.4</ele>
        <time>2013-09-06T09:44:02Z</time>
      </trkpt>
      <trkpt lat="43.85884" lon="7.23035">
        <ele>526.5</ele>
        <time>2013-09-06T09:44:16Z</time>
      </trkpt>
      <trkpt lat="43.8588" lon="7.23036">
        <ele>526.5</ele>
        <time>2013-09-06T09:44:17Z</time>
      </trkpt>
      <trkpt lat="43.85848" lon="7.23037">
        <ele>526.9</ele>
        <time>2013-09-06T09:44:23Z</time>
      </trkpt>
      <trkpt lat="43.8579" lon="7.2303">
        <ele>528.4</ele>
        <time>2013-09-06T09:44:36Z</time>
      </trkpt>
      <trkpt lat="43.85777" lon="7.2303">
        <ele>528.4</ele>
        <time>2013-09-06T09:44:39Z</time>
      </trkpt>
      <trkpt lat="43.85756" lon="7.23036">
        <ele>528.4</ele>
        <time>2013-09-06T09:44:44Z</time>
      </trkpt>
      <trkpt lat="43.85751" lon="7.23039">
        <ele>528.4</ele>
        <time>2013-09-06T09:44:45Z</time>
      </trkpt>
      <trkpt lat="43.85691" lon="7.23095">
        <ele>528.4</ele>
        <time>2013-09-06T09:45:00Z</time>
      </trkpt>
      <trkpt lat="43.85683" lon="7.23103">
        <ele>528.4</ele>
        <time>2013-09-06T09:45:02Z</time>
      </trkpt>
      <trkpt lat="43.85679" lon="7.23106">
        <ele>528.4</ele>
        <time>2013-09-06T09:45:03Z</time>
      </trkpt>
      <trkpt lat="43.85674" lon="7.23109">
        <ele>527.9</ele>
        <time>2013-09-06T09:45:04Z</time>
      </trkpt>
      <trkpt lat="43.85659" lon="7.23115">
        <ele>528.4</ele>
        <time>2013-09-06T09:45:07Z</time>
      </trkpt>
      <trkpt lat="43.85654" lon="7.23116">
        <ele>528.4</ele>
        <time>2013-09-06T09:45:08Z</time>
      </trkpt>
      <trkpt lat="43.85629" lon="7.23119">
        <ele>529.3</ele>
        <time>2013-09-06T09:45:13Z</time>
      </trkpt>
      <trkpt lat="43.85624" lon="7.23119">
        <ele>529.3</ele>
        <time>2013-09-06T09:45:14Z</time>
      </trkpt>
      <trkpt lat="43.85609" lon="7.23124">
        <ele>529.3</ele>
        <time>2013-09-06T09:45:17Z</time>
      </trkpt>
      <trkpt lat="43.85534" lon="7.23177">
        <ele>529.3</ele>
        <time>2013-09-06T09:45:33Z</time>
      </trkpt>
      <trkpt lat="43.85447" lon="7.23237">
        <ele>530.3</ele>
        <time>2013-09-06T09:45:52Z</time>
      </trkpt>
      <trkpt lat="43.85406" lon="7.23268">
        <ele>530.3</ele>
        <time>2013-09-06T09:46:02Z</time>
      </trkpt>
      <trkpt lat="43.85374" lon="7.23299">
        <ele>531.3</ele>
        <time>2013-09-06T09:46:10Z</time>
      </trkpt>
      <trkpt lat="43.85319" lon="7.23384">
        <ele>531.8</ele>
        <time>2013-09-06T09:46:25Z</time>
      </trkpt>
      <trkpt lat="43.85288" lon="7.23427">
        <ele>532.2</ele>
        <time>2013-09-06T09:46:33Z</time>
      </trkpt>
      <trkpt lat="43.85284" lon="7.2343">
        <ele>532.2</ele>
        <time>2013-09-06T09:46:34Z</time>
      </trkpt>
      <trkpt lat="43.85279" lon="7.23434">
        <ele>531.8</ele>
        <time>2013-09-06T09:46:35Z</time>
      </trkpt>
      <trkpt lat="43.85228" lon="7.2347">
        <ele>534.6</ele>
        <time>2013-09-06T09:46:48Z</time>
      </trkpt>
      <trkpt lat="43.85202" lon="7.23514">
        <ele>537.5</ele>
        <time>2013-09-06T09:47:02Z</time>
      </trkpt>
      <trkpt lat="43.8519" lon="7.23536">
        <ele>538.5</ele>
        <time>2013-09-06T09:47:09Z</time>
      </trkpt>
      <trkpt lat="43.85168" lon="7.23569">
        <ele>540.4</ele>
        <time>2013-09-06T09:47:22Z</time>
      </trkpt>
      <trkpt lat="43.85134" lon="7.23598">
        <ele>542.8</ele>
        <time>2013-09-06T09:47:36Z</time>
      </trkpt>
      <trkpt lat="43.85095" lon="7.23619">
        <ele>546.2</ele>
        <time>2013-09-06T09:47:51Z</time>
      </trkpt>
      <trkpt lat="43.85056" lon="7.23646">
        <ele>548.6</ele>
        <time>2013-09-06T09:48:07Z</time>
      </trkpt>
      <trkpt lat="43.85026" lon="7.23668">
        <ele>551</ele>
        <time>2013-09-06T09:48:21Z</time>
      </trkpt>
      <trkpt lat="43.84992" lon="7.23698">
        <ele>553.4</ele>
        <time>2013-09-06T09:48:34Z</time>
      </trkpt>
      <trkpt lat="43.84951" lon="7.23725">
        <ele>554.3</ele>
        <time>2013-09-06T09:48:47Z</time>
      </trkpt>
      <trkpt lat="43.84912" lon="7.23753">
        <ele>554.8</ele>
        <time>2013-09-06T09:48:58Z</time>
      </trkpt>
      <trkpt lat="43.84909" lon="7.23757">
        <ele>554.8</ele>
        <time>2013-09-06T09:48:59Z</time>
      </trkpt>
      <trkpt lat="43.84906" lon="7.23761">
        <ele>554.8</ele>
        <time>2013-09-06T09:49:00Z</time>
      </trkpt>
      <trkpt lat="43.84902" lon="7.23764">
        <ele>555.3</ele>
        <time>2013-09-06T09:49:01Z</time>
      </trkpt>
      <trkpt lat="43.84898" lon="7.23767">
        <ele>555.3</ele>
        <time>2013-09-06T09:49:02Z</time>
      </trkpt>
      <trkpt lat="43.84827" lon="7.23824">
        <ele>554.3</ele>
        <time>2013-09-06T09:49:19Z</time>
      </trkpt>
      <trkpt lat="43.8476" lon="7.23876">
        <ele>554.8</ele>
        <time>2013-09-06T09:49:34Z</time>
      </trkpt>
      <trkpt lat="43.84682" lon="7.23935">
        <ele>553.9</ele>
        <time>2013-09-06T09:49:50Z</time>
      </trkpt>
      <trkpt lat="43.84608" lon="7.2399">
        <ele>551.5</ele>
        <time>2013-09-06T09:50:04Z</time>
      </trkpt>
      <trkpt lat="43.84528" lon="7.24051">
        <ele>550</ele>
        <time>2013-09-06T09:50:18Z</time>
      </trkpt>
      <trkpt lat="43.84446" lon="7.24106">
        <ele>548.6</ele>
        <time>2013-09-06T09:50:32Z</time>
      </trkpt>
      <trkpt lat="43.8444" lon="7.24107">
        <ele>547.6</ele>
        <time>2013-09-06T09:50:33Z</time>
      </trkpt>
      <trkpt lat="43.84422" lon="7.24106">
        <ele>548.1</ele>
        <time>2013-09-06T09:50:36Z</time>
      </trkpt>
      <trkpt lat="43.84417" lon="7.2411">
        <ele>547.6</ele>
        <time>2013-09-06T09:50:37Z</time>
      </trkpt>
      <trkpt lat="43.84413" lon="7.24117">
        <ele>548.1</ele>
        <time>2013-09-06T09:50:38Z</time>
      </trkpt>
      <trkpt lat="43.8437" lon="7.24214">
        <ele>545.2</ele>
        <time>2013-09-06T09:50:50Z</time>
      </trkpt>
      <trkpt lat="43.84326" lon="7.24299">
        <ele>542.8</ele>
        <time>2013-09-06T09:51:00Z</time>
      </trkpt>
      <trkpt lat="43.84319" lon="7.24306">
        <ele>542.8</ele>
        <time>2013-09-06T09:51:01Z</time>
      </trkpt>
      <trkpt lat="43.84312" lon="7.24312">
        <ele>541.8</ele>
        <time>2013-09-06T09:51:02Z</time>
      </trkpt>
      <trkpt lat="43.84262" lon="7.24348">
        <ele>540.4</ele>
        <time>2013-09-06T09:51:09Z</time>
      </trkpt>
      <trkpt lat="43.8418" lon="7.24428">
        <ele>537.5</ele>
        <time>2013-09-06T09:51:21Z</time>
      </trkpt>
      <trkpt lat="43.84108" lon="7.24497">
        <ele>534.6</ele>
        <time>2013-09-06T09:51:32Z</time>
      </trkpt>
      <trkpt lat="43.84059" lon="7.24543">
        <ele>533.2</ele>
        <time>2013-09-06T09:51:40Z</time>
      </trkpt>
      <trkpt lat="43.84052" lon="7.24545">
        <ele>533.7</ele>
        <time>2013-09-06T09:51:41Z</time>
      </trkpt>
      <trkpt lat="43.84045" lon="7.24546">
        <ele>532.7</ele>
        <time>2013-09-06T09:51:42Z</time>
      </trkpt>
      <trkpt lat="43.84037" lon="7.24544">
        <ele>532.7</ele>
        <time>2013-09-06T09:51:43Z</time>
      </trkpt>
      <trkpt lat="43.8403" lon="7.24543">
        <ele>533.2</ele>
        <time>2013-09-06T09:51:44Z</time>
      </trkpt>
      <trkpt lat="43.83964" lon="7.24527">
        <ele>531.8</ele>
        <time>2013-09-06T09:51:53Z</time>
      </trkpt>
      <trkpt lat="43.83957" lon="7.24528">
        <ele>531.3</ele>
        <time>2013-09-06T09:51:54Z</time>
      </trkpt>
      <trkpt lat="43.83949" lon="7.24532">
        <ele>531.3</ele>
        <time>2013-09-06T09:51:55Z</time>
      </trkpt>
      <trkpt lat="43.83943" lon="7.24537">
        <ele>530.8</ele>
        <time>2013-09-06T09:51:56Z</time>
      </trkpt>
      <trkpt lat="43.83936" lon="7.24544">
        <ele>530.8</ele>
        <time>2013-09-06T09:51:57Z</time>
      </trkpt>
      <trkpt lat="43.8384" lon="7.24632">
        <ele>527.9</ele>
        <time>2013-09-06T09:52:13Z</time>
      </trkpt>
      <trkpt lat="43.83834" lon="7.24635">
        <ele>528.4</ele>
        <time>2013-09-06T09:52:14Z</time>
      </trkpt>
      <trkpt lat="43.83827" lon="7.24636">
        <ele>527.9</ele>
        <time>2013-09-06T09:52:15Z</time>
      </trkpt>
      <trkpt lat="43.8382" lon="7.24637">
        <ele>527.9</ele>
        <time>2013-09-06T09:52:16Z</time>
      </trkpt>
      <trkpt lat="43.83814" lon="7.24636">
        <ele>527.9</ele>
        <time>2013-09-06T09:52:17Z</time>
      </trkpt>
      <trkpt lat="43.83807" lon="7.24635">
        <ele>527.9</ele>
        <time>2013-09-06T09:52:18Z</time>
      </trkpt>
      <trkpt lat="43.83716" lon="7.24623">
        <ele>526.9</ele>
        <time>2013-09-06T09:52:31Z</time>
      </trkpt>
      <trkpt lat="43.83648" lon="7.24643">
        <ele>526</ele>
        <time>2013-09-06T09:52:41Z</time>
      </trkpt>
      <trkpt lat="43.83635" lon="7.24651">
        <ele>525.5</ele>
        <time>2013-09-06T09:52:43Z</time>
      </trkpt>
      <trkpt lat="43.83623" lon="7.24661">
        <ele>525.5</ele>
        <time>2013-09-06T09:52:45Z</time>
      </trkpt>
      <trkpt lat="43.83618" lon="7.24668">
        <ele>525</ele>
        <time>2013-09-06T09:52:46Z</time>
      </trkpt>
      <trkpt lat="43.83614" lon="7.24676">
        <ele>525</ele>
        <time>2013-09-06T09:52:47Z</time>
      </trkpt>
      <trkpt lat="43.83611" lon="7.24685">
        <ele>525</ele>
        <time>2013-09-06T09:52:48Z</time>
      </trkpt>
      <trkpt lat="43.83609" lon="7.24694">
        <ele>525</ele>
        <time>2013-09-06T09:52:49Z</time>
      </trkpt>
      <trkpt lat="43.83608" lon="7.24703">
        <ele>525</ele>
        <time>2013-09-06T09:52:50Z</time>
      </trkpt>
      <trkpt lat="43.83608" lon="7.24711">
        <ele>525</ele>
        <time>2013-09-06T09:52:51Z</time>
      </trkpt>
      <trkpt lat="43.83608" lon="7.2472">
        <ele>524.5</ele>
        <time>2013-09-06T09:52:52Z</time>
      </trkpt>
      <trkpt lat="43.83611" lon="7.24772">
        <ele>523.1</ele>
        <time>2013-09-06T09:52:58Z</time>
      </trkpt>
      <trkpt lat="43.8361" lon="7.2478">
        <ele>523.6</ele>
        <time>2013-09-06T09:52:59Z</time>
      </trkpt>
      <trkpt lat="43.83608" lon="7.24789">
        <ele>522.6</ele>
        <time>2013-09-06T09:53:00Z</time>
      </trkpt>
      <trkpt lat="43.83581" lon="7.24865">
        <ele>523.1</ele>
        <time>2013-09-06T09:53:10Z</time>
      </trkpt>
      <trkpt lat="43.8358" lon="7.24873">
        <ele>523.1</ele>
        <time>2013-09-06T09:53:11Z</time>
      </trkpt>
      <trkpt lat="43.83579" lon="7.24881">
        <ele>523.1</ele>
        <time>2013-09-06T09:53:12Z</time>
      </trkpt>
      <trkpt lat="43.8358" lon="7.2489">
        <ele>523.1</ele>
        <time>2013-09-06T09:53:13Z</time>
      </trkpt>
      <trkpt lat="43.8358" lon="7.24898">
        <ele>523.6</ele>
        <time>2013-09-06T09:53:14Z</time>
      </trkpt>
      <trkpt lat="43.83577" lon="7.2503">
        <ele>523.1</ele>
        <time>2013-09-06T09:53:29Z</time>
      </trkpt>
      <trkpt lat="43.83574" lon="7.25048">
        <ele>522.6</ele>
        <time>2013-09-06T09:53:31Z</time>
      </trkpt>
      <trkpt lat="43.83572" lon="7.25056">
        <ele>522.6</ele>
        <time>2013-09-06T09:53:32Z</time>
      </trkpt>
      <trkpt lat="43.83569" lon="7.25064">
        <ele>523.1</ele>
        <time>2013-09-06T09:53:33Z</time>
      </trkpt>
      <trkpt lat="43.83564" lon="7.25069">
        <ele>523.1</ele>
        <time>2013-09-06T09:53:34Z</time>
      </trkpt>
      <trkpt lat="43.83558" lon="7.25072">
        <ele>523.1</ele>
        <time>2013-09-06T09:53:35Z</time>
      </trkpt>
      <trkpt lat="43.83551" lon="7.25074">
        <ele>522.6</ele>
        <time>2013-09-06T09:53:36Z</time>
      </trkpt>
      <trkpt lat="43.83478" lon="7.25102">
        <ele>519.7</ele>
        <time>2013-09-06T09:53:45Z</time>
      </trkpt>
      <trkpt lat="43.83404" lon="7.25108">
        <ele>517.3</ele>
        <time>2013-09-06T09:53:53Z</time>
      </trkpt>
      <trkpt lat="43.83396" lon="7.25114">
        <ele>516.9</ele>
        <time>2013-09-06T09:53:54Z</time>
      </trkpt>
      <trkpt lat="43.83373" lon="7.25133">
        <ele>515.4</ele>
        <time>2013-09-06T09:53:57Z</time>
      </trkpt>
      <trkpt lat="43.8333" lon="7.25153">
        <ele>513.5</ele>
        <time>2013-09-06T09:54:02Z</time>
      </trkpt>
      <trkpt lat="43.83321" lon="7.25153">
        <ele>513</ele>
        <time>2013-09-06T09:54:03Z</time>
      </trkpt>
      <trkpt lat="43.83256" lon="7.25151">
        <ele>510.6</ele>
        <time>2013-09-06T09:54:10Z</time>
      </trkpt>
      <trkpt lat="43.83248" lon="7.25154">
        <ele>510.6</ele>
        <time>2013-09-06T09:54:11Z</time>
      </trkpt>
      <trkpt lat="43.832" lon="7.25185">
        <ele>507.7</ele>
        <time>2013-09-06T09:54:17Z</time>
      </trkpt>
      <trkpt lat="43.83197" lon="7.25199">
        <ele>507.7</ele>
        <time>2013-09-06T09:54:18Z</time>
      </trkpt>
      <trkpt lat="43.83193" lon="7.25212">
        <ele>507.2</ele>
        <time>2013-09-06T09:54:19Z</time>
      </trkpt>
      <trkpt lat="43.83186" lon="7.25219">
        <ele>506.8</ele>
        <time>2013-09-06T09:54:20Z</time>
      </trkpt>
      <trkpt lat="43.83174" lon="7.25232">
        <ele>506.3</ele>
        <time>2013-09-06T09:54:22Z</time>
      </trkpt>
      <trkpt lat="43.83169" lon="7.2524">
        <ele>506.3</ele>
        <time>2013-09-06T09:54:23Z</time>
      </trkpt>
      <trkpt lat="43.83164" lon="7.25248">
        <ele>505.3</ele>
        <time>2013-09-06T09:54:24Z</time>
      </trkpt>
      <trkpt lat="43.83159" lon="7.25257">
        <ele>504.8</ele>
        <time>2013-09-06T09:54:25Z</time>
      </trkpt>
      <trkpt lat="43.83156" lon="7.25263">
        <ele>504.8</ele>
        <time>2013-09-06T09:54:26Z</time>
      </trkpt>
      <trkpt lat="43.83127" lon="7.25324">
        <ele>502.9</ele>
        <time>2013-09-06T09:54:31Z</time>
      </trkpt>
      <trkpt lat="43.83123" lon="7.25337">
        <ele>502.4</ele>
        <time>2013-09-06T09:54:32Z</time>
      </trkpt>
      <trkpt lat="43.83121" lon="7.25349">
        <ele>502.4</ele>
        <time>2013-09-06T09:54:33Z</time>
      </trkpt>
      <trkpt lat="43.8312" lon="7.25363">
        <ele>502</ele>
        <time>2013-09-06T09:54:34Z</time>
      </trkpt>
      <trkpt lat="43.83119" lon="7.25375">
        <ele>500.5</ele>
        <time>2013-09-06T09:54:35Z</time>
      </trkpt>
      <trkpt lat="43.83118" lon="7.25388">
        <ele>501</ele>
        <time>2013-09-06T09:54:36Z</time>
      </trkpt>
      <trkpt lat="43.83116" lon="7.25449">
        <ele>498.1</ele>
        <time>2013-09-06T09:54:41Z</time>
      </trkpt>
      <trkpt lat="43.83115" lon="7.25461">
        <ele>498.1</ele>
        <time>2013-09-06T09:54:42Z</time>
      </trkpt>
      <trkpt lat="43.83101" lon="7.25537">
        <ele>495.7</ele>
        <time>2013-09-06T09:54:48Z</time>
      </trkpt>
      <trkpt lat="43.83097" lon="7.25548">
        <ele>494.7</ele>
        <time>2013-09-06T09:54:49Z</time>
      </trkpt>
      <trkpt lat="43.83091" lon="7.25557">
        <ele>494.7</ele>
        <time>2013-09-06T09:54:50Z</time>
      </trkpt>
      <trkpt lat="43.83084" lon="7.25564">
        <ele>494.3</ele>
        <time>2013-09-06T09:54:51Z</time>
      </trkpt>
      <trkpt lat="43.83076" lon="7.25569">
        <ele>494.3</ele>
        <time>2013-09-06T09:54:52Z</time>
      </trkpt>
      <trkpt lat="43.83067" lon="7.25574">
        <ele>493.3</ele>
        <time>2013-09-06T09:54:53Z</time>
      </trkpt>
      <trkpt lat="43.83058" lon="7.25579">
        <ele>492.8</ele>
        <time>2013-09-06T09:54:54Z</time>
      </trkpt>
      <trkpt lat="43.83049" lon="7.25581">
        <ele>493.3</ele>
        <time>2013-09-06T09:54:55Z</time>
      </trkpt>
      <trkpt lat="43.83039" lon="7.2558">
        <ele>492.3</ele>
        <time>2013-09-06T09:54:56Z</time>
      </trkpt>
      <trkpt lat="43.8302" lon="7.25573">
        <ele>491.9</ele>
        <time>2013-09-06T09:54:58Z</time>
      </trkpt>
      <trkpt lat="43.83012" lon="7.25567">
        <ele>491.4</ele>
        <time>2013-09-06T09:54:59Z</time>
      </trkpt>
      <trkpt lat="43.83004" lon="7.25562">
        <ele>490.9</ele>
        <time>2013-09-06T09:55:00Z</time>
      </trkpt>
      <trkpt lat="43.82996" lon="7.25558">
        <ele>490.9</ele>
        <time>2013-09-06T09:55:01Z</time>
      </trkpt>
      <trkpt lat="43.82979" lon="7.25556">
        <ele>489.9</ele>
        <time>2013-09-06T09:55:03Z</time>
      </trkpt>
      <trkpt lat="43.82971" lon="7.25558">
        <ele>489.9</ele>
        <time>2013-09-06T09:55:04Z</time>
      </trkpt>
      <trkpt lat="43.82963" lon="7.25563">
        <ele>489.5</ele>
        <time>2013-09-06T09:55:05Z</time>
      </trkpt>
      <trkpt lat="43.82956" lon="7.2557">
        <ele>489.5</ele>
        <time>2013-09-06T09:55:06Z</time>
      </trkpt>
      <trkpt lat="43.82949" lon="7.25582">
        <ele>489</ele>
        <time>2013-09-06T09:55:07Z</time>
      </trkpt>
      <trkpt lat="43.82945" lon="7.25596">
        <ele>489</ele>
        <time>2013-09-06T09:55:08Z</time>
      </trkpt>
      <trkpt lat="43.82943" lon="7.2561">
        <ele>488.5</ele>
        <time>2013-09-06T09:55:09Z</time>
      </trkpt>
      <trkpt lat="43.82943" lon="7.25623">
        <ele>488</ele>
        <time>2013-09-06T09:55:10Z</time>
      </trkpt>
      <trkpt lat="43.82942" lon="7.25636">
        <ele>488</ele>
        <time>2013-09-06T09:55:11Z</time>
      </trkpt>
      <trkpt lat="43.8294" lon="7.25648">
        <ele>487.5</ele>
        <time>2013-09-06T09:55:12Z</time>
      </trkpt>
      <trkpt lat="43.82937" lon="7.25659">
        <ele>486.6</ele>
        <time>2013-09-06T09:55:13Z</time>
      </trkpt>
      <trkpt lat="43.82932" lon="7.25669">
        <ele>486.6</ele>
        <time>2013-09-06T09:55:14Z</time>
      </trkpt>
      <trkpt lat="43.82927" lon="7.25679">
        <ele>486.1</ele>
        <time>2013-09-06T09:55:15Z</time>
      </trkpt>
      <trkpt lat="43.82922" lon="7.25688">
        <ele>485.6</ele>
        <time>2013-09-06T09:55:16Z</time>
      </trkpt>
      <trkpt lat="43.82916" lon="7.25698">
        <ele>485.1</ele>
        <time>2013-09-06T09:55:17Z</time>
      </trkpt>
      <trkpt lat="43.82904" lon="7.25714">
        <ele>484.2</ele>
        <time>2013-09-06T09:55:19Z</time>
      </trkpt>
      <trkpt lat="43.82896" lon="7.25721">
        <ele>483.7</ele>
        <time>2013-09-06T09:55:20Z</time>
      </trkpt>
      <trkpt lat="43.82889" lon="7.25727">
        <ele>484.2</ele>
        <time>2013-09-06T09:55:21Z</time>
      </trkpt>
      <trkpt lat="43.8288" lon="7.25732">
        <ele>483.7</ele>
        <time>2013-09-06T09:55:22Z</time>
      </trkpt>
      <trkpt lat="43.82871" lon="7.25735">
        <ele>483.2</ele>
        <time>2013-09-06T09:55:23Z</time>
      </trkpt>
      <trkpt lat="43.82861" lon="7.25736">
        <ele>482.2</ele>
        <time>2013-09-06T09:55:24Z</time>
      </trkpt>
      <trkpt lat="43.8285" lon="7.25735">
        <ele>482.7</ele>
        <time>2013-09-06T09:55:25Z</time>
      </trkpt>
      <trkpt lat="43.82815" lon="7.25725">
        <ele>480.3</ele>
        <time>2013-09-06T09:55:29Z</time>
      </trkpt>
      <trkpt lat="43.82808" lon="7.25729">
        <ele>480.3</ele>
        <time>2013-09-06T09:55:30Z</time>
      </trkpt>
      <trkpt lat="43.82802" lon="7.25738">
        <ele>479.8</ele>
        <time>2013-09-06T09:55:31Z</time>
      </trkpt>
      <trkpt lat="43.82797" lon="7.2575">
        <ele>479.8</ele>
        <time>2013-09-06T09:55:32Z</time>
      </trkpt>
      <trkpt lat="43.82793" lon="7.25763">
        <ele>479.4</ele>
        <time>2013-09-06T09:55:33Z</time>
      </trkpt>
      <trkpt lat="43.82791" lon="7.25778">
        <ele>479.4</ele>
        <time>2013-09-06T09:55:34Z</time>
      </trkpt>
      <trkpt lat="43.82789" lon="7.25792">
        <ele>478.9</ele>
        <time>2013-09-06T09:55:35Z</time>
      </trkpt>
      <trkpt lat="43.8278" lon="7.25858">
        <ele>477</ele>
        <time>2013-09-06T09:55:40Z</time>
      </trkpt>
      <trkpt lat="43.82776" lon="7.2587">
        <ele>476.5</ele>
        <time>2013-09-06T09:55:41Z</time>
      </trkpt>
      <trkpt lat="43.82771" lon="7.25882">
        <ele>476</ele>
        <time>2013-09-06T09:55:42Z</time>
      </trkpt>
      <trkpt lat="43.82766" lon="7.25892">
        <ele>475.5</ele>
        <time>2013-09-06T09:55:43Z</time>
      </trkpt>
      <trkpt lat="43.82758" lon="7.25901">
        <ele>475</ele>
        <time>2013-09-06T09:55:44Z</time>
      </trkpt>
      <trkpt lat="43.82749" lon="7.25909">
        <ele>475</ele>
        <time>2013-09-06T09:55:45Z</time>
      </trkpt>
      <trkpt lat="43.82724" lon="7.25932">
        <ele>473.6</ele>
        <time>2013-09-06T09:55:48Z</time>
      </trkpt>
      <trkpt lat="43.82675" lon="7.26017">
        <ele>469.7</ele>
        <time>2013-09-06T09:55:57Z</time>
      </trkpt>
      <trkpt lat="43.82667" lon="7.26036">
        <ele>468.8</ele>
        <time>2013-09-06T09:55:59Z</time>
      </trkpt>
      <trkpt lat="43.82641" lon="7.26089">
        <ele>466.9</ele>
        <time>2013-09-06T09:56:05Z</time>
      </trkpt>
      <trkpt lat="43.82634" lon="7.26094">
        <ele>466.9</ele>
        <time>2013-09-06T09:56:06Z</time>
      </trkpt>
      <trkpt lat="43.82627" lon="7.26097">
        <ele>466.9</ele>
        <time>2013-09-06T09:56:07Z</time>
      </trkpt>
      <trkpt lat="43.8262" lon="7.261">
        <ele>466.9</ele>
        <time>2013-09-06T09:56:08Z</time>
      </trkpt>
      <trkpt lat="43.82612" lon="7.26101">
        <ele>466.9</ele>
        <time>2013-09-06T09:56:09Z</time>
      </trkpt>
      <trkpt lat="43.82604" lon="7.26102">
        <ele>467.3</ele>
        <time>2013-09-06T09:56:10Z</time>
      </trkpt>
      <trkpt lat="43.82596" lon="7.26101">
        <ele>467.3</ele>
        <time>2013-09-06T09:56:11Z</time>
      </trkpt>
      <trkpt lat="43.82589" lon="7.261">
        <ele>466.9</ele>
        <time>2013-09-06T09:56:12Z</time>
      </trkpt>
      <trkpt lat="43.82496" lon="7.26092">
        <ele>467.3</ele>
        <time>2013-09-06T09:56:26Z</time>
      </trkpt>
      <trkpt lat="43.8249" lon="7.26095">
        <ele>467.3</ele>
        <time>2013-09-06T09:56:27Z</time>
      </trkpt>
      <trkpt lat="43.82484" lon="7.26098">
        <ele>466.9</ele>
        <time>2013-09-06T09:56:28Z</time>
      </trkpt>
      <trkpt lat="43.82396" lon="7.26171">
        <ele>465.4</ele>
        <time>2013-09-06T09:56:44Z</time>
      </trkpt>
      <trkpt lat="43.82346" lon="7.26216">
        <ele>464.9</ele>
        <time>2013-09-06T09:56:54Z</time>
      </trkpt>
      <trkpt lat="43.8234" lon="7.2622">
        <ele>465.4</ele>
        <time>2013-09-06T09:56:55Z</time>
      </trkpt>
      <trkpt lat="43.82335" lon="7.26222">
        <ele>465.9</ele>
        <time>2013-09-06T09:56:56Z</time>
      </trkpt>
      <trkpt lat="43.8233" lon="7.26224">
        <ele>465.4</ele>
        <time>2013-09-06T09:56:57Z</time>
      </trkpt>
      <trkpt lat="43.82324" lon="7.26226">
        <ele>465.4</ele>
        <time>2013-09-06T09:56:58Z</time>
      </trkpt>
      <trkpt lat="43.82287" lon="7.26247">
        <ele>465.4</ele>
        <time>2013-09-06T09:57:05Z</time>
      </trkpt>
      <trkpt lat="43.82282" lon="7.26251">
        <ele>465.4</ele>
        <time>2013-09-06T09:57:06Z</time>
      </trkpt>
      <trkpt lat="43.82278" lon="7.26257">
        <ele>464.9</ele>
        <time>2013-09-06T09:57:07Z</time>
      </trkpt>
      <trkpt lat="43.82233" lon="7.26308">
        <ele>464.9</ele>
        <time>2013-09-06T09:57:17Z</time>
      </trkpt>
      <trkpt lat="43.82228" lon="7.26312">
        <ele>464.5</ele>
        <time>2013-09-06T09:57:18Z</time>
      </trkpt>
      <trkpt lat="43.82222" lon="7.26315">
        <ele>464</ele>
        <time>2013-09-06T09:57:19Z</time>
      </trkpt>
      <trkpt lat="43.82215" lon="7.26317">
        <ele>463.5</ele>
        <time>2013-09-06T09:57:20Z</time>
      </trkpt>
      <trkpt lat="43.82209" lon="7.26318">
        <ele>463.5</ele>
        <time>2013-09-06T09:57:21Z</time>
      </trkpt>
      <trkpt lat="43.82111" lon="7.26343">
        <ele>461.6</ele>
        <time>2013-09-06T09:57:35Z</time>
      </trkpt>
      <trkpt lat="43.82097" lon="7.26349">
        <ele>460.6</ele>
        <time>2013-09-06T09:57:37Z</time>
      </trkpt>
      <trkpt lat="43.82014" lon="7.26387">
        <ele>457.7</ele>
        <time>2013-09-06T09:57:48Z</time>
      </trkpt>
      <trkpt lat="43.81922" lon="7.26426">
        <ele>454.4</ele>
        <time>2013-09-06T09:58:00Z</time>
      </trkpt>
      <trkpt lat="43.81821" lon="7.26473">
        <ele>451</ele>
        <time>2013-09-06T09:58:14Z</time>
      </trkpt>
      <trkpt lat="43.81746" lon="7.26507">
        <ele>448.1</ele>
        <time>2013-09-06T09:58:24Z</time>
      </trkpt>
      <trkpt lat="43.81738" lon="7.26508">
        <ele>448.1</ele>
        <time>2013-09-06T09:58:25Z</time>
      </trkpt>
      <trkpt lat="43.8173" lon="7.26508">
        <ele>448.1</ele>
        <time>2013-09-06T09:58:26Z</time>
      </trkpt>
      <trkpt lat="43.81722" lon="7.26508">
        <ele>448.1</ele>
        <time>2013-09-06T09:58:27Z</time>
      </trkpt>
      <trkpt lat="43.81715" lon="7.26506">
        <ele>447.6</ele>
        <time>2013-09-06T09:58:28Z</time>
      </trkpt>
      <trkpt lat="43.81707" lon="7.26504">
        <ele>447.6</ele>
        <time>2013-09-06T09:58:29Z</time>
      </trkpt>
      <trkpt lat="43.81684" lon="7.265">
        <ele>446.7</ele>
        <time>2013-09-06T09:58:32Z</time>
      </trkpt>
      <trkpt lat="43.81676" lon="7.265">
        <ele>446.7</ele>
        <time>2013-09-06T09:58:33Z</time>
      </trkpt>
      <trkpt lat="43.81669" lon="7.26503">
        <ele>446.7</ele>
        <time>2013-09-06T09:58:34Z</time>
      </trkpt>
      <trkpt lat="43.81661" lon="7.26506">
        <ele>446.2</ele>
        <time>2013-09-06T09:58:35Z</time>
      </trkpt>
      <trkpt lat="43.81654" lon="7.26511">
        <ele>445.7</ele>
        <time>2013-09-06T09:58:36Z</time>
      </trkpt>
      <trkpt lat="43.81584" lon="7.26551">
        <ele>443.3</ele>
        <time>2013-09-06T09:58:46Z</time>
      </trkpt>
      <trkpt lat="43.81576" lon="7.26551">
        <ele>442.8</ele>
        <time>2013-09-06T09:58:47Z</time>
      </trkpt>
      <trkpt lat="43.81568" lon="7.26548">
        <ele>442.8</ele>
        <time>2013-09-06T09:58:48Z</time>
      </trkpt>
      <trkpt lat="43.81525" lon="7.26524">
        <ele>441.9</ele>
        <time>2013-09-06T09:58:54Z</time>
      </trkpt>
      <trkpt lat="43.81517" lon="7.26522">
        <ele>441.9</ele>
        <time>2013-09-06T09:58:55Z</time>
      </trkpt>
      <trkpt lat="43.8151" lon="7.26523">
        <ele>441.4</ele>
        <time>2013-09-06T09:58:56Z</time>
      </trkpt>
      <trkpt lat="43.81502" lon="7.26525">
        <ele>441.4</ele>
        <time>2013-09-06T09:58:57Z</time>
      </trkpt>
      <trkpt lat="43.81495" lon="7.26528">
        <ele>440.9</ele>
        <time>2013-09-06T09:58:58Z</time>
      </trkpt>
      <trkpt lat="43.81489" lon="7.26532">
        <ele>441.4</ele>
        <time>2013-09-06T09:58:59Z</time>
      </trkpt>
      <trkpt lat="43.81482" lon="7.26537">
        <ele>439.9</ele>
        <time>2013-09-06T09:59:00Z</time>
      </trkpt>
      <trkpt lat="43.81417" lon="7.26578">
        <ele>438</ele>
        <time>2013-09-06T09:59:09Z</time>
      </trkpt>
      <trkpt lat="43.8141" lon="7.2658">
        <ele>437.5</ele>
        <time>2013-09-06T09:59:10Z</time>
      </trkpt>
      <trkpt lat="43.81401" lon="7.26581">
        <ele>437.5</ele>
        <time>2013-09-06T09:59:11Z</time>
      </trkpt>
      <trkpt lat="43.81393" lon="7.26579">
        <ele>437.1</ele>
        <time>2013-09-06T09:59:12Z</time>
      </trkpt>
      <trkpt lat="43.81385" lon="7.26575">
        <ele>437.1</ele>
        <time>2013-09-06T09:59:13Z</time>
      </trkpt>
      <trkpt lat="43.81379" lon="7.26568">
        <ele>437.1</ele>
        <time>2013-09-06T09:59:14Z</time>
      </trkpt>
      <trkpt lat="43.81373" lon="7.26561">
        <ele>437.1</ele>
        <time>2013-09-06T09:59:15Z</time>
      </trkpt>
      <trkpt lat="43.81367" lon="7.26556">
        <ele>436.6</ele>
        <time>2013-09-06T09:59:16Z</time>
      </trkpt>
      <trkpt lat="43.8136" lon="7.26552">
        <ele>436.6</ele>
        <time>2013-09-06T09:59:17Z</time>
      </trkpt>
      <trkpt lat="43.81353" lon="7.2655">
        <ele>435.6</ele>
        <time>2013-09-06T09:59:18Z</time>
      </trkpt>
      <trkpt lat="43.81345" lon="7.26549">
        <ele>435.1</ele>
        <time>2013-09-06T09:59:19Z</time>
      </trkpt>
      <trkpt lat="43.81337" lon="7.26549">
        <ele>435.6</ele>
        <time>2013-09-06T09:59:20Z</time>
      </trkpt>
      <trkpt lat="43.81328" lon="7.2655">
        <ele>435.1</ele>
        <time>2013-09-06T09:59:21Z</time>
      </trkpt>
      <trkpt lat="43.81321" lon="7.26553">
        <ele>434.7</ele>
        <time>2013-09-06T09:59:22Z</time>
      </trkpt>
      <trkpt lat="43.81314" lon="7.26558">
        <ele>434.7</ele>
        <time>2013-09-06T09:59:23Z</time>
      </trkpt>
      <trkpt lat="43.81307" lon="7.26564">
        <ele>434.2</ele>
        <time>2013-09-06T09:59:24Z</time>
      </trkpt>
      <trkpt lat="43.81294" lon="7.26574">
        <ele>433.2</ele>
        <time>2013-09-06T09:59:26Z</time>
      </trkpt>
      <trkpt lat="43.81221" lon="7.26629">
        <ele>430.3</ele>
        <time>2013-09-06T09:59:37Z</time>
      </trkpt>
      <trkpt lat="43.81214" lon="7.2663">
        <ele>429.9</ele>
        <time>2013-09-06T09:59:38Z</time>
      </trkpt>
      <trkpt lat="43.81207" lon="7.2663">
        <ele>430.3</ele>
        <time>2013-09-06T09:59:39Z</time>
      </trkpt>
      <trkpt lat="43.81199" lon="7.26629">
        <ele>429.9</ele>
        <time>2013-09-06T09:59:40Z</time>
      </trkpt>
      <trkpt lat="43.81192" lon="7.26626">
        <ele>429.4</ele>
        <time>2013-09-06T09:59:41Z</time>
      </trkpt>
      <trkpt lat="43.81185" lon="7.26622">
        <ele>429.9</ele>
        <time>2013-09-06T09:59:42Z</time>
      </trkpt>
      <trkpt lat="43.81178" lon="7.26617">
        <ele>429.4</ele>
        <time>2013-09-06T09:59:43Z</time>
      </trkpt>
      <trkpt lat="43.81172" lon="7.26611">
        <ele>428.9</ele>
        <time>2013-09-06T09:59:44Z</time>
      </trkpt>
      <trkpt lat="43.81095" lon="7.26548">
        <ele>426.5</ele>
        <time>2013-09-06T09:59:56Z</time>
      </trkpt>
      <trkpt lat="43.81088" lon="7.26544">
        <ele>426</ele>
        <time>2013-09-06T09:59:57Z</time>
      </trkpt>
      <trkpt lat="43.81081" lon="7.26542">
        <ele>426</ele>
        <time>2013-09-06T09:59:58Z</time>
      </trkpt>
      <trkpt lat="43.81073" lon="7.26541">
        <ele>425.5</ele>
        <time>2013-09-06T09:59:59Z</time>
      </trkpt>
      <trkpt lat="43.81065" lon="7.26542">
        <ele>425.5</ele>
        <time>2013-09-06T10:00:00Z</time>
      </trkpt>
      <trkpt lat="43.81057" lon="7.26543">
        <ele>425</ele>
        <time>2013-09-06T10:00:01Z</time>
      </trkpt>
      <trkpt lat="43.81007" lon="7.26552">
        <ele>423.6</ele>
        <time>2013-09-06T10:00:07Z</time>
      </trkpt>
      <trkpt lat="43.80906" lon="7.26581">
        <ele>420.7</ele>
        <time>2013-09-06T10:00:20Z</time>
      </trkpt>
      <trkpt lat="43.8084" lon="7.2661">
        <ele>417.8</ele>
        <time>2013-09-06T10:00:31Z</time>
      </trkpt>
      <trkpt lat="43.80832" lon="7.2661">
        <ele>414.5</ele>
        <time>2013-09-06T10:00:41Z</time>
      </trkpt>
      <trkpt lat="43.80832" lon="7.26609">
        <ele>414.5</ele>
        <time>2013-09-06T10:00:42Z</time>
      </trkpt>
      <trkpt lat="43.80833" lon="7.26609">
        <ele>419.8</ele>
        <time>2013-09-06T10:00:43Z</time>
      </trkpt>
      <trkpt lat="43.80833" lon="7.26608">
        <ele>417.8</ele>
        <time>2013-09-06T10:00:44Z</time>
      </trkpt>
      <trkpt lat="43.80837" lon="7.26607">
        <ele>416.9</ele>
        <time>2013-09-06T10:01:05Z</time>
      </trkpt>
      <trkpt lat="43.80839" lon="7.26608">
        <ele>417.4</ele>
        <time>2013-09-06T10:01:29Z</time>
      </trkpt>
      <trkpt lat="43.80827" lon="7.26611">
        <ele>417.4</ele>
        <time>2013-09-06T10:01:41Z</time>
      </trkpt>
      <trkpt lat="43.80821" lon="7.26617">
        <ele>416.9</ele>
        <time>2013-09-06T10:01:45Z</time>
      </trkpt>
      <trkpt lat="43.808" lon="7.26649">
        <ele>415.9</ele>
        <time>2013-09-06T10:01:57Z</time>
      </trkpt>
      <trkpt lat="43.80752" lon="7.26701">
        <ele>413.5</ele>
        <time>2013-09-06T10:02:11Z</time>
      </trkpt>
      <trkpt lat="43.8073" lon="7.26714">
        <ele>413</ele>
        <time>2013-09-06T10:02:17Z</time>
      </trkpt>
      <trkpt lat="43.80706" lon="7.26728">
        <ele>412.1</ele>
        <time>2013-09-06T10:02:22Z</time>
      </trkpt>
      <trkpt lat="43.80701" lon="7.26732">
        <ele>412.1</ele>
        <time>2013-09-06T10:02:23Z</time>
      </trkpt>
      <trkpt lat="43.80629" lon="7.26822">
        <ele>409.2</ele>
        <time>2013-09-06T10:02:38Z</time>
      </trkpt>
      <trkpt lat="43.80602" lon="7.2685">
        <ele>408.2</ele>
        <time>2013-09-06T10:02:43Z</time>
      </trkpt>
      <trkpt lat="43.80596" lon="7.26855">
        <ele>407.7</ele>
        <time>2013-09-06T10:02:44Z</time>
      </trkpt>
      <trkpt lat="43.80589" lon="7.26858">
        <ele>407.7</ele>
        <time>2013-09-06T10:02:45Z</time>
      </trkpt>
      <trkpt lat="43.80549" lon="7.26872">
        <ele>406.8</ele>
        <time>2013-09-06T10:02:51Z</time>
      </trkpt>
      <trkpt lat="43.80542" lon="7.26872">
        <ele>406.8</ele>
        <time>2013-09-06T10:02:52Z</time>
      </trkpt>
      <trkpt lat="43.80495" lon="7.26864">
        <ele>405.8</ele>
        <time>2013-09-06T10:02:59Z</time>
      </trkpt>
      <trkpt lat="43.80488" lon="7.26861">
        <ele>405.3</ele>
        <time>2013-09-06T10:03:00Z</time>
      </trkpt>
      <trkpt lat="43.80412" lon="7.26828">
        <ele>403.9</ele>
        <time>2013-09-06T10:03:12Z</time>
      </trkpt>
      <trkpt lat="43.80365" lon="7.2684">
        <ele>403.4</ele>
        <time>2013-09-06T10:03:19Z</time>
      </trkpt>
      <trkpt lat="43.80359" lon="7.26844">
        <ele>402.9</ele>
        <time>2013-09-06T10:03:20Z</time>
      </trkpt>
      <trkpt lat="43.80335" lon="7.26866">
        <ele>402.9</ele>
        <time>2013-09-06T10:03:24Z</time>
      </trkpt>
      <trkpt lat="43.8033" lon="7.26872">
        <ele>402.5</ele>
        <time>2013-09-06T10:03:25Z</time>
      </trkpt>
      <trkpt lat="43.80264" lon="7.26964">
        <ele>400.5</ele>
        <time>2013-09-06T10:03:38Z</time>
      </trkpt>
      <trkpt lat="43.80169" lon="7.27089">
        <ele>397.6</ele>
        <time>2013-09-06T10:03:56Z</time>
      </trkpt>
      <trkpt lat="43.80083" lon="7.27202">
        <ele>395.2</ele>
        <time>2013-09-06T10:04:13Z</time>
      </trkpt>
      <trkpt lat="43.80077" lon="7.27207">
        <ele>395.2</ele>
        <time>2013-09-06T10:04:14Z</time>
      </trkpt>
      <trkpt lat="43.80053" lon="7.27224">
        <ele>394.3</ele>
        <time>2013-09-06T10:04:18Z</time>
      </trkpt>
      <trkpt lat="43.80047" lon="7.27229">
        <ele>394.3</ele>
        <time>2013-09-06T10:04:19Z</time>
      </trkpt>
      <trkpt lat="43.80042" lon="7.27235">
        <ele>394.3</ele>
        <time>2013-09-06T10:04:20Z</time>
      </trkpt>
      <trkpt lat="43.80037" lon="7.27241">
        <ele>393.8</ele>
        <time>2013-09-06T10:04:21Z</time>
      </trkpt>
      <trkpt lat="43.80032" lon="7.27248">
        <ele>393.8</ele>
        <time>2013-09-06T10:04:22Z</time>
      </trkpt>
      <trkpt lat="43.80029" lon="7.27256">
        <ele>393.8</ele>
        <time>2013-09-06T10:04:23Z</time>
      </trkpt>
      <trkpt lat="43.80025" lon="7.27264">
        <ele>393.3</ele>
        <time>2013-09-06T10:04:24Z</time>
      </trkpt>
      <trkpt lat="43.8" lon="7.27341">
        <ele>393.3</ele>
        <time>2013-09-06T10:04:34Z</time>
      </trkpt>
      <trkpt lat="43.79999" lon="7.27348">
        <ele>393.3</ele>
        <time>2013-09-06T10:04:35Z</time>
      </trkpt>
      <trkpt lat="43.79999" lon="7.27356">
        <ele>393.3</ele>
        <time>2013-09-06T10:04:36Z</time>
      </trkpt>
      <trkpt lat="43.8" lon="7.27363">
        <ele>393.3</ele>
        <time>2013-09-06T10:04:37Z</time>
      </trkpt>
      <trkpt lat="43.80002" lon="7.27378">
        <ele>393.3</ele>
        <time>2013-09-06T10:04:39Z</time>
      </trkpt>
      <trkpt lat="43.80002" lon="7.27385">
        <ele>393.3</ele>
        <time>2013-09-06T10:04:40Z</time>
      </trkpt>
      <trkpt lat="43.80001" lon="7.27393">
        <ele>393.3</ele>
        <time>2013-09-06T10:04:41Z</time>
      </trkpt>
      <trkpt lat="43.79999" lon="7.274">
        <ele>393.3</ele>
        <time>2013-09-06T10:04:42Z</time>
      </trkpt>
      <trkpt lat="43.79997" lon="7.27408">
        <ele>393.3</ele>
        <time>2013-09-06T10:04:43Z</time>
      </trkpt>
      <trkpt lat="43.79995" lon="7.27415">
        <ele>393.3</ele>
        <time>2013-09-06T10:04:44Z</time>
      </trkpt>
      <trkpt lat="43.79989" lon="7.27429">
        <ele>393.3</ele>
        <time>2013-09-06T10:04:46Z</time>
      </trkpt>
      <trkpt lat="43.79987" lon="7.27436">
        <ele>393.8</ele>
        <time>2013-09-06T10:04:47Z</time>
      </trkpt>
      <trkpt lat="43.79986" lon="7.27443">
        <ele>393.3</ele>
        <time>2013-09-06T10:04:48Z</time>
      </trkpt>
      <trkpt lat="43.79985" lon="7.27451">
        <ele>393.3</ele>
        <time>2013-09-06T10:04:49Z</time>
      </trkpt>
      <trkpt lat="43.79985" lon="7.27459">
        <ele>393.8</ele>
        <time>2013-09-06T10:04:50Z</time>
      </trkpt>
      <trkpt lat="43.79985" lon="7.27467">
        <ele>393.8</ele>
        <time>2013-09-06T10:04:51Z</time>
      </trkpt>
      <trkpt lat="43.79986" lon="7.27508">
        <ele>393.3</ele>
        <time>2013-09-06T10:04:56Z</time>
      </trkpt>
      <trkpt lat="43.79985" lon="7.27516">
        <ele>393.3</ele>
        <time>2013-09-06T10:04:57Z</time>
      </trkpt>
      <trkpt lat="43.79983" lon="7.27523">
        <ele>392.8</ele>
        <time>2013-09-06T10:04:58Z</time>
      </trkpt>
      <trkpt lat="43.79981" lon="7.27529">
        <ele>393.8</ele>
        <time>2013-09-06T10:04:59Z</time>
      </trkpt>
      <trkpt lat="43.79977" lon="7.27534">
        <ele>393.3</ele>
        <time>2013-09-06T10:05:00Z</time>
      </trkpt>
      <trkpt lat="43.79973" lon="7.27538">
        <ele>393.3</ele>
        <time>2013-09-06T10:05:01Z</time>
      </trkpt>
      <trkpt lat="43.79967" lon="7.27542">
        <ele>393.3</ele>
        <time>2013-09-06T10:05:02Z</time>
      </trkpt>
      <trkpt lat="43.79962" lon="7.27546">
        <ele>393.8</ele>
        <time>2013-09-06T10:05:03Z</time>
      </trkpt>
      <trkpt lat="43.7994" lon="7.2756">
        <ele>393.8</ele>
        <time>2013-09-06T10:05:07Z</time>
      </trkpt>
      <trkpt lat="43.79936" lon="7.27564">
        <ele>393.8</ele>
        <time>2013-09-06T10:05:08Z</time>
      </trkpt>
      <trkpt lat="43.79931" lon="7.2757">
        <ele>393.3</ele>
        <time>2013-09-06T10:05:09Z</time>
      </trkpt>
      <trkpt lat="43.79928" lon="7.27576">
        <ele>393.8</ele>
        <time>2013-09-06T10:05:10Z</time>
      </trkpt>
      <trkpt lat="43.79925" lon="7.27582">
        <ele>393.8</ele>
        <time>2013-09-06T10:05:11Z</time>
      </trkpt>
      <trkpt lat="43.79922" lon="7.27589">
        <ele>393.3</ele>
        <time>2013-09-06T10:05:12Z</time>
      </trkpt>
      <trkpt lat="43.7992" lon="7.27595">
        <ele>393.8</ele>
        <time>2013-09-06T10:05:13Z</time>
      </trkpt>
      <trkpt lat="43.79918" lon="7.27602">
        <ele>393.8</ele>
        <time>2013-09-06T10:05:14Z</time>
      </trkpt>
      <trkpt lat="43.79906" lon="7.27635">
        <ele>393.3</ele>
        <time>2013-09-06T10:05:19Z</time>
      </trkpt>
      <trkpt lat="43.79903" lon="7.27641">
        <ele>392.8</ele>
        <time>2013-09-06T10:05:20Z</time>
      </trkpt>
      <trkpt lat="43.799" lon="7.27646">
        <ele>393.3</ele>
        <time>2013-09-06T10:05:21Z</time>
      </trkpt>
      <trkpt lat="43.79896" lon="7.2765">
        <ele>392.8</ele>
        <time>2013-09-06T10:05:22Z</time>
      </trkpt>
      <trkpt lat="43.79892" lon="7.27653">
        <ele>392.8</ele>
        <time>2013-09-06T10:05:23Z</time>
      </trkpt>
      <trkpt lat="43.79888" lon="7.27653">
        <ele>392.8</ele>
        <time>2013-09-06T10:05:24Z</time>
      </trkpt>
      <trkpt lat="43.79882" lon="7.27653">
        <ele>393.3</ele>
        <time>2013-09-06T10:05:25Z</time>
      </trkpt>
      <trkpt lat="43.79785" lon="7.2765">
        <ele>392.8</ele>
        <time>2013-09-06T10:05:42Z</time>
      </trkpt>
      <trkpt lat="43.79688" lon="7.27651">
        <ele>393.3</ele>
        <time>2013-09-06T10:05:57Z</time>
      </trkpt>
      <trkpt lat="43.79615" lon="7.27682">
        <ele>392.4</ele>
        <time>2013-09-06T10:06:09Z</time>
      </trkpt>
      <trkpt lat="43.79609" lon="7.27682">
        <ele>392.4</ele>
        <time>2013-09-06T10:06:10Z</time>
      </trkpt>
      <trkpt lat="43.79604" lon="7.27681">
        <ele>392.8</ele>
        <time>2013-09-06T10:06:11Z</time>
      </trkpt>
      <trkpt lat="43.79598" lon="7.27678">
        <ele>392.8</ele>
        <time>2013-09-06T10:06:12Z</time>
      </trkpt>
      <trkpt lat="43.79592" lon="7.27675">
        <ele>392.4</ele>
        <time>2013-09-06T10:06:13Z</time>
      </trkpt>
      <trkpt lat="43.79587" lon="7.27671">
        <ele>392.8</ele>
        <time>2013-09-06T10:06:14Z</time>
      </trkpt>
      <trkpt lat="43.79582" lon="7.27666">
        <ele>392.4</ele>
        <time>2013-09-06T10:06:15Z</time>
      </trkpt>
      <trkpt lat="43.79532" lon="7.27601">
        <ele>393.3</ele>
        <time>2013-09-06T10:06:27Z</time>
      </trkpt>
      <trkpt lat="43.79505" lon="7.27586">
        <ele>393.3</ele>
        <time>2013-09-06T10:06:32Z</time>
      </trkpt>
      <trkpt lat="43.79499" lon="7.27585">
        <ele>392.8</ele>
        <time>2013-09-06T10:06:33Z</time>
      </trkpt>
      <trkpt lat="43.7945" lon="7.27583">
        <ele>392.4</ele>
        <time>2013-09-06T10:06:41Z</time>
      </trkpt>
      <trkpt lat="43.79444" lon="7.27586">
        <ele>392.4</ele>
        <time>2013-09-06T10:06:42Z</time>
      </trkpt>
      <trkpt lat="43.79438" lon="7.2759">
        <ele>393.3</ele>
        <time>2013-09-06T10:06:43Z</time>
      </trkpt>
      <trkpt lat="43.79415" lon="7.27609">
        <ele>392.4</ele>
        <time>2013-09-06T10:06:47Z</time>
      </trkpt>
      <trkpt lat="43.79408" lon="7.27612">
        <ele>391.4</ele>
        <time>2013-09-06T10:06:48Z</time>
      </trkpt>
      <trkpt lat="43.79402" lon="7.27615">
        <ele>391.9</ele>
        <time>2013-09-06T10:06:49Z</time>
      </trkpt>
      <trkpt lat="43.79369" lon="7.27624">
        <ele>390.9</ele>
        <time>2013-09-06T10:06:54Z</time>
      </trkpt>
      <trkpt lat="43.79362" lon="7.27624">
        <ele>391.4</ele>
        <time>2013-09-06T10:06:55Z</time>
      </trkpt>
      <trkpt lat="43.79356" lon="7.27624">
        <ele>390.9</ele>
        <time>2013-09-06T10:06:56Z</time>
      </trkpt>
      <trkpt lat="43.79349" lon="7.27622">
        <ele>391.4</ele>
        <time>2013-09-06T10:06:57Z</time>
      </trkpt>
      <trkpt lat="43.79343" lon="7.2762">
        <ele>391.4</ele>
        <time>2013-09-06T10:06:58Z</time>
      </trkpt>
      <trkpt lat="43.79324" lon="7.27613">
        <ele>390.9</ele>
        <time>2013-09-06T10:07:01Z</time>
      </trkpt>
      <trkpt lat="43.79319" lon="7.27607">
        <ele>390.4</ele>
        <time>2013-09-06T10:07:02Z</time>
      </trkpt>
      <trkpt lat="43.79315" lon="7.276">
        <ele>390.9</ele>
        <time>2013-09-06T10:07:03Z</time>
      </trkpt>
      <trkpt lat="43.79311" lon="7.27592">
        <ele>390.4</ele>
        <time>2013-09-06T10:07:04Z</time>
      </trkpt>
      <trkpt lat="43.79308" lon="7.27585">
        <ele>390.9</ele>
        <time>2013-09-06T10:07:05Z</time>
      </trkpt>
      <trkpt lat="43.793" lon="7.27561">
        <ele>390.4</ele>
        <time>2013-09-06T10:07:08Z</time>
      </trkpt>
      <trkpt lat="43.79299" lon="7.27552">
        <ele>390.4</ele>
        <time>2013-09-06T10:07:09Z</time>
      </trkpt>
      <trkpt lat="43.79298" lon="7.27544">
        <ele>390.9</ele>
        <time>2013-09-06T10:07:10Z</time>
      </trkpt>
      <trkpt lat="43.79299" lon="7.27535">
        <ele>390.9</ele>
        <time>2013-09-06T10:07:11Z</time>
      </trkpt>
      <trkpt lat="43.79301" lon="7.27527">
        <ele>390.4</ele>
        <time>2013-09-06T10:07:12Z</time>
      </trkpt>
      <trkpt lat="43.79303" lon="7.27519">
        <ele>390.9</ele>
        <time>2013-09-06T10:07:13Z</time>
      </trkpt>
      <trkpt lat="43.79318" lon="7.27472">
        <ele>389.5</ele>
        <time>2013-09-06T10:07:19Z</time>
      </trkpt>
      <trkpt lat="43.7932" lon="7.27465">
        <ele>389.5</ele>
        <time>2013-09-06T10:07:20Z</time>
      </trkpt>
      <trkpt lat="43.7933" lon="7.27434">
        <ele>389.5</ele>
        <time>2013-09-06T10:07:24Z</time>
      </trkpt>
      <trkpt lat="43.79331" lon="7.27426">
        <ele>389</ele>
        <time>2013-09-06T10:07:25Z</time>
      </trkpt>
      <trkpt lat="43.79366" lon="7.27315">
        <ele>387.6</ele>
        <time>2013-09-06T10:07:39Z</time>
      </trkpt>
      <trkpt lat="43.79371" lon="7.27298">
        <ele>388</ele>
        <time>2013-09-06T10:07:41Z</time>
      </trkpt>
      <trkpt lat="43.7937" lon="7.27289">
        <ele>387.6</ele>
        <time>2013-09-06T10:07:42Z</time>
      </trkpt>
      <trkpt lat="43.79368" lon="7.2728">
        <ele>388</ele>
        <time>2013-09-06T10:07:43Z</time>
      </trkpt>
      <trkpt lat="43.79365" lon="7.27273">
        <ele>387.6</ele>
        <time>2013-09-06T10:07:44Z</time>
      </trkpt>
      <trkpt lat="43.79361" lon="7.27268">
        <ele>387.6</ele>
        <time>2013-09-06T10:07:45Z</time>
      </trkpt>
      <trkpt lat="43.79356" lon="7.27265">
        <ele>387.6</ele>
        <time>2013-09-06T10:07:46Z</time>
      </trkpt>
      <trkpt lat="43.79349" lon="7.27263">
        <ele>387.6</ele>
        <time>2013-09-06T10:07:47Z</time>
      </trkpt>
      <trkpt lat="43.79343" lon="7.27264">
        <ele>387.6</ele>
        <time>2013-09-06T10:07:48Z</time>
      </trkpt>
      <trkpt lat="43.79336" lon="7.27268">
        <ele>388</ele>
        <time>2013-09-06T10:07:49Z</time>
      </trkpt>
      <trkpt lat="43.7933" lon="7.27272">
        <ele>387.6</ele>
        <time>2013-09-06T10:07:50Z</time>
      </trkpt>
      <trkpt lat="43.79235" lon="7.2734">
        <ele>386.1</ele>
        <time>2013-09-06T10:08:06Z</time>
      </trkpt>
      <trkpt lat="43.79183" lon="7.27374">
        <ele>386.1</ele>
        <time>2013-09-06T10:08:15Z</time>
      </trkpt>
      <trkpt lat="43.79177" lon="7.27375">
        <ele>385.6</ele>
        <time>2013-09-06T10:08:16Z</time>
      </trkpt>
      <trkpt lat="43.79118" lon="7.2737">
        <ele>385.2</ele>
        <time>2013-09-06T10:08:27Z</time>
      </trkpt>
      <trkpt lat="43.79114" lon="7.27365">
        <ele>384.7</ele>
        <time>2013-09-06T10:08:28Z</time>
      </trkpt>
      <trkpt lat="43.79112" lon="7.27358">
        <ele>384.2</ele>
        <time>2013-09-06T10:08:29Z</time>
      </trkpt>
      <trkpt lat="43.7911" lon="7.27351">
        <ele>384.2</ele>
        <time>2013-09-06T10:08:30Z</time>
      </trkpt>
      <trkpt lat="43.7911" lon="7.27343">
        <ele>384.7</ele>
        <time>2013-09-06T10:08:31Z</time>
      </trkpt>
      <trkpt lat="43.79111" lon="7.27336">
        <ele>384.2</ele>
        <time>2013-09-06T10:08:32Z</time>
      </trkpt>
      <trkpt lat="43.79113" lon="7.27329">
        <ele>384.7</ele>
        <time>2013-09-06T10:08:33Z</time>
      </trkpt>
      <trkpt lat="43.79114" lon="7.27323">
        <ele>384.2</ele>
        <time>2013-09-06T10:08:34Z</time>
      </trkpt>
      <trkpt lat="43.79117" lon="7.27316">
        <ele>385.2</ele>
        <time>2013-09-06T10:08:35Z</time>
      </trkpt>
      <trkpt lat="43.7912" lon="7.27311">
        <ele>384.7</ele>
        <time>2013-09-06T10:08:36Z</time>
      </trkpt>
      <trkpt lat="43.79123" lon="7.27306">
        <ele>384.7</ele>
        <time>2013-09-06T10:08:37Z</time>
      </trkpt>
      <trkpt lat="43.79126" lon="7.27301">
        <ele>384.7</ele>
        <time>2013-09-06T10:08:38Z</time>
      </trkpt>
      <trkpt lat="43.79129" lon="7.27297">
        <ele>384.7</ele>
        <time>2013-09-06T10:08:39Z</time>
      </trkpt>
      <trkpt lat="43.79164" lon="7.27257">
        <ele>387.6</ele>
        <time>2013-09-06T10:08:54Z</time>
      </trkpt>
      <trkpt lat="43.79198" lon="7.27232">
        <ele>390.4</ele>
        <time>2013-09-06T10:09:11Z</time>
      </trkpt>
      <trkpt lat="43.79238" lon="7.27214">
        <ele>392.4</ele>
        <time>2013-09-06T10:09:29Z</time>
      </trkpt>
      <trkpt lat="43.79268" lon="7.27164">
        <ele>395.7</ele>
        <time>2013-09-06T10:09:48Z</time>
      </trkpt>
      <trkpt lat="43.79274" lon="7.27114">
        <ele>397.6</ele>
        <time>2013-09-06T10:10:04Z</time>
      </trkpt>
      <trkpt lat="43.79273" lon="7.27082">
        <ele>400.1</ele>
        <time>2013-09-06T10:10:14Z</time>
      </trkpt>
      <trkpt lat="43.79268" lon="7.27024">
        <ele>402</ele>
        <time>2013-09-06T10:10:32Z</time>
      </trkpt>
      <trkpt lat="43.79252" lon="7.26965">
        <ele>404.9</ele>
        <time>2013-09-06T10:10:51Z</time>
      </trkpt>
      <trkpt lat="43.79239" lon="7.26909">
        <ele>407.3</ele>
        <time>2013-09-06T10:11:09Z</time>
      </trkpt>
      <trkpt lat="43.79247" lon="7.26841">
        <ele>410.6</ele>
        <time>2013-09-06T10:11:29Z</time>
      </trkpt>
      <trkpt lat="43.79254" lon="7.26787">
        <ele>413.5</ele>
        <time>2013-09-06T10:11:46Z</time>
      </trkpt>
      <trkpt lat="43.79274" lon="7.26748">
        <ele>415.4</ele>
        <time>2013-09-06T10:12:01Z</time>
      </trkpt>
      <trkpt lat="43.79303" lon="7.26716">
        <ele>418.3</ele>
        <time>2013-09-06T10:12:15Z</time>
      </trkpt>
      <trkpt lat="43.79331" lon="7.26693">
        <ele>420.2</ele>
        <time>2013-09-06T10:12:28Z</time>
      </trkpt>
      <trkpt lat="43.7936" lon="7.26698">
        <ele>422.2</ele>
        <time>2013-09-06T10:12:41Z</time>
      </trkpt>
      <trkpt lat="43.79403" lon="7.26691">
        <ele>424.6</ele>
        <time>2013-09-06T10:12:57Z</time>
      </trkpt>
      <trkpt lat="43.79437" lon="7.26687">
        <ele>427.4</ele>
        <time>2013-09-06T10:13:11Z</time>
      </trkpt>
      <trkpt lat="43.79443" lon="7.26678">
        <ele>428.4</ele>
        <time>2013-09-06T10:13:15Z</time>
      </trkpt>
      <trkpt lat="43.79443" lon="7.26675">
        <ele>428.4</ele>
        <time>2013-09-06T10:13:16Z</time>
      </trkpt>
      <trkpt lat="43.79443" lon="7.26672">
        <ele>427.9</ele>
        <time>2013-09-06T10:13:17Z</time>
      </trkpt>
      <trkpt lat="43.79442" lon="7.26669">
        <ele>428.4</ele>
        <time>2013-09-06T10:13:18Z</time>
      </trkpt>
      <trkpt lat="43.7944" lon="7.26665">
        <ele>428.4</ele>
        <time>2013-09-06T10:13:19Z</time>
      </trkpt>
      <trkpt lat="43.79417" lon="7.26639">
        <ele>430.3</ele>
        <time>2013-09-06T10:13:31Z</time>
      </trkpt>
      <trkpt lat="43.79392" lon="7.26611">
        <ele>431.3</ele>
        <time>2013-09-06T10:13:44Z</time>
      </trkpt>
      <trkpt lat="43.79384" lon="7.26567">
        <ele>434.7</ele>
        <time>2013-09-06T10:13:57Z</time>
      </trkpt>
      <trkpt lat="43.79384" lon="7.26563">
        <ele>435.1</ele>
        <time>2013-09-06T10:13:58Z</time>
      </trkpt>
      <trkpt lat="43.79388" lon="7.26517">
        <ele>437.1</ele>
        <time>2013-09-06T10:14:11Z</time>
      </trkpt>
      <trkpt lat="43.79401" lon="7.26476">
        <ele>439</ele>
        <time>2013-09-06T10:14:24Z</time>
      </trkpt>
      <trkpt lat="43.79435" lon="7.26453">
        <ele>441.4</ele>
        <time>2013-09-06T10:14:38Z</time>
      </trkpt>
      <trkpt lat="43.79475" lon="7.26445">
        <ele>444.3</ele>
        <time>2013-09-06T10:14:53Z</time>
      </trkpt>
      <trkpt lat="43.79514" lon="7.26438">
        <ele>447.6</ele>
        <time>2013-09-06T10:15:08Z</time>
      </trkpt>
      <trkpt lat="43.79553" lon="7.26438">
        <ele>450</ele>
        <time>2013-09-06T10:15:24Z</time>
      </trkpt>
      <trkpt lat="43.79595" lon="7.26428">
        <ele>452</ele>
        <time>2013-09-06T10:15:40Z</time>
      </trkpt>
      <trkpt lat="43.79634" lon="7.26413">
        <ele>455.3</ele>
        <time>2013-09-06T10:15:56Z</time>
      </trkpt>
      <trkpt lat="43.79676" lon="7.26391">
        <ele>457.2</ele>
        <time>2013-09-06T10:16:13Z</time>
      </trkpt>
      <trkpt lat="43.79714" lon="7.2636">
        <ele>458.7</ele>
        <time>2013-09-06T10:16:27Z</time>
      </trkpt>
      <trkpt lat="43.79743" lon="7.26319">
        <ele>461.6</ele>
        <time>2013-09-06T10:16:43Z</time>
      </trkpt>
      <trkpt lat="43.79774" lon="7.26272">
        <ele>464.5</ele>
        <time>2013-09-06T10:17:01Z</time>
      </trkpt>
      <trkpt lat="43.79796" lon="7.2624">
        <ele>466.9</ele>
        <time>2013-09-06T10:17:15Z</time>
      </trkpt>
      <trkpt lat="43.79802" lon="7.2619">
        <ele>469.3</ele>
        <time>2013-09-06T10:17:28Z</time>
      </trkpt>
      <trkpt lat="43.79779" lon="7.2612">
        <ele>471.2</ele>
        <time>2013-09-06T10:17:47Z</time>
      </trkpt>
      <trkpt lat="43.79751" lon="7.2605">
        <ele>472.1</ele>
        <time>2013-09-06T10:18:03Z</time>
      </trkpt>
      <trkpt lat="43.79722" lon="7.25973">
        <ele>473.6</ele>
        <time>2013-09-06T10:18:20Z</time>
      </trkpt>
      <trkpt lat="43.79702" lon="7.25892">
        <ele>476</ele>
        <time>2013-09-06T10:18:37Z</time>
      </trkpt>
      <trkpt lat="43.7971" lon="7.25825">
        <ele>478.4</ele>
        <time>2013-09-06T10:18:52Z</time>
      </trkpt>
      <trkpt lat="43.79728" lon="7.25763">
        <ele>479.8</ele>
        <time>2013-09-06T10:19:06Z</time>
      </trkpt>
      <trkpt lat="43.79746" lon="7.25692">
        <ele>480.8</ele>
        <time>2013-09-06T10:19:20Z</time>
      </trkpt>
      <trkpt lat="43.7974" lon="7.2563">
        <ele>481.3</ele>
        <time>2013-09-06T10:19:32Z</time>
      </trkpt>
      <trkpt lat="43.79737" lon="7.25625">
        <ele>481.8</ele>
        <time>2013-09-06T10:19:33Z</time>
      </trkpt>
      <trkpt lat="43.79734" lon="7.25621">
        <ele>481.8</ele>
        <time>2013-09-06T10:19:34Z</time>
      </trkpt>
      <trkpt lat="43.79731" lon="7.25617">
        <ele>481.3</ele>
        <time>2013-09-06T10:19:35Z</time>
      </trkpt>
      <trkpt lat="43.79728" lon="7.25614">
        <ele>482.2</ele>
        <time>2013-09-06T10:19:36Z</time>
      </trkpt>
      <trkpt lat="43.79725" lon="7.25612">
        <ele>482.2</ele>
        <time>2013-09-06T10:19:37Z</time>
      </trkpt>
      <trkpt lat="43.79722" lon="7.2561">
        <ele>482.7</ele>
        <time>2013-09-06T10:19:38Z</time>
      </trkpt>
      <trkpt lat="43.79693" lon="7.25611">
        <ele>483.7</ele>
        <time>2013-09-06T10:19:45Z</time>
      </trkpt>
      <trkpt lat="43.79689" lon="7.25612">
        <ele>483.7</ele>
        <time>2013-09-06T10:19:46Z</time>
      </trkpt>
      <trkpt lat="43.79684" lon="7.25615">
        <ele>484.2</ele>
        <time>2013-09-06T10:19:47Z</time>
      </trkpt>
      <trkpt lat="43.7964" lon="7.25657">
        <ele>485.6</ele>
        <time>2013-09-06T10:20:01Z</time>
      </trkpt>
      <trkpt lat="43.79593" lon="7.25672">
        <ele>486.1</ele>
        <time>2013-09-06T10:20:13Z</time>
      </trkpt>
      <trkpt lat="43.79563" lon="7.2564">
        <ele>487.1</ele>
        <time>2013-09-06T10:20:24Z</time>
      </trkpt>
      <trkpt lat="43.79542" lon="7.25564">
        <ele>489</ele>
        <time>2013-09-06T10:20:39Z</time>
      </trkpt>
      <trkpt lat="43.7952" lon="7.25532">
        <ele>489.9</ele>
        <time>2013-09-06T10:20:47Z</time>
      </trkpt>
      <trkpt lat="43.79516" lon="7.25529">
        <ele>489.5</ele>
        <time>2013-09-06T10:20:48Z</time>
      </trkpt>
      <trkpt lat="43.79513" lon="7.25528">
        <ele>489.9</ele>
        <time>2013-09-06T10:20:49Z</time>
      </trkpt>
      <trkpt lat="43.79509" lon="7.25526">
        <ele>489.9</ele>
        <time>2013-09-06T10:20:50Z</time>
      </trkpt>
      <trkpt lat="43.79506" lon="7.25526">
        <ele>490.4</ele>
        <time>2013-09-06T10:20:51Z</time>
      </trkpt>
      <trkpt lat="43.795" lon="7.25527">
        <ele>490.4</ele>
        <time>2013-09-06T10:20:52Z</time>
      </trkpt>
      <trkpt lat="43.79496" lon="7.25528">
        <ele>490.9</ele>
        <time>2013-09-06T10:20:53Z</time>
      </trkpt>
      <trkpt lat="43.79492" lon="7.2553">
        <ele>490.9</ele>
        <time>2013-09-06T10:20:54Z</time>
      </trkpt>
      <trkpt lat="43.79489" lon="7.25533">
        <ele>490.4</ele>
        <time>2013-09-06T10:20:55Z</time>
      </trkpt>
      <trkpt lat="43.7944" lon="7.25559">
        <ele>491.4</ele>
        <time>2013-09-06T10:21:08Z</time>
      </trkpt>
      <trkpt lat="43.79391" lon="7.25538">
        <ele>493.3</ele>
        <time>2013-09-06T10:21:22Z</time>
      </trkpt>
      <trkpt lat="43.79339" lon="7.25494">
        <ele>494.7</ele>
        <time>2013-09-06T10:21:38Z</time>
      </trkpt>
      <trkpt lat="43.7931" lon="7.25435">
        <ele>496.7</ele>
        <time>2013-09-06T10:21:52Z</time>
      </trkpt>
      <trkpt lat="43.79307" lon="7.25362">
        <ele>499.1</ele>
        <time>2013-09-06T10:22:06Z</time>
      </trkpt>
      <trkpt lat="43.79282" lon="7.25314">
        <ele>500.5</ele>
        <time>2013-09-06T10:22:17Z</time>
      </trkpt>
      <trkpt lat="43.79251" lon="7.25312">
        <ele>501.5</ele>
        <time>2013-09-06T10:22:28Z</time>
      </trkpt>
      <trkpt lat="43.79198" lon="7.2534">
        <ele>502.9</ele>
        <time>2013-09-06T10:22:45Z</time>
      </trkpt>
      <trkpt lat="43.79139" lon="7.25367">
        <ele>504.8</ele>
        <time>2013-09-06T10:23:04Z</time>
      </trkpt>
      <trkpt lat="43.79088" lon="7.25375">
        <ele>506.8</ele>
        <time>2013-09-06T10:23:19Z</time>
      </trkpt>
      <trkpt lat="43.79035" lon="7.25376">
        <ele>508.7</ele>
        <time>2013-09-06T10:23:35Z</time>
      </trkpt>
      <trkpt lat="43.78988" lon="7.25369">
        <ele>509.2</ele>
        <time>2013-09-06T10:23:48Z</time>
      </trkpt>
      <trkpt lat="43.7895" lon="7.25343">
        <ele>510.6</ele>
        <time>2013-09-06T10:24:00Z</time>
      </trkpt>
      <trkpt lat="43.78925" lon="7.25287">
        <ele>512.5</ele>
        <time>2013-09-06T10:24:14Z</time>
      </trkpt>
      <trkpt lat="43.78894" lon="7.25246">
        <ele>514.4</ele>
        <time>2013-09-06T10:24:27Z</time>
      </trkpt>
      <trkpt lat="43.78856" lon="7.25244">
        <ele>515.4</ele>
        <time>2013-09-06T10:24:38Z</time>
      </trkpt>
      <trkpt lat="43.78853" lon="7.25243">
        <ele>514.9</ele>
        <time>2013-09-06T10:24:39Z</time>
      </trkpt>
      <trkpt lat="43.78851" lon="7.25242">
        <ele>515.9</ele>
        <time>2013-09-06T10:24:40Z</time>
      </trkpt>
      <trkpt lat="43.78849" lon="7.25241">
        <ele>515.9</ele>
        <time>2013-09-06T10:24:41Z</time>
      </trkpt>
      <trkpt lat="43.78847" lon="7.2524">
        <ele>515.9</ele>
        <time>2013-09-06T10:24:42Z</time>
      </trkpt>
      <trkpt lat="43.78844" lon="7.2524">
        <ele>516.4</ele>
        <time>2013-09-06T10:24:43Z</time>
      </trkpt>
      <trkpt lat="43.78804" lon="7.25217">
        <ele>517.8</ele>
        <time>2013-09-06T10:24:57Z</time>
      </trkpt>
      <trkpt lat="43.78772" lon="7.25213">
        <ele>518.3</ele>
        <time>2013-09-06T10:25:09Z</time>
      </trkpt>
      <trkpt lat="43.7874" lon="7.25235">
        <ele>519.3</ele>
        <time>2013-09-06T10:25:22Z</time>
      </trkpt>
      <trkpt lat="43.78725" lon="7.25247">
        <ele>520.7</ele>
        <time>2013-09-06T10:25:27Z</time>
      </trkpt>
      <trkpt lat="43.78679" lon="7.25265">
        <ele>520.7</ele>
        <time>2013-09-06T10:25:42Z</time>
      </trkpt>
      <trkpt lat="43.78627" lon="7.25256">
        <ele>522.6</ele>
        <time>2013-09-06T10:25:58Z</time>
      </trkpt>
      <trkpt lat="43.7859" lon="7.25259">
        <ele>523.6</ele>
        <time>2013-09-06T10:26:09Z</time>
      </trkpt>
      <trkpt lat="43.78536" lon="7.25264">
        <ele>525</ele>
        <time>2013-09-06T10:26:24Z</time>
      </trkpt>
      <trkpt lat="43.78484" lon="7.25276">
        <ele>526.9</ele>
        <time>2013-09-06T10:26:39Z</time>
      </trkpt>
      <trkpt lat="43.78433" lon="7.25295">
        <ele>528.9</ele>
        <time>2013-09-06T10:26:54Z</time>
      </trkpt>
      <trkpt lat="43.78371" lon="7.25323">
        <ele>530.8</ele>
        <time>2013-09-06T10:27:13Z</time>
      </trkpt>
      <trkpt lat="43.7831" lon="7.25365">
        <ele>533.7</ele>
        <time>2013-09-06T10:27:32Z</time>
      </trkpt>
      <trkpt lat="43.78259" lon="7.25404">
        <ele>535.6</ele>
        <time>2013-09-06T10:27:50Z</time>
      </trkpt>
      <trkpt lat="43.78224" lon="7.25388">
        <ele>536.6</ele>
        <time>2013-09-06T10:28:02Z</time>
      </trkpt>
      <trkpt lat="43.78203" lon="7.25321">
        <ele>538</ele>
        <time>2013-09-06T10:28:18Z</time>
      </trkpt>
      <trkpt lat="43.78199" lon="7.25285">
        <ele>539</ele>
        <time>2013-09-06T10:28:28Z</time>
      </trkpt>
      <trkpt lat="43.78198" lon="7.25284">
        <ele>539</ele>
        <time>2013-09-06T10:28:29Z</time>
      </trkpt>
      <trkpt lat="43.78196" lon="7.25282">
        <ele>538.5</ele>
        <time>2013-09-06T10:28:30Z</time>
      </trkpt>
      <trkpt lat="43.78167" lon="7.25259">
        <ele>539.9</ele>
        <time>2013-09-06T10:28:42Z</time>
      </trkpt>
      <trkpt lat="43.78157" lon="7.25242">
        <ele>544.2</ele>
        <time>2013-09-06T10:28:52Z</time>
      </trkpt>
      <trkpt lat="43.78156" lon="7.25231">
        <ele>544.7</ele>
        <time>2013-09-06T10:28:57Z</time>
      </trkpt>
      <trkpt lat="43.78167" lon="7.25209">
        <ele>542.8</ele>
        <time>2013-09-06T10:29:09Z</time>
      </trkpt>
      <trkpt lat="43.78166" lon="7.25211">
        <ele>542.8</ele>
        <time>2013-09-06T10:29:31Z</time>
      </trkpt>
      <trkpt lat="43.7817" lon="7.2522">
        <ele>542.3</ele>
        <time>2013-09-06T10:30:08Z</time>
      </trkpt>
      <trkpt lat="43.78181" lon="7.2519">
        <ele>540.4</ele>
        <time>2013-09-06T10:30:19Z</time>
      </trkpt>
      <trkpt lat="43.78184" lon="7.25184">
        <ele>540.4</ele>
        <time>2013-09-06T10:30:20Z</time>
      </trkpt>
      <trkpt lat="43.78193" lon="7.2517">
        <ele>539</ele>
        <time>2013-09-06T10:30:23Z</time>
      </trkpt>
      <trkpt lat="43.78206" lon="7.25141">
        <ele>537</ele>
        <time>2013-09-06T10:30:33Z</time>
      </trkpt>
      <trkpt lat="43.78217" lon="7.25113">
        <ele>535.1</ele>
        <time>2013-09-06T10:30:46Z</time>
      </trkpt>
      <trkpt lat="43.7822" lon="7.251">
        <ele>536.1</ele>
        <time>2013-09-06T10:30:55Z</time>
      </trkpt>
      <trkpt lat="43.78221" lon="7.25089">
        <ele>537</ele>
        <time>2013-09-06T10:31:08Z</time>
      </trkpt>
      <trkpt lat="43.78219" lon="7.25085">
        <ele>538.5</ele>
        <time>2013-09-06T10:31:12Z</time>
      </trkpt>
      <trkpt lat="43.78219" lon="7.25074">
        <ele>540.4</ele>
        <time>2013-09-06T10:31:24Z</time>
      </trkpt>
      <trkpt lat="43.7822" lon="7.2506">
        <ele>542.3</ele>
        <time>2013-09-06T10:31:40Z</time>
      </trkpt>
      <trkpt lat="43.7822" lon="7.25048">
        <ele>544.2</ele>
        <time>2013-09-06T10:31:54Z</time>
      </trkpt>
      <trkpt lat="43.78219" lon="7.25031">
        <ele>545.7</ele>
        <time>2013-09-06T10:32:11Z</time>
      </trkpt>
      <trkpt lat="43.78217" lon="7.25026">
        <ele>546.2</ele>
        <time>2013-09-06T10:32:16Z</time>
      </trkpt>
      <trkpt lat="43.78217" lon="7.2501">
        <ele>549.1</ele>
        <time>2013-09-06T10:32:32Z</time>
      </trkpt>
      <trkpt lat="43.78216" lon="7.24999">
        <ele>550.5</ele>
        <time>2013-09-06T10:32:48Z</time>
      </trkpt>
      <trkpt lat="43.78213" lon="7.24991">
        <ele>552.4</ele>
        <time>2013-09-06T10:33:01Z</time>
      </trkpt>
      <trkpt lat="43.78208" lon="7.24977">
        <ele>554.8</ele>
        <time>2013-09-06T10:33:17Z</time>
      </trkpt>
      <trkpt lat="43.78204" lon="7.24959">
        <ele>557.2</ele>
        <time>2013-09-06T10:33:35Z</time>
      </trkpt>
      <trkpt lat="43.782" lon="7.24945">
        <ele>560.1</ele>
        <time>2013-09-06T10:33:50Z</time>
      </trkpt>
      <trkpt lat="43.78197" lon="7.24938">
        <ele>561.1</ele>
        <time>2013-09-06T10:33:58Z</time>
      </trkpt>
      <trkpt lat="43.78191" lon="7.24935">
        <ele>561.6</ele>
        <time>2013-09-06T10:34:07Z</time>
      </trkpt>
      <trkpt lat="43.78182" lon="7.24922">
        <ele>564</ele>
        <time>2013-09-06T10:34:23Z</time>
      </trkpt>
      <trkpt lat="43.78178" lon="7.24918">
        <ele>564</ele>
        <time>2013-09-06T10:34:28Z</time>
      </trkpt>
      <trkpt lat="43.78177" lon="7.24916">
        <ele>563.5</ele>
        <time>2013-09-06T10:34:30Z</time>
      </trkpt>
      <trkpt lat="43.78162" lon="7.24902">
        <ele>565.4</ele>
        <time>2013-09-06T10:34:47Z</time>
      </trkpt>
      <trkpt lat="43.78148" lon="7.24894">
        <ele>568.8</ele>
        <time>2013-09-06T10:35:03Z</time>
      </trkpt>
      <trkpt lat="43.78134" lon="7.24883">
        <ele>570.2</ele>
        <time>2013-09-06T10:35:20Z</time>
      </trkpt>
      <trkpt lat="43.78129" lon="7.24882">
        <ele>571.2</ele>
        <time>2013-09-06T10:35:27Z</time>
      </trkpt>
      <trkpt lat="43.78123" lon="7.2488">
        <ele>572.1</ele>
        <time>2013-09-06T10:35:33Z</time>
      </trkpt>
      <trkpt lat="43.78108" lon="7.24878">
        <ele>575</ele>
        <time>2013-09-06T10:35:51Z</time>
      </trkpt>
      <trkpt lat="43.78104" lon="7.24879">
        <ele>576</ele>
        <time>2013-09-06T10:36:07Z</time>
      </trkpt>
      <trkpt lat="43.78101" lon="7.24878">
        <ele>575.5</ele>
        <time>2013-09-06T10:36:18Z</time>
      </trkpt>
      <trkpt lat="43.78098" lon="7.24878">
        <ele>576</ele>
        <time>2013-09-06T10:36:31Z</time>
      </trkpt>
      <trkpt lat="43.78097" lon="7.24878">
        <ele>576.9</ele>
        <time>2013-09-06T10:36:52Z</time>
      </trkpt>
      <trkpt lat="43.78096" lon="7.24878">
        <ele>576.9</ele>
        <time>2013-09-06T10:37:20Z</time>
      </trkpt>
      <trkpt lat="43.78092" lon="7.24879">
        <ele>578.4</ele>
        <time>2013-09-06T10:37:31Z</time>
      </trkpt>
      <trkpt lat="43.78082" lon="7.24882">
        <ele>580.3</ele>
        <time>2013-09-06T10:37:46Z</time>
      </trkpt>
      <trkpt lat="43.78077" lon="7.2488">
        <ele>581.3</ele>
        <time>2013-09-06T10:37:58Z</time>
      </trkpt>
      <trkpt lat="43.78068" lon="7.24882">
        <ele>583.2</ele>
        <time>2013-09-06T10:38:13Z</time>
      </trkpt>
      <trkpt lat="43.7806" lon="7.24882">
        <ele>584.6</ele>
        <time>2013-09-06T10:38:26Z</time>
      </trkpt>
      <trkpt lat="43.78053" lon="7.24881">
        <ele>587</ele>
        <time>2013-09-06T10:38:40Z</time>
      </trkpt>
      <trkpt lat="43.78043" lon="7.24882">
        <ele>589.4</ele>
        <time>2013-09-06T10:38:55Z</time>
      </trkpt>
      <trkpt lat="43.78035" lon="7.2488">
        <ele>591.4</ele>
        <time>2013-09-06T10:39:11Z</time>
      </trkpt>
      <trkpt lat="43.78026" lon="7.24882">
        <ele>593.8</ele>
        <time>2013-09-06T10:39:28Z</time>
      </trkpt>
      <trkpt lat="43.78014" lon="7.24881">
        <ele>596.6</ele>
        <time>2013-09-06T10:39:46Z</time>
      </trkpt>
      <trkpt lat="43.77998" lon="7.24875">
        <ele>599</ele>
        <time>2013-09-06T10:40:05Z</time>
      </trkpt>
      <trkpt lat="43.77996" lon="7.24875">
        <ele>599.5</ele>
        <time>2013-09-06T10:40:06Z</time>
      </trkpt>
      <trkpt lat="43.77995" lon="7.24874">
        <ele>599</ele>
        <time>2013-09-06T10:40:07Z</time>
      </trkpt>
      <trkpt lat="43.77984" lon="7.24866">
        <ele>599</ele>
        <time>2013-09-06T10:40:19Z</time>
      </trkpt>
      <trkpt lat="43.77984" lon="7.24864">
        <ele>599.5</ele>
        <time>2013-09-06T10:40:20Z</time>
      </trkpt>
      <trkpt lat="43.77984" lon="7.24852">
        <ele>600</ele>
        <time>2013-09-06T10:40:29Z</time>
      </trkpt>
      <trkpt lat="43.7798" lon="7.24833">
        <ele>601.4</ele>
        <time>2013-09-06T10:40:45Z</time>
      </trkpt>
      <trkpt lat="43.77978" lon="7.24819">
        <ele>603.4</ele>
        <time>2013-09-06T10:41:00Z</time>
      </trkpt>
      <trkpt lat="43.77977" lon="7.24811">
        <ele>604.8</ele>
        <time>2013-09-06T10:41:08Z</time>
      </trkpt>
      <trkpt lat="43.77974" lon="7.24799">
        <ele>606.3</ele>
        <time>2013-09-06T10:41:21Z</time>
      </trkpt>
      <trkpt lat="43.77968" lon="7.2479">
        <ele>608.7</ele>
        <time>2013-09-06T10:41:36Z</time>
      </trkpt>
      <trkpt lat="43.77967" lon="7.24792">
        <ele>608.7</ele>
        <time>2013-09-06T10:41:39Z</time>
      </trkpt>
      <trkpt lat="43.77961" lon="7.24801">
        <ele>610.6</ele>
        <time>2013-09-06T10:41:53Z</time>
      </trkpt>
      <trkpt lat="43.77956" lon="7.24811">
        <ele>613</ele>
        <time>2013-09-06T10:42:07Z</time>
      </trkpt>
      <trkpt lat="43.77951" lon="7.24816">
        <ele>613.5</ele>
        <time>2013-09-06T10:42:15Z</time>
      </trkpt>
      <trkpt lat="43.77945" lon="7.24816">
        <ele>615.9</ele>
        <time>2013-09-06T10:42:28Z</time>
      </trkpt>
      <trkpt lat="43.77938" lon="7.24821">
        <ele>617.8</ele>
        <time>2013-09-06T10:42:40Z</time>
      </trkpt>
      <trkpt lat="43.77934" lon="7.2481">
        <ele>619.7</ele>
        <time>2013-09-06T10:42:55Z</time>
      </trkpt>
      <trkpt lat="43.77925" lon="7.24807">
        <ele>621.6</ele>
        <time>2013-09-06T10:43:10Z</time>
      </trkpt>
      <trkpt lat="43.7792" lon="7.24809">
        <ele>622.6</ele>
        <time>2013-09-06T10:43:22Z</time>
      </trkpt>
      <trkpt lat="43.77914" lon="7.248">
        <ele>625.5</ele>
        <time>2013-09-06T10:43:35Z</time>
      </trkpt>
      <trkpt lat="43.77906" lon="7.24805">
        <ele>627.9</ele>
        <time>2013-09-06T10:43:49Z</time>
      </trkpt>
      <trkpt lat="43.779" lon="7.24814">
        <ele>629.3</ele>
        <time>2013-09-06T10:44:03Z</time>
      </trkpt>
      <trkpt lat="43.77892" lon="7.2482">
        <ele>630.8</ele>
        <time>2013-09-06T10:44:17Z</time>
      </trkpt>
      <trkpt lat="43.77884" lon="7.24828">
        <ele>632.7</ele>
        <time>2013-09-06T10:44:31Z</time>
      </trkpt>
      <trkpt lat="43.77877" lon="7.24836">
        <ele>634.6</ele>
        <time>2013-09-06T10:44:45Z</time>
      </trkpt>
      <trkpt lat="43.77867" lon="7.2484">
        <ele>637.5</ele>
        <time>2013-09-06T10:45:00Z</time>
      </trkpt>
      <trkpt lat="43.7786" lon="7.24844">
        <ele>639.9</ele>
        <time>2013-09-06T10:45:15Z</time>
      </trkpt>
      <trkpt lat="43.77852" lon="7.24851">
        <ele>641.3</ele>
        <time>2013-09-06T10:45:29Z</time>
      </trkpt>
      <trkpt lat="43.77845" lon="7.2486">
        <ele>643.7</ele>
        <time>2013-09-06T10:45:45Z</time>
      </trkpt>
      <trkpt lat="43.77837" lon="7.24863">
        <ele>646.1</ele>
        <time>2013-09-06T10:45:58Z</time>
      </trkpt>
      <trkpt lat="43.77829" lon="7.24866">
        <ele>647.6</ele>
        <time>2013-09-06T10:46:13Z</time>
      </trkpt>
      <trkpt lat="43.7782" lon="7.24872">
        <ele>650.5</ele>
        <time>2013-09-06T10:46:29Z</time>
      </trkpt>
      <trkpt lat="43.77812" lon="7.24877">
        <ele>651.9</ele>
        <time>2013-09-06T10:46:44Z</time>
      </trkpt>
      <trkpt lat="43.77804" lon="7.24874">
        <ele>654.8</ele>
        <time>2013-09-06T10:46:58Z</time>
      </trkpt>
      <trkpt lat="43.77795" lon="7.24874">
        <ele>655.8</ele>
        <time>2013-09-06T10:47:12Z</time>
      </trkpt>
      <trkpt lat="43.77783" lon="7.24881">
        <ele>658.2</ele>
        <time>2013-09-06T10:47:26Z</time>
      </trkpt>
      <trkpt lat="43.77772" lon="7.24895">
        <ele>660.1</ele>
        <time>2013-09-06T10:47:40Z</time>
      </trkpt>
      <trkpt lat="43.77763" lon="7.24898">
        <ele>660.1</ele>
        <time>2013-09-06T10:47:49Z</time>
      </trkpt>
      <trkpt lat="43.77758" lon="7.24901">
        <ele>660.6</ele>
        <time>2013-09-06T10:48:03Z</time>
      </trkpt>
      <trkpt lat="43.77743" lon="7.24904">
        <ele>659.6</ele>
        <time>2013-09-06T10:48:14Z</time>
      </trkpt>
      <trkpt lat="43.77706" lon="7.2492">
        <ele>659.1</ele>
        <time>2013-09-06T10:48:27Z</time>
      </trkpt>
      <trkpt lat="43.77676" lon="7.24912">
        <ele>659.6</ele>
        <time>2013-09-06T10:48:40Z</time>
      </trkpt>
      <trkpt lat="43.77656" lon="7.24907">
        <ele>661</ele>
        <time>2013-09-06T10:48:54Z</time>
      </trkpt>
      <trkpt lat="43.77644" lon="7.24908">
        <ele>663.9</ele>
        <time>2013-09-06T10:49:10Z</time>
      </trkpt>
      <trkpt lat="43.77634" lon="7.24909">
        <ele>665.4</ele>
        <time>2013-09-06T10:49:25Z</time>
      </trkpt>
      <trkpt lat="43.77623" lon="7.2491">
        <ele>666.8</ele>
        <time>2013-09-06T10:49:40Z</time>
      </trkpt>
      <trkpt lat="43.77617" lon="7.24909">
        <ele>667.8</ele>
        <time>2013-09-06T10:49:55Z</time>
      </trkpt>
      <trkpt lat="43.77616" lon="7.24909">
        <ele>668.3</ele>
        <time>2013-09-06T10:50:34Z</time>
      </trkpt>
      <trkpt lat="43.77611" lon="7.24911">
        <ele>668.7</ele>
        <time>2013-09-06T10:50:53Z</time>
      </trkpt>
      <trkpt lat="43.77609" lon="7.24912">
        <ele>669.2</ele>
        <time>2013-09-06T10:51:25Z</time>
      </trkpt>
      <trkpt lat="43.77601" lon="7.24912">
        <ele>669.7</ele>
        <time>2013-09-06T10:51:39Z</time>
      </trkpt>
      <trkpt lat="43.77595" lon="7.24912">
        <ele>670.7</ele>
        <time>2013-09-06T10:51:56Z</time>
      </trkpt>
      <trkpt lat="43.77595" lon="7.24913">
        <ele>670.7</ele>
        <time>2013-09-06T10:52:09Z</time>
      </trkpt>
      <trkpt lat="43.7759" lon="7.24914">
        <ele>671.6</ele>
        <time>2013-09-06T10:52:43Z</time>
      </trkpt>
      <trkpt lat="43.77591" lon="7.24917">
        <ele>672.6</ele>
        <time>2013-09-06T10:53:14Z</time>
      </trkpt>
      <trkpt lat="43.77596" lon="7.24911">
        <ele>673.1</ele>
        <time>2013-09-06T10:53:42Z</time>
      </trkpt>
      <trkpt lat="43.77582" lon="7.24915">
        <ele>673.5</ele>
        <time>2013-09-06T10:54:00Z</time>
      </trkpt>
      <trkpt lat="43.77556" lon="7.24924">
        <ele>672.6</ele>
        <time>2013-09-06T10:54:10Z</time>
      </trkpt>
      <trkpt lat="43.77531" lon="7.24933">
        <ele>672.1</ele>
        <time>2013-09-06T10:54:21Z</time>
      </trkpt>
      <trkpt lat="43.77527" lon="7.24933">
        <ele>672.6</ele>
        <time>2013-09-06T10:54:23Z</time>
      </trkpt>
      <trkpt lat="43.77525" lon="7.24934">
        <ele>672.1</ele>
        <time>2013-09-06T10:54:24Z</time>
      </trkpt>
      <trkpt lat="43.77523" lon="7.24934">
        <ele>672.1</ele>
        <time>2013-09-06T10:54:25Z</time>
      </trkpt>
      <trkpt lat="43.77521" lon="7.24934">
        <ele>672.6</ele>
        <time>2013-09-06T10:54:26Z</time>
      </trkpt>
      <trkpt lat="43.77519" lon="7.24935">
        <ele>672.6</ele>
        <time>2013-09-06T10:54:27Z</time>
      </trkpt>
      <trkpt lat="43.77516" lon="7.24936">
        <ele>672.6</ele>
        <time>2013-09-06T10:54:28Z</time>
      </trkpt>
      <trkpt lat="43.77514" lon="7.24937">
        <ele>672.6</ele>
        <time>2013-09-06T10:54:29Z</time>
      </trkpt>
      <trkpt lat="43.77485" lon="7.24944">
        <ele>673.5</ele>
        <time>2013-09-06T10:54:42Z</time>
      </trkpt>
      <trkpt lat="43.77452" lon="7.24948">
        <ele>675.5</ele>
        <time>2013-09-06T10:54:57Z</time>
      </trkpt>
      <trkpt lat="43.77443" lon="7.24949">
        <ele>676.4</ele>
        <time>2013-09-06T10:55:06Z</time>
      </trkpt>
      <trkpt lat="43.77415" lon="7.24948">
        <ele>677.4</ele>
        <time>2013-09-06T10:55:20Z</time>
      </trkpt>
      <trkpt lat="43.77395" lon="7.24954">
        <ele>679.8</ele>
        <time>2013-09-06T10:55:34Z</time>
      </trkpt>
      <trkpt lat="43.7739" lon="7.24954">
        <ele>681.2</ele>
        <time>2013-09-06T10:55:47Z</time>
      </trkpt>
      <trkpt lat="43.77388" lon="7.24953">
        <ele>681.2</ele>
        <time>2013-09-06T10:55:52Z</time>
      </trkpt>
      <trkpt lat="43.77366" lon="7.24953">
        <ele>682.2</ele>
        <time>2013-09-06T10:56:04Z</time>
      </trkpt>
      <trkpt lat="43.77365" lon="7.24954">
        <ele>683.2</ele>
        <time>2013-09-06T10:56:09Z</time>
      </trkpt>
      <trkpt lat="43.77358" lon="7.24958">
        <ele>683.2</ele>
        <time>2013-09-06T10:56:24Z</time>
      </trkpt>
      <trkpt lat="43.77346" lon="7.24962">
        <ele>685.6</ele>
        <time>2013-09-06T10:56:40Z</time>
      </trkpt>
      <trkpt lat="43.77336" lon="7.24965">
        <ele>686.5</ele>
        <time>2013-09-06T10:56:54Z</time>
      </trkpt>
      <trkpt lat="43.77325" lon="7.24969">
        <ele>688.4</ele>
        <time>2013-09-06T10:57:10Z</time>
      </trkpt>
      <trkpt lat="43.77322" lon="7.24968">
        <ele>688.9</ele>
        <time>2013-09-06T10:57:13Z</time>
      </trkpt>
      <trkpt lat="43.77309" lon="7.24968">
        <ele>689.9</ele>
        <time>2013-09-06T10:57:27Z</time>
      </trkpt>
      <trkpt lat="43.77307" lon="7.24969">
        <ele>690.4</ele>
        <time>2013-09-06T10:57:30Z</time>
      </trkpt>
      <trkpt lat="43.77298" lon="7.24973">
        <ele>691.3</ele>
        <time>2013-09-06T10:57:42Z</time>
      </trkpt>
      <trkpt lat="43.77289" lon="7.24976">
        <ele>692.3</ele>
        <time>2013-09-06T10:57:55Z</time>
      </trkpt>
      <trkpt lat="43.77286" lon="7.24977">
        <ele>692.8</ele>
        <time>2013-09-06T10:57:58Z</time>
      </trkpt>
      <trkpt lat="43.77272" lon="7.24977">
        <ele>693.7</ele>
        <time>2013-09-06T10:58:13Z</time>
      </trkpt>
      <trkpt lat="43.7727" lon="7.24975">
        <ele>692.8</ele>
        <time>2013-09-06T10:58:25Z</time>
      </trkpt>
      <trkpt lat="43.77248" lon="7.24977">
        <ele>693.7</ele>
        <time>2013-09-06T10:58:36Z</time>
      </trkpt>
      <trkpt lat="43.77225" lon="7.24983">
        <ele>695.2</ele>
        <time>2013-09-06T10:58:49Z</time>
      </trkpt>
      <trkpt lat="43.77196" lon="7.2499">
        <ele>696.6</ele>
        <time>2013-09-06T10:59:03Z</time>
      </trkpt>
      <trkpt lat="43.77161" lon="7.24993">
        <ele>695.7</ele>
        <time>2013-09-06T10:59:16Z</time>
      </trkpt>
      <trkpt lat="43.77132" lon="7.24996">
        <ele>696.1</ele>
        <time>2013-09-06T10:59:27Z</time>
      </trkpt>
      <trkpt lat="43.771" lon="7.24996">
        <ele>696.1</ele>
        <time>2013-09-06T10:59:40Z</time>
      </trkpt>
      <trkpt lat="43.77073" lon="7.24999">
        <ele>696.1</ele>
        <time>2013-09-06T10:59:50Z</time>
      </trkpt>
      <trkpt lat="43.77056" lon="7.2499">
        <ele>695.7</ele>
        <time>2013-09-06T11:00:00Z</time>
      </trkpt>
      <trkpt lat="43.77034" lon="7.24974">
        <ele>696.6</ele>
        <time>2013-09-06T11:00:10Z</time>
      </trkpt>
      <trkpt lat="43.77016" lon="7.24972">
        <ele>697.6</ele>
        <time>2013-09-06T11:00:22Z</time>
      </trkpt>
      <trkpt lat="43.77013" lon="7.24974">
        <ele>697.6</ele>
        <time>2013-09-06T11:00:26Z</time>
      </trkpt>
      <trkpt lat="43.77004" lon="7.24983">
        <ele>698.1</ele>
        <time>2013-09-06T11:00:40Z</time>
      </trkpt>
      <trkpt lat="43.77009" lon="7.24981">
        <ele>698.1</ele>
        <time>2013-09-06T11:00:59Z</time>
      </trkpt>
      <trkpt lat="43.76992" lon="7.24989">
        <ele>698.1</ele>
        <time>2013-09-06T11:01:11Z</time>
      </trkpt>
      <trkpt lat="43.76958" lon="7.25">
        <ele>695.2</ele>
        <time>2013-09-06T11:01:22Z</time>
      </trkpt>
      <trkpt lat="43.7695" lon="7.25003">
        <ele>694.7</ele>
        <time>2013-09-06T11:01:31Z</time>
      </trkpt>
      <trkpt lat="43.76943" lon="7.25007">
        <ele>693.3</ele>
        <time>2013-09-06T11:01:46Z</time>
      </trkpt>
      <trkpt lat="43.76921" lon="7.25018">
        <ele>690.8</ele>
        <time>2013-09-06T11:01:56Z</time>
      </trkpt>
      <trkpt lat="43.76891" lon="7.25032">
        <ele>687.5</ele>
        <time>2013-09-06T11:02:07Z</time>
      </trkpt>
      <trkpt lat="43.76882" lon="7.25035">
        <ele>686.5</ele>
        <time>2013-09-06T11:02:16Z</time>
      </trkpt>
      <trkpt lat="43.76881" lon="7.25034">
        <ele>686</ele>
        <time>2013-09-06T11:02:22Z</time>
      </trkpt>
      <trkpt lat="43.76873" lon="7.25034">
        <ele>685.1</ele>
        <time>2013-09-06T11:02:24Z</time>
      </trkpt>
      <trkpt lat="43.76869" lon="7.25034">
        <ele>685.6</ele>
        <time>2013-09-06T11:02:25Z</time>
      </trkpt>
      <trkpt lat="43.76852" lon="7.25039">
        <ele>683.2</ele>
        <time>2013-09-06T11:02:30Z</time>
      </trkpt>
      <trkpt lat="43.76851" lon="7.25047">
        <ele>683.2</ele>
        <time>2013-09-06T11:02:33Z</time>
      </trkpt>
      <trkpt lat="43.76851" lon="7.2505">
        <ele>683.6</ele>
        <time>2013-09-06T11:02:34Z</time>
      </trkpt>
      <trkpt lat="43.7685" lon="7.25052">
        <ele>683.2</ele>
        <time>2013-09-06T11:02:35Z</time>
      </trkpt>
      <trkpt lat="43.76848" lon="7.25053">
        <ele>682.7</ele>
        <time>2013-09-06T11:02:36Z</time>
      </trkpt>
      <trkpt lat="43.76845" lon="7.25054">
        <ele>683.2</ele>
        <time>2013-09-06T11:02:37Z</time>
      </trkpt>
      <trkpt lat="43.7682" lon="7.25048">
        <ele>680.3</ele>
        <time>2013-09-06T11:02:44Z</time>
      </trkpt>
      <trkpt lat="43.76816" lon="7.25046">
        <ele>679.3</ele>
        <time>2013-09-06T11:02:45Z</time>
      </trkpt>
      <trkpt lat="43.76795" lon="7.25034">
        <ele>679.3</ele>
        <time>2013-09-06T11:02:51Z</time>
      </trkpt>
      <trkpt lat="43.76792" lon="7.25033">
        <ele>678.4</ele>
        <time>2013-09-06T11:02:52Z</time>
      </trkpt>
      <trkpt lat="43.7679" lon="7.25033">
        <ele>677.9</ele>
        <time>2013-09-06T11:02:53Z</time>
      </trkpt>
      <trkpt lat="43.76788" lon="7.25033">
        <ele>676.9</ele>
        <time>2013-09-06T11:02:54Z</time>
      </trkpt>
      <trkpt lat="43.76785" lon="7.25034">
        <ele>677.9</ele>
        <time>2013-09-06T11:02:55Z</time>
      </trkpt>
      <trkpt lat="43.76782" lon="7.25036">
        <ele>677.4</ele>
        <time>2013-09-06T11:02:56Z</time>
      </trkpt>
      <trkpt lat="43.7678" lon="7.25038">
        <ele>676.9</ele>
        <time>2013-09-06T11:02:57Z</time>
      </trkpt>
      <trkpt lat="43.76778" lon="7.25039">
        <ele>676.4</ele>
        <time>2013-09-06T11:02:58Z</time>
      </trkpt>
      <trkpt lat="43.76775" lon="7.25039">
        <ele>675.9</ele>
        <time>2013-09-06T11:03:05Z</time>
      </trkpt>
      <trkpt lat="43.76774" lon="7.2504">
        <ele>675.9</ele>
        <time>2013-09-06T11:03:06Z</time>
      </trkpt>
      <trkpt lat="43.76772" lon="7.2504">
        <ele>675.9</ele>
        <time>2013-09-06T11:03:07Z</time>
      </trkpt>
      <trkpt lat="43.76743" lon="7.25052">
        <ele>674</ele>
        <time>2013-09-06T11:03:17Z</time>
      </trkpt>
      <trkpt lat="43.76735" lon="7.25057">
        <ele>673.1</ele>
        <time>2013-09-06T11:03:27Z</time>
      </trkpt>
      <trkpt lat="43.76728" lon="7.2506">
        <ele>670.7</ele>
        <time>2013-09-06T11:03:37Z</time>
      </trkpt>
      <trkpt lat="43.76727" lon="7.25059">
        <ele>670.7</ele>
        <time>2013-09-06T11:03:38Z</time>
      </trkpt>
      <trkpt lat="43.76726" lon="7.25059">
        <ele>670.2</ele>
        <time>2013-09-06T11:03:39Z</time>
      </trkpt>
      <trkpt lat="43.76724" lon="7.25056">
        <ele>670.2</ele>
        <time>2013-09-06T11:03:42Z</time>
      </trkpt>
      <trkpt lat="43.76718" lon="7.25056">
        <ele>669.2</ele>
        <time>2013-09-06T11:03:48Z</time>
      </trkpt>
      <trkpt lat="43.76717" lon="7.25056">
        <ele>668.7</ele>
        <time>2013-09-06T11:03:49Z</time>
      </trkpt>
      <trkpt lat="43.76716" lon="7.25056">
        <ele>669.2</ele>
        <time>2013-09-06T11:03:50Z</time>
      </trkpt>
      <trkpt lat="43.76708" lon="7.25056">
        <ele>667.8</ele>
        <time>2013-09-06T11:03:59Z</time>
      </trkpt>
      <trkpt lat="43.76707" lon="7.25056">
        <ele>667.8</ele>
        <time>2013-09-06T11:04:00Z</time>
      </trkpt>
      <trkpt lat="43.76706" lon="7.25056">
        <ele>667.8</ele>
        <time>2013-09-06T11:04:01Z</time>
      </trkpt>
      <trkpt lat="43.76692" lon="7.25049">
        <ele>664.9</ele>
        <time>2013-09-06T11:04:16Z</time>
      </trkpt>
      <trkpt lat="43.76691" lon="7.25049">
        <ele>664.9</ele>
        <time>2013-09-06T11:04:17Z</time>
      </trkpt>
      <trkpt lat="43.76689" lon="7.25049">
        <ele>664.9</ele>
        <time>2013-09-06T11:04:18Z</time>
      </trkpt>
      <trkpt lat="43.76687" lon="7.25051">
        <ele>664.9</ele>
        <time>2013-09-06T11:04:21Z</time>
      </trkpt>
      <trkpt lat="43.76686" lon="7.25052">
        <ele>664.9</ele>
        <time>2013-09-06T11:04:22Z</time>
      </trkpt>
      <trkpt lat="43.76677" lon="7.25071">
        <ele>662.5</ele>
        <time>2013-09-06T11:04:39Z</time>
      </trkpt>
      <trkpt lat="43.7667" lon="7.25088">
        <ele>660.6</ele>
        <time>2013-09-06T11:04:55Z</time>
      </trkpt>
      <trkpt lat="43.76669" lon="7.25089">
        <ele>658.2</ele>
        <time>2013-09-06T11:04:59Z</time>
      </trkpt>
      <trkpt lat="43.76669" lon="7.25089">
        <ele>661</ele>
        <time>2013-09-06T11:05:00Z</time>
      </trkpt>
      <trkpt lat="43.76661" lon="7.25092">
        <ele>675.9</ele>
        <time>2013-09-06T11:09:37Z</time>
      </trkpt>
      <trkpt lat="43.76636" lon="7.25095">
        <ele>671.6</ele>
        <time>2013-09-06T11:09:47Z</time>
      </trkpt>
      <trkpt lat="43.76635" lon="7.25094">
        <ele>668.3</ele>
        <time>2013-09-06T11:09:51Z</time>
      </trkpt>
      <trkpt lat="43.76632" lon="7.25095">
        <ele>666.8</ele>
        <time>2013-09-06T11:09:54Z</time>
      </trkpt>
      <trkpt lat="43.76631" lon="7.25095">
        <ele>663.5</ele>
        <time>2013-09-06T11:09:58Z</time>
      </trkpt>
      <trkpt lat="43.7663" lon="7.25096">
        <ele>663.5</ele>
        <time>2013-09-06T11:09:59Z</time>
      </trkpt>
      <trkpt lat="43.76629" lon="7.25095">
        <ele>662</ele>
        <time>2013-09-06T11:10:02Z</time>
      </trkpt>
      <trkpt lat="43.76626" lon="7.25096">
        <ele>658.6</ele>
        <time>2013-09-06T11:10:06Z</time>
      </trkpt>
      <trkpt lat="43.76623" lon="7.25097">
        <ele>658.6</ele>
        <time>2013-09-06T11:10:07Z</time>
      </trkpt>
      <trkpt lat="43.76617" lon="7.25098">
        <ele>656.2</ele>
        <time>2013-09-06T11:10:11Z</time>
      </trkpt>
      <trkpt lat="43.76615" lon="7.25099">
        <ele>653.8</ele>
        <time>2013-09-06T11:10:17Z</time>
      </trkpt>
      <trkpt lat="43.76613" lon="7.25099">
        <ele>654.3</ele>
        <time>2013-09-06T11:10:18Z</time>
      </trkpt>
      <trkpt lat="43.76599" lon="7.25103">
        <ele>651</ele>
        <time>2013-09-06T11:10:29Z</time>
      </trkpt>
      <trkpt lat="43.76596" lon="7.25102">
        <ele>650.5</ele>
        <time>2013-09-06T11:10:32Z</time>
      </trkpt>
      <trkpt lat="43.76595" lon="7.25102">
        <ele>650.5</ele>
        <time>2013-09-06T11:10:33Z</time>
      </trkpt>
      <trkpt lat="43.76593" lon="7.25103">
        <ele>650.5</ele>
        <time>2013-09-06T11:10:34Z</time>
      </trkpt>
      <trkpt lat="43.76583" lon="7.25107">
        <ele>648.6</ele>
        <time>2013-09-06T11:10:45Z</time>
      </trkpt>
      <trkpt lat="43.76575" lon="7.2511">
        <ele>647.6</ele>
        <time>2013-09-06T11:10:48Z</time>
      </trkpt>
      <trkpt lat="43.76548" lon="7.25126">
        <ele>644.2</ele>
        <time>2013-09-06T11:10:57Z</time>
      </trkpt>
      <trkpt lat="43.76516" lon="7.25124">
        <ele>640.4</ele>
        <time>2013-09-06T11:11:08Z</time>
      </trkpt>
      <trkpt lat="43.76499" lon="7.25116">
        <ele>638.9</ele>
        <time>2013-09-06T11:11:18Z</time>
      </trkpt>
      <trkpt lat="43.76482" lon="7.25112">
        <ele>636.5</ele>
        <time>2013-09-06T11:11:29Z</time>
      </trkpt>
      <trkpt lat="43.76477" lon="7.25111">
        <ele>636.5</ele>
        <time>2013-09-06T11:11:39Z</time>
      </trkpt>
      <trkpt lat="43.76467" lon="7.25115">
        <ele>635.6</ele>
        <time>2013-09-06T11:11:49Z</time>
      </trkpt>
      <trkpt lat="43.76457" lon="7.25115">
        <ele>634.1</ele>
        <time>2013-09-06T11:12:00Z</time>
      </trkpt>
      <trkpt lat="43.76444" lon="7.25119">
        <ele>633.2</ele>
        <time>2013-09-06T11:12:11Z</time>
      </trkpt>
      <trkpt lat="43.76433" lon="7.25126">
        <ele>632.7</ele>
        <time>2013-09-06T11:12:20Z</time>
      </trkpt>
      <trkpt lat="43.76424" lon="7.25129">
        <ele>631.7</ele>
        <time>2013-09-06T11:12:32Z</time>
      </trkpt>
      <trkpt lat="43.76413" lon="7.25133">
        <ele>629.3</ele>
        <time>2013-09-06T11:12:46Z</time>
      </trkpt>
      <trkpt lat="43.76401" lon="7.25139">
        <ele>627.4</ele>
        <time>2013-09-06T11:13:01Z</time>
      </trkpt>
      <trkpt lat="43.76394" lon="7.25145">
        <ele>626.4</ele>
        <time>2013-09-06T11:13:14Z</time>
      </trkpt>
      <trkpt lat="43.76374" lon="7.25165">
        <ele>624</ele>
        <time>2013-09-06T11:13:24Z</time>
      </trkpt>
      <trkpt lat="43.76369" lon="7.25171">
        <ele>623.6</ele>
        <time>2013-09-06T11:13:34Z</time>
      </trkpt>
      <trkpt lat="43.76367" lon="7.25172">
        <ele>623.6</ele>
        <time>2013-09-06T11:13:37Z</time>
      </trkpt>
      <trkpt lat="43.76349" lon="7.25197">
        <ele>622.6</ele>
        <time>2013-09-06T11:13:47Z</time>
      </trkpt>
      <trkpt lat="43.76328" lon="7.252">
        <ele>618.8</ele>
        <time>2013-09-06T11:13:57Z</time>
      </trkpt>
      <trkpt lat="43.76326" lon="7.252">
        <ele>618.8</ele>
        <time>2013-09-06T11:13:58Z</time>
      </trkpt>
      <trkpt lat="43.76304" lon="7.25201">
        <ele>615.4</ele>
        <time>2013-09-06T11:14:07Z</time>
      </trkpt>
      <trkpt lat="43.76292" lon="7.25204">
        <ele>613.9</ele>
        <time>2013-09-06T11:14:16Z</time>
      </trkpt>
      <trkpt lat="43.76278" lon="7.25204">
        <ele>613</ele>
        <time>2013-09-06T11:14:27Z</time>
      </trkpt>
      <trkpt lat="43.76259" lon="7.25206">
        <ele>610.6</ele>
        <time>2013-09-06T11:14:38Z</time>
      </trkpt>
      <trkpt lat="43.7624" lon="7.25211">
        <ele>609.1</ele>
        <time>2013-09-06T11:14:49Z</time>
      </trkpt>
      <trkpt lat="43.76235" lon="7.25212">
        <ele>608.7</ele>
        <time>2013-09-06T11:15:00Z</time>
      </trkpt>
      <trkpt lat="43.76234" lon="7.25212">
        <ele>608.2</ele>
        <time>2013-09-06T11:15:03Z</time>
      </trkpt>
      <trkpt lat="43.76231" lon="7.25211">
        <ele>608.7</ele>
        <time>2013-09-06T11:15:06Z</time>
      </trkpt>
      <trkpt lat="43.76229" lon="7.25212">
        <ele>608.2</ele>
        <time>2013-09-06T11:15:07Z</time>
      </trkpt>
      <trkpt lat="43.76227" lon="7.25212">
        <ele>608.2</ele>
        <time>2013-09-06T11:15:08Z</time>
      </trkpt>
      <trkpt lat="43.76224" lon="7.25212">
        <ele>608.7</ele>
        <time>2013-09-06T11:15:09Z</time>
      </trkpt>
      <trkpt lat="43.76222" lon="7.25213">
        <ele>607.7</ele>
        <time>2013-09-06T11:15:10Z</time>
      </trkpt>
      <trkpt lat="43.762" lon="7.25222">
        <ele>606.3</ele>
        <time>2013-09-06T11:15:21Z</time>
      </trkpt>
      <trkpt lat="43.76192" lon="7.2522">
        <ele>604.8</ele>
        <time>2013-09-06T11:15:33Z</time>
      </trkpt>
      <trkpt lat="43.76182" lon="7.25227">
        <ele>603.9</ele>
        <time>2013-09-06T11:15:47Z</time>
      </trkpt>
      <trkpt lat="43.76167" lon="7.25237">
        <ele>603.4</ele>
        <time>2013-09-06T11:15:59Z</time>
      </trkpt>
      <trkpt lat="43.76161" lon="7.25241">
        <ele>601.9</ele>
        <time>2013-09-06T11:16:07Z</time>
      </trkpt>
      <trkpt lat="43.76153" lon="7.25244">
        <ele>601.4</ele>
        <time>2013-09-06T11:16:19Z</time>
      </trkpt>
      <trkpt lat="43.76153" lon="7.25246">
        <ele>601.4</ele>
        <time>2013-09-06T11:16:30Z</time>
      </trkpt>
      <trkpt lat="43.76153" lon="7.25246">
        <ele>601</ele>
        <time>2013-09-06T11:38:39Z</time>
      </trkpt>
      <trkpt lat="43.76152" lon="7.25247">
        <ele>601.9</ele>
        <time>2013-09-06T11:38:58Z</time>
      </trkpt>
      <trkpt lat="43.76146" lon="7.25248">
        <ele>600.5</ele>
        <time>2013-09-06T11:39:14Z</time>
      </trkpt>
      <trkpt lat="43.7614" lon="7.2525">
        <ele>599.5</ele>
        <time>2013-09-06T11:39:26Z</time>
      </trkpt>
      <trkpt lat="43.76139" lon="7.25251">
        <ele>598.6</ele>
        <time>2013-09-06T11:39:29Z</time>
      </trkpt>
      <trkpt lat="43.76136" lon="7.25253">
        <ele>598.1</ele>
        <time>2013-09-06T11:39:40Z</time>
      </trkpt>
      <trkpt lat="43.76125" lon="7.25262">
        <ele>596.2</ele>
        <time>2013-09-06T11:39:51Z</time>
      </trkpt>
      <trkpt lat="43.76103" lon="7.25275">
        <ele>593.3</ele>
        <time>2013-09-06T11:40:02Z</time>
      </trkpt>
      <trkpt lat="43.76102" lon="7.25277">
        <ele>592.8</ele>
        <time>2013-09-06T11:40:03Z</time>
      </trkpt>
      <trkpt lat="43.76102" lon="7.25278">
        <ele>592.3</ele>
        <time>2013-09-06T11:40:04Z</time>
      </trkpt>
      <trkpt lat="43.76098" lon="7.2528">
        <ele>590.9</ele>
        <time>2013-09-06T11:40:16Z</time>
      </trkpt>
      <trkpt lat="43.76087" lon="7.25283">
        <ele>589</ele>
        <time>2013-09-06T11:40:30Z</time>
      </trkpt>
      <trkpt lat="43.76086" lon="7.25283">
        <ele>589</ele>
        <time>2013-09-06T11:40:31Z</time>
      </trkpt>
      <trkpt lat="43.76073" lon="7.2529">
        <ele>588</ele>
        <time>2013-09-06T11:40:42Z</time>
      </trkpt>
      <trkpt lat="43.76047" lon="7.25304">
        <ele>584.6</ele>
        <time>2013-09-06T11:40:53Z</time>
      </trkpt>
      <trkpt lat="43.76042" lon="7.25307">
        <ele>584.1</ele>
        <time>2013-09-06T11:41:02Z</time>
      </trkpt>
      <trkpt lat="43.76032" lon="7.25308">
        <ele>581.7</ele>
        <time>2013-09-06T11:41:15Z</time>
      </trkpt>
      <trkpt lat="43.76031" lon="7.25308">
        <ele>581.3</ele>
        <time>2013-09-06T11:41:19Z</time>
      </trkpt>
      <trkpt lat="43.7603" lon="7.25309">
        <ele>581.7</ele>
        <time>2013-09-06T11:41:20Z</time>
      </trkpt>
      <trkpt lat="43.76016" lon="7.25316">
        <ele>580.8</ele>
        <time>2013-09-06T11:41:29Z</time>
      </trkpt>
      <trkpt lat="43.76004" lon="7.25324">
        <ele>578.9</ele>
        <time>2013-09-06T11:41:45Z</time>
      </trkpt>
      <trkpt lat="43.75994" lon="7.25329">
        <ele>577.4</ele>
        <time>2013-09-06T11:41:57Z</time>
      </trkpt>
      <trkpt lat="43.75989" lon="7.25334">
        <ele>577.4</ele>
        <time>2013-09-06T11:42:03Z</time>
      </trkpt>
      <trkpt lat="43.75988" lon="7.25335">
        <ele>577.9</ele>
        <time>2013-09-06T11:42:04Z</time>
      </trkpt>
      <trkpt lat="43.75977" lon="7.25341">
        <ele>576</ele>
        <time>2013-09-06T11:42:20Z</time>
      </trkpt>
      <trkpt lat="43.75975" lon="7.25341">
        <ele>576.5</ele>
        <time>2013-09-06T11:42:22Z</time>
      </trkpt>
      <trkpt lat="43.75951" lon="7.25356">
        <ele>574</ele>
        <time>2013-09-06T11:42:31Z</time>
      </trkpt>
      <trkpt lat="43.75936" lon="7.25366">
        <ele>573.6</ele>
        <time>2013-09-06T11:42:35Z</time>
      </trkpt>
      <trkpt lat="43.75932" lon="7.25368">
        <ele>573.1</ele>
        <time>2013-09-06T11:42:36Z</time>
      </trkpt>
      <trkpt lat="43.75929" lon="7.25371">
        <ele>572.1</ele>
        <time>2013-09-06T11:42:37Z</time>
      </trkpt>
      <trkpt lat="43.75925" lon="7.25373">
        <ele>572.1</ele>
        <time>2013-09-06T11:42:38Z</time>
      </trkpt>
      <trkpt lat="43.75922" lon="7.25376">
        <ele>572.6</ele>
        <time>2013-09-06T11:42:39Z</time>
      </trkpt>
      <trkpt lat="43.7592" lon="7.25379">
        <ele>571.6</ele>
        <time>2013-09-06T11:42:40Z</time>
      </trkpt>
      <trkpt lat="43.75918" lon="7.25381">
        <ele>571.6</ele>
        <time>2013-09-06T11:42:41Z</time>
      </trkpt>
      <trkpt lat="43.75916" lon="7.25382">
        <ele>571.2</ele>
        <time>2013-09-06T11:42:42Z</time>
      </trkpt>
      <trkpt lat="43.75914" lon="7.25383">
        <ele>570.7</ele>
        <time>2013-09-06T11:42:43Z</time>
      </trkpt>
      <trkpt lat="43.75912" lon="7.25384">
        <ele>571.2</ele>
        <time>2013-09-06T11:42:44Z</time>
      </trkpt>
      <trkpt lat="43.7591" lon="7.25386">
        <ele>570.7</ele>
        <time>2013-09-06T11:42:45Z</time>
      </trkpt>
      <trkpt lat="43.75898" lon="7.25395">
        <ele>569.2</ele>
        <time>2013-09-06T11:42:53Z</time>
      </trkpt>
      <trkpt lat="43.75899" lon="7.25395">
        <ele>568.8</ele>
        <time>2013-09-06T11:43:14Z</time>
      </trkpt>
      <trkpt lat="43.75884" lon="7.2541">
        <ele>568.3</ele>
        <time>2013-09-06T11:43:26Z</time>
      </trkpt>
      <trkpt lat="43.75869" lon="7.25423">
        <ele>568.3</ele>
        <time>2013-09-06T11:43:36Z</time>
      </trkpt>
      <trkpt lat="43.75861" lon="7.25427">
        <ele>568.3</ele>
        <time>2013-09-06T11:43:48Z</time>
      </trkpt>
      <trkpt lat="43.75851" lon="7.2543">
        <ele>565.4</ele>
        <time>2013-09-06T11:44:01Z</time>
      </trkpt>
      <trkpt lat="43.7584" lon="7.25435">
        <ele>563.5</ele>
        <time>2013-09-06T11:44:18Z</time>
      </trkpt>
      <trkpt lat="43.75819" lon="7.25449">
        <ele>561.1</ele>
        <time>2013-09-06T11:44:26Z</time>
      </trkpt>
      <trkpt lat="43.75808" lon="7.25453">
        <ele>558.7</ele>
        <time>2013-09-06T11:44:31Z</time>
      </trkpt>
      <trkpt lat="43.75799" lon="7.25458">
        <ele>557.2</ele>
        <time>2013-09-06T11:44:34Z</time>
      </trkpt>
      <trkpt lat="43.75792" lon="7.25465">
        <ele>556.3</ele>
        <time>2013-09-06T11:44:42Z</time>
      </trkpt>
      <trkpt lat="43.75788" lon="7.25466">
        <ele>555.8</ele>
        <time>2013-09-06T11:44:47Z</time>
      </trkpt>
      <trkpt lat="43.75787" lon="7.25467">
        <ele>555.8</ele>
        <time>2013-09-06T11:44:48Z</time>
      </trkpt>
      <trkpt lat="43.75785" lon="7.25469">
        <ele>554.8</ele>
        <time>2013-09-06T11:44:55Z</time>
      </trkpt>
      <trkpt lat="43.75784" lon="7.25469">
        <ele>555.3</ele>
        <time>2013-09-06T11:44:56Z</time>
      </trkpt>
      <trkpt lat="43.75782" lon="7.2547">
        <ele>555.3</ele>
        <time>2013-09-06T11:44:57Z</time>
      </trkpt>
      <trkpt lat="43.75781" lon="7.25471">
        <ele>554.8</ele>
        <time>2013-09-06T11:44:58Z</time>
      </trkpt>
      <trkpt lat="43.75779" lon="7.25473">
        <ele>555.3</ele>
        <time>2013-09-06T11:44:59Z</time>
      </trkpt>
      <trkpt lat="43.75752" lon="7.25494">
        <ele>552.9</ele>
        <time>2013-09-06T11:45:12Z</time>
      </trkpt>
      <trkpt lat="43.75743" lon="7.25495">
        <ele>551.5</ele>
        <time>2013-09-06T11:45:25Z</time>
      </trkpt>
      <trkpt lat="43.75729" lon="7.25502">
        <ele>550</ele>
        <time>2013-09-06T11:45:40Z</time>
      </trkpt>
      <trkpt lat="43.75716" lon="7.25509">
        <ele>549.1</ele>
        <time>2013-09-06T11:45:51Z</time>
      </trkpt>
      <trkpt lat="43.75709" lon="7.25515">
        <ele>548.6</ele>
        <time>2013-09-06T11:45:55Z</time>
      </trkpt>
      <trkpt lat="43.75708" lon="7.25516">
        <ele>548.1</ele>
        <time>2013-09-06T11:45:56Z</time>
      </trkpt>
      <trkpt lat="43.75706" lon="7.25516">
        <ele>548.1</ele>
        <time>2013-09-06T11:45:57Z</time>
      </trkpt>
      <trkpt lat="43.75704" lon="7.25516">
        <ele>548.1</ele>
        <time>2013-09-06T11:45:58Z</time>
      </trkpt>
      <trkpt lat="43.75703" lon="7.25516">
        <ele>548.1</ele>
        <time>2013-09-06T11:45:59Z</time>
      </trkpt>
      <trkpt lat="43.75701" lon="7.25515">
        <ele>547.6</ele>
        <time>2013-09-06T11:46:00Z</time>
      </trkpt>
      <trkpt lat="43.75699" lon="7.25516">
        <ele>547.1</ele>
        <time>2013-09-06T11:46:01Z</time>
      </trkpt>
      <trkpt lat="43.75698" lon="7.25516">
        <ele>547.1</ele>
        <time>2013-09-06T11:46:02Z</time>
      </trkpt>
      <trkpt lat="43.75696" lon="7.25517">
        <ele>547.1</ele>
        <time>2013-09-06T11:46:03Z</time>
      </trkpt>
      <trkpt lat="43.75672" lon="7.25532">
        <ele>544.7</ele>
        <time>2013-09-06T11:46:13Z</time>
      </trkpt>
      <trkpt lat="43.75662" lon="7.25536">
        <ele>542.8</ele>
        <time>2013-09-06T11:46:23Z</time>
      </trkpt>
      <trkpt lat="43.75647" lon="7.25539">
        <ele>540.9</ele>
        <time>2013-09-06T11:46:34Z</time>
      </trkpt>
      <trkpt lat="43.75646" lon="7.2554">
        <ele>540.4</ele>
        <time>2013-09-06T11:46:35Z</time>
      </trkpt>
      <trkpt lat="43.75637" lon="7.25549">
        <ele>539.9</ele>
        <time>2013-09-06T11:46:42Z</time>
      </trkpt>
      <trkpt lat="43.75636" lon="7.25551">
        <ele>540.4</ele>
        <time>2013-09-06T11:46:43Z</time>
      </trkpt>
      <trkpt lat="43.75634" lon="7.25552">
        <ele>539.9</ele>
        <time>2013-09-06T11:46:44Z</time>
      </trkpt>
      <trkpt lat="43.75632" lon="7.25553">
        <ele>539.9</ele>
        <time>2013-09-06T11:46:45Z</time>
      </trkpt>
      <trkpt lat="43.75629" lon="7.25554">
        <ele>539.9</ele>
        <time>2013-09-06T11:46:46Z</time>
      </trkpt>
      <trkpt lat="43.75626" lon="7.25556">
        <ele>539.4</ele>
        <time>2013-09-06T11:46:47Z</time>
      </trkpt>
      <trkpt lat="43.75623" lon="7.25558">
        <ele>539</ele>
        <time>2013-09-06T11:46:48Z</time>
      </trkpt>
      <trkpt lat="43.7562" lon="7.25559">
        <ele>539</ele>
        <time>2013-09-06T11:46:49Z</time>
      </trkpt>
      <trkpt lat="43.75618" lon="7.25561">
        <ele>539</ele>
        <time>2013-09-06T11:46:50Z</time>
      </trkpt>
      <trkpt lat="43.75616" lon="7.25562">
        <ele>539</ele>
        <time>2013-09-06T11:46:51Z</time>
      </trkpt>
      <trkpt lat="43.75606" lon="7.25568">
        <ele>536.6</ele>
        <time>2013-09-06T11:47:02Z</time>
      </trkpt>
      <trkpt lat="43.75599" lon="7.25569">
        <ele>535.6</ele>
        <time>2013-09-06T11:47:13Z</time>
      </trkpt>
      <trkpt lat="43.75597" lon="7.2557">
        <ele>535.1</ele>
        <time>2013-09-06T11:47:14Z</time>
      </trkpt>
      <trkpt lat="43.75595" lon="7.25571">
        <ele>535.1</ele>
        <time>2013-09-06T11:47:15Z</time>
      </trkpt>
      <trkpt lat="43.75588" lon="7.25573">
        <ele>533.2</ele>
        <time>2013-09-06T11:47:25Z</time>
      </trkpt>
      <trkpt lat="43.75587" lon="7.25573">
        <ele>533.7</ele>
        <time>2013-09-06T11:47:26Z</time>
      </trkpt>
      <trkpt lat="43.75584" lon="7.25574">
        <ele>532.7</ele>
        <time>2013-09-06T11:47:35Z</time>
      </trkpt>
      <trkpt lat="43.75565" lon="7.25585">
        <ele>530.8</ele>
        <time>2013-09-06T11:47:44Z</time>
      </trkpt>
      <trkpt lat="43.75563" lon="7.25586">
        <ele>530.3</ele>
        <time>2013-09-06T11:47:45Z</time>
      </trkpt>
      <trkpt lat="43.75562" lon="7.25589">
        <ele>530.3</ele>
        <time>2013-09-06T11:47:46Z</time>
      </trkpt>
      <trkpt lat="43.75561" lon="7.25591">
        <ele>530.8</ele>
        <time>2013-09-06T11:47:47Z</time>
      </trkpt>
      <trkpt lat="43.75559" lon="7.25592">
        <ele>529.8</ele>
        <time>2013-09-06T11:47:48Z</time>
      </trkpt>
      <trkpt lat="43.75556" lon="7.25594">
        <ele>529.3</ele>
        <time>2013-09-06T11:47:49Z</time>
      </trkpt>
      <trkpt lat="43.75554" lon="7.25597">
        <ele>529.3</ele>
        <time>2013-09-06T11:47:50Z</time>
      </trkpt>
      <trkpt lat="43.75552" lon="7.256">
        <ele>529.3</ele>
        <time>2013-09-06T11:47:51Z</time>
      </trkpt>
      <trkpt lat="43.7555" lon="7.25604">
        <ele>529.3</ele>
        <time>2013-09-06T11:47:52Z</time>
      </trkpt>
      <trkpt lat="43.75547" lon="7.25607">
        <ele>528.9</ele>
        <time>2013-09-06T11:47:53Z</time>
      </trkpt>
      <trkpt lat="43.75535" lon="7.25637">
        <ele>526</ele>
        <time>2013-09-06T11:48:03Z</time>
      </trkpt>
      <trkpt lat="43.75533" lon="7.25663">
        <ele>524.1</ele>
        <time>2013-09-06T11:48:14Z</time>
      </trkpt>
      <trkpt lat="43.75527" lon="7.25705">
        <ele>520.7</ele>
        <time>2013-09-06T11:48:26Z</time>
      </trkpt>
      <trkpt lat="43.75527" lon="7.25707">
        <ele>520.7</ele>
        <time>2013-09-06T11:48:27Z</time>
      </trkpt>
      <trkpt lat="43.75527" lon="7.25709">
        <ele>519.7</ele>
        <time>2013-09-06T11:48:28Z</time>
      </trkpt>
      <trkpt lat="43.75526" lon="7.25711">
        <ele>519.7</ele>
        <time>2013-09-06T11:48:29Z</time>
      </trkpt>
      <trkpt lat="43.75525" lon="7.25712">
        <ele>520.2</ele>
        <time>2013-09-06T11:48:30Z</time>
      </trkpt>
      <trkpt lat="43.75524" lon="7.25712">
        <ele>519.3</ele>
        <time>2013-09-06T11:48:31Z</time>
      </trkpt>
      <trkpt lat="43.75521" lon="7.25713">
        <ele>518.3</ele>
        <time>2013-09-06T11:48:42Z</time>
      </trkpt>
      <trkpt lat="43.75513" lon="7.25716">
        <ele>515.9</ele>
        <time>2013-09-06T11:48:58Z</time>
      </trkpt>
      <trkpt lat="43.75506" lon="7.25723">
        <ele>514</ele>
        <time>2013-09-06T11:49:12Z</time>
      </trkpt>
      <trkpt lat="43.75506" lon="7.25725">
        <ele>514</ele>
        <time>2013-09-06T11:49:30Z</time>
      </trkpt>
      <trkpt lat="43.75495" lon="7.25738">
        <ele>512</ele>
        <time>2013-09-06T11:49:49Z</time>
      </trkpt>
      <trkpt lat="43.75494" lon="7.25743">
        <ele>512</ele>
        <time>2013-09-06T11:49:50Z</time>
      </trkpt>
      <trkpt lat="43.75493" lon="7.25749">
        <ele>511.1</ele>
        <time>2013-09-06T11:49:51Z</time>
      </trkpt>
      <trkpt lat="43.7549" lon="7.25767">
        <ele>510.1</ele>
        <time>2013-09-06T11:49:54Z</time>
      </trkpt>
      <trkpt lat="43.75489" lon="7.25772">
        <ele>510.6</ele>
        <time>2013-09-06T11:49:55Z</time>
      </trkpt>
      <trkpt lat="43.75486" lon="7.25776">
        <ele>511.1</ele>
        <time>2013-09-06T11:49:56Z</time>
      </trkpt>
      <trkpt lat="43.75484" lon="7.2578">
        <ele>510.1</ele>
        <time>2013-09-06T11:49:57Z</time>
      </trkpt>
      <trkpt lat="43.75481" lon="7.25781">
        <ele>510.6</ele>
        <time>2013-09-06T11:49:58Z</time>
      </trkpt>
      <trkpt lat="43.75478" lon="7.25782">
        <ele>510.1</ele>
        <time>2013-09-06T11:49:59Z</time>
      </trkpt>
      <trkpt lat="43.75474" lon="7.25782">
        <ele>510.6</ele>
        <time>2013-09-06T11:50:00Z</time>
      </trkpt>
      <trkpt lat="43.75471" lon="7.25783">
        <ele>509.6</ele>
        <time>2013-09-06T11:50:01Z</time>
      </trkpt>
      <trkpt lat="43.75468" lon="7.25785">
        <ele>510.1</ele>
        <time>2013-09-06T11:50:02Z</time>
      </trkpt>
      <trkpt lat="43.75465" lon="7.25787">
        <ele>509.6</ele>
        <time>2013-09-06T11:50:03Z</time>
      </trkpt>
      <trkpt lat="43.75463" lon="7.25789">
        <ele>510.1</ele>
        <time>2013-09-06T11:50:04Z</time>
      </trkpt>
      <trkpt lat="43.75461" lon="7.25791">
        <ele>509.6</ele>
        <time>2013-09-06T11:50:05Z</time>
      </trkpt>
      <trkpt lat="43.75459" lon="7.25793">
        <ele>509.2</ele>
        <time>2013-09-06T11:50:06Z</time>
      </trkpt>
      <trkpt lat="43.75457" lon="7.25796">
        <ele>509.6</ele>
        <time>2013-09-06T11:50:07Z</time>
      </trkpt>
      <trkpt lat="43.75455" lon="7.25797">
        <ele>509.2</ele>
        <time>2013-09-06T11:50:08Z</time>
      </trkpt>
      <trkpt lat="43.75453" lon="7.25798">
        <ele>509.6</ele>
        <time>2013-09-06T11:50:09Z</time>
      </trkpt>
      <trkpt lat="43.75451" lon="7.25798">
        <ele>509.6</ele>
        <time>2013-09-06T11:50:10Z</time>
      </trkpt>
      <trkpt lat="43.75449" lon="7.25798">
        <ele>509.6</ele>
        <time>2013-09-06T11:50:11Z</time>
      </trkpt>
      <trkpt lat="43.75443" lon="7.258">
        <ele>510.1</ele>
        <time>2013-09-06T11:50:14Z</time>
      </trkpt>
      <trkpt lat="43.75441" lon="7.258">
        <ele>509.6</ele>
        <time>2013-09-06T11:50:15Z</time>
      </trkpt>
      <trkpt lat="43.7542" lon="7.25803">
        <ele>510.6</ele>
        <time>2013-09-06T11:50:27Z</time>
      </trkpt>
      <trkpt lat="43.75419" lon="7.25804">
        <ele>510.6</ele>
        <time>2013-09-06T11:50:28Z</time>
      </trkpt>
      <trkpt lat="43.75418" lon="7.25806">
        <ele>510.6</ele>
        <time>2013-09-06T11:50:29Z</time>
      </trkpt>
      <trkpt lat="43.75416" lon="7.25806">
        <ele>510.1</ele>
        <time>2013-09-06T11:50:30Z</time>
      </trkpt>
      <trkpt lat="43.75414" lon="7.25806">
        <ele>510.6</ele>
        <time>2013-09-06T11:50:31Z</time>
      </trkpt>
      <trkpt lat="43.75412" lon="7.25806">
        <ele>511.1</ele>
        <time>2013-09-06T11:50:32Z</time>
      </trkpt>
      <trkpt lat="43.75411" lon="7.25806">
        <ele>511.1</ele>
        <time>2013-09-06T11:50:33Z</time>
      </trkpt>
      <trkpt lat="43.75405" lon="7.25805">
        <ele>511.6</ele>
        <time>2013-09-06T11:50:40Z</time>
      </trkpt>
      <trkpt lat="43.75395" lon="7.25799">
        <ele>512</ele>
        <time>2013-09-06T11:50:52Z</time>
      </trkpt>
      <trkpt lat="43.75391" lon="7.25797">
        <ele>512</ele>
        <time>2013-09-06T11:50:58Z</time>
      </trkpt>
      <trkpt lat="43.75387" lon="7.25799">
        <ele>512</ele>
        <time>2013-09-06T11:51:06Z</time>
      </trkpt>
      <trkpt lat="43.75385" lon="7.25799">
        <ele>512.5</ele>
        <time>2013-09-06T11:51:07Z</time>
      </trkpt>
      <trkpt lat="43.75382" lon="7.25797">
        <ele>512</ele>
        <time>2013-09-06T11:51:10Z</time>
      </trkpt>
      <trkpt lat="43.75381" lon="7.25796">
        <ele>512</ele>
        <time>2013-09-06T11:51:11Z</time>
      </trkpt>
      <trkpt lat="43.75379" lon="7.25795">
        <ele>511.6</ele>
        <time>2013-09-06T11:51:12Z</time>
      </trkpt>
      <trkpt lat="43.75378" lon="7.25793">
        <ele>511.6</ele>
        <time>2013-09-06T11:51:13Z</time>
      </trkpt>
      <trkpt lat="43.75377" lon="7.25792">
        <ele>511.1</ele>
        <time>2013-09-06T11:51:14Z</time>
      </trkpt>
      <trkpt lat="43.75376" lon="7.25791">
        <ele>511.6</ele>
        <time>2013-09-06T11:51:15Z</time>
      </trkpt>
      <trkpt lat="43.75375" lon="7.2579">
        <ele>511.6</ele>
        <time>2013-09-06T11:51:16Z</time>
      </trkpt>
      <trkpt lat="43.75374" lon="7.25789">
        <ele>511.1</ele>
        <time>2013-09-06T11:51:27Z</time>
      </trkpt>
      <trkpt lat="43.75373" lon="7.25786">
        <ele>511.1</ele>
        <time>2013-09-06T11:51:40Z</time>
      </trkpt>
      <trkpt lat="43.75373" lon="7.25784">
        <ele>511.1</ele>
        <time>2013-09-06T11:51:41Z</time>
      </trkpt>
      <trkpt lat="43.75372" lon="7.25783">
        <ele>511.1</ele>
        <time>2013-09-06T11:51:42Z</time>
      </trkpt>
      <trkpt lat="43.7537" lon="7.25783">
        <ele>510.6</ele>
        <time>2013-09-06T11:51:43Z</time>
      </trkpt>
      <trkpt lat="43.75367" lon="7.25784">
        <ele>510.6</ele>
        <time>2013-09-06T11:51:44Z</time>
      </trkpt>
      <trkpt lat="43.75345" lon="7.25788">
        <ele>507.7</ele>
        <time>2013-09-06T11:51:52Z</time>
      </trkpt>
      <trkpt lat="43.75341" lon="7.25791">
        <ele>506.3</ele>
        <time>2013-09-06T11:51:53Z</time>
      </trkpt>
      <trkpt lat="43.75338" lon="7.25795">
        <ele>506.3</ele>
        <time>2013-09-06T11:51:54Z</time>
      </trkpt>
      <trkpt lat="43.75336" lon="7.258">
        <ele>506.3</ele>
        <time>2013-09-06T11:51:55Z</time>
      </trkpt>
      <trkpt lat="43.75314" lon="7.25816">
        <ele>504.8</ele>
        <time>2013-09-06T11:52:05Z</time>
      </trkpt>
      <trkpt lat="43.75297" lon="7.25828">
        <ele>505.3</ele>
        <time>2013-09-06T11:52:15Z</time>
      </trkpt>
      <trkpt lat="43.75286" lon="7.25834">
        <ele>505.3</ele>
        <time>2013-09-06T11:52:27Z</time>
      </trkpt>
      <trkpt lat="43.75284" lon="7.25835">
        <ele>505.3</ele>
        <time>2013-09-06T11:52:28Z</time>
      </trkpt>
      <trkpt lat="43.75281" lon="7.25837">
        <ele>504.8</ele>
        <time>2013-09-06T11:52:31Z</time>
      </trkpt>
      <trkpt lat="43.7528" lon="7.25837">
        <ele>504.8</ele>
        <time>2013-09-06T11:52:32Z</time>
      </trkpt>
      <trkpt lat="43.75269" lon="7.2584">
        <ele>504.8</ele>
        <time>2013-09-06T11:52:43Z</time>
      </trkpt>
      <trkpt lat="43.75259" lon="7.25852">
        <ele>505.3</ele>
        <time>2013-09-06T11:53:00Z</time>
      </trkpt>
      <trkpt lat="43.75249" lon="7.25854">
        <ele>503.9</ele>
        <time>2013-09-06T11:53:09Z</time>
      </trkpt>
      <trkpt lat="43.75247" lon="7.25853">
        <ele>503.9</ele>
        <time>2013-09-06T11:53:10Z</time>
      </trkpt>
      <trkpt lat="43.75225" lon="7.25856">
        <ele>502.4</ele>
        <time>2013-09-06T11:53:17Z</time>
      </trkpt>
      <trkpt lat="43.75221" lon="7.25857">
        <ele>502.4</ele>
        <time>2013-09-06T11:53:18Z</time>
      </trkpt>
      <trkpt lat="43.75216" lon="7.25858">
        <ele>501</ele>
        <time>2013-09-06T11:53:19Z</time>
      </trkpt>
      <trkpt lat="43.75212" lon="7.2586">
        <ele>501.5</ele>
        <time>2013-09-06T11:53:20Z</time>
      </trkpt>
      <trkpt lat="43.75208" lon="7.25863">
        <ele>500.5</ele>
        <time>2013-09-06T11:53:21Z</time>
      </trkpt>
      <trkpt lat="43.75204" lon="7.25866">
        <ele>500.5</ele>
        <time>2013-09-06T11:53:22Z</time>
      </trkpt>
      <trkpt lat="43.752" lon="7.25867">
        <ele>500</ele>
        <time>2013-09-06T11:53:23Z</time>
      </trkpt>
      <trkpt lat="43.75197" lon="7.25867">
        <ele>500.5</ele>
        <time>2013-09-06T11:53:24Z</time>
      </trkpt>
      <trkpt lat="43.75194" lon="7.25867">
        <ele>501</ele>
        <time>2013-09-06T11:53:25Z</time>
      </trkpt>
      <trkpt lat="43.7519" lon="7.25868">
        <ele>500</ele>
        <time>2013-09-06T11:53:26Z</time>
      </trkpt>
      <trkpt lat="43.75186" lon="7.2587">
        <ele>499.5</ele>
        <time>2013-09-06T11:53:27Z</time>
      </trkpt>
      <trkpt lat="43.75182" lon="7.25871">
        <ele>499.1</ele>
        <time>2013-09-06T11:53:28Z</time>
      </trkpt>
      <trkpt lat="43.75172" lon="7.25874">
        <ele>498.1</ele>
        <time>2013-09-06T11:53:31Z</time>
      </trkpt>
      <trkpt lat="43.7517" lon="7.25873">
        <ele>498.6</ele>
        <time>2013-09-06T11:53:32Z</time>
      </trkpt>
      <trkpt lat="43.75168" lon="7.25873">
        <ele>498.1</ele>
        <time>2013-09-06T11:53:33Z</time>
      </trkpt>
      <trkpt lat="43.75166" lon="7.25874">
        <ele>498.1</ele>
        <time>2013-09-06T11:53:34Z</time>
      </trkpt>
      <trkpt lat="43.75163" lon="7.25873">
        <ele>497.1</ele>
        <time>2013-09-06T11:53:38Z</time>
      </trkpt>
      <trkpt lat="43.75162" lon="7.25872">
        <ele>497.6</ele>
        <time>2013-09-06T11:53:39Z</time>
      </trkpt>
      <trkpt lat="43.7516" lon="7.25872">
        <ele>496.7</ele>
        <time>2013-09-06T11:53:40Z</time>
      </trkpt>
      <trkpt lat="43.75158" lon="7.25871">
        <ele>496.7</ele>
        <time>2013-09-06T11:53:41Z</time>
      </trkpt>
      <trkpt lat="43.75155" lon="7.25872">
        <ele>496.7</ele>
        <time>2013-09-06T11:53:42Z</time>
      </trkpt>
      <trkpt lat="43.75152" lon="7.25872">
        <ele>495.7</ele>
        <time>2013-09-06T11:53:43Z</time>
      </trkpt>
      <trkpt lat="43.75139" lon="7.25872">
        <ele>494.7</ele>
        <time>2013-09-06T11:53:49Z</time>
      </trkpt>
      <trkpt lat="43.75137" lon="7.25871">
        <ele>494.7</ele>
        <time>2013-09-06T11:53:50Z</time>
      </trkpt>
      <trkpt lat="43.75135" lon="7.2587">
        <ele>493.8</ele>
        <time>2013-09-06T11:53:51Z</time>
      </trkpt>
      <trkpt lat="43.75123" lon="7.25874">
        <ele>493.8</ele>
        <time>2013-09-06T11:53:55Z</time>
      </trkpt>
      <trkpt lat="43.75088" lon="7.2587">
        <ele>491.4</ele>
        <time>2013-09-06T11:54:06Z</time>
      </trkpt>
      <trkpt lat="43.75057" lon="7.2586">
        <ele>489.5</ele>
        <time>2013-09-06T11:54:18Z</time>
      </trkpt>
      <trkpt lat="43.75026" lon="7.25859">
        <ele>488</ele>
        <time>2013-09-06T11:54:30Z</time>
      </trkpt>
      <trkpt lat="43.75022" lon="7.25856">
        <ele>487.5</ele>
        <time>2013-09-06T11:54:42Z</time>
      </trkpt>
      <trkpt lat="43.75016" lon="7.25854">
        <ele>487.1</ele>
        <time>2013-09-06T11:54:52Z</time>
      </trkpt>
      <trkpt lat="43.75015" lon="7.25854">
        <ele>486.6</ele>
        <time>2013-09-06T11:54:53Z</time>
      </trkpt>
      <trkpt lat="43.75005" lon="7.25852">
        <ele>486.1</ele>
        <time>2013-09-06T11:55:00Z</time>
      </trkpt>
      <trkpt lat="43.75003" lon="7.25851">
        <ele>485.1</ele>
        <time>2013-09-06T11:55:01Z</time>
      </trkpt>
      <trkpt lat="43.75001" lon="7.25851">
        <ele>486.1</ele>
        <time>2013-09-06T11:55:02Z</time>
      </trkpt>
      <trkpt lat="43.74999" lon="7.25851">
        <ele>486.1</ele>
        <time>2013-09-06T11:55:03Z</time>
      </trkpt>
      <trkpt lat="43.74997" lon="7.25851">
        <ele>485.1</ele>
        <time>2013-09-06T11:55:04Z</time>
      </trkpt>
      <trkpt lat="43.74996" lon="7.25852">
        <ele>485.1</ele>
        <time>2013-09-06T11:55:05Z</time>
      </trkpt>
      <trkpt lat="43.74993" lon="7.25852">
        <ele>485.1</ele>
        <time>2013-09-06T11:55:06Z</time>
      </trkpt>
      <trkpt lat="43.74975" lon="7.25852">
        <ele>485.1</ele>
        <time>2013-09-06T11:55:17Z</time>
      </trkpt>
      <trkpt lat="43.74974" lon="7.25851">
        <ele>484.6</ele>
        <time>2013-09-06T11:55:18Z</time>
      </trkpt>
      <trkpt lat="43.74972" lon="7.25847">
        <ele>483.7</ele>
        <time>2013-09-06T11:55:22Z</time>
      </trkpt>
      <trkpt lat="43.7497" lon="7.25845">
        <ele>484.2</ele>
        <time>2013-09-06T11:55:23Z</time>
      </trkpt>
      <trkpt lat="43.74969" lon="7.25844">
        <ele>484.2</ele>
        <time>2013-09-06T11:55:24Z</time>
      </trkpt>
      <trkpt lat="43.74967" lon="7.25842">
        <ele>484.2</ele>
        <time>2013-09-06T11:55:25Z</time>
      </trkpt>
      <trkpt lat="43.74964" lon="7.25841">
        <ele>483.7</ele>
        <time>2013-09-06T11:55:26Z</time>
      </trkpt>
      <trkpt lat="43.74948" lon="7.2584">
        <ele>483.2</ele>
        <time>2013-09-06T11:55:32Z</time>
      </trkpt>
      <trkpt lat="43.74946" lon="7.2584">
        <ele>483.7</ele>
        <time>2013-09-06T11:55:33Z</time>
      </trkpt>
      <trkpt lat="43.74944" lon="7.25839">
        <ele>483.7</ele>
        <time>2013-09-06T11:55:34Z</time>
      </trkpt>
      <trkpt lat="43.74919" lon="7.25838">
        <ele>484.2</ele>
        <time>2013-09-06T11:55:47Z</time>
      </trkpt>
      <trkpt lat="43.74895" lon="7.25843">
        <ele>485.1</ele>
        <time>2013-09-06T11:55:59Z</time>
      </trkpt>
      <trkpt lat="43.7487" lon="7.25841">
        <ele>483.2</ele>
        <time>2013-09-06T11:56:10Z</time>
      </trkpt>
      <trkpt lat="43.7484" lon="7.25841">
        <ele>484.6</ele>
        <time>2013-09-06T11:56:22Z</time>
      </trkpt>
      <trkpt lat="43.748" lon="7.25839">
        <ele>484.2</ele>
        <time>2013-09-06T11:56:37Z</time>
      </trkpt>
      <trkpt lat="43.74774" lon="7.25846">
        <ele>480.8</ele>
        <time>2013-09-06T11:56:49Z</time>
      </trkpt>
      <trkpt lat="43.74767" lon="7.25847">
        <ele>480.3</ele>
        <time>2013-09-06T11:57:03Z</time>
      </trkpt>
      <trkpt lat="43.74756" lon="7.25856">
        <ele>480.3</ele>
        <time>2013-09-06T11:57:16Z</time>
      </trkpt>
      <trkpt lat="43.74735" lon="7.25869">
        <ele>478.9</ele>
        <time>2013-09-06T11:57:25Z</time>
      </trkpt>
      <trkpt lat="43.74727" lon="7.25877">
        <ele>477.9</ele>
        <time>2013-09-06T11:57:34Z</time>
      </trkpt>
      <trkpt lat="43.74721" lon="7.25878">
        <ele>475.5</ele>
        <time>2013-09-06T11:57:48Z</time>
      </trkpt>
      <trkpt lat="43.74713" lon="7.25887">
        <ele>474.1</ele>
        <time>2013-09-06T11:58:01Z</time>
      </trkpt>
      <trkpt lat="43.74708" lon="7.25893">
        <ele>472.1</ele>
        <time>2013-09-06T11:58:15Z</time>
      </trkpt>
      <trkpt lat="43.74707" lon="7.25893">
        <ele>471.2</ele>
        <time>2013-09-06T11:58:16Z</time>
      </trkpt>
      <trkpt lat="43.74705" lon="7.25893">
        <ele>471.2</ele>
        <time>2013-09-06T11:58:17Z</time>
      </trkpt>
      <trkpt lat="43.74694" lon="7.25891">
        <ele>469.3</ele>
        <time>2013-09-06T11:58:32Z</time>
      </trkpt>
      <trkpt lat="43.74688" lon="7.25894">
        <ele>466.4</ele>
        <time>2013-09-06T11:58:47Z</time>
      </trkpt>
      <trkpt lat="43.74684" lon="7.25886">
        <ele>464</ele>
        <time>2013-09-06T11:59:02Z</time>
      </trkpt>
      <trkpt lat="43.74683" lon="7.25884">
        <ele>462.5</ele>
        <time>2013-09-06T11:59:05Z</time>
      </trkpt>
      <trkpt lat="43.74683" lon="7.25872">
        <ele>462.1</ele>
        <time>2013-09-06T11:59:18Z</time>
      </trkpt>
      <trkpt lat="43.7466" lon="7.25851">
        <ele>461.1</ele>
        <time>2013-09-06T11:59:28Z</time>
      </trkpt>
      <trkpt lat="43.74654" lon="7.25844">
        <ele>460.1</ele>
        <time>2013-09-06T11:59:38Z</time>
      </trkpt>
      <trkpt lat="43.74653" lon="7.25845">
        <ele>460.6</ele>
        <time>2013-09-06T11:59:39Z</time>
      </trkpt>
      <trkpt lat="43.74651" lon="7.25846">
        <ele>459.7</ele>
        <time>2013-09-06T11:59:40Z</time>
      </trkpt>
      <trkpt lat="43.74649" lon="7.25848">
        <ele>460.1</ele>
        <time>2013-09-06T11:59:41Z</time>
      </trkpt>
      <trkpt lat="43.74647" lon="7.2585">
        <ele>460.1</ele>
        <time>2013-09-06T11:59:42Z</time>
      </trkpt>
      <trkpt lat="43.74645" lon="7.25852">
        <ele>460.1</ele>
        <time>2013-09-06T11:59:43Z</time>
      </trkpt>
      <trkpt lat="43.74643" lon="7.25853">
        <ele>459.7</ele>
        <time>2013-09-06T11:59:44Z</time>
      </trkpt>
      <trkpt lat="43.74641" lon="7.25854">
        <ele>460.1</ele>
        <time>2013-09-06T11:59:45Z</time>
      </trkpt>
      <trkpt lat="43.74639" lon="7.25856">
        <ele>460.1</ele>
        <time>2013-09-06T11:59:46Z</time>
      </trkpt>
      <trkpt lat="43.74613" lon="7.25871">
        <ele>458.7</ele>
        <time>2013-09-06T11:59:58Z</time>
      </trkpt>
      <trkpt lat="43.74609" lon="7.25873">
        <ele>457.7</ele>
        <time>2013-09-06T12:00:07Z</time>
      </trkpt>
      <trkpt lat="43.74609" lon="7.25872">
        <ele>457.7</ele>
        <time>2013-09-06T12:00:26Z</time>
      </trkpt>
      <trkpt lat="43.74602" lon="7.25873">
        <ele>457.2</ele>
        <time>2013-09-06T12:00:40Z</time>
      </trkpt>
      <trkpt lat="43.74596" lon="7.25872">
        <ele>454.8</ele>
        <time>2013-09-06T12:00:53Z</time>
      </trkpt>
      <trkpt lat="43.74588" lon="7.25872">
        <ele>452.4</ele>
        <time>2013-09-06T12:01:09Z</time>
      </trkpt>
      <trkpt lat="43.7458" lon="7.25867">
        <ele>450.5</ele>
        <time>2013-09-06T12:01:22Z</time>
      </trkpt>
      <trkpt lat="43.74578" lon="7.25851">
        <ele>448.6</ele>
        <time>2013-09-06T12:01:37Z</time>
      </trkpt>
      <trkpt lat="43.74574" lon="7.25844">
        <ele>445.7</ele>
        <time>2013-09-06T12:01:50Z</time>
      </trkpt>
      <trkpt lat="43.74573" lon="7.25841">
        <ele>445.2</ele>
        <time>2013-09-06T12:01:54Z</time>
      </trkpt>
      <trkpt lat="43.74569" lon="7.25833">
        <ele>443.3</ele>
        <time>2013-09-06T12:02:08Z</time>
      </trkpt>
      <trkpt lat="43.74565" lon="7.25824">
        <ele>440.4</ele>
        <time>2013-09-06T12:02:23Z</time>
      </trkpt>
      <trkpt lat="43.74565" lon="7.25823">
        <ele>440.4</ele>
        <time>2013-09-06T12:02:24Z</time>
      </trkpt>
      <trkpt lat="43.74564" lon="7.25811">
        <ele>439</ele>
        <time>2013-09-06T12:02:39Z</time>
      </trkpt>
      <trkpt lat="43.74563" lon="7.25801">
        <ele>436.1</ele>
        <time>2013-09-06T12:02:52Z</time>
      </trkpt>
      <trkpt lat="43.74566" lon="7.25791">
        <ele>433.7</ele>
        <time>2013-09-06T12:03:08Z</time>
      </trkpt>
      <trkpt lat="43.74563" lon="7.25786">
        <ele>432.7</ele>
        <time>2013-09-06T12:03:21Z</time>
      </trkpt>
      <trkpt lat="43.74563" lon="7.25784">
        <ele>431.8</ele>
        <time>2013-09-06T12:03:26Z</time>
      </trkpt>
      <trkpt lat="43.7456" lon="7.25777">
        <ele>430.3</ele>
        <time>2013-09-06T12:03:39Z</time>
      </trkpt>
      <trkpt lat="43.74557" lon="7.25771">
        <ele>429.4</ele>
        <time>2013-09-06T12:03:53Z</time>
      </trkpt>
      <trkpt lat="43.74555" lon="7.25763">
        <ele>427</ele>
        <time>2013-09-06T12:04:05Z</time>
      </trkpt>
      <trkpt lat="43.74551" lon="7.25756">
        <ele>425.5</ele>
        <time>2013-09-06T12:04:17Z</time>
      </trkpt>
      <trkpt lat="43.74546" lon="7.25746">
        <ele>423.1</ele>
        <time>2013-09-06T12:04:32Z</time>
      </trkpt>
      <trkpt lat="43.74543" lon="7.25735">
        <ele>420.7</ele>
        <time>2013-09-06T12:04:46Z</time>
      </trkpt>
      <trkpt lat="43.74541" lon="7.25728">
        <ele>419.8</ele>
        <time>2013-09-06T12:04:58Z</time>
      </trkpt>
      <trkpt lat="43.74537" lon="7.25722">
        <ele>417.8</ele>
        <time>2013-09-06T12:05:11Z</time>
      </trkpt>
      <trkpt lat="43.74529" lon="7.25714">
        <ele>415.9</ele>
        <time>2013-09-06T12:05:26Z</time>
      </trkpt>
      <trkpt lat="43.74527" lon="7.25716">
        <ele>415.4</ele>
        <time>2013-09-06T12:05:39Z</time>
      </trkpt>
      <trkpt lat="43.74529" lon="7.25716">
        <ele>415</ele>
        <time>2013-09-06T12:05:50Z</time>
      </trkpt>
      <trkpt lat="43.74523" lon="7.25715">
        <ele>413.5</ele>
        <time>2013-09-06T12:06:09Z</time>
      </trkpt>
      <trkpt lat="43.74521" lon="7.25714">
        <ele>413.5</ele>
        <time>2013-09-06T12:06:12Z</time>
      </trkpt>
      <trkpt lat="43.7451" lon="7.25709">
        <ele>412.5</ele>
        <time>2013-09-06T12:06:23Z</time>
      </trkpt>
      <trkpt lat="43.74503" lon="7.25699">
        <ele>410.6</ele>
        <time>2013-09-06T12:06:32Z</time>
      </trkpt>
      <trkpt lat="43.74497" lon="7.25699">
        <ele>408.7</ele>
        <time>2013-09-06T12:06:42Z</time>
      </trkpt>
      <trkpt lat="43.74494" lon="7.25697">
        <ele>408.7</ele>
        <time>2013-09-06T12:06:46Z</time>
      </trkpt>
      <trkpt lat="43.74481" lon="7.25692">
        <ele>407.3</ele>
        <time>2013-09-06T12:07:01Z</time>
      </trkpt>
      <trkpt lat="43.74479" lon="7.2569">
        <ele>406.3</ele>
        <time>2013-09-06T12:07:04Z</time>
      </trkpt>
      <trkpt lat="43.74468" lon="7.25684">
        <ele>405.3</ele>
        <time>2013-09-06T12:07:17Z</time>
      </trkpt>
      <trkpt lat="43.74455" lon="7.25682">
        <ele>403.9</ele>
        <time>2013-09-06T12:07:27Z</time>
      </trkpt>
      <trkpt lat="43.74454" lon="7.25682">
        <ele>403.9</ele>
        <time>2013-09-06T12:07:28Z</time>
      </trkpt>
      <trkpt lat="43.74452" lon="7.25681">
        <ele>403.4</ele>
        <time>2013-09-06T12:07:30Z</time>
      </trkpt>
      <trkpt lat="43.74449" lon="7.25681">
        <ele>403.4</ele>
        <time>2013-09-06T12:07:32Z</time>
      </trkpt>
      <trkpt lat="43.74447" lon="7.2568">
        <ele>402.9</ele>
        <time>2013-09-06T12:07:33Z</time>
      </trkpt>
      <trkpt lat="43.74446" lon="7.25678">
        <ele>402.9</ele>
        <time>2013-09-06T12:07:34Z</time>
      </trkpt>
      <trkpt lat="43.74444" lon="7.25678">
        <ele>402.5</ele>
        <time>2013-09-06T12:07:35Z</time>
      </trkpt>
      <trkpt lat="43.74441" lon="7.25679">
        <ele>402.5</ele>
        <time>2013-09-06T12:07:36Z</time>
      </trkpt>
      <trkpt lat="43.74439" lon="7.25679">
        <ele>402.5</ele>
        <time>2013-09-06T12:07:37Z</time>
      </trkpt>
      <trkpt lat="43.74437" lon="7.25679">
        <ele>402</ele>
        <time>2013-09-06T12:07:38Z</time>
      </trkpt>
      <trkpt lat="43.74435" lon="7.25679">
        <ele>402.5</ele>
        <time>2013-09-06T12:07:39Z</time>
      </trkpt>
      <trkpt lat="43.74432" lon="7.25678">
        <ele>402</ele>
        <time>2013-09-06T12:07:40Z</time>
      </trkpt>
      <trkpt lat="43.7443" lon="7.25675">
        <ele>402</ele>
        <time>2013-09-06T12:07:41Z</time>
      </trkpt>
      <trkpt lat="43.74428" lon="7.25672">
        <ele>401</ele>
        <time>2013-09-06T12:07:42Z</time>
      </trkpt>
      <trkpt lat="43.74426" lon="7.2567">
        <ele>400.5</ele>
        <time>2013-09-06T12:07:43Z</time>
      </trkpt>
      <trkpt lat="43.74423" lon="7.25668">
        <ele>401</ele>
        <time>2013-09-06T12:07:44Z</time>
      </trkpt>
      <trkpt lat="43.74419" lon="7.25666">
        <ele>400.5</ele>
        <time>2013-09-06T12:07:45Z</time>
      </trkpt>
      <trkpt lat="43.74417" lon="7.25664">
        <ele>400.5</ele>
        <time>2013-09-06T12:07:46Z</time>
      </trkpt>
      <trkpt lat="43.74414" lon="7.2566">
        <ele>400.5</ele>
        <time>2013-09-06T12:07:47Z</time>
      </trkpt>
      <trkpt lat="43.74408" lon="7.25648">
        <ele>400.1</ele>
        <time>2013-09-06T12:07:51Z</time>
      </trkpt>
      <trkpt lat="43.74408" lon="7.25646">
        <ele>399.6</ele>
        <time>2013-09-06T12:07:52Z</time>
      </trkpt>
      <trkpt lat="43.74407" lon="7.25643">
        <ele>400.5</ele>
        <time>2013-09-06T12:07:53Z</time>
      </trkpt>
      <trkpt lat="43.74406" lon="7.25642">
        <ele>400.1</ele>
        <time>2013-09-06T12:07:54Z</time>
      </trkpt>
      <trkpt lat="43.74404" lon="7.25642">
        <ele>399.6</ele>
        <time>2013-09-06T12:07:55Z</time>
      </trkpt>
      <trkpt lat="43.74403" lon="7.25643">
        <ele>399.6</ele>
        <time>2013-09-06T12:07:56Z</time>
      </trkpt>
      <trkpt lat="43.74401" lon="7.25644">
        <ele>399.6</ele>
        <time>2013-09-06T12:07:57Z</time>
      </trkpt>
      <trkpt lat="43.74399" lon="7.25646">
        <ele>399.6</ele>
        <time>2013-09-06T12:07:58Z</time>
      </trkpt>
      <trkpt lat="43.74397" lon="7.25647">
        <ele>399.6</ele>
        <time>2013-09-06T12:07:59Z</time>
      </trkpt>
      <trkpt lat="43.74394" lon="7.25649">
        <ele>399.1</ele>
        <time>2013-09-06T12:08:00Z</time>
      </trkpt>
      <trkpt lat="43.74392" lon="7.25651">
        <ele>398.1</ele>
        <time>2013-09-06T12:08:01Z</time>
      </trkpt>
      <trkpt lat="43.7439" lon="7.25651">
        <ele>398.1</ele>
        <time>2013-09-06T12:08:02Z</time>
      </trkpt>
      <trkpt lat="43.74387" lon="7.25652">
        <ele>398.1</ele>
        <time>2013-09-06T12:08:03Z</time>
      </trkpt>
      <trkpt lat="43.74385" lon="7.25651">
        <ele>398.1</ele>
        <time>2013-09-06T12:08:04Z</time>
      </trkpt>
      <trkpt lat="43.74382" lon="7.2565">
        <ele>397.2</ele>
        <time>2013-09-06T12:08:05Z</time>
      </trkpt>
      <trkpt lat="43.7438" lon="7.25649">
        <ele>397.2</ele>
        <time>2013-09-06T12:08:06Z</time>
      </trkpt>
      <trkpt lat="43.74378" lon="7.25648">
        <ele>397.6</ele>
        <time>2013-09-06T12:08:07Z</time>
      </trkpt>
      <trkpt lat="43.7434" lon="7.25641">
        <ele>395.2</ele>
        <time>2013-09-06T12:08:20Z</time>
      </trkpt>
      <trkpt lat="43.74338" lon="7.25639">
        <ele>395.2</ele>
        <time>2013-09-06T12:08:21Z</time>
      </trkpt>
      <trkpt lat="43.74336" lon="7.25636">
        <ele>394.8</ele>
        <time>2013-09-06T12:08:22Z</time>
      </trkpt>
      <trkpt lat="43.74331" lon="7.25626">
        <ele>394.3</ele>
        <time>2013-09-06T12:08:27Z</time>
      </trkpt>
      <trkpt lat="43.7431" lon="7.25624">
        <ele>393.3</ele>
        <time>2013-09-06T12:08:37Z</time>
      </trkpt>
      <trkpt lat="43.74298" lon="7.25619">
        <ele>392.8</ele>
        <time>2013-09-06T12:08:47Z</time>
      </trkpt>
      <trkpt lat="43.74297" lon="7.25619">
        <ele>392.4</ele>
        <time>2013-09-06T12:08:48Z</time>
      </trkpt>
      <trkpt lat="43.74295" lon="7.2562">
        <ele>392.4</ele>
        <time>2013-09-06T12:08:49Z</time>
      </trkpt>
      <trkpt lat="43.74294" lon="7.25621">
        <ele>392.4</ele>
        <time>2013-09-06T12:08:50Z</time>
      </trkpt>
      <trkpt lat="43.74293" lon="7.25622">
        <ele>392.8</ele>
        <time>2013-09-06T12:08:51Z</time>
      </trkpt>
      <trkpt lat="43.74291" lon="7.25623">
        <ele>392.4</ele>
        <time>2013-09-06T12:08:53Z</time>
      </trkpt>
      <trkpt lat="43.74289" lon="7.25623">
        <ele>391.9</ele>
        <time>2013-09-06T12:08:54Z</time>
      </trkpt>
      <trkpt lat="43.74287" lon="7.25624">
        <ele>391.9</ele>
        <time>2013-09-06T12:08:55Z</time>
      </trkpt>
      <trkpt lat="43.74273" lon="7.25634">
        <ele>390.9</ele>
        <time>2013-09-06T12:09:06Z</time>
      </trkpt>
      <trkpt lat="43.74241" lon="7.25659">
        <ele>388.5</ele>
        <time>2013-09-06T12:09:17Z</time>
      </trkpt>
      <trkpt lat="43.74232" lon="7.25668">
        <ele>386.6</ele>
        <time>2013-09-06T12:09:20Z</time>
      </trkpt>
      <trkpt lat="43.7422" lon="7.25693">
        <ele>384.2</ele>
        <time>2013-09-06T12:09:26Z</time>
      </trkpt>
      <trkpt lat="43.74218" lon="7.25697">
        <ele>384.2</ele>
        <time>2013-09-06T12:09:27Z</time>
      </trkpt>
      <trkpt lat="43.74216" lon="7.25701">
        <ele>384.2</ele>
        <time>2013-09-06T12:09:28Z</time>
      </trkpt>
      <trkpt lat="43.74215" lon="7.25705">
        <ele>383.7</ele>
        <time>2013-09-06T12:09:29Z</time>
      </trkpt>
      <trkpt lat="43.74213" lon="7.25708">
        <ele>383.2</ele>
        <time>2013-09-06T12:09:30Z</time>
      </trkpt>
      <trkpt lat="43.74211" lon="7.25711">
        <ele>383.2</ele>
        <time>2013-09-06T12:09:31Z</time>
      </trkpt>
      <trkpt lat="43.74208" lon="7.25715">
        <ele>382.3</ele>
        <time>2013-09-06T12:09:32Z</time>
      </trkpt>
      <trkpt lat="43.74207" lon="7.25717">
        <ele>382.7</ele>
        <time>2013-09-06T12:09:33Z</time>
      </trkpt>
      <trkpt lat="43.74202" lon="7.25721">
        <ele>381.8</ele>
        <time>2013-09-06T12:09:35Z</time>
      </trkpt>
      <trkpt lat="43.74192" lon="7.25723">
        <ele>380.3</ele>
        <time>2013-09-06T12:09:39Z</time>
      </trkpt>
      <trkpt lat="43.7419" lon="7.25725">
        <ele>379.9</ele>
        <time>2013-09-06T12:09:40Z</time>
      </trkpt>
      <trkpt lat="43.74189" lon="7.25726">
        <ele>379.4</ele>
        <time>2013-09-06T12:09:41Z</time>
      </trkpt>
      <trkpt lat="43.74188" lon="7.2573">
        <ele>378.4</ele>
        <time>2013-09-06T12:09:43Z</time>
      </trkpt>
      <trkpt lat="43.74187" lon="7.25732">
        <ele>377.9</ele>
        <time>2013-09-06T12:09:44Z</time>
      </trkpt>
      <trkpt lat="43.74187" lon="7.25737">
        <ele>377.9</ele>
        <time>2013-09-06T12:09:45Z</time>
      </trkpt>
      <trkpt lat="43.74188" lon="7.25741">
        <ele>377.5</ele>
        <time>2013-09-06T12:09:46Z</time>
      </trkpt>
      <trkpt lat="43.74189" lon="7.25746">
        <ele>377.5</ele>
        <time>2013-09-06T12:09:47Z</time>
      </trkpt>
      <trkpt lat="43.74194" lon="7.25768">
        <ele>375.5</ele>
        <time>2013-09-06T12:09:52Z</time>
      </trkpt>
      <trkpt lat="43.74197" lon="7.25778">
        <ele>374.6</ele>
        <time>2013-09-06T12:09:54Z</time>
      </trkpt>
      <trkpt lat="43.742" lon="7.25784">
        <ele>374.1</ele>
        <time>2013-09-06T12:09:55Z</time>
      </trkpt>
      <trkpt lat="43.74203" lon="7.25788">
        <ele>373.6</ele>
        <time>2013-09-06T12:09:56Z</time>
      </trkpt>
      <trkpt lat="43.74237" lon="7.25833">
        <ele>371.2</ele>
        <time>2013-09-06T12:10:06Z</time>
      </trkpt>
      <trkpt lat="43.74255" lon="7.25853">
        <ele>368.8</ele>
        <time>2013-09-06T12:10:10Z</time>
      </trkpt>
      <trkpt lat="43.7426" lon="7.25857">
        <ele>367.8</ele>
        <time>2013-09-06T12:10:11Z</time>
      </trkpt>
      <trkpt lat="43.74277" lon="7.25869">
        <ele>364</ele>
        <time>2013-09-06T12:10:15Z</time>
      </trkpt>
      <trkpt lat="43.74279" lon="7.25871">
        <ele>364</ele>
        <time>2013-09-06T12:10:16Z</time>
      </trkpt>
      <trkpt lat="43.74289" lon="7.25881">
        <ele>363</ele>
        <time>2013-09-06T12:10:19Z</time>
      </trkpt>
      <trkpt lat="43.74292" lon="7.25886">
        <ele>362.1</ele>
        <time>2013-09-06T12:10:20Z</time>
      </trkpt>
      <trkpt lat="43.74294" lon="7.2589">
        <ele>362.1</ele>
        <time>2013-09-06T12:10:21Z</time>
      </trkpt>
      <trkpt lat="43.74295" lon="7.25894">
        <ele>361.6</ele>
        <time>2013-09-06T12:10:22Z</time>
      </trkpt>
      <trkpt lat="43.74294" lon="7.25898">
        <ele>361.1</ele>
        <time>2013-09-06T12:10:23Z</time>
      </trkpt>
      <trkpt lat="43.74293" lon="7.25903">
        <ele>360.2</ele>
        <time>2013-09-06T12:10:24Z</time>
      </trkpt>
      <trkpt lat="43.74291" lon="7.25908">
        <ele>359.7</ele>
        <time>2013-09-06T12:10:25Z</time>
      </trkpt>
      <trkpt lat="43.7429" lon="7.25914">
        <ele>359.2</ele>
        <time>2013-09-06T12:10:26Z</time>
      </trkpt>
      <trkpt lat="43.74289" lon="7.25921">
        <ele>358.7</ele>
        <time>2013-09-06T12:10:27Z</time>
      </trkpt>
      <trkpt lat="43.74288" lon="7.2593">
        <ele>358.2</ele>
        <time>2013-09-06T12:10:28Z</time>
      </trkpt>
      <trkpt lat="43.74289" lon="7.25938">
        <ele>357.8</ele>
        <time>2013-09-06T12:10:29Z</time>
      </trkpt>
      <trkpt lat="43.7429" lon="7.25947">
        <ele>357.3</ele>
        <time>2013-09-06T12:10:30Z</time>
      </trkpt>
      <trkpt lat="43.74292" lon="7.25955">
        <ele>356.8</ele>
        <time>2013-09-06T12:10:31Z</time>
      </trkpt>
      <trkpt lat="43.74295" lon="7.25963">
        <ele>355.8</ele>
        <time>2013-09-06T12:10:32Z</time>
      </trkpt>
      <trkpt lat="43.74297" lon="7.25971">
        <ele>355.8</ele>
        <time>2013-09-06T12:10:33Z</time>
      </trkpt>
      <trkpt lat="43.74317" lon="7.26042">
        <ele>353.4</ele>
        <time>2013-09-06T12:10:43Z</time>
      </trkpt>
      <trkpt lat="43.74322" lon="7.26063">
        <ele>352</ele>
        <time>2013-09-06T12:10:46Z</time>
      </trkpt>
      <trkpt lat="43.74348" lon="7.26157">
        <ele>348.6</ele>
        <time>2013-09-06T12:11:00Z</time>
      </trkpt>
      <trkpt lat="43.74361" lon="7.26194">
        <ele>345.3</ele>
        <time>2013-09-06T12:11:04Z</time>
      </trkpt>
      <trkpt lat="43.74371" lon="7.26221">
        <ele>342.4</ele>
        <time>2013-09-06T12:11:07Z</time>
      </trkpt>
      <trkpt lat="43.74375" lon="7.26229">
        <ele>342.4</ele>
        <time>2013-09-06T12:11:08Z</time>
      </trkpt>
      <trkpt lat="43.74382" lon="7.26251">
        <ele>340</ele>
        <time>2013-09-06T12:11:11Z</time>
      </trkpt>
      <trkpt lat="43.74383" lon="7.26259">
        <ele>339.5</ele>
        <time>2013-09-06T12:11:12Z</time>
      </trkpt>
      <trkpt lat="43.74383" lon="7.26266">
        <ele>338.5</ele>
        <time>2013-09-06T12:11:13Z</time>
      </trkpt>
      <trkpt lat="43.74382" lon="7.26274">
        <ele>337.6</ele>
        <time>2013-09-06T12:11:14Z</time>
      </trkpt>
      <trkpt lat="43.74379" lon="7.26281">
        <ele>337.1</ele>
        <time>2013-09-06T12:11:15Z</time>
      </trkpt>
      <trkpt lat="43.74378" lon="7.26288">
        <ele>336.1</ele>
        <time>2013-09-06T12:11:16Z</time>
      </trkpt>
      <trkpt lat="43.74376" lon="7.26295">
        <ele>335.6</ele>
        <time>2013-09-06T12:11:17Z</time>
      </trkpt>
      <trkpt lat="43.74374" lon="7.26301">
        <ele>334.7</ele>
        <time>2013-09-06T12:11:18Z</time>
      </trkpt>
      <trkpt lat="43.74371" lon="7.26308">
        <ele>334.7</ele>
        <time>2013-09-06T12:11:19Z</time>
      </trkpt>
      <trkpt lat="43.74365" lon="7.26322">
        <ele>333.2</ele>
        <time>2013-09-06T12:11:22Z</time>
      </trkpt>
      <trkpt lat="43.7436" lon="7.26329">
        <ele>332.3</ele>
        <time>2013-09-06T12:11:24Z</time>
      </trkpt>
      <trkpt lat="43.74352" lon="7.26335">
        <ele>330.8</ele>
        <time>2013-09-06T12:11:33Z</time>
      </trkpt>
      <trkpt lat="43.74343" lon="7.26342">
        <ele>330.4</ele>
        <time>2013-09-06T12:11:59Z</time>
      </trkpt>
      <trkpt lat="43.74327" lon="7.26351">
        <ele>329.4</ele>
        <time>2013-09-06T12:12:04Z</time>
      </trkpt>
      <trkpt lat="43.74323" lon="7.26353">
        <ele>328.9</ele>
        <time>2013-09-06T12:12:05Z</time>
      </trkpt>
      <trkpt lat="43.74291" lon="7.2636">
        <ele>324.6</ele>
        <time>2013-09-06T12:12:10Z</time>
      </trkpt>
      <trkpt lat="43.74263" lon="7.26364">
        <ele>321.7</ele>
        <time>2013-09-06T12:12:14Z</time>
      </trkpt>
      <trkpt lat="43.74249" lon="7.26365">
        <ele>319.3</ele>
        <time>2013-09-06T12:12:16Z</time>
      </trkpt>
      <trkpt lat="43.74234" lon="7.26365">
        <ele>317.4</ele>
        <time>2013-09-06T12:12:18Z</time>
      </trkpt>
      <trkpt lat="43.74226" lon="7.26366">
        <ele>316.4</ele>
        <time>2013-09-06T12:12:19Z</time>
      </trkpt>
      <trkpt lat="43.74194" lon="7.2637">
        <ele>313.1</ele>
        <time>2013-09-06T12:12:23Z</time>
      </trkpt>
      <trkpt lat="43.74186" lon="7.26369">
        <ele>312.1</ele>
        <time>2013-09-06T12:12:24Z</time>
      </trkpt>
      <trkpt lat="43.74178" lon="7.26368">
        <ele>311.6</ele>
        <time>2013-09-06T12:12:25Z</time>
      </trkpt>
      <trkpt lat="43.74171" lon="7.26366">
        <ele>310.6</ele>
        <time>2013-09-06T12:12:26Z</time>
      </trkpt>
      <trkpt lat="43.74164" lon="7.26361">
        <ele>309.7</ele>
        <time>2013-09-06T12:12:27Z</time>
      </trkpt>
      <trkpt lat="43.74156" lon="7.26355">
        <ele>308.7</ele>
        <time>2013-09-06T12:12:28Z</time>
      </trkpt>
      <trkpt lat="43.74149" lon="7.26348">
        <ele>307.8</ele>
        <time>2013-09-06T12:12:29Z</time>
      </trkpt>
      <trkpt lat="43.74142" lon="7.2634">
        <ele>307.3</ele>
        <time>2013-09-06T12:12:30Z</time>
      </trkpt>
      <trkpt lat="43.74136" lon="7.26333">
        <ele>306.8</ele>
        <time>2013-09-06T12:12:31Z</time>
      </trkpt>
      <trkpt lat="43.74109" lon="7.26292">
        <ele>303.4</ele>
        <time>2013-09-06T12:12:36Z</time>
      </trkpt>
      <trkpt lat="43.74103" lon="7.26285">
        <ele>302.5</ele>
        <time>2013-09-06T12:12:37Z</time>
      </trkpt>
      <trkpt lat="43.74096" lon="7.2628">
        <ele>302</ele>
        <time>2013-09-06T12:12:38Z</time>
      </trkpt>
      <trkpt lat="43.74089" lon="7.26276">
        <ele>301.5</ele>
        <time>2013-09-06T12:12:39Z</time>
      </trkpt>
      <trkpt lat="43.74083" lon="7.26273">
        <ele>300.1</ele>
        <time>2013-09-06T12:12:40Z</time>
      </trkpt>
      <trkpt lat="43.74076" lon="7.26271">
        <ele>299.1</ele>
        <time>2013-09-06T12:12:41Z</time>
      </trkpt>
      <trkpt lat="43.74068" lon="7.26269">
        <ele>297.2</ele>
        <time>2013-09-06T12:12:42Z</time>
      </trkpt>
      <trkpt lat="43.74059" lon="7.26266">
        <ele>296.7</ele>
        <time>2013-09-06T12:12:43Z</time>
      </trkpt>
      <trkpt lat="43.74051" lon="7.26262">
        <ele>295.3</ele>
        <time>2013-09-06T12:12:44Z</time>
      </trkpt>
      <trkpt lat="43.74027" lon="7.26252">
        <ele>292.9</ele>
        <time>2013-09-06T12:12:47Z</time>
      </trkpt>
      <trkpt lat="43.74005" lon="7.26248">
        <ele>290.9</ele>
        <time>2013-09-06T12:12:50Z</time>
      </trkpt>
      <trkpt lat="43.73999" lon="7.26248">
        <ele>290</ele>
        <time>2013-09-06T12:12:51Z</time>
      </trkpt>
      <trkpt lat="43.73992" lon="7.2625">
        <ele>290</ele>
        <time>2013-09-06T12:12:52Z</time>
      </trkpt>
      <trkpt lat="43.73986" lon="7.26252">
        <ele>289</ele>
        <time>2013-09-06T12:12:53Z</time>
      </trkpt>
      <trkpt lat="43.7398" lon="7.26255">
        <ele>288.1</ele>
        <time>2013-09-06T12:12:54Z</time>
      </trkpt>
      <trkpt lat="43.73967" lon="7.2626">
        <ele>286.6</ele>
        <time>2013-09-06T12:12:56Z</time>
      </trkpt>
      <trkpt lat="43.7396" lon="7.26262">
        <ele>285.7</ele>
        <time>2013-09-06T12:12:57Z</time>
      </trkpt>
      <trkpt lat="43.73935" lon="7.26272">
        <ele>282.3</ele>
        <time>2013-09-06T12:13:01Z</time>
      </trkpt>
      <trkpt lat="43.73923" lon="7.26274">
        <ele>279.9</ele>
        <time>2013-09-06T12:13:03Z</time>
      </trkpt>
      <trkpt lat="43.73917" lon="7.26274">
        <ele>278.9</ele>
        <time>2013-09-06T12:13:04Z</time>
      </trkpt>
      <trkpt lat="43.73898" lon="7.26272">
        <ele>275.1</ele>
        <time>2013-09-06T12:13:07Z</time>
      </trkpt>
      <trkpt lat="43.7388" lon="7.2627">
        <ele>271.2</ele>
        <time>2013-09-06T12:13:10Z</time>
      </trkpt>
      <trkpt lat="43.73874" lon="7.2627">
        <ele>270.8</ele>
        <time>2013-09-06T12:13:11Z</time>
      </trkpt>
      <trkpt lat="43.73848" lon="7.26275">
        <ele>265.9</ele>
        <time>2013-09-06T12:13:15Z</time>
      </trkpt>
      <trkpt lat="43.73841" lon="7.26277">
        <ele>265.9</ele>
        <time>2013-09-06T12:13:16Z</time>
      </trkpt>
      <trkpt lat="43.73835" lon="7.2628">
        <ele>265</ele>
        <time>2013-09-06T12:13:17Z</time>
      </trkpt>
      <trkpt lat="43.73829" lon="7.26282">
        <ele>263.5</ele>
        <time>2013-09-06T12:13:18Z</time>
      </trkpt>
      <trkpt lat="43.73824" lon="7.26286">
        <ele>262.6</ele>
        <time>2013-09-06T12:13:19Z</time>
      </trkpt>
      <trkpt lat="43.73807" lon="7.26295">
        <ele>259.7</ele>
        <time>2013-09-06T12:13:22Z</time>
      </trkpt>
      <trkpt lat="43.73802" lon="7.26296">
        <ele>259.2</ele>
        <time>2013-09-06T12:13:23Z</time>
      </trkpt>
      <trkpt lat="43.73796" lon="7.26297">
        <ele>257.8</ele>
        <time>2013-09-06T12:13:24Z</time>
      </trkpt>
      <trkpt lat="43.73771" lon="7.26296">
        <ele>253.9</ele>
        <time>2013-09-06T12:13:28Z</time>
      </trkpt>
      <trkpt lat="43.7375" lon="7.26293">
        <ele>250.6</ele>
        <time>2013-09-06T12:13:31Z</time>
      </trkpt>
      <trkpt lat="43.7373" lon="7.26289">
        <ele>246.7</ele>
        <time>2013-09-06T12:13:34Z</time>
      </trkpt>
      <trkpt lat="43.73712" lon="7.26287">
        <ele>243.4</ele>
        <time>2013-09-06T12:13:37Z</time>
      </trkpt>
      <trkpt lat="43.73702" lon="7.26286">
        <ele>241.9</ele>
        <time>2013-09-06T12:13:40Z</time>
      </trkpt>
      <trkpt lat="43.73698" lon="7.26283">
        <ele>240</ele>
        <time>2013-09-06T12:13:44Z</time>
      </trkpt>
      <trkpt lat="43.73696" lon="7.26281">
        <ele>240</ele>
        <time>2013-09-06T12:13:53Z</time>
      </trkpt>
      <trkpt lat="43.73694" lon="7.26281">
        <ele>240</ele>
        <time>2013-09-06T12:13:54Z</time>
      </trkpt>
      <trkpt lat="43.7369" lon="7.26282">
        <ele>240</ele>
        <time>2013-09-06T12:13:55Z</time>
      </trkpt>
      <trkpt lat="43.73687" lon="7.26284">
        <ele>239.5</ele>
        <time>2013-09-06T12:13:56Z</time>
      </trkpt>
      <trkpt lat="43.73684" lon="7.26289">
        <ele>239</ele>
        <time>2013-09-06T12:13:57Z</time>
      </trkpt>
      <trkpt lat="43.73681" lon="7.26294">
        <ele>239</ele>
        <time>2013-09-06T12:13:58Z</time>
      </trkpt>
      <trkpt lat="43.73678" lon="7.263">
        <ele>238.1</ele>
        <time>2013-09-06T12:13:59Z</time>
      </trkpt>
      <trkpt lat="43.73675" lon="7.26306">
        <ele>238.5</ele>
        <time>2013-09-06T12:14:00Z</time>
      </trkpt>
      <trkpt lat="43.73671" lon="7.26312">
        <ele>237.6</ele>
        <time>2013-09-06T12:14:01Z</time>
      </trkpt>
      <trkpt lat="43.73666" lon="7.26317">
        <ele>237.6</ele>
        <time>2013-09-06T12:14:02Z</time>
      </trkpt>
      <trkpt lat="43.73661" lon="7.26322">
        <ele>237.1</ele>
        <time>2013-09-06T12:14:03Z</time>
      </trkpt>
      <trkpt lat="43.73655" lon="7.26327">
        <ele>237.1</ele>
        <time>2013-09-06T12:14:04Z</time>
      </trkpt>
      <trkpt lat="43.7363" lon="7.26346">
        <ele>235.2</ele>
        <time>2013-09-06T12:14:08Z</time>
      </trkpt>
      <trkpt lat="43.73623" lon="7.26349">
        <ele>234.7</ele>
        <time>2013-09-06T12:14:09Z</time>
      </trkpt>
      <trkpt lat="43.73616" lon="7.26351">
        <ele>234.2</ele>
        <time>2013-09-06T12:14:10Z</time>
      </trkpt>
      <trkpt lat="43.73608" lon="7.26352">
        <ele>234.2</ele>
        <time>2013-09-06T12:14:11Z</time>
      </trkpt>
      <trkpt lat="43.736" lon="7.26353">
        <ele>233.7</ele>
        <time>2013-09-06T12:14:12Z</time>
      </trkpt>
      <trkpt lat="43.73592" lon="7.26354">
        <ele>232.8</ele>
        <time>2013-09-06T12:14:13Z</time>
      </trkpt>
      <trkpt lat="43.73584" lon="7.26353">
        <ele>232.8</ele>
        <time>2013-09-06T12:14:14Z</time>
      </trkpt>
      <trkpt lat="43.73553" lon="7.26342">
        <ele>229.9</ele>
        <time>2013-09-06T12:14:18Z</time>
      </trkpt>
      <trkpt lat="43.73545" lon="7.26336">
        <ele>229.4</ele>
        <time>2013-09-06T12:14:19Z</time>
      </trkpt>
      <trkpt lat="43.73514" lon="7.2631">
        <ele>228</ele>
        <time>2013-09-06T12:14:23Z</time>
      </trkpt>
      <trkpt lat="43.73482" lon="7.26283">
        <ele>225.6</ele>
        <time>2013-09-06T12:14:27Z</time>
      </trkpt>
      <trkpt lat="43.73449" lon="7.26258">
        <ele>222.7</ele>
        <time>2013-09-06T12:14:31Z</time>
      </trkpt>
      <trkpt lat="43.7341" lon="7.26238">
        <ele>219.3</ele>
        <time>2013-09-06T12:14:36Z</time>
      </trkpt>
      <trkpt lat="43.73377" lon="7.26231">
        <ele>217.4</ele>
        <time>2013-09-06T12:14:41Z</time>
      </trkpt>
      <trkpt lat="43.73338" lon="7.26229">
        <ele>214.5</ele>
        <time>2013-09-06T12:14:47Z</time>
      </trkpt>
      <trkpt lat="43.73333" lon="7.26228">
        <ele>215</ele>
        <time>2013-09-06T12:14:48Z</time>
      </trkpt>
      <trkpt lat="43.73329" lon="7.26224">
        <ele>214</ele>
        <time>2013-09-06T12:14:49Z</time>
      </trkpt>
      <trkpt lat="43.73326" lon="7.26218">
        <ele>213.6</ele>
        <time>2013-09-06T12:14:50Z</time>
      </trkpt>
      <trkpt lat="43.73328" lon="7.26211">
        <ele>213.1</ele>
        <time>2013-09-06T12:14:51Z</time>
      </trkpt>
      <trkpt lat="43.73332" lon="7.26205">
        <ele>212.6</ele>
        <time>2013-09-06T12:14:52Z</time>
      </trkpt>
      <trkpt lat="43.73336" lon="7.26203">
        <ele>212.6</ele>
        <time>2013-09-06T12:14:53Z</time>
      </trkpt>
      <trkpt lat="43.73342" lon="7.26201">
        <ele>212.6</ele>
        <time>2013-09-06T12:14:54Z</time>
      </trkpt>
      <trkpt lat="43.73374" lon="7.26193">
        <ele>211.2</ele>
        <time>2013-09-06T12:15:00Z</time>
      </trkpt>
      <trkpt lat="43.73378" lon="7.2619">
        <ele>211.2</ele>
        <time>2013-09-06T12:15:01Z</time>
      </trkpt>
      <trkpt lat="43.73384" lon="7.26184">
        <ele>210.7</ele>
        <time>2013-09-06T12:15:03Z</time>
      </trkpt>
      <trkpt lat="43.73385" lon="7.2618">
        <ele>210.7</ele>
        <time>2013-09-06T12:15:04Z</time>
      </trkpt>
      <trkpt lat="43.73385" lon="7.26176">
        <ele>210.2</ele>
        <time>2013-09-06T12:15:05Z</time>
      </trkpt>
      <trkpt lat="43.73383" lon="7.26172">
        <ele>209.7</ele>
        <time>2013-09-06T12:15:06Z</time>
      </trkpt>
      <trkpt lat="43.73381" lon="7.26166">
        <ele>208.7</ele>
        <time>2013-09-06T12:15:07Z</time>
      </trkpt>
      <trkpt lat="43.73378" lon="7.26161">
        <ele>208.3</ele>
        <time>2013-09-06T12:15:08Z</time>
      </trkpt>
      <trkpt lat="43.73374" lon="7.26157">
        <ele>207.8</ele>
        <time>2013-09-06T12:15:09Z</time>
      </trkpt>
      <trkpt lat="43.7334" lon="7.26138">
        <ele>204.4</ele>
        <time>2013-09-06T12:15:15Z</time>
      </trkpt>
      <trkpt lat="43.73334" lon="7.26138">
        <ele>203.9</ele>
        <time>2013-09-06T12:15:16Z</time>
      </trkpt>
      <trkpt lat="43.73327" lon="7.26138">
        <ele>203</ele>
        <time>2013-09-06T12:15:17Z</time>
      </trkpt>
      <trkpt lat="43.7332" lon="7.26139">
        <ele>203</ele>
        <time>2013-09-06T12:15:18Z</time>
      </trkpt>
      <trkpt lat="43.73312" lon="7.26141">
        <ele>202</ele>
        <time>2013-09-06T12:15:19Z</time>
      </trkpt>
      <trkpt lat="43.73305" lon="7.26144">
        <ele>201.5</ele>
        <time>2013-09-06T12:15:20Z</time>
      </trkpt>
      <trkpt lat="43.73297" lon="7.26147">
        <ele>200.1</ele>
        <time>2013-09-06T12:15:21Z</time>
      </trkpt>
      <trkpt lat="43.7329" lon="7.26151">
        <ele>199.6</ele>
        <time>2013-09-06T12:15:22Z</time>
      </trkpt>
      <trkpt lat="43.73282" lon="7.26155">
        <ele>198.7</ele>
        <time>2013-09-06T12:15:23Z</time>
      </trkpt>
      <trkpt lat="43.73275" lon="7.26156">
        <ele>198.2</ele>
        <time>2013-09-06T12:15:24Z</time>
      </trkpt>
      <trkpt lat="43.73268" lon="7.26156">
        <ele>197.7</ele>
        <time>2013-09-06T12:15:25Z</time>
      </trkpt>
      <trkpt lat="43.73262" lon="7.26154">
        <ele>196.7</ele>
        <time>2013-09-06T12:15:26Z</time>
      </trkpt>
      <trkpt lat="43.73256" lon="7.26151">
        <ele>196.7</ele>
        <time>2013-09-06T12:15:27Z</time>
      </trkpt>
      <trkpt lat="43.7325" lon="7.26147">
        <ele>196.3</ele>
        <time>2013-09-06T12:15:28Z</time>
      </trkpt>
      <trkpt lat="43.73246" lon="7.26143">
        <ele>195.3</ele>
        <time>2013-09-06T12:15:29Z</time>
      </trkpt>
      <trkpt lat="43.73242" lon="7.26138">
        <ele>195.3</ele>
        <time>2013-09-06T12:15:30Z</time>
      </trkpt>
      <trkpt lat="43.73238" lon="7.26133">
        <ele>195.3</ele>
        <time>2013-09-06T12:15:31Z</time>
      </trkpt>
      <trkpt lat="43.73221" lon="7.26108">
        <ele>192.9</ele>
        <time>2013-09-06T12:15:36Z</time>
      </trkpt>
      <trkpt lat="43.73217" lon="7.26104">
        <ele>192.9</ele>
        <time>2013-09-06T12:15:37Z</time>
      </trkpt>
      <trkpt lat="43.73212" lon="7.26102">
        <ele>191.9</ele>
        <time>2013-09-06T12:15:38Z</time>
      </trkpt>
      <trkpt lat="43.73207" lon="7.26101">
        <ele>191.4</ele>
        <time>2013-09-06T12:15:39Z</time>
      </trkpt>
      <trkpt lat="43.73202" lon="7.26101">
        <ele>190.5</ele>
        <time>2013-09-06T12:15:40Z</time>
      </trkpt>
      <trkpt lat="43.73196" lon="7.26101">
        <ele>190</ele>
        <time>2013-09-06T12:15:41Z</time>
      </trkpt>
      <trkpt lat="43.73191" lon="7.26103">
        <ele>189.5</ele>
        <time>2013-09-06T12:15:42Z</time>
      </trkpt>
      <trkpt lat="43.73186" lon="7.26106">
        <ele>190</ele>
        <time>2013-09-06T12:15:43Z</time>
      </trkpt>
      <trkpt lat="43.73161" lon="7.26121">
        <ele>186.6</ele>
        <time>2013-09-06T12:15:47Z</time>
      </trkpt>
      <trkpt lat="43.73137" lon="7.26128">
        <ele>185.2</ele>
        <time>2013-09-06T12:15:50Z</time>
      </trkpt>
      <trkpt lat="43.73129" lon="7.26128">
        <ele>185.2</ele>
        <time>2013-09-06T12:15:51Z</time>
      </trkpt>
      <trkpt lat="43.73122" lon="7.26127">
        <ele>184.7</ele>
        <time>2013-09-06T12:15:52Z</time>
      </trkpt>
      <trkpt lat="43.73106" lon="7.26123">
        <ele>183.3</ele>
        <time>2013-09-06T12:15:54Z</time>
      </trkpt>
      <trkpt lat="43.73098" lon="7.26122">
        <ele>182.8</ele>
        <time>2013-09-06T12:15:55Z</time>
      </trkpt>
      <trkpt lat="43.73073" lon="7.26123">
        <ele>181.4</ele>
        <time>2013-09-06T12:15:58Z</time>
      </trkpt>
      <trkpt lat="43.73033" lon="7.26124">
        <ele>178</ele>
        <time>2013-09-06T12:16:03Z</time>
      </trkpt>
      <trkpt lat="43.73018" lon="7.26123">
        <ele>175.6</ele>
        <time>2013-09-06T12:16:05Z</time>
      </trkpt>
      <trkpt lat="43.7301" lon="7.26119">
        <ele>175.1</ele>
        <time>2013-09-06T12:16:06Z</time>
      </trkpt>
      <trkpt lat="43.73004" lon="7.26115">
        <ele>174.1</ele>
        <time>2013-09-06T12:16:07Z</time>
      </trkpt>
      <trkpt lat="43.72997" lon="7.2611">
        <ele>174.1</ele>
        <time>2013-09-06T12:16:08Z</time>
      </trkpt>
      <trkpt lat="43.72952" lon="7.26084">
        <ele>171.3</ele>
        <time>2013-09-06T12:16:14Z</time>
      </trkpt>
      <trkpt lat="43.72928" lon="7.26075">
        <ele>169.3</ele>
        <time>2013-09-06T12:16:17Z</time>
      </trkpt>
      <trkpt lat="43.72919" lon="7.26074">
        <ele>168.4</ele>
        <time>2013-09-06T12:16:18Z</time>
      </trkpt>
      <trkpt lat="43.72893" lon="7.26074">
        <ele>165</ele>
        <time>2013-09-06T12:16:21Z</time>
      </trkpt>
      <trkpt lat="43.7286" lon="7.26078">
        <ele>163.1</ele>
        <time>2013-09-06T12:16:25Z</time>
      </trkpt>
      <trkpt lat="43.72837" lon="7.2608">
        <ele>160.7</ele>
        <time>2013-09-06T12:16:28Z</time>
      </trkpt>
      <trkpt lat="43.72817" lon="7.26082">
        <ele>158.3</ele>
        <time>2013-09-06T12:16:31Z</time>
      </trkpt>
      <trkpt lat="43.72812" lon="7.26084">
        <ele>158.3</ele>
        <time>2013-09-06T12:16:32Z</time>
      </trkpt>
      <trkpt lat="43.72807" lon="7.26087">
        <ele>157.3</ele>
        <time>2013-09-06T12:16:33Z</time>
      </trkpt>
      <trkpt lat="43.72805" lon="7.26094">
        <ele>157.3</ele>
        <time>2013-09-06T12:16:34Z</time>
      </trkpt>
      <trkpt lat="43.72804" lon="7.26102">
        <ele>156.4</ele>
        <time>2013-09-06T12:16:35Z</time>
      </trkpt>
      <trkpt lat="43.72799" lon="7.26117">
        <ele>154.4</ele>
        <time>2013-09-06T12:16:37Z</time>
      </trkpt>
      <trkpt lat="43.72795" lon="7.26124">
        <ele>153</ele>
        <time>2013-09-06T12:16:38Z</time>
      </trkpt>
      <trkpt lat="43.72791" lon="7.2613">
        <ele>152</ele>
        <time>2013-09-06T12:16:39Z</time>
      </trkpt>
      <trkpt lat="43.72786" lon="7.26135">
        <ele>151.1</ele>
        <time>2013-09-06T12:16:40Z</time>
      </trkpt>
      <trkpt lat="43.7278" lon="7.2614">
        <ele>150.1</ele>
        <time>2013-09-06T12:16:41Z</time>
      </trkpt>
      <trkpt lat="43.72775" lon="7.26143">
        <ele>148.2</ele>
        <time>2013-09-06T12:16:42Z</time>
      </trkpt>
      <trkpt lat="43.7277" lon="7.26146">
        <ele>147.2</ele>
        <time>2013-09-06T12:16:43Z</time>
      </trkpt>
      <trkpt lat="43.72767" lon="7.26147">
        <ele>146.3</ele>
        <time>2013-09-06T12:16:44Z</time>
      </trkpt>
      <trkpt lat="43.72762" lon="7.26149">
        <ele>145.3</ele>
        <time>2013-09-06T12:16:46Z</time>
      </trkpt>
      <trkpt lat="43.72757" lon="7.26148">
        <ele>144.3</ele>
        <time>2013-09-06T12:16:49Z</time>
      </trkpt>
      <trkpt lat="43.72756" lon="7.26146">
        <ele>144.3</ele>
        <time>2013-09-06T12:16:50Z</time>
      </trkpt>
      <trkpt lat="43.72755" lon="7.26145">
        <ele>144.3</ele>
        <time>2013-09-06T12:16:51Z</time>
      </trkpt>
      <trkpt lat="43.72753" lon="7.26143">
        <ele>144.8</ele>
        <time>2013-09-06T12:16:52Z</time>
      </trkpt>
      <trkpt lat="43.72752" lon="7.26141">
        <ele>143.9</ele>
        <time>2013-09-06T12:16:53Z</time>
      </trkpt>
      <trkpt lat="43.7275" lon="7.26139">
        <ele>142.9</ele>
        <time>2013-09-06T12:16:54Z</time>
      </trkpt>
      <trkpt lat="43.72748" lon="7.26136">
        <ele>144.8</ele>
        <time>2013-09-06T12:16:55Z</time>
      </trkpt>
      <trkpt lat="43.72745" lon="7.26133">
        <ele>142.9</ele>
        <time>2013-09-06T12:16:56Z</time>
      </trkpt>
      <trkpt lat="43.72735" lon="7.2612">
        <ele>142.4</ele>
        <time>2013-09-06T12:16:59Z</time>
      </trkpt>
      <trkpt lat="43.72733" lon="7.26114">
        <ele>142.4</ele>
        <time>2013-09-06T12:17:00Z</time>
      </trkpt>
      <trkpt lat="43.72729" lon="7.261">
        <ele>141</ele>
        <time>2013-09-06T12:17:02Z</time>
      </trkpt>
      <trkpt lat="43.72729" lon="7.26092">
        <ele>141</ele>
        <time>2013-09-06T12:17:03Z</time>
      </trkpt>
      <trkpt lat="43.7273" lon="7.26084">
        <ele>140.5</ele>
        <time>2013-09-06T12:17:04Z</time>
      </trkpt>
      <trkpt lat="43.72731" lon="7.26077">
        <ele>140</ele>
        <time>2013-09-06T12:17:05Z</time>
      </trkpt>
      <trkpt lat="43.72732" lon="7.2607">
        <ele>139.5</ele>
        <time>2013-09-06T12:17:06Z</time>
      </trkpt>
      <trkpt lat="43.72735" lon="7.26063">
        <ele>139.1</ele>
        <time>2013-09-06T12:17:07Z</time>
      </trkpt>
      <trkpt lat="43.72738" lon="7.26057">
        <ele>139.1</ele>
        <time>2013-09-06T12:17:08Z</time>
      </trkpt>
      <trkpt lat="43.72741" lon="7.26051">
        <ele>138.6</ele>
        <time>2013-09-06T12:17:09Z</time>
      </trkpt>
      <trkpt lat="43.72745" lon="7.26044">
        <ele>138.6</ele>
        <time>2013-09-06T12:17:10Z</time>
      </trkpt>
      <trkpt lat="43.7275" lon="7.26038">
        <ele>137.6</ele>
        <time>2013-09-06T12:17:11Z</time>
      </trkpt>
      <trkpt lat="43.72755" lon="7.26028">
        <ele>137.6</ele>
        <time>2013-09-06T12:17:12Z</time>
      </trkpt>
      <trkpt lat="43.72766" lon="7.26011">
        <ele>136.2</ele>
        <time>2013-09-06T12:17:14Z</time>
      </trkpt>
      <trkpt lat="43.72771" lon="7.26004">
        <ele>136.6</ele>
        <time>2013-09-06T12:17:15Z</time>
      </trkpt>
      <trkpt lat="43.72775" lon="7.25989">
        <ele>135.2</ele>
        <time>2013-09-06T12:17:19Z</time>
      </trkpt>
      <trkpt lat="43.7277" lon="7.25988">
        <ele>134.7</ele>
        <time>2013-09-06T12:17:20Z</time>
      </trkpt>
      <trkpt lat="43.72765" lon="7.2599">
        <ele>134.2</ele>
        <time>2013-09-06T12:17:21Z</time>
      </trkpt>
      <trkpt lat="43.72755" lon="7.25993">
        <ele>133.8</ele>
        <time>2013-09-06T12:17:22Z</time>
      </trkpt>
      <trkpt lat="43.72746" lon="7.25998">
        <ele>132.8</ele>
        <time>2013-09-06T12:17:23Z</time>
      </trkpt>
      <trkpt lat="43.72738" lon="7.26004">
        <ele>131.8</ele>
        <time>2013-09-06T12:17:24Z</time>
      </trkpt>
      <trkpt lat="43.72702" lon="7.26039">
        <ele>129.9</ele>
        <time>2013-09-06T12:17:28Z</time>
      </trkpt>
      <trkpt lat="43.72698" lon="7.26045">
        <ele>130.4</ele>
        <time>2013-09-06T12:17:29Z</time>
      </trkpt>
      <trkpt lat="43.72692" lon="7.2605">
        <ele>129.9</ele>
        <time>2013-09-06T12:17:30Z</time>
      </trkpt>
      <trkpt lat="43.72686" lon="7.26055">
        <ele>129</ele>
        <time>2013-09-06T12:17:31Z</time>
      </trkpt>
      <trkpt lat="43.7268" lon="7.26058">
        <ele>128.5</ele>
        <time>2013-09-06T12:17:32Z</time>
      </trkpt>
      <trkpt lat="43.72675" lon="7.2606">
        <ele>128.5</ele>
        <time>2013-09-06T12:17:33Z</time>
      </trkpt>
      <trkpt lat="43.72625" lon="7.26075">
        <ele>124.6</ele>
        <time>2013-09-06T12:17:41Z</time>
      </trkpt>
      <trkpt lat="43.72613" lon="7.26073">
        <ele>123.7</ele>
        <time>2013-09-06T12:17:43Z</time>
      </trkpt>
      <trkpt lat="43.72607" lon="7.2607">
        <ele>123.7</ele>
        <time>2013-09-06T12:17:44Z</time>
      </trkpt>
      <trkpt lat="43.72601" lon="7.26065">
        <ele>123.2</ele>
        <time>2013-09-06T12:17:45Z</time>
      </trkpt>
      <trkpt lat="43.72584" lon="7.26059">
        <ele>120.8</ele>
        <time>2013-09-06T12:17:48Z</time>
      </trkpt>
      <trkpt lat="43.72578" lon="7.2606">
        <ele>120.3</ele>
        <time>2013-09-06T12:17:49Z</time>
      </trkpt>
      <trkpt lat="43.72569" lon="7.26073">
        <ele>118.9</ele>
        <time>2013-09-06T12:17:51Z</time>
      </trkpt>
      <trkpt lat="43.72564" lon="7.26078">
        <ele>117.9</ele>
        <time>2013-09-06T12:17:52Z</time>
      </trkpt>
      <trkpt lat="43.72562" lon="7.26084">
        <ele>117.9</ele>
        <time>2013-09-06T12:17:53Z</time>
      </trkpt>
      <trkpt lat="43.72565" lon="7.26094">
        <ele>117.4</ele>
        <time>2013-09-06T12:17:54Z</time>
      </trkpt>
      <trkpt lat="43.72567" lon="7.26106">
        <ele>116.9</ele>
        <time>2013-09-06T12:17:55Z</time>
      </trkpt>
      <trkpt lat="43.72567" lon="7.26115">
        <ele>116.9</ele>
        <time>2013-09-06T12:17:56Z</time>
      </trkpt>
      <trkpt lat="43.72566" lon="7.26125">
        <ele>116.5</ele>
        <time>2013-09-06T12:17:57Z</time>
      </trkpt>
      <trkpt lat="43.72563" lon="7.26134">
        <ele>116</ele>
        <time>2013-09-06T12:17:58Z</time>
      </trkpt>
      <trkpt lat="43.72559" lon="7.26143">
        <ele>115</ele>
        <time>2013-09-06T12:17:59Z</time>
      </trkpt>
      <trkpt lat="43.72552" lon="7.26159">
        <ele>114.5</ele>
        <time>2013-09-06T12:18:01Z</time>
      </trkpt>
      <trkpt lat="43.72547" lon="7.26165">
        <ele>113.6</ele>
        <time>2013-09-06T12:18:02Z</time>
      </trkpt>
      <trkpt lat="43.72542" lon="7.2617">
        <ele>113.1</ele>
        <time>2013-09-06T12:18:03Z</time>
      </trkpt>
      <trkpt lat="43.72522" lon="7.2618">
        <ele>111.2</ele>
        <time>2013-09-06T12:18:06Z</time>
      </trkpt>
      <trkpt lat="43.72515" lon="7.26181">
        <ele>110.2</ele>
        <time>2013-09-06T12:18:07Z</time>
      </trkpt>
      <trkpt lat="43.72507" lon="7.2618">
        <ele>110.2</ele>
        <time>2013-09-06T12:18:08Z</time>
      </trkpt>
      <trkpt lat="43.72498" lon="7.2618">
        <ele>109.7</ele>
        <time>2013-09-06T12:18:09Z</time>
      </trkpt>
      <trkpt lat="43.72488" lon="7.26183">
        <ele>108.8</ele>
        <time>2013-09-06T12:18:10Z</time>
      </trkpt>
      <trkpt lat="43.7248" lon="7.26189">
        <ele>108.3</ele>
        <time>2013-09-06T12:18:11Z</time>
      </trkpt>
      <trkpt lat="43.72473" lon="7.26194">
        <ele>107.3</ele>
        <time>2013-09-06T12:18:12Z</time>
      </trkpt>
      <trkpt lat="43.72469" lon="7.26197">
        <ele>107.3</ele>
        <time>2013-09-06T12:18:13Z</time>
      </trkpt>
      <trkpt lat="43.72464" lon="7.26201">
        <ele>107.3</ele>
        <time>2013-09-06T12:18:14Z</time>
      </trkpt>
      <trkpt lat="43.72466" lon="7.26207">
        <ele>105.9</ele>
        <time>2013-09-06T12:18:15Z</time>
      </trkpt>
      <trkpt lat="43.7247" lon="7.26215">
        <ele>105.9</ele>
        <time>2013-09-06T12:18:16Z</time>
      </trkpt>
      <trkpt lat="43.72477" lon="7.26229">
        <ele>104</ele>
        <time>2013-09-06T12:18:18Z</time>
      </trkpt>
      <trkpt lat="43.72492" lon="7.26252">
        <ele>102.5</ele>
        <time>2013-09-06T12:18:26Z</time>
      </trkpt>
      <trkpt lat="43.725" lon="7.26266">
        <ele>103</ele>
        <time>2013-09-06T12:18:35Z</time>
      </trkpt>
      <trkpt lat="43.72499" lon="7.26267">
        <ele>102.5</ele>
        <time>2013-09-06T12:18:36Z</time>
      </trkpt>
      <trkpt lat="43.72496" lon="7.26267">
        <ele>102</ele>
        <time>2013-09-06T12:18:37Z</time>
      </trkpt>
      <trkpt lat="43.72494" lon="7.26266">
        <ele>102</ele>
        <time>2013-09-06T12:18:38Z</time>
      </trkpt>
      <trkpt lat="43.7249" lon="7.26264">
        <ele>102</ele>
        <time>2013-09-06T12:18:39Z</time>
      </trkpt>
      <trkpt lat="43.72488" lon="7.26261">
        <ele>101.6</ele>
        <time>2013-09-06T12:18:40Z</time>
      </trkpt>
      <trkpt lat="43.72485" lon="7.26258">
        <ele>101.6</ele>
        <time>2013-09-06T12:18:41Z</time>
      </trkpt>
      <trkpt lat="43.72483" lon="7.26253">
        <ele>101.1</ele>
        <time>2013-09-06T12:18:42Z</time>
      </trkpt>
      <trkpt lat="43.72472" lon="7.26231">
        <ele>99.6</ele>
        <time>2013-09-06T12:18:50Z</time>
      </trkpt>
      <trkpt lat="43.72474" lon="7.26233">
        <ele>100.1</ele>
        <time>2013-09-06T12:18:52Z</time>
      </trkpt>
      <trkpt lat="43.72476" lon="7.26237">
        <ele>100.1</ele>
        <time>2013-09-06T12:18:54Z</time>
      </trkpt>
      <trkpt lat="43.72493" lon="7.26275">
        <ele>102</ele>
        <time>2013-09-06T12:19:09Z</time>
      </trkpt>
      <trkpt lat="43.725" lon="7.26284">
        <ele>102</ele>
        <time>2013-09-06T12:19:13Z</time>
      </trkpt>
      <trkpt lat="43.725" lon="7.26287">
        <ele>101.1</ele>
        <time>2013-09-06T12:19:14Z</time>
      </trkpt>
      <trkpt lat="43.72498" lon="7.26289">
        <ele>102</ele>
        <time>2013-09-06T12:19:15Z</time>
      </trkpt>
      <trkpt lat="43.72495" lon="7.26289">
        <ele>101.6</ele>
        <time>2013-09-06T12:19:16Z</time>
      </trkpt>
      <trkpt lat="43.72492" lon="7.26288">
        <ele>99.6</ele>
        <time>2013-09-06T12:19:17Z</time>
      </trkpt>
      <trkpt lat="43.72488" lon="7.26286">
        <ele>101.1</ele>
        <time>2013-09-06T12:19:18Z</time>
      </trkpt>
      <trkpt lat="43.72485" lon="7.26286">
        <ele>99.6</ele>
        <time>2013-09-06T12:19:19Z</time>
      </trkpt>
      <trkpt lat="43.72481" lon="7.26287">
        <ele>99.2</ele>
        <time>2013-09-06T12:19:20Z</time>
      </trkpt>
      <trkpt lat="43.72476" lon="7.26289">
        <ele>98.2</ele>
        <time>2013-09-06T12:19:21Z</time>
      </trkpt>
      <trkpt lat="43.7247" lon="7.2629">
        <ele>97.7</ele>
        <time>2013-09-06T12:19:22Z</time>
      </trkpt>
      <trkpt lat="43.7244" lon="7.26304">
        <ele>94.8</ele>
        <time>2013-09-06T12:19:29Z</time>
      </trkpt>
      <trkpt lat="43.72413" lon="7.26332">
        <ele>94.4</ele>
        <time>2013-09-06T12:19:40Z</time>
      </trkpt>
      <trkpt lat="43.72407" lon="7.26343">
        <ele>93.4</ele>
        <time>2013-09-06T12:19:42Z</time>
      </trkpt>
      <trkpt lat="43.72403" lon="7.26346">
        <ele>92.9</ele>
        <time>2013-09-06T12:19:43Z</time>
      </trkpt>
      <trkpt lat="43.72398" lon="7.26347">
        <ele>92.4</ele>
        <time>2013-09-06T12:19:44Z</time>
      </trkpt>
      <trkpt lat="43.72393" lon="7.26346">
        <ele>91.9</ele>
        <time>2013-09-06T12:19:45Z</time>
      </trkpt>
      <trkpt lat="43.72388" lon="7.26344">
        <ele>92.4</ele>
        <time>2013-09-06T12:19:46Z</time>
      </trkpt>
      <trkpt lat="43.72383" lon="7.26342">
        <ele>91.9</ele>
        <time>2013-09-06T12:19:47Z</time>
      </trkpt>
      <trkpt lat="43.72357" lon="7.26333">
        <ele>90</ele>
        <time>2013-09-06T12:19:51Z</time>
      </trkpt>
      <trkpt lat="43.7235" lon="7.26332">
        <ele>89.5</ele>
        <time>2013-09-06T12:19:52Z</time>
      </trkpt>
      <trkpt lat="43.72343" lon="7.26332">
        <ele>88.6</ele>
        <time>2013-09-06T12:19:53Z</time>
      </trkpt>
      <trkpt lat="43.7232" lon="7.26329">
        <ele>85.2</ele>
        <time>2013-09-06T12:19:57Z</time>
      </trkpt>
      <trkpt lat="43.72314" lon="7.26329">
        <ele>84.7</ele>
        <time>2013-09-06T12:19:58Z</time>
      </trkpt>
      <trkpt lat="43.72308" lon="7.2633">
        <ele>84.3</ele>
        <time>2013-09-06T12:19:59Z</time>
      </trkpt>
      <trkpt lat="43.72302" lon="7.26334">
        <ele>83.8</ele>
        <time>2013-09-06T12:20:00Z</time>
      </trkpt>
      <trkpt lat="43.72297" lon="7.26338">
        <ele>82.8</ele>
        <time>2013-09-06T12:20:01Z</time>
      </trkpt>
      <trkpt lat="43.72291" lon="7.26342">
        <ele>82.3</ele>
        <time>2013-09-06T12:20:02Z</time>
      </trkpt>
      <trkpt lat="43.72282" lon="7.26347">
        <ele>80.9</ele>
        <time>2013-09-06T12:20:04Z</time>
      </trkpt>
      <trkpt lat="43.72277" lon="7.26349">
        <ele>80.4</ele>
        <time>2013-09-06T12:20:05Z</time>
      </trkpt>
      <trkpt lat="43.72272" lon="7.26351">
        <ele>79.9</ele>
        <time>2013-09-06T12:20:06Z</time>
      </trkpt>
      <trkpt lat="43.72236" lon="7.26358">
        <ele>78</ele>
        <time>2013-09-06T12:20:15Z</time>
      </trkpt>
      <trkpt lat="43.72228" lon="7.26368">
        <ele>78</ele>
        <time>2013-09-06T12:20:31Z</time>
      </trkpt>
      <trkpt lat="43.72211" lon="7.26356">
        <ele>77</ele>
        <time>2013-09-06T12:20:44Z</time>
      </trkpt>
      <trkpt lat="43.72169" lon="7.2634">
        <ele>76.1</ele>
        <time>2013-09-06T12:20:54Z</time>
      </trkpt>
      <trkpt lat="43.72144" lon="7.26332">
        <ele>75.1</ele>
        <time>2013-09-06T12:20:59Z</time>
      </trkpt>
      <trkpt lat="43.72139" lon="7.26331">
        <ele>74.6</ele>
        <time>2013-09-06T12:21:00Z</time>
      </trkpt>
      <trkpt lat="43.72105" lon="7.26319">
        <ele>74.6</ele>
        <time>2013-09-06T12:21:06Z</time>
      </trkpt>
      <trkpt lat="43.72054" lon="7.26305">
        <ele>72.7</ele>
        <time>2013-09-06T12:21:17Z</time>
      </trkpt>
      <trkpt lat="43.72007" lon="7.26287">
        <ele>71.3</ele>
        <time>2013-09-06T12:21:29Z</time>
      </trkpt>
      <trkpt lat="43.72003" lon="7.26282">
        <ele>70.8</ele>
        <time>2013-09-06T12:21:58Z</time>
      </trkpt>
      <trkpt lat="43.71984" lon="7.26277">
        <ele>70.8</ele>
        <time>2013-09-06T12:22:14Z</time>
      </trkpt>
      <trkpt lat="43.71929" lon="7.26272">
        <ele>69.4</ele>
        <time>2013-09-06T12:22:25Z</time>
      </trkpt>
      <trkpt lat="43.71923" lon="7.26274">
        <ele>69.4</ele>
        <time>2013-09-06T12:22:26Z</time>
      </trkpt>
      <trkpt lat="43.71918" lon="7.26277">
        <ele>68.9</ele>
        <time>2013-09-06T12:22:27Z</time>
      </trkpt>
      <trkpt lat="43.71858" lon="7.263">
        <ele>67</ele>
        <time>2013-09-06T12:22:38Z</time>
      </trkpt>
      <trkpt lat="43.71814" lon="7.26313">
        <ele>65.5</ele>
        <time>2013-09-06T12:22:45Z</time>
      </trkpt>
      <trkpt lat="43.71808" lon="7.26313">
        <ele>65.5</ele>
        <time>2013-09-06T12:22:46Z</time>
      </trkpt>
      <trkpt lat="43.71801" lon="7.26312">
        <ele>65</ele>
        <time>2013-09-06T12:22:47Z</time>
      </trkpt>
      <trkpt lat="43.71714" lon="7.26256">
        <ele>63.1</ele>
        <time>2013-09-06T12:23:01Z</time>
      </trkpt>
      <trkpt lat="43.71698" lon="7.26246">
        <ele>61.7</ele>
        <time>2013-09-06T12:23:04Z</time>
      </trkpt>
      <trkpt lat="43.71692" lon="7.26244">
        <ele>62.1</ele>
        <time>2013-09-06T12:23:05Z</time>
      </trkpt>
      <trkpt lat="43.71687" lon="7.26244">
        <ele>61.2</ele>
        <time>2013-09-06T12:23:06Z</time>
      </trkpt>
      <trkpt lat="43.71681" lon="7.26244">
        <ele>61.7</ele>
        <time>2013-09-06T12:23:07Z</time>
      </trkpt>
      <trkpt lat="43.71675" lon="7.26246">
        <ele>60.7</ele>
        <time>2013-09-06T12:23:08Z</time>
      </trkpt>
      <trkpt lat="43.71669" lon="7.26249">
        <ele>61.2</ele>
        <time>2013-09-06T12:23:09Z</time>
      </trkpt>
      <trkpt lat="43.71592" lon="7.26278">
        <ele>59.3</ele>
        <time>2013-09-06T12:23:22Z</time>
      </trkpt>
      <trkpt lat="43.71569" lon="7.26274">
        <ele>59.3</ele>
        <time>2013-09-06T12:23:26Z</time>
      </trkpt>
      <trkpt lat="43.71564" lon="7.26271">
        <ele>59.3</ele>
        <time>2013-09-06T12:23:27Z</time>
      </trkpt>
      <trkpt lat="43.71549" lon="7.26264">
        <ele>58.3</ele>
        <time>2013-09-06T12:23:30Z</time>
      </trkpt>
      <trkpt lat="43.71502" lon="7.26257">
        <ele>56.9</ele>
        <time>2013-09-06T12:23:41Z</time>
      </trkpt>
      <trkpt lat="43.71481" lon="7.26257">
        <ele>56.4</ele>
        <time>2013-09-06T12:23:54Z</time>
      </trkpt>
      <trkpt lat="43.71437" lon="7.26263">
        <ele>54.9</ele>
        <time>2013-09-06T12:24:04Z</time>
      </trkpt>
      <trkpt lat="43.71413" lon="7.26268">
        <ele>54.5</ele>
        <time>2013-09-06T12:24:09Z</time>
      </trkpt>
      <trkpt lat="43.71409" lon="7.26269">
        <ele>54.9</ele>
        <time>2013-09-06T12:24:10Z</time>
      </trkpt>
      <trkpt lat="43.71397" lon="7.26272">
        <ele>54</ele>
        <time>2013-09-06T12:24:15Z</time>
      </trkpt>
      <trkpt lat="43.71365" lon="7.26284">
        <ele>52.5</ele>
        <time>2013-09-06T12:24:25Z</time>
      </trkpt>
      <trkpt lat="43.71323" lon="7.26303">
        <ele>52.1</ele>
        <time>2013-09-06T12:24:33Z</time>
      </trkpt>
      <trkpt lat="43.71318" lon="7.26302">
        <ele>51.6</ele>
        <time>2013-09-06T12:24:34Z</time>
      </trkpt>
      <trkpt lat="43.71296" lon="7.26299">
        <ele>50.1</ele>
        <time>2013-09-06T12:24:42Z</time>
      </trkpt>
      <trkpt lat="43.71295" lon="7.26298">
        <ele>50.6</ele>
        <time>2013-09-06T12:24:43Z</time>
      </trkpt>
      <trkpt lat="43.71294" lon="7.26297">
        <ele>50.6</ele>
        <time>2013-09-06T12:24:44Z</time>
      </trkpt>
      <trkpt lat="43.71292" lon="7.26298">
        <ele>50.6</ele>
        <time>2013-09-06T12:24:45Z</time>
      </trkpt>
      <trkpt lat="43.71291" lon="7.26298">
        <ele>50.1</ele>
        <time>2013-09-06T12:24:46Z</time>
      </trkpt>
      <trkpt lat="43.7129" lon="7.26299">
        <ele>50.1</ele>
        <time>2013-09-06T12:24:47Z</time>
      </trkpt>
      <trkpt lat="43.71288" lon="7.263">
        <ele>50.1</ele>
        <time>2013-09-06T12:24:48Z</time>
      </trkpt>
      <trkpt lat="43.71286" lon="7.263">
        <ele>50.1</ele>
        <time>2013-09-06T12:24:49Z</time>
      </trkpt>
      <trkpt lat="43.71259" lon="7.26295">
        <ele>50.1</ele>
        <time>2013-09-06T12:25:03Z</time>
      </trkpt>
      <trkpt lat="43.71257" lon="7.26294">
        <ele>49.2</ele>
        <time>2013-09-06T12:25:04Z</time>
      </trkpt>
      <trkpt lat="43.71252" lon="7.26296">
        <ele>49.2</ele>
        <time>2013-09-06T12:25:05Z</time>
      </trkpt>
      <trkpt lat="43.71247" lon="7.26298">
        <ele>49.2</ele>
        <time>2013-09-06T12:25:06Z</time>
      </trkpt>
      <trkpt lat="43.71225" lon="7.26305">
        <ele>48.2</ele>
        <time>2013-09-06T12:25:11Z</time>
      </trkpt>
      <trkpt lat="43.71175" lon="7.26321">
        <ele>46.3</ele>
        <time>2013-09-06T12:25:18Z</time>
      </trkpt>
      <trkpt lat="43.71168" lon="7.26322">
        <ele>46.8</ele>
        <time>2013-09-06T12:25:19Z</time>
      </trkpt>
      <trkpt lat="43.71159" lon="7.26324">
        <ele>46.8</ele>
        <time>2013-09-06T12:25:20Z</time>
      </trkpt>
      <trkpt lat="43.7115" lon="7.26326">
        <ele>46.3</ele>
        <time>2013-09-06T12:25:21Z</time>
      </trkpt>
      <trkpt lat="43.71089" lon="7.26346">
        <ele>44.8</ele>
        <time>2013-09-06T12:25:30Z</time>
      </trkpt>
      <trkpt lat="43.71076" lon="7.26349">
        <ele>43.9</ele>
        <time>2013-09-06T12:25:33Z</time>
      </trkpt>
      <trkpt lat="43.71073" lon="7.26345">
        <ele>43.9</ele>
        <time>2013-09-06T12:25:34Z</time>
      </trkpt>
      <trkpt lat="43.7107" lon="7.26341">
        <ele>43.9</ele>
        <time>2013-09-06T12:25:35Z</time>
      </trkpt>
      <trkpt lat="43.71047" lon="7.26276">
        <ele>44.8</ele>
        <time>2013-09-06T12:25:47Z</time>
      </trkpt>
      <trkpt lat="43.71046" lon="7.26272">
        <ele>44.8</ele>
        <time>2013-09-06T12:25:48Z</time>
      </trkpt>
      <trkpt lat="43.71038" lon="7.26248">
        <ele>43.9</ele>
        <time>2013-09-06T12:25:58Z</time>
      </trkpt>
      <trkpt lat="43.71035" lon="7.26239">
        <ele>43.9</ele>
        <time>2013-09-06T12:26:13Z</time>
      </trkpt>
      <trkpt lat="43.71031" lon="7.26217">
        <ele>43.4</ele>
        <time>2013-09-06T12:26:29Z</time>
      </trkpt>
      <trkpt lat="43.7102" lon="7.26168">
        <ele>43.4</ele>
        <time>2013-09-06T12:26:40Z</time>
      </trkpt>
      <trkpt lat="43.71019" lon="7.26134">
        <ele>43.4</ele>
        <time>2013-09-06T12:26:46Z</time>
      </trkpt>
      <trkpt lat="43.71019" lon="7.26128">
        <ele>43.4</ele>
        <time>2013-09-06T12:26:47Z</time>
      </trkpt>
      <trkpt lat="43.7102" lon="7.26116">
        <ele>44.4</ele>
        <time>2013-09-06T12:26:49Z</time>
      </trkpt>
      <trkpt lat="43.71017" lon="7.26086">
        <ele>43.9</ele>
        <time>2013-09-06T12:26:54Z</time>
      </trkpt>
      <trkpt lat="43.71019" lon="7.2608">
        <ele>43.9</ele>
        <time>2013-09-06T12:26:55Z</time>
      </trkpt>
      <trkpt lat="43.7102" lon="7.26075">
        <ele>43.9</ele>
        <time>2013-09-06T12:26:56Z</time>
      </trkpt>
      <trkpt lat="43.71018" lon="7.26013">
        <ele>44.4</ele>
        <time>2013-09-06T12:27:10Z</time>
      </trkpt>
      <trkpt lat="43.71012" lon="7.26006">
        <ele>44.8</ele>
        <time>2013-09-06T12:27:13Z</time>
      </trkpt>
      <trkpt lat="43.7101" lon="7.26004">
        <ele>44.8</ele>
        <time>2013-09-06T12:27:14Z</time>
      </trkpt>
      <trkpt lat="43.71008" lon="7.26003">
        <ele>44.8</ele>
        <time>2013-09-06T12:27:15Z</time>
      </trkpt>
      <trkpt lat="43.71006" lon="7.26003">
        <ele>44.8</ele>
        <time>2013-09-06T12:27:16Z</time>
      </trkpt>
      <trkpt lat="43.71005" lon="7.26003">
        <ele>44.4</ele>
        <time>2013-09-06T12:27:17Z</time>
      </trkpt>
      <trkpt lat="43.7099" lon="7.26005">
        <ele>44.4</ele>
        <time>2013-09-06T12:27:24Z</time>
      </trkpt>
      <trkpt lat="43.70986" lon="7.26003">
        <ele>44.4</ele>
        <time>2013-09-06T12:27:26Z</time>
      </trkpt>
      <trkpt lat="43.70926" lon="7.25999">
        <ele>43.9</ele>
        <time>2013-09-06T12:27:36Z</time>
      </trkpt>
      <trkpt lat="43.70862" lon="7.25985">
        <ele>42.4</ele>
        <time>2013-09-06T12:27:50Z</time>
      </trkpt>
      <trkpt lat="43.70831" lon="7.2598">
        <ele>42</ele>
        <time>2013-09-06T12:28:00Z</time>
      </trkpt>
      <trkpt lat="43.70827" lon="7.2598">
        <ele>41.5</ele>
        <time>2013-09-06T12:28:01Z</time>
      </trkpt>
      <trkpt lat="43.70822" lon="7.25981">
        <ele>41.5</ele>
        <time>2013-09-06T12:28:02Z</time>
      </trkpt>
      <trkpt lat="43.70813" lon="7.25985">
        <ele>41.5</ele>
        <time>2013-09-06T12:28:04Z</time>
      </trkpt>
      <trkpt lat="43.70809" lon="7.25986">
        <ele>41.5</ele>
        <time>2013-09-06T12:28:05Z</time>
      </trkpt>
      <trkpt lat="43.70758" lon="7.25988">
        <ele>40.5</ele>
        <time>2013-09-06T12:28:16Z</time>
      </trkpt>
      <trkpt lat="43.70732" lon="7.25986">
        <ele>39.1</ele>
        <time>2013-09-06T12:28:21Z</time>
      </trkpt>
      <trkpt lat="43.70674" lon="7.25984">
        <ele>37.6</ele>
        <time>2013-09-06T12:28:32Z</time>
      </trkpt>
      <trkpt lat="43.70607" lon="7.25971">
        <ele>37.6</ele>
        <time>2013-09-06T12:28:45Z</time>
      </trkpt>
      <trkpt lat="43.70588" lon="7.25971">
        <ele>37.2</ele>
        <time>2013-09-06T12:28:51Z</time>
      </trkpt>
      <trkpt lat="43.70585" lon="7.25972">
        <ele>37.6</ele>
        <time>2013-09-06T12:28:52Z</time>
      </trkpt>
      <trkpt lat="43.70584" lon="7.25974">
        <ele>37.2</ele>
        <time>2013-09-06T12:28:53Z</time>
      </trkpt>
      <trkpt lat="43.70583" lon="7.25978">
        <ele>37.2</ele>
        <time>2013-09-06T12:28:54Z</time>
      </trkpt>
      <trkpt lat="43.70583" lon="7.25981">
        <ele>36.7</ele>
        <time>2013-09-06T12:28:55Z</time>
      </trkpt>
      <trkpt lat="43.70582" lon="7.25984">
        <ele>36.7</ele>
        <time>2013-09-06T12:28:56Z</time>
      </trkpt>
      <trkpt lat="43.70583" lon="7.25987">
        <ele>36.7</ele>
        <time>2013-09-06T12:28:57Z</time>
      </trkpt>
      <trkpt lat="43.70582" lon="7.25991">
        <ele>36.7</ele>
        <time>2013-09-06T12:28:58Z</time>
      </trkpt>
      <trkpt lat="43.70582" lon="7.25995">
        <ele>36.7</ele>
        <time>2013-09-06T12:28:59Z</time>
      </trkpt>
      <trkpt lat="43.70581" lon="7.26">
        <ele>36.2</ele>
        <time>2013-09-06T12:29:00Z</time>
      </trkpt>
      <trkpt lat="43.70582" lon="7.26057">
        <ele>35.2</ele>
        <time>2013-09-06T12:29:12Z</time>
      </trkpt>
      <trkpt lat="43.70575" lon="7.26058">
        <ele>34.7</ele>
        <time>2013-09-06T12:29:27Z</time>
      </trkpt>
      <trkpt lat="43.70569" lon="7.26065">
        <ele>34.7</ele>
        <time>2013-09-06T12:29:56Z</time>
      </trkpt>
      <trkpt lat="43.70569" lon="7.26066">
        <ele>35.2</ele>
        <time>2013-09-06T12:29:57Z</time>
      </trkpt>
      <trkpt lat="43.7057" lon="7.26071">
        <ele>34.7</ele>
        <time>2013-09-06T12:30:00Z</time>
      </trkpt>
      <trkpt lat="43.7057" lon="7.26074">
        <ele>35.2</ele>
        <time>2013-09-06T12:30:01Z</time>
      </trkpt>
      <trkpt lat="43.70571" lon="7.26078">
        <ele>35.7</ele>
        <time>2013-09-06T12:30:02Z</time>
      </trkpt>
      <trkpt lat="43.70572" lon="7.26083">
        <ele>35.2</ele>
        <time>2013-09-06T12:30:03Z</time>
      </trkpt>
      <trkpt lat="43.70574" lon="7.26088">
        <ele>35.2</ele>
        <time>2013-09-06T12:30:04Z</time>
      </trkpt>
      <trkpt lat="43.70575" lon="7.26095">
        <ele>34.7</ele>
        <time>2013-09-06T12:30:05Z</time>
      </trkpt>
      <trkpt lat="43.70576" lon="7.26101">
        <ele>35.2</ele>
        <time>2013-09-06T12:30:06Z</time>
      </trkpt>
      <trkpt lat="43.70576" lon="7.26108">
        <ele>35.2</ele>
        <time>2013-09-06T12:30:07Z</time>
      </trkpt>
      <trkpt lat="43.70577" lon="7.26115">
        <ele>35.2</ele>
        <time>2013-09-06T12:30:08Z</time>
      </trkpt>
      <trkpt lat="43.70577" lon="7.26122">
        <ele>35.2</ele>
        <time>2013-09-06T12:30:09Z</time>
      </trkpt>
      <trkpt lat="43.70583" lon="7.26196">
        <ele>33.3</ele>
        <time>2013-09-06T12:30:23Z</time>
      </trkpt>
      <trkpt lat="43.70594" lon="7.26199">
        <ele>33.3</ele>
        <time>2013-09-06T12:30:36Z</time>
      </trkpt>
      <trkpt lat="43.70598" lon="7.26202">
        <ele>33.3</ele>
        <time>2013-09-06T12:30:45Z</time>
      </trkpt>
      <trkpt lat="43.70602" lon="7.26229">
        <ele>29.9</ele>
        <time>2013-09-06T12:30:55Z</time>
      </trkpt>
      <trkpt lat="43.70603" lon="7.26231">
        <ele>29.5</ele>
        <time>2013-09-06T12:30:56Z</time>
      </trkpt>
      <trkpt lat="43.70614" lon="7.26259">
        <ele>29</ele>
        <time>2013-09-06T12:31:09Z</time>
      </trkpt>
      <trkpt lat="43.70621" lon="7.26276">
        <ele>29.5</ele>
        <time>2013-09-06T12:31:17Z</time>
      </trkpt>
      <trkpt lat="43.70365" lon="7.26246">
        <ele>30.4</ele>
        <time>2013-09-06T12:31:19Z</time>
      </trkpt>
      <trkpt lat="43.70369" lon="7.26253">
        <ele>29.5</ele>
        <time>2013-09-06T12:31:20Z</time>
      </trkpt>
      <trkpt lat="43.70367" lon="7.26251">
        <ele>29.9</ele>
        <time>2013-09-06T12:31:21Z</time>
      </trkpt>
      <trkpt lat="43.70365" lon="7.26252">
        <ele>29.9</ele>
        <time>2013-09-06T12:31:22Z</time>
      </trkpt>
      <trkpt lat="43.70341" lon="7.26254">
        <ele>29.5</ele>
        <time>2013-09-06T12:31:27Z</time>
      </trkpt>
      <trkpt lat="43.70336" lon="7.26254">
        <ele>29.5</ele>
        <time>2013-09-06T12:31:28Z</time>
      </trkpt>
      <trkpt lat="43.70285" lon="7.26251">
        <ele>28.5</ele>
        <time>2013-09-06T12:31:39Z</time>
      </trkpt>
      <trkpt lat="43.70246" lon="7.2625">
        <ele>28.5</ele>
        <time>2013-09-06T12:31:49Z</time>
      </trkpt>
      <trkpt lat="43.7021" lon="7.26253">
        <ele>27.5</ele>
        <time>2013-09-06T12:32:02Z</time>
      </trkpt>
      <trkpt lat="43.70205" lon="7.26253">
        <ele>28</ele>
        <time>2013-09-06T12:32:16Z</time>
      </trkpt>
      <trkpt lat="43.70215" lon="7.26252">
        <ele>28</ele>
        <time>2013-09-06T12:32:30Z</time>
      </trkpt>
      <trkpt lat="43.70217" lon="7.26249">
        <ele>27.5</ele>
        <time>2013-09-06T12:32:43Z</time>
      </trkpt>
      <trkpt lat="43.70217" lon="7.2625">
        <ele>38.6</ele>
        <time>2013-09-06T12:46:48Z</time>
      </trkpt>
      <trkpt lat="43.70214" lon="7.26244">
        <ele>37.6</ele>
        <time>2013-09-06T12:46:49Z</time>
      </trkpt>
      <trkpt lat="43.70214" lon="7.26256">
        <ele>38.1</ele>
        <time>2013-09-06T12:47:11Z</time>
      </trkpt>
      <trkpt lat="43.70203" lon="7.26259">
        <ele>39.1</ele>
        <time>2013-09-06T12:47:23Z</time>
      </trkpt>
      <trkpt lat="43.70186" lon="7.26261">
        <ele>42</ele>
        <time>2013-09-06T12:47:40Z</time>
      </trkpt>
      <trkpt lat="43.70178" lon="7.26262">
        <ele>42.4</ele>
        <time>2013-09-06T12:48:01Z</time>
      </trkpt>
      <trkpt lat="43.70123" lon="7.2625">
        <ele>42</ele>
        <time>2013-09-06T12:48:18Z</time>
      </trkpt>
      <trkpt lat="43.70058" lon="7.26224">
        <ele>42</ele>
        <time>2013-09-06T12:48:30Z</time>
      </trkpt>
      <trkpt lat="43.70027" lon="7.26221">
        <ele>42.4</ele>
        <time>2013-09-06T12:48:39Z</time>
      </trkpt>
      <trkpt lat="43.69984" lon="7.26222">
        <ele>42</ele>
        <time>2013-09-06T12:48:56Z</time>
      </trkpt>
      <trkpt lat="43.69979" lon="7.26219">
        <ele>42</ele>
        <time>2013-09-06T12:48:58Z</time>
      </trkpt>
      <trkpt lat="43.69975" lon="7.26217">
        <ele>42</ele>
        <time>2013-09-06T12:48:59Z</time>
      </trkpt>
      <trkpt lat="43.69938" lon="7.26217">
        <ele>41</ele>
        <time>2013-09-06T12:49:08Z</time>
      </trkpt>
      <trkpt lat="43.69908" lon="7.26223">
        <ele>41</ele>
        <time>2013-09-06T12:49:18Z</time>
      </trkpt>
      <trkpt lat="43.69917" lon="7.26253">
        <ele>41.5</ele>
        <time>2013-09-06T12:49:35Z</time>
      </trkpt>
      <trkpt lat="43.69916" lon="7.26254">
        <ele>41</ele>
        <time>2013-09-06T12:49:36Z</time>
      </trkpt>
      <trkpt lat="43.69911" lon="7.26257">
        <ele>41.5</ele>
        <time>2013-09-06T12:49:39Z</time>
      </trkpt>
      <trkpt lat="43.69909" lon="7.26258">
        <ele>41.5</ele>
        <time>2013-09-06T12:49:40Z</time>
      </trkpt>
      <trkpt lat="43.69906" lon="7.26258">
        <ele>41.5</ele>
        <time>2013-09-06T12:49:41Z</time>
      </trkpt>
      <trkpt lat="43.69901" lon="7.26258">
        <ele>41.5</ele>
        <time>2013-09-06T12:49:42Z</time>
      </trkpt>
      <trkpt lat="43.69882" lon="7.26258">
        <ele>41</ele>
        <time>2013-09-06T12:49:46Z</time>
      </trkpt>
      <trkpt lat="43.69866" lon="7.26265">
        <ele>41</ele>
        <time>2013-09-06T12:49:51Z</time>
      </trkpt>
      <trkpt lat="43.69829" lon="7.26277">
        <ele>40.5</ele>
        <time>2013-09-06T12:50:01Z</time>
      </trkpt>
      <trkpt lat="43.69811" lon="7.26284">
        <ele>40</ele>
        <time>2013-09-06T12:50:05Z</time>
      </trkpt>
      <trkpt lat="43.69807" lon="7.26286">
        <ele>40.5</ele>
        <time>2013-09-06T12:50:06Z</time>
      </trkpt>
      <trkpt lat="43.69799" lon="7.26287">
        <ele>40.5</ele>
        <time>2013-09-06T12:50:07Z</time>
      </trkpt>
      <trkpt lat="43.69794" lon="7.26287">
        <ele>40.5</ele>
        <time>2013-09-06T12:50:08Z</time>
      </trkpt>
      <trkpt lat="43.69713" lon="7.26304">
        <ele>40</ele>
        <time>2013-09-06T12:50:22Z</time>
      </trkpt>
      <trkpt lat="43.69669" lon="7.26303">
        <ele>39.6</ele>
        <time>2013-09-06T12:50:29Z</time>
      </trkpt>
      <trkpt lat="43.6964" lon="7.26311">
        <ele>40</ele>
        <time>2013-09-06T12:50:33Z</time>
      </trkpt>
      <trkpt lat="43.69631" lon="7.26312">
        <ele>39.6</ele>
        <time>2013-09-06T12:50:34Z</time>
      </trkpt>
      <trkpt lat="43.69576" lon="7.26312">
        <ele>39.6</ele>
        <time>2013-09-06T12:50:45Z</time>
      </trkpt>
      <trkpt lat="43.69528" lon="7.26309">
        <ele>40</ele>
        <time>2013-09-06T12:50:59Z</time>
      </trkpt>
      <trkpt lat="43.6951" lon="7.26328">
        <ele>40.5</ele>
        <time>2013-09-06T12:51:10Z</time>
      </trkpt>
      <trkpt lat="43.69502" lon="7.26339">
        <ele>40.5</ele>
        <time>2013-09-06T12:51:32Z</time>
      </trkpt>
      <trkpt lat="43.69494" lon="7.26351">
        <ele>40</ele>
        <time>2013-09-06T12:51:39Z</time>
      </trkpt>
      <trkpt lat="43.69493" lon="7.26353">
        <ele>39.6</ele>
        <time>2013-09-06T12:51:40Z</time>
      </trkpt>
      <trkpt lat="43.69492" lon="7.26356">
        <ele>40</ele>
        <time>2013-09-06T12:51:41Z</time>
      </trkpt>
      <trkpt lat="43.69486" lon="7.26377">
        <ele>39.6</ele>
        <time>2013-09-06T12:51:51Z</time>
      </trkpt>
      <trkpt lat="43.69478" lon="7.26385">
        <ele>39.1</ele>
        <time>2013-09-06T12:52:05Z</time>
      </trkpt>
      <trkpt lat="43.69473" lon="7.26392">
        <ele>39.1</ele>
        <time>2013-09-06T12:52:18Z</time>
      </trkpt>
      <trkpt lat="43.69473" lon="7.26394">
        <ele>38.6</ele>
        <time>2013-09-06T12:52:46Z</time>
      </trkpt>
      <trkpt lat="43.69471" lon="7.26396">
        <ele>38.6</ele>
        <time>2013-09-06T12:53:24Z</time>
      </trkpt>
      <trkpt lat="43.6947" lon="7.2639">
        <ele>34.3</ele>
        <time>2013-09-06T12:53:31Z</time>
      </trkpt>
      <trkpt lat="43.69469" lon="7.26389">
        <ele>34.3</ele>
        <time>2013-09-06T12:53:32Z</time>
      </trkpt>
    </trkseg>
  </trk>
</gpx>